<?xml version="1.0" encoding="UTF-8" standalone="no" ?>
<gpx xmlns="http://www.topografix.com/GPX/1/1" xmlns:xsi="http://www.w3.org/2001/XMLSchema-instance" xsi:schemaLocation="http://www.topografix.com/GPX/1/1 http://www.topografix.com/GPX/1/1/gpx.xsd" version="1.1" creator="VisuGPX - https://www.visugpx.com">
  <metadata>
    <name>De Gières à Freydières</name>
  </metadata>
  <trk>
    <name><![CDATA[Bloc 3 J 2/3]]></name>
    <extensions>
      <line xmlns="http://www.topografix.com/GPX/gpx_style/0/2">
        <color>0000FF</color>
        <width>4</width>
      </line>
    </extensions>
    <trkseg>
      <trkpt lat="45.18244" lon="5.78361">
        <ele>220.6</ele>
        <time>2021-04-10T06:00:26Z</time>
      </trkpt>
      <trkpt lat="45.18244" lon="5.78361">
        <ele>220.6</ele>
        <time>2021-04-10T06:00:34Z</time>
      </trkpt>
      <trkpt lat="45.18244" lon="5.78361">
        <ele>220.6</ele>
        <time>2021-04-10T06:00:35Z</time>
      </trkpt>
      <trkpt lat="45.18244" lon="5.78361">
        <ele>221</ele>
        <time>2021-04-10T06:00:36Z</time>
      </trkpt>
      <trkpt lat="45.18244" lon="5.78361">
        <ele>220.8</ele>
        <time>2021-04-10T06:00:37Z</time>
      </trkpt>
      <trkpt lat="45.18244" lon="5.78361">
        <ele>221</ele>
        <time>2021-04-10T06:00:38Z</time>
      </trkpt>
      <trkpt lat="45.18244" lon="5.78361">
        <ele>221</ele>
        <time>2021-04-10T06:00:39Z</time>
      </trkpt>
      <trkpt lat="45.18244" lon="5.78361">
        <ele>221</ele>
        <time>2021-04-10T06:00:40Z</time>
      </trkpt>
      <trkpt lat="45.18244" lon="5.78361">
        <ele>221</ele>
        <time>2021-04-10T06:00:41Z</time>
      </trkpt>
      <trkpt lat="45.18244" lon="5.78361">
        <ele>220.8</ele>
        <time>2021-04-10T06:00:42Z</time>
      </trkpt>
      <trkpt lat="45.18244" lon="5.78361">
        <ele>220.8</ele>
        <time>2021-04-10T06:00:43Z</time>
      </trkpt>
      <trkpt lat="45.18244" lon="5.78361">
        <ele>220.8</ele>
        <time>2021-04-10T06:00:44Z</time>
      </trkpt>
      <trkpt lat="45.18244" lon="5.78361">
        <ele>220.8</ele>
        <time>2021-04-10T06:00:45Z</time>
      </trkpt>
      <trkpt lat="45.18244" lon="5.78361">
        <ele>220.8</ele>
        <time>2021-04-10T06:00:46Z</time>
      </trkpt>
      <trkpt lat="45.18244" lon="5.78361">
        <ele>220.8</ele>
        <time>2021-04-10T06:00:47Z</time>
      </trkpt>
      <trkpt lat="45.18244" lon="5.78361">
        <ele>221</ele>
        <time>2021-04-10T06:00:48Z</time>
      </trkpt>
      <trkpt lat="45.18244" lon="5.78361">
        <ele>220.8</ele>
        <time>2021-04-10T06:00:49Z</time>
      </trkpt>
      <trkpt lat="45.18242" lon="5.78363">
        <ele>220.8</ele>
        <time>2021-04-10T06:00:50Z</time>
      </trkpt>
      <trkpt lat="45.18241" lon="5.78364">
        <ele>221</ele>
        <time>2021-04-10T06:00:51Z</time>
      </trkpt>
      <trkpt lat="45.1824" lon="5.78366">
        <ele>221</ele>
        <time>2021-04-10T06:00:52Z</time>
      </trkpt>
      <trkpt lat="45.18239" lon="5.78368">
        <ele>220.8</ele>
        <time>2021-04-10T06:00:53Z</time>
      </trkpt>
      <trkpt lat="45.18238" lon="5.78369">
        <ele>220.8</ele>
        <time>2021-04-10T06:00:54Z</time>
      </trkpt>
      <trkpt lat="45.18238" lon="5.7837">
        <ele>221</ele>
        <time>2021-04-10T06:00:55Z</time>
      </trkpt>
      <trkpt lat="45.18237" lon="5.78371">
        <ele>221</ele>
        <time>2021-04-10T06:00:56Z</time>
      </trkpt>
      <trkpt lat="45.18237" lon="5.78371">
        <ele>221</ele>
        <time>2021-04-10T06:00:57Z</time>
      </trkpt>
      <trkpt lat="45.18235" lon="5.78375">
        <ele>221.2</ele>
        <time>2021-04-10T06:00:58Z</time>
      </trkpt>
      <trkpt lat="45.18235" lon="5.78377">
        <ele>221</ele>
        <time>2021-04-10T06:00:59Z</time>
      </trkpt>
      <trkpt lat="45.18234" lon="5.7838">
        <ele>221</ele>
        <time>2021-04-10T06:01:00Z</time>
      </trkpt>
      <trkpt lat="45.18233" lon="5.78383">
        <ele>221</ele>
        <time>2021-04-10T06:01:01Z</time>
      </trkpt>
      <trkpt lat="45.18233" lon="5.78383">
        <ele>221</ele>
        <time>2021-04-10T06:01:02Z</time>
      </trkpt>
      <trkpt lat="45.18231" lon="5.78387">
        <ele>221</ele>
        <time>2021-04-10T06:01:03Z</time>
      </trkpt>
      <trkpt lat="45.18231" lon="5.78387">
        <ele>221.2</ele>
        <time>2021-04-10T06:01:04Z</time>
      </trkpt>
      <trkpt lat="45.18231" lon="5.78387">
        <ele>221</ele>
        <time>2021-04-10T06:01:05Z</time>
      </trkpt>
      <trkpt lat="45.18231" lon="5.78387">
        <ele>221.4</ele>
        <time>2021-04-10T06:01:06Z</time>
      </trkpt>
      <trkpt lat="45.1823" lon="5.78391">
        <ele>221.6</ele>
        <time>2021-04-10T06:01:07Z</time>
      </trkpt>
      <trkpt lat="45.18228" lon="5.78395">
        <ele>221.8</ele>
        <time>2021-04-10T06:01:08Z</time>
      </trkpt>
      <trkpt lat="45.18227" lon="5.78399">
        <ele>221.6</ele>
        <time>2021-04-10T06:01:09Z</time>
      </trkpt>
      <trkpt lat="45.18225" lon="5.78403">
        <ele>221.6</ele>
        <time>2021-04-10T06:01:10Z</time>
      </trkpt>
      <trkpt lat="45.18223" lon="5.78407">
        <ele>221.6</ele>
        <time>2021-04-10T06:01:11Z</time>
      </trkpt>
      <trkpt lat="45.1822" lon="5.78413">
        <ele>221.8</ele>
        <time>2021-04-10T06:01:12Z</time>
      </trkpt>
      <trkpt lat="45.1822" lon="5.78413">
        <ele>221.8</ele>
        <time>2021-04-10T06:01:13Z</time>
      </trkpt>
      <trkpt lat="45.1822" lon="5.78413">
        <ele>222</ele>
        <time>2021-04-10T06:01:14Z</time>
      </trkpt>
      <trkpt lat="45.1822" lon="5.78413">
        <ele>221.8</ele>
        <time>2021-04-10T06:01:15Z</time>
      </trkpt>
      <trkpt lat="45.1822" lon="5.78416">
        <ele>221.8</ele>
        <time>2021-04-10T06:01:16Z</time>
      </trkpt>
      <trkpt lat="45.18219" lon="5.78418">
        <ele>221.8</ele>
        <time>2021-04-10T06:01:17Z</time>
      </trkpt>
      <trkpt lat="45.18219" lon="5.78421">
        <ele>222</ele>
        <time>2021-04-10T06:01:18Z</time>
      </trkpt>
      <trkpt lat="45.18218" lon="5.78423">
        <ele>221.8</ele>
        <time>2021-04-10T06:01:19Z</time>
      </trkpt>
      <trkpt lat="45.18218" lon="5.78426">
        <ele>222</ele>
        <time>2021-04-10T06:01:20Z</time>
      </trkpt>
      <trkpt lat="45.18216" lon="5.78439">
        <ele>221.6</ele>
        <time>2021-04-10T06:01:21Z</time>
      </trkpt>
      <trkpt lat="45.18216" lon="5.78439">
        <ele>221.6</ele>
        <time>2021-04-10T06:01:22Z</time>
      </trkpt>
      <trkpt lat="45.18216" lon="5.78439">
        <ele>221</ele>
        <time>2021-04-10T06:01:24Z</time>
      </trkpt>
      <trkpt lat="45.18215" lon="5.78443">
        <ele>221.4</ele>
        <time>2021-04-10T06:01:25Z</time>
      </trkpt>
      <trkpt lat="45.18214" lon="5.78447">
        <ele>221.4</ele>
        <time>2021-04-10T06:01:26Z</time>
      </trkpt>
      <trkpt lat="45.18213" lon="5.7845">
        <ele>221.6</ele>
        <time>2021-04-10T06:01:27Z</time>
      </trkpt>
      <trkpt lat="45.18211" lon="5.78454">
        <ele>221.6</ele>
        <time>2021-04-10T06:01:28Z</time>
      </trkpt>
      <trkpt lat="45.1821" lon="5.78458">
        <ele>221.8</ele>
        <time>2021-04-10T06:01:29Z</time>
      </trkpt>
      <trkpt lat="45.18209" lon="5.78465">
        <ele>222</ele>
        <time>2021-04-10T06:01:30Z</time>
      </trkpt>
      <trkpt lat="45.18209" lon="5.78465">
        <ele>222.2</ele>
        <time>2021-04-10T06:01:31Z</time>
      </trkpt>
      <trkpt lat="45.18209" lon="5.78465">
        <ele>222</ele>
        <time>2021-04-10T06:01:32Z</time>
      </trkpt>
      <trkpt lat="45.18209" lon="5.78465">
        <ele>222.4</ele>
        <time>2021-04-10T06:01:33Z</time>
      </trkpt>
      <trkpt lat="45.18208" lon="5.78468">
        <ele>222.2</ele>
        <time>2021-04-10T06:01:34Z</time>
      </trkpt>
      <trkpt lat="45.18207" lon="5.7847">
        <ele>222.6</ele>
        <time>2021-04-10T06:01:35Z</time>
      </trkpt>
      <trkpt lat="45.18207" lon="5.78473">
        <ele>222.2</ele>
        <time>2021-04-10T06:01:36Z</time>
      </trkpt>
      <trkpt lat="45.18206" lon="5.78476">
        <ele>222.2</ele>
        <time>2021-04-10T06:01:37Z</time>
      </trkpt>
      <trkpt lat="45.18205" lon="5.78479">
        <ele>222</ele>
        <time>2021-04-10T06:01:38Z</time>
      </trkpt>
      <trkpt lat="45.18199" lon="5.78489">
        <ele>221.8</ele>
        <time>2021-04-10T06:01:39Z</time>
      </trkpt>
      <trkpt lat="45.18199" lon="5.78489">
        <ele>221.8</ele>
        <time>2021-04-10T06:01:40Z</time>
      </trkpt>
      <trkpt lat="45.18199" lon="5.78489">
        <ele>221.8</ele>
        <time>2021-04-10T06:01:41Z</time>
      </trkpt>
      <trkpt lat="45.18199" lon="5.78489">
        <ele>222</ele>
        <time>2021-04-10T06:01:42Z</time>
      </trkpt>
      <trkpt lat="45.18198" lon="5.78493">
        <ele>222.2</ele>
        <time>2021-04-10T06:01:43Z</time>
      </trkpt>
      <trkpt lat="45.18197" lon="5.78497">
        <ele>222.4</ele>
        <time>2021-04-10T06:01:44Z</time>
      </trkpt>
      <trkpt lat="45.18196" lon="5.78501">
        <ele>222.4</ele>
        <time>2021-04-10T06:01:45Z</time>
      </trkpt>
      <trkpt lat="45.18195" lon="5.78505">
        <ele>222.8</ele>
        <time>2021-04-10T06:01:46Z</time>
      </trkpt>
      <trkpt lat="45.18194" lon="5.78509">
        <ele>222.8</ele>
        <time>2021-04-10T06:01:47Z</time>
      </trkpt>
      <trkpt lat="45.18193" lon="5.78515">
        <ele>223.2</ele>
        <time>2021-04-10T06:01:48Z</time>
      </trkpt>
      <trkpt lat="45.18192" lon="5.78519">
        <ele>223.2</ele>
        <time>2021-04-10T06:01:49Z</time>
      </trkpt>
      <trkpt lat="45.18191" lon="5.78522">
        <ele>223.4</ele>
        <time>2021-04-10T06:01:50Z</time>
      </trkpt>
      <trkpt lat="45.18191" lon="5.78526">
        <ele>223.4</ele>
        <time>2021-04-10T06:01:51Z</time>
      </trkpt>
      <trkpt lat="45.1819" lon="5.78529">
        <ele>223.8</ele>
        <time>2021-04-10T06:01:52Z</time>
      </trkpt>
      <trkpt lat="45.1819" lon="5.78529">
        <ele>223.6</ele>
        <time>2021-04-10T06:01:53Z</time>
      </trkpt>
      <trkpt lat="45.1819" lon="5.78529">
        <ele>224</ele>
        <time>2021-04-10T06:01:54Z</time>
      </trkpt>
      <trkpt lat="45.1819" lon="5.78529">
        <ele>223.6</ele>
        <time>2021-04-10T06:01:55Z</time>
      </trkpt>
      <trkpt lat="45.1819" lon="5.78532">
        <ele>223.8</ele>
        <time>2021-04-10T06:01:56Z</time>
      </trkpt>
      <trkpt lat="45.18191" lon="5.78535">
        <ele>223.4</ele>
        <time>2021-04-10T06:01:57Z</time>
      </trkpt>
      <trkpt lat="45.18191" lon="5.78537">
        <ele>223.4</ele>
        <time>2021-04-10T06:01:58Z</time>
      </trkpt>
      <trkpt lat="45.18191" lon="5.7854">
        <ele>223.6</ele>
        <time>2021-04-10T06:01:59Z</time>
      </trkpt>
      <trkpt lat="45.18192" lon="5.78543">
        <ele>223.6</ele>
        <time>2021-04-10T06:02:00Z</time>
      </trkpt>
      <trkpt lat="45.18193" lon="5.78547">
        <ele>223.8</ele>
        <time>2021-04-10T06:02:01Z</time>
      </trkpt>
      <trkpt lat="45.18195" lon="5.78551">
        <ele>223.8</ele>
        <time>2021-04-10T06:02:02Z</time>
      </trkpt>
      <trkpt lat="45.18196" lon="5.78555">
        <ele>224</ele>
        <time>2021-04-10T06:02:03Z</time>
      </trkpt>
      <trkpt lat="45.18198" lon="5.78559">
        <ele>224</ele>
        <time>2021-04-10T06:02:04Z</time>
      </trkpt>
      <trkpt lat="45.18199" lon="5.78563">
        <ele>224.2</ele>
        <time>2021-04-10T06:02:05Z</time>
      </trkpt>
      <trkpt lat="45.18202" lon="5.78569">
        <ele>224.2</ele>
        <time>2021-04-10T06:02:06Z</time>
      </trkpt>
      <trkpt lat="45.18202" lon="5.78569">
        <ele>224.6</ele>
        <time>2021-04-10T06:02:07Z</time>
      </trkpt>
      <trkpt lat="45.18202" lon="5.78569">
        <ele>224.6</ele>
        <time>2021-04-10T06:02:08Z</time>
      </trkpt>
      <trkpt lat="45.18202" lon="5.78569">
        <ele>224.8</ele>
        <time>2021-04-10T06:02:09Z</time>
      </trkpt>
      <trkpt lat="45.18203" lon="5.78574">
        <ele>224.6</ele>
        <time>2021-04-10T06:02:10Z</time>
      </trkpt>
      <trkpt lat="45.18204" lon="5.78578">
        <ele>225</ele>
        <time>2021-04-10T06:02:11Z</time>
      </trkpt>
      <trkpt lat="45.18206" lon="5.78582">
        <ele>224.6</ele>
        <time>2021-04-10T06:02:12Z</time>
      </trkpt>
      <trkpt lat="45.18207" lon="5.78586">
        <ele>225</ele>
        <time>2021-04-10T06:02:13Z</time>
      </trkpt>
      <trkpt lat="45.18208" lon="5.7859">
        <ele>224.6</ele>
        <time>2021-04-10T06:02:14Z</time>
      </trkpt>
      <trkpt lat="45.18211" lon="5.78599">
        <ele>224.8</ele>
        <time>2021-04-10T06:02:15Z</time>
      </trkpt>
      <trkpt lat="45.18212" lon="5.78601">
        <ele>224.6</ele>
        <time>2021-04-10T06:02:16Z</time>
      </trkpt>
      <trkpt lat="45.18213" lon="5.78604">
        <ele>224.8</ele>
        <time>2021-04-10T06:02:17Z</time>
      </trkpt>
      <trkpt lat="45.18214" lon="5.78606">
        <ele>224.6</ele>
        <time>2021-04-10T06:02:18Z</time>
      </trkpt>
      <trkpt lat="45.18213" lon="5.78607">
        <ele>224.8</ele>
        <time>2021-04-10T06:02:19Z</time>
      </trkpt>
      <trkpt lat="45.18212" lon="5.78608">
        <ele>224.6</ele>
        <time>2021-04-10T06:02:20Z</time>
      </trkpt>
      <trkpt lat="45.18211" lon="5.7861">
        <ele>225</ele>
        <time>2021-04-10T06:02:21Z</time>
      </trkpt>
      <trkpt lat="45.1821" lon="5.78611">
        <ele>225</ele>
        <time>2021-04-10T06:02:22Z</time>
      </trkpt>
      <trkpt lat="45.18205" lon="5.78616">
        <ele>225.2</ele>
        <time>2021-04-10T06:02:23Z</time>
      </trkpt>
      <trkpt lat="45.18202" lon="5.78617">
        <ele>225</ele>
        <time>2021-04-10T06:02:24Z</time>
      </trkpt>
      <trkpt lat="45.18201" lon="5.78618">
        <ele>225.6</ele>
        <time>2021-04-10T06:02:25Z</time>
      </trkpt>
      <trkpt lat="45.18199" lon="5.78619">
        <ele>225.6</ele>
        <time>2021-04-10T06:02:26Z</time>
      </trkpt>
      <trkpt lat="45.18197" lon="5.78621">
        <ele>225.8</ele>
        <time>2021-04-10T06:02:27Z</time>
      </trkpt>
      <trkpt lat="45.18191" lon="5.78625">
        <ele>225.6</ele>
        <time>2021-04-10T06:02:28Z</time>
      </trkpt>
      <trkpt lat="45.18188" lon="5.78628">
        <ele>226</ele>
        <time>2021-04-10T06:02:29Z</time>
      </trkpt>
      <trkpt lat="45.18185" lon="5.7863">
        <ele>225.8</ele>
        <time>2021-04-10T06:02:30Z</time>
      </trkpt>
      <trkpt lat="45.18183" lon="5.78631">
        <ele>226.2</ele>
        <time>2021-04-10T06:02:31Z</time>
      </trkpt>
      <trkpt lat="45.1818" lon="5.78634">
        <ele>226</ele>
        <time>2021-04-10T06:02:32Z</time>
      </trkpt>
      <trkpt lat="45.18179" lon="5.78636">
        <ele>226.2</ele>
        <time>2021-04-10T06:02:33Z</time>
      </trkpt>
      <trkpt lat="45.18177" lon="5.78638">
        <ele>226</ele>
        <time>2021-04-10T06:02:34Z</time>
      </trkpt>
      <trkpt lat="45.18175" lon="5.78639">
        <ele>226</ele>
        <time>2021-04-10T06:02:35Z</time>
      </trkpt>
      <trkpt lat="45.18173" lon="5.78641">
        <ele>225.8</ele>
        <time>2021-04-10T06:02:36Z</time>
      </trkpt>
      <trkpt lat="45.18172" lon="5.78642">
        <ele>226</ele>
        <time>2021-04-10T06:02:37Z</time>
      </trkpt>
      <trkpt lat="45.1817" lon="5.78644">
        <ele>225.8</ele>
        <time>2021-04-10T06:02:38Z</time>
      </trkpt>
      <trkpt lat="45.18168" lon="5.78645">
        <ele>226</ele>
        <time>2021-04-10T06:02:39Z</time>
      </trkpt>
      <trkpt lat="45.18166" lon="5.78647">
        <ele>225.8</ele>
        <time>2021-04-10T06:02:40Z</time>
      </trkpt>
      <trkpt lat="45.18165" lon="5.78648">
        <ele>225.8</ele>
        <time>2021-04-10T06:02:41Z</time>
      </trkpt>
      <trkpt lat="45.18165" lon="5.78648">
        <ele>225.8</ele>
        <time>2021-04-10T06:02:42Z</time>
      </trkpt>
      <trkpt lat="45.18165" lon="5.78648">
        <ele>225.8</ele>
        <time>2021-04-10T06:02:43Z</time>
      </trkpt>
      <trkpt lat="45.18165" lon="5.78648">
        <ele>226</ele>
        <time>2021-04-10T06:02:44Z</time>
      </trkpt>
      <trkpt lat="45.18163" lon="5.78649">
        <ele>226.2</ele>
        <time>2021-04-10T06:02:45Z</time>
      </trkpt>
      <trkpt lat="45.18162" lon="5.78651">
        <ele>226.2</ele>
        <time>2021-04-10T06:02:46Z</time>
      </trkpt>
      <trkpt lat="45.1816" lon="5.78652">
        <ele>226.4</ele>
        <time>2021-04-10T06:02:47Z</time>
      </trkpt>
      <trkpt lat="45.18159" lon="5.78653">
        <ele>226.6</ele>
        <time>2021-04-10T06:02:48Z</time>
      </trkpt>
      <trkpt lat="45.18158" lon="5.78654">
        <ele>226.8</ele>
        <time>2021-04-10T06:02:49Z</time>
      </trkpt>
      <trkpt lat="45.18156" lon="5.78656">
        <ele>227</ele>
        <time>2021-04-10T06:02:50Z</time>
      </trkpt>
      <trkpt lat="45.18157" lon="5.7866">
        <ele>227.2</ele>
        <time>2021-04-10T06:02:51Z</time>
      </trkpt>
      <trkpt lat="45.18157" lon="5.78663">
        <ele>227.2</ele>
        <time>2021-04-10T06:02:52Z</time>
      </trkpt>
      <trkpt lat="45.18157" lon="5.78667">
        <ele>227.4</ele>
        <time>2021-04-10T06:02:53Z</time>
      </trkpt>
      <trkpt lat="45.18158" lon="5.78671">
        <ele>227.6</ele>
        <time>2021-04-10T06:02:54Z</time>
      </trkpt>
      <trkpt lat="45.18158" lon="5.78675">
        <ele>227.6</ele>
        <time>2021-04-10T06:02:55Z</time>
      </trkpt>
      <trkpt lat="45.18158" lon="5.78678">
        <ele>227.8</ele>
        <time>2021-04-10T06:02:56Z</time>
      </trkpt>
      <trkpt lat="45.18159" lon="5.78686">
        <ele>228</ele>
        <time>2021-04-10T06:02:57Z</time>
      </trkpt>
      <trkpt lat="45.18159" lon="5.78689">
        <ele>228.4</ele>
        <time>2021-04-10T06:02:58Z</time>
      </trkpt>
      <trkpt lat="45.18159" lon="5.78693">
        <ele>228.4</ele>
        <time>2021-04-10T06:02:59Z</time>
      </trkpt>
      <trkpt lat="45.18159" lon="5.78696">
        <ele>228.4</ele>
        <time>2021-04-10T06:03:00Z</time>
      </trkpt>
      <trkpt lat="45.18159" lon="5.787">
        <ele>228.4</ele>
        <time>2021-04-10T06:03:01Z</time>
      </trkpt>
      <trkpt lat="45.18159" lon="5.78702">
        <ele>228.6</ele>
        <time>2021-04-10T06:03:02Z</time>
      </trkpt>
      <trkpt lat="45.1816" lon="5.78704">
        <ele>228.8</ele>
        <time>2021-04-10T06:03:03Z</time>
      </trkpt>
      <trkpt lat="45.1816" lon="5.78706">
        <ele>229</ele>
        <time>2021-04-10T06:03:04Z</time>
      </trkpt>
      <trkpt lat="45.18161" lon="5.78708">
        <ele>229</ele>
        <time>2021-04-10T06:03:05Z</time>
      </trkpt>
      <trkpt lat="45.18163" lon="5.78717">
        <ele>229.2</ele>
        <time>2021-04-10T06:03:06Z</time>
      </trkpt>
      <trkpt lat="45.18163" lon="5.7872">
        <ele>229.2</ele>
        <time>2021-04-10T06:03:07Z</time>
      </trkpt>
      <trkpt lat="45.18164" lon="5.78722">
        <ele>229.6</ele>
        <time>2021-04-10T06:03:08Z</time>
      </trkpt>
      <trkpt lat="45.18164" lon="5.78725">
        <ele>229.6</ele>
        <time>2021-04-10T06:03:09Z</time>
      </trkpt>
      <trkpt lat="45.18164" lon="5.78725">
        <ele>230.2</ele>
        <time>2021-04-10T06:03:10Z</time>
      </trkpt>
      <trkpt lat="45.18164" lon="5.78725">
        <ele>230</ele>
        <time>2021-04-10T06:03:11Z</time>
      </trkpt>
      <trkpt lat="45.18164" lon="5.78725">
        <ele>230.4</ele>
        <time>2021-04-10T06:03:12Z</time>
      </trkpt>
      <trkpt lat="45.18163" lon="5.78727">
        <ele>230</ele>
        <time>2021-04-10T06:03:13Z</time>
      </trkpt>
      <trkpt lat="45.18161" lon="5.78729">
        <ele>230.4</ele>
        <time>2021-04-10T06:03:14Z</time>
      </trkpt>
      <trkpt lat="45.1816" lon="5.78732">
        <ele>230.2</ele>
        <time>2021-04-10T06:03:15Z</time>
      </trkpt>
      <trkpt lat="45.18158" lon="5.78734">
        <ele>230.6</ele>
        <time>2021-04-10T06:03:16Z</time>
      </trkpt>
      <trkpt lat="45.18157" lon="5.78736">
        <ele>230.4</ele>
        <time>2021-04-10T06:03:17Z</time>
      </trkpt>
      <trkpt lat="45.18157" lon="5.78739">
        <ele>230.4</ele>
        <time>2021-04-10T06:03:18Z</time>
      </trkpt>
      <trkpt lat="45.18156" lon="5.78742">
        <ele>230.4</ele>
        <time>2021-04-10T06:03:19Z</time>
      </trkpt>
      <trkpt lat="45.18156" lon="5.78745">
        <ele>230.6</ele>
        <time>2021-04-10T06:03:20Z</time>
      </trkpt>
      <trkpt lat="45.18155" lon="5.78748">
        <ele>230.4</ele>
        <time>2021-04-10T06:03:21Z</time>
      </trkpt>
      <trkpt lat="45.18155" lon="5.78751">
        <ele>230.6</ele>
        <time>2021-04-10T06:03:22Z</time>
      </trkpt>
      <trkpt lat="45.18148" lon="5.78765">
        <ele>230.4</ele>
        <time>2021-04-10T06:03:23Z</time>
      </trkpt>
      <trkpt lat="45.18146" lon="5.78769">
        <ele>230.6</ele>
        <time>2021-04-10T06:03:24Z</time>
      </trkpt>
      <trkpt lat="45.18145" lon="5.78772">
        <ele>230.6</ele>
        <time>2021-04-10T06:03:25Z</time>
      </trkpt>
      <trkpt lat="45.18143" lon="5.78775">
        <ele>230.8</ele>
        <time>2021-04-10T06:03:26Z</time>
      </trkpt>
      <trkpt lat="45.18142" lon="5.78778">
        <ele>230.8</ele>
        <time>2021-04-10T06:03:27Z</time>
      </trkpt>
      <trkpt lat="45.18139" lon="5.78782">
        <ele>231</ele>
        <time>2021-04-10T06:03:28Z</time>
      </trkpt>
      <trkpt lat="45.18138" lon="5.78784">
        <ele>230.8</ele>
        <time>2021-04-10T06:03:29Z</time>
      </trkpt>
      <trkpt lat="45.18136" lon="5.78787">
        <ele>231</ele>
        <time>2021-04-10T06:03:30Z</time>
      </trkpt>
      <trkpt lat="45.18135" lon="5.7879">
        <ele>230.8</ele>
        <time>2021-04-10T06:03:31Z</time>
      </trkpt>
      <trkpt lat="45.18133" lon="5.78794">
        <ele>231.2</ele>
        <time>2021-04-10T06:03:32Z</time>
      </trkpt>
      <trkpt lat="45.18131" lon="5.78797">
        <ele>230.8</ele>
        <time>2021-04-10T06:03:33Z</time>
      </trkpt>
      <trkpt lat="45.1813" lon="5.78799">
        <ele>231</ele>
        <time>2021-04-10T06:03:34Z</time>
      </trkpt>
      <trkpt lat="45.18129" lon="5.78802">
        <ele>230.8</ele>
        <time>2021-04-10T06:03:35Z</time>
      </trkpt>
      <trkpt lat="45.18128" lon="5.78806">
        <ele>231</ele>
        <time>2021-04-10T06:03:36Z</time>
      </trkpt>
      <trkpt lat="45.18128" lon="5.78809">
        <ele>230.8</ele>
        <time>2021-04-10T06:03:37Z</time>
      </trkpt>
      <trkpt lat="45.18128" lon="5.78811">
        <ele>231</ele>
        <time>2021-04-10T06:03:38Z</time>
      </trkpt>
      <trkpt lat="45.18127" lon="5.78814">
        <ele>230.8</ele>
        <time>2021-04-10T06:03:39Z</time>
      </trkpt>
      <trkpt lat="45.18127" lon="5.78815">
        <ele>231</ele>
        <time>2021-04-10T06:03:40Z</time>
      </trkpt>
      <trkpt lat="45.18126" lon="5.78817">
        <ele>230.6</ele>
        <time>2021-04-10T06:03:41Z</time>
      </trkpt>
      <trkpt lat="45.18126" lon="5.78818">
        <ele>230.6</ele>
        <time>2021-04-10T06:03:42Z</time>
      </trkpt>
      <trkpt lat="45.18125" lon="5.7882">
        <ele>230.4</ele>
        <time>2021-04-10T06:03:43Z</time>
      </trkpt>
      <trkpt lat="45.18123" lon="5.78826">
        <ele>230.4</ele>
        <time>2021-04-10T06:03:44Z</time>
      </trkpt>
      <trkpt lat="45.18122" lon="5.7883">
        <ele>230.2</ele>
        <time>2021-04-10T06:03:45Z</time>
      </trkpt>
      <trkpt lat="45.1812" lon="5.78834">
        <ele>230.4</ele>
        <time>2021-04-10T06:03:46Z</time>
      </trkpt>
      <trkpt lat="45.18119" lon="5.78838">
        <ele>230.4</ele>
        <time>2021-04-10T06:03:47Z</time>
      </trkpt>
      <trkpt lat="45.18118" lon="5.7884">
        <ele>230.4</ele>
        <time>2021-04-10T06:03:48Z</time>
      </trkpt>
      <trkpt lat="45.18117" lon="5.78842">
        <ele>230.6</ele>
        <time>2021-04-10T06:03:49Z</time>
      </trkpt>
      <trkpt lat="45.18116" lon="5.78843">
        <ele>230.8</ele>
        <time>2021-04-10T06:03:50Z</time>
      </trkpt>
      <trkpt lat="45.18114" lon="5.78845">
        <ele>231</ele>
        <time>2021-04-10T06:03:51Z</time>
      </trkpt>
      <trkpt lat="45.1811" lon="5.78851">
        <ele>231.2</ele>
        <time>2021-04-10T06:03:52Z</time>
      </trkpt>
      <trkpt lat="45.18108" lon="5.78853">
        <ele>231.4</ele>
        <time>2021-04-10T06:03:53Z</time>
      </trkpt>
      <trkpt lat="45.18107" lon="5.78854">
        <ele>231.6</ele>
        <time>2021-04-10T06:03:54Z</time>
      </trkpt>
      <trkpt lat="45.18103" lon="5.78857">
        <ele>231.8</ele>
        <time>2021-04-10T06:03:55Z</time>
      </trkpt>
      <trkpt lat="45.18102" lon="5.78859">
        <ele>231.8</ele>
        <time>2021-04-10T06:03:56Z</time>
      </trkpt>
      <trkpt lat="45.181" lon="5.78861">
        <ele>232</ele>
        <time>2021-04-10T06:03:57Z</time>
      </trkpt>
      <trkpt lat="45.18098" lon="5.78862">
        <ele>232</ele>
        <time>2021-04-10T06:03:58Z</time>
      </trkpt>
      <trkpt lat="45.18095" lon="5.78864">
        <ele>232.2</ele>
        <time>2021-04-10T06:03:59Z</time>
      </trkpt>
      <trkpt lat="45.18093" lon="5.78866">
        <ele>232.2</ele>
        <time>2021-04-10T06:04:00Z</time>
      </trkpt>
      <trkpt lat="45.18091" lon="5.78868">
        <ele>232.4</ele>
        <time>2021-04-10T06:04:01Z</time>
      </trkpt>
      <trkpt lat="45.18091" lon="5.78868">
        <ele>232.4</ele>
        <time>2021-04-10T06:04:02Z</time>
      </trkpt>
      <trkpt lat="45.18091" lon="5.78868">
        <ele>232.6</ele>
        <time>2021-04-10T06:04:03Z</time>
      </trkpt>
      <trkpt lat="45.18091" lon="5.78868">
        <ele>232.6</ele>
        <time>2021-04-10T06:04:04Z</time>
      </trkpt>
      <trkpt lat="45.18089" lon="5.78869">
        <ele>232.8</ele>
        <time>2021-04-10T06:04:05Z</time>
      </trkpt>
      <trkpt lat="45.18088" lon="5.78871">
        <ele>232.8</ele>
        <time>2021-04-10T06:04:06Z</time>
      </trkpt>
      <trkpt lat="45.18086" lon="5.78873">
        <ele>233</ele>
        <time>2021-04-10T06:04:07Z</time>
      </trkpt>
      <trkpt lat="45.18084" lon="5.78875">
        <ele>233</ele>
        <time>2021-04-10T06:04:08Z</time>
      </trkpt>
      <trkpt lat="45.18082" lon="5.78877">
        <ele>233.2</ele>
        <time>2021-04-10T06:04:09Z</time>
      </trkpt>
      <trkpt lat="45.1808" lon="5.78881">
        <ele>233.2</ele>
        <time>2021-04-10T06:04:10Z</time>
      </trkpt>
      <trkpt lat="45.18079" lon="5.78884">
        <ele>233.4</ele>
        <time>2021-04-10T06:04:11Z</time>
      </trkpt>
      <trkpt lat="45.18077" lon="5.78887">
        <ele>233.4</ele>
        <time>2021-04-10T06:04:12Z</time>
      </trkpt>
      <trkpt lat="45.18075" lon="5.78891">
        <ele>233.2</ele>
        <time>2021-04-10T06:04:13Z</time>
      </trkpt>
      <trkpt lat="45.18073" lon="5.78894">
        <ele>233</ele>
        <time>2021-04-10T06:04:14Z</time>
      </trkpt>
      <trkpt lat="45.18071" lon="5.78903">
        <ele>232.8</ele>
        <time>2021-04-10T06:04:15Z</time>
      </trkpt>
      <trkpt lat="45.18071" lon="5.78906">
        <ele>232.8</ele>
        <time>2021-04-10T06:04:16Z</time>
      </trkpt>
      <trkpt lat="45.1807" lon="5.78909">
        <ele>232.6</ele>
        <time>2021-04-10T06:04:17Z</time>
      </trkpt>
      <trkpt lat="45.1807" lon="5.78911">
        <ele>232.8</ele>
        <time>2021-04-10T06:04:18Z</time>
      </trkpt>
      <trkpt lat="45.18069" lon="5.78917">
        <ele>232.8</ele>
        <time>2021-04-10T06:04:19Z</time>
      </trkpt>
      <trkpt lat="45.18069" lon="5.7892">
        <ele>232.6</ele>
        <time>2021-04-10T06:04:20Z</time>
      </trkpt>
      <trkpt lat="45.18069" lon="5.78922">
        <ele>232.6</ele>
        <time>2021-04-10T06:04:21Z</time>
      </trkpt>
      <trkpt lat="45.18068" lon="5.78925">
        <ele>232.6</ele>
        <time>2021-04-10T06:04:22Z</time>
      </trkpt>
      <trkpt lat="45.18067" lon="5.78928">
        <ele>232.6</ele>
        <time>2021-04-10T06:04:23Z</time>
      </trkpt>
      <trkpt lat="45.18066" lon="5.78931">
        <ele>232.6</ele>
        <time>2021-04-10T06:04:24Z</time>
      </trkpt>
      <trkpt lat="45.18065" lon="5.78934">
        <ele>232.6</ele>
        <time>2021-04-10T06:04:25Z</time>
      </trkpt>
      <trkpt lat="45.18064" lon="5.78937">
        <ele>232.4</ele>
        <time>2021-04-10T06:04:26Z</time>
      </trkpt>
      <trkpt lat="45.18064" lon="5.78937">
        <ele>232.4</ele>
        <time>2021-04-10T06:04:27Z</time>
      </trkpt>
      <trkpt lat="45.18064" lon="5.78937">
        <ele>232.4</ele>
        <time>2021-04-10T06:04:28Z</time>
      </trkpt>
      <trkpt lat="45.18064" lon="5.78937">
        <ele>232.2</ele>
        <time>2021-04-10T06:04:29Z</time>
      </trkpt>
      <trkpt lat="45.18065" lon="5.78938">
        <ele>232.2</ele>
        <time>2021-04-10T06:04:30Z</time>
      </trkpt>
      <trkpt lat="45.18066" lon="5.7894">
        <ele>232.4</ele>
        <time>2021-04-10T06:04:31Z</time>
      </trkpt>
      <trkpt lat="45.18067" lon="5.78942">
        <ele>232.4</ele>
        <time>2021-04-10T06:04:32Z</time>
      </trkpt>
      <trkpt lat="45.18067" lon="5.78944">
        <ele>232.2</ele>
        <time>2021-04-10T06:04:33Z</time>
      </trkpt>
      <trkpt lat="45.18068" lon="5.78946">
        <ele>232.4</ele>
        <time>2021-04-10T06:04:34Z</time>
      </trkpt>
      <trkpt lat="45.18069" lon="5.78948">
        <ele>232.2</ele>
        <time>2021-04-10T06:04:35Z</time>
      </trkpt>
      <trkpt lat="45.18069" lon="5.78951">
        <ele>232.2</ele>
        <time>2021-04-10T06:04:36Z</time>
      </trkpt>
      <trkpt lat="45.18069" lon="5.78953">
        <ele>232.2</ele>
        <time>2021-04-10T06:04:37Z</time>
      </trkpt>
      <trkpt lat="45.18068" lon="5.78956">
        <ele>232.2</ele>
        <time>2021-04-10T06:04:38Z</time>
      </trkpt>
      <trkpt lat="45.18068" lon="5.78959">
        <ele>232</ele>
        <time>2021-04-10T06:04:39Z</time>
      </trkpt>
      <trkpt lat="45.18068" lon="5.78962">
        <ele>232.2</ele>
        <time>2021-04-10T06:04:40Z</time>
      </trkpt>
      <trkpt lat="45.18066" lon="5.78963">
        <ele>232.2</ele>
        <time>2021-04-10T06:04:41Z</time>
      </trkpt>
      <trkpt lat="45.18064" lon="5.78964">
        <ele>232.4</ele>
        <time>2021-04-10T06:04:42Z</time>
      </trkpt>
      <trkpt lat="45.18063" lon="5.78966">
        <ele>232.4</ele>
        <time>2021-04-10T06:04:43Z</time>
      </trkpt>
      <trkpt lat="45.18061" lon="5.78967">
        <ele>232.6</ele>
        <time>2021-04-10T06:04:44Z</time>
      </trkpt>
      <trkpt lat="45.18059" lon="5.78969">
        <ele>232.6</ele>
        <time>2021-04-10T06:04:45Z</time>
      </trkpt>
      <trkpt lat="45.18052" lon="5.78976">
        <ele>232.6</ele>
        <time>2021-04-10T06:04:46Z</time>
      </trkpt>
      <trkpt lat="45.18052" lon="5.78976">
        <ele>232.6</ele>
        <time>2021-04-10T06:04:47Z</time>
      </trkpt>
      <trkpt lat="45.18052" lon="5.78976">
        <ele>233</ele>
        <time>2021-04-10T06:04:48Z</time>
      </trkpt>
      <trkpt lat="45.18052" lon="5.78976">
        <ele>232.6</ele>
        <time>2021-04-10T06:04:49Z</time>
      </trkpt>
      <trkpt lat="45.1805" lon="5.78979">
        <ele>232.8</ele>
        <time>2021-04-10T06:04:50Z</time>
      </trkpt>
      <trkpt lat="45.18049" lon="5.78981">
        <ele>232.8</ele>
        <time>2021-04-10T06:04:51Z</time>
      </trkpt>
      <trkpt lat="45.18048" lon="5.78983">
        <ele>233</ele>
        <time>2021-04-10T06:04:52Z</time>
      </trkpt>
      <trkpt lat="45.18046" lon="5.78985">
        <ele>233</ele>
        <time>2021-04-10T06:04:53Z</time>
      </trkpt>
      <trkpt lat="45.18045" lon="5.78987">
        <ele>233.2</ele>
        <time>2021-04-10T06:04:54Z</time>
      </trkpt>
      <trkpt lat="45.18041" lon="5.78999">
        <ele>233.2</ele>
        <time>2021-04-10T06:04:55Z</time>
      </trkpt>
      <trkpt lat="45.18041" lon="5.78999">
        <ele>233.2</ele>
        <time>2021-04-10T06:04:56Z</time>
      </trkpt>
      <trkpt lat="45.18041" lon="5.78999">
        <ele>233.2</ele>
        <time>2021-04-10T06:04:57Z</time>
      </trkpt>
      <trkpt lat="45.18041" lon="5.78999">
        <ele>233.4</ele>
        <time>2021-04-10T06:04:58Z</time>
      </trkpt>
      <trkpt lat="45.1804" lon="5.79003">
        <ele>233.6</ele>
        <time>2021-04-10T06:04:59Z</time>
      </trkpt>
      <trkpt lat="45.1804" lon="5.79007">
        <ele>233.8</ele>
        <time>2021-04-10T06:05:00Z</time>
      </trkpt>
      <trkpt lat="45.1804" lon="5.79012">
        <ele>233.8</ele>
        <time>2021-04-10T06:05:01Z</time>
      </trkpt>
      <trkpt lat="45.1804" lon="5.79016">
        <ele>233.8</ele>
        <time>2021-04-10T06:05:02Z</time>
      </trkpt>
      <trkpt lat="45.1804" lon="5.7902">
        <ele>234</ele>
        <time>2021-04-10T06:05:03Z</time>
      </trkpt>
      <trkpt lat="45.18041" lon="5.79027">
        <ele>234</ele>
        <time>2021-04-10T06:05:04Z</time>
      </trkpt>
      <trkpt lat="45.18041" lon="5.79029">
        <ele>234.2</ele>
        <time>2021-04-10T06:05:05Z</time>
      </trkpt>
      <trkpt lat="45.18041" lon="5.79032">
        <ele>234.2</ele>
        <time>2021-04-10T06:05:06Z</time>
      </trkpt>
      <trkpt lat="45.18041" lon="5.79034">
        <ele>234.2</ele>
        <time>2021-04-10T06:05:07Z</time>
      </trkpt>
      <trkpt lat="45.18041" lon="5.79042">
        <ele>234.2</ele>
        <time>2021-04-10T06:05:08Z</time>
      </trkpt>
      <trkpt lat="45.18042" lon="5.79046">
        <ele>234.4</ele>
        <time>2021-04-10T06:05:09Z</time>
      </trkpt>
      <trkpt lat="45.18042" lon="5.7905">
        <ele>234.4</ele>
        <time>2021-04-10T06:05:10Z</time>
      </trkpt>
      <trkpt lat="45.18043" lon="5.79055">
        <ele>234.6</ele>
        <time>2021-04-10T06:05:11Z</time>
      </trkpt>
      <trkpt lat="45.18043" lon="5.79058">
        <ele>234.6</ele>
        <time>2021-04-10T06:05:12Z</time>
      </trkpt>
      <trkpt lat="45.18043" lon="5.79062">
        <ele>234.8</ele>
        <time>2021-04-10T06:05:13Z</time>
      </trkpt>
      <trkpt lat="45.18043" lon="5.79065">
        <ele>234.8</ele>
        <time>2021-04-10T06:05:14Z</time>
      </trkpt>
      <trkpt lat="45.18044" lon="5.79068">
        <ele>235</ele>
        <time>2021-04-10T06:05:15Z</time>
      </trkpt>
      <trkpt lat="45.18044" lon="5.7907">
        <ele>234.8</ele>
        <time>2021-04-10T06:05:16Z</time>
      </trkpt>
      <trkpt lat="45.18044" lon="5.79072">
        <ele>235</ele>
        <time>2021-04-10T06:05:17Z</time>
      </trkpt>
      <trkpt lat="45.18045" lon="5.79073">
        <ele>234.8</ele>
        <time>2021-04-10T06:05:18Z</time>
      </trkpt>
      <trkpt lat="45.18045" lon="5.79075">
        <ele>235</ele>
        <time>2021-04-10T06:05:19Z</time>
      </trkpt>
      <trkpt lat="45.18046" lon="5.79082">
        <ele>234.8</ele>
        <time>2021-04-10T06:05:20Z</time>
      </trkpt>
      <trkpt lat="45.18046" lon="5.79082">
        <ele>235</ele>
        <time>2021-04-10T06:05:21Z</time>
      </trkpt>
      <trkpt lat="45.18046" lon="5.79082">
        <ele>235</ele>
        <time>2021-04-10T06:05:22Z</time>
      </trkpt>
      <trkpt lat="45.18046" lon="5.79085">
        <ele>235</ele>
        <time>2021-04-10T06:05:23Z</time>
      </trkpt>
      <trkpt lat="45.18047" lon="5.79088">
        <ele>235</ele>
        <time>2021-04-10T06:05:24Z</time>
      </trkpt>
      <trkpt lat="45.18047" lon="5.79091">
        <ele>235.2</ele>
        <time>2021-04-10T06:05:25Z</time>
      </trkpt>
      <trkpt lat="45.18047" lon="5.79094">
        <ele>235</ele>
        <time>2021-04-10T06:05:26Z</time>
      </trkpt>
      <trkpt lat="45.18047" lon="5.79098">
        <ele>235.2</ele>
        <time>2021-04-10T06:05:27Z</time>
      </trkpt>
      <trkpt lat="45.18048" lon="5.791">
        <ele>235</ele>
        <time>2021-04-10T06:05:28Z</time>
      </trkpt>
      <trkpt lat="45.18048" lon="5.79102">
        <ele>235.2</ele>
        <time>2021-04-10T06:05:29Z</time>
      </trkpt>
      <trkpt lat="45.18049" lon="5.79105">
        <ele>234.8</ele>
        <time>2021-04-10T06:05:30Z</time>
      </trkpt>
      <trkpt lat="45.1805" lon="5.79107">
        <ele>234.4</ele>
        <time>2021-04-10T06:05:31Z</time>
      </trkpt>
      <trkpt lat="45.1805" lon="5.7911">
        <ele>234.4</ele>
        <time>2021-04-10T06:05:32Z</time>
      </trkpt>
      <trkpt lat="45.18058" lon="5.7912">
        <ele>234.4</ele>
        <time>2021-04-10T06:05:33Z</time>
      </trkpt>
      <trkpt lat="45.18058" lon="5.7912">
        <ele>234.4</ele>
        <time>2021-04-10T06:05:34Z</time>
      </trkpt>
      <trkpt lat="45.18058" lon="5.7912">
        <ele>234.4</ele>
        <time>2021-04-10T06:05:35Z</time>
      </trkpt>
      <trkpt lat="45.18058" lon="5.7912">
        <ele>234.2</ele>
        <time>2021-04-10T06:05:36Z</time>
      </trkpt>
      <trkpt lat="45.18058" lon="5.7912">
        <ele>234.2</ele>
        <time>2021-04-10T06:05:37Z</time>
      </trkpt>
      <trkpt lat="45.1806" lon="5.79122">
        <ele>234.2</ele>
        <time>2021-04-10T06:05:38Z</time>
      </trkpt>
      <trkpt lat="45.18063" lon="5.79123">
        <ele>234.2</ele>
        <time>2021-04-10T06:05:39Z</time>
      </trkpt>
      <trkpt lat="45.18066" lon="5.79125">
        <ele>234</ele>
        <time>2021-04-10T06:05:40Z</time>
      </trkpt>
      <trkpt lat="45.18069" lon="5.79127">
        <ele>234.2</ele>
        <time>2021-04-10T06:05:41Z</time>
      </trkpt>
      <trkpt lat="45.18071" lon="5.79129">
        <ele>233.8</ele>
        <time>2021-04-10T06:05:42Z</time>
      </trkpt>
      <trkpt lat="45.18075" lon="5.79133">
        <ele>234</ele>
        <time>2021-04-10T06:05:43Z</time>
      </trkpt>
      <trkpt lat="45.18075" lon="5.79133">
        <ele>233.6</ele>
        <time>2021-04-10T06:05:44Z</time>
      </trkpt>
      <trkpt lat="45.18075" lon="5.79133">
        <ele>233.8</ele>
        <time>2021-04-10T06:05:45Z</time>
      </trkpt>
      <trkpt lat="45.18075" lon="5.79133">
        <ele>233.4</ele>
        <time>2021-04-10T06:05:46Z</time>
      </trkpt>
      <trkpt lat="45.18075" lon="5.79133">
        <ele>233.4</ele>
        <time>2021-04-10T06:05:47Z</time>
      </trkpt>
      <trkpt lat="45.18075" lon="5.79135">
        <ele>233.2</ele>
        <time>2021-04-10T06:05:48Z</time>
      </trkpt>
      <trkpt lat="45.18075" lon="5.79137">
        <ele>233.2</ele>
        <time>2021-04-10T06:05:49Z</time>
      </trkpt>
      <trkpt lat="45.18075" lon="5.79139">
        <ele>233.2</ele>
        <time>2021-04-10T06:05:50Z</time>
      </trkpt>
      <trkpt lat="45.18075" lon="5.79141">
        <ele>233.2</ele>
        <time>2021-04-10T06:05:51Z</time>
      </trkpt>
      <trkpt lat="45.18074" lon="5.79144">
        <ele>233.6</ele>
        <time>2021-04-10T06:05:52Z</time>
      </trkpt>
      <trkpt lat="45.18074" lon="5.79146">
        <ele>233.4</ele>
        <time>2021-04-10T06:05:53Z</time>
      </trkpt>
      <trkpt lat="45.18075" lon="5.7915">
        <ele>233.6</ele>
        <time>2021-04-10T06:05:54Z</time>
      </trkpt>
      <trkpt lat="45.18075" lon="5.79154">
        <ele>233.4</ele>
        <time>2021-04-10T06:05:55Z</time>
      </trkpt>
      <trkpt lat="45.18075" lon="5.79158">
        <ele>233.6</ele>
        <time>2021-04-10T06:05:56Z</time>
      </trkpt>
      <trkpt lat="45.18075" lon="5.79162">
        <ele>233.4</ele>
        <time>2021-04-10T06:05:57Z</time>
      </trkpt>
      <trkpt lat="45.18075" lon="5.79166">
        <ele>233.6</ele>
        <time>2021-04-10T06:05:58Z</time>
      </trkpt>
      <trkpt lat="45.18075" lon="5.7917">
        <ele>233.8</ele>
        <time>2021-04-10T06:05:59Z</time>
      </trkpt>
      <trkpt lat="45.18075" lon="5.7917">
        <ele>233.8</ele>
        <time>2021-04-10T06:06:00Z</time>
      </trkpt>
      <trkpt lat="45.18075" lon="5.7917">
        <ele>233.8</ele>
        <time>2021-04-10T06:06:01Z</time>
      </trkpt>
      <trkpt lat="45.18075" lon="5.7917">
        <ele>234.2</ele>
        <time>2021-04-10T06:06:02Z</time>
      </trkpt>
      <trkpt lat="45.18075" lon="5.7917">
        <ele>234</ele>
        <time>2021-04-10T06:06:03Z</time>
      </trkpt>
      <trkpt lat="45.18076" lon="5.79173">
        <ele>234.2</ele>
        <time>2021-04-10T06:06:04Z</time>
      </trkpt>
      <trkpt lat="45.18077" lon="5.79175">
        <ele>234.2</ele>
        <time>2021-04-10T06:06:05Z</time>
      </trkpt>
      <trkpt lat="45.18078" lon="5.79177">
        <ele>234.2</ele>
        <time>2021-04-10T06:06:06Z</time>
      </trkpt>
      <trkpt lat="45.18079" lon="5.7918">
        <ele>234.2</ele>
        <time>2021-04-10T06:06:07Z</time>
      </trkpt>
      <trkpt lat="45.1808" lon="5.79182">
        <ele>234.4</ele>
        <time>2021-04-10T06:06:08Z</time>
      </trkpt>
      <trkpt lat="45.18078" lon="5.79191">
        <ele>234.2</ele>
        <time>2021-04-10T06:06:09Z</time>
      </trkpt>
      <trkpt lat="45.18077" lon="5.792">
        <ele>234.4</ele>
        <time>2021-04-10T06:06:10Z</time>
      </trkpt>
      <trkpt lat="45.18077" lon="5.79204">
        <ele>234</ele>
        <time>2021-04-10T06:06:11Z</time>
      </trkpt>
      <trkpt lat="45.18077" lon="5.79207">
        <ele>234</ele>
        <time>2021-04-10T06:06:12Z</time>
      </trkpt>
      <trkpt lat="45.18077" lon="5.7921">
        <ele>233.8</ele>
        <time>2021-04-10T06:06:13Z</time>
      </trkpt>
      <trkpt lat="45.18076" lon="5.79212">
        <ele>233.8</ele>
        <time>2021-04-10T06:06:14Z</time>
      </trkpt>
      <trkpt lat="45.18076" lon="5.79212">
        <ele>233.8</ele>
        <time>2021-04-10T06:06:15Z</time>
      </trkpt>
      <trkpt lat="45.18076" lon="5.79212">
        <ele>233.8</ele>
        <time>2021-04-10T06:06:16Z</time>
      </trkpt>
      <trkpt lat="45.18076" lon="5.79212">
        <ele>234</ele>
        <time>2021-04-10T06:06:17Z</time>
      </trkpt>
      <trkpt lat="45.18076" lon="5.79212">
        <ele>234</ele>
        <time>2021-04-10T06:06:18Z</time>
      </trkpt>
      <trkpt lat="45.18077" lon="5.79215">
        <ele>234.2</ele>
        <time>2021-04-10T06:06:19Z</time>
      </trkpt>
      <trkpt lat="45.18077" lon="5.79218">
        <ele>234.2</ele>
        <time>2021-04-10T06:06:20Z</time>
      </trkpt>
      <trkpt lat="45.18077" lon="5.7922">
        <ele>234.6</ele>
        <time>2021-04-10T06:06:21Z</time>
      </trkpt>
      <trkpt lat="45.18077" lon="5.79223">
        <ele>234.6</ele>
        <time>2021-04-10T06:06:22Z</time>
      </trkpt>
      <trkpt lat="45.18078" lon="5.79226">
        <ele>234.8</ele>
        <time>2021-04-10T06:06:23Z</time>
      </trkpt>
      <trkpt lat="45.1808" lon="5.7924">
        <ele>234.6</ele>
        <time>2021-04-10T06:06:24Z</time>
      </trkpt>
      <trkpt lat="45.1808" lon="5.7924">
        <ele>234.8</ele>
        <time>2021-04-10T06:06:25Z</time>
      </trkpt>
      <trkpt lat="45.1808" lon="5.7924">
        <ele>234.8</ele>
        <time>2021-04-10T06:06:26Z</time>
      </trkpt>
      <trkpt lat="45.1808" lon="5.7924">
        <ele>234.8</ele>
        <time>2021-04-10T06:06:27Z</time>
      </trkpt>
      <trkpt lat="45.1808" lon="5.7924">
        <ele>234.4</ele>
        <time>2021-04-10T06:06:28Z</time>
      </trkpt>
      <trkpt lat="45.18081" lon="5.79244">
        <ele>234.4</ele>
        <time>2021-04-10T06:06:29Z</time>
      </trkpt>
      <trkpt lat="45.18082" lon="5.79248">
        <ele>234.2</ele>
        <time>2021-04-10T06:06:30Z</time>
      </trkpt>
      <trkpt lat="45.18083" lon="5.79253">
        <ele>234.4</ele>
        <time>2021-04-10T06:06:31Z</time>
      </trkpt>
      <trkpt lat="45.18084" lon="5.79257">
        <ele>234.4</ele>
        <time>2021-04-10T06:06:32Z</time>
      </trkpt>
      <trkpt lat="45.18085" lon="5.79262">
        <ele>234.4</ele>
        <time>2021-04-10T06:06:33Z</time>
      </trkpt>
      <trkpt lat="45.18086" lon="5.79269">
        <ele>234.6</ele>
        <time>2021-04-10T06:06:34Z</time>
      </trkpt>
      <trkpt lat="45.18086" lon="5.79269">
        <ele>234.6</ele>
        <time>2021-04-10T06:06:35Z</time>
      </trkpt>
      <trkpt lat="45.18086" lon="5.79269">
        <ele>234.8</ele>
        <time>2021-04-10T06:06:36Z</time>
      </trkpt>
      <trkpt lat="45.18086" lon="5.79269">
        <ele>234.6</ele>
        <time>2021-04-10T06:06:37Z</time>
      </trkpt>
      <trkpt lat="45.18087" lon="5.79273">
        <ele>234.8</ele>
        <time>2021-04-10T06:06:38Z</time>
      </trkpt>
      <trkpt lat="45.18088" lon="5.79277">
        <ele>234.8</ele>
        <time>2021-04-10T06:06:39Z</time>
      </trkpt>
      <trkpt lat="45.18088" lon="5.79282">
        <ele>235</ele>
        <time>2021-04-10T06:06:40Z</time>
      </trkpt>
      <trkpt lat="45.18089" lon="5.79286">
        <ele>235</ele>
        <time>2021-04-10T06:06:41Z</time>
      </trkpt>
      <trkpt lat="45.18089" lon="5.79291">
        <ele>235.2</ele>
        <time>2021-04-10T06:06:42Z</time>
      </trkpt>
      <trkpt lat="45.18091" lon="5.79298">
        <ele>235</ele>
        <time>2021-04-10T06:06:43Z</time>
      </trkpt>
      <trkpt lat="45.1809" lon="5.79299">
        <ele>235.4</ele>
        <time>2021-04-10T06:06:44Z</time>
      </trkpt>
      <trkpt lat="45.18089" lon="5.79301">
        <ele>235.2</ele>
        <time>2021-04-10T06:06:45Z</time>
      </trkpt>
      <trkpt lat="45.18088" lon="5.79303">
        <ele>235.4</ele>
        <time>2021-04-10T06:06:46Z</time>
      </trkpt>
      <trkpt lat="45.18088" lon="5.79305">
        <ele>235.2</ele>
        <time>2021-04-10T06:06:47Z</time>
      </trkpt>
      <trkpt lat="45.18087" lon="5.79306">
        <ele>235.4</ele>
        <time>2021-04-10T06:06:48Z</time>
      </trkpt>
      <trkpt lat="45.18086" lon="5.79308">
        <ele>235.2</ele>
        <time>2021-04-10T06:06:49Z</time>
      </trkpt>
      <trkpt lat="45.18085" lon="5.7931">
        <ele>235.2</ele>
        <time>2021-04-10T06:06:50Z</time>
      </trkpt>
      <trkpt lat="45.18085" lon="5.79312">
        <ele>235.4</ele>
        <time>2021-04-10T06:06:51Z</time>
      </trkpt>
      <trkpt lat="45.18084" lon="5.79313">
        <ele>235.2</ele>
        <time>2021-04-10T06:06:52Z</time>
      </trkpt>
      <trkpt lat="45.18083" lon="5.79315">
        <ele>235.4</ele>
        <time>2021-04-10T06:06:53Z</time>
      </trkpt>
      <trkpt lat="45.18082" lon="5.79317">
        <ele>235.2</ele>
        <time>2021-04-10T06:06:54Z</time>
      </trkpt>
      <trkpt lat="45.18082" lon="5.79319">
        <ele>235.2</ele>
        <time>2021-04-10T06:06:55Z</time>
      </trkpt>
      <trkpt lat="45.18081" lon="5.7932">
        <ele>235</ele>
        <time>2021-04-10T06:06:56Z</time>
      </trkpt>
      <trkpt lat="45.1808" lon="5.79322">
        <ele>235.2</ele>
        <time>2021-04-10T06:06:57Z</time>
      </trkpt>
      <trkpt lat="45.18079" lon="5.79324">
        <ele>235</ele>
        <time>2021-04-10T06:06:58Z</time>
      </trkpt>
      <trkpt lat="45.18078" lon="5.79326">
        <ele>235.2</ele>
        <time>2021-04-10T06:06:59Z</time>
      </trkpt>
      <trkpt lat="45.18078" lon="5.79327">
        <ele>235.4</ele>
        <time>2021-04-10T06:07:00Z</time>
      </trkpt>
      <trkpt lat="45.18077" lon="5.79329">
        <ele>235.6</ele>
        <time>2021-04-10T06:07:01Z</time>
      </trkpt>
      <trkpt lat="45.18076" lon="5.79331">
        <ele>235.8</ele>
        <time>2021-04-10T06:07:02Z</time>
      </trkpt>
      <trkpt lat="45.18075" lon="5.79333">
        <ele>235.8</ele>
        <time>2021-04-10T06:07:03Z</time>
      </trkpt>
      <trkpt lat="45.18075" lon="5.79334">
        <ele>236.2</ele>
        <time>2021-04-10T06:07:04Z</time>
      </trkpt>
      <trkpt lat="45.18074" lon="5.79336">
        <ele>236.4</ele>
        <time>2021-04-10T06:07:05Z</time>
      </trkpt>
      <trkpt lat="45.18073" lon="5.79338">
        <ele>236.8</ele>
        <time>2021-04-10T06:07:06Z</time>
      </trkpt>
      <trkpt lat="45.18072" lon="5.7934">
        <ele>237</ele>
        <time>2021-04-10T06:07:07Z</time>
      </trkpt>
      <trkpt lat="45.18072" lon="5.79341">
        <ele>237.2</ele>
        <time>2021-04-10T06:07:08Z</time>
      </trkpt>
      <trkpt lat="45.18071" lon="5.79343">
        <ele>237.2</ele>
        <time>2021-04-10T06:07:09Z</time>
      </trkpt>
      <trkpt lat="45.1807" lon="5.79345">
        <ele>237.4</ele>
        <time>2021-04-10T06:07:10Z</time>
      </trkpt>
      <trkpt lat="45.18069" lon="5.79347">
        <ele>237.2</ele>
        <time>2021-04-10T06:07:11Z</time>
      </trkpt>
      <trkpt lat="45.18068" lon="5.79348">
        <ele>237.4</ele>
        <time>2021-04-10T06:07:12Z</time>
      </trkpt>
      <trkpt lat="45.18068" lon="5.7935">
        <ele>237.4</ele>
        <time>2021-04-10T06:07:13Z</time>
      </trkpt>
      <trkpt lat="45.18067" lon="5.79352">
        <ele>237.6</ele>
        <time>2021-04-10T06:07:14Z</time>
      </trkpt>
      <trkpt lat="45.18066" lon="5.79354">
        <ele>237.8</ele>
        <time>2021-04-10T06:07:15Z</time>
      </trkpt>
      <trkpt lat="45.18065" lon="5.79355">
        <ele>238.2</ele>
        <time>2021-04-10T06:07:16Z</time>
      </trkpt>
      <trkpt lat="45.18065" lon="5.79357">
        <ele>238.6</ele>
        <time>2021-04-10T06:07:17Z</time>
      </trkpt>
      <trkpt lat="45.18064" lon="5.79359">
        <ele>239</ele>
        <time>2021-04-10T06:07:18Z</time>
      </trkpt>
      <trkpt lat="45.18063" lon="5.79361">
        <ele>239.4</ele>
        <time>2021-04-10T06:07:19Z</time>
      </trkpt>
      <trkpt lat="45.18062" lon="5.79362">
        <ele>239.6</ele>
        <time>2021-04-10T06:07:20Z</time>
      </trkpt>
      <trkpt lat="45.18062" lon="5.79364">
        <ele>239.8</ele>
        <time>2021-04-10T06:07:21Z</time>
      </trkpt>
      <trkpt lat="45.18061" lon="5.79366">
        <ele>239.6</ele>
        <time>2021-04-10T06:07:22Z</time>
      </trkpt>
      <trkpt lat="45.18061" lon="5.79366">
        <ele>239.8</ele>
        <time>2021-04-10T06:07:23Z</time>
      </trkpt>
      <trkpt lat="45.18061" lon="5.79366">
        <ele>240</ele>
        <time>2021-04-10T06:07:24Z</time>
      </trkpt>
      <trkpt lat="45.18061" lon="5.79366">
        <ele>240.2</ele>
        <time>2021-04-10T06:07:25Z</time>
      </trkpt>
      <trkpt lat="45.18061" lon="5.79366">
        <ele>240.6</ele>
        <time>2021-04-10T06:07:26Z</time>
      </trkpt>
      <trkpt lat="45.1806" lon="5.79368">
        <ele>240.8</ele>
        <time>2021-04-10T06:07:27Z</time>
      </trkpt>
      <trkpt lat="45.18059" lon="5.7937">
        <ele>241.4</ele>
        <time>2021-04-10T06:07:28Z</time>
      </trkpt>
      <trkpt lat="45.18058" lon="5.79372">
        <ele>241.6</ele>
        <time>2021-04-10T06:07:29Z</time>
      </trkpt>
      <trkpt lat="45.18057" lon="5.79374">
        <ele>242</ele>
        <time>2021-04-10T06:07:30Z</time>
      </trkpt>
      <trkpt lat="45.18056" lon="5.79377">
        <ele>242.2</ele>
        <time>2021-04-10T06:07:31Z</time>
      </trkpt>
      <trkpt lat="45.18055" lon="5.79379">
        <ele>242.4</ele>
        <time>2021-04-10T06:07:32Z</time>
      </trkpt>
      <trkpt lat="45.18055" lon="5.79381">
        <ele>242.4</ele>
        <time>2021-04-10T06:07:33Z</time>
      </trkpt>
      <trkpt lat="45.18055" lon="5.79384">
        <ele>242.8</ele>
        <time>2021-04-10T06:07:34Z</time>
      </trkpt>
      <trkpt lat="45.18055" lon="5.79386">
        <ele>242.6</ele>
        <time>2021-04-10T06:07:35Z</time>
      </trkpt>
      <trkpt lat="45.18055" lon="5.79388">
        <ele>242.8</ele>
        <time>2021-04-10T06:07:36Z</time>
      </trkpt>
      <trkpt lat="45.18055" lon="5.79391">
        <ele>242.8</ele>
        <time>2021-04-10T06:07:37Z</time>
      </trkpt>
      <trkpt lat="45.18055" lon="5.79393">
        <ele>243</ele>
        <time>2021-04-10T06:07:38Z</time>
      </trkpt>
      <trkpt lat="45.18055" lon="5.79395">
        <ele>243.4</ele>
        <time>2021-04-10T06:07:39Z</time>
      </trkpt>
      <trkpt lat="45.18055" lon="5.79398">
        <ele>243.6</ele>
        <time>2021-04-10T06:07:40Z</time>
      </trkpt>
      <trkpt lat="45.18056" lon="5.794">
        <ele>244</ele>
        <time>2021-04-10T06:07:41Z</time>
      </trkpt>
      <trkpt lat="45.18056" lon="5.79402">
        <ele>244.2</ele>
        <time>2021-04-10T06:07:42Z</time>
      </trkpt>
      <trkpt lat="45.18056" lon="5.79404">
        <ele>244.6</ele>
        <time>2021-04-10T06:07:43Z</time>
      </trkpt>
      <trkpt lat="45.18056" lon="5.79407">
        <ele>244.8</ele>
        <time>2021-04-10T06:07:44Z</time>
      </trkpt>
      <trkpt lat="45.18056" lon="5.79408">
        <ele>245.2</ele>
        <time>2021-04-10T06:07:45Z</time>
      </trkpt>
      <trkpt lat="45.18056" lon="5.7941">
        <ele>245.2</ele>
        <time>2021-04-10T06:07:46Z</time>
      </trkpt>
      <trkpt lat="45.18056" lon="5.79412">
        <ele>245.4</ele>
        <time>2021-04-10T06:07:47Z</time>
      </trkpt>
      <trkpt lat="45.18056" lon="5.79414">
        <ele>245.4</ele>
        <time>2021-04-10T06:07:48Z</time>
      </trkpt>
      <trkpt lat="45.18056" lon="5.79416">
        <ele>245.8</ele>
        <time>2021-04-10T06:07:49Z</time>
      </trkpt>
      <trkpt lat="45.18056" lon="5.79418">
        <ele>246</ele>
        <time>2021-04-10T06:07:50Z</time>
      </trkpt>
      <trkpt lat="45.18056" lon="5.7942">
        <ele>246</ele>
        <time>2021-04-10T06:07:51Z</time>
      </trkpt>
      <trkpt lat="45.18056" lon="5.79422">
        <ele>246.6</ele>
        <time>2021-04-10T06:07:52Z</time>
      </trkpt>
      <trkpt lat="45.18056" lon="5.79424">
        <ele>246.6</ele>
        <time>2021-04-10T06:07:53Z</time>
      </trkpt>
      <trkpt lat="45.18057" lon="5.79426">
        <ele>247.4</ele>
        <time>2021-04-10T06:07:54Z</time>
      </trkpt>
      <trkpt lat="45.18057" lon="5.79428">
        <ele>247.4</ele>
        <time>2021-04-10T06:07:55Z</time>
      </trkpt>
      <trkpt lat="45.18057" lon="5.7943">
        <ele>247.8</ele>
        <time>2021-04-10T06:07:56Z</time>
      </trkpt>
      <trkpt lat="45.18057" lon="5.79432">
        <ele>248</ele>
        <time>2021-04-10T06:07:57Z</time>
      </trkpt>
      <trkpt lat="45.18057" lon="5.79434">
        <ele>248.4</ele>
        <time>2021-04-10T06:07:58Z</time>
      </trkpt>
      <trkpt lat="45.18057" lon="5.79437">
        <ele>248.4</ele>
        <time>2021-04-10T06:07:59Z</time>
      </trkpt>
      <trkpt lat="45.18057" lon="5.79439">
        <ele>248.6</ele>
        <time>2021-04-10T06:08:00Z</time>
      </trkpt>
      <trkpt lat="45.18057" lon="5.79441">
        <ele>248.6</ele>
        <time>2021-04-10T06:08:01Z</time>
      </trkpt>
      <trkpt lat="45.18057" lon="5.79444">
        <ele>249</ele>
        <time>2021-04-10T06:08:02Z</time>
      </trkpt>
      <trkpt lat="45.18057" lon="5.79446">
        <ele>249.2</ele>
        <time>2021-04-10T06:08:03Z</time>
      </trkpt>
      <trkpt lat="45.18057" lon="5.79449">
        <ele>249.6</ele>
        <time>2021-04-10T06:08:04Z</time>
      </trkpt>
      <trkpt lat="45.18057" lon="5.79451">
        <ele>249.8</ele>
        <time>2021-04-10T06:08:05Z</time>
      </trkpt>
      <trkpt lat="45.18056" lon="5.79453">
        <ele>250</ele>
        <time>2021-04-10T06:08:06Z</time>
      </trkpt>
      <trkpt lat="45.18056" lon="5.79455">
        <ele>250.2</ele>
        <time>2021-04-10T06:08:07Z</time>
      </trkpt>
      <trkpt lat="45.18055" lon="5.79457">
        <ele>250.4</ele>
        <time>2021-04-10T06:08:08Z</time>
      </trkpt>
      <trkpt lat="45.18055" lon="5.79459">
        <ele>250.8</ele>
        <time>2021-04-10T06:08:09Z</time>
      </trkpt>
      <trkpt lat="45.18055" lon="5.79461">
        <ele>251</ele>
        <time>2021-04-10T06:08:10Z</time>
      </trkpt>
      <trkpt lat="45.18055" lon="5.79463">
        <ele>251.4</ele>
        <time>2021-04-10T06:08:11Z</time>
      </trkpt>
      <trkpt lat="45.18054" lon="5.79465">
        <ele>251.6</ele>
        <time>2021-04-10T06:08:12Z</time>
      </trkpt>
      <trkpt lat="45.18054" lon="5.79467">
        <ele>252</ele>
        <time>2021-04-10T06:08:13Z</time>
      </trkpt>
      <trkpt lat="45.18054" lon="5.79468">
        <ele>252.2</ele>
        <time>2021-04-10T06:08:14Z</time>
      </trkpt>
      <trkpt lat="45.18054" lon="5.7947">
        <ele>252.6</ele>
        <time>2021-04-10T06:08:15Z</time>
      </trkpt>
      <trkpt lat="45.18054" lon="5.79472">
        <ele>252.6</ele>
        <time>2021-04-10T06:08:16Z</time>
      </trkpt>
      <trkpt lat="45.18054" lon="5.79474">
        <ele>253.2</ele>
        <time>2021-04-10T06:08:17Z</time>
      </trkpt>
      <trkpt lat="45.18054" lon="5.79476">
        <ele>253.4</ele>
        <time>2021-04-10T06:08:18Z</time>
      </trkpt>
      <trkpt lat="45.18054" lon="5.79478">
        <ele>253.8</ele>
        <time>2021-04-10T06:08:19Z</time>
      </trkpt>
      <trkpt lat="45.18054" lon="5.7948">
        <ele>253.8</ele>
        <time>2021-04-10T06:08:20Z</time>
      </trkpt>
      <trkpt lat="45.18054" lon="5.79482">
        <ele>254.2</ele>
        <time>2021-04-10T06:08:21Z</time>
      </trkpt>
      <trkpt lat="45.18054" lon="5.79484">
        <ele>254.4</ele>
        <time>2021-04-10T06:08:22Z</time>
      </trkpt>
      <trkpt lat="45.18054" lon="5.79486">
        <ele>254.8</ele>
        <time>2021-04-10T06:08:23Z</time>
      </trkpt>
      <trkpt lat="45.18054" lon="5.79487">
        <ele>255</ele>
        <time>2021-04-10T06:08:24Z</time>
      </trkpt>
      <trkpt lat="45.18055" lon="5.79491">
        <ele>255.6</ele>
        <time>2021-04-10T06:08:25Z</time>
      </trkpt>
      <trkpt lat="45.18055" lon="5.79495">
        <ele>255.6</ele>
        <time>2021-04-10T06:08:26Z</time>
      </trkpt>
      <trkpt lat="45.18055" lon="5.79498">
        <ele>256</ele>
        <time>2021-04-10T06:08:27Z</time>
      </trkpt>
      <trkpt lat="45.18055" lon="5.79502">
        <ele>256</ele>
        <time>2021-04-10T06:08:28Z</time>
      </trkpt>
      <trkpt lat="45.18056" lon="5.79506">
        <ele>256.6</ele>
        <time>2021-04-10T06:08:29Z</time>
      </trkpt>
      <trkpt lat="45.18056" lon="5.7951">
        <ele>256.6</ele>
        <time>2021-04-10T06:08:30Z</time>
      </trkpt>
      <trkpt lat="45.18056" lon="5.79511">
        <ele>257</ele>
        <time>2021-04-10T06:08:31Z</time>
      </trkpt>
      <trkpt lat="45.18055" lon="5.7951">
        <ele>257</ele>
        <time>2021-04-10T06:08:32Z</time>
      </trkpt>
      <trkpt lat="45.18055" lon="5.7951">
        <ele>257.4</ele>
        <time>2021-04-10T06:08:33Z</time>
      </trkpt>
      <trkpt lat="45.18054" lon="5.79509">
        <ele>257.8</ele>
        <time>2021-04-10T06:08:34Z</time>
      </trkpt>
      <trkpt lat="45.18054" lon="5.79509">
        <ele>258</ele>
        <time>2021-04-10T06:08:35Z</time>
      </trkpt>
      <trkpt lat="45.18053" lon="5.79508">
        <ele>258</ele>
        <time>2021-04-10T06:08:36Z</time>
      </trkpt>
      <trkpt lat="45.18053" lon="5.79508">
        <ele>258.6</ele>
        <time>2021-04-10T06:08:37Z</time>
      </trkpt>
      <trkpt lat="45.18052" lon="5.79507">
        <ele>258.8</ele>
        <time>2021-04-10T06:08:38Z</time>
      </trkpt>
      <trkpt lat="45.18052" lon="5.79507">
        <ele>259.2</ele>
        <time>2021-04-10T06:08:39Z</time>
      </trkpt>
      <trkpt lat="45.18051" lon="5.79506">
        <ele>259.4</ele>
        <time>2021-04-10T06:08:40Z</time>
      </trkpt>
      <trkpt lat="45.18051" lon="5.79506">
        <ele>259.6</ele>
        <time>2021-04-10T06:08:41Z</time>
      </trkpt>
      <trkpt lat="45.1805" lon="5.79505">
        <ele>259.8</ele>
        <time>2021-04-10T06:08:42Z</time>
      </trkpt>
      <trkpt lat="45.1805" lon="5.79505">
        <ele>260.2</ele>
        <time>2021-04-10T06:08:43Z</time>
      </trkpt>
      <trkpt lat="45.18049" lon="5.79504">
        <ele>260.2</ele>
        <time>2021-04-10T06:08:44Z</time>
      </trkpt>
      <trkpt lat="45.18049" lon="5.79504">
        <ele>260.4</ele>
        <time>2021-04-10T06:08:45Z</time>
      </trkpt>
      <trkpt lat="45.18048" lon="5.79503">
        <ele>260.6</ele>
        <time>2021-04-10T06:08:46Z</time>
      </trkpt>
      <trkpt lat="45.18048" lon="5.79503">
        <ele>261</ele>
        <time>2021-04-10T06:08:47Z</time>
      </trkpt>
      <trkpt lat="45.18047" lon="5.79502">
        <ele>261</ele>
        <time>2021-04-10T06:08:48Z</time>
      </trkpt>
      <trkpt lat="45.18047" lon="5.79502">
        <ele>261.4</ele>
        <time>2021-04-10T06:08:49Z</time>
      </trkpt>
      <trkpt lat="45.18046" lon="5.79501">
        <ele>261.6</ele>
        <time>2021-04-10T06:08:50Z</time>
      </trkpt>
      <trkpt lat="45.18045" lon="5.79501">
        <ele>261.8</ele>
        <time>2021-04-10T06:08:51Z</time>
      </trkpt>
      <trkpt lat="45.18045" lon="5.795">
        <ele>261.8</ele>
        <time>2021-04-10T06:08:52Z</time>
      </trkpt>
      <trkpt lat="45.18044" lon="5.795">
        <ele>262.2</ele>
        <time>2021-04-10T06:08:53Z</time>
      </trkpt>
      <trkpt lat="45.18044" lon="5.79499">
        <ele>262.2</ele>
        <time>2021-04-10T06:08:54Z</time>
      </trkpt>
      <trkpt lat="45.18043" lon="5.79499">
        <ele>262.6</ele>
        <time>2021-04-10T06:08:55Z</time>
      </trkpt>
      <trkpt lat="45.18043" lon="5.79498">
        <ele>262.4</ele>
        <time>2021-04-10T06:08:56Z</time>
      </trkpt>
      <trkpt lat="45.18042" lon="5.79498">
        <ele>262.6</ele>
        <time>2021-04-10T06:08:57Z</time>
      </trkpt>
      <trkpt lat="45.18042" lon="5.79497">
        <ele>262.8</ele>
        <time>2021-04-10T06:08:58Z</time>
      </trkpt>
      <trkpt lat="45.18041" lon="5.79497">
        <ele>263.2</ele>
        <time>2021-04-10T06:08:59Z</time>
      </trkpt>
      <trkpt lat="45.18041" lon="5.79496">
        <ele>263.2</ele>
        <time>2021-04-10T06:09:00Z</time>
      </trkpt>
      <trkpt lat="45.1804" lon="5.79496">
        <ele>263.6</ele>
        <time>2021-04-10T06:09:01Z</time>
      </trkpt>
      <trkpt lat="45.1804" lon="5.79495">
        <ele>263.8</ele>
        <time>2021-04-10T06:09:02Z</time>
      </trkpt>
      <trkpt lat="45.18039" lon="5.79495">
        <ele>264.2</ele>
        <time>2021-04-10T06:09:03Z</time>
      </trkpt>
      <trkpt lat="45.18039" lon="5.79494">
        <ele>264.2</ele>
        <time>2021-04-10T06:09:04Z</time>
      </trkpt>
      <trkpt lat="45.18038" lon="5.79494">
        <ele>264.6</ele>
        <time>2021-04-10T06:09:05Z</time>
      </trkpt>
      <trkpt lat="45.18038" lon="5.79494">
        <ele>264.6</ele>
        <time>2021-04-10T06:09:06Z</time>
      </trkpt>
      <trkpt lat="45.18037" lon="5.79493">
        <ele>265</ele>
        <time>2021-04-10T06:09:07Z</time>
      </trkpt>
      <trkpt lat="45.18037" lon="5.79493">
        <ele>265.2</ele>
        <time>2021-04-10T06:09:08Z</time>
      </trkpt>
      <trkpt lat="45.18036" lon="5.79492">
        <ele>265.6</ele>
        <time>2021-04-10T06:09:09Z</time>
      </trkpt>
      <trkpt lat="45.18036" lon="5.79492">
        <ele>265.8</ele>
        <time>2021-04-10T06:09:10Z</time>
      </trkpt>
      <trkpt lat="45.18035" lon="5.79491">
        <ele>266.2</ele>
        <time>2021-04-10T06:09:11Z</time>
      </trkpt>
      <trkpt lat="45.18035" lon="5.79491">
        <ele>266.2</ele>
        <time>2021-04-10T06:09:12Z</time>
      </trkpt>
      <trkpt lat="45.18034" lon="5.7949">
        <ele>266.6</ele>
        <time>2021-04-10T06:09:13Z</time>
      </trkpt>
      <trkpt lat="45.18034" lon="5.7949">
        <ele>266.6</ele>
        <time>2021-04-10T06:09:14Z</time>
      </trkpt>
      <trkpt lat="45.18033" lon="5.79489">
        <ele>267</ele>
        <time>2021-04-10T06:09:15Z</time>
      </trkpt>
      <trkpt lat="45.18033" lon="5.79489">
        <ele>267</ele>
        <time>2021-04-10T06:09:16Z</time>
      </trkpt>
      <trkpt lat="45.18032" lon="5.79488">
        <ele>267.2</ele>
        <time>2021-04-10T06:09:17Z</time>
      </trkpt>
      <trkpt lat="45.18032" lon="5.79488">
        <ele>267.4</ele>
        <time>2021-04-10T06:09:18Z</time>
      </trkpt>
      <trkpt lat="45.18031" lon="5.79487">
        <ele>267.6</ele>
        <time>2021-04-10T06:09:19Z</time>
      </trkpt>
      <trkpt lat="45.1803" lon="5.79487">
        <ele>267.4</ele>
        <time>2021-04-10T06:09:20Z</time>
      </trkpt>
      <trkpt lat="45.1803" lon="5.79486">
        <ele>267.8</ele>
        <time>2021-04-10T06:09:21Z</time>
      </trkpt>
      <trkpt lat="45.18029" lon="5.79486">
        <ele>267.8</ele>
        <time>2021-04-10T06:09:22Z</time>
      </trkpt>
      <trkpt lat="45.18029" lon="5.79485">
        <ele>268.2</ele>
        <time>2021-04-10T06:09:23Z</time>
      </trkpt>
      <trkpt lat="45.18028" lon="5.79485">
        <ele>268.2</ele>
        <time>2021-04-10T06:09:24Z</time>
      </trkpt>
      <trkpt lat="45.18028" lon="5.79484">
        <ele>268.6</ele>
        <time>2021-04-10T06:09:25Z</time>
      </trkpt>
      <trkpt lat="45.18027" lon="5.79484">
        <ele>268.6</ele>
        <time>2021-04-10T06:09:26Z</time>
      </trkpt>
      <trkpt lat="45.18027" lon="5.79483">
        <ele>269</ele>
        <time>2021-04-10T06:09:27Z</time>
      </trkpt>
      <trkpt lat="45.18026" lon="5.79483">
        <ele>269.2</ele>
        <time>2021-04-10T06:09:28Z</time>
      </trkpt>
      <trkpt lat="45.18026" lon="5.79482">
        <ele>269.6</ele>
        <time>2021-04-10T06:09:29Z</time>
      </trkpt>
      <trkpt lat="45.18025" lon="5.79482">
        <ele>269.8</ele>
        <time>2021-04-10T06:09:30Z</time>
      </trkpt>
      <trkpt lat="45.18025" lon="5.79481">
        <ele>270.2</ele>
        <time>2021-04-10T06:09:31Z</time>
      </trkpt>
      <trkpt lat="45.18024" lon="5.79481">
        <ele>270.4</ele>
        <time>2021-04-10T06:09:32Z</time>
      </trkpt>
      <trkpt lat="45.18024" lon="5.7948">
        <ele>270.6</ele>
        <time>2021-04-10T06:09:33Z</time>
      </trkpt>
      <trkpt lat="45.18023" lon="5.7948">
        <ele>270.8</ele>
        <time>2021-04-10T06:09:34Z</time>
      </trkpt>
      <trkpt lat="45.18023" lon="5.79479">
        <ele>271.2</ele>
        <time>2021-04-10T06:09:35Z</time>
      </trkpt>
      <trkpt lat="45.18022" lon="5.79479">
        <ele>271.2</ele>
        <time>2021-04-10T06:09:36Z</time>
      </trkpt>
      <trkpt lat="45.18022" lon="5.79478">
        <ele>271.6</ele>
        <time>2021-04-10T06:09:37Z</time>
      </trkpt>
      <trkpt lat="45.18021" lon="5.79478">
        <ele>271.8</ele>
        <time>2021-04-10T06:09:38Z</time>
      </trkpt>
      <trkpt lat="45.18021" lon="5.79477">
        <ele>272</ele>
        <time>2021-04-10T06:09:39Z</time>
      </trkpt>
      <trkpt lat="45.1802" lon="5.79477">
        <ele>272.2</ele>
        <time>2021-04-10T06:09:40Z</time>
      </trkpt>
      <trkpt lat="45.1802" lon="5.79476">
        <ele>272.6</ele>
        <time>2021-04-10T06:09:41Z</time>
      </trkpt>
      <trkpt lat="45.18019" lon="5.79476">
        <ele>272.6</ele>
        <time>2021-04-10T06:09:42Z</time>
      </trkpt>
      <trkpt lat="45.18019" lon="5.79475">
        <ele>273</ele>
        <time>2021-04-10T06:09:43Z</time>
      </trkpt>
      <trkpt lat="45.18018" lon="5.79475">
        <ele>273.2</ele>
        <time>2021-04-10T06:09:44Z</time>
      </trkpt>
      <trkpt lat="45.18018" lon="5.79474">
        <ele>273.6</ele>
        <time>2021-04-10T06:09:45Z</time>
      </trkpt>
      <trkpt lat="45.18017" lon="5.79474">
        <ele>273.6</ele>
        <time>2021-04-10T06:09:46Z</time>
      </trkpt>
      <trkpt lat="45.18017" lon="5.79473">
        <ele>274</ele>
        <time>2021-04-10T06:09:47Z</time>
      </trkpt>
      <trkpt lat="45.18016" lon="5.79473">
        <ele>274</ele>
        <time>2021-04-10T06:09:48Z</time>
      </trkpt>
      <trkpt lat="45.18015" lon="5.79472">
        <ele>274.4</ele>
        <time>2021-04-10T06:09:49Z</time>
      </trkpt>
      <trkpt lat="45.18015" lon="5.79472">
        <ele>274.6</ele>
        <time>2021-04-10T06:09:50Z</time>
      </trkpt>
      <trkpt lat="45.18014" lon="5.79471">
        <ele>274.8</ele>
        <time>2021-04-10T06:09:51Z</time>
      </trkpt>
      <trkpt lat="45.18014" lon="5.79471">
        <ele>275</ele>
        <time>2021-04-10T06:09:52Z</time>
      </trkpt>
      <trkpt lat="45.18013" lon="5.7947">
        <ele>275.2</ele>
        <time>2021-04-10T06:09:53Z</time>
      </trkpt>
      <trkpt lat="45.18013" lon="5.7947">
        <ele>275.2</ele>
        <time>2021-04-10T06:09:54Z</time>
      </trkpt>
      <trkpt lat="45.18012" lon="5.79469">
        <ele>275.6</ele>
        <time>2021-04-10T06:09:55Z</time>
      </trkpt>
      <trkpt lat="45.18012" lon="5.79469">
        <ele>275.6</ele>
        <time>2021-04-10T06:09:56Z</time>
      </trkpt>
      <trkpt lat="45.18011" lon="5.79469">
        <ele>275.8</ele>
        <time>2021-04-10T06:09:57Z</time>
      </trkpt>
      <trkpt lat="45.18011" lon="5.79468">
        <ele>276</ele>
        <time>2021-04-10T06:09:58Z</time>
      </trkpt>
      <trkpt lat="45.1801" lon="5.79468">
        <ele>276.2</ele>
        <time>2021-04-10T06:09:59Z</time>
      </trkpt>
      <trkpt lat="45.1801" lon="5.79467">
        <ele>276.6</ele>
        <time>2021-04-10T06:10:01Z</time>
      </trkpt>
      <trkpt lat="45.18009" lon="5.79467">
        <ele>276.8</ele>
        <time>2021-04-10T06:10:02Z</time>
      </trkpt>
      <trkpt lat="45.18009" lon="5.79466">
        <ele>277</ele>
        <time>2021-04-10T06:10:03Z</time>
      </trkpt>
      <trkpt lat="45.18008" lon="5.79466">
        <ele>277.2</ele>
        <time>2021-04-10T06:10:04Z</time>
      </trkpt>
      <trkpt lat="45.18008" lon="5.79465">
        <ele>277.6</ele>
        <time>2021-04-10T06:10:05Z</time>
      </trkpt>
      <trkpt lat="45.18007" lon="5.79465">
        <ele>277.8</ele>
        <time>2021-04-10T06:10:06Z</time>
      </trkpt>
      <trkpt lat="45.18007" lon="5.79464">
        <ele>278</ele>
        <time>2021-04-10T06:10:07Z</time>
      </trkpt>
      <trkpt lat="45.18006" lon="5.79464">
        <ele>278.2</ele>
        <time>2021-04-10T06:10:08Z</time>
      </trkpt>
      <trkpt lat="45.18006" lon="5.79463">
        <ele>278.6</ele>
        <time>2021-04-10T06:10:09Z</time>
      </trkpt>
      <trkpt lat="45.18005" lon="5.79463">
        <ele>278.8</ele>
        <time>2021-04-10T06:10:10Z</time>
      </trkpt>
      <trkpt lat="45.18005" lon="5.79462">
        <ele>279.2</ele>
        <time>2021-04-10T06:10:11Z</time>
      </trkpt>
      <trkpt lat="45.18004" lon="5.79462">
        <ele>279.4</ele>
        <time>2021-04-10T06:10:12Z</time>
      </trkpt>
      <trkpt lat="45.18004" lon="5.79461">
        <ele>279.6</ele>
        <time>2021-04-10T06:10:13Z</time>
      </trkpt>
      <trkpt lat="45.18003" lon="5.79461">
        <ele>279.6</ele>
        <time>2021-04-10T06:10:14Z</time>
      </trkpt>
      <trkpt lat="45.18003" lon="5.7946">
        <ele>279.8</ele>
        <time>2021-04-10T06:10:15Z</time>
      </trkpt>
      <trkpt lat="45.18002" lon="5.7946">
        <ele>280</ele>
        <time>2021-04-10T06:10:16Z</time>
      </trkpt>
      <trkpt lat="45.18002" lon="5.79459">
        <ele>280.6</ele>
        <time>2021-04-10T06:10:17Z</time>
      </trkpt>
      <trkpt lat="45.18001" lon="5.79459">
        <ele>280.8</ele>
        <time>2021-04-10T06:10:18Z</time>
      </trkpt>
      <trkpt lat="45.18" lon="5.79458">
        <ele>281.2</ele>
        <time>2021-04-10T06:10:19Z</time>
      </trkpt>
      <trkpt lat="45.18" lon="5.79458">
        <ele>281.4</ele>
        <time>2021-04-10T06:10:20Z</time>
      </trkpt>
      <trkpt lat="45.17999" lon="5.79457">
        <ele>281.8</ele>
        <time>2021-04-10T06:10:21Z</time>
      </trkpt>
      <trkpt lat="45.17999" lon="5.79457">
        <ele>282</ele>
        <time>2021-04-10T06:10:22Z</time>
      </trkpt>
      <trkpt lat="45.17998" lon="5.79456">
        <ele>282.4</ele>
        <time>2021-04-10T06:10:23Z</time>
      </trkpt>
      <trkpt lat="45.17998" lon="5.79456">
        <ele>282.4</ele>
        <time>2021-04-10T06:10:24Z</time>
      </trkpt>
      <trkpt lat="45.17997" lon="5.79455">
        <ele>282.8</ele>
        <time>2021-04-10T06:10:25Z</time>
      </trkpt>
      <trkpt lat="45.17997" lon="5.79455">
        <ele>283</ele>
        <time>2021-04-10T06:10:26Z</time>
      </trkpt>
      <trkpt lat="45.17996" lon="5.79454">
        <ele>283.4</ele>
        <time>2021-04-10T06:10:27Z</time>
      </trkpt>
      <trkpt lat="45.17996" lon="5.79454">
        <ele>283.6</ele>
        <time>2021-04-10T06:10:28Z</time>
      </trkpt>
      <trkpt lat="45.17995" lon="5.79453">
        <ele>283.8</ele>
        <time>2021-04-10T06:10:29Z</time>
      </trkpt>
      <trkpt lat="45.17995" lon="5.79453">
        <ele>284.2</ele>
        <time>2021-04-10T06:10:30Z</time>
      </trkpt>
      <trkpt lat="45.17994" lon="5.79452">
        <ele>284.4</ele>
        <time>2021-04-10T06:10:31Z</time>
      </trkpt>
      <trkpt lat="45.17994" lon="5.79452">
        <ele>284.6</ele>
        <time>2021-04-10T06:10:32Z</time>
      </trkpt>
      <trkpt lat="45.17993" lon="5.79451">
        <ele>285</ele>
        <time>2021-04-10T06:10:33Z</time>
      </trkpt>
      <trkpt lat="45.17993" lon="5.79451">
        <ele>285.2</ele>
        <time>2021-04-10T06:10:34Z</time>
      </trkpt>
      <trkpt lat="45.17992" lon="5.7945">
        <ele>285.4</ele>
        <time>2021-04-10T06:10:35Z</time>
      </trkpt>
      <trkpt lat="45.17992" lon="5.7945">
        <ele>285.8</ele>
        <time>2021-04-10T06:10:36Z</time>
      </trkpt>
      <trkpt lat="45.17991" lon="5.79449">
        <ele>285.8</ele>
        <time>2021-04-10T06:10:37Z</time>
      </trkpt>
      <trkpt lat="45.17991" lon="5.79449">
        <ele>286.2</ele>
        <time>2021-04-10T06:10:38Z</time>
      </trkpt>
      <trkpt lat="45.1799" lon="5.79448">
        <ele>286.2</ele>
        <time>2021-04-10T06:10:39Z</time>
      </trkpt>
      <trkpt lat="45.1799" lon="5.79448">
        <ele>286.4</ele>
        <time>2021-04-10T06:10:40Z</time>
      </trkpt>
      <trkpt lat="45.17989" lon="5.79447">
        <ele>286.6</ele>
        <time>2021-04-10T06:10:41Z</time>
      </trkpt>
      <trkpt lat="45.17989" lon="5.79447">
        <ele>286.8</ele>
        <time>2021-04-10T06:10:42Z</time>
      </trkpt>
      <trkpt lat="45.17988" lon="5.79446">
        <ele>287.2</ele>
        <time>2021-04-10T06:10:43Z</time>
      </trkpt>
      <trkpt lat="45.17918" lon="5.79369">
        <ele>287.6</ele>
        <time>2021-04-10T06:10:44Z</time>
      </trkpt>
      <trkpt lat="45.17918" lon="5.79369">
        <ele>287.8</ele>
        <time>2021-04-10T06:10:45Z</time>
      </trkpt>
      <trkpt lat="45.17918" lon="5.79369">
        <ele>288.2</ele>
        <time>2021-04-10T06:10:46Z</time>
      </trkpt>
      <trkpt lat="45.17918" lon="5.79369">
        <ele>288</ele>
        <time>2021-04-10T06:10:47Z</time>
      </trkpt>
      <trkpt lat="45.17917" lon="5.79369">
        <ele>288.4</ele>
        <time>2021-04-10T06:10:48Z</time>
      </trkpt>
      <trkpt lat="45.17916" lon="5.79368">
        <ele>288.6</ele>
        <time>2021-04-10T06:10:49Z</time>
      </trkpt>
      <trkpt lat="45.17915" lon="5.79367">
        <ele>289</ele>
        <time>2021-04-10T06:10:50Z</time>
      </trkpt>
      <trkpt lat="45.17914" lon="5.79367">
        <ele>289.4</ele>
        <time>2021-04-10T06:10:51Z</time>
      </trkpt>
      <trkpt lat="45.17914" lon="5.79366">
        <ele>289.8</ele>
        <time>2021-04-10T06:10:52Z</time>
      </trkpt>
      <trkpt lat="45.17913" lon="5.79365">
        <ele>290</ele>
        <time>2021-04-10T06:10:53Z</time>
      </trkpt>
      <trkpt lat="45.17912" lon="5.79364">
        <ele>290.4</ele>
        <time>2021-04-10T06:10:54Z</time>
      </trkpt>
      <trkpt lat="45.17911" lon="5.79364">
        <ele>290.6</ele>
        <time>2021-04-10T06:10:55Z</time>
      </trkpt>
      <trkpt lat="45.1791" lon="5.79363">
        <ele>291</ele>
        <time>2021-04-10T06:10:56Z</time>
      </trkpt>
      <trkpt lat="45.17909" lon="5.79362">
        <ele>291.2</ele>
        <time>2021-04-10T06:10:57Z</time>
      </trkpt>
      <trkpt lat="45.17909" lon="5.79362">
        <ele>291.4</ele>
        <time>2021-04-10T06:10:58Z</time>
      </trkpt>
      <trkpt lat="45.17909" lon="5.79361">
        <ele>291.6</ele>
        <time>2021-04-10T06:10:59Z</time>
      </trkpt>
      <trkpt lat="45.17909" lon="5.7936">
        <ele>291.6</ele>
        <time>2021-04-10T06:11:00Z</time>
      </trkpt>
      <trkpt lat="45.17909" lon="5.7936">
        <ele>291.8</ele>
        <time>2021-04-10T06:11:01Z</time>
      </trkpt>
      <trkpt lat="45.17909" lon="5.79359">
        <ele>292</ele>
        <time>2021-04-10T06:11:02Z</time>
      </trkpt>
      <trkpt lat="45.17909" lon="5.79358">
        <ele>292.2</ele>
        <time>2021-04-10T06:11:03Z</time>
      </trkpt>
      <trkpt lat="45.17909" lon="5.79358">
        <ele>292.2</ele>
        <time>2021-04-10T06:11:04Z</time>
      </trkpt>
      <trkpt lat="45.17909" lon="5.79357">
        <ele>292.4</ele>
        <time>2021-04-10T06:11:05Z</time>
      </trkpt>
      <trkpt lat="45.17909" lon="5.79356">
        <ele>292.6</ele>
        <time>2021-04-10T06:11:06Z</time>
      </trkpt>
      <trkpt lat="45.17909" lon="5.79356">
        <ele>292.6</ele>
        <time>2021-04-10T06:11:07Z</time>
      </trkpt>
      <trkpt lat="45.17909" lon="5.79355">
        <ele>292.6</ele>
        <time>2021-04-10T06:11:08Z</time>
      </trkpt>
      <trkpt lat="45.17909" lon="5.79354">
        <ele>292.8</ele>
        <time>2021-04-10T06:11:09Z</time>
      </trkpt>
      <trkpt lat="45.17909" lon="5.79354">
        <ele>293</ele>
        <time>2021-04-10T06:11:10Z</time>
      </trkpt>
      <trkpt lat="45.17909" lon="5.79353">
        <ele>293.2</ele>
        <time>2021-04-10T06:11:11Z</time>
      </trkpt>
      <trkpt lat="45.17909" lon="5.79352">
        <ele>293.2</ele>
        <time>2021-04-10T06:11:12Z</time>
      </trkpt>
      <trkpt lat="45.17909" lon="5.79352">
        <ele>293.4</ele>
        <time>2021-04-10T06:11:13Z</time>
      </trkpt>
      <trkpt lat="45.17909" lon="5.79351">
        <ele>293.4</ele>
        <time>2021-04-10T06:11:14Z</time>
      </trkpt>
      <trkpt lat="45.17909" lon="5.7935">
        <ele>293.6</ele>
        <time>2021-04-10T06:11:15Z</time>
      </trkpt>
      <trkpt lat="45.17909" lon="5.7935">
        <ele>293.8</ele>
        <time>2021-04-10T06:11:16Z</time>
      </trkpt>
      <trkpt lat="45.17909" lon="5.79349">
        <ele>294</ele>
        <time>2021-04-10T06:11:17Z</time>
      </trkpt>
      <trkpt lat="45.17909" lon="5.79346">
        <ele>294.2</ele>
        <time>2021-04-10T06:11:18Z</time>
      </trkpt>
      <trkpt lat="45.17908" lon="5.79344">
        <ele>294.2</ele>
        <time>2021-04-10T06:11:19Z</time>
      </trkpt>
      <trkpt lat="45.17908" lon="5.79342">
        <ele>294.2</ele>
        <time>2021-04-10T06:11:20Z</time>
      </trkpt>
      <trkpt lat="45.17908" lon="5.79339">
        <ele>294.4</ele>
        <time>2021-04-10T06:11:21Z</time>
      </trkpt>
      <trkpt lat="45.17907" lon="5.79337">
        <ele>294.4</ele>
        <time>2021-04-10T06:11:22Z</time>
      </trkpt>
      <trkpt lat="45.17907" lon="5.79334">
        <ele>294.6</ele>
        <time>2021-04-10T06:11:23Z</time>
      </trkpt>
      <trkpt lat="45.17907" lon="5.79332">
        <ele>294.8</ele>
        <time>2021-04-10T06:11:24Z</time>
      </trkpt>
      <trkpt lat="45.17906" lon="5.79329">
        <ele>295.2</ele>
        <time>2021-04-10T06:11:25Z</time>
      </trkpt>
      <trkpt lat="45.17906" lon="5.79327">
        <ele>295.2</ele>
        <time>2021-04-10T06:11:26Z</time>
      </trkpt>
      <trkpt lat="45.17904" lon="5.79325">
        <ele>295.2</ele>
        <time>2021-04-10T06:11:27Z</time>
      </trkpt>
      <trkpt lat="45.17903" lon="5.79323">
        <ele>295.4</ele>
        <time>2021-04-10T06:11:28Z</time>
      </trkpt>
      <trkpt lat="45.17901" lon="5.79321">
        <ele>295.4</ele>
        <time>2021-04-10T06:11:29Z</time>
      </trkpt>
      <trkpt lat="45.179" lon="5.7932">
        <ele>295.4</ele>
        <time>2021-04-10T06:11:30Z</time>
      </trkpt>
      <trkpt lat="45.17898" lon="5.79318">
        <ele>295.6</ele>
        <time>2021-04-10T06:11:31Z</time>
      </trkpt>
      <trkpt lat="45.17896" lon="5.79316">
        <ele>295.6</ele>
        <time>2021-04-10T06:11:32Z</time>
      </trkpt>
      <trkpt lat="45.17895" lon="5.79314">
        <ele>295.6</ele>
        <time>2021-04-10T06:11:33Z</time>
      </trkpt>
      <trkpt lat="45.17894" lon="5.79314">
        <ele>295.6</ele>
        <time>2021-04-10T06:11:34Z</time>
      </trkpt>
      <trkpt lat="45.17893" lon="5.79314">
        <ele>295.8</ele>
        <time>2021-04-10T06:11:35Z</time>
      </trkpt>
      <trkpt lat="45.17893" lon="5.79314">
        <ele>296.2</ele>
        <time>2021-04-10T06:11:36Z</time>
      </trkpt>
      <trkpt lat="45.17892" lon="5.79313">
        <ele>296.2</ele>
        <time>2021-04-10T06:11:37Z</time>
      </trkpt>
      <trkpt lat="45.17891" lon="5.79313">
        <ele>296.4</ele>
        <time>2021-04-10T06:11:38Z</time>
      </trkpt>
      <trkpt lat="45.17891" lon="5.79313">
        <ele>296.6</ele>
        <time>2021-04-10T06:11:39Z</time>
      </trkpt>
      <trkpt lat="45.1789" lon="5.79312">
        <ele>296.8</ele>
        <time>2021-04-10T06:11:40Z</time>
      </trkpt>
      <trkpt lat="45.17889" lon="5.79312">
        <ele>297</ele>
        <time>2021-04-10T06:11:41Z</time>
      </trkpt>
      <trkpt lat="45.17888" lon="5.79312">
        <ele>297.2</ele>
        <time>2021-04-10T06:11:42Z</time>
      </trkpt>
      <trkpt lat="45.17888" lon="5.79312">
        <ele>297.4</ele>
        <time>2021-04-10T06:11:43Z</time>
      </trkpt>
      <trkpt lat="45.17887" lon="5.79311">
        <ele>297.8</ele>
        <time>2021-04-10T06:11:44Z</time>
      </trkpt>
      <trkpt lat="45.17886" lon="5.79311">
        <ele>298</ele>
        <time>2021-04-10T06:11:45Z</time>
      </trkpt>
      <trkpt lat="45.17886" lon="5.79311">
        <ele>298.4</ele>
        <time>2021-04-10T06:11:46Z</time>
      </trkpt>
      <trkpt lat="45.17885" lon="5.7931">
        <ele>298.8</ele>
        <time>2021-04-10T06:11:47Z</time>
      </trkpt>
      <trkpt lat="45.17884" lon="5.7931">
        <ele>299.2</ele>
        <time>2021-04-10T06:11:48Z</time>
      </trkpt>
      <trkpt lat="45.17884" lon="5.7931">
        <ele>299.2</ele>
        <time>2021-04-10T06:11:49Z</time>
      </trkpt>
      <trkpt lat="45.17883" lon="5.7931">
        <ele>299.4</ele>
        <time>2021-04-10T06:11:50Z</time>
      </trkpt>
      <trkpt lat="45.17882" lon="5.79309">
        <ele>300</ele>
        <time>2021-04-10T06:11:51Z</time>
      </trkpt>
      <trkpt lat="45.17882" lon="5.79309">
        <ele>300.4</ele>
        <time>2021-04-10T06:11:52Z</time>
      </trkpt>
      <trkpt lat="45.17881" lon="5.79309">
        <ele>300.4</ele>
        <time>2021-04-10T06:11:53Z</time>
      </trkpt>
      <trkpt lat="45.1788" lon="5.79308">
        <ele>300.6</ele>
        <time>2021-04-10T06:11:54Z</time>
      </trkpt>
      <trkpt lat="45.1788" lon="5.79308">
        <ele>300.8</ele>
        <time>2021-04-10T06:11:55Z</time>
      </trkpt>
      <trkpt lat="45.17879" lon="5.79308">
        <ele>301</ele>
        <time>2021-04-10T06:11:56Z</time>
      </trkpt>
      <trkpt lat="45.17878" lon="5.79308">
        <ele>301.4</ele>
        <time>2021-04-10T06:11:57Z</time>
      </trkpt>
      <trkpt lat="45.17878" lon="5.79307">
        <ele>301.6</ele>
        <time>2021-04-10T06:11:58Z</time>
      </trkpt>
      <trkpt lat="45.17877" lon="5.79307">
        <ele>301.8</ele>
        <time>2021-04-10T06:11:59Z</time>
      </trkpt>
      <trkpt lat="45.17876" lon="5.79307">
        <ele>302</ele>
        <time>2021-04-10T06:12:00Z</time>
      </trkpt>
      <trkpt lat="45.17876" lon="5.79306">
        <ele>302.2</ele>
        <time>2021-04-10T06:12:01Z</time>
      </trkpt>
      <trkpt lat="45.17875" lon="5.79306">
        <ele>302.2</ele>
        <time>2021-04-10T06:12:02Z</time>
      </trkpt>
      <trkpt lat="45.17874" lon="5.79306">
        <ele>302.6</ele>
        <time>2021-04-10T06:12:03Z</time>
      </trkpt>
      <trkpt lat="45.17874" lon="5.79306">
        <ele>302.6</ele>
        <time>2021-04-10T06:12:04Z</time>
      </trkpt>
      <trkpt lat="45.17873" lon="5.79305">
        <ele>303</ele>
        <time>2021-04-10T06:12:05Z</time>
      </trkpt>
      <trkpt lat="45.17872" lon="5.79305">
        <ele>303.2</ele>
        <time>2021-04-10T06:12:06Z</time>
      </trkpt>
      <trkpt lat="45.17872" lon="5.79305">
        <ele>303.4</ele>
        <time>2021-04-10T06:12:07Z</time>
      </trkpt>
      <trkpt lat="45.17871" lon="5.79304">
        <ele>303.6</ele>
        <time>2021-04-10T06:12:08Z</time>
      </trkpt>
      <trkpt lat="45.1787" lon="5.79304">
        <ele>303.8</ele>
        <time>2021-04-10T06:12:09Z</time>
      </trkpt>
      <trkpt lat="45.1787" lon="5.79304">
        <ele>304</ele>
        <time>2021-04-10T06:12:10Z</time>
      </trkpt>
      <trkpt lat="45.17869" lon="5.79304">
        <ele>304.2</ele>
        <time>2021-04-10T06:12:11Z</time>
      </trkpt>
      <trkpt lat="45.17868" lon="5.79303">
        <ele>304.6</ele>
        <time>2021-04-10T06:12:12Z</time>
      </trkpt>
      <trkpt lat="45.17868" lon="5.79303">
        <ele>304.6</ele>
        <time>2021-04-10T06:12:13Z</time>
      </trkpt>
      <trkpt lat="45.17867" lon="5.79303">
        <ele>304.8</ele>
        <time>2021-04-10T06:12:14Z</time>
      </trkpt>
      <trkpt lat="45.17866" lon="5.79302">
        <ele>305.2</ele>
        <time>2021-04-10T06:12:15Z</time>
      </trkpt>
      <trkpt lat="45.17865" lon="5.79302">
        <ele>305.4</ele>
        <time>2021-04-10T06:12:16Z</time>
      </trkpt>
      <trkpt lat="45.17865" lon="5.79302">
        <ele>305.8</ele>
        <time>2021-04-10T06:12:17Z</time>
      </trkpt>
      <trkpt lat="45.17864" lon="5.79302">
        <ele>306</ele>
        <time>2021-04-10T06:12:18Z</time>
      </trkpt>
      <trkpt lat="45.17863" lon="5.79301">
        <ele>306.4</ele>
        <time>2021-04-10T06:12:19Z</time>
      </trkpt>
      <trkpt lat="45.17863" lon="5.79301">
        <ele>306.6</ele>
        <time>2021-04-10T06:12:20Z</time>
      </trkpt>
      <trkpt lat="45.17862" lon="5.79301">
        <ele>306.8</ele>
        <time>2021-04-10T06:12:21Z</time>
      </trkpt>
      <trkpt lat="45.17861" lon="5.793">
        <ele>307</ele>
        <time>2021-04-10T06:12:22Z</time>
      </trkpt>
      <trkpt lat="45.17861" lon="5.793">
        <ele>307.2</ele>
        <time>2021-04-10T06:12:23Z</time>
      </trkpt>
      <trkpt lat="45.1786" lon="5.793">
        <ele>307.4</ele>
        <time>2021-04-10T06:12:24Z</time>
      </trkpt>
      <trkpt lat="45.17859" lon="5.793">
        <ele>307.6</ele>
        <time>2021-04-10T06:12:25Z</time>
      </trkpt>
      <trkpt lat="45.17859" lon="5.79299">
        <ele>307.8</ele>
        <time>2021-04-10T06:12:26Z</time>
      </trkpt>
      <trkpt lat="45.17858" lon="5.79299">
        <ele>308</ele>
        <time>2021-04-10T06:12:27Z</time>
      </trkpt>
      <trkpt lat="45.17857" lon="5.79299">
        <ele>308.2</ele>
        <time>2021-04-10T06:12:28Z</time>
      </trkpt>
      <trkpt lat="45.17857" lon="5.79298">
        <ele>308.4</ele>
        <time>2021-04-10T06:12:29Z</time>
      </trkpt>
      <trkpt lat="45.17856" lon="5.79298">
        <ele>308.8</ele>
        <time>2021-04-10T06:12:30Z</time>
      </trkpt>
      <trkpt lat="45.17855" lon="5.79298">
        <ele>309</ele>
        <time>2021-04-10T06:12:31Z</time>
      </trkpt>
      <trkpt lat="45.17855" lon="5.79298">
        <ele>309.2</ele>
        <time>2021-04-10T06:12:32Z</time>
      </trkpt>
      <trkpt lat="45.17854" lon="5.79297">
        <ele>309.4</ele>
        <time>2021-04-10T06:12:33Z</time>
      </trkpt>
      <trkpt lat="45.17853" lon="5.79297">
        <ele>309.6</ele>
        <time>2021-04-10T06:12:34Z</time>
      </trkpt>
      <trkpt lat="45.17853" lon="5.79297">
        <ele>309.8</ele>
        <time>2021-04-10T06:12:35Z</time>
      </trkpt>
      <trkpt lat="45.17852" lon="5.79296">
        <ele>310</ele>
        <time>2021-04-10T06:12:36Z</time>
      </trkpt>
      <trkpt lat="45.17851" lon="5.79296">
        <ele>310.2</ele>
        <time>2021-04-10T06:12:37Z</time>
      </trkpt>
      <trkpt lat="45.17851" lon="5.79296">
        <ele>310.2</ele>
        <time>2021-04-10T06:12:38Z</time>
      </trkpt>
      <trkpt lat="45.1785" lon="5.79296">
        <ele>310.4</ele>
        <time>2021-04-10T06:12:39Z</time>
      </trkpt>
      <trkpt lat="45.17849" lon="5.79295">
        <ele>310.6</ele>
        <time>2021-04-10T06:12:40Z</time>
      </trkpt>
      <trkpt lat="45.17849" lon="5.79295">
        <ele>311</ele>
        <time>2021-04-10T06:12:41Z</time>
      </trkpt>
      <trkpt lat="45.17848" lon="5.79295">
        <ele>311.2</ele>
        <time>2021-04-10T06:12:42Z</time>
      </trkpt>
      <trkpt lat="45.17847" lon="5.79294">
        <ele>311.4</ele>
        <time>2021-04-10T06:12:43Z</time>
      </trkpt>
      <trkpt lat="45.17847" lon="5.79294">
        <ele>311.8</ele>
        <time>2021-04-10T06:12:44Z</time>
      </trkpt>
      <trkpt lat="45.17846" lon="5.79294">
        <ele>312</ele>
        <time>2021-04-10T06:12:45Z</time>
      </trkpt>
      <trkpt lat="45.17845" lon="5.79294">
        <ele>312.2</ele>
        <time>2021-04-10T06:12:46Z</time>
      </trkpt>
      <trkpt lat="45.17844" lon="5.79293">
        <ele>312.4</ele>
        <time>2021-04-10T06:12:47Z</time>
      </trkpt>
      <trkpt lat="45.17844" lon="5.79293">
        <ele>312.6</ele>
        <time>2021-04-10T06:12:48Z</time>
      </trkpt>
      <trkpt lat="45.17843" lon="5.79293">
        <ele>312.8</ele>
        <time>2021-04-10T06:12:49Z</time>
      </trkpt>
      <trkpt lat="45.17842" lon="5.79292">
        <ele>313</ele>
        <time>2021-04-10T06:12:50Z</time>
      </trkpt>
      <trkpt lat="45.17842" lon="5.79292">
        <ele>312.8</ele>
        <time>2021-04-10T06:12:51Z</time>
      </trkpt>
      <trkpt lat="45.17841" lon="5.79292">
        <ele>313.2</ele>
        <time>2021-04-10T06:12:52Z</time>
      </trkpt>
      <trkpt lat="45.1784" lon="5.79292">
        <ele>313.4</ele>
        <time>2021-04-10T06:12:53Z</time>
      </trkpt>
      <trkpt lat="45.1784" lon="5.79291">
        <ele>313.6</ele>
        <time>2021-04-10T06:12:54Z</time>
      </trkpt>
      <trkpt lat="45.17839" lon="5.79291">
        <ele>313.6</ele>
        <time>2021-04-10T06:12:55Z</time>
      </trkpt>
      <trkpt lat="45.17838" lon="5.79291">
        <ele>313.8</ele>
        <time>2021-04-10T06:12:56Z</time>
      </trkpt>
      <trkpt lat="45.17838" lon="5.7929">
        <ele>314.2</ele>
        <time>2021-04-10T06:12:57Z</time>
      </trkpt>
      <trkpt lat="45.17837" lon="5.7929">
        <ele>314.6</ele>
        <time>2021-04-10T06:12:58Z</time>
      </trkpt>
      <trkpt lat="45.17836" lon="5.7929">
        <ele>314.8</ele>
        <time>2021-04-10T06:12:59Z</time>
      </trkpt>
      <trkpt lat="45.17836" lon="5.7929">
        <ele>314.8</ele>
        <time>2021-04-10T06:13:00Z</time>
      </trkpt>
      <trkpt lat="45.17835" lon="5.79289">
        <ele>315</ele>
        <time>2021-04-10T06:13:01Z</time>
      </trkpt>
      <trkpt lat="45.17834" lon="5.79289">
        <ele>315.2</ele>
        <time>2021-04-10T06:13:02Z</time>
      </trkpt>
      <trkpt lat="45.17834" lon="5.79289">
        <ele>315.4</ele>
        <time>2021-04-10T06:13:03Z</time>
      </trkpt>
      <trkpt lat="45.17833" lon="5.79288">
        <ele>315.6</ele>
        <time>2021-04-10T06:13:04Z</time>
      </trkpt>
      <trkpt lat="45.17832" lon="5.79288">
        <ele>315.8</ele>
        <time>2021-04-10T06:13:05Z</time>
      </trkpt>
      <trkpt lat="45.17832" lon="5.79288">
        <ele>316</ele>
        <time>2021-04-10T06:13:06Z</time>
      </trkpt>
      <trkpt lat="45.17831" lon="5.79288">
        <ele>316</ele>
        <time>2021-04-10T06:13:07Z</time>
      </trkpt>
      <trkpt lat="45.1783" lon="5.79287">
        <ele>316.4</ele>
        <time>2021-04-10T06:13:08Z</time>
      </trkpt>
      <trkpt lat="45.1783" lon="5.79287">
        <ele>316.4</ele>
        <time>2021-04-10T06:13:09Z</time>
      </trkpt>
      <trkpt lat="45.17829" lon="5.79287">
        <ele>316.8</ele>
        <time>2021-04-10T06:13:10Z</time>
      </trkpt>
      <trkpt lat="45.17828" lon="5.79286">
        <ele>317.2</ele>
        <time>2021-04-10T06:13:11Z</time>
      </trkpt>
      <trkpt lat="45.17828" lon="5.79286">
        <ele>317.4</ele>
        <time>2021-04-10T06:13:12Z</time>
      </trkpt>
      <trkpt lat="45.17827" lon="5.79286">
        <ele>317.8</ele>
        <time>2021-04-10T06:13:13Z</time>
      </trkpt>
      <trkpt lat="45.17826" lon="5.79286">
        <ele>318</ele>
        <time>2021-04-10T06:13:14Z</time>
      </trkpt>
      <trkpt lat="45.17826" lon="5.79285">
        <ele>318.4</ele>
        <time>2021-04-10T06:13:15Z</time>
      </trkpt>
      <trkpt lat="45.17825" lon="5.79285">
        <ele>318.6</ele>
        <time>2021-04-10T06:13:16Z</time>
      </trkpt>
      <trkpt lat="45.17824" lon="5.79285">
        <ele>319</ele>
        <time>2021-04-10T06:13:17Z</time>
      </trkpt>
      <trkpt lat="45.17824" lon="5.79284">
        <ele>319</ele>
        <time>2021-04-10T06:13:18Z</time>
      </trkpt>
      <trkpt lat="45.17823" lon="5.79284">
        <ele>319.4</ele>
        <time>2021-04-10T06:13:19Z</time>
      </trkpt>
      <trkpt lat="45.17822" lon="5.79284">
        <ele>319.4</ele>
        <time>2021-04-10T06:13:20Z</time>
      </trkpt>
      <trkpt lat="45.17821" lon="5.79284">
        <ele>319.6</ele>
        <time>2021-04-10T06:13:21Z</time>
      </trkpt>
      <trkpt lat="45.17821" lon="5.79283">
        <ele>319.4</ele>
        <time>2021-04-10T06:13:22Z</time>
      </trkpt>
      <trkpt lat="45.1782" lon="5.79283">
        <ele>319.6</ele>
        <time>2021-04-10T06:13:23Z</time>
      </trkpt>
      <trkpt lat="45.17819" lon="5.79283">
        <ele>319.8</ele>
        <time>2021-04-10T06:13:24Z</time>
      </trkpt>
      <trkpt lat="45.17819" lon="5.79282">
        <ele>320</ele>
        <time>2021-04-10T06:13:25Z</time>
      </trkpt>
      <trkpt lat="45.17818" lon="5.79282">
        <ele>320.2</ele>
        <time>2021-04-10T06:13:26Z</time>
      </trkpt>
      <trkpt lat="45.17817" lon="5.79282">
        <ele>320.4</ele>
        <time>2021-04-10T06:13:27Z</time>
      </trkpt>
      <trkpt lat="45.17817" lon="5.79282">
        <ele>320.6</ele>
        <time>2021-04-10T06:13:28Z</time>
      </trkpt>
      <trkpt lat="45.17816" lon="5.79281">
        <ele>320.8</ele>
        <time>2021-04-10T06:13:29Z</time>
      </trkpt>
      <trkpt lat="45.17815" lon="5.79281">
        <ele>321</ele>
        <time>2021-04-10T06:13:30Z</time>
      </trkpt>
      <trkpt lat="45.17815" lon="5.79281">
        <ele>321.2</ele>
        <time>2021-04-10T06:13:31Z</time>
      </trkpt>
      <trkpt lat="45.17814" lon="5.7928">
        <ele>321.4</ele>
        <time>2021-04-10T06:13:32Z</time>
      </trkpt>
      <trkpt lat="45.17813" lon="5.7928">
        <ele>321.8</ele>
        <time>2021-04-10T06:13:33Z</time>
      </trkpt>
      <trkpt lat="45.17813" lon="5.7928">
        <ele>322.2</ele>
        <time>2021-04-10T06:13:34Z</time>
      </trkpt>
      <trkpt lat="45.17812" lon="5.7928">
        <ele>322.4</ele>
        <time>2021-04-10T06:13:35Z</time>
      </trkpt>
      <trkpt lat="45.17811" lon="5.79279">
        <ele>322.6</ele>
        <time>2021-04-10T06:13:36Z</time>
      </trkpt>
      <trkpt lat="45.17811" lon="5.79279">
        <ele>322.8</ele>
        <time>2021-04-10T06:13:37Z</time>
      </trkpt>
      <trkpt lat="45.1781" lon="5.79279">
        <ele>323.2</ele>
        <time>2021-04-10T06:13:38Z</time>
      </trkpt>
      <trkpt lat="45.17809" lon="5.79278">
        <ele>323.4</ele>
        <time>2021-04-10T06:13:39Z</time>
      </trkpt>
      <trkpt lat="45.17809" lon="5.79278">
        <ele>323.8</ele>
        <time>2021-04-10T06:13:40Z</time>
      </trkpt>
      <trkpt lat="45.17808" lon="5.79278">
        <ele>324</ele>
        <time>2021-04-10T06:13:41Z</time>
      </trkpt>
      <trkpt lat="45.17807" lon="5.79278">
        <ele>324.2</ele>
        <time>2021-04-10T06:13:42Z</time>
      </trkpt>
      <trkpt lat="45.17807" lon="5.79277">
        <ele>324.4</ele>
        <time>2021-04-10T06:13:43Z</time>
      </trkpt>
      <trkpt lat="45.17806" lon="5.79277">
        <ele>324.6</ele>
        <time>2021-04-10T06:13:44Z</time>
      </trkpt>
      <trkpt lat="45.17805" lon="5.79277">
        <ele>324.8</ele>
        <time>2021-04-10T06:13:45Z</time>
      </trkpt>
      <trkpt lat="45.17805" lon="5.79276">
        <ele>325</ele>
        <time>2021-04-10T06:13:46Z</time>
      </trkpt>
      <trkpt lat="45.17804" lon="5.79276">
        <ele>325.2</ele>
        <time>2021-04-10T06:13:47Z</time>
      </trkpt>
      <trkpt lat="45.17803" lon="5.79276">
        <ele>325.2</ele>
        <time>2021-04-10T06:13:48Z</time>
      </trkpt>
      <trkpt lat="45.17803" lon="5.79276">
        <ele>325.4</ele>
        <time>2021-04-10T06:13:49Z</time>
      </trkpt>
      <trkpt lat="45.17802" lon="5.79275">
        <ele>325.8</ele>
        <time>2021-04-10T06:13:50Z</time>
      </trkpt>
      <trkpt lat="45.17801" lon="5.79275">
        <ele>325.8</ele>
        <time>2021-04-10T06:13:51Z</time>
      </trkpt>
      <trkpt lat="45.17801" lon="5.79275">
        <ele>325.8</ele>
        <time>2021-04-10T06:13:52Z</time>
      </trkpt>
      <trkpt lat="45.178" lon="5.79274">
        <ele>326.2</ele>
        <time>2021-04-10T06:13:53Z</time>
      </trkpt>
      <trkpt lat="45.17799" lon="5.79274">
        <ele>326.4</ele>
        <time>2021-04-10T06:13:54Z</time>
      </trkpt>
      <trkpt lat="45.17798" lon="5.79274">
        <ele>326.4</ele>
        <time>2021-04-10T06:13:55Z</time>
      </trkpt>
      <trkpt lat="45.17798" lon="5.79274">
        <ele>326.4</ele>
        <time>2021-04-10T06:13:56Z</time>
      </trkpt>
      <trkpt lat="45.17797" lon="5.79273">
        <ele>326.4</ele>
        <time>2021-04-10T06:13:57Z</time>
      </trkpt>
      <trkpt lat="45.17796" lon="5.79273">
        <ele>326.6</ele>
        <time>2021-04-10T06:13:58Z</time>
      </trkpt>
      <trkpt lat="45.17796" lon="5.79273">
        <ele>326.8</ele>
        <time>2021-04-10T06:13:59Z</time>
      </trkpt>
      <trkpt lat="45.17795" lon="5.79272">
        <ele>327.2</ele>
        <time>2021-04-10T06:14:00Z</time>
      </trkpt>
      <trkpt lat="45.17794" lon="5.79272">
        <ele>327.4</ele>
        <time>2021-04-10T06:14:01Z</time>
      </trkpt>
      <trkpt lat="45.17794" lon="5.79272">
        <ele>327.6</ele>
        <time>2021-04-10T06:14:02Z</time>
      </trkpt>
      <trkpt lat="45.17793" lon="5.79272">
        <ele>327.6</ele>
        <time>2021-04-10T06:14:03Z</time>
      </trkpt>
      <trkpt lat="45.17792" lon="5.79271">
        <ele>327.8</ele>
        <time>2021-04-10T06:14:04Z</time>
      </trkpt>
      <trkpt lat="45.17792" lon="5.79271">
        <ele>328</ele>
        <time>2021-04-10T06:14:05Z</time>
      </trkpt>
      <trkpt lat="45.17791" lon="5.79271">
        <ele>328.2</ele>
        <time>2021-04-10T06:14:06Z</time>
      </trkpt>
      <trkpt lat="45.1779" lon="5.7927">
        <ele>328.4</ele>
        <time>2021-04-10T06:14:07Z</time>
      </trkpt>
      <trkpt lat="45.1779" lon="5.7927">
        <ele>328.6</ele>
        <time>2021-04-10T06:14:08Z</time>
      </trkpt>
      <trkpt lat="45.17789" lon="5.7927">
        <ele>329</ele>
        <time>2021-04-10T06:14:09Z</time>
      </trkpt>
      <trkpt lat="45.17788" lon="5.7927">
        <ele>329.4</ele>
        <time>2021-04-10T06:14:10Z</time>
      </trkpt>
      <trkpt lat="45.17788" lon="5.79269">
        <ele>329.8</ele>
        <time>2021-04-10T06:14:11Z</time>
      </trkpt>
      <trkpt lat="45.17787" lon="5.79269">
        <ele>330</ele>
        <time>2021-04-10T06:14:12Z</time>
      </trkpt>
      <trkpt lat="45.17786" lon="5.79269">
        <ele>330.4</ele>
        <time>2021-04-10T06:14:13Z</time>
      </trkpt>
      <trkpt lat="45.17786" lon="5.79268">
        <ele>330.6</ele>
        <time>2021-04-10T06:14:14Z</time>
      </trkpt>
      <trkpt lat="45.17785" lon="5.79268">
        <ele>330.8</ele>
        <time>2021-04-10T06:14:15Z</time>
      </trkpt>
      <trkpt lat="45.17784" lon="5.79268">
        <ele>331.2</ele>
        <time>2021-04-10T06:14:16Z</time>
      </trkpt>
      <trkpt lat="45.17784" lon="5.79268">
        <ele>331.4</ele>
        <time>2021-04-10T06:14:17Z</time>
      </trkpt>
      <trkpt lat="45.17783" lon="5.79267">
        <ele>331.4</ele>
        <time>2021-04-10T06:14:18Z</time>
      </trkpt>
      <trkpt lat="45.17782" lon="5.79267">
        <ele>331.6</ele>
        <time>2021-04-10T06:14:19Z</time>
      </trkpt>
      <trkpt lat="45.17782" lon="5.79267">
        <ele>331.8</ele>
        <time>2021-04-10T06:14:20Z</time>
      </trkpt>
      <trkpt lat="45.17781" lon="5.79266">
        <ele>332.2</ele>
        <time>2021-04-10T06:14:21Z</time>
      </trkpt>
      <trkpt lat="45.1778" lon="5.79266">
        <ele>332.2</ele>
        <time>2021-04-10T06:14:22Z</time>
      </trkpt>
      <trkpt lat="45.1778" lon="5.79266">
        <ele>332.4</ele>
        <time>2021-04-10T06:14:23Z</time>
      </trkpt>
      <trkpt lat="45.17779" lon="5.79266">
        <ele>332.6</ele>
        <time>2021-04-10T06:14:24Z</time>
      </trkpt>
      <trkpt lat="45.17778" lon="5.79265">
        <ele>333</ele>
        <time>2021-04-10T06:14:25Z</time>
      </trkpt>
      <trkpt lat="45.17778" lon="5.79265">
        <ele>333</ele>
        <time>2021-04-10T06:14:26Z</time>
      </trkpt>
      <trkpt lat="45.17777" lon="5.79265">
        <ele>333.2</ele>
        <time>2021-04-10T06:14:27Z</time>
      </trkpt>
      <trkpt lat="45.17776" lon="5.79264">
        <ele>333.4</ele>
        <time>2021-04-10T06:14:28Z</time>
      </trkpt>
      <trkpt lat="45.17663" lon="5.79221">
        <ele>333.8</ele>
        <time>2021-04-10T06:14:29Z</time>
      </trkpt>
      <trkpt lat="45.17662" lon="5.79222">
        <ele>334</ele>
        <time>2021-04-10T06:14:30Z</time>
      </trkpt>
      <trkpt lat="45.17661" lon="5.79223">
        <ele>334</ele>
        <time>2021-04-10T06:14:31Z</time>
      </trkpt>
      <trkpt lat="45.1766" lon="5.79223">
        <ele>334.2</ele>
        <time>2021-04-10T06:14:32Z</time>
      </trkpt>
      <trkpt lat="45.17659" lon="5.79224">
        <ele>334.4</ele>
        <time>2021-04-10T06:14:33Z</time>
      </trkpt>
      <trkpt lat="45.17658" lon="5.79225">
        <ele>334.6</ele>
        <time>2021-04-10T06:14:34Z</time>
      </trkpt>
      <trkpt lat="45.17657" lon="5.79226">
        <ele>334.8</ele>
        <time>2021-04-10T06:14:35Z</time>
      </trkpt>
      <trkpt lat="45.17656" lon="5.79227">
        <ele>335</ele>
        <time>2021-04-10T06:14:36Z</time>
      </trkpt>
      <trkpt lat="45.17655" lon="5.79228">
        <ele>335.2</ele>
        <time>2021-04-10T06:14:37Z</time>
      </trkpt>
      <trkpt lat="45.17654" lon="5.79229">
        <ele>335.4</ele>
        <time>2021-04-10T06:14:38Z</time>
      </trkpt>
      <trkpt lat="45.17653" lon="5.7923">
        <ele>335.6</ele>
        <time>2021-04-10T06:14:39Z</time>
      </trkpt>
      <trkpt lat="45.17652" lon="5.7923">
        <ele>335.6</ele>
        <time>2021-04-10T06:14:40Z</time>
      </trkpt>
      <trkpt lat="45.17651" lon="5.79231">
        <ele>335.6</ele>
        <time>2021-04-10T06:14:41Z</time>
      </trkpt>
      <trkpt lat="45.1765" lon="5.79232">
        <ele>335.8</ele>
        <time>2021-04-10T06:14:42Z</time>
      </trkpt>
      <trkpt lat="45.17649" lon="5.79233">
        <ele>336</ele>
        <time>2021-04-10T06:14:43Z</time>
      </trkpt>
      <trkpt lat="45.17648" lon="5.79234">
        <ele>336</ele>
        <time>2021-04-10T06:14:44Z</time>
      </trkpt>
      <trkpt lat="45.17647" lon="5.79235">
        <ele>336</ele>
        <time>2021-04-10T06:14:45Z</time>
      </trkpt>
      <trkpt lat="45.17646" lon="5.79236">
        <ele>336.4</ele>
        <time>2021-04-10T06:14:46Z</time>
      </trkpt>
      <trkpt lat="45.17645" lon="5.79237">
        <ele>336.6</ele>
        <time>2021-04-10T06:14:47Z</time>
      </trkpt>
      <trkpt lat="45.17644" lon="5.79237">
        <ele>336.8</ele>
        <time>2021-04-10T06:14:48Z</time>
      </trkpt>
      <trkpt lat="45.17643" lon="5.79238">
        <ele>336.8</ele>
        <time>2021-04-10T06:14:49Z</time>
      </trkpt>
      <trkpt lat="45.17642" lon="5.79239">
        <ele>337.2</ele>
        <time>2021-04-10T06:14:50Z</time>
      </trkpt>
      <trkpt lat="45.17641" lon="5.7924">
        <ele>337.2</ele>
        <time>2021-04-10T06:14:51Z</time>
      </trkpt>
      <trkpt lat="45.1764" lon="5.79241">
        <ele>337.4</ele>
        <time>2021-04-10T06:14:52Z</time>
      </trkpt>
      <trkpt lat="45.17639" lon="5.79242">
        <ele>337.6</ele>
        <time>2021-04-10T06:14:53Z</time>
      </trkpt>
      <trkpt lat="45.17638" lon="5.79243">
        <ele>337.6</ele>
        <time>2021-04-10T06:14:54Z</time>
      </trkpt>
      <trkpt lat="45.17637" lon="5.79244">
        <ele>337.8</ele>
        <time>2021-04-10T06:14:55Z</time>
      </trkpt>
      <trkpt lat="45.17636" lon="5.79245">
        <ele>337.8</ele>
        <time>2021-04-10T06:14:56Z</time>
      </trkpt>
      <trkpt lat="45.17635" lon="5.79245">
        <ele>338</ele>
        <time>2021-04-10T06:14:57Z</time>
      </trkpt>
      <trkpt lat="45.17634" lon="5.79246">
        <ele>338.2</ele>
        <time>2021-04-10T06:14:58Z</time>
      </trkpt>
      <trkpt lat="45.17633" lon="5.79247">
        <ele>338.4</ele>
        <time>2021-04-10T06:14:59Z</time>
      </trkpt>
      <trkpt lat="45.17632" lon="5.79248">
        <ele>338.4</ele>
        <time>2021-04-10T06:15:00Z</time>
      </trkpt>
      <trkpt lat="45.17632" lon="5.79248">
        <ele>338.6</ele>
        <time>2021-04-10T06:15:01Z</time>
      </trkpt>
      <trkpt lat="45.17632" lon="5.79248">
        <ele>338.6</ele>
        <time>2021-04-10T06:15:02Z</time>
      </trkpt>
      <trkpt lat="45.17632" lon="5.79248">
        <ele>338.8</ele>
        <time>2021-04-10T06:15:03Z</time>
      </trkpt>
      <trkpt lat="45.17632" lon="5.79248">
        <ele>339.2</ele>
        <time>2021-04-10T06:15:04Z</time>
      </trkpt>
      <trkpt lat="45.17631" lon="5.79249">
        <ele>339.4</ele>
        <time>2021-04-10T06:15:05Z</time>
      </trkpt>
      <trkpt lat="45.17631" lon="5.79249">
        <ele>339.4</ele>
        <time>2021-04-10T06:15:06Z</time>
      </trkpt>
      <trkpt lat="45.1763" lon="5.7925">
        <ele>339.6</ele>
        <time>2021-04-10T06:15:07Z</time>
      </trkpt>
      <trkpt lat="45.17629" lon="5.79251">
        <ele>339.6</ele>
        <time>2021-04-10T06:15:08Z</time>
      </trkpt>
      <trkpt lat="45.17629" lon="5.79252">
        <ele>339.8</ele>
        <time>2021-04-10T06:15:09Z</time>
      </trkpt>
      <trkpt lat="45.17628" lon="5.79252">
        <ele>339.8</ele>
        <time>2021-04-10T06:15:10Z</time>
      </trkpt>
      <trkpt lat="45.17627" lon="5.79253">
        <ele>340</ele>
        <time>2021-04-10T06:15:11Z</time>
      </trkpt>
      <trkpt lat="45.17627" lon="5.79254">
        <ele>340.4</ele>
        <time>2021-04-10T06:15:12Z</time>
      </trkpt>
      <trkpt lat="45.17626" lon="5.79254">
        <ele>340.6</ele>
        <time>2021-04-10T06:15:13Z</time>
      </trkpt>
      <trkpt lat="45.17625" lon="5.79255">
        <ele>341</ele>
        <time>2021-04-10T06:15:14Z</time>
      </trkpt>
      <trkpt lat="45.17625" lon="5.79256">
        <ele>341.2</ele>
        <time>2021-04-10T06:15:15Z</time>
      </trkpt>
      <trkpt lat="45.17624" lon="5.79257">
        <ele>341.4</ele>
        <time>2021-04-10T06:15:16Z</time>
      </trkpt>
      <trkpt lat="45.17623" lon="5.79257">
        <ele>341.6</ele>
        <time>2021-04-10T06:15:17Z</time>
      </trkpt>
      <trkpt lat="45.17623" lon="5.79258">
        <ele>342</ele>
        <time>2021-04-10T06:15:18Z</time>
      </trkpt>
      <trkpt lat="45.17622" lon="5.79259">
        <ele>342.2</ele>
        <time>2021-04-10T06:15:19Z</time>
      </trkpt>
      <trkpt lat="45.17621" lon="5.79259">
        <ele>342.6</ele>
        <time>2021-04-10T06:15:20Z</time>
      </trkpt>
      <trkpt lat="45.17621" lon="5.7926">
        <ele>342.6</ele>
        <time>2021-04-10T06:15:21Z</time>
      </trkpt>
      <trkpt lat="45.1762" lon="5.79261">
        <ele>342.8</ele>
        <time>2021-04-10T06:15:22Z</time>
      </trkpt>
      <trkpt lat="45.17619" lon="5.79262">
        <ele>343</ele>
        <time>2021-04-10T06:15:23Z</time>
      </trkpt>
      <trkpt lat="45.17619" lon="5.79262">
        <ele>343.2</ele>
        <time>2021-04-10T06:15:24Z</time>
      </trkpt>
      <trkpt lat="45.17618" lon="5.79263">
        <ele>343.4</ele>
        <time>2021-04-10T06:15:25Z</time>
      </trkpt>
      <trkpt lat="45.17617" lon="5.79264">
        <ele>343.6</ele>
        <time>2021-04-10T06:15:26Z</time>
      </trkpt>
      <trkpt lat="45.17617" lon="5.79264">
        <ele>343.8</ele>
        <time>2021-04-10T06:15:27Z</time>
      </trkpt>
      <trkpt lat="45.17616" lon="5.79265">
        <ele>344</ele>
        <time>2021-04-10T06:15:28Z</time>
      </trkpt>
      <trkpt lat="45.17615" lon="5.79266">
        <ele>344</ele>
        <time>2021-04-10T06:15:29Z</time>
      </trkpt>
      <trkpt lat="45.17615" lon="5.79267">
        <ele>344.2</ele>
        <time>2021-04-10T06:15:30Z</time>
      </trkpt>
      <trkpt lat="45.17614" lon="5.79267">
        <ele>344.2</ele>
        <time>2021-04-10T06:15:31Z</time>
      </trkpt>
      <trkpt lat="45.17613" lon="5.79268">
        <ele>344.4</ele>
        <time>2021-04-10T06:15:32Z</time>
      </trkpt>
      <trkpt lat="45.17613" lon="5.79269">
        <ele>344.6</ele>
        <time>2021-04-10T06:15:33Z</time>
      </trkpt>
      <trkpt lat="45.17612" lon="5.79269">
        <ele>344.8</ele>
        <time>2021-04-10T06:15:34Z</time>
      </trkpt>
      <trkpt lat="45.17611" lon="5.7927">
        <ele>345.2</ele>
        <time>2021-04-10T06:15:35Z</time>
      </trkpt>
      <trkpt lat="45.17611" lon="5.79271">
        <ele>345.6</ele>
        <time>2021-04-10T06:15:36Z</time>
      </trkpt>
      <trkpt lat="45.1761" lon="5.79272">
        <ele>345.8</ele>
        <time>2021-04-10T06:15:37Z</time>
      </trkpt>
      <trkpt lat="45.17609" lon="5.79272">
        <ele>346</ele>
        <time>2021-04-10T06:15:38Z</time>
      </trkpt>
      <trkpt lat="45.17609" lon="5.79273">
        <ele>346.4</ele>
        <time>2021-04-10T06:15:39Z</time>
      </trkpt>
      <trkpt lat="45.17608" lon="5.79273">
        <ele>346.6</ele>
        <time>2021-04-10T06:15:40Z</time>
      </trkpt>
      <trkpt lat="45.17607" lon="5.79274">
        <ele>346.6</ele>
        <time>2021-04-10T06:15:41Z</time>
      </trkpt>
      <trkpt lat="45.17606" lon="5.79274">
        <ele>346.8</ele>
        <time>2021-04-10T06:15:42Z</time>
      </trkpt>
      <trkpt lat="45.17606" lon="5.79275">
        <ele>347</ele>
        <time>2021-04-10T06:15:43Z</time>
      </trkpt>
      <trkpt lat="45.17605" lon="5.79275">
        <ele>347.2</ele>
        <time>2021-04-10T06:15:44Z</time>
      </trkpt>
      <trkpt lat="45.17604" lon="5.79276">
        <ele>347.4</ele>
        <time>2021-04-10T06:15:45Z</time>
      </trkpt>
      <trkpt lat="45.17604" lon="5.79276">
        <ele>347.4</ele>
        <time>2021-04-10T06:15:46Z</time>
      </trkpt>
      <trkpt lat="45.17603" lon="5.79277">
        <ele>347.6</ele>
        <time>2021-04-10T06:15:47Z</time>
      </trkpt>
      <trkpt lat="45.17602" lon="5.79277">
        <ele>347.8</ele>
        <time>2021-04-10T06:15:48Z</time>
      </trkpt>
      <trkpt lat="45.17602" lon="5.79278">
        <ele>348.2</ele>
        <time>2021-04-10T06:15:49Z</time>
      </trkpt>
      <trkpt lat="45.17601" lon="5.79278">
        <ele>348.4</ele>
        <time>2021-04-10T06:15:50Z</time>
      </trkpt>
      <trkpt lat="45.17601" lon="5.79279">
        <ele>348.8</ele>
        <time>2021-04-10T06:15:51Z</time>
      </trkpt>
      <trkpt lat="45.176" lon="5.7928">
        <ele>348.8</ele>
        <time>2021-04-10T06:15:52Z</time>
      </trkpt>
      <trkpt lat="45.176" lon="5.79281">
        <ele>348.8</ele>
        <time>2021-04-10T06:15:53Z</time>
      </trkpt>
      <trkpt lat="45.176" lon="5.79281">
        <ele>349</ele>
        <time>2021-04-10T06:15:54Z</time>
      </trkpt>
      <trkpt lat="45.176" lon="5.79282">
        <ele>349.4</ele>
        <time>2021-04-10T06:15:55Z</time>
      </trkpt>
      <trkpt lat="45.17599" lon="5.79283">
        <ele>350.2</ele>
        <time>2021-04-10T06:15:56Z</time>
      </trkpt>
      <trkpt lat="45.17599" lon="5.79283">
        <ele>350.4</ele>
        <time>2021-04-10T06:15:57Z</time>
      </trkpt>
      <trkpt lat="45.17599" lon="5.79284">
        <ele>350.6</ele>
        <time>2021-04-10T06:15:58Z</time>
      </trkpt>
      <trkpt lat="45.17599" lon="5.79285">
        <ele>350.6</ele>
        <time>2021-04-10T06:15:59Z</time>
      </trkpt>
      <trkpt lat="45.17598" lon="5.79286">
        <ele>350.6</ele>
        <time>2021-04-10T06:16:00Z</time>
      </trkpt>
      <trkpt lat="45.17598" lon="5.79286">
        <ele>350.8</ele>
        <time>2021-04-10T06:16:01Z</time>
      </trkpt>
      <trkpt lat="45.17598" lon="5.79287">
        <ele>351</ele>
        <time>2021-04-10T06:16:02Z</time>
      </trkpt>
      <trkpt lat="45.17598" lon="5.79288">
        <ele>351.2</ele>
        <time>2021-04-10T06:16:03Z</time>
      </trkpt>
      <trkpt lat="45.17597" lon="5.79289">
        <ele>351.4</ele>
        <time>2021-04-10T06:16:04Z</time>
      </trkpt>
      <trkpt lat="45.17597" lon="5.79289">
        <ele>351.8</ele>
        <time>2021-04-10T06:16:05Z</time>
      </trkpt>
      <trkpt lat="45.17597" lon="5.7929">
        <ele>352</ele>
        <time>2021-04-10T06:16:06Z</time>
      </trkpt>
      <trkpt lat="45.17597" lon="5.79291">
        <ele>352.6</ele>
        <time>2021-04-10T06:16:07Z</time>
      </trkpt>
      <trkpt lat="45.17596" lon="5.79292">
        <ele>352.8</ele>
        <time>2021-04-10T06:16:08Z</time>
      </trkpt>
      <trkpt lat="45.17596" lon="5.79293">
        <ele>352.8</ele>
        <time>2021-04-10T06:16:09Z</time>
      </trkpt>
      <trkpt lat="45.17596" lon="5.79294">
        <ele>353.2</ele>
        <time>2021-04-10T06:16:10Z</time>
      </trkpt>
      <trkpt lat="45.17595" lon="5.79295">
        <ele>353.4</ele>
        <time>2021-04-10T06:16:11Z</time>
      </trkpt>
      <trkpt lat="45.17595" lon="5.79296">
        <ele>353.6</ele>
        <time>2021-04-10T06:16:12Z</time>
      </trkpt>
      <trkpt lat="45.17595" lon="5.79297">
        <ele>354</ele>
        <time>2021-04-10T06:16:13Z</time>
      </trkpt>
      <trkpt lat="45.17594" lon="5.79298">
        <ele>354.2</ele>
        <time>2021-04-10T06:16:14Z</time>
      </trkpt>
      <trkpt lat="45.17594" lon="5.79299">
        <ele>354.6</ele>
        <time>2021-04-10T06:16:15Z</time>
      </trkpt>
      <trkpt lat="45.17594" lon="5.793">
        <ele>354.8</ele>
        <time>2021-04-10T06:16:16Z</time>
      </trkpt>
      <trkpt lat="45.17594" lon="5.793">
        <ele>355</ele>
        <time>2021-04-10T06:16:17Z</time>
      </trkpt>
      <trkpt lat="45.17593" lon="5.79301">
        <ele>355.2</ele>
        <time>2021-04-10T06:16:18Z</time>
      </trkpt>
      <trkpt lat="45.17593" lon="5.79302">
        <ele>355.4</ele>
        <time>2021-04-10T06:16:19Z</time>
      </trkpt>
      <trkpt lat="45.17592" lon="5.79303">
        <ele>355.6</ele>
        <time>2021-04-10T06:16:20Z</time>
      </trkpt>
      <trkpt lat="45.17592" lon="5.79304">
        <ele>356</ele>
        <time>2021-04-10T06:16:21Z</time>
      </trkpt>
      <trkpt lat="45.17591" lon="5.79304">
        <ele>356.2</ele>
        <time>2021-04-10T06:16:22Z</time>
      </trkpt>
      <trkpt lat="45.1759" lon="5.79305">
        <ele>356.6</ele>
        <time>2021-04-10T06:16:23Z</time>
      </trkpt>
      <trkpt lat="45.17589" lon="5.79305">
        <ele>356.8</ele>
        <time>2021-04-10T06:16:24Z</time>
      </trkpt>
      <trkpt lat="45.17589" lon="5.79306">
        <ele>357</ele>
        <time>2021-04-10T06:16:25Z</time>
      </trkpt>
      <trkpt lat="45.17588" lon="5.79307">
        <ele>357.2</ele>
        <time>2021-04-10T06:16:26Z</time>
      </trkpt>
      <trkpt lat="45.17587" lon="5.79307">
        <ele>357.4</ele>
        <time>2021-04-10T06:16:27Z</time>
      </trkpt>
      <trkpt lat="45.17587" lon="5.79308">
        <ele>357.6</ele>
        <time>2021-04-10T06:16:28Z</time>
      </trkpt>
      <trkpt lat="45.17586" lon="5.79309">
        <ele>358</ele>
        <time>2021-04-10T06:16:29Z</time>
      </trkpt>
      <trkpt lat="45.17585" lon="5.79309">
        <ele>358.2</ele>
        <time>2021-04-10T06:16:30Z</time>
      </trkpt>
      <trkpt lat="45.17584" lon="5.79311">
        <ele>358.6</ele>
        <time>2021-04-10T06:16:31Z</time>
      </trkpt>
      <trkpt lat="45.17583" lon="5.79312">
        <ele>359</ele>
        <time>2021-04-10T06:16:32Z</time>
      </trkpt>
      <trkpt lat="45.17582" lon="5.79313">
        <ele>359.2</ele>
        <time>2021-04-10T06:16:33Z</time>
      </trkpt>
      <trkpt lat="45.1758" lon="5.79315">
        <ele>359.6</ele>
        <time>2021-04-10T06:16:34Z</time>
      </trkpt>
      <trkpt lat="45.17579" lon="5.79316">
        <ele>360</ele>
        <time>2021-04-10T06:16:35Z</time>
      </trkpt>
      <trkpt lat="45.17578" lon="5.79318">
        <ele>360.2</ele>
        <time>2021-04-10T06:16:36Z</time>
      </trkpt>
      <trkpt lat="45.17577" lon="5.79318">
        <ele>360.4</ele>
        <time>2021-04-10T06:16:37Z</time>
      </trkpt>
      <trkpt lat="45.17576" lon="5.79319">
        <ele>360.8</ele>
        <time>2021-04-10T06:16:38Z</time>
      </trkpt>
      <trkpt lat="45.17574" lon="5.7932">
        <ele>361</ele>
        <time>2021-04-10T06:16:39Z</time>
      </trkpt>
      <trkpt lat="45.17573" lon="5.79321">
        <ele>361.4</ele>
        <time>2021-04-10T06:16:40Z</time>
      </trkpt>
      <trkpt lat="45.17572" lon="5.79322">
        <ele>361.6</ele>
        <time>2021-04-10T06:16:41Z</time>
      </trkpt>
      <trkpt lat="45.17571" lon="5.79323">
        <ele>361.8</ele>
        <time>2021-04-10T06:16:42Z</time>
      </trkpt>
      <trkpt lat="45.17569" lon="5.79324">
        <ele>362</ele>
        <time>2021-04-10T06:16:43Z</time>
      </trkpt>
      <trkpt lat="45.17569" lon="5.79325">
        <ele>362</ele>
        <time>2021-04-10T06:16:44Z</time>
      </trkpt>
      <trkpt lat="45.17568" lon="5.79326">
        <ele>362.2</ele>
        <time>2021-04-10T06:16:45Z</time>
      </trkpt>
      <trkpt lat="45.17568" lon="5.79328">
        <ele>362.4</ele>
        <time>2021-04-10T06:16:46Z</time>
      </trkpt>
      <trkpt lat="45.17567" lon="5.79329">
        <ele>362.6</ele>
        <time>2021-04-10T06:16:47Z</time>
      </trkpt>
      <trkpt lat="45.17567" lon="5.7933">
        <ele>362.6</ele>
        <time>2021-04-10T06:16:48Z</time>
      </trkpt>
      <trkpt lat="45.17567" lon="5.79332">
        <ele>363</ele>
        <time>2021-04-10T06:16:49Z</time>
      </trkpt>
      <trkpt lat="45.17566" lon="5.79333">
        <ele>363.2</ele>
        <time>2021-04-10T06:16:50Z</time>
      </trkpt>
      <trkpt lat="45.17566" lon="5.79334">
        <ele>363.4</ele>
        <time>2021-04-10T06:16:51Z</time>
      </trkpt>
      <trkpt lat="45.17565" lon="5.79336">
        <ele>363.6</ele>
        <time>2021-04-10T06:16:52Z</time>
      </trkpt>
      <trkpt lat="45.17565" lon="5.79337">
        <ele>363.8</ele>
        <time>2021-04-10T06:16:53Z</time>
      </trkpt>
      <trkpt lat="45.17564" lon="5.79339">
        <ele>364</ele>
        <time>2021-04-10T06:16:54Z</time>
      </trkpt>
      <trkpt lat="45.17564" lon="5.79341">
        <ele>364.4</ele>
        <time>2021-04-10T06:16:55Z</time>
      </trkpt>
      <trkpt lat="45.17563" lon="5.79343">
        <ele>364.8</ele>
        <time>2021-04-10T06:16:56Z</time>
      </trkpt>
      <trkpt lat="45.17563" lon="5.79345">
        <ele>365</ele>
        <time>2021-04-10T06:16:57Z</time>
      </trkpt>
      <trkpt lat="45.17562" lon="5.79347">
        <ele>365</ele>
        <time>2021-04-10T06:16:58Z</time>
      </trkpt>
      <trkpt lat="45.17562" lon="5.79348">
        <ele>365</ele>
        <time>2021-04-10T06:16:59Z</time>
      </trkpt>
      <trkpt lat="45.17561" lon="5.7935">
        <ele>365.2</ele>
        <time>2021-04-10T06:17:00Z</time>
      </trkpt>
      <trkpt lat="45.17561" lon="5.79351">
        <ele>365.4</ele>
        <time>2021-04-10T06:17:01Z</time>
      </trkpt>
      <trkpt lat="45.1756" lon="5.79352">
        <ele>365.8</ele>
        <time>2021-04-10T06:17:02Z</time>
      </trkpt>
      <trkpt lat="45.1756" lon="5.79353">
        <ele>366</ele>
        <time>2021-04-10T06:17:03Z</time>
      </trkpt>
      <trkpt lat="45.17559" lon="5.79354">
        <ele>366.2</ele>
        <time>2021-04-10T06:17:04Z</time>
      </trkpt>
      <trkpt lat="45.17559" lon="5.79355">
        <ele>366.4</ele>
        <time>2021-04-10T06:17:05Z</time>
      </trkpt>
      <trkpt lat="45.17558" lon="5.79356">
        <ele>366.8</ele>
        <time>2021-04-10T06:17:06Z</time>
      </trkpt>
      <trkpt lat="45.17558" lon="5.79357">
        <ele>367.2</ele>
        <time>2021-04-10T06:17:07Z</time>
      </trkpt>
      <trkpt lat="45.17557" lon="5.79358">
        <ele>367.6</ele>
        <time>2021-04-10T06:17:08Z</time>
      </trkpt>
      <trkpt lat="45.17556" lon="5.79358">
        <ele>367.8</ele>
        <time>2021-04-10T06:17:09Z</time>
      </trkpt>
      <trkpt lat="45.17556" lon="5.79359">
        <ele>368</ele>
        <time>2021-04-10T06:17:10Z</time>
      </trkpt>
      <trkpt lat="45.17555" lon="5.7936">
        <ele>368.2</ele>
        <time>2021-04-10T06:17:11Z</time>
      </trkpt>
      <trkpt lat="45.17555" lon="5.79361">
        <ele>368.4</ele>
        <time>2021-04-10T06:17:12Z</time>
      </trkpt>
      <trkpt lat="45.17554" lon="5.79362">
        <ele>368.4</ele>
        <time>2021-04-10T06:17:13Z</time>
      </trkpt>
      <trkpt lat="45.17555" lon="5.79363">
        <ele>368.8</ele>
        <time>2021-04-10T06:17:14Z</time>
      </trkpt>
      <trkpt lat="45.17555" lon="5.79364">
        <ele>369</ele>
        <time>2021-04-10T06:17:15Z</time>
      </trkpt>
      <trkpt lat="45.17556" lon="5.79365">
        <ele>369.4</ele>
        <time>2021-04-10T06:17:16Z</time>
      </trkpt>
      <trkpt lat="45.17556" lon="5.79366">
        <ele>369.6</ele>
        <time>2021-04-10T06:17:17Z</time>
      </trkpt>
      <trkpt lat="45.17557" lon="5.79367">
        <ele>370</ele>
        <time>2021-04-10T06:17:18Z</time>
      </trkpt>
      <trkpt lat="45.17558" lon="5.79368">
        <ele>370.2</ele>
        <time>2021-04-10T06:17:19Z</time>
      </trkpt>
      <trkpt lat="45.17558" lon="5.79369">
        <ele>370.6</ele>
        <time>2021-04-10T06:17:20Z</time>
      </trkpt>
      <trkpt lat="45.17559" lon="5.7937">
        <ele>371</ele>
        <time>2021-04-10T06:17:21Z</time>
      </trkpt>
      <trkpt lat="45.17559" lon="5.79371">
        <ele>371.2</ele>
        <time>2021-04-10T06:17:22Z</time>
      </trkpt>
      <trkpt lat="45.1756" lon="5.79372">
        <ele>371.4</ele>
        <time>2021-04-10T06:17:23Z</time>
      </trkpt>
      <trkpt lat="45.1756" lon="5.79373">
        <ele>371.6</ele>
        <time>2021-04-10T06:17:24Z</time>
      </trkpt>
      <trkpt lat="45.1756" lon="5.79374">
        <ele>371.8</ele>
        <time>2021-04-10T06:17:25Z</time>
      </trkpt>
      <trkpt lat="45.17559" lon="5.79375">
        <ele>372.2</ele>
        <time>2021-04-10T06:17:26Z</time>
      </trkpt>
      <trkpt lat="45.17559" lon="5.79376">
        <ele>372.4</ele>
        <time>2021-04-10T06:17:27Z</time>
      </trkpt>
      <trkpt lat="45.17559" lon="5.79377">
        <ele>372.6</ele>
        <time>2021-04-10T06:17:28Z</time>
      </trkpt>
      <trkpt lat="45.17558" lon="5.79378">
        <ele>373</ele>
        <time>2021-04-10T06:17:29Z</time>
      </trkpt>
      <trkpt lat="45.17558" lon="5.79379">
        <ele>373</ele>
        <time>2021-04-10T06:17:30Z</time>
      </trkpt>
      <trkpt lat="45.17558" lon="5.7938">
        <ele>373.4</ele>
        <time>2021-04-10T06:17:31Z</time>
      </trkpt>
      <trkpt lat="45.17557" lon="5.79381">
        <ele>373.6</ele>
        <time>2021-04-10T06:17:32Z</time>
      </trkpt>
      <trkpt lat="45.17557" lon="5.79382">
        <ele>373.8</ele>
        <time>2021-04-10T06:17:33Z</time>
      </trkpt>
      <trkpt lat="45.17557" lon="5.79383">
        <ele>374</ele>
        <time>2021-04-10T06:17:34Z</time>
      </trkpt>
      <trkpt lat="45.17556" lon="5.79384">
        <ele>374.4</ele>
        <time>2021-04-10T06:17:35Z</time>
      </trkpt>
      <trkpt lat="45.17556" lon="5.79385">
        <ele>374.6</ele>
        <time>2021-04-10T06:17:36Z</time>
      </trkpt>
      <trkpt lat="45.17556" lon="5.79386">
        <ele>374.8</ele>
        <time>2021-04-10T06:17:37Z</time>
      </trkpt>
      <trkpt lat="45.17556" lon="5.79388">
        <ele>375</ele>
        <time>2021-04-10T06:17:38Z</time>
      </trkpt>
      <trkpt lat="45.17556" lon="5.7939">
        <ele>375.2</ele>
        <time>2021-04-10T06:17:39Z</time>
      </trkpt>
      <trkpt lat="45.17556" lon="5.79392">
        <ele>375.6</ele>
        <time>2021-04-10T06:17:40Z</time>
      </trkpt>
      <trkpt lat="45.17556" lon="5.79394">
        <ele>376</ele>
        <time>2021-04-10T06:17:41Z</time>
      </trkpt>
      <trkpt lat="45.17555" lon="5.79395">
        <ele>376.2</ele>
        <time>2021-04-10T06:17:42Z</time>
      </trkpt>
      <trkpt lat="45.17555" lon="5.79397">
        <ele>376.4</ele>
        <time>2021-04-10T06:17:43Z</time>
      </trkpt>
      <trkpt lat="45.17555" lon="5.79399">
        <ele>376.6</ele>
        <time>2021-04-10T06:17:44Z</time>
      </trkpt>
      <trkpt lat="45.17555" lon="5.79401">
        <ele>376.6</ele>
        <time>2021-04-10T06:17:45Z</time>
      </trkpt>
      <trkpt lat="45.17555" lon="5.79403">
        <ele>377.2</ele>
        <time>2021-04-10T06:17:46Z</time>
      </trkpt>
      <trkpt lat="45.17555" lon="5.79405">
        <ele>377.4</ele>
        <time>2021-04-10T06:17:47Z</time>
      </trkpt>
      <trkpt lat="45.17555" lon="5.79406">
        <ele>377.8</ele>
        <time>2021-04-10T06:17:48Z</time>
      </trkpt>
      <trkpt lat="45.17555" lon="5.79408">
        <ele>378</ele>
        <time>2021-04-10T06:17:49Z</time>
      </trkpt>
      <trkpt lat="45.17555" lon="5.7941">
        <ele>378.2</ele>
        <time>2021-04-10T06:17:50Z</time>
      </trkpt>
      <trkpt lat="45.17558" lon="5.79414">
        <ele>378.6</ele>
        <time>2021-04-10T06:17:51Z</time>
      </trkpt>
      <trkpt lat="45.17558" lon="5.79414">
        <ele>378.8</ele>
        <time>2021-04-10T06:17:52Z</time>
      </trkpt>
      <trkpt lat="45.17558" lon="5.79414">
        <ele>379</ele>
        <time>2021-04-10T06:17:53Z</time>
      </trkpt>
      <trkpt lat="45.17558" lon="5.79414">
        <ele>379.2</ele>
        <time>2021-04-10T06:17:54Z</time>
      </trkpt>
      <trkpt lat="45.17558" lon="5.79414">
        <ele>379.4</ele>
        <time>2021-04-10T06:17:55Z</time>
      </trkpt>
      <trkpt lat="45.17558" lon="5.79416">
        <ele>379.6</ele>
        <time>2021-04-10T06:17:56Z</time>
      </trkpt>
      <trkpt lat="45.17559" lon="5.79417">
        <ele>379.8</ele>
        <time>2021-04-10T06:17:57Z</time>
      </trkpt>
      <trkpt lat="45.17559" lon="5.79419">
        <ele>380</ele>
        <time>2021-04-10T06:17:58Z</time>
      </trkpt>
      <trkpt lat="45.1756" lon="5.7942">
        <ele>380.2</ele>
        <time>2021-04-10T06:17:59Z</time>
      </trkpt>
      <trkpt lat="45.1756" lon="5.79422">
        <ele>380.4</ele>
        <time>2021-04-10T06:18:00Z</time>
      </trkpt>
      <trkpt lat="45.17561" lon="5.79423">
        <ele>380.6</ele>
        <time>2021-04-10T06:18:01Z</time>
      </trkpt>
      <trkpt lat="45.17561" lon="5.79425">
        <ele>380.8</ele>
        <time>2021-04-10T06:18:02Z</time>
      </trkpt>
      <trkpt lat="45.17562" lon="5.79426">
        <ele>381.2</ele>
        <time>2021-04-10T06:18:03Z</time>
      </trkpt>
      <trkpt lat="45.17562" lon="5.79428">
        <ele>381.4</ele>
        <time>2021-04-10T06:18:04Z</time>
      </trkpt>
      <trkpt lat="45.17562" lon="5.79429">
        <ele>381.4</ele>
        <time>2021-04-10T06:18:05Z</time>
      </trkpt>
      <trkpt lat="45.17562" lon="5.7943">
        <ele>381.6</ele>
        <time>2021-04-10T06:18:06Z</time>
      </trkpt>
      <trkpt lat="45.17562" lon="5.79431">
        <ele>381.8</ele>
        <time>2021-04-10T06:18:07Z</time>
      </trkpt>
      <trkpt lat="45.17563" lon="5.79432">
        <ele>382.2</ele>
        <time>2021-04-10T06:18:08Z</time>
      </trkpt>
      <trkpt lat="45.17563" lon="5.79434">
        <ele>382.4</ele>
        <time>2021-04-10T06:18:09Z</time>
      </trkpt>
      <trkpt lat="45.17563" lon="5.79435">
        <ele>382.6</ele>
        <time>2021-04-10T06:18:10Z</time>
      </trkpt>
      <trkpt lat="45.17563" lon="5.79436">
        <ele>382.6</ele>
        <time>2021-04-10T06:18:11Z</time>
      </trkpt>
      <trkpt lat="45.17563" lon="5.79437">
        <ele>382.8</ele>
        <time>2021-04-10T06:18:12Z</time>
      </trkpt>
      <trkpt lat="45.17563" lon="5.79438">
        <ele>383</ele>
        <time>2021-04-10T06:18:13Z</time>
      </trkpt>
      <trkpt lat="45.17563" lon="5.79439">
        <ele>383.2</ele>
        <time>2021-04-10T06:18:14Z</time>
      </trkpt>
      <trkpt lat="45.17563" lon="5.79441">
        <ele>383.2</ele>
        <time>2021-04-10T06:18:15Z</time>
      </trkpt>
      <trkpt lat="45.17562" lon="5.79442">
        <ele>383.4</ele>
        <time>2021-04-10T06:18:16Z</time>
      </trkpt>
      <trkpt lat="45.17561" lon="5.79444">
        <ele>383.6</ele>
        <time>2021-04-10T06:18:17Z</time>
      </trkpt>
      <trkpt lat="45.1756" lon="5.79446">
        <ele>383.6</ele>
        <time>2021-04-10T06:18:18Z</time>
      </trkpt>
      <trkpt lat="45.1756" lon="5.79448">
        <ele>383.6</ele>
        <time>2021-04-10T06:18:19Z</time>
      </trkpt>
      <trkpt lat="45.17559" lon="5.7945">
        <ele>384.2</ele>
        <time>2021-04-10T06:18:20Z</time>
      </trkpt>
      <trkpt lat="45.17558" lon="5.79452">
        <ele>384.2</ele>
        <time>2021-04-10T06:18:21Z</time>
      </trkpt>
      <trkpt lat="45.17556" lon="5.79454">
        <ele>384.6</ele>
        <time>2021-04-10T06:18:22Z</time>
      </trkpt>
      <trkpt lat="45.17555" lon="5.79455">
        <ele>384.6</ele>
        <time>2021-04-10T06:18:23Z</time>
      </trkpt>
      <trkpt lat="45.17553" lon="5.79457">
        <ele>385.2</ele>
        <time>2021-04-10T06:18:24Z</time>
      </trkpt>
      <trkpt lat="45.17552" lon="5.79459">
        <ele>385.2</ele>
        <time>2021-04-10T06:18:25Z</time>
      </trkpt>
      <trkpt lat="45.1755" lon="5.79461">
        <ele>385.4</ele>
        <time>2021-04-10T06:18:26Z</time>
      </trkpt>
      <trkpt lat="45.17547" lon="5.79465">
        <ele>385.4</ele>
        <time>2021-04-10T06:18:27Z</time>
      </trkpt>
      <trkpt lat="45.17545" lon="5.79467">
        <ele>385.8</ele>
        <time>2021-04-10T06:18:28Z</time>
      </trkpt>
      <trkpt lat="45.17543" lon="5.79469">
        <ele>385.6</ele>
        <time>2021-04-10T06:18:29Z</time>
      </trkpt>
      <trkpt lat="45.17541" lon="5.79471">
        <ele>385.8</ele>
        <time>2021-04-10T06:18:30Z</time>
      </trkpt>
      <trkpt lat="45.17539" lon="5.79473">
        <ele>385.6</ele>
        <time>2021-04-10T06:18:31Z</time>
      </trkpt>
      <trkpt lat="45.17537" lon="5.79475">
        <ele>385.6</ele>
        <time>2021-04-10T06:18:32Z</time>
      </trkpt>
      <trkpt lat="45.17535" lon="5.79477">
        <ele>385.4</ele>
        <time>2021-04-10T06:18:33Z</time>
      </trkpt>
      <trkpt lat="45.17527" lon="5.79482">
        <ele>385.4</ele>
        <time>2021-04-10T06:18:34Z</time>
      </trkpt>
      <trkpt lat="45.17524" lon="5.79485">
        <ele>385.4</ele>
        <time>2021-04-10T06:18:35Z</time>
      </trkpt>
      <trkpt lat="45.17522" lon="5.79486">
        <ele>385.4</ele>
        <time>2021-04-10T06:18:36Z</time>
      </trkpt>
      <trkpt lat="45.1752" lon="5.79488">
        <ele>385.8</ele>
        <time>2021-04-10T06:18:37Z</time>
      </trkpt>
      <trkpt lat="45.17518" lon="5.79489">
        <ele>386</ele>
        <time>2021-04-10T06:18:38Z</time>
      </trkpt>
      <trkpt lat="45.17516" lon="5.79493">
        <ele>386.4</ele>
        <time>2021-04-10T06:18:39Z</time>
      </trkpt>
      <trkpt lat="45.17515" lon="5.79495">
        <ele>386.4</ele>
        <time>2021-04-10T06:18:40Z</time>
      </trkpt>
      <trkpt lat="45.17514" lon="5.79497">
        <ele>386.8</ele>
        <time>2021-04-10T06:18:41Z</time>
      </trkpt>
      <trkpt lat="45.17513" lon="5.79499">
        <ele>387</ele>
        <time>2021-04-10T06:18:42Z</time>
      </trkpt>
      <trkpt lat="45.17513" lon="5.79499">
        <ele>387.4</ele>
        <time>2021-04-10T06:18:43Z</time>
      </trkpt>
      <trkpt lat="45.17513" lon="5.79499">
        <ele>387.4</ele>
        <time>2021-04-10T06:18:44Z</time>
      </trkpt>
      <trkpt lat="45.17513" lon="5.79499">
        <ele>387.8</ele>
        <time>2021-04-10T06:18:45Z</time>
      </trkpt>
      <trkpt lat="45.17512" lon="5.79501">
        <ele>387.8</ele>
        <time>2021-04-10T06:18:46Z</time>
      </trkpt>
      <trkpt lat="45.17511" lon="5.79503">
        <ele>388.2</ele>
        <time>2021-04-10T06:18:47Z</time>
      </trkpt>
      <trkpt lat="45.17511" lon="5.79505">
        <ele>388.2</ele>
        <time>2021-04-10T06:18:48Z</time>
      </trkpt>
      <trkpt lat="45.1751" lon="5.79507">
        <ele>388.4</ele>
        <time>2021-04-10T06:18:49Z</time>
      </trkpt>
      <trkpt lat="45.17509" lon="5.7951">
        <ele>388.6</ele>
        <time>2021-04-10T06:18:50Z</time>
      </trkpt>
      <trkpt lat="45.17508" lon="5.79512">
        <ele>388.8</ele>
        <time>2021-04-10T06:18:51Z</time>
      </trkpt>
      <trkpt lat="45.17507" lon="5.79514">
        <ele>389</ele>
        <time>2021-04-10T06:18:52Z</time>
      </trkpt>
      <trkpt lat="45.17506" lon="5.79516">
        <ele>389.4</ele>
        <time>2021-04-10T06:18:53Z</time>
      </trkpt>
      <trkpt lat="45.17505" lon="5.79518">
        <ele>389.6</ele>
        <time>2021-04-10T06:18:54Z</time>
      </trkpt>
      <trkpt lat="45.17503" lon="5.7952">
        <ele>389.8</ele>
        <time>2021-04-10T06:18:55Z</time>
      </trkpt>
      <trkpt lat="45.17502" lon="5.79522">
        <ele>389.6</ele>
        <time>2021-04-10T06:18:56Z</time>
      </trkpt>
      <trkpt lat="45.17501" lon="5.79524">
        <ele>389.8</ele>
        <time>2021-04-10T06:18:57Z</time>
      </trkpt>
      <trkpt lat="45.175" lon="5.79526">
        <ele>389.8</ele>
        <time>2021-04-10T06:18:58Z</time>
      </trkpt>
      <trkpt lat="45.17499" lon="5.79528">
        <ele>390.2</ele>
        <time>2021-04-10T06:18:59Z</time>
      </trkpt>
      <trkpt lat="45.17498" lon="5.7953">
        <ele>390.2</ele>
        <time>2021-04-10T06:19:00Z</time>
      </trkpt>
      <trkpt lat="45.17497" lon="5.79532">
        <ele>390.4</ele>
        <time>2021-04-10T06:19:01Z</time>
      </trkpt>
      <trkpt lat="45.17496" lon="5.79534">
        <ele>390.6</ele>
        <time>2021-04-10T06:19:02Z</time>
      </trkpt>
      <trkpt lat="45.17496" lon="5.79536">
        <ele>390.6</ele>
        <time>2021-04-10T06:19:03Z</time>
      </trkpt>
      <trkpt lat="45.17495" lon="5.79537">
        <ele>390.8</ele>
        <time>2021-04-10T06:19:04Z</time>
      </trkpt>
      <trkpt lat="45.17494" lon="5.79539">
        <ele>391.2</ele>
        <time>2021-04-10T06:19:05Z</time>
      </trkpt>
      <trkpt lat="45.17494" lon="5.7954">
        <ele>391.2</ele>
        <time>2021-04-10T06:19:06Z</time>
      </trkpt>
      <trkpt lat="45.17493" lon="5.79542">
        <ele>391.4</ele>
        <time>2021-04-10T06:19:07Z</time>
      </trkpt>
      <trkpt lat="45.17492" lon="5.79544">
        <ele>392</ele>
        <time>2021-04-10T06:19:08Z</time>
      </trkpt>
      <trkpt lat="45.17492" lon="5.79545">
        <ele>392</ele>
        <time>2021-04-10T06:19:09Z</time>
      </trkpt>
      <trkpt lat="45.17491" lon="5.79547">
        <ele>392.6</ele>
        <time>2021-04-10T06:19:10Z</time>
      </trkpt>
      <trkpt lat="45.1749" lon="5.79549">
        <ele>392.8</ele>
        <time>2021-04-10T06:19:11Z</time>
      </trkpt>
      <trkpt lat="45.17489" lon="5.79551">
        <ele>393.2</ele>
        <time>2021-04-10T06:19:12Z</time>
      </trkpt>
      <trkpt lat="45.17488" lon="5.79553">
        <ele>393.4</ele>
        <time>2021-04-10T06:19:13Z</time>
      </trkpt>
      <trkpt lat="45.17487" lon="5.79555">
        <ele>393.8</ele>
        <time>2021-04-10T06:19:14Z</time>
      </trkpt>
      <trkpt lat="45.17486" lon="5.79557">
        <ele>394.2</ele>
        <time>2021-04-10T06:19:15Z</time>
      </trkpt>
      <trkpt lat="45.17486" lon="5.79559">
        <ele>394.6</ele>
        <time>2021-04-10T06:19:16Z</time>
      </trkpt>
      <trkpt lat="45.17485" lon="5.79561">
        <ele>394.8</ele>
        <time>2021-04-10T06:19:17Z</time>
      </trkpt>
      <trkpt lat="45.17484" lon="5.79563">
        <ele>395.2</ele>
        <time>2021-04-10T06:19:18Z</time>
      </trkpt>
      <trkpt lat="45.17484" lon="5.79565">
        <ele>395.4</ele>
        <time>2021-04-10T06:19:19Z</time>
      </trkpt>
      <trkpt lat="45.17483" lon="5.79568">
        <ele>395.6</ele>
        <time>2021-04-10T06:19:20Z</time>
      </trkpt>
      <trkpt lat="45.17482" lon="5.7957">
        <ele>395.8</ele>
        <time>2021-04-10T06:19:21Z</time>
      </trkpt>
      <trkpt lat="45.17482" lon="5.79572">
        <ele>396</ele>
        <time>2021-04-10T06:19:22Z</time>
      </trkpt>
      <trkpt lat="45.17481" lon="5.79575">
        <ele>396</ele>
        <time>2021-04-10T06:19:23Z</time>
      </trkpt>
      <trkpt lat="45.1748" lon="5.79577">
        <ele>396.2</ele>
        <time>2021-04-10T06:19:24Z</time>
      </trkpt>
      <trkpt lat="45.17479" lon="5.7958">
        <ele>396.4</ele>
        <time>2021-04-10T06:19:25Z</time>
      </trkpt>
      <trkpt lat="45.17478" lon="5.79582">
        <ele>396.6</ele>
        <time>2021-04-10T06:19:26Z</time>
      </trkpt>
      <trkpt lat="45.17478" lon="5.79586">
        <ele>396.6</ele>
        <time>2021-04-10T06:19:27Z</time>
      </trkpt>
      <trkpt lat="45.17479" lon="5.79588">
        <ele>397</ele>
        <time>2021-04-10T06:19:28Z</time>
      </trkpt>
      <trkpt lat="45.17479" lon="5.79589">
        <ele>397</ele>
        <time>2021-04-10T06:19:29Z</time>
      </trkpt>
      <trkpt lat="45.17479" lon="5.79591">
        <ele>397.4</ele>
        <time>2021-04-10T06:19:30Z</time>
      </trkpt>
      <trkpt lat="45.17479" lon="5.79592">
        <ele>397.6</ele>
        <time>2021-04-10T06:19:31Z</time>
      </trkpt>
      <trkpt lat="45.1748" lon="5.79594">
        <ele>397.8</ele>
        <time>2021-04-10T06:19:32Z</time>
      </trkpt>
      <trkpt lat="45.1748" lon="5.79596">
        <ele>398</ele>
        <time>2021-04-10T06:19:33Z</time>
      </trkpt>
      <trkpt lat="45.1748" lon="5.79597">
        <ele>398.2</ele>
        <time>2021-04-10T06:19:34Z</time>
      </trkpt>
      <trkpt lat="45.17481" lon="5.79599">
        <ele>398.2</ele>
        <time>2021-04-10T06:19:35Z</time>
      </trkpt>
      <trkpt lat="45.17481" lon="5.796">
        <ele>398.4</ele>
        <time>2021-04-10T06:19:36Z</time>
      </trkpt>
      <trkpt lat="45.17481" lon="5.79602">
        <ele>398.4</ele>
        <time>2021-04-10T06:19:37Z</time>
      </trkpt>
      <trkpt lat="45.17481" lon="5.79603">
        <ele>398.6</ele>
        <time>2021-04-10T06:19:38Z</time>
      </trkpt>
      <trkpt lat="45.17482" lon="5.79605">
        <ele>398.6</ele>
        <time>2021-04-10T06:19:39Z</time>
      </trkpt>
      <trkpt lat="45.17482" lon="5.79607">
        <ele>398.8</ele>
        <time>2021-04-10T06:19:40Z</time>
      </trkpt>
      <trkpt lat="45.17482" lon="5.79608">
        <ele>399</ele>
        <time>2021-04-10T06:19:41Z</time>
      </trkpt>
      <trkpt lat="45.17482" lon="5.7961">
        <ele>399.2</ele>
        <time>2021-04-10T06:19:42Z</time>
      </trkpt>
      <trkpt lat="45.17483" lon="5.79611">
        <ele>399.4</ele>
        <time>2021-04-10T06:19:43Z</time>
      </trkpt>
      <trkpt lat="45.17483" lon="5.79613">
        <ele>399.6</ele>
        <time>2021-04-10T06:19:44Z</time>
      </trkpt>
      <trkpt lat="45.17483" lon="5.79615">
        <ele>399.6</ele>
        <time>2021-04-10T06:19:45Z</time>
      </trkpt>
      <trkpt lat="45.17484" lon="5.79616">
        <ele>399.8</ele>
        <time>2021-04-10T06:19:46Z</time>
      </trkpt>
      <trkpt lat="45.17484" lon="5.79618">
        <ele>399.8</ele>
        <time>2021-04-10T06:19:47Z</time>
      </trkpt>
      <trkpt lat="45.17484" lon="5.79619">
        <ele>400</ele>
        <time>2021-04-10T06:19:48Z</time>
      </trkpt>
      <trkpt lat="45.17484" lon="5.79621">
        <ele>400.4</ele>
        <time>2021-04-10T06:19:49Z</time>
      </trkpt>
      <trkpt lat="45.17485" lon="5.79622">
        <ele>400.6</ele>
        <time>2021-04-10T06:19:50Z</time>
      </trkpt>
      <trkpt lat="45.17485" lon="5.79624">
        <ele>400.8</ele>
        <time>2021-04-10T06:19:51Z</time>
      </trkpt>
      <trkpt lat="45.17485" lon="5.79626">
        <ele>401</ele>
        <time>2021-04-10T06:19:52Z</time>
      </trkpt>
      <trkpt lat="45.17485" lon="5.79627">
        <ele>401</ele>
        <time>2021-04-10T06:19:53Z</time>
      </trkpt>
      <trkpt lat="45.17486" lon="5.79629">
        <ele>401.4</ele>
        <time>2021-04-10T06:19:54Z</time>
      </trkpt>
      <trkpt lat="45.17486" lon="5.7963">
        <ele>401.6</ele>
        <time>2021-04-10T06:19:55Z</time>
      </trkpt>
      <trkpt lat="45.17486" lon="5.79632">
        <ele>401.8</ele>
        <time>2021-04-10T06:19:56Z</time>
      </trkpt>
      <trkpt lat="45.17487" lon="5.79634">
        <ele>402.2</ele>
        <time>2021-04-10T06:19:57Z</time>
      </trkpt>
      <trkpt lat="45.1749" lon="5.7964">
        <ele>402.4</ele>
        <time>2021-04-10T06:19:58Z</time>
      </trkpt>
      <trkpt lat="45.1749" lon="5.7964">
        <ele>402.6</ele>
        <time>2021-04-10T06:19:59Z</time>
      </trkpt>
      <trkpt lat="45.1749" lon="5.7964">
        <ele>403.2</ele>
        <time>2021-04-10T06:20:01Z</time>
      </trkpt>
      <trkpt lat="45.1749" lon="5.7964">
        <ele>403.4</ele>
        <time>2021-04-10T06:20:02Z</time>
      </trkpt>
      <trkpt lat="45.1749" lon="5.7964">
        <ele>403.4</ele>
        <time>2021-04-10T06:20:03Z</time>
      </trkpt>
      <trkpt lat="45.1749" lon="5.7964">
        <ele>403.6</ele>
        <time>2021-04-10T06:20:04Z</time>
      </trkpt>
      <trkpt lat="45.1749" lon="5.7964">
        <ele>403.6</ele>
        <time>2021-04-10T06:20:05Z</time>
      </trkpt>
      <trkpt lat="45.1749" lon="5.7964">
        <ele>403.8</ele>
        <time>2021-04-10T06:20:06Z</time>
      </trkpt>
      <trkpt lat="45.1749" lon="5.7964">
        <ele>404</ele>
        <time>2021-04-10T06:20:07Z</time>
      </trkpt>
      <trkpt lat="45.1749" lon="5.7964">
        <ele>404.4</ele>
        <time>2021-04-10T06:20:08Z</time>
      </trkpt>
      <trkpt lat="45.1749" lon="5.7964">
        <ele>404.8</ele>
        <time>2021-04-10T06:20:09Z</time>
      </trkpt>
      <trkpt lat="45.1749" lon="5.7964">
        <ele>404.8</ele>
        <time>2021-04-10T06:20:10Z</time>
      </trkpt>
      <trkpt lat="45.1749" lon="5.7964">
        <ele>404.8</ele>
        <time>2021-04-10T06:20:11Z</time>
      </trkpt>
      <trkpt lat="45.1749" lon="5.7964">
        <ele>404.8</ele>
        <time>2021-04-10T06:20:12Z</time>
      </trkpt>
      <trkpt lat="45.1749" lon="5.7964">
        <ele>405</ele>
        <time>2021-04-10T06:20:13Z</time>
      </trkpt>
      <trkpt lat="45.1749" lon="5.7964">
        <ele>405.2</ele>
        <time>2021-04-10T06:20:14Z</time>
      </trkpt>
      <trkpt lat="45.1749" lon="5.7964">
        <ele>405.6</ele>
        <time>2021-04-10T06:20:15Z</time>
      </trkpt>
      <trkpt lat="45.1749" lon="5.7964">
        <ele>405.8</ele>
        <time>2021-04-10T06:20:16Z</time>
      </trkpt>
      <trkpt lat="45.1749" lon="5.7964">
        <ele>406</ele>
        <time>2021-04-10T06:20:17Z</time>
      </trkpt>
      <trkpt lat="45.1749" lon="5.7964">
        <ele>406.2</ele>
        <time>2021-04-10T06:20:18Z</time>
      </trkpt>
      <trkpt lat="45.1749" lon="5.7964">
        <ele>406.4</ele>
        <time>2021-04-10T06:20:19Z</time>
      </trkpt>
      <trkpt lat="45.1749" lon="5.7964">
        <ele>406.4</ele>
        <time>2021-04-10T06:20:20Z</time>
      </trkpt>
      <trkpt lat="45.1749" lon="5.7964">
        <ele>406.6</ele>
        <time>2021-04-10T06:20:21Z</time>
      </trkpt>
      <trkpt lat="45.17494" lon="5.79641">
        <ele>406.8</ele>
        <time>2021-04-10T06:20:22Z</time>
      </trkpt>
      <trkpt lat="45.17497" lon="5.79642">
        <ele>407.2</ele>
        <time>2021-04-10T06:20:23Z</time>
      </trkpt>
      <trkpt lat="45.175" lon="5.79643">
        <ele>407.6</ele>
        <time>2021-04-10T06:20:24Z</time>
      </trkpt>
      <trkpt lat="45.17504" lon="5.79644">
        <ele>408</ele>
        <time>2021-04-10T06:20:25Z</time>
      </trkpt>
      <trkpt lat="45.17507" lon="5.79644">
        <ele>408.2</ele>
        <time>2021-04-10T06:20:26Z</time>
      </trkpt>
      <trkpt lat="45.17511" lon="5.79645">
        <ele>408.4</ele>
        <time>2021-04-10T06:20:27Z</time>
      </trkpt>
      <trkpt lat="45.17514" lon="5.79646">
        <ele>408.4</ele>
        <time>2021-04-10T06:20:28Z</time>
      </trkpt>
      <trkpt lat="45.17518" lon="5.79647">
        <ele>408.6</ele>
        <time>2021-04-10T06:20:29Z</time>
      </trkpt>
      <trkpt lat="45.17521" lon="5.79647">
        <ele>409</ele>
        <time>2021-04-10T06:20:30Z</time>
      </trkpt>
      <trkpt lat="45.17525" lon="5.79648">
        <ele>409.2</ele>
        <time>2021-04-10T06:20:31Z</time>
      </trkpt>
      <trkpt lat="45.17528" lon="5.79649">
        <ele>409.6</ele>
        <time>2021-04-10T06:20:32Z</time>
      </trkpt>
      <trkpt lat="45.17532" lon="5.7965">
        <ele>409.6</ele>
        <time>2021-04-10T06:20:33Z</time>
      </trkpt>
      <trkpt lat="45.17535" lon="5.79651">
        <ele>409.8</ele>
        <time>2021-04-10T06:20:34Z</time>
      </trkpt>
      <trkpt lat="45.17539" lon="5.79651">
        <ele>410</ele>
        <time>2021-04-10T06:20:35Z</time>
      </trkpt>
      <trkpt lat="45.1754" lon="5.7965">
        <ele>410</ele>
        <time>2021-04-10T06:20:36Z</time>
      </trkpt>
      <trkpt lat="45.17541" lon="5.79648">
        <ele>410.2</ele>
        <time>2021-04-10T06:20:37Z</time>
      </trkpt>
      <trkpt lat="45.17543" lon="5.79646">
        <ele>410.4</ele>
        <time>2021-04-10T06:20:38Z</time>
      </trkpt>
      <trkpt lat="45.17544" lon="5.79644">
        <ele>410.8</ele>
        <time>2021-04-10T06:20:39Z</time>
      </trkpt>
      <trkpt lat="45.17546" lon="5.79643">
        <ele>411</ele>
        <time>2021-04-10T06:20:40Z</time>
      </trkpt>
      <trkpt lat="45.17548" lon="5.79642">
        <ele>411.2</ele>
        <time>2021-04-10T06:20:41Z</time>
      </trkpt>
      <trkpt lat="45.17549" lon="5.79642">
        <ele>411.4</ele>
        <time>2021-04-10T06:20:42Z</time>
      </trkpt>
      <trkpt lat="45.1755" lon="5.79642">
        <ele>411.6</ele>
        <time>2021-04-10T06:20:43Z</time>
      </trkpt>
      <trkpt lat="45.17551" lon="5.79642">
        <ele>411.8</ele>
        <time>2021-04-10T06:20:44Z</time>
      </trkpt>
      <trkpt lat="45.17552" lon="5.79643">
        <ele>411.8</ele>
        <time>2021-04-10T06:20:45Z</time>
      </trkpt>
      <trkpt lat="45.17553" lon="5.79643">
        <ele>411.8</ele>
        <time>2021-04-10T06:20:46Z</time>
      </trkpt>
      <trkpt lat="45.17554" lon="5.79643">
        <ele>412.2</ele>
        <time>2021-04-10T06:20:47Z</time>
      </trkpt>
      <trkpt lat="45.17555" lon="5.79643">
        <ele>412.6</ele>
        <time>2021-04-10T06:20:48Z</time>
      </trkpt>
      <trkpt lat="45.17556" lon="5.79643">
        <ele>412.8</ele>
        <time>2021-04-10T06:20:49Z</time>
      </trkpt>
      <trkpt lat="45.17557" lon="5.79643">
        <ele>413</ele>
        <time>2021-04-10T06:20:50Z</time>
      </trkpt>
      <trkpt lat="45.17558" lon="5.79643">
        <ele>413.2</ele>
        <time>2021-04-10T06:20:51Z</time>
      </trkpt>
      <trkpt lat="45.17559" lon="5.79643">
        <ele>413.6</ele>
        <time>2021-04-10T06:20:52Z</time>
      </trkpt>
      <trkpt lat="45.17564" lon="5.79646">
        <ele>413.8</ele>
        <time>2021-04-10T06:20:53Z</time>
      </trkpt>
      <trkpt lat="45.17564" lon="5.79646">
        <ele>414.2</ele>
        <time>2021-04-10T06:20:55Z</time>
      </trkpt>
      <trkpt lat="45.17565" lon="5.79648">
        <ele>414.4</ele>
        <time>2021-04-10T06:20:56Z</time>
      </trkpt>
      <trkpt lat="45.17566" lon="5.7965">
        <ele>414.4</ele>
        <time>2021-04-10T06:20:57Z</time>
      </trkpt>
      <trkpt lat="45.17566" lon="5.79652">
        <ele>414.6</ele>
        <time>2021-04-10T06:20:58Z</time>
      </trkpt>
      <trkpt lat="45.17567" lon="5.79653">
        <ele>414.6</ele>
        <time>2021-04-10T06:20:59Z</time>
      </trkpt>
      <trkpt lat="45.17568" lon="5.79655">
        <ele>415</ele>
        <time>2021-04-10T06:21:00Z</time>
      </trkpt>
      <trkpt lat="45.17569" lon="5.79657">
        <ele>415.2</ele>
        <time>2021-04-10T06:21:01Z</time>
      </trkpt>
      <trkpt lat="45.1757" lon="5.79659">
        <ele>415.6</ele>
        <time>2021-04-10T06:21:02Z</time>
      </trkpt>
      <trkpt lat="45.1757" lon="5.79661">
        <ele>415.8</ele>
        <time>2021-04-10T06:21:03Z</time>
      </trkpt>
      <trkpt lat="45.17571" lon="5.79664">
        <ele>416</ele>
        <time>2021-04-10T06:21:04Z</time>
      </trkpt>
      <trkpt lat="45.17572" lon="5.79666">
        <ele>416</ele>
        <time>2021-04-10T06:21:05Z</time>
      </trkpt>
      <trkpt lat="45.17573" lon="5.79668">
        <ele>416</ele>
        <time>2021-04-10T06:21:06Z</time>
      </trkpt>
      <trkpt lat="45.17573" lon="5.79671">
        <ele>416.2</ele>
        <time>2021-04-10T06:21:07Z</time>
      </trkpt>
      <trkpt lat="45.17574" lon="5.79673">
        <ele>416.2</ele>
        <time>2021-04-10T06:21:08Z</time>
      </trkpt>
      <trkpt lat="45.17575" lon="5.79675">
        <ele>416.6</ele>
        <time>2021-04-10T06:21:09Z</time>
      </trkpt>
      <trkpt lat="45.17575" lon="5.79676">
        <ele>416.8</ele>
        <time>2021-04-10T06:21:10Z</time>
      </trkpt>
      <trkpt lat="45.17575" lon="5.79678">
        <ele>417.2</ele>
        <time>2021-04-10T06:21:11Z</time>
      </trkpt>
      <trkpt lat="45.17575" lon="5.79679">
        <ele>417.6</ele>
        <time>2021-04-10T06:21:12Z</time>
      </trkpt>
      <trkpt lat="45.17576" lon="5.79681">
        <ele>417.6</ele>
        <time>2021-04-10T06:21:13Z</time>
      </trkpt>
      <trkpt lat="45.17576" lon="5.79682">
        <ele>418.2</ele>
        <time>2021-04-10T06:21:14Z</time>
      </trkpt>
      <trkpt lat="45.17576" lon="5.79684">
        <ele>418.4</ele>
        <time>2021-04-10T06:21:15Z</time>
      </trkpt>
      <trkpt lat="45.17576" lon="5.79685">
        <ele>418.6</ele>
        <time>2021-04-10T06:21:16Z</time>
      </trkpt>
      <trkpt lat="45.17577" lon="5.79686">
        <ele>418.8</ele>
        <time>2021-04-10T06:21:17Z</time>
      </trkpt>
      <trkpt lat="45.17577" lon="5.79688">
        <ele>419</ele>
        <time>2021-04-10T06:21:18Z</time>
      </trkpt>
      <trkpt lat="45.17578" lon="5.79689">
        <ele>419.2</ele>
        <time>2021-04-10T06:21:19Z</time>
      </trkpt>
      <trkpt lat="45.17579" lon="5.7969">
        <ele>419.2</ele>
        <time>2021-04-10T06:21:20Z</time>
      </trkpt>
      <trkpt lat="45.1758" lon="5.79692">
        <ele>419.4</ele>
        <time>2021-04-10T06:21:21Z</time>
      </trkpt>
      <trkpt lat="45.17581" lon="5.79693">
        <ele>419.4</ele>
        <time>2021-04-10T06:21:22Z</time>
      </trkpt>
      <trkpt lat="45.17582" lon="5.79694">
        <ele>419.6</ele>
        <time>2021-04-10T06:21:23Z</time>
      </trkpt>
      <trkpt lat="45.17583" lon="5.79695">
        <ele>419.8</ele>
        <time>2021-04-10T06:21:24Z</time>
      </trkpt>
      <trkpt lat="45.17584" lon="5.79696">
        <ele>420</ele>
        <time>2021-04-10T06:21:25Z</time>
      </trkpt>
      <trkpt lat="45.17584" lon="5.79697">
        <ele>420.4</ele>
        <time>2021-04-10T06:21:26Z</time>
      </trkpt>
      <trkpt lat="45.17585" lon="5.79698">
        <ele>420.6</ele>
        <time>2021-04-10T06:21:27Z</time>
      </trkpt>
      <trkpt lat="45.17585" lon="5.79699">
        <ele>420.8</ele>
        <time>2021-04-10T06:21:28Z</time>
      </trkpt>
      <trkpt lat="45.17586" lon="5.797">
        <ele>421.2</ele>
        <time>2021-04-10T06:21:29Z</time>
      </trkpt>
      <trkpt lat="45.17587" lon="5.79701">
        <ele>421.2</ele>
        <time>2021-04-10T06:21:30Z</time>
      </trkpt>
      <trkpt lat="45.17587" lon="5.79702">
        <ele>421.4</ele>
        <time>2021-04-10T06:21:31Z</time>
      </trkpt>
      <trkpt lat="45.17588" lon="5.79703">
        <ele>421.2</ele>
        <time>2021-04-10T06:21:32Z</time>
      </trkpt>
      <trkpt lat="45.17588" lon="5.79704">
        <ele>421.4</ele>
        <time>2021-04-10T06:21:33Z</time>
      </trkpt>
      <trkpt lat="45.17589" lon="5.79704">
        <ele>421.6</ele>
        <time>2021-04-10T06:21:34Z</time>
      </trkpt>
      <trkpt lat="45.1759" lon="5.79705">
        <ele>421.8</ele>
        <time>2021-04-10T06:21:35Z</time>
      </trkpt>
      <trkpt lat="45.17591" lon="5.79707">
        <ele>422.2</ele>
        <time>2021-04-10T06:21:36Z</time>
      </trkpt>
      <trkpt lat="45.17592" lon="5.79708">
        <ele>422.4</ele>
        <time>2021-04-10T06:21:37Z</time>
      </trkpt>
      <trkpt lat="45.17594" lon="5.79709">
        <ele>422.8</ele>
        <time>2021-04-10T06:21:38Z</time>
      </trkpt>
      <trkpt lat="45.17595" lon="5.79711">
        <ele>423</ele>
        <time>2021-04-10T06:21:39Z</time>
      </trkpt>
      <trkpt lat="45.17596" lon="5.79712">
        <ele>423</ele>
        <time>2021-04-10T06:21:40Z</time>
      </trkpt>
      <trkpt lat="45.17598" lon="5.79713">
        <ele>423.2</ele>
        <time>2021-04-10T06:21:41Z</time>
      </trkpt>
      <trkpt lat="45.17599" lon="5.79714">
        <ele>423.4</ele>
        <time>2021-04-10T06:21:42Z</time>
      </trkpt>
      <trkpt lat="45.176" lon="5.79715">
        <ele>423.4</ele>
        <time>2021-04-10T06:21:43Z</time>
      </trkpt>
      <trkpt lat="45.17601" lon="5.79716">
        <ele>423.6</ele>
        <time>2021-04-10T06:21:44Z</time>
      </trkpt>
      <trkpt lat="45.17602" lon="5.79716">
        <ele>423.6</ele>
        <time>2021-04-10T06:21:45Z</time>
      </trkpt>
      <trkpt lat="45.17602" lon="5.79717">
        <ele>424</ele>
        <time>2021-04-10T06:21:46Z</time>
      </trkpt>
      <trkpt lat="45.17603" lon="5.79718">
        <ele>424.2</ele>
        <time>2021-04-10T06:21:47Z</time>
      </trkpt>
      <trkpt lat="45.17604" lon="5.79719">
        <ele>424.6</ele>
        <time>2021-04-10T06:21:48Z</time>
      </trkpt>
      <trkpt lat="45.17605" lon="5.7972">
        <ele>425</ele>
        <time>2021-04-10T06:21:49Z</time>
      </trkpt>
      <trkpt lat="45.17606" lon="5.7972">
        <ele>425.2</ele>
        <time>2021-04-10T06:21:50Z</time>
      </trkpt>
      <trkpt lat="45.17608" lon="5.79723">
        <ele>425.4</ele>
        <time>2021-04-10T06:21:51Z</time>
      </trkpt>
      <trkpt lat="45.17609" lon="5.79726">
        <ele>425.6</ele>
        <time>2021-04-10T06:21:52Z</time>
      </trkpt>
      <trkpt lat="45.17611" lon="5.79729">
        <ele>425.6</ele>
        <time>2021-04-10T06:21:53Z</time>
      </trkpt>
      <trkpt lat="45.17612" lon="5.79731">
        <ele>425.8</ele>
        <time>2021-04-10T06:21:54Z</time>
      </trkpt>
      <trkpt lat="45.17614" lon="5.79734">
        <ele>426</ele>
        <time>2021-04-10T06:21:55Z</time>
      </trkpt>
      <trkpt lat="45.17616" lon="5.79737">
        <ele>426.2</ele>
        <time>2021-04-10T06:21:56Z</time>
      </trkpt>
      <trkpt lat="45.17617" lon="5.7974">
        <ele>426.4</ele>
        <time>2021-04-10T06:21:57Z</time>
      </trkpt>
      <trkpt lat="45.17619" lon="5.79742">
        <ele>426.8</ele>
        <time>2021-04-10T06:21:58Z</time>
      </trkpt>
      <trkpt lat="45.17619" lon="5.79742">
        <ele>427</ele>
        <time>2021-04-10T06:21:59Z</time>
      </trkpt>
      <trkpt lat="45.17619" lon="5.79742">
        <ele>427</ele>
        <time>2021-04-10T06:22:00Z</time>
      </trkpt>
      <trkpt lat="45.17619" lon="5.79742">
        <ele>427</ele>
        <time>2021-04-10T06:22:01Z</time>
      </trkpt>
      <trkpt lat="45.1762" lon="5.79746">
        <ele>427.2</ele>
        <time>2021-04-10T06:22:02Z</time>
      </trkpt>
      <trkpt lat="45.17622" lon="5.79749">
        <ele>427.4</ele>
        <time>2021-04-10T06:22:03Z</time>
      </trkpt>
      <trkpt lat="45.17623" lon="5.79753">
        <ele>427.4</ele>
        <time>2021-04-10T06:22:04Z</time>
      </trkpt>
      <trkpt lat="45.17625" lon="5.79756">
        <ele>427.6</ele>
        <time>2021-04-10T06:22:05Z</time>
      </trkpt>
      <trkpt lat="45.17627" lon="5.7976">
        <ele>427.6</ele>
        <time>2021-04-10T06:22:06Z</time>
      </trkpt>
      <trkpt lat="45.17628" lon="5.79766">
        <ele>427.6</ele>
        <time>2021-04-10T06:22:07Z</time>
      </trkpt>
      <trkpt lat="45.17628" lon="5.79766">
        <ele>427.8</ele>
        <time>2021-04-10T06:22:08Z</time>
      </trkpt>
      <trkpt lat="45.17628" lon="5.79766">
        <ele>428</ele>
        <time>2021-04-10T06:22:09Z</time>
      </trkpt>
      <trkpt lat="45.17629" lon="5.79768">
        <ele>428.2</ele>
        <time>2021-04-10T06:22:10Z</time>
      </trkpt>
      <trkpt lat="45.1763" lon="5.79769">
        <ele>428.4</ele>
        <time>2021-04-10T06:22:11Z</time>
      </trkpt>
      <trkpt lat="45.17631" lon="5.7977">
        <ele>428.2</ele>
        <time>2021-04-10T06:22:12Z</time>
      </trkpt>
      <trkpt lat="45.17633" lon="5.79772">
        <ele>428.4</ele>
        <time>2021-04-10T06:22:13Z</time>
      </trkpt>
      <trkpt lat="45.17634" lon="5.79773">
        <ele>428.6</ele>
        <time>2021-04-10T06:22:14Z</time>
      </trkpt>
      <trkpt lat="45.17635" lon="5.79774">
        <ele>428.6</ele>
        <time>2021-04-10T06:22:15Z</time>
      </trkpt>
      <trkpt lat="45.17635" lon="5.79776">
        <ele>428.8</ele>
        <time>2021-04-10T06:22:16Z</time>
      </trkpt>
      <trkpt lat="45.17635" lon="5.79778">
        <ele>429</ele>
        <time>2021-04-10T06:22:17Z</time>
      </trkpt>
      <trkpt lat="45.17636" lon="5.7978">
        <ele>429.2</ele>
        <time>2021-04-10T06:22:18Z</time>
      </trkpt>
      <trkpt lat="45.17636" lon="5.79782">
        <ele>429.2</ele>
        <time>2021-04-10T06:22:19Z</time>
      </trkpt>
      <trkpt lat="45.17636" lon="5.79784">
        <ele>429.8</ele>
        <time>2021-04-10T06:22:20Z</time>
      </trkpt>
      <trkpt lat="45.17636" lon="5.79786">
        <ele>430</ele>
        <time>2021-04-10T06:22:21Z</time>
      </trkpt>
      <trkpt lat="45.17636" lon="5.79788">
        <ele>430</ele>
        <time>2021-04-10T06:22:22Z</time>
      </trkpt>
      <trkpt lat="45.17637" lon="5.7979">
        <ele>430.2</ele>
        <time>2021-04-10T06:22:23Z</time>
      </trkpt>
      <trkpt lat="45.17638" lon="5.79792">
        <ele>430.6</ele>
        <time>2021-04-10T06:22:24Z</time>
      </trkpt>
      <trkpt lat="45.17638" lon="5.79794">
        <ele>430.6</ele>
        <time>2021-04-10T06:22:25Z</time>
      </trkpt>
      <trkpt lat="45.17639" lon="5.79796">
        <ele>430.6</ele>
        <time>2021-04-10T06:22:26Z</time>
      </trkpt>
      <trkpt lat="45.1764" lon="5.79798">
        <ele>430.6</ele>
        <time>2021-04-10T06:22:27Z</time>
      </trkpt>
      <trkpt lat="45.1764" lon="5.798">
        <ele>430.4</ele>
        <time>2021-04-10T06:22:28Z</time>
      </trkpt>
      <trkpt lat="45.17641" lon="5.79801">
        <ele>430.6</ele>
        <time>2021-04-10T06:22:29Z</time>
      </trkpt>
      <trkpt lat="45.17641" lon="5.79802">
        <ele>430.6</ele>
        <time>2021-04-10T06:22:30Z</time>
      </trkpt>
      <trkpt lat="45.17642" lon="5.79804">
        <ele>430.8</ele>
        <time>2021-04-10T06:22:31Z</time>
      </trkpt>
      <trkpt lat="45.17642" lon="5.79805">
        <ele>431</ele>
        <time>2021-04-10T06:22:32Z</time>
      </trkpt>
      <trkpt lat="45.17643" lon="5.79806">
        <ele>431.2</ele>
        <time>2021-04-10T06:22:33Z</time>
      </trkpt>
      <trkpt lat="45.17643" lon="5.79807">
        <ele>431.2</ele>
        <time>2021-04-10T06:22:34Z</time>
      </trkpt>
      <trkpt lat="45.17643" lon="5.79809">
        <ele>431.2</ele>
        <time>2021-04-10T06:22:35Z</time>
      </trkpt>
      <trkpt lat="45.17644" lon="5.7981">
        <ele>431.4</ele>
        <time>2021-04-10T06:22:36Z</time>
      </trkpt>
      <trkpt lat="45.17644" lon="5.79811">
        <ele>431.4</ele>
        <time>2021-04-10T06:22:37Z</time>
      </trkpt>
      <trkpt lat="45.17645" lon="5.79812">
        <ele>431.8</ele>
        <time>2021-04-10T06:22:38Z</time>
      </trkpt>
      <trkpt lat="45.17645" lon="5.79814">
        <ele>432</ele>
        <time>2021-04-10T06:22:39Z</time>
      </trkpt>
      <trkpt lat="45.17646" lon="5.79816">
        <ele>432.4</ele>
        <time>2021-04-10T06:22:40Z</time>
      </trkpt>
      <trkpt lat="45.17646" lon="5.79817">
        <ele>432.4</ele>
        <time>2021-04-10T06:22:41Z</time>
      </trkpt>
      <trkpt lat="45.17647" lon="5.79819">
        <ele>432.4</ele>
        <time>2021-04-10T06:22:42Z</time>
      </trkpt>
      <trkpt lat="45.17648" lon="5.79821">
        <ele>432.4</ele>
        <time>2021-04-10T06:22:43Z</time>
      </trkpt>
      <trkpt lat="45.17648" lon="5.79823">
        <ele>432.6</ele>
        <time>2021-04-10T06:22:44Z</time>
      </trkpt>
      <trkpt lat="45.17649" lon="5.79824">
        <ele>432.6</ele>
        <time>2021-04-10T06:22:45Z</time>
      </trkpt>
      <trkpt lat="45.1765" lon="5.79826">
        <ele>433</ele>
        <time>2021-04-10T06:22:46Z</time>
      </trkpt>
      <trkpt lat="45.17652" lon="5.79827">
        <ele>433.4</ele>
        <time>2021-04-10T06:22:47Z</time>
      </trkpt>
      <trkpt lat="45.17653" lon="5.79828">
        <ele>433.6</ele>
        <time>2021-04-10T06:22:48Z</time>
      </trkpt>
      <trkpt lat="45.17654" lon="5.79829">
        <ele>433.6</ele>
        <time>2021-04-10T06:22:49Z</time>
      </trkpt>
      <trkpt lat="45.17656" lon="5.79831">
        <ele>433.6</ele>
        <time>2021-04-10T06:22:50Z</time>
      </trkpt>
      <trkpt lat="45.17657" lon="5.79832">
        <ele>433.8</ele>
        <time>2021-04-10T06:22:51Z</time>
      </trkpt>
      <trkpt lat="45.17657" lon="5.79835">
        <ele>434</ele>
        <time>2021-04-10T06:22:52Z</time>
      </trkpt>
      <trkpt lat="45.17658" lon="5.79837">
        <ele>434.2</ele>
        <time>2021-04-10T06:22:53Z</time>
      </trkpt>
      <trkpt lat="45.17659" lon="5.7984">
        <ele>434.8</ele>
        <time>2021-04-10T06:22:54Z</time>
      </trkpt>
      <trkpt lat="45.17659" lon="5.79843">
        <ele>435</ele>
        <time>2021-04-10T06:22:55Z</time>
      </trkpt>
      <trkpt lat="45.1766" lon="5.79845">
        <ele>435</ele>
        <time>2021-04-10T06:22:56Z</time>
      </trkpt>
      <trkpt lat="45.1766" lon="5.79847">
        <ele>435.2</ele>
        <time>2021-04-10T06:22:57Z</time>
      </trkpt>
      <trkpt lat="45.1766" lon="5.7985">
        <ele>435.6</ele>
        <time>2021-04-10T06:22:58Z</time>
      </trkpt>
      <trkpt lat="45.1766" lon="5.79852">
        <ele>436</ele>
        <time>2021-04-10T06:22:59Z</time>
      </trkpt>
      <trkpt lat="45.1766" lon="5.79854">
        <ele>435.8</ele>
        <time>2021-04-10T06:23:00Z</time>
      </trkpt>
      <trkpt lat="45.17661" lon="5.79856">
        <ele>435.8</ele>
        <time>2021-04-10T06:23:01Z</time>
      </trkpt>
      <trkpt lat="45.17661" lon="5.79858">
        <ele>436.2</ele>
        <time>2021-04-10T06:23:02Z</time>
      </trkpt>
      <trkpt lat="45.17661" lon="5.7986">
        <ele>436.4</ele>
        <time>2021-04-10T06:23:03Z</time>
      </trkpt>
      <trkpt lat="45.17661" lon="5.79862">
        <ele>436.4</ele>
        <time>2021-04-10T06:23:04Z</time>
      </trkpt>
      <trkpt lat="45.17661" lon="5.79863">
        <ele>436.4</ele>
        <time>2021-04-10T06:23:05Z</time>
      </trkpt>
      <trkpt lat="45.1766" lon="5.79865">
        <ele>436.8</ele>
        <time>2021-04-10T06:23:06Z</time>
      </trkpt>
      <trkpt lat="45.1766" lon="5.79867">
        <ele>436.8</ele>
        <time>2021-04-10T06:23:07Z</time>
      </trkpt>
      <trkpt lat="45.1766" lon="5.79868">
        <ele>437.2</ele>
        <time>2021-04-10T06:23:08Z</time>
      </trkpt>
      <trkpt lat="45.1766" lon="5.7987">
        <ele>437.4</ele>
        <time>2021-04-10T06:23:09Z</time>
      </trkpt>
      <trkpt lat="45.1766" lon="5.79871">
        <ele>437.4</ele>
        <time>2021-04-10T06:23:10Z</time>
      </trkpt>
      <trkpt lat="45.1766" lon="5.79873">
        <ele>437.8</ele>
        <time>2021-04-10T06:23:11Z</time>
      </trkpt>
      <trkpt lat="45.17659" lon="5.79874">
        <ele>437.8</ele>
        <time>2021-04-10T06:23:12Z</time>
      </trkpt>
      <trkpt lat="45.1766" lon="5.79876">
        <ele>437.8</ele>
        <time>2021-04-10T06:23:13Z</time>
      </trkpt>
      <trkpt lat="45.17661" lon="5.79878">
        <ele>437.8</ele>
        <time>2021-04-10T06:23:14Z</time>
      </trkpt>
      <trkpt lat="45.17662" lon="5.7988">
        <ele>437.8</ele>
        <time>2021-04-10T06:23:15Z</time>
      </trkpt>
      <trkpt lat="45.17663" lon="5.79882">
        <ele>437.8</ele>
        <time>2021-04-10T06:23:16Z</time>
      </trkpt>
      <trkpt lat="45.17664" lon="5.79884">
        <ele>438.2</ele>
        <time>2021-04-10T06:23:17Z</time>
      </trkpt>
      <trkpt lat="45.17665" lon="5.79886">
        <ele>438.2</ele>
        <time>2021-04-10T06:23:18Z</time>
      </trkpt>
      <trkpt lat="45.17666" lon="5.79888">
        <ele>438.4</ele>
        <time>2021-04-10T06:23:19Z</time>
      </trkpt>
      <trkpt lat="45.17666" lon="5.79891">
        <ele>438.6</ele>
        <time>2021-04-10T06:23:20Z</time>
      </trkpt>
      <trkpt lat="45.17666" lon="5.79894">
        <ele>438.6</ele>
        <time>2021-04-10T06:23:21Z</time>
      </trkpt>
      <trkpt lat="45.17666" lon="5.79896">
        <ele>439</ele>
        <time>2021-04-10T06:23:22Z</time>
      </trkpt>
      <trkpt lat="45.17667" lon="5.79899">
        <ele>439</ele>
        <time>2021-04-10T06:23:23Z</time>
      </trkpt>
      <trkpt lat="45.17667" lon="5.799">
        <ele>439.2</ele>
        <time>2021-04-10T06:23:24Z</time>
      </trkpt>
      <trkpt lat="45.17667" lon="5.79902">
        <ele>439.2</ele>
        <time>2021-04-10T06:23:25Z</time>
      </trkpt>
      <trkpt lat="45.17667" lon="5.79903">
        <ele>439.4</ele>
        <time>2021-04-10T06:23:26Z</time>
      </trkpt>
      <trkpt lat="45.17668" lon="5.79904">
        <ele>439.4</ele>
        <time>2021-04-10T06:23:27Z</time>
      </trkpt>
      <trkpt lat="45.17668" lon="5.79905">
        <ele>439.6</ele>
        <time>2021-04-10T06:23:28Z</time>
      </trkpt>
      <trkpt lat="45.17668" lon="5.79907">
        <ele>440</ele>
        <time>2021-04-10T06:23:29Z</time>
      </trkpt>
      <trkpt lat="45.17668" lon="5.79908">
        <ele>440.2</ele>
        <time>2021-04-10T06:23:30Z</time>
      </trkpt>
      <trkpt lat="45.17669" lon="5.79909">
        <ele>440.6</ele>
        <time>2021-04-10T06:23:31Z</time>
      </trkpt>
      <trkpt lat="45.17669" lon="5.79911">
        <ele>441</ele>
        <time>2021-04-10T06:23:32Z</time>
      </trkpt>
      <trkpt lat="45.17669" lon="5.79912">
        <ele>441.2</ele>
        <time>2021-04-10T06:23:33Z</time>
      </trkpt>
      <trkpt lat="45.17671" lon="5.79913">
        <ele>441.4</ele>
        <time>2021-04-10T06:23:34Z</time>
      </trkpt>
      <trkpt lat="45.17672" lon="5.79915">
        <ele>441.4</ele>
        <time>2021-04-10T06:23:35Z</time>
      </trkpt>
      <trkpt lat="45.17673" lon="5.79916">
        <ele>441.6</ele>
        <time>2021-04-10T06:23:36Z</time>
      </trkpt>
      <trkpt lat="45.17675" lon="5.79918">
        <ele>441.6</ele>
        <time>2021-04-10T06:23:37Z</time>
      </trkpt>
      <trkpt lat="45.17676" lon="5.79919">
        <ele>442</ele>
        <time>2021-04-10T06:23:38Z</time>
      </trkpt>
      <trkpt lat="45.17677" lon="5.79921">
        <ele>442.2</ele>
        <time>2021-04-10T06:23:39Z</time>
      </trkpt>
      <trkpt lat="45.17678" lon="5.79922">
        <ele>442.4</ele>
        <time>2021-04-10T06:23:40Z</time>
      </trkpt>
      <trkpt lat="45.17679" lon="5.79924">
        <ele>442.6</ele>
        <time>2021-04-10T06:23:41Z</time>
      </trkpt>
      <trkpt lat="45.1768" lon="5.79926">
        <ele>442.8</ele>
        <time>2021-04-10T06:23:42Z</time>
      </trkpt>
      <trkpt lat="45.1768" lon="5.79927">
        <ele>442.8</ele>
        <time>2021-04-10T06:23:43Z</time>
      </trkpt>
      <trkpt lat="45.17681" lon="5.79929">
        <ele>443</ele>
        <time>2021-04-10T06:23:44Z</time>
      </trkpt>
      <trkpt lat="45.17682" lon="5.79931">
        <ele>443.4</ele>
        <time>2021-04-10T06:23:45Z</time>
      </trkpt>
      <trkpt lat="45.17682" lon="5.79933">
        <ele>443.6</ele>
        <time>2021-04-10T06:23:46Z</time>
      </trkpt>
      <trkpt lat="45.17685" lon="5.79934">
        <ele>443.6</ele>
        <time>2021-04-10T06:23:47Z</time>
      </trkpt>
      <trkpt lat="45.17687" lon="5.79935">
        <ele>443.8</ele>
        <time>2021-04-10T06:23:48Z</time>
      </trkpt>
      <trkpt lat="45.17689" lon="5.79936">
        <ele>444</ele>
        <time>2021-04-10T06:23:49Z</time>
      </trkpt>
      <trkpt lat="45.17691" lon="5.79937">
        <ele>444.2</ele>
        <time>2021-04-10T06:23:50Z</time>
      </trkpt>
      <trkpt lat="45.17693" lon="5.79938">
        <ele>444.4</ele>
        <time>2021-04-10T06:23:51Z</time>
      </trkpt>
      <trkpt lat="45.17694" lon="5.79939">
        <ele>444.4</ele>
        <time>2021-04-10T06:23:52Z</time>
      </trkpt>
      <trkpt lat="45.17696" lon="5.7994">
        <ele>444.6</ele>
        <time>2021-04-10T06:23:53Z</time>
      </trkpt>
      <trkpt lat="45.17697" lon="5.79941">
        <ele>444.4</ele>
        <time>2021-04-10T06:23:54Z</time>
      </trkpt>
      <trkpt lat="45.17698" lon="5.79942">
        <ele>444.8</ele>
        <time>2021-04-10T06:23:55Z</time>
      </trkpt>
      <trkpt lat="45.177" lon="5.79943">
        <ele>445</ele>
        <time>2021-04-10T06:23:56Z</time>
      </trkpt>
      <trkpt lat="45.17701" lon="5.79944">
        <ele>445.2</ele>
        <time>2021-04-10T06:23:57Z</time>
      </trkpt>
      <trkpt lat="45.17702" lon="5.79945">
        <ele>445.4</ele>
        <time>2021-04-10T06:23:58Z</time>
      </trkpt>
      <trkpt lat="45.17703" lon="5.79947">
        <ele>445.6</ele>
        <time>2021-04-10T06:23:59Z</time>
      </trkpt>
      <trkpt lat="45.17704" lon="5.7995">
        <ele>445.8</ele>
        <time>2021-04-10T06:24:00Z</time>
      </trkpt>
      <trkpt lat="45.17705" lon="5.79952">
        <ele>446</ele>
        <time>2021-04-10T06:24:01Z</time>
      </trkpt>
      <trkpt lat="45.17705" lon="5.79954">
        <ele>446.4</ele>
        <time>2021-04-10T06:24:02Z</time>
      </trkpt>
      <trkpt lat="45.17706" lon="5.79957">
        <ele>446.8</ele>
        <time>2021-04-10T06:24:03Z</time>
      </trkpt>
      <trkpt lat="45.17707" lon="5.79959">
        <ele>447.2</ele>
        <time>2021-04-10T06:24:04Z</time>
      </trkpt>
      <trkpt lat="45.17708" lon="5.79961">
        <ele>447.6</ele>
        <time>2021-04-10T06:24:05Z</time>
      </trkpt>
      <trkpt lat="45.17708" lon="5.79962">
        <ele>447.4</ele>
        <time>2021-04-10T06:24:06Z</time>
      </trkpt>
      <trkpt lat="45.17707" lon="5.79962">
        <ele>447.4</ele>
        <time>2021-04-10T06:24:07Z</time>
      </trkpt>
      <trkpt lat="45.17707" lon="5.79963">
        <ele>447.2</ele>
        <time>2021-04-10T06:24:08Z</time>
      </trkpt>
      <trkpt lat="45.17707" lon="5.79964">
        <ele>447.6</ele>
        <time>2021-04-10T06:24:09Z</time>
      </trkpt>
      <trkpt lat="45.17707" lon="5.79965">
        <ele>448</ele>
        <time>2021-04-10T06:24:10Z</time>
      </trkpt>
      <trkpt lat="45.17707" lon="5.79965">
        <ele>448.2</ele>
        <time>2021-04-10T06:24:11Z</time>
      </trkpt>
      <trkpt lat="45.17706" lon="5.79966">
        <ele>448.4</ele>
        <time>2021-04-10T06:24:12Z</time>
      </trkpt>
      <trkpt lat="45.17706" lon="5.79967">
        <ele>448.6</ele>
        <time>2021-04-10T06:24:13Z</time>
      </trkpt>
      <trkpt lat="45.17706" lon="5.79968">
        <ele>448.8</ele>
        <time>2021-04-10T06:24:14Z</time>
      </trkpt>
      <trkpt lat="45.17706" lon="5.79968">
        <ele>448.8</ele>
        <time>2021-04-10T06:24:15Z</time>
      </trkpt>
      <trkpt lat="45.17706" lon="5.79969">
        <ele>449</ele>
        <time>2021-04-10T06:24:16Z</time>
      </trkpt>
      <trkpt lat="45.17705" lon="5.7997">
        <ele>449.2</ele>
        <time>2021-04-10T06:24:17Z</time>
      </trkpt>
      <trkpt lat="45.17705" lon="5.7997">
        <ele>449.2</ele>
        <time>2021-04-10T06:24:18Z</time>
      </trkpt>
      <trkpt lat="45.17705" lon="5.79971">
        <ele>449.4</ele>
        <time>2021-04-10T06:24:19Z</time>
      </trkpt>
      <trkpt lat="45.17705" lon="5.79972">
        <ele>449.2</ele>
        <time>2021-04-10T06:24:20Z</time>
      </trkpt>
      <trkpt lat="45.17705" lon="5.79973">
        <ele>449.4</ele>
        <time>2021-04-10T06:24:21Z</time>
      </trkpt>
      <trkpt lat="45.17704" lon="5.79973">
        <ele>449.4</ele>
        <time>2021-04-10T06:24:22Z</time>
      </trkpt>
      <trkpt lat="45.17704" lon="5.79974">
        <ele>449.6</ele>
        <time>2021-04-10T06:24:23Z</time>
      </trkpt>
      <trkpt lat="45.17704" lon="5.79975">
        <ele>450</ele>
        <time>2021-04-10T06:24:24Z</time>
      </trkpt>
      <trkpt lat="45.17704" lon="5.79976">
        <ele>450.2</ele>
        <time>2021-04-10T06:24:25Z</time>
      </trkpt>
      <trkpt lat="45.17704" lon="5.79976">
        <ele>450.2</ele>
        <time>2021-04-10T06:24:26Z</time>
      </trkpt>
      <trkpt lat="45.17703" lon="5.79977">
        <ele>450.2</ele>
        <time>2021-04-10T06:24:27Z</time>
      </trkpt>
      <trkpt lat="45.17703" lon="5.79978">
        <ele>450.4</ele>
        <time>2021-04-10T06:24:28Z</time>
      </trkpt>
      <trkpt lat="45.17703" lon="5.79978">
        <ele>450.4</ele>
        <time>2021-04-10T06:24:29Z</time>
      </trkpt>
      <trkpt lat="45.17703" lon="5.79979">
        <ele>450.6</ele>
        <time>2021-04-10T06:24:30Z</time>
      </trkpt>
      <trkpt lat="45.17703" lon="5.7998">
        <ele>451</ele>
        <time>2021-04-10T06:24:31Z</time>
      </trkpt>
      <trkpt lat="45.17703" lon="5.79981">
        <ele>451.2</ele>
        <time>2021-04-10T06:24:32Z</time>
      </trkpt>
      <trkpt lat="45.17702" lon="5.79981">
        <ele>451.2</ele>
        <time>2021-04-10T06:24:33Z</time>
      </trkpt>
      <trkpt lat="45.17702" lon="5.79982">
        <ele>451.2</ele>
        <time>2021-04-10T06:24:34Z</time>
      </trkpt>
      <trkpt lat="45.17702" lon="5.79983">
        <ele>451.2</ele>
        <time>2021-04-10T06:24:35Z</time>
      </trkpt>
      <trkpt lat="45.17702" lon="5.79984">
        <ele>451.4</ele>
        <time>2021-04-10T06:24:36Z</time>
      </trkpt>
      <trkpt lat="45.17702" lon="5.79984">
        <ele>451.8</ele>
        <time>2021-04-10T06:24:37Z</time>
      </trkpt>
      <trkpt lat="45.17701" lon="5.79985">
        <ele>452.2</ele>
        <time>2021-04-10T06:24:38Z</time>
      </trkpt>
      <trkpt lat="45.17701" lon="5.79986">
        <ele>452.6</ele>
        <time>2021-04-10T06:24:39Z</time>
      </trkpt>
      <trkpt lat="45.17701" lon="5.79986">
        <ele>452.8</ele>
        <time>2021-04-10T06:24:40Z</time>
      </trkpt>
      <trkpt lat="45.17701" lon="5.79987">
        <ele>452.8</ele>
        <time>2021-04-10T06:24:41Z</time>
      </trkpt>
      <trkpt lat="45.17701" lon="5.79988">
        <ele>453</ele>
        <time>2021-04-10T06:24:42Z</time>
      </trkpt>
      <trkpt lat="45.177" lon="5.79989">
        <ele>453.2</ele>
        <time>2021-04-10T06:24:43Z</time>
      </trkpt>
      <trkpt lat="45.177" lon="5.79989">
        <ele>453.4</ele>
        <time>2021-04-10T06:24:44Z</time>
      </trkpt>
      <trkpt lat="45.177" lon="5.7999">
        <ele>453.6</ele>
        <time>2021-04-10T06:24:45Z</time>
      </trkpt>
      <trkpt lat="45.177" lon="5.79991">
        <ele>453.6</ele>
        <time>2021-04-10T06:24:46Z</time>
      </trkpt>
      <trkpt lat="45.177" lon="5.79992">
        <ele>453.8</ele>
        <time>2021-04-10T06:24:47Z</time>
      </trkpt>
      <trkpt lat="45.17699" lon="5.79992">
        <ele>454</ele>
        <time>2021-04-10T06:24:48Z</time>
      </trkpt>
      <trkpt lat="45.17699" lon="5.79993">
        <ele>454.2</ele>
        <time>2021-04-10T06:24:49Z</time>
      </trkpt>
      <trkpt lat="45.17699" lon="5.79994">
        <ele>454.4</ele>
        <time>2021-04-10T06:24:50Z</time>
      </trkpt>
      <trkpt lat="45.17699" lon="5.79994">
        <ele>454.8</ele>
        <time>2021-04-10T06:24:51Z</time>
      </trkpt>
      <trkpt lat="45.17699" lon="5.79995">
        <ele>455.2</ele>
        <time>2021-04-10T06:24:52Z</time>
      </trkpt>
      <trkpt lat="45.17698" lon="5.79996">
        <ele>455.4</ele>
        <time>2021-04-10T06:24:53Z</time>
      </trkpt>
      <trkpt lat="45.17698" lon="5.79997">
        <ele>455.8</ele>
        <time>2021-04-10T06:24:54Z</time>
      </trkpt>
      <trkpt lat="45.17698" lon="5.79997">
        <ele>456</ele>
        <time>2021-04-10T06:24:55Z</time>
      </trkpt>
      <trkpt lat="45.17698" lon="5.79998">
        <ele>456.4</ele>
        <time>2021-04-10T06:24:56Z</time>
      </trkpt>
      <trkpt lat="45.17698" lon="5.79999">
        <ele>456.8</ele>
        <time>2021-04-10T06:24:57Z</time>
      </trkpt>
      <trkpt lat="45.17697" lon="5.8">
        <ele>457.2</ele>
        <time>2021-04-10T06:24:58Z</time>
      </trkpt>
      <trkpt lat="45.17697" lon="5.8">
        <ele>457.6</ele>
        <time>2021-04-10T06:24:59Z</time>
      </trkpt>
      <trkpt lat="45.17697" lon="5.80001">
        <ele>457.8</ele>
        <time>2021-04-10T06:25:00Z</time>
      </trkpt>
      <trkpt lat="45.17697" lon="5.80002">
        <ele>458</ele>
        <time>2021-04-10T06:25:01Z</time>
      </trkpt>
      <trkpt lat="45.17697" lon="5.80002">
        <ele>457.8</ele>
        <time>2021-04-10T06:25:02Z</time>
      </trkpt>
      <trkpt lat="45.17696" lon="5.80003">
        <ele>458</ele>
        <time>2021-04-10T06:25:03Z</time>
      </trkpt>
      <trkpt lat="45.17696" lon="5.80004">
        <ele>458.2</ele>
        <time>2021-04-10T06:25:04Z</time>
      </trkpt>
      <trkpt lat="45.17696" lon="5.80005">
        <ele>458.2</ele>
        <time>2021-04-10T06:25:05Z</time>
      </trkpt>
      <trkpt lat="45.17696" lon="5.80005">
        <ele>458.6</ele>
        <time>2021-04-10T06:25:06Z</time>
      </trkpt>
      <trkpt lat="45.17696" lon="5.80006">
        <ele>458.6</ele>
        <time>2021-04-10T06:25:07Z</time>
      </trkpt>
      <trkpt lat="45.17695" lon="5.80007">
        <ele>458.6</ele>
        <time>2021-04-10T06:25:08Z</time>
      </trkpt>
      <trkpt lat="45.17695" lon="5.80008">
        <ele>458.8</ele>
        <time>2021-04-10T06:25:09Z</time>
      </trkpt>
      <trkpt lat="45.17695" lon="5.80008">
        <ele>459.2</ele>
        <time>2021-04-10T06:25:10Z</time>
      </trkpt>
      <trkpt lat="45.17695" lon="5.80009">
        <ele>459.4</ele>
        <time>2021-04-10T06:25:11Z</time>
      </trkpt>
      <trkpt lat="45.17695" lon="5.8001">
        <ele>459.8</ele>
        <time>2021-04-10T06:25:12Z</time>
      </trkpt>
      <trkpt lat="45.17694" lon="5.8001">
        <ele>460.2</ele>
        <time>2021-04-10T06:25:13Z</time>
      </trkpt>
      <trkpt lat="45.17694" lon="5.80011">
        <ele>460.2</ele>
        <time>2021-04-10T06:25:14Z</time>
      </trkpt>
      <trkpt lat="45.17694" lon="5.80012">
        <ele>460.4</ele>
        <time>2021-04-10T06:25:15Z</time>
      </trkpt>
      <trkpt lat="45.17694" lon="5.80013">
        <ele>460.4</ele>
        <time>2021-04-10T06:25:16Z</time>
      </trkpt>
      <trkpt lat="45.17694" lon="5.80013">
        <ele>460.4</ele>
        <time>2021-04-10T06:25:17Z</time>
      </trkpt>
      <trkpt lat="45.17693" lon="5.80014">
        <ele>460.4</ele>
        <time>2021-04-10T06:25:18Z</time>
      </trkpt>
      <trkpt lat="45.17693" lon="5.80015">
        <ele>460.8</ele>
        <time>2021-04-10T06:25:19Z</time>
      </trkpt>
      <trkpt lat="45.17693" lon="5.80016">
        <ele>461</ele>
        <time>2021-04-10T06:25:20Z</time>
      </trkpt>
      <trkpt lat="45.17693" lon="5.80016">
        <ele>461.2</ele>
        <time>2021-04-10T06:25:21Z</time>
      </trkpt>
      <trkpt lat="45.17693" lon="5.80017">
        <ele>461.6</ele>
        <time>2021-04-10T06:25:22Z</time>
      </trkpt>
      <trkpt lat="45.17692" lon="5.80018">
        <ele>461.8</ele>
        <time>2021-04-10T06:25:23Z</time>
      </trkpt>
      <trkpt lat="45.17692" lon="5.80018">
        <ele>461.8</ele>
        <time>2021-04-10T06:25:24Z</time>
      </trkpt>
      <trkpt lat="45.17692" lon="5.80019">
        <ele>462</ele>
        <time>2021-04-10T06:25:25Z</time>
      </trkpt>
      <trkpt lat="45.17692" lon="5.8002">
        <ele>462</ele>
        <time>2021-04-10T06:25:26Z</time>
      </trkpt>
      <trkpt lat="45.17692" lon="5.80021">
        <ele>462.2</ele>
        <time>2021-04-10T06:25:27Z</time>
      </trkpt>
      <trkpt lat="45.17691" lon="5.80021">
        <ele>462.4</ele>
        <time>2021-04-10T06:25:28Z</time>
      </trkpt>
      <trkpt lat="45.17691" lon="5.80022">
        <ele>462.8</ele>
        <time>2021-04-10T06:25:29Z</time>
      </trkpt>
      <trkpt lat="45.17691" lon="5.80023">
        <ele>463</ele>
        <time>2021-04-10T06:25:30Z</time>
      </trkpt>
      <trkpt lat="45.17691" lon="5.80024">
        <ele>463</ele>
        <time>2021-04-10T06:25:31Z</time>
      </trkpt>
      <trkpt lat="45.17691" lon="5.80024">
        <ele>463</ele>
        <time>2021-04-10T06:25:32Z</time>
      </trkpt>
      <trkpt lat="45.1769" lon="5.80025">
        <ele>463</ele>
        <time>2021-04-10T06:25:33Z</time>
      </trkpt>
      <trkpt lat="45.1769" lon="5.80026">
        <ele>463.4</ele>
        <time>2021-04-10T06:25:34Z</time>
      </trkpt>
      <trkpt lat="45.1769" lon="5.80026">
        <ele>463.4</ele>
        <time>2021-04-10T06:25:35Z</time>
      </trkpt>
      <trkpt lat="45.1769" lon="5.80027">
        <ele>464</ele>
        <time>2021-04-10T06:25:36Z</time>
      </trkpt>
      <trkpt lat="45.1769" lon="5.80028">
        <ele>464</ele>
        <time>2021-04-10T06:25:37Z</time>
      </trkpt>
      <trkpt lat="45.17689" lon="5.80029">
        <ele>464.4</ele>
        <time>2021-04-10T06:25:38Z</time>
      </trkpt>
      <trkpt lat="45.17689" lon="5.80029">
        <ele>464.4</ele>
        <time>2021-04-10T06:25:39Z</time>
      </trkpt>
      <trkpt lat="45.17689" lon="5.8003">
        <ele>464.4</ele>
        <time>2021-04-10T06:25:40Z</time>
      </trkpt>
      <trkpt lat="45.17689" lon="5.80031">
        <ele>464.4</ele>
        <time>2021-04-10T06:25:41Z</time>
      </trkpt>
      <trkpt lat="45.17689" lon="5.80032">
        <ele>464.4</ele>
        <time>2021-04-10T06:25:42Z</time>
      </trkpt>
      <trkpt lat="45.17688" lon="5.80032">
        <ele>464.4</ele>
        <time>2021-04-10T06:25:43Z</time>
      </trkpt>
      <trkpt lat="45.17688" lon="5.80033">
        <ele>464.6</ele>
        <time>2021-04-10T06:25:44Z</time>
      </trkpt>
      <trkpt lat="45.1762" lon="5.80046">
        <ele>464.8</ele>
        <time>2021-04-10T06:25:45Z</time>
      </trkpt>
      <trkpt lat="45.17621" lon="5.80047">
        <ele>464.8</ele>
        <time>2021-04-10T06:25:46Z</time>
      </trkpt>
      <trkpt lat="45.17622" lon="5.80048">
        <ele>465</ele>
        <time>2021-04-10T06:25:47Z</time>
      </trkpt>
      <trkpt lat="45.17623" lon="5.80049">
        <ele>465.2</ele>
        <time>2021-04-10T06:25:48Z</time>
      </trkpt>
      <trkpt lat="45.17624" lon="5.8005">
        <ele>465.4</ele>
        <time>2021-04-10T06:25:49Z</time>
      </trkpt>
      <trkpt lat="45.17626" lon="5.80051">
        <ele>465.6</ele>
        <time>2021-04-10T06:25:50Z</time>
      </trkpt>
      <trkpt lat="45.17627" lon="5.80051">
        <ele>466</ele>
        <time>2021-04-10T06:25:51Z</time>
      </trkpt>
      <trkpt lat="45.17628" lon="5.80052">
        <ele>466.2</ele>
        <time>2021-04-10T06:25:52Z</time>
      </trkpt>
      <trkpt lat="45.17629" lon="5.80053">
        <ele>466.6</ele>
        <time>2021-04-10T06:25:53Z</time>
      </trkpt>
      <trkpt lat="45.1763" lon="5.80054">
        <ele>466.6</ele>
        <time>2021-04-10T06:25:54Z</time>
      </trkpt>
      <trkpt lat="45.17632" lon="5.80055">
        <ele>467</ele>
        <time>2021-04-10T06:25:55Z</time>
      </trkpt>
      <trkpt lat="45.17633" lon="5.80056">
        <ele>467.2</ele>
        <time>2021-04-10T06:25:56Z</time>
      </trkpt>
      <trkpt lat="45.17634" lon="5.80057">
        <ele>467.6</ele>
        <time>2021-04-10T06:25:57Z</time>
      </trkpt>
      <trkpt lat="45.17635" lon="5.80058">
        <ele>467.8</ele>
        <time>2021-04-10T06:25:58Z</time>
      </trkpt>
      <trkpt lat="45.17636" lon="5.80059">
        <ele>468.2</ele>
        <time>2021-04-10T06:25:59Z</time>
      </trkpt>
      <trkpt lat="45.17638" lon="5.80059">
        <ele>468.4</ele>
        <time>2021-04-10T06:26:00Z</time>
      </trkpt>
      <trkpt lat="45.17639" lon="5.8006">
        <ele>469</ele>
        <time>2021-04-10T06:26:01Z</time>
      </trkpt>
      <trkpt lat="45.1764" lon="5.80061">
        <ele>469.2</ele>
        <time>2021-04-10T06:26:02Z</time>
      </trkpt>
      <trkpt lat="45.17641" lon="5.80062">
        <ele>469.4</ele>
        <time>2021-04-10T06:26:03Z</time>
      </trkpt>
      <trkpt lat="45.17643" lon="5.80063">
        <ele>469.4</ele>
        <time>2021-04-10T06:26:04Z</time>
      </trkpt>
      <trkpt lat="45.17644" lon="5.80064">
        <ele>470</ele>
        <time>2021-04-10T06:26:05Z</time>
      </trkpt>
      <trkpt lat="45.17645" lon="5.80065">
        <ele>470.2</ele>
        <time>2021-04-10T06:26:06Z</time>
      </trkpt>
      <trkpt lat="45.17646" lon="5.80066">
        <ele>470.4</ele>
        <time>2021-04-10T06:26:07Z</time>
      </trkpt>
      <trkpt lat="45.17647" lon="5.80066">
        <ele>470.4</ele>
        <time>2021-04-10T06:26:08Z</time>
      </trkpt>
      <trkpt lat="45.17649" lon="5.80067">
        <ele>470.8</ele>
        <time>2021-04-10T06:26:09Z</time>
      </trkpt>
      <trkpt lat="45.1765" lon="5.80068">
        <ele>470.6</ele>
        <time>2021-04-10T06:26:10Z</time>
      </trkpt>
      <trkpt lat="45.17651" lon="5.80069">
        <ele>470.8</ele>
        <time>2021-04-10T06:26:11Z</time>
      </trkpt>
      <trkpt lat="45.17652" lon="5.8007">
        <ele>470.6</ele>
        <time>2021-04-10T06:26:12Z</time>
      </trkpt>
      <trkpt lat="45.17653" lon="5.80071">
        <ele>470.8</ele>
        <time>2021-04-10T06:26:13Z</time>
      </trkpt>
      <trkpt lat="45.17655" lon="5.80072">
        <ele>470.8</ele>
        <time>2021-04-10T06:26:14Z</time>
      </trkpt>
      <trkpt lat="45.17655" lon="5.80072">
        <ele>471</ele>
        <time>2021-04-10T06:26:15Z</time>
      </trkpt>
      <trkpt lat="45.17655" lon="5.80072">
        <ele>471.4</ele>
        <time>2021-04-10T06:26:16Z</time>
      </trkpt>
      <trkpt lat="45.17655" lon="5.80072">
        <ele>471.6</ele>
        <time>2021-04-10T06:26:17Z</time>
      </trkpt>
      <trkpt lat="45.17655" lon="5.80073">
        <ele>471.8</ele>
        <time>2021-04-10T06:26:18Z</time>
      </trkpt>
      <trkpt lat="45.17656" lon="5.80074">
        <ele>471.8</ele>
        <time>2021-04-10T06:26:19Z</time>
      </trkpt>
      <trkpt lat="45.17657" lon="5.80076">
        <ele>472.2</ele>
        <time>2021-04-10T06:26:20Z</time>
      </trkpt>
      <trkpt lat="45.17657" lon="5.80077">
        <ele>472.4</ele>
        <time>2021-04-10T06:26:21Z</time>
      </trkpt>
      <trkpt lat="45.17658" lon="5.80078">
        <ele>472.8</ele>
        <time>2021-04-10T06:26:22Z</time>
      </trkpt>
      <trkpt lat="45.17659" lon="5.8008">
        <ele>472.8</ele>
        <time>2021-04-10T06:26:23Z</time>
      </trkpt>
      <trkpt lat="45.17659" lon="5.80081">
        <ele>473.2</ele>
        <time>2021-04-10T06:26:24Z</time>
      </trkpt>
      <trkpt lat="45.1766" lon="5.80082">
        <ele>473.4</ele>
        <time>2021-04-10T06:26:25Z</time>
      </trkpt>
      <trkpt lat="45.17661" lon="5.80084">
        <ele>473.8</ele>
        <time>2021-04-10T06:26:26Z</time>
      </trkpt>
      <trkpt lat="45.17662" lon="5.80085">
        <ele>473.8</ele>
        <time>2021-04-10T06:26:27Z</time>
      </trkpt>
      <trkpt lat="45.17663" lon="5.80086">
        <ele>474.4</ele>
        <time>2021-04-10T06:26:28Z</time>
      </trkpt>
      <trkpt lat="45.17664" lon="5.80088">
        <ele>474.6</ele>
        <time>2021-04-10T06:26:29Z</time>
      </trkpt>
      <trkpt lat="45.17665" lon="5.80089">
        <ele>475</ele>
        <time>2021-04-10T06:26:30Z</time>
      </trkpt>
      <trkpt lat="45.17666" lon="5.8009">
        <ele>475</ele>
        <time>2021-04-10T06:26:31Z</time>
      </trkpt>
      <trkpt lat="45.17666" lon="5.80092">
        <ele>475.2</ele>
        <time>2021-04-10T06:26:32Z</time>
      </trkpt>
      <trkpt lat="45.17667" lon="5.80093">
        <ele>475</ele>
        <time>2021-04-10T06:26:33Z</time>
      </trkpt>
      <trkpt lat="45.17672" lon="5.80095">
        <ele>475.2</ele>
        <time>2021-04-10T06:26:34Z</time>
      </trkpt>
      <trkpt lat="45.17676" lon="5.80097">
        <ele>475.4</ele>
        <time>2021-04-10T06:26:35Z</time>
      </trkpt>
      <trkpt lat="45.1768" lon="5.801">
        <ele>475.6</ele>
        <time>2021-04-10T06:26:36Z</time>
      </trkpt>
      <trkpt lat="45.17684" lon="5.80102">
        <ele>475.6</ele>
        <time>2021-04-10T06:26:37Z</time>
      </trkpt>
      <trkpt lat="45.17688" lon="5.80104">
        <ele>475.8</ele>
        <time>2021-04-10T06:26:38Z</time>
      </trkpt>
      <trkpt lat="45.17688" lon="5.80104">
        <ele>475.8</ele>
        <time>2021-04-10T06:26:39Z</time>
      </trkpt>
      <trkpt lat="45.17688" lon="5.80104">
        <ele>476</ele>
        <time>2021-04-10T06:26:40Z</time>
      </trkpt>
      <trkpt lat="45.17688" lon="5.80104">
        <ele>476</ele>
        <time>2021-04-10T06:26:41Z</time>
      </trkpt>
      <trkpt lat="45.17688" lon="5.80104">
        <ele>476</ele>
        <time>2021-04-10T06:26:42Z</time>
      </trkpt>
      <trkpt lat="45.17691" lon="5.80106">
        <ele>476</ele>
        <time>2021-04-10T06:26:43Z</time>
      </trkpt>
      <trkpt lat="45.17694" lon="5.80108">
        <ele>476</ele>
        <time>2021-04-10T06:26:44Z</time>
      </trkpt>
      <trkpt lat="45.17697" lon="5.80109">
        <ele>476</ele>
        <time>2021-04-10T06:26:45Z</time>
      </trkpt>
      <trkpt lat="45.177" lon="5.80111">
        <ele>476.2</ele>
        <time>2021-04-10T06:26:46Z</time>
      </trkpt>
      <trkpt lat="45.17704" lon="5.80113">
        <ele>476.2</ele>
        <time>2021-04-10T06:26:47Z</time>
      </trkpt>
      <trkpt lat="45.17708" lon="5.80116">
        <ele>476.4</ele>
        <time>2021-04-10T06:26:48Z</time>
      </trkpt>
      <trkpt lat="45.17709" lon="5.80117">
        <ele>476.6</ele>
        <time>2021-04-10T06:26:49Z</time>
      </trkpt>
      <trkpt lat="45.1771" lon="5.80118">
        <ele>476.6</ele>
        <time>2021-04-10T06:26:50Z</time>
      </trkpt>
      <trkpt lat="45.17711" lon="5.8012">
        <ele>477</ele>
        <time>2021-04-10T06:26:51Z</time>
      </trkpt>
      <trkpt lat="45.17711" lon="5.80121">
        <ele>477</ele>
        <time>2021-04-10T06:26:52Z</time>
      </trkpt>
      <trkpt lat="45.17715" lon="5.80126">
        <ele>477.2</ele>
        <time>2021-04-10T06:26:53Z</time>
      </trkpt>
      <trkpt lat="45.17715" lon="5.80126">
        <ele>477.2</ele>
        <time>2021-04-10T06:26:54Z</time>
      </trkpt>
      <trkpt lat="45.17715" lon="5.80126">
        <ele>477.6</ele>
        <time>2021-04-10T06:26:55Z</time>
      </trkpt>
      <trkpt lat="45.17715" lon="5.80126">
        <ele>477.6</ele>
        <time>2021-04-10T06:26:56Z</time>
      </trkpt>
      <trkpt lat="45.17716" lon="5.80128">
        <ele>477.8</ele>
        <time>2021-04-10T06:26:57Z</time>
      </trkpt>
      <trkpt lat="45.17717" lon="5.80129">
        <ele>478</ele>
        <time>2021-04-10T06:26:58Z</time>
      </trkpt>
      <trkpt lat="45.17718" lon="5.80131">
        <ele>478.2</ele>
        <time>2021-04-10T06:26:59Z</time>
      </trkpt>
      <trkpt lat="45.17719" lon="5.80133">
        <ele>478.4</ele>
        <time>2021-04-10T06:27:00Z</time>
      </trkpt>
      <trkpt lat="45.17719" lon="5.80134">
        <ele>479</ele>
        <time>2021-04-10T06:27:01Z</time>
      </trkpt>
      <trkpt lat="45.1772" lon="5.80136">
        <ele>478.8</ele>
        <time>2021-04-10T06:27:02Z</time>
      </trkpt>
      <trkpt lat="45.17721" lon="5.80138">
        <ele>479.2</ele>
        <time>2021-04-10T06:27:03Z</time>
      </trkpt>
      <trkpt lat="45.17721" lon="5.80139">
        <ele>479.6</ele>
        <time>2021-04-10T06:27:04Z</time>
      </trkpt>
      <trkpt lat="45.17721" lon="5.80141">
        <ele>479.8</ele>
        <time>2021-04-10T06:27:05Z</time>
      </trkpt>
      <trkpt lat="45.17721" lon="5.80142">
        <ele>480</ele>
        <time>2021-04-10T06:27:06Z</time>
      </trkpt>
      <trkpt lat="45.17721" lon="5.80144">
        <ele>480.2</ele>
        <time>2021-04-10T06:27:07Z</time>
      </trkpt>
      <trkpt lat="45.17721" lon="5.80145">
        <ele>480.2</ele>
        <time>2021-04-10T06:27:08Z</time>
      </trkpt>
      <trkpt lat="45.17721" lon="5.80147">
        <ele>480.6</ele>
        <time>2021-04-10T06:27:09Z</time>
      </trkpt>
      <trkpt lat="45.17721" lon="5.80148">
        <ele>480.6</ele>
        <time>2021-04-10T06:27:10Z</time>
      </trkpt>
      <trkpt lat="45.17721" lon="5.8015">
        <ele>480.8</ele>
        <time>2021-04-10T06:27:11Z</time>
      </trkpt>
      <trkpt lat="45.17721" lon="5.80151">
        <ele>480.8</ele>
        <time>2021-04-10T06:27:12Z</time>
      </trkpt>
      <trkpt lat="45.17722" lon="5.80153">
        <ele>481.2</ele>
        <time>2021-04-10T06:27:13Z</time>
      </trkpt>
      <trkpt lat="45.17723" lon="5.80155">
        <ele>481.2</ele>
        <time>2021-04-10T06:27:14Z</time>
      </trkpt>
      <trkpt lat="45.17724" lon="5.80156">
        <ele>481.6</ele>
        <time>2021-04-10T06:27:15Z</time>
      </trkpt>
      <trkpt lat="45.17725" lon="5.80158">
        <ele>481.6</ele>
        <time>2021-04-10T06:27:16Z</time>
      </trkpt>
      <trkpt lat="45.17726" lon="5.8016">
        <ele>482</ele>
        <time>2021-04-10T06:27:17Z</time>
      </trkpt>
      <trkpt lat="45.17727" lon="5.80161">
        <ele>482.2</ele>
        <time>2021-04-10T06:27:18Z</time>
      </trkpt>
      <trkpt lat="45.17728" lon="5.80163">
        <ele>482.6</ele>
        <time>2021-04-10T06:27:19Z</time>
      </trkpt>
      <trkpt lat="45.1773" lon="5.80164">
        <ele>482.6</ele>
        <time>2021-04-10T06:27:20Z</time>
      </trkpt>
      <trkpt lat="45.17731" lon="5.80166">
        <ele>482.8</ele>
        <time>2021-04-10T06:27:21Z</time>
      </trkpt>
      <trkpt lat="45.17732" lon="5.80167">
        <ele>482.8</ele>
        <time>2021-04-10T06:27:22Z</time>
      </trkpt>
      <trkpt lat="45.17737" lon="5.8017">
        <ele>483</ele>
        <time>2021-04-10T06:27:23Z</time>
      </trkpt>
      <trkpt lat="45.17739" lon="5.80172">
        <ele>483.2</ele>
        <time>2021-04-10T06:27:24Z</time>
      </trkpt>
      <trkpt lat="45.17742" lon="5.80174">
        <ele>483.4</ele>
        <time>2021-04-10T06:27:25Z</time>
      </trkpt>
      <trkpt lat="45.17745" lon="5.80176">
        <ele>483.4</ele>
        <time>2021-04-10T06:27:26Z</time>
      </trkpt>
      <trkpt lat="45.17745" lon="5.80178">
        <ele>483.8</ele>
        <time>2021-04-10T06:27:27Z</time>
      </trkpt>
      <trkpt lat="45.17746" lon="5.80179">
        <ele>483.6</ele>
        <time>2021-04-10T06:27:28Z</time>
      </trkpt>
      <trkpt lat="45.17746" lon="5.80181">
        <ele>484</ele>
        <time>2021-04-10T06:27:29Z</time>
      </trkpt>
      <trkpt lat="45.17747" lon="5.80183">
        <ele>484</ele>
        <time>2021-04-10T06:27:30Z</time>
      </trkpt>
      <trkpt lat="45.17747" lon="5.80185">
        <ele>484.2</ele>
        <time>2021-04-10T06:27:31Z</time>
      </trkpt>
      <trkpt lat="45.17748" lon="5.80186">
        <ele>484.2</ele>
        <time>2021-04-10T06:27:32Z</time>
      </trkpt>
      <trkpt lat="45.17748" lon="5.80188">
        <ele>484.6</ele>
        <time>2021-04-10T06:27:33Z</time>
      </trkpt>
      <trkpt lat="45.17749" lon="5.8019">
        <ele>484.6</ele>
        <time>2021-04-10T06:27:34Z</time>
      </trkpt>
      <trkpt lat="45.17749" lon="5.80191">
        <ele>484.8</ele>
        <time>2021-04-10T06:27:35Z</time>
      </trkpt>
      <trkpt lat="45.1775" lon="5.80193">
        <ele>484.8</ele>
        <time>2021-04-10T06:27:36Z</time>
      </trkpt>
      <trkpt lat="45.1775" lon="5.80195">
        <ele>485</ele>
        <time>2021-04-10T06:27:37Z</time>
      </trkpt>
      <trkpt lat="45.17751" lon="5.80196">
        <ele>485</ele>
        <time>2021-04-10T06:27:38Z</time>
      </trkpt>
      <trkpt lat="45.17756" lon="5.80203">
        <ele>485.2</ele>
        <time>2021-04-10T06:27:39Z</time>
      </trkpt>
      <trkpt lat="45.17759" lon="5.80205">
        <ele>485</ele>
        <time>2021-04-10T06:27:40Z</time>
      </trkpt>
      <trkpt lat="45.17761" lon="5.80206">
        <ele>485.2</ele>
        <time>2021-04-10T06:27:41Z</time>
      </trkpt>
      <trkpt lat="45.17763" lon="5.80207">
        <ele>485.4</ele>
        <time>2021-04-10T06:27:42Z</time>
      </trkpt>
      <trkpt lat="45.17765" lon="5.80209">
        <ele>485.6</ele>
        <time>2021-04-10T06:27:43Z</time>
      </trkpt>
      <trkpt lat="45.17766" lon="5.80209">
        <ele>485.4</ele>
        <time>2021-04-10T06:27:44Z</time>
      </trkpt>
      <trkpt lat="45.17768" lon="5.8021">
        <ele>485.8</ele>
        <time>2021-04-10T06:27:45Z</time>
      </trkpt>
      <trkpt lat="45.17773" lon="5.80212">
        <ele>485.8</ele>
        <time>2021-04-10T06:27:46Z</time>
      </trkpt>
      <trkpt lat="45.17773" lon="5.80212">
        <ele>486.2</ele>
        <time>2021-04-10T06:27:47Z</time>
      </trkpt>
      <trkpt lat="45.17773" lon="5.80212">
        <ele>486</ele>
        <time>2021-04-10T06:27:48Z</time>
      </trkpt>
      <trkpt lat="45.17773" lon="5.80212">
        <ele>486.4</ele>
        <time>2021-04-10T06:27:49Z</time>
      </trkpt>
      <trkpt lat="45.17774" lon="5.80214">
        <ele>486.2</ele>
        <time>2021-04-10T06:27:50Z</time>
      </trkpt>
      <trkpt lat="45.17775" lon="5.80216">
        <ele>486.4</ele>
        <time>2021-04-10T06:27:51Z</time>
      </trkpt>
      <trkpt lat="45.17778" lon="5.80221">
        <ele>486.4</ele>
        <time>2021-04-10T06:27:52Z</time>
      </trkpt>
      <trkpt lat="45.1778" lon="5.80223">
        <ele>486.4</ele>
        <time>2021-04-10T06:27:53Z</time>
      </trkpt>
      <trkpt lat="45.17782" lon="5.80226">
        <ele>486.4</ele>
        <time>2021-04-10T06:27:54Z</time>
      </trkpt>
      <trkpt lat="45.17785" lon="5.80228">
        <ele>486.6</ele>
        <time>2021-04-10T06:27:55Z</time>
      </trkpt>
      <trkpt lat="45.17787" lon="5.80231">
        <ele>486.8</ele>
        <time>2021-04-10T06:27:56Z</time>
      </trkpt>
      <trkpt lat="45.17787" lon="5.80231">
        <ele>487</ele>
        <time>2021-04-10T06:27:57Z</time>
      </trkpt>
      <trkpt lat="45.17787" lon="5.80231">
        <ele>486.8</ele>
        <time>2021-04-10T06:27:58Z</time>
      </trkpt>
      <trkpt lat="45.17787" lon="5.80231">
        <ele>486.8</ele>
        <time>2021-04-10T06:27:59Z</time>
      </trkpt>
      <trkpt lat="45.17789" lon="5.80232">
        <ele>486.8</ele>
        <time>2021-04-10T06:28:00Z</time>
      </trkpt>
      <trkpt lat="45.1779" lon="5.80233">
        <ele>486.8</ele>
        <time>2021-04-10T06:28:01Z</time>
      </trkpt>
      <trkpt lat="45.17792" lon="5.80235">
        <ele>487</ele>
        <time>2021-04-10T06:28:02Z</time>
      </trkpt>
      <trkpt lat="45.17794" lon="5.80236">
        <ele>487</ele>
        <time>2021-04-10T06:28:03Z</time>
      </trkpt>
      <trkpt lat="45.17796" lon="5.80237">
        <ele>487</ele>
        <time>2021-04-10T06:28:04Z</time>
      </trkpt>
      <trkpt lat="45.17798" lon="5.80239">
        <ele>487</ele>
        <time>2021-04-10T06:28:05Z</time>
      </trkpt>
      <trkpt lat="45.178" lon="5.80241">
        <ele>487.2</ele>
        <time>2021-04-10T06:28:06Z</time>
      </trkpt>
      <trkpt lat="45.17803" lon="5.80243">
        <ele>487.2</ele>
        <time>2021-04-10T06:28:07Z</time>
      </trkpt>
      <trkpt lat="45.17805" lon="5.80245">
        <ele>487.6</ele>
        <time>2021-04-10T06:28:08Z</time>
      </trkpt>
      <trkpt lat="45.17807" lon="5.80247">
        <ele>487.6</ele>
        <time>2021-04-10T06:28:09Z</time>
      </trkpt>
      <trkpt lat="45.17809" lon="5.80249">
        <ele>488</ele>
        <time>2021-04-10T06:28:10Z</time>
      </trkpt>
      <trkpt lat="45.17813" lon="5.80252">
        <ele>488.2</ele>
        <time>2021-04-10T06:28:11Z</time>
      </trkpt>
      <trkpt lat="45.17813" lon="5.80252">
        <ele>488.6</ele>
        <time>2021-04-10T06:28:12Z</time>
      </trkpt>
      <trkpt lat="45.17813" lon="5.80252">
        <ele>488.4</ele>
        <time>2021-04-10T06:28:13Z</time>
      </trkpt>
      <trkpt lat="45.17813" lon="5.80252">
        <ele>488.6</ele>
        <time>2021-04-10T06:28:14Z</time>
      </trkpt>
      <trkpt lat="45.17815" lon="5.80254">
        <ele>488.4</ele>
        <time>2021-04-10T06:28:15Z</time>
      </trkpt>
      <trkpt lat="45.17817" lon="5.80256">
        <ele>488.4</ele>
        <time>2021-04-10T06:28:16Z</time>
      </trkpt>
      <trkpt lat="45.17818" lon="5.80258">
        <ele>488.4</ele>
        <time>2021-04-10T06:28:17Z</time>
      </trkpt>
      <trkpt lat="45.1782" lon="5.8026">
        <ele>488.2</ele>
        <time>2021-04-10T06:28:18Z</time>
      </trkpt>
      <trkpt lat="45.17821" lon="5.80262">
        <ele>488.2</ele>
        <time>2021-04-10T06:28:19Z</time>
      </trkpt>
      <trkpt lat="45.17823" lon="5.80265">
        <ele>488</ele>
        <time>2021-04-10T06:28:20Z</time>
      </trkpt>
      <trkpt lat="45.17825" lon="5.80267">
        <ele>488</ele>
        <time>2021-04-10T06:28:21Z</time>
      </trkpt>
      <trkpt lat="45.17826" lon="5.80269">
        <ele>487.8</ele>
        <time>2021-04-10T06:28:22Z</time>
      </trkpt>
      <trkpt lat="45.17828" lon="5.80271">
        <ele>488</ele>
        <time>2021-04-10T06:28:23Z</time>
      </trkpt>
      <trkpt lat="45.1783" lon="5.80273">
        <ele>487.8</ele>
        <time>2021-04-10T06:28:24Z</time>
      </trkpt>
      <trkpt lat="45.17831" lon="5.80276">
        <ele>488.2</ele>
        <time>2021-04-10T06:28:25Z</time>
      </trkpt>
      <trkpt lat="45.17833" lon="5.80278">
        <ele>488.2</ele>
        <time>2021-04-10T06:28:26Z</time>
      </trkpt>
      <trkpt lat="45.17834" lon="5.80281">
        <ele>488.4</ele>
        <time>2021-04-10T06:28:27Z</time>
      </trkpt>
      <trkpt lat="45.17836" lon="5.80283">
        <ele>488.2</ele>
        <time>2021-04-10T06:28:28Z</time>
      </trkpt>
      <trkpt lat="45.17837" lon="5.80286">
        <ele>488.2</ele>
        <time>2021-04-10T06:28:29Z</time>
      </trkpt>
      <trkpt lat="45.17839" lon="5.80288">
        <ele>488.2</ele>
        <time>2021-04-10T06:28:30Z</time>
      </trkpt>
      <trkpt lat="45.1784" lon="5.8029">
        <ele>488.6</ele>
        <time>2021-04-10T06:28:31Z</time>
      </trkpt>
      <trkpt lat="45.17842" lon="5.80292">
        <ele>488.4</ele>
        <time>2021-04-10T06:28:32Z</time>
      </trkpt>
      <trkpt lat="45.17843" lon="5.80294">
        <ele>488.4</ele>
        <time>2021-04-10T06:28:33Z</time>
      </trkpt>
      <trkpt lat="45.17845" lon="5.80296">
        <ele>488.2</ele>
        <time>2021-04-10T06:28:34Z</time>
      </trkpt>
      <trkpt lat="45.17845" lon="5.80299">
        <ele>488.2</ele>
        <time>2021-04-10T06:28:35Z</time>
      </trkpt>
      <trkpt lat="45.17846" lon="5.80301">
        <ele>488</ele>
        <time>2021-04-10T06:28:36Z</time>
      </trkpt>
      <trkpt lat="45.17846" lon="5.80304">
        <ele>488.2</ele>
        <time>2021-04-10T06:28:37Z</time>
      </trkpt>
      <trkpt lat="45.17847" lon="5.80306">
        <ele>488.2</ele>
        <time>2021-04-10T06:28:38Z</time>
      </trkpt>
      <trkpt lat="45.17848" lon="5.80309">
        <ele>488.4</ele>
        <time>2021-04-10T06:28:39Z</time>
      </trkpt>
      <trkpt lat="45.1785" lon="5.80313">
        <ele>488.2</ele>
        <time>2021-04-10T06:28:40Z</time>
      </trkpt>
      <trkpt lat="45.17852" lon="5.80318">
        <ele>488.6</ele>
        <time>2021-04-10T06:28:41Z</time>
      </trkpt>
      <trkpt lat="45.17855" lon="5.80322">
        <ele>488.4</ele>
        <time>2021-04-10T06:28:42Z</time>
      </trkpt>
      <trkpt lat="45.17857" lon="5.80326">
        <ele>488.6</ele>
        <time>2021-04-10T06:28:43Z</time>
      </trkpt>
      <trkpt lat="45.17859" lon="5.8033">
        <ele>488.6</ele>
        <time>2021-04-10T06:28:44Z</time>
      </trkpt>
      <trkpt lat="45.17859" lon="5.8033">
        <ele>488.8</ele>
        <time>2021-04-10T06:28:45Z</time>
      </trkpt>
      <trkpt lat="45.17859" lon="5.8033">
        <ele>488.6</ele>
        <time>2021-04-10T06:28:46Z</time>
      </trkpt>
      <trkpt lat="45.17859" lon="5.8033">
        <ele>488.8</ele>
        <time>2021-04-10T06:28:47Z</time>
      </trkpt>
      <trkpt lat="45.17859" lon="5.8033">
        <ele>488.8</ele>
        <time>2021-04-10T06:28:48Z</time>
      </trkpt>
      <trkpt lat="45.17862" lon="5.80333">
        <ele>489</ele>
        <time>2021-04-10T06:28:49Z</time>
      </trkpt>
      <trkpt lat="45.17865" lon="5.80336">
        <ele>489</ele>
        <time>2021-04-10T06:28:50Z</time>
      </trkpt>
      <trkpt lat="45.17867" lon="5.80339">
        <ele>489</ele>
        <time>2021-04-10T06:28:51Z</time>
      </trkpt>
      <trkpt lat="45.1787" lon="5.80342">
        <ele>488.8</ele>
        <time>2021-04-10T06:28:52Z</time>
      </trkpt>
      <trkpt lat="45.17872" lon="5.80345">
        <ele>489</ele>
        <time>2021-04-10T06:28:53Z</time>
      </trkpt>
      <trkpt lat="45.17876" lon="5.80349">
        <ele>489</ele>
        <time>2021-04-10T06:28:54Z</time>
      </trkpt>
      <trkpt lat="45.17877" lon="5.80351">
        <ele>489.2</ele>
        <time>2021-04-10T06:28:55Z</time>
      </trkpt>
      <trkpt lat="45.17878" lon="5.80353">
        <ele>489</ele>
        <time>2021-04-10T06:28:56Z</time>
      </trkpt>
      <trkpt lat="45.17879" lon="5.80355">
        <ele>489</ele>
        <time>2021-04-10T06:28:57Z</time>
      </trkpt>
      <trkpt lat="45.17881" lon="5.80357">
        <ele>488.8</ele>
        <time>2021-04-10T06:28:58Z</time>
      </trkpt>
      <trkpt lat="45.17882" lon="5.80358">
        <ele>488.8</ele>
        <time>2021-04-10T06:28:59Z</time>
      </trkpt>
      <trkpt lat="45.17883" lon="5.8036">
        <ele>488.8</ele>
        <time>2021-04-10T06:29:00Z</time>
      </trkpt>
      <trkpt lat="45.17884" lon="5.80362">
        <ele>488.6</ele>
        <time>2021-04-10T06:29:01Z</time>
      </trkpt>
      <trkpt lat="45.17885" lon="5.80364">
        <ele>488.6</ele>
        <time>2021-04-10T06:29:02Z</time>
      </trkpt>
      <trkpt lat="45.17886" lon="5.80366">
        <ele>488.4</ele>
        <time>2021-04-10T06:29:03Z</time>
      </trkpt>
      <trkpt lat="45.17887" lon="5.80367">
        <ele>488.4</ele>
        <time>2021-04-10T06:29:04Z</time>
      </trkpt>
      <trkpt lat="45.17888" lon="5.80369">
        <ele>488.2</ele>
        <time>2021-04-10T06:29:05Z</time>
      </trkpt>
      <trkpt lat="45.17889" lon="5.80371">
        <ele>488.2</ele>
        <time>2021-04-10T06:29:06Z</time>
      </trkpt>
      <trkpt lat="45.1789" lon="5.80373">
        <ele>488</ele>
        <time>2021-04-10T06:29:07Z</time>
      </trkpt>
      <trkpt lat="45.17892" lon="5.80375">
        <ele>488.2</ele>
        <time>2021-04-10T06:29:08Z</time>
      </trkpt>
      <trkpt lat="45.17893" lon="5.80376">
        <ele>488</ele>
        <time>2021-04-10T06:29:09Z</time>
      </trkpt>
      <trkpt lat="45.17894" lon="5.80378">
        <ele>488.2</ele>
        <time>2021-04-10T06:29:10Z</time>
      </trkpt>
      <trkpt lat="45.17894" lon="5.80378">
        <ele>488</ele>
        <time>2021-04-10T06:29:11Z</time>
      </trkpt>
      <trkpt lat="45.17894" lon="5.80378">
        <ele>488.4</ele>
        <time>2021-04-10T06:29:12Z</time>
      </trkpt>
      <trkpt lat="45.17894" lon="5.80378">
        <ele>488</ele>
        <time>2021-04-10T06:29:13Z</time>
      </trkpt>
      <trkpt lat="45.17896" lon="5.8038">
        <ele>488.2</ele>
        <time>2021-04-10T06:29:14Z</time>
      </trkpt>
      <trkpt lat="45.17898" lon="5.80382">
        <ele>488</ele>
        <time>2021-04-10T06:29:15Z</time>
      </trkpt>
      <trkpt lat="45.179" lon="5.80384">
        <ele>488.2</ele>
        <time>2021-04-10T06:29:16Z</time>
      </trkpt>
      <trkpt lat="45.17903" lon="5.80386">
        <ele>488</ele>
        <time>2021-04-10T06:29:17Z</time>
      </trkpt>
      <trkpt lat="45.17905" lon="5.80388">
        <ele>488.4</ele>
        <time>2021-04-10T06:29:18Z</time>
      </trkpt>
      <trkpt lat="45.17907" lon="5.8039">
        <ele>488.2</ele>
        <time>2021-04-10T06:29:19Z</time>
      </trkpt>
      <trkpt lat="45.17912" lon="5.80394">
        <ele>488.4</ele>
        <time>2021-04-10T06:29:20Z</time>
      </trkpt>
      <trkpt lat="45.17913" lon="5.80396">
        <ele>488.2</ele>
        <time>2021-04-10T06:29:21Z</time>
      </trkpt>
      <trkpt lat="45.17915" lon="5.80399">
        <ele>488.4</ele>
        <time>2021-04-10T06:29:22Z</time>
      </trkpt>
      <trkpt lat="45.17917" lon="5.80401">
        <ele>488.4</ele>
        <time>2021-04-10T06:29:23Z</time>
      </trkpt>
      <trkpt lat="45.17918" lon="5.80403">
        <ele>488.4</ele>
        <time>2021-04-10T06:29:24Z</time>
      </trkpt>
      <trkpt lat="45.17918" lon="5.80403">
        <ele>488.2</ele>
        <time>2021-04-10T06:29:25Z</time>
      </trkpt>
      <trkpt lat="45.17918" lon="5.80403">
        <ele>488.4</ele>
        <time>2021-04-10T06:29:26Z</time>
      </trkpt>
      <trkpt lat="45.17918" lon="5.80403">
        <ele>488.2</ele>
        <time>2021-04-10T06:29:27Z</time>
      </trkpt>
      <trkpt lat="45.17919" lon="5.80406">
        <ele>488.4</ele>
        <time>2021-04-10T06:29:28Z</time>
      </trkpt>
      <trkpt lat="45.1792" lon="5.80408">
        <ele>488.2</ele>
        <time>2021-04-10T06:29:29Z</time>
      </trkpt>
      <trkpt lat="45.1792" lon="5.8041">
        <ele>488.4</ele>
        <time>2021-04-10T06:29:30Z</time>
      </trkpt>
      <trkpt lat="45.17921" lon="5.80413">
        <ele>488.4</ele>
        <time>2021-04-10T06:29:31Z</time>
      </trkpt>
      <trkpt lat="45.17922" lon="5.80415">
        <ele>488.6</ele>
        <time>2021-04-10T06:29:32Z</time>
      </trkpt>
      <trkpt lat="45.17923" lon="5.80418">
        <ele>488.2</ele>
        <time>2021-04-10T06:29:33Z</time>
      </trkpt>
      <trkpt lat="45.17923" lon="5.8042">
        <ele>488.4</ele>
        <time>2021-04-10T06:29:34Z</time>
      </trkpt>
      <trkpt lat="45.17924" lon="5.80423">
        <ele>488.2</ele>
        <time>2021-04-10T06:29:35Z</time>
      </trkpt>
      <trkpt lat="45.17924" lon="5.80425">
        <ele>488.4</ele>
        <time>2021-04-10T06:29:36Z</time>
      </trkpt>
      <trkpt lat="45.17925" lon="5.80428">
        <ele>488.4</ele>
        <time>2021-04-10T06:29:37Z</time>
      </trkpt>
      <trkpt lat="45.17925" lon="5.8043">
        <ele>488.4</ele>
        <time>2021-04-10T06:29:38Z</time>
      </trkpt>
      <trkpt lat="45.17926" lon="5.80433">
        <ele>488.4</ele>
        <time>2021-04-10T06:29:39Z</time>
      </trkpt>
      <trkpt lat="45.17926" lon="5.80435">
        <ele>488.4</ele>
        <time>2021-04-10T06:29:40Z</time>
      </trkpt>
      <trkpt lat="45.17927" lon="5.80438">
        <ele>488.2</ele>
        <time>2021-04-10T06:29:41Z</time>
      </trkpt>
      <trkpt lat="45.17927" lon="5.80441">
        <ele>488.4</ele>
        <time>2021-04-10T06:29:42Z</time>
      </trkpt>
      <trkpt lat="45.17928" lon="5.80444">
        <ele>488.2</ele>
        <time>2021-04-10T06:29:43Z</time>
      </trkpt>
      <trkpt lat="45.17929" lon="5.80446">
        <ele>488.6</ele>
        <time>2021-04-10T06:29:44Z</time>
      </trkpt>
      <trkpt lat="45.1793" lon="5.80448">
        <ele>488.4</ele>
        <time>2021-04-10T06:29:45Z</time>
      </trkpt>
      <trkpt lat="45.17931" lon="5.8045">
        <ele>488.6</ele>
        <time>2021-04-10T06:29:46Z</time>
      </trkpt>
      <trkpt lat="45.17932" lon="5.80452">
        <ele>488.4</ele>
        <time>2021-04-10T06:29:47Z</time>
      </trkpt>
      <trkpt lat="45.17933" lon="5.80454">
        <ele>488.6</ele>
        <time>2021-04-10T06:29:48Z</time>
      </trkpt>
      <trkpt lat="45.17934" lon="5.80456">
        <ele>488.6</ele>
        <time>2021-04-10T06:29:49Z</time>
      </trkpt>
      <trkpt lat="45.17935" lon="5.80458">
        <ele>488.6</ele>
        <time>2021-04-10T06:29:50Z</time>
      </trkpt>
      <trkpt lat="45.17936" lon="5.8046">
        <ele>488.6</ele>
        <time>2021-04-10T06:29:51Z</time>
      </trkpt>
      <trkpt lat="45.17937" lon="5.80462">
        <ele>488.8</ele>
        <time>2021-04-10T06:29:52Z</time>
      </trkpt>
      <trkpt lat="45.17938" lon="5.80464">
        <ele>488.8</ele>
        <time>2021-04-10T06:29:53Z</time>
      </trkpt>
      <trkpt lat="45.17941" lon="5.8047">
        <ele>488.8</ele>
        <time>2021-04-10T06:29:54Z</time>
      </trkpt>
      <trkpt lat="45.17943" lon="5.80474">
        <ele>488.6</ele>
        <time>2021-04-10T06:29:55Z</time>
      </trkpt>
      <trkpt lat="45.17944" lon="5.80478">
        <ele>488.6</ele>
        <time>2021-04-10T06:29:56Z</time>
      </trkpt>
      <trkpt lat="45.17944" lon="5.80478">
        <ele>488.6</ele>
        <time>2021-04-10T06:29:57Z</time>
      </trkpt>
      <trkpt lat="45.17944" lon="5.80478">
        <ele>488.8</ele>
        <time>2021-04-10T06:29:58Z</time>
      </trkpt>
      <trkpt lat="45.17944" lon="5.80478">
        <ele>488.8</ele>
        <time>2021-04-10T06:29:59Z</time>
      </trkpt>
      <trkpt lat="45.17951" lon="5.80487">
        <ele>488.8</ele>
        <time>2021-04-10T06:30:01Z</time>
      </trkpt>
      <trkpt lat="45.17951" lon="5.80487">
        <ele>489</ele>
        <time>2021-04-10T06:30:02Z</time>
      </trkpt>
      <trkpt lat="45.17951" lon="5.80487">
        <ele>489.2</ele>
        <time>2021-04-10T06:30:04Z</time>
      </trkpt>
      <trkpt lat="45.17952" lon="5.80489">
        <ele>489.4</ele>
        <time>2021-04-10T06:30:05Z</time>
      </trkpt>
      <trkpt lat="45.17954" lon="5.80491">
        <ele>489.6</ele>
        <time>2021-04-10T06:30:06Z</time>
      </trkpt>
      <trkpt lat="45.17955" lon="5.80493">
        <ele>489.8</ele>
        <time>2021-04-10T06:30:07Z</time>
      </trkpt>
      <trkpt lat="45.17957" lon="5.80495">
        <ele>489.8</ele>
        <time>2021-04-10T06:30:08Z</time>
      </trkpt>
      <trkpt lat="45.17959" lon="5.80496">
        <ele>489.6</ele>
        <time>2021-04-10T06:30:09Z</time>
      </trkpt>
      <trkpt lat="45.17961" lon="5.805">
        <ele>489.8</ele>
        <time>2021-04-10T06:30:10Z</time>
      </trkpt>
      <trkpt lat="45.17963" lon="5.80503">
        <ele>489.6</ele>
        <time>2021-04-10T06:30:11Z</time>
      </trkpt>
      <trkpt lat="45.17965" lon="5.80506">
        <ele>489.8</ele>
        <time>2021-04-10T06:30:12Z</time>
      </trkpt>
      <trkpt lat="45.17968" lon="5.80509">
        <ele>489.8</ele>
        <time>2021-04-10T06:30:13Z</time>
      </trkpt>
      <trkpt lat="45.1797" lon="5.80512">
        <ele>490</ele>
        <time>2021-04-10T06:30:14Z</time>
      </trkpt>
      <trkpt lat="45.17976" lon="5.80518">
        <ele>489.8</ele>
        <time>2021-04-10T06:30:15Z</time>
      </trkpt>
      <trkpt lat="45.17978" lon="5.80521">
        <ele>490.2</ele>
        <time>2021-04-10T06:30:16Z</time>
      </trkpt>
      <trkpt lat="45.1798" lon="5.80523">
        <ele>490.2</ele>
        <time>2021-04-10T06:30:17Z</time>
      </trkpt>
      <trkpt lat="45.17982" lon="5.80525">
        <ele>490.2</ele>
        <time>2021-04-10T06:30:18Z</time>
      </trkpt>
      <trkpt lat="45.17984" lon="5.80527">
        <ele>489.8</ele>
        <time>2021-04-10T06:30:19Z</time>
      </trkpt>
      <trkpt lat="45.17985" lon="5.80528">
        <ele>490</ele>
        <time>2021-04-10T06:30:20Z</time>
      </trkpt>
      <trkpt lat="45.17987" lon="5.8053">
        <ele>489.6</ele>
        <time>2021-04-10T06:30:21Z</time>
      </trkpt>
      <trkpt lat="45.17988" lon="5.80531">
        <ele>489.8</ele>
        <time>2021-04-10T06:30:22Z</time>
      </trkpt>
      <trkpt lat="45.1799" lon="5.80533">
        <ele>489.8</ele>
        <time>2021-04-10T06:30:23Z</time>
      </trkpt>
      <trkpt lat="45.17991" lon="5.80535">
        <ele>489.4</ele>
        <time>2021-04-10T06:30:24Z</time>
      </trkpt>
      <trkpt lat="45.17993" lon="5.80538">
        <ele>489.2</ele>
        <time>2021-04-10T06:30:25Z</time>
      </trkpt>
      <trkpt lat="45.17994" lon="5.8054">
        <ele>489</ele>
        <time>2021-04-10T06:30:26Z</time>
      </trkpt>
      <trkpt lat="45.17996" lon="5.80542">
        <ele>488.6</ele>
        <time>2021-04-10T06:30:27Z</time>
      </trkpt>
      <trkpt lat="45.17996" lon="5.80542">
        <ele>488.4</ele>
        <time>2021-04-10T06:30:28Z</time>
      </trkpt>
      <trkpt lat="45.17996" lon="5.80542">
        <ele>488</ele>
        <time>2021-04-10T06:30:29Z</time>
      </trkpt>
      <trkpt lat="45.17996" lon="5.80542">
        <ele>487.4</ele>
        <time>2021-04-10T06:30:30Z</time>
      </trkpt>
      <trkpt lat="45.17999" lon="5.80545">
        <ele>487.2</ele>
        <time>2021-04-10T06:30:31Z</time>
      </trkpt>
      <trkpt lat="45.18002" lon="5.80549">
        <ele>486.8</ele>
        <time>2021-04-10T06:30:32Z</time>
      </trkpt>
      <trkpt lat="45.18005" lon="5.80552">
        <ele>486.2</ele>
        <time>2021-04-10T06:30:33Z</time>
      </trkpt>
      <trkpt lat="45.18007" lon="5.80555">
        <ele>485.8</ele>
        <time>2021-04-10T06:30:34Z</time>
      </trkpt>
      <trkpt lat="45.1801" lon="5.80558">
        <ele>485.6</ele>
        <time>2021-04-10T06:30:35Z</time>
      </trkpt>
      <trkpt lat="45.18012" lon="5.8056">
        <ele>485.6</ele>
        <time>2021-04-10T06:30:36Z</time>
      </trkpt>
      <trkpt lat="45.18013" lon="5.80562">
        <ele>485.2</ele>
        <time>2021-04-10T06:30:37Z</time>
      </trkpt>
      <trkpt lat="45.18014" lon="5.80563">
        <ele>485</ele>
        <time>2021-04-10T06:30:38Z</time>
      </trkpt>
      <trkpt lat="45.18015" lon="5.80565">
        <ele>485</ele>
        <time>2021-04-10T06:30:39Z</time>
      </trkpt>
      <trkpt lat="45.1802" lon="5.80572">
        <ele>484.6</ele>
        <time>2021-04-10T06:30:40Z</time>
      </trkpt>
      <trkpt lat="45.18022" lon="5.80575">
        <ele>484.6</ele>
        <time>2021-04-10T06:30:41Z</time>
      </trkpt>
      <trkpt lat="45.18024" lon="5.80578">
        <ele>484.4</ele>
        <time>2021-04-10T06:30:42Z</time>
      </trkpt>
      <trkpt lat="45.18025" lon="5.8058">
        <ele>484.6</ele>
        <time>2021-04-10T06:30:43Z</time>
      </trkpt>
      <trkpt lat="45.18027" lon="5.80581">
        <ele>484.4</ele>
        <time>2021-04-10T06:30:44Z</time>
      </trkpt>
      <trkpt lat="45.18028" lon="5.80583">
        <ele>484.4</ele>
        <time>2021-04-10T06:30:45Z</time>
      </trkpt>
      <trkpt lat="45.18029" lon="5.80585">
        <ele>484.2</ele>
        <time>2021-04-10T06:30:46Z</time>
      </trkpt>
      <trkpt lat="45.1803" lon="5.80587">
        <ele>484.4</ele>
        <time>2021-04-10T06:30:47Z</time>
      </trkpt>
      <trkpt lat="45.18035" lon="5.80594">
        <ele>484</ele>
        <time>2021-04-10T06:30:48Z</time>
      </trkpt>
      <trkpt lat="45.18037" lon="5.80596">
        <ele>484.4</ele>
        <time>2021-04-10T06:30:49Z</time>
      </trkpt>
      <trkpt lat="45.18039" lon="5.80598">
        <ele>484.2</ele>
        <time>2021-04-10T06:30:50Z</time>
      </trkpt>
      <trkpt lat="45.18041" lon="5.806">
        <ele>484</ele>
        <time>2021-04-10T06:30:51Z</time>
      </trkpt>
      <trkpt lat="45.18043" lon="5.80602">
        <ele>483.6</ele>
        <time>2021-04-10T06:30:52Z</time>
      </trkpt>
      <trkpt lat="45.18045" lon="5.80604">
        <ele>483.6</ele>
        <time>2021-04-10T06:30:53Z</time>
      </trkpt>
      <trkpt lat="45.18047" lon="5.80605">
        <ele>483.2</ele>
        <time>2021-04-10T06:30:54Z</time>
      </trkpt>
      <trkpt lat="45.1805" lon="5.80607">
        <ele>483.4</ele>
        <time>2021-04-10T06:30:55Z</time>
      </trkpt>
      <trkpt lat="45.18053" lon="5.8061">
        <ele>483</ele>
        <time>2021-04-10T06:30:56Z</time>
      </trkpt>
      <trkpt lat="45.18056" lon="5.80612">
        <ele>483</ele>
        <time>2021-04-10T06:30:57Z</time>
      </trkpt>
      <trkpt lat="45.18059" lon="5.80614">
        <ele>482.6</ele>
        <time>2021-04-10T06:30:58Z</time>
      </trkpt>
      <trkpt lat="45.18062" lon="5.80616">
        <ele>482.4</ele>
        <time>2021-04-10T06:30:59Z</time>
      </trkpt>
      <trkpt lat="45.18064" lon="5.80618">
        <ele>482.2</ele>
        <time>2021-04-10T06:31:00Z</time>
      </trkpt>
      <trkpt lat="45.18067" lon="5.80622">
        <ele>481.6</ele>
        <time>2021-04-10T06:31:01Z</time>
      </trkpt>
      <trkpt lat="45.18069" lon="5.80625">
        <ele>481.6</ele>
        <time>2021-04-10T06:31:02Z</time>
      </trkpt>
      <trkpt lat="45.18072" lon="5.80629">
        <ele>481.2</ele>
        <time>2021-04-10T06:31:03Z</time>
      </trkpt>
      <trkpt lat="45.18073" lon="5.8063">
        <ele>481.2</ele>
        <time>2021-04-10T06:31:04Z</time>
      </trkpt>
      <trkpt lat="45.18074" lon="5.80632">
        <ele>480.8</ele>
        <time>2021-04-10T06:31:05Z</time>
      </trkpt>
      <trkpt lat="45.18076" lon="5.80633">
        <ele>480.6</ele>
        <time>2021-04-10T06:31:06Z</time>
      </trkpt>
      <trkpt lat="45.18079" lon="5.80637">
        <ele>480.2</ele>
        <time>2021-04-10T06:31:07Z</time>
      </trkpt>
      <trkpt lat="45.18081" lon="5.80639">
        <ele>479.6</ele>
        <time>2021-04-10T06:31:08Z</time>
      </trkpt>
      <trkpt lat="45.18083" lon="5.80641">
        <ele>479</ele>
        <time>2021-04-10T06:31:09Z</time>
      </trkpt>
      <trkpt lat="45.18085" lon="5.80643">
        <ele>478.6</ele>
        <time>2021-04-10T06:31:10Z</time>
      </trkpt>
      <trkpt lat="45.18091" lon="5.80649">
        <ele>478.6</ele>
        <time>2021-04-10T06:31:11Z</time>
      </trkpt>
      <trkpt lat="45.18094" lon="5.80653">
        <ele>478</ele>
        <time>2021-04-10T06:31:12Z</time>
      </trkpt>
      <trkpt lat="45.18096" lon="5.80656">
        <ele>477.8</ele>
        <time>2021-04-10T06:31:13Z</time>
      </trkpt>
      <trkpt lat="45.18098" lon="5.80659">
        <ele>477.2</ele>
        <time>2021-04-10T06:31:14Z</time>
      </trkpt>
      <trkpt lat="45.18101" lon="5.80662">
        <ele>476.6</ele>
        <time>2021-04-10T06:31:15Z</time>
      </trkpt>
      <trkpt lat="45.18103" lon="5.80665">
        <ele>476</ele>
        <time>2021-04-10T06:31:16Z</time>
      </trkpt>
      <trkpt lat="45.18104" lon="5.80667">
        <ele>475.4</ele>
        <time>2021-04-10T06:31:17Z</time>
      </trkpt>
      <trkpt lat="45.18106" lon="5.8067">
        <ele>475.2</ele>
        <time>2021-04-10T06:31:18Z</time>
      </trkpt>
      <trkpt lat="45.18107" lon="5.80671">
        <ele>474.8</ele>
        <time>2021-04-10T06:31:19Z</time>
      </trkpt>
      <trkpt lat="45.18108" lon="5.80673">
        <ele>475</ele>
        <time>2021-04-10T06:31:20Z</time>
      </trkpt>
      <trkpt lat="45.18108" lon="5.80674">
        <ele>474.6</ele>
        <time>2021-04-10T06:31:21Z</time>
      </trkpt>
      <trkpt lat="45.18111" lon="5.80679">
        <ele>474.6</ele>
        <time>2021-04-10T06:31:22Z</time>
      </trkpt>
      <trkpt lat="45.18112" lon="5.80681">
        <ele>474.4</ele>
        <time>2021-04-10T06:31:23Z</time>
      </trkpt>
      <trkpt lat="45.18113" lon="5.80683">
        <ele>474.6</ele>
        <time>2021-04-10T06:31:24Z</time>
      </trkpt>
      <trkpt lat="45.18114" lon="5.80685">
        <ele>474.2</ele>
        <time>2021-04-10T06:31:25Z</time>
      </trkpt>
      <trkpt lat="45.18114" lon="5.80686">
        <ele>474.4</ele>
        <time>2021-04-10T06:31:26Z</time>
      </trkpt>
      <trkpt lat="45.18118" lon="5.80693">
        <ele>474.4</ele>
        <time>2021-04-10T06:31:27Z</time>
      </trkpt>
      <trkpt lat="45.18118" lon="5.80693">
        <ele>474.4</ele>
        <time>2021-04-10T06:31:28Z</time>
      </trkpt>
      <trkpt lat="45.18118" lon="5.80693">
        <ele>474.2</ele>
        <time>2021-04-10T06:31:29Z</time>
      </trkpt>
      <trkpt lat="45.1812" lon="5.80697">
        <ele>474.4</ele>
        <time>2021-04-10T06:31:30Z</time>
      </trkpt>
      <trkpt lat="45.18121" lon="5.807">
        <ele>474</ele>
        <time>2021-04-10T06:31:31Z</time>
      </trkpt>
      <trkpt lat="45.18123" lon="5.80704">
        <ele>474</ele>
        <time>2021-04-10T06:31:32Z</time>
      </trkpt>
      <trkpt lat="45.18125" lon="5.80708">
        <ele>473.8</ele>
        <time>2021-04-10T06:31:33Z</time>
      </trkpt>
      <trkpt lat="45.18126" lon="5.80712">
        <ele>473.8</ele>
        <time>2021-04-10T06:31:34Z</time>
      </trkpt>
      <trkpt lat="45.18129" lon="5.80717">
        <ele>473.4</ele>
        <time>2021-04-10T06:31:35Z</time>
      </trkpt>
      <trkpt lat="45.1813" lon="5.80718">
        <ele>473.4</ele>
        <time>2021-04-10T06:31:36Z</time>
      </trkpt>
      <trkpt lat="45.1813" lon="5.80718">
        <ele>473.2</ele>
        <time>2021-04-10T06:31:37Z</time>
      </trkpt>
      <trkpt lat="45.18131" lon="5.80719">
        <ele>473</ele>
        <time>2021-04-10T06:31:38Z</time>
      </trkpt>
      <trkpt lat="45.18131" lon="5.8072">
        <ele>472.8</ele>
        <time>2021-04-10T06:31:39Z</time>
      </trkpt>
      <trkpt lat="45.18132" lon="5.8072">
        <ele>472.4</ele>
        <time>2021-04-10T06:31:40Z</time>
      </trkpt>
      <trkpt lat="45.18135" lon="5.80724">
        <ele>472.2</ele>
        <time>2021-04-10T06:31:41Z</time>
      </trkpt>
      <trkpt lat="45.18137" lon="5.80727">
        <ele>472</ele>
        <time>2021-04-10T06:31:42Z</time>
      </trkpt>
      <trkpt lat="45.1814" lon="5.8073">
        <ele>471.8</ele>
        <time>2021-04-10T06:31:43Z</time>
      </trkpt>
      <trkpt lat="45.18143" lon="5.80734">
        <ele>471.6</ele>
        <time>2021-04-10T06:31:44Z</time>
      </trkpt>
      <trkpt lat="45.18148" lon="5.8074">
        <ele>471.8</ele>
        <time>2021-04-10T06:31:45Z</time>
      </trkpt>
      <trkpt lat="45.18149" lon="5.80741">
        <ele>471.6</ele>
        <time>2021-04-10T06:31:46Z</time>
      </trkpt>
      <trkpt lat="45.1815" lon="5.80742">
        <ele>472</ele>
        <time>2021-04-10T06:31:47Z</time>
      </trkpt>
      <trkpt lat="45.18151" lon="5.80743">
        <ele>471.8</ele>
        <time>2021-04-10T06:31:48Z</time>
      </trkpt>
      <trkpt lat="45.18154" lon="5.80748">
        <ele>472.2</ele>
        <time>2021-04-10T06:31:49Z</time>
      </trkpt>
      <trkpt lat="45.18154" lon="5.80748">
        <ele>472</ele>
        <time>2021-04-10T06:31:50Z</time>
      </trkpt>
      <trkpt lat="45.18154" lon="5.80748">
        <ele>472.2</ele>
        <time>2021-04-10T06:31:51Z</time>
      </trkpt>
      <trkpt lat="45.18154" lon="5.80748">
        <ele>472</ele>
        <time>2021-04-10T06:31:52Z</time>
      </trkpt>
      <trkpt lat="45.18156" lon="5.80751">
        <ele>472</ele>
        <time>2021-04-10T06:31:53Z</time>
      </trkpt>
      <trkpt lat="45.18158" lon="5.80754">
        <ele>471.8</ele>
        <time>2021-04-10T06:31:54Z</time>
      </trkpt>
      <trkpt lat="45.18159" lon="5.80758">
        <ele>472</ele>
        <time>2021-04-10T06:31:55Z</time>
      </trkpt>
      <trkpt lat="45.18161" lon="5.80761">
        <ele>471.8</ele>
        <time>2021-04-10T06:31:56Z</time>
      </trkpt>
      <trkpt lat="45.18163" lon="5.80764">
        <ele>472</ele>
        <time>2021-04-10T06:31:57Z</time>
      </trkpt>
      <trkpt lat="45.18164" lon="5.80767">
        <ele>472</ele>
        <time>2021-04-10T06:31:58Z</time>
      </trkpt>
      <trkpt lat="45.18167" lon="5.80773">
        <ele>472.2</ele>
        <time>2021-04-10T06:31:59Z</time>
      </trkpt>
      <trkpt lat="45.18167" lon="5.80773">
        <ele>472.4</ele>
        <time>2021-04-10T06:32:00Z</time>
      </trkpt>
      <trkpt lat="45.18167" lon="5.80773">
        <ele>472.4</ele>
        <time>2021-04-10T06:32:01Z</time>
      </trkpt>
      <trkpt lat="45.18167" lon="5.80773">
        <ele>472.6</ele>
        <time>2021-04-10T06:32:02Z</time>
      </trkpt>
      <trkpt lat="45.18168" lon="5.80775">
        <ele>472.8</ele>
        <time>2021-04-10T06:32:03Z</time>
      </trkpt>
      <trkpt lat="45.18169" lon="5.80778">
        <ele>473</ele>
        <time>2021-04-10T06:32:04Z</time>
      </trkpt>
      <trkpt lat="45.1817" lon="5.8078">
        <ele>473.2</ele>
        <time>2021-04-10T06:32:05Z</time>
      </trkpt>
      <trkpt lat="45.18171" lon="5.80782">
        <ele>473.4</ele>
        <time>2021-04-10T06:32:06Z</time>
      </trkpt>
      <trkpt lat="45.18172" lon="5.80784">
        <ele>473.6</ele>
        <time>2021-04-10T06:32:07Z</time>
      </trkpt>
      <trkpt lat="45.18173" lon="5.80786">
        <ele>474</ele>
        <time>2021-04-10T06:32:08Z</time>
      </trkpt>
      <trkpt lat="45.18173" lon="5.80788">
        <ele>474</ele>
        <time>2021-04-10T06:32:09Z</time>
      </trkpt>
      <trkpt lat="45.18173" lon="5.80791">
        <ele>474.6</ele>
        <time>2021-04-10T06:32:10Z</time>
      </trkpt>
      <trkpt lat="45.18174" lon="5.80793">
        <ele>474.4</ele>
        <time>2021-04-10T06:32:11Z</time>
      </trkpt>
      <trkpt lat="45.18174" lon="5.80796">
        <ele>474.8</ele>
        <time>2021-04-10T06:32:12Z</time>
      </trkpt>
      <trkpt lat="45.18175" lon="5.80798">
        <ele>474.8</ele>
        <time>2021-04-10T06:32:13Z</time>
      </trkpt>
      <trkpt lat="45.18175" lon="5.808">
        <ele>474.8</ele>
        <time>2021-04-10T06:32:14Z</time>
      </trkpt>
      <trkpt lat="45.18176" lon="5.80802">
        <ele>475</ele>
        <time>2021-04-10T06:32:15Z</time>
      </trkpt>
      <trkpt lat="45.18176" lon="5.80804">
        <ele>475.4</ele>
        <time>2021-04-10T06:32:16Z</time>
      </trkpt>
      <trkpt lat="45.18176" lon="5.80806">
        <ele>475.4</ele>
        <time>2021-04-10T06:32:17Z</time>
      </trkpt>
      <trkpt lat="45.18176" lon="5.80809">
        <ele>475.8</ele>
        <time>2021-04-10T06:32:18Z</time>
      </trkpt>
      <trkpt lat="45.18177" lon="5.80811">
        <ele>475.6</ele>
        <time>2021-04-10T06:32:19Z</time>
      </trkpt>
      <trkpt lat="45.18177" lon="5.80813">
        <ele>475.8</ele>
        <time>2021-04-10T06:32:20Z</time>
      </trkpt>
      <trkpt lat="45.18177" lon="5.80815">
        <ele>475.8</ele>
        <time>2021-04-10T06:32:21Z</time>
      </trkpt>
      <trkpt lat="45.18178" lon="5.80817">
        <ele>476.2</ele>
        <time>2021-04-10T06:32:22Z</time>
      </trkpt>
      <trkpt lat="45.18179" lon="5.80819">
        <ele>476.2</ele>
        <time>2021-04-10T06:32:23Z</time>
      </trkpt>
      <trkpt lat="45.1818" lon="5.80821">
        <ele>476.6</ele>
        <time>2021-04-10T06:32:24Z</time>
      </trkpt>
      <trkpt lat="45.18181" lon="5.80823">
        <ele>476.6</ele>
        <time>2021-04-10T06:32:25Z</time>
      </trkpt>
      <trkpt lat="45.18182" lon="5.80826">
        <ele>476.8</ele>
        <time>2021-04-10T06:32:26Z</time>
      </trkpt>
      <trkpt lat="45.18183" lon="5.80828">
        <ele>476.8</ele>
        <time>2021-04-10T06:32:27Z</time>
      </trkpt>
      <trkpt lat="45.18184" lon="5.80829">
        <ele>477.2</ele>
        <time>2021-04-10T06:32:28Z</time>
      </trkpt>
      <trkpt lat="45.18186" lon="5.80831">
        <ele>477.2</ele>
        <time>2021-04-10T06:32:29Z</time>
      </trkpt>
      <trkpt lat="45.18187" lon="5.80833">
        <ele>477.6</ele>
        <time>2021-04-10T06:32:30Z</time>
      </trkpt>
      <trkpt lat="45.18188" lon="5.80835">
        <ele>477.6</ele>
        <time>2021-04-10T06:32:31Z</time>
      </trkpt>
      <trkpt lat="45.1819" lon="5.80836">
        <ele>477.8</ele>
        <time>2021-04-10T06:32:32Z</time>
      </trkpt>
      <trkpt lat="45.18198" lon="5.80844">
        <ele>477.8</ele>
        <time>2021-04-10T06:32:33Z</time>
      </trkpt>
      <trkpt lat="45.18198" lon="5.80844">
        <ele>478.2</ele>
        <time>2021-04-10T06:32:34Z</time>
      </trkpt>
      <trkpt lat="45.18198" lon="5.80844">
        <ele>478</ele>
        <time>2021-04-10T06:32:35Z</time>
      </trkpt>
      <trkpt lat="45.18198" lon="5.80844">
        <ele>478.2</ele>
        <time>2021-04-10T06:32:36Z</time>
      </trkpt>
      <trkpt lat="45.18199" lon="5.80846">
        <ele>478.6</ele>
        <time>2021-04-10T06:32:37Z</time>
      </trkpt>
      <trkpt lat="45.18201" lon="5.80848">
        <ele>478.8</ele>
        <time>2021-04-10T06:32:38Z</time>
      </trkpt>
      <trkpt lat="45.18202" lon="5.8085">
        <ele>479.4</ele>
        <time>2021-04-10T06:32:39Z</time>
      </trkpt>
      <trkpt lat="45.18204" lon="5.80852">
        <ele>479.6</ele>
        <time>2021-04-10T06:32:40Z</time>
      </trkpt>
      <trkpt lat="45.18206" lon="5.80853">
        <ele>480.2</ele>
        <time>2021-04-10T06:32:41Z</time>
      </trkpt>
      <trkpt lat="45.18207" lon="5.80855">
        <ele>480.4</ele>
        <time>2021-04-10T06:32:42Z</time>
      </trkpt>
      <trkpt lat="45.18208" lon="5.80857">
        <ele>481</ele>
        <time>2021-04-10T06:32:43Z</time>
      </trkpt>
      <trkpt lat="45.18209" lon="5.80859">
        <ele>481.2</ele>
        <time>2021-04-10T06:32:44Z</time>
      </trkpt>
      <trkpt lat="45.1821" lon="5.80861">
        <ele>481.4</ele>
        <time>2021-04-10T06:32:45Z</time>
      </trkpt>
      <trkpt lat="45.18211" lon="5.80863">
        <ele>481.6</ele>
        <time>2021-04-10T06:32:46Z</time>
      </trkpt>
      <trkpt lat="45.18212" lon="5.80865">
        <ele>482</ele>
        <time>2021-04-10T06:32:47Z</time>
      </trkpt>
      <trkpt lat="45.18214" lon="5.80868">
        <ele>482</ele>
        <time>2021-04-10T06:32:48Z</time>
      </trkpt>
      <trkpt lat="45.18215" lon="5.8087">
        <ele>482.2</ele>
        <time>2021-04-10T06:32:49Z</time>
      </trkpt>
      <trkpt lat="45.18216" lon="5.80872">
        <ele>482.2</ele>
        <time>2021-04-10T06:32:50Z</time>
      </trkpt>
      <trkpt lat="45.18217" lon="5.80874">
        <ele>482.2</ele>
        <time>2021-04-10T06:32:51Z</time>
      </trkpt>
      <trkpt lat="45.18218" lon="5.80876">
        <ele>482.6</ele>
        <time>2021-04-10T06:32:52Z</time>
      </trkpt>
      <trkpt lat="45.18218" lon="5.80879">
        <ele>482.8</ele>
        <time>2021-04-10T06:32:53Z</time>
      </trkpt>
      <trkpt lat="45.18219" lon="5.80882">
        <ele>483.4</ele>
        <time>2021-04-10T06:32:54Z</time>
      </trkpt>
      <trkpt lat="45.1822" lon="5.80884">
        <ele>483.6</ele>
        <time>2021-04-10T06:32:55Z</time>
      </trkpt>
      <trkpt lat="45.1822" lon="5.80887">
        <ele>484</ele>
        <time>2021-04-10T06:32:56Z</time>
      </trkpt>
      <trkpt lat="45.1822" lon="5.8089">
        <ele>484</ele>
        <time>2021-04-10T06:32:57Z</time>
      </trkpt>
      <trkpt lat="45.18221" lon="5.80893">
        <ele>484.4</ele>
        <time>2021-04-10T06:32:58Z</time>
      </trkpt>
      <trkpt lat="45.18221" lon="5.80896">
        <ele>484.4</ele>
        <time>2021-04-10T06:32:59Z</time>
      </trkpt>
      <trkpt lat="45.18222" lon="5.80899">
        <ele>484.8</ele>
        <time>2021-04-10T06:33:00Z</time>
      </trkpt>
      <trkpt lat="45.18222" lon="5.80902">
        <ele>484.8</ele>
        <time>2021-04-10T06:33:01Z</time>
      </trkpt>
      <trkpt lat="45.18223" lon="5.80905">
        <ele>485.2</ele>
        <time>2021-04-10T06:33:02Z</time>
      </trkpt>
      <trkpt lat="45.18224" lon="5.80908">
        <ele>485.2</ele>
        <time>2021-04-10T06:33:03Z</time>
      </trkpt>
      <trkpt lat="45.18224" lon="5.8091">
        <ele>485.4</ele>
        <time>2021-04-10T06:33:04Z</time>
      </trkpt>
      <trkpt lat="45.18225" lon="5.80913">
        <ele>485.4</ele>
        <time>2021-04-10T06:33:05Z</time>
      </trkpt>
      <trkpt lat="45.18226" lon="5.80915">
        <ele>485.6</ele>
        <time>2021-04-10T06:33:06Z</time>
      </trkpt>
      <trkpt lat="45.18226" lon="5.80917">
        <ele>485.8</ele>
        <time>2021-04-10T06:33:07Z</time>
      </trkpt>
      <trkpt lat="45.18226" lon="5.8092">
        <ele>486</ele>
        <time>2021-04-10T06:33:08Z</time>
      </trkpt>
      <trkpt lat="45.18226" lon="5.80922">
        <ele>485.8</ele>
        <time>2021-04-10T06:33:09Z</time>
      </trkpt>
      <trkpt lat="45.18226" lon="5.80924">
        <ele>486.4</ele>
        <time>2021-04-10T06:33:10Z</time>
      </trkpt>
      <trkpt lat="45.18226" lon="5.80926">
        <ele>486.4</ele>
        <time>2021-04-10T06:33:11Z</time>
      </trkpt>
      <trkpt lat="45.18226" lon="5.80928">
        <ele>486.8</ele>
        <time>2021-04-10T06:33:12Z</time>
      </trkpt>
      <trkpt lat="45.18227" lon="5.8093">
        <ele>486.8</ele>
        <time>2021-04-10T06:33:13Z</time>
      </trkpt>
      <trkpt lat="45.18227" lon="5.80932">
        <ele>487.2</ele>
        <time>2021-04-10T06:33:14Z</time>
      </trkpt>
      <trkpt lat="45.18227" lon="5.80934">
        <ele>487.4</ele>
        <time>2021-04-10T06:33:15Z</time>
      </trkpt>
      <trkpt lat="45.18227" lon="5.80935">
        <ele>487.4</ele>
        <time>2021-04-10T06:33:16Z</time>
      </trkpt>
      <trkpt lat="45.18228" lon="5.80937">
        <ele>487.6</ele>
        <time>2021-04-10T06:33:17Z</time>
      </trkpt>
      <trkpt lat="45.18228" lon="5.80939">
        <ele>487.6</ele>
        <time>2021-04-10T06:33:18Z</time>
      </trkpt>
      <trkpt lat="45.18228" lon="5.80941">
        <ele>487.8</ele>
        <time>2021-04-10T06:33:19Z</time>
      </trkpt>
      <trkpt lat="45.18228" lon="5.80943">
        <ele>488</ele>
        <time>2021-04-10T06:33:20Z</time>
      </trkpt>
      <trkpt lat="45.18229" lon="5.80944">
        <ele>488.6</ele>
        <time>2021-04-10T06:33:21Z</time>
      </trkpt>
      <trkpt lat="45.18229" lon="5.80946">
        <ele>488.8</ele>
        <time>2021-04-10T06:33:22Z</time>
      </trkpt>
      <trkpt lat="45.18229" lon="5.80948">
        <ele>489.2</ele>
        <time>2021-04-10T06:33:23Z</time>
      </trkpt>
      <trkpt lat="45.18229" lon="5.80949">
        <ele>489.2</ele>
        <time>2021-04-10T06:33:24Z</time>
      </trkpt>
      <trkpt lat="45.1823" lon="5.80951">
        <ele>489.6</ele>
        <time>2021-04-10T06:33:25Z</time>
      </trkpt>
      <trkpt lat="45.1823" lon="5.80953">
        <ele>490</ele>
        <time>2021-04-10T06:33:26Z</time>
      </trkpt>
      <trkpt lat="45.1823" lon="5.80954">
        <ele>490.6</ele>
        <time>2021-04-10T06:33:27Z</time>
      </trkpt>
      <trkpt lat="45.18231" lon="5.80956">
        <ele>490.4</ele>
        <time>2021-04-10T06:33:28Z</time>
      </trkpt>
      <trkpt lat="45.18231" lon="5.80958">
        <ele>490.8</ele>
        <time>2021-04-10T06:33:29Z</time>
      </trkpt>
      <trkpt lat="45.18231" lon="5.80959">
        <ele>490.8</ele>
        <time>2021-04-10T06:33:30Z</time>
      </trkpt>
      <trkpt lat="45.18232" lon="5.80961">
        <ele>491</ele>
        <time>2021-04-10T06:33:31Z</time>
      </trkpt>
      <trkpt lat="45.18232" lon="5.80963">
        <ele>491</ele>
        <time>2021-04-10T06:33:32Z</time>
      </trkpt>
      <trkpt lat="45.18233" lon="5.80964">
        <ele>491.2</ele>
        <time>2021-04-10T06:33:33Z</time>
      </trkpt>
      <trkpt lat="45.18233" lon="5.80966">
        <ele>491.8</ele>
        <time>2021-04-10T06:33:34Z</time>
      </trkpt>
      <trkpt lat="45.18233" lon="5.80967">
        <ele>492</ele>
        <time>2021-04-10T06:33:35Z</time>
      </trkpt>
      <trkpt lat="45.18234" lon="5.80969">
        <ele>492.6</ele>
        <time>2021-04-10T06:33:36Z</time>
      </trkpt>
      <trkpt lat="45.18234" lon="5.80971">
        <ele>492.8</ele>
        <time>2021-04-10T06:33:37Z</time>
      </trkpt>
      <trkpt lat="45.18234" lon="5.80972">
        <ele>493.2</ele>
        <time>2021-04-10T06:33:38Z</time>
      </trkpt>
      <trkpt lat="45.18234" lon="5.80974">
        <ele>493.4</ele>
        <time>2021-04-10T06:33:39Z</time>
      </trkpt>
      <trkpt lat="45.18234" lon="5.80976">
        <ele>493.6</ele>
        <time>2021-04-10T06:33:40Z</time>
      </trkpt>
      <trkpt lat="45.18234" lon="5.80977">
        <ele>493.8</ele>
        <time>2021-04-10T06:33:41Z</time>
      </trkpt>
      <trkpt lat="45.18234" lon="5.80979">
        <ele>493.6</ele>
        <time>2021-04-10T06:33:42Z</time>
      </trkpt>
      <trkpt lat="45.18235" lon="5.80981">
        <ele>494</ele>
        <time>2021-04-10T06:33:43Z</time>
      </trkpt>
      <trkpt lat="45.18235" lon="5.80982">
        <ele>494.2</ele>
        <time>2021-04-10T06:33:44Z</time>
      </trkpt>
      <trkpt lat="45.18235" lon="5.80984">
        <ele>494.8</ele>
        <time>2021-04-10T06:33:45Z</time>
      </trkpt>
      <trkpt lat="45.18235" lon="5.80986">
        <ele>495.2</ele>
        <time>2021-04-10T06:33:46Z</time>
      </trkpt>
      <trkpt lat="45.18235" lon="5.80987">
        <ele>495.6</ele>
        <time>2021-04-10T06:33:47Z</time>
      </trkpt>
      <trkpt lat="45.18236" lon="5.80989">
        <ele>495.6</ele>
        <time>2021-04-10T06:33:48Z</time>
      </trkpt>
      <trkpt lat="45.18236" lon="5.8099">
        <ele>496.2</ele>
        <time>2021-04-10T06:33:49Z</time>
      </trkpt>
      <trkpt lat="45.18236" lon="5.80992">
        <ele>496.2</ele>
        <time>2021-04-10T06:33:50Z</time>
      </trkpt>
      <trkpt lat="45.18236" lon="5.80994">
        <ele>496.2</ele>
        <time>2021-04-10T06:33:51Z</time>
      </trkpt>
      <trkpt lat="45.18236" lon="5.80995">
        <ele>496.4</ele>
        <time>2021-04-10T06:33:52Z</time>
      </trkpt>
      <trkpt lat="45.18236" lon="5.80998">
        <ele>496.4</ele>
        <time>2021-04-10T06:33:53Z</time>
      </trkpt>
      <trkpt lat="45.18236" lon="5.81">
        <ele>496.8</ele>
        <time>2021-04-10T06:33:54Z</time>
      </trkpt>
      <trkpt lat="45.18235" lon="5.81002">
        <ele>497</ele>
        <time>2021-04-10T06:33:55Z</time>
      </trkpt>
      <trkpt lat="45.18235" lon="5.81004">
        <ele>497.4</ele>
        <time>2021-04-10T06:33:56Z</time>
      </trkpt>
      <trkpt lat="45.18234" lon="5.81006">
        <ele>497.6</ele>
        <time>2021-04-10T06:33:57Z</time>
      </trkpt>
      <trkpt lat="45.18234" lon="5.81008">
        <ele>498</ele>
        <time>2021-04-10T06:33:58Z</time>
      </trkpt>
      <trkpt lat="45.18234" lon="5.81013">
        <ele>498</ele>
        <time>2021-04-10T06:33:59Z</time>
      </trkpt>
      <trkpt lat="45.18233" lon="5.81017">
        <ele>498.4</ele>
        <time>2021-04-10T06:34:00Z</time>
      </trkpt>
      <trkpt lat="45.18233" lon="5.81021">
        <ele>498.4</ele>
        <time>2021-04-10T06:34:01Z</time>
      </trkpt>
      <trkpt lat="45.18233" lon="5.81025">
        <ele>498.8</ele>
        <time>2021-04-10T06:34:02Z</time>
      </trkpt>
      <trkpt lat="45.18233" lon="5.8103">
        <ele>498.8</ele>
        <time>2021-04-10T06:34:03Z</time>
      </trkpt>
      <trkpt lat="45.18232" lon="5.81037">
        <ele>499</ele>
        <time>2021-04-10T06:34:04Z</time>
      </trkpt>
      <trkpt lat="45.18232" lon="5.81037">
        <ele>498.8</ele>
        <time>2021-04-10T06:34:05Z</time>
      </trkpt>
      <trkpt lat="45.18232" lon="5.81037">
        <ele>499</ele>
        <time>2021-04-10T06:34:06Z</time>
      </trkpt>
      <trkpt lat="45.18232" lon="5.81037">
        <ele>498.8</ele>
        <time>2021-04-10T06:34:07Z</time>
      </trkpt>
      <trkpt lat="45.18232" lon="5.81037">
        <ele>498.6</ele>
        <time>2021-04-10T06:34:08Z</time>
      </trkpt>
      <trkpt lat="45.18231" lon="5.8104">
        <ele>498.4</ele>
        <time>2021-04-10T06:34:09Z</time>
      </trkpt>
      <trkpt lat="45.18231" lon="5.81042">
        <ele>498.4</ele>
        <time>2021-04-10T06:34:10Z</time>
      </trkpt>
      <trkpt lat="45.18231" lon="5.81045">
        <ele>498.4</ele>
        <time>2021-04-10T06:34:11Z</time>
      </trkpt>
      <trkpt lat="45.18231" lon="5.81048">
        <ele>498.4</ele>
        <time>2021-04-10T06:34:12Z</time>
      </trkpt>
      <trkpt lat="45.1823" lon="5.81051">
        <ele>498.6</ele>
        <time>2021-04-10T06:34:13Z</time>
      </trkpt>
      <trkpt lat="45.18229" lon="5.81054">
        <ele>498.4</ele>
        <time>2021-04-10T06:34:14Z</time>
      </trkpt>
      <trkpt lat="45.18228" lon="5.81056">
        <ele>498.6</ele>
        <time>2021-04-10T06:34:15Z</time>
      </trkpt>
      <trkpt lat="45.18227" lon="5.81059">
        <ele>498.4</ele>
        <time>2021-04-10T06:34:16Z</time>
      </trkpt>
      <trkpt lat="45.18226" lon="5.81061">
        <ele>498.2</ele>
        <time>2021-04-10T06:34:17Z</time>
      </trkpt>
      <trkpt lat="45.18225" lon="5.81064">
        <ele>498</ele>
        <time>2021-04-10T06:34:18Z</time>
      </trkpt>
      <trkpt lat="45.18224" lon="5.81066">
        <ele>497.8</ele>
        <time>2021-04-10T06:34:19Z</time>
      </trkpt>
      <trkpt lat="45.18223" lon="5.81068">
        <ele>497.6</ele>
        <time>2021-04-10T06:34:20Z</time>
      </trkpt>
      <trkpt lat="45.18222" lon="5.8107">
        <ele>497.2</ele>
        <time>2021-04-10T06:34:21Z</time>
      </trkpt>
      <trkpt lat="45.18221" lon="5.81072">
        <ele>497.4</ele>
        <time>2021-04-10T06:34:22Z</time>
      </trkpt>
      <trkpt lat="45.18219" lon="5.81074">
        <ele>497.4</ele>
        <time>2021-04-10T06:34:23Z</time>
      </trkpt>
      <trkpt lat="45.18218" lon="5.81076">
        <ele>497.4</ele>
        <time>2021-04-10T06:34:24Z</time>
      </trkpt>
      <trkpt lat="45.18217" lon="5.81078">
        <ele>497.4</ele>
        <time>2021-04-10T06:34:25Z</time>
      </trkpt>
      <trkpt lat="45.18215" lon="5.81079">
        <ele>497.4</ele>
        <time>2021-04-10T06:34:26Z</time>
      </trkpt>
      <trkpt lat="45.18214" lon="5.81081">
        <ele>497.2</ele>
        <time>2021-04-10T06:34:27Z</time>
      </trkpt>
      <trkpt lat="45.18212" lon="5.81082">
        <ele>497.6</ele>
        <time>2021-04-10T06:34:28Z</time>
      </trkpt>
      <trkpt lat="45.18203" lon="5.81088">
        <ele>497.4</ele>
        <time>2021-04-10T06:34:29Z</time>
      </trkpt>
      <trkpt lat="45.18203" lon="5.8109">
        <ele>497.4</ele>
        <time>2021-04-10T06:34:30Z</time>
      </trkpt>
      <trkpt lat="45.18203" lon="5.81091">
        <ele>497.4</ele>
        <time>2021-04-10T06:34:31Z</time>
      </trkpt>
      <trkpt lat="45.18203" lon="5.81093">
        <ele>497.2</ele>
        <time>2021-04-10T06:34:32Z</time>
      </trkpt>
      <trkpt lat="45.18203" lon="5.81095">
        <ele>497.4</ele>
        <time>2021-04-10T06:34:33Z</time>
      </trkpt>
      <trkpt lat="45.18203" lon="5.81097">
        <ele>497.4</ele>
        <time>2021-04-10T06:34:34Z</time>
      </trkpt>
      <trkpt lat="45.18203" lon="5.81099">
        <ele>497.4</ele>
        <time>2021-04-10T06:34:35Z</time>
      </trkpt>
      <trkpt lat="45.18203" lon="5.811">
        <ele>497.4</ele>
        <time>2021-04-10T06:34:36Z</time>
      </trkpt>
      <trkpt lat="45.18203" lon="5.81102">
        <ele>497.4</ele>
        <time>2021-04-10T06:34:37Z</time>
      </trkpt>
      <trkpt lat="45.18203" lon="5.81104">
        <ele>497.4</ele>
        <time>2021-04-10T06:34:38Z</time>
      </trkpt>
      <trkpt lat="45.18203" lon="5.81106">
        <ele>497.6</ele>
        <time>2021-04-10T06:34:39Z</time>
      </trkpt>
      <trkpt lat="45.18202" lon="5.81107">
        <ele>497.4</ele>
        <time>2021-04-10T06:34:40Z</time>
      </trkpt>
      <trkpt lat="45.18202" lon="5.81109">
        <ele>497.2</ele>
        <time>2021-04-10T06:34:41Z</time>
      </trkpt>
      <trkpt lat="45.18202" lon="5.81111">
        <ele>496.8</ele>
        <time>2021-04-10T06:34:42Z</time>
      </trkpt>
      <trkpt lat="45.18202" lon="5.81113">
        <ele>496.2</ele>
        <time>2021-04-10T06:34:43Z</time>
      </trkpt>
      <trkpt lat="45.18202" lon="5.81114">
        <ele>496</ele>
        <time>2021-04-10T06:34:44Z</time>
      </trkpt>
      <trkpt lat="45.18202" lon="5.81116">
        <ele>495.8</ele>
        <time>2021-04-10T06:34:45Z</time>
      </trkpt>
      <trkpt lat="45.18202" lon="5.81118">
        <ele>496</ele>
        <time>2021-04-10T06:34:46Z</time>
      </trkpt>
      <trkpt lat="45.18202" lon="5.8112">
        <ele>495.6</ele>
        <time>2021-04-10T06:34:47Z</time>
      </trkpt>
      <trkpt lat="45.18202" lon="5.81121">
        <ele>495.4</ele>
        <time>2021-04-10T06:34:48Z</time>
      </trkpt>
      <trkpt lat="45.18202" lon="5.81123">
        <ele>495</ele>
        <time>2021-04-10T06:34:49Z</time>
      </trkpt>
      <trkpt lat="45.18202" lon="5.81125">
        <ele>494.4</ele>
        <time>2021-04-10T06:34:50Z</time>
      </trkpt>
      <trkpt lat="45.18202" lon="5.81127">
        <ele>494.2</ele>
        <time>2021-04-10T06:34:51Z</time>
      </trkpt>
      <trkpt lat="45.18202" lon="5.81128">
        <ele>493.8</ele>
        <time>2021-04-10T06:34:52Z</time>
      </trkpt>
      <trkpt lat="45.18202" lon="5.8113">
        <ele>493.6</ele>
        <time>2021-04-10T06:34:53Z</time>
      </trkpt>
      <trkpt lat="45.18202" lon="5.81132">
        <ele>493.4</ele>
        <time>2021-04-10T06:34:54Z</time>
      </trkpt>
      <trkpt lat="45.18202" lon="5.81134">
        <ele>493.4</ele>
        <time>2021-04-10T06:34:55Z</time>
      </trkpt>
      <trkpt lat="45.18202" lon="5.81136">
        <ele>493</ele>
        <time>2021-04-10T06:34:56Z</time>
      </trkpt>
      <trkpt lat="45.18203" lon="5.81138">
        <ele>492.4</ele>
        <time>2021-04-10T06:34:57Z</time>
      </trkpt>
      <trkpt lat="45.18204" lon="5.8114">
        <ele>492.4</ele>
        <time>2021-04-10T06:34:58Z</time>
      </trkpt>
      <trkpt lat="45.18205" lon="5.81142">
        <ele>492</ele>
        <time>2021-04-10T06:34:59Z</time>
      </trkpt>
      <trkpt lat="45.18205" lon="5.81145">
        <ele>491.8</ele>
        <time>2021-04-10T06:35:00Z</time>
      </trkpt>
      <trkpt lat="45.18209" lon="5.81154">
        <ele>491.6</ele>
        <time>2021-04-10T06:35:01Z</time>
      </trkpt>
      <trkpt lat="45.1821" lon="5.81157">
        <ele>491.2</ele>
        <time>2021-04-10T06:35:02Z</time>
      </trkpt>
      <trkpt lat="45.18211" lon="5.8116">
        <ele>491.2</ele>
        <time>2021-04-10T06:35:03Z</time>
      </trkpt>
      <trkpt lat="45.18212" lon="5.81162">
        <ele>490.8</ele>
        <time>2021-04-10T06:35:04Z</time>
      </trkpt>
      <trkpt lat="45.18213" lon="5.81165">
        <ele>490.8</ele>
        <time>2021-04-10T06:35:05Z</time>
      </trkpt>
      <trkpt lat="45.18214" lon="5.81167">
        <ele>490.6</ele>
        <time>2021-04-10T06:35:06Z</time>
      </trkpt>
      <trkpt lat="45.18214" lon="5.8117">
        <ele>490.2</ele>
        <time>2021-04-10T06:35:07Z</time>
      </trkpt>
      <trkpt lat="45.18215" lon="5.81172">
        <ele>489.6</ele>
        <time>2021-04-10T06:35:08Z</time>
      </trkpt>
      <trkpt lat="45.18216" lon="5.81175">
        <ele>489</ele>
        <time>2021-04-10T06:35:09Z</time>
      </trkpt>
      <trkpt lat="45.18217" lon="5.81177">
        <ele>489</ele>
        <time>2021-04-10T06:35:10Z</time>
      </trkpt>
      <trkpt lat="45.18218" lon="5.81179">
        <ele>488.6</ele>
        <time>2021-04-10T06:35:11Z</time>
      </trkpt>
      <trkpt lat="45.18218" lon="5.81182">
        <ele>488.4</ele>
        <time>2021-04-10T06:35:12Z</time>
      </trkpt>
      <trkpt lat="45.18219" lon="5.81184">
        <ele>487.8</ele>
        <time>2021-04-10T06:35:13Z</time>
      </trkpt>
      <trkpt lat="45.1822" lon="5.81187">
        <ele>487.4</ele>
        <time>2021-04-10T06:35:14Z</time>
      </trkpt>
      <trkpt lat="45.1822" lon="5.81187">
        <ele>486.6</ele>
        <time>2021-04-10T06:35:15Z</time>
      </trkpt>
      <trkpt lat="45.1822" lon="5.81187">
        <ele>486</ele>
        <time>2021-04-10T06:35:16Z</time>
      </trkpt>
      <trkpt lat="45.1822" lon="5.81187">
        <ele>485.6</ele>
        <time>2021-04-10T06:35:17Z</time>
      </trkpt>
      <trkpt lat="45.1822" lon="5.81187">
        <ele>485.2</ele>
        <time>2021-04-10T06:35:18Z</time>
      </trkpt>
      <trkpt lat="45.18222" lon="5.8119">
        <ele>484.8</ele>
        <time>2021-04-10T06:35:19Z</time>
      </trkpt>
      <trkpt lat="45.18224" lon="5.81194">
        <ele>484.4</ele>
        <time>2021-04-10T06:35:20Z</time>
      </trkpt>
      <trkpt lat="45.18225" lon="5.81197">
        <ele>484</ele>
        <time>2021-04-10T06:35:21Z</time>
      </trkpt>
      <trkpt lat="45.18227" lon="5.81201">
        <ele>483.4</ele>
        <time>2021-04-10T06:35:22Z</time>
      </trkpt>
      <trkpt lat="45.18229" lon="5.81204">
        <ele>482.8</ele>
        <time>2021-04-10T06:35:23Z</time>
      </trkpt>
      <trkpt lat="45.18233" lon="5.81209">
        <ele>482.8</ele>
        <time>2021-04-10T06:35:24Z</time>
      </trkpt>
      <trkpt lat="45.18234" lon="5.81209">
        <ele>482.4</ele>
        <time>2021-04-10T06:35:25Z</time>
      </trkpt>
      <trkpt lat="45.18235" lon="5.81209">
        <ele>482.2</ele>
        <time>2021-04-10T06:35:26Z</time>
      </trkpt>
      <trkpt lat="45.18237" lon="5.81208">
        <ele>481.8</ele>
        <time>2021-04-10T06:35:27Z</time>
      </trkpt>
      <trkpt lat="45.18238" lon="5.81208">
        <ele>481.4</ele>
        <time>2021-04-10T06:35:28Z</time>
      </trkpt>
      <trkpt lat="45.1824" lon="5.81208">
        <ele>481</ele>
        <time>2021-04-10T06:35:29Z</time>
      </trkpt>
      <trkpt lat="45.18241" lon="5.81207">
        <ele>480.4</ele>
        <time>2021-04-10T06:35:30Z</time>
      </trkpt>
      <trkpt lat="45.18243" lon="5.81207">
        <ele>480.4</ele>
        <time>2021-04-10T06:35:31Z</time>
      </trkpt>
      <trkpt lat="45.18244" lon="5.81207">
        <ele>479.8</ele>
        <time>2021-04-10T06:35:32Z</time>
      </trkpt>
      <trkpt lat="45.18245" lon="5.81206">
        <ele>479.4</ele>
        <time>2021-04-10T06:35:33Z</time>
      </trkpt>
      <trkpt lat="45.18247" lon="5.81206">
        <ele>478.8</ele>
        <time>2021-04-10T06:35:34Z</time>
      </trkpt>
      <trkpt lat="45.18248" lon="5.81205">
        <ele>478.2</ele>
        <time>2021-04-10T06:35:35Z</time>
      </trkpt>
      <trkpt lat="45.1825" lon="5.81205">
        <ele>477.8</ele>
        <time>2021-04-10T06:35:36Z</time>
      </trkpt>
      <trkpt lat="45.18251" lon="5.81205">
        <ele>477.4</ele>
        <time>2021-04-10T06:35:37Z</time>
      </trkpt>
      <trkpt lat="45.18251" lon="5.81205">
        <ele>477.4</ele>
        <time>2021-04-10T06:35:38Z</time>
      </trkpt>
      <trkpt lat="45.18251" lon="5.81205">
        <ele>477</ele>
        <time>2021-04-10T06:35:39Z</time>
      </trkpt>
      <trkpt lat="45.18251" lon="5.81205">
        <ele>476.4</ele>
        <time>2021-04-10T06:35:40Z</time>
      </trkpt>
      <trkpt lat="45.18251" lon="5.81205">
        <ele>476</ele>
        <time>2021-04-10T06:35:41Z</time>
      </trkpt>
      <trkpt lat="45.18253" lon="5.81203">
        <ele>475.6</ele>
        <time>2021-04-10T06:35:42Z</time>
      </trkpt>
      <trkpt lat="45.18254" lon="5.81202">
        <ele>475.4</ele>
        <time>2021-04-10T06:35:43Z</time>
      </trkpt>
      <trkpt lat="45.18256" lon="5.81201">
        <ele>475.2</ele>
        <time>2021-04-10T06:35:44Z</time>
      </trkpt>
      <trkpt lat="45.18257" lon="5.81199">
        <ele>475</ele>
        <time>2021-04-10T06:35:45Z</time>
      </trkpt>
      <trkpt lat="45.18259" lon="5.81198">
        <ele>474.4</ele>
        <time>2021-04-10T06:35:46Z</time>
      </trkpt>
      <trkpt lat="45.18262" lon="5.81198">
        <ele>473.8</ele>
        <time>2021-04-10T06:35:47Z</time>
      </trkpt>
      <trkpt lat="45.18263" lon="5.81199">
        <ele>473.6</ele>
        <time>2021-04-10T06:35:48Z</time>
      </trkpt>
      <trkpt lat="45.18264" lon="5.81201">
        <ele>473.2</ele>
        <time>2021-04-10T06:35:49Z</time>
      </trkpt>
      <trkpt lat="45.18265" lon="5.81202">
        <ele>472.8</ele>
        <time>2021-04-10T06:35:50Z</time>
      </trkpt>
      <trkpt lat="45.18266" lon="5.81203">
        <ele>472</ele>
        <time>2021-04-10T06:35:51Z</time>
      </trkpt>
      <trkpt lat="45.18267" lon="5.81204">
        <ele>471.4</ele>
        <time>2021-04-10T06:35:52Z</time>
      </trkpt>
      <trkpt lat="45.18268" lon="5.81206">
        <ele>471.2</ele>
        <time>2021-04-10T06:35:53Z</time>
      </trkpt>
      <trkpt lat="45.18269" lon="5.81207">
        <ele>470.6</ele>
        <time>2021-04-10T06:35:54Z</time>
      </trkpt>
      <trkpt lat="45.1827" lon="5.81208">
        <ele>469.8</ele>
        <time>2021-04-10T06:35:55Z</time>
      </trkpt>
      <trkpt lat="45.18271" lon="5.81209">
        <ele>469.6</ele>
        <time>2021-04-10T06:35:56Z</time>
      </trkpt>
      <trkpt lat="45.18272" lon="5.8121">
        <ele>469.2</ele>
        <time>2021-04-10T06:35:57Z</time>
      </trkpt>
      <trkpt lat="45.18273" lon="5.81212">
        <ele>469</ele>
        <time>2021-04-10T06:35:58Z</time>
      </trkpt>
      <trkpt lat="45.18274" lon="5.81213">
        <ele>468.2</ele>
        <time>2021-04-10T06:35:59Z</time>
      </trkpt>
      <trkpt lat="45.18275" lon="5.81214">
        <ele>467.6</ele>
        <time>2021-04-10T06:36:00Z</time>
      </trkpt>
      <trkpt lat="45.18274" lon="5.81217">
        <ele>467.4</ele>
        <time>2021-04-10T06:36:01Z</time>
      </trkpt>
      <trkpt lat="45.18272" lon="5.81221">
        <ele>467</ele>
        <time>2021-04-10T06:36:02Z</time>
      </trkpt>
      <trkpt lat="45.18271" lon="5.81224">
        <ele>466.6</ele>
        <time>2021-04-10T06:36:03Z</time>
      </trkpt>
      <trkpt lat="45.18269" lon="5.81227">
        <ele>466</ele>
        <time>2021-04-10T06:36:04Z</time>
      </trkpt>
      <trkpt lat="45.18264" lon="5.8124">
        <ele>465.6</ele>
        <time>2021-04-10T06:36:05Z</time>
      </trkpt>
      <trkpt lat="45.18258" lon="5.81253">
        <ele>465.6</ele>
        <time>2021-04-10T06:36:06Z</time>
      </trkpt>
      <trkpt lat="45.18252" lon="5.81266">
        <ele>465.2</ele>
        <time>2021-04-10T06:36:07Z</time>
      </trkpt>
      <trkpt lat="45.18246" lon="5.81279">
        <ele>464.8</ele>
        <time>2021-04-10T06:36:08Z</time>
      </trkpt>
      <trkpt lat="45.18241" lon="5.81291">
        <ele>464</ele>
        <time>2021-04-10T06:36:09Z</time>
      </trkpt>
      <trkpt lat="45.18235" lon="5.81304">
        <ele>463.6</ele>
        <time>2021-04-10T06:36:10Z</time>
      </trkpt>
      <trkpt lat="45.18229" lon="5.8131">
        <ele>463.4</ele>
        <time>2021-04-10T06:36:11Z</time>
      </trkpt>
      <trkpt lat="45.18222" lon="5.8132">
        <ele>462.6</ele>
        <time>2021-04-10T06:36:12Z</time>
      </trkpt>
      <trkpt lat="45.18222" lon="5.8132">
        <ele>462</ele>
        <time>2021-04-10T06:36:13Z</time>
      </trkpt>
      <trkpt lat="45.18222" lon="5.8132">
        <ele>461.8</ele>
        <time>2021-04-10T06:36:14Z</time>
      </trkpt>
      <trkpt lat="45.18222" lon="5.8132">
        <ele>461.4</ele>
        <time>2021-04-10T06:36:15Z</time>
      </trkpt>
      <trkpt lat="45.18223" lon="5.81321">
        <ele>460.8</ele>
        <time>2021-04-10T06:36:16Z</time>
      </trkpt>
      <trkpt lat="45.18224" lon="5.81323">
        <ele>460.4</ele>
        <time>2021-04-10T06:36:17Z</time>
      </trkpt>
      <trkpt lat="45.18225" lon="5.81325">
        <ele>459.8</ele>
        <time>2021-04-10T06:36:18Z</time>
      </trkpt>
      <trkpt lat="45.18226" lon="5.81327">
        <ele>459.6</ele>
        <time>2021-04-10T06:36:19Z</time>
      </trkpt>
      <trkpt lat="45.18227" lon="5.81328">
        <ele>459</ele>
        <time>2021-04-10T06:36:20Z</time>
      </trkpt>
      <trkpt lat="45.18228" lon="5.8133">
        <ele>459</ele>
        <time>2021-04-10T06:36:21Z</time>
      </trkpt>
      <trkpt lat="45.1823" lon="5.81332">
        <ele>458.4</ele>
        <time>2021-04-10T06:36:22Z</time>
      </trkpt>
      <trkpt lat="45.18231" lon="5.81334">
        <ele>457.8</ele>
        <time>2021-04-10T06:36:23Z</time>
      </trkpt>
      <trkpt lat="45.18232" lon="5.81335">
        <ele>457.2</ele>
        <time>2021-04-10T06:36:24Z</time>
      </trkpt>
      <trkpt lat="45.18235" lon="5.8134">
        <ele>457</ele>
        <time>2021-04-10T06:36:25Z</time>
      </trkpt>
      <trkpt lat="45.18235" lon="5.8134">
        <ele>456.8</ele>
        <time>2021-04-10T06:36:26Z</time>
      </trkpt>
      <trkpt lat="45.18235" lon="5.8134">
        <ele>456.4</ele>
        <time>2021-04-10T06:36:27Z</time>
      </trkpt>
      <trkpt lat="45.18235" lon="5.8134">
        <ele>456.2</ele>
        <time>2021-04-10T06:36:28Z</time>
      </trkpt>
      <trkpt lat="45.18236" lon="5.81342">
        <ele>455.6</ele>
        <time>2021-04-10T06:36:29Z</time>
      </trkpt>
      <trkpt lat="45.18237" lon="5.81345">
        <ele>455</ele>
        <time>2021-04-10T06:36:30Z</time>
      </trkpt>
      <trkpt lat="45.18238" lon="5.81347">
        <ele>454.8</ele>
        <time>2021-04-10T06:36:31Z</time>
      </trkpt>
      <trkpt lat="45.18239" lon="5.81349">
        <ele>454.4</ele>
        <time>2021-04-10T06:36:32Z</time>
      </trkpt>
      <trkpt lat="45.1824" lon="5.81351">
        <ele>454.4</ele>
        <time>2021-04-10T06:36:33Z</time>
      </trkpt>
      <trkpt lat="45.1824" lon="5.81353">
        <ele>454.2</ele>
        <time>2021-04-10T06:36:34Z</time>
      </trkpt>
      <trkpt lat="45.18241" lon="5.81356">
        <ele>454</ele>
        <time>2021-04-10T06:36:35Z</time>
      </trkpt>
      <trkpt lat="45.18241" lon="5.81358">
        <ele>453.6</ele>
        <time>2021-04-10T06:36:36Z</time>
      </trkpt>
      <trkpt lat="45.18242" lon="5.8136">
        <ele>452.8</ele>
        <time>2021-04-10T06:36:37Z</time>
      </trkpt>
      <trkpt lat="45.18242" lon="5.81362">
        <ele>452.8</ele>
        <time>2021-04-10T06:36:38Z</time>
      </trkpt>
      <trkpt lat="45.18242" lon="5.81364">
        <ele>452.6</ele>
        <time>2021-04-10T06:36:39Z</time>
      </trkpt>
      <trkpt lat="45.18244" lon="5.81364">
        <ele>452.6</ele>
        <time>2021-04-10T06:36:40Z</time>
      </trkpt>
      <trkpt lat="45.18246" lon="5.81363">
        <ele>451.8</ele>
        <time>2021-04-10T06:36:41Z</time>
      </trkpt>
      <trkpt lat="45.18248" lon="5.81362">
        <ele>451.2</ele>
        <time>2021-04-10T06:36:42Z</time>
      </trkpt>
      <trkpt lat="45.1825" lon="5.81362">
        <ele>450.8</ele>
        <time>2021-04-10T06:36:43Z</time>
      </trkpt>
      <trkpt lat="45.18252" lon="5.81361">
        <ele>450</ele>
        <time>2021-04-10T06:36:44Z</time>
      </trkpt>
      <trkpt lat="45.18254" lon="5.81359">
        <ele>449.8</ele>
        <time>2021-04-10T06:36:45Z</time>
      </trkpt>
      <trkpt lat="45.18257" lon="5.81357">
        <ele>449.2</ele>
        <time>2021-04-10T06:36:46Z</time>
      </trkpt>
      <trkpt lat="45.18259" lon="5.81355">
        <ele>449</ele>
        <time>2021-04-10T06:36:47Z</time>
      </trkpt>
      <trkpt lat="45.18261" lon="5.81354">
        <ele>448.4</ele>
        <time>2021-04-10T06:36:48Z</time>
      </trkpt>
      <trkpt lat="45.18264" lon="5.81352">
        <ele>448</ele>
        <time>2021-04-10T06:36:49Z</time>
      </trkpt>
      <trkpt lat="45.18266" lon="5.8135">
        <ele>447.4</ele>
        <time>2021-04-10T06:36:50Z</time>
      </trkpt>
      <trkpt lat="45.18272" lon="5.81345">
        <ele>446.6</ele>
        <time>2021-04-10T06:36:51Z</time>
      </trkpt>
      <trkpt lat="45.18273" lon="5.81344">
        <ele>446.4</ele>
        <time>2021-04-10T06:36:52Z</time>
      </trkpt>
      <trkpt lat="45.18274" lon="5.81342">
        <ele>445.6</ele>
        <time>2021-04-10T06:36:53Z</time>
      </trkpt>
      <trkpt lat="45.18274" lon="5.81341">
        <ele>445.4</ele>
        <time>2021-04-10T06:36:54Z</time>
      </trkpt>
      <trkpt lat="45.18277" lon="5.81336">
        <ele>445</ele>
        <time>2021-04-10T06:36:55Z</time>
      </trkpt>
      <trkpt lat="45.18277" lon="5.81336">
        <ele>444.8</ele>
        <time>2021-04-10T06:36:56Z</time>
      </trkpt>
      <trkpt lat="45.18277" lon="5.81336">
        <ele>444.2</ele>
        <time>2021-04-10T06:36:57Z</time>
      </trkpt>
      <trkpt lat="45.18277" lon="5.81336">
        <ele>443.8</ele>
        <time>2021-04-10T06:36:58Z</time>
      </trkpt>
      <trkpt lat="45.18279" lon="5.81333">
        <ele>443</ele>
        <time>2021-04-10T06:36:59Z</time>
      </trkpt>
      <trkpt lat="45.1828" lon="5.81331">
        <ele>442.2</ele>
        <time>2021-04-10T06:37:00Z</time>
      </trkpt>
      <trkpt lat="45.18281" lon="5.81328">
        <ele>442.2</ele>
        <time>2021-04-10T06:37:01Z</time>
      </trkpt>
      <trkpt lat="45.18282" lon="5.81325">
        <ele>442</ele>
        <time>2021-04-10T06:37:02Z</time>
      </trkpt>
      <trkpt lat="45.18283" lon="5.81323">
        <ele>441.6</ele>
        <time>2021-04-10T06:37:03Z</time>
      </trkpt>
      <trkpt lat="45.18283" lon="5.8132">
        <ele>441.2</ele>
        <time>2021-04-10T06:37:04Z</time>
      </trkpt>
      <trkpt lat="45.18284" lon="5.81318">
        <ele>440.8</ele>
        <time>2021-04-10T06:37:05Z</time>
      </trkpt>
      <trkpt lat="45.18284" lon="5.81316">
        <ele>440.2</ele>
        <time>2021-04-10T06:37:06Z</time>
      </trkpt>
      <trkpt lat="45.18285" lon="5.81314">
        <ele>439.8</ele>
        <time>2021-04-10T06:37:07Z</time>
      </trkpt>
      <trkpt lat="45.18285" lon="5.81312">
        <ele>439.6</ele>
        <time>2021-04-10T06:37:08Z</time>
      </trkpt>
      <trkpt lat="45.18286" lon="5.8131">
        <ele>439.6</ele>
        <time>2021-04-10T06:37:09Z</time>
      </trkpt>
      <trkpt lat="45.18287" lon="5.81309">
        <ele>439.6</ele>
        <time>2021-04-10T06:37:10Z</time>
      </trkpt>
      <trkpt lat="45.18288" lon="5.81308">
        <ele>440</ele>
        <time>2021-04-10T06:37:11Z</time>
      </trkpt>
      <trkpt lat="45.18289" lon="5.81308">
        <ele>440</ele>
        <time>2021-04-10T06:37:12Z</time>
      </trkpt>
      <trkpt lat="45.1829" lon="5.81307">
        <ele>440.4</ele>
        <time>2021-04-10T06:37:13Z</time>
      </trkpt>
      <trkpt lat="45.18291" lon="5.81306">
        <ele>440.2</ele>
        <time>2021-04-10T06:37:14Z</time>
      </trkpt>
      <trkpt lat="45.18292" lon="5.81305">
        <ele>440.2</ele>
        <time>2021-04-10T06:37:15Z</time>
      </trkpt>
      <trkpt lat="45.18293" lon="5.81305">
        <ele>439.8</ele>
        <time>2021-04-10T06:37:16Z</time>
      </trkpt>
      <trkpt lat="45.18294" lon="5.81304">
        <ele>439.6</ele>
        <time>2021-04-10T06:37:17Z</time>
      </trkpt>
      <trkpt lat="45.18296" lon="5.81303">
        <ele>439</ele>
        <time>2021-04-10T06:37:18Z</time>
      </trkpt>
      <trkpt lat="45.18297" lon="5.81302">
        <ele>438.8</ele>
        <time>2021-04-10T06:37:19Z</time>
      </trkpt>
      <trkpt lat="45.18299" lon="5.81301">
        <ele>438.8</ele>
        <time>2021-04-10T06:37:20Z</time>
      </trkpt>
      <trkpt lat="45.18301" lon="5.813">
        <ele>438.4</ele>
        <time>2021-04-10T06:37:21Z</time>
      </trkpt>
      <trkpt lat="45.18303" lon="5.81299">
        <ele>438.4</ele>
        <time>2021-04-10T06:37:22Z</time>
      </trkpt>
      <trkpt lat="45.18304" lon="5.81299">
        <ele>438</ele>
        <time>2021-04-10T06:37:23Z</time>
      </trkpt>
      <trkpt lat="45.18306" lon="5.81298">
        <ele>437.8</ele>
        <time>2021-04-10T06:37:24Z</time>
      </trkpt>
      <trkpt lat="45.18307" lon="5.81298">
        <ele>437.4</ele>
        <time>2021-04-10T06:37:25Z</time>
      </trkpt>
      <trkpt lat="45.18309" lon="5.81297">
        <ele>437.2</ele>
        <time>2021-04-10T06:37:26Z</time>
      </trkpt>
      <trkpt lat="45.1831" lon="5.81297">
        <ele>436.8</ele>
        <time>2021-04-10T06:37:27Z</time>
      </trkpt>
      <trkpt lat="45.18312" lon="5.81296">
        <ele>436.6</ele>
        <time>2021-04-10T06:37:28Z</time>
      </trkpt>
      <trkpt lat="45.18313" lon="5.81296">
        <ele>436.2</ele>
        <time>2021-04-10T06:37:29Z</time>
      </trkpt>
      <trkpt lat="45.18317" lon="5.81294">
        <ele>436.2</ele>
        <time>2021-04-10T06:37:30Z</time>
      </trkpt>
      <trkpt lat="45.18321" lon="5.81293">
        <ele>436</ele>
        <time>2021-04-10T06:37:31Z</time>
      </trkpt>
      <trkpt lat="45.18325" lon="5.81292">
        <ele>435.6</ele>
        <time>2021-04-10T06:37:32Z</time>
      </trkpt>
      <trkpt lat="45.18329" lon="5.81291">
        <ele>435.4</ele>
        <time>2021-04-10T06:37:33Z</time>
      </trkpt>
      <trkpt lat="45.18333" lon="5.81289">
        <ele>435.4</ele>
        <time>2021-04-10T06:37:34Z</time>
      </trkpt>
      <trkpt lat="45.18336" lon="5.81289">
        <ele>435.2</ele>
        <time>2021-04-10T06:37:35Z</time>
      </trkpt>
      <trkpt lat="45.18339" lon="5.81289">
        <ele>435</ele>
        <time>2021-04-10T06:37:36Z</time>
      </trkpt>
      <trkpt lat="45.18341" lon="5.81289">
        <ele>434.6</ele>
        <time>2021-04-10T06:37:37Z</time>
      </trkpt>
      <trkpt lat="45.18343" lon="5.81288">
        <ele>434.2</ele>
        <time>2021-04-10T06:37:38Z</time>
      </trkpt>
      <trkpt lat="45.18346" lon="5.81288">
        <ele>433.8</ele>
        <time>2021-04-10T06:37:39Z</time>
      </trkpt>
      <trkpt lat="45.18349" lon="5.81288">
        <ele>433.4</ele>
        <time>2021-04-10T06:37:40Z</time>
      </trkpt>
      <trkpt lat="45.18352" lon="5.81287">
        <ele>433.4</ele>
        <time>2021-04-10T06:37:41Z</time>
      </trkpt>
      <trkpt lat="45.18354" lon="5.81287">
        <ele>433</ele>
        <time>2021-04-10T06:37:42Z</time>
      </trkpt>
      <trkpt lat="45.18355" lon="5.81287">
        <ele>433</ele>
        <time>2021-04-10T06:37:43Z</time>
      </trkpt>
      <trkpt lat="45.18357" lon="5.81286">
        <ele>432.6</ele>
        <time>2021-04-10T06:37:44Z</time>
      </trkpt>
      <trkpt lat="45.18359" lon="5.81286">
        <ele>432.8</ele>
        <time>2021-04-10T06:37:45Z</time>
      </trkpt>
      <trkpt lat="45.18366" lon="5.81285">
        <ele>432.8</ele>
        <time>2021-04-10T06:37:46Z</time>
      </trkpt>
      <trkpt lat="45.18371" lon="5.81284">
        <ele>433</ele>
        <time>2021-04-10T06:37:47Z</time>
      </trkpt>
      <trkpt lat="45.18373" lon="5.81283">
        <ele>432.8</ele>
        <time>2021-04-10T06:37:48Z</time>
      </trkpt>
      <trkpt lat="45.18376" lon="5.81282">
        <ele>432.8</ele>
        <time>2021-04-10T06:37:49Z</time>
      </trkpt>
      <trkpt lat="45.18377" lon="5.81281">
        <ele>432.4</ele>
        <time>2021-04-10T06:37:50Z</time>
      </trkpt>
      <trkpt lat="45.18378" lon="5.81281">
        <ele>432.6</ele>
        <time>2021-04-10T06:37:51Z</time>
      </trkpt>
      <trkpt lat="45.1838" lon="5.8128">
        <ele>432</ele>
        <time>2021-04-10T06:37:52Z</time>
      </trkpt>
      <trkpt lat="45.18384" lon="5.81278">
        <ele>432</ele>
        <time>2021-04-10T06:37:53Z</time>
      </trkpt>
      <trkpt lat="45.18386" lon="5.81276">
        <ele>431.6</ele>
        <time>2021-04-10T06:37:54Z</time>
      </trkpt>
      <trkpt lat="45.18388" lon="5.81275">
        <ele>431.6</ele>
        <time>2021-04-10T06:37:55Z</time>
      </trkpt>
      <trkpt lat="45.1839" lon="5.81274">
        <ele>431.6</ele>
        <time>2021-04-10T06:37:56Z</time>
      </trkpt>
      <trkpt lat="45.18396" lon="5.8127">
        <ele>431.6</ele>
        <time>2021-04-10T06:37:57Z</time>
      </trkpt>
      <trkpt lat="45.184" lon="5.81266">
        <ele>431.4</ele>
        <time>2021-04-10T06:37:58Z</time>
      </trkpt>
      <trkpt lat="45.18402" lon="5.81264">
        <ele>431.6</ele>
        <time>2021-04-10T06:37:59Z</time>
      </trkpt>
      <trkpt lat="45.18404" lon="5.81262">
        <ele>431.2</ele>
        <time>2021-04-10T06:38:00Z</time>
      </trkpt>
      <trkpt lat="45.18407" lon="5.81259">
        <ele>431.2</ele>
        <time>2021-04-10T06:38:01Z</time>
      </trkpt>
      <trkpt lat="45.18409" lon="5.81256">
        <ele>430.8</ele>
        <time>2021-04-10T06:38:02Z</time>
      </trkpt>
      <trkpt lat="45.1841" lon="5.81254">
        <ele>430.8</ele>
        <time>2021-04-10T06:38:03Z</time>
      </trkpt>
      <trkpt lat="45.18412" lon="5.81252">
        <ele>430.6</ele>
        <time>2021-04-10T06:38:04Z</time>
      </trkpt>
      <trkpt lat="45.18414" lon="5.81248">
        <ele>430.6</ele>
        <time>2021-04-10T06:38:05Z</time>
      </trkpt>
      <trkpt lat="45.18415" lon="5.81246">
        <ele>430.2</ele>
        <time>2021-04-10T06:38:06Z</time>
      </trkpt>
      <trkpt lat="45.18416" lon="5.81244">
        <ele>430.4</ele>
        <time>2021-04-10T06:38:07Z</time>
      </trkpt>
      <trkpt lat="45.18417" lon="5.81242">
        <ele>430.2</ele>
        <time>2021-04-10T06:38:08Z</time>
      </trkpt>
      <trkpt lat="45.18417" lon="5.8124">
        <ele>430.4</ele>
        <time>2021-04-10T06:38:09Z</time>
      </trkpt>
      <trkpt lat="45.18418" lon="5.81238">
        <ele>430</ele>
        <time>2021-04-10T06:38:10Z</time>
      </trkpt>
      <trkpt lat="45.18418" lon="5.81236">
        <ele>430.2</ele>
        <time>2021-04-10T06:38:11Z</time>
      </trkpt>
      <trkpt lat="45.18419" lon="5.81234">
        <ele>430</ele>
        <time>2021-04-10T06:38:12Z</time>
      </trkpt>
      <trkpt lat="45.18421" lon="5.81225">
        <ele>429.8</ele>
        <time>2021-04-10T06:38:13Z</time>
      </trkpt>
      <trkpt lat="45.18421" lon="5.81222">
        <ele>429.6</ele>
        <time>2021-04-10T06:38:14Z</time>
      </trkpt>
      <trkpt lat="45.1842" lon="5.81219">
        <ele>429.8</ele>
        <time>2021-04-10T06:38:15Z</time>
      </trkpt>
      <trkpt lat="45.18419" lon="5.81217">
        <ele>429.4</ele>
        <time>2021-04-10T06:38:16Z</time>
      </trkpt>
      <trkpt lat="45.18419" lon="5.81214">
        <ele>429.6</ele>
        <time>2021-04-10T06:38:17Z</time>
      </trkpt>
      <trkpt lat="45.18418" lon="5.81212">
        <ele>429.4</ele>
        <time>2021-04-10T06:38:18Z</time>
      </trkpt>
      <trkpt lat="45.18417" lon="5.81209">
        <ele>429.4</ele>
        <time>2021-04-10T06:38:19Z</time>
      </trkpt>
      <trkpt lat="45.18416" lon="5.81207">
        <ele>429.4</ele>
        <time>2021-04-10T06:38:20Z</time>
      </trkpt>
      <trkpt lat="45.18416" lon="5.81207">
        <ele>429.4</ele>
        <time>2021-04-10T06:38:21Z</time>
      </trkpt>
      <trkpt lat="45.18416" lon="5.81207">
        <ele>429.2</ele>
        <time>2021-04-10T06:38:22Z</time>
      </trkpt>
      <trkpt lat="45.18416" lon="5.81207">
        <ele>429.4</ele>
        <time>2021-04-10T06:38:23Z</time>
      </trkpt>
      <trkpt lat="45.18415" lon="5.81202">
        <ele>429.2</ele>
        <time>2021-04-10T06:38:24Z</time>
      </trkpt>
      <trkpt lat="45.18414" lon="5.81198">
        <ele>429.4</ele>
        <time>2021-04-10T06:38:25Z</time>
      </trkpt>
      <trkpt lat="45.18413" lon="5.81194">
        <ele>429.2</ele>
        <time>2021-04-10T06:38:26Z</time>
      </trkpt>
      <trkpt lat="45.18412" lon="5.8119">
        <ele>429.4</ele>
        <time>2021-04-10T06:38:27Z</time>
      </trkpt>
      <trkpt lat="45.1841" lon="5.81186">
        <ele>429.4</ele>
        <time>2021-04-10T06:38:28Z</time>
      </trkpt>
      <trkpt lat="45.18409" lon="5.8118">
        <ele>429.4</ele>
        <time>2021-04-10T06:38:29Z</time>
      </trkpt>
      <trkpt lat="45.18408" lon="5.81177">
        <ele>429.2</ele>
        <time>2021-04-10T06:38:30Z</time>
      </trkpt>
      <trkpt lat="45.18407" lon="5.81174">
        <ele>429.6</ele>
        <time>2021-04-10T06:38:31Z</time>
      </trkpt>
      <trkpt lat="45.18407" lon="5.8117">
        <ele>429.4</ele>
        <time>2021-04-10T06:38:32Z</time>
      </trkpt>
      <trkpt lat="45.18406" lon="5.81167">
        <ele>429.6</ele>
        <time>2021-04-10T06:38:33Z</time>
      </trkpt>
      <trkpt lat="45.18406" lon="5.81167">
        <ele>429.4</ele>
        <time>2021-04-10T06:38:34Z</time>
      </trkpt>
      <trkpt lat="45.18406" lon="5.81167">
        <ele>429.6</ele>
        <time>2021-04-10T06:38:35Z</time>
      </trkpt>
      <trkpt lat="45.18406" lon="5.81167">
        <ele>429.4</ele>
        <time>2021-04-10T06:38:36Z</time>
      </trkpt>
      <trkpt lat="45.18405" lon="5.81166">
        <ele>429.6</ele>
        <time>2021-04-10T06:38:37Z</time>
      </trkpt>
      <trkpt lat="45.18404" lon="5.81164">
        <ele>429.4</ele>
        <time>2021-04-10T06:38:38Z</time>
      </trkpt>
      <trkpt lat="45.18404" lon="5.81162">
        <ele>429.6</ele>
        <time>2021-04-10T06:38:39Z</time>
      </trkpt>
      <trkpt lat="45.18403" lon="5.8116">
        <ele>429.4</ele>
        <time>2021-04-10T06:38:40Z</time>
      </trkpt>
      <trkpt lat="45.18402" lon="5.81159">
        <ele>429.4</ele>
        <time>2021-04-10T06:38:41Z</time>
      </trkpt>
      <trkpt lat="45.18401" lon="5.81157">
        <ele>429.2</ele>
        <time>2021-04-10T06:38:42Z</time>
      </trkpt>
      <trkpt lat="45.18401" lon="5.81155">
        <ele>429.4</ele>
        <time>2021-04-10T06:38:43Z</time>
      </trkpt>
      <trkpt lat="45.184" lon="5.81153">
        <ele>429.6</ele>
        <time>2021-04-10T06:38:44Z</time>
      </trkpt>
      <trkpt lat="45.18399" lon="5.81151">
        <ele>429.6</ele>
        <time>2021-04-10T06:38:45Z</time>
      </trkpt>
      <trkpt lat="45.18398" lon="5.81149">
        <ele>429.8</ele>
        <time>2021-04-10T06:38:46Z</time>
      </trkpt>
      <trkpt lat="45.18397" lon="5.81147">
        <ele>430</ele>
        <time>2021-04-10T06:38:47Z</time>
      </trkpt>
      <trkpt lat="45.18396" lon="5.81144">
        <ele>430.4</ele>
        <time>2021-04-10T06:38:48Z</time>
      </trkpt>
      <trkpt lat="45.18395" lon="5.81142">
        <ele>430.6</ele>
        <time>2021-04-10T06:38:49Z</time>
      </trkpt>
      <trkpt lat="45.18395" lon="5.81141">
        <ele>431.2</ele>
        <time>2021-04-10T06:38:50Z</time>
      </trkpt>
      <trkpt lat="45.18394" lon="5.81139">
        <ele>431.4</ele>
        <time>2021-04-10T06:38:51Z</time>
      </trkpt>
      <trkpt lat="45.18393" lon="5.81137">
        <ele>431.8</ele>
        <time>2021-04-10T06:38:52Z</time>
      </trkpt>
      <trkpt lat="45.18392" lon="5.81136">
        <ele>432.2</ele>
        <time>2021-04-10T06:38:53Z</time>
      </trkpt>
      <trkpt lat="45.18391" lon="5.81134">
        <ele>432.6</ele>
        <time>2021-04-10T06:38:54Z</time>
      </trkpt>
      <trkpt lat="45.1839" lon="5.81132">
        <ele>432.6</ele>
        <time>2021-04-10T06:38:55Z</time>
      </trkpt>
      <trkpt lat="45.18389" lon="5.81131">
        <ele>433</ele>
        <time>2021-04-10T06:38:56Z</time>
      </trkpt>
      <trkpt lat="45.18388" lon="5.81129">
        <ele>433</ele>
        <time>2021-04-10T06:38:57Z</time>
      </trkpt>
      <trkpt lat="45.18387" lon="5.81126">
        <ele>433.4</ele>
        <time>2021-04-10T06:38:58Z</time>
      </trkpt>
      <trkpt lat="45.18386" lon="5.81124">
        <ele>433.4</ele>
        <time>2021-04-10T06:38:59Z</time>
      </trkpt>
      <trkpt lat="45.18385" lon="5.81122">
        <ele>433.6</ele>
        <time>2021-04-10T06:39:00Z</time>
      </trkpt>
      <trkpt lat="45.18384" lon="5.81119">
        <ele>433.4</ele>
        <time>2021-04-10T06:39:01Z</time>
      </trkpt>
      <trkpt lat="45.1838" lon="5.81108">
        <ele>433.6</ele>
        <time>2021-04-10T06:39:02Z</time>
      </trkpt>
      <trkpt lat="45.1838" lon="5.81107">
        <ele>433.6</ele>
        <time>2021-04-10T06:39:03Z</time>
      </trkpt>
      <trkpt lat="45.1838" lon="5.81106">
        <ele>433.8</ele>
        <time>2021-04-10T06:39:04Z</time>
      </trkpt>
      <trkpt lat="45.1838" lon="5.81105">
        <ele>433.6</ele>
        <time>2021-04-10T06:39:05Z</time>
      </trkpt>
      <trkpt lat="45.1838" lon="5.81104">
        <ele>434</ele>
        <time>2021-04-10T06:39:06Z</time>
      </trkpt>
      <trkpt lat="45.1838" lon="5.81103">
        <ele>434</ele>
        <time>2021-04-10T06:39:07Z</time>
      </trkpt>
      <trkpt lat="45.18379" lon="5.81102">
        <ele>434</ele>
        <time>2021-04-10T06:39:08Z</time>
      </trkpt>
      <trkpt lat="45.18379" lon="5.81101">
        <ele>434.2</ele>
        <time>2021-04-10T06:39:09Z</time>
      </trkpt>
      <trkpt lat="45.18379" lon="5.81101">
        <ele>434.2</ele>
        <time>2021-04-10T06:39:10Z</time>
      </trkpt>
      <trkpt lat="45.18379" lon="5.811">
        <ele>434.4</ele>
        <time>2021-04-10T06:39:11Z</time>
      </trkpt>
      <trkpt lat="45.18379" lon="5.81099">
        <ele>434.4</ele>
        <time>2021-04-10T06:39:12Z</time>
      </trkpt>
      <trkpt lat="45.18379" lon="5.81098">
        <ele>434.2</ele>
        <time>2021-04-10T06:39:13Z</time>
      </trkpt>
      <trkpt lat="45.18379" lon="5.81097">
        <ele>434.2</ele>
        <time>2021-04-10T06:39:14Z</time>
      </trkpt>
      <trkpt lat="45.18378" lon="5.81096">
        <ele>434.2</ele>
        <time>2021-04-10T06:39:15Z</time>
      </trkpt>
      <trkpt lat="45.18378" lon="5.81095">
        <ele>434.4</ele>
        <time>2021-04-10T06:39:16Z</time>
      </trkpt>
      <trkpt lat="45.18378" lon="5.81094">
        <ele>434.4</ele>
        <time>2021-04-10T06:39:17Z</time>
      </trkpt>
      <trkpt lat="45.18378" lon="5.81093">
        <ele>434.6</ele>
        <time>2021-04-10T06:39:18Z</time>
      </trkpt>
      <trkpt lat="45.18378" lon="5.81092">
        <ele>434.6</ele>
        <time>2021-04-10T06:39:19Z</time>
      </trkpt>
      <trkpt lat="45.18378" lon="5.81091">
        <ele>434.6</ele>
        <time>2021-04-10T06:39:20Z</time>
      </trkpt>
      <trkpt lat="45.18378" lon="5.8109">
        <ele>434.6</ele>
        <time>2021-04-10T06:39:21Z</time>
      </trkpt>
      <trkpt lat="45.18377" lon="5.81089">
        <ele>434.6</ele>
        <time>2021-04-10T06:39:22Z</time>
      </trkpt>
      <trkpt lat="45.18377" lon="5.81088">
        <ele>434.6</ele>
        <time>2021-04-10T06:39:23Z</time>
      </trkpt>
      <trkpt lat="45.18377" lon="5.81088">
        <ele>434.6</ele>
        <time>2021-04-10T06:39:24Z</time>
      </trkpt>
      <trkpt lat="45.18377" lon="5.81087">
        <ele>434.6</ele>
        <time>2021-04-10T06:39:25Z</time>
      </trkpt>
      <trkpt lat="45.18377" lon="5.81086">
        <ele>434.6</ele>
        <time>2021-04-10T06:39:26Z</time>
      </trkpt>
      <trkpt lat="45.18377" lon="5.81085">
        <ele>434.6</ele>
        <time>2021-04-10T06:39:27Z</time>
      </trkpt>
      <trkpt lat="45.18376" lon="5.81084">
        <ele>434.8</ele>
        <time>2021-04-10T06:39:28Z</time>
      </trkpt>
      <trkpt lat="45.18376" lon="5.81083">
        <ele>435</ele>
        <time>2021-04-10T06:39:29Z</time>
      </trkpt>
      <trkpt lat="45.18376" lon="5.81082">
        <ele>435.2</ele>
        <time>2021-04-10T06:39:30Z</time>
      </trkpt>
      <trkpt lat="45.18376" lon="5.81081">
        <ele>435.2</ele>
        <time>2021-04-10T06:39:31Z</time>
      </trkpt>
      <trkpt lat="45.18376" lon="5.8108">
        <ele>435.2</ele>
        <time>2021-04-10T06:39:32Z</time>
      </trkpt>
      <trkpt lat="45.18376" lon="5.81079">
        <ele>435.2</ele>
        <time>2021-04-10T06:39:33Z</time>
      </trkpt>
      <trkpt lat="45.18376" lon="5.81078">
        <ele>435.4</ele>
        <time>2021-04-10T06:39:34Z</time>
      </trkpt>
      <trkpt lat="45.18375" lon="5.81077">
        <ele>435.6</ele>
        <time>2021-04-10T06:39:35Z</time>
      </trkpt>
      <trkpt lat="45.18375" lon="5.81076">
        <ele>435.6</ele>
        <time>2021-04-10T06:39:36Z</time>
      </trkpt>
      <trkpt lat="45.18375" lon="5.81076">
        <ele>435.6</ele>
        <time>2021-04-10T06:39:37Z</time>
      </trkpt>
      <trkpt lat="45.18375" lon="5.81075">
        <ele>435.8</ele>
        <time>2021-04-10T06:39:38Z</time>
      </trkpt>
      <trkpt lat="45.18375" lon="5.81074">
        <ele>435.8</ele>
        <time>2021-04-10T06:39:39Z</time>
      </trkpt>
      <trkpt lat="45.18375" lon="5.81073">
        <ele>436</ele>
        <time>2021-04-10T06:39:40Z</time>
      </trkpt>
      <trkpt lat="45.18375" lon="5.81072">
        <ele>436</ele>
        <time>2021-04-10T06:39:41Z</time>
      </trkpt>
      <trkpt lat="45.18374" lon="5.81071">
        <ele>436</ele>
        <time>2021-04-10T06:39:42Z</time>
      </trkpt>
      <trkpt lat="45.18374" lon="5.8107">
        <ele>436</ele>
        <time>2021-04-10T06:39:43Z</time>
      </trkpt>
      <trkpt lat="45.18374" lon="5.81069">
        <ele>436</ele>
        <time>2021-04-10T06:39:44Z</time>
      </trkpt>
      <trkpt lat="45.18374" lon="5.81068">
        <ele>436.2</ele>
        <time>2021-04-10T06:39:45Z</time>
      </trkpt>
      <trkpt lat="45.18374" lon="5.81067">
        <ele>436.2</ele>
        <time>2021-04-10T06:39:46Z</time>
      </trkpt>
      <trkpt lat="45.18374" lon="5.81066">
        <ele>436.2</ele>
        <time>2021-04-10T06:39:48Z</time>
      </trkpt>
      <trkpt lat="45.18373" lon="5.81065">
        <ele>436.4</ele>
        <time>2021-04-10T06:39:49Z</time>
      </trkpt>
      <trkpt lat="45.18373" lon="5.81064">
        <ele>436.2</ele>
        <time>2021-04-10T06:39:50Z</time>
      </trkpt>
      <trkpt lat="45.18373" lon="5.81063">
        <ele>436</ele>
        <time>2021-04-10T06:39:51Z</time>
      </trkpt>
      <trkpt lat="45.18373" lon="5.81063">
        <ele>436</ele>
        <time>2021-04-10T06:39:52Z</time>
      </trkpt>
      <trkpt lat="45.18373" lon="5.81062">
        <ele>436</ele>
        <time>2021-04-10T06:39:53Z</time>
      </trkpt>
      <trkpt lat="45.18373" lon="5.81061">
        <ele>436.2</ele>
        <time>2021-04-10T06:39:54Z</time>
      </trkpt>
      <trkpt lat="45.18373" lon="5.8106">
        <ele>436.2</ele>
        <time>2021-04-10T06:39:55Z</time>
      </trkpt>
      <trkpt lat="45.18372" lon="5.81059">
        <ele>436.2</ele>
        <time>2021-04-10T06:39:56Z</time>
      </trkpt>
      <trkpt lat="45.18372" lon="5.81058">
        <ele>436.2</ele>
        <time>2021-04-10T06:39:57Z</time>
      </trkpt>
      <trkpt lat="45.18371" lon="5.81057">
        <ele>436.2</ele>
        <time>2021-04-10T06:39:58Z</time>
      </trkpt>
      <trkpt lat="45.18371" lon="5.81056">
        <ele>436.2</ele>
        <time>2021-04-10T06:39:59Z</time>
      </trkpt>
      <trkpt lat="45.1837" lon="5.81055">
        <ele>436.2</ele>
        <time>2021-04-10T06:40:01Z</time>
      </trkpt>
      <trkpt lat="45.1837" lon="5.81055">
        <ele>436.2</ele>
        <time>2021-04-10T06:40:02Z</time>
      </trkpt>
      <trkpt lat="45.18369" lon="5.81054">
        <ele>436.2</ele>
        <time>2021-04-10T06:40:03Z</time>
      </trkpt>
      <trkpt lat="45.18368" lon="5.81053">
        <ele>436.4</ele>
        <time>2021-04-10T06:40:04Z</time>
      </trkpt>
      <trkpt lat="45.18368" lon="5.81052">
        <ele>436.2</ele>
        <time>2021-04-10T06:40:05Z</time>
      </trkpt>
      <trkpt lat="45.18367" lon="5.81051">
        <ele>436.4</ele>
        <time>2021-04-10T06:40:06Z</time>
      </trkpt>
      <trkpt lat="45.18367" lon="5.8105">
        <ele>436.4</ele>
        <time>2021-04-10T06:40:07Z</time>
      </trkpt>
      <trkpt lat="45.18366" lon="5.81049">
        <ele>436.4</ele>
        <time>2021-04-10T06:40:08Z</time>
      </trkpt>
      <trkpt lat="45.18366" lon="5.81049">
        <ele>436.4</ele>
        <time>2021-04-10T06:40:09Z</time>
      </trkpt>
      <trkpt lat="45.18365" lon="5.81048">
        <ele>436.6</ele>
        <time>2021-04-10T06:40:10Z</time>
      </trkpt>
      <trkpt lat="45.18364" lon="5.81047">
        <ele>436.4</ele>
        <time>2021-04-10T06:40:11Z</time>
      </trkpt>
      <trkpt lat="45.18364" lon="5.81046">
        <ele>436.4</ele>
        <time>2021-04-10T06:40:12Z</time>
      </trkpt>
      <trkpt lat="45.18363" lon="5.81045">
        <ele>436.4</ele>
        <time>2021-04-10T06:40:13Z</time>
      </trkpt>
      <trkpt lat="45.18363" lon="5.81044">
        <ele>436.4</ele>
        <time>2021-04-10T06:40:14Z</time>
      </trkpt>
      <trkpt lat="45.18362" lon="5.81043">
        <ele>436.4</ele>
        <time>2021-04-10T06:40:15Z</time>
      </trkpt>
      <trkpt lat="45.18362" lon="5.81043">
        <ele>436.2</ele>
        <time>2021-04-10T06:40:16Z</time>
      </trkpt>
      <trkpt lat="45.18361" lon="5.81042">
        <ele>436.2</ele>
        <time>2021-04-10T06:40:17Z</time>
      </trkpt>
      <trkpt lat="45.1836" lon="5.81041">
        <ele>436.2</ele>
        <time>2021-04-10T06:40:18Z</time>
      </trkpt>
      <trkpt lat="45.1836" lon="5.8104">
        <ele>436.2</ele>
        <time>2021-04-10T06:40:19Z</time>
      </trkpt>
      <trkpt lat="45.18359" lon="5.81039">
        <ele>436.2</ele>
        <time>2021-04-10T06:40:20Z</time>
      </trkpt>
      <trkpt lat="45.18359" lon="5.81038">
        <ele>436</ele>
        <time>2021-04-10T06:40:21Z</time>
      </trkpt>
      <trkpt lat="45.18358" lon="5.81037">
        <ele>436</ele>
        <time>2021-04-10T06:40:22Z</time>
      </trkpt>
      <trkpt lat="45.18358" lon="5.81037">
        <ele>436.2</ele>
        <time>2021-04-10T06:40:23Z</time>
      </trkpt>
      <trkpt lat="45.18357" lon="5.81036">
        <ele>436.4</ele>
        <time>2021-04-10T06:40:24Z</time>
      </trkpt>
      <trkpt lat="45.18356" lon="5.81035">
        <ele>436.8</ele>
        <time>2021-04-10T06:40:25Z</time>
      </trkpt>
      <trkpt lat="45.18356" lon="5.81034">
        <ele>436.8</ele>
        <time>2021-04-10T06:40:26Z</time>
      </trkpt>
      <trkpt lat="45.18355" lon="5.81033">
        <ele>436.8</ele>
        <time>2021-04-10T06:40:27Z</time>
      </trkpt>
      <trkpt lat="45.18355" lon="5.81032">
        <ele>436.8</ele>
        <time>2021-04-10T06:40:28Z</time>
      </trkpt>
      <trkpt lat="45.18354" lon="5.81031">
        <ele>437.2</ele>
        <time>2021-04-10T06:40:29Z</time>
      </trkpt>
      <trkpt lat="45.18354" lon="5.81031">
        <ele>437.2</ele>
        <time>2021-04-10T06:40:30Z</time>
      </trkpt>
      <trkpt lat="45.18353" lon="5.8103">
        <ele>437.2</ele>
        <time>2021-04-10T06:40:31Z</time>
      </trkpt>
      <trkpt lat="45.18352" lon="5.81029">
        <ele>437.4</ele>
        <time>2021-04-10T06:40:32Z</time>
      </trkpt>
      <trkpt lat="45.18352" lon="5.81028">
        <ele>437.6</ele>
        <time>2021-04-10T06:40:33Z</time>
      </trkpt>
      <trkpt lat="45.18351" lon="5.81027">
        <ele>437.6</ele>
        <time>2021-04-10T06:40:34Z</time>
      </trkpt>
      <trkpt lat="45.18351" lon="5.81026">
        <ele>437.8</ele>
        <time>2021-04-10T06:40:35Z</time>
      </trkpt>
      <trkpt lat="45.1835" lon="5.81025">
        <ele>437.8</ele>
        <time>2021-04-10T06:40:36Z</time>
      </trkpt>
      <trkpt lat="45.18349" lon="5.81019">
        <ele>438</ele>
        <time>2021-04-10T06:40:37Z</time>
      </trkpt>
      <trkpt lat="45.18348" lon="5.81013">
        <ele>438</ele>
        <time>2021-04-10T06:40:38Z</time>
      </trkpt>
      <trkpt lat="45.18347" lon="5.81007">
        <ele>438.2</ele>
        <time>2021-04-10T06:40:39Z</time>
      </trkpt>
      <trkpt lat="45.18345" lon="5.81001">
        <ele>438.2</ele>
        <time>2021-04-10T06:40:40Z</time>
      </trkpt>
      <trkpt lat="45.18344" lon="5.80995">
        <ele>438.4</ele>
        <time>2021-04-10T06:40:41Z</time>
      </trkpt>
      <trkpt lat="45.18343" lon="5.80988">
        <ele>438.4</ele>
        <time>2021-04-10T06:40:42Z</time>
      </trkpt>
      <trkpt lat="45.1834" lon="5.80985">
        <ele>438.6</ele>
        <time>2021-04-10T06:40:43Z</time>
      </trkpt>
      <trkpt lat="45.18337" lon="5.80981">
        <ele>439</ele>
        <time>2021-04-10T06:40:44Z</time>
      </trkpt>
      <trkpt lat="45.18334" lon="5.80977">
        <ele>439.2</ele>
        <time>2021-04-10T06:40:45Z</time>
      </trkpt>
      <trkpt lat="45.18331" lon="5.80974">
        <ele>439.4</ele>
        <time>2021-04-10T06:40:46Z</time>
      </trkpt>
      <trkpt lat="45.18328" lon="5.8097">
        <ele>439.6</ele>
        <time>2021-04-10T06:40:47Z</time>
      </trkpt>
      <trkpt lat="45.18325" lon="5.80966">
        <ele>439.8</ele>
        <time>2021-04-10T06:40:48Z</time>
      </trkpt>
      <trkpt lat="45.18322" lon="5.80962">
        <ele>439.8</ele>
        <time>2021-04-10T06:40:49Z</time>
      </trkpt>
      <trkpt lat="45.18322" lon="5.80962">
        <ele>440.2</ele>
        <time>2021-04-10T06:40:50Z</time>
      </trkpt>
      <trkpt lat="45.18322" lon="5.80962">
        <ele>440.4</ele>
        <time>2021-04-10T06:40:51Z</time>
      </trkpt>
      <trkpt lat="45.18322" lon="5.80961">
        <ele>440.8</ele>
        <time>2021-04-10T06:40:52Z</time>
      </trkpt>
      <trkpt lat="45.18322" lon="5.80959">
        <ele>441</ele>
        <time>2021-04-10T06:40:53Z</time>
      </trkpt>
      <trkpt lat="45.18323" lon="5.80957">
        <ele>441.4</ele>
        <time>2021-04-10T06:40:54Z</time>
      </trkpt>
      <trkpt lat="45.18323" lon="5.80955">
        <ele>441.4</ele>
        <time>2021-04-10T06:40:55Z</time>
      </trkpt>
      <trkpt lat="45.18323" lon="5.80954">
        <ele>441.4</ele>
        <time>2021-04-10T06:40:56Z</time>
      </trkpt>
      <trkpt lat="45.18324" lon="5.80952">
        <ele>441.4</ele>
        <time>2021-04-10T06:40:57Z</time>
      </trkpt>
      <trkpt lat="45.18324" lon="5.8095">
        <ele>441.4</ele>
        <time>2021-04-10T06:40:58Z</time>
      </trkpt>
      <trkpt lat="45.18324" lon="5.80949">
        <ele>441.8</ele>
        <time>2021-04-10T06:40:59Z</time>
      </trkpt>
      <trkpt lat="45.18324" lon="5.80947">
        <ele>441.4</ele>
        <time>2021-04-10T06:41:00Z</time>
      </trkpt>
      <trkpt lat="45.18323" lon="5.80946">
        <ele>441.6</ele>
        <time>2021-04-10T06:41:01Z</time>
      </trkpt>
      <trkpt lat="45.18323" lon="5.80944">
        <ele>441.6</ele>
        <time>2021-04-10T06:41:02Z</time>
      </trkpt>
      <trkpt lat="45.18323" lon="5.80943">
        <ele>441.8</ele>
        <time>2021-04-10T06:41:03Z</time>
      </trkpt>
      <trkpt lat="45.18323" lon="5.80941">
        <ele>441.6</ele>
        <time>2021-04-10T06:41:04Z</time>
      </trkpt>
      <trkpt lat="45.18323" lon="5.8094">
        <ele>441.8</ele>
        <time>2021-04-10T06:41:05Z</time>
      </trkpt>
      <trkpt lat="45.18323" lon="5.80939">
        <ele>441.6</ele>
        <time>2021-04-10T06:41:06Z</time>
      </trkpt>
      <trkpt lat="45.18322" lon="5.80937">
        <ele>442</ele>
        <time>2021-04-10T06:41:07Z</time>
      </trkpt>
      <trkpt lat="45.18323" lon="5.80936">
        <ele>441.8</ele>
        <time>2021-04-10T06:41:08Z</time>
      </trkpt>
      <trkpt lat="45.18324" lon="5.80934">
        <ele>441.8</ele>
        <time>2021-04-10T06:41:09Z</time>
      </trkpt>
      <trkpt lat="45.18324" lon="5.80933">
        <ele>441.6</ele>
        <time>2021-04-10T06:41:10Z</time>
      </trkpt>
      <trkpt lat="45.18325" lon="5.80931">
        <ele>441.2</ele>
        <time>2021-04-10T06:41:11Z</time>
      </trkpt>
      <trkpt lat="45.18325" lon="5.8093">
        <ele>441.2</ele>
        <time>2021-04-10T06:41:12Z</time>
      </trkpt>
      <trkpt lat="45.18326" lon="5.80928">
        <ele>441.2</ele>
        <time>2021-04-10T06:41:13Z</time>
      </trkpt>
      <trkpt lat="45.18327" lon="5.80927">
        <ele>441.4</ele>
        <time>2021-04-10T06:41:14Z</time>
      </trkpt>
      <trkpt lat="45.18327" lon="5.80925">
        <ele>441.4</ele>
        <time>2021-04-10T06:41:15Z</time>
      </trkpt>
      <trkpt lat="45.18327" lon="5.80923">
        <ele>441.8</ele>
        <time>2021-04-10T06:41:16Z</time>
      </trkpt>
      <trkpt lat="45.18326" lon="5.80921">
        <ele>441.6</ele>
        <time>2021-04-10T06:41:17Z</time>
      </trkpt>
      <trkpt lat="45.18326" lon="5.80918">
        <ele>442</ele>
        <time>2021-04-10T06:41:18Z</time>
      </trkpt>
      <trkpt lat="45.18325" lon="5.80916">
        <ele>442</ele>
        <time>2021-04-10T06:41:19Z</time>
      </trkpt>
      <trkpt lat="45.18325" lon="5.80914">
        <ele>442.4</ele>
        <time>2021-04-10T06:41:20Z</time>
      </trkpt>
      <trkpt lat="45.18324" lon="5.80912">
        <ele>442.4</ele>
        <time>2021-04-10T06:41:21Z</time>
      </trkpt>
      <trkpt lat="45.18324" lon="5.80909">
        <ele>442.4</ele>
        <time>2021-04-10T06:41:22Z</time>
      </trkpt>
      <trkpt lat="45.18324" lon="5.80907">
        <ele>442.2</ele>
        <time>2021-04-10T06:41:23Z</time>
      </trkpt>
      <trkpt lat="45.18323" lon="5.80905">
        <ele>442</ele>
        <time>2021-04-10T06:41:24Z</time>
      </trkpt>
      <trkpt lat="45.18323" lon="5.80903">
        <ele>441.8</ele>
        <time>2021-04-10T06:41:25Z</time>
      </trkpt>
      <trkpt lat="45.18323" lon="5.809">
        <ele>442</ele>
        <time>2021-04-10T06:41:26Z</time>
      </trkpt>
      <trkpt lat="45.18323" lon="5.80898">
        <ele>442.2</ele>
        <time>2021-04-10T06:41:27Z</time>
      </trkpt>
      <trkpt lat="45.18323" lon="5.80896">
        <ele>442.4</ele>
        <time>2021-04-10T06:41:28Z</time>
      </trkpt>
      <trkpt lat="45.18323" lon="5.80894">
        <ele>442.8</ele>
        <time>2021-04-10T06:41:29Z</time>
      </trkpt>
      <trkpt lat="45.18323" lon="5.80892">
        <ele>442.8</ele>
        <time>2021-04-10T06:41:30Z</time>
      </trkpt>
      <trkpt lat="45.18323" lon="5.8089">
        <ele>443.4</ele>
        <time>2021-04-10T06:41:31Z</time>
      </trkpt>
      <trkpt lat="45.18323" lon="5.80888">
        <ele>443.2</ele>
        <time>2021-04-10T06:41:32Z</time>
      </trkpt>
      <trkpt lat="45.18323" lon="5.80886">
        <ele>443.6</ele>
        <time>2021-04-10T06:41:33Z</time>
      </trkpt>
      <trkpt lat="45.18324" lon="5.80884">
        <ele>443.4</ele>
        <time>2021-04-10T06:41:34Z</time>
      </trkpt>
      <trkpt lat="45.18323" lon="5.80882">
        <ele>443.4</ele>
        <time>2021-04-10T06:41:35Z</time>
      </trkpt>
      <trkpt lat="45.18323" lon="5.80881">
        <ele>443.6</ele>
        <time>2021-04-10T06:41:36Z</time>
      </trkpt>
      <trkpt lat="45.18322" lon="5.80879">
        <ele>443.8</ele>
        <time>2021-04-10T06:41:37Z</time>
      </trkpt>
      <trkpt lat="45.18322" lon="5.80878">
        <ele>444.2</ele>
        <time>2021-04-10T06:41:38Z</time>
      </trkpt>
      <trkpt lat="45.18321" lon="5.80876">
        <ele>444.2</ele>
        <time>2021-04-10T06:41:39Z</time>
      </trkpt>
      <trkpt lat="45.18321" lon="5.80875">
        <ele>444.8</ele>
        <time>2021-04-10T06:41:40Z</time>
      </trkpt>
      <trkpt lat="45.18321" lon="5.80873">
        <ele>445.2</ele>
        <time>2021-04-10T06:41:41Z</time>
      </trkpt>
      <trkpt lat="45.1832" lon="5.80872">
        <ele>445.8</ele>
        <time>2021-04-10T06:41:42Z</time>
      </trkpt>
      <trkpt lat="45.1832" lon="5.8087">
        <ele>446.2</ele>
        <time>2021-04-10T06:41:43Z</time>
      </trkpt>
      <trkpt lat="45.1832" lon="5.80869">
        <ele>446.8</ele>
        <time>2021-04-10T06:41:44Z</time>
      </trkpt>
      <trkpt lat="45.1832" lon="5.80867">
        <ele>446.8</ele>
        <time>2021-04-10T06:41:45Z</time>
      </trkpt>
      <trkpt lat="45.1832" lon="5.80866">
        <ele>447.2</ele>
        <time>2021-04-10T06:41:46Z</time>
      </trkpt>
      <trkpt lat="45.1832" lon="5.80864">
        <ele>447.4</ele>
        <time>2021-04-10T06:41:47Z</time>
      </trkpt>
      <trkpt lat="45.1832" lon="5.80863">
        <ele>447.6</ele>
        <time>2021-04-10T06:41:48Z</time>
      </trkpt>
      <trkpt lat="45.1832" lon="5.80861">
        <ele>447.6</ele>
        <time>2021-04-10T06:41:49Z</time>
      </trkpt>
      <trkpt lat="45.1832" lon="5.8086">
        <ele>448</ele>
        <time>2021-04-10T06:41:50Z</time>
      </trkpt>
      <trkpt lat="45.1832" lon="5.80858">
        <ele>447.8</ele>
        <time>2021-04-10T06:41:51Z</time>
      </trkpt>
      <trkpt lat="45.1832" lon="5.80857">
        <ele>447.8</ele>
        <time>2021-04-10T06:41:52Z</time>
      </trkpt>
      <trkpt lat="45.18319" lon="5.80854">
        <ele>447.6</ele>
        <time>2021-04-10T06:41:53Z</time>
      </trkpt>
      <trkpt lat="45.18319" lon="5.80852">
        <ele>447.8</ele>
        <time>2021-04-10T06:41:54Z</time>
      </trkpt>
      <trkpt lat="45.18318" lon="5.8085">
        <ele>448.2</ele>
        <time>2021-04-10T06:41:55Z</time>
      </trkpt>
      <trkpt lat="45.18318" lon="5.80848">
        <ele>448.4</ele>
        <time>2021-04-10T06:41:56Z</time>
      </trkpt>
      <trkpt lat="45.18317" lon="5.80846">
        <ele>448.6</ele>
        <time>2021-04-10T06:41:57Z</time>
      </trkpt>
      <trkpt lat="45.18317" lon="5.80844">
        <ele>449</ele>
        <time>2021-04-10T06:41:58Z</time>
      </trkpt>
      <trkpt lat="45.18316" lon="5.80843">
        <ele>449.6</ele>
        <time>2021-04-10T06:41:59Z</time>
      </trkpt>
      <trkpt lat="45.18316" lon="5.80842">
        <ele>450</ele>
        <time>2021-04-10T06:42:00Z</time>
      </trkpt>
      <trkpt lat="45.18316" lon="5.8084">
        <ele>450.6</ele>
        <time>2021-04-10T06:42:01Z</time>
      </trkpt>
      <trkpt lat="45.18315" lon="5.80839">
        <ele>450.8</ele>
        <time>2021-04-10T06:42:02Z</time>
      </trkpt>
      <trkpt lat="45.18315" lon="5.80838">
        <ele>451.4</ele>
        <time>2021-04-10T06:42:03Z</time>
      </trkpt>
      <trkpt lat="45.18314" lon="5.80836">
        <ele>451.6</ele>
        <time>2021-04-10T06:42:04Z</time>
      </trkpt>
      <trkpt lat="45.18314" lon="5.80835">
        <ele>452.2</ele>
        <time>2021-04-10T06:42:05Z</time>
      </trkpt>
      <trkpt lat="45.18313" lon="5.80834">
        <ele>452.2</ele>
        <time>2021-04-10T06:42:06Z</time>
      </trkpt>
      <trkpt lat="45.18313" lon="5.80833">
        <ele>452.6</ele>
        <time>2021-04-10T06:42:07Z</time>
      </trkpt>
      <trkpt lat="45.18311" lon="5.80831">
        <ele>452.8</ele>
        <time>2021-04-10T06:42:08Z</time>
      </trkpt>
      <trkpt lat="45.1831" lon="5.80829">
        <ele>453.2</ele>
        <time>2021-04-10T06:42:09Z</time>
      </trkpt>
      <trkpt lat="45.18308" lon="5.80827">
        <ele>453.2</ele>
        <time>2021-04-10T06:42:10Z</time>
      </trkpt>
      <trkpt lat="45.18307" lon="5.80826">
        <ele>453.2</ele>
        <time>2021-04-10T06:42:11Z</time>
      </trkpt>
      <trkpt lat="45.18305" lon="5.80824">
        <ele>453.2</ele>
        <time>2021-04-10T06:42:12Z</time>
      </trkpt>
      <trkpt lat="45.18301" lon="5.8082">
        <ele>453.6</ele>
        <time>2021-04-10T06:42:13Z</time>
      </trkpt>
      <trkpt lat="45.18299" lon="5.80818">
        <ele>453.8</ele>
        <time>2021-04-10T06:42:14Z</time>
      </trkpt>
      <trkpt lat="45.18297" lon="5.80816">
        <ele>454.4</ele>
        <time>2021-04-10T06:42:15Z</time>
      </trkpt>
      <trkpt lat="45.18295" lon="5.80813">
        <ele>454.4</ele>
        <time>2021-04-10T06:42:16Z</time>
      </trkpt>
      <trkpt lat="45.18292" lon="5.80811">
        <ele>454.8</ele>
        <time>2021-04-10T06:42:17Z</time>
      </trkpt>
      <trkpt lat="45.1829" lon="5.80809">
        <ele>454.8</ele>
        <time>2021-04-10T06:42:18Z</time>
      </trkpt>
      <trkpt lat="45.18288" lon="5.80806">
        <ele>455.4</ele>
        <time>2021-04-10T06:42:19Z</time>
      </trkpt>
      <trkpt lat="45.18278" lon="5.80795">
        <ele>455.6</ele>
        <time>2021-04-10T06:42:20Z</time>
      </trkpt>
      <trkpt lat="45.18275" lon="5.8079">
        <ele>456</ele>
        <time>2021-04-10T06:42:21Z</time>
      </trkpt>
      <trkpt lat="45.18271" lon="5.80784">
        <ele>456.2</ele>
        <time>2021-04-10T06:42:22Z</time>
      </trkpt>
      <trkpt lat="45.18258" lon="5.80771">
        <ele>456.6</ele>
        <time>2021-04-10T06:42:23Z</time>
      </trkpt>
      <trkpt lat="45.18244" lon="5.80758">
        <ele>456.8</ele>
        <time>2021-04-10T06:42:24Z</time>
      </trkpt>
      <trkpt lat="45.18239" lon="5.80756">
        <ele>457</ele>
        <time>2021-04-10T06:42:25Z</time>
      </trkpt>
      <trkpt lat="45.1823" lon="5.80753">
        <ele>457</ele>
        <time>2021-04-10T06:42:26Z</time>
      </trkpt>
      <trkpt lat="45.18227" lon="5.80752">
        <ele>457.4</ele>
        <time>2021-04-10T06:42:27Z</time>
      </trkpt>
      <trkpt lat="45.18217" lon="5.80749">
        <ele>457.2</ele>
        <time>2021-04-10T06:42:28Z</time>
      </trkpt>
      <trkpt lat="45.18214" lon="5.80748">
        <ele>457.4</ele>
        <time>2021-04-10T06:42:29Z</time>
      </trkpt>
      <trkpt lat="45.18205" lon="5.80748">
        <ele>457</ele>
        <time>2021-04-10T06:42:30Z</time>
      </trkpt>
      <trkpt lat="45.18202" lon="5.80748">
        <ele>457</ele>
        <time>2021-04-10T06:42:31Z</time>
      </trkpt>
      <trkpt lat="45.18193" lon="5.80748">
        <ele>456.8</ele>
        <time>2021-04-10T06:42:32Z</time>
      </trkpt>
      <trkpt lat="45.18191" lon="5.80748">
        <ele>456.6</ele>
        <time>2021-04-10T06:42:33Z</time>
      </trkpt>
      <trkpt lat="45.18183" lon="5.80747">
        <ele>456.4</ele>
        <time>2021-04-10T06:42:34Z</time>
      </trkpt>
      <trkpt lat="45.1818" lon="5.80747">
        <ele>456</ele>
        <time>2021-04-10T06:42:35Z</time>
      </trkpt>
      <trkpt lat="45.18175" lon="5.80747">
        <ele>456.2</ele>
        <time>2021-04-10T06:42:36Z</time>
      </trkpt>
      <trkpt lat="45.18175" lon="5.80747">
        <ele>456</ele>
        <time>2021-04-10T06:42:37Z</time>
      </trkpt>
      <trkpt lat="45.18172" lon="5.80747">
        <ele>456.4</ele>
        <time>2021-04-10T06:42:38Z</time>
      </trkpt>
      <trkpt lat="45.18169" lon="5.80747">
        <ele>456.2</ele>
        <time>2021-04-10T06:42:39Z</time>
      </trkpt>
      <trkpt lat="45.18161" lon="5.80746">
        <ele>456.4</ele>
        <time>2021-04-10T06:42:40Z</time>
      </trkpt>
      <trkpt lat="45.18159" lon="5.80745">
        <ele>456.4</ele>
        <time>2021-04-10T06:42:41Z</time>
      </trkpt>
      <trkpt lat="45.18158" lon="5.80744">
        <ele>456.4</ele>
        <time>2021-04-10T06:42:42Z</time>
      </trkpt>
      <trkpt lat="45.18153" lon="5.80736">
        <ele>455.8</ele>
        <time>2021-04-10T06:42:43Z</time>
      </trkpt>
      <trkpt lat="45.18152" lon="5.80731">
        <ele>455.6</ele>
        <time>2021-04-10T06:42:44Z</time>
      </trkpt>
      <trkpt lat="45.18152" lon="5.80726">
        <ele>455.4</ele>
        <time>2021-04-10T06:42:45Z</time>
      </trkpt>
      <trkpt lat="45.18152" lon="5.80724">
        <ele>455.4</ele>
        <time>2021-04-10T06:42:46Z</time>
      </trkpt>
      <trkpt lat="45.18151" lon="5.80721">
        <ele>455.4</ele>
        <time>2021-04-10T06:42:47Z</time>
      </trkpt>
      <trkpt lat="45.18151" lon="5.80719">
        <ele>455.2</ele>
        <time>2021-04-10T06:42:48Z</time>
      </trkpt>
      <trkpt lat="45.18149" lon="5.80712">
        <ele>455.2</ele>
        <time>2021-04-10T06:42:49Z</time>
      </trkpt>
      <trkpt lat="45.18149" lon="5.80712">
        <ele>455</ele>
        <time>2021-04-10T06:42:50Z</time>
      </trkpt>
      <trkpt lat="45.18149" lon="5.80712">
        <ele>455.2</ele>
        <time>2021-04-10T06:42:51Z</time>
      </trkpt>
      <trkpt lat="45.18149" lon="5.80712">
        <ele>454.8</ele>
        <time>2021-04-10T06:42:52Z</time>
      </trkpt>
      <trkpt lat="45.1815" lon="5.80708">
        <ele>455</ele>
        <time>2021-04-10T06:42:53Z</time>
      </trkpt>
      <trkpt lat="45.1815" lon="5.80703">
        <ele>454.8</ele>
        <time>2021-04-10T06:42:54Z</time>
      </trkpt>
      <trkpt lat="45.18151" lon="5.80698">
        <ele>455</ele>
        <time>2021-04-10T06:42:55Z</time>
      </trkpt>
      <trkpt lat="45.18152" lon="5.80694">
        <ele>454.8</ele>
        <time>2021-04-10T06:42:56Z</time>
      </trkpt>
      <trkpt lat="45.18152" lon="5.80689">
        <ele>455.2</ele>
        <time>2021-04-10T06:42:57Z</time>
      </trkpt>
      <trkpt lat="45.18153" lon="5.80684">
        <ele>454.8</ele>
        <time>2021-04-10T06:42:58Z</time>
      </trkpt>
      <trkpt lat="45.18154" lon="5.8068">
        <ele>455.2</ele>
        <time>2021-04-10T06:42:59Z</time>
      </trkpt>
      <trkpt lat="45.18157" lon="5.80673">
        <ele>454.8</ele>
        <time>2021-04-10T06:43:00Z</time>
      </trkpt>
      <trkpt lat="45.18157" lon="5.80672">
        <ele>455</ele>
        <time>2021-04-10T06:43:01Z</time>
      </trkpt>
      <trkpt lat="45.18157" lon="5.8067">
        <ele>454.8</ele>
        <time>2021-04-10T06:43:02Z</time>
      </trkpt>
      <trkpt lat="45.18158" lon="5.80669">
        <ele>455</ele>
        <time>2021-04-10T06:43:03Z</time>
      </trkpt>
      <trkpt lat="45.18158" lon="5.80668">
        <ele>454.8</ele>
        <time>2021-04-10T06:43:04Z</time>
      </trkpt>
      <trkpt lat="45.18158" lon="5.80666">
        <ele>455</ele>
        <time>2021-04-10T06:43:05Z</time>
      </trkpt>
      <trkpt lat="45.1816" lon="5.80659">
        <ele>454.8</ele>
        <time>2021-04-10T06:43:06Z</time>
      </trkpt>
      <trkpt lat="45.1816" lon="5.80659">
        <ele>455</ele>
        <time>2021-04-10T06:43:07Z</time>
      </trkpt>
      <trkpt lat="45.1816" lon="5.80659">
        <ele>455</ele>
        <time>2021-04-10T06:43:08Z</time>
      </trkpt>
      <trkpt lat="45.1816" lon="5.80659">
        <ele>455.2</ele>
        <time>2021-04-10T06:43:09Z</time>
      </trkpt>
      <trkpt lat="45.18159" lon="5.80657">
        <ele>455</ele>
        <time>2021-04-10T06:43:10Z</time>
      </trkpt>
      <trkpt lat="45.18158" lon="5.80654">
        <ele>455.4</ele>
        <time>2021-04-10T06:43:11Z</time>
      </trkpt>
      <trkpt lat="45.18157" lon="5.80652">
        <ele>455</ele>
        <time>2021-04-10T06:43:12Z</time>
      </trkpt>
      <trkpt lat="45.18156" lon="5.8065">
        <ele>455.2</ele>
        <time>2021-04-10T06:43:13Z</time>
      </trkpt>
      <trkpt lat="45.18155" lon="5.80647">
        <ele>455.2</ele>
        <time>2021-04-10T06:43:14Z</time>
      </trkpt>
      <trkpt lat="45.18154" lon="5.80644">
        <ele>455.4</ele>
        <time>2021-04-10T06:43:15Z</time>
      </trkpt>
      <trkpt lat="45.18154" lon="5.80642">
        <ele>455.2</ele>
        <time>2021-04-10T06:43:16Z</time>
      </trkpt>
      <trkpt lat="45.18153" lon="5.80641">
        <ele>455.4</ele>
        <time>2021-04-10T06:43:17Z</time>
      </trkpt>
      <trkpt lat="45.18153" lon="5.80639">
        <ele>455.6</ele>
        <time>2021-04-10T06:43:18Z</time>
      </trkpt>
      <trkpt lat="45.18152" lon="5.80637">
        <ele>455.8</ele>
        <time>2021-04-10T06:43:19Z</time>
      </trkpt>
      <trkpt lat="45.18152" lon="5.80635">
        <ele>455.8</ele>
        <time>2021-04-10T06:43:20Z</time>
      </trkpt>
      <trkpt lat="45.18151" lon="5.80633">
        <ele>455.8</ele>
        <time>2021-04-10T06:43:21Z</time>
      </trkpt>
      <trkpt lat="45.1815" lon="5.80631">
        <ele>456</ele>
        <time>2021-04-10T06:43:22Z</time>
      </trkpt>
      <trkpt lat="45.1815" lon="5.80629">
        <ele>455.8</ele>
        <time>2021-04-10T06:43:23Z</time>
      </trkpt>
      <trkpt lat="45.18149" lon="5.80627">
        <ele>455.8</ele>
        <time>2021-04-10T06:43:24Z</time>
      </trkpt>
      <trkpt lat="45.18149" lon="5.80625">
        <ele>455.8</ele>
        <time>2021-04-10T06:43:25Z</time>
      </trkpt>
      <trkpt lat="45.18148" lon="5.80624">
        <ele>455.6</ele>
        <time>2021-04-10T06:43:26Z</time>
      </trkpt>
      <trkpt lat="45.18148" lon="5.80622">
        <ele>456.4</ele>
        <time>2021-04-10T06:43:27Z</time>
      </trkpt>
      <trkpt lat="45.18147" lon="5.8062">
        <ele>456.6</ele>
        <time>2021-04-10T06:43:28Z</time>
      </trkpt>
      <trkpt lat="45.18147" lon="5.80618">
        <ele>457</ele>
        <time>2021-04-10T06:43:29Z</time>
      </trkpt>
      <trkpt lat="45.18146" lon="5.80616">
        <ele>457</ele>
        <time>2021-04-10T06:43:30Z</time>
      </trkpt>
      <trkpt lat="45.18146" lon="5.80614">
        <ele>457.6</ele>
        <time>2021-04-10T06:43:31Z</time>
      </trkpt>
      <trkpt lat="45.18145" lon="5.80612">
        <ele>457.6</ele>
        <time>2021-04-10T06:43:32Z</time>
      </trkpt>
      <trkpt lat="45.18144" lon="5.8061">
        <ele>458</ele>
        <time>2021-04-10T06:43:33Z</time>
      </trkpt>
      <trkpt lat="45.18143" lon="5.80608">
        <ele>457.8</ele>
        <time>2021-04-10T06:43:34Z</time>
      </trkpt>
      <trkpt lat="45.18142" lon="5.80606">
        <ele>458</ele>
        <time>2021-04-10T06:43:35Z</time>
      </trkpt>
      <trkpt lat="45.18141" lon="5.80604">
        <ele>457.8</ele>
        <time>2021-04-10T06:43:36Z</time>
      </trkpt>
      <trkpt lat="45.1814" lon="5.80602">
        <ele>458.2</ele>
        <time>2021-04-10T06:43:37Z</time>
      </trkpt>
      <trkpt lat="45.18139" lon="5.806">
        <ele>458</ele>
        <time>2021-04-10T06:43:38Z</time>
      </trkpt>
      <trkpt lat="45.18138" lon="5.80598">
        <ele>458.2</ele>
        <time>2021-04-10T06:43:39Z</time>
      </trkpt>
      <trkpt lat="45.18137" lon="5.80596">
        <ele>458.2</ele>
        <time>2021-04-10T06:43:40Z</time>
      </trkpt>
      <trkpt lat="45.18136" lon="5.80593">
        <ele>458.4</ele>
        <time>2021-04-10T06:43:41Z</time>
      </trkpt>
      <trkpt lat="45.18135" lon="5.80591">
        <ele>458.4</ele>
        <time>2021-04-10T06:43:42Z</time>
      </trkpt>
      <trkpt lat="45.18134" lon="5.80589">
        <ele>458.6</ele>
        <time>2021-04-10T06:43:43Z</time>
      </trkpt>
      <trkpt lat="45.18134" lon="5.80589">
        <ele>458.4</ele>
        <time>2021-04-10T06:43:44Z</time>
      </trkpt>
      <trkpt lat="45.18134" lon="5.80589">
        <ele>458.6</ele>
        <time>2021-04-10T06:43:45Z</time>
      </trkpt>
      <trkpt lat="45.18134" lon="5.80589">
        <ele>458.2</ele>
        <time>2021-04-10T06:43:46Z</time>
      </trkpt>
      <trkpt lat="45.18134" lon="5.80589">
        <ele>458.4</ele>
        <time>2021-04-10T06:43:47Z</time>
      </trkpt>
      <trkpt lat="45.18133" lon="5.80587">
        <ele>458.2</ele>
        <time>2021-04-10T06:43:48Z</time>
      </trkpt>
      <trkpt lat="45.18132" lon="5.80585">
        <ele>458.2</ele>
        <time>2021-04-10T06:43:49Z</time>
      </trkpt>
      <trkpt lat="45.18131" lon="5.80583">
        <ele>458.2</ele>
        <time>2021-04-10T06:43:50Z</time>
      </trkpt>
      <trkpt lat="45.1813" lon="5.80581">
        <ele>458.4</ele>
        <time>2021-04-10T06:43:51Z</time>
      </trkpt>
      <trkpt lat="45.18129" lon="5.80579">
        <ele>458</ele>
        <time>2021-04-10T06:43:52Z</time>
      </trkpt>
      <trkpt lat="45.18128" lon="5.80577">
        <ele>458.2</ele>
        <time>2021-04-10T06:43:53Z</time>
      </trkpt>
      <trkpt lat="45.18127" lon="5.80575">
        <ele>458.2</ele>
        <time>2021-04-10T06:43:54Z</time>
      </trkpt>
      <trkpt lat="45.18127" lon="5.80573">
        <ele>458.4</ele>
        <time>2021-04-10T06:43:55Z</time>
      </trkpt>
      <trkpt lat="45.18126" lon="5.80571">
        <ele>458</ele>
        <time>2021-04-10T06:43:56Z</time>
      </trkpt>
      <trkpt lat="45.18125" lon="5.80569">
        <ele>458.2</ele>
        <time>2021-04-10T06:43:57Z</time>
      </trkpt>
      <trkpt lat="45.18124" lon="5.80567">
        <ele>457.8</ele>
        <time>2021-04-10T06:43:58Z</time>
      </trkpt>
      <trkpt lat="45.18124" lon="5.80565">
        <ele>458</ele>
        <time>2021-04-10T06:43:59Z</time>
      </trkpt>
      <trkpt lat="45.18122" lon="5.80561">
        <ele>457.6</ele>
        <time>2021-04-10T06:44:00Z</time>
      </trkpt>
      <trkpt lat="45.1812" lon="5.80558">
        <ele>457.8</ele>
        <time>2021-04-10T06:44:01Z</time>
      </trkpt>
      <trkpt lat="45.18118" lon="5.80554">
        <ele>457.6</ele>
        <time>2021-04-10T06:44:02Z</time>
      </trkpt>
      <trkpt lat="45.18116" lon="5.8055">
        <ele>457.6</ele>
        <time>2021-04-10T06:44:03Z</time>
      </trkpt>
      <trkpt lat="45.18114" lon="5.80546">
        <ele>457.6</ele>
        <time>2021-04-10T06:44:04Z</time>
      </trkpt>
      <trkpt lat="45.18113" lon="5.80542">
        <ele>457.6</ele>
        <time>2021-04-10T06:44:05Z</time>
      </trkpt>
      <trkpt lat="45.18103" lon="5.80526">
        <ele>457.8</ele>
        <time>2021-04-10T06:44:06Z</time>
      </trkpt>
      <trkpt lat="45.18093" lon="5.80511">
        <ele>457.8</ele>
        <time>2021-04-10T06:44:07Z</time>
      </trkpt>
      <trkpt lat="45.18087" lon="5.80505">
        <ele>458</ele>
        <time>2021-04-10T06:44:08Z</time>
      </trkpt>
      <trkpt lat="45.18085" lon="5.80502">
        <ele>458</ele>
        <time>2021-04-10T06:44:09Z</time>
      </trkpt>
      <trkpt lat="45.18083" lon="5.805">
        <ele>458.4</ele>
        <time>2021-04-10T06:44:10Z</time>
      </trkpt>
      <trkpt lat="45.18078" lon="5.80495">
        <ele>458.4</ele>
        <time>2021-04-10T06:44:11Z</time>
      </trkpt>
      <trkpt lat="45.1807" lon="5.80492">
        <ele>458.6</ele>
        <time>2021-04-10T06:44:12Z</time>
      </trkpt>
      <trkpt lat="45.18062" lon="5.80489">
        <ele>458.6</ele>
        <time>2021-04-10T06:44:13Z</time>
      </trkpt>
      <trkpt lat="45.18057" lon="5.80486">
        <ele>458.8</ele>
        <time>2021-04-10T06:44:14Z</time>
      </trkpt>
      <trkpt lat="45.18056" lon="5.80485">
        <ele>458.8</ele>
        <time>2021-04-10T06:44:15Z</time>
      </trkpt>
      <trkpt lat="45.18054" lon="5.80484">
        <ele>458.8</ele>
        <time>2021-04-10T06:44:16Z</time>
      </trkpt>
      <trkpt lat="45.18053" lon="5.80483">
        <ele>458.8</ele>
        <time>2021-04-10T06:44:17Z</time>
      </trkpt>
      <trkpt lat="45.18051" lon="5.80481">
        <ele>459.2</ele>
        <time>2021-04-10T06:44:18Z</time>
      </trkpt>
      <trkpt lat="45.18045" lon="5.80477">
        <ele>459</ele>
        <time>2021-04-10T06:44:19Z</time>
      </trkpt>
      <trkpt lat="45.18042" lon="5.80474">
        <ele>459.2</ele>
        <time>2021-04-10T06:44:20Z</time>
      </trkpt>
      <trkpt lat="45.1804" lon="5.80472">
        <ele>459</ele>
        <time>2021-04-10T06:44:21Z</time>
      </trkpt>
      <trkpt lat="45.18038" lon="5.8047">
        <ele>459</ele>
        <time>2021-04-10T06:44:22Z</time>
      </trkpt>
      <trkpt lat="45.18037" lon="5.80469">
        <ele>458.8</ele>
        <time>2021-04-10T06:44:23Z</time>
      </trkpt>
      <trkpt lat="45.18036" lon="5.80468">
        <ele>458.4</ele>
        <time>2021-04-10T06:44:24Z</time>
      </trkpt>
      <trkpt lat="45.18035" lon="5.80467">
        <ele>458.2</ele>
        <time>2021-04-10T06:44:25Z</time>
      </trkpt>
      <trkpt lat="45.18031" lon="5.80464">
        <ele>457.8</ele>
        <time>2021-04-10T06:44:26Z</time>
      </trkpt>
      <trkpt lat="45.18029" lon="5.80462">
        <ele>458</ele>
        <time>2021-04-10T06:44:27Z</time>
      </trkpt>
      <trkpt lat="45.18028" lon="5.80459">
        <ele>457.6</ele>
        <time>2021-04-10T06:44:28Z</time>
      </trkpt>
      <trkpt lat="45.18026" lon="5.80457">
        <ele>457.6</ele>
        <time>2021-04-10T06:44:29Z</time>
      </trkpt>
      <trkpt lat="45.18022" lon="5.8045">
        <ele>457</ele>
        <time>2021-04-10T06:44:30Z</time>
      </trkpt>
      <trkpt lat="45.18022" lon="5.8045">
        <ele>456.8</ele>
        <time>2021-04-10T06:44:31Z</time>
      </trkpt>
      <trkpt lat="45.18022" lon="5.8045">
        <ele>456.4</ele>
        <time>2021-04-10T06:44:32Z</time>
      </trkpt>
      <trkpt lat="45.18021" lon="5.80448">
        <ele>455.8</ele>
        <time>2021-04-10T06:44:33Z</time>
      </trkpt>
      <trkpt lat="45.1802" lon="5.80446">
        <ele>455.2</ele>
        <time>2021-04-10T06:44:34Z</time>
      </trkpt>
      <trkpt lat="45.1802" lon="5.80444">
        <ele>454.6</ele>
        <time>2021-04-10T06:44:35Z</time>
      </trkpt>
      <trkpt lat="45.18019" lon="5.80442">
        <ele>454.4</ele>
        <time>2021-04-10T06:44:36Z</time>
      </trkpt>
      <trkpt lat="45.18019" lon="5.8044">
        <ele>454</ele>
        <time>2021-04-10T06:44:37Z</time>
      </trkpt>
      <trkpt lat="45.18018" lon="5.80438">
        <ele>453.8</ele>
        <time>2021-04-10T06:44:38Z</time>
      </trkpt>
      <trkpt lat="45.18017" lon="5.80436">
        <ele>453.4</ele>
        <time>2021-04-10T06:44:39Z</time>
      </trkpt>
      <trkpt lat="45.18016" lon="5.80434">
        <ele>453.6</ele>
        <time>2021-04-10T06:44:40Z</time>
      </trkpt>
      <trkpt lat="45.18015" lon="5.80431">
        <ele>453.2</ele>
        <time>2021-04-10T06:44:41Z</time>
      </trkpt>
      <trkpt lat="45.18014" lon="5.80429">
        <ele>453.2</ele>
        <time>2021-04-10T06:44:42Z</time>
      </trkpt>
      <trkpt lat="45.18013" lon="5.80426">
        <ele>452.8</ele>
        <time>2021-04-10T06:44:43Z</time>
      </trkpt>
      <trkpt lat="45.18012" lon="5.80424">
        <ele>452.8</ele>
        <time>2021-04-10T06:44:44Z</time>
      </trkpt>
      <trkpt lat="45.18012" lon="5.80422">
        <ele>452.4</ele>
        <time>2021-04-10T06:44:45Z</time>
      </trkpt>
      <trkpt lat="45.18011" lon="5.8042">
        <ele>452.6</ele>
        <time>2021-04-10T06:44:46Z</time>
      </trkpt>
      <trkpt lat="45.18011" lon="5.80418">
        <ele>452</ele>
        <time>2021-04-10T06:44:47Z</time>
      </trkpt>
      <trkpt lat="45.1801" lon="5.80416">
        <ele>452</ele>
        <time>2021-04-10T06:44:48Z</time>
      </trkpt>
      <trkpt lat="45.1801" lon="5.80414">
        <ele>451.8</ele>
        <time>2021-04-10T06:44:49Z</time>
      </trkpt>
      <trkpt lat="45.18009" lon="5.80412">
        <ele>451.8</ele>
        <time>2021-04-10T06:44:50Z</time>
      </trkpt>
      <trkpt lat="45.18009" lon="5.8041">
        <ele>451.8</ele>
        <time>2021-04-10T06:44:51Z</time>
      </trkpt>
      <trkpt lat="45.18008" lon="5.80408">
        <ele>451.8</ele>
        <time>2021-04-10T06:44:52Z</time>
      </trkpt>
      <trkpt lat="45.18008" lon="5.80406">
        <ele>451.6</ele>
        <time>2021-04-10T06:44:53Z</time>
      </trkpt>
      <trkpt lat="45.18007" lon="5.80403">
        <ele>451.8</ele>
        <time>2021-04-10T06:44:54Z</time>
      </trkpt>
      <trkpt lat="45.18006" lon="5.80401">
        <ele>451.6</ele>
        <time>2021-04-10T06:44:55Z</time>
      </trkpt>
      <trkpt lat="45.18006" lon="5.80399">
        <ele>451.4</ele>
        <time>2021-04-10T06:44:56Z</time>
      </trkpt>
      <trkpt lat="45.18005" lon="5.80397">
        <ele>451.4</ele>
        <time>2021-04-10T06:44:57Z</time>
      </trkpt>
      <trkpt lat="45.18004" lon="5.80394">
        <ele>451.4</ele>
        <time>2021-04-10T06:44:58Z</time>
      </trkpt>
      <trkpt lat="45.18003" lon="5.80392">
        <ele>451</ele>
        <time>2021-04-10T06:44:59Z</time>
      </trkpt>
      <trkpt lat="45.18002" lon="5.8039">
        <ele>451</ele>
        <time>2021-04-10T06:45:00Z</time>
      </trkpt>
      <trkpt lat="45.18002" lon="5.80387">
        <ele>450.8</ele>
        <time>2021-04-10T06:45:01Z</time>
      </trkpt>
      <trkpt lat="45.18001" lon="5.80385">
        <ele>450.8</ele>
        <time>2021-04-10T06:45:02Z</time>
      </trkpt>
      <trkpt lat="45.18" lon="5.80382">
        <ele>450.4</ele>
        <time>2021-04-10T06:45:03Z</time>
      </trkpt>
      <trkpt lat="45.18" lon="5.8038">
        <ele>450.4</ele>
        <time>2021-04-10T06:45:04Z</time>
      </trkpt>
      <trkpt lat="45.17999" lon="5.80377">
        <ele>450.4</ele>
        <time>2021-04-10T06:45:05Z</time>
      </trkpt>
      <trkpt lat="45.17994" lon="5.80372">
        <ele>450.6</ele>
        <time>2021-04-10T06:45:06Z</time>
      </trkpt>
      <trkpt lat="45.1799" lon="5.80367">
        <ele>450.6</ele>
        <time>2021-04-10T06:45:07Z</time>
      </trkpt>
      <trkpt lat="45.17985" lon="5.80362">
        <ele>450.4</ele>
        <time>2021-04-10T06:45:08Z</time>
      </trkpt>
      <trkpt lat="45.1798" lon="5.80357">
        <ele>450.4</ele>
        <time>2021-04-10T06:45:09Z</time>
      </trkpt>
      <trkpt lat="45.17975" lon="5.80352">
        <ele>450.4</ele>
        <time>2021-04-10T06:45:10Z</time>
      </trkpt>
      <trkpt lat="45.1797" lon="5.80347">
        <ele>450.4</ele>
        <time>2021-04-10T06:45:11Z</time>
      </trkpt>
      <trkpt lat="45.17965" lon="5.80342">
        <ele>450.4</ele>
        <time>2021-04-10T06:45:12Z</time>
      </trkpt>
      <trkpt lat="45.17961" lon="5.80339">
        <ele>450.4</ele>
        <time>2021-04-10T06:45:13Z</time>
      </trkpt>
      <trkpt lat="45.17958" lon="5.80336">
        <ele>450.2</ele>
        <time>2021-04-10T06:45:14Z</time>
      </trkpt>
      <trkpt lat="45.17956" lon="5.80334">
        <ele>450.2</ele>
        <time>2021-04-10T06:45:15Z</time>
      </trkpt>
      <trkpt lat="45.17951" lon="5.8033">
        <ele>450</ele>
        <time>2021-04-10T06:45:16Z</time>
      </trkpt>
      <trkpt lat="45.1795" lon="5.80328">
        <ele>449.8</ele>
        <time>2021-04-10T06:45:17Z</time>
      </trkpt>
      <trkpt lat="45.17949" lon="5.80326">
        <ele>449.6</ele>
        <time>2021-04-10T06:45:18Z</time>
      </trkpt>
      <trkpt lat="45.17944" lon="5.80321">
        <ele>449.4</ele>
        <time>2021-04-10T06:45:19Z</time>
      </trkpt>
      <trkpt lat="45.1794" lon="5.80317">
        <ele>449.4</ele>
        <time>2021-04-10T06:45:20Z</time>
      </trkpt>
      <trkpt lat="45.17936" lon="5.80314">
        <ele>449.2</ele>
        <time>2021-04-10T06:45:21Z</time>
      </trkpt>
      <trkpt lat="45.17931" lon="5.8031">
        <ele>449.2</ele>
        <time>2021-04-10T06:45:22Z</time>
      </trkpt>
      <trkpt lat="45.17927" lon="5.80308">
        <ele>449.4</ele>
        <time>2021-04-10T06:45:23Z</time>
      </trkpt>
      <trkpt lat="45.17925" lon="5.80305">
        <ele>449.2</ele>
        <time>2021-04-10T06:45:24Z</time>
      </trkpt>
      <trkpt lat="45.17922" lon="5.80303">
        <ele>449.4</ele>
        <time>2021-04-10T06:45:25Z</time>
      </trkpt>
      <trkpt lat="45.17917" lon="5.80298">
        <ele>449.2</ele>
        <time>2021-04-10T06:45:26Z</time>
      </trkpt>
      <trkpt lat="45.17917" lon="5.80298">
        <ele>449.6</ele>
        <time>2021-04-10T06:45:27Z</time>
      </trkpt>
      <trkpt lat="45.17917" lon="5.80298">
        <ele>449.6</ele>
        <time>2021-04-10T06:45:28Z</time>
      </trkpt>
      <trkpt lat="45.17917" lon="5.80298">
        <ele>450</ele>
        <time>2021-04-10T06:45:29Z</time>
      </trkpt>
      <trkpt lat="45.17916" lon="5.80294">
        <ele>450</ele>
        <time>2021-04-10T06:45:30Z</time>
      </trkpt>
      <trkpt lat="45.17914" lon="5.80291">
        <ele>450.4</ele>
        <time>2021-04-10T06:45:31Z</time>
      </trkpt>
      <trkpt lat="45.17912" lon="5.80287">
        <ele>450.6</ele>
        <time>2021-04-10T06:45:32Z</time>
      </trkpt>
      <trkpt lat="45.17911" lon="5.80283">
        <ele>450.8</ele>
        <time>2021-04-10T06:45:33Z</time>
      </trkpt>
      <trkpt lat="45.17909" lon="5.8028">
        <ele>451</ele>
        <time>2021-04-10T06:45:34Z</time>
      </trkpt>
      <trkpt lat="45.17907" lon="5.80276">
        <ele>451.4</ele>
        <time>2021-04-10T06:45:35Z</time>
      </trkpt>
      <trkpt lat="45.179" lon="5.80271">
        <ele>451.4</ele>
        <time>2021-04-10T06:45:36Z</time>
      </trkpt>
      <trkpt lat="45.17897" lon="5.80268">
        <ele>451.8</ele>
        <time>2021-04-10T06:45:37Z</time>
      </trkpt>
      <trkpt lat="45.17894" lon="5.80266">
        <ele>451.8</ele>
        <time>2021-04-10T06:45:38Z</time>
      </trkpt>
      <trkpt lat="45.17892" lon="5.80264">
        <ele>452</ele>
        <time>2021-04-10T06:45:39Z</time>
      </trkpt>
      <trkpt lat="45.17891" lon="5.80263">
        <ele>451.8</ele>
        <time>2021-04-10T06:45:40Z</time>
      </trkpt>
      <trkpt lat="45.1789" lon="5.80262">
        <ele>452</ele>
        <time>2021-04-10T06:45:41Z</time>
      </trkpt>
      <trkpt lat="45.17889" lon="5.80261">
        <ele>451.8</ele>
        <time>2021-04-10T06:45:42Z</time>
      </trkpt>
      <trkpt lat="45.17885" lon="5.80258">
        <ele>452</ele>
        <time>2021-04-10T06:45:43Z</time>
      </trkpt>
      <trkpt lat="45.17884" lon="5.80256">
        <ele>451.8</ele>
        <time>2021-04-10T06:45:44Z</time>
      </trkpt>
      <trkpt lat="45.17883" lon="5.80254">
        <ele>452</ele>
        <time>2021-04-10T06:45:45Z</time>
      </trkpt>
      <trkpt lat="45.17882" lon="5.80252">
        <ele>451.6</ele>
        <time>2021-04-10T06:45:46Z</time>
      </trkpt>
      <trkpt lat="45.17879" lon="5.80247">
        <ele>451.8</ele>
        <time>2021-04-10T06:45:47Z</time>
      </trkpt>
      <trkpt lat="45.17877" lon="5.80245">
        <ele>451.4</ele>
        <time>2021-04-10T06:45:48Z</time>
      </trkpt>
      <trkpt lat="45.17875" lon="5.80243">
        <ele>451.6</ele>
        <time>2021-04-10T06:45:49Z</time>
      </trkpt>
      <trkpt lat="45.17873" lon="5.8024">
        <ele>451.2</ele>
        <time>2021-04-10T06:45:50Z</time>
      </trkpt>
      <trkpt lat="45.17868" lon="5.80234">
        <ele>451.2</ele>
        <time>2021-04-10T06:45:51Z</time>
      </trkpt>
      <trkpt lat="45.17866" lon="5.80232">
        <ele>451</ele>
        <time>2021-04-10T06:45:52Z</time>
      </trkpt>
      <trkpt lat="45.17864" lon="5.8023">
        <ele>451</ele>
        <time>2021-04-10T06:45:53Z</time>
      </trkpt>
      <trkpt lat="45.17863" lon="5.80227">
        <ele>451</ele>
        <time>2021-04-10T06:45:54Z</time>
      </trkpt>
      <trkpt lat="45.17862" lon="5.80225">
        <ele>451.2</ele>
        <time>2021-04-10T06:45:55Z</time>
      </trkpt>
      <trkpt lat="45.17861" lon="5.80223">
        <ele>451.4</ele>
        <time>2021-04-10T06:45:56Z</time>
      </trkpt>
      <trkpt lat="45.17858" lon="5.80214">
        <ele>451.4</ele>
        <time>2021-04-10T06:45:57Z</time>
      </trkpt>
      <trkpt lat="45.17856" lon="5.8021">
        <ele>451.8</ele>
        <time>2021-04-10T06:45:58Z</time>
      </trkpt>
      <trkpt lat="45.17855" lon="5.80207">
        <ele>452</ele>
        <time>2021-04-10T06:45:59Z</time>
      </trkpt>
      <trkpt lat="45.17854" lon="5.80204">
        <ele>452.4</ele>
        <time>2021-04-10T06:46:00Z</time>
      </trkpt>
      <trkpt lat="45.17852" lon="5.80201">
        <ele>452.4</ele>
        <time>2021-04-10T06:46:01Z</time>
      </trkpt>
      <trkpt lat="45.1785" lon="5.80198">
        <ele>452.8</ele>
        <time>2021-04-10T06:46:02Z</time>
      </trkpt>
      <trkpt lat="45.17849" lon="5.80196">
        <ele>453</ele>
        <time>2021-04-10T06:46:03Z</time>
      </trkpt>
      <trkpt lat="45.17848" lon="5.80194">
        <ele>453.2</ele>
        <time>2021-04-10T06:46:04Z</time>
      </trkpt>
      <trkpt lat="45.17847" lon="5.80192">
        <ele>453.2</ele>
        <time>2021-04-10T06:46:05Z</time>
      </trkpt>
      <trkpt lat="45.17846" lon="5.8019">
        <ele>453.6</ele>
        <time>2021-04-10T06:46:06Z</time>
      </trkpt>
      <trkpt lat="45.17845" lon="5.80189">
        <ele>453.6</ele>
        <time>2021-04-10T06:46:07Z</time>
      </trkpt>
      <trkpt lat="45.17844" lon="5.80187">
        <ele>453.8</ele>
        <time>2021-04-10T06:46:08Z</time>
      </trkpt>
      <trkpt lat="45.17843" lon="5.80186">
        <ele>453.8</ele>
        <time>2021-04-10T06:46:09Z</time>
      </trkpt>
      <trkpt lat="45.17839" lon="5.8018">
        <ele>453.8</ele>
        <time>2021-04-10T06:46:10Z</time>
      </trkpt>
      <trkpt lat="45.17839" lon="5.8018">
        <ele>453.8</ele>
        <time>2021-04-10T06:46:11Z</time>
      </trkpt>
      <trkpt lat="45.17839" lon="5.8018">
        <ele>453.8</ele>
        <time>2021-04-10T06:46:12Z</time>
      </trkpt>
      <trkpt lat="45.17838" lon="5.80178">
        <ele>453.6</ele>
        <time>2021-04-10T06:46:13Z</time>
      </trkpt>
      <trkpt lat="45.17837" lon="5.80175">
        <ele>453.8</ele>
        <time>2021-04-10T06:46:14Z</time>
      </trkpt>
      <trkpt lat="45.17836" lon="5.80173">
        <ele>453.8</ele>
        <time>2021-04-10T06:46:15Z</time>
      </trkpt>
      <trkpt lat="45.17836" lon="5.8017">
        <ele>453.8</ele>
        <time>2021-04-10T06:46:16Z</time>
      </trkpt>
      <trkpt lat="45.17835" lon="5.80168">
        <ele>453.6</ele>
        <time>2021-04-10T06:46:17Z</time>
      </trkpt>
      <trkpt lat="45.17836" lon="5.80164">
        <ele>453.8</ele>
        <time>2021-04-10T06:46:18Z</time>
      </trkpt>
      <trkpt lat="45.17836" lon="5.80162">
        <ele>453.4</ele>
        <time>2021-04-10T06:46:19Z</time>
      </trkpt>
      <trkpt lat="45.17837" lon="5.8016">
        <ele>453.2</ele>
        <time>2021-04-10T06:46:20Z</time>
      </trkpt>
      <trkpt lat="45.17838" lon="5.80159">
        <ele>452.8</ele>
        <time>2021-04-10T06:46:21Z</time>
      </trkpt>
      <trkpt lat="45.17839" lon="5.80157">
        <ele>452.6</ele>
        <time>2021-04-10T06:46:22Z</time>
      </trkpt>
      <trkpt lat="45.1784" lon="5.80156">
        <ele>452.2</ele>
        <time>2021-04-10T06:46:23Z</time>
      </trkpt>
      <trkpt lat="45.17841" lon="5.80154">
        <ele>451.6</ele>
        <time>2021-04-10T06:46:24Z</time>
      </trkpt>
      <trkpt lat="45.17848" lon="5.80153">
        <ele>451.6</ele>
        <time>2021-04-10T06:46:25Z</time>
      </trkpt>
      <trkpt lat="45.17852" lon="5.80153">
        <ele>451.2</ele>
        <time>2021-04-10T06:46:26Z</time>
      </trkpt>
      <trkpt lat="45.17855" lon="5.80153">
        <ele>451</ele>
        <time>2021-04-10T06:46:27Z</time>
      </trkpt>
      <trkpt lat="45.17858" lon="5.80153">
        <ele>450.6</ele>
        <time>2021-04-10T06:46:28Z</time>
      </trkpt>
      <trkpt lat="45.17862" lon="5.80153">
        <ele>450.2</ele>
        <time>2021-04-10T06:46:29Z</time>
      </trkpt>
      <trkpt lat="45.17864" lon="5.80154">
        <ele>449.4</ele>
        <time>2021-04-10T06:46:30Z</time>
      </trkpt>
      <trkpt lat="45.17866" lon="5.80154">
        <ele>448.8</ele>
        <time>2021-04-10T06:46:31Z</time>
      </trkpt>
      <trkpt lat="45.17869" lon="5.80154">
        <ele>448.8</ele>
        <time>2021-04-10T06:46:32Z</time>
      </trkpt>
      <trkpt lat="45.17871" lon="5.80154">
        <ele>448.4</ele>
        <time>2021-04-10T06:46:33Z</time>
      </trkpt>
      <trkpt lat="45.17872" lon="5.80155">
        <ele>448</ele>
        <time>2021-04-10T06:46:34Z</time>
      </trkpt>
      <trkpt lat="45.17879" lon="5.80156">
        <ele>447.4</ele>
        <time>2021-04-10T06:46:35Z</time>
      </trkpt>
      <trkpt lat="45.1788" lon="5.80156">
        <ele>447</ele>
        <time>2021-04-10T06:46:36Z</time>
      </trkpt>
      <trkpt lat="45.17881" lon="5.80155">
        <ele>446.6</ele>
        <time>2021-04-10T06:46:37Z</time>
      </trkpt>
      <trkpt lat="45.17883" lon="5.80155">
        <ele>446.4</ele>
        <time>2021-04-10T06:46:38Z</time>
      </trkpt>
      <trkpt lat="45.17888" lon="5.80155">
        <ele>445.8</ele>
        <time>2021-04-10T06:46:39Z</time>
      </trkpt>
      <trkpt lat="45.17888" lon="5.80155">
        <ele>445</ele>
        <time>2021-04-10T06:46:40Z</time>
      </trkpt>
      <trkpt lat="45.17888" lon="5.80155">
        <ele>444.8</ele>
        <time>2021-04-10T06:46:41Z</time>
      </trkpt>
      <trkpt lat="45.17888" lon="5.80155">
        <ele>444.2</ele>
        <time>2021-04-10T06:46:42Z</time>
      </trkpt>
      <trkpt lat="45.17888" lon="5.80155">
        <ele>443.8</ele>
        <time>2021-04-10T06:46:43Z</time>
      </trkpt>
      <trkpt lat="45.1789" lon="5.80154">
        <ele>443</ele>
        <time>2021-04-10T06:46:44Z</time>
      </trkpt>
      <trkpt lat="45.17892" lon="5.80154">
        <ele>442.2</ele>
        <time>2021-04-10T06:46:45Z</time>
      </trkpt>
      <trkpt lat="45.17894" lon="5.80153">
        <ele>441.4</ele>
        <time>2021-04-10T06:46:46Z</time>
      </trkpt>
      <trkpt lat="45.17896" lon="5.80152">
        <ele>440.6</ele>
        <time>2021-04-10T06:46:47Z</time>
      </trkpt>
      <trkpt lat="45.17898" lon="5.80151">
        <ele>440.2</ele>
        <time>2021-04-10T06:46:48Z</time>
      </trkpt>
      <trkpt lat="45.17901" lon="5.8015">
        <ele>439.8</ele>
        <time>2021-04-10T06:46:49Z</time>
      </trkpt>
      <trkpt lat="45.17904" lon="5.80149">
        <ele>439.4</ele>
        <time>2021-04-10T06:46:50Z</time>
      </trkpt>
      <trkpt lat="45.17907" lon="5.80148">
        <ele>438.8</ele>
        <time>2021-04-10T06:46:51Z</time>
      </trkpt>
      <trkpt lat="45.1791" lon="5.80147">
        <ele>438.2</ele>
        <time>2021-04-10T06:46:52Z</time>
      </trkpt>
      <trkpt lat="45.17912" lon="5.80146">
        <ele>437.4</ele>
        <time>2021-04-10T06:46:53Z</time>
      </trkpt>
      <trkpt lat="45.1792" lon="5.80144">
        <ele>436.4</ele>
        <time>2021-04-10T06:46:54Z</time>
      </trkpt>
      <trkpt lat="45.17923" lon="5.80144">
        <ele>436.2</ele>
        <time>2021-04-10T06:46:55Z</time>
      </trkpt>
      <trkpt lat="45.17926" lon="5.80144">
        <ele>435.6</ele>
        <time>2021-04-10T06:46:56Z</time>
      </trkpt>
      <trkpt lat="45.17928" lon="5.80144">
        <ele>435.4</ele>
        <time>2021-04-10T06:46:57Z</time>
      </trkpt>
      <trkpt lat="45.17929" lon="5.80144">
        <ele>434.8</ele>
        <time>2021-04-10T06:46:58Z</time>
      </trkpt>
      <trkpt lat="45.1793" lon="5.80145">
        <ele>434.2</ele>
        <time>2021-04-10T06:46:59Z</time>
      </trkpt>
      <trkpt lat="45.1793" lon="5.80145">
        <ele>433.4</ele>
        <time>2021-04-10T06:47:00Z</time>
      </trkpt>
      <trkpt lat="45.17931" lon="5.80145">
        <ele>432.8</ele>
        <time>2021-04-10T06:47:01Z</time>
      </trkpt>
      <trkpt lat="45.17932" lon="5.80146">
        <ele>433</ele>
        <time>2021-04-10T06:47:02Z</time>
      </trkpt>
      <trkpt lat="45.17935" lon="5.80147">
        <ele>432.4</ele>
        <time>2021-04-10T06:47:03Z</time>
      </trkpt>
      <trkpt lat="45.17939" lon="5.80149">
        <ele>432.2</ele>
        <time>2021-04-10T06:47:04Z</time>
      </trkpt>
      <trkpt lat="45.17943" lon="5.80151">
        <ele>431.6</ele>
        <time>2021-04-10T06:47:05Z</time>
      </trkpt>
      <trkpt lat="45.17946" lon="5.80152">
        <ele>431.2</ele>
        <time>2021-04-10T06:47:06Z</time>
      </trkpt>
      <trkpt lat="45.17947" lon="5.80153">
        <ele>430.6</ele>
        <time>2021-04-10T06:47:07Z</time>
      </trkpt>
      <trkpt lat="45.17948" lon="5.80154">
        <ele>430.2</ele>
        <time>2021-04-10T06:47:08Z</time>
      </trkpt>
      <trkpt lat="45.17949" lon="5.80154">
        <ele>430</ele>
        <time>2021-04-10T06:47:09Z</time>
      </trkpt>
      <trkpt lat="45.1795" lon="5.80155">
        <ele>429.6</ele>
        <time>2021-04-10T06:47:10Z</time>
      </trkpt>
      <trkpt lat="45.17951" lon="5.80156">
        <ele>429.6</ele>
        <time>2021-04-10T06:47:11Z</time>
      </trkpt>
      <trkpt lat="45.17955" lon="5.80159">
        <ele>429.4</ele>
        <time>2021-04-10T06:47:12Z</time>
      </trkpt>
      <trkpt lat="45.17957" lon="5.8016">
        <ele>429.2</ele>
        <time>2021-04-10T06:47:13Z</time>
      </trkpt>
      <trkpt lat="45.17959" lon="5.80162">
        <ele>429</ele>
        <time>2021-04-10T06:47:14Z</time>
      </trkpt>
      <trkpt lat="45.17962" lon="5.80163">
        <ele>428.6</ele>
        <time>2021-04-10T06:47:15Z</time>
      </trkpt>
      <trkpt lat="45.17968" lon="5.80168">
        <ele>428</ele>
        <time>2021-04-10T06:47:16Z</time>
      </trkpt>
      <trkpt lat="45.1797" lon="5.80169">
        <ele>427.6</ele>
        <time>2021-04-10T06:47:17Z</time>
      </trkpt>
      <trkpt lat="45.17972" lon="5.80171">
        <ele>427.2</ele>
        <time>2021-04-10T06:47:18Z</time>
      </trkpt>
      <trkpt lat="45.17972" lon="5.80171">
        <ele>426.6</ele>
        <time>2021-04-10T06:47:19Z</time>
      </trkpt>
      <trkpt lat="45.17972" lon="5.80171">
        <ele>426.4</ele>
        <time>2021-04-10T06:47:20Z</time>
      </trkpt>
      <trkpt lat="45.17972" lon="5.80171">
        <ele>426.2</ele>
        <time>2021-04-10T06:47:21Z</time>
      </trkpt>
      <trkpt lat="45.17972" lon="5.80171">
        <ele>426</ele>
        <time>2021-04-10T06:47:22Z</time>
      </trkpt>
      <trkpt lat="45.17974" lon="5.80172">
        <ele>425.6</ele>
        <time>2021-04-10T06:47:23Z</time>
      </trkpt>
      <trkpt lat="45.17975" lon="5.80174">
        <ele>425.4</ele>
        <time>2021-04-10T06:47:24Z</time>
      </trkpt>
      <trkpt lat="45.17977" lon="5.80176">
        <ele>425.2</ele>
        <time>2021-04-10T06:47:25Z</time>
      </trkpt>
      <trkpt lat="45.17979" lon="5.80178">
        <ele>425</ele>
        <time>2021-04-10T06:47:26Z</time>
      </trkpt>
      <trkpt lat="45.1798" lon="5.8018">
        <ele>424.4</ele>
        <time>2021-04-10T06:47:27Z</time>
      </trkpt>
      <trkpt lat="45.17983" lon="5.80184">
        <ele>424.2</ele>
        <time>2021-04-10T06:47:28Z</time>
      </trkpt>
      <trkpt lat="45.17985" lon="5.80187">
        <ele>423.8</ele>
        <time>2021-04-10T06:47:29Z</time>
      </trkpt>
      <trkpt lat="45.17987" lon="5.8019">
        <ele>423.4</ele>
        <time>2021-04-10T06:47:30Z</time>
      </trkpt>
      <trkpt lat="45.17988" lon="5.80192">
        <ele>422.8</ele>
        <time>2021-04-10T06:47:31Z</time>
      </trkpt>
      <trkpt lat="45.1799" lon="5.80195">
        <ele>422.4</ele>
        <time>2021-04-10T06:47:32Z</time>
      </trkpt>
      <trkpt lat="45.17992" lon="5.80198">
        <ele>422.2</ele>
        <time>2021-04-10T06:47:33Z</time>
      </trkpt>
      <trkpt lat="45.17994" lon="5.80201">
        <ele>421.8</ele>
        <time>2021-04-10T06:47:34Z</time>
      </trkpt>
      <trkpt lat="45.17995" lon="5.80202">
        <ele>421.8</ele>
        <time>2021-04-10T06:47:35Z</time>
      </trkpt>
      <trkpt lat="45.17996" lon="5.80203">
        <ele>421.4</ele>
        <time>2021-04-10T06:47:36Z</time>
      </trkpt>
      <trkpt lat="45.17997" lon="5.80205">
        <ele>421</ele>
        <time>2021-04-10T06:47:37Z</time>
      </trkpt>
      <trkpt lat="45.17998" lon="5.80206">
        <ele>420.6</ele>
        <time>2021-04-10T06:47:38Z</time>
      </trkpt>
      <trkpt lat="45.17999" lon="5.80207">
        <ele>420.2</ele>
        <time>2021-04-10T06:47:39Z</time>
      </trkpt>
      <trkpt lat="45.18003" lon="5.80214">
        <ele>419.6</ele>
        <time>2021-04-10T06:47:40Z</time>
      </trkpt>
      <trkpt lat="45.18006" lon="5.80217">
        <ele>419</ele>
        <time>2021-04-10T06:47:41Z</time>
      </trkpt>
      <trkpt lat="45.18008" lon="5.80219">
        <ele>418.6</ele>
        <time>2021-04-10T06:47:42Z</time>
      </trkpt>
      <trkpt lat="45.1801" lon="5.80222">
        <ele>418.2</ele>
        <time>2021-04-10T06:47:43Z</time>
      </trkpt>
      <trkpt lat="45.18011" lon="5.80223">
        <ele>418.2</ele>
        <time>2021-04-10T06:47:44Z</time>
      </trkpt>
      <trkpt lat="45.18012" lon="5.80224">
        <ele>417.8</ele>
        <time>2021-04-10T06:47:45Z</time>
      </trkpt>
      <trkpt lat="45.18013" lon="5.80225">
        <ele>417.8</ele>
        <time>2021-04-10T06:47:46Z</time>
      </trkpt>
      <trkpt lat="45.18016" lon="5.80229">
        <ele>417.4</ele>
        <time>2021-04-10T06:47:47Z</time>
      </trkpt>
      <trkpt lat="45.18018" lon="5.80231">
        <ele>417.6</ele>
        <time>2021-04-10T06:47:48Z</time>
      </trkpt>
      <trkpt lat="45.1802" lon="5.80233">
        <ele>417.4</ele>
        <time>2021-04-10T06:47:49Z</time>
      </trkpt>
      <trkpt lat="45.18022" lon="5.80235">
        <ele>417.2</ele>
        <time>2021-04-10T06:47:50Z</time>
      </trkpt>
      <trkpt lat="45.18024" lon="5.80237">
        <ele>417</ele>
        <time>2021-04-10T06:47:51Z</time>
      </trkpt>
      <trkpt lat="45.18024" lon="5.80237">
        <ele>416.8</ele>
        <time>2021-04-10T06:47:52Z</time>
      </trkpt>
      <trkpt lat="45.18024" lon="5.80237">
        <ele>416.4</ele>
        <time>2021-04-10T06:47:53Z</time>
      </trkpt>
      <trkpt lat="45.18024" lon="5.80237">
        <ele>416.2</ele>
        <time>2021-04-10T06:47:54Z</time>
      </trkpt>
      <trkpt lat="45.18024" lon="5.80237">
        <ele>415.8</ele>
        <time>2021-04-10T06:47:55Z</time>
      </trkpt>
      <trkpt lat="45.18025" lon="5.80239">
        <ele>415.6</ele>
        <time>2021-04-10T06:47:56Z</time>
      </trkpt>
      <trkpt lat="45.18026" lon="5.80241">
        <ele>415.2</ele>
        <time>2021-04-10T06:47:57Z</time>
      </trkpt>
      <trkpt lat="45.18027" lon="5.80243">
        <ele>414.8</ele>
        <time>2021-04-10T06:47:58Z</time>
      </trkpt>
      <trkpt lat="45.18028" lon="5.80245">
        <ele>415</ele>
        <time>2021-04-10T06:47:59Z</time>
      </trkpt>
      <trkpt lat="45.18029" lon="5.80247">
        <ele>414.8</ele>
        <time>2021-04-10T06:48:00Z</time>
      </trkpt>
      <trkpt lat="45.1803" lon="5.8025">
        <ele>414.4</ele>
        <time>2021-04-10T06:48:01Z</time>
      </trkpt>
      <trkpt lat="45.18032" lon="5.80251">
        <ele>414</ele>
        <time>2021-04-10T06:48:02Z</time>
      </trkpt>
      <trkpt lat="45.18033" lon="5.80253">
        <ele>414.2</ele>
        <time>2021-04-10T06:48:03Z</time>
      </trkpt>
      <trkpt lat="45.18034" lon="5.80255">
        <ele>413.8</ele>
        <time>2021-04-10T06:48:04Z</time>
      </trkpt>
      <trkpt lat="45.18036" lon="5.80257">
        <ele>413.8</ele>
        <time>2021-04-10T06:48:05Z</time>
      </trkpt>
      <trkpt lat="45.18037" lon="5.80259">
        <ele>413.4</ele>
        <time>2021-04-10T06:48:06Z</time>
      </trkpt>
      <trkpt lat="45.18039" lon="5.80261">
        <ele>413.4</ele>
        <time>2021-04-10T06:48:07Z</time>
      </trkpt>
      <trkpt lat="45.18041" lon="5.80263">
        <ele>413</ele>
        <time>2021-04-10T06:48:08Z</time>
      </trkpt>
      <trkpt lat="45.18042" lon="5.80266">
        <ele>412.8</ele>
        <time>2021-04-10T06:48:09Z</time>
      </trkpt>
      <trkpt lat="45.18044" lon="5.80268">
        <ele>412.2</ele>
        <time>2021-04-10T06:48:10Z</time>
      </trkpt>
      <trkpt lat="45.18045" lon="5.8027">
        <ele>412</ele>
        <time>2021-04-10T06:48:11Z</time>
      </trkpt>
      <trkpt lat="45.18047" lon="5.80272">
        <ele>411.4</ele>
        <time>2021-04-10T06:48:12Z</time>
      </trkpt>
      <trkpt lat="45.18049" lon="5.80273">
        <ele>410.8</ele>
        <time>2021-04-10T06:48:13Z</time>
      </trkpt>
      <trkpt lat="45.1805" lon="5.80275">
        <ele>410.8</ele>
        <time>2021-04-10T06:48:14Z</time>
      </trkpt>
      <trkpt lat="45.18052" lon="5.80276">
        <ele>410.6</ele>
        <time>2021-04-10T06:48:15Z</time>
      </trkpt>
      <trkpt lat="45.18054" lon="5.80278">
        <ele>410.6</ele>
        <time>2021-04-10T06:48:16Z</time>
      </trkpt>
      <trkpt lat="45.18056" lon="5.80282">
        <ele>410.2</ele>
        <time>2021-04-10T06:48:17Z</time>
      </trkpt>
      <trkpt lat="45.18059" lon="5.80286">
        <ele>409.8</ele>
        <time>2021-04-10T06:48:18Z</time>
      </trkpt>
      <trkpt lat="45.18062" lon="5.8029">
        <ele>409.2</ele>
        <time>2021-04-10T06:48:19Z</time>
      </trkpt>
      <trkpt lat="45.18065" lon="5.80294">
        <ele>408.6</ele>
        <time>2021-04-10T06:48:20Z</time>
      </trkpt>
      <trkpt lat="45.18068" lon="5.80298">
        <ele>408.4</ele>
        <time>2021-04-10T06:48:21Z</time>
      </trkpt>
      <trkpt lat="45.1807" lon="5.80299">
        <ele>407.8</ele>
        <time>2021-04-10T06:48:22Z</time>
      </trkpt>
      <trkpt lat="45.18072" lon="5.803">
        <ele>407.6</ele>
        <time>2021-04-10T06:48:23Z</time>
      </trkpt>
      <trkpt lat="45.18074" lon="5.80301">
        <ele>407.2</ele>
        <time>2021-04-10T06:48:24Z</time>
      </trkpt>
      <trkpt lat="45.18076" lon="5.80302">
        <ele>407.2</ele>
        <time>2021-04-10T06:48:25Z</time>
      </trkpt>
      <trkpt lat="45.18079" lon="5.80304">
        <ele>406.8</ele>
        <time>2021-04-10T06:48:26Z</time>
      </trkpt>
      <trkpt lat="45.18082" lon="5.80305">
        <ele>406.4</ele>
        <time>2021-04-10T06:48:27Z</time>
      </trkpt>
      <trkpt lat="45.18085" lon="5.80306">
        <ele>406</ele>
        <time>2021-04-10T06:48:28Z</time>
      </trkpt>
      <trkpt lat="45.18088" lon="5.80308">
        <ele>405.6</ele>
        <time>2021-04-10T06:48:29Z</time>
      </trkpt>
      <trkpt lat="45.18091" lon="5.80311">
        <ele>405</ele>
        <time>2021-04-10T06:48:30Z</time>
      </trkpt>
      <trkpt lat="45.18093" lon="5.80313">
        <ele>404.2</ele>
        <time>2021-04-10T06:48:31Z</time>
      </trkpt>
      <trkpt lat="45.18094" lon="5.80314">
        <ele>403.6</ele>
        <time>2021-04-10T06:48:32Z</time>
      </trkpt>
      <trkpt lat="45.18095" lon="5.80316">
        <ele>402.6</ele>
        <time>2021-04-10T06:48:33Z</time>
      </trkpt>
      <trkpt lat="45.18096" lon="5.80317">
        <ele>402.8</ele>
        <time>2021-04-10T06:48:34Z</time>
      </trkpt>
      <trkpt lat="45.18097" lon="5.80318">
        <ele>402.4</ele>
        <time>2021-04-10T06:48:35Z</time>
      </trkpt>
      <trkpt lat="45.18098" lon="5.80319">
        <ele>402.4</ele>
        <time>2021-04-10T06:48:36Z</time>
      </trkpt>
      <trkpt lat="45.18103" lon="5.80325">
        <ele>402.2</ele>
        <time>2021-04-10T06:48:37Z</time>
      </trkpt>
      <trkpt lat="45.18105" lon="5.80328">
        <ele>402</ele>
        <time>2021-04-10T06:48:38Z</time>
      </trkpt>
      <trkpt lat="45.18106" lon="5.80329">
        <ele>401.6</ele>
        <time>2021-04-10T06:48:39Z</time>
      </trkpt>
      <trkpt lat="45.18108" lon="5.80331">
        <ele>401.4</ele>
        <time>2021-04-10T06:48:40Z</time>
      </trkpt>
      <trkpt lat="45.18109" lon="5.80333">
        <ele>401</ele>
        <time>2021-04-10T06:48:41Z</time>
      </trkpt>
      <trkpt lat="45.18109" lon="5.80333">
        <ele>401</ele>
        <time>2021-04-10T06:48:42Z</time>
      </trkpt>
      <trkpt lat="45.18109" lon="5.80333">
        <ele>400.6</ele>
        <time>2021-04-10T06:48:43Z</time>
      </trkpt>
      <trkpt lat="45.18109" lon="5.80333">
        <ele>400.4</ele>
        <time>2021-04-10T06:48:44Z</time>
      </trkpt>
      <trkpt lat="45.1811" lon="5.80335">
        <ele>400</ele>
        <time>2021-04-10T06:48:45Z</time>
      </trkpt>
      <trkpt lat="45.18112" lon="5.80337">
        <ele>399.8</ele>
        <time>2021-04-10T06:48:46Z</time>
      </trkpt>
      <trkpt lat="45.18113" lon="5.8034">
        <ele>399.6</ele>
        <time>2021-04-10T06:48:47Z</time>
      </trkpt>
      <trkpt lat="45.18114" lon="5.80342">
        <ele>399.6</ele>
        <time>2021-04-10T06:48:48Z</time>
      </trkpt>
      <trkpt lat="45.18115" lon="5.80344">
        <ele>399.4</ele>
        <time>2021-04-10T06:48:49Z</time>
      </trkpt>
      <trkpt lat="45.18117" lon="5.80348">
        <ele>399.4</ele>
        <time>2021-04-10T06:48:50Z</time>
      </trkpt>
      <trkpt lat="45.1812" lon="5.80351">
        <ele>399.2</ele>
        <time>2021-04-10T06:48:51Z</time>
      </trkpt>
      <trkpt lat="45.18122" lon="5.80354">
        <ele>399.4</ele>
        <time>2021-04-10T06:48:52Z</time>
      </trkpt>
      <trkpt lat="45.18124" lon="5.80358">
        <ele>399.2</ele>
        <time>2021-04-10T06:48:53Z</time>
      </trkpt>
      <trkpt lat="45.18126" lon="5.80361">
        <ele>399.2</ele>
        <time>2021-04-10T06:48:54Z</time>
      </trkpt>
      <trkpt lat="45.18131" lon="5.80367">
        <ele>399</ele>
        <time>2021-04-10T06:48:55Z</time>
      </trkpt>
      <trkpt lat="45.18132" lon="5.80368">
        <ele>399.2</ele>
        <time>2021-04-10T06:48:56Z</time>
      </trkpt>
      <trkpt lat="45.18133" lon="5.80369">
        <ele>399</ele>
        <time>2021-04-10T06:48:57Z</time>
      </trkpt>
      <trkpt lat="45.18134" lon="5.8037">
        <ele>399</ele>
        <time>2021-04-10T06:48:58Z</time>
      </trkpt>
      <trkpt lat="45.18137" lon="5.80375">
        <ele>398.8</ele>
        <time>2021-04-10T06:48:59Z</time>
      </trkpt>
      <trkpt lat="45.18138" lon="5.80377">
        <ele>399</ele>
        <time>2021-04-10T06:49:00Z</time>
      </trkpt>
      <trkpt lat="45.18139" lon="5.80378">
        <ele>398.8</ele>
        <time>2021-04-10T06:49:01Z</time>
      </trkpt>
      <trkpt lat="45.1814" lon="5.8038">
        <ele>398.8</ele>
        <time>2021-04-10T06:49:02Z</time>
      </trkpt>
      <trkpt lat="45.18141" lon="5.80382">
        <ele>398.8</ele>
        <time>2021-04-10T06:49:03Z</time>
      </trkpt>
      <trkpt lat="45.18146" lon="5.80388">
        <ele>398.8</ele>
        <time>2021-04-10T06:49:04Z</time>
      </trkpt>
      <trkpt lat="45.18149" lon="5.80393">
        <ele>398.6</ele>
        <time>2021-04-10T06:49:05Z</time>
      </trkpt>
      <trkpt lat="45.18151" lon="5.80396">
        <ele>398.6</ele>
        <time>2021-04-10T06:49:06Z</time>
      </trkpt>
      <trkpt lat="45.18153" lon="5.80399">
        <ele>398.4</ele>
        <time>2021-04-10T06:49:07Z</time>
      </trkpt>
      <trkpt lat="45.18154" lon="5.80401">
        <ele>398.4</ele>
        <time>2021-04-10T06:49:08Z</time>
      </trkpt>
      <trkpt lat="45.18156" lon="5.80404">
        <ele>398</ele>
        <time>2021-04-10T06:49:09Z</time>
      </trkpt>
      <trkpt lat="45.18157" lon="5.80406">
        <ele>398.2</ele>
        <time>2021-04-10T06:49:10Z</time>
      </trkpt>
      <trkpt lat="45.18158" lon="5.80407">
        <ele>397.8</ele>
        <time>2021-04-10T06:49:11Z</time>
      </trkpt>
      <trkpt lat="45.18159" lon="5.80409">
        <ele>398</ele>
        <time>2021-04-10T06:49:12Z</time>
      </trkpt>
      <trkpt lat="45.1816" lon="5.8041">
        <ele>397.8</ele>
        <time>2021-04-10T06:49:13Z</time>
      </trkpt>
      <trkpt lat="45.18161" lon="5.80411">
        <ele>398</ele>
        <time>2021-04-10T06:49:14Z</time>
      </trkpt>
      <trkpt lat="45.18162" lon="5.80413">
        <ele>397.8</ele>
        <time>2021-04-10T06:49:15Z</time>
      </trkpt>
      <trkpt lat="45.18166" lon="5.8042">
        <ele>397.8</ele>
        <time>2021-04-10T06:49:16Z</time>
      </trkpt>
      <trkpt lat="45.18167" lon="5.80421">
        <ele>397.6</ele>
        <time>2021-04-10T06:49:17Z</time>
      </trkpt>
      <trkpt lat="45.18168" lon="5.80422">
        <ele>397.6</ele>
        <time>2021-04-10T06:49:18Z</time>
      </trkpt>
      <trkpt lat="45.18168" lon="5.80422">
        <ele>397.4</ele>
        <time>2021-04-10T06:49:19Z</time>
      </trkpt>
      <trkpt lat="45.18172" lon="5.80427">
        <ele>397.6</ele>
        <time>2021-04-10T06:49:20Z</time>
      </trkpt>
      <trkpt lat="45.18173" lon="5.80429">
        <ele>397.4</ele>
        <time>2021-04-10T06:49:21Z</time>
      </trkpt>
      <trkpt lat="45.18174" lon="5.8043">
        <ele>397.6</ele>
        <time>2021-04-10T06:49:22Z</time>
      </trkpt>
      <trkpt lat="45.18175" lon="5.80432">
        <ele>397.2</ele>
        <time>2021-04-10T06:49:23Z</time>
      </trkpt>
      <trkpt lat="45.18177" lon="5.80433">
        <ele>397.4</ele>
        <time>2021-04-10T06:49:24Z</time>
      </trkpt>
      <trkpt lat="45.18182" lon="5.80439">
        <ele>397.2</ele>
        <time>2021-04-10T06:49:25Z</time>
      </trkpt>
      <trkpt lat="45.18185" lon="5.80443">
        <ele>397.6</ele>
        <time>2021-04-10T06:49:26Z</time>
      </trkpt>
      <trkpt lat="45.18187" lon="5.80445">
        <ele>397.2</ele>
        <time>2021-04-10T06:49:27Z</time>
      </trkpt>
      <trkpt lat="45.18189" lon="5.80447">
        <ele>397.6</ele>
        <time>2021-04-10T06:49:28Z</time>
      </trkpt>
      <trkpt lat="45.18191" lon="5.8045">
        <ele>397.4</ele>
        <time>2021-04-10T06:49:29Z</time>
      </trkpt>
      <trkpt lat="45.18193" lon="5.80452">
        <ele>397.8</ele>
        <time>2021-04-10T06:49:30Z</time>
      </trkpt>
      <trkpt lat="45.18195" lon="5.80454">
        <ele>397.6</ele>
        <time>2021-04-10T06:49:31Z</time>
      </trkpt>
      <trkpt lat="45.18195" lon="5.80454">
        <ele>398</ele>
        <time>2021-04-10T06:49:32Z</time>
      </trkpt>
      <trkpt lat="45.18195" lon="5.80454">
        <ele>397.8</ele>
        <time>2021-04-10T06:49:33Z</time>
      </trkpt>
      <trkpt lat="45.18195" lon="5.80454">
        <ele>398</ele>
        <time>2021-04-10T06:49:34Z</time>
      </trkpt>
      <trkpt lat="45.18195" lon="5.80454">
        <ele>397.8</ele>
        <time>2021-04-10T06:49:35Z</time>
      </trkpt>
      <trkpt lat="45.18197" lon="5.80456">
        <ele>397.8</ele>
        <time>2021-04-10T06:49:36Z</time>
      </trkpt>
      <trkpt lat="45.182" lon="5.80458">
        <ele>397.6</ele>
        <time>2021-04-10T06:49:37Z</time>
      </trkpt>
      <trkpt lat="45.18203" lon="5.8046">
        <ele>397.6</ele>
        <time>2021-04-10T06:49:38Z</time>
      </trkpt>
      <trkpt lat="45.18205" lon="5.80463">
        <ele>397.6</ele>
        <time>2021-04-10T06:49:39Z</time>
      </trkpt>
      <trkpt lat="45.18208" lon="5.80465">
        <ele>397.8</ele>
        <time>2021-04-10T06:49:40Z</time>
      </trkpt>
      <trkpt lat="45.18212" lon="5.80468">
        <ele>397.6</ele>
        <time>2021-04-10T06:49:41Z</time>
      </trkpt>
      <trkpt lat="45.18214" lon="5.80471">
        <ele>397.8</ele>
        <time>2021-04-10T06:49:42Z</time>
      </trkpt>
      <trkpt lat="45.18216" lon="5.80473">
        <ele>397.6</ele>
        <time>2021-04-10T06:49:43Z</time>
      </trkpt>
      <trkpt lat="45.18217" lon="5.80475">
        <ele>397.8</ele>
        <time>2021-04-10T06:49:44Z</time>
      </trkpt>
      <trkpt lat="45.18219" lon="5.80478">
        <ele>397.6</ele>
        <time>2021-04-10T06:49:45Z</time>
      </trkpt>
      <trkpt lat="45.18221" lon="5.80479">
        <ele>397.4</ele>
        <time>2021-04-10T06:49:46Z</time>
      </trkpt>
      <trkpt lat="45.18222" lon="5.80481">
        <ele>397.4</ele>
        <time>2021-04-10T06:49:47Z</time>
      </trkpt>
      <trkpt lat="45.18223" lon="5.80482">
        <ele>397.4</ele>
        <time>2021-04-10T06:49:48Z</time>
      </trkpt>
      <trkpt lat="45.18224" lon="5.80484">
        <ele>397</ele>
        <time>2021-04-10T06:49:49Z</time>
      </trkpt>
      <trkpt lat="45.18229" lon="5.8049">
        <ele>397.4</ele>
        <time>2021-04-10T06:49:50Z</time>
      </trkpt>
      <trkpt lat="45.1823" lon="5.80491">
        <ele>397.4</ele>
        <time>2021-04-10T06:49:51Z</time>
      </trkpt>
      <trkpt lat="45.18231" lon="5.80492">
        <ele>397.6</ele>
        <time>2021-04-10T06:49:52Z</time>
      </trkpt>
      <trkpt lat="45.18234" lon="5.80497">
        <ele>397.2</ele>
        <time>2021-04-10T06:49:53Z</time>
      </trkpt>
      <trkpt lat="45.18235" lon="5.80499">
        <ele>397.4</ele>
        <time>2021-04-10T06:49:54Z</time>
      </trkpt>
      <trkpt lat="45.18236" lon="5.80501">
        <ele>397</ele>
        <time>2021-04-10T06:49:55Z</time>
      </trkpt>
      <trkpt lat="45.18238" lon="5.80503">
        <ele>397.2</ele>
        <time>2021-04-10T06:49:56Z</time>
      </trkpt>
      <trkpt lat="45.18239" lon="5.80504">
        <ele>396.8</ele>
        <time>2021-04-10T06:49:57Z</time>
      </trkpt>
      <trkpt lat="45.18244" lon="5.80512">
        <ele>396.8</ele>
        <time>2021-04-10T06:49:58Z</time>
      </trkpt>
      <trkpt lat="45.18246" lon="5.80514">
        <ele>396.6</ele>
        <time>2021-04-10T06:49:59Z</time>
      </trkpt>
      <trkpt lat="45.18248" lon="5.80516">
        <ele>396.6</ele>
        <time>2021-04-10T06:50:00Z</time>
      </trkpt>
      <trkpt lat="45.18249" lon="5.80519">
        <ele>396.2</ele>
        <time>2021-04-10T06:50:01Z</time>
      </trkpt>
      <trkpt lat="45.1825" lon="5.80521">
        <ele>396.2</ele>
        <time>2021-04-10T06:50:02Z</time>
      </trkpt>
      <trkpt lat="45.18251" lon="5.80523">
        <ele>396</ele>
        <time>2021-04-10T06:50:03Z</time>
      </trkpt>
      <trkpt lat="45.18252" lon="5.80525">
        <ele>396</ele>
        <time>2021-04-10T06:50:04Z</time>
      </trkpt>
      <trkpt lat="45.18254" lon="5.80532">
        <ele>395.6</ele>
        <time>2021-04-10T06:50:05Z</time>
      </trkpt>
      <trkpt lat="45.18254" lon="5.80534">
        <ele>395.8</ele>
        <time>2021-04-10T06:50:06Z</time>
      </trkpt>
      <trkpt lat="45.18255" lon="5.80535">
        <ele>395.2</ele>
        <time>2021-04-10T06:50:07Z</time>
      </trkpt>
      <trkpt lat="45.18255" lon="5.80537">
        <ele>395.2</ele>
        <time>2021-04-10T06:50:08Z</time>
      </trkpt>
      <trkpt lat="45.18256" lon="5.80539">
        <ele>394.8</ele>
        <time>2021-04-10T06:50:09Z</time>
      </trkpt>
      <trkpt lat="45.18258" lon="5.80547">
        <ele>394.6</ele>
        <time>2021-04-10T06:50:10Z</time>
      </trkpt>
      <trkpt lat="45.18261" lon="5.80555">
        <ele>394.4</ele>
        <time>2021-04-10T06:50:11Z</time>
      </trkpt>
      <trkpt lat="45.18263" lon="5.80563">
        <ele>394.4</ele>
        <time>2021-04-10T06:50:12Z</time>
      </trkpt>
      <trkpt lat="45.18266" lon="5.8057">
        <ele>394.2</ele>
        <time>2021-04-10T06:50:13Z</time>
      </trkpt>
      <trkpt lat="45.18268" lon="5.80578">
        <ele>394</ele>
        <time>2021-04-10T06:50:14Z</time>
      </trkpt>
      <trkpt lat="45.18271" lon="5.80586">
        <ele>393.6</ele>
        <time>2021-04-10T06:50:15Z</time>
      </trkpt>
      <trkpt lat="45.18273" lon="5.80594">
        <ele>393.4</ele>
        <time>2021-04-10T06:50:16Z</time>
      </trkpt>
      <trkpt lat="45.1828" lon="5.80613">
        <ele>393</ele>
        <time>2021-04-10T06:50:17Z</time>
      </trkpt>
      <trkpt lat="45.18287" lon="5.80633">
        <ele>392.6</ele>
        <time>2021-04-10T06:50:18Z</time>
      </trkpt>
      <trkpt lat="45.18287" lon="5.80633">
        <ele>392.4</ele>
        <time>2021-04-10T06:50:19Z</time>
      </trkpt>
      <trkpt lat="45.18287" lon="5.80637">
        <ele>392</ele>
        <time>2021-04-10T06:50:20Z</time>
      </trkpt>
      <trkpt lat="45.18288" lon="5.80641">
        <ele>392</ele>
        <time>2021-04-10T06:50:21Z</time>
      </trkpt>
      <trkpt lat="45.18289" lon="5.80645">
        <ele>391.8</ele>
        <time>2021-04-10T06:50:22Z</time>
      </trkpt>
      <trkpt lat="45.1829" lon="5.80649">
        <ele>391.8</ele>
        <time>2021-04-10T06:50:23Z</time>
      </trkpt>
      <trkpt lat="45.1829" lon="5.80653">
        <ele>391.2</ele>
        <time>2021-04-10T06:50:24Z</time>
      </trkpt>
      <trkpt lat="45.18295" lon="5.80659">
        <ele>391.4</ele>
        <time>2021-04-10T06:50:25Z</time>
      </trkpt>
      <trkpt lat="45.18297" lon="5.80661">
        <ele>391</ele>
        <time>2021-04-10T06:50:26Z</time>
      </trkpt>
      <trkpt lat="45.18299" lon="5.80662">
        <ele>390.8</ele>
        <time>2021-04-10T06:50:27Z</time>
      </trkpt>
      <trkpt lat="45.183" lon="5.80663">
        <ele>390.4</ele>
        <time>2021-04-10T06:50:28Z</time>
      </trkpt>
      <trkpt lat="45.18301" lon="5.80665">
        <ele>390.2</ele>
        <time>2021-04-10T06:50:29Z</time>
      </trkpt>
      <trkpt lat="45.18302" lon="5.80666">
        <ele>389.8</ele>
        <time>2021-04-10T06:50:30Z</time>
      </trkpt>
      <trkpt lat="45.18303" lon="5.80667">
        <ele>389.6</ele>
        <time>2021-04-10T06:50:31Z</time>
      </trkpt>
      <trkpt lat="45.18305" lon="5.80669">
        <ele>389.2</ele>
        <time>2021-04-10T06:50:32Z</time>
      </trkpt>
      <trkpt lat="45.18306" lon="5.80671">
        <ele>388.6</ele>
        <time>2021-04-10T06:50:33Z</time>
      </trkpt>
      <trkpt lat="45.18309" lon="5.80676">
        <ele>388.6</ele>
        <time>2021-04-10T06:50:34Z</time>
      </trkpt>
      <trkpt lat="45.18309" lon="5.80676">
        <ele>388.4</ele>
        <time>2021-04-10T06:50:35Z</time>
      </trkpt>
      <trkpt lat="45.18309" lon="5.80676">
        <ele>388.4</ele>
        <time>2021-04-10T06:50:36Z</time>
      </trkpt>
      <trkpt lat="45.1831" lon="5.80677">
        <ele>388.2</ele>
        <time>2021-04-10T06:50:38Z</time>
      </trkpt>
      <trkpt lat="45.18311" lon="5.80679">
        <ele>388</ele>
        <time>2021-04-10T06:50:39Z</time>
      </trkpt>
      <trkpt lat="45.18312" lon="5.8068">
        <ele>387.8</ele>
        <time>2021-04-10T06:50:40Z</time>
      </trkpt>
      <trkpt lat="45.18313" lon="5.80682">
        <ele>387.4</ele>
        <time>2021-04-10T06:50:41Z</time>
      </trkpt>
      <trkpt lat="45.18313" lon="5.80683">
        <ele>387.2</ele>
        <time>2021-04-10T06:50:42Z</time>
      </trkpt>
      <trkpt lat="45.18314" lon="5.80685">
        <ele>387.2</ele>
        <time>2021-04-10T06:50:43Z</time>
      </trkpt>
      <trkpt lat="45.18315" lon="5.80686">
        <ele>387</ele>
        <time>2021-04-10T06:50:44Z</time>
      </trkpt>
      <trkpt lat="45.18316" lon="5.80688">
        <ele>386.8</ele>
        <time>2021-04-10T06:50:45Z</time>
      </trkpt>
      <trkpt lat="45.18317" lon="5.80689">
        <ele>386.8</ele>
        <time>2021-04-10T06:50:46Z</time>
      </trkpt>
      <trkpt lat="45.18318" lon="5.8069">
        <ele>386.8</ele>
        <time>2021-04-10T06:50:47Z</time>
      </trkpt>
      <trkpt lat="45.18318" lon="5.80692">
        <ele>386.8</ele>
        <time>2021-04-10T06:50:48Z</time>
      </trkpt>
      <trkpt lat="45.18319" lon="5.80693">
        <ele>386.6</ele>
        <time>2021-04-10T06:50:49Z</time>
      </trkpt>
      <trkpt lat="45.1832" lon="5.80695">
        <ele>386.6</ele>
        <time>2021-04-10T06:50:50Z</time>
      </trkpt>
      <trkpt lat="45.18321" lon="5.80696">
        <ele>386.2</ele>
        <time>2021-04-10T06:50:51Z</time>
      </trkpt>
      <trkpt lat="45.18322" lon="5.80697">
        <ele>386</ele>
        <time>2021-04-10T06:50:52Z</time>
      </trkpt>
      <trkpt lat="45.18323" lon="5.80699">
        <ele>385.6</ele>
        <time>2021-04-10T06:50:53Z</time>
      </trkpt>
      <trkpt lat="45.18323" lon="5.807">
        <ele>385.4</ele>
        <time>2021-04-10T06:50:54Z</time>
      </trkpt>
      <trkpt lat="45.18324" lon="5.80701">
        <ele>384.8</ele>
        <time>2021-04-10T06:50:55Z</time>
      </trkpt>
      <trkpt lat="45.18325" lon="5.80703">
        <ele>384.4</ele>
        <time>2021-04-10T06:50:56Z</time>
      </trkpt>
      <trkpt lat="45.18326" lon="5.80704">
        <ele>383.8</ele>
        <time>2021-04-10T06:50:57Z</time>
      </trkpt>
      <trkpt lat="45.18327" lon="5.80706">
        <ele>382.8</ele>
        <time>2021-04-10T06:50:58Z</time>
      </trkpt>
      <trkpt lat="45.18327" lon="5.80706">
        <ele>382.8</ele>
        <time>2021-04-10T06:50:59Z</time>
      </trkpt>
      <trkpt lat="45.18327" lon="5.80706">
        <ele>382.6</ele>
        <time>2021-04-10T06:51:00Z</time>
      </trkpt>
      <trkpt lat="45.18327" lon="5.80706">
        <ele>382.6</ele>
        <time>2021-04-10T06:51:01Z</time>
      </trkpt>
      <trkpt lat="45.18327" lon="5.80706">
        <ele>382</ele>
        <time>2021-04-10T06:51:02Z</time>
      </trkpt>
      <trkpt lat="45.18328" lon="5.80707">
        <ele>381.8</ele>
        <time>2021-04-10T06:51:03Z</time>
      </trkpt>
      <trkpt lat="45.18329" lon="5.80708">
        <ele>381.4</ele>
        <time>2021-04-10T06:51:04Z</time>
      </trkpt>
      <trkpt lat="45.18331" lon="5.80709">
        <ele>381</ele>
        <time>2021-04-10T06:51:05Z</time>
      </trkpt>
      <trkpt lat="45.18332" lon="5.8071">
        <ele>380.4</ele>
        <time>2021-04-10T06:51:06Z</time>
      </trkpt>
      <trkpt lat="45.18333" lon="5.80711">
        <ele>380.2</ele>
        <time>2021-04-10T06:51:07Z</time>
      </trkpt>
      <trkpt lat="45.18334" lon="5.80712">
        <ele>379.6</ele>
        <time>2021-04-10T06:51:08Z</time>
      </trkpt>
      <trkpt lat="45.18335" lon="5.80713">
        <ele>379.2</ele>
        <time>2021-04-10T06:51:09Z</time>
      </trkpt>
      <trkpt lat="45.18337" lon="5.80714">
        <ele>378.6</ele>
        <time>2021-04-10T06:51:10Z</time>
      </trkpt>
      <trkpt lat="45.18338" lon="5.80715">
        <ele>378.2</ele>
        <time>2021-04-10T06:51:11Z</time>
      </trkpt>
      <trkpt lat="45.18339" lon="5.80717">
        <ele>377.6</ele>
        <time>2021-04-10T06:51:12Z</time>
      </trkpt>
      <trkpt lat="45.1834" lon="5.80718">
        <ele>377.2</ele>
        <time>2021-04-10T06:51:13Z</time>
      </trkpt>
      <trkpt lat="45.18342" lon="5.8072">
        <ele>376.6</ele>
        <time>2021-04-10T06:51:14Z</time>
      </trkpt>
      <trkpt lat="45.18343" lon="5.80721">
        <ele>376.2</ele>
        <time>2021-04-10T06:51:15Z</time>
      </trkpt>
      <trkpt lat="45.18344" lon="5.80724">
        <ele>375.4</ele>
        <time>2021-04-10T06:51:16Z</time>
      </trkpt>
      <trkpt lat="45.18346" lon="5.80727">
        <ele>375</ele>
        <time>2021-04-10T06:51:17Z</time>
      </trkpt>
      <trkpt lat="45.18347" lon="5.8073">
        <ele>374.4</ele>
        <time>2021-04-10T06:51:18Z</time>
      </trkpt>
      <trkpt lat="45.18348" lon="5.80733">
        <ele>373.4</ele>
        <time>2021-04-10T06:51:19Z</time>
      </trkpt>
      <trkpt lat="45.1835" lon="5.80735">
        <ele>373.4</ele>
        <time>2021-04-10T06:51:20Z</time>
      </trkpt>
      <trkpt lat="45.18351" lon="5.80738">
        <ele>373.2</ele>
        <time>2021-04-10T06:51:21Z</time>
      </trkpt>
      <trkpt lat="45.18352" lon="5.80745">
        <ele>372.8</ele>
        <time>2021-04-10T06:51:22Z</time>
      </trkpt>
      <trkpt lat="45.18352" lon="5.80745">
        <ele>372.2</ele>
        <time>2021-04-10T06:51:23Z</time>
      </trkpt>
      <trkpt lat="45.18352" lon="5.80745">
        <ele>372.2</ele>
        <time>2021-04-10T06:51:24Z</time>
      </trkpt>
      <trkpt lat="45.18352" lon="5.80745">
        <ele>371.4</ele>
        <time>2021-04-10T06:51:25Z</time>
      </trkpt>
      <trkpt lat="45.18353" lon="5.80748">
        <ele>371.4</ele>
        <time>2021-04-10T06:51:26Z</time>
      </trkpt>
      <trkpt lat="45.18355" lon="5.80751">
        <ele>371</ele>
        <time>2021-04-10T06:51:27Z</time>
      </trkpt>
      <trkpt lat="45.18356" lon="5.80754">
        <ele>370.6</ele>
        <time>2021-04-10T06:51:28Z</time>
      </trkpt>
      <trkpt lat="45.18358" lon="5.80757">
        <ele>370.2</ele>
        <time>2021-04-10T06:51:29Z</time>
      </trkpt>
      <trkpt lat="45.1836" lon="5.8076">
        <ele>369.6</ele>
        <time>2021-04-10T06:51:30Z</time>
      </trkpt>
      <trkpt lat="45.18361" lon="5.80763">
        <ele>369</ele>
        <time>2021-04-10T06:51:31Z</time>
      </trkpt>
      <trkpt lat="45.18363" lon="5.80766">
        <ele>368.2</ele>
        <time>2021-04-10T06:51:32Z</time>
      </trkpt>
      <trkpt lat="45.18363" lon="5.80766">
        <ele>367.8</ele>
        <time>2021-04-10T06:51:33Z</time>
      </trkpt>
      <trkpt lat="45.18363" lon="5.80766">
        <ele>367.6</ele>
        <time>2021-04-10T06:51:34Z</time>
      </trkpt>
      <trkpt lat="45.18363" lon="5.80766">
        <ele>367</ele>
        <time>2021-04-10T06:51:35Z</time>
      </trkpt>
      <trkpt lat="45.18363" lon="5.80766">
        <ele>366.6</ele>
        <time>2021-04-10T06:51:36Z</time>
      </trkpt>
      <trkpt lat="45.18364" lon="5.80767">
        <ele>366.2</ele>
        <time>2021-04-10T06:51:37Z</time>
      </trkpt>
      <trkpt lat="45.18365" lon="5.80769">
        <ele>365.6</ele>
        <time>2021-04-10T06:51:38Z</time>
      </trkpt>
      <trkpt lat="45.18367" lon="5.80771">
        <ele>365.2</ele>
        <time>2021-04-10T06:51:39Z</time>
      </trkpt>
      <trkpt lat="45.18368" lon="5.80773">
        <ele>364.4</ele>
        <time>2021-04-10T06:51:40Z</time>
      </trkpt>
      <trkpt lat="45.18369" lon="5.80775">
        <ele>364</ele>
        <time>2021-04-10T06:51:41Z</time>
      </trkpt>
      <trkpt lat="45.18373" lon="5.80778">
        <ele>363.4</ele>
        <time>2021-04-10T06:51:42Z</time>
      </trkpt>
      <trkpt lat="45.18374" lon="5.80779">
        <ele>362.8</ele>
        <time>2021-04-10T06:51:43Z</time>
      </trkpt>
      <trkpt lat="45.18376" lon="5.80781">
        <ele>362.2</ele>
        <time>2021-04-10T06:51:44Z</time>
      </trkpt>
      <trkpt lat="45.18378" lon="5.80783">
        <ele>361.4</ele>
        <time>2021-04-10T06:51:45Z</time>
      </trkpt>
      <trkpt lat="45.1838" lon="5.80784">
        <ele>360.6</ele>
        <time>2021-04-10T06:51:46Z</time>
      </trkpt>
      <trkpt lat="45.18382" lon="5.80786">
        <ele>360.2</ele>
        <time>2021-04-10T06:51:47Z</time>
      </trkpt>
      <trkpt lat="45.18384" lon="5.80787">
        <ele>359.6</ele>
        <time>2021-04-10T06:51:48Z</time>
      </trkpt>
      <trkpt lat="45.1839" lon="5.80792">
        <ele>359.4</ele>
        <time>2021-04-10T06:51:49Z</time>
      </trkpt>
      <trkpt lat="45.18393" lon="5.80793">
        <ele>359</ele>
        <time>2021-04-10T06:51:50Z</time>
      </trkpt>
      <trkpt lat="45.18394" lon="5.80794">
        <ele>358.6</ele>
        <time>2021-04-10T06:51:51Z</time>
      </trkpt>
      <trkpt lat="45.18396" lon="5.80796">
        <ele>358</ele>
        <time>2021-04-10T06:51:52Z</time>
      </trkpt>
      <trkpt lat="45.18398" lon="5.80797">
        <ele>357.4</ele>
        <time>2021-04-10T06:51:53Z</time>
      </trkpt>
      <trkpt lat="45.18399" lon="5.80798">
        <ele>356.8</ele>
        <time>2021-04-10T06:51:54Z</time>
      </trkpt>
      <trkpt lat="45.18401" lon="5.808">
        <ele>356.6</ele>
        <time>2021-04-10T06:51:55Z</time>
      </trkpt>
      <trkpt lat="45.18403" lon="5.80801">
        <ele>356.2</ele>
        <time>2021-04-10T06:51:56Z</time>
      </trkpt>
      <trkpt lat="45.18405" lon="5.80802">
        <ele>356</ele>
        <time>2021-04-10T06:51:57Z</time>
      </trkpt>
      <trkpt lat="45.18407" lon="5.80804">
        <ele>355.4</ele>
        <time>2021-04-10T06:51:58Z</time>
      </trkpt>
      <trkpt lat="45.18409" lon="5.80805">
        <ele>355.2</ele>
        <time>2021-04-10T06:51:59Z</time>
      </trkpt>
      <trkpt lat="45.18411" lon="5.80807">
        <ele>354.8</ele>
        <time>2021-04-10T06:52:00Z</time>
      </trkpt>
      <trkpt lat="45.18412" lon="5.80808">
        <ele>354.6</ele>
        <time>2021-04-10T06:52:01Z</time>
      </trkpt>
      <trkpt lat="45.18414" lon="5.8081">
        <ele>354</ele>
        <time>2021-04-10T06:52:02Z</time>
      </trkpt>
      <trkpt lat="45.18416" lon="5.80811">
        <ele>353.6</ele>
        <time>2021-04-10T06:52:03Z</time>
      </trkpt>
      <trkpt lat="45.18418" lon="5.80813">
        <ele>353.2</ele>
        <time>2021-04-10T06:52:04Z</time>
      </trkpt>
      <trkpt lat="45.1842" lon="5.80814">
        <ele>352.6</ele>
        <time>2021-04-10T06:52:05Z</time>
      </trkpt>
      <trkpt lat="45.18434" lon="5.80824">
        <ele>352.2</ele>
        <time>2021-04-10T06:52:06Z</time>
      </trkpt>
      <trkpt lat="45.18443" lon="5.80829">
        <ele>351.4</ele>
        <time>2021-04-10T06:52:07Z</time>
      </trkpt>
      <trkpt lat="45.18452" lon="5.80835">
        <ele>351</ele>
        <time>2021-04-10T06:52:08Z</time>
      </trkpt>
      <trkpt lat="45.18457" lon="5.80836">
        <ele>350.4</ele>
        <time>2021-04-10T06:52:09Z</time>
      </trkpt>
      <trkpt lat="45.18461" lon="5.80836">
        <ele>350</ele>
        <time>2021-04-10T06:52:10Z</time>
      </trkpt>
      <trkpt lat="45.18466" lon="5.80836">
        <ele>349.4</ele>
        <time>2021-04-10T06:52:11Z</time>
      </trkpt>
      <trkpt lat="45.18467" lon="5.80836">
        <ele>349</ele>
        <time>2021-04-10T06:52:12Z</time>
      </trkpt>
      <trkpt lat="45.18469" lon="5.80837">
        <ele>348.2</ele>
        <time>2021-04-10T06:52:13Z</time>
      </trkpt>
      <trkpt lat="45.1847" lon="5.80837">
        <ele>347.6</ele>
        <time>2021-04-10T06:52:14Z</time>
      </trkpt>
      <trkpt lat="45.18471" lon="5.80837">
        <ele>346.8</ele>
        <time>2021-04-10T06:52:15Z</time>
      </trkpt>
      <trkpt lat="45.18477" lon="5.80838">
        <ele>346.2</ele>
        <time>2021-04-10T06:52:16Z</time>
      </trkpt>
      <trkpt lat="45.18477" lon="5.80838">
        <ele>345.4</ele>
        <time>2021-04-10T06:52:17Z</time>
      </trkpt>
      <trkpt lat="45.18477" lon="5.80838">
        <ele>344.8</ele>
        <time>2021-04-10T06:52:18Z</time>
      </trkpt>
      <trkpt lat="45.18478" lon="5.80839">
        <ele>344</ele>
        <time>2021-04-10T06:52:19Z</time>
      </trkpt>
      <trkpt lat="45.1848" lon="5.8084">
        <ele>343.4</ele>
        <time>2021-04-10T06:52:20Z</time>
      </trkpt>
      <trkpt lat="45.18482" lon="5.80841">
        <ele>342.6</ele>
        <time>2021-04-10T06:52:21Z</time>
      </trkpt>
      <trkpt lat="45.18484" lon="5.80842">
        <ele>342.2</ele>
        <time>2021-04-10T06:52:22Z</time>
      </trkpt>
      <trkpt lat="45.18486" lon="5.80842">
        <ele>341.4</ele>
        <time>2021-04-10T06:52:23Z</time>
      </trkpt>
      <trkpt lat="45.18494" lon="5.8085">
        <ele>340.8</ele>
        <time>2021-04-10T06:52:24Z</time>
      </trkpt>
      <trkpt lat="45.18496" lon="5.80852">
        <ele>340.2</ele>
        <time>2021-04-10T06:52:25Z</time>
      </trkpt>
      <trkpt lat="45.18498" lon="5.80854">
        <ele>339.6</ele>
        <time>2021-04-10T06:52:26Z</time>
      </trkpt>
      <trkpt lat="45.185" lon="5.80856">
        <ele>338.8</ele>
        <time>2021-04-10T06:52:27Z</time>
      </trkpt>
      <trkpt lat="45.18502" lon="5.80857">
        <ele>338</ele>
        <time>2021-04-10T06:52:28Z</time>
      </trkpt>
      <trkpt lat="45.18504" lon="5.80859">
        <ele>337.2</ele>
        <time>2021-04-10T06:52:29Z</time>
      </trkpt>
      <trkpt lat="45.18505" lon="5.8086">
        <ele>336.4</ele>
        <time>2021-04-10T06:52:30Z</time>
      </trkpt>
      <trkpt lat="45.18506" lon="5.80862">
        <ele>335.8</ele>
        <time>2021-04-10T06:52:31Z</time>
      </trkpt>
      <trkpt lat="45.18507" lon="5.80863">
        <ele>335.2</ele>
        <time>2021-04-10T06:52:32Z</time>
      </trkpt>
      <trkpt lat="45.18509" lon="5.80865">
        <ele>334.2</ele>
        <time>2021-04-10T06:52:33Z</time>
      </trkpt>
      <trkpt lat="45.1851" lon="5.80866">
        <ele>333.8</ele>
        <time>2021-04-10T06:52:34Z</time>
      </trkpt>
      <trkpt lat="45.18511" lon="5.80867">
        <ele>333.2</ele>
        <time>2021-04-10T06:52:35Z</time>
      </trkpt>
      <trkpt lat="45.18512" lon="5.80869">
        <ele>332.8</ele>
        <time>2021-04-10T06:52:36Z</time>
      </trkpt>
      <trkpt lat="45.18513" lon="5.8087">
        <ele>332.2</ele>
        <time>2021-04-10T06:52:37Z</time>
      </trkpt>
      <trkpt lat="45.18515" lon="5.80872">
        <ele>331.6</ele>
        <time>2021-04-10T06:52:38Z</time>
      </trkpt>
      <trkpt lat="45.18516" lon="5.80873">
        <ele>331.6</ele>
        <time>2021-04-10T06:52:39Z</time>
      </trkpt>
      <trkpt lat="45.18517" lon="5.80874">
        <ele>331.2</ele>
        <time>2021-04-10T06:52:40Z</time>
      </trkpt>
      <trkpt lat="45.18518" lon="5.80876">
        <ele>331.2</ele>
        <time>2021-04-10T06:52:41Z</time>
      </trkpt>
      <trkpt lat="45.1852" lon="5.80877">
        <ele>330.2</ele>
        <time>2021-04-10T06:52:42Z</time>
      </trkpt>
      <trkpt lat="45.18521" lon="5.80879">
        <ele>329.6</ele>
        <time>2021-04-10T06:52:43Z</time>
      </trkpt>
      <trkpt lat="45.18522" lon="5.8088">
        <ele>329.4</ele>
        <time>2021-04-10T06:52:44Z</time>
      </trkpt>
      <trkpt lat="45.18523" lon="5.80882">
        <ele>329.2</ele>
        <time>2021-04-10T06:52:45Z</time>
      </trkpt>
      <trkpt lat="45.18524" lon="5.80883">
        <ele>329.4</ele>
        <time>2021-04-10T06:52:46Z</time>
      </trkpt>
      <trkpt lat="45.18526" lon="5.80884">
        <ele>329.4</ele>
        <time>2021-04-10T06:52:47Z</time>
      </trkpt>
      <trkpt lat="45.18527" lon="5.80885">
        <ele>329</ele>
        <time>2021-04-10T06:52:48Z</time>
      </trkpt>
      <trkpt lat="45.18528" lon="5.80886">
        <ele>329</ele>
        <time>2021-04-10T06:52:49Z</time>
      </trkpt>
      <trkpt lat="45.18529" lon="5.80887">
        <ele>328.8</ele>
        <time>2021-04-10T06:52:50Z</time>
      </trkpt>
      <trkpt lat="45.18531" lon="5.80888">
        <ele>329</ele>
        <time>2021-04-10T06:52:51Z</time>
      </trkpt>
      <trkpt lat="45.18537" lon="5.80894">
        <ele>328.4</ele>
        <time>2021-04-10T06:52:52Z</time>
      </trkpt>
      <trkpt lat="45.18539" lon="5.80897">
        <ele>328.4</ele>
        <time>2021-04-10T06:52:53Z</time>
      </trkpt>
      <trkpt lat="45.1854" lon="5.80898">
        <ele>327.8</ele>
        <time>2021-04-10T06:52:54Z</time>
      </trkpt>
      <trkpt lat="45.18542" lon="5.809">
        <ele>327.2</ele>
        <time>2021-04-10T06:52:55Z</time>
      </trkpt>
      <trkpt lat="45.18543" lon="5.80902">
        <ele>326.4</ele>
        <time>2021-04-10T06:52:56Z</time>
      </trkpt>
      <trkpt lat="45.18543" lon="5.80902">
        <ele>326</ele>
        <time>2021-04-10T06:52:57Z</time>
      </trkpt>
      <trkpt lat="45.18543" lon="5.80902">
        <ele>325.8</ele>
        <time>2021-04-10T06:52:58Z</time>
      </trkpt>
      <trkpt lat="45.18543" lon="5.80902">
        <ele>325.6</ele>
        <time>2021-04-10T06:52:59Z</time>
      </trkpt>
      <trkpt lat="45.18543" lon="5.80902">
        <ele>325.6</ele>
        <time>2021-04-10T06:53:00Z</time>
      </trkpt>
      <trkpt lat="45.18545" lon="5.80904">
        <ele>325.4</ele>
        <time>2021-04-10T06:53:01Z</time>
      </trkpt>
      <trkpt lat="45.18546" lon="5.80906">
        <ele>325.4</ele>
        <time>2021-04-10T06:53:02Z</time>
      </trkpt>
      <trkpt lat="45.18547" lon="5.80908">
        <ele>325.2</ele>
        <time>2021-04-10T06:53:03Z</time>
      </trkpt>
      <trkpt lat="45.18548" lon="5.80911">
        <ele>325</ele>
        <time>2021-04-10T06:53:04Z</time>
      </trkpt>
      <trkpt lat="45.1855" lon="5.80913">
        <ele>324.4</ele>
        <time>2021-04-10T06:53:05Z</time>
      </trkpt>
      <trkpt lat="45.18557" lon="5.80925">
        <ele>323.8</ele>
        <time>2021-04-10T06:53:06Z</time>
      </trkpt>
      <trkpt lat="45.18559" lon="5.80928">
        <ele>323.4</ele>
        <time>2021-04-10T06:53:07Z</time>
      </trkpt>
      <trkpt lat="45.1856" lon="5.8093">
        <ele>322.8</ele>
        <time>2021-04-10T06:53:08Z</time>
      </trkpt>
      <trkpt lat="45.18561" lon="5.80931">
        <ele>322.4</ele>
        <time>2021-04-10T06:53:09Z</time>
      </trkpt>
      <trkpt lat="45.18562" lon="5.80933">
        <ele>322.4</ele>
        <time>2021-04-10T06:53:10Z</time>
      </trkpt>
      <trkpt lat="45.18563" lon="5.80934">
        <ele>322.2</ele>
        <time>2021-04-10T06:53:11Z</time>
      </trkpt>
      <trkpt lat="45.18565" lon="5.80936">
        <ele>322.2</ele>
        <time>2021-04-10T06:53:12Z</time>
      </trkpt>
      <trkpt lat="45.18566" lon="5.80937">
        <ele>322</ele>
        <time>2021-04-10T06:53:13Z</time>
      </trkpt>
      <trkpt lat="45.18568" lon="5.80939">
        <ele>321.8</ele>
        <time>2021-04-10T06:53:14Z</time>
      </trkpt>
      <trkpt lat="45.18569" lon="5.8094">
        <ele>321.8</ele>
        <time>2021-04-10T06:53:15Z</time>
      </trkpt>
      <trkpt lat="45.18571" lon="5.80942">
        <ele>321.8</ele>
        <time>2021-04-10T06:53:16Z</time>
      </trkpt>
      <trkpt lat="45.18572" lon="5.80943">
        <ele>322</ele>
        <time>2021-04-10T06:53:17Z</time>
      </trkpt>
      <trkpt lat="45.18574" lon="5.80944">
        <ele>321.8</ele>
        <time>2021-04-10T06:53:18Z</time>
      </trkpt>
      <trkpt lat="45.18575" lon="5.80946">
        <ele>322</ele>
        <time>2021-04-10T06:53:19Z</time>
      </trkpt>
      <trkpt lat="45.18576" lon="5.80947">
        <ele>321.2</ele>
        <time>2021-04-10T06:53:20Z</time>
      </trkpt>
      <trkpt lat="45.18581" lon="5.80952">
        <ele>321.4</ele>
        <time>2021-04-10T06:53:21Z</time>
      </trkpt>
      <trkpt lat="45.18583" lon="5.80955">
        <ele>321.4</ele>
        <time>2021-04-10T06:53:22Z</time>
      </trkpt>
      <trkpt lat="45.18584" lon="5.80957">
        <ele>321.4</ele>
        <time>2021-04-10T06:53:23Z</time>
      </trkpt>
      <trkpt lat="45.18585" lon="5.80959">
        <ele>321</ele>
        <time>2021-04-10T06:53:24Z</time>
      </trkpt>
      <trkpt lat="45.18586" lon="5.80961">
        <ele>321</ele>
        <time>2021-04-10T06:53:25Z</time>
      </trkpt>
      <trkpt lat="45.18587" lon="5.80962">
        <ele>320.4</ele>
        <time>2021-04-10T06:53:26Z</time>
      </trkpt>
      <trkpt lat="45.18588" lon="5.80964">
        <ele>320</ele>
        <time>2021-04-10T06:53:27Z</time>
      </trkpt>
      <trkpt lat="45.18589" lon="5.80965">
        <ele>319.4</ele>
        <time>2021-04-10T06:53:28Z</time>
      </trkpt>
      <trkpt lat="45.18589" lon="5.80967">
        <ele>318.6</ele>
        <time>2021-04-10T06:53:29Z</time>
      </trkpt>
      <trkpt lat="45.18592" lon="5.80973">
        <ele>318.6</ele>
        <time>2021-04-10T06:53:30Z</time>
      </trkpt>
      <trkpt lat="45.18592" lon="5.80973">
        <ele>318.2</ele>
        <time>2021-04-10T06:53:31Z</time>
      </trkpt>
      <trkpt lat="45.18592" lon="5.80973">
        <ele>318</ele>
        <time>2021-04-10T06:53:32Z</time>
      </trkpt>
      <trkpt lat="45.18593" lon="5.80975">
        <ele>317.4</ele>
        <time>2021-04-10T06:53:33Z</time>
      </trkpt>
      <trkpt lat="45.18595" lon="5.80976">
        <ele>316.8</ele>
        <time>2021-04-10T06:53:34Z</time>
      </trkpt>
      <trkpt lat="45.18596" lon="5.80978">
        <ele>316</ele>
        <time>2021-04-10T06:53:35Z</time>
      </trkpt>
      <trkpt lat="45.18598" lon="5.8098">
        <ele>315.2</ele>
        <time>2021-04-10T06:53:36Z</time>
      </trkpt>
      <trkpt lat="45.18599" lon="5.80982">
        <ele>315</ele>
        <time>2021-04-10T06:53:37Z</time>
      </trkpt>
      <trkpt lat="45.18601" lon="5.80984">
        <ele>313.8</ele>
        <time>2021-04-10T06:53:38Z</time>
      </trkpt>
      <trkpt lat="45.18602" lon="5.80986">
        <ele>313.4</ele>
        <time>2021-04-10T06:53:39Z</time>
      </trkpt>
      <trkpt lat="45.18603" lon="5.80987">
        <ele>313.2</ele>
        <time>2021-04-10T06:53:40Z</time>
      </trkpt>
      <trkpt lat="45.18604" lon="5.80989">
        <ele>312.6</ele>
        <time>2021-04-10T06:53:41Z</time>
      </trkpt>
      <trkpt lat="45.18606" lon="5.80991">
        <ele>312.4</ele>
        <time>2021-04-10T06:53:42Z</time>
      </trkpt>
      <trkpt lat="45.18607" lon="5.80993">
        <ele>312.2</ele>
        <time>2021-04-10T06:53:43Z</time>
      </trkpt>
      <trkpt lat="45.18609" lon="5.80995">
        <ele>311.4</ele>
        <time>2021-04-10T06:53:44Z</time>
      </trkpt>
      <trkpt lat="45.1861" lon="5.80997">
        <ele>311.2</ele>
        <time>2021-04-10T06:53:45Z</time>
      </trkpt>
      <trkpt lat="45.18612" lon="5.80999">
        <ele>310.8</ele>
        <time>2021-04-10T06:53:46Z</time>
      </trkpt>
      <trkpt lat="45.18613" lon="5.81">
        <ele>310</ele>
        <time>2021-04-10T06:53:47Z</time>
      </trkpt>
      <trkpt lat="45.18616" lon="5.81003">
        <ele>309.8</ele>
        <time>2021-04-10T06:53:48Z</time>
      </trkpt>
      <trkpt lat="45.18618" lon="5.81004">
        <ele>309.4</ele>
        <time>2021-04-10T06:53:49Z</time>
      </trkpt>
      <trkpt lat="45.1862" lon="5.81006">
        <ele>308.8</ele>
        <time>2021-04-10T06:53:50Z</time>
      </trkpt>
      <trkpt lat="45.18622" lon="5.81008">
        <ele>308.4</ele>
        <time>2021-04-10T06:53:51Z</time>
      </trkpt>
      <trkpt lat="45.18624" lon="5.81009">
        <ele>308</ele>
        <time>2021-04-10T06:53:52Z</time>
      </trkpt>
      <trkpt lat="45.18626" lon="5.81011">
        <ele>307.6</ele>
        <time>2021-04-10T06:53:53Z</time>
      </trkpt>
      <trkpt lat="45.18628" lon="5.81012">
        <ele>307</ele>
        <time>2021-04-10T06:53:54Z</time>
      </trkpt>
      <trkpt lat="45.1863" lon="5.81014">
        <ele>306.4</ele>
        <time>2021-04-10T06:53:55Z</time>
      </trkpt>
      <trkpt lat="45.18637" lon="5.81023">
        <ele>305.4</ele>
        <time>2021-04-10T06:53:56Z</time>
      </trkpt>
      <trkpt lat="45.18644" lon="5.81031">
        <ele>304.4</ele>
        <time>2021-04-10T06:53:57Z</time>
      </trkpt>
      <trkpt lat="45.18651" lon="5.8104">
        <ele>303.8</ele>
        <time>2021-04-10T06:53:58Z</time>
      </trkpt>
      <trkpt lat="45.18658" lon="5.81048">
        <ele>303.2</ele>
        <time>2021-04-10T06:53:59Z</time>
      </trkpt>
      <trkpt lat="45.18665" lon="5.81057">
        <ele>301.8</ele>
        <time>2021-04-10T06:54:00Z</time>
      </trkpt>
      <trkpt lat="45.18668" lon="5.81058">
        <ele>300.8</ele>
        <time>2021-04-10T06:54:01Z</time>
      </trkpt>
      <trkpt lat="45.1867" lon="5.81059">
        <ele>300.2</ele>
        <time>2021-04-10T06:54:02Z</time>
      </trkpt>
      <trkpt lat="45.18675" lon="5.81061">
        <ele>299.6</ele>
        <time>2021-04-10T06:54:03Z</time>
      </trkpt>
      <trkpt lat="45.18678" lon="5.81062">
        <ele>299.2</ele>
        <time>2021-04-10T06:54:04Z</time>
      </trkpt>
      <trkpt lat="45.18681" lon="5.81063">
        <ele>298.4</ele>
        <time>2021-04-10T06:54:05Z</time>
      </trkpt>
      <trkpt lat="45.18684" lon="5.81064">
        <ele>298.2</ele>
        <time>2021-04-10T06:54:06Z</time>
      </trkpt>
      <trkpt lat="45.18692" lon="5.81066">
        <ele>297.6</ele>
        <time>2021-04-10T06:54:07Z</time>
      </trkpt>
      <trkpt lat="45.18696" lon="5.81066">
        <ele>296.6</ele>
        <time>2021-04-10T06:54:08Z</time>
      </trkpt>
      <trkpt lat="45.18699" lon="5.81065">
        <ele>296.2</ele>
        <time>2021-04-10T06:54:09Z</time>
      </trkpt>
      <trkpt lat="45.18707" lon="5.81063">
        <ele>295.6</ele>
        <time>2021-04-10T06:54:10Z</time>
      </trkpt>
      <trkpt lat="45.18714" lon="5.81061">
        <ele>295</ele>
        <time>2021-04-10T06:54:11Z</time>
      </trkpt>
      <trkpt lat="45.18722" lon="5.81058">
        <ele>293.8</ele>
        <time>2021-04-10T06:54:12Z</time>
      </trkpt>
      <trkpt lat="45.18732" lon="5.81056">
        <ele>293</ele>
        <time>2021-04-10T06:54:13Z</time>
      </trkpt>
      <trkpt lat="45.18735" lon="5.81055">
        <ele>292.4</ele>
        <time>2021-04-10T06:54:14Z</time>
      </trkpt>
      <trkpt lat="45.18742" lon="5.81055">
        <ele>291.6</ele>
        <time>2021-04-10T06:54:15Z</time>
      </trkpt>
      <trkpt lat="45.18744" lon="5.81054">
        <ele>291.2</ele>
        <time>2021-04-10T06:54:16Z</time>
      </trkpt>
      <trkpt lat="45.18749" lon="5.81053">
        <ele>290.2</ele>
        <time>2021-04-10T06:54:17Z</time>
      </trkpt>
      <trkpt lat="45.18753" lon="5.81053">
        <ele>290</ele>
        <time>2021-04-10T06:54:18Z</time>
      </trkpt>
      <trkpt lat="45.18756" lon="5.81052">
        <ele>289</ele>
        <time>2021-04-10T06:54:19Z</time>
      </trkpt>
      <trkpt lat="45.18763" lon="5.8105">
        <ele>288.4</ele>
        <time>2021-04-10T06:54:20Z</time>
      </trkpt>
      <trkpt lat="45.18764" lon="5.8105">
        <ele>287.8</ele>
        <time>2021-04-10T06:54:21Z</time>
      </trkpt>
      <trkpt lat="45.18766" lon="5.8105">
        <ele>287.2</ele>
        <time>2021-04-10T06:54:22Z</time>
      </trkpt>
      <trkpt lat="45.18771" lon="5.81048">
        <ele>286.4</ele>
        <time>2021-04-10T06:54:23Z</time>
      </trkpt>
      <trkpt lat="45.18775" lon="5.81048">
        <ele>285.6</ele>
        <time>2021-04-10T06:54:24Z</time>
      </trkpt>
      <trkpt lat="45.18776" lon="5.81048">
        <ele>285</ele>
        <time>2021-04-10T06:54:25Z</time>
      </trkpt>
      <trkpt lat="45.18778" lon="5.81048">
        <ele>284</ele>
        <time>2021-04-10T06:54:26Z</time>
      </trkpt>
      <trkpt lat="45.18785" lon="5.81048">
        <ele>283.4</ele>
        <time>2021-04-10T06:54:27Z</time>
      </trkpt>
      <trkpt lat="45.18787" lon="5.81048">
        <ele>283</ele>
        <time>2021-04-10T06:54:28Z</time>
      </trkpt>
      <trkpt lat="45.18792" lon="5.8105">
        <ele>281.8</ele>
        <time>2021-04-10T06:54:29Z</time>
      </trkpt>
      <trkpt lat="45.18795" lon="5.81051">
        <ele>281</ele>
        <time>2021-04-10T06:54:30Z</time>
      </trkpt>
      <trkpt lat="45.18798" lon="5.81052">
        <ele>280.6</ele>
        <time>2021-04-10T06:54:31Z</time>
      </trkpt>
      <trkpt lat="45.188" lon="5.81053">
        <ele>279.8</ele>
        <time>2021-04-10T06:54:32Z</time>
      </trkpt>
      <trkpt lat="45.18802" lon="5.81054">
        <ele>279.8</ele>
        <time>2021-04-10T06:54:33Z</time>
      </trkpt>
      <trkpt lat="45.18809" lon="5.81057">
        <ele>279.2</ele>
        <time>2021-04-10T06:54:34Z</time>
      </trkpt>
      <trkpt lat="45.1881" lon="5.81058">
        <ele>279</ele>
        <time>2021-04-10T06:54:35Z</time>
      </trkpt>
      <trkpt lat="45.18811" lon="5.81059">
        <ele>278.4</ele>
        <time>2021-04-10T06:54:36Z</time>
      </trkpt>
      <trkpt lat="45.18812" lon="5.8106">
        <ele>278.2</ele>
        <time>2021-04-10T06:54:37Z</time>
      </trkpt>
      <trkpt lat="45.18816" lon="5.81062">
        <ele>277.4</ele>
        <time>2021-04-10T06:54:38Z</time>
      </trkpt>
      <trkpt lat="45.18816" lon="5.81062">
        <ele>277.2</ele>
        <time>2021-04-10T06:54:39Z</time>
      </trkpt>
      <trkpt lat="45.18816" lon="5.81062">
        <ele>276.4</ele>
        <time>2021-04-10T06:54:40Z</time>
      </trkpt>
      <trkpt lat="45.18816" lon="5.81062">
        <ele>276</ele>
        <time>2021-04-10T06:54:41Z</time>
      </trkpt>
      <trkpt lat="45.18819" lon="5.81065">
        <ele>274.8</ele>
        <time>2021-04-10T06:54:42Z</time>
      </trkpt>
      <trkpt lat="45.18821" lon="5.81068">
        <ele>274.2</ele>
        <time>2021-04-10T06:54:43Z</time>
      </trkpt>
      <trkpt lat="45.18824" lon="5.81071">
        <ele>273.8</ele>
        <time>2021-04-10T06:54:44Z</time>
      </trkpt>
      <trkpt lat="45.18826" lon="5.81074">
        <ele>273</ele>
        <time>2021-04-10T06:54:45Z</time>
      </trkpt>
      <trkpt lat="45.18829" lon="5.81077">
        <ele>272.4</ele>
        <time>2021-04-10T06:54:46Z</time>
      </trkpt>
      <trkpt lat="45.18831" lon="5.81079">
        <ele>272</ele>
        <time>2021-04-10T06:54:47Z</time>
      </trkpt>
      <trkpt lat="45.18831" lon="5.81079">
        <ele>271</ele>
        <time>2021-04-10T06:54:48Z</time>
      </trkpt>
      <trkpt lat="45.18831" lon="5.81079">
        <ele>270.4</ele>
        <time>2021-04-10T06:54:49Z</time>
      </trkpt>
      <trkpt lat="45.18831" lon="5.81079">
        <ele>270</ele>
        <time>2021-04-10T06:54:50Z</time>
      </trkpt>
      <trkpt lat="45.18831" lon="5.81079">
        <ele>269.2</ele>
        <time>2021-04-10T06:54:51Z</time>
      </trkpt>
      <trkpt lat="45.18832" lon="5.81082">
        <ele>268.8</ele>
        <time>2021-04-10T06:54:52Z</time>
      </trkpt>
      <trkpt lat="45.18833" lon="5.81084">
        <ele>268</ele>
        <time>2021-04-10T06:54:53Z</time>
      </trkpt>
      <trkpt lat="45.18834" lon="5.81087">
        <ele>267.2</ele>
        <time>2021-04-10T06:54:54Z</time>
      </trkpt>
      <trkpt lat="45.18834" lon="5.8109">
        <ele>266.4</ele>
        <time>2021-04-10T06:54:55Z</time>
      </trkpt>
      <trkpt lat="45.18835" lon="5.81092">
        <ele>265.6</ele>
        <time>2021-04-10T06:54:56Z</time>
      </trkpt>
      <trkpt lat="45.18836" lon="5.81093">
        <ele>265</ele>
        <time>2021-04-10T06:54:57Z</time>
      </trkpt>
      <trkpt lat="45.18836" lon="5.81095">
        <ele>264.6</ele>
        <time>2021-04-10T06:54:58Z</time>
      </trkpt>
      <trkpt lat="45.18837" lon="5.81096">
        <ele>263.8</ele>
        <time>2021-04-10T06:54:59Z</time>
      </trkpt>
      <trkpt lat="45.18837" lon="5.81097">
        <ele>263.2</ele>
        <time>2021-04-10T06:55:00Z</time>
      </trkpt>
      <trkpt lat="45.18838" lon="5.81099">
        <ele>262.8</ele>
        <time>2021-04-10T06:55:01Z</time>
      </trkpt>
      <trkpt lat="45.18838" lon="5.811">
        <ele>262.6</ele>
        <time>2021-04-10T06:55:02Z</time>
      </trkpt>
      <trkpt lat="45.18839" lon="5.81102">
        <ele>262.6</ele>
        <time>2021-04-10T06:55:03Z</time>
      </trkpt>
      <trkpt lat="45.18839" lon="5.81103">
        <ele>262.6</ele>
        <time>2021-04-10T06:55:04Z</time>
      </trkpt>
      <trkpt lat="45.1884" lon="5.81104">
        <ele>262.6</ele>
        <time>2021-04-10T06:55:05Z</time>
      </trkpt>
      <trkpt lat="45.18839" lon="5.81107">
        <ele>262.6</ele>
        <time>2021-04-10T06:55:06Z</time>
      </trkpt>
      <trkpt lat="45.18839" lon="5.81109">
        <ele>262.4</ele>
        <time>2021-04-10T06:55:07Z</time>
      </trkpt>
      <trkpt lat="45.18839" lon="5.81112">
        <ele>262.4</ele>
        <time>2021-04-10T06:55:08Z</time>
      </trkpt>
      <trkpt lat="45.18838" lon="5.81115">
        <ele>262.2</ele>
        <time>2021-04-10T06:55:09Z</time>
      </trkpt>
      <trkpt lat="45.18838" lon="5.81117">
        <ele>262.2</ele>
        <time>2021-04-10T06:55:10Z</time>
      </trkpt>
      <trkpt lat="45.18838" lon="5.8112">
        <ele>262.2</ele>
        <time>2021-04-10T06:55:11Z</time>
      </trkpt>
      <trkpt lat="45.18837" lon="5.81123">
        <ele>262.2</ele>
        <time>2021-04-10T06:55:12Z</time>
      </trkpt>
      <trkpt lat="45.18837" lon="5.81125">
        <ele>262</ele>
        <time>2021-04-10T06:55:13Z</time>
      </trkpt>
      <trkpt lat="45.18837" lon="5.81128">
        <ele>262</ele>
        <time>2021-04-10T06:55:14Z</time>
      </trkpt>
      <trkpt lat="45.18836" lon="5.8113">
        <ele>262.2</ele>
        <time>2021-04-10T06:55:15Z</time>
      </trkpt>
      <trkpt lat="45.18836" lon="5.81133">
        <ele>262.2</ele>
        <time>2021-04-10T06:55:16Z</time>
      </trkpt>
      <trkpt lat="45.18836" lon="5.81136">
        <ele>262.2</ele>
        <time>2021-04-10T06:55:17Z</time>
      </trkpt>
      <trkpt lat="45.18835" lon="5.81138">
        <ele>262.2</ele>
        <time>2021-04-10T06:55:18Z</time>
      </trkpt>
      <trkpt lat="45.18835" lon="5.81141">
        <ele>262.2</ele>
        <time>2021-04-10T06:55:19Z</time>
      </trkpt>
      <trkpt lat="45.18835" lon="5.81143">
        <ele>262.2</ele>
        <time>2021-04-10T06:55:20Z</time>
      </trkpt>
      <trkpt lat="45.18834" lon="5.81146">
        <ele>262.2</ele>
        <time>2021-04-10T06:55:21Z</time>
      </trkpt>
      <trkpt lat="45.18834" lon="5.81149">
        <ele>262.2</ele>
        <time>2021-04-10T06:55:22Z</time>
      </trkpt>
      <trkpt lat="45.18834" lon="5.81151">
        <ele>262.4</ele>
        <time>2021-04-10T06:55:23Z</time>
      </trkpt>
      <trkpt lat="45.18833" lon="5.81154">
        <ele>262.6</ele>
        <time>2021-04-10T06:55:24Z</time>
      </trkpt>
      <trkpt lat="45.18833" lon="5.81156">
        <ele>262.8</ele>
        <time>2021-04-10T06:55:25Z</time>
      </trkpt>
      <trkpt lat="45.18833" lon="5.81159">
        <ele>263</ele>
        <time>2021-04-10T06:55:26Z</time>
      </trkpt>
      <trkpt lat="45.18832" lon="5.81162">
        <ele>262.8</ele>
        <time>2021-04-10T06:55:27Z</time>
      </trkpt>
      <trkpt lat="45.18832" lon="5.81164">
        <ele>262.8</ele>
        <time>2021-04-10T06:55:28Z</time>
      </trkpt>
      <trkpt lat="45.18832" lon="5.81167">
        <ele>262.4</ele>
        <time>2021-04-10T06:55:29Z</time>
      </trkpt>
      <trkpt lat="45.18831" lon="5.8117">
        <ele>262.2</ele>
        <time>2021-04-10T06:55:30Z</time>
      </trkpt>
      <trkpt lat="45.18831" lon="5.81172">
        <ele>261.6</ele>
        <time>2021-04-10T06:55:31Z</time>
      </trkpt>
      <trkpt lat="45.18821" lon="5.81179">
        <ele>261</ele>
        <time>2021-04-10T06:55:32Z</time>
      </trkpt>
      <trkpt lat="45.1881" lon="5.81187">
        <ele>260.2</ele>
        <time>2021-04-10T06:55:33Z</time>
      </trkpt>
      <trkpt lat="45.188" lon="5.81194">
        <ele>259.6</ele>
        <time>2021-04-10T06:55:34Z</time>
      </trkpt>
      <trkpt lat="45.1879" lon="5.81201">
        <ele>259</ele>
        <time>2021-04-10T06:55:35Z</time>
      </trkpt>
      <trkpt lat="45.18779" lon="5.81209">
        <ele>258</ele>
        <time>2021-04-10T06:55:36Z</time>
      </trkpt>
      <trkpt lat="45.18771" lon="5.8121">
        <ele>257</ele>
        <time>2021-04-10T06:55:37Z</time>
      </trkpt>
      <trkpt lat="45.18768" lon="5.8121">
        <ele>256.6</ele>
        <time>2021-04-10T06:55:38Z</time>
      </trkpt>
      <trkpt lat="45.18765" lon="5.8121">
        <ele>255.8</ele>
        <time>2021-04-10T06:55:39Z</time>
      </trkpt>
      <trkpt lat="45.18763" lon="5.8121">
        <ele>255.2</ele>
        <time>2021-04-10T06:55:40Z</time>
      </trkpt>
      <trkpt lat="45.18761" lon="5.81211">
        <ele>254.6</ele>
        <time>2021-04-10T06:55:41Z</time>
      </trkpt>
      <trkpt lat="45.18758" lon="5.81211">
        <ele>254</ele>
        <time>2021-04-10T06:55:42Z</time>
      </trkpt>
      <trkpt lat="45.18756" lon="5.81211">
        <ele>253.4</ele>
        <time>2021-04-10T06:55:43Z</time>
      </trkpt>
      <trkpt lat="45.18754" lon="5.8121">
        <ele>252.6</ele>
        <time>2021-04-10T06:55:44Z</time>
      </trkpt>
      <trkpt lat="45.18752" lon="5.81209">
        <ele>252.4</ele>
        <time>2021-04-10T06:55:45Z</time>
      </trkpt>
      <trkpt lat="45.1875" lon="5.81208">
        <ele>251.8</ele>
        <time>2021-04-10T06:55:46Z</time>
      </trkpt>
      <trkpt lat="45.18748" lon="5.81206">
        <ele>251.6</ele>
        <time>2021-04-10T06:55:47Z</time>
      </trkpt>
      <trkpt lat="45.18748" lon="5.81206">
        <ele>251</ele>
        <time>2021-04-10T06:55:48Z</time>
      </trkpt>
      <trkpt lat="45.18748" lon="5.81206">
        <ele>250.6</ele>
        <time>2021-04-10T06:55:49Z</time>
      </trkpt>
      <trkpt lat="45.18748" lon="5.81206">
        <ele>250.2</ele>
        <time>2021-04-10T06:55:50Z</time>
      </trkpt>
      <trkpt lat="45.18748" lon="5.81205">
        <ele>249.8</ele>
        <time>2021-04-10T06:55:51Z</time>
      </trkpt>
      <trkpt lat="45.18749" lon="5.81204">
        <ele>249.4</ele>
        <time>2021-04-10T06:55:52Z</time>
      </trkpt>
      <trkpt lat="45.1875" lon="5.81203">
        <ele>248.8</ele>
        <time>2021-04-10T06:55:53Z</time>
      </trkpt>
      <trkpt lat="45.18751" lon="5.81201">
        <ele>248</ele>
        <time>2021-04-10T06:55:54Z</time>
      </trkpt>
      <trkpt lat="45.18751" lon="5.812">
        <ele>247.6</ele>
        <time>2021-04-10T06:55:55Z</time>
      </trkpt>
      <trkpt lat="45.18752" lon="5.81199">
        <ele>247.8</ele>
        <time>2021-04-10T06:55:56Z</time>
      </trkpt>
      <trkpt lat="45.18753" lon="5.81198">
        <ele>247.6</ele>
        <time>2021-04-10T06:55:57Z</time>
      </trkpt>
      <trkpt lat="45.18754" lon="5.81196">
        <ele>247.4</ele>
        <time>2021-04-10T06:55:58Z</time>
      </trkpt>
      <trkpt lat="45.18755" lon="5.81195">
        <ele>247.4</ele>
        <time>2021-04-10T06:55:59Z</time>
      </trkpt>
      <trkpt lat="45.18755" lon="5.81197">
        <ele>247.6</ele>
        <time>2021-04-10T06:56:00Z</time>
      </trkpt>
      <trkpt lat="45.18755" lon="5.81198">
        <ele>247.8</ele>
        <time>2021-04-10T06:56:01Z</time>
      </trkpt>
      <trkpt lat="45.18755" lon="5.812">
        <ele>248.2</ele>
        <time>2021-04-10T06:56:02Z</time>
      </trkpt>
      <trkpt lat="45.18755" lon="5.81201">
        <ele>248</ele>
        <time>2021-04-10T06:56:03Z</time>
      </trkpt>
      <trkpt lat="45.18755" lon="5.81202">
        <ele>247.8</ele>
        <time>2021-04-10T06:56:04Z</time>
      </trkpt>
      <trkpt lat="45.18756" lon="5.81204">
        <ele>247.8</ele>
        <time>2021-04-10T06:56:05Z</time>
      </trkpt>
      <trkpt lat="45.18756" lon="5.81205">
        <ele>247.8</ele>
        <time>2021-04-10T06:56:06Z</time>
      </trkpt>
      <trkpt lat="45.18756" lon="5.81207">
        <ele>247.8</ele>
        <time>2021-04-10T06:56:07Z</time>
      </trkpt>
      <trkpt lat="45.18756" lon="5.81208">
        <ele>247.8</ele>
        <time>2021-04-10T06:56:08Z</time>
      </trkpt>
      <trkpt lat="45.18756" lon="5.8121">
        <ele>247.8</ele>
        <time>2021-04-10T06:56:09Z</time>
      </trkpt>
      <trkpt lat="45.18757" lon="5.81211">
        <ele>248</ele>
        <time>2021-04-10T06:56:10Z</time>
      </trkpt>
      <trkpt lat="45.18757" lon="5.81212">
        <ele>248.2</ele>
        <time>2021-04-10T06:56:11Z</time>
      </trkpt>
      <trkpt lat="45.18756" lon="5.81215">
        <ele>248.6</ele>
        <time>2021-04-10T06:56:12Z</time>
      </trkpt>
      <trkpt lat="45.18755" lon="5.81217">
        <ele>248.8</ele>
        <time>2021-04-10T06:56:13Z</time>
      </trkpt>
      <trkpt lat="45.18754" lon="5.81219">
        <ele>249</ele>
        <time>2021-04-10T06:56:14Z</time>
      </trkpt>
      <trkpt lat="45.18753" lon="5.81221">
        <ele>249.2</ele>
        <time>2021-04-10T06:56:15Z</time>
      </trkpt>
      <trkpt lat="45.18753" lon="5.81224">
        <ele>249.4</ele>
        <time>2021-04-10T06:56:16Z</time>
      </trkpt>
      <trkpt lat="45.18752" lon="5.81226">
        <ele>249.6</ele>
        <time>2021-04-10T06:56:17Z</time>
      </trkpt>
      <trkpt lat="45.18751" lon="5.81228">
        <ele>249.8</ele>
        <time>2021-04-10T06:56:18Z</time>
      </trkpt>
      <trkpt lat="45.1875" lon="5.8123">
        <ele>250</ele>
        <time>2021-04-10T06:56:19Z</time>
      </trkpt>
      <trkpt lat="45.18749" lon="5.81233">
        <ele>250.4</ele>
        <time>2021-04-10T06:56:20Z</time>
      </trkpt>
      <trkpt lat="45.18747" lon="5.81235">
        <ele>250.6</ele>
        <time>2021-04-10T06:56:21Z</time>
      </trkpt>
      <trkpt lat="45.18746" lon="5.81238">
        <ele>250.8</ele>
        <time>2021-04-10T06:56:22Z</time>
      </trkpt>
      <trkpt lat="45.18745" lon="5.8124">
        <ele>251.2</ele>
        <time>2021-04-10T06:56:23Z</time>
      </trkpt>
      <trkpt lat="45.18743" lon="5.81242">
        <ele>251.4</ele>
        <time>2021-04-10T06:56:24Z</time>
      </trkpt>
      <trkpt lat="45.18742" lon="5.81244">
        <ele>251.6</ele>
        <time>2021-04-10T06:56:25Z</time>
      </trkpt>
      <trkpt lat="45.18741" lon="5.81246">
        <ele>251.8</ele>
        <time>2021-04-10T06:56:26Z</time>
      </trkpt>
      <trkpt lat="45.1874" lon="5.81247">
        <ele>251.8</ele>
        <time>2021-04-10T06:56:27Z</time>
      </trkpt>
      <trkpt lat="45.18739" lon="5.81249">
        <ele>252.2</ele>
        <time>2021-04-10T06:56:28Z</time>
      </trkpt>
      <trkpt lat="45.18737" lon="5.81251">
        <ele>252.2</ele>
        <time>2021-04-10T06:56:29Z</time>
      </trkpt>
      <trkpt lat="45.18736" lon="5.81252">
        <ele>252.4</ele>
        <time>2021-04-10T06:56:30Z</time>
      </trkpt>
      <trkpt lat="45.18736" lon="5.81254">
        <ele>252.8</ele>
        <time>2021-04-10T06:56:31Z</time>
      </trkpt>
      <trkpt lat="45.18735" lon="5.81255">
        <ele>253</ele>
        <time>2021-04-10T06:56:32Z</time>
      </trkpt>
      <trkpt lat="45.18735" lon="5.81256">
        <ele>253.2</ele>
        <time>2021-04-10T06:56:33Z</time>
      </trkpt>
      <trkpt lat="45.18734" lon="5.81257">
        <ele>253.4</ele>
        <time>2021-04-10T06:56:34Z</time>
      </trkpt>
      <trkpt lat="45.18733" lon="5.81258">
        <ele>253.8</ele>
        <time>2021-04-10T06:56:35Z</time>
      </trkpt>
      <trkpt lat="45.18733" lon="5.81259">
        <ele>253.8</ele>
        <time>2021-04-10T06:56:36Z</time>
      </trkpt>
      <trkpt lat="45.18732" lon="5.8126">
        <ele>254</ele>
        <time>2021-04-10T06:56:37Z</time>
      </trkpt>
      <trkpt lat="45.18732" lon="5.81262">
        <ele>254.2</ele>
        <time>2021-04-10T06:56:38Z</time>
      </trkpt>
      <trkpt lat="45.18731" lon="5.81263">
        <ele>254.4</ele>
        <time>2021-04-10T06:56:39Z</time>
      </trkpt>
      <trkpt lat="45.1873" lon="5.81264">
        <ele>254.8</ele>
        <time>2021-04-10T06:56:40Z</time>
      </trkpt>
      <trkpt lat="45.18731" lon="5.81265">
        <ele>255.2</ele>
        <time>2021-04-10T06:56:41Z</time>
      </trkpt>
      <trkpt lat="45.18732" lon="5.81267">
        <ele>255.4</ele>
        <time>2021-04-10T06:56:42Z</time>
      </trkpt>
      <trkpt lat="45.18732" lon="5.81269">
        <ele>255.6</ele>
        <time>2021-04-10T06:56:43Z</time>
      </trkpt>
      <trkpt lat="45.18733" lon="5.8127">
        <ele>255.8</ele>
        <time>2021-04-10T06:56:44Z</time>
      </trkpt>
      <trkpt lat="45.18734" lon="5.81272">
        <ele>255.8</ele>
        <time>2021-04-10T06:56:45Z</time>
      </trkpt>
      <trkpt lat="45.18734" lon="5.81273">
        <ele>256</ele>
        <time>2021-04-10T06:56:46Z</time>
      </trkpt>
      <trkpt lat="45.18735" lon="5.81275">
        <ele>256.4</ele>
        <time>2021-04-10T06:56:47Z</time>
      </trkpt>
      <trkpt lat="45.18736" lon="5.81277">
        <ele>256.6</ele>
        <time>2021-04-10T06:56:48Z</time>
      </trkpt>
      <trkpt lat="45.18736" lon="5.81278">
        <ele>256.8</ele>
        <time>2021-04-10T06:56:49Z</time>
      </trkpt>
      <trkpt lat="45.18737" lon="5.8128">
        <ele>257</ele>
        <time>2021-04-10T06:56:50Z</time>
      </trkpt>
      <trkpt lat="45.18737" lon="5.81281">
        <ele>257</ele>
        <time>2021-04-10T06:56:51Z</time>
      </trkpt>
      <trkpt lat="45.18737" lon="5.81283">
        <ele>257.4</ele>
        <time>2021-04-10T06:56:52Z</time>
      </trkpt>
      <trkpt lat="45.18736" lon="5.81285">
        <ele>257.6</ele>
        <time>2021-04-10T06:56:53Z</time>
      </trkpt>
      <trkpt lat="45.18736" lon="5.81286">
        <ele>257.8</ele>
        <time>2021-04-10T06:56:54Z</time>
      </trkpt>
      <trkpt lat="45.18736" lon="5.81288">
        <ele>258.4</ele>
        <time>2021-04-10T06:56:55Z</time>
      </trkpt>
      <trkpt lat="45.18736" lon="5.8129">
        <ele>258.6</ele>
        <time>2021-04-10T06:56:56Z</time>
      </trkpt>
      <trkpt lat="45.18736" lon="5.81291">
        <ele>258.8</ele>
        <time>2021-04-10T06:56:57Z</time>
      </trkpt>
      <trkpt lat="45.18735" lon="5.81293">
        <ele>259</ele>
        <time>2021-04-10T06:56:58Z</time>
      </trkpt>
      <trkpt lat="45.18736" lon="5.81294">
        <ele>259.2</ele>
        <time>2021-04-10T06:56:59Z</time>
      </trkpt>
      <trkpt lat="45.18736" lon="5.81295">
        <ele>259.6</ele>
        <time>2021-04-10T06:57:00Z</time>
      </trkpt>
      <trkpt lat="45.18736" lon="5.81296">
        <ele>260</ele>
        <time>2021-04-10T06:57:01Z</time>
      </trkpt>
      <trkpt lat="45.18736" lon="5.81296">
        <ele>260</ele>
        <time>2021-04-10T06:57:02Z</time>
      </trkpt>
      <trkpt lat="45.18736" lon="5.81297">
        <ele>260.6</ele>
        <time>2021-04-10T06:57:03Z</time>
      </trkpt>
      <trkpt lat="45.18736" lon="5.81298">
        <ele>261</ele>
        <time>2021-04-10T06:57:04Z</time>
      </trkpt>
      <trkpt lat="45.18736" lon="5.81299">
        <ele>261</ele>
        <time>2021-04-10T06:57:05Z</time>
      </trkpt>
      <trkpt lat="45.18736" lon="5.813">
        <ele>261.2</ele>
        <time>2021-04-10T06:57:06Z</time>
      </trkpt>
      <trkpt lat="45.18736" lon="5.81301">
        <ele>261.4</ele>
        <time>2021-04-10T06:57:07Z</time>
      </trkpt>
      <trkpt lat="45.18736" lon="5.81302">
        <ele>261.8</ele>
        <time>2021-04-10T06:57:08Z</time>
      </trkpt>
      <trkpt lat="45.18736" lon="5.81303">
        <ele>262</ele>
        <time>2021-04-10T06:57:09Z</time>
      </trkpt>
      <trkpt lat="45.18736" lon="5.81304">
        <ele>262.4</ele>
        <time>2021-04-10T06:57:10Z</time>
      </trkpt>
      <trkpt lat="45.18736" lon="5.81305">
        <ele>262.8</ele>
        <time>2021-04-10T06:57:11Z</time>
      </trkpt>
      <trkpt lat="45.18736" lon="5.81306">
        <ele>263</ele>
        <time>2021-04-10T06:57:12Z</time>
      </trkpt>
      <trkpt lat="45.18736" lon="5.81307">
        <ele>263.2</ele>
        <time>2021-04-10T06:57:13Z</time>
      </trkpt>
      <trkpt lat="45.18737" lon="5.81308">
        <ele>263.4</ele>
        <time>2021-04-10T06:57:14Z</time>
      </trkpt>
      <trkpt lat="45.18737" lon="5.81309">
        <ele>263.6</ele>
        <time>2021-04-10T06:57:15Z</time>
      </trkpt>
      <trkpt lat="45.18737" lon="5.81311">
        <ele>264</ele>
        <time>2021-04-10T06:57:16Z</time>
      </trkpt>
      <trkpt lat="45.18738" lon="5.81312">
        <ele>264.2</ele>
        <time>2021-04-10T06:57:17Z</time>
      </trkpt>
      <trkpt lat="45.18738" lon="5.81313">
        <ele>264.4</ele>
        <time>2021-04-10T06:57:18Z</time>
      </trkpt>
      <trkpt lat="45.18738" lon="5.81314">
        <ele>264.8</ele>
        <time>2021-04-10T06:57:19Z</time>
      </trkpt>
      <trkpt lat="45.18739" lon="5.81316">
        <ele>265.2</ele>
        <time>2021-04-10T06:57:20Z</time>
      </trkpt>
      <trkpt lat="45.18739" lon="5.81317">
        <ele>265.4</ele>
        <time>2021-04-10T06:57:21Z</time>
      </trkpt>
      <trkpt lat="45.18739" lon="5.81318">
        <ele>265.8</ele>
        <time>2021-04-10T06:57:22Z</time>
      </trkpt>
      <trkpt lat="45.1874" lon="5.81319">
        <ele>266</ele>
        <time>2021-04-10T06:57:23Z</time>
      </trkpt>
      <trkpt lat="45.1874" lon="5.81321">
        <ele>266.2</ele>
        <time>2021-04-10T06:57:24Z</time>
      </trkpt>
      <trkpt lat="45.1874" lon="5.81322">
        <ele>266.4</ele>
        <time>2021-04-10T06:57:25Z</time>
      </trkpt>
      <trkpt lat="45.1874" lon="5.81323">
        <ele>266.4</ele>
        <time>2021-04-10T06:57:26Z</time>
      </trkpt>
      <trkpt lat="45.1874" lon="5.81325">
        <ele>266.6</ele>
        <time>2021-04-10T06:57:27Z</time>
      </trkpt>
      <trkpt lat="45.1874" lon="5.81326">
        <ele>267.2</ele>
        <time>2021-04-10T06:57:28Z</time>
      </trkpt>
      <trkpt lat="45.1874" lon="5.81328">
        <ele>267.4</ele>
        <time>2021-04-10T06:57:29Z</time>
      </trkpt>
      <trkpt lat="45.1874" lon="5.81329">
        <ele>267.6</ele>
        <time>2021-04-10T06:57:30Z</time>
      </trkpt>
      <trkpt lat="45.1874" lon="5.81331">
        <ele>267.8</ele>
        <time>2021-04-10T06:57:31Z</time>
      </trkpt>
      <trkpt lat="45.18739" lon="5.81332">
        <ele>268</ele>
        <time>2021-04-10T06:57:32Z</time>
      </trkpt>
      <trkpt lat="45.18739" lon="5.81333">
        <ele>268.2</ele>
        <time>2021-04-10T06:57:33Z</time>
      </trkpt>
      <trkpt lat="45.18739" lon="5.81335">
        <ele>268.6</ele>
        <time>2021-04-10T06:57:34Z</time>
      </trkpt>
      <trkpt lat="45.1874" lon="5.81335">
        <ele>268.8</ele>
        <time>2021-04-10T06:57:35Z</time>
      </trkpt>
      <trkpt lat="45.1874" lon="5.81336">
        <ele>269</ele>
        <time>2021-04-10T06:57:36Z</time>
      </trkpt>
      <trkpt lat="45.1874" lon="5.81337">
        <ele>269.2</ele>
        <time>2021-04-10T06:57:37Z</time>
      </trkpt>
      <trkpt lat="45.18741" lon="5.81338">
        <ele>269.2</ele>
        <time>2021-04-10T06:57:38Z</time>
      </trkpt>
      <trkpt lat="45.18741" lon="5.81338">
        <ele>269.4</ele>
        <time>2021-04-10T06:57:39Z</time>
      </trkpt>
      <trkpt lat="45.18741" lon="5.81339">
        <ele>269.8</ele>
        <time>2021-04-10T06:57:40Z</time>
      </trkpt>
      <trkpt lat="45.18741" lon="5.8134">
        <ele>270.4</ele>
        <time>2021-04-10T06:57:41Z</time>
      </trkpt>
      <trkpt lat="45.18742" lon="5.81341">
        <ele>270.6</ele>
        <time>2021-04-10T06:57:42Z</time>
      </trkpt>
      <trkpt lat="45.18742" lon="5.81341">
        <ele>270.8</ele>
        <time>2021-04-10T06:57:43Z</time>
      </trkpt>
      <trkpt lat="45.18742" lon="5.81342">
        <ele>271.2</ele>
        <time>2021-04-10T06:57:44Z</time>
      </trkpt>
      <trkpt lat="45.18743" lon="5.81343">
        <ele>271.2</ele>
        <time>2021-04-10T06:57:45Z</time>
      </trkpt>
      <trkpt lat="45.18743" lon="5.81343">
        <ele>271.6</ele>
        <time>2021-04-10T06:57:46Z</time>
      </trkpt>
      <trkpt lat="45.18743" lon="5.81344">
        <ele>271.8</ele>
        <time>2021-04-10T06:57:47Z</time>
      </trkpt>
      <trkpt lat="45.18744" lon="5.81345">
        <ele>272.2</ele>
        <time>2021-04-10T06:57:48Z</time>
      </trkpt>
      <trkpt lat="45.18744" lon="5.81346">
        <ele>272.4</ele>
        <time>2021-04-10T06:57:49Z</time>
      </trkpt>
      <trkpt lat="45.18744" lon="5.81346">
        <ele>272.4</ele>
        <time>2021-04-10T06:57:50Z</time>
      </trkpt>
      <trkpt lat="45.18745" lon="5.81347">
        <ele>272.8</ele>
        <time>2021-04-10T06:57:51Z</time>
      </trkpt>
      <trkpt lat="45.18745" lon="5.81349">
        <ele>273</ele>
        <time>2021-04-10T06:57:52Z</time>
      </trkpt>
      <trkpt lat="45.18745" lon="5.8135">
        <ele>273.4</ele>
        <time>2021-04-10T06:57:53Z</time>
      </trkpt>
      <trkpt lat="45.18746" lon="5.81351">
        <ele>273.6</ele>
        <time>2021-04-10T06:57:54Z</time>
      </trkpt>
      <trkpt lat="45.18746" lon="5.81352">
        <ele>273.8</ele>
        <time>2021-04-10T06:57:55Z</time>
      </trkpt>
      <trkpt lat="45.18746" lon="5.81353">
        <ele>273.8</ele>
        <time>2021-04-10T06:57:56Z</time>
      </trkpt>
      <trkpt lat="45.18747" lon="5.81354">
        <ele>274.4</ele>
        <time>2021-04-10T06:57:57Z</time>
      </trkpt>
      <trkpt lat="45.18747" lon="5.81355">
        <ele>274.8</ele>
        <time>2021-04-10T06:57:58Z</time>
      </trkpt>
      <trkpt lat="45.18748" lon="5.81356">
        <ele>275</ele>
        <time>2021-04-10T06:57:59Z</time>
      </trkpt>
      <trkpt lat="45.18748" lon="5.81357">
        <ele>275.4</ele>
        <time>2021-04-10T06:58:00Z</time>
      </trkpt>
      <trkpt lat="45.18748" lon="5.81358">
        <ele>275.6</ele>
        <time>2021-04-10T06:58:01Z</time>
      </trkpt>
      <trkpt lat="45.18748" lon="5.81361">
        <ele>275.8</ele>
        <time>2021-04-10T06:58:02Z</time>
      </trkpt>
      <trkpt lat="45.18747" lon="5.81363">
        <ele>276</ele>
        <time>2021-04-10T06:58:03Z</time>
      </trkpt>
      <trkpt lat="45.18747" lon="5.81365">
        <ele>276.2</ele>
        <time>2021-04-10T06:58:04Z</time>
      </trkpt>
      <trkpt lat="45.18747" lon="5.81368">
        <ele>276.2</ele>
        <time>2021-04-10T06:58:05Z</time>
      </trkpt>
      <trkpt lat="45.18746" lon="5.8137">
        <ele>276.4</ele>
        <time>2021-04-10T06:58:06Z</time>
      </trkpt>
      <trkpt lat="45.18746" lon="5.81372">
        <ele>276.6</ele>
        <time>2021-04-10T06:58:07Z</time>
      </trkpt>
      <trkpt lat="45.18745" lon="5.81375">
        <ele>276.8</ele>
        <time>2021-04-10T06:58:08Z</time>
      </trkpt>
      <trkpt lat="45.18745" lon="5.81377">
        <ele>277</ele>
        <time>2021-04-10T06:58:09Z</time>
      </trkpt>
      <trkpt lat="45.18744" lon="5.8138">
        <ele>277.2</ele>
        <time>2021-04-10T06:58:10Z</time>
      </trkpt>
      <trkpt lat="45.18743" lon="5.81386">
        <ele>277.6</ele>
        <time>2021-04-10T06:58:11Z</time>
      </trkpt>
      <trkpt lat="45.18743" lon="5.81386">
        <ele>278</ele>
        <time>2021-04-10T06:58:12Z</time>
      </trkpt>
      <trkpt lat="45.18743" lon="5.81386">
        <ele>278.2</ele>
        <time>2021-04-10T06:58:13Z</time>
      </trkpt>
      <trkpt lat="45.18743" lon="5.81386">
        <ele>278.4</ele>
        <time>2021-04-10T06:58:14Z</time>
      </trkpt>
      <trkpt lat="45.18743" lon="5.81389">
        <ele>278.8</ele>
        <time>2021-04-10T06:58:15Z</time>
      </trkpt>
      <trkpt lat="45.18744" lon="5.81392">
        <ele>279</ele>
        <time>2021-04-10T06:58:16Z</time>
      </trkpt>
      <trkpt lat="45.18745" lon="5.81395">
        <ele>279.4</ele>
        <time>2021-04-10T06:58:17Z</time>
      </trkpt>
      <trkpt lat="45.18745" lon="5.81398">
        <ele>279.4</ele>
        <time>2021-04-10T06:58:18Z</time>
      </trkpt>
      <trkpt lat="45.18746" lon="5.81401">
        <ele>279.8</ele>
        <time>2021-04-10T06:58:19Z</time>
      </trkpt>
      <trkpt lat="45.18746" lon="5.81404">
        <ele>279.8</ele>
        <time>2021-04-10T06:58:20Z</time>
      </trkpt>
      <trkpt lat="45.18747" lon="5.81407">
        <ele>280</ele>
        <time>2021-04-10T06:58:21Z</time>
      </trkpt>
      <trkpt lat="45.18748" lon="5.8141">
        <ele>280.6</ele>
        <time>2021-04-10T06:58:22Z</time>
      </trkpt>
      <trkpt lat="45.18748" lon="5.81413">
        <ele>280.8</ele>
        <time>2021-04-10T06:58:23Z</time>
      </trkpt>
      <trkpt lat="45.18749" lon="5.81414">
        <ele>281</ele>
        <time>2021-04-10T06:58:24Z</time>
      </trkpt>
      <trkpt lat="45.18749" lon="5.81416">
        <ele>281.4</ele>
        <time>2021-04-10T06:58:25Z</time>
      </trkpt>
      <trkpt lat="45.18749" lon="5.81418">
        <ele>281.4</ele>
        <time>2021-04-10T06:58:26Z</time>
      </trkpt>
      <trkpt lat="45.1875" lon="5.81419">
        <ele>281.6</ele>
        <time>2021-04-10T06:58:27Z</time>
      </trkpt>
      <trkpt lat="45.1875" lon="5.81421">
        <ele>281.8</ele>
        <time>2021-04-10T06:58:28Z</time>
      </trkpt>
      <trkpt lat="45.1875" lon="5.81423">
        <ele>282</ele>
        <time>2021-04-10T06:58:29Z</time>
      </trkpt>
      <trkpt lat="45.18751" lon="5.81424">
        <ele>282.2</ele>
        <time>2021-04-10T06:58:30Z</time>
      </trkpt>
      <trkpt lat="45.18751" lon="5.81426">
        <ele>282.4</ele>
        <time>2021-04-10T06:58:31Z</time>
      </trkpt>
      <trkpt lat="45.18751" lon="5.81427">
        <ele>282.4</ele>
        <time>2021-04-10T06:58:32Z</time>
      </trkpt>
      <trkpt lat="45.18752" lon="5.81429">
        <ele>282.6</ele>
        <time>2021-04-10T06:58:33Z</time>
      </trkpt>
      <trkpt lat="45.18752" lon="5.81431">
        <ele>282.8</ele>
        <time>2021-04-10T06:58:34Z</time>
      </trkpt>
      <trkpt lat="45.18752" lon="5.81432">
        <ele>283</ele>
        <time>2021-04-10T06:58:35Z</time>
      </trkpt>
      <trkpt lat="45.18753" lon="5.81434">
        <ele>283.2</ele>
        <time>2021-04-10T06:58:36Z</time>
      </trkpt>
      <trkpt lat="45.18753" lon="5.81435">
        <ele>283.4</ele>
        <time>2021-04-10T06:58:37Z</time>
      </trkpt>
      <trkpt lat="45.18753" lon="5.81437">
        <ele>283.4</ele>
        <time>2021-04-10T06:58:38Z</time>
      </trkpt>
      <trkpt lat="45.18754" lon="5.81439">
        <ele>283.6</ele>
        <time>2021-04-10T06:58:39Z</time>
      </trkpt>
      <trkpt lat="45.18754" lon="5.8144">
        <ele>283.8</ele>
        <time>2021-04-10T06:58:40Z</time>
      </trkpt>
      <trkpt lat="45.18754" lon="5.81442">
        <ele>284</ele>
        <time>2021-04-10T06:58:41Z</time>
      </trkpt>
      <trkpt lat="45.18755" lon="5.81444">
        <ele>284.2</ele>
        <time>2021-04-10T06:58:42Z</time>
      </trkpt>
      <trkpt lat="45.18755" lon="5.81445">
        <ele>284.6</ele>
        <time>2021-04-10T06:58:43Z</time>
      </trkpt>
      <trkpt lat="45.18755" lon="5.81447">
        <ele>284.8</ele>
        <time>2021-04-10T06:58:44Z</time>
      </trkpt>
      <trkpt lat="45.18756" lon="5.81448">
        <ele>285</ele>
        <time>2021-04-10T06:58:45Z</time>
      </trkpt>
      <trkpt lat="45.18756" lon="5.8145">
        <ele>285.4</ele>
        <time>2021-04-10T06:58:46Z</time>
      </trkpt>
      <trkpt lat="45.18756" lon="5.81452">
        <ele>285.6</ele>
        <time>2021-04-10T06:58:47Z</time>
      </trkpt>
      <trkpt lat="45.18757" lon="5.81453">
        <ele>285.8</ele>
        <time>2021-04-10T06:58:48Z</time>
      </trkpt>
      <trkpt lat="45.18757" lon="5.81455">
        <ele>286</ele>
        <time>2021-04-10T06:58:49Z</time>
      </trkpt>
      <trkpt lat="45.18757" lon="5.81456">
        <ele>286.4</ele>
        <time>2021-04-10T06:58:50Z</time>
      </trkpt>
      <trkpt lat="45.18758" lon="5.81458">
        <ele>286.6</ele>
        <time>2021-04-10T06:58:51Z</time>
      </trkpt>
      <trkpt lat="45.18758" lon="5.8146">
        <ele>287</ele>
        <time>2021-04-10T06:58:52Z</time>
      </trkpt>
      <trkpt lat="45.18758" lon="5.81461">
        <ele>287.4</ele>
        <time>2021-04-10T06:58:53Z</time>
      </trkpt>
      <trkpt lat="45.18759" lon="5.81463">
        <ele>287.6</ele>
        <time>2021-04-10T06:58:54Z</time>
      </trkpt>
      <trkpt lat="45.18759" lon="5.81465">
        <ele>288</ele>
        <time>2021-04-10T06:58:55Z</time>
      </trkpt>
      <trkpt lat="45.18759" lon="5.81466">
        <ele>288.2</ele>
        <time>2021-04-10T06:58:56Z</time>
      </trkpt>
      <trkpt lat="45.1876" lon="5.81468">
        <ele>288.4</ele>
        <time>2021-04-10T06:58:57Z</time>
      </trkpt>
      <trkpt lat="45.1876" lon="5.81469">
        <ele>288.6</ele>
        <time>2021-04-10T06:58:58Z</time>
      </trkpt>
      <trkpt lat="45.1876" lon="5.81471">
        <ele>288.8</ele>
        <time>2021-04-10T06:58:59Z</time>
      </trkpt>
      <trkpt lat="45.18761" lon="5.81473">
        <ele>288.8</ele>
        <time>2021-04-10T06:59:00Z</time>
      </trkpt>
      <trkpt lat="45.18761" lon="5.81474">
        <ele>289.2</ele>
        <time>2021-04-10T06:59:01Z</time>
      </trkpt>
      <trkpt lat="45.18762" lon="5.81476">
        <ele>289.2</ele>
        <time>2021-04-10T06:59:02Z</time>
      </trkpt>
      <trkpt lat="45.18762" lon="5.81477">
        <ele>289.6</ele>
        <time>2021-04-10T06:59:03Z</time>
      </trkpt>
      <trkpt lat="45.18762" lon="5.81479">
        <ele>289.8</ele>
        <time>2021-04-10T06:59:04Z</time>
      </trkpt>
      <trkpt lat="45.18763" lon="5.81481">
        <ele>290</ele>
        <time>2021-04-10T06:59:05Z</time>
      </trkpt>
      <trkpt lat="45.18763" lon="5.81482">
        <ele>290.4</ele>
        <time>2021-04-10T06:59:06Z</time>
      </trkpt>
      <trkpt lat="45.18763" lon="5.81484">
        <ele>290.6</ele>
        <time>2021-04-10T06:59:07Z</time>
      </trkpt>
      <trkpt lat="45.18764" lon="5.81486">
        <ele>290.6</ele>
        <time>2021-04-10T06:59:08Z</time>
      </trkpt>
      <trkpt lat="45.18764" lon="5.81487">
        <ele>290.8</ele>
        <time>2021-04-10T06:59:09Z</time>
      </trkpt>
      <trkpt lat="45.18764" lon="5.81489">
        <ele>290.8</ele>
        <time>2021-04-10T06:59:10Z</time>
      </trkpt>
      <trkpt lat="45.18765" lon="5.8149">
        <ele>290.8</ele>
        <time>2021-04-10T06:59:11Z</time>
      </trkpt>
      <trkpt lat="45.18765" lon="5.81492">
        <ele>291.2</ele>
        <time>2021-04-10T06:59:12Z</time>
      </trkpt>
      <trkpt lat="45.18765" lon="5.81494">
        <ele>291.4</ele>
        <time>2021-04-10T06:59:13Z</time>
      </trkpt>
      <trkpt lat="45.18766" lon="5.81495">
        <ele>291.8</ele>
        <time>2021-04-10T06:59:14Z</time>
      </trkpt>
      <trkpt lat="45.18766" lon="5.81497">
        <ele>292.2</ele>
        <time>2021-04-10T06:59:15Z</time>
      </trkpt>
      <trkpt lat="45.18766" lon="5.81498">
        <ele>292.6</ele>
        <time>2021-04-10T06:59:16Z</time>
      </trkpt>
      <trkpt lat="45.18767" lon="5.815">
        <ele>292.8</ele>
        <time>2021-04-10T06:59:17Z</time>
      </trkpt>
      <trkpt lat="45.18767" lon="5.81502">
        <ele>292.8</ele>
        <time>2021-04-10T06:59:18Z</time>
      </trkpt>
      <trkpt lat="45.18767" lon="5.81502">
        <ele>293</ele>
        <time>2021-04-10T06:59:19Z</time>
      </trkpt>
      <trkpt lat="45.18767" lon="5.81502">
        <ele>293.4</ele>
        <time>2021-04-10T06:59:20Z</time>
      </trkpt>
      <trkpt lat="45.18767" lon="5.81502">
        <ele>293.8</ele>
        <time>2021-04-10T06:59:21Z</time>
      </trkpt>
      <trkpt lat="45.18767" lon="5.81504">
        <ele>294</ele>
        <time>2021-04-10T06:59:22Z</time>
      </trkpt>
      <trkpt lat="45.18767" lon="5.81506">
        <ele>294</ele>
        <time>2021-04-10T06:59:23Z</time>
      </trkpt>
      <trkpt lat="45.18767" lon="5.81508">
        <ele>294.4</ele>
        <time>2021-04-10T06:59:24Z</time>
      </trkpt>
      <trkpt lat="45.18767" lon="5.8151">
        <ele>294.4</ele>
        <time>2021-04-10T06:59:25Z</time>
      </trkpt>
      <trkpt lat="45.18768" lon="5.81512">
        <ele>294.2</ele>
        <time>2021-04-10T06:59:26Z</time>
      </trkpt>
      <trkpt lat="45.18768" lon="5.81515">
        <ele>294.2</ele>
        <time>2021-04-10T06:59:27Z</time>
      </trkpt>
      <trkpt lat="45.18768" lon="5.81515">
        <ele>294.2</ele>
        <time>2021-04-10T06:59:28Z</time>
      </trkpt>
      <trkpt lat="45.18768" lon="5.81516">
        <ele>294.2</ele>
        <time>2021-04-10T06:59:29Z</time>
      </trkpt>
      <trkpt lat="45.18768" lon="5.81517">
        <ele>294.2</ele>
        <time>2021-04-10T06:59:30Z</time>
      </trkpt>
      <trkpt lat="45.18769" lon="5.81518">
        <ele>294.2</ele>
        <time>2021-04-10T06:59:31Z</time>
      </trkpt>
      <trkpt lat="45.18769" lon="5.81518">
        <ele>294.2</ele>
        <time>2021-04-10T06:59:32Z</time>
      </trkpt>
      <trkpt lat="45.18769" lon="5.81519">
        <ele>294.6</ele>
        <time>2021-04-10T06:59:33Z</time>
      </trkpt>
      <trkpt lat="45.18769" lon="5.8152">
        <ele>294.6</ele>
        <time>2021-04-10T06:59:34Z</time>
      </trkpt>
      <trkpt lat="45.18769" lon="5.81521">
        <ele>295</ele>
        <time>2021-04-10T06:59:35Z</time>
      </trkpt>
      <trkpt lat="45.1877" lon="5.81522">
        <ele>295</ele>
        <time>2021-04-10T06:59:36Z</time>
      </trkpt>
      <trkpt lat="45.1877" lon="5.81522">
        <ele>295.2</ele>
        <time>2021-04-10T06:59:37Z</time>
      </trkpt>
      <trkpt lat="45.1877" lon="5.81523">
        <ele>295.4</ele>
        <time>2021-04-10T06:59:38Z</time>
      </trkpt>
      <trkpt lat="45.1877" lon="5.81524">
        <ele>295.6</ele>
        <time>2021-04-10T06:59:39Z</time>
      </trkpt>
      <trkpt lat="45.18771" lon="5.81525">
        <ele>295.8</ele>
        <time>2021-04-10T06:59:40Z</time>
      </trkpt>
      <trkpt lat="45.18771" lon="5.81525">
        <ele>296</ele>
        <time>2021-04-10T06:59:41Z</time>
      </trkpt>
      <trkpt lat="45.18771" lon="5.81526">
        <ele>296.2</ele>
        <time>2021-04-10T06:59:42Z</time>
      </trkpt>
      <trkpt lat="45.18771" lon="5.81527">
        <ele>296.2</ele>
        <time>2021-04-10T06:59:43Z</time>
      </trkpt>
      <trkpt lat="45.18772" lon="5.81529">
        <ele>296.4</ele>
        <time>2021-04-10T06:59:44Z</time>
      </trkpt>
      <trkpt lat="45.18772" lon="5.8153">
        <ele>296.6</ele>
        <time>2021-04-10T06:59:46Z</time>
      </trkpt>
      <trkpt lat="45.18773" lon="5.81532">
        <ele>296.8</ele>
        <time>2021-04-10T06:59:47Z</time>
      </trkpt>
      <trkpt lat="45.18773" lon="5.81533">
        <ele>296.8</ele>
        <time>2021-04-10T06:59:48Z</time>
      </trkpt>
      <trkpt lat="45.18773" lon="5.81534">
        <ele>297</ele>
        <time>2021-04-10T06:59:49Z</time>
      </trkpt>
      <trkpt lat="45.18774" lon="5.81536">
        <ele>297.4</ele>
        <time>2021-04-10T06:59:50Z</time>
      </trkpt>
      <trkpt lat="45.18774" lon="5.81537">
        <ele>297.6</ele>
        <time>2021-04-10T06:59:51Z</time>
      </trkpt>
      <trkpt lat="45.18775" lon="5.81539">
        <ele>297.8</ele>
        <time>2021-04-10T06:59:52Z</time>
      </trkpt>
      <trkpt lat="45.18775" lon="5.8154">
        <ele>298.2</ele>
        <time>2021-04-10T06:59:53Z</time>
      </trkpt>
      <trkpt lat="45.18775" lon="5.81542">
        <ele>298.6</ele>
        <time>2021-04-10T06:59:54Z</time>
      </trkpt>
      <trkpt lat="45.18775" lon="5.81543">
        <ele>298.8</ele>
        <time>2021-04-10T06:59:55Z</time>
      </trkpt>
      <trkpt lat="45.18775" lon="5.81545">
        <ele>299</ele>
        <time>2021-04-10T06:59:56Z</time>
      </trkpt>
      <trkpt lat="45.18776" lon="5.81546">
        <ele>299.2</ele>
        <time>2021-04-10T06:59:57Z</time>
      </trkpt>
      <trkpt lat="45.18776" lon="5.81548">
        <ele>299.6</ele>
        <time>2021-04-10T06:59:58Z</time>
      </trkpt>
      <trkpt lat="45.18776" lon="5.81549">
        <ele>299.8</ele>
        <time>2021-04-10T06:59:59Z</time>
      </trkpt>
      <trkpt lat="45.18776" lon="5.81551">
        <ele>300.6</ele>
        <time>2021-04-10T07:00:01Z</time>
      </trkpt>
      <trkpt lat="45.18776" lon="5.81552">
        <ele>300.6</ele>
        <time>2021-04-10T07:00:02Z</time>
      </trkpt>
      <trkpt lat="45.18776" lon="5.81554">
        <ele>300.8</ele>
        <time>2021-04-10T07:00:03Z</time>
      </trkpt>
      <trkpt lat="45.18776" lon="5.81555">
        <ele>301</ele>
        <time>2021-04-10T07:00:04Z</time>
      </trkpt>
      <trkpt lat="45.18776" lon="5.81556">
        <ele>301.2</ele>
        <time>2021-04-10T07:00:05Z</time>
      </trkpt>
      <trkpt lat="45.18776" lon="5.81557">
        <ele>301.4</ele>
        <time>2021-04-10T07:00:06Z</time>
      </trkpt>
      <trkpt lat="45.18776" lon="5.81558">
        <ele>301.6</ele>
        <time>2021-04-10T07:00:07Z</time>
      </trkpt>
      <trkpt lat="45.18776" lon="5.8156">
        <ele>302</ele>
        <time>2021-04-10T07:00:08Z</time>
      </trkpt>
      <trkpt lat="45.18776" lon="5.81561">
        <ele>302.2</ele>
        <time>2021-04-10T07:00:09Z</time>
      </trkpt>
      <trkpt lat="45.18776" lon="5.81562">
        <ele>302.6</ele>
        <time>2021-04-10T07:00:10Z</time>
      </trkpt>
      <trkpt lat="45.18776" lon="5.81563">
        <ele>302.8</ele>
        <time>2021-04-10T07:00:11Z</time>
      </trkpt>
      <trkpt lat="45.18776" lon="5.81564">
        <ele>303</ele>
        <time>2021-04-10T07:00:12Z</time>
      </trkpt>
      <trkpt lat="45.18776" lon="5.81566">
        <ele>303.2</ele>
        <time>2021-04-10T07:00:13Z</time>
      </trkpt>
      <trkpt lat="45.18776" lon="5.81567">
        <ele>303.4</ele>
        <time>2021-04-10T07:00:14Z</time>
      </trkpt>
      <trkpt lat="45.18776" lon="5.81568">
        <ele>303.6</ele>
        <time>2021-04-10T07:00:15Z</time>
      </trkpt>
      <trkpt lat="45.18776" lon="5.8157">
        <ele>303.8</ele>
        <time>2021-04-10T07:00:16Z</time>
      </trkpt>
      <trkpt lat="45.18776" lon="5.81571">
        <ele>304</ele>
        <time>2021-04-10T07:00:17Z</time>
      </trkpt>
      <trkpt lat="45.18776" lon="5.81573">
        <ele>304.2</ele>
        <time>2021-04-10T07:00:18Z</time>
      </trkpt>
      <trkpt lat="45.18776" lon="5.81574">
        <ele>304.2</ele>
        <time>2021-04-10T07:00:19Z</time>
      </trkpt>
      <trkpt lat="45.18776" lon="5.81576">
        <ele>304.4</ele>
        <time>2021-04-10T07:00:20Z</time>
      </trkpt>
      <trkpt lat="45.18776" lon="5.81578">
        <ele>304.6</ele>
        <time>2021-04-10T07:00:21Z</time>
      </trkpt>
      <trkpt lat="45.18776" lon="5.81579">
        <ele>305</ele>
        <time>2021-04-10T07:00:23Z</time>
      </trkpt>
      <trkpt lat="45.18776" lon="5.81581">
        <ele>305.2</ele>
        <time>2021-04-10T07:00:24Z</time>
      </trkpt>
      <trkpt lat="45.18775" lon="5.81584">
        <ele>305.4</ele>
        <time>2021-04-10T07:00:25Z</time>
      </trkpt>
      <trkpt lat="45.18774" lon="5.81587">
        <ele>305.8</ele>
        <time>2021-04-10T07:00:26Z</time>
      </trkpt>
      <trkpt lat="45.18773" lon="5.81591">
        <ele>305.8</ele>
        <time>2021-04-10T07:00:27Z</time>
      </trkpt>
      <trkpt lat="45.18772" lon="5.81594">
        <ele>306.2</ele>
        <time>2021-04-10T07:00:28Z</time>
      </trkpt>
      <trkpt lat="45.18771" lon="5.81598">
        <ele>306.6</ele>
        <time>2021-04-10T07:00:29Z</time>
      </trkpt>
      <trkpt lat="45.1877" lon="5.81602">
        <ele>306.8</ele>
        <time>2021-04-10T07:00:30Z</time>
      </trkpt>
      <trkpt lat="45.1877" lon="5.81606">
        <ele>307</ele>
        <time>2021-04-10T07:00:31Z</time>
      </trkpt>
      <trkpt lat="45.18769" lon="5.8161">
        <ele>307.4</ele>
        <time>2021-04-10T07:00:32Z</time>
      </trkpt>
      <trkpt lat="45.18769" lon="5.81614">
        <ele>307.6</ele>
        <time>2021-04-10T07:00:33Z</time>
      </trkpt>
      <trkpt lat="45.18768" lon="5.81618">
        <ele>307.8</ele>
        <time>2021-04-10T07:00:34Z</time>
      </trkpt>
      <trkpt lat="45.18768" lon="5.81623">
        <ele>308</ele>
        <time>2021-04-10T07:00:35Z</time>
      </trkpt>
      <trkpt lat="45.18767" lon="5.81629">
        <ele>308</ele>
        <time>2021-04-10T07:00:36Z</time>
      </trkpt>
      <trkpt lat="45.18767" lon="5.81629">
        <ele>308.2</ele>
        <time>2021-04-10T07:00:37Z</time>
      </trkpt>
      <trkpt lat="45.18767" lon="5.81629">
        <ele>308.4</ele>
        <time>2021-04-10T07:00:38Z</time>
      </trkpt>
      <trkpt lat="45.18767" lon="5.81631">
        <ele>308.4</ele>
        <time>2021-04-10T07:00:39Z</time>
      </trkpt>
      <trkpt lat="45.18767" lon="5.81632">
        <ele>308.6</ele>
        <time>2021-04-10T07:00:40Z</time>
      </trkpt>
      <trkpt lat="45.18767" lon="5.81634">
        <ele>308.6</ele>
        <time>2021-04-10T07:00:41Z</time>
      </trkpt>
      <trkpt lat="45.18766" lon="5.81635">
        <ele>309</ele>
        <time>2021-04-10T07:00:42Z</time>
      </trkpt>
      <trkpt lat="45.18766" lon="5.81636">
        <ele>309.2</ele>
        <time>2021-04-10T07:00:43Z</time>
      </trkpt>
      <trkpt lat="45.18766" lon="5.81638">
        <ele>309.4</ele>
        <time>2021-04-10T07:00:44Z</time>
      </trkpt>
      <trkpt lat="45.18766" lon="5.81639">
        <ele>309.6</ele>
        <time>2021-04-10T07:00:45Z</time>
      </trkpt>
      <trkpt lat="45.18766" lon="5.81641">
        <ele>310</ele>
        <time>2021-04-10T07:00:46Z</time>
      </trkpt>
      <trkpt lat="45.18765" lon="5.81642">
        <ele>310.2</ele>
        <time>2021-04-10T07:00:47Z</time>
      </trkpt>
      <trkpt lat="45.18765" lon="5.81644">
        <ele>310.6</ele>
        <time>2021-04-10T07:00:48Z</time>
      </trkpt>
      <trkpt lat="45.18765" lon="5.81646">
        <ele>310.6</ele>
        <time>2021-04-10T07:00:49Z</time>
      </trkpt>
      <trkpt lat="45.18764" lon="5.81648">
        <ele>311</ele>
        <time>2021-04-10T07:00:50Z</time>
      </trkpt>
      <trkpt lat="45.18764" lon="5.8165">
        <ele>311.2</ele>
        <time>2021-04-10T07:00:51Z</time>
      </trkpt>
      <trkpt lat="45.18763" lon="5.81653">
        <ele>311.4</ele>
        <time>2021-04-10T07:00:52Z</time>
      </trkpt>
      <trkpt lat="45.18763" lon="5.81655">
        <ele>311.8</ele>
        <time>2021-04-10T07:00:53Z</time>
      </trkpt>
      <trkpt lat="45.18762" lon="5.81657">
        <ele>311.8</ele>
        <time>2021-04-10T07:00:54Z</time>
      </trkpt>
      <trkpt lat="45.18762" lon="5.81659">
        <ele>312</ele>
        <time>2021-04-10T07:00:55Z</time>
      </trkpt>
      <trkpt lat="45.18761" lon="5.81661">
        <ele>312.4</ele>
        <time>2021-04-10T07:00:56Z</time>
      </trkpt>
      <trkpt lat="45.18761" lon="5.81662">
        <ele>312.6</ele>
        <time>2021-04-10T07:00:57Z</time>
      </trkpt>
      <trkpt lat="45.1876" lon="5.81664">
        <ele>312.8</ele>
        <time>2021-04-10T07:00:58Z</time>
      </trkpt>
      <trkpt lat="45.1876" lon="5.81666">
        <ele>313.2</ele>
        <time>2021-04-10T07:00:59Z</time>
      </trkpt>
      <trkpt lat="45.18759" lon="5.81668">
        <ele>313.4</ele>
        <time>2021-04-10T07:01:00Z</time>
      </trkpt>
      <trkpt lat="45.18758" lon="5.81669">
        <ele>313.6</ele>
        <time>2021-04-10T07:01:01Z</time>
      </trkpt>
      <trkpt lat="45.18758" lon="5.81671">
        <ele>314</ele>
        <time>2021-04-10T07:01:02Z</time>
      </trkpt>
      <trkpt lat="45.18758" lon="5.81672">
        <ele>314</ele>
        <time>2021-04-10T07:01:03Z</time>
      </trkpt>
      <trkpt lat="45.18758" lon="5.81674">
        <ele>314.2</ele>
        <time>2021-04-10T07:01:04Z</time>
      </trkpt>
      <trkpt lat="45.18757" lon="5.81675">
        <ele>314.4</ele>
        <time>2021-04-10T07:01:05Z</time>
      </trkpt>
      <trkpt lat="45.18757" lon="5.81676">
        <ele>314.4</ele>
        <time>2021-04-10T07:01:06Z</time>
      </trkpt>
      <trkpt lat="45.18757" lon="5.81678">
        <ele>314.6</ele>
        <time>2021-04-10T07:01:07Z</time>
      </trkpt>
      <trkpt lat="45.18757" lon="5.81679">
        <ele>314.6</ele>
        <time>2021-04-10T07:01:08Z</time>
      </trkpt>
      <trkpt lat="45.18756" lon="5.81681">
        <ele>314.8</ele>
        <time>2021-04-10T07:01:09Z</time>
      </trkpt>
      <trkpt lat="45.18756" lon="5.81682">
        <ele>315.2</ele>
        <time>2021-04-10T07:01:10Z</time>
      </trkpt>
      <trkpt lat="45.18755" lon="5.81685">
        <ele>315.4</ele>
        <time>2021-04-10T07:01:11Z</time>
      </trkpt>
      <trkpt lat="45.18754" lon="5.81687">
        <ele>315.8</ele>
        <time>2021-04-10T07:01:12Z</time>
      </trkpt>
      <trkpt lat="45.18754" lon="5.8169">
        <ele>316.2</ele>
        <time>2021-04-10T07:01:13Z</time>
      </trkpt>
      <trkpt lat="45.18753" lon="5.81693">
        <ele>316.4</ele>
        <time>2021-04-10T07:01:14Z</time>
      </trkpt>
      <trkpt lat="45.18752" lon="5.81695">
        <ele>316.6</ele>
        <time>2021-04-10T07:01:15Z</time>
      </trkpt>
      <trkpt lat="45.18751" lon="5.81698">
        <ele>316.8</ele>
        <time>2021-04-10T07:01:16Z</time>
      </trkpt>
      <trkpt lat="45.1875" lon="5.817">
        <ele>317</ele>
        <time>2021-04-10T07:01:17Z</time>
      </trkpt>
      <trkpt lat="45.1875" lon="5.81705">
        <ele>317</ele>
        <time>2021-04-10T07:01:18Z</time>
      </trkpt>
      <trkpt lat="45.18749" lon="5.81707">
        <ele>317.2</ele>
        <time>2021-04-10T07:01:19Z</time>
      </trkpt>
      <trkpt lat="45.18749" lon="5.8171">
        <ele>317.4</ele>
        <time>2021-04-10T07:01:20Z</time>
      </trkpt>
      <trkpt lat="45.18748" lon="5.81713">
        <ele>317.6</ele>
        <time>2021-04-10T07:01:21Z</time>
      </trkpt>
      <trkpt lat="45.18748" lon="5.81715">
        <ele>317.6</ele>
        <time>2021-04-10T07:01:22Z</time>
      </trkpt>
      <trkpt lat="45.18747" lon="5.81718">
        <ele>317.8</ele>
        <time>2021-04-10T07:01:23Z</time>
      </trkpt>
      <trkpt lat="45.18747" lon="5.8172">
        <ele>317.8</ele>
        <time>2021-04-10T07:01:24Z</time>
      </trkpt>
      <trkpt lat="45.18746" lon="5.81723">
        <ele>318.2</ele>
        <time>2021-04-10T07:01:25Z</time>
      </trkpt>
      <trkpt lat="45.18746" lon="5.81726">
        <ele>318.6</ele>
        <time>2021-04-10T07:01:26Z</time>
      </trkpt>
      <trkpt lat="45.18746" lon="5.81726">
        <ele>318.8</ele>
        <time>2021-04-10T07:01:27Z</time>
      </trkpt>
      <trkpt lat="45.18746" lon="5.81726">
        <ele>319</ele>
        <time>2021-04-10T07:01:28Z</time>
      </trkpt>
      <trkpt lat="45.18746" lon="5.81726">
        <ele>319.2</ele>
        <time>2021-04-10T07:01:29Z</time>
      </trkpt>
      <trkpt lat="45.18746" lon="5.81727">
        <ele>319.4</ele>
        <time>2021-04-10T07:01:30Z</time>
      </trkpt>
      <trkpt lat="45.18746" lon="5.81728">
        <ele>319.8</ele>
        <time>2021-04-10T07:01:31Z</time>
      </trkpt>
      <trkpt lat="45.18746" lon="5.81729">
        <ele>319.6</ele>
        <time>2021-04-10T07:01:32Z</time>
      </trkpt>
      <trkpt lat="45.18746" lon="5.81731">
        <ele>319.6</ele>
        <time>2021-04-10T07:01:33Z</time>
      </trkpt>
      <trkpt lat="45.18747" lon="5.81732">
        <ele>320</ele>
        <time>2021-04-10T07:01:34Z</time>
      </trkpt>
      <trkpt lat="45.18747" lon="5.81733">
        <ele>320.2</ele>
        <time>2021-04-10T07:01:35Z</time>
      </trkpt>
      <trkpt lat="45.18747" lon="5.81735">
        <ele>320.4</ele>
        <time>2021-04-10T07:01:36Z</time>
      </trkpt>
      <trkpt lat="45.18747" lon="5.81736">
        <ele>320.8</ele>
        <time>2021-04-10T07:01:37Z</time>
      </trkpt>
      <trkpt lat="45.18747" lon="5.81737">
        <ele>321</ele>
        <time>2021-04-10T07:01:38Z</time>
      </trkpt>
      <trkpt lat="45.18748" lon="5.81739">
        <ele>321.2</ele>
        <time>2021-04-10T07:01:39Z</time>
      </trkpt>
      <trkpt lat="45.18747" lon="5.8174">
        <ele>321.4</ele>
        <time>2021-04-10T07:01:40Z</time>
      </trkpt>
      <trkpt lat="45.18747" lon="5.81741">
        <ele>321.6</ele>
        <time>2021-04-10T07:01:41Z</time>
      </trkpt>
      <trkpt lat="45.18747" lon="5.81742">
        <ele>321.6</ele>
        <time>2021-04-10T07:01:42Z</time>
      </trkpt>
      <trkpt lat="45.18747" lon="5.81744">
        <ele>321.6</ele>
        <time>2021-04-10T07:01:43Z</time>
      </trkpt>
      <trkpt lat="45.18746" lon="5.81745">
        <ele>321.8</ele>
        <time>2021-04-10T07:01:44Z</time>
      </trkpt>
      <trkpt lat="45.18746" lon="5.81746">
        <ele>321.8</ele>
        <time>2021-04-10T07:01:45Z</time>
      </trkpt>
      <trkpt lat="45.18746" lon="5.81747">
        <ele>322</ele>
        <time>2021-04-10T07:01:46Z</time>
      </trkpt>
      <trkpt lat="45.18745" lon="5.81749">
        <ele>322.2</ele>
        <time>2021-04-10T07:01:47Z</time>
      </trkpt>
      <trkpt lat="45.18745" lon="5.8175">
        <ele>322.4</ele>
        <time>2021-04-10T07:01:48Z</time>
      </trkpt>
      <trkpt lat="45.18745" lon="5.81751">
        <ele>322.8</ele>
        <time>2021-04-10T07:01:49Z</time>
      </trkpt>
      <trkpt lat="45.18745" lon="5.81752">
        <ele>323</ele>
        <time>2021-04-10T07:01:50Z</time>
      </trkpt>
      <trkpt lat="45.18744" lon="5.81753">
        <ele>323.4</ele>
        <time>2021-04-10T07:01:51Z</time>
      </trkpt>
      <trkpt lat="45.18744" lon="5.81754">
        <ele>323.8</ele>
        <time>2021-04-10T07:01:52Z</time>
      </trkpt>
      <trkpt lat="45.18744" lon="5.81755">
        <ele>324</ele>
        <time>2021-04-10T07:01:53Z</time>
      </trkpt>
      <trkpt lat="45.18743" lon="5.81756">
        <ele>324</ele>
        <time>2021-04-10T07:01:54Z</time>
      </trkpt>
      <trkpt lat="45.18743" lon="5.81757">
        <ele>324.4</ele>
        <time>2021-04-10T07:01:55Z</time>
      </trkpt>
      <trkpt lat="45.18743" lon="5.81758">
        <ele>324.6</ele>
        <time>2021-04-10T07:01:56Z</time>
      </trkpt>
      <trkpt lat="45.18743" lon="5.81759">
        <ele>324.8</ele>
        <time>2021-04-10T07:01:57Z</time>
      </trkpt>
      <trkpt lat="45.18742" lon="5.8176">
        <ele>325</ele>
        <time>2021-04-10T07:01:58Z</time>
      </trkpt>
      <trkpt lat="45.18742" lon="5.81761">
        <ele>325</ele>
        <time>2021-04-10T07:01:59Z</time>
      </trkpt>
      <trkpt lat="45.18742" lon="5.81762">
        <ele>325.2</ele>
        <time>2021-04-10T07:02:00Z</time>
      </trkpt>
      <trkpt lat="45.18741" lon="5.81763">
        <ele>325.4</ele>
        <time>2021-04-10T07:02:01Z</time>
      </trkpt>
      <trkpt lat="45.18741" lon="5.81764">
        <ele>325.6</ele>
        <time>2021-04-10T07:02:02Z</time>
      </trkpt>
      <trkpt lat="45.18742" lon="5.81766">
        <ele>325.8</ele>
        <time>2021-04-10T07:02:03Z</time>
      </trkpt>
      <trkpt lat="45.18743" lon="5.81767">
        <ele>326</ele>
        <time>2021-04-10T07:02:04Z</time>
      </trkpt>
      <trkpt lat="45.18743" lon="5.81769">
        <ele>326</ele>
        <time>2021-04-10T07:02:05Z</time>
      </trkpt>
      <trkpt lat="45.18744" lon="5.8177">
        <ele>326.4</ele>
        <time>2021-04-10T07:02:06Z</time>
      </trkpt>
      <trkpt lat="45.18745" lon="5.81772">
        <ele>326.6</ele>
        <time>2021-04-10T07:02:07Z</time>
      </trkpt>
      <trkpt lat="45.18746" lon="5.81773">
        <ele>326.6</ele>
        <time>2021-04-10T07:02:08Z</time>
      </trkpt>
      <trkpt lat="45.18747" lon="5.81775">
        <ele>326.8</ele>
        <time>2021-04-10T07:02:09Z</time>
      </trkpt>
      <trkpt lat="45.18747" lon="5.81775">
        <ele>327</ele>
        <time>2021-04-10T07:02:10Z</time>
      </trkpt>
      <trkpt lat="45.18747" lon="5.81775">
        <ele>327.2</ele>
        <time>2021-04-10T07:02:11Z</time>
      </trkpt>
      <trkpt lat="45.18747" lon="5.81775">
        <ele>327.4</ele>
        <time>2021-04-10T07:02:12Z</time>
      </trkpt>
      <trkpt lat="45.18748" lon="5.81775">
        <ele>327.4</ele>
        <time>2021-04-10T07:02:13Z</time>
      </trkpt>
      <trkpt lat="45.18748" lon="5.81775">
        <ele>327.8</ele>
        <time>2021-04-10T07:02:14Z</time>
      </trkpt>
      <trkpt lat="45.18748" lon="5.81775">
        <ele>327.8</ele>
        <time>2021-04-10T07:02:15Z</time>
      </trkpt>
      <trkpt lat="45.18748" lon="5.81775">
        <ele>328</ele>
        <time>2021-04-10T07:02:16Z</time>
      </trkpt>
      <trkpt lat="45.18749" lon="5.81775">
        <ele>328</ele>
        <time>2021-04-10T07:02:17Z</time>
      </trkpt>
      <trkpt lat="45.18749" lon="5.81775">
        <ele>328.2</ele>
        <time>2021-04-10T07:02:18Z</time>
      </trkpt>
      <trkpt lat="45.18749" lon="5.81775">
        <ele>328.2</ele>
        <time>2021-04-10T07:02:19Z</time>
      </trkpt>
      <trkpt lat="45.18749" lon="5.81775">
        <ele>328.2</ele>
        <time>2021-04-10T07:02:20Z</time>
      </trkpt>
      <trkpt lat="45.1875" lon="5.81775">
        <ele>328.2</ele>
        <time>2021-04-10T07:02:21Z</time>
      </trkpt>
      <trkpt lat="45.1875" lon="5.81775">
        <ele>328.4</ele>
        <time>2021-04-10T07:02:22Z</time>
      </trkpt>
      <trkpt lat="45.1875" lon="5.81775">
        <ele>328.4</ele>
        <time>2021-04-10T07:02:23Z</time>
      </trkpt>
      <trkpt lat="45.1875" lon="5.81775">
        <ele>328.4</ele>
        <time>2021-04-10T07:02:24Z</time>
      </trkpt>
      <trkpt lat="45.18751" lon="5.81775">
        <ele>328.2</ele>
        <time>2021-04-10T07:02:25Z</time>
      </trkpt>
      <trkpt lat="45.18751" lon="5.81775">
        <ele>328.2</ele>
        <time>2021-04-10T07:02:26Z</time>
      </trkpt>
      <trkpt lat="45.18751" lon="5.81775">
        <ele>328.2</ele>
        <time>2021-04-10T07:02:27Z</time>
      </trkpt>
      <trkpt lat="45.18751" lon="5.81775">
        <ele>328.4</ele>
        <time>2021-04-10T07:02:28Z</time>
      </trkpt>
      <trkpt lat="45.18752" lon="5.81775">
        <ele>328.4</ele>
        <time>2021-04-10T07:02:29Z</time>
      </trkpt>
      <trkpt lat="45.18752" lon="5.81775">
        <ele>328.4</ele>
        <time>2021-04-10T07:02:30Z</time>
      </trkpt>
      <trkpt lat="45.18752" lon="5.81775">
        <ele>328.2</ele>
        <time>2021-04-10T07:02:31Z</time>
      </trkpt>
      <trkpt lat="45.18752" lon="5.81775">
        <ele>328.2</ele>
        <time>2021-04-10T07:02:32Z</time>
      </trkpt>
      <trkpt lat="45.18753" lon="5.81775">
        <ele>328.2</ele>
        <time>2021-04-10T07:02:33Z</time>
      </trkpt>
      <trkpt lat="45.18753" lon="5.81775">
        <ele>328.2</ele>
        <time>2021-04-10T07:02:34Z</time>
      </trkpt>
      <trkpt lat="45.18753" lon="5.81775">
        <ele>328.2</ele>
        <time>2021-04-10T07:02:35Z</time>
      </trkpt>
      <trkpt lat="45.18753" lon="5.81776">
        <ele>328</ele>
        <time>2021-04-10T07:02:36Z</time>
      </trkpt>
      <trkpt lat="45.18754" lon="5.81776">
        <ele>328</ele>
        <time>2021-04-10T07:02:37Z</time>
      </trkpt>
      <trkpt lat="45.18754" lon="5.81776">
        <ele>328</ele>
        <time>2021-04-10T07:02:38Z</time>
      </trkpt>
      <trkpt lat="45.18754" lon="5.81776">
        <ele>327.8</ele>
        <time>2021-04-10T07:02:39Z</time>
      </trkpt>
      <trkpt lat="45.18754" lon="5.81776">
        <ele>327.6</ele>
        <time>2021-04-10T07:02:40Z</time>
      </trkpt>
      <trkpt lat="45.18755" lon="5.81776">
        <ele>327.6</ele>
        <time>2021-04-10T07:02:41Z</time>
      </trkpt>
      <trkpt lat="45.18755" lon="5.81776">
        <ele>327.6</ele>
        <time>2021-04-10T07:02:42Z</time>
      </trkpt>
      <trkpt lat="45.18755" lon="5.81776">
        <ele>327.6</ele>
        <time>2021-04-10T07:02:43Z</time>
      </trkpt>
      <trkpt lat="45.18755" lon="5.81776">
        <ele>327.6</ele>
        <time>2021-04-10T07:02:44Z</time>
      </trkpt>
      <trkpt lat="45.18756" lon="5.81776">
        <ele>327.6</ele>
        <time>2021-04-10T07:02:45Z</time>
      </trkpt>
      <trkpt lat="45.18756" lon="5.81776">
        <ele>327.6</ele>
        <time>2021-04-10T07:02:46Z</time>
      </trkpt>
      <trkpt lat="45.18756" lon="5.81776">
        <ele>327.6</ele>
        <time>2021-04-10T07:02:47Z</time>
      </trkpt>
      <trkpt lat="45.18756" lon="5.81776">
        <ele>327.6</ele>
        <time>2021-04-10T07:02:48Z</time>
      </trkpt>
      <trkpt lat="45.18757" lon="5.81776">
        <ele>327.6</ele>
        <time>2021-04-10T07:02:49Z</time>
      </trkpt>
      <trkpt lat="45.18757" lon="5.81776">
        <ele>327.4</ele>
        <time>2021-04-10T07:02:50Z</time>
      </trkpt>
      <trkpt lat="45.18757" lon="5.81776">
        <ele>327.6</ele>
        <time>2021-04-10T07:02:51Z</time>
      </trkpt>
      <trkpt lat="45.18757" lon="5.81776">
        <ele>327.4</ele>
        <time>2021-04-10T07:02:52Z</time>
      </trkpt>
      <trkpt lat="45.18757" lon="5.81775">
        <ele>327.4</ele>
        <time>2021-04-10T07:02:53Z</time>
      </trkpt>
      <trkpt lat="45.18758" lon="5.81774">
        <ele>327.4</ele>
        <time>2021-04-10T07:02:54Z</time>
      </trkpt>
      <trkpt lat="45.18758" lon="5.81774">
        <ele>327.4</ele>
        <time>2021-04-10T07:02:55Z</time>
      </trkpt>
      <trkpt lat="45.18758" lon="5.81773">
        <ele>327.2</ele>
        <time>2021-04-10T07:02:56Z</time>
      </trkpt>
      <trkpt lat="45.18758" lon="5.81773">
        <ele>327.4</ele>
        <time>2021-04-10T07:02:57Z</time>
      </trkpt>
      <trkpt lat="45.18758" lon="5.81772">
        <ele>327.4</ele>
        <time>2021-04-10T07:02:58Z</time>
      </trkpt>
      <trkpt lat="45.18758" lon="5.81772">
        <ele>327.6</ele>
        <time>2021-04-10T07:02:59Z</time>
      </trkpt>
      <trkpt lat="45.18758" lon="5.81771">
        <ele>327.6</ele>
        <time>2021-04-10T07:03:00Z</time>
      </trkpt>
      <trkpt lat="45.18758" lon="5.81771">
        <ele>327.6</ele>
        <time>2021-04-10T07:03:01Z</time>
      </trkpt>
      <trkpt lat="45.18759" lon="5.8177">
        <ele>327.4</ele>
        <time>2021-04-10T07:03:02Z</time>
      </trkpt>
      <trkpt lat="45.18759" lon="5.8177">
        <ele>327.2</ele>
        <time>2021-04-10T07:03:03Z</time>
      </trkpt>
      <trkpt lat="45.18759" lon="5.81769">
        <ele>327.2</ele>
        <time>2021-04-10T07:03:04Z</time>
      </trkpt>
      <trkpt lat="45.18759" lon="5.81768">
        <ele>327.2</ele>
        <time>2021-04-10T07:03:05Z</time>
      </trkpt>
      <trkpt lat="45.18759" lon="5.81768">
        <ele>327.2</ele>
        <time>2021-04-10T07:03:06Z</time>
      </trkpt>
      <trkpt lat="45.18759" lon="5.81767">
        <ele>327.2</ele>
        <time>2021-04-10T07:03:07Z</time>
      </trkpt>
      <trkpt lat="45.18759" lon="5.81767">
        <ele>327.2</ele>
        <time>2021-04-10T07:03:08Z</time>
      </trkpt>
      <trkpt lat="45.18759" lon="5.81766">
        <ele>327.2</ele>
        <time>2021-04-10T07:03:09Z</time>
      </trkpt>
      <trkpt lat="45.1876" lon="5.81766">
        <ele>327.2</ele>
        <time>2021-04-10T07:03:10Z</time>
      </trkpt>
      <trkpt lat="45.1876" lon="5.81765">
        <ele>327</ele>
        <time>2021-04-10T07:03:11Z</time>
      </trkpt>
      <trkpt lat="45.1876" lon="5.81765">
        <ele>327</ele>
        <time>2021-04-10T07:03:12Z</time>
      </trkpt>
      <trkpt lat="45.1876" lon="5.81764">
        <ele>327</ele>
        <time>2021-04-10T07:03:13Z</time>
      </trkpt>
      <trkpt lat="45.1876" lon="5.81763">
        <ele>327</ele>
        <time>2021-04-10T07:03:14Z</time>
      </trkpt>
      <trkpt lat="45.1876" lon="5.81763">
        <ele>327</ele>
        <time>2021-04-10T07:03:15Z</time>
      </trkpt>
      <trkpt lat="45.18763" lon="5.81764">
        <ele>327</ele>
        <time>2021-04-10T07:03:16Z</time>
      </trkpt>
      <trkpt lat="45.18765" lon="5.81766">
        <ele>327</ele>
        <time>2021-04-10T07:03:17Z</time>
      </trkpt>
      <trkpt lat="45.18767" lon="5.81767">
        <ele>326.8</ele>
        <time>2021-04-10T07:03:18Z</time>
      </trkpt>
      <trkpt lat="45.1877" lon="5.81769">
        <ele>326.6</ele>
        <time>2021-04-10T07:03:19Z</time>
      </trkpt>
      <trkpt lat="45.18772" lon="5.81771">
        <ele>326.6</ele>
        <time>2021-04-10T07:03:20Z</time>
      </trkpt>
      <trkpt lat="45.18774" lon="5.81772">
        <ele>327</ele>
        <time>2021-04-10T07:03:21Z</time>
      </trkpt>
      <trkpt lat="45.18777" lon="5.81774">
        <ele>327</ele>
        <time>2021-04-10T07:03:22Z</time>
      </trkpt>
      <trkpt lat="45.18779" lon="5.81775">
        <ele>327.4</ele>
        <time>2021-04-10T07:03:23Z</time>
      </trkpt>
      <trkpt lat="45.1878" lon="5.81776">
        <ele>327.4</ele>
        <time>2021-04-10T07:03:24Z</time>
      </trkpt>
      <trkpt lat="45.18782" lon="5.81777">
        <ele>327.6</ele>
        <time>2021-04-10T07:03:25Z</time>
      </trkpt>
      <trkpt lat="45.18784" lon="5.81778">
        <ele>327.6</ele>
        <time>2021-04-10T07:03:26Z</time>
      </trkpt>
      <trkpt lat="45.18786" lon="5.81779">
        <ele>327.8</ele>
        <time>2021-04-10T07:03:27Z</time>
      </trkpt>
      <trkpt lat="45.18786" lon="5.81779">
        <ele>328.2</ele>
        <time>2021-04-10T07:03:28Z</time>
      </trkpt>
      <trkpt lat="45.18786" lon="5.81779">
        <ele>328.2</ele>
        <time>2021-04-10T07:03:29Z</time>
      </trkpt>
      <trkpt lat="45.18786" lon="5.81779">
        <ele>327.8</ele>
        <time>2021-04-10T07:03:30Z</time>
      </trkpt>
      <trkpt lat="45.18786" lon="5.81779">
        <ele>327.8</ele>
        <time>2021-04-10T07:03:31Z</time>
      </trkpt>
      <trkpt lat="45.18787" lon="5.8178">
        <ele>327.8</ele>
        <time>2021-04-10T07:03:32Z</time>
      </trkpt>
      <trkpt lat="45.18788" lon="5.81781">
        <ele>328.2</ele>
        <time>2021-04-10T07:03:33Z</time>
      </trkpt>
      <trkpt lat="45.1879" lon="5.81782">
        <ele>328</ele>
        <time>2021-04-10T07:03:34Z</time>
      </trkpt>
      <trkpt lat="45.18791" lon="5.81783">
        <ele>328</ele>
        <time>2021-04-10T07:03:35Z</time>
      </trkpt>
      <trkpt lat="45.18792" lon="5.81785">
        <ele>328.2</ele>
        <time>2021-04-10T07:03:36Z</time>
      </trkpt>
      <trkpt lat="45.18793" lon="5.81786">
        <ele>328.2</ele>
        <time>2021-04-10T07:03:37Z</time>
      </trkpt>
      <trkpt lat="45.18795" lon="5.81787">
        <ele>328</ele>
        <time>2021-04-10T07:03:38Z</time>
      </trkpt>
      <trkpt lat="45.18797" lon="5.8179">
        <ele>327.4</ele>
        <time>2021-04-10T07:03:39Z</time>
      </trkpt>
      <trkpt lat="45.188" lon="5.81793">
        <ele>326.4</ele>
        <time>2021-04-10T07:03:40Z</time>
      </trkpt>
      <trkpt lat="45.18802" lon="5.81796">
        <ele>326</ele>
        <time>2021-04-10T07:03:41Z</time>
      </trkpt>
      <trkpt lat="45.18805" lon="5.81798">
        <ele>326</ele>
        <time>2021-04-10T07:03:42Z</time>
      </trkpt>
      <trkpt lat="45.18807" lon="5.81801">
        <ele>325.6</ele>
        <time>2021-04-10T07:03:43Z</time>
      </trkpt>
      <trkpt lat="45.18812" lon="5.81808">
        <ele>325.2</ele>
        <time>2021-04-10T07:03:44Z</time>
      </trkpt>
      <trkpt lat="45.18813" lon="5.81809">
        <ele>324.6</ele>
        <time>2021-04-10T07:03:45Z</time>
      </trkpt>
      <trkpt lat="45.18813" lon="5.8181">
        <ele>324.2</ele>
        <time>2021-04-10T07:03:46Z</time>
      </trkpt>
      <trkpt lat="45.18814" lon="5.81811">
        <ele>323.4</ele>
        <time>2021-04-10T07:03:47Z</time>
      </trkpt>
      <trkpt lat="45.18818" lon="5.81815">
        <ele>322.4</ele>
        <time>2021-04-10T07:03:48Z</time>
      </trkpt>
      <trkpt lat="45.18818" lon="5.81815">
        <ele>322.2</ele>
        <time>2021-04-10T07:03:49Z</time>
      </trkpt>
      <trkpt lat="45.18818" lon="5.81815">
        <ele>321.8</ele>
        <time>2021-04-10T07:03:50Z</time>
      </trkpt>
      <trkpt lat="45.18818" lon="5.81815">
        <ele>321.2</ele>
        <time>2021-04-10T07:03:51Z</time>
      </trkpt>
      <trkpt lat="45.18819" lon="5.81816">
        <ele>320.6</ele>
        <time>2021-04-10T07:03:52Z</time>
      </trkpt>
      <trkpt lat="45.1882" lon="5.81817">
        <ele>319.6</ele>
        <time>2021-04-10T07:03:53Z</time>
      </trkpt>
      <trkpt lat="45.18821" lon="5.81818">
        <ele>319.4</ele>
        <time>2021-04-10T07:03:54Z</time>
      </trkpt>
      <trkpt lat="45.18822" lon="5.8182">
        <ele>318.8</ele>
        <time>2021-04-10T07:03:55Z</time>
      </trkpt>
      <trkpt lat="45.18823" lon="5.81821">
        <ele>318.4</ele>
        <time>2021-04-10T07:03:56Z</time>
      </trkpt>
      <trkpt lat="45.18824" lon="5.81822">
        <ele>317.8</ele>
        <time>2021-04-10T07:03:57Z</time>
      </trkpt>
      <trkpt lat="45.18825" lon="5.81823">
        <ele>317.2</ele>
        <time>2021-04-10T07:03:58Z</time>
      </trkpt>
      <trkpt lat="45.18829" lon="5.81823">
        <ele>316.4</ele>
        <time>2021-04-10T07:03:59Z</time>
      </trkpt>
      <trkpt lat="45.18834" lon="5.81824">
        <ele>315.8</ele>
        <time>2021-04-10T07:04:00Z</time>
      </trkpt>
      <trkpt lat="45.18838" lon="5.81824">
        <ele>315</ele>
        <time>2021-04-10T07:04:01Z</time>
      </trkpt>
      <trkpt lat="45.18843" lon="5.81825">
        <ele>314.2</ele>
        <time>2021-04-10T07:04:02Z</time>
      </trkpt>
      <trkpt lat="45.18847" lon="5.81825">
        <ele>313.2</ele>
        <time>2021-04-10T07:04:03Z</time>
      </trkpt>
      <trkpt lat="45.1885" lon="5.81824">
        <ele>312.2</ele>
        <time>2021-04-10T07:04:04Z</time>
      </trkpt>
      <trkpt lat="45.18852" lon="5.81824">
        <ele>311.2</ele>
        <time>2021-04-10T07:04:05Z</time>
      </trkpt>
      <trkpt lat="45.18855" lon="5.81823">
        <ele>310</ele>
        <time>2021-04-10T07:04:06Z</time>
      </trkpt>
      <trkpt lat="45.18857" lon="5.81823">
        <ele>310</ele>
        <time>2021-04-10T07:04:07Z</time>
      </trkpt>
      <trkpt lat="45.18859" lon="5.81822">
        <ele>309.4</ele>
        <time>2021-04-10T07:04:08Z</time>
      </trkpt>
      <trkpt lat="45.18862" lon="5.81824">
        <ele>309</ele>
        <time>2021-04-10T07:04:09Z</time>
      </trkpt>
      <trkpt lat="45.18865" lon="5.81824">
        <ele>308.6</ele>
        <time>2021-04-10T07:04:10Z</time>
      </trkpt>
      <trkpt lat="45.18867" lon="5.81825">
        <ele>308</ele>
        <time>2021-04-10T07:04:11Z</time>
      </trkpt>
      <trkpt lat="45.18869" lon="5.81826">
        <ele>306.6</ele>
        <time>2021-04-10T07:04:12Z</time>
      </trkpt>
      <trkpt lat="45.18869" lon="5.81826">
        <ele>305.6</ele>
        <time>2021-04-10T07:04:13Z</time>
      </trkpt>
      <trkpt lat="45.18869" lon="5.81826">
        <ele>304.8</ele>
        <time>2021-04-10T07:04:14Z</time>
      </trkpt>
      <trkpt lat="45.18869" lon="5.81826">
        <ele>304.4</ele>
        <time>2021-04-10T07:04:15Z</time>
      </trkpt>
      <trkpt lat="45.18871" lon="5.81825">
        <ele>303.8</ele>
        <time>2021-04-10T07:04:16Z</time>
      </trkpt>
      <trkpt lat="45.18873" lon="5.81824">
        <ele>303.4</ele>
        <time>2021-04-10T07:04:17Z</time>
      </trkpt>
      <trkpt lat="45.18875" lon="5.81823">
        <ele>302.6</ele>
        <time>2021-04-10T07:04:18Z</time>
      </trkpt>
      <trkpt lat="45.18877" lon="5.81821">
        <ele>302.2</ele>
        <time>2021-04-10T07:04:19Z</time>
      </trkpt>
      <trkpt lat="45.18879" lon="5.8182">
        <ele>301.4</ele>
        <time>2021-04-10T07:04:20Z</time>
      </trkpt>
      <trkpt lat="45.18881" lon="5.81819">
        <ele>301</ele>
        <time>2021-04-10T07:04:21Z</time>
      </trkpt>
      <trkpt lat="45.18887" lon="5.81826">
        <ele>300.2</ele>
        <time>2021-04-10T07:04:22Z</time>
      </trkpt>
      <trkpt lat="45.18888" lon="5.81829">
        <ele>299</ele>
        <time>2021-04-10T07:04:23Z</time>
      </trkpt>
      <trkpt lat="45.1889" lon="5.81833">
        <ele>298</ele>
        <time>2021-04-10T07:04:24Z</time>
      </trkpt>
      <trkpt lat="45.18891" lon="5.81836">
        <ele>297.4</ele>
        <time>2021-04-10T07:04:25Z</time>
      </trkpt>
      <trkpt lat="45.18892" lon="5.81838">
        <ele>296.8</ele>
        <time>2021-04-10T07:04:26Z</time>
      </trkpt>
      <trkpt lat="45.18894" lon="5.81839">
        <ele>295.8</ele>
        <time>2021-04-10T07:04:27Z</time>
      </trkpt>
      <trkpt lat="45.18896" lon="5.81841">
        <ele>294.8</ele>
        <time>2021-04-10T07:04:28Z</time>
      </trkpt>
      <trkpt lat="45.189" lon="5.81845">
        <ele>293.8</ele>
        <time>2021-04-10T07:04:29Z</time>
      </trkpt>
      <trkpt lat="45.18905" lon="5.81849">
        <ele>292.6</ele>
        <time>2021-04-10T07:04:30Z</time>
      </trkpt>
      <trkpt lat="45.1891" lon="5.81854">
        <ele>292</ele>
        <time>2021-04-10T07:04:31Z</time>
      </trkpt>
      <trkpt lat="45.18914" lon="5.81858">
        <ele>291.4</ele>
        <time>2021-04-10T07:04:32Z</time>
      </trkpt>
      <trkpt lat="45.18916" lon="5.81859">
        <ele>290.8</ele>
        <time>2021-04-10T07:04:33Z</time>
      </trkpt>
      <trkpt lat="45.18919" lon="5.81861">
        <ele>290.2</ele>
        <time>2021-04-10T07:04:34Z</time>
      </trkpt>
      <trkpt lat="45.18926" lon="5.81864">
        <ele>289.4</ele>
        <time>2021-04-10T07:04:35Z</time>
      </trkpt>
      <trkpt lat="45.18929" lon="5.81864">
        <ele>288.6</ele>
        <time>2021-04-10T07:04:36Z</time>
      </trkpt>
      <trkpt lat="45.18931" lon="5.81864">
        <ele>287.6</ele>
        <time>2021-04-10T07:04:37Z</time>
      </trkpt>
      <trkpt lat="45.18934" lon="5.81864">
        <ele>287</ele>
        <time>2021-04-10T07:04:38Z</time>
      </trkpt>
      <trkpt lat="45.18937" lon="5.81865">
        <ele>285.8</ele>
        <time>2021-04-10T07:04:39Z</time>
      </trkpt>
      <trkpt lat="45.1894" lon="5.81866">
        <ele>285.4</ele>
        <time>2021-04-10T07:04:40Z</time>
      </trkpt>
      <trkpt lat="45.18942" lon="5.81867">
        <ele>285</ele>
        <time>2021-04-10T07:04:41Z</time>
      </trkpt>
      <trkpt lat="45.18944" lon="5.81868">
        <ele>284.6</ele>
        <time>2021-04-10T07:04:42Z</time>
      </trkpt>
      <trkpt lat="45.18946" lon="5.81868">
        <ele>284</ele>
        <time>2021-04-10T07:04:43Z</time>
      </trkpt>
      <trkpt lat="45.18948" lon="5.8187">
        <ele>283.6</ele>
        <time>2021-04-10T07:04:44Z</time>
      </trkpt>
      <trkpt lat="45.18951" lon="5.81872">
        <ele>282.8</ele>
        <time>2021-04-10T07:04:45Z</time>
      </trkpt>
      <trkpt lat="45.18953" lon="5.81873">
        <ele>282.4</ele>
        <time>2021-04-10T07:04:46Z</time>
      </trkpt>
      <trkpt lat="45.18954" lon="5.81874">
        <ele>281.6</ele>
        <time>2021-04-10T07:04:47Z</time>
      </trkpt>
      <trkpt lat="45.18956" lon="5.81874">
        <ele>280.8</ele>
        <time>2021-04-10T07:04:48Z</time>
      </trkpt>
      <trkpt lat="45.18957" lon="5.81875">
        <ele>280</ele>
        <time>2021-04-10T07:04:49Z</time>
      </trkpt>
      <trkpt lat="45.18958" lon="5.81875">
        <ele>279.2</ele>
        <time>2021-04-10T07:04:50Z</time>
      </trkpt>
      <trkpt lat="45.1896" lon="5.81876">
        <ele>278.8</ele>
        <time>2021-04-10T07:04:51Z</time>
      </trkpt>
      <trkpt lat="45.18967" lon="5.81878">
        <ele>278.4</ele>
        <time>2021-04-10T07:04:52Z</time>
      </trkpt>
      <trkpt lat="45.18971" lon="5.81881">
        <ele>278</ele>
        <time>2021-04-10T07:04:53Z</time>
      </trkpt>
      <trkpt lat="45.18974" lon="5.81882">
        <ele>276.8</ele>
        <time>2021-04-10T07:04:54Z</time>
      </trkpt>
      <trkpt lat="45.18977" lon="5.81884">
        <ele>276.4</ele>
        <time>2021-04-10T07:04:55Z</time>
      </trkpt>
      <trkpt lat="45.1898" lon="5.81888">
        <ele>275.8</ele>
        <time>2021-04-10T07:04:56Z</time>
      </trkpt>
      <trkpt lat="45.18983" lon="5.81891">
        <ele>275.4</ele>
        <time>2021-04-10T07:04:57Z</time>
      </trkpt>
      <trkpt lat="45.18985" lon="5.81894">
        <ele>274.6</ele>
        <time>2021-04-10T07:04:58Z</time>
      </trkpt>
      <trkpt lat="45.18987" lon="5.81895">
        <ele>274.2</ele>
        <time>2021-04-10T07:04:59Z</time>
      </trkpt>
      <trkpt lat="45.18988" lon="5.81897">
        <ele>273.6</ele>
        <time>2021-04-10T07:05:00Z</time>
      </trkpt>
      <trkpt lat="45.1899" lon="5.81899">
        <ele>273</ele>
        <time>2021-04-10T07:05:01Z</time>
      </trkpt>
      <trkpt lat="45.18992" lon="5.81901">
        <ele>272.2</ele>
        <time>2021-04-10T07:05:02Z</time>
      </trkpt>
      <trkpt lat="45.18994" lon="5.81903">
        <ele>271.6</ele>
        <time>2021-04-10T07:05:03Z</time>
      </trkpt>
      <trkpt lat="45.18995" lon="5.81905">
        <ele>270.8</ele>
        <time>2021-04-10T07:05:04Z</time>
      </trkpt>
      <trkpt lat="45.18997" lon="5.81907">
        <ele>270.4</ele>
        <time>2021-04-10T07:05:05Z</time>
      </trkpt>
      <trkpt lat="45.19" lon="5.81909">
        <ele>269.6</ele>
        <time>2021-04-10T07:05:06Z</time>
      </trkpt>
      <trkpt lat="45.19002" lon="5.81912">
        <ele>269</ele>
        <time>2021-04-10T07:05:07Z</time>
      </trkpt>
      <trkpt lat="45.19005" lon="5.81914">
        <ele>268.4</ele>
        <time>2021-04-10T07:05:08Z</time>
      </trkpt>
      <trkpt lat="45.19006" lon="5.81915">
        <ele>267.4</ele>
        <time>2021-04-10T07:05:09Z</time>
      </trkpt>
      <trkpt lat="45.19007" lon="5.81916">
        <ele>266.8</ele>
        <time>2021-04-10T07:05:10Z</time>
      </trkpt>
      <trkpt lat="45.19008" lon="5.81917">
        <ele>265.8</ele>
        <time>2021-04-10T07:05:11Z</time>
      </trkpt>
      <trkpt lat="45.1901" lon="5.81918">
        <ele>265.2</ele>
        <time>2021-04-10T07:05:12Z</time>
      </trkpt>
      <trkpt lat="45.19014" lon="5.81922">
        <ele>264.6</ele>
        <time>2021-04-10T07:05:13Z</time>
      </trkpt>
      <trkpt lat="45.19016" lon="5.81921">
        <ele>264</ele>
        <time>2021-04-10T07:05:14Z</time>
      </trkpt>
      <trkpt lat="45.19018" lon="5.81921">
        <ele>263.4</ele>
        <time>2021-04-10T07:05:15Z</time>
      </trkpt>
      <trkpt lat="45.1902" lon="5.8192">
        <ele>262.6</ele>
        <time>2021-04-10T07:05:16Z</time>
      </trkpt>
      <trkpt lat="45.19026" lon="5.81919">
        <ele>262.4</ele>
        <time>2021-04-10T07:05:17Z</time>
      </trkpt>
      <trkpt lat="45.19029" lon="5.81916">
        <ele>261.8</ele>
        <time>2021-04-10T07:05:18Z</time>
      </trkpt>
      <trkpt lat="45.19031" lon="5.81915">
        <ele>261.2</ele>
        <time>2021-04-10T07:05:19Z</time>
      </trkpt>
      <trkpt lat="45.19033" lon="5.81913">
        <ele>260.4</ele>
        <time>2021-04-10T07:05:20Z</time>
      </trkpt>
      <trkpt lat="45.19034" lon="5.81914">
        <ele>259.6</ele>
        <time>2021-04-10T07:05:21Z</time>
      </trkpt>
      <trkpt lat="45.19036" lon="5.81915">
        <ele>259</ele>
        <time>2021-04-10T07:05:22Z</time>
      </trkpt>
      <trkpt lat="45.19037" lon="5.81916">
        <ele>258</ele>
        <time>2021-04-10T07:05:23Z</time>
      </trkpt>
      <trkpt lat="45.19038" lon="5.81917">
        <ele>257.8</ele>
        <time>2021-04-10T07:05:24Z</time>
      </trkpt>
      <trkpt lat="45.19039" lon="5.81918">
        <ele>257.6</ele>
        <time>2021-04-10T07:05:25Z</time>
      </trkpt>
      <trkpt lat="45.1904" lon="5.81919">
        <ele>257.4</ele>
        <time>2021-04-10T07:05:26Z</time>
      </trkpt>
      <trkpt lat="45.19042" lon="5.81919">
        <ele>256.8</ele>
        <time>2021-04-10T07:05:27Z</time>
      </trkpt>
      <trkpt lat="45.19043" lon="5.8192">
        <ele>256.6</ele>
        <time>2021-04-10T07:05:28Z</time>
      </trkpt>
      <trkpt lat="45.19044" lon="5.81921">
        <ele>256</ele>
        <time>2021-04-10T07:05:29Z</time>
      </trkpt>
      <trkpt lat="45.19045" lon="5.81922">
        <ele>256</ele>
        <time>2021-04-10T07:05:30Z</time>
      </trkpt>
      <trkpt lat="45.19045" lon="5.81922">
        <ele>255.8</ele>
        <time>2021-04-10T07:05:31Z</time>
      </trkpt>
      <trkpt lat="45.19045" lon="5.81922">
        <ele>256</ele>
        <time>2021-04-10T07:05:32Z</time>
      </trkpt>
      <trkpt lat="45.19045" lon="5.81922">
        <ele>255.6</ele>
        <time>2021-04-10T07:05:33Z</time>
      </trkpt>
      <trkpt lat="45.19045" lon="5.81925">
        <ele>255.6</ele>
        <time>2021-04-10T07:05:34Z</time>
      </trkpt>
      <trkpt lat="45.19045" lon="5.81928">
        <ele>255.4</ele>
        <time>2021-04-10T07:05:35Z</time>
      </trkpt>
      <trkpt lat="45.19046" lon="5.81931">
        <ele>255.4</ele>
        <time>2021-04-10T07:05:36Z</time>
      </trkpt>
      <trkpt lat="45.19046" lon="5.81933">
        <ele>255.2</ele>
        <time>2021-04-10T07:05:37Z</time>
      </trkpt>
      <trkpt lat="45.19046" lon="5.81936">
        <ele>255.2</ele>
        <time>2021-04-10T07:05:38Z</time>
      </trkpt>
      <trkpt lat="45.19046" lon="5.8194">
        <ele>255.6</ele>
        <time>2021-04-10T07:05:39Z</time>
      </trkpt>
      <trkpt lat="45.19046" lon="5.81944">
        <ele>255.6</ele>
        <time>2021-04-10T07:05:40Z</time>
      </trkpt>
      <trkpt lat="45.19047" lon="5.81947">
        <ele>255.8</ele>
        <time>2021-04-10T07:05:41Z</time>
      </trkpt>
      <trkpt lat="45.19047" lon="5.81951">
        <ele>256</ele>
        <time>2021-04-10T07:05:42Z</time>
      </trkpt>
      <trkpt lat="45.19048" lon="5.81954">
        <ele>256.6</ele>
        <time>2021-04-10T07:05:43Z</time>
      </trkpt>
      <trkpt lat="45.19048" lon="5.81958">
        <ele>256.6</ele>
        <time>2021-04-10T07:05:44Z</time>
      </trkpt>
      <trkpt lat="45.19049" lon="5.81965">
        <ele>257</ele>
        <time>2021-04-10T07:05:45Z</time>
      </trkpt>
      <trkpt lat="45.19049" lon="5.81965">
        <ele>257</ele>
        <time>2021-04-10T07:05:46Z</time>
      </trkpt>
      <trkpt lat="45.19049" lon="5.81965">
        <ele>257.4</ele>
        <time>2021-04-10T07:05:47Z</time>
      </trkpt>
      <trkpt lat="45.19049" lon="5.81965">
        <ele>257.4</ele>
        <time>2021-04-10T07:05:48Z</time>
      </trkpt>
      <trkpt lat="45.19049" lon="5.81965">
        <ele>257.6</ele>
        <time>2021-04-10T07:05:49Z</time>
      </trkpt>
      <trkpt lat="45.19049" lon="5.81966">
        <ele>257.6</ele>
        <time>2021-04-10T07:05:50Z</time>
      </trkpt>
      <trkpt lat="45.19049" lon="5.81967">
        <ele>257.8</ele>
        <time>2021-04-10T07:05:51Z</time>
      </trkpt>
      <trkpt lat="45.19049" lon="5.81969">
        <ele>258.2</ele>
        <time>2021-04-10T07:05:52Z</time>
      </trkpt>
      <trkpt lat="45.19049" lon="5.8197">
        <ele>258.6</ele>
        <time>2021-04-10T07:05:53Z</time>
      </trkpt>
      <trkpt lat="45.19049" lon="5.81972">
        <ele>259</ele>
        <time>2021-04-10T07:05:54Z</time>
      </trkpt>
      <trkpt lat="45.19049" lon="5.81973">
        <ele>259.2</ele>
        <time>2021-04-10T07:05:55Z</time>
      </trkpt>
      <trkpt lat="45.19049" lon="5.81975">
        <ele>259.6</ele>
        <time>2021-04-10T07:05:56Z</time>
      </trkpt>
      <trkpt lat="45.19049" lon="5.81976">
        <ele>259.8</ele>
        <time>2021-04-10T07:05:57Z</time>
      </trkpt>
      <trkpt lat="45.19049" lon="5.81977">
        <ele>260</ele>
        <time>2021-04-10T07:05:58Z</time>
      </trkpt>
      <trkpt lat="45.19049" lon="5.81979">
        <ele>260.4</ele>
        <time>2021-04-10T07:05:59Z</time>
      </trkpt>
      <trkpt lat="45.19049" lon="5.81981">
        <ele>260.8</ele>
        <time>2021-04-10T07:06:00Z</time>
      </trkpt>
      <trkpt lat="45.19048" lon="5.81982">
        <ele>261.2</ele>
        <time>2021-04-10T07:06:01Z</time>
      </trkpt>
      <trkpt lat="45.19048" lon="5.81984">
        <ele>261.4</ele>
        <time>2021-04-10T07:06:02Z</time>
      </trkpt>
      <trkpt lat="45.19048" lon="5.81985">
        <ele>261.6</ele>
        <time>2021-04-10T07:06:03Z</time>
      </trkpt>
      <trkpt lat="45.19048" lon="5.81987">
        <ele>261.6</ele>
        <time>2021-04-10T07:06:04Z</time>
      </trkpt>
      <trkpt lat="45.19047" lon="5.81989">
        <ele>262</ele>
        <time>2021-04-10T07:06:05Z</time>
      </trkpt>
      <trkpt lat="45.19047" lon="5.8199">
        <ele>262.4</ele>
        <time>2021-04-10T07:06:06Z</time>
      </trkpt>
      <trkpt lat="45.19047" lon="5.81992">
        <ele>262.6</ele>
        <time>2021-04-10T07:06:07Z</time>
      </trkpt>
      <trkpt lat="45.19047" lon="5.81994">
        <ele>263</ele>
        <time>2021-04-10T07:06:08Z</time>
      </trkpt>
      <trkpt lat="45.19046" lon="5.81996">
        <ele>263.2</ele>
        <time>2021-04-10T07:06:09Z</time>
      </trkpt>
      <trkpt lat="45.19046" lon="5.81998">
        <ele>263.6</ele>
        <time>2021-04-10T07:06:10Z</time>
      </trkpt>
      <trkpt lat="45.19046" lon="5.82">
        <ele>263.8</ele>
        <time>2021-04-10T07:06:11Z</time>
      </trkpt>
      <trkpt lat="45.19046" lon="5.82002">
        <ele>264</ele>
        <time>2021-04-10T07:06:12Z</time>
      </trkpt>
      <trkpt lat="45.19046" lon="5.82004">
        <ele>264</ele>
        <time>2021-04-10T07:06:13Z</time>
      </trkpt>
      <trkpt lat="45.19046" lon="5.82005">
        <ele>264.2</ele>
        <time>2021-04-10T07:06:14Z</time>
      </trkpt>
      <trkpt lat="45.19045" lon="5.82007">
        <ele>264.2</ele>
        <time>2021-04-10T07:06:15Z</time>
      </trkpt>
      <trkpt lat="45.19045" lon="5.82009">
        <ele>264.6</ele>
        <time>2021-04-10T07:06:16Z</time>
      </trkpt>
      <trkpt lat="45.19044" lon="5.8201">
        <ele>264.6</ele>
        <time>2021-04-10T07:06:17Z</time>
      </trkpt>
      <trkpt lat="45.19043" lon="5.82012">
        <ele>264.6</ele>
        <time>2021-04-10T07:06:18Z</time>
      </trkpt>
      <trkpt lat="45.19043" lon="5.82014">
        <ele>264.8</ele>
        <time>2021-04-10T07:06:19Z</time>
      </trkpt>
      <trkpt lat="45.19042" lon="5.82015">
        <ele>264.8</ele>
        <time>2021-04-10T07:06:20Z</time>
      </trkpt>
      <trkpt lat="45.19042" lon="5.82017">
        <ele>265</ele>
        <time>2021-04-10T07:06:21Z</time>
      </trkpt>
      <trkpt lat="45.19042" lon="5.82019">
        <ele>265.4</ele>
        <time>2021-04-10T07:06:22Z</time>
      </trkpt>
      <trkpt lat="45.19042" lon="5.82022">
        <ele>265.6</ele>
        <time>2021-04-10T07:06:23Z</time>
      </trkpt>
      <trkpt lat="45.19042" lon="5.82024">
        <ele>265.6</ele>
        <time>2021-04-10T07:06:24Z</time>
      </trkpt>
      <trkpt lat="45.19042" lon="5.82027">
        <ele>265.8</ele>
        <time>2021-04-10T07:06:25Z</time>
      </trkpt>
      <trkpt lat="45.19042" lon="5.8203">
        <ele>265.8</ele>
        <time>2021-04-10T07:06:26Z</time>
      </trkpt>
      <trkpt lat="45.19042" lon="5.82032">
        <ele>266.2</ele>
        <time>2021-04-10T07:06:27Z</time>
      </trkpt>
      <trkpt lat="45.19046" lon="5.82041">
        <ele>266.2</ele>
        <time>2021-04-10T07:06:28Z</time>
      </trkpt>
      <trkpt lat="45.1905" lon="5.82049">
        <ele>266.8</ele>
        <time>2021-04-10T07:06:29Z</time>
      </trkpt>
      <trkpt lat="45.19051" lon="5.82052">
        <ele>266.8</ele>
        <time>2021-04-10T07:06:30Z</time>
      </trkpt>
      <trkpt lat="45.19053" lon="5.82055">
        <ele>267.2</ele>
        <time>2021-04-10T07:06:31Z</time>
      </trkpt>
      <trkpt lat="45.19054" lon="5.82057">
        <ele>267.4</ele>
        <time>2021-04-10T07:06:32Z</time>
      </trkpt>
      <trkpt lat="45.19056" lon="5.82059">
        <ele>267.6</ele>
        <time>2021-04-10T07:06:33Z</time>
      </trkpt>
      <trkpt lat="45.19058" lon="5.82062">
        <ele>267.6</ele>
        <time>2021-04-10T07:06:34Z</time>
      </trkpt>
      <trkpt lat="45.1906" lon="5.82064">
        <ele>268</ele>
        <time>2021-04-10T07:06:35Z</time>
      </trkpt>
      <trkpt lat="45.19061" lon="5.82067">
        <ele>267.6</ele>
        <time>2021-04-10T07:06:36Z</time>
      </trkpt>
      <trkpt lat="45.19063" lon="5.82071">
        <ele>267.8</ele>
        <time>2021-04-10T07:06:37Z</time>
      </trkpt>
      <trkpt lat="45.19064" lon="5.82074">
        <ele>267.4</ele>
        <time>2021-04-10T07:06:38Z</time>
      </trkpt>
      <trkpt lat="45.19066" lon="5.82077">
        <ele>267.2</ele>
        <time>2021-04-10T07:06:39Z</time>
      </trkpt>
      <trkpt lat="45.19068" lon="5.82081">
        <ele>267</ele>
        <time>2021-04-10T07:06:40Z</time>
      </trkpt>
      <trkpt lat="45.1907" lon="5.82083">
        <ele>267</ele>
        <time>2021-04-10T07:06:41Z</time>
      </trkpt>
      <trkpt lat="45.19071" lon="5.82086">
        <ele>267.2</ele>
        <time>2021-04-10T07:06:42Z</time>
      </trkpt>
      <trkpt lat="45.19072" lon="5.82088">
        <ele>267.4</ele>
        <time>2021-04-10T07:06:43Z</time>
      </trkpt>
      <trkpt lat="45.19074" lon="5.8209">
        <ele>267.8</ele>
        <time>2021-04-10T07:06:44Z</time>
      </trkpt>
      <trkpt lat="45.19076" lon="5.82095">
        <ele>267.6</ele>
        <time>2021-04-10T07:06:45Z</time>
      </trkpt>
      <trkpt lat="45.19077" lon="5.82098">
        <ele>268</ele>
        <time>2021-04-10T07:06:46Z</time>
      </trkpt>
      <trkpt lat="45.19078" lon="5.821">
        <ele>267.8</ele>
        <time>2021-04-10T07:06:47Z</time>
      </trkpt>
      <trkpt lat="45.19079" lon="5.82103">
        <ele>267.8</ele>
        <time>2021-04-10T07:06:48Z</time>
      </trkpt>
      <trkpt lat="45.19079" lon="5.82108">
        <ele>267.6</ele>
        <time>2021-04-10T07:06:49Z</time>
      </trkpt>
      <trkpt lat="45.19079" lon="5.8211">
        <ele>267.4</ele>
        <time>2021-04-10T07:06:50Z</time>
      </trkpt>
      <trkpt lat="45.1908" lon="5.82113">
        <ele>267.6</ele>
        <time>2021-04-10T07:06:51Z</time>
      </trkpt>
      <trkpt lat="45.1908" lon="5.82116">
        <ele>267.6</ele>
        <time>2021-04-10T07:06:52Z</time>
      </trkpt>
      <trkpt lat="45.1908" lon="5.82118">
        <ele>268</ele>
        <time>2021-04-10T07:06:53Z</time>
      </trkpt>
      <trkpt lat="45.1908" lon="5.8212">
        <ele>268</ele>
        <time>2021-04-10T07:06:54Z</time>
      </trkpt>
      <trkpt lat="45.1908" lon="5.82121">
        <ele>268.4</ele>
        <time>2021-04-10T07:06:55Z</time>
      </trkpt>
      <trkpt lat="45.19079" lon="5.82123">
        <ele>268.2</ele>
        <time>2021-04-10T07:06:56Z</time>
      </trkpt>
      <trkpt lat="45.19079" lon="5.82131">
        <ele>268.6</ele>
        <time>2021-04-10T07:06:57Z</time>
      </trkpt>
      <trkpt lat="45.19079" lon="5.82131">
        <ele>268.8</ele>
        <time>2021-04-10T07:06:58Z</time>
      </trkpt>
      <trkpt lat="45.19079" lon="5.82131">
        <ele>268.8</ele>
        <time>2021-04-10T07:06:59Z</time>
      </trkpt>
      <trkpt lat="45.19079" lon="5.82131">
        <ele>268.6</ele>
        <time>2021-04-10T07:07:00Z</time>
      </trkpt>
      <trkpt lat="45.19079" lon="5.82133">
        <ele>269</ele>
        <time>2021-04-10T07:07:01Z</time>
      </trkpt>
      <trkpt lat="45.1908" lon="5.82135">
        <ele>269.2</ele>
        <time>2021-04-10T07:07:02Z</time>
      </trkpt>
      <trkpt lat="45.19081" lon="5.82137">
        <ele>269.4</ele>
        <time>2021-04-10T07:07:03Z</time>
      </trkpt>
      <trkpt lat="45.19081" lon="5.82139">
        <ele>269.4</ele>
        <time>2021-04-10T07:07:04Z</time>
      </trkpt>
      <trkpt lat="45.19082" lon="5.82141">
        <ele>269.4</ele>
        <time>2021-04-10T07:07:05Z</time>
      </trkpt>
      <trkpt lat="45.19083" lon="5.82143">
        <ele>269.6</ele>
        <time>2021-04-10T07:07:06Z</time>
      </trkpt>
      <trkpt lat="45.19081" lon="5.82145">
        <ele>269.8</ele>
        <time>2021-04-10T07:07:07Z</time>
      </trkpt>
      <trkpt lat="45.1908" lon="5.82148">
        <ele>270</ele>
        <time>2021-04-10T07:07:08Z</time>
      </trkpt>
      <trkpt lat="45.19079" lon="5.82151">
        <ele>270.2</ele>
        <time>2021-04-10T07:07:09Z</time>
      </trkpt>
      <trkpt lat="45.19078" lon="5.82153">
        <ele>270.2</ele>
        <time>2021-04-10T07:07:10Z</time>
      </trkpt>
      <trkpt lat="45.19077" lon="5.82156">
        <ele>270.4</ele>
        <time>2021-04-10T07:07:11Z</time>
      </trkpt>
      <trkpt lat="45.19075" lon="5.82158">
        <ele>270.6</ele>
        <time>2021-04-10T07:07:12Z</time>
      </trkpt>
      <trkpt lat="45.19074" lon="5.82161">
        <ele>270.6</ele>
        <time>2021-04-10T07:07:13Z</time>
      </trkpt>
      <trkpt lat="45.19073" lon="5.82163">
        <ele>270.8</ele>
        <time>2021-04-10T07:07:14Z</time>
      </trkpt>
      <trkpt lat="45.19072" lon="5.82166">
        <ele>271.2</ele>
        <time>2021-04-10T07:07:15Z</time>
      </trkpt>
      <trkpt lat="45.19068" lon="5.82173">
        <ele>271.2</ele>
        <time>2021-04-10T07:07:16Z</time>
      </trkpt>
      <trkpt lat="45.19068" lon="5.82173">
        <ele>271.2</ele>
        <time>2021-04-10T07:07:17Z</time>
      </trkpt>
      <trkpt lat="45.19068" lon="5.82173">
        <ele>271.2</ele>
        <time>2021-04-10T07:07:18Z</time>
      </trkpt>
      <trkpt lat="45.19068" lon="5.82176">
        <ele>271.2</ele>
        <time>2021-04-10T07:07:19Z</time>
      </trkpt>
      <trkpt lat="45.19068" lon="5.82179">
        <ele>271.6</ele>
        <time>2021-04-10T07:07:20Z</time>
      </trkpt>
      <trkpt lat="45.19068" lon="5.82181">
        <ele>271.8</ele>
        <time>2021-04-10T07:07:21Z</time>
      </trkpt>
      <trkpt lat="45.19068" lon="5.82184">
        <ele>272</ele>
        <time>2021-04-10T07:07:22Z</time>
      </trkpt>
      <trkpt lat="45.19068" lon="5.82187">
        <ele>272</ele>
        <time>2021-04-10T07:07:23Z</time>
      </trkpt>
      <trkpt lat="45.19068" lon="5.8219">
        <ele>272.2</ele>
        <time>2021-04-10T07:07:24Z</time>
      </trkpt>
      <trkpt lat="45.19069" lon="5.82192">
        <ele>272.2</ele>
        <time>2021-04-10T07:07:25Z</time>
      </trkpt>
      <trkpt lat="45.19069" lon="5.82194">
        <ele>272.2</ele>
        <time>2021-04-10T07:07:26Z</time>
      </trkpt>
      <trkpt lat="45.1907" lon="5.82196">
        <ele>272.2</ele>
        <time>2021-04-10T07:07:27Z</time>
      </trkpt>
      <trkpt lat="45.1907" lon="5.82198">
        <ele>272.4</ele>
        <time>2021-04-10T07:07:28Z</time>
      </trkpt>
      <trkpt lat="45.1907" lon="5.822">
        <ele>272.4</ele>
        <time>2021-04-10T07:07:29Z</time>
      </trkpt>
      <trkpt lat="45.19071" lon="5.82202">
        <ele>272.6</ele>
        <time>2021-04-10T07:07:30Z</time>
      </trkpt>
      <trkpt lat="45.19071" lon="5.82203">
        <ele>272.6</ele>
        <time>2021-04-10T07:07:31Z</time>
      </trkpt>
      <trkpt lat="45.19071" lon="5.82204">
        <ele>273</ele>
        <time>2021-04-10T07:07:32Z</time>
      </trkpt>
      <trkpt lat="45.19071" lon="5.82205">
        <ele>273</ele>
        <time>2021-04-10T07:07:33Z</time>
      </trkpt>
      <trkpt lat="45.19071" lon="5.82206">
        <ele>273.2</ele>
        <time>2021-04-10T07:07:34Z</time>
      </trkpt>
      <trkpt lat="45.19072" lon="5.82207">
        <ele>273.4</ele>
        <time>2021-04-10T07:07:35Z</time>
      </trkpt>
      <trkpt lat="45.19072" lon="5.82207">
        <ele>273.6</ele>
        <time>2021-04-10T07:07:36Z</time>
      </trkpt>
      <trkpt lat="45.19072" lon="5.82208">
        <ele>274</ele>
        <time>2021-04-10T07:07:37Z</time>
      </trkpt>
      <trkpt lat="45.19072" lon="5.82209">
        <ele>274.2</ele>
        <time>2021-04-10T07:07:38Z</time>
      </trkpt>
      <trkpt lat="45.19072" lon="5.8221">
        <ele>274.6</ele>
        <time>2021-04-10T07:07:39Z</time>
      </trkpt>
      <trkpt lat="45.19072" lon="5.82211">
        <ele>275</ele>
        <time>2021-04-10T07:07:40Z</time>
      </trkpt>
      <trkpt lat="45.19072" lon="5.82212">
        <ele>275.4</ele>
        <time>2021-04-10T07:07:41Z</time>
      </trkpt>
      <trkpt lat="45.19073" lon="5.82213">
        <ele>275.6</ele>
        <time>2021-04-10T07:07:42Z</time>
      </trkpt>
      <trkpt lat="45.19073" lon="5.82214">
        <ele>276</ele>
        <time>2021-04-10T07:07:43Z</time>
      </trkpt>
      <trkpt lat="45.19073" lon="5.82215">
        <ele>276</ele>
        <time>2021-04-10T07:07:44Z</time>
      </trkpt>
      <trkpt lat="45.19073" lon="5.82216">
        <ele>276.4</ele>
        <time>2021-04-10T07:07:45Z</time>
      </trkpt>
      <trkpt lat="45.19074" lon="5.82216">
        <ele>276.4</ele>
        <time>2021-04-10T07:07:46Z</time>
      </trkpt>
      <trkpt lat="45.19074" lon="5.82217">
        <ele>276.6</ele>
        <time>2021-04-10T07:07:47Z</time>
      </trkpt>
      <trkpt lat="45.19075" lon="5.82218">
        <ele>276.8</ele>
        <time>2021-04-10T07:07:48Z</time>
      </trkpt>
      <trkpt lat="45.19075" lon="5.82219">
        <ele>277</ele>
        <time>2021-04-10T07:07:49Z</time>
      </trkpt>
      <trkpt lat="45.19076" lon="5.82219">
        <ele>277.2</ele>
        <time>2021-04-10T07:07:50Z</time>
      </trkpt>
      <trkpt lat="45.19076" lon="5.8222">
        <ele>277.4</ele>
        <time>2021-04-10T07:07:51Z</time>
      </trkpt>
      <trkpt lat="45.19077" lon="5.82221">
        <ele>277.4</ele>
        <time>2021-04-10T07:07:52Z</time>
      </trkpt>
      <trkpt lat="45.19077" lon="5.82222">
        <ele>277.6</ele>
        <time>2021-04-10T07:07:53Z</time>
      </trkpt>
      <trkpt lat="45.19078" lon="5.82222">
        <ele>277.8</ele>
        <time>2021-04-10T07:07:54Z</time>
      </trkpt>
      <trkpt lat="45.19078" lon="5.82223">
        <ele>278.2</ele>
        <time>2021-04-10T07:07:55Z</time>
      </trkpt>
      <trkpt lat="45.19079" lon="5.82224">
        <ele>278.4</ele>
        <time>2021-04-10T07:07:56Z</time>
      </trkpt>
      <trkpt lat="45.19079" lon="5.82225">
        <ele>278.4</ele>
        <time>2021-04-10T07:07:57Z</time>
      </trkpt>
      <trkpt lat="45.19077" lon="5.82229">
        <ele>278.6</ele>
        <time>2021-04-10T07:07:58Z</time>
      </trkpt>
      <trkpt lat="45.19074" lon="5.82234">
        <ele>279</ele>
        <time>2021-04-10T07:07:59Z</time>
      </trkpt>
      <trkpt lat="45.19072" lon="5.82239">
        <ele>279.2</ele>
        <time>2021-04-10T07:08:00Z</time>
      </trkpt>
      <trkpt lat="45.19069" lon="5.82244">
        <ele>279.6</ele>
        <time>2021-04-10T07:08:01Z</time>
      </trkpt>
      <trkpt lat="45.19067" lon="5.82249">
        <ele>279.8</ele>
        <time>2021-04-10T07:08:02Z</time>
      </trkpt>
      <trkpt lat="45.19064" lon="5.82253">
        <ele>280</ele>
        <time>2021-04-10T07:08:03Z</time>
      </trkpt>
      <trkpt lat="45.19061" lon="5.82258">
        <ele>280.2</ele>
        <time>2021-04-10T07:08:04Z</time>
      </trkpt>
      <trkpt lat="45.19059" lon="5.82263">
        <ele>280.4</ele>
        <time>2021-04-10T07:08:05Z</time>
      </trkpt>
      <trkpt lat="45.19056" lon="5.82268">
        <ele>280.8</ele>
        <time>2021-04-10T07:08:06Z</time>
      </trkpt>
      <trkpt lat="45.19052" lon="5.82272">
        <ele>281</ele>
        <time>2021-04-10T07:08:07Z</time>
      </trkpt>
      <trkpt lat="45.19051" lon="5.82274">
        <ele>281.4</ele>
        <time>2021-04-10T07:08:08Z</time>
      </trkpt>
      <trkpt lat="45.1905" lon="5.82276">
        <ele>281.6</ele>
        <time>2021-04-10T07:08:09Z</time>
      </trkpt>
      <trkpt lat="45.19049" lon="5.82277">
        <ele>281.8</ele>
        <time>2021-04-10T07:08:10Z</time>
      </trkpt>
      <trkpt lat="45.19045" lon="5.82282">
        <ele>282</ele>
        <time>2021-04-10T07:08:11Z</time>
      </trkpt>
      <trkpt lat="45.19045" lon="5.82282">
        <ele>282.4</ele>
        <time>2021-04-10T07:08:12Z</time>
      </trkpt>
      <trkpt lat="45.19045" lon="5.82282">
        <ele>282.6</ele>
        <time>2021-04-10T07:08:13Z</time>
      </trkpt>
      <trkpt lat="45.19045" lon="5.82282">
        <ele>283</ele>
        <time>2021-04-10T07:08:14Z</time>
      </trkpt>
      <trkpt lat="45.19044" lon="5.82284">
        <ele>283.4</ele>
        <time>2021-04-10T07:08:15Z</time>
      </trkpt>
      <trkpt lat="45.19042" lon="5.82286">
        <ele>283.6</ele>
        <time>2021-04-10T07:08:16Z</time>
      </trkpt>
      <trkpt lat="45.19041" lon="5.82288">
        <ele>283.8</ele>
        <time>2021-04-10T07:08:17Z</time>
      </trkpt>
      <trkpt lat="45.1904" lon="5.8229">
        <ele>284</ele>
        <time>2021-04-10T07:08:18Z</time>
      </trkpt>
      <trkpt lat="45.19038" lon="5.82291">
        <ele>284.2</ele>
        <time>2021-04-10T07:08:19Z</time>
      </trkpt>
      <trkpt lat="45.19039" lon="5.82293">
        <ele>284.4</ele>
        <time>2021-04-10T07:08:20Z</time>
      </trkpt>
      <trkpt lat="45.1904" lon="5.82295">
        <ele>284.6</ele>
        <time>2021-04-10T07:08:21Z</time>
      </trkpt>
      <trkpt lat="45.19041" lon="5.82297">
        <ele>284.8</ele>
        <time>2021-04-10T07:08:22Z</time>
      </trkpt>
      <trkpt lat="45.19042" lon="5.82299">
        <ele>285</ele>
        <time>2021-04-10T07:08:23Z</time>
      </trkpt>
      <trkpt lat="45.19043" lon="5.823">
        <ele>285.2</ele>
        <time>2021-04-10T07:08:24Z</time>
      </trkpt>
      <trkpt lat="45.19044" lon="5.82302">
        <ele>285.4</ele>
        <time>2021-04-10T07:08:25Z</time>
      </trkpt>
      <trkpt lat="45.19045" lon="5.82304">
        <ele>285.8</ele>
        <time>2021-04-10T07:08:26Z</time>
      </trkpt>
      <trkpt lat="45.19045" lon="5.82306">
        <ele>286</ele>
        <time>2021-04-10T07:08:27Z</time>
      </trkpt>
      <trkpt lat="45.19045" lon="5.82307">
        <ele>286.2</ele>
        <time>2021-04-10T07:08:28Z</time>
      </trkpt>
      <trkpt lat="45.19045" lon="5.82309">
        <ele>286.6</ele>
        <time>2021-04-10T07:08:29Z</time>
      </trkpt>
      <trkpt lat="45.19045" lon="5.8231">
        <ele>286.6</ele>
        <time>2021-04-10T07:08:30Z</time>
      </trkpt>
      <trkpt lat="45.19045" lon="5.82312">
        <ele>286.8</ele>
        <time>2021-04-10T07:08:31Z</time>
      </trkpt>
      <trkpt lat="45.19046" lon="5.82313">
        <ele>287.2</ele>
        <time>2021-04-10T07:08:32Z</time>
      </trkpt>
      <trkpt lat="45.19046" lon="5.82315">
        <ele>287.4</ele>
        <time>2021-04-10T07:08:33Z</time>
      </trkpt>
      <trkpt lat="45.19046" lon="5.82317">
        <ele>287.8</ele>
        <time>2021-04-10T07:08:34Z</time>
      </trkpt>
      <trkpt lat="45.19046" lon="5.82318">
        <ele>288</ele>
        <time>2021-04-10T07:08:35Z</time>
      </trkpt>
      <trkpt lat="45.19046" lon="5.82319">
        <ele>288.2</ele>
        <time>2021-04-10T07:08:36Z</time>
      </trkpt>
      <trkpt lat="45.19047" lon="5.8232">
        <ele>288.4</ele>
        <time>2021-04-10T07:08:37Z</time>
      </trkpt>
      <trkpt lat="45.19047" lon="5.82322">
        <ele>288.8</ele>
        <time>2021-04-10T07:08:38Z</time>
      </trkpt>
      <trkpt lat="45.19047" lon="5.82323">
        <ele>289</ele>
        <time>2021-04-10T07:08:39Z</time>
      </trkpt>
      <trkpt lat="45.19048" lon="5.82324">
        <ele>289.4</ele>
        <time>2021-04-10T07:08:40Z</time>
      </trkpt>
      <trkpt lat="45.19048" lon="5.82325">
        <ele>289.8</ele>
        <time>2021-04-10T07:08:41Z</time>
      </trkpt>
      <trkpt lat="45.19048" lon="5.82327">
        <ele>290</ele>
        <time>2021-04-10T07:08:42Z</time>
      </trkpt>
      <trkpt lat="45.19049" lon="5.82328">
        <ele>290.2</ele>
        <time>2021-04-10T07:08:43Z</time>
      </trkpt>
      <trkpt lat="45.19049" lon="5.82329">
        <ele>290.8</ele>
        <time>2021-04-10T07:08:44Z</time>
      </trkpt>
      <trkpt lat="45.19049" lon="5.82332">
        <ele>291</ele>
        <time>2021-04-10T07:08:45Z</time>
      </trkpt>
      <trkpt lat="45.19049" lon="5.82334">
        <ele>291.2</ele>
        <time>2021-04-10T07:08:46Z</time>
      </trkpt>
      <trkpt lat="45.19049" lon="5.82337">
        <ele>291.6</ele>
        <time>2021-04-10T07:08:47Z</time>
      </trkpt>
      <trkpt lat="45.19049" lon="5.82339">
        <ele>291.8</ele>
        <time>2021-04-10T07:08:48Z</time>
      </trkpt>
      <trkpt lat="45.19049" lon="5.82342">
        <ele>292</ele>
        <time>2021-04-10T07:08:49Z</time>
      </trkpt>
      <trkpt lat="45.19049" lon="5.82344">
        <ele>292.2</ele>
        <time>2021-04-10T07:08:50Z</time>
      </trkpt>
      <trkpt lat="45.19049" lon="5.82346">
        <ele>292.4</ele>
        <time>2021-04-10T07:08:51Z</time>
      </trkpt>
      <trkpt lat="45.19049" lon="5.82347">
        <ele>292.6</ele>
        <time>2021-04-10T07:08:52Z</time>
      </trkpt>
      <trkpt lat="45.19049" lon="5.82349">
        <ele>293</ele>
        <time>2021-04-10T07:08:53Z</time>
      </trkpt>
      <trkpt lat="45.19049" lon="5.82351">
        <ele>293.4</ele>
        <time>2021-04-10T07:08:54Z</time>
      </trkpt>
      <trkpt lat="45.19049" lon="5.82353">
        <ele>293.6</ele>
        <time>2021-04-10T07:08:55Z</time>
      </trkpt>
      <trkpt lat="45.19049" lon="5.82354">
        <ele>293.8</ele>
        <time>2021-04-10T07:08:56Z</time>
      </trkpt>
      <trkpt lat="45.19049" lon="5.82356">
        <ele>294</ele>
        <time>2021-04-10T07:08:57Z</time>
      </trkpt>
      <trkpt lat="45.19049" lon="5.82358">
        <ele>294</ele>
        <time>2021-04-10T07:08:58Z</time>
      </trkpt>
      <trkpt lat="45.19049" lon="5.82359">
        <ele>294.2</ele>
        <time>2021-04-10T07:08:59Z</time>
      </trkpt>
      <trkpt lat="45.19049" lon="5.8236">
        <ele>294.4</ele>
        <time>2021-04-10T07:09:00Z</time>
      </trkpt>
      <trkpt lat="45.1905" lon="5.82362">
        <ele>294.6</ele>
        <time>2021-04-10T07:09:01Z</time>
      </trkpt>
      <trkpt lat="45.1905" lon="5.82363">
        <ele>294.6</ele>
        <time>2021-04-10T07:09:02Z</time>
      </trkpt>
      <trkpt lat="45.19051" lon="5.82365">
        <ele>295</ele>
        <time>2021-04-10T07:09:03Z</time>
      </trkpt>
      <trkpt lat="45.19051" lon="5.82366">
        <ele>295.2</ele>
        <time>2021-04-10T07:09:04Z</time>
      </trkpt>
      <trkpt lat="45.19051" lon="5.82367">
        <ele>295.6</ele>
        <time>2021-04-10T07:09:05Z</time>
      </trkpt>
      <trkpt lat="45.19052" lon="5.82369">
        <ele>296</ele>
        <time>2021-04-10T07:09:06Z</time>
      </trkpt>
      <trkpt lat="45.19052" lon="5.8237">
        <ele>296.4</ele>
        <time>2021-04-10T07:09:07Z</time>
      </trkpt>
      <trkpt lat="45.19052" lon="5.82371">
        <ele>296.6</ele>
        <time>2021-04-10T07:09:08Z</time>
      </trkpt>
      <trkpt lat="45.19053" lon="5.82373">
        <ele>296.6</ele>
        <time>2021-04-10T07:09:09Z</time>
      </trkpt>
      <trkpt lat="45.19053" lon="5.82374">
        <ele>296.8</ele>
        <time>2021-04-10T07:09:10Z</time>
      </trkpt>
      <trkpt lat="45.19053" lon="5.82375">
        <ele>297</ele>
        <time>2021-04-10T07:09:11Z</time>
      </trkpt>
      <trkpt lat="45.19054" lon="5.82376">
        <ele>297.2</ele>
        <time>2021-04-10T07:09:12Z</time>
      </trkpt>
      <trkpt lat="45.19054" lon="5.82377">
        <ele>297.6</ele>
        <time>2021-04-10T07:09:13Z</time>
      </trkpt>
      <trkpt lat="45.19054" lon="5.82379">
        <ele>297.8</ele>
        <time>2021-04-10T07:09:14Z</time>
      </trkpt>
      <trkpt lat="45.19055" lon="5.8238">
        <ele>298</ele>
        <time>2021-04-10T07:09:15Z</time>
      </trkpt>
      <trkpt lat="45.19055" lon="5.82381">
        <ele>298.2</ele>
        <time>2021-04-10T07:09:16Z</time>
      </trkpt>
      <trkpt lat="45.19055" lon="5.82382">
        <ele>298.6</ele>
        <time>2021-04-10T07:09:17Z</time>
      </trkpt>
      <trkpt lat="45.19055" lon="5.82384">
        <ele>298.8</ele>
        <time>2021-04-10T07:09:18Z</time>
      </trkpt>
      <trkpt lat="45.19055" lon="5.82385">
        <ele>299</ele>
        <time>2021-04-10T07:09:19Z</time>
      </trkpt>
      <trkpt lat="45.19055" lon="5.82387">
        <ele>299.2</ele>
        <time>2021-04-10T07:09:20Z</time>
      </trkpt>
      <trkpt lat="45.19055" lon="5.82388">
        <ele>299.4</ele>
        <time>2021-04-10T07:09:21Z</time>
      </trkpt>
      <trkpt lat="45.19055" lon="5.8239">
        <ele>299.4</ele>
        <time>2021-04-10T07:09:22Z</time>
      </trkpt>
      <trkpt lat="45.19055" lon="5.82391">
        <ele>299.6</ele>
        <time>2021-04-10T07:09:23Z</time>
      </trkpt>
      <trkpt lat="45.19055" lon="5.82393">
        <ele>299.8</ele>
        <time>2021-04-10T07:09:24Z</time>
      </trkpt>
      <trkpt lat="45.19055" lon="5.82395">
        <ele>300.2</ele>
        <time>2021-04-10T07:09:25Z</time>
      </trkpt>
      <trkpt lat="45.19055" lon="5.82396">
        <ele>300.4</ele>
        <time>2021-04-10T07:09:26Z</time>
      </trkpt>
      <trkpt lat="45.19055" lon="5.82397">
        <ele>300.8</ele>
        <time>2021-04-10T07:09:27Z</time>
      </trkpt>
      <trkpt lat="45.19055" lon="5.82399">
        <ele>301</ele>
        <time>2021-04-10T07:09:28Z</time>
      </trkpt>
      <trkpt lat="45.19055" lon="5.824">
        <ele>301.2</ele>
        <time>2021-04-10T07:09:29Z</time>
      </trkpt>
      <trkpt lat="45.19055" lon="5.82401">
        <ele>301.6</ele>
        <time>2021-04-10T07:09:30Z</time>
      </trkpt>
      <trkpt lat="45.19055" lon="5.82402">
        <ele>301.8</ele>
        <time>2021-04-10T07:09:31Z</time>
      </trkpt>
      <trkpt lat="45.19055" lon="5.82403">
        <ele>302</ele>
        <time>2021-04-10T07:09:32Z</time>
      </trkpt>
      <trkpt lat="45.19055" lon="5.82405">
        <ele>302.2</ele>
        <time>2021-04-10T07:09:33Z</time>
      </trkpt>
      <trkpt lat="45.19055" lon="5.82406">
        <ele>302.2</ele>
        <time>2021-04-10T07:09:34Z</time>
      </trkpt>
      <trkpt lat="45.19055" lon="5.82407">
        <ele>302.8</ele>
        <time>2021-04-10T07:09:35Z</time>
      </trkpt>
      <trkpt lat="45.19055" lon="5.82408">
        <ele>303</ele>
        <time>2021-04-10T07:09:36Z</time>
      </trkpt>
      <trkpt lat="45.19055" lon="5.8241">
        <ele>303.2</ele>
        <time>2021-04-10T07:09:37Z</time>
      </trkpt>
      <trkpt lat="45.19055" lon="5.82411">
        <ele>303.4</ele>
        <time>2021-04-10T07:09:38Z</time>
      </trkpt>
      <trkpt lat="45.19055" lon="5.82413">
        <ele>303.4</ele>
        <time>2021-04-10T07:09:39Z</time>
      </trkpt>
      <trkpt lat="45.19054" lon="5.82414">
        <ele>303.8</ele>
        <time>2021-04-10T07:09:40Z</time>
      </trkpt>
      <trkpt lat="45.19054" lon="5.82416">
        <ele>303.8</ele>
        <time>2021-04-10T07:09:41Z</time>
      </trkpt>
      <trkpt lat="45.19053" lon="5.82418">
        <ele>304</ele>
        <time>2021-04-10T07:09:42Z</time>
      </trkpt>
      <trkpt lat="45.19053" lon="5.82419">
        <ele>304.4</ele>
        <time>2021-04-10T07:09:43Z</time>
      </trkpt>
      <trkpt lat="45.19052" lon="5.82421">
        <ele>304.6</ele>
        <time>2021-04-10T07:09:44Z</time>
      </trkpt>
      <trkpt lat="45.19052" lon="5.82423">
        <ele>304.8</ele>
        <time>2021-04-10T07:09:45Z</time>
      </trkpt>
      <trkpt lat="45.19052" lon="5.82424">
        <ele>305</ele>
        <time>2021-04-10T07:09:46Z</time>
      </trkpt>
      <trkpt lat="45.19051" lon="5.82425">
        <ele>305.2</ele>
        <time>2021-04-10T07:09:47Z</time>
      </trkpt>
      <trkpt lat="45.19051" lon="5.82426">
        <ele>305.6</ele>
        <time>2021-04-10T07:09:48Z</time>
      </trkpt>
      <trkpt lat="45.19051" lon="5.82427">
        <ele>306</ele>
        <time>2021-04-10T07:09:49Z</time>
      </trkpt>
      <trkpt lat="45.1905" lon="5.82429">
        <ele>306.2</ele>
        <time>2021-04-10T07:09:50Z</time>
      </trkpt>
      <trkpt lat="45.1905" lon="5.8243">
        <ele>306.4</ele>
        <time>2021-04-10T07:09:51Z</time>
      </trkpt>
      <trkpt lat="45.19049" lon="5.82431">
        <ele>306.6</ele>
        <time>2021-04-10T07:09:52Z</time>
      </trkpt>
      <trkpt lat="45.19049" lon="5.82432">
        <ele>306.8</ele>
        <time>2021-04-10T07:09:53Z</time>
      </trkpt>
      <trkpt lat="45.19049" lon="5.82433">
        <ele>307.2</ele>
        <time>2021-04-10T07:09:54Z</time>
      </trkpt>
      <trkpt lat="45.19048" lon="5.82435">
        <ele>307.4</ele>
        <time>2021-04-10T07:09:55Z</time>
      </trkpt>
      <trkpt lat="45.19049" lon="5.82436">
        <ele>307.6</ele>
        <time>2021-04-10T07:09:56Z</time>
      </trkpt>
      <trkpt lat="45.19049" lon="5.82437">
        <ele>307.8</ele>
        <time>2021-04-10T07:09:57Z</time>
      </trkpt>
      <trkpt lat="45.19049" lon="5.82439">
        <ele>308.2</ele>
        <time>2021-04-10T07:09:58Z</time>
      </trkpt>
      <trkpt lat="45.19049" lon="5.8244">
        <ele>308.4</ele>
        <time>2021-04-10T07:09:59Z</time>
      </trkpt>
      <trkpt lat="45.1905" lon="5.82442">
        <ele>309</ele>
        <time>2021-04-10T07:10:01Z</time>
      </trkpt>
      <trkpt lat="45.1905" lon="5.82443">
        <ele>309.4</ele>
        <time>2021-04-10T07:10:02Z</time>
      </trkpt>
      <trkpt lat="45.1905" lon="5.82444">
        <ele>309.8</ele>
        <time>2021-04-10T07:10:03Z</time>
      </trkpt>
      <trkpt lat="45.19051" lon="5.82447">
        <ele>310</ele>
        <time>2021-04-10T07:10:04Z</time>
      </trkpt>
      <trkpt lat="45.19051" lon="5.82448">
        <ele>310.2</ele>
        <time>2021-04-10T07:10:05Z</time>
      </trkpt>
      <trkpt lat="45.19051" lon="5.82448">
        <ele>310.4</ele>
        <time>2021-04-10T07:10:06Z</time>
      </trkpt>
      <trkpt lat="45.19051" lon="5.82449">
        <ele>310.8</ele>
        <time>2021-04-10T07:10:07Z</time>
      </trkpt>
      <trkpt lat="45.19052" lon="5.8245">
        <ele>311</ele>
        <time>2021-04-10T07:10:08Z</time>
      </trkpt>
      <trkpt lat="45.19052" lon="5.82451">
        <ele>311.4</ele>
        <time>2021-04-10T07:10:09Z</time>
      </trkpt>
      <trkpt lat="45.19052" lon="5.82452">
        <ele>311.2</ele>
        <time>2021-04-10T07:10:10Z</time>
      </trkpt>
      <trkpt lat="45.19052" lon="5.82453">
        <ele>311.6</ele>
        <time>2021-04-10T07:10:11Z</time>
      </trkpt>
      <trkpt lat="45.19053" lon="5.82454">
        <ele>312</ele>
        <time>2021-04-10T07:10:12Z</time>
      </trkpt>
      <trkpt lat="45.19053" lon="5.82454">
        <ele>312.2</ele>
        <time>2021-04-10T07:10:13Z</time>
      </trkpt>
      <trkpt lat="45.19053" lon="5.82455">
        <ele>312.6</ele>
        <time>2021-04-10T07:10:14Z</time>
      </trkpt>
      <trkpt lat="45.19053" lon="5.82456">
        <ele>312.8</ele>
        <time>2021-04-10T07:10:15Z</time>
      </trkpt>
      <trkpt lat="45.19054" lon="5.82457">
        <ele>312.8</ele>
        <time>2021-04-10T07:10:16Z</time>
      </trkpt>
      <trkpt lat="45.19054" lon="5.82458">
        <ele>313</ele>
        <time>2021-04-10T07:10:17Z</time>
      </trkpt>
      <trkpt lat="45.19054" lon="5.82459">
        <ele>313.2</ele>
        <time>2021-04-10T07:10:18Z</time>
      </trkpt>
      <trkpt lat="45.19054" lon="5.82459">
        <ele>313.4</ele>
        <time>2021-04-10T07:10:19Z</time>
      </trkpt>
      <trkpt lat="45.19055" lon="5.8246">
        <ele>313.6</ele>
        <time>2021-04-10T07:10:20Z</time>
      </trkpt>
      <trkpt lat="45.19055" lon="5.82461">
        <ele>314</ele>
        <time>2021-04-10T07:10:21Z</time>
      </trkpt>
      <trkpt lat="45.19055" lon="5.82462">
        <ele>314.2</ele>
        <time>2021-04-10T07:10:22Z</time>
      </trkpt>
      <trkpt lat="45.19055" lon="5.82463">
        <ele>314.4</ele>
        <time>2021-04-10T07:10:23Z</time>
      </trkpt>
      <trkpt lat="45.19056" lon="5.82464">
        <ele>314.8</ele>
        <time>2021-04-10T07:10:24Z</time>
      </trkpt>
      <trkpt lat="45.19056" lon="5.82465">
        <ele>315.2</ele>
        <time>2021-04-10T07:10:25Z</time>
      </trkpt>
      <trkpt lat="45.19056" lon="5.82465">
        <ele>316</ele>
        <time>2021-04-10T07:10:26Z</time>
      </trkpt>
      <trkpt lat="45.1906" lon="5.82471">
        <ele>316.2</ele>
        <time>2021-04-10T07:10:27Z</time>
      </trkpt>
      <trkpt lat="45.1906" lon="5.82471">
        <ele>316.2</ele>
        <time>2021-04-10T07:10:28Z</time>
      </trkpt>
      <trkpt lat="45.1906" lon="5.82471">
        <ele>316.6</ele>
        <time>2021-04-10T07:10:30Z</time>
      </trkpt>
      <trkpt lat="45.1906" lon="5.82472">
        <ele>316.6</ele>
        <time>2021-04-10T07:10:31Z</time>
      </trkpt>
      <trkpt lat="45.19059" lon="5.82473">
        <ele>316.6</ele>
        <time>2021-04-10T07:10:32Z</time>
      </trkpt>
      <trkpt lat="45.19059" lon="5.82475">
        <ele>316.8</ele>
        <time>2021-04-10T07:10:33Z</time>
      </trkpt>
      <trkpt lat="45.19058" lon="5.82476">
        <ele>317</ele>
        <time>2021-04-10T07:10:34Z</time>
      </trkpt>
      <trkpt lat="45.19058" lon="5.82477">
        <ele>317.2</ele>
        <time>2021-04-10T07:10:35Z</time>
      </trkpt>
      <trkpt lat="45.19057" lon="5.82478">
        <ele>317.4</ele>
        <time>2021-04-10T07:10:36Z</time>
      </trkpt>
      <trkpt lat="45.19056" lon="5.8248">
        <ele>318</ele>
        <time>2021-04-10T07:10:37Z</time>
      </trkpt>
      <trkpt lat="45.19056" lon="5.82481">
        <ele>318.6</ele>
        <time>2021-04-10T07:10:38Z</time>
      </trkpt>
      <trkpt lat="45.19055" lon="5.82482">
        <ele>319</ele>
        <time>2021-04-10T07:10:39Z</time>
      </trkpt>
      <trkpt lat="45.19056" lon="5.82484">
        <ele>319.2</ele>
        <time>2021-04-10T07:10:40Z</time>
      </trkpt>
      <trkpt lat="45.19056" lon="5.82486">
        <ele>319.6</ele>
        <time>2021-04-10T07:10:41Z</time>
      </trkpt>
      <trkpt lat="45.19057" lon="5.82487">
        <ele>320</ele>
        <time>2021-04-10T07:10:42Z</time>
      </trkpt>
      <trkpt lat="45.19058" lon="5.82489">
        <ele>320.4</ele>
        <time>2021-04-10T07:10:43Z</time>
      </trkpt>
      <trkpt lat="45.19058" lon="5.82491">
        <ele>320.6</ele>
        <time>2021-04-10T07:10:44Z</time>
      </trkpt>
      <trkpt lat="45.19059" lon="5.82493">
        <ele>320.2</ele>
        <time>2021-04-10T07:10:45Z</time>
      </trkpt>
      <trkpt lat="45.1906" lon="5.82495">
        <ele>320.4</ele>
        <time>2021-04-10T07:10:46Z</time>
      </trkpt>
      <trkpt lat="45.1906" lon="5.82496">
        <ele>320.2</ele>
        <time>2021-04-10T07:10:47Z</time>
      </trkpt>
      <trkpt lat="45.19061" lon="5.82498">
        <ele>320.4</ele>
        <time>2021-04-10T07:10:48Z</time>
      </trkpt>
      <trkpt lat="45.19062" lon="5.825">
        <ele>320.6</ele>
        <time>2021-04-10T07:10:49Z</time>
      </trkpt>
      <trkpt lat="45.19062" lon="5.82502">
        <ele>320.8</ele>
        <time>2021-04-10T07:10:50Z</time>
      </trkpt>
      <trkpt lat="45.19063" lon="5.82504">
        <ele>320.8</ele>
        <time>2021-04-10T07:10:51Z</time>
      </trkpt>
      <trkpt lat="45.19064" lon="5.82506">
        <ele>320.8</ele>
        <time>2021-04-10T07:10:52Z</time>
      </trkpt>
      <trkpt lat="45.19064" lon="5.82507">
        <ele>321</ele>
        <time>2021-04-10T07:10:53Z</time>
      </trkpt>
      <trkpt lat="45.19064" lon="5.82509">
        <ele>321.4</ele>
        <time>2021-04-10T07:10:54Z</time>
      </trkpt>
      <trkpt lat="45.19064" lon="5.8251">
        <ele>321.8</ele>
        <time>2021-04-10T07:10:55Z</time>
      </trkpt>
      <trkpt lat="45.19064" lon="5.82511">
        <ele>322</ele>
        <time>2021-04-10T07:10:56Z</time>
      </trkpt>
      <trkpt lat="45.19064" lon="5.82513">
        <ele>322.2</ele>
        <time>2021-04-10T07:10:57Z</time>
      </trkpt>
      <trkpt lat="45.19064" lon="5.82514">
        <ele>322.4</ele>
        <time>2021-04-10T07:10:58Z</time>
      </trkpt>
      <trkpt lat="45.19064" lon="5.82515">
        <ele>322.4</ele>
        <time>2021-04-10T07:10:59Z</time>
      </trkpt>
      <trkpt lat="45.19065" lon="5.82517">
        <ele>322.6</ele>
        <time>2021-04-10T07:11:00Z</time>
      </trkpt>
      <trkpt lat="45.19065" lon="5.82518">
        <ele>323</ele>
        <time>2021-04-10T07:11:01Z</time>
      </trkpt>
      <trkpt lat="45.19065" lon="5.82519">
        <ele>323.4</ele>
        <time>2021-04-10T07:11:02Z</time>
      </trkpt>
      <trkpt lat="45.19065" lon="5.82521">
        <ele>323.6</ele>
        <time>2021-04-10T07:11:03Z</time>
      </trkpt>
      <trkpt lat="45.19064" lon="5.82522">
        <ele>323.8</ele>
        <time>2021-04-10T07:11:04Z</time>
      </trkpt>
      <trkpt lat="45.19064" lon="5.82523">
        <ele>324</ele>
        <time>2021-04-10T07:11:05Z</time>
      </trkpt>
      <trkpt lat="45.19064" lon="5.82525">
        <ele>324.2</ele>
        <time>2021-04-10T07:11:06Z</time>
      </trkpt>
      <trkpt lat="45.19064" lon="5.82526">
        <ele>324.4</ele>
        <time>2021-04-10T07:11:07Z</time>
      </trkpt>
      <trkpt lat="45.19064" lon="5.82527">
        <ele>324.6</ele>
        <time>2021-04-10T07:11:08Z</time>
      </trkpt>
      <trkpt lat="45.19064" lon="5.82529">
        <ele>324.8</ele>
        <time>2021-04-10T07:11:09Z</time>
      </trkpt>
      <trkpt lat="45.19064" lon="5.8253">
        <ele>325.2</ele>
        <time>2021-04-10T07:11:10Z</time>
      </trkpt>
      <trkpt lat="45.19063" lon="5.82532">
        <ele>325.4</ele>
        <time>2021-04-10T07:11:11Z</time>
      </trkpt>
      <trkpt lat="45.19063" lon="5.82533">
        <ele>325.6</ele>
        <time>2021-04-10T07:11:12Z</time>
      </trkpt>
      <trkpt lat="45.19063" lon="5.82535">
        <ele>325.8</ele>
        <time>2021-04-10T07:11:13Z</time>
      </trkpt>
      <trkpt lat="45.19063" lon="5.82537">
        <ele>326</ele>
        <time>2021-04-10T07:11:14Z</time>
      </trkpt>
      <trkpt lat="45.19063" lon="5.82539">
        <ele>326.2</ele>
        <time>2021-04-10T07:11:15Z</time>
      </trkpt>
      <trkpt lat="45.19063" lon="5.82542">
        <ele>326.2</ele>
        <time>2021-04-10T07:11:16Z</time>
      </trkpt>
      <trkpt lat="45.19063" lon="5.82544">
        <ele>326.4</ele>
        <time>2021-04-10T07:11:17Z</time>
      </trkpt>
      <trkpt lat="45.19063" lon="5.82546">
        <ele>326.6</ele>
        <time>2021-04-10T07:11:18Z</time>
      </trkpt>
      <trkpt lat="45.19063" lon="5.82547">
        <ele>327</ele>
        <time>2021-04-10T07:11:19Z</time>
      </trkpt>
      <trkpt lat="45.19063" lon="5.82548">
        <ele>327.2</ele>
        <time>2021-04-10T07:11:20Z</time>
      </trkpt>
      <trkpt lat="45.19063" lon="5.82549">
        <ele>327.4</ele>
        <time>2021-04-10T07:11:21Z</time>
      </trkpt>
      <trkpt lat="45.19063" lon="5.82551">
        <ele>327.6</ele>
        <time>2021-04-10T07:11:22Z</time>
      </trkpt>
      <trkpt lat="45.19063" lon="5.82552">
        <ele>328</ele>
        <time>2021-04-10T07:11:23Z</time>
      </trkpt>
      <trkpt lat="45.19063" lon="5.82553">
        <ele>328.2</ele>
        <time>2021-04-10T07:11:24Z</time>
      </trkpt>
      <trkpt lat="45.19063" lon="5.82554">
        <ele>328.6</ele>
        <time>2021-04-10T07:11:25Z</time>
      </trkpt>
      <trkpt lat="45.19063" lon="5.82555">
        <ele>328.8</ele>
        <time>2021-04-10T07:11:26Z</time>
      </trkpt>
      <trkpt lat="45.19063" lon="5.82556">
        <ele>329</ele>
        <time>2021-04-10T07:11:27Z</time>
      </trkpt>
      <trkpt lat="45.19063" lon="5.82558">
        <ele>329.2</ele>
        <time>2021-04-10T07:11:28Z</time>
      </trkpt>
      <trkpt lat="45.19063" lon="5.82559">
        <ele>329.4</ele>
        <time>2021-04-10T07:11:29Z</time>
      </trkpt>
      <trkpt lat="45.19064" lon="5.8256">
        <ele>329.8</ele>
        <time>2021-04-10T07:11:30Z</time>
      </trkpt>
      <trkpt lat="45.19064" lon="5.82561">
        <ele>330.2</ele>
        <time>2021-04-10T07:11:31Z</time>
      </trkpt>
      <trkpt lat="45.19064" lon="5.82562">
        <ele>330.4</ele>
        <time>2021-04-10T07:11:32Z</time>
      </trkpt>
      <trkpt lat="45.19064" lon="5.82563">
        <ele>330.4</ele>
        <time>2021-04-10T07:11:33Z</time>
      </trkpt>
      <trkpt lat="45.19064" lon="5.82564">
        <ele>330.6</ele>
        <time>2021-04-10T07:11:34Z</time>
      </trkpt>
      <trkpt lat="45.19064" lon="5.82565">
        <ele>330.8</ele>
        <time>2021-04-10T07:11:35Z</time>
      </trkpt>
      <trkpt lat="45.19064" lon="5.82566">
        <ele>330.8</ele>
        <time>2021-04-10T07:11:36Z</time>
      </trkpt>
      <trkpt lat="45.19064" lon="5.82566">
        <ele>331.2</ele>
        <time>2021-04-10T07:11:37Z</time>
      </trkpt>
      <trkpt lat="45.19064" lon="5.82567">
        <ele>331.4</ele>
        <time>2021-04-10T07:11:38Z</time>
      </trkpt>
      <trkpt lat="45.19064" lon="5.82568">
        <ele>332</ele>
        <time>2021-04-10T07:11:39Z</time>
      </trkpt>
      <trkpt lat="45.19064" lon="5.82569">
        <ele>332.2</ele>
        <time>2021-04-10T07:11:40Z</time>
      </trkpt>
      <trkpt lat="45.19064" lon="5.8257">
        <ele>332.4</ele>
        <time>2021-04-10T07:11:41Z</time>
      </trkpt>
      <trkpt lat="45.19064" lon="5.82571">
        <ele>332.6</ele>
        <time>2021-04-10T07:11:42Z</time>
      </trkpt>
      <trkpt lat="45.19064" lon="5.82572">
        <ele>333</ele>
        <time>2021-04-10T07:11:43Z</time>
      </trkpt>
      <trkpt lat="45.19064" lon="5.82573">
        <ele>333.2</ele>
        <time>2021-04-10T07:11:44Z</time>
      </trkpt>
      <trkpt lat="45.19064" lon="5.82575">
        <ele>333.6</ele>
        <time>2021-04-10T07:11:45Z</time>
      </trkpt>
      <trkpt lat="45.19064" lon="5.82577">
        <ele>333.6</ele>
        <time>2021-04-10T07:11:46Z</time>
      </trkpt>
      <trkpt lat="45.19064" lon="5.82578">
        <ele>333.8</ele>
        <time>2021-04-10T07:11:47Z</time>
      </trkpt>
      <trkpt lat="45.19064" lon="5.8258">
        <ele>334</ele>
        <time>2021-04-10T07:11:48Z</time>
      </trkpt>
      <trkpt lat="45.19064" lon="5.82582">
        <ele>334.2</ele>
        <time>2021-04-10T07:11:49Z</time>
      </trkpt>
      <trkpt lat="45.19064" lon="5.82584">
        <ele>334.6</ele>
        <time>2021-04-10T07:11:50Z</time>
      </trkpt>
      <trkpt lat="45.19064" lon="5.82586">
        <ele>335</ele>
        <time>2021-04-10T07:11:51Z</time>
      </trkpt>
      <trkpt lat="45.19064" lon="5.82587">
        <ele>335</ele>
        <time>2021-04-10T07:11:52Z</time>
      </trkpt>
      <trkpt lat="45.19064" lon="5.82589">
        <ele>335.2</ele>
        <time>2021-04-10T07:11:53Z</time>
      </trkpt>
      <trkpt lat="45.19064" lon="5.8259">
        <ele>335.4</ele>
        <time>2021-04-10T07:11:54Z</time>
      </trkpt>
      <trkpt lat="45.19065" lon="5.82591">
        <ele>335.4</ele>
        <time>2021-04-10T07:11:55Z</time>
      </trkpt>
      <trkpt lat="45.19065" lon="5.82593">
        <ele>335.8</ele>
        <time>2021-04-10T07:11:56Z</time>
      </trkpt>
      <trkpt lat="45.19065" lon="5.82594">
        <ele>336</ele>
        <time>2021-04-10T07:11:57Z</time>
      </trkpt>
      <trkpt lat="45.19065" lon="5.82596">
        <ele>336.4</ele>
        <time>2021-04-10T07:11:58Z</time>
      </trkpt>
      <trkpt lat="45.19065" lon="5.82597">
        <ele>336.4</ele>
        <time>2021-04-10T07:11:59Z</time>
      </trkpt>
      <trkpt lat="45.19065" lon="5.82598">
        <ele>336.6</ele>
        <time>2021-04-10T07:12:00Z</time>
      </trkpt>
      <trkpt lat="45.19065" lon="5.826">
        <ele>336.8</ele>
        <time>2021-04-10T07:12:01Z</time>
      </trkpt>
      <trkpt lat="45.19065" lon="5.82601">
        <ele>337</ele>
        <time>2021-04-10T07:12:02Z</time>
      </trkpt>
      <trkpt lat="45.19065" lon="5.82602">
        <ele>337.4</ele>
        <time>2021-04-10T07:12:03Z</time>
      </trkpt>
      <trkpt lat="45.19065" lon="5.82604">
        <ele>337.8</ele>
        <time>2021-04-10T07:12:04Z</time>
      </trkpt>
      <trkpt lat="45.19065" lon="5.82605">
        <ele>338</ele>
        <time>2021-04-10T07:12:05Z</time>
      </trkpt>
      <trkpt lat="45.19065" lon="5.82607">
        <ele>338.2</ele>
        <time>2021-04-10T07:12:06Z</time>
      </trkpt>
      <trkpt lat="45.19065" lon="5.82608">
        <ele>338.6</ele>
        <time>2021-04-10T07:12:07Z</time>
      </trkpt>
      <trkpt lat="45.19065" lon="5.8261">
        <ele>338.8</ele>
        <time>2021-04-10T07:12:08Z</time>
      </trkpt>
      <trkpt lat="45.19065" lon="5.82611">
        <ele>339</ele>
        <time>2021-04-10T07:12:09Z</time>
      </trkpt>
      <trkpt lat="45.19065" lon="5.82612">
        <ele>339.4</ele>
        <time>2021-04-10T07:12:10Z</time>
      </trkpt>
      <trkpt lat="45.19065" lon="5.82614">
        <ele>339.8</ele>
        <time>2021-04-10T07:12:11Z</time>
      </trkpt>
      <trkpt lat="45.19065" lon="5.82615">
        <ele>340</ele>
        <time>2021-04-10T07:12:12Z</time>
      </trkpt>
      <trkpt lat="45.19065" lon="5.82617">
        <ele>340.2</ele>
        <time>2021-04-10T07:12:13Z</time>
      </trkpt>
      <trkpt lat="45.19065" lon="5.82618">
        <ele>340.2</ele>
        <time>2021-04-10T07:12:14Z</time>
      </trkpt>
      <trkpt lat="45.19065" lon="5.8262">
        <ele>340.4</ele>
        <time>2021-04-10T07:12:15Z</time>
      </trkpt>
      <trkpt lat="45.19066" lon="5.82622">
        <ele>340.6</ele>
        <time>2021-04-10T07:12:16Z</time>
      </trkpt>
      <trkpt lat="45.19066" lon="5.82623">
        <ele>341.2</ele>
        <time>2021-04-10T07:12:17Z</time>
      </trkpt>
      <trkpt lat="45.19066" lon="5.82625">
        <ele>341.6</ele>
        <time>2021-04-10T07:12:18Z</time>
      </trkpt>
      <trkpt lat="45.19066" lon="5.82626">
        <ele>341.8</ele>
        <time>2021-04-10T07:12:19Z</time>
      </trkpt>
      <trkpt lat="45.19066" lon="5.82628">
        <ele>342</ele>
        <time>2021-04-10T07:12:20Z</time>
      </trkpt>
      <trkpt lat="45.19066" lon="5.8263">
        <ele>342.2</ele>
        <time>2021-04-10T07:12:21Z</time>
      </trkpt>
      <trkpt lat="45.19066" lon="5.82631">
        <ele>342.4</ele>
        <time>2021-04-10T07:12:22Z</time>
      </trkpt>
      <trkpt lat="45.19065" lon="5.82633">
        <ele>342.6</ele>
        <time>2021-04-10T07:12:23Z</time>
      </trkpt>
      <trkpt lat="45.19065" lon="5.82635">
        <ele>342.8</ele>
        <time>2021-04-10T07:12:24Z</time>
      </trkpt>
      <trkpt lat="45.19065" lon="5.82637">
        <ele>343</ele>
        <time>2021-04-10T07:12:25Z</time>
      </trkpt>
      <trkpt lat="45.19065" lon="5.82639">
        <ele>343.2</ele>
        <time>2021-04-10T07:12:26Z</time>
      </trkpt>
      <trkpt lat="45.19065" lon="5.82641">
        <ele>343.6</ele>
        <time>2021-04-10T07:12:27Z</time>
      </trkpt>
      <trkpt lat="45.19065" lon="5.82642">
        <ele>344</ele>
        <time>2021-04-10T07:12:28Z</time>
      </trkpt>
      <trkpt lat="45.19065" lon="5.82643">
        <ele>344.4</ele>
        <time>2021-04-10T07:12:29Z</time>
      </trkpt>
      <trkpt lat="45.19065" lon="5.82644">
        <ele>344.4</ele>
        <time>2021-04-10T07:12:30Z</time>
      </trkpt>
      <trkpt lat="45.19065" lon="5.82645">
        <ele>344.6</ele>
        <time>2021-04-10T07:12:31Z</time>
      </trkpt>
      <trkpt lat="45.19065" lon="5.82646">
        <ele>344.8</ele>
        <time>2021-04-10T07:12:32Z</time>
      </trkpt>
      <trkpt lat="45.19065" lon="5.82647">
        <ele>344.8</ele>
        <time>2021-04-10T07:12:33Z</time>
      </trkpt>
      <trkpt lat="45.19065" lon="5.82648">
        <ele>345.2</ele>
        <time>2021-04-10T07:12:34Z</time>
      </trkpt>
      <trkpt lat="45.19065" lon="5.82649">
        <ele>345.4</ele>
        <time>2021-04-10T07:12:35Z</time>
      </trkpt>
      <trkpt lat="45.19066" lon="5.8265">
        <ele>345.6</ele>
        <time>2021-04-10T07:12:36Z</time>
      </trkpt>
      <trkpt lat="45.19066" lon="5.82651">
        <ele>346</ele>
        <time>2021-04-10T07:12:37Z</time>
      </trkpt>
      <trkpt lat="45.19066" lon="5.82652">
        <ele>346.2</ele>
        <time>2021-04-10T07:12:38Z</time>
      </trkpt>
      <trkpt lat="45.19066" lon="5.82653">
        <ele>346.6</ele>
        <time>2021-04-10T07:12:39Z</time>
      </trkpt>
      <trkpt lat="45.19066" lon="5.82654">
        <ele>347</ele>
        <time>2021-04-10T07:12:40Z</time>
      </trkpt>
      <trkpt lat="45.19066" lon="5.82655">
        <ele>347.2</ele>
        <time>2021-04-10T07:12:41Z</time>
      </trkpt>
      <trkpt lat="45.19066" lon="5.82656">
        <ele>347.4</ele>
        <time>2021-04-10T07:12:42Z</time>
      </trkpt>
      <trkpt lat="45.19066" lon="5.82657">
        <ele>347.4</ele>
        <time>2021-04-10T07:12:43Z</time>
      </trkpt>
      <trkpt lat="45.19067" lon="5.82658">
        <ele>348</ele>
        <time>2021-04-10T07:12:44Z</time>
      </trkpt>
      <trkpt lat="45.19067" lon="5.82659">
        <ele>348.4</ele>
        <time>2021-04-10T07:12:45Z</time>
      </trkpt>
      <trkpt lat="45.19067" lon="5.8266">
        <ele>348.6</ele>
        <time>2021-04-10T07:12:46Z</time>
      </trkpt>
      <trkpt lat="45.19067" lon="5.82661">
        <ele>348.6</ele>
        <time>2021-04-10T07:12:47Z</time>
      </trkpt>
      <trkpt lat="45.19067" lon="5.82662">
        <ele>348.8</ele>
        <time>2021-04-10T07:12:48Z</time>
      </trkpt>
      <trkpt lat="45.19067" lon="5.82663">
        <ele>349.2</ele>
        <time>2021-04-10T07:12:49Z</time>
      </trkpt>
      <trkpt lat="45.19067" lon="5.82664">
        <ele>349.6</ele>
        <time>2021-04-10T07:12:50Z</time>
      </trkpt>
      <trkpt lat="45.19068" lon="5.82665">
        <ele>350</ele>
        <time>2021-04-10T07:12:51Z</time>
      </trkpt>
      <trkpt lat="45.19068" lon="5.82667">
        <ele>350.2</ele>
        <time>2021-04-10T07:12:52Z</time>
      </trkpt>
      <trkpt lat="45.19068" lon="5.82668">
        <ele>350.2</ele>
        <time>2021-04-10T07:12:53Z</time>
      </trkpt>
      <trkpt lat="45.19069" lon="5.82669">
        <ele>350.4</ele>
        <time>2021-04-10T07:12:54Z</time>
      </trkpt>
      <trkpt lat="45.1907" lon="5.8267">
        <ele>350.8</ele>
        <time>2021-04-10T07:12:55Z</time>
      </trkpt>
      <trkpt lat="45.19071" lon="5.82671">
        <ele>351</ele>
        <time>2021-04-10T07:12:56Z</time>
      </trkpt>
      <trkpt lat="45.19071" lon="5.82673">
        <ele>351.4</ele>
        <time>2021-04-10T07:12:57Z</time>
      </trkpt>
      <trkpt lat="45.19072" lon="5.82674">
        <ele>351.8</ele>
        <time>2021-04-10T07:12:58Z</time>
      </trkpt>
      <trkpt lat="45.19073" lon="5.82675">
        <ele>352</ele>
        <time>2021-04-10T07:12:59Z</time>
      </trkpt>
      <trkpt lat="45.19074" lon="5.82676">
        <ele>352.4</ele>
        <time>2021-04-10T07:13:00Z</time>
      </trkpt>
      <trkpt lat="45.19074" lon="5.82677">
        <ele>352.6</ele>
        <time>2021-04-10T07:13:01Z</time>
      </trkpt>
      <trkpt lat="45.19075" lon="5.82679">
        <ele>352.6</ele>
        <time>2021-04-10T07:13:02Z</time>
      </trkpt>
      <trkpt lat="45.19075" lon="5.8268">
        <ele>352.8</ele>
        <time>2021-04-10T07:13:03Z</time>
      </trkpt>
      <trkpt lat="45.19076" lon="5.82681">
        <ele>353</ele>
        <time>2021-04-10T07:13:04Z</time>
      </trkpt>
      <trkpt lat="45.19077" lon="5.82682">
        <ele>353</ele>
        <time>2021-04-10T07:13:05Z</time>
      </trkpt>
      <trkpt lat="45.19077" lon="5.82683">
        <ele>353.4</ele>
        <time>2021-04-10T07:13:06Z</time>
      </trkpt>
      <trkpt lat="45.19078" lon="5.82684">
        <ele>353.6</ele>
        <time>2021-04-10T07:13:07Z</time>
      </trkpt>
      <trkpt lat="45.19078" lon="5.82686">
        <ele>354</ele>
        <time>2021-04-10T07:13:08Z</time>
      </trkpt>
      <trkpt lat="45.19079" lon="5.82687">
        <ele>354.2</ele>
        <time>2021-04-10T07:13:09Z</time>
      </trkpt>
      <trkpt lat="45.19079" lon="5.82689">
        <ele>354.4</ele>
        <time>2021-04-10T07:13:10Z</time>
      </trkpt>
      <trkpt lat="45.19078" lon="5.82691">
        <ele>354.6</ele>
        <time>2021-04-10T07:13:11Z</time>
      </trkpt>
      <trkpt lat="45.19078" lon="5.82693">
        <ele>354.8</ele>
        <time>2021-04-10T07:13:12Z</time>
      </trkpt>
      <trkpt lat="45.19078" lon="5.82695">
        <ele>355</ele>
        <time>2021-04-10T07:13:13Z</time>
      </trkpt>
      <trkpt lat="45.19078" lon="5.82697">
        <ele>355</ele>
        <time>2021-04-10T07:13:14Z</time>
      </trkpt>
      <trkpt lat="45.19077" lon="5.82698">
        <ele>355.2</ele>
        <time>2021-04-10T07:13:15Z</time>
      </trkpt>
      <trkpt lat="45.19077" lon="5.827">
        <ele>355.2</ele>
        <time>2021-04-10T07:13:16Z</time>
      </trkpt>
      <trkpt lat="45.19078" lon="5.82703">
        <ele>355.6</ele>
        <time>2021-04-10T07:13:17Z</time>
      </trkpt>
      <trkpt lat="45.19078" lon="5.82706">
        <ele>355.8</ele>
        <time>2021-04-10T07:13:18Z</time>
      </trkpt>
      <trkpt lat="45.19079" lon="5.82709">
        <ele>355.8</ele>
        <time>2021-04-10T07:13:19Z</time>
      </trkpt>
      <trkpt lat="45.19079" lon="5.82712">
        <ele>356.2</ele>
        <time>2021-04-10T07:13:20Z</time>
      </trkpt>
      <trkpt lat="45.19079" lon="5.82715">
        <ele>356.6</ele>
        <time>2021-04-10T07:13:21Z</time>
      </trkpt>
      <trkpt lat="45.1908" lon="5.82717">
        <ele>357</ele>
        <time>2021-04-10T07:13:22Z</time>
      </trkpt>
      <trkpt lat="45.19081" lon="5.82719">
        <ele>357.2</ele>
        <time>2021-04-10T07:13:23Z</time>
      </trkpt>
      <trkpt lat="45.19082" lon="5.82721">
        <ele>357.4</ele>
        <time>2021-04-10T07:13:24Z</time>
      </trkpt>
      <trkpt lat="45.19083" lon="5.82722">
        <ele>357.6</ele>
        <time>2021-04-10T07:13:25Z</time>
      </trkpt>
      <trkpt lat="45.19083" lon="5.82724">
        <ele>357.6</ele>
        <time>2021-04-10T07:13:26Z</time>
      </trkpt>
      <trkpt lat="45.19084" lon="5.82726">
        <ele>358</ele>
        <time>2021-04-10T07:13:27Z</time>
      </trkpt>
      <trkpt lat="45.19085" lon="5.82728">
        <ele>358.2</ele>
        <time>2021-04-10T07:13:28Z</time>
      </trkpt>
      <trkpt lat="45.19085" lon="5.8273">
        <ele>358.6</ele>
        <time>2021-04-10T07:13:29Z</time>
      </trkpt>
      <trkpt lat="45.19085" lon="5.82732">
        <ele>358.8</ele>
        <time>2021-04-10T07:13:30Z</time>
      </trkpt>
      <trkpt lat="45.19086" lon="5.82734">
        <ele>359.2</ele>
        <time>2021-04-10T07:13:31Z</time>
      </trkpt>
      <trkpt lat="45.19086" lon="5.82736">
        <ele>359.4</ele>
        <time>2021-04-10T07:13:32Z</time>
      </trkpt>
      <trkpt lat="45.19086" lon="5.82738">
        <ele>359.6</ele>
        <time>2021-04-10T07:13:33Z</time>
      </trkpt>
      <trkpt lat="45.19086" lon="5.8274">
        <ele>359.8</ele>
        <time>2021-04-10T07:13:34Z</time>
      </trkpt>
      <trkpt lat="45.19087" lon="5.82742">
        <ele>360</ele>
        <time>2021-04-10T07:13:35Z</time>
      </trkpt>
      <trkpt lat="45.19087" lon="5.82744">
        <ele>360.2</ele>
        <time>2021-04-10T07:13:36Z</time>
      </trkpt>
      <trkpt lat="45.19087" lon="5.82746">
        <ele>360.4</ele>
        <time>2021-04-10T07:13:37Z</time>
      </trkpt>
      <trkpt lat="45.19088" lon="5.82748">
        <ele>360.6</ele>
        <time>2021-04-10T07:13:38Z</time>
      </trkpt>
      <trkpt lat="45.19087" lon="5.82749">
        <ele>361</ele>
        <time>2021-04-10T07:13:39Z</time>
      </trkpt>
      <trkpt lat="45.19087" lon="5.8275">
        <ele>361.4</ele>
        <time>2021-04-10T07:13:40Z</time>
      </trkpt>
      <trkpt lat="45.19087" lon="5.82752">
        <ele>361.8</ele>
        <time>2021-04-10T07:13:41Z</time>
      </trkpt>
      <trkpt lat="45.19086" lon="5.82753">
        <ele>362.2</ele>
        <time>2021-04-10T07:13:42Z</time>
      </trkpt>
      <trkpt lat="45.19086" lon="5.82754">
        <ele>362.4</ele>
        <time>2021-04-10T07:13:43Z</time>
      </trkpt>
      <trkpt lat="45.19086" lon="5.82756">
        <ele>362.6</ele>
        <time>2021-04-10T07:13:44Z</time>
      </trkpt>
      <trkpt lat="45.19085" lon="5.82757">
        <ele>362.8</ele>
        <time>2021-04-10T07:13:45Z</time>
      </trkpt>
      <trkpt lat="45.19085" lon="5.82758">
        <ele>363.2</ele>
        <time>2021-04-10T07:13:46Z</time>
      </trkpt>
      <trkpt lat="45.19085" lon="5.82759">
        <ele>363.4</ele>
        <time>2021-04-10T07:13:47Z</time>
      </trkpt>
      <trkpt lat="45.19085" lon="5.82761">
        <ele>363.6</ele>
        <time>2021-04-10T07:13:48Z</time>
      </trkpt>
      <trkpt lat="45.19084" lon="5.82762">
        <ele>363.6</ele>
        <time>2021-04-10T07:13:49Z</time>
      </trkpt>
      <trkpt lat="45.19084" lon="5.82763">
        <ele>363.8</ele>
        <time>2021-04-10T07:13:50Z</time>
      </trkpt>
      <trkpt lat="45.19084" lon="5.82764">
        <ele>364</ele>
        <time>2021-04-10T07:13:51Z</time>
      </trkpt>
      <trkpt lat="45.19084" lon="5.82765">
        <ele>364</ele>
        <time>2021-04-10T07:13:52Z</time>
      </trkpt>
      <trkpt lat="45.19084" lon="5.82766">
        <ele>364.2</ele>
        <time>2021-04-10T07:13:53Z</time>
      </trkpt>
      <trkpt lat="45.19084" lon="5.82767">
        <ele>364.2</ele>
        <time>2021-04-10T07:13:54Z</time>
      </trkpt>
      <trkpt lat="45.19084" lon="5.82768">
        <ele>364.4</ele>
        <time>2021-04-10T07:13:55Z</time>
      </trkpt>
      <trkpt lat="45.19084" lon="5.82769">
        <ele>364.4</ele>
        <time>2021-04-10T07:13:56Z</time>
      </trkpt>
      <trkpt lat="45.19084" lon="5.8277">
        <ele>364.6</ele>
        <time>2021-04-10T07:13:57Z</time>
      </trkpt>
      <trkpt lat="45.19084" lon="5.82771">
        <ele>364.8</ele>
        <time>2021-04-10T07:13:58Z</time>
      </trkpt>
      <trkpt lat="45.19084" lon="5.82772">
        <ele>364.8</ele>
        <time>2021-04-10T07:13:59Z</time>
      </trkpt>
      <trkpt lat="45.19084" lon="5.82773">
        <ele>365</ele>
        <time>2021-04-10T07:14:00Z</time>
      </trkpt>
      <trkpt lat="45.19084" lon="5.82775">
        <ele>365.4</ele>
        <time>2021-04-10T07:14:01Z</time>
      </trkpt>
      <trkpt lat="45.19084" lon="5.82776">
        <ele>365.6</ele>
        <time>2021-04-10T07:14:02Z</time>
      </trkpt>
      <trkpt lat="45.19084" lon="5.82777">
        <ele>366</ele>
        <time>2021-04-10T07:14:03Z</time>
      </trkpt>
      <trkpt lat="45.19084" lon="5.82778">
        <ele>366.2</ele>
        <time>2021-04-10T07:14:04Z</time>
      </trkpt>
      <trkpt lat="45.19085" lon="5.82779">
        <ele>366.4</ele>
        <time>2021-04-10T07:14:05Z</time>
      </trkpt>
      <trkpt lat="45.19085" lon="5.8278">
        <ele>366.6</ele>
        <time>2021-04-10T07:14:06Z</time>
      </trkpt>
      <trkpt lat="45.19085" lon="5.82781">
        <ele>366.8</ele>
        <time>2021-04-10T07:14:07Z</time>
      </trkpt>
      <trkpt lat="45.19085" lon="5.82782">
        <ele>367</ele>
        <time>2021-04-10T07:14:08Z</time>
      </trkpt>
      <trkpt lat="45.19086" lon="5.82783">
        <ele>367.2</ele>
        <time>2021-04-10T07:14:09Z</time>
      </trkpt>
      <trkpt lat="45.19086" lon="5.82784">
        <ele>367.4</ele>
        <time>2021-04-10T07:14:10Z</time>
      </trkpt>
      <trkpt lat="45.19086" lon="5.82785">
        <ele>367.6</ele>
        <time>2021-04-10T07:14:11Z</time>
      </trkpt>
      <trkpt lat="45.19086" lon="5.82786">
        <ele>367.8</ele>
        <time>2021-04-10T07:14:12Z</time>
      </trkpt>
      <trkpt lat="45.19086" lon="5.82787">
        <ele>368</ele>
        <time>2021-04-10T07:14:13Z</time>
      </trkpt>
      <trkpt lat="45.19087" lon="5.82788">
        <ele>368.4</ele>
        <time>2021-04-10T07:14:14Z</time>
      </trkpt>
      <trkpt lat="45.19087" lon="5.82789">
        <ele>368.6</ele>
        <time>2021-04-10T07:14:15Z</time>
      </trkpt>
      <trkpt lat="45.19088" lon="5.8279">
        <ele>369</ele>
        <time>2021-04-10T07:14:16Z</time>
      </trkpt>
      <trkpt lat="45.19088" lon="5.82791">
        <ele>369</ele>
        <time>2021-04-10T07:14:17Z</time>
      </trkpt>
      <trkpt lat="45.19089" lon="5.82792">
        <ele>369.2</ele>
        <time>2021-04-10T07:14:18Z</time>
      </trkpt>
      <trkpt lat="45.19089" lon="5.82793">
        <ele>369.6</ele>
        <time>2021-04-10T07:14:19Z</time>
      </trkpt>
      <trkpt lat="45.1909" lon="5.82794">
        <ele>370</ele>
        <time>2021-04-10T07:14:20Z</time>
      </trkpt>
      <trkpt lat="45.1909" lon="5.82795">
        <ele>370.4</ele>
        <time>2021-04-10T07:14:21Z</time>
      </trkpt>
      <trkpt lat="45.1909" lon="5.82796">
        <ele>370.6</ele>
        <time>2021-04-10T07:14:22Z</time>
      </trkpt>
      <trkpt lat="45.19091" lon="5.82796">
        <ele>370.8</ele>
        <time>2021-04-10T07:14:23Z</time>
      </trkpt>
      <trkpt lat="45.19091" lon="5.82797">
        <ele>371</ele>
        <time>2021-04-10T07:14:24Z</time>
      </trkpt>
      <trkpt lat="45.19091" lon="5.82799">
        <ele>371.2</ele>
        <time>2021-04-10T07:14:25Z</time>
      </trkpt>
      <trkpt lat="45.19092" lon="5.82801">
        <ele>371.4</ele>
        <time>2021-04-10T07:14:26Z</time>
      </trkpt>
      <trkpt lat="45.19092" lon="5.82802">
        <ele>371.4</ele>
        <time>2021-04-10T07:14:27Z</time>
      </trkpt>
      <trkpt lat="45.19092" lon="5.82804">
        <ele>371.6</ele>
        <time>2021-04-10T07:14:28Z</time>
      </trkpt>
      <trkpt lat="45.19092" lon="5.82805">
        <ele>371.8</ele>
        <time>2021-04-10T07:14:29Z</time>
      </trkpt>
      <trkpt lat="45.19092" lon="5.82807">
        <ele>372</ele>
        <time>2021-04-10T07:14:30Z</time>
      </trkpt>
      <trkpt lat="45.19092" lon="5.82808">
        <ele>372.4</ele>
        <time>2021-04-10T07:14:31Z</time>
      </trkpt>
      <trkpt lat="45.19092" lon="5.8281">
        <ele>372.6</ele>
        <time>2021-04-10T07:14:32Z</time>
      </trkpt>
      <trkpt lat="45.19092" lon="5.82811">
        <ele>373</ele>
        <time>2021-04-10T07:14:33Z</time>
      </trkpt>
      <trkpt lat="45.19093" lon="5.82812">
        <ele>373.2</ele>
        <time>2021-04-10T07:14:34Z</time>
      </trkpt>
      <trkpt lat="45.19094" lon="5.82814">
        <ele>373.4</ele>
        <time>2021-04-10T07:14:35Z</time>
      </trkpt>
      <trkpt lat="45.19094" lon="5.82815">
        <ele>373.8</ele>
        <time>2021-04-10T07:14:36Z</time>
      </trkpt>
      <trkpt lat="45.19095" lon="5.82816">
        <ele>374.6</ele>
        <time>2021-04-10T07:14:37Z</time>
      </trkpt>
      <trkpt lat="45.19096" lon="5.82817">
        <ele>374.8</ele>
        <time>2021-04-10T07:14:38Z</time>
      </trkpt>
      <trkpt lat="45.19096" lon="5.82818">
        <ele>374.6</ele>
        <time>2021-04-10T07:14:39Z</time>
      </trkpt>
      <trkpt lat="45.19097" lon="5.82819">
        <ele>374.8</ele>
        <time>2021-04-10T07:14:40Z</time>
      </trkpt>
      <trkpt lat="45.19098" lon="5.8282">
        <ele>375</ele>
        <time>2021-04-10T07:14:41Z</time>
      </trkpt>
      <trkpt lat="45.19098" lon="5.82821">
        <ele>375</ele>
        <time>2021-04-10T07:14:42Z</time>
      </trkpt>
      <trkpt lat="45.19099" lon="5.82823">
        <ele>375.2</ele>
        <time>2021-04-10T07:14:43Z</time>
      </trkpt>
      <trkpt lat="45.19099" lon="5.82825">
        <ele>375.4</ele>
        <time>2021-04-10T07:14:44Z</time>
      </trkpt>
      <trkpt lat="45.191" lon="5.82827">
        <ele>375.4</ele>
        <time>2021-04-10T07:14:45Z</time>
      </trkpt>
      <trkpt lat="45.191" lon="5.82828">
        <ele>375.6</ele>
        <time>2021-04-10T07:14:46Z</time>
      </trkpt>
      <trkpt lat="45.191" lon="5.8283">
        <ele>375.8</ele>
        <time>2021-04-10T07:14:47Z</time>
      </trkpt>
      <trkpt lat="45.19101" lon="5.82832">
        <ele>376</ele>
        <time>2021-04-10T07:14:48Z</time>
      </trkpt>
      <trkpt lat="45.19101" lon="5.82834">
        <ele>376</ele>
        <time>2021-04-10T07:14:49Z</time>
      </trkpt>
      <trkpt lat="45.19102" lon="5.82836">
        <ele>376.4</ele>
        <time>2021-04-10T07:14:50Z</time>
      </trkpt>
      <trkpt lat="45.19102" lon="5.82837">
        <ele>376.6</ele>
        <time>2021-04-10T07:14:51Z</time>
      </trkpt>
      <trkpt lat="45.19103" lon="5.82839">
        <ele>376.8</ele>
        <time>2021-04-10T07:14:52Z</time>
      </trkpt>
      <trkpt lat="45.19103" lon="5.82841">
        <ele>377</ele>
        <time>2021-04-10T07:14:53Z</time>
      </trkpt>
      <trkpt lat="45.19104" lon="5.82842">
        <ele>377.2</ele>
        <time>2021-04-10T07:14:54Z</time>
      </trkpt>
      <trkpt lat="45.19104" lon="5.82844">
        <ele>377.4</ele>
        <time>2021-04-10T07:14:55Z</time>
      </trkpt>
      <trkpt lat="45.19104" lon="5.82846">
        <ele>377.6</ele>
        <time>2021-04-10T07:14:56Z</time>
      </trkpt>
      <trkpt lat="45.19105" lon="5.82847">
        <ele>377.8</ele>
        <time>2021-04-10T07:14:57Z</time>
      </trkpt>
      <trkpt lat="45.19105" lon="5.82849">
        <ele>378</ele>
        <time>2021-04-10T07:14:58Z</time>
      </trkpt>
      <trkpt lat="45.19106" lon="5.8285">
        <ele>378.2</ele>
        <time>2021-04-10T07:14:59Z</time>
      </trkpt>
      <trkpt lat="45.19106" lon="5.82852">
        <ele>378.4</ele>
        <time>2021-04-10T07:15:00Z</time>
      </trkpt>
      <trkpt lat="45.19106" lon="5.82853">
        <ele>378.6</ele>
        <time>2021-04-10T07:15:01Z</time>
      </trkpt>
      <trkpt lat="45.19107" lon="5.82855">
        <ele>378.8</ele>
        <time>2021-04-10T07:15:02Z</time>
      </trkpt>
      <trkpt lat="45.19107" lon="5.82857">
        <ele>379</ele>
        <time>2021-04-10T07:15:03Z</time>
      </trkpt>
      <trkpt lat="45.19107" lon="5.82858">
        <ele>379.2</ele>
        <time>2021-04-10T07:15:04Z</time>
      </trkpt>
      <trkpt lat="45.19108" lon="5.8286">
        <ele>379.4</ele>
        <time>2021-04-10T07:15:05Z</time>
      </trkpt>
      <trkpt lat="45.19108" lon="5.82862">
        <ele>379.6</ele>
        <time>2021-04-10T07:15:06Z</time>
      </trkpt>
      <trkpt lat="45.19109" lon="5.82864">
        <ele>379.8</ele>
        <time>2021-04-10T07:15:07Z</time>
      </trkpt>
      <trkpt lat="45.19109" lon="5.82866">
        <ele>380</ele>
        <time>2021-04-10T07:15:08Z</time>
      </trkpt>
      <trkpt lat="45.1911" lon="5.82867">
        <ele>380.2</ele>
        <time>2021-04-10T07:15:09Z</time>
      </trkpt>
      <trkpt lat="45.1911" lon="5.82869">
        <ele>380.4</ele>
        <time>2021-04-10T07:15:10Z</time>
      </trkpt>
      <trkpt lat="45.19111" lon="5.82871">
        <ele>380.8</ele>
        <time>2021-04-10T07:15:11Z</time>
      </trkpt>
      <trkpt lat="45.19111" lon="5.82873">
        <ele>381</ele>
        <time>2021-04-10T07:15:12Z</time>
      </trkpt>
      <trkpt lat="45.19112" lon="5.82875">
        <ele>381.2</ele>
        <time>2021-04-10T07:15:13Z</time>
      </trkpt>
      <trkpt lat="45.19113" lon="5.82877">
        <ele>381.4</ele>
        <time>2021-04-10T07:15:14Z</time>
      </trkpt>
      <trkpt lat="45.19114" lon="5.82879">
        <ele>381.8</ele>
        <time>2021-04-10T07:15:15Z</time>
      </trkpt>
      <trkpt lat="45.19115" lon="5.82881">
        <ele>382</ele>
        <time>2021-04-10T07:15:16Z</time>
      </trkpt>
      <trkpt lat="45.19116" lon="5.82883">
        <ele>382</ele>
        <time>2021-04-10T07:15:17Z</time>
      </trkpt>
      <trkpt lat="45.19117" lon="5.82884">
        <ele>382</ele>
        <time>2021-04-10T07:15:18Z</time>
      </trkpt>
      <trkpt lat="45.19117" lon="5.82886">
        <ele>382</ele>
        <time>2021-04-10T07:15:19Z</time>
      </trkpt>
      <trkpt lat="45.19117" lon="5.82887">
        <ele>382.2</ele>
        <time>2021-04-10T07:15:20Z</time>
      </trkpt>
      <trkpt lat="45.19117" lon="5.82888">
        <ele>382.2</ele>
        <time>2021-04-10T07:15:21Z</time>
      </trkpt>
      <trkpt lat="45.19117" lon="5.82889">
        <ele>382.4</ele>
        <time>2021-04-10T07:15:22Z</time>
      </trkpt>
      <trkpt lat="45.19118" lon="5.8289">
        <ele>382.6</ele>
        <time>2021-04-10T07:15:23Z</time>
      </trkpt>
      <trkpt lat="45.19118" lon="5.82891">
        <ele>382.6</ele>
        <time>2021-04-10T07:15:24Z</time>
      </trkpt>
      <trkpt lat="45.19118" lon="5.82892">
        <ele>383</ele>
        <time>2021-04-10T07:15:25Z</time>
      </trkpt>
      <trkpt lat="45.19118" lon="5.82893">
        <ele>383.2</ele>
        <time>2021-04-10T07:15:26Z</time>
      </trkpt>
      <trkpt lat="45.19119" lon="5.82894">
        <ele>383.4</ele>
        <time>2021-04-10T07:15:27Z</time>
      </trkpt>
      <trkpt lat="45.19119" lon="5.82895">
        <ele>383.4</ele>
        <time>2021-04-10T07:15:28Z</time>
      </trkpt>
      <trkpt lat="45.19119" lon="5.82897">
        <ele>383.8</ele>
        <time>2021-04-10T07:15:29Z</time>
      </trkpt>
      <trkpt lat="45.19119" lon="5.82898">
        <ele>384</ele>
        <time>2021-04-10T07:15:30Z</time>
      </trkpt>
      <trkpt lat="45.1912" lon="5.82898">
        <ele>384.4</ele>
        <time>2021-04-10T07:15:31Z</time>
      </trkpt>
      <trkpt lat="45.19121" lon="5.82899">
        <ele>384.6</ele>
        <time>2021-04-10T07:15:32Z</time>
      </trkpt>
      <trkpt lat="45.19121" lon="5.829">
        <ele>385</ele>
        <time>2021-04-10T07:15:33Z</time>
      </trkpt>
      <trkpt lat="45.19122" lon="5.82901">
        <ele>385</ele>
        <time>2021-04-10T07:15:34Z</time>
      </trkpt>
      <trkpt lat="45.19123" lon="5.82901">
        <ele>385.2</ele>
        <time>2021-04-10T07:15:35Z</time>
      </trkpt>
      <trkpt lat="45.19123" lon="5.82902">
        <ele>385.4</ele>
        <time>2021-04-10T07:15:36Z</time>
      </trkpt>
      <trkpt lat="45.19124" lon="5.82903">
        <ele>385.6</ele>
        <time>2021-04-10T07:15:37Z</time>
      </trkpt>
      <trkpt lat="45.19125" lon="5.82904">
        <ele>385.8</ele>
        <time>2021-04-10T07:15:38Z</time>
      </trkpt>
      <trkpt lat="45.19125" lon="5.82904">
        <ele>386</ele>
        <time>2021-04-10T07:15:39Z</time>
      </trkpt>
      <trkpt lat="45.19126" lon="5.82905">
        <ele>386.2</ele>
        <time>2021-04-10T07:15:40Z</time>
      </trkpt>
      <trkpt lat="45.19127" lon="5.82906">
        <ele>386.4</ele>
        <time>2021-04-10T07:15:41Z</time>
      </trkpt>
      <trkpt lat="45.19127" lon="5.82907">
        <ele>386.4</ele>
        <time>2021-04-10T07:15:42Z</time>
      </trkpt>
      <trkpt lat="45.19127" lon="5.82908">
        <ele>386.6</ele>
        <time>2021-04-10T07:15:43Z</time>
      </trkpt>
      <trkpt lat="45.19128" lon="5.82909">
        <ele>387</ele>
        <time>2021-04-10T07:15:44Z</time>
      </trkpt>
      <trkpt lat="45.19128" lon="5.82911">
        <ele>387.2</ele>
        <time>2021-04-10T07:15:45Z</time>
      </trkpt>
      <trkpt lat="45.19129" lon="5.82912">
        <ele>387.6</ele>
        <time>2021-04-10T07:15:46Z</time>
      </trkpt>
      <trkpt lat="45.19129" lon="5.82913">
        <ele>387.8</ele>
        <time>2021-04-10T07:15:47Z</time>
      </trkpt>
      <trkpt lat="45.1913" lon="5.82914">
        <ele>388</ele>
        <time>2021-04-10T07:15:48Z</time>
      </trkpt>
      <trkpt lat="45.1913" lon="5.82915">
        <ele>388.6</ele>
        <time>2021-04-10T07:15:49Z</time>
      </trkpt>
      <trkpt lat="45.19131" lon="5.82916">
        <ele>388.8</ele>
        <time>2021-04-10T07:15:50Z</time>
      </trkpt>
      <trkpt lat="45.19131" lon="5.82918">
        <ele>389</ele>
        <time>2021-04-10T07:15:51Z</time>
      </trkpt>
      <trkpt lat="45.19131" lon="5.82919">
        <ele>389.4</ele>
        <time>2021-04-10T07:15:52Z</time>
      </trkpt>
      <trkpt lat="45.19132" lon="5.82922">
        <ele>389.6</ele>
        <time>2021-04-10T07:15:53Z</time>
      </trkpt>
      <trkpt lat="45.19133" lon="5.82926">
        <ele>389.6</ele>
        <time>2021-04-10T07:15:54Z</time>
      </trkpt>
      <trkpt lat="45.19133" lon="5.82929">
        <ele>389.8</ele>
        <time>2021-04-10T07:15:55Z</time>
      </trkpt>
      <trkpt lat="45.19134" lon="5.82933">
        <ele>390</ele>
        <time>2021-04-10T07:15:56Z</time>
      </trkpt>
      <trkpt lat="45.19134" lon="5.82937">
        <ele>390.2</ele>
        <time>2021-04-10T07:15:57Z</time>
      </trkpt>
      <trkpt lat="45.19135" lon="5.8294">
        <ele>390.4</ele>
        <time>2021-04-10T07:15:58Z</time>
      </trkpt>
      <trkpt lat="45.19136" lon="5.82944">
        <ele>390.6</ele>
        <time>2021-04-10T07:15:59Z</time>
      </trkpt>
      <trkpt lat="45.19136" lon="5.82947">
        <ele>390.8</ele>
        <time>2021-04-10T07:16:00Z</time>
      </trkpt>
      <trkpt lat="45.19137" lon="5.82951">
        <ele>391.2</ele>
        <time>2021-04-10T07:16:01Z</time>
      </trkpt>
      <trkpt lat="45.19137" lon="5.82954">
        <ele>391.4</ele>
        <time>2021-04-10T07:16:02Z</time>
      </trkpt>
      <trkpt lat="45.19138" lon="5.82961">
        <ele>391.8</ele>
        <time>2021-04-10T07:16:03Z</time>
      </trkpt>
      <trkpt lat="45.19138" lon="5.82961">
        <ele>392</ele>
        <time>2021-04-10T07:16:04Z</time>
      </trkpt>
      <trkpt lat="45.19138" lon="5.82961">
        <ele>392.2</ele>
        <time>2021-04-10T07:16:05Z</time>
      </trkpt>
      <trkpt lat="45.19138" lon="5.82961">
        <ele>392.4</ele>
        <time>2021-04-10T07:16:06Z</time>
      </trkpt>
      <trkpt lat="45.19139" lon="5.82964">
        <ele>392.6</ele>
        <time>2021-04-10T07:16:07Z</time>
      </trkpt>
      <trkpt lat="45.19141" lon="5.82967">
        <ele>392.8</ele>
        <time>2021-04-10T07:16:08Z</time>
      </trkpt>
      <trkpt lat="45.19142" lon="5.82969">
        <ele>393</ele>
        <time>2021-04-10T07:16:09Z</time>
      </trkpt>
      <trkpt lat="45.19143" lon="5.82972">
        <ele>393</ele>
        <time>2021-04-10T07:16:10Z</time>
      </trkpt>
      <trkpt lat="45.19144" lon="5.82975">
        <ele>393.4</ele>
        <time>2021-04-10T07:16:11Z</time>
      </trkpt>
      <trkpt lat="45.19145" lon="5.82977">
        <ele>393.6</ele>
        <time>2021-04-10T07:16:12Z</time>
      </trkpt>
      <trkpt lat="45.19146" lon="5.82979">
        <ele>393.8</ele>
        <time>2021-04-10T07:16:13Z</time>
      </trkpt>
      <trkpt lat="45.19146" lon="5.82981">
        <ele>394</ele>
        <time>2021-04-10T07:16:14Z</time>
      </trkpt>
      <trkpt lat="45.19147" lon="5.82983">
        <ele>394.2</ele>
        <time>2021-04-10T07:16:15Z</time>
      </trkpt>
      <trkpt lat="45.19148" lon="5.82985">
        <ele>394.6</ele>
        <time>2021-04-10T07:16:16Z</time>
      </trkpt>
      <trkpt lat="45.19148" lon="5.82987">
        <ele>394.8</ele>
        <time>2021-04-10T07:16:17Z</time>
      </trkpt>
      <trkpt lat="45.19149" lon="5.82988">
        <ele>395</ele>
        <time>2021-04-10T07:16:18Z</time>
      </trkpt>
      <trkpt lat="45.19149" lon="5.82989">
        <ele>395.2</ele>
        <time>2021-04-10T07:16:19Z</time>
      </trkpt>
      <trkpt lat="45.1915" lon="5.82991">
        <ele>395.4</ele>
        <time>2021-04-10T07:16:20Z</time>
      </trkpt>
      <trkpt lat="45.1915" lon="5.82992">
        <ele>395.8</ele>
        <time>2021-04-10T07:16:21Z</time>
      </trkpt>
      <trkpt lat="45.19151" lon="5.82993">
        <ele>396.2</ele>
        <time>2021-04-10T07:16:22Z</time>
      </trkpt>
      <trkpt lat="45.19151" lon="5.82995">
        <ele>396.4</ele>
        <time>2021-04-10T07:16:23Z</time>
      </trkpt>
      <trkpt lat="45.19152" lon="5.82996">
        <ele>396.8</ele>
        <time>2021-04-10T07:16:24Z</time>
      </trkpt>
      <trkpt lat="45.19152" lon="5.82997">
        <ele>397</ele>
        <time>2021-04-10T07:16:25Z</time>
      </trkpt>
      <trkpt lat="45.19152" lon="5.82999">
        <ele>397.4</ele>
        <time>2021-04-10T07:16:26Z</time>
      </trkpt>
      <trkpt lat="45.19151" lon="5.83">
        <ele>397.6</ele>
        <time>2021-04-10T07:16:27Z</time>
      </trkpt>
      <trkpt lat="45.1915" lon="5.83001">
        <ele>397.8</ele>
        <time>2021-04-10T07:16:28Z</time>
      </trkpt>
      <trkpt lat="45.19149" lon="5.83003">
        <ele>398</ele>
        <time>2021-04-10T07:16:29Z</time>
      </trkpt>
      <trkpt lat="45.19148" lon="5.83004">
        <ele>398</ele>
        <time>2021-04-10T07:16:30Z</time>
      </trkpt>
      <trkpt lat="45.19147" lon="5.83006">
        <ele>398</ele>
        <time>2021-04-10T07:16:31Z</time>
      </trkpt>
      <trkpt lat="45.19146" lon="5.83007">
        <ele>398</ele>
        <time>2021-04-10T07:16:32Z</time>
      </trkpt>
      <trkpt lat="45.19145" lon="5.83008">
        <ele>397.8</ele>
        <time>2021-04-10T07:16:33Z</time>
      </trkpt>
      <trkpt lat="45.19144" lon="5.8301">
        <ele>398</ele>
        <time>2021-04-10T07:16:34Z</time>
      </trkpt>
      <trkpt lat="45.19143" lon="5.83012">
        <ele>397.8</ele>
        <time>2021-04-10T07:16:35Z</time>
      </trkpt>
      <trkpt lat="45.19142" lon="5.83014">
        <ele>398.4</ele>
        <time>2021-04-10T07:16:36Z</time>
      </trkpt>
      <trkpt lat="45.19141" lon="5.83015">
        <ele>398.6</ele>
        <time>2021-04-10T07:16:37Z</time>
      </trkpt>
      <trkpt lat="45.1914" lon="5.83017">
        <ele>398.8</ele>
        <time>2021-04-10T07:16:38Z</time>
      </trkpt>
      <trkpt lat="45.19139" lon="5.83019">
        <ele>399</ele>
        <time>2021-04-10T07:16:39Z</time>
      </trkpt>
      <trkpt lat="45.19138" lon="5.8302">
        <ele>399.2</ele>
        <time>2021-04-10T07:16:40Z</time>
      </trkpt>
      <trkpt lat="45.19137" lon="5.83022">
        <ele>399.4</ele>
        <time>2021-04-10T07:16:41Z</time>
      </trkpt>
      <trkpt lat="45.19137" lon="5.83024">
        <ele>399.8</ele>
        <time>2021-04-10T07:16:42Z</time>
      </trkpt>
      <trkpt lat="45.19136" lon="5.83025">
        <ele>400.2</ele>
        <time>2021-04-10T07:16:43Z</time>
      </trkpt>
      <trkpt lat="45.19135" lon="5.83027">
        <ele>400.6</ele>
        <time>2021-04-10T07:16:44Z</time>
      </trkpt>
      <trkpt lat="45.19135" lon="5.83029">
        <ele>400.8</ele>
        <time>2021-04-10T07:16:45Z</time>
      </trkpt>
      <trkpt lat="45.19134" lon="5.83031">
        <ele>401.2</ele>
        <time>2021-04-10T07:16:46Z</time>
      </trkpt>
      <trkpt lat="45.19133" lon="5.83033">
        <ele>401.2</ele>
        <time>2021-04-10T07:16:47Z</time>
      </trkpt>
      <trkpt lat="45.19132" lon="5.83035">
        <ele>401.6</ele>
        <time>2021-04-10T07:16:48Z</time>
      </trkpt>
      <trkpt lat="45.19131" lon="5.83037">
        <ele>401.6</ele>
        <time>2021-04-10T07:16:49Z</time>
      </trkpt>
      <trkpt lat="45.1913" lon="5.83039">
        <ele>401.8</ele>
        <time>2021-04-10T07:16:50Z</time>
      </trkpt>
      <trkpt lat="45.19129" lon="5.83041">
        <ele>401.8</ele>
        <time>2021-04-10T07:16:51Z</time>
      </trkpt>
      <trkpt lat="45.19128" lon="5.83043">
        <ele>402</ele>
        <time>2021-04-10T07:16:52Z</time>
      </trkpt>
      <trkpt lat="45.19128" lon="5.83044">
        <ele>402</ele>
        <time>2021-04-10T07:16:53Z</time>
      </trkpt>
      <trkpt lat="45.19127" lon="5.83046">
        <ele>402.2</ele>
        <time>2021-04-10T07:16:54Z</time>
      </trkpt>
      <trkpt lat="45.19126" lon="5.83048">
        <ele>402.2</ele>
        <time>2021-04-10T07:16:55Z</time>
      </trkpt>
      <trkpt lat="45.19126" lon="5.83049">
        <ele>402.2</ele>
        <time>2021-04-10T07:16:56Z</time>
      </trkpt>
      <trkpt lat="45.19125" lon="5.83051">
        <ele>402.2</ele>
        <time>2021-04-10T07:16:57Z</time>
      </trkpt>
      <trkpt lat="45.19124" lon="5.83053">
        <ele>402.6</ele>
        <time>2021-04-10T07:16:58Z</time>
      </trkpt>
      <trkpt lat="45.19123" lon="5.83054">
        <ele>402.4</ele>
        <time>2021-04-10T07:16:59Z</time>
      </trkpt>
      <trkpt lat="45.19122" lon="5.83056">
        <ele>402.6</ele>
        <time>2021-04-10T07:17:00Z</time>
      </trkpt>
      <trkpt lat="45.1912" lon="5.83058">
        <ele>402.6</ele>
        <time>2021-04-10T07:17:01Z</time>
      </trkpt>
      <trkpt lat="45.19118" lon="5.8306">
        <ele>403</ele>
        <time>2021-04-10T07:17:02Z</time>
      </trkpt>
      <trkpt lat="45.19117" lon="5.83063">
        <ele>402.6</ele>
        <time>2021-04-10T07:17:03Z</time>
      </trkpt>
      <trkpt lat="45.19115" lon="5.83065">
        <ele>402.6</ele>
        <time>2021-04-10T07:17:04Z</time>
      </trkpt>
      <trkpt lat="45.19113" lon="5.83067">
        <ele>402.4</ele>
        <time>2021-04-10T07:17:05Z</time>
      </trkpt>
      <trkpt lat="45.19111" lon="5.83069">
        <ele>402.6</ele>
        <time>2021-04-10T07:17:06Z</time>
      </trkpt>
      <trkpt lat="45.1911" lon="5.83071">
        <ele>402.4</ele>
        <time>2021-04-10T07:17:07Z</time>
      </trkpt>
      <trkpt lat="45.19104" lon="5.83076">
        <ele>403</ele>
        <time>2021-04-10T07:17:08Z</time>
      </trkpt>
      <trkpt lat="45.19104" lon="5.83076">
        <ele>403.2</ele>
        <time>2021-04-10T07:17:09Z</time>
      </trkpt>
      <trkpt lat="45.19104" lon="5.83076">
        <ele>403.6</ele>
        <time>2021-04-10T07:17:10Z</time>
      </trkpt>
      <trkpt lat="45.19104" lon="5.83077">
        <ele>403.8</ele>
        <time>2021-04-10T07:17:11Z</time>
      </trkpt>
      <trkpt lat="45.19104" lon="5.83078">
        <ele>404.2</ele>
        <time>2021-04-10T07:17:12Z</time>
      </trkpt>
      <trkpt lat="45.19104" lon="5.83079">
        <ele>404.2</ele>
        <time>2021-04-10T07:17:13Z</time>
      </trkpt>
      <trkpt lat="45.19104" lon="5.83081">
        <ele>404.4</ele>
        <time>2021-04-10T07:17:14Z</time>
      </trkpt>
      <trkpt lat="45.19104" lon="5.83082">
        <ele>404.4</ele>
        <time>2021-04-10T07:17:15Z</time>
      </trkpt>
      <trkpt lat="45.19104" lon="5.83083">
        <ele>404.6</ele>
        <time>2021-04-10T07:17:16Z</time>
      </trkpt>
      <trkpt lat="45.19104" lon="5.83084">
        <ele>404.6</ele>
        <time>2021-04-10T07:17:17Z</time>
      </trkpt>
      <trkpt lat="45.19104" lon="5.83086">
        <ele>404.8</ele>
        <time>2021-04-10T07:17:18Z</time>
      </trkpt>
      <trkpt lat="45.19104" lon="5.83087">
        <ele>405.2</ele>
        <time>2021-04-10T07:17:19Z</time>
      </trkpt>
      <trkpt lat="45.19105" lon="5.83088">
        <ele>405.4</ele>
        <time>2021-04-10T07:17:20Z</time>
      </trkpt>
      <trkpt lat="45.19105" lon="5.83089">
        <ele>405.6</ele>
        <time>2021-04-10T07:17:21Z</time>
      </trkpt>
      <trkpt lat="45.19105" lon="5.8309">
        <ele>405.8</ele>
        <time>2021-04-10T07:17:22Z</time>
      </trkpt>
      <trkpt lat="45.19106" lon="5.83091">
        <ele>406</ele>
        <time>2021-04-10T07:17:23Z</time>
      </trkpt>
      <trkpt lat="45.19107" lon="5.83092">
        <ele>406.4</ele>
        <time>2021-04-10T07:17:24Z</time>
      </trkpt>
      <trkpt lat="45.19108" lon="5.83093">
        <ele>406.6</ele>
        <time>2021-04-10T07:17:25Z</time>
      </trkpt>
      <trkpt lat="45.19109" lon="5.83094">
        <ele>406.8</ele>
        <time>2021-04-10T07:17:26Z</time>
      </trkpt>
      <trkpt lat="45.1911" lon="5.83095">
        <ele>407.2</ele>
        <time>2021-04-10T07:17:27Z</time>
      </trkpt>
      <trkpt lat="45.1911" lon="5.83096">
        <ele>407.4</ele>
        <time>2021-04-10T07:17:28Z</time>
      </trkpt>
      <trkpt lat="45.19111" lon="5.83097">
        <ele>407.6</ele>
        <time>2021-04-10T07:17:29Z</time>
      </trkpt>
      <trkpt lat="45.19112" lon="5.83098">
        <ele>407.6</ele>
        <time>2021-04-10T07:17:30Z</time>
      </trkpt>
      <trkpt lat="45.19113" lon="5.831">
        <ele>407.8</ele>
        <time>2021-04-10T07:17:31Z</time>
      </trkpt>
      <trkpt lat="45.19114" lon="5.83102">
        <ele>408</ele>
        <time>2021-04-10T07:17:32Z</time>
      </trkpt>
      <trkpt lat="45.19114" lon="5.83104">
        <ele>408</ele>
        <time>2021-04-10T07:17:33Z</time>
      </trkpt>
      <trkpt lat="45.19115" lon="5.83106">
        <ele>408</ele>
        <time>2021-04-10T07:17:34Z</time>
      </trkpt>
      <trkpt lat="45.19116" lon="5.83108">
        <ele>408.2</ele>
        <time>2021-04-10T07:17:35Z</time>
      </trkpt>
      <trkpt lat="45.19117" lon="5.83109">
        <ele>408.2</ele>
        <time>2021-04-10T07:17:36Z</time>
      </trkpt>
      <trkpt lat="45.19117" lon="5.83111">
        <ele>408</ele>
        <time>2021-04-10T07:17:37Z</time>
      </trkpt>
      <trkpt lat="45.19118" lon="5.83113">
        <ele>408</ele>
        <time>2021-04-10T07:17:38Z</time>
      </trkpt>
      <trkpt lat="45.19119" lon="5.83115">
        <ele>407.8</ele>
        <time>2021-04-10T07:17:39Z</time>
      </trkpt>
      <trkpt lat="45.1912" lon="5.83116">
        <ele>407.6</ele>
        <time>2021-04-10T07:17:40Z</time>
      </trkpt>
      <trkpt lat="45.19121" lon="5.83118">
        <ele>407.6</ele>
        <time>2021-04-10T07:17:41Z</time>
      </trkpt>
      <trkpt lat="45.19122" lon="5.83119">
        <ele>407.4</ele>
        <time>2021-04-10T07:17:42Z</time>
      </trkpt>
      <trkpt lat="45.19123" lon="5.83121">
        <ele>407.2</ele>
        <time>2021-04-10T07:17:43Z</time>
      </trkpt>
      <trkpt lat="45.19124" lon="5.83123">
        <ele>407.2</ele>
        <time>2021-04-10T07:17:44Z</time>
      </trkpt>
      <trkpt lat="45.19124" lon="5.83124">
        <ele>407</ele>
        <time>2021-04-10T07:17:45Z</time>
      </trkpt>
      <trkpt lat="45.19125" lon="5.83126">
        <ele>406.8</ele>
        <time>2021-04-10T07:17:46Z</time>
      </trkpt>
      <trkpt lat="45.19126" lon="5.83127">
        <ele>406.4</ele>
        <time>2021-04-10T07:17:47Z</time>
      </trkpt>
      <trkpt lat="45.19126" lon="5.83129">
        <ele>406</ele>
        <time>2021-04-10T07:17:48Z</time>
      </trkpt>
      <trkpt lat="45.19127" lon="5.8313">
        <ele>406</ele>
        <time>2021-04-10T07:17:49Z</time>
      </trkpt>
      <trkpt lat="45.19127" lon="5.83132">
        <ele>405.8</ele>
        <time>2021-04-10T07:17:50Z</time>
      </trkpt>
      <trkpt lat="45.19128" lon="5.83133">
        <ele>405.6</ele>
        <time>2021-04-10T07:17:51Z</time>
      </trkpt>
      <trkpt lat="45.19129" lon="5.83135">
        <ele>405.2</ele>
        <time>2021-04-10T07:17:52Z</time>
      </trkpt>
      <trkpt lat="45.19129" lon="5.83137">
        <ele>404.8</ele>
        <time>2021-04-10T07:17:53Z</time>
      </trkpt>
      <trkpt lat="45.1913" lon="5.83139">
        <ele>404.8</ele>
        <time>2021-04-10T07:17:54Z</time>
      </trkpt>
      <trkpt lat="45.19131" lon="5.83141">
        <ele>404.6</ele>
        <time>2021-04-10T07:17:55Z</time>
      </trkpt>
      <trkpt lat="45.19132" lon="5.83144">
        <ele>404.8</ele>
        <time>2021-04-10T07:17:56Z</time>
      </trkpt>
      <trkpt lat="45.19133" lon="5.83146">
        <ele>404.6</ele>
        <time>2021-04-10T07:17:57Z</time>
      </trkpt>
      <trkpt lat="45.19131" lon="5.83152">
        <ele>404.6</ele>
        <time>2021-04-10T07:17:58Z</time>
      </trkpt>
      <trkpt lat="45.19128" lon="5.83158">
        <ele>404.2</ele>
        <time>2021-04-10T07:17:59Z</time>
      </trkpt>
      <trkpt lat="45.19126" lon="5.83164">
        <ele>404</ele>
        <time>2021-04-10T07:18:00Z</time>
      </trkpt>
      <trkpt lat="45.19124" lon="5.83169">
        <ele>403.6</ele>
        <time>2021-04-10T07:18:01Z</time>
      </trkpt>
      <trkpt lat="45.19122" lon="5.83175">
        <ele>403.4</ele>
        <time>2021-04-10T07:18:02Z</time>
      </trkpt>
      <trkpt lat="45.19114" lon="5.83187">
        <ele>403</ele>
        <time>2021-04-10T07:18:03Z</time>
      </trkpt>
      <trkpt lat="45.19114" lon="5.83187">
        <ele>403</ele>
        <time>2021-04-10T07:18:04Z</time>
      </trkpt>
      <trkpt lat="45.19114" lon="5.83187">
        <ele>402.6</ele>
        <time>2021-04-10T07:18:05Z</time>
      </trkpt>
      <trkpt lat="45.19114" lon="5.83187">
        <ele>402.2</ele>
        <time>2021-04-10T07:18:06Z</time>
      </trkpt>
      <trkpt lat="45.19115" lon="5.83187">
        <ele>402.4</ele>
        <time>2021-04-10T07:18:07Z</time>
      </trkpt>
      <trkpt lat="45.19116" lon="5.83187">
        <ele>402.4</ele>
        <time>2021-04-10T07:18:08Z</time>
      </trkpt>
      <trkpt lat="45.19117" lon="5.83187">
        <ele>402</ele>
        <time>2021-04-10T07:18:09Z</time>
      </trkpt>
      <trkpt lat="45.19118" lon="5.83187">
        <ele>402</ele>
        <time>2021-04-10T07:18:10Z</time>
      </trkpt>
      <trkpt lat="45.19118" lon="5.83187">
        <ele>402</ele>
        <time>2021-04-10T07:18:11Z</time>
      </trkpt>
      <trkpt lat="45.19119" lon="5.83187">
        <ele>402</ele>
        <time>2021-04-10T07:18:12Z</time>
      </trkpt>
      <trkpt lat="45.1912" lon="5.83187">
        <ele>402</ele>
        <time>2021-04-10T07:18:13Z</time>
      </trkpt>
      <trkpt lat="45.19121" lon="5.83188">
        <ele>402</ele>
        <time>2021-04-10T07:18:14Z</time>
      </trkpt>
      <trkpt lat="45.19122" lon="5.83188">
        <ele>402</ele>
        <time>2021-04-10T07:18:15Z</time>
      </trkpt>
      <trkpt lat="45.19123" lon="5.83188">
        <ele>402.2</ele>
        <time>2021-04-10T07:18:16Z</time>
      </trkpt>
      <trkpt lat="45.19124" lon="5.83188">
        <ele>402.4</ele>
        <time>2021-04-10T07:18:17Z</time>
      </trkpt>
      <trkpt lat="45.19125" lon="5.83188">
        <ele>402.6</ele>
        <time>2021-04-10T07:18:18Z</time>
      </trkpt>
      <trkpt lat="45.19126" lon="5.83187">
        <ele>402.8</ele>
        <time>2021-04-10T07:18:19Z</time>
      </trkpt>
      <trkpt lat="45.19126" lon="5.83186">
        <ele>403</ele>
        <time>2021-04-10T07:18:20Z</time>
      </trkpt>
      <trkpt lat="45.19127" lon="5.83185">
        <ele>403.2</ele>
        <time>2021-04-10T07:18:21Z</time>
      </trkpt>
      <trkpt lat="45.19128" lon="5.83185">
        <ele>403.2</ele>
        <time>2021-04-10T07:18:22Z</time>
      </trkpt>
      <trkpt lat="45.19128" lon="5.83184">
        <ele>403.4</ele>
        <time>2021-04-10T07:18:23Z</time>
      </trkpt>
      <trkpt lat="45.19129" lon="5.83183">
        <ele>403.4</ele>
        <time>2021-04-10T07:18:24Z</time>
      </trkpt>
      <trkpt lat="45.1913" lon="5.83182">
        <ele>403.4</ele>
        <time>2021-04-10T07:18:25Z</time>
      </trkpt>
      <trkpt lat="45.19131" lon="5.83181">
        <ele>403.4</ele>
        <time>2021-04-10T07:18:26Z</time>
      </trkpt>
      <trkpt lat="45.19131" lon="5.8318">
        <ele>403.2</ele>
        <time>2021-04-10T07:18:27Z</time>
      </trkpt>
      <trkpt lat="45.19132" lon="5.8318">
        <ele>403.2</ele>
        <time>2021-04-10T07:18:28Z</time>
      </trkpt>
      <trkpt lat="45.19133" lon="5.83179">
        <ele>403</ele>
        <time>2021-04-10T07:18:29Z</time>
      </trkpt>
      <trkpt lat="45.19133" lon="5.83178">
        <ele>402</ele>
        <time>2021-04-10T07:18:30Z</time>
      </trkpt>
      <trkpt lat="45.19133" lon="5.83175">
        <ele>401.6</ele>
        <time>2021-04-10T07:18:31Z</time>
      </trkpt>
      <trkpt lat="45.19133" lon="5.83173">
        <ele>401.2</ele>
        <time>2021-04-10T07:18:32Z</time>
      </trkpt>
      <trkpt lat="45.19133" lon="5.8317">
        <ele>400.6</ele>
        <time>2021-04-10T07:18:33Z</time>
      </trkpt>
      <trkpt lat="45.19132" lon="5.83167">
        <ele>400.2</ele>
        <time>2021-04-10T07:18:34Z</time>
      </trkpt>
      <trkpt lat="45.19132" lon="5.83164">
        <ele>399.6</ele>
        <time>2021-04-10T07:18:35Z</time>
      </trkpt>
      <trkpt lat="45.19133" lon="5.83162">
        <ele>399</ele>
        <time>2021-04-10T07:18:36Z</time>
      </trkpt>
      <trkpt lat="45.19133" lon="5.8316">
        <ele>398.4</ele>
        <time>2021-04-10T07:18:37Z</time>
      </trkpt>
      <trkpt lat="45.19134" lon="5.83157">
        <ele>398.2</ele>
        <time>2021-04-10T07:18:38Z</time>
      </trkpt>
      <trkpt lat="45.19135" lon="5.83155">
        <ele>397.6</ele>
        <time>2021-04-10T07:18:39Z</time>
      </trkpt>
      <trkpt lat="45.19136" lon="5.83153">
        <ele>396.8</ele>
        <time>2021-04-10T07:18:40Z</time>
      </trkpt>
      <trkpt lat="45.19136" lon="5.83151">
        <ele>396.6</ele>
        <time>2021-04-10T07:18:41Z</time>
      </trkpt>
      <trkpt lat="45.19138" lon="5.83148">
        <ele>395.8</ele>
        <time>2021-04-10T07:18:42Z</time>
      </trkpt>
      <trkpt lat="45.19139" lon="5.83146">
        <ele>395.4</ele>
        <time>2021-04-10T07:18:43Z</time>
      </trkpt>
      <trkpt lat="45.19141" lon="5.83144">
        <ele>395</ele>
        <time>2021-04-10T07:18:44Z</time>
      </trkpt>
      <trkpt lat="45.19142" lon="5.83142">
        <ele>394.8</ele>
        <time>2021-04-10T07:18:45Z</time>
      </trkpt>
      <trkpt lat="45.19143" lon="5.8314">
        <ele>395.2</ele>
        <time>2021-04-10T07:18:46Z</time>
      </trkpt>
      <trkpt lat="45.1915" lon="5.83135">
        <ele>395.2</ele>
        <time>2021-04-10T07:18:47Z</time>
      </trkpt>
      <trkpt lat="45.19157" lon="5.83129">
        <ele>395.6</ele>
        <time>2021-04-10T07:18:48Z</time>
      </trkpt>
      <trkpt lat="45.19158" lon="5.83129">
        <ele>395</ele>
        <time>2021-04-10T07:18:49Z</time>
      </trkpt>
      <trkpt lat="45.19164" lon="5.83126">
        <ele>395</ele>
        <time>2021-04-10T07:18:50Z</time>
      </trkpt>
      <trkpt lat="45.19168" lon="5.83124">
        <ele>394.8</ele>
        <time>2021-04-10T07:18:51Z</time>
      </trkpt>
      <trkpt lat="45.19171" lon="5.83123">
        <ele>394.8</ele>
        <time>2021-04-10T07:18:52Z</time>
      </trkpt>
      <trkpt lat="45.19173" lon="5.83122">
        <ele>395</ele>
        <time>2021-04-10T07:18:53Z</time>
      </trkpt>
      <trkpt lat="45.19175" lon="5.83122">
        <ele>395.4</ele>
        <time>2021-04-10T07:18:54Z</time>
      </trkpt>
      <trkpt lat="45.19177" lon="5.83121">
        <ele>395.4</ele>
        <time>2021-04-10T07:18:55Z</time>
      </trkpt>
      <trkpt lat="45.19177" lon="5.83121">
        <ele>395.8</ele>
        <time>2021-04-10T07:18:56Z</time>
      </trkpt>
      <trkpt lat="45.19177" lon="5.83121">
        <ele>396</ele>
        <time>2021-04-10T07:18:57Z</time>
      </trkpt>
      <trkpt lat="45.19177" lon="5.83121">
        <ele>396.4</ele>
        <time>2021-04-10T07:18:58Z</time>
      </trkpt>
      <trkpt lat="45.19178" lon="5.83121">
        <ele>397.2</ele>
        <time>2021-04-10T07:18:59Z</time>
      </trkpt>
      <trkpt lat="45.19179" lon="5.83121">
        <ele>397.6</ele>
        <time>2021-04-10T07:19:00Z</time>
      </trkpt>
      <trkpt lat="45.1918" lon="5.83121">
        <ele>398.4</ele>
        <time>2021-04-10T07:19:01Z</time>
      </trkpt>
      <trkpt lat="45.19182" lon="5.83121">
        <ele>398.8</ele>
        <time>2021-04-10T07:19:02Z</time>
      </trkpt>
      <trkpt lat="45.19183" lon="5.83121">
        <ele>399.4</ele>
        <time>2021-04-10T07:19:03Z</time>
      </trkpt>
      <trkpt lat="45.19184" lon="5.83121">
        <ele>399.6</ele>
        <time>2021-04-10T07:19:04Z</time>
      </trkpt>
      <trkpt lat="45.19186" lon="5.83121">
        <ele>400</ele>
        <time>2021-04-10T07:19:05Z</time>
      </trkpt>
      <trkpt lat="45.19187" lon="5.83121">
        <ele>400.2</ele>
        <time>2021-04-10T07:19:06Z</time>
      </trkpt>
      <trkpt lat="45.19189" lon="5.83121">
        <ele>400.6</ele>
        <time>2021-04-10T07:19:07Z</time>
      </trkpt>
      <trkpt lat="45.1919" lon="5.83122">
        <ele>400.8</ele>
        <time>2021-04-10T07:19:08Z</time>
      </trkpt>
      <trkpt lat="45.19192" lon="5.83122">
        <ele>401.2</ele>
        <time>2021-04-10T07:19:09Z</time>
      </trkpt>
      <trkpt lat="45.19193" lon="5.83122">
        <ele>401.2</ele>
        <time>2021-04-10T07:19:10Z</time>
      </trkpt>
      <trkpt lat="45.19195" lon="5.83123">
        <ele>401.6</ele>
        <time>2021-04-10T07:19:11Z</time>
      </trkpt>
      <trkpt lat="45.19196" lon="5.83123">
        <ele>401.6</ele>
        <time>2021-04-10T07:19:12Z</time>
      </trkpt>
      <trkpt lat="45.19198" lon="5.83123">
        <ele>401.6</ele>
        <time>2021-04-10T07:19:13Z</time>
      </trkpt>
      <trkpt lat="45.192" lon="5.83123">
        <ele>401</ele>
        <time>2021-04-10T07:19:14Z</time>
      </trkpt>
      <trkpt lat="45.19201" lon="5.83123">
        <ele>401</ele>
        <time>2021-04-10T07:19:15Z</time>
      </trkpt>
      <trkpt lat="45.19203" lon="5.83123">
        <ele>400.8</ele>
        <time>2021-04-10T07:19:16Z</time>
      </trkpt>
      <trkpt lat="45.19205" lon="5.83124">
        <ele>400.6</ele>
        <time>2021-04-10T07:19:17Z</time>
      </trkpt>
      <trkpt lat="45.19207" lon="5.83124">
        <ele>400.6</ele>
        <time>2021-04-10T07:19:18Z</time>
      </trkpt>
      <trkpt lat="45.19208" lon="5.83122">
        <ele>400.6</ele>
        <time>2021-04-10T07:19:19Z</time>
      </trkpt>
      <trkpt lat="45.1921" lon="5.83121">
        <ele>401</ele>
        <time>2021-04-10T07:19:20Z</time>
      </trkpt>
      <trkpt lat="45.19211" lon="5.8312">
        <ele>401.2</ele>
        <time>2021-04-10T07:19:21Z</time>
      </trkpt>
      <trkpt lat="45.19213" lon="5.83119">
        <ele>401.4</ele>
        <time>2021-04-10T07:19:22Z</time>
      </trkpt>
      <trkpt lat="45.19215" lon="5.83118">
        <ele>401.2</ele>
        <time>2021-04-10T07:19:23Z</time>
      </trkpt>
      <trkpt lat="45.19218" lon="5.83116">
        <ele>401.4</ele>
        <time>2021-04-10T07:19:24Z</time>
      </trkpt>
      <trkpt lat="45.1922" lon="5.83115">
        <ele>401.8</ele>
        <time>2021-04-10T07:19:25Z</time>
      </trkpt>
      <trkpt lat="45.19222" lon="5.83115">
        <ele>401.6</ele>
        <time>2021-04-10T07:19:26Z</time>
      </trkpt>
      <trkpt lat="45.19224" lon="5.83114">
        <ele>401.2</ele>
        <time>2021-04-10T07:19:27Z</time>
      </trkpt>
      <trkpt lat="45.19226" lon="5.83113">
        <ele>400.8</ele>
        <time>2021-04-10T07:19:28Z</time>
      </trkpt>
      <trkpt lat="45.19228" lon="5.83113">
        <ele>401.2</ele>
        <time>2021-04-10T07:19:29Z</time>
      </trkpt>
      <trkpt lat="45.1923" lon="5.83112">
        <ele>401</ele>
        <time>2021-04-10T07:19:30Z</time>
      </trkpt>
      <trkpt lat="45.19237" lon="5.83112">
        <ele>401</ele>
        <time>2021-04-10T07:19:31Z</time>
      </trkpt>
      <trkpt lat="45.19238" lon="5.83113">
        <ele>400.4</ele>
        <time>2021-04-10T07:19:32Z</time>
      </trkpt>
      <trkpt lat="45.19239" lon="5.83114">
        <ele>400</ele>
        <time>2021-04-10T07:19:33Z</time>
      </trkpt>
      <trkpt lat="45.19243" lon="5.83116">
        <ele>399.8</ele>
        <time>2021-04-10T07:19:34Z</time>
      </trkpt>
      <trkpt lat="45.19243" lon="5.83116">
        <ele>399.4</ele>
        <time>2021-04-10T07:19:35Z</time>
      </trkpt>
      <trkpt lat="45.19243" lon="5.83116">
        <ele>399.4</ele>
        <time>2021-04-10T07:19:36Z</time>
      </trkpt>
      <trkpt lat="45.19243" lon="5.83116">
        <ele>398.8</ele>
        <time>2021-04-10T07:19:37Z</time>
      </trkpt>
      <trkpt lat="45.19244" lon="5.83117">
        <ele>398.6</ele>
        <time>2021-04-10T07:19:38Z</time>
      </trkpt>
      <trkpt lat="45.19246" lon="5.83118">
        <ele>397.6</ele>
        <time>2021-04-10T07:19:39Z</time>
      </trkpt>
      <trkpt lat="45.19247" lon="5.83119">
        <ele>397</ele>
        <time>2021-04-10T07:19:40Z</time>
      </trkpt>
      <trkpt lat="45.19248" lon="5.8312">
        <ele>396.4</ele>
        <time>2021-04-10T07:19:41Z</time>
      </trkpt>
      <trkpt lat="45.1925" lon="5.8312">
        <ele>396.2</ele>
        <time>2021-04-10T07:19:42Z</time>
      </trkpt>
      <trkpt lat="45.19251" lon="5.83121">
        <ele>395.8</ele>
        <time>2021-04-10T07:19:43Z</time>
      </trkpt>
      <trkpt lat="45.19252" lon="5.83122">
        <ele>395.8</ele>
        <time>2021-04-10T07:19:44Z</time>
      </trkpt>
      <trkpt lat="45.19254" lon="5.83124">
        <ele>395.4</ele>
        <time>2021-04-10T07:19:45Z</time>
      </trkpt>
      <trkpt lat="45.19256" lon="5.83126">
        <ele>395.4</ele>
        <time>2021-04-10T07:19:46Z</time>
      </trkpt>
      <trkpt lat="45.19257" lon="5.83127">
        <ele>395.4</ele>
        <time>2021-04-10T07:19:47Z</time>
      </trkpt>
      <trkpt lat="45.19259" lon="5.83129">
        <ele>395.6</ele>
        <time>2021-04-10T07:19:48Z</time>
      </trkpt>
      <trkpt lat="45.19261" lon="5.83131">
        <ele>395.6</ele>
        <time>2021-04-10T07:19:49Z</time>
      </trkpt>
      <trkpt lat="45.19262" lon="5.83132">
        <ele>396</ele>
        <time>2021-04-10T07:19:50Z</time>
      </trkpt>
      <trkpt lat="45.19264" lon="5.83133">
        <ele>396.2</ele>
        <time>2021-04-10T07:19:51Z</time>
      </trkpt>
      <trkpt lat="45.19266" lon="5.83134">
        <ele>396.4</ele>
        <time>2021-04-10T07:19:52Z</time>
      </trkpt>
      <trkpt lat="45.19267" lon="5.83136">
        <ele>396.4</ele>
        <time>2021-04-10T07:19:53Z</time>
      </trkpt>
      <trkpt lat="45.19269" lon="5.83137">
        <ele>396.4</ele>
        <time>2021-04-10T07:19:54Z</time>
      </trkpt>
      <trkpt lat="45.1927" lon="5.83138">
        <ele>396.2</ele>
        <time>2021-04-10T07:19:55Z</time>
      </trkpt>
      <trkpt lat="45.19271" lon="5.83139">
        <ele>396.2</ele>
        <time>2021-04-10T07:19:56Z</time>
      </trkpt>
      <trkpt lat="45.19272" lon="5.8314">
        <ele>395.8</ele>
        <time>2021-04-10T07:19:57Z</time>
      </trkpt>
      <trkpt lat="45.19273" lon="5.83141">
        <ele>395.4</ele>
        <time>2021-04-10T07:19:58Z</time>
      </trkpt>
      <trkpt lat="45.19278" lon="5.83145">
        <ele>395.2</ele>
        <time>2021-04-10T07:19:59Z</time>
      </trkpt>
      <trkpt lat="45.19278" lon="5.83145">
        <ele>395</ele>
        <time>2021-04-10T07:20:01Z</time>
      </trkpt>
      <trkpt lat="45.19279" lon="5.83147">
        <ele>395</ele>
        <time>2021-04-10T07:20:02Z</time>
      </trkpt>
      <trkpt lat="45.19281" lon="5.83149">
        <ele>395.4</ele>
        <time>2021-04-10T07:20:03Z</time>
      </trkpt>
      <trkpt lat="45.19282" lon="5.83151">
        <ele>395.2</ele>
        <time>2021-04-10T07:20:04Z</time>
      </trkpt>
      <trkpt lat="45.19283" lon="5.83154">
        <ele>395.6</ele>
        <time>2021-04-10T07:20:05Z</time>
      </trkpt>
      <trkpt lat="45.19285" lon="5.83156">
        <ele>395.4</ele>
        <time>2021-04-10T07:20:06Z</time>
      </trkpt>
      <trkpt lat="45.19291" lon="5.83167">
        <ele>395.6</ele>
        <time>2021-04-10T07:20:07Z</time>
      </trkpt>
      <trkpt lat="45.19293" lon="5.83169">
        <ele>395.6</ele>
        <time>2021-04-10T07:20:08Z</time>
      </trkpt>
      <trkpt lat="45.19294" lon="5.83171">
        <ele>396</ele>
        <time>2021-04-10T07:20:09Z</time>
      </trkpt>
      <trkpt lat="45.19295" lon="5.83172">
        <ele>396</ele>
        <time>2021-04-10T07:20:10Z</time>
      </trkpt>
      <trkpt lat="45.19296" lon="5.83174">
        <ele>396.4</ele>
        <time>2021-04-10T07:20:11Z</time>
      </trkpt>
      <trkpt lat="45.19297" lon="5.83176">
        <ele>396.4</ele>
        <time>2021-04-10T07:20:12Z</time>
      </trkpt>
      <trkpt lat="45.19299" lon="5.83177">
        <ele>396.8</ele>
        <time>2021-04-10T07:20:13Z</time>
      </trkpt>
      <trkpt lat="45.193" lon="5.83179">
        <ele>397</ele>
        <time>2021-04-10T07:20:14Z</time>
      </trkpt>
      <trkpt lat="45.19301" lon="5.83181">
        <ele>397.2</ele>
        <time>2021-04-10T07:20:15Z</time>
      </trkpt>
      <trkpt lat="45.19302" lon="5.83182">
        <ele>397.2</ele>
        <time>2021-04-10T07:20:16Z</time>
      </trkpt>
      <trkpt lat="45.19304" lon="5.83184">
        <ele>397</ele>
        <time>2021-04-10T07:20:17Z</time>
      </trkpt>
      <trkpt lat="45.19305" lon="5.83186">
        <ele>396.8</ele>
        <time>2021-04-10T07:20:18Z</time>
      </trkpt>
      <trkpt lat="45.19306" lon="5.83188">
        <ele>397</ele>
        <time>2021-04-10T07:20:19Z</time>
      </trkpt>
      <trkpt lat="45.19307" lon="5.83189">
        <ele>397</ele>
        <time>2021-04-10T07:20:20Z</time>
      </trkpt>
      <trkpt lat="45.19308" lon="5.83191">
        <ele>396.8</ele>
        <time>2021-04-10T07:20:21Z</time>
      </trkpt>
      <trkpt lat="45.1931" lon="5.83193">
        <ele>397.2</ele>
        <time>2021-04-10T07:20:22Z</time>
      </trkpt>
      <trkpt lat="45.19311" lon="5.83194">
        <ele>397.2</ele>
        <time>2021-04-10T07:20:23Z</time>
      </trkpt>
      <trkpt lat="45.19312" lon="5.83196">
        <ele>397.2</ele>
        <time>2021-04-10T07:20:24Z</time>
      </trkpt>
      <trkpt lat="45.19312" lon="5.83196">
        <ele>397</ele>
        <time>2021-04-10T07:20:25Z</time>
      </trkpt>
      <trkpt lat="45.19312" lon="5.83196">
        <ele>397</ele>
        <time>2021-04-10T07:20:26Z</time>
      </trkpt>
      <trkpt lat="45.19312" lon="5.83196">
        <ele>396.8</ele>
        <time>2021-04-10T07:20:27Z</time>
      </trkpt>
      <trkpt lat="45.19312" lon="5.83198">
        <ele>396.6</ele>
        <time>2021-04-10T07:20:28Z</time>
      </trkpt>
      <trkpt lat="45.19312" lon="5.832">
        <ele>396.8</ele>
        <time>2021-04-10T07:20:29Z</time>
      </trkpt>
      <trkpt lat="45.19312" lon="5.83202">
        <ele>396.8</ele>
        <time>2021-04-10T07:20:30Z</time>
      </trkpt>
      <trkpt lat="45.19312" lon="5.83203">
        <ele>396.8</ele>
        <time>2021-04-10T07:20:31Z</time>
      </trkpt>
      <trkpt lat="45.19312" lon="5.83205">
        <ele>397</ele>
        <time>2021-04-10T07:20:32Z</time>
      </trkpt>
      <trkpt lat="45.19312" lon="5.83207">
        <ele>397.2</ele>
        <time>2021-04-10T07:20:33Z</time>
      </trkpt>
      <trkpt lat="45.19312" lon="5.83209">
        <ele>397.4</ele>
        <time>2021-04-10T07:20:34Z</time>
      </trkpt>
      <trkpt lat="45.19312" lon="5.83211">
        <ele>397.4</ele>
        <time>2021-04-10T07:20:35Z</time>
      </trkpt>
      <trkpt lat="45.19313" lon="5.83211">
        <ele>397.8</ele>
        <time>2021-04-10T07:20:37Z</time>
      </trkpt>
      <trkpt lat="45.19314" lon="5.83212">
        <ele>398</ele>
        <time>2021-04-10T07:20:38Z</time>
      </trkpt>
      <trkpt lat="45.19315" lon="5.83212">
        <ele>398</ele>
        <time>2021-04-10T07:20:39Z</time>
      </trkpt>
      <trkpt lat="45.19317" lon="5.83213">
        <ele>398</ele>
        <time>2021-04-10T07:20:40Z</time>
      </trkpt>
      <trkpt lat="45.19318" lon="5.83213">
        <ele>397.8</ele>
        <time>2021-04-10T07:20:41Z</time>
      </trkpt>
      <trkpt lat="45.19319" lon="5.83214">
        <ele>397.4</ele>
        <time>2021-04-10T07:20:42Z</time>
      </trkpt>
      <trkpt lat="45.19321" lon="5.83214">
        <ele>397.6</ele>
        <time>2021-04-10T07:20:43Z</time>
      </trkpt>
      <trkpt lat="45.19322" lon="5.83216">
        <ele>397</ele>
        <time>2021-04-10T07:20:44Z</time>
      </trkpt>
      <trkpt lat="45.19323" lon="5.83219">
        <ele>396.8</ele>
        <time>2021-04-10T07:20:45Z</time>
      </trkpt>
      <trkpt lat="45.19324" lon="5.83221">
        <ele>396.8</ele>
        <time>2021-04-10T07:20:46Z</time>
      </trkpt>
      <trkpt lat="45.19325" lon="5.83223">
        <ele>396.8</ele>
        <time>2021-04-10T07:20:47Z</time>
      </trkpt>
      <trkpt lat="45.19326" lon="5.83225">
        <ele>397.2</ele>
        <time>2021-04-10T07:20:48Z</time>
      </trkpt>
      <trkpt lat="45.19326" lon="5.83226">
        <ele>397.6</ele>
        <time>2021-04-10T07:20:49Z</time>
      </trkpt>
      <trkpt lat="45.19326" lon="5.83227">
        <ele>397.6</ele>
        <time>2021-04-10T07:20:50Z</time>
      </trkpt>
      <trkpt lat="45.19326" lon="5.83228">
        <ele>398</ele>
        <time>2021-04-10T07:20:51Z</time>
      </trkpt>
      <trkpt lat="45.19326" lon="5.83228">
        <ele>398</ele>
        <time>2021-04-10T07:20:52Z</time>
      </trkpt>
      <trkpt lat="45.19326" lon="5.83229">
        <ele>398.2</ele>
        <time>2021-04-10T07:20:53Z</time>
      </trkpt>
      <trkpt lat="45.19326" lon="5.8323">
        <ele>398.4</ele>
        <time>2021-04-10T07:20:54Z</time>
      </trkpt>
      <trkpt lat="45.19326" lon="5.83231">
        <ele>398.4</ele>
        <time>2021-04-10T07:20:55Z</time>
      </trkpt>
      <trkpt lat="45.19326" lon="5.83231">
        <ele>398.4</ele>
        <time>2021-04-10T07:20:56Z</time>
      </trkpt>
      <trkpt lat="45.19326" lon="5.83232">
        <ele>398.4</ele>
        <time>2021-04-10T07:20:57Z</time>
      </trkpt>
      <trkpt lat="45.19326" lon="5.83233">
        <ele>398.2</ele>
        <time>2021-04-10T07:20:58Z</time>
      </trkpt>
      <trkpt lat="45.19326" lon="5.83234">
        <ele>398.2</ele>
        <time>2021-04-10T07:20:59Z</time>
      </trkpt>
      <trkpt lat="45.19326" lon="5.83234">
        <ele>398.2</ele>
        <time>2021-04-10T07:21:00Z</time>
      </trkpt>
      <trkpt lat="45.19326" lon="5.83235">
        <ele>398.2</ele>
        <time>2021-04-10T07:21:01Z</time>
      </trkpt>
      <trkpt lat="45.19326" lon="5.83236">
        <ele>398.4</ele>
        <time>2021-04-10T07:21:02Z</time>
      </trkpt>
      <trkpt lat="45.19326" lon="5.83237">
        <ele>398.4</ele>
        <time>2021-04-10T07:21:03Z</time>
      </trkpt>
      <trkpt lat="45.19326" lon="5.83237">
        <ele>398.6</ele>
        <time>2021-04-10T07:21:04Z</time>
      </trkpt>
      <trkpt lat="45.19326" lon="5.83238">
        <ele>399</ele>
        <time>2021-04-10T07:21:05Z</time>
      </trkpt>
      <trkpt lat="45.19326" lon="5.83239">
        <ele>399.2</ele>
        <time>2021-04-10T07:21:06Z</time>
      </trkpt>
      <trkpt lat="45.19327" lon="5.83239">
        <ele>399.6</ele>
        <time>2021-04-10T07:21:07Z</time>
      </trkpt>
      <trkpt lat="45.19327" lon="5.8324">
        <ele>399.8</ele>
        <time>2021-04-10T07:21:08Z</time>
      </trkpt>
      <trkpt lat="45.19328" lon="5.8324">
        <ele>400.2</ele>
        <time>2021-04-10T07:21:09Z</time>
      </trkpt>
      <trkpt lat="45.19328" lon="5.83241">
        <ele>400.6</ele>
        <time>2021-04-10T07:21:10Z</time>
      </trkpt>
      <trkpt lat="45.19329" lon="5.83242">
        <ele>400.8</ele>
        <time>2021-04-10T07:21:11Z</time>
      </trkpt>
      <trkpt lat="45.19329" lon="5.83242">
        <ele>401</ele>
        <time>2021-04-10T07:21:12Z</time>
      </trkpt>
      <trkpt lat="45.1933" lon="5.83243">
        <ele>401.2</ele>
        <time>2021-04-10T07:21:13Z</time>
      </trkpt>
      <trkpt lat="45.1933" lon="5.83243">
        <ele>401.4</ele>
        <time>2021-04-10T07:21:14Z</time>
      </trkpt>
      <trkpt lat="45.19331" lon="5.83244">
        <ele>401.6</ele>
        <time>2021-04-10T07:21:15Z</time>
      </trkpt>
      <trkpt lat="45.19331" lon="5.83244">
        <ele>402</ele>
        <time>2021-04-10T07:21:16Z</time>
      </trkpt>
      <trkpt lat="45.19332" lon="5.83245">
        <ele>402.2</ele>
        <time>2021-04-10T07:21:17Z</time>
      </trkpt>
      <trkpt lat="45.19332" lon="5.83245">
        <ele>402.4</ele>
        <time>2021-04-10T07:21:18Z</time>
      </trkpt>
      <trkpt lat="45.19333" lon="5.83246">
        <ele>402.6</ele>
        <time>2021-04-10T07:21:19Z</time>
      </trkpt>
      <trkpt lat="45.19333" lon="5.83246">
        <ele>402.8</ele>
        <time>2021-04-10T07:21:20Z</time>
      </trkpt>
      <trkpt lat="45.19334" lon="5.83247">
        <ele>403.2</ele>
        <time>2021-04-10T07:21:21Z</time>
      </trkpt>
      <trkpt lat="45.19334" lon="5.83247">
        <ele>403.4</ele>
        <time>2021-04-10T07:21:22Z</time>
      </trkpt>
      <trkpt lat="45.19334" lon="5.83247">
        <ele>403.4</ele>
        <time>2021-04-10T07:21:23Z</time>
      </trkpt>
      <trkpt lat="45.19334" lon="5.83247">
        <ele>403.6</ele>
        <time>2021-04-10T07:21:24Z</time>
      </trkpt>
      <trkpt lat="45.19334" lon="5.83247">
        <ele>404</ele>
        <time>2021-04-10T07:21:25Z</time>
      </trkpt>
      <trkpt lat="45.19334" lon="5.83247">
        <ele>404.2</ele>
        <time>2021-04-10T07:21:26Z</time>
      </trkpt>
      <trkpt lat="45.19334" lon="5.83247">
        <ele>404.4</ele>
        <time>2021-04-10T07:21:27Z</time>
      </trkpt>
      <trkpt lat="45.19333" lon="5.83247">
        <ele>404.8</ele>
        <time>2021-04-10T07:21:28Z</time>
      </trkpt>
      <trkpt lat="45.19333" lon="5.83247">
        <ele>404.8</ele>
        <time>2021-04-10T07:21:29Z</time>
      </trkpt>
      <trkpt lat="45.19333" lon="5.83247">
        <ele>404.8</ele>
        <time>2021-04-10T07:21:30Z</time>
      </trkpt>
      <trkpt lat="45.19333" lon="5.83247">
        <ele>405</ele>
        <time>2021-04-10T07:21:31Z</time>
      </trkpt>
      <trkpt lat="45.19333" lon="5.83247">
        <ele>405.2</ele>
        <time>2021-04-10T07:21:32Z</time>
      </trkpt>
      <trkpt lat="45.19333" lon="5.83248">
        <ele>405</ele>
        <time>2021-04-10T07:21:33Z</time>
      </trkpt>
      <trkpt lat="45.19333" lon="5.83248">
        <ele>405</ele>
        <time>2021-04-10T07:21:34Z</time>
      </trkpt>
      <trkpt lat="45.19333" lon="5.83248">
        <ele>405</ele>
        <time>2021-04-10T07:21:35Z</time>
      </trkpt>
      <trkpt lat="45.19333" lon="5.83248">
        <ele>405</ele>
        <time>2021-04-10T07:21:36Z</time>
      </trkpt>
      <trkpt lat="45.19333" lon="5.83248">
        <ele>404.8</ele>
        <time>2021-04-10T07:21:37Z</time>
      </trkpt>
      <trkpt lat="45.19333" lon="5.83248">
        <ele>404.8</ele>
        <time>2021-04-10T07:21:38Z</time>
      </trkpt>
      <trkpt lat="45.19333" lon="5.83248">
        <ele>404.6</ele>
        <time>2021-04-10T07:21:39Z</time>
      </trkpt>
      <trkpt lat="45.19333" lon="5.83248">
        <ele>404.6</ele>
        <time>2021-04-10T07:21:40Z</time>
      </trkpt>
      <trkpt lat="45.19333" lon="5.83248">
        <ele>404.6</ele>
        <time>2021-04-10T07:21:41Z</time>
      </trkpt>
      <trkpt lat="45.19333" lon="5.83248">
        <ele>404.6</ele>
        <time>2021-04-10T07:21:42Z</time>
      </trkpt>
      <trkpt lat="45.19333" lon="5.83248">
        <ele>404.4</ele>
        <time>2021-04-10T07:21:43Z</time>
      </trkpt>
      <trkpt lat="45.19333" lon="5.83248">
        <ele>404.2</ele>
        <time>2021-04-10T07:21:44Z</time>
      </trkpt>
      <trkpt lat="45.19333" lon="5.83248">
        <ele>404.4</ele>
        <time>2021-04-10T07:21:45Z</time>
      </trkpt>
      <trkpt lat="45.19332" lon="5.83248">
        <ele>404.2</ele>
        <time>2021-04-10T07:21:46Z</time>
      </trkpt>
      <trkpt lat="45.19332" lon="5.83248">
        <ele>404</ele>
        <time>2021-04-10T07:21:47Z</time>
      </trkpt>
      <trkpt lat="45.19332" lon="5.83248">
        <ele>404.2</ele>
        <time>2021-04-10T07:21:48Z</time>
      </trkpt>
      <trkpt lat="45.19332" lon="5.83248">
        <ele>404</ele>
        <time>2021-04-10T07:21:49Z</time>
      </trkpt>
      <trkpt lat="45.19332" lon="5.83248">
        <ele>404</ele>
        <time>2021-04-10T07:21:50Z</time>
      </trkpt>
      <trkpt lat="45.19332" lon="5.83248">
        <ele>404</ele>
        <time>2021-04-10T07:21:51Z</time>
      </trkpt>
      <trkpt lat="45.19332" lon="5.83248">
        <ele>403.8</ele>
        <time>2021-04-10T07:21:52Z</time>
      </trkpt>
      <trkpt lat="45.19332" lon="5.83248">
        <ele>403.8</ele>
        <time>2021-04-10T07:21:53Z</time>
      </trkpt>
      <trkpt lat="45.19332" lon="5.83249">
        <ele>403.8</ele>
        <time>2021-04-10T07:21:54Z</time>
      </trkpt>
      <trkpt lat="45.19332" lon="5.83249">
        <ele>403.8</ele>
        <time>2021-04-10T07:21:55Z</time>
      </trkpt>
      <trkpt lat="45.19332" lon="5.83249">
        <ele>403.8</ele>
        <time>2021-04-10T07:21:56Z</time>
      </trkpt>
      <trkpt lat="45.19332" lon="5.83249">
        <ele>403.8</ele>
        <time>2021-04-10T07:21:57Z</time>
      </trkpt>
      <trkpt lat="45.19332" lon="5.83249">
        <ele>403.8</ele>
        <time>2021-04-10T07:21:58Z</time>
      </trkpt>
      <trkpt lat="45.19332" lon="5.83249">
        <ele>403.8</ele>
        <time>2021-04-10T07:21:59Z</time>
      </trkpt>
      <trkpt lat="45.19332" lon="5.83249">
        <ele>403.8</ele>
        <time>2021-04-10T07:22:00Z</time>
      </trkpt>
      <trkpt lat="45.19332" lon="5.83249">
        <ele>403.8</ele>
        <time>2021-04-10T07:22:01Z</time>
      </trkpt>
      <trkpt lat="45.19332" lon="5.83249">
        <ele>403.8</ele>
        <time>2021-04-10T07:22:02Z</time>
      </trkpt>
      <trkpt lat="45.19332" lon="5.83249">
        <ele>403.8</ele>
        <time>2021-04-10T07:22:03Z</time>
      </trkpt>
      <trkpt lat="45.19331" lon="5.83249">
        <ele>403.8</ele>
        <time>2021-04-10T07:22:04Z</time>
      </trkpt>
      <trkpt lat="45.19331" lon="5.83249">
        <ele>403.8</ele>
        <time>2021-04-10T07:22:05Z</time>
      </trkpt>
      <trkpt lat="45.19331" lon="5.83249">
        <ele>403.8</ele>
        <time>2021-04-10T07:22:06Z</time>
      </trkpt>
      <trkpt lat="45.19331" lon="5.83249">
        <ele>403.8</ele>
        <time>2021-04-10T07:22:07Z</time>
      </trkpt>
      <trkpt lat="45.19331" lon="5.83249">
        <ele>403.8</ele>
        <time>2021-04-10T07:22:08Z</time>
      </trkpt>
      <trkpt lat="45.19331" lon="5.83249">
        <ele>403.8</ele>
        <time>2021-04-10T07:22:09Z</time>
      </trkpt>
      <trkpt lat="45.19331" lon="5.83249">
        <ele>403.8</ele>
        <time>2021-04-10T07:22:10Z</time>
      </trkpt>
      <trkpt lat="45.19331" lon="5.83249">
        <ele>403.8</ele>
        <time>2021-04-10T07:22:11Z</time>
      </trkpt>
      <trkpt lat="45.19331" lon="5.83249">
        <ele>403.8</ele>
        <time>2021-04-10T07:22:12Z</time>
      </trkpt>
      <trkpt lat="45.19331" lon="5.83249">
        <ele>403.8</ele>
        <time>2021-04-10T07:22:13Z</time>
      </trkpt>
      <trkpt lat="45.19331" lon="5.83249">
        <ele>403.6</ele>
        <time>2021-04-10T07:22:14Z</time>
      </trkpt>
      <trkpt lat="45.19331" lon="5.8325">
        <ele>403.6</ele>
        <time>2021-04-10T07:22:15Z</time>
      </trkpt>
      <trkpt lat="45.19331" lon="5.8325">
        <ele>403.8</ele>
        <time>2021-04-10T07:22:16Z</time>
      </trkpt>
      <trkpt lat="45.19331" lon="5.8325">
        <ele>403.6</ele>
        <time>2021-04-10T07:22:17Z</time>
      </trkpt>
      <trkpt lat="45.19331" lon="5.8325">
        <ele>403.6</ele>
        <time>2021-04-10T07:22:18Z</time>
      </trkpt>
      <trkpt lat="45.19331" lon="5.8325">
        <ele>403.6</ele>
        <time>2021-04-10T07:22:19Z</time>
      </trkpt>
      <trkpt lat="45.19331" lon="5.8325">
        <ele>403.6</ele>
        <time>2021-04-10T07:22:20Z</time>
      </trkpt>
      <trkpt lat="45.19331" lon="5.8325">
        <ele>403.6</ele>
        <time>2021-04-10T07:22:21Z</time>
      </trkpt>
      <trkpt lat="45.19331" lon="5.8325">
        <ele>404</ele>
        <time>2021-04-10T07:22:22Z</time>
      </trkpt>
      <trkpt lat="45.1933" lon="5.8325">
        <ele>403.8</ele>
        <time>2021-04-10T07:22:23Z</time>
      </trkpt>
      <trkpt lat="45.1933" lon="5.8325">
        <ele>403.8</ele>
        <time>2021-04-10T07:22:24Z</time>
      </trkpt>
      <trkpt lat="45.1933" lon="5.8325">
        <ele>404</ele>
        <time>2021-04-10T07:22:25Z</time>
      </trkpt>
      <trkpt lat="45.1933" lon="5.8325">
        <ele>403.8</ele>
        <time>2021-04-10T07:22:26Z</time>
      </trkpt>
      <trkpt lat="45.1933" lon="5.8325">
        <ele>404</ele>
        <time>2021-04-10T07:22:27Z</time>
      </trkpt>
      <trkpt lat="45.1933" lon="5.8325">
        <ele>404</ele>
        <time>2021-04-10T07:22:28Z</time>
      </trkpt>
      <trkpt lat="45.1933" lon="5.8325">
        <ele>404</ele>
        <time>2021-04-10T07:22:29Z</time>
      </trkpt>
      <trkpt lat="45.1933" lon="5.8325">
        <ele>403.8</ele>
        <time>2021-04-10T07:22:30Z</time>
      </trkpt>
      <trkpt lat="45.1933" lon="5.8325">
        <ele>403.8</ele>
        <time>2021-04-10T07:22:31Z</time>
      </trkpt>
      <trkpt lat="45.1933" lon="5.8325">
        <ele>404</ele>
        <time>2021-04-10T07:22:32Z</time>
      </trkpt>
      <trkpt lat="45.1933" lon="5.8325">
        <ele>404</ele>
        <time>2021-04-10T07:22:33Z</time>
      </trkpt>
      <trkpt lat="45.1933" lon="5.8325">
        <ele>404</ele>
        <time>2021-04-10T07:22:34Z</time>
      </trkpt>
      <trkpt lat="45.1933" lon="5.8325">
        <ele>404</ele>
        <time>2021-04-10T07:22:35Z</time>
      </trkpt>
      <trkpt lat="45.1933" lon="5.83251">
        <ele>403.8</ele>
        <time>2021-04-10T07:22:36Z</time>
      </trkpt>
      <trkpt lat="45.1933" lon="5.83251">
        <ele>403.8</ele>
        <time>2021-04-10T07:22:37Z</time>
      </trkpt>
      <trkpt lat="45.1933" lon="5.83251">
        <ele>403.8</ele>
        <time>2021-04-10T07:22:38Z</time>
      </trkpt>
      <trkpt lat="45.1933" lon="5.83251">
        <ele>404</ele>
        <time>2021-04-10T07:22:39Z</time>
      </trkpt>
      <trkpt lat="45.1933" lon="5.83251">
        <ele>404.2</ele>
        <time>2021-04-10T07:22:40Z</time>
      </trkpt>
      <trkpt lat="45.19329" lon="5.83251">
        <ele>404.4</ele>
        <time>2021-04-10T07:22:41Z</time>
      </trkpt>
      <trkpt lat="45.19329" lon="5.83251">
        <ele>404.6</ele>
        <time>2021-04-10T07:22:42Z</time>
      </trkpt>
      <trkpt lat="45.19329" lon="5.83251">
        <ele>404.4</ele>
        <time>2021-04-10T07:22:43Z</time>
      </trkpt>
      <trkpt lat="45.19329" lon="5.83251">
        <ele>404.2</ele>
        <time>2021-04-10T07:22:44Z</time>
      </trkpt>
      <trkpt lat="45.19329" lon="5.83251">
        <ele>404</ele>
        <time>2021-04-10T07:22:45Z</time>
      </trkpt>
      <trkpt lat="45.19329" lon="5.83251">
        <ele>404</ele>
        <time>2021-04-10T07:22:46Z</time>
      </trkpt>
      <trkpt lat="45.19329" lon="5.83251">
        <ele>404</ele>
        <time>2021-04-10T07:22:47Z</time>
      </trkpt>
      <trkpt lat="45.19329" lon="5.83251">
        <ele>404</ele>
        <time>2021-04-10T07:22:48Z</time>
      </trkpt>
      <trkpt lat="45.19329" lon="5.83251">
        <ele>403.8</ele>
        <time>2021-04-10T07:22:49Z</time>
      </trkpt>
      <trkpt lat="45.19329" lon="5.83251">
        <ele>403.8</ele>
        <time>2021-04-10T07:22:50Z</time>
      </trkpt>
      <trkpt lat="45.19329" lon="5.83251">
        <ele>404.2</ele>
        <time>2021-04-10T07:22:51Z</time>
      </trkpt>
      <trkpt lat="45.19329" lon="5.83251">
        <ele>404.6</ele>
        <time>2021-04-10T07:22:52Z</time>
      </trkpt>
      <trkpt lat="45.19329" lon="5.83251">
        <ele>404.4</ele>
        <time>2021-04-10T07:22:53Z</time>
      </trkpt>
      <trkpt lat="45.19329" lon="5.83251">
        <ele>404.2</ele>
        <time>2021-04-10T07:22:54Z</time>
      </trkpt>
      <trkpt lat="45.19329" lon="5.83251">
        <ele>404.2</ele>
        <time>2021-04-10T07:22:55Z</time>
      </trkpt>
      <trkpt lat="45.19329" lon="5.83251">
        <ele>404</ele>
        <time>2021-04-10T07:22:56Z</time>
      </trkpt>
      <trkpt lat="45.19329" lon="5.83252">
        <ele>404</ele>
        <time>2021-04-10T07:22:57Z</time>
      </trkpt>
      <trkpt lat="45.19329" lon="5.83252">
        <ele>403.8</ele>
        <time>2021-04-10T07:22:58Z</time>
      </trkpt>
      <trkpt lat="45.19328" lon="5.83252">
        <ele>403.8</ele>
        <time>2021-04-10T07:22:59Z</time>
      </trkpt>
      <trkpt lat="45.19328" lon="5.83252">
        <ele>403.8</ele>
        <time>2021-04-10T07:23:00Z</time>
      </trkpt>
      <trkpt lat="45.19328" lon="5.83252">
        <ele>403.8</ele>
        <time>2021-04-10T07:23:01Z</time>
      </trkpt>
      <trkpt lat="45.19328" lon="5.83252">
        <ele>403.8</ele>
        <time>2021-04-10T07:23:02Z</time>
      </trkpt>
      <trkpt lat="45.19328" lon="5.83252">
        <ele>403.8</ele>
        <time>2021-04-10T07:23:03Z</time>
      </trkpt>
      <trkpt lat="45.19328" lon="5.83252">
        <ele>403.8</ele>
        <time>2021-04-10T07:23:04Z</time>
      </trkpt>
      <trkpt lat="45.19328" lon="5.83252">
        <ele>403.8</ele>
        <time>2021-04-10T07:23:05Z</time>
      </trkpt>
      <trkpt lat="45.19328" lon="5.83252">
        <ele>403.8</ele>
        <time>2021-04-10T07:23:06Z</time>
      </trkpt>
      <trkpt lat="45.19328" lon="5.83252">
        <ele>403.8</ele>
        <time>2021-04-10T07:23:07Z</time>
      </trkpt>
      <trkpt lat="45.19328" lon="5.83252">
        <ele>403.8</ele>
        <time>2021-04-10T07:23:08Z</time>
      </trkpt>
      <trkpt lat="45.19328" lon="5.83252">
        <ele>403.8</ele>
        <time>2021-04-10T07:23:09Z</time>
      </trkpt>
      <trkpt lat="45.19328" lon="5.83252">
        <ele>404</ele>
        <time>2021-04-10T07:23:10Z</time>
      </trkpt>
      <trkpt lat="45.19328" lon="5.83252">
        <ele>404.2</ele>
        <time>2021-04-10T07:23:11Z</time>
      </trkpt>
      <trkpt lat="45.19328" lon="5.83252">
        <ele>404.2</ele>
        <time>2021-04-10T07:23:12Z</time>
      </trkpt>
      <trkpt lat="45.19328" lon="5.83252">
        <ele>404.2</ele>
        <time>2021-04-10T07:23:13Z</time>
      </trkpt>
      <trkpt lat="45.19328" lon="5.83252">
        <ele>404.2</ele>
        <time>2021-04-10T07:23:14Z</time>
      </trkpt>
      <trkpt lat="45.19328" lon="5.83252">
        <ele>404.4</ele>
        <time>2021-04-10T07:23:15Z</time>
      </trkpt>
      <trkpt lat="45.19328" lon="5.83252">
        <ele>404.4</ele>
        <time>2021-04-10T07:23:16Z</time>
      </trkpt>
      <trkpt lat="45.19327" lon="5.83252">
        <ele>404.2</ele>
        <time>2021-04-10T07:23:17Z</time>
      </trkpt>
      <trkpt lat="45.19327" lon="5.83253">
        <ele>404.2</ele>
        <time>2021-04-10T07:23:18Z</time>
      </trkpt>
      <trkpt lat="45.19327" lon="5.83253">
        <ele>404.2</ele>
        <time>2021-04-10T07:23:19Z</time>
      </trkpt>
      <trkpt lat="45.19327" lon="5.83253">
        <ele>404.2</ele>
        <time>2021-04-10T07:23:20Z</time>
      </trkpt>
      <trkpt lat="45.19327" lon="5.83253">
        <ele>404</ele>
        <time>2021-04-10T07:23:21Z</time>
      </trkpt>
      <trkpt lat="45.19327" lon="5.83253">
        <ele>404</ele>
        <time>2021-04-10T07:23:22Z</time>
      </trkpt>
      <trkpt lat="45.19327" lon="5.83253">
        <ele>404.2</ele>
        <time>2021-04-10T07:23:23Z</time>
      </trkpt>
      <trkpt lat="45.19327" lon="5.83253">
        <ele>404</ele>
        <time>2021-04-10T07:23:24Z</time>
      </trkpt>
      <trkpt lat="45.19327" lon="5.83253">
        <ele>404.2</ele>
        <time>2021-04-10T07:23:25Z</time>
      </trkpt>
      <trkpt lat="45.19327" lon="5.83253">
        <ele>404</ele>
        <time>2021-04-10T07:23:26Z</time>
      </trkpt>
      <trkpt lat="45.19327" lon="5.83253">
        <ele>404</ele>
        <time>2021-04-10T07:23:27Z</time>
      </trkpt>
      <trkpt lat="45.19327" lon="5.83253">
        <ele>404</ele>
        <time>2021-04-10T07:23:28Z</time>
      </trkpt>
      <trkpt lat="45.19327" lon="5.83253">
        <ele>404.2</ele>
        <time>2021-04-10T07:23:29Z</time>
      </trkpt>
      <trkpt lat="45.19327" lon="5.83253">
        <ele>404.2</ele>
        <time>2021-04-10T07:23:30Z</time>
      </trkpt>
      <trkpt lat="45.19327" lon="5.83253">
        <ele>404.2</ele>
        <time>2021-04-10T07:23:31Z</time>
      </trkpt>
      <trkpt lat="45.19327" lon="5.83253">
        <ele>404.2</ele>
        <time>2021-04-10T07:23:32Z</time>
      </trkpt>
      <trkpt lat="45.19327" lon="5.83253">
        <ele>404.4</ele>
        <time>2021-04-10T07:23:33Z</time>
      </trkpt>
      <trkpt lat="45.19327" lon="5.83253">
        <ele>404.4</ele>
        <time>2021-04-10T07:23:34Z</time>
      </trkpt>
      <trkpt lat="45.19327" lon="5.83253">
        <ele>404.4</ele>
        <time>2021-04-10T07:23:35Z</time>
      </trkpt>
      <trkpt lat="45.19326" lon="5.83253">
        <ele>404.2</ele>
        <time>2021-04-10T07:23:36Z</time>
      </trkpt>
      <trkpt lat="45.19326" lon="5.83253">
        <ele>404.4</ele>
        <time>2021-04-10T07:23:37Z</time>
      </trkpt>
      <trkpt lat="45.19326" lon="5.83253">
        <ele>404.6</ele>
        <time>2021-04-10T07:23:38Z</time>
      </trkpt>
      <trkpt lat="45.19326" lon="5.83253">
        <ele>404.6</ele>
        <time>2021-04-10T07:23:39Z</time>
      </trkpt>
      <trkpt lat="45.19326" lon="5.83253">
        <ele>404.6</ele>
        <time>2021-04-10T07:23:40Z</time>
      </trkpt>
      <trkpt lat="45.19326" lon="5.83253">
        <ele>404.6</ele>
        <time>2021-04-10T07:23:41Z</time>
      </trkpt>
      <trkpt lat="45.19326" lon="5.83253">
        <ele>404.6</ele>
        <time>2021-04-10T07:23:42Z</time>
      </trkpt>
      <trkpt lat="45.19326" lon="5.83253">
        <ele>404.4</ele>
        <time>2021-04-10T07:23:43Z</time>
      </trkpt>
      <trkpt lat="45.19326" lon="5.83253">
        <ele>404.4</ele>
        <time>2021-04-10T07:23:44Z</time>
      </trkpt>
      <trkpt lat="45.19326" lon="5.83253">
        <ele>404.4</ele>
        <time>2021-04-10T07:23:45Z</time>
      </trkpt>
      <trkpt lat="45.19326" lon="5.83253">
        <ele>404.2</ele>
        <time>2021-04-10T07:23:46Z</time>
      </trkpt>
      <trkpt lat="45.19326" lon="5.83253">
        <ele>404.4</ele>
        <time>2021-04-10T07:23:47Z</time>
      </trkpt>
      <trkpt lat="45.19326" lon="5.83253">
        <ele>404.4</ele>
        <time>2021-04-10T07:23:48Z</time>
      </trkpt>
      <trkpt lat="45.19326" lon="5.83253">
        <ele>404.4</ele>
        <time>2021-04-10T07:23:49Z</time>
      </trkpt>
      <trkpt lat="45.19326" lon="5.83253">
        <ele>404.4</ele>
        <time>2021-04-10T07:23:50Z</time>
      </trkpt>
      <trkpt lat="45.19326" lon="5.83253">
        <ele>404.4</ele>
        <time>2021-04-10T07:23:51Z</time>
      </trkpt>
      <trkpt lat="45.19325" lon="5.83252">
        <ele>404.2</ele>
        <time>2021-04-10T07:23:52Z</time>
      </trkpt>
      <trkpt lat="45.19325" lon="5.83252">
        <ele>404.2</ele>
        <time>2021-04-10T07:23:53Z</time>
      </trkpt>
      <trkpt lat="45.19325" lon="5.83252">
        <ele>404.4</ele>
        <time>2021-04-10T07:23:54Z</time>
      </trkpt>
      <trkpt lat="45.19325" lon="5.83252">
        <ele>404.2</ele>
        <time>2021-04-10T07:23:55Z</time>
      </trkpt>
      <trkpt lat="45.19325" lon="5.83252">
        <ele>404.2</ele>
        <time>2021-04-10T07:23:56Z</time>
      </trkpt>
      <trkpt lat="45.19325" lon="5.83252">
        <ele>404.2</ele>
        <time>2021-04-10T07:23:57Z</time>
      </trkpt>
      <trkpt lat="45.19325" lon="5.83252">
        <ele>404.2</ele>
        <time>2021-04-10T07:23:58Z</time>
      </trkpt>
      <trkpt lat="45.19325" lon="5.83252">
        <ele>404.2</ele>
        <time>2021-04-10T07:23:59Z</time>
      </trkpt>
      <trkpt lat="45.19323" lon="5.83251">
        <ele>404.2</ele>
        <time>2021-04-10T07:24:00Z</time>
      </trkpt>
      <trkpt lat="45.19323" lon="5.83251">
        <ele>404.2</ele>
        <time>2021-04-10T07:24:01Z</time>
      </trkpt>
      <trkpt lat="45.19323" lon="5.83251">
        <ele>404.2</ele>
        <time>2021-04-10T07:24:02Z</time>
      </trkpt>
      <trkpt lat="45.19323" lon="5.83251">
        <ele>404.2</ele>
        <time>2021-04-10T07:24:03Z</time>
      </trkpt>
      <trkpt lat="45.19323" lon="5.83251">
        <ele>404.2</ele>
        <time>2021-04-10T07:24:04Z</time>
      </trkpt>
      <trkpt lat="45.19323" lon="5.83251">
        <ele>404.2</ele>
        <time>2021-04-10T07:24:05Z</time>
      </trkpt>
      <trkpt lat="45.19323" lon="5.8325">
        <ele>404.4</ele>
        <time>2021-04-10T07:24:06Z</time>
      </trkpt>
      <trkpt lat="45.19324" lon="5.8325">
        <ele>404.4</ele>
        <time>2021-04-10T07:24:07Z</time>
      </trkpt>
      <trkpt lat="45.19324" lon="5.8325">
        <ele>404.4</ele>
        <time>2021-04-10T07:24:08Z</time>
      </trkpt>
      <trkpt lat="45.19324" lon="5.8325">
        <ele>404.4</ele>
        <time>2021-04-10T07:24:09Z</time>
      </trkpt>
      <trkpt lat="45.19324" lon="5.8325">
        <ele>404.4</ele>
        <time>2021-04-10T07:24:10Z</time>
      </trkpt>
      <trkpt lat="45.19324" lon="5.8325">
        <ele>404.4</ele>
        <time>2021-04-10T07:24:11Z</time>
      </trkpt>
      <trkpt lat="45.19324" lon="5.8325">
        <ele>404.4</ele>
        <time>2021-04-10T07:24:12Z</time>
      </trkpt>
      <trkpt lat="45.19324" lon="5.8325">
        <ele>404.2</ele>
        <time>2021-04-10T07:24:13Z</time>
      </trkpt>
      <trkpt lat="45.19325" lon="5.8325">
        <ele>404.2</ele>
        <time>2021-04-10T07:24:14Z</time>
      </trkpt>
      <trkpt lat="45.19325" lon="5.8325">
        <ele>404.2</ele>
        <time>2021-04-10T07:24:15Z</time>
      </trkpt>
      <trkpt lat="45.19325" lon="5.83249">
        <ele>404.4</ele>
        <time>2021-04-10T07:24:16Z</time>
      </trkpt>
      <trkpt lat="45.19325" lon="5.83249">
        <ele>404.2</ele>
        <time>2021-04-10T07:24:17Z</time>
      </trkpt>
      <trkpt lat="45.19325" lon="5.83249">
        <ele>404.2</ele>
        <time>2021-04-10T07:24:18Z</time>
      </trkpt>
      <trkpt lat="45.19325" lon="5.83249">
        <ele>404.2</ele>
        <time>2021-04-10T07:24:19Z</time>
      </trkpt>
      <trkpt lat="45.19325" lon="5.83249">
        <ele>404.2</ele>
        <time>2021-04-10T07:24:20Z</time>
      </trkpt>
      <trkpt lat="45.19325" lon="5.83249">
        <ele>404</ele>
        <time>2021-04-10T07:24:21Z</time>
      </trkpt>
      <trkpt lat="45.19326" lon="5.83249">
        <ele>403.8</ele>
        <time>2021-04-10T07:24:22Z</time>
      </trkpt>
      <trkpt lat="45.19326" lon="5.83249">
        <ele>403.8</ele>
        <time>2021-04-10T07:24:23Z</time>
      </trkpt>
      <trkpt lat="45.19326" lon="5.83249">
        <ele>403.6</ele>
        <time>2021-04-10T07:24:24Z</time>
      </trkpt>
      <trkpt lat="45.19326" lon="5.83249">
        <ele>403.6</ele>
        <time>2021-04-10T07:24:25Z</time>
      </trkpt>
      <trkpt lat="45.19326" lon="5.83248">
        <ele>403.4</ele>
        <time>2021-04-10T07:24:26Z</time>
      </trkpt>
      <trkpt lat="45.19326" lon="5.83248">
        <ele>403.4</ele>
        <time>2021-04-10T07:24:27Z</time>
      </trkpt>
      <trkpt lat="45.19326" lon="5.83248">
        <ele>403.4</ele>
        <time>2021-04-10T07:24:28Z</time>
      </trkpt>
      <trkpt lat="45.19327" lon="5.83248">
        <ele>403.4</ele>
        <time>2021-04-10T07:24:29Z</time>
      </trkpt>
      <trkpt lat="45.19327" lon="5.83248">
        <ele>403.4</ele>
        <time>2021-04-10T07:24:30Z</time>
      </trkpt>
      <trkpt lat="45.19327" lon="5.83248">
        <ele>403.6</ele>
        <time>2021-04-10T07:24:31Z</time>
      </trkpt>
      <trkpt lat="45.19327" lon="5.83248">
        <ele>403.6</ele>
        <time>2021-04-10T07:24:32Z</time>
      </trkpt>
      <trkpt lat="45.19327" lon="5.83248">
        <ele>403.6</ele>
        <time>2021-04-10T07:24:33Z</time>
      </trkpt>
      <trkpt lat="45.19327" lon="5.83248">
        <ele>403.8</ele>
        <time>2021-04-10T07:24:34Z</time>
      </trkpt>
      <trkpt lat="45.19327" lon="5.83247">
        <ele>403.8</ele>
        <time>2021-04-10T07:24:35Z</time>
      </trkpt>
      <trkpt lat="45.19328" lon="5.83247">
        <ele>404</ele>
        <time>2021-04-10T07:24:36Z</time>
      </trkpt>
      <trkpt lat="45.19328" lon="5.83247">
        <ele>404</ele>
        <time>2021-04-10T07:24:37Z</time>
      </trkpt>
      <trkpt lat="45.19328" lon="5.83247">
        <ele>404</ele>
        <time>2021-04-10T07:24:38Z</time>
      </trkpt>
      <trkpt lat="45.19328" lon="5.83247">
        <ele>404</ele>
        <time>2021-04-10T07:24:39Z</time>
      </trkpt>
      <trkpt lat="45.19328" lon="5.83247">
        <ele>403.8</ele>
        <time>2021-04-10T07:24:40Z</time>
      </trkpt>
      <trkpt lat="45.19328" lon="5.83247">
        <ele>403.8</ele>
        <time>2021-04-10T07:24:41Z</time>
      </trkpt>
      <trkpt lat="45.19328" lon="5.83247">
        <ele>404</ele>
        <time>2021-04-10T07:24:42Z</time>
      </trkpt>
      <trkpt lat="45.19329" lon="5.83247">
        <ele>403.8</ele>
        <time>2021-04-10T07:24:43Z</time>
      </trkpt>
      <trkpt lat="45.19329" lon="5.83247">
        <ele>403.8</ele>
        <time>2021-04-10T07:24:44Z</time>
      </trkpt>
      <trkpt lat="45.19329" lon="5.83246">
        <ele>403.6</ele>
        <time>2021-04-10T07:24:45Z</time>
      </trkpt>
      <trkpt lat="45.19329" lon="5.83246">
        <ele>403.6</ele>
        <time>2021-04-10T07:24:46Z</time>
      </trkpt>
      <trkpt lat="45.19329" lon="5.83246">
        <ele>403.8</ele>
        <time>2021-04-10T07:24:47Z</time>
      </trkpt>
      <trkpt lat="45.19329" lon="5.83246">
        <ele>403.6</ele>
        <time>2021-04-10T07:24:48Z</time>
      </trkpt>
      <trkpt lat="45.19329" lon="5.83246">
        <ele>403.6</ele>
        <time>2021-04-10T07:24:49Z</time>
      </trkpt>
      <trkpt lat="45.1933" lon="5.83246">
        <ele>403.6</ele>
        <time>2021-04-10T07:24:50Z</time>
      </trkpt>
      <trkpt lat="45.1933" lon="5.83246">
        <ele>403.8</ele>
        <time>2021-04-10T07:24:51Z</time>
      </trkpt>
      <trkpt lat="45.1933" lon="5.83246">
        <ele>403.8</ele>
        <time>2021-04-10T07:24:52Z</time>
      </trkpt>
      <trkpt lat="45.1933" lon="5.83246">
        <ele>403.8</ele>
        <time>2021-04-10T07:24:53Z</time>
      </trkpt>
      <trkpt lat="45.1933" lon="5.83246">
        <ele>403.8</ele>
        <time>2021-04-10T07:24:54Z</time>
      </trkpt>
      <trkpt lat="45.1933" lon="5.83245">
        <ele>403.8</ele>
        <time>2021-04-10T07:24:55Z</time>
      </trkpt>
      <trkpt lat="45.1933" lon="5.83245">
        <ele>403.8</ele>
        <time>2021-04-10T07:24:56Z</time>
      </trkpt>
      <trkpt lat="45.19331" lon="5.83245">
        <ele>403.8</ele>
        <time>2021-04-10T07:24:57Z</time>
      </trkpt>
      <trkpt lat="45.19331" lon="5.83245">
        <ele>404</ele>
        <time>2021-04-10T07:24:58Z</time>
      </trkpt>
      <trkpt lat="45.19331" lon="5.83245">
        <ele>404</ele>
        <time>2021-04-10T07:24:59Z</time>
      </trkpt>
      <trkpt lat="45.19331" lon="5.83245">
        <ele>404</ele>
        <time>2021-04-10T07:25:00Z</time>
      </trkpt>
      <trkpt lat="45.19331" lon="5.83245">
        <ele>404</ele>
        <time>2021-04-10T07:25:01Z</time>
      </trkpt>
      <trkpt lat="45.19331" lon="5.83245">
        <ele>404</ele>
        <time>2021-04-10T07:25:02Z</time>
      </trkpt>
      <trkpt lat="45.19332" lon="5.83245">
        <ele>404</ele>
        <time>2021-04-10T07:25:03Z</time>
      </trkpt>
      <trkpt lat="45.19332" lon="5.83245">
        <ele>404</ele>
        <time>2021-04-10T07:25:04Z</time>
      </trkpt>
      <trkpt lat="45.19332" lon="5.83246">
        <ele>404</ele>
        <time>2021-04-10T07:25:05Z</time>
      </trkpt>
      <trkpt lat="45.19332" lon="5.83246">
        <ele>404</ele>
        <time>2021-04-10T07:25:06Z</time>
      </trkpt>
      <trkpt lat="45.19332" lon="5.83246">
        <ele>404</ele>
        <time>2021-04-10T07:25:07Z</time>
      </trkpt>
      <trkpt lat="45.19333" lon="5.83246">
        <ele>404</ele>
        <time>2021-04-10T07:25:08Z</time>
      </trkpt>
      <trkpt lat="45.19333" lon="5.83246">
        <ele>404</ele>
        <time>2021-04-10T07:25:09Z</time>
      </trkpt>
      <trkpt lat="45.19333" lon="5.83246">
        <ele>404</ele>
        <time>2021-04-10T07:25:10Z</time>
      </trkpt>
      <trkpt lat="45.19333" lon="5.83247">
        <ele>404</ele>
        <time>2021-04-10T07:25:11Z</time>
      </trkpt>
      <trkpt lat="45.19334" lon="5.83247">
        <ele>404</ele>
        <time>2021-04-10T07:25:12Z</time>
      </trkpt>
      <trkpt lat="45.19334" lon="5.83247">
        <ele>404</ele>
        <time>2021-04-10T07:25:13Z</time>
      </trkpt>
      <trkpt lat="45.19334" lon="5.83247">
        <ele>404</ele>
        <time>2021-04-10T07:25:14Z</time>
      </trkpt>
      <trkpt lat="45.19334" lon="5.83247">
        <ele>404</ele>
        <time>2021-04-10T07:25:15Z</time>
      </trkpt>
      <trkpt lat="45.19334" lon="5.83248">
        <ele>404</ele>
        <time>2021-04-10T07:25:16Z</time>
      </trkpt>
      <trkpt lat="45.19335" lon="5.83248">
        <ele>404.2</ele>
        <time>2021-04-10T07:25:17Z</time>
      </trkpt>
      <trkpt lat="45.19335" lon="5.83248">
        <ele>404.2</ele>
        <time>2021-04-10T07:25:18Z</time>
      </trkpt>
      <trkpt lat="45.19335" lon="5.83248">
        <ele>404.2</ele>
        <time>2021-04-10T07:25:19Z</time>
      </trkpt>
      <trkpt lat="45.19335" lon="5.83248">
        <ele>404.2</ele>
        <time>2021-04-10T07:25:20Z</time>
      </trkpt>
      <trkpt lat="45.19335" lon="5.83248">
        <ele>404.2</ele>
        <time>2021-04-10T07:25:21Z</time>
      </trkpt>
      <trkpt lat="45.19336" lon="5.83249">
        <ele>404</ele>
        <time>2021-04-10T07:25:22Z</time>
      </trkpt>
      <trkpt lat="45.19336" lon="5.83249">
        <ele>404</ele>
        <time>2021-04-10T07:25:23Z</time>
      </trkpt>
      <trkpt lat="45.19336" lon="5.83249">
        <ele>404.2</ele>
        <time>2021-04-10T07:25:24Z</time>
      </trkpt>
      <trkpt lat="45.19336" lon="5.83249">
        <ele>404</ele>
        <time>2021-04-10T07:25:25Z</time>
      </trkpt>
      <trkpt lat="45.19336" lon="5.83249">
        <ele>404.2</ele>
        <time>2021-04-10T07:25:26Z</time>
      </trkpt>
      <trkpt lat="45.19337" lon="5.8325">
        <ele>404</ele>
        <time>2021-04-10T07:25:27Z</time>
      </trkpt>
      <trkpt lat="45.19337" lon="5.8325">
        <ele>404.2</ele>
        <time>2021-04-10T07:25:28Z</time>
      </trkpt>
      <trkpt lat="45.19337" lon="5.8325">
        <ele>404.2</ele>
        <time>2021-04-10T07:25:29Z</time>
      </trkpt>
      <trkpt lat="45.19337" lon="5.8325">
        <ele>404</ele>
        <time>2021-04-10T07:25:30Z</time>
      </trkpt>
      <trkpt lat="45.19338" lon="5.8325">
        <ele>404</ele>
        <time>2021-04-10T07:25:31Z</time>
      </trkpt>
      <trkpt lat="45.19338" lon="5.83251">
        <ele>404.2</ele>
        <time>2021-04-10T07:25:32Z</time>
      </trkpt>
      <trkpt lat="45.19338" lon="5.83251">
        <ele>404</ele>
        <time>2021-04-10T07:25:33Z</time>
      </trkpt>
      <trkpt lat="45.19338" lon="5.83251">
        <ele>404</ele>
        <time>2021-04-10T07:25:34Z</time>
      </trkpt>
      <trkpt lat="45.19338" lon="5.83251">
        <ele>404.2</ele>
        <time>2021-04-10T07:25:35Z</time>
      </trkpt>
      <trkpt lat="45.19339" lon="5.83251">
        <ele>404.2</ele>
        <time>2021-04-10T07:25:36Z</time>
      </trkpt>
      <trkpt lat="45.19339" lon="5.83251">
        <ele>404</ele>
        <time>2021-04-10T07:25:37Z</time>
      </trkpt>
      <trkpt lat="45.19339" lon="5.83252">
        <ele>404</ele>
        <time>2021-04-10T07:25:38Z</time>
      </trkpt>
      <trkpt lat="45.19339" lon="5.83252">
        <ele>404</ele>
        <time>2021-04-10T07:25:39Z</time>
      </trkpt>
      <trkpt lat="45.19339" lon="5.83252">
        <ele>404</ele>
        <time>2021-04-10T07:25:40Z</time>
      </trkpt>
      <trkpt lat="45.1934" lon="5.83252">
        <ele>404</ele>
        <time>2021-04-10T07:25:41Z</time>
      </trkpt>
      <trkpt lat="45.1934" lon="5.83252">
        <ele>404</ele>
        <time>2021-04-10T07:25:42Z</time>
      </trkpt>
      <trkpt lat="45.1934" lon="5.83253">
        <ele>404</ele>
        <time>2021-04-10T07:25:43Z</time>
      </trkpt>
      <trkpt lat="45.1934" lon="5.83253">
        <ele>403.8</ele>
        <time>2021-04-10T07:25:44Z</time>
      </trkpt>
      <trkpt lat="45.19341" lon="5.83253">
        <ele>403.8</ele>
        <time>2021-04-10T07:25:45Z</time>
      </trkpt>
      <trkpt lat="45.19341" lon="5.83253">
        <ele>403.8</ele>
        <time>2021-04-10T07:25:46Z</time>
      </trkpt>
      <trkpt lat="45.19341" lon="5.83253">
        <ele>403.8</ele>
        <time>2021-04-10T07:25:47Z</time>
      </trkpt>
      <trkpt lat="45.19341" lon="5.83253">
        <ele>403.8</ele>
        <time>2021-04-10T07:25:48Z</time>
      </trkpt>
      <trkpt lat="45.19341" lon="5.83254">
        <ele>403.8</ele>
        <time>2021-04-10T07:25:49Z</time>
      </trkpt>
      <trkpt lat="45.19342" lon="5.83254">
        <ele>404</ele>
        <time>2021-04-10T07:25:50Z</time>
      </trkpt>
      <trkpt lat="45.19342" lon="5.83254">
        <ele>404.2</ele>
        <time>2021-04-10T07:25:51Z</time>
      </trkpt>
      <trkpt lat="45.19342" lon="5.83254">
        <ele>404.2</ele>
        <time>2021-04-10T07:25:52Z</time>
      </trkpt>
      <trkpt lat="45.19342" lon="5.83254">
        <ele>404.2</ele>
        <time>2021-04-10T07:25:53Z</time>
      </trkpt>
      <trkpt lat="45.19342" lon="5.83255">
        <ele>404.2</ele>
        <time>2021-04-10T07:25:54Z</time>
      </trkpt>
      <trkpt lat="45.19343" lon="5.83255">
        <ele>404.2</ele>
        <time>2021-04-10T07:25:55Z</time>
      </trkpt>
      <trkpt lat="45.19343" lon="5.83255">
        <ele>404.2</ele>
        <time>2021-04-10T07:25:56Z</time>
      </trkpt>
      <trkpt lat="45.19343" lon="5.83255">
        <ele>404</ele>
        <time>2021-04-10T07:25:57Z</time>
      </trkpt>
      <trkpt lat="45.19343" lon="5.83255">
        <ele>404</ele>
        <time>2021-04-10T07:25:58Z</time>
      </trkpt>
      <trkpt lat="45.19344" lon="5.83255">
        <ele>404</ele>
        <time>2021-04-10T07:25:59Z</time>
      </trkpt>
      <trkpt lat="45.19344" lon="5.83256">
        <ele>404</ele>
        <time>2021-04-10T07:26:00Z</time>
      </trkpt>
      <trkpt lat="45.19344" lon="5.83256">
        <ele>404</ele>
        <time>2021-04-10T07:26:01Z</time>
      </trkpt>
      <trkpt lat="45.19344" lon="5.83256">
        <ele>404</ele>
        <time>2021-04-10T07:26:02Z</time>
      </trkpt>
      <trkpt lat="45.19344" lon="5.83256">
        <ele>404.2</ele>
        <time>2021-04-10T07:26:03Z</time>
      </trkpt>
      <trkpt lat="45.19345" lon="5.83256">
        <ele>404.4</ele>
        <time>2021-04-10T07:26:04Z</time>
      </trkpt>
      <trkpt lat="45.19345" lon="5.83257">
        <ele>404.6</ele>
        <time>2021-04-10T07:26:05Z</time>
      </trkpt>
      <trkpt lat="45.19345" lon="5.83257">
        <ele>404.4</ele>
        <time>2021-04-10T07:26:06Z</time>
      </trkpt>
      <trkpt lat="45.19345" lon="5.83257">
        <ele>404.6</ele>
        <time>2021-04-10T07:26:07Z</time>
      </trkpt>
      <trkpt lat="45.19345" lon="5.83257">
        <ele>404.6</ele>
        <time>2021-04-10T07:26:08Z</time>
      </trkpt>
      <trkpt lat="45.19346" lon="5.83257">
        <ele>404.6</ele>
        <time>2021-04-10T07:26:09Z</time>
      </trkpt>
      <trkpt lat="45.19346" lon="5.83257">
        <ele>404.6</ele>
        <time>2021-04-10T07:26:10Z</time>
      </trkpt>
      <trkpt lat="45.19346" lon="5.83258">
        <ele>404.6</ele>
        <time>2021-04-10T07:26:11Z</time>
      </trkpt>
      <trkpt lat="45.19346" lon="5.83258">
        <ele>404.4</ele>
        <time>2021-04-10T07:26:12Z</time>
      </trkpt>
      <trkpt lat="45.19347" lon="5.83258">
        <ele>404.6</ele>
        <time>2021-04-10T07:26:13Z</time>
      </trkpt>
      <trkpt lat="45.19347" lon="5.83258">
        <ele>404.4</ele>
        <time>2021-04-10T07:26:14Z</time>
      </trkpt>
      <trkpt lat="45.19347" lon="5.83258">
        <ele>404.4</ele>
        <time>2021-04-10T07:26:15Z</time>
      </trkpt>
      <trkpt lat="45.19347" lon="5.83259">
        <ele>404.4</ele>
        <time>2021-04-10T07:26:16Z</time>
      </trkpt>
      <trkpt lat="45.19347" lon="5.83259">
        <ele>404.4</ele>
        <time>2021-04-10T07:26:17Z</time>
      </trkpt>
      <trkpt lat="45.19348" lon="5.83259">
        <ele>404.4</ele>
        <time>2021-04-10T07:26:18Z</time>
      </trkpt>
      <trkpt lat="45.19348" lon="5.83259">
        <ele>404.4</ele>
        <time>2021-04-10T07:26:19Z</time>
      </trkpt>
      <trkpt lat="45.19348" lon="5.83259">
        <ele>404.4</ele>
        <time>2021-04-10T07:26:20Z</time>
      </trkpt>
      <trkpt lat="45.19348" lon="5.83259">
        <ele>404.4</ele>
        <time>2021-04-10T07:26:21Z</time>
      </trkpt>
      <trkpt lat="45.19348" lon="5.8326">
        <ele>404.4</ele>
        <time>2021-04-10T07:26:22Z</time>
      </trkpt>
      <trkpt lat="45.19349" lon="5.8326">
        <ele>404.4</ele>
        <time>2021-04-10T07:26:23Z</time>
      </trkpt>
      <trkpt lat="45.19349" lon="5.8326">
        <ele>404.4</ele>
        <time>2021-04-10T07:26:24Z</time>
      </trkpt>
      <trkpt lat="45.19349" lon="5.8326">
        <ele>404.2</ele>
        <time>2021-04-10T07:26:25Z</time>
      </trkpt>
      <trkpt lat="45.19349" lon="5.8326">
        <ele>404.2</ele>
        <time>2021-04-10T07:26:26Z</time>
      </trkpt>
      <trkpt lat="45.1935" lon="5.83261">
        <ele>404</ele>
        <time>2021-04-10T07:26:27Z</time>
      </trkpt>
      <trkpt lat="45.1935" lon="5.83261">
        <ele>404</ele>
        <time>2021-04-10T07:26:28Z</time>
      </trkpt>
      <trkpt lat="45.1935" lon="5.83261">
        <ele>404</ele>
        <time>2021-04-10T07:26:29Z</time>
      </trkpt>
      <trkpt lat="45.1935" lon="5.83261">
        <ele>404</ele>
        <time>2021-04-10T07:26:30Z</time>
      </trkpt>
      <trkpt lat="45.1935" lon="5.83261">
        <ele>404</ele>
        <time>2021-04-10T07:26:31Z</time>
      </trkpt>
      <trkpt lat="45.19351" lon="5.83261">
        <ele>404</ele>
        <time>2021-04-10T07:26:32Z</time>
      </trkpt>
      <trkpt lat="45.19351" lon="5.83262">
        <ele>403.8</ele>
        <time>2021-04-10T07:26:33Z</time>
      </trkpt>
      <trkpt lat="45.19351" lon="5.83262">
        <ele>403.8</ele>
        <time>2021-04-10T07:26:34Z</time>
      </trkpt>
      <trkpt lat="45.19351" lon="5.83262">
        <ele>403.8</ele>
        <time>2021-04-10T07:26:35Z</time>
      </trkpt>
      <trkpt lat="45.19351" lon="5.83262">
        <ele>403.8</ele>
        <time>2021-04-10T07:26:36Z</time>
      </trkpt>
      <trkpt lat="45.19352" lon="5.83262">
        <ele>403.4</ele>
        <time>2021-04-10T07:26:37Z</time>
      </trkpt>
      <trkpt lat="45.19352" lon="5.83263">
        <ele>403.2</ele>
        <time>2021-04-10T07:26:38Z</time>
      </trkpt>
      <trkpt lat="45.19352" lon="5.83263">
        <ele>403.2</ele>
        <time>2021-04-10T07:26:39Z</time>
      </trkpt>
      <trkpt lat="45.19352" lon="5.83263">
        <ele>403.2</ele>
        <time>2021-04-10T07:26:40Z</time>
      </trkpt>
      <trkpt lat="45.19353" lon="5.83263">
        <ele>403</ele>
        <time>2021-04-10T07:26:41Z</time>
      </trkpt>
      <trkpt lat="45.19353" lon="5.83263">
        <ele>402.4</ele>
        <time>2021-04-10T07:26:42Z</time>
      </trkpt>
      <trkpt lat="45.19353" lon="5.83263">
        <ele>402.4</ele>
        <time>2021-04-10T07:26:43Z</time>
      </trkpt>
      <trkpt lat="45.19355" lon="5.83265">
        <ele>402</ele>
        <time>2021-04-10T07:26:44Z</time>
      </trkpt>
      <trkpt lat="45.19357" lon="5.83267">
        <ele>401.6</ele>
        <time>2021-04-10T07:26:45Z</time>
      </trkpt>
      <trkpt lat="45.19361" lon="5.83271">
        <ele>401.2</ele>
        <time>2021-04-10T07:26:46Z</time>
      </trkpt>
      <trkpt lat="45.19362" lon="5.83272">
        <ele>401</ele>
        <time>2021-04-10T07:26:47Z</time>
      </trkpt>
      <trkpt lat="45.19363" lon="5.83274">
        <ele>400.4</ele>
        <time>2021-04-10T07:26:48Z</time>
      </trkpt>
      <trkpt lat="45.19364" lon="5.83275">
        <ele>400.2</ele>
        <time>2021-04-10T07:26:49Z</time>
      </trkpt>
      <trkpt lat="45.19365" lon="5.83277">
        <ele>399.6</ele>
        <time>2021-04-10T07:26:50Z</time>
      </trkpt>
      <trkpt lat="45.19368" lon="5.83283">
        <ele>399.4</ele>
        <time>2021-04-10T07:26:51Z</time>
      </trkpt>
      <trkpt lat="45.19368" lon="5.83283">
        <ele>398.8</ele>
        <time>2021-04-10T07:26:52Z</time>
      </trkpt>
      <trkpt lat="45.19368" lon="5.83283">
        <ele>398.6</ele>
        <time>2021-04-10T07:26:53Z</time>
      </trkpt>
      <trkpt lat="45.19368" lon="5.83283">
        <ele>398</ele>
        <time>2021-04-10T07:26:54Z</time>
      </trkpt>
      <trkpt lat="45.19369" lon="5.83285">
        <ele>398</ele>
        <time>2021-04-10T07:26:55Z</time>
      </trkpt>
      <trkpt lat="45.1937" lon="5.83288">
        <ele>397.8</ele>
        <time>2021-04-10T07:26:56Z</time>
      </trkpt>
      <trkpt lat="45.19371" lon="5.83291">
        <ele>397.8</ele>
        <time>2021-04-10T07:26:57Z</time>
      </trkpt>
      <trkpt lat="45.19372" lon="5.83293">
        <ele>397.4</ele>
        <time>2021-04-10T07:26:58Z</time>
      </trkpt>
      <trkpt lat="45.19373" lon="5.83296">
        <ele>397.4</ele>
        <time>2021-04-10T07:26:59Z</time>
      </trkpt>
      <trkpt lat="45.19374" lon="5.83299">
        <ele>397</ele>
        <time>2021-04-10T07:27:00Z</time>
      </trkpt>
      <trkpt lat="45.19375" lon="5.83303">
        <ele>396.8</ele>
        <time>2021-04-10T07:27:01Z</time>
      </trkpt>
      <trkpt lat="45.19376" lon="5.83306">
        <ele>396.4</ele>
        <time>2021-04-10T07:27:02Z</time>
      </trkpt>
      <trkpt lat="45.19378" lon="5.83309">
        <ele>396</ele>
        <time>2021-04-10T07:27:03Z</time>
      </trkpt>
      <trkpt lat="45.19379" lon="5.83313">
        <ele>395.8</ele>
        <time>2021-04-10T07:27:04Z</time>
      </trkpt>
      <trkpt lat="45.1938" lon="5.83316">
        <ele>395.6</ele>
        <time>2021-04-10T07:27:05Z</time>
      </trkpt>
      <trkpt lat="45.19382" lon="5.83322">
        <ele>395.6</ele>
        <time>2021-04-10T07:27:06Z</time>
      </trkpt>
      <trkpt lat="45.19382" lon="5.83322">
        <ele>395.2</ele>
        <time>2021-04-10T07:27:07Z</time>
      </trkpt>
      <trkpt lat="45.19382" lon="5.83322">
        <ele>394.8</ele>
        <time>2021-04-10T07:27:08Z</time>
      </trkpt>
      <trkpt lat="45.19382" lon="5.83322">
        <ele>394.4</ele>
        <time>2021-04-10T07:27:09Z</time>
      </trkpt>
      <trkpt lat="45.19382" lon="5.83327">
        <ele>394.2</ele>
        <time>2021-04-10T07:27:10Z</time>
      </trkpt>
      <trkpt lat="45.19383" lon="5.83331">
        <ele>393.8</ele>
        <time>2021-04-10T07:27:11Z</time>
      </trkpt>
      <trkpt lat="45.19383" lon="5.83335">
        <ele>393.6</ele>
        <time>2021-04-10T07:27:12Z</time>
      </trkpt>
      <trkpt lat="45.19384" lon="5.83339">
        <ele>393</ele>
        <time>2021-04-10T07:27:13Z</time>
      </trkpt>
      <trkpt lat="45.19384" lon="5.83344">
        <ele>393.4</ele>
        <time>2021-04-10T07:27:14Z</time>
      </trkpt>
      <trkpt lat="45.19387" lon="5.83354">
        <ele>393</ele>
        <time>2021-04-10T07:27:15Z</time>
      </trkpt>
      <trkpt lat="45.19388" lon="5.83357">
        <ele>393.2</ele>
        <time>2021-04-10T07:27:16Z</time>
      </trkpt>
      <trkpt lat="45.19389" lon="5.83361">
        <ele>392.8</ele>
        <time>2021-04-10T07:27:17Z</time>
      </trkpt>
      <trkpt lat="45.19391" lon="5.83364">
        <ele>392.6</ele>
        <time>2021-04-10T07:27:18Z</time>
      </trkpt>
      <trkpt lat="45.19391" lon="5.83365">
        <ele>392.2</ele>
        <time>2021-04-10T07:27:19Z</time>
      </trkpt>
      <trkpt lat="45.19392" lon="5.83367">
        <ele>391.8</ele>
        <time>2021-04-10T07:27:20Z</time>
      </trkpt>
      <trkpt lat="45.19393" lon="5.83368">
        <ele>391</ele>
        <time>2021-04-10T07:27:21Z</time>
      </trkpt>
      <trkpt lat="45.19394" lon="5.83369">
        <ele>390.4</ele>
        <time>2021-04-10T07:27:22Z</time>
      </trkpt>
      <trkpt lat="45.19394" lon="5.83371">
        <ele>389.8</ele>
        <time>2021-04-10T07:27:23Z</time>
      </trkpt>
      <trkpt lat="45.19398" lon="5.83378">
        <ele>389</ele>
        <time>2021-04-10T07:27:24Z</time>
      </trkpt>
      <trkpt lat="45.19402" lon="5.83384">
        <ele>388.8</ele>
        <time>2021-04-10T07:27:25Z</time>
      </trkpt>
      <trkpt lat="45.19406" lon="5.83391">
        <ele>388.4</ele>
        <time>2021-04-10T07:27:26Z</time>
      </trkpt>
      <trkpt lat="45.19409" lon="5.83398">
        <ele>388.2</ele>
        <time>2021-04-10T07:27:27Z</time>
      </trkpt>
      <trkpt lat="45.19413" lon="5.83405">
        <ele>387.8</ele>
        <time>2021-04-10T07:27:28Z</time>
      </trkpt>
      <trkpt lat="45.19417" lon="5.83408">
        <ele>387.6</ele>
        <time>2021-04-10T07:27:29Z</time>
      </trkpt>
      <trkpt lat="45.1942" lon="5.83409">
        <ele>387.4</ele>
        <time>2021-04-10T07:27:30Z</time>
      </trkpt>
      <trkpt lat="45.19422" lon="5.8341">
        <ele>387.6</ele>
        <time>2021-04-10T07:27:31Z</time>
      </trkpt>
      <trkpt lat="45.19424" lon="5.83411">
        <ele>387.6</ele>
        <time>2021-04-10T07:27:32Z</time>
      </trkpt>
      <trkpt lat="45.19426" lon="5.83411">
        <ele>387.6</ele>
        <time>2021-04-10T07:27:33Z</time>
      </trkpt>
      <trkpt lat="45.19428" lon="5.83412">
        <ele>387.2</ele>
        <time>2021-04-10T07:27:34Z</time>
      </trkpt>
      <trkpt lat="45.19429" lon="5.83412">
        <ele>387</ele>
        <time>2021-04-10T07:27:35Z</time>
      </trkpt>
      <trkpt lat="45.1943" lon="5.83413">
        <ele>386.6</ele>
        <time>2021-04-10T07:27:36Z</time>
      </trkpt>
      <trkpt lat="45.19431" lon="5.83413">
        <ele>387</ele>
        <time>2021-04-10T07:27:37Z</time>
      </trkpt>
      <trkpt lat="45.19432" lon="5.83414">
        <ele>387</ele>
        <time>2021-04-10T07:27:38Z</time>
      </trkpt>
      <trkpt lat="45.19433" lon="5.83414">
        <ele>387</ele>
        <time>2021-04-10T07:27:39Z</time>
      </trkpt>
      <trkpt lat="45.19435" lon="5.83415">
        <ele>387</ele>
        <time>2021-04-10T07:27:40Z</time>
      </trkpt>
      <trkpt lat="45.19436" lon="5.83415">
        <ele>387</ele>
        <time>2021-04-10T07:27:41Z</time>
      </trkpt>
      <trkpt lat="45.19437" lon="5.83416">
        <ele>387</ele>
        <time>2021-04-10T07:27:42Z</time>
      </trkpt>
      <trkpt lat="45.19438" lon="5.83416">
        <ele>387</ele>
        <time>2021-04-10T07:27:43Z</time>
      </trkpt>
      <trkpt lat="45.19439" lon="5.83417">
        <ele>387.2</ele>
        <time>2021-04-10T07:27:44Z</time>
      </trkpt>
      <trkpt lat="45.1944" lon="5.83417">
        <ele>387.2</ele>
        <time>2021-04-10T07:27:45Z</time>
      </trkpt>
      <trkpt lat="45.19442" lon="5.83418">
        <ele>387.4</ele>
        <time>2021-04-10T07:27:46Z</time>
      </trkpt>
      <trkpt lat="45.19443" lon="5.83418">
        <ele>387.2</ele>
        <time>2021-04-10T07:27:47Z</time>
      </trkpt>
      <trkpt lat="45.19444" lon="5.83419">
        <ele>387.8</ele>
        <time>2021-04-10T07:27:48Z</time>
      </trkpt>
      <trkpt lat="45.19445" lon="5.83419">
        <ele>387.2</ele>
        <time>2021-04-10T07:27:49Z</time>
      </trkpt>
      <trkpt lat="45.19446" lon="5.8342">
        <ele>387.2</ele>
        <time>2021-04-10T07:27:50Z</time>
      </trkpt>
      <trkpt lat="45.19447" lon="5.8342">
        <ele>386.8</ele>
        <time>2021-04-10T07:27:51Z</time>
      </trkpt>
      <trkpt lat="45.19451" lon="5.83423">
        <ele>386.6</ele>
        <time>2021-04-10T07:27:52Z</time>
      </trkpt>
      <trkpt lat="45.19454" lon="5.83427">
        <ele>387</ele>
        <time>2021-04-10T07:27:53Z</time>
      </trkpt>
      <trkpt lat="45.19458" lon="5.8343">
        <ele>387.4</ele>
        <time>2021-04-10T07:27:54Z</time>
      </trkpt>
      <trkpt lat="45.19461" lon="5.83433">
        <ele>387.8</ele>
        <time>2021-04-10T07:27:55Z</time>
      </trkpt>
      <trkpt lat="45.19461" lon="5.83433">
        <ele>388</ele>
        <time>2021-04-10T07:27:56Z</time>
      </trkpt>
      <trkpt lat="45.19461" lon="5.83433">
        <ele>388.4</ele>
        <time>2021-04-10T07:27:57Z</time>
      </trkpt>
      <trkpt lat="45.19463" lon="5.83435">
        <ele>388.4</ele>
        <time>2021-04-10T07:27:58Z</time>
      </trkpt>
      <trkpt lat="45.19464" lon="5.83436">
        <ele>388.4</ele>
        <time>2021-04-10T07:27:59Z</time>
      </trkpt>
      <trkpt lat="45.19466" lon="5.83438">
        <ele>388.4</ele>
        <time>2021-04-10T07:28:00Z</time>
      </trkpt>
      <trkpt lat="45.19467" lon="5.8344">
        <ele>388.2</ele>
        <time>2021-04-10T07:28:01Z</time>
      </trkpt>
      <trkpt lat="45.19469" lon="5.83441">
        <ele>388.4</ele>
        <time>2021-04-10T07:28:02Z</time>
      </trkpt>
      <trkpt lat="45.19477" lon="5.83452">
        <ele>388.4</ele>
        <time>2021-04-10T07:28:03Z</time>
      </trkpt>
      <trkpt lat="45.19477" lon="5.83452">
        <ele>388.8</ele>
        <time>2021-04-10T07:28:04Z</time>
      </trkpt>
      <trkpt lat="45.19477" lon="5.83452">
        <ele>388.6</ele>
        <time>2021-04-10T07:28:05Z</time>
      </trkpt>
      <trkpt lat="45.19477" lon="5.83452">
        <ele>388.6</ele>
        <time>2021-04-10T07:28:06Z</time>
      </trkpt>
      <trkpt lat="45.19477" lon="5.83452">
        <ele>388.4</ele>
        <time>2021-04-10T07:28:07Z</time>
      </trkpt>
      <trkpt lat="45.19478" lon="5.83455">
        <ele>388.4</ele>
        <time>2021-04-10T07:28:08Z</time>
      </trkpt>
      <trkpt lat="45.19479" lon="5.83457">
        <ele>388.2</ele>
        <time>2021-04-10T07:28:09Z</time>
      </trkpt>
      <trkpt lat="45.1948" lon="5.83459">
        <ele>388</ele>
        <time>2021-04-10T07:28:10Z</time>
      </trkpt>
      <trkpt lat="45.19481" lon="5.83462">
        <ele>388</ele>
        <time>2021-04-10T07:28:11Z</time>
      </trkpt>
      <trkpt lat="45.19482" lon="5.83464">
        <ele>387.8</ele>
        <time>2021-04-10T07:28:12Z</time>
      </trkpt>
      <trkpt lat="45.19482" lon="5.83466">
        <ele>387.6</ele>
        <time>2021-04-10T07:28:13Z</time>
      </trkpt>
      <trkpt lat="45.19483" lon="5.83468">
        <ele>387.6</ele>
        <time>2021-04-10T07:28:14Z</time>
      </trkpt>
      <trkpt lat="45.19484" lon="5.83469">
        <ele>387.6</ele>
        <time>2021-04-10T07:28:15Z</time>
      </trkpt>
      <trkpt lat="45.19485" lon="5.83471">
        <ele>387.6</ele>
        <time>2021-04-10T07:28:16Z</time>
      </trkpt>
      <trkpt lat="45.19486" lon="5.83472">
        <ele>387.6</ele>
        <time>2021-04-10T07:28:17Z</time>
      </trkpt>
      <trkpt lat="45.19487" lon="5.83474">
        <ele>387.4</ele>
        <time>2021-04-10T07:28:18Z</time>
      </trkpt>
      <trkpt lat="45.19488" lon="5.83476">
        <ele>387.2</ele>
        <time>2021-04-10T07:28:19Z</time>
      </trkpt>
      <trkpt lat="45.19488" lon="5.83478">
        <ele>387</ele>
        <time>2021-04-10T07:28:20Z</time>
      </trkpt>
      <trkpt lat="45.19488" lon="5.83481">
        <ele>387.2</ele>
        <time>2021-04-10T07:28:21Z</time>
      </trkpt>
      <trkpt lat="45.19488" lon="5.83484">
        <ele>387</ele>
        <time>2021-04-10T07:28:22Z</time>
      </trkpt>
      <trkpt lat="45.19488" lon="5.83487">
        <ele>387</ele>
        <time>2021-04-10T07:28:23Z</time>
      </trkpt>
      <trkpt lat="45.19488" lon="5.83489">
        <ele>387</ele>
        <time>2021-04-10T07:28:24Z</time>
      </trkpt>
      <trkpt lat="45.19489" lon="5.83492">
        <ele>386.8</ele>
        <time>2021-04-10T07:28:25Z</time>
      </trkpt>
      <trkpt lat="45.1949" lon="5.83494">
        <ele>386.8</ele>
        <time>2021-04-10T07:28:26Z</time>
      </trkpt>
      <trkpt lat="45.19491" lon="5.83496">
        <ele>386.6</ele>
        <time>2021-04-10T07:28:27Z</time>
      </trkpt>
      <trkpt lat="45.19492" lon="5.83498">
        <ele>386.6</ele>
        <time>2021-04-10T07:28:28Z</time>
      </trkpt>
      <trkpt lat="45.19493" lon="5.83501">
        <ele>386.6</ele>
        <time>2021-04-10T07:28:29Z</time>
      </trkpt>
      <trkpt lat="45.19496" lon="5.83503">
        <ele>386.8</ele>
        <time>2021-04-10T07:28:30Z</time>
      </trkpt>
      <trkpt lat="45.19498" lon="5.83505">
        <ele>387</ele>
        <time>2021-04-10T07:28:31Z</time>
      </trkpt>
      <trkpt lat="45.195" lon="5.83508">
        <ele>387.6</ele>
        <time>2021-04-10T07:28:32Z</time>
      </trkpt>
      <trkpt lat="45.19503" lon="5.8351">
        <ele>387.8</ele>
        <time>2021-04-10T07:28:33Z</time>
      </trkpt>
      <trkpt lat="45.19505" lon="5.83512">
        <ele>388.4</ele>
        <time>2021-04-10T07:28:34Z</time>
      </trkpt>
      <trkpt lat="45.19507" lon="5.83515">
        <ele>388.6</ele>
        <time>2021-04-10T07:28:35Z</time>
      </trkpt>
      <trkpt lat="45.1951" lon="5.83517">
        <ele>389</ele>
        <time>2021-04-10T07:28:36Z</time>
      </trkpt>
      <trkpt lat="45.19512" lon="5.8352">
        <ele>388.8</ele>
        <time>2021-04-10T07:28:37Z</time>
      </trkpt>
      <trkpt lat="45.19519" lon="5.83526">
        <ele>388.8</ele>
        <time>2021-04-10T07:28:38Z</time>
      </trkpt>
      <trkpt lat="45.1952" lon="5.83528">
        <ele>388.6</ele>
        <time>2021-04-10T07:28:39Z</time>
      </trkpt>
      <trkpt lat="45.19522" lon="5.8353">
        <ele>388.8</ele>
        <time>2021-04-10T07:28:40Z</time>
      </trkpt>
      <trkpt lat="45.19527" lon="5.83537">
        <ele>388.6</ele>
        <time>2021-04-10T07:28:41Z</time>
      </trkpt>
      <trkpt lat="45.19528" lon="5.83539">
        <ele>389</ele>
        <time>2021-04-10T07:28:42Z</time>
      </trkpt>
      <trkpt lat="45.1953" lon="5.83541">
        <ele>389</ele>
        <time>2021-04-10T07:28:43Z</time>
      </trkpt>
      <trkpt lat="45.19533" lon="5.83549">
        <ele>389</ele>
        <time>2021-04-10T07:28:44Z</time>
      </trkpt>
      <trkpt lat="45.19534" lon="5.83553">
        <ele>389</ele>
        <time>2021-04-10T07:28:45Z</time>
      </trkpt>
      <trkpt lat="45.19535" lon="5.83556">
        <ele>389</ele>
        <time>2021-04-10T07:28:46Z</time>
      </trkpt>
      <trkpt lat="45.19535" lon="5.83558">
        <ele>389</ele>
        <time>2021-04-10T07:28:47Z</time>
      </trkpt>
      <trkpt lat="45.19536" lon="5.83561">
        <ele>389.4</ele>
        <time>2021-04-10T07:28:48Z</time>
      </trkpt>
      <trkpt lat="45.19536" lon="5.83561">
        <ele>389.4</ele>
        <time>2021-04-10T07:28:49Z</time>
      </trkpt>
      <trkpt lat="45.19536" lon="5.83561">
        <ele>389.6</ele>
        <time>2021-04-10T07:28:50Z</time>
      </trkpt>
      <trkpt lat="45.19536" lon="5.83563">
        <ele>389.8</ele>
        <time>2021-04-10T07:28:51Z</time>
      </trkpt>
      <trkpt lat="45.19535" lon="5.83565">
        <ele>390</ele>
        <time>2021-04-10T07:28:52Z</time>
      </trkpt>
      <trkpt lat="45.19535" lon="5.83568">
        <ele>390.4</ele>
        <time>2021-04-10T07:28:53Z</time>
      </trkpt>
      <trkpt lat="45.19535" lon="5.8357">
        <ele>390.8</ele>
        <time>2021-04-10T07:28:54Z</time>
      </trkpt>
      <trkpt lat="45.19535" lon="5.83572">
        <ele>391</ele>
        <time>2021-04-10T07:28:55Z</time>
      </trkpt>
      <trkpt lat="45.19535" lon="5.83575">
        <ele>391.2</ele>
        <time>2021-04-10T07:28:56Z</time>
      </trkpt>
      <trkpt lat="45.19535" lon="5.83576">
        <ele>391.6</ele>
        <time>2021-04-10T07:28:57Z</time>
      </trkpt>
      <trkpt lat="45.19536" lon="5.83578">
        <ele>392</ele>
        <time>2021-04-10T07:28:58Z</time>
      </trkpt>
      <trkpt lat="45.19536" lon="5.8358">
        <ele>392.4</ele>
        <time>2021-04-10T07:28:59Z</time>
      </trkpt>
      <trkpt lat="45.19536" lon="5.83582">
        <ele>392.8</ele>
        <time>2021-04-10T07:29:00Z</time>
      </trkpt>
      <trkpt lat="45.19536" lon="5.83584">
        <ele>393.2</ele>
        <time>2021-04-10T07:29:01Z</time>
      </trkpt>
      <trkpt lat="45.19536" lon="5.83585">
        <ele>393.6</ele>
        <time>2021-04-10T07:29:02Z</time>
      </trkpt>
      <trkpt lat="45.19536" lon="5.83587">
        <ele>394</ele>
        <time>2021-04-10T07:29:03Z</time>
      </trkpt>
      <trkpt lat="45.19536" lon="5.83589">
        <ele>394.6</ele>
        <time>2021-04-10T07:29:04Z</time>
      </trkpt>
      <trkpt lat="45.19538" lon="5.83591">
        <ele>394.8</ele>
        <time>2021-04-10T07:29:05Z</time>
      </trkpt>
      <trkpt lat="45.1954" lon="5.83594">
        <ele>395</ele>
        <time>2021-04-10T07:29:06Z</time>
      </trkpt>
      <trkpt lat="45.19542" lon="5.83596">
        <ele>395.4</ele>
        <time>2021-04-10T07:29:07Z</time>
      </trkpt>
      <trkpt lat="45.19543" lon="5.83598">
        <ele>395.8</ele>
        <time>2021-04-10T07:29:08Z</time>
      </trkpt>
      <trkpt lat="45.19545" lon="5.83601">
        <ele>396</ele>
        <time>2021-04-10T07:29:09Z</time>
      </trkpt>
      <trkpt lat="45.19547" lon="5.83603">
        <ele>396</ele>
        <time>2021-04-10T07:29:10Z</time>
      </trkpt>
      <trkpt lat="45.19553" lon="5.83605">
        <ele>395.8</ele>
        <time>2021-04-10T07:29:11Z</time>
      </trkpt>
      <trkpt lat="45.19555" lon="5.83608">
        <ele>395.6</ele>
        <time>2021-04-10T07:29:12Z</time>
      </trkpt>
      <trkpt lat="45.19556" lon="5.83609">
        <ele>395.6</ele>
        <time>2021-04-10T07:29:13Z</time>
      </trkpt>
      <trkpt lat="45.19557" lon="5.83611">
        <ele>395</ele>
        <time>2021-04-10T07:29:14Z</time>
      </trkpt>
      <trkpt lat="45.19558" lon="5.83612">
        <ele>395</ele>
        <time>2021-04-10T07:29:15Z</time>
      </trkpt>
      <trkpt lat="45.19559" lon="5.83614">
        <ele>394.8</ele>
        <time>2021-04-10T07:29:16Z</time>
      </trkpt>
      <trkpt lat="45.19561" lon="5.83616">
        <ele>394.6</ele>
        <time>2021-04-10T07:29:17Z</time>
      </trkpt>
      <trkpt lat="45.19562" lon="5.83619">
        <ele>395</ele>
        <time>2021-04-10T07:29:18Z</time>
      </trkpt>
      <trkpt lat="45.19563" lon="5.83622">
        <ele>395</ele>
        <time>2021-04-10T07:29:19Z</time>
      </trkpt>
      <trkpt lat="45.19565" lon="5.83625">
        <ele>395.4</ele>
        <time>2021-04-10T07:29:20Z</time>
      </trkpt>
      <trkpt lat="45.19565" lon="5.83625">
        <ele>395.4</ele>
        <time>2021-04-10T07:29:21Z</time>
      </trkpt>
      <trkpt lat="45.19565" lon="5.83625">
        <ele>395.8</ele>
        <time>2021-04-10T07:29:22Z</time>
      </trkpt>
      <trkpt lat="45.19565" lon="5.83625">
        <ele>395.8</ele>
        <time>2021-04-10T07:29:23Z</time>
      </trkpt>
      <trkpt lat="45.19566" lon="5.83627">
        <ele>396</ele>
        <time>2021-04-10T07:29:24Z</time>
      </trkpt>
      <trkpt lat="45.19567" lon="5.83629">
        <ele>396</ele>
        <time>2021-04-10T07:29:25Z</time>
      </trkpt>
      <trkpt lat="45.19569" lon="5.8363">
        <ele>396.4</ele>
        <time>2021-04-10T07:29:26Z</time>
      </trkpt>
      <trkpt lat="45.1957" lon="5.83632">
        <ele>396.4</ele>
        <time>2021-04-10T07:29:27Z</time>
      </trkpt>
      <trkpt lat="45.19571" lon="5.83634">
        <ele>396.8</ele>
        <time>2021-04-10T07:29:28Z</time>
      </trkpt>
      <trkpt lat="45.19572" lon="5.83637">
        <ele>397</ele>
        <time>2021-04-10T07:29:29Z</time>
      </trkpt>
      <trkpt lat="45.19573" lon="5.83639">
        <ele>397.4</ele>
        <time>2021-04-10T07:29:30Z</time>
      </trkpt>
      <trkpt lat="45.19574" lon="5.83642">
        <ele>397.4</ele>
        <time>2021-04-10T07:29:31Z</time>
      </trkpt>
      <trkpt lat="45.19575" lon="5.83644">
        <ele>397.6</ele>
        <time>2021-04-10T07:29:32Z</time>
      </trkpt>
      <trkpt lat="45.19575" lon="5.83647">
        <ele>397.6</ele>
        <time>2021-04-10T07:29:33Z</time>
      </trkpt>
      <trkpt lat="45.19581" lon="5.83659">
        <ele>397.8</ele>
        <time>2021-04-10T07:29:34Z</time>
      </trkpt>
      <trkpt lat="45.19581" lon="5.83659">
        <ele>397.8</ele>
        <time>2021-04-10T07:29:35Z</time>
      </trkpt>
      <trkpt lat="45.19581" lon="5.83659">
        <ele>398</ele>
        <time>2021-04-10T07:29:36Z</time>
      </trkpt>
      <trkpt lat="45.19581" lon="5.83659">
        <ele>397.8</ele>
        <time>2021-04-10T07:29:37Z</time>
      </trkpt>
      <trkpt lat="45.19583" lon="5.83661">
        <ele>398.2</ele>
        <time>2021-04-10T07:29:38Z</time>
      </trkpt>
      <trkpt lat="45.19585" lon="5.83663">
        <ele>398.2</ele>
        <time>2021-04-10T07:29:39Z</time>
      </trkpt>
      <trkpt lat="45.19587" lon="5.83665">
        <ele>398.4</ele>
        <time>2021-04-10T07:29:40Z</time>
      </trkpt>
      <trkpt lat="45.1959" lon="5.83666">
        <ele>398.4</ele>
        <time>2021-04-10T07:29:41Z</time>
      </trkpt>
      <trkpt lat="45.19592" lon="5.83668">
        <ele>398.6</ele>
        <time>2021-04-10T07:29:42Z</time>
      </trkpt>
      <trkpt lat="45.19594" lon="5.8367">
        <ele>398.6</ele>
        <time>2021-04-10T07:29:43Z</time>
      </trkpt>
      <trkpt lat="45.19598" lon="5.83672">
        <ele>399</ele>
        <time>2021-04-10T07:29:44Z</time>
      </trkpt>
      <trkpt lat="45.19598" lon="5.83672">
        <ele>398.8</ele>
        <time>2021-04-10T07:29:45Z</time>
      </trkpt>
      <trkpt lat="45.19598" lon="5.83672">
        <ele>399.2</ele>
        <time>2021-04-10T07:29:46Z</time>
      </trkpt>
      <trkpt lat="45.19598" lon="5.83672">
        <ele>399</ele>
        <time>2021-04-10T07:29:47Z</time>
      </trkpt>
      <trkpt lat="45.19601" lon="5.83674">
        <ele>399.4</ele>
        <time>2021-04-10T07:29:48Z</time>
      </trkpt>
      <trkpt lat="45.19603" lon="5.83677">
        <ele>399.4</ele>
        <time>2021-04-10T07:29:49Z</time>
      </trkpt>
      <trkpt lat="45.19605" lon="5.83679">
        <ele>399.8</ele>
        <time>2021-04-10T07:29:50Z</time>
      </trkpt>
      <trkpt lat="45.19607" lon="5.83682">
        <ele>400</ele>
        <time>2021-04-10T07:29:51Z</time>
      </trkpt>
      <trkpt lat="45.19609" lon="5.83685">
        <ele>400.2</ele>
        <time>2021-04-10T07:29:52Z</time>
      </trkpt>
      <trkpt lat="45.19611" lon="5.83691">
        <ele>399.8</ele>
        <time>2021-04-10T07:29:53Z</time>
      </trkpt>
      <trkpt lat="45.19612" lon="5.83692">
        <ele>399.6</ele>
        <time>2021-04-10T07:29:54Z</time>
      </trkpt>
      <trkpt lat="45.19613" lon="5.83693">
        <ele>399.4</ele>
        <time>2021-04-10T07:29:55Z</time>
      </trkpt>
      <trkpt lat="45.19614" lon="5.83694">
        <ele>399</ele>
        <time>2021-04-10T07:29:56Z</time>
      </trkpt>
      <trkpt lat="45.19615" lon="5.83695">
        <ele>398.4</ele>
        <time>2021-04-10T07:29:57Z</time>
      </trkpt>
      <trkpt lat="45.19619" lon="5.83699">
        <ele>398</ele>
        <time>2021-04-10T07:29:58Z</time>
      </trkpt>
      <trkpt lat="45.19619" lon="5.83699">
        <ele>397.4</ele>
        <time>2021-04-10T07:29:59Z</time>
      </trkpt>
      <trkpt lat="45.19621" lon="5.83713">
        <ele>396.6</ele>
        <time>2021-04-10T07:30:01Z</time>
      </trkpt>
      <trkpt lat="45.19621" lon="5.83713">
        <ele>396.2</ele>
        <time>2021-04-10T07:30:02Z</time>
      </trkpt>
      <trkpt lat="45.19621" lon="5.83713">
        <ele>396.2</ele>
        <time>2021-04-10T07:30:03Z</time>
      </trkpt>
      <trkpt lat="45.19621" lon="5.83713">
        <ele>395.8</ele>
        <time>2021-04-10T07:30:04Z</time>
      </trkpt>
      <trkpt lat="45.19622" lon="5.83712">
        <ele>395.6</ele>
        <time>2021-04-10T07:30:05Z</time>
      </trkpt>
      <trkpt lat="45.19624" lon="5.83712">
        <ele>395.2</ele>
        <time>2021-04-10T07:30:06Z</time>
      </trkpt>
      <trkpt lat="45.19626" lon="5.83711">
        <ele>394.8</ele>
        <time>2021-04-10T07:30:07Z</time>
      </trkpt>
      <trkpt lat="45.19627" lon="5.8371">
        <ele>394.4</ele>
        <time>2021-04-10T07:30:08Z</time>
      </trkpt>
      <trkpt lat="45.19629" lon="5.8371">
        <ele>394</ele>
        <time>2021-04-10T07:30:09Z</time>
      </trkpt>
      <trkpt lat="45.19631" lon="5.83709">
        <ele>394</ele>
        <time>2021-04-10T07:30:10Z</time>
      </trkpt>
      <trkpt lat="45.19632" lon="5.83709">
        <ele>393.8</ele>
        <time>2021-04-10T07:30:11Z</time>
      </trkpt>
      <trkpt lat="45.19634" lon="5.83708">
        <ele>393.8</ele>
        <time>2021-04-10T07:30:12Z</time>
      </trkpt>
      <trkpt lat="45.19635" lon="5.83707">
        <ele>393.6</ele>
        <time>2021-04-10T07:30:13Z</time>
      </trkpt>
      <trkpt lat="45.1964" lon="5.83707">
        <ele>393.2</ele>
        <time>2021-04-10T07:30:14Z</time>
      </trkpt>
      <trkpt lat="45.19642" lon="5.83708">
        <ele>392.6</ele>
        <time>2021-04-10T07:30:15Z</time>
      </trkpt>
      <trkpt lat="45.19644" lon="5.83708">
        <ele>392.4</ele>
        <time>2021-04-10T07:30:16Z</time>
      </trkpt>
      <trkpt lat="45.19645" lon="5.83709">
        <ele>391.8</ele>
        <time>2021-04-10T07:30:17Z</time>
      </trkpt>
      <trkpt lat="45.19647" lon="5.8371">
        <ele>391.6</ele>
        <time>2021-04-10T07:30:18Z</time>
      </trkpt>
      <trkpt lat="45.19654" lon="5.83712">
        <ele>391</ele>
        <time>2021-04-10T07:30:19Z</time>
      </trkpt>
      <trkpt lat="45.19657" lon="5.83713">
        <ele>390.8</ele>
        <time>2021-04-10T07:30:20Z</time>
      </trkpt>
      <trkpt lat="45.19659" lon="5.83714">
        <ele>391</ele>
        <time>2021-04-10T07:30:21Z</time>
      </trkpt>
      <trkpt lat="45.19661" lon="5.83715">
        <ele>390.4</ele>
        <time>2021-04-10T07:30:22Z</time>
      </trkpt>
      <trkpt lat="45.19663" lon="5.83717">
        <ele>390</ele>
        <time>2021-04-10T07:30:23Z</time>
      </trkpt>
      <trkpt lat="45.19665" lon="5.83719">
        <ele>389.4</ele>
        <time>2021-04-10T07:30:24Z</time>
      </trkpt>
      <trkpt lat="45.19667" lon="5.83721">
        <ele>389.6</ele>
        <time>2021-04-10T07:30:25Z</time>
      </trkpt>
      <trkpt lat="45.19673" lon="5.83727">
        <ele>389.2</ele>
        <time>2021-04-10T07:30:26Z</time>
      </trkpt>
      <trkpt lat="45.19676" lon="5.83731">
        <ele>389</ele>
        <time>2021-04-10T07:30:27Z</time>
      </trkpt>
      <trkpt lat="45.19678" lon="5.83734">
        <ele>388.6</ele>
        <time>2021-04-10T07:30:28Z</time>
      </trkpt>
      <trkpt lat="45.19681" lon="5.83737">
        <ele>388.2</ele>
        <time>2021-04-10T07:30:29Z</time>
      </trkpt>
      <trkpt lat="45.19684" lon="5.83742">
        <ele>387.8</ele>
        <time>2021-04-10T07:30:30Z</time>
      </trkpt>
      <trkpt lat="45.19685" lon="5.83745">
        <ele>387.8</ele>
        <time>2021-04-10T07:30:31Z</time>
      </trkpt>
      <trkpt lat="45.19687" lon="5.83748">
        <ele>387.4</ele>
        <time>2021-04-10T07:30:32Z</time>
      </trkpt>
      <trkpt lat="45.19689" lon="5.8375">
        <ele>387</ele>
        <time>2021-04-10T07:30:33Z</time>
      </trkpt>
      <trkpt lat="45.1969" lon="5.83752">
        <ele>386.6</ele>
        <time>2021-04-10T07:30:34Z</time>
      </trkpt>
      <trkpt lat="45.19694" lon="5.83757">
        <ele>386.4</ele>
        <time>2021-04-10T07:30:35Z</time>
      </trkpt>
      <trkpt lat="45.19694" lon="5.83757">
        <ele>386.4</ele>
        <time>2021-04-10T07:30:36Z</time>
      </trkpt>
      <trkpt lat="45.19694" lon="5.83757">
        <ele>386.8</ele>
        <time>2021-04-10T07:30:37Z</time>
      </trkpt>
      <trkpt lat="45.19694" lon="5.83757">
        <ele>386.6</ele>
        <time>2021-04-10T07:30:38Z</time>
      </trkpt>
      <trkpt lat="45.19696" lon="5.83758">
        <ele>386.4</ele>
        <time>2021-04-10T07:30:39Z</time>
      </trkpt>
      <trkpt lat="45.19698" lon="5.83759">
        <ele>386.4</ele>
        <time>2021-04-10T07:30:40Z</time>
      </trkpt>
      <trkpt lat="45.19699" lon="5.83759">
        <ele>386</ele>
        <time>2021-04-10T07:30:41Z</time>
      </trkpt>
      <trkpt lat="45.19701" lon="5.8376">
        <ele>386</ele>
        <time>2021-04-10T07:30:42Z</time>
      </trkpt>
      <trkpt lat="45.19703" lon="5.83761">
        <ele>385.6</ele>
        <time>2021-04-10T07:30:43Z</time>
      </trkpt>
      <trkpt lat="45.19704" lon="5.83762">
        <ele>385.6</ele>
        <time>2021-04-10T07:30:44Z</time>
      </trkpt>
      <trkpt lat="45.19707" lon="5.83764">
        <ele>385.4</ele>
        <time>2021-04-10T07:30:45Z</time>
      </trkpt>
      <trkpt lat="45.1971" lon="5.83766">
        <ele>385.6</ele>
        <time>2021-04-10T07:30:46Z</time>
      </trkpt>
      <trkpt lat="45.19713" lon="5.83768">
        <ele>385.4</ele>
        <time>2021-04-10T07:30:47Z</time>
      </trkpt>
      <trkpt lat="45.19715" lon="5.8377">
        <ele>385.6</ele>
        <time>2021-04-10T07:30:48Z</time>
      </trkpt>
      <trkpt lat="45.19718" lon="5.83772">
        <ele>385.4</ele>
        <time>2021-04-10T07:30:49Z</time>
      </trkpt>
      <trkpt lat="45.19723" lon="5.83775">
        <ele>385.6</ele>
        <time>2021-04-10T07:30:50Z</time>
      </trkpt>
      <trkpt lat="45.19724" lon="5.83776">
        <ele>385.6</ele>
        <time>2021-04-10T07:30:51Z</time>
      </trkpt>
      <trkpt lat="45.19726" lon="5.83778">
        <ele>385.4</ele>
        <time>2021-04-10T07:30:52Z</time>
      </trkpt>
      <trkpt lat="45.19727" lon="5.83779">
        <ele>385</ele>
        <time>2021-04-10T07:30:53Z</time>
      </trkpt>
      <trkpt lat="45.19729" lon="5.8378">
        <ele>384.8</ele>
        <time>2021-04-10T07:30:54Z</time>
      </trkpt>
      <trkpt lat="45.19735" lon="5.83785">
        <ele>384.2</ele>
        <time>2021-04-10T07:30:55Z</time>
      </trkpt>
      <trkpt lat="45.19737" lon="5.83787">
        <ele>383.4</ele>
        <time>2021-04-10T07:30:56Z</time>
      </trkpt>
      <trkpt lat="45.19739" lon="5.83789">
        <ele>383.2</ele>
        <time>2021-04-10T07:30:57Z</time>
      </trkpt>
      <trkpt lat="45.19741" lon="5.83792">
        <ele>382.8</ele>
        <time>2021-04-10T07:30:58Z</time>
      </trkpt>
      <trkpt lat="45.19743" lon="5.83796">
        <ele>382.8</ele>
        <time>2021-04-10T07:30:59Z</time>
      </trkpt>
      <trkpt lat="45.19745" lon="5.838">
        <ele>382.4</ele>
        <time>2021-04-10T07:31:00Z</time>
      </trkpt>
      <trkpt lat="45.19745" lon="5.838">
        <ele>382.6</ele>
        <time>2021-04-10T07:31:01Z</time>
      </trkpt>
      <trkpt lat="45.19745" lon="5.838">
        <ele>382.2</ele>
        <time>2021-04-10T07:31:02Z</time>
      </trkpt>
      <trkpt lat="45.19745" lon="5.838">
        <ele>382.2</ele>
        <time>2021-04-10T07:31:03Z</time>
      </trkpt>
      <trkpt lat="45.19747" lon="5.83803">
        <ele>381.8</ele>
        <time>2021-04-10T07:31:04Z</time>
      </trkpt>
      <trkpt lat="45.1975" lon="5.83806">
        <ele>381.6</ele>
        <time>2021-04-10T07:31:05Z</time>
      </trkpt>
      <trkpt lat="45.19752" lon="5.83809">
        <ele>381.4</ele>
        <time>2021-04-10T07:31:06Z</time>
      </trkpt>
      <trkpt lat="45.19755" lon="5.83813">
        <ele>380.8</ele>
        <time>2021-04-10T07:31:07Z</time>
      </trkpt>
      <trkpt lat="45.19757" lon="5.83816">
        <ele>380.4</ele>
        <time>2021-04-10T07:31:08Z</time>
      </trkpt>
      <trkpt lat="45.19762" lon="5.83823">
        <ele>380</ele>
        <time>2021-04-10T07:31:09Z</time>
      </trkpt>
      <trkpt lat="45.19765" lon="5.83827">
        <ele>380</ele>
        <time>2021-04-10T07:31:10Z</time>
      </trkpt>
      <trkpt lat="45.19766" lon="5.8383">
        <ele>380</ele>
        <time>2021-04-10T07:31:11Z</time>
      </trkpt>
      <trkpt lat="45.19768" lon="5.83833">
        <ele>380.2</ele>
        <time>2021-04-10T07:31:12Z</time>
      </trkpt>
      <trkpt lat="45.1977" lon="5.83836">
        <ele>379.8</ele>
        <time>2021-04-10T07:31:13Z</time>
      </trkpt>
      <trkpt lat="45.19772" lon="5.83839">
        <ele>379.8</ele>
        <time>2021-04-10T07:31:14Z</time>
      </trkpt>
      <trkpt lat="45.19775" lon="5.83843">
        <ele>379.4</ele>
        <time>2021-04-10T07:31:15Z</time>
      </trkpt>
      <trkpt lat="45.19776" lon="5.83845">
        <ele>379.6</ele>
        <time>2021-04-10T07:31:16Z</time>
      </trkpt>
      <trkpt lat="45.19778" lon="5.83847">
        <ele>379.2</ele>
        <time>2021-04-10T07:31:17Z</time>
      </trkpt>
      <trkpt lat="45.1978" lon="5.8385">
        <ele>379.4</ele>
        <time>2021-04-10T07:31:18Z</time>
      </trkpt>
      <trkpt lat="45.19782" lon="5.83852">
        <ele>379.2</ele>
        <time>2021-04-10T07:31:19Z</time>
      </trkpt>
      <trkpt lat="45.19783" lon="5.83855">
        <ele>379.4</ele>
        <time>2021-04-10T07:31:20Z</time>
      </trkpt>
      <trkpt lat="45.19785" lon="5.83858">
        <ele>379.2</ele>
        <time>2021-04-10T07:31:21Z</time>
      </trkpt>
      <trkpt lat="45.19786" lon="5.83861">
        <ele>379.4</ele>
        <time>2021-04-10T07:31:22Z</time>
      </trkpt>
      <trkpt lat="45.19788" lon="5.83863">
        <ele>379.2</ele>
        <time>2021-04-10T07:31:23Z</time>
      </trkpt>
      <trkpt lat="45.19788" lon="5.83866">
        <ele>379.2</ele>
        <time>2021-04-10T07:31:24Z</time>
      </trkpt>
      <trkpt lat="45.19789" lon="5.83868">
        <ele>378.6</ele>
        <time>2021-04-10T07:31:25Z</time>
      </trkpt>
      <trkpt lat="45.1979" lon="5.83871">
        <ele>378.4</ele>
        <time>2021-04-10T07:31:26Z</time>
      </trkpt>
      <trkpt lat="45.1979" lon="5.83873">
        <ele>378.2</ele>
        <time>2021-04-10T07:31:27Z</time>
      </trkpt>
      <trkpt lat="45.19793" lon="5.83882">
        <ele>377.8</ele>
        <time>2021-04-10T07:31:28Z</time>
      </trkpt>
      <trkpt lat="45.19794" lon="5.83886">
        <ele>377.4</ele>
        <time>2021-04-10T07:31:29Z</time>
      </trkpt>
      <trkpt lat="45.19794" lon="5.83889">
        <ele>376.8</ele>
        <time>2021-04-10T07:31:30Z</time>
      </trkpt>
      <trkpt lat="45.19795" lon="5.83892">
        <ele>376.8</ele>
        <time>2021-04-10T07:31:31Z</time>
      </trkpt>
      <trkpt lat="45.19796" lon="5.83894">
        <ele>376.2</ele>
        <time>2021-04-10T07:31:32Z</time>
      </trkpt>
      <trkpt lat="45.19797" lon="5.83897">
        <ele>376.2</ele>
        <time>2021-04-10T07:31:33Z</time>
      </trkpt>
      <trkpt lat="45.19799" lon="5.83904">
        <ele>376</ele>
        <time>2021-04-10T07:31:34Z</time>
      </trkpt>
      <trkpt lat="45.19799" lon="5.83904">
        <ele>376</ele>
        <time>2021-04-10T07:31:35Z</time>
      </trkpt>
      <trkpt lat="45.19799" lon="5.83904">
        <ele>375.8</ele>
        <time>2021-04-10T07:31:36Z</time>
      </trkpt>
      <trkpt lat="45.19799" lon="5.83904">
        <ele>375.6</ele>
        <time>2021-04-10T07:31:37Z</time>
      </trkpt>
      <trkpt lat="45.198" lon="5.83905">
        <ele>375.4</ele>
        <time>2021-04-10T07:31:38Z</time>
      </trkpt>
      <trkpt lat="45.19801" lon="5.83907">
        <ele>375</ele>
        <time>2021-04-10T07:31:39Z</time>
      </trkpt>
      <trkpt lat="45.19802" lon="5.83908">
        <ele>374.6</ele>
        <time>2021-04-10T07:31:40Z</time>
      </trkpt>
      <trkpt lat="45.19803" lon="5.83909">
        <ele>374.8</ele>
        <time>2021-04-10T07:31:41Z</time>
      </trkpt>
      <trkpt lat="45.19804" lon="5.83911">
        <ele>374.2</ele>
        <time>2021-04-10T07:31:42Z</time>
      </trkpt>
      <trkpt lat="45.19805" lon="5.83912">
        <ele>374.2</ele>
        <time>2021-04-10T07:31:43Z</time>
      </trkpt>
      <trkpt lat="45.19806" lon="5.83914">
        <ele>374.4</ele>
        <time>2021-04-10T07:31:44Z</time>
      </trkpt>
      <trkpt lat="45.19807" lon="5.83915">
        <ele>374.4</ele>
        <time>2021-04-10T07:31:45Z</time>
      </trkpt>
      <trkpt lat="45.19808" lon="5.83916">
        <ele>375</ele>
        <time>2021-04-10T07:31:46Z</time>
      </trkpt>
      <trkpt lat="45.19809" lon="5.83918">
        <ele>375.2</ele>
        <time>2021-04-10T07:31:47Z</time>
      </trkpt>
      <trkpt lat="45.1981" lon="5.83919">
        <ele>375.8</ele>
        <time>2021-04-10T07:31:48Z</time>
      </trkpt>
      <trkpt lat="45.19813" lon="5.83924">
        <ele>376.2</ele>
        <time>2021-04-10T07:31:49Z</time>
      </trkpt>
      <trkpt lat="45.19815" lon="5.83926">
        <ele>376.8</ele>
        <time>2021-04-10T07:31:50Z</time>
      </trkpt>
      <trkpt lat="45.19817" lon="5.83928">
        <ele>377</ele>
        <time>2021-04-10T07:31:51Z</time>
      </trkpt>
      <trkpt lat="45.19819" lon="5.8393">
        <ele>377.2</ele>
        <time>2021-04-10T07:31:52Z</time>
      </trkpt>
      <trkpt lat="45.1982" lon="5.83932">
        <ele>377.2</ele>
        <time>2021-04-10T07:31:53Z</time>
      </trkpt>
      <trkpt lat="45.19821" lon="5.83934">
        <ele>377.4</ele>
        <time>2021-04-10T07:31:54Z</time>
      </trkpt>
      <trkpt lat="45.19822" lon="5.83935">
        <ele>377.4</ele>
        <time>2021-04-10T07:31:55Z</time>
      </trkpt>
      <trkpt lat="45.19822" lon="5.83937">
        <ele>377.4</ele>
        <time>2021-04-10T07:31:56Z</time>
      </trkpt>
      <trkpt lat="45.19823" lon="5.83938">
        <ele>377.4</ele>
        <time>2021-04-10T07:31:57Z</time>
      </trkpt>
      <trkpt lat="45.19826" lon="5.83944">
        <ele>377.8</ele>
        <time>2021-04-10T07:31:58Z</time>
      </trkpt>
      <trkpt lat="45.19826" lon="5.83944">
        <ele>377.4</ele>
        <time>2021-04-10T07:31:59Z</time>
      </trkpt>
      <trkpt lat="45.19826" lon="5.83944">
        <ele>377.4</ele>
        <time>2021-04-10T07:32:00Z</time>
      </trkpt>
      <trkpt lat="45.19827" lon="5.83947">
        <ele>377.8</ele>
        <time>2021-04-10T07:32:01Z</time>
      </trkpt>
      <trkpt lat="45.19828" lon="5.83949">
        <ele>377.6</ele>
        <time>2021-04-10T07:32:02Z</time>
      </trkpt>
      <trkpt lat="45.1983" lon="5.83951">
        <ele>377.8</ele>
        <time>2021-04-10T07:32:03Z</time>
      </trkpt>
      <trkpt lat="45.19831" lon="5.83953">
        <ele>378.2</ele>
        <time>2021-04-10T07:32:04Z</time>
      </trkpt>
      <trkpt lat="45.19832" lon="5.83956">
        <ele>378.4</ele>
        <time>2021-04-10T07:32:05Z</time>
      </trkpt>
      <trkpt lat="45.19833" lon="5.83957">
        <ele>378.6</ele>
        <time>2021-04-10T07:32:06Z</time>
      </trkpt>
      <trkpt lat="45.19835" lon="5.83959">
        <ele>378.8</ele>
        <time>2021-04-10T07:32:07Z</time>
      </trkpt>
      <trkpt lat="45.19836" lon="5.83961">
        <ele>379</ele>
        <time>2021-04-10T07:32:08Z</time>
      </trkpt>
      <trkpt lat="45.19837" lon="5.83963">
        <ele>378.6</ele>
        <time>2021-04-10T07:32:09Z</time>
      </trkpt>
      <trkpt lat="45.19838" lon="5.83965">
        <ele>378.6</ele>
        <time>2021-04-10T07:32:10Z</time>
      </trkpt>
      <trkpt lat="45.19845" lon="5.83973">
        <ele>378.6</ele>
        <time>2021-04-10T07:32:11Z</time>
      </trkpt>
      <trkpt lat="45.19845" lon="5.83973">
        <ele>378.6</ele>
        <time>2021-04-10T07:32:12Z</time>
      </trkpt>
      <trkpt lat="45.19845" lon="5.83973">
        <ele>378.4</ele>
        <time>2021-04-10T07:32:13Z</time>
      </trkpt>
      <trkpt lat="45.19845" lon="5.83973">
        <ele>378.4</ele>
        <time>2021-04-10T07:32:14Z</time>
      </trkpt>
      <trkpt lat="45.19847" lon="5.83977">
        <ele>377.8</ele>
        <time>2021-04-10T07:32:15Z</time>
      </trkpt>
      <trkpt lat="45.19849" lon="5.83981">
        <ele>377.2</ele>
        <time>2021-04-10T07:32:16Z</time>
      </trkpt>
      <trkpt lat="45.19851" lon="5.83985">
        <ele>376.6</ele>
        <time>2021-04-10T07:32:17Z</time>
      </trkpt>
      <trkpt lat="45.19853" lon="5.83988">
        <ele>376</ele>
        <time>2021-04-10T07:32:18Z</time>
      </trkpt>
      <trkpt lat="45.19855" lon="5.83992">
        <ele>376</ele>
        <time>2021-04-10T07:32:19Z</time>
      </trkpt>
      <trkpt lat="45.1986" lon="5.83999">
        <ele>375.6</ele>
        <time>2021-04-10T07:32:20Z</time>
      </trkpt>
      <trkpt lat="45.19863" lon="5.84">
        <ele>375.2</ele>
        <time>2021-04-10T07:32:21Z</time>
      </trkpt>
      <trkpt lat="45.19865" lon="5.84001">
        <ele>374.2</ele>
        <time>2021-04-10T07:32:22Z</time>
      </trkpt>
      <trkpt lat="45.19867" lon="5.84002">
        <ele>373.6</ele>
        <time>2021-04-10T07:32:23Z</time>
      </trkpt>
      <trkpt lat="45.19869" lon="5.84003">
        <ele>372.8</ele>
        <time>2021-04-10T07:32:24Z</time>
      </trkpt>
      <trkpt lat="45.1987" lon="5.84004">
        <ele>372.2</ele>
        <time>2021-04-10T07:32:25Z</time>
      </trkpt>
      <trkpt lat="45.19871" lon="5.84006">
        <ele>371.6</ele>
        <time>2021-04-10T07:32:26Z</time>
      </trkpt>
      <trkpt lat="45.19872" lon="5.84007">
        <ele>371.2</ele>
        <time>2021-04-10T07:32:27Z</time>
      </trkpt>
      <trkpt lat="45.19876" lon="5.84012">
        <ele>371.2</ele>
        <time>2021-04-10T07:32:28Z</time>
      </trkpt>
      <trkpt lat="45.19879" lon="5.84016">
        <ele>370.4</ele>
        <time>2021-04-10T07:32:30Z</time>
      </trkpt>
      <trkpt lat="45.19882" lon="5.84021">
        <ele>369.8</ele>
        <time>2021-04-10T07:32:31Z</time>
      </trkpt>
      <trkpt lat="45.19886" lon="5.84027">
        <ele>369.2</ele>
        <time>2021-04-10T07:32:32Z</time>
      </trkpt>
      <trkpt lat="45.19886" lon="5.84027">
        <ele>368.6</ele>
        <time>2021-04-10T07:32:33Z</time>
      </trkpt>
      <trkpt lat="45.19886" lon="5.84027">
        <ele>367.8</ele>
        <time>2021-04-10T07:32:34Z</time>
      </trkpt>
      <trkpt lat="45.19887" lon="5.8403">
        <ele>367.8</ele>
        <time>2021-04-10T07:32:35Z</time>
      </trkpt>
      <trkpt lat="45.19889" lon="5.84032">
        <ele>367.2</ele>
        <time>2021-04-10T07:32:36Z</time>
      </trkpt>
      <trkpt lat="45.19891" lon="5.84034">
        <ele>367.2</ele>
        <time>2021-04-10T07:32:37Z</time>
      </trkpt>
      <trkpt lat="45.19892" lon="5.84036">
        <ele>366.6</ele>
        <time>2021-04-10T07:32:38Z</time>
      </trkpt>
      <trkpt lat="45.19894" lon="5.84039">
        <ele>366</ele>
        <time>2021-04-10T07:32:39Z</time>
      </trkpt>
      <trkpt lat="45.19896" lon="5.84041">
        <ele>365.4</ele>
        <time>2021-04-10T07:32:40Z</time>
      </trkpt>
      <trkpt lat="45.19897" lon="5.84041">
        <ele>364.6</ele>
        <time>2021-04-10T07:32:41Z</time>
      </trkpt>
      <trkpt lat="45.19899" lon="5.84041">
        <ele>363.8</ele>
        <time>2021-04-10T07:32:42Z</time>
      </trkpt>
      <trkpt lat="45.199" lon="5.84041">
        <ele>363</ele>
        <time>2021-04-10T07:32:43Z</time>
      </trkpt>
      <trkpt lat="45.19901" lon="5.8404">
        <ele>362.2</ele>
        <time>2021-04-10T07:32:44Z</time>
      </trkpt>
      <trkpt lat="45.19903" lon="5.8404">
        <ele>361.4</ele>
        <time>2021-04-10T07:32:45Z</time>
      </trkpt>
      <trkpt lat="45.19904" lon="5.8404">
        <ele>361</ele>
        <time>2021-04-10T07:32:46Z</time>
      </trkpt>
      <trkpt lat="45.19905" lon="5.8404">
        <ele>360.2</ele>
        <time>2021-04-10T07:32:47Z</time>
      </trkpt>
      <trkpt lat="45.19907" lon="5.8404">
        <ele>359.6</ele>
        <time>2021-04-10T07:32:48Z</time>
      </trkpt>
      <trkpt lat="45.19908" lon="5.84041">
        <ele>358.8</ele>
        <time>2021-04-10T07:32:49Z</time>
      </trkpt>
      <trkpt lat="45.1991" lon="5.84043">
        <ele>358</ele>
        <time>2021-04-10T07:32:50Z</time>
      </trkpt>
      <trkpt lat="45.19912" lon="5.84045">
        <ele>357.4</ele>
        <time>2021-04-10T07:32:51Z</time>
      </trkpt>
      <trkpt lat="45.19913" lon="5.84046">
        <ele>356.8</ele>
        <time>2021-04-10T07:32:52Z</time>
      </trkpt>
      <trkpt lat="45.19915" lon="5.84048">
        <ele>356</ele>
        <time>2021-04-10T07:32:53Z</time>
      </trkpt>
      <trkpt lat="45.19916" lon="5.84049">
        <ele>355</ele>
        <time>2021-04-10T07:32:54Z</time>
      </trkpt>
      <trkpt lat="45.19917" lon="5.84051">
        <ele>354.2</ele>
        <time>2021-04-10T07:32:55Z</time>
      </trkpt>
      <trkpt lat="45.19918" lon="5.84052">
        <ele>353.6</ele>
        <time>2021-04-10T07:32:56Z</time>
      </trkpt>
      <trkpt lat="45.1992" lon="5.84054">
        <ele>353.4</ele>
        <time>2021-04-10T07:32:57Z</time>
      </trkpt>
      <trkpt lat="45.19921" lon="5.84055">
        <ele>352.8</ele>
        <time>2021-04-10T07:32:58Z</time>
      </trkpt>
      <trkpt lat="45.19922" lon="5.84057">
        <ele>352.6</ele>
        <time>2021-04-10T07:32:59Z</time>
      </trkpt>
      <trkpt lat="45.19925" lon="5.84055">
        <ele>352.2</ele>
        <time>2021-04-10T07:33:00Z</time>
      </trkpt>
      <trkpt lat="45.19928" lon="5.84052">
        <ele>351.8</ele>
        <time>2021-04-10T07:33:01Z</time>
      </trkpt>
      <trkpt lat="45.19931" lon="5.8405">
        <ele>351.4</ele>
        <time>2021-04-10T07:33:02Z</time>
      </trkpt>
      <trkpt lat="45.19934" lon="5.84048">
        <ele>350.8</ele>
        <time>2021-04-10T07:33:03Z</time>
      </trkpt>
      <trkpt lat="45.19937" lon="5.84046">
        <ele>350</ele>
        <time>2021-04-10T07:33:04Z</time>
      </trkpt>
      <trkpt lat="45.19942" lon="5.84043">
        <ele>349.2</ele>
        <time>2021-04-10T07:33:05Z</time>
      </trkpt>
      <trkpt lat="45.19942" lon="5.84043">
        <ele>349</ele>
        <time>2021-04-10T07:33:06Z</time>
      </trkpt>
      <trkpt lat="45.19942" lon="5.84043">
        <ele>348.6</ele>
        <time>2021-04-10T07:33:07Z</time>
      </trkpt>
      <trkpt lat="45.19942" lon="5.84043">
        <ele>348.2</ele>
        <time>2021-04-10T07:33:08Z</time>
      </trkpt>
      <trkpt lat="45.19944" lon="5.84043">
        <ele>347.6</ele>
        <time>2021-04-10T07:33:09Z</time>
      </trkpt>
      <trkpt lat="45.19946" lon="5.84043">
        <ele>347.2</ele>
        <time>2021-04-10T07:33:10Z</time>
      </trkpt>
      <trkpt lat="45.19948" lon="5.84043">
        <ele>346.6</ele>
        <time>2021-04-10T07:33:11Z</time>
      </trkpt>
      <trkpt lat="45.1995" lon="5.84043">
        <ele>346</ele>
        <time>2021-04-10T07:33:12Z</time>
      </trkpt>
      <trkpt lat="45.19952" lon="5.84043">
        <ele>345.4</ele>
        <time>2021-04-10T07:33:13Z</time>
      </trkpt>
      <trkpt lat="45.19955" lon="5.84044">
        <ele>344.8</ele>
        <time>2021-04-10T07:33:14Z</time>
      </trkpt>
      <trkpt lat="45.19959" lon="5.84044">
        <ele>343.6</ele>
        <time>2021-04-10T07:33:15Z</time>
      </trkpt>
      <trkpt lat="45.19962" lon="5.84045">
        <ele>343</ele>
        <time>2021-04-10T07:33:16Z</time>
      </trkpt>
      <trkpt lat="45.19965" lon="5.84046">
        <ele>342.2</ele>
        <time>2021-04-10T07:33:17Z</time>
      </trkpt>
      <trkpt lat="45.19968" lon="5.84047">
        <ele>341.6</ele>
        <time>2021-04-10T07:33:18Z</time>
      </trkpt>
      <trkpt lat="45.19972" lon="5.84052">
        <ele>340.8</ele>
        <time>2021-04-10T07:33:19Z</time>
      </trkpt>
      <trkpt lat="45.19972" lon="5.84052">
        <ele>340.4</ele>
        <time>2021-04-10T07:33:20Z</time>
      </trkpt>
      <trkpt lat="45.19972" lon="5.84052">
        <ele>339.6</ele>
        <time>2021-04-10T07:33:21Z</time>
      </trkpt>
      <trkpt lat="45.19974" lon="5.84053">
        <ele>339</ele>
        <time>2021-04-10T07:33:22Z</time>
      </trkpt>
      <trkpt lat="45.19975" lon="5.84055">
        <ele>338.2</ele>
        <time>2021-04-10T07:33:23Z</time>
      </trkpt>
      <trkpt lat="45.19977" lon="5.84056">
        <ele>337.2</ele>
        <time>2021-04-10T07:33:24Z</time>
      </trkpt>
      <trkpt lat="45.19979" lon="5.84058">
        <ele>336.4</ele>
        <time>2021-04-10T07:33:25Z</time>
      </trkpt>
      <trkpt lat="45.1998" lon="5.8406">
        <ele>335.4</ele>
        <time>2021-04-10T07:33:26Z</time>
      </trkpt>
      <trkpt lat="45.19982" lon="5.8406">
        <ele>334.6</ele>
        <time>2021-04-10T07:33:27Z</time>
      </trkpt>
      <trkpt lat="45.19984" lon="5.8406">
        <ele>334.2</ele>
        <time>2021-04-10T07:33:28Z</time>
      </trkpt>
      <trkpt lat="45.19986" lon="5.8406">
        <ele>333.2</ele>
        <time>2021-04-10T07:33:29Z</time>
      </trkpt>
      <trkpt lat="45.19987" lon="5.8406">
        <ele>332.2</ele>
        <time>2021-04-10T07:33:30Z</time>
      </trkpt>
      <trkpt lat="45.19989" lon="5.8406">
        <ele>331</ele>
        <time>2021-04-10T07:33:31Z</time>
      </trkpt>
      <trkpt lat="45.1999" lon="5.84059">
        <ele>330.6</ele>
        <time>2021-04-10T07:33:32Z</time>
      </trkpt>
      <trkpt lat="45.19991" lon="5.84058">
        <ele>329.8</ele>
        <time>2021-04-10T07:33:33Z</time>
      </trkpt>
      <trkpt lat="45.19993" lon="5.84057">
        <ele>328.8</ele>
        <time>2021-04-10T07:33:34Z</time>
      </trkpt>
      <trkpt lat="45.19994" lon="5.84057">
        <ele>328</ele>
        <time>2021-04-10T07:33:35Z</time>
      </trkpt>
      <trkpt lat="45.19995" lon="5.84056">
        <ele>326.8</ele>
        <time>2021-04-10T07:33:36Z</time>
      </trkpt>
      <trkpt lat="45.19996" lon="5.84055">
        <ele>325.8</ele>
        <time>2021-04-10T07:33:37Z</time>
      </trkpt>
      <trkpt lat="45.19997" lon="5.84054">
        <ele>325.2</ele>
        <time>2021-04-10T07:33:38Z</time>
      </trkpt>
      <trkpt lat="45.19998" lon="5.84053">
        <ele>324.4</ele>
        <time>2021-04-10T07:33:39Z</time>
      </trkpt>
      <trkpt lat="45.2" lon="5.84052">
        <ele>324</ele>
        <time>2021-04-10T07:33:40Z</time>
      </trkpt>
      <trkpt lat="45.20001" lon="5.84052">
        <ele>322.8</ele>
        <time>2021-04-10T07:33:41Z</time>
      </trkpt>
      <trkpt lat="45.20003" lon="5.84051">
        <ele>322.2</ele>
        <time>2021-04-10T07:33:42Z</time>
      </trkpt>
      <trkpt lat="45.20004" lon="5.8405">
        <ele>321.4</ele>
        <time>2021-04-10T07:33:43Z</time>
      </trkpt>
      <trkpt lat="45.20005" lon="5.8405">
        <ele>321</ele>
        <time>2021-04-10T07:33:44Z</time>
      </trkpt>
      <trkpt lat="45.20007" lon="5.84049">
        <ele>320.4</ele>
        <time>2021-04-10T07:33:45Z</time>
      </trkpt>
      <trkpt lat="45.20008" lon="5.84051">
        <ele>320</ele>
        <time>2021-04-10T07:33:46Z</time>
      </trkpt>
      <trkpt lat="45.20009" lon="5.84053">
        <ele>319.2</ele>
        <time>2021-04-10T07:33:47Z</time>
      </trkpt>
      <trkpt lat="45.20011" lon="5.84054">
        <ele>318.2</ele>
        <time>2021-04-10T07:33:48Z</time>
      </trkpt>
      <trkpt lat="45.20012" lon="5.84056">
        <ele>317.8</ele>
        <time>2021-04-10T07:33:49Z</time>
      </trkpt>
      <trkpt lat="45.20013" lon="5.84058">
        <ele>317</ele>
        <time>2021-04-10T07:33:50Z</time>
      </trkpt>
      <trkpt lat="45.20016" lon="5.84059">
        <ele>316.6</ele>
        <time>2021-04-10T07:33:51Z</time>
      </trkpt>
      <trkpt lat="45.20017" lon="5.84059">
        <ele>315.8</ele>
        <time>2021-04-10T07:33:52Z</time>
      </trkpt>
      <trkpt lat="45.20018" lon="5.84058">
        <ele>315</ele>
        <time>2021-04-10T07:33:53Z</time>
      </trkpt>
      <trkpt lat="45.20019" lon="5.84058">
        <ele>314.2</ele>
        <time>2021-04-10T07:33:54Z</time>
      </trkpt>
      <trkpt lat="45.2002" lon="5.84058">
        <ele>313</ele>
        <time>2021-04-10T07:33:55Z</time>
      </trkpt>
      <trkpt lat="45.20021" lon="5.84058">
        <ele>312.4</ele>
        <time>2021-04-10T07:33:56Z</time>
      </trkpt>
      <trkpt lat="45.20022" lon="5.84058">
        <ele>312</ele>
        <time>2021-04-10T07:33:57Z</time>
      </trkpt>
      <trkpt lat="45.20023" lon="5.84057">
        <ele>311.4</ele>
        <time>2021-04-10T07:33:58Z</time>
      </trkpt>
      <trkpt lat="45.20024" lon="5.84057">
        <ele>310.6</ele>
        <time>2021-04-10T07:33:59Z</time>
      </trkpt>
      <trkpt lat="45.20025" lon="5.84057">
        <ele>310</ele>
        <time>2021-04-10T07:34:00Z</time>
      </trkpt>
      <trkpt lat="45.20026" lon="5.84057">
        <ele>309.4</ele>
        <time>2021-04-10T07:34:01Z</time>
      </trkpt>
      <trkpt lat="45.20027" lon="5.84057">
        <ele>308.8</ele>
        <time>2021-04-10T07:34:02Z</time>
      </trkpt>
      <trkpt lat="45.20028" lon="5.84056">
        <ele>308</ele>
        <time>2021-04-10T07:34:03Z</time>
      </trkpt>
      <trkpt lat="45.20029" lon="5.84056">
        <ele>307.2</ele>
        <time>2021-04-10T07:34:04Z</time>
      </trkpt>
      <trkpt lat="45.20031" lon="5.84056">
        <ele>306.4</ele>
        <time>2021-04-10T07:34:05Z</time>
      </trkpt>
      <trkpt lat="45.20032" lon="5.84056">
        <ele>305.4</ele>
        <time>2021-04-10T07:34:06Z</time>
      </trkpt>
      <trkpt lat="45.20033" lon="5.84055">
        <ele>304.8</ele>
        <time>2021-04-10T07:34:07Z</time>
      </trkpt>
      <trkpt lat="45.20034" lon="5.84055">
        <ele>304</ele>
        <time>2021-04-10T07:34:08Z</time>
      </trkpt>
      <trkpt lat="45.20035" lon="5.84055">
        <ele>302.8</ele>
        <time>2021-04-10T07:34:09Z</time>
      </trkpt>
      <trkpt lat="45.20036" lon="5.84055">
        <ele>302</ele>
        <time>2021-04-10T07:34:10Z</time>
      </trkpt>
      <trkpt lat="45.20037" lon="5.84055">
        <ele>301.2</ele>
        <time>2021-04-10T07:34:11Z</time>
      </trkpt>
      <trkpt lat="45.20038" lon="5.84054">
        <ele>300.6</ele>
        <time>2021-04-10T07:34:12Z</time>
      </trkpt>
      <trkpt lat="45.20039" lon="5.84054">
        <ele>300.2</ele>
        <time>2021-04-10T07:34:13Z</time>
      </trkpt>
      <trkpt lat="45.2004" lon="5.84054">
        <ele>299.6</ele>
        <time>2021-04-10T07:34:14Z</time>
      </trkpt>
      <trkpt lat="45.20041" lon="5.84054">
        <ele>299</ele>
        <time>2021-04-10T07:34:15Z</time>
      </trkpt>
      <trkpt lat="45.20042" lon="5.84054">
        <ele>298</ele>
        <time>2021-04-10T07:34:16Z</time>
      </trkpt>
      <trkpt lat="45.20043" lon="5.84053">
        <ele>297.6</ele>
        <time>2021-04-10T07:34:17Z</time>
      </trkpt>
      <trkpt lat="45.20044" lon="5.84053">
        <ele>297</ele>
        <time>2021-04-10T07:34:18Z</time>
      </trkpt>
      <trkpt lat="45.20046" lon="5.84053">
        <ele>296.6</ele>
        <time>2021-04-10T07:34:19Z</time>
      </trkpt>
      <trkpt lat="45.20047" lon="5.84053">
        <ele>296</ele>
        <time>2021-04-10T07:34:20Z</time>
      </trkpt>
      <trkpt lat="45.20048" lon="5.84053">
        <ele>295.4</ele>
        <time>2021-04-10T07:34:21Z</time>
      </trkpt>
      <trkpt lat="45.20049" lon="5.84052">
        <ele>295</ele>
        <time>2021-04-10T07:34:22Z</time>
      </trkpt>
      <trkpt lat="45.2005" lon="5.84052">
        <ele>294.2</ele>
        <time>2021-04-10T07:34:23Z</time>
      </trkpt>
      <trkpt lat="45.20051" lon="5.84052">
        <ele>293.6</ele>
        <time>2021-04-10T07:34:24Z</time>
      </trkpt>
      <trkpt lat="45.20052" lon="5.84052">
        <ele>292.8</ele>
        <time>2021-04-10T07:34:25Z</time>
      </trkpt>
      <trkpt lat="45.20053" lon="5.84052">
        <ele>291.8</ele>
        <time>2021-04-10T07:34:26Z</time>
      </trkpt>
      <trkpt lat="45.20054" lon="5.84051">
        <ele>291.8</ele>
        <time>2021-04-10T07:34:27Z</time>
      </trkpt>
      <trkpt lat="45.20055" lon="5.84051">
        <ele>291.2</ele>
        <time>2021-04-10T07:34:28Z</time>
      </trkpt>
      <trkpt lat="45.20056" lon="5.84051">
        <ele>291</ele>
        <time>2021-04-10T07:34:29Z</time>
      </trkpt>
      <trkpt lat="45.20057" lon="5.84051">
        <ele>290.4</ele>
        <time>2021-04-10T07:34:30Z</time>
      </trkpt>
      <trkpt lat="45.20058" lon="5.84051">
        <ele>290.2</ele>
        <time>2021-04-10T07:34:31Z</time>
      </trkpt>
      <trkpt lat="45.2006" lon="5.8405">
        <ele>290</ele>
        <time>2021-04-10T07:34:32Z</time>
      </trkpt>
      <trkpt lat="45.20061" lon="5.8405">
        <ele>289.2</ele>
        <time>2021-04-10T07:34:33Z</time>
      </trkpt>
      <trkpt lat="45.20062" lon="5.8405">
        <ele>288.6</ele>
        <time>2021-04-10T07:34:34Z</time>
      </trkpt>
      <trkpt lat="45.20063" lon="5.8405">
        <ele>288</ele>
        <time>2021-04-10T07:34:35Z</time>
      </trkpt>
      <trkpt lat="45.20064" lon="5.8405">
        <ele>287.4</ele>
        <time>2021-04-10T07:34:36Z</time>
      </trkpt>
      <trkpt lat="45.20065" lon="5.84049">
        <ele>286.8</ele>
        <time>2021-04-10T07:34:37Z</time>
      </trkpt>
      <trkpt lat="45.20066" lon="5.84049">
        <ele>286.4</ele>
        <time>2021-04-10T07:34:38Z</time>
      </trkpt>
      <trkpt lat="45.20067" lon="5.84049">
        <ele>285.6</ele>
        <time>2021-04-10T07:34:39Z</time>
      </trkpt>
      <trkpt lat="45.20068" lon="5.84049">
        <ele>285.2</ele>
        <time>2021-04-10T07:34:40Z</time>
      </trkpt>
      <trkpt lat="45.20069" lon="5.84049">
        <ele>284.4</ele>
        <time>2021-04-10T07:34:41Z</time>
      </trkpt>
      <trkpt lat="45.2007" lon="5.84048">
        <ele>284</ele>
        <time>2021-04-10T07:34:42Z</time>
      </trkpt>
      <trkpt lat="45.20071" lon="5.84048">
        <ele>283.4</ele>
        <time>2021-04-10T07:34:43Z</time>
      </trkpt>
      <trkpt lat="45.20072" lon="5.84048">
        <ele>282.6</ele>
        <time>2021-04-10T07:34:44Z</time>
      </trkpt>
      <trkpt lat="45.20073" lon="5.84048">
        <ele>281.8</ele>
        <time>2021-04-10T07:34:45Z</time>
      </trkpt>
      <trkpt lat="45.20075" lon="5.84048">
        <ele>281.2</ele>
        <time>2021-04-10T07:34:46Z</time>
      </trkpt>
      <trkpt lat="45.20076" lon="5.84047">
        <ele>280.6</ele>
        <time>2021-04-10T07:34:47Z</time>
      </trkpt>
      <trkpt lat="45.20077" lon="5.84047">
        <ele>280.2</ele>
        <time>2021-04-10T07:34:48Z</time>
      </trkpt>
      <trkpt lat="45.20078" lon="5.84047">
        <ele>279.4</ele>
        <time>2021-04-10T07:34:49Z</time>
      </trkpt>
      <trkpt lat="45.20078" lon="5.84047">
        <ele>279</ele>
        <time>2021-04-10T07:34:50Z</time>
      </trkpt>
      <trkpt lat="45.20078" lon="5.84047">
        <ele>278</ele>
        <time>2021-04-10T07:34:51Z</time>
      </trkpt>
      <trkpt lat="45.20078" lon="5.84047">
        <ele>277.6</ele>
        <time>2021-04-10T07:34:52Z</time>
      </trkpt>
      <trkpt lat="45.20079" lon="5.84045">
        <ele>277.2</ele>
        <time>2021-04-10T07:34:53Z</time>
      </trkpt>
      <trkpt lat="45.2008" lon="5.84043">
        <ele>276.4</ele>
        <time>2021-04-10T07:34:54Z</time>
      </trkpt>
      <trkpt lat="45.2008" lon="5.8404">
        <ele>276</ele>
        <time>2021-04-10T07:34:55Z</time>
      </trkpt>
      <trkpt lat="45.20081" lon="5.84038">
        <ele>275</ele>
        <time>2021-04-10T07:34:56Z</time>
      </trkpt>
      <trkpt lat="45.20082" lon="5.84036">
        <ele>274</ele>
        <time>2021-04-10T07:34:57Z</time>
      </trkpt>
      <trkpt lat="45.20083" lon="5.84034">
        <ele>273.4</ele>
        <time>2021-04-10T07:34:58Z</time>
      </trkpt>
      <trkpt lat="45.20086" lon="5.8403">
        <ele>273.2</ele>
        <time>2021-04-10T07:34:59Z</time>
      </trkpt>
      <trkpt lat="45.20088" lon="5.84028">
        <ele>272.4</ele>
        <time>2021-04-10T07:35:00Z</time>
      </trkpt>
      <trkpt lat="45.2009" lon="5.84025">
        <ele>271.6</ele>
        <time>2021-04-10T07:35:01Z</time>
      </trkpt>
      <trkpt lat="45.20092" lon="5.84023">
        <ele>271.2</ele>
        <time>2021-04-10T07:35:02Z</time>
      </trkpt>
      <trkpt lat="45.20094" lon="5.84021">
        <ele>270.8</ele>
        <time>2021-04-10T07:35:03Z</time>
      </trkpt>
      <trkpt lat="45.20095" lon="5.84019">
        <ele>270.2</ele>
        <time>2021-04-10T07:35:04Z</time>
      </trkpt>
      <trkpt lat="45.20097" lon="5.84016">
        <ele>269.6</ele>
        <time>2021-04-10T07:35:05Z</time>
      </trkpt>
      <trkpt lat="45.20097" lon="5.84016">
        <ele>269</ele>
        <time>2021-04-10T07:35:06Z</time>
      </trkpt>
      <trkpt lat="45.20097" lon="5.84016">
        <ele>268.4</ele>
        <time>2021-04-10T07:35:07Z</time>
      </trkpt>
      <trkpt lat="45.20097" lon="5.84016">
        <ele>268</ele>
        <time>2021-04-10T07:35:08Z</time>
      </trkpt>
      <trkpt lat="45.20099" lon="5.84016">
        <ele>267.2</ele>
        <time>2021-04-10T07:35:09Z</time>
      </trkpt>
      <trkpt lat="45.20101" lon="5.84016">
        <ele>266.4</ele>
        <time>2021-04-10T07:35:10Z</time>
      </trkpt>
      <trkpt lat="45.20102" lon="5.84016">
        <ele>265.4</ele>
        <time>2021-04-10T07:35:11Z</time>
      </trkpt>
      <trkpt lat="45.20104" lon="5.84016">
        <ele>265</ele>
        <time>2021-04-10T07:35:12Z</time>
      </trkpt>
      <trkpt lat="45.20105" lon="5.84016">
        <ele>264.2</ele>
        <time>2021-04-10T07:35:13Z</time>
      </trkpt>
      <trkpt lat="45.20107" lon="5.84015">
        <ele>263.4</ele>
        <time>2021-04-10T07:35:14Z</time>
      </trkpt>
      <trkpt lat="45.20109" lon="5.84018">
        <ele>263.2</ele>
        <time>2021-04-10T07:35:15Z</time>
      </trkpt>
      <trkpt lat="45.20111" lon="5.84021">
        <ele>262.8</ele>
        <time>2021-04-10T07:35:16Z</time>
      </trkpt>
      <trkpt lat="45.20113" lon="5.84024">
        <ele>262.8</ele>
        <time>2021-04-10T07:35:17Z</time>
      </trkpt>
      <trkpt lat="45.20115" lon="5.84026">
        <ele>262.4</ele>
        <time>2021-04-10T07:35:18Z</time>
      </trkpt>
      <trkpt lat="45.20117" lon="5.84029">
        <ele>262.2</ele>
        <time>2021-04-10T07:35:19Z</time>
      </trkpt>
      <trkpt lat="45.20119" lon="5.84032">
        <ele>261.6</ele>
        <time>2021-04-10T07:35:20Z</time>
      </trkpt>
      <trkpt lat="45.20123" lon="5.84037">
        <ele>261</ele>
        <time>2021-04-10T07:35:21Z</time>
      </trkpt>
      <trkpt lat="45.20123" lon="5.84037">
        <ele>260.4</ele>
        <time>2021-04-10T07:35:22Z</time>
      </trkpt>
      <trkpt lat="45.20123" lon="5.84037">
        <ele>259.8</ele>
        <time>2021-04-10T07:35:23Z</time>
      </trkpt>
      <trkpt lat="45.20123" lon="5.84037">
        <ele>260</ele>
        <time>2021-04-10T07:35:24Z</time>
      </trkpt>
      <trkpt lat="45.20125" lon="5.84038">
        <ele>259.8</ele>
        <time>2021-04-10T07:35:25Z</time>
      </trkpt>
      <trkpt lat="45.20126" lon="5.84038">
        <ele>259.4</ele>
        <time>2021-04-10T07:35:26Z</time>
      </trkpt>
      <trkpt lat="45.20127" lon="5.84038">
        <ele>259.2</ele>
        <time>2021-04-10T07:35:27Z</time>
      </trkpt>
      <trkpt lat="45.20128" lon="5.84039">
        <ele>259</ele>
        <time>2021-04-10T07:35:28Z</time>
      </trkpt>
      <trkpt lat="45.20129" lon="5.84039">
        <ele>259</ele>
        <time>2021-04-10T07:35:29Z</time>
      </trkpt>
      <trkpt lat="45.2013" lon="5.8404">
        <ele>258.8</ele>
        <time>2021-04-10T07:35:30Z</time>
      </trkpt>
      <trkpt lat="45.20131" lon="5.8404">
        <ele>258.8</ele>
        <time>2021-04-10T07:35:31Z</time>
      </trkpt>
      <trkpt lat="45.20132" lon="5.8404">
        <ele>258.6</ele>
        <time>2021-04-10T07:35:32Z</time>
      </trkpt>
      <trkpt lat="45.20132" lon="5.84041">
        <ele>258.4</ele>
        <time>2021-04-10T07:35:33Z</time>
      </trkpt>
      <trkpt lat="45.20133" lon="5.84042">
        <ele>258.2</ele>
        <time>2021-04-10T07:35:34Z</time>
      </trkpt>
      <trkpt lat="45.20133" lon="5.84043">
        <ele>258.6</ele>
        <time>2021-04-10T07:35:35Z</time>
      </trkpt>
      <trkpt lat="45.20133" lon="5.84044">
        <ele>258.8</ele>
        <time>2021-04-10T07:35:36Z</time>
      </trkpt>
      <trkpt lat="45.20133" lon="5.84044">
        <ele>258.8</ele>
        <time>2021-04-10T07:35:37Z</time>
      </trkpt>
      <trkpt lat="45.20133" lon="5.84045">
        <ele>259</ele>
        <time>2021-04-10T07:35:38Z</time>
      </trkpt>
      <trkpt lat="45.20133" lon="5.84046">
        <ele>259</ele>
        <time>2021-04-10T07:35:39Z</time>
      </trkpt>
      <trkpt lat="45.20133" lon="5.84047">
        <ele>259</ele>
        <time>2021-04-10T07:35:40Z</time>
      </trkpt>
      <trkpt lat="45.20133" lon="5.84048">
        <ele>259.2</ele>
        <time>2021-04-10T07:35:41Z</time>
      </trkpt>
      <trkpt lat="45.20133" lon="5.84048">
        <ele>259.4</ele>
        <time>2021-04-10T07:35:42Z</time>
      </trkpt>
      <trkpt lat="45.20133" lon="5.84049">
        <ele>259.2</ele>
        <time>2021-04-10T07:35:43Z</time>
      </trkpt>
      <trkpt lat="45.20134" lon="5.8405">
        <ele>259.4</ele>
        <time>2021-04-10T07:35:44Z</time>
      </trkpt>
      <trkpt lat="45.20134" lon="5.84051">
        <ele>259.4</ele>
        <time>2021-04-10T07:35:45Z</time>
      </trkpt>
      <trkpt lat="45.20134" lon="5.84052">
        <ele>259.6</ele>
        <time>2021-04-10T07:35:46Z</time>
      </trkpt>
      <trkpt lat="45.20134" lon="5.84052">
        <ele>259.6</ele>
        <time>2021-04-10T07:35:47Z</time>
      </trkpt>
      <trkpt lat="45.20134" lon="5.84053">
        <ele>259.6</ele>
        <time>2021-04-10T07:35:48Z</time>
      </trkpt>
      <trkpt lat="45.20133" lon="5.84055">
        <ele>259.4</ele>
        <time>2021-04-10T07:35:49Z</time>
      </trkpt>
      <trkpt lat="45.20131" lon="5.84057">
        <ele>259.4</ele>
        <time>2021-04-10T07:35:50Z</time>
      </trkpt>
      <trkpt lat="45.2013" lon="5.84059">
        <ele>259.4</ele>
        <time>2021-04-10T07:35:51Z</time>
      </trkpt>
      <trkpt lat="45.20128" lon="5.8406">
        <ele>259.4</ele>
        <time>2021-04-10T07:35:52Z</time>
      </trkpt>
      <trkpt lat="45.20127" lon="5.84062">
        <ele>259.6</ele>
        <time>2021-04-10T07:35:53Z</time>
      </trkpt>
      <trkpt lat="45.20119" lon="5.84074">
        <ele>259.2</ele>
        <time>2021-04-10T07:35:54Z</time>
      </trkpt>
      <trkpt lat="45.20117" lon="5.84076">
        <ele>259.6</ele>
        <time>2021-04-10T07:35:55Z</time>
      </trkpt>
      <trkpt lat="45.20116" lon="5.84078">
        <ele>259.4</ele>
        <time>2021-04-10T07:35:56Z</time>
      </trkpt>
      <trkpt lat="45.20114" lon="5.84079">
        <ele>259.6</ele>
        <time>2021-04-10T07:35:57Z</time>
      </trkpt>
      <trkpt lat="45.20113" lon="5.84081">
        <ele>259.4</ele>
        <time>2021-04-10T07:35:58Z</time>
      </trkpt>
      <trkpt lat="45.20111" lon="5.84082">
        <ele>259.4</ele>
        <time>2021-04-10T07:35:59Z</time>
      </trkpt>
      <trkpt lat="45.20111" lon="5.84082">
        <ele>259.4</ele>
        <time>2021-04-10T07:36:00Z</time>
      </trkpt>
      <trkpt lat="45.20111" lon="5.84082">
        <ele>259.2</ele>
        <time>2021-04-10T07:36:01Z</time>
      </trkpt>
      <trkpt lat="45.20111" lon="5.84082">
        <ele>259.8</ele>
        <time>2021-04-10T07:36:02Z</time>
      </trkpt>
      <trkpt lat="45.2011" lon="5.84084">
        <ele>259.6</ele>
        <time>2021-04-10T07:36:03Z</time>
      </trkpt>
      <trkpt lat="45.20109" lon="5.84087">
        <ele>260.2</ele>
        <time>2021-04-10T07:36:04Z</time>
      </trkpt>
      <trkpt lat="45.20108" lon="5.84089">
        <ele>260.2</ele>
        <time>2021-04-10T07:36:05Z</time>
      </trkpt>
      <trkpt lat="45.20107" lon="5.84091">
        <ele>260.4</ele>
        <time>2021-04-10T07:36:06Z</time>
      </trkpt>
      <trkpt lat="45.20106" lon="5.84093">
        <ele>260.2</ele>
        <time>2021-04-10T07:36:07Z</time>
      </trkpt>
      <trkpt lat="45.20107" lon="5.84093">
        <ele>260.2</ele>
        <time>2021-04-10T07:36:08Z</time>
      </trkpt>
      <trkpt lat="45.20107" lon="5.84092">
        <ele>260.2</ele>
        <time>2021-04-10T07:36:09Z</time>
      </trkpt>
      <trkpt lat="45.20108" lon="5.84091">
        <ele>260.2</ele>
        <time>2021-04-10T07:36:10Z</time>
      </trkpt>
      <trkpt lat="45.20108" lon="5.84091">
        <ele>260.2</ele>
        <time>2021-04-10T07:36:11Z</time>
      </trkpt>
      <trkpt lat="45.20108" lon="5.8409">
        <ele>260.2</ele>
        <time>2021-04-10T07:36:12Z</time>
      </trkpt>
      <trkpt lat="45.20109" lon="5.8409">
        <ele>260.2</ele>
        <time>2021-04-10T07:36:13Z</time>
      </trkpt>
      <trkpt lat="45.20109" lon="5.84089">
        <ele>260.4</ele>
        <time>2021-04-10T07:36:14Z</time>
      </trkpt>
      <trkpt lat="45.2011" lon="5.84088">
        <ele>260.6</ele>
        <time>2021-04-10T07:36:15Z</time>
      </trkpt>
      <trkpt lat="45.2011" lon="5.84088">
        <ele>260.8</ele>
        <time>2021-04-10T07:36:16Z</time>
      </trkpt>
      <trkpt lat="45.20111" lon="5.84087">
        <ele>260.8</ele>
        <time>2021-04-10T07:36:17Z</time>
      </trkpt>
      <trkpt lat="45.20111" lon="5.84087">
        <ele>261</ele>
        <time>2021-04-10T07:36:18Z</time>
      </trkpt>
      <trkpt lat="45.20112" lon="5.84086">
        <ele>261</ele>
        <time>2021-04-10T07:36:19Z</time>
      </trkpt>
      <trkpt lat="45.20112" lon="5.84085">
        <ele>261</ele>
        <time>2021-04-10T07:36:20Z</time>
      </trkpt>
      <trkpt lat="45.20113" lon="5.84085">
        <ele>260.8</ele>
        <time>2021-04-10T07:36:21Z</time>
      </trkpt>
      <trkpt lat="45.20113" lon="5.84084">
        <ele>261</ele>
        <time>2021-04-10T07:36:22Z</time>
      </trkpt>
      <trkpt lat="45.20114" lon="5.84083">
        <ele>260.8</ele>
        <time>2021-04-10T07:36:23Z</time>
      </trkpt>
      <trkpt lat="45.20114" lon="5.84083">
        <ele>260.8</ele>
        <time>2021-04-10T07:36:24Z</time>
      </trkpt>
      <trkpt lat="45.20116" lon="5.84081">
        <ele>260.4</ele>
        <time>2021-04-10T07:36:25Z</time>
      </trkpt>
      <trkpt lat="45.20117" lon="5.84079">
        <ele>260.4</ele>
        <time>2021-04-10T07:36:26Z</time>
      </trkpt>
      <trkpt lat="45.20118" lon="5.84077">
        <ele>260</ele>
        <time>2021-04-10T07:36:27Z</time>
      </trkpt>
      <trkpt lat="45.2012" lon="5.84075">
        <ele>259.8</ele>
        <time>2021-04-10T07:36:28Z</time>
      </trkpt>
      <trkpt lat="45.20121" lon="5.84073">
        <ele>259.6</ele>
        <time>2021-04-10T07:36:29Z</time>
      </trkpt>
      <trkpt lat="45.20123" lon="5.84073">
        <ele>259.4</ele>
        <time>2021-04-10T07:36:30Z</time>
      </trkpt>
      <trkpt lat="45.20124" lon="5.84073">
        <ele>259.4</ele>
        <time>2021-04-10T07:36:31Z</time>
      </trkpt>
      <trkpt lat="45.20126" lon="5.84073">
        <ele>259.4</ele>
        <time>2021-04-10T07:36:32Z</time>
      </trkpt>
      <trkpt lat="45.20128" lon="5.84073">
        <ele>259.2</ele>
        <time>2021-04-10T07:36:33Z</time>
      </trkpt>
      <trkpt lat="45.20129" lon="5.84073">
        <ele>259.2</ele>
        <time>2021-04-10T07:36:34Z</time>
      </trkpt>
      <trkpt lat="45.20131" lon="5.84073">
        <ele>259.4</ele>
        <time>2021-04-10T07:36:35Z</time>
      </trkpt>
      <trkpt lat="45.20132" lon="5.84073">
        <ele>259.2</ele>
        <time>2021-04-10T07:36:36Z</time>
      </trkpt>
      <trkpt lat="45.20134" lon="5.84073">
        <ele>259.6</ele>
        <time>2021-04-10T07:36:37Z</time>
      </trkpt>
      <trkpt lat="45.20135" lon="5.84073">
        <ele>259.6</ele>
        <time>2021-04-10T07:36:38Z</time>
      </trkpt>
      <trkpt lat="45.20138" lon="5.84079">
        <ele>260.2</ele>
        <time>2021-04-10T07:36:39Z</time>
      </trkpt>
      <trkpt lat="45.20138" lon="5.84079">
        <ele>260.2</ele>
        <time>2021-04-10T07:36:40Z</time>
      </trkpt>
      <trkpt lat="45.20138" lon="5.84079">
        <ele>260.6</ele>
        <time>2021-04-10T07:36:41Z</time>
      </trkpt>
      <trkpt lat="45.20139" lon="5.84082">
        <ele>260.6</ele>
        <time>2021-04-10T07:36:42Z</time>
      </trkpt>
      <trkpt lat="45.2014" lon="5.84084">
        <ele>260.6</ele>
        <time>2021-04-10T07:36:43Z</time>
      </trkpt>
      <trkpt lat="45.20141" lon="5.84087">
        <ele>260.6</ele>
        <time>2021-04-10T07:36:44Z</time>
      </trkpt>
      <trkpt lat="45.20143" lon="5.84089">
        <ele>260.6</ele>
        <time>2021-04-10T07:36:45Z</time>
      </trkpt>
      <trkpt lat="45.20144" lon="5.84092">
        <ele>260.8</ele>
        <time>2021-04-10T07:36:46Z</time>
      </trkpt>
      <trkpt lat="45.20143" lon="5.84096">
        <ele>261</ele>
        <time>2021-04-10T07:36:47Z</time>
      </trkpt>
      <trkpt lat="45.20143" lon="5.84099">
        <ele>261.2</ele>
        <time>2021-04-10T07:36:48Z</time>
      </trkpt>
      <trkpt lat="45.20142" lon="5.84102">
        <ele>261.4</ele>
        <time>2021-04-10T07:36:49Z</time>
      </trkpt>
      <trkpt lat="45.20141" lon="5.84105">
        <ele>261.8</ele>
        <time>2021-04-10T07:36:50Z</time>
      </trkpt>
      <trkpt lat="45.20141" lon="5.84107">
        <ele>261.8</ele>
        <time>2021-04-10T07:36:51Z</time>
      </trkpt>
      <trkpt lat="45.2014" lon="5.8411">
        <ele>262</ele>
        <time>2021-04-10T07:36:52Z</time>
      </trkpt>
      <trkpt lat="45.20139" lon="5.84113">
        <ele>262</ele>
        <time>2021-04-10T07:36:53Z</time>
      </trkpt>
      <trkpt lat="45.20139" lon="5.84115">
        <ele>262.2</ele>
        <time>2021-04-10T07:36:54Z</time>
      </trkpt>
      <trkpt lat="45.20139" lon="5.84115">
        <ele>262.4</ele>
        <time>2021-04-10T07:36:55Z</time>
      </trkpt>
      <trkpt lat="45.20139" lon="5.84115">
        <ele>262.6</ele>
        <time>2021-04-10T07:36:56Z</time>
      </trkpt>
      <trkpt lat="45.20139" lon="5.84115">
        <ele>262.8</ele>
        <time>2021-04-10T07:36:57Z</time>
      </trkpt>
      <trkpt lat="45.20139" lon="5.84118">
        <ele>263.2</ele>
        <time>2021-04-10T07:36:58Z</time>
      </trkpt>
      <trkpt lat="45.20139" lon="5.8412">
        <ele>263.6</ele>
        <time>2021-04-10T07:36:59Z</time>
      </trkpt>
      <trkpt lat="45.20139" lon="5.84123">
        <ele>263.8</ele>
        <time>2021-04-10T07:37:00Z</time>
      </trkpt>
      <trkpt lat="45.2014" lon="5.84125">
        <ele>263.8</ele>
        <time>2021-04-10T07:37:01Z</time>
      </trkpt>
      <trkpt lat="45.2014" lon="5.84127">
        <ele>263.8</ele>
        <time>2021-04-10T07:37:02Z</time>
      </trkpt>
      <trkpt lat="45.2014" lon="5.8413">
        <ele>264</ele>
        <time>2021-04-10T07:37:03Z</time>
      </trkpt>
      <trkpt lat="45.2014" lon="5.84132">
        <ele>264</ele>
        <time>2021-04-10T07:37:04Z</time>
      </trkpt>
      <trkpt lat="45.20141" lon="5.84135">
        <ele>264.2</ele>
        <time>2021-04-10T07:37:05Z</time>
      </trkpt>
      <trkpt lat="45.20141" lon="5.84138">
        <ele>264.4</ele>
        <time>2021-04-10T07:37:06Z</time>
      </trkpt>
      <trkpt lat="45.20142" lon="5.8414">
        <ele>264.8</ele>
        <time>2021-04-10T07:37:07Z</time>
      </trkpt>
      <trkpt lat="45.20142" lon="5.84143">
        <ele>265.2</ele>
        <time>2021-04-10T07:37:08Z</time>
      </trkpt>
      <trkpt lat="45.20143" lon="5.84146">
        <ele>265.4</ele>
        <time>2021-04-10T07:37:09Z</time>
      </trkpt>
      <trkpt lat="45.20143" lon="5.84147">
        <ele>265.6</ele>
        <time>2021-04-10T07:37:10Z</time>
      </trkpt>
      <trkpt lat="45.20144" lon="5.84149">
        <ele>265.6</ele>
        <time>2021-04-10T07:37:11Z</time>
      </trkpt>
      <trkpt lat="45.20145" lon="5.8415">
        <ele>265.6</ele>
        <time>2021-04-10T07:37:12Z</time>
      </trkpt>
      <trkpt lat="45.20145" lon="5.84152">
        <ele>265.8</ele>
        <time>2021-04-10T07:37:13Z</time>
      </trkpt>
      <trkpt lat="45.20146" lon="5.84153">
        <ele>265.8</ele>
        <time>2021-04-10T07:37:14Z</time>
      </trkpt>
      <trkpt lat="45.20147" lon="5.84155">
        <ele>266</ele>
        <time>2021-04-10T07:37:15Z</time>
      </trkpt>
      <trkpt lat="45.20147" lon="5.84156">
        <ele>266.2</ele>
        <time>2021-04-10T07:37:16Z</time>
      </trkpt>
      <trkpt lat="45.20148" lon="5.84157">
        <ele>266.6</ele>
        <time>2021-04-10T07:37:17Z</time>
      </trkpt>
      <trkpt lat="45.20149" lon="5.84158">
        <ele>266.8</ele>
        <time>2021-04-10T07:37:18Z</time>
      </trkpt>
      <trkpt lat="45.2015" lon="5.84159">
        <ele>267</ele>
        <time>2021-04-10T07:37:19Z</time>
      </trkpt>
      <trkpt lat="45.20151" lon="5.8416">
        <ele>267.2</ele>
        <time>2021-04-10T07:37:20Z</time>
      </trkpt>
      <trkpt lat="45.20152" lon="5.8416">
        <ele>267.4</ele>
        <time>2021-04-10T07:37:21Z</time>
      </trkpt>
      <trkpt lat="45.20153" lon="5.84161">
        <ele>267.8</ele>
        <time>2021-04-10T07:37:22Z</time>
      </trkpt>
      <trkpt lat="45.20155" lon="5.84162">
        <ele>268</ele>
        <time>2021-04-10T07:37:23Z</time>
      </trkpt>
      <trkpt lat="45.20156" lon="5.84162">
        <ele>268.4</ele>
        <time>2021-04-10T07:37:24Z</time>
      </trkpt>
      <trkpt lat="45.20157" lon="5.84163">
        <ele>268.6</ele>
        <time>2021-04-10T07:37:25Z</time>
      </trkpt>
      <trkpt lat="45.20158" lon="5.84164">
        <ele>269</ele>
        <time>2021-04-10T07:37:26Z</time>
      </trkpt>
      <trkpt lat="45.20158" lon="5.84165">
        <ele>269.4</ele>
        <time>2021-04-10T07:37:27Z</time>
      </trkpt>
      <trkpt lat="45.20159" lon="5.84167">
        <ele>269.6</ele>
        <time>2021-04-10T07:37:28Z</time>
      </trkpt>
      <trkpt lat="45.2016" lon="5.84168">
        <ele>269.6</ele>
        <time>2021-04-10T07:37:29Z</time>
      </trkpt>
      <trkpt lat="45.20161" lon="5.8417">
        <ele>270</ele>
        <time>2021-04-10T07:37:30Z</time>
      </trkpt>
      <trkpt lat="45.20161" lon="5.84171">
        <ele>270.2</ele>
        <time>2021-04-10T07:37:31Z</time>
      </trkpt>
      <trkpt lat="45.20162" lon="5.84173">
        <ele>270.4</ele>
        <time>2021-04-10T07:37:32Z</time>
      </trkpt>
      <trkpt lat="45.20163" lon="5.84174">
        <ele>270.6</ele>
        <time>2021-04-10T07:37:33Z</time>
      </trkpt>
      <trkpt lat="45.20164" lon="5.84176">
        <ele>270.8</ele>
        <time>2021-04-10T07:37:34Z</time>
      </trkpt>
      <trkpt lat="45.20165" lon="5.84176">
        <ele>271</ele>
        <time>2021-04-10T07:37:35Z</time>
      </trkpt>
      <trkpt lat="45.20165" lon="5.84176">
        <ele>271.2</ele>
        <time>2021-04-10T07:37:36Z</time>
      </trkpt>
      <trkpt lat="45.20166" lon="5.84176">
        <ele>271.4</ele>
        <time>2021-04-10T07:37:37Z</time>
      </trkpt>
      <trkpt lat="45.20167" lon="5.84176">
        <ele>271.6</ele>
        <time>2021-04-10T07:37:38Z</time>
      </trkpt>
      <trkpt lat="45.20168" lon="5.84176">
        <ele>271.8</ele>
        <time>2021-04-10T07:37:39Z</time>
      </trkpt>
      <trkpt lat="45.20169" lon="5.84176">
        <ele>272.2</ele>
        <time>2021-04-10T07:37:40Z</time>
      </trkpt>
      <trkpt lat="45.2017" lon="5.84176">
        <ele>272.8</ele>
        <time>2021-04-10T07:37:41Z</time>
      </trkpt>
      <trkpt lat="45.20171" lon="5.84176">
        <ele>273.2</ele>
        <time>2021-04-10T07:37:42Z</time>
      </trkpt>
      <trkpt lat="45.20172" lon="5.84176">
        <ele>273.4</ele>
        <time>2021-04-10T07:37:43Z</time>
      </trkpt>
      <trkpt lat="45.20173" lon="5.84176">
        <ele>273.6</ele>
        <time>2021-04-10T07:37:44Z</time>
      </trkpt>
      <trkpt lat="45.20173" lon="5.84176">
        <ele>273.8</ele>
        <time>2021-04-10T07:37:45Z</time>
      </trkpt>
      <trkpt lat="45.20173" lon="5.84176">
        <ele>273.6</ele>
        <time>2021-04-10T07:37:46Z</time>
      </trkpt>
      <trkpt lat="45.20171" lon="5.84175">
        <ele>273.6</ele>
        <time>2021-04-10T07:37:47Z</time>
      </trkpt>
      <trkpt lat="45.20171" lon="5.84175">
        <ele>273.6</ele>
        <time>2021-04-10T07:37:48Z</time>
      </trkpt>
      <trkpt lat="45.20171" lon="5.84175">
        <ele>273.6</ele>
        <time>2021-04-10T07:37:49Z</time>
      </trkpt>
      <trkpt lat="45.20171" lon="5.84175">
        <ele>273.6</ele>
        <time>2021-04-10T07:37:50Z</time>
      </trkpt>
      <trkpt lat="45.20171" lon="5.84175">
        <ele>273.6</ele>
        <time>2021-04-10T07:37:51Z</time>
      </trkpt>
      <trkpt lat="45.20171" lon="5.84176">
        <ele>273.8</ele>
        <time>2021-04-10T07:37:52Z</time>
      </trkpt>
      <trkpt lat="45.2017" lon="5.84177">
        <ele>273.6</ele>
        <time>2021-04-10T07:37:53Z</time>
      </trkpt>
      <trkpt lat="45.2017" lon="5.84177">
        <ele>273.8</ele>
        <time>2021-04-10T07:37:54Z</time>
      </trkpt>
      <trkpt lat="45.2017" lon="5.84178">
        <ele>273.8</ele>
        <time>2021-04-10T07:37:55Z</time>
      </trkpt>
      <trkpt lat="45.2017" lon="5.84178">
        <ele>273.6</ele>
        <time>2021-04-10T07:37:56Z</time>
      </trkpt>
      <trkpt lat="45.20169" lon="5.84179">
        <ele>273.6</ele>
        <time>2021-04-10T07:37:57Z</time>
      </trkpt>
      <trkpt lat="45.20169" lon="5.8418">
        <ele>273.6</ele>
        <time>2021-04-10T07:37:58Z</time>
      </trkpt>
      <trkpt lat="45.20169" lon="5.8418">
        <ele>273.6</ele>
        <time>2021-04-10T07:37:59Z</time>
      </trkpt>
      <trkpt lat="45.20169" lon="5.84181">
        <ele>273.4</ele>
        <time>2021-04-10T07:38:00Z</time>
      </trkpt>
      <trkpt lat="45.20168" lon="5.84182">
        <ele>273.4</ele>
        <time>2021-04-10T07:38:01Z</time>
      </trkpt>
      <trkpt lat="45.20168" lon="5.84182">
        <ele>273.4</ele>
        <time>2021-04-10T07:38:02Z</time>
      </trkpt>
      <trkpt lat="45.20168" lon="5.84183">
        <ele>273.6</ele>
        <time>2021-04-10T07:38:03Z</time>
      </trkpt>
      <trkpt lat="45.20167" lon="5.84183">
        <ele>273.8</ele>
        <time>2021-04-10T07:38:04Z</time>
      </trkpt>
      <trkpt lat="45.20167" lon="5.84184">
        <ele>273.8</ele>
        <time>2021-04-10T07:38:05Z</time>
      </trkpt>
      <trkpt lat="45.20167" lon="5.84185">
        <ele>274</ele>
        <time>2021-04-10T07:38:06Z</time>
      </trkpt>
      <trkpt lat="45.20167" lon="5.84185">
        <ele>274</ele>
        <time>2021-04-10T07:38:07Z</time>
      </trkpt>
      <trkpt lat="45.20166" lon="5.84186">
        <ele>274.2</ele>
        <time>2021-04-10T07:38:08Z</time>
      </trkpt>
      <trkpt lat="45.20166" lon="5.84186">
        <ele>274.2</ele>
        <time>2021-04-10T07:38:09Z</time>
      </trkpt>
      <trkpt lat="45.20166" lon="5.84187">
        <ele>274.4</ele>
        <time>2021-04-10T07:38:10Z</time>
      </trkpt>
      <trkpt lat="45.20165" lon="5.84188">
        <ele>274.8</ele>
        <time>2021-04-10T07:38:11Z</time>
      </trkpt>
      <trkpt lat="45.20165" lon="5.84189">
        <ele>275</ele>
        <time>2021-04-10T07:38:12Z</time>
      </trkpt>
      <trkpt lat="45.20165" lon="5.8419">
        <ele>275.2</ele>
        <time>2021-04-10T07:38:13Z</time>
      </trkpt>
      <trkpt lat="45.20164" lon="5.8419">
        <ele>275.4</ele>
        <time>2021-04-10T07:38:14Z</time>
      </trkpt>
      <trkpt lat="45.20164" lon="5.84191">
        <ele>275.6</ele>
        <time>2021-04-10T07:38:15Z</time>
      </trkpt>
      <trkpt lat="45.20163" lon="5.84192">
        <ele>276</ele>
        <time>2021-04-10T07:38:16Z</time>
      </trkpt>
      <trkpt lat="45.20163" lon="5.84193">
        <ele>276.2</ele>
        <time>2021-04-10T07:38:17Z</time>
      </trkpt>
      <trkpt lat="45.20162" lon="5.84194">
        <ele>276.4</ele>
        <time>2021-04-10T07:38:18Z</time>
      </trkpt>
      <trkpt lat="45.20162" lon="5.84194">
        <ele>276.4</ele>
        <time>2021-04-10T07:38:19Z</time>
      </trkpt>
      <trkpt lat="45.20161" lon="5.84195">
        <ele>276.6</ele>
        <time>2021-04-10T07:38:20Z</time>
      </trkpt>
      <trkpt lat="45.20161" lon="5.84196">
        <ele>276.6</ele>
        <time>2021-04-10T07:38:21Z</time>
      </trkpt>
      <trkpt lat="45.2016" lon="5.84197">
        <ele>276.8</ele>
        <time>2021-04-10T07:38:22Z</time>
      </trkpt>
      <trkpt lat="45.2016" lon="5.84198">
        <ele>277</ele>
        <time>2021-04-10T07:38:23Z</time>
      </trkpt>
      <trkpt lat="45.20159" lon="5.84199">
        <ele>277.2</ele>
        <time>2021-04-10T07:38:24Z</time>
      </trkpt>
      <trkpt lat="45.20159" lon="5.84199">
        <ele>277.4</ele>
        <time>2021-04-10T07:38:25Z</time>
      </trkpt>
      <trkpt lat="45.20158" lon="5.842">
        <ele>277.6</ele>
        <time>2021-04-10T07:38:26Z</time>
      </trkpt>
      <trkpt lat="45.20157" lon="5.84201">
        <ele>278</ele>
        <time>2021-04-10T07:38:27Z</time>
      </trkpt>
      <trkpt lat="45.20157" lon="5.84203">
        <ele>278.2</ele>
        <time>2021-04-10T07:38:28Z</time>
      </trkpt>
      <trkpt lat="45.20156" lon="5.84204">
        <ele>278.4</ele>
        <time>2021-04-10T07:38:29Z</time>
      </trkpt>
      <trkpt lat="45.20155" lon="5.84205">
        <ele>278.8</ele>
        <time>2021-04-10T07:38:30Z</time>
      </trkpt>
      <trkpt lat="45.20154" lon="5.84206">
        <ele>279</ele>
        <time>2021-04-10T07:38:31Z</time>
      </trkpt>
      <trkpt lat="45.20154" lon="5.84207">
        <ele>279.4</ele>
        <time>2021-04-10T07:38:32Z</time>
      </trkpt>
      <trkpt lat="45.20153" lon="5.84208">
        <ele>279.6</ele>
        <time>2021-04-10T07:38:33Z</time>
      </trkpt>
      <trkpt lat="45.20152" lon="5.84209">
        <ele>280</ele>
        <time>2021-04-10T07:38:34Z</time>
      </trkpt>
      <trkpt lat="45.20152" lon="5.8421">
        <ele>280.2</ele>
        <time>2021-04-10T07:38:35Z</time>
      </trkpt>
      <trkpt lat="45.20153" lon="5.84211">
        <ele>280.4</ele>
        <time>2021-04-10T07:38:36Z</time>
      </trkpt>
      <trkpt lat="45.20153" lon="5.84211">
        <ele>280.6</ele>
        <time>2021-04-10T07:38:37Z</time>
      </trkpt>
      <trkpt lat="45.20153" lon="5.84212">
        <ele>280.8</ele>
        <time>2021-04-10T07:38:38Z</time>
      </trkpt>
      <trkpt lat="45.20153" lon="5.84212">
        <ele>281.2</ele>
        <time>2021-04-10T07:38:39Z</time>
      </trkpt>
      <trkpt lat="45.20154" lon="5.84213">
        <ele>281.4</ele>
        <time>2021-04-10T07:38:40Z</time>
      </trkpt>
      <trkpt lat="45.20154" lon="5.84213">
        <ele>282</ele>
        <time>2021-04-10T07:38:41Z</time>
      </trkpt>
      <trkpt lat="45.20154" lon="5.84214">
        <ele>282.6</ele>
        <time>2021-04-10T07:38:42Z</time>
      </trkpt>
      <trkpt lat="45.20155" lon="5.84215">
        <ele>282.8</ele>
        <time>2021-04-10T07:38:43Z</time>
      </trkpt>
      <trkpt lat="45.20155" lon="5.84215">
        <ele>283</ele>
        <time>2021-04-10T07:38:44Z</time>
      </trkpt>
      <trkpt lat="45.20155" lon="5.84216">
        <ele>283.2</ele>
        <time>2021-04-10T07:38:45Z</time>
      </trkpt>
      <trkpt lat="45.20155" lon="5.84216">
        <ele>283.2</ele>
        <time>2021-04-10T07:38:46Z</time>
      </trkpt>
      <trkpt lat="45.20156" lon="5.84217">
        <ele>283.2</ele>
        <time>2021-04-10T07:38:47Z</time>
      </trkpt>
      <trkpt lat="45.20156" lon="5.84218">
        <ele>283.2</ele>
        <time>2021-04-10T07:38:48Z</time>
      </trkpt>
      <trkpt lat="45.20156" lon="5.84218">
        <ele>283.8</ele>
        <time>2021-04-10T07:38:49Z</time>
      </trkpt>
      <trkpt lat="45.20156" lon="5.84219">
        <ele>284</ele>
        <time>2021-04-10T07:38:50Z</time>
      </trkpt>
      <trkpt lat="45.20157" lon="5.84219">
        <ele>284.4</ele>
        <time>2021-04-10T07:38:51Z</time>
      </trkpt>
      <trkpt lat="45.20157" lon="5.8422">
        <ele>284.6</ele>
        <time>2021-04-10T07:38:52Z</time>
      </trkpt>
      <trkpt lat="45.20156" lon="5.8422">
        <ele>284.8</ele>
        <time>2021-04-10T07:38:53Z</time>
      </trkpt>
      <trkpt lat="45.20156" lon="5.84221">
        <ele>284.6</ele>
        <time>2021-04-10T07:38:54Z</time>
      </trkpt>
      <trkpt lat="45.20155" lon="5.84221">
        <ele>284.8</ele>
        <time>2021-04-10T07:38:55Z</time>
      </trkpt>
      <trkpt lat="45.20154" lon="5.84222">
        <ele>285</ele>
        <time>2021-04-10T07:38:56Z</time>
      </trkpt>
      <trkpt lat="45.20154" lon="5.84222">
        <ele>285.2</ele>
        <time>2021-04-10T07:38:57Z</time>
      </trkpt>
      <trkpt lat="45.20153" lon="5.84222">
        <ele>285.4</ele>
        <time>2021-04-10T07:38:58Z</time>
      </trkpt>
      <trkpt lat="45.20152" lon="5.84223">
        <ele>285.4</ele>
        <time>2021-04-10T07:38:59Z</time>
      </trkpt>
      <trkpt lat="45.20151" lon="5.84223">
        <ele>285.6</ele>
        <time>2021-04-10T07:39:00Z</time>
      </trkpt>
      <trkpt lat="45.20151" lon="5.84224">
        <ele>285.8</ele>
        <time>2021-04-10T07:39:01Z</time>
      </trkpt>
      <trkpt lat="45.2015" lon="5.84224">
        <ele>286</ele>
        <time>2021-04-10T07:39:02Z</time>
      </trkpt>
      <trkpt lat="45.20149" lon="5.84225">
        <ele>286.2</ele>
        <time>2021-04-10T07:39:03Z</time>
      </trkpt>
      <trkpt lat="45.20149" lon="5.84225">
        <ele>286.4</ele>
        <time>2021-04-10T07:39:04Z</time>
      </trkpt>
      <trkpt lat="45.20148" lon="5.84225">
        <ele>286.4</ele>
        <time>2021-04-10T07:39:05Z</time>
      </trkpt>
      <trkpt lat="45.20147" lon="5.84226">
        <ele>286.8</ele>
        <time>2021-04-10T07:39:06Z</time>
      </trkpt>
      <trkpt lat="45.20146" lon="5.84226">
        <ele>287.2</ele>
        <time>2021-04-10T07:39:07Z</time>
      </trkpt>
      <trkpt lat="45.20145" lon="5.84227">
        <ele>287.4</ele>
        <time>2021-04-10T07:39:08Z</time>
      </trkpt>
      <trkpt lat="45.20143" lon="5.84227">
        <ele>287.2</ele>
        <time>2021-04-10T07:39:09Z</time>
      </trkpt>
      <trkpt lat="45.20142" lon="5.84228">
        <ele>287.4</ele>
        <time>2021-04-10T07:39:10Z</time>
      </trkpt>
      <trkpt lat="45.20141" lon="5.84229">
        <ele>287.4</ele>
        <time>2021-04-10T07:39:11Z</time>
      </trkpt>
      <trkpt lat="45.2014" lon="5.84229">
        <ele>287.4</ele>
        <time>2021-04-10T07:39:12Z</time>
      </trkpt>
      <trkpt lat="45.20139" lon="5.8423">
        <ele>287.2</ele>
        <time>2021-04-10T07:39:13Z</time>
      </trkpt>
      <trkpt lat="45.20138" lon="5.8423">
        <ele>287.2</ele>
        <time>2021-04-10T07:39:14Z</time>
      </trkpt>
      <trkpt lat="45.20137" lon="5.84231">
        <ele>287.4</ele>
        <time>2021-04-10T07:39:15Z</time>
      </trkpt>
      <trkpt lat="45.20135" lon="5.84232">
        <ele>287.6</ele>
        <time>2021-04-10T07:39:16Z</time>
      </trkpt>
      <trkpt lat="45.20134" lon="5.84234">
        <ele>287.8</ele>
        <time>2021-04-10T07:39:17Z</time>
      </trkpt>
      <trkpt lat="45.20132" lon="5.84235">
        <ele>287.8</ele>
        <time>2021-04-10T07:39:18Z</time>
      </trkpt>
      <trkpt lat="45.20131" lon="5.84236">
        <ele>288</ele>
        <time>2021-04-10T07:39:19Z</time>
      </trkpt>
      <trkpt lat="45.20129" lon="5.84237">
        <ele>288.4</ele>
        <time>2021-04-10T07:39:20Z</time>
      </trkpt>
      <trkpt lat="45.20128" lon="5.84238">
        <ele>288.4</ele>
        <time>2021-04-10T07:39:21Z</time>
      </trkpt>
      <trkpt lat="45.20127" lon="5.84239">
        <ele>288.6</ele>
        <time>2021-04-10T07:39:22Z</time>
      </trkpt>
      <trkpt lat="45.20127" lon="5.84239">
        <ele>289.2</ele>
        <time>2021-04-10T07:39:23Z</time>
      </trkpt>
      <trkpt lat="45.20126" lon="5.8424">
        <ele>289.4</ele>
        <time>2021-04-10T07:39:24Z</time>
      </trkpt>
      <trkpt lat="45.20125" lon="5.84241">
        <ele>289.2</ele>
        <time>2021-04-10T07:39:25Z</time>
      </trkpt>
      <trkpt lat="45.20124" lon="5.84242">
        <ele>289.2</ele>
        <time>2021-04-10T07:39:26Z</time>
      </trkpt>
      <trkpt lat="45.20123" lon="5.84243">
        <ele>289.2</ele>
        <time>2021-04-10T07:39:27Z</time>
      </trkpt>
      <trkpt lat="45.20122" lon="5.84243">
        <ele>289.2</ele>
        <time>2021-04-10T07:39:28Z</time>
      </trkpt>
      <trkpt lat="45.20121" lon="5.84244">
        <ele>289.2</ele>
        <time>2021-04-10T07:39:29Z</time>
      </trkpt>
      <trkpt lat="45.20121" lon="5.84246">
        <ele>289.4</ele>
        <time>2021-04-10T07:39:30Z</time>
      </trkpt>
      <trkpt lat="45.2012" lon="5.84249">
        <ele>289.6</ele>
        <time>2021-04-10T07:39:31Z</time>
      </trkpt>
      <trkpt lat="45.2012" lon="5.84251">
        <ele>289.6</ele>
        <time>2021-04-10T07:39:32Z</time>
      </trkpt>
      <trkpt lat="45.20119" lon="5.84253">
        <ele>289.6</ele>
        <time>2021-04-10T07:39:33Z</time>
      </trkpt>
      <trkpt lat="45.20119" lon="5.84256">
        <ele>289.8</ele>
        <time>2021-04-10T07:39:34Z</time>
      </trkpt>
      <trkpt lat="45.20118" lon="5.84258">
        <ele>289.8</ele>
        <time>2021-04-10T07:39:35Z</time>
      </trkpt>
      <trkpt lat="45.20118" lon="5.8426">
        <ele>290</ele>
        <time>2021-04-10T07:39:36Z</time>
      </trkpt>
      <trkpt lat="45.20117" lon="5.84262">
        <ele>290.2</ele>
        <time>2021-04-10T07:39:37Z</time>
      </trkpt>
      <trkpt lat="45.20116" lon="5.84263">
        <ele>290.4</ele>
        <time>2021-04-10T07:39:38Z</time>
      </trkpt>
      <trkpt lat="45.20115" lon="5.84265">
        <ele>290.6</ele>
        <time>2021-04-10T07:39:39Z</time>
      </trkpt>
      <trkpt lat="45.20114" lon="5.84267">
        <ele>290.6</ele>
        <time>2021-04-10T07:39:40Z</time>
      </trkpt>
      <trkpt lat="45.20113" lon="5.84269">
        <ele>290.8</ele>
        <time>2021-04-10T07:39:41Z</time>
      </trkpt>
      <trkpt lat="45.20113" lon="5.84269">
        <ele>290.8</ele>
        <time>2021-04-10T07:39:42Z</time>
      </trkpt>
      <trkpt lat="45.20114" lon="5.84268">
        <ele>291</ele>
        <time>2021-04-10T07:39:43Z</time>
      </trkpt>
      <trkpt lat="45.20114" lon="5.84268">
        <ele>291.2</ele>
        <time>2021-04-10T07:39:44Z</time>
      </trkpt>
      <trkpt lat="45.20114" lon="5.84268">
        <ele>291.2</ele>
        <time>2021-04-10T07:39:45Z</time>
      </trkpt>
      <trkpt lat="45.20115" lon="5.84268">
        <ele>291.4</ele>
        <time>2021-04-10T07:39:46Z</time>
      </trkpt>
      <trkpt lat="45.20115" lon="5.84268">
        <ele>291.6</ele>
        <time>2021-04-10T07:39:47Z</time>
      </trkpt>
      <trkpt lat="45.20115" lon="5.84268">
        <ele>292</ele>
        <time>2021-04-10T07:39:48Z</time>
      </trkpt>
      <trkpt lat="45.20116" lon="5.84268">
        <ele>292.2</ele>
        <time>2021-04-10T07:39:49Z</time>
      </trkpt>
      <trkpt lat="45.20116" lon="5.84268">
        <ele>292.4</ele>
        <time>2021-04-10T07:39:50Z</time>
      </trkpt>
      <trkpt lat="45.20116" lon="5.84268">
        <ele>292.4</ele>
        <time>2021-04-10T07:39:51Z</time>
      </trkpt>
      <trkpt lat="45.20117" lon="5.84268">
        <ele>292.6</ele>
        <time>2021-04-10T07:39:52Z</time>
      </trkpt>
      <trkpt lat="45.20117" lon="5.84268">
        <ele>292.8</ele>
        <time>2021-04-10T07:39:53Z</time>
      </trkpt>
      <trkpt lat="45.20117" lon="5.84268">
        <ele>293</ele>
        <time>2021-04-10T07:39:54Z</time>
      </trkpt>
      <trkpt lat="45.20118" lon="5.84268">
        <ele>293.4</ele>
        <time>2021-04-10T07:39:55Z</time>
      </trkpt>
      <trkpt lat="45.20118" lon="5.84268">
        <ele>293.6</ele>
        <time>2021-04-10T07:39:56Z</time>
      </trkpt>
      <trkpt lat="45.20119" lon="5.84268">
        <ele>293.8</ele>
        <time>2021-04-10T07:39:57Z</time>
      </trkpt>
      <trkpt lat="45.20119" lon="5.84268">
        <ele>294.2</ele>
        <time>2021-04-10T07:39:58Z</time>
      </trkpt>
      <trkpt lat="45.20119" lon="5.84268">
        <ele>294.4</ele>
        <time>2021-04-10T07:39:59Z</time>
      </trkpt>
      <trkpt lat="45.2012" lon="5.84268">
        <ele>294.8</ele>
        <time>2021-04-10T07:40:01Z</time>
      </trkpt>
      <trkpt lat="45.2012" lon="5.84268">
        <ele>295</ele>
        <time>2021-04-10T07:40:02Z</time>
      </trkpt>
      <trkpt lat="45.2012" lon="5.84268">
        <ele>295</ele>
        <time>2021-04-10T07:40:03Z</time>
      </trkpt>
      <trkpt lat="45.20121" lon="5.84268">
        <ele>295.2</ele>
        <time>2021-04-10T07:40:04Z</time>
      </trkpt>
      <trkpt lat="45.20121" lon="5.84268">
        <ele>295.8</ele>
        <time>2021-04-10T07:40:05Z</time>
      </trkpt>
      <trkpt lat="45.20121" lon="5.84268">
        <ele>296</ele>
        <time>2021-04-10T07:40:06Z</time>
      </trkpt>
      <trkpt lat="45.20122" lon="5.84267">
        <ele>296.4</ele>
        <time>2021-04-10T07:40:07Z</time>
      </trkpt>
      <trkpt lat="45.20122" lon="5.84267">
        <ele>296.6</ele>
        <time>2021-04-10T07:40:08Z</time>
      </trkpt>
      <trkpt lat="45.20123" lon="5.84267">
        <ele>297</ele>
        <time>2021-04-10T07:40:09Z</time>
      </trkpt>
      <trkpt lat="45.20124" lon="5.84267">
        <ele>297</ele>
        <time>2021-04-10T07:40:10Z</time>
      </trkpt>
      <trkpt lat="45.20125" lon="5.84266">
        <ele>297.2</ele>
        <time>2021-04-10T07:40:11Z</time>
      </trkpt>
      <trkpt lat="45.20126" lon="5.84266">
        <ele>297.4</ele>
        <time>2021-04-10T07:40:12Z</time>
      </trkpt>
      <trkpt lat="45.20127" lon="5.84265">
        <ele>297.6</ele>
        <time>2021-04-10T07:40:13Z</time>
      </trkpt>
      <trkpt lat="45.20128" lon="5.84265">
        <ele>298</ele>
        <time>2021-04-10T07:40:14Z</time>
      </trkpt>
      <trkpt lat="45.20129" lon="5.84264">
        <ele>298</ele>
        <time>2021-04-10T07:40:15Z</time>
      </trkpt>
      <trkpt lat="45.2013" lon="5.84264">
        <ele>298.4</ele>
        <time>2021-04-10T07:40:16Z</time>
      </trkpt>
      <trkpt lat="45.20131" lon="5.84263">
        <ele>298.6</ele>
        <time>2021-04-10T07:40:17Z</time>
      </trkpt>
      <trkpt lat="45.20132" lon="5.84263">
        <ele>298.8</ele>
        <time>2021-04-10T07:40:18Z</time>
      </trkpt>
      <trkpt lat="45.20133" lon="5.84263">
        <ele>299.4</ele>
        <time>2021-04-10T07:40:19Z</time>
      </trkpt>
      <trkpt lat="45.20135" lon="5.84263">
        <ele>299.8</ele>
        <time>2021-04-10T07:40:20Z</time>
      </trkpt>
      <trkpt lat="45.20136" lon="5.84263">
        <ele>300</ele>
        <time>2021-04-10T07:40:21Z</time>
      </trkpt>
      <trkpt lat="45.20137" lon="5.84263">
        <ele>300</ele>
        <time>2021-04-10T07:40:22Z</time>
      </trkpt>
      <trkpt lat="45.20138" lon="5.84263">
        <ele>300</ele>
        <time>2021-04-10T07:40:23Z</time>
      </trkpt>
      <trkpt lat="45.20139" lon="5.84263">
        <ele>300.4</ele>
        <time>2021-04-10T07:40:24Z</time>
      </trkpt>
      <trkpt lat="45.2014" lon="5.84263">
        <ele>300.6</ele>
        <time>2021-04-10T07:40:25Z</time>
      </trkpt>
      <trkpt lat="45.20141" lon="5.84263">
        <ele>300.6</ele>
        <time>2021-04-10T07:40:26Z</time>
      </trkpt>
      <trkpt lat="45.20142" lon="5.84263">
        <ele>300.8</ele>
        <time>2021-04-10T07:40:27Z</time>
      </trkpt>
      <trkpt lat="45.20143" lon="5.84264">
        <ele>301</ele>
        <time>2021-04-10T07:40:28Z</time>
      </trkpt>
      <trkpt lat="45.20143" lon="5.84264">
        <ele>301.2</ele>
        <time>2021-04-10T07:40:29Z</time>
      </trkpt>
      <trkpt lat="45.20144" lon="5.84264">
        <ele>301.4</ele>
        <time>2021-04-10T07:40:30Z</time>
      </trkpt>
      <trkpt lat="45.20145" lon="5.84265">
        <ele>302</ele>
        <time>2021-04-10T07:40:31Z</time>
      </trkpt>
      <trkpt lat="45.20146" lon="5.84265">
        <ele>302.2</ele>
        <time>2021-04-10T07:40:32Z</time>
      </trkpt>
      <trkpt lat="45.20146" lon="5.84265">
        <ele>302.8</ele>
        <time>2021-04-10T07:40:33Z</time>
      </trkpt>
      <trkpt lat="45.20147" lon="5.84266">
        <ele>303</ele>
        <time>2021-04-10T07:40:34Z</time>
      </trkpt>
      <trkpt lat="45.20148" lon="5.84266">
        <ele>303</ele>
        <time>2021-04-10T07:40:35Z</time>
      </trkpt>
      <trkpt lat="45.20149" lon="5.84266">
        <ele>303.2</ele>
        <time>2021-04-10T07:40:36Z</time>
      </trkpt>
      <trkpt lat="45.20149" lon="5.84267">
        <ele>303.4</ele>
        <time>2021-04-10T07:40:37Z</time>
      </trkpt>
      <trkpt lat="45.2015" lon="5.84267">
        <ele>303.6</ele>
        <time>2021-04-10T07:40:38Z</time>
      </trkpt>
      <trkpt lat="45.2015" lon="5.84268">
        <ele>304</ele>
        <time>2021-04-10T07:40:39Z</time>
      </trkpt>
      <trkpt lat="45.20151" lon="5.84269">
        <ele>304.2</ele>
        <time>2021-04-10T07:40:40Z</time>
      </trkpt>
      <trkpt lat="45.20151" lon="5.8427">
        <ele>304.4</ele>
        <time>2021-04-10T07:40:41Z</time>
      </trkpt>
      <trkpt lat="45.20151" lon="5.84272">
        <ele>304.4</ele>
        <time>2021-04-10T07:40:42Z</time>
      </trkpt>
      <trkpt lat="45.20151" lon="5.84273">
        <ele>304.8</ele>
        <time>2021-04-10T07:40:43Z</time>
      </trkpt>
      <trkpt lat="45.20152" lon="5.84274">
        <ele>305</ele>
        <time>2021-04-10T07:40:44Z</time>
      </trkpt>
      <trkpt lat="45.20152" lon="5.84275">
        <ele>305.4</ele>
        <time>2021-04-10T07:40:45Z</time>
      </trkpt>
      <trkpt lat="45.20152" lon="5.84276">
        <ele>305.8</ele>
        <time>2021-04-10T07:40:46Z</time>
      </trkpt>
      <trkpt lat="45.20152" lon="5.84278">
        <ele>306.2</ele>
        <time>2021-04-10T07:40:47Z</time>
      </trkpt>
      <trkpt lat="45.20152" lon="5.84279">
        <ele>306.4</ele>
        <time>2021-04-10T07:40:48Z</time>
      </trkpt>
      <trkpt lat="45.20153" lon="5.8428">
        <ele>306.6</ele>
        <time>2021-04-10T07:40:49Z</time>
      </trkpt>
      <trkpt lat="45.20152" lon="5.8428">
        <ele>306.8</ele>
        <time>2021-04-10T07:40:50Z</time>
      </trkpt>
      <trkpt lat="45.20151" lon="5.84281">
        <ele>306.8</ele>
        <time>2021-04-10T07:40:51Z</time>
      </trkpt>
      <trkpt lat="45.2015" lon="5.84282">
        <ele>306.8</ele>
        <time>2021-04-10T07:40:52Z</time>
      </trkpt>
      <trkpt lat="45.2015" lon="5.84282">
        <ele>307</ele>
        <time>2021-04-10T07:40:53Z</time>
      </trkpt>
      <trkpt lat="45.20149" lon="5.84283">
        <ele>307.4</ele>
        <time>2021-04-10T07:40:54Z</time>
      </trkpt>
      <trkpt lat="45.20148" lon="5.84283">
        <ele>307.6</ele>
        <time>2021-04-10T07:40:55Z</time>
      </trkpt>
      <trkpt lat="45.20147" lon="5.84284">
        <ele>307.8</ele>
        <time>2021-04-10T07:40:56Z</time>
      </trkpt>
      <trkpt lat="45.20147" lon="5.84285">
        <ele>308</ele>
        <time>2021-04-10T07:40:57Z</time>
      </trkpt>
      <trkpt lat="45.20146" lon="5.84285">
        <ele>308.4</ele>
        <time>2021-04-10T07:40:58Z</time>
      </trkpt>
      <trkpt lat="45.20145" lon="5.84286">
        <ele>308.8</ele>
        <time>2021-04-10T07:40:59Z</time>
      </trkpt>
      <trkpt lat="45.20145" lon="5.84286">
        <ele>309</ele>
        <time>2021-04-10T07:41:00Z</time>
      </trkpt>
      <trkpt lat="45.20144" lon="5.84287">
        <ele>309.2</ele>
        <time>2021-04-10T07:41:01Z</time>
      </trkpt>
      <trkpt lat="45.20144" lon="5.84288">
        <ele>309.4</ele>
        <time>2021-04-10T07:41:02Z</time>
      </trkpt>
      <trkpt lat="45.20143" lon="5.8429">
        <ele>309.6</ele>
        <time>2021-04-10T07:41:03Z</time>
      </trkpt>
      <trkpt lat="45.20143" lon="5.84291">
        <ele>310.2</ele>
        <time>2021-04-10T07:41:04Z</time>
      </trkpt>
      <trkpt lat="45.20142" lon="5.84292">
        <ele>310.4</ele>
        <time>2021-04-10T07:41:05Z</time>
      </trkpt>
      <trkpt lat="45.20142" lon="5.84293">
        <ele>310.6</ele>
        <time>2021-04-10T07:41:06Z</time>
      </trkpt>
      <trkpt lat="45.20141" lon="5.84294">
        <ele>311</ele>
        <time>2021-04-10T07:41:07Z</time>
      </trkpt>
      <trkpt lat="45.20141" lon="5.84295">
        <ele>311.4</ele>
        <time>2021-04-10T07:41:08Z</time>
      </trkpt>
      <trkpt lat="45.2014" lon="5.84296">
        <ele>311.8</ele>
        <time>2021-04-10T07:41:09Z</time>
      </trkpt>
      <trkpt lat="45.2014" lon="5.84297">
        <ele>311.8</ele>
        <time>2021-04-10T07:41:10Z</time>
      </trkpt>
      <trkpt lat="45.20139" lon="5.84298">
        <ele>312</ele>
        <time>2021-04-10T07:41:11Z</time>
      </trkpt>
      <trkpt lat="45.20138" lon="5.84299">
        <ele>312.4</ele>
        <time>2021-04-10T07:41:12Z</time>
      </trkpt>
      <trkpt lat="45.20137" lon="5.843">
        <ele>312.6</ele>
        <time>2021-04-10T07:41:13Z</time>
      </trkpt>
      <trkpt lat="45.20137" lon="5.84301">
        <ele>313</ele>
        <time>2021-04-10T07:41:14Z</time>
      </trkpt>
      <trkpt lat="45.20136" lon="5.84302">
        <ele>313.2</ele>
        <time>2021-04-10T07:41:15Z</time>
      </trkpt>
      <trkpt lat="45.20135" lon="5.84303">
        <ele>313.6</ele>
        <time>2021-04-10T07:41:16Z</time>
      </trkpt>
      <trkpt lat="45.20134" lon="5.84303">
        <ele>313.8</ele>
        <time>2021-04-10T07:41:17Z</time>
      </trkpt>
      <trkpt lat="45.20134" lon="5.84304">
        <ele>313.8</ele>
        <time>2021-04-10T07:41:18Z</time>
      </trkpt>
      <trkpt lat="45.20133" lon="5.84305">
        <ele>314.2</ele>
        <time>2021-04-10T07:41:19Z</time>
      </trkpt>
      <trkpt lat="45.20132" lon="5.84306">
        <ele>314.4</ele>
        <time>2021-04-10T07:41:20Z</time>
      </trkpt>
      <trkpt lat="45.20132" lon="5.84307">
        <ele>314.6</ele>
        <time>2021-04-10T07:41:21Z</time>
      </trkpt>
      <trkpt lat="45.20132" lon="5.84307">
        <ele>314.6</ele>
        <time>2021-04-10T07:41:22Z</time>
      </trkpt>
      <trkpt lat="45.20132" lon="5.84308">
        <ele>315</ele>
        <time>2021-04-10T07:41:23Z</time>
      </trkpt>
      <trkpt lat="45.20132" lon="5.84308">
        <ele>315.2</ele>
        <time>2021-04-10T07:41:24Z</time>
      </trkpt>
      <trkpt lat="45.20132" lon="5.84308">
        <ele>315.2</ele>
        <time>2021-04-10T07:41:25Z</time>
      </trkpt>
      <trkpt lat="45.20131" lon="5.84309">
        <ele>315.4</ele>
        <time>2021-04-10T07:41:26Z</time>
      </trkpt>
      <trkpt lat="45.20131" lon="5.84309">
        <ele>315.8</ele>
        <time>2021-04-10T07:41:27Z</time>
      </trkpt>
      <trkpt lat="45.20131" lon="5.8431">
        <ele>316</ele>
        <time>2021-04-10T07:41:28Z</time>
      </trkpt>
      <trkpt lat="45.20131" lon="5.8431">
        <ele>316.2</ele>
        <time>2021-04-10T07:41:29Z</time>
      </trkpt>
      <trkpt lat="45.20131" lon="5.84311">
        <ele>316.4</ele>
        <time>2021-04-10T07:41:30Z</time>
      </trkpt>
      <trkpt lat="45.20131" lon="5.84311">
        <ele>316.6</ele>
        <time>2021-04-10T07:41:31Z</time>
      </trkpt>
      <trkpt lat="45.20131" lon="5.84312">
        <ele>316.6</ele>
        <time>2021-04-10T07:41:32Z</time>
      </trkpt>
      <trkpt lat="45.20131" lon="5.84312">
        <ele>317</ele>
        <time>2021-04-10T07:41:33Z</time>
      </trkpt>
      <trkpt lat="45.2013" lon="5.84313">
        <ele>317.2</ele>
        <time>2021-04-10T07:41:34Z</time>
      </trkpt>
      <trkpt lat="45.2013" lon="5.84313">
        <ele>317.4</ele>
        <time>2021-04-10T07:41:35Z</time>
      </trkpt>
      <trkpt lat="45.2013" lon="5.84313">
        <ele>317.8</ele>
        <time>2021-04-10T07:41:36Z</time>
      </trkpt>
      <trkpt lat="45.2013" lon="5.84314">
        <ele>317.8</ele>
        <time>2021-04-10T07:41:37Z</time>
      </trkpt>
      <trkpt lat="45.2013" lon="5.84314">
        <ele>318</ele>
        <time>2021-04-10T07:41:38Z</time>
      </trkpt>
      <trkpt lat="45.2013" lon="5.84315">
        <ele>318.4</ele>
        <time>2021-04-10T07:41:39Z</time>
      </trkpt>
      <trkpt lat="45.2013" lon="5.84315">
        <ele>318.6</ele>
        <time>2021-04-10T07:41:40Z</time>
      </trkpt>
      <trkpt lat="45.2013" lon="5.84316">
        <ele>319</ele>
        <time>2021-04-10T07:41:41Z</time>
      </trkpt>
      <trkpt lat="45.20129" lon="5.84316">
        <ele>319.4</ele>
        <time>2021-04-10T07:41:42Z</time>
      </trkpt>
      <trkpt lat="45.20129" lon="5.84317">
        <ele>319.8</ele>
        <time>2021-04-10T07:41:43Z</time>
      </trkpt>
      <trkpt lat="45.20129" lon="5.84317">
        <ele>320</ele>
        <time>2021-04-10T07:41:44Z</time>
      </trkpt>
      <trkpt lat="45.20129" lon="5.84318">
        <ele>320.2</ele>
        <time>2021-04-10T07:41:45Z</time>
      </trkpt>
      <trkpt lat="45.20129" lon="5.84318">
        <ele>320.4</ele>
        <time>2021-04-10T07:41:46Z</time>
      </trkpt>
      <trkpt lat="45.20129" lon="5.84319">
        <ele>320.8</ele>
        <time>2021-04-10T07:41:47Z</time>
      </trkpt>
      <trkpt lat="45.20128" lon="5.84318">
        <ele>321</ele>
        <time>2021-04-10T07:41:48Z</time>
      </trkpt>
      <trkpt lat="45.20127" lon="5.84318">
        <ele>321.4</ele>
        <time>2021-04-10T07:41:49Z</time>
      </trkpt>
      <trkpt lat="45.20127" lon="5.84318">
        <ele>321.4</ele>
        <time>2021-04-10T07:41:50Z</time>
      </trkpt>
      <trkpt lat="45.20126" lon="5.84318">
        <ele>321.6</ele>
        <time>2021-04-10T07:41:51Z</time>
      </trkpt>
      <trkpt lat="45.20125" lon="5.84318">
        <ele>321.6</ele>
        <time>2021-04-10T07:41:52Z</time>
      </trkpt>
      <trkpt lat="45.20125" lon="5.84318">
        <ele>321.8</ele>
        <time>2021-04-10T07:41:53Z</time>
      </trkpt>
      <trkpt lat="45.20124" lon="5.84318">
        <ele>322.2</ele>
        <time>2021-04-10T07:41:54Z</time>
      </trkpt>
      <trkpt lat="45.20123" lon="5.84318">
        <ele>322.2</ele>
        <time>2021-04-10T07:41:55Z</time>
      </trkpt>
      <trkpt lat="45.20123" lon="5.84318">
        <ele>322.4</ele>
        <time>2021-04-10T07:41:56Z</time>
      </trkpt>
      <trkpt lat="45.20122" lon="5.84318">
        <ele>322.6</ele>
        <time>2021-04-10T07:41:57Z</time>
      </trkpt>
      <trkpt lat="45.20121" lon="5.84318">
        <ele>322.6</ele>
        <time>2021-04-10T07:41:58Z</time>
      </trkpt>
      <trkpt lat="45.20121" lon="5.84318">
        <ele>323</ele>
        <time>2021-04-10T07:41:59Z</time>
      </trkpt>
      <trkpt lat="45.2012" lon="5.84318">
        <ele>323.2</ele>
        <time>2021-04-10T07:42:00Z</time>
      </trkpt>
      <trkpt lat="45.20119" lon="5.84318">
        <ele>323.4</ele>
        <time>2021-04-10T07:42:01Z</time>
      </trkpt>
      <trkpt lat="45.20118" lon="5.84318">
        <ele>323.6</ele>
        <time>2021-04-10T07:42:02Z</time>
      </trkpt>
      <trkpt lat="45.20118" lon="5.84319">
        <ele>323.8</ele>
        <time>2021-04-10T07:42:03Z</time>
      </trkpt>
      <trkpt lat="45.20117" lon="5.84319">
        <ele>323.8</ele>
        <time>2021-04-10T07:42:04Z</time>
      </trkpt>
      <trkpt lat="45.20116" lon="5.8432">
        <ele>324.4</ele>
        <time>2021-04-10T07:42:05Z</time>
      </trkpt>
      <trkpt lat="45.20115" lon="5.8432">
        <ele>324.4</ele>
        <time>2021-04-10T07:42:06Z</time>
      </trkpt>
      <trkpt lat="45.20114" lon="5.84321">
        <ele>324.8</ele>
        <time>2021-04-10T07:42:07Z</time>
      </trkpt>
      <trkpt lat="45.20114" lon="5.84321">
        <ele>325</ele>
        <time>2021-04-10T07:42:08Z</time>
      </trkpt>
      <trkpt lat="45.20113" lon="5.84322">
        <ele>325</ele>
        <time>2021-04-10T07:42:09Z</time>
      </trkpt>
      <trkpt lat="45.20112" lon="5.84322">
        <ele>325.2</ele>
        <time>2021-04-10T07:42:10Z</time>
      </trkpt>
      <trkpt lat="45.20111" lon="5.84323">
        <ele>325.4</ele>
        <time>2021-04-10T07:42:11Z</time>
      </trkpt>
      <trkpt lat="45.20111" lon="5.84323">
        <ele>325.8</ele>
        <time>2021-04-10T07:42:12Z</time>
      </trkpt>
      <trkpt lat="45.20111" lon="5.84325">
        <ele>326.2</ele>
        <time>2021-04-10T07:42:13Z</time>
      </trkpt>
      <trkpt lat="45.2011" lon="5.84326">
        <ele>326.2</ele>
        <time>2021-04-10T07:42:14Z</time>
      </trkpt>
      <trkpt lat="45.2011" lon="5.84327">
        <ele>326.4</ele>
        <time>2021-04-10T07:42:15Z</time>
      </trkpt>
      <trkpt lat="45.2011" lon="5.84329">
        <ele>326.6</ele>
        <time>2021-04-10T07:42:16Z</time>
      </trkpt>
      <trkpt lat="45.2011" lon="5.8433">
        <ele>326.8</ele>
        <time>2021-04-10T07:42:17Z</time>
      </trkpt>
      <trkpt lat="45.2011" lon="5.84331">
        <ele>327</ele>
        <time>2021-04-10T07:42:18Z</time>
      </trkpt>
      <trkpt lat="45.2011" lon="5.84333">
        <ele>327.2</ele>
        <time>2021-04-10T07:42:19Z</time>
      </trkpt>
      <trkpt lat="45.2011" lon="5.84334">
        <ele>327.4</ele>
        <time>2021-04-10T07:42:20Z</time>
      </trkpt>
      <trkpt lat="45.2011" lon="5.84335">
        <ele>327.8</ele>
        <time>2021-04-10T07:42:21Z</time>
      </trkpt>
      <trkpt lat="45.2011" lon="5.84337">
        <ele>328</ele>
        <time>2021-04-10T07:42:22Z</time>
      </trkpt>
      <trkpt lat="45.2011" lon="5.84337">
        <ele>328.2</ele>
        <time>2021-04-10T07:42:23Z</time>
      </trkpt>
      <trkpt lat="45.20109" lon="5.84338">
        <ele>328.6</ele>
        <time>2021-04-10T07:42:24Z</time>
      </trkpt>
      <trkpt lat="45.20109" lon="5.84339">
        <ele>328.6</ele>
        <time>2021-04-10T07:42:25Z</time>
      </trkpt>
      <trkpt lat="45.20108" lon="5.84339">
        <ele>328.8</ele>
        <time>2021-04-10T07:42:26Z</time>
      </trkpt>
      <trkpt lat="45.20108" lon="5.8434">
        <ele>329</ele>
        <time>2021-04-10T07:42:27Z</time>
      </trkpt>
      <trkpt lat="45.20107" lon="5.84341">
        <ele>329.2</ele>
        <time>2021-04-10T07:42:28Z</time>
      </trkpt>
      <trkpt lat="45.20107" lon="5.84341">
        <ele>329.4</ele>
        <time>2021-04-10T07:42:29Z</time>
      </trkpt>
      <trkpt lat="45.20106" lon="5.84342">
        <ele>329.6</ele>
        <time>2021-04-10T07:42:30Z</time>
      </trkpt>
      <trkpt lat="45.20106" lon="5.84342">
        <ele>330</ele>
        <time>2021-04-10T07:42:31Z</time>
      </trkpt>
      <trkpt lat="45.20105" lon="5.84343">
        <ele>330.2</ele>
        <time>2021-04-10T07:42:32Z</time>
      </trkpt>
      <trkpt lat="45.20105" lon="5.84344">
        <ele>330.6</ele>
        <time>2021-04-10T07:42:33Z</time>
      </trkpt>
      <trkpt lat="45.20104" lon="5.84344">
        <ele>330.8</ele>
        <time>2021-04-10T07:42:34Z</time>
      </trkpt>
      <trkpt lat="45.20104" lon="5.84345">
        <ele>331</ele>
        <time>2021-04-10T07:42:35Z</time>
      </trkpt>
      <trkpt lat="45.20103" lon="5.84346">
        <ele>331.2</ele>
        <time>2021-04-10T07:42:36Z</time>
      </trkpt>
      <trkpt lat="45.20103" lon="5.84346">
        <ele>331.6</ele>
        <time>2021-04-10T07:42:37Z</time>
      </trkpt>
      <trkpt lat="45.20102" lon="5.84347">
        <ele>331.8</ele>
        <time>2021-04-10T07:42:38Z</time>
      </trkpt>
      <trkpt lat="45.20102" lon="5.84347">
        <ele>332.2</ele>
        <time>2021-04-10T07:42:39Z</time>
      </trkpt>
      <trkpt lat="45.20101" lon="5.84348">
        <ele>332.4</ele>
        <time>2021-04-10T07:42:40Z</time>
      </trkpt>
      <trkpt lat="45.201" lon="5.84348">
        <ele>332.4</ele>
        <time>2021-04-10T07:42:41Z</time>
      </trkpt>
      <trkpt lat="45.201" lon="5.84349">
        <ele>332.6</ele>
        <time>2021-04-10T07:42:42Z</time>
      </trkpt>
      <trkpt lat="45.20099" lon="5.8435">
        <ele>332.6</ele>
        <time>2021-04-10T07:42:43Z</time>
      </trkpt>
      <trkpt lat="45.20099" lon="5.8435">
        <ele>333</ele>
        <time>2021-04-10T07:42:44Z</time>
      </trkpt>
      <trkpt lat="45.20098" lon="5.84351">
        <ele>333.2</ele>
        <time>2021-04-10T07:42:45Z</time>
      </trkpt>
      <trkpt lat="45.20098" lon="5.84351">
        <ele>333.6</ele>
        <time>2021-04-10T07:42:46Z</time>
      </trkpt>
      <trkpt lat="45.20097" lon="5.84352">
        <ele>333.8</ele>
        <time>2021-04-10T07:42:47Z</time>
      </trkpt>
      <trkpt lat="45.20097" lon="5.84352">
        <ele>334</ele>
        <time>2021-04-10T07:42:48Z</time>
      </trkpt>
      <trkpt lat="45.20096" lon="5.84353">
        <ele>334.2</ele>
        <time>2021-04-10T07:42:49Z</time>
      </trkpt>
      <trkpt lat="45.20095" lon="5.84354">
        <ele>334.4</ele>
        <time>2021-04-10T07:42:50Z</time>
      </trkpt>
      <trkpt lat="45.20095" lon="5.84354">
        <ele>334.6</ele>
        <time>2021-04-10T07:42:51Z</time>
      </trkpt>
      <trkpt lat="45.20095" lon="5.84355">
        <ele>335.2</ele>
        <time>2021-04-10T07:42:52Z</time>
      </trkpt>
      <trkpt lat="45.20095" lon="5.84356">
        <ele>335.4</ele>
        <time>2021-04-10T07:42:53Z</time>
      </trkpt>
      <trkpt lat="45.20095" lon="5.84357">
        <ele>335.4</ele>
        <time>2021-04-10T07:42:54Z</time>
      </trkpt>
      <trkpt lat="45.20095" lon="5.84358">
        <ele>335.6</ele>
        <time>2021-04-10T07:42:55Z</time>
      </trkpt>
      <trkpt lat="45.20096" lon="5.84359">
        <ele>335.8</ele>
        <time>2021-04-10T07:42:56Z</time>
      </trkpt>
      <trkpt lat="45.20096" lon="5.84359">
        <ele>336</ele>
        <time>2021-04-10T07:42:57Z</time>
      </trkpt>
      <trkpt lat="45.20096" lon="5.8436">
        <ele>336.2</ele>
        <time>2021-04-10T07:42:58Z</time>
      </trkpt>
      <trkpt lat="45.20096" lon="5.84361">
        <ele>336.4</ele>
        <time>2021-04-10T07:42:59Z</time>
      </trkpt>
      <trkpt lat="45.20096" lon="5.84362">
        <ele>336.8</ele>
        <time>2021-04-10T07:43:00Z</time>
      </trkpt>
      <trkpt lat="45.20096" lon="5.84363">
        <ele>337</ele>
        <time>2021-04-10T07:43:01Z</time>
      </trkpt>
      <trkpt lat="45.20096" lon="5.84364">
        <ele>337.4</ele>
        <time>2021-04-10T07:43:02Z</time>
      </trkpt>
      <trkpt lat="45.20097" lon="5.84365">
        <ele>337.8</ele>
        <time>2021-04-10T07:43:03Z</time>
      </trkpt>
      <trkpt lat="45.20097" lon="5.84366">
        <ele>338</ele>
        <time>2021-04-10T07:43:04Z</time>
      </trkpt>
      <trkpt lat="45.20097" lon="5.84366">
        <ele>338.2</ele>
        <time>2021-04-10T07:43:05Z</time>
      </trkpt>
      <trkpt lat="45.20097" lon="5.84367">
        <ele>338.4</ele>
        <time>2021-04-10T07:43:06Z</time>
      </trkpt>
      <trkpt lat="45.20096" lon="5.84368">
        <ele>338.6</ele>
        <time>2021-04-10T07:43:07Z</time>
      </trkpt>
      <trkpt lat="45.20096" lon="5.8437">
        <ele>339</ele>
        <time>2021-04-10T07:43:08Z</time>
      </trkpt>
      <trkpt lat="45.20095" lon="5.84371">
        <ele>339.2</ele>
        <time>2021-04-10T07:43:09Z</time>
      </trkpt>
      <trkpt lat="45.20095" lon="5.84372">
        <ele>339.6</ele>
        <time>2021-04-10T07:43:10Z</time>
      </trkpt>
      <trkpt lat="45.20094" lon="5.84373">
        <ele>339.6</ele>
        <time>2021-04-10T07:43:11Z</time>
      </trkpt>
      <trkpt lat="45.20094" lon="5.84374">
        <ele>340</ele>
        <time>2021-04-10T07:43:12Z</time>
      </trkpt>
      <trkpt lat="45.20093" lon="5.84376">
        <ele>340.4</ele>
        <time>2021-04-10T07:43:13Z</time>
      </trkpt>
      <trkpt lat="45.20092" lon="5.84377">
        <ele>340.6</ele>
        <time>2021-04-10T07:43:14Z</time>
      </trkpt>
      <trkpt lat="45.20092" lon="5.84378">
        <ele>340.8</ele>
        <time>2021-04-10T07:43:15Z</time>
      </trkpt>
      <trkpt lat="45.20091" lon="5.84379">
        <ele>341</ele>
        <time>2021-04-10T07:43:16Z</time>
      </trkpt>
      <trkpt lat="45.20091" lon="5.8438">
        <ele>341.6</ele>
        <time>2021-04-10T07:43:17Z</time>
      </trkpt>
      <trkpt lat="45.2009" lon="5.84381">
        <ele>341.8</ele>
        <time>2021-04-10T07:43:18Z</time>
      </trkpt>
      <trkpt lat="45.20089" lon="5.84381">
        <ele>341.8</ele>
        <time>2021-04-10T07:43:19Z</time>
      </trkpt>
      <trkpt lat="45.20088" lon="5.84382">
        <ele>341.8</ele>
        <time>2021-04-10T07:43:20Z</time>
      </trkpt>
      <trkpt lat="45.20088" lon="5.84382">
        <ele>342</ele>
        <time>2021-04-10T07:43:21Z</time>
      </trkpt>
      <trkpt lat="45.20087" lon="5.84383">
        <ele>342.2</ele>
        <time>2021-04-10T07:43:22Z</time>
      </trkpt>
      <trkpt lat="45.20086" lon="5.84383">
        <ele>342.6</ele>
        <time>2021-04-10T07:43:23Z</time>
      </trkpt>
      <trkpt lat="45.20085" lon="5.84384">
        <ele>342.8</ele>
        <time>2021-04-10T07:43:24Z</time>
      </trkpt>
      <trkpt lat="45.20085" lon="5.84384">
        <ele>343</ele>
        <time>2021-04-10T07:43:25Z</time>
      </trkpt>
      <trkpt lat="45.20084" lon="5.84385">
        <ele>343.2</ele>
        <time>2021-04-10T07:43:26Z</time>
      </trkpt>
      <trkpt lat="45.20083" lon="5.84385">
        <ele>343.4</ele>
        <time>2021-04-10T07:43:27Z</time>
      </trkpt>
      <trkpt lat="45.20082" lon="5.84386">
        <ele>343.6</ele>
        <time>2021-04-10T07:43:28Z</time>
      </trkpt>
      <trkpt lat="45.20083" lon="5.84387">
        <ele>344</ele>
        <time>2021-04-10T07:43:29Z</time>
      </trkpt>
      <trkpt lat="45.20083" lon="5.84388">
        <ele>344.2</ele>
        <time>2021-04-10T07:43:30Z</time>
      </trkpt>
      <trkpt lat="45.20083" lon="5.84389">
        <ele>344.4</ele>
        <time>2021-04-10T07:43:31Z</time>
      </trkpt>
      <trkpt lat="45.20083" lon="5.8439">
        <ele>344.6</ele>
        <time>2021-04-10T07:43:32Z</time>
      </trkpt>
      <trkpt lat="45.20083" lon="5.84392">
        <ele>345</ele>
        <time>2021-04-10T07:43:33Z</time>
      </trkpt>
      <trkpt lat="45.20083" lon="5.84393">
        <ele>345.2</ele>
        <time>2021-04-10T07:43:34Z</time>
      </trkpt>
      <trkpt lat="45.20083" lon="5.84394">
        <ele>345.4</ele>
        <time>2021-04-10T07:43:35Z</time>
      </trkpt>
      <trkpt lat="45.20083" lon="5.84395">
        <ele>345.8</ele>
        <time>2021-04-10T07:43:36Z</time>
      </trkpt>
      <trkpt lat="45.20083" lon="5.84396">
        <ele>346</ele>
        <time>2021-04-10T07:43:37Z</time>
      </trkpt>
      <trkpt lat="45.20083" lon="5.84397">
        <ele>346.2</ele>
        <time>2021-04-10T07:43:38Z</time>
      </trkpt>
      <trkpt lat="45.20083" lon="5.84399">
        <ele>346.6</ele>
        <time>2021-04-10T07:43:39Z</time>
      </trkpt>
      <trkpt lat="45.20083" lon="5.844">
        <ele>346.8</ele>
        <time>2021-04-10T07:43:40Z</time>
      </trkpt>
      <trkpt lat="45.20083" lon="5.84401">
        <ele>347</ele>
        <time>2021-04-10T07:43:41Z</time>
      </trkpt>
      <trkpt lat="45.20083" lon="5.84402">
        <ele>347.4</ele>
        <time>2021-04-10T07:43:42Z</time>
      </trkpt>
      <trkpt lat="45.20084" lon="5.84403">
        <ele>347.8</ele>
        <time>2021-04-10T07:43:43Z</time>
      </trkpt>
      <trkpt lat="45.20084" lon="5.84404">
        <ele>348</ele>
        <time>2021-04-10T07:43:44Z</time>
      </trkpt>
      <trkpt lat="45.20084" lon="5.84405">
        <ele>348</ele>
        <time>2021-04-10T07:43:45Z</time>
      </trkpt>
      <trkpt lat="45.20084" lon="5.84406">
        <ele>348.2</ele>
        <time>2021-04-10T07:43:46Z</time>
      </trkpt>
      <trkpt lat="45.20084" lon="5.84407">
        <ele>348.4</ele>
        <time>2021-04-10T07:43:47Z</time>
      </trkpt>
      <trkpt lat="45.20084" lon="5.84409">
        <ele>348.6</ele>
        <time>2021-04-10T07:43:48Z</time>
      </trkpt>
      <trkpt lat="45.20084" lon="5.8441">
        <ele>349</ele>
        <time>2021-04-10T07:43:49Z</time>
      </trkpt>
      <trkpt lat="45.20084" lon="5.84411">
        <ele>349</ele>
        <time>2021-04-10T07:43:50Z</time>
      </trkpt>
      <trkpt lat="45.20084" lon="5.84412">
        <ele>349.4</ele>
        <time>2021-04-10T07:43:51Z</time>
      </trkpt>
      <trkpt lat="45.20083" lon="5.84412">
        <ele>349.6</ele>
        <time>2021-04-10T07:43:52Z</time>
      </trkpt>
      <trkpt lat="45.20081" lon="5.84412">
        <ele>349.8</ele>
        <time>2021-04-10T07:43:53Z</time>
      </trkpt>
      <trkpt lat="45.2008" lon="5.84412">
        <ele>350</ele>
        <time>2021-04-10T07:43:54Z</time>
      </trkpt>
      <trkpt lat="45.20078" lon="5.84412">
        <ele>350.2</ele>
        <time>2021-04-10T07:43:55Z</time>
      </trkpt>
      <trkpt lat="45.20077" lon="5.84413">
        <ele>350.4</ele>
        <time>2021-04-10T07:43:56Z</time>
      </trkpt>
      <trkpt lat="45.20075" lon="5.84413">
        <ele>350.6</ele>
        <time>2021-04-10T07:43:57Z</time>
      </trkpt>
      <trkpt lat="45.20073" lon="5.84412">
        <ele>351</ele>
        <time>2021-04-10T07:43:58Z</time>
      </trkpt>
      <trkpt lat="45.20071" lon="5.84412">
        <ele>351.2</ele>
        <time>2021-04-10T07:43:59Z</time>
      </trkpt>
      <trkpt lat="45.20069" lon="5.84412">
        <ele>351.6</ele>
        <time>2021-04-10T07:44:00Z</time>
      </trkpt>
      <trkpt lat="45.20067" lon="5.84412">
        <ele>351.8</ele>
        <time>2021-04-10T07:44:01Z</time>
      </trkpt>
      <trkpt lat="45.20065" lon="5.84411">
        <ele>352.2</ele>
        <time>2021-04-10T07:44:02Z</time>
      </trkpt>
      <trkpt lat="45.20064" lon="5.84412">
        <ele>352.4</ele>
        <time>2021-04-10T07:44:03Z</time>
      </trkpt>
      <trkpt lat="45.20064" lon="5.84413">
        <ele>352.4</ele>
        <time>2021-04-10T07:44:04Z</time>
      </trkpt>
      <trkpt lat="45.20063" lon="5.84414">
        <ele>352.8</ele>
        <time>2021-04-10T07:44:05Z</time>
      </trkpt>
      <trkpt lat="45.20062" lon="5.84415">
        <ele>353</ele>
        <time>2021-04-10T07:44:06Z</time>
      </trkpt>
      <trkpt lat="45.20061" lon="5.84416">
        <ele>353</ele>
        <time>2021-04-10T07:44:07Z</time>
      </trkpt>
      <trkpt lat="45.2006" lon="5.84417">
        <ele>353.2</ele>
        <time>2021-04-10T07:44:08Z</time>
      </trkpt>
      <trkpt lat="45.20059" lon="5.84417">
        <ele>353.6</ele>
        <time>2021-04-10T07:44:09Z</time>
      </trkpt>
      <trkpt lat="45.20059" lon="5.84418">
        <ele>353.6</ele>
        <time>2021-04-10T07:44:10Z</time>
      </trkpt>
      <trkpt lat="45.20058" lon="5.84419">
        <ele>353.8</ele>
        <time>2021-04-10T07:44:11Z</time>
      </trkpt>
      <trkpt lat="45.20057" lon="5.8442">
        <ele>354</ele>
        <time>2021-04-10T07:44:12Z</time>
      </trkpt>
      <trkpt lat="45.20056" lon="5.8442">
        <ele>354.4</ele>
        <time>2021-04-10T07:44:13Z</time>
      </trkpt>
      <trkpt lat="45.20056" lon="5.8442">
        <ele>354.6</ele>
        <time>2021-04-10T07:44:14Z</time>
      </trkpt>
      <trkpt lat="45.20055" lon="5.84421">
        <ele>354.8</ele>
        <time>2021-04-10T07:44:15Z</time>
      </trkpt>
      <trkpt lat="45.20054" lon="5.84421">
        <ele>355.2</ele>
        <time>2021-04-10T07:44:16Z</time>
      </trkpt>
      <trkpt lat="45.20053" lon="5.84422">
        <ele>355.4</ele>
        <time>2021-04-10T07:44:17Z</time>
      </trkpt>
      <trkpt lat="45.20053" lon="5.84422">
        <ele>355.6</ele>
        <time>2021-04-10T07:44:18Z</time>
      </trkpt>
      <trkpt lat="45.20052" lon="5.84422">
        <ele>356</ele>
        <time>2021-04-10T07:44:19Z</time>
      </trkpt>
      <trkpt lat="45.20051" lon="5.84423">
        <ele>356.2</ele>
        <time>2021-04-10T07:44:20Z</time>
      </trkpt>
      <trkpt lat="45.2005" lon="5.84423">
        <ele>356.6</ele>
        <time>2021-04-10T07:44:21Z</time>
      </trkpt>
      <trkpt lat="45.2005" lon="5.84424">
        <ele>356.8</ele>
        <time>2021-04-10T07:44:22Z</time>
      </trkpt>
      <trkpt lat="45.20049" lon="5.84424">
        <ele>357.2</ele>
        <time>2021-04-10T07:44:23Z</time>
      </trkpt>
      <trkpt lat="45.20048" lon="5.84424">
        <ele>357.4</ele>
        <time>2021-04-10T07:44:24Z</time>
      </trkpt>
      <trkpt lat="45.20048" lon="5.84425">
        <ele>357.6</ele>
        <time>2021-04-10T07:44:25Z</time>
      </trkpt>
      <trkpt lat="45.20047" lon="5.84425">
        <ele>357.8</ele>
        <time>2021-04-10T07:44:26Z</time>
      </trkpt>
      <trkpt lat="45.20047" lon="5.84425">
        <ele>358</ele>
        <time>2021-04-10T07:44:27Z</time>
      </trkpt>
      <trkpt lat="45.20046" lon="5.84425">
        <ele>358.2</ele>
        <time>2021-04-10T07:44:28Z</time>
      </trkpt>
      <trkpt lat="45.20046" lon="5.84426">
        <ele>358.6</ele>
        <time>2021-04-10T07:44:29Z</time>
      </trkpt>
      <trkpt lat="45.20045" lon="5.84426">
        <ele>359</ele>
        <time>2021-04-10T07:44:30Z</time>
      </trkpt>
      <trkpt lat="45.20044" lon="5.84426">
        <ele>359.4</ele>
        <time>2021-04-10T07:44:31Z</time>
      </trkpt>
      <trkpt lat="45.20044" lon="5.84427">
        <ele>360</ele>
        <time>2021-04-10T07:44:32Z</time>
      </trkpt>
      <trkpt lat="45.20043" lon="5.84427">
        <ele>360</ele>
        <time>2021-04-10T07:44:33Z</time>
      </trkpt>
      <trkpt lat="45.20043" lon="5.84427">
        <ele>360</ele>
        <time>2021-04-10T07:44:34Z</time>
      </trkpt>
      <trkpt lat="45.20042" lon="5.84427">
        <ele>360.2</ele>
        <time>2021-04-10T07:44:35Z</time>
      </trkpt>
      <trkpt lat="45.20042" lon="5.84428">
        <ele>360.4</ele>
        <time>2021-04-10T07:44:36Z</time>
      </trkpt>
      <trkpt lat="45.20041" lon="5.84428">
        <ele>360.8</ele>
        <time>2021-04-10T07:44:37Z</time>
      </trkpt>
      <trkpt lat="45.20041" lon="5.84428">
        <ele>360.8</ele>
        <time>2021-04-10T07:44:38Z</time>
      </trkpt>
      <trkpt lat="45.2004" lon="5.84428">
        <ele>361</ele>
        <time>2021-04-10T07:44:39Z</time>
      </trkpt>
      <trkpt lat="45.20039" lon="5.84428">
        <ele>361.4</ele>
        <time>2021-04-10T07:44:40Z</time>
      </trkpt>
      <trkpt lat="45.20038" lon="5.84429">
        <ele>361.6</ele>
        <time>2021-04-10T07:44:41Z</time>
      </trkpt>
      <trkpt lat="45.20037" lon="5.84429">
        <ele>361.6</ele>
        <time>2021-04-10T07:44:42Z</time>
      </trkpt>
      <trkpt lat="45.20035" lon="5.84429">
        <ele>362</ele>
        <time>2021-04-10T07:44:43Z</time>
      </trkpt>
      <trkpt lat="45.20034" lon="5.84429">
        <ele>362.2</ele>
        <time>2021-04-10T07:44:44Z</time>
      </trkpt>
      <trkpt lat="45.20033" lon="5.84429">
        <ele>362.4</ele>
        <time>2021-04-10T07:44:45Z</time>
      </trkpt>
      <trkpt lat="45.20032" lon="5.84429">
        <ele>362.6</ele>
        <time>2021-04-10T07:44:46Z</time>
      </trkpt>
      <trkpt lat="45.20031" lon="5.84429">
        <ele>362.8</ele>
        <time>2021-04-10T07:44:47Z</time>
      </trkpt>
      <trkpt lat="45.2003" lon="5.84429">
        <ele>363.2</ele>
        <time>2021-04-10T07:44:48Z</time>
      </trkpt>
      <trkpt lat="45.2003" lon="5.8443">
        <ele>363.4</ele>
        <time>2021-04-10T07:44:49Z</time>
      </trkpt>
      <trkpt lat="45.20029" lon="5.8443">
        <ele>363.8</ele>
        <time>2021-04-10T07:44:50Z</time>
      </trkpt>
      <trkpt lat="45.20029" lon="5.84431">
        <ele>363.8</ele>
        <time>2021-04-10T07:44:51Z</time>
      </trkpt>
      <trkpt lat="45.20028" lon="5.84431">
        <ele>364.2</ele>
        <time>2021-04-10T07:44:52Z</time>
      </trkpt>
      <trkpt lat="45.20028" lon="5.84432">
        <ele>364.4</ele>
        <time>2021-04-10T07:44:53Z</time>
      </trkpt>
      <trkpt lat="45.20027" lon="5.84432">
        <ele>364.4</ele>
        <time>2021-04-10T07:44:54Z</time>
      </trkpt>
      <trkpt lat="45.20027" lon="5.84433">
        <ele>364.8</ele>
        <time>2021-04-10T07:44:55Z</time>
      </trkpt>
      <trkpt lat="45.20027" lon="5.84433">
        <ele>364.8</ele>
        <time>2021-04-10T07:44:56Z</time>
      </trkpt>
      <trkpt lat="45.20026" lon="5.84434">
        <ele>365</ele>
        <time>2021-04-10T07:44:57Z</time>
      </trkpt>
      <trkpt lat="45.20026" lon="5.84434">
        <ele>365.4</ele>
        <time>2021-04-10T07:44:58Z</time>
      </trkpt>
      <trkpt lat="45.20025" lon="5.84435">
        <ele>365.6</ele>
        <time>2021-04-10T07:44:59Z</time>
      </trkpt>
      <trkpt lat="45.20025" lon="5.84435">
        <ele>366</ele>
        <time>2021-04-10T07:45:00Z</time>
      </trkpt>
      <trkpt lat="45.20024" lon="5.84436">
        <ele>366.4</ele>
        <time>2021-04-10T07:45:01Z</time>
      </trkpt>
      <trkpt lat="45.20024" lon="5.84436">
        <ele>366.8</ele>
        <time>2021-04-10T07:45:02Z</time>
      </trkpt>
      <trkpt lat="45.20023" lon="5.84437">
        <ele>366.8</ele>
        <time>2021-04-10T07:45:03Z</time>
      </trkpt>
      <trkpt lat="45.20022" lon="5.84437">
        <ele>367.2</ele>
        <time>2021-04-10T07:45:04Z</time>
      </trkpt>
      <trkpt lat="45.20022" lon="5.84437">
        <ele>367.2</ele>
        <time>2021-04-10T07:45:05Z</time>
      </trkpt>
      <trkpt lat="45.20021" lon="5.84438">
        <ele>367.4</ele>
        <time>2021-04-10T07:45:06Z</time>
      </trkpt>
      <trkpt lat="45.2002" lon="5.84438">
        <ele>367.8</ele>
        <time>2021-04-10T07:45:07Z</time>
      </trkpt>
      <trkpt lat="45.20019" lon="5.84439">
        <ele>368</ele>
        <time>2021-04-10T07:45:08Z</time>
      </trkpt>
      <trkpt lat="45.20018" lon="5.84439">
        <ele>368</ele>
        <time>2021-04-10T07:45:09Z</time>
      </trkpt>
      <trkpt lat="45.20017" lon="5.84439">
        <ele>368.2</ele>
        <time>2021-04-10T07:45:10Z</time>
      </trkpt>
      <trkpt lat="45.20017" lon="5.8444">
        <ele>368.4</ele>
        <time>2021-04-10T07:45:11Z</time>
      </trkpt>
      <trkpt lat="45.20016" lon="5.8444">
        <ele>369.4</ele>
        <time>2021-04-10T07:45:12Z</time>
      </trkpt>
      <trkpt lat="45.20015" lon="5.8444">
        <ele>369.6</ele>
        <time>2021-04-10T07:45:13Z</time>
      </trkpt>
      <trkpt lat="45.20014" lon="5.84441">
        <ele>369.6</ele>
        <time>2021-04-10T07:45:14Z</time>
      </trkpt>
      <trkpt lat="45.20013" lon="5.84442">
        <ele>369.6</ele>
        <time>2021-04-10T07:45:15Z</time>
      </trkpt>
      <trkpt lat="45.20013" lon="5.84443">
        <ele>369.8</ele>
        <time>2021-04-10T07:45:16Z</time>
      </trkpt>
      <trkpt lat="45.20012" lon="5.84444">
        <ele>370</ele>
        <time>2021-04-10T07:45:17Z</time>
      </trkpt>
      <trkpt lat="45.20011" lon="5.84445">
        <ele>370.2</ele>
        <time>2021-04-10T07:45:18Z</time>
      </trkpt>
      <trkpt lat="45.2001" lon="5.84446">
        <ele>370.6</ele>
        <time>2021-04-10T07:45:19Z</time>
      </trkpt>
      <trkpt lat="45.2001" lon="5.84447">
        <ele>370.6</ele>
        <time>2021-04-10T07:45:20Z</time>
      </trkpt>
      <trkpt lat="45.20009" lon="5.84448">
        <ele>370.8</ele>
        <time>2021-04-10T07:45:21Z</time>
      </trkpt>
      <trkpt lat="45.20008" lon="5.84449">
        <ele>371</ele>
        <time>2021-04-10T07:45:22Z</time>
      </trkpt>
      <trkpt lat="45.20007" lon="5.8445">
        <ele>371.2</ele>
        <time>2021-04-10T07:45:23Z</time>
      </trkpt>
      <trkpt lat="45.20006" lon="5.8445">
        <ele>371.6</ele>
        <time>2021-04-10T07:45:24Z</time>
      </trkpt>
      <trkpt lat="45.20005" lon="5.8445">
        <ele>371.6</ele>
        <time>2021-04-10T07:45:25Z</time>
      </trkpt>
      <trkpt lat="45.20004" lon="5.8445">
        <ele>371.8</ele>
        <time>2021-04-10T07:45:26Z</time>
      </trkpt>
      <trkpt lat="45.20003" lon="5.84451">
        <ele>372.2</ele>
        <time>2021-04-10T07:45:27Z</time>
      </trkpt>
      <trkpt lat="45.20001" lon="5.84451">
        <ele>372.4</ele>
        <time>2021-04-10T07:45:28Z</time>
      </trkpt>
      <trkpt lat="45.2" lon="5.84451">
        <ele>372.6</ele>
        <time>2021-04-10T07:45:29Z</time>
      </trkpt>
      <trkpt lat="45.19999" lon="5.84451">
        <ele>372.8</ele>
        <time>2021-04-10T07:45:30Z</time>
      </trkpt>
      <trkpt lat="45.19998" lon="5.84451">
        <ele>373</ele>
        <time>2021-04-10T07:45:31Z</time>
      </trkpt>
      <trkpt lat="45.19997" lon="5.84451">
        <ele>373.2</ele>
        <time>2021-04-10T07:45:32Z</time>
      </trkpt>
      <trkpt lat="45.19996" lon="5.84452">
        <ele>373.4</ele>
        <time>2021-04-10T07:45:33Z</time>
      </trkpt>
      <trkpt lat="45.19994" lon="5.84452">
        <ele>373.8</ele>
        <time>2021-04-10T07:45:34Z</time>
      </trkpt>
      <trkpt lat="45.19993" lon="5.84453">
        <ele>374</ele>
        <time>2021-04-10T07:45:35Z</time>
      </trkpt>
      <trkpt lat="45.19992" lon="5.84453">
        <ele>374.2</ele>
        <time>2021-04-10T07:45:36Z</time>
      </trkpt>
      <trkpt lat="45.19991" lon="5.84454">
        <ele>374.6</ele>
        <time>2021-04-10T07:45:37Z</time>
      </trkpt>
      <trkpt lat="45.1999" lon="5.84454">
        <ele>374.8</ele>
        <time>2021-04-10T07:45:38Z</time>
      </trkpt>
      <trkpt lat="45.19988" lon="5.84455">
        <ele>375</ele>
        <time>2021-04-10T07:45:39Z</time>
      </trkpt>
      <trkpt lat="45.19987" lon="5.84455">
        <ele>375.2</ele>
        <time>2021-04-10T07:45:40Z</time>
      </trkpt>
      <trkpt lat="45.19987" lon="5.84455">
        <ele>375.6</ele>
        <time>2021-04-10T07:45:41Z</time>
      </trkpt>
      <trkpt lat="45.19986" lon="5.84455">
        <ele>376.2</ele>
        <time>2021-04-10T07:45:42Z</time>
      </trkpt>
      <trkpt lat="45.19986" lon="5.84455">
        <ele>376.4</ele>
        <time>2021-04-10T07:45:43Z</time>
      </trkpt>
      <trkpt lat="45.19985" lon="5.84455">
        <ele>376.4</ele>
        <time>2021-04-10T07:45:44Z</time>
      </trkpt>
      <trkpt lat="45.19985" lon="5.84456">
        <ele>376.4</ele>
        <time>2021-04-10T07:45:45Z</time>
      </trkpt>
      <trkpt lat="45.19984" lon="5.84456">
        <ele>376.6</ele>
        <time>2021-04-10T07:45:46Z</time>
      </trkpt>
      <trkpt lat="45.19984" lon="5.84456">
        <ele>376.6</ele>
        <time>2021-04-10T07:45:47Z</time>
      </trkpt>
      <trkpt lat="45.19983" lon="5.84456">
        <ele>376.8</ele>
        <time>2021-04-10T07:45:48Z</time>
      </trkpt>
      <trkpt lat="45.19983" lon="5.84456">
        <ele>376.8</ele>
        <time>2021-04-10T07:45:49Z</time>
      </trkpt>
      <trkpt lat="45.19982" lon="5.84456">
        <ele>376.8</ele>
        <time>2021-04-10T07:45:50Z</time>
      </trkpt>
      <trkpt lat="45.19982" lon="5.84456">
        <ele>377</ele>
        <time>2021-04-10T07:45:51Z</time>
      </trkpt>
      <trkpt lat="45.19981" lon="5.84456">
        <ele>377.2</ele>
        <time>2021-04-10T07:45:52Z</time>
      </trkpt>
      <trkpt lat="45.19981" lon="5.84456">
        <ele>377.2</ele>
        <time>2021-04-10T07:45:53Z</time>
      </trkpt>
      <trkpt lat="45.1998" lon="5.84457">
        <ele>377.2</ele>
        <time>2021-04-10T07:45:54Z</time>
      </trkpt>
      <trkpt lat="45.1998" lon="5.84457">
        <ele>377.4</ele>
        <time>2021-04-10T07:45:55Z</time>
      </trkpt>
      <trkpt lat="45.19979" lon="5.84457">
        <ele>377.6</ele>
        <time>2021-04-10T07:45:56Z</time>
      </trkpt>
      <trkpt lat="45.19979" lon="5.84457">
        <ele>377.8</ele>
        <time>2021-04-10T07:45:57Z</time>
      </trkpt>
      <trkpt lat="45.19978" lon="5.84457">
        <ele>378</ele>
        <time>2021-04-10T07:45:58Z</time>
      </trkpt>
      <trkpt lat="45.19978" lon="5.84457">
        <ele>378.2</ele>
        <time>2021-04-10T07:45:59Z</time>
      </trkpt>
      <trkpt lat="45.19976" lon="5.84457">
        <ele>378.4</ele>
        <time>2021-04-10T07:46:00Z</time>
      </trkpt>
      <trkpt lat="45.19974" lon="5.84457">
        <ele>378.6</ele>
        <time>2021-04-10T07:46:01Z</time>
      </trkpt>
      <trkpt lat="45.19973" lon="5.84457">
        <ele>378.6</ele>
        <time>2021-04-10T07:46:02Z</time>
      </trkpt>
      <trkpt lat="45.19971" lon="5.84456">
        <ele>378.8</ele>
        <time>2021-04-10T07:46:03Z</time>
      </trkpt>
      <trkpt lat="45.1997" lon="5.84456">
        <ele>379</ele>
        <time>2021-04-10T07:46:04Z</time>
      </trkpt>
      <trkpt lat="45.19968" lon="5.84456">
        <ele>379.2</ele>
        <time>2021-04-10T07:46:05Z</time>
      </trkpt>
      <trkpt lat="45.19968" lon="5.84457">
        <ele>379.6</ele>
        <time>2021-04-10T07:46:06Z</time>
      </trkpt>
      <trkpt lat="45.19967" lon="5.84458">
        <ele>379.8</ele>
        <time>2021-04-10T07:46:07Z</time>
      </trkpt>
      <trkpt lat="45.19966" lon="5.84459">
        <ele>380</ele>
        <time>2021-04-10T07:46:08Z</time>
      </trkpt>
      <trkpt lat="45.19966" lon="5.8446">
        <ele>380.2</ele>
        <time>2021-04-10T07:46:09Z</time>
      </trkpt>
      <trkpt lat="45.19965" lon="5.84461">
        <ele>380.4</ele>
        <time>2021-04-10T07:46:10Z</time>
      </trkpt>
      <trkpt lat="45.19964" lon="5.84461">
        <ele>380.6</ele>
        <time>2021-04-10T07:46:11Z</time>
      </trkpt>
      <trkpt lat="45.19964" lon="5.84462">
        <ele>380.8</ele>
        <time>2021-04-10T07:46:12Z</time>
      </trkpt>
      <trkpt lat="45.19963" lon="5.84463">
        <ele>381</ele>
        <time>2021-04-10T07:46:13Z</time>
      </trkpt>
      <trkpt lat="45.19962" lon="5.84464">
        <ele>381.4</ele>
        <time>2021-04-10T07:46:14Z</time>
      </trkpt>
      <trkpt lat="45.19962" lon="5.84465">
        <ele>381.6</ele>
        <time>2021-04-10T07:46:15Z</time>
      </trkpt>
      <trkpt lat="45.19961" lon="5.84466">
        <ele>382</ele>
        <time>2021-04-10T07:46:16Z</time>
      </trkpt>
      <trkpt lat="45.1996" lon="5.84466">
        <ele>382.2</ele>
        <time>2021-04-10T07:46:17Z</time>
      </trkpt>
      <trkpt lat="45.19959" lon="5.84467">
        <ele>382.4</ele>
        <time>2021-04-10T07:46:18Z</time>
      </trkpt>
      <trkpt lat="45.19958" lon="5.84468">
        <ele>382.8</ele>
        <time>2021-04-10T07:46:19Z</time>
      </trkpt>
      <trkpt lat="45.19957" lon="5.84468">
        <ele>383.2</ele>
        <time>2021-04-10T07:46:20Z</time>
      </trkpt>
      <trkpt lat="45.19956" lon="5.84469">
        <ele>383.4</ele>
        <time>2021-04-10T07:46:21Z</time>
      </trkpt>
      <trkpt lat="45.19956" lon="5.8447">
        <ele>383.6</ele>
        <time>2021-04-10T07:46:22Z</time>
      </trkpt>
      <trkpt lat="45.19955" lon="5.8447">
        <ele>384</ele>
        <time>2021-04-10T07:46:23Z</time>
      </trkpt>
      <trkpt lat="45.19954" lon="5.84471">
        <ele>384.2</ele>
        <time>2021-04-10T07:46:24Z</time>
      </trkpt>
      <trkpt lat="45.19952" lon="5.84471">
        <ele>384.4</ele>
        <time>2021-04-10T07:46:25Z</time>
      </trkpt>
      <trkpt lat="45.19951" lon="5.8447">
        <ele>384.8</ele>
        <time>2021-04-10T07:46:26Z</time>
      </trkpt>
      <trkpt lat="45.19949" lon="5.84469">
        <ele>384.8</ele>
        <time>2021-04-10T07:46:27Z</time>
      </trkpt>
      <trkpt lat="45.19948" lon="5.84469">
        <ele>385.2</ele>
        <time>2021-04-10T07:46:28Z</time>
      </trkpt>
      <trkpt lat="45.19946" lon="5.84468">
        <ele>385.2</ele>
        <time>2021-04-10T07:46:29Z</time>
      </trkpt>
      <trkpt lat="45.19945" lon="5.84468">
        <ele>385.4</ele>
        <time>2021-04-10T07:46:30Z</time>
      </trkpt>
      <trkpt lat="45.19944" lon="5.84468">
        <ele>385.6</ele>
        <time>2021-04-10T07:46:31Z</time>
      </trkpt>
      <trkpt lat="45.19944" lon="5.84469">
        <ele>385.8</ele>
        <time>2021-04-10T07:46:32Z</time>
      </trkpt>
      <trkpt lat="45.19943" lon="5.8447">
        <ele>386.2</ele>
        <time>2021-04-10T07:46:33Z</time>
      </trkpt>
      <trkpt lat="45.19943" lon="5.8447">
        <ele>386.6</ele>
        <time>2021-04-10T07:46:34Z</time>
      </trkpt>
      <trkpt lat="45.19942" lon="5.84471">
        <ele>386.8</ele>
        <time>2021-04-10T07:46:35Z</time>
      </trkpt>
      <trkpt lat="45.19941" lon="5.84472">
        <ele>386.8</ele>
        <time>2021-04-10T07:46:36Z</time>
      </trkpt>
      <trkpt lat="45.19941" lon="5.84473">
        <ele>387</ele>
        <time>2021-04-10T07:46:37Z</time>
      </trkpt>
      <trkpt lat="45.1994" lon="5.84473">
        <ele>387.4</ele>
        <time>2021-04-10T07:46:38Z</time>
      </trkpt>
      <trkpt lat="45.1994" lon="5.84474">
        <ele>387.6</ele>
        <time>2021-04-10T07:46:39Z</time>
      </trkpt>
      <trkpt lat="45.19939" lon="5.84475">
        <ele>387.8</ele>
        <time>2021-04-10T07:46:40Z</time>
      </trkpt>
      <trkpt lat="45.19939" lon="5.84476">
        <ele>388</ele>
        <time>2021-04-10T07:46:41Z</time>
      </trkpt>
      <trkpt lat="45.19938" lon="5.84476">
        <ele>388.4</ele>
        <time>2021-04-10T07:46:42Z</time>
      </trkpt>
      <trkpt lat="45.19937" lon="5.84477">
        <ele>389</ele>
        <time>2021-04-10T07:46:43Z</time>
      </trkpt>
      <trkpt lat="45.19937" lon="5.84478">
        <ele>389</ele>
        <time>2021-04-10T07:46:44Z</time>
      </trkpt>
      <trkpt lat="45.19937" lon="5.8448">
        <ele>389.2</ele>
        <time>2021-04-10T07:46:45Z</time>
      </trkpt>
      <trkpt lat="45.19936" lon="5.84481">
        <ele>389.2</ele>
        <time>2021-04-10T07:46:46Z</time>
      </trkpt>
      <trkpt lat="45.19936" lon="5.84482">
        <ele>389.6</ele>
        <time>2021-04-10T07:46:47Z</time>
      </trkpt>
      <trkpt lat="45.19935" lon="5.84483">
        <ele>390</ele>
        <time>2021-04-10T07:46:48Z</time>
      </trkpt>
      <trkpt lat="45.19935" lon="5.84484">
        <ele>390</ele>
        <time>2021-04-10T07:46:49Z</time>
      </trkpt>
      <trkpt lat="45.19934" lon="5.84485">
        <ele>390.2</ele>
        <time>2021-04-10T07:46:50Z</time>
      </trkpt>
      <trkpt lat="45.19934" lon="5.84486">
        <ele>390.6</ele>
        <time>2021-04-10T07:46:51Z</time>
      </trkpt>
      <trkpt lat="45.19933" lon="5.84487">
        <ele>391</ele>
        <time>2021-04-10T07:46:52Z</time>
      </trkpt>
      <trkpt lat="45.19933" lon="5.84489">
        <ele>391.2</ele>
        <time>2021-04-10T07:46:53Z</time>
      </trkpt>
      <trkpt lat="45.19932" lon="5.8449">
        <ele>391.2</ele>
        <time>2021-04-10T07:46:54Z</time>
      </trkpt>
      <trkpt lat="45.19931" lon="5.84491">
        <ele>391.4</ele>
        <time>2021-04-10T07:46:55Z</time>
      </trkpt>
      <trkpt lat="45.1993" lon="5.84492">
        <ele>391.4</ele>
        <time>2021-04-10T07:46:56Z</time>
      </trkpt>
      <trkpt lat="45.1993" lon="5.84493">
        <ele>391.6</ele>
        <time>2021-04-10T07:46:57Z</time>
      </trkpt>
      <trkpt lat="45.19929" lon="5.84494">
        <ele>391.8</ele>
        <time>2021-04-10T07:46:58Z</time>
      </trkpt>
      <trkpt lat="45.19928" lon="5.84495">
        <ele>392.2</ele>
        <time>2021-04-10T07:46:59Z</time>
      </trkpt>
      <trkpt lat="45.19927" lon="5.84496">
        <ele>392.4</ele>
        <time>2021-04-10T07:47:00Z</time>
      </trkpt>
      <trkpt lat="45.19927" lon="5.84497">
        <ele>392.8</ele>
        <time>2021-04-10T07:47:01Z</time>
      </trkpt>
      <trkpt lat="45.19926" lon="5.84498">
        <ele>393</ele>
        <time>2021-04-10T07:47:02Z</time>
      </trkpt>
      <trkpt lat="45.19925" lon="5.84499">
        <ele>393</ele>
        <time>2021-04-10T07:47:03Z</time>
      </trkpt>
      <trkpt lat="45.19925" lon="5.845">
        <ele>393</ele>
        <time>2021-04-10T07:47:04Z</time>
      </trkpt>
      <trkpt lat="45.19924" lon="5.84501">
        <ele>393.4</ele>
        <time>2021-04-10T07:47:05Z</time>
      </trkpt>
      <trkpt lat="45.19923" lon="5.84502">
        <ele>393.8</ele>
        <time>2021-04-10T07:47:06Z</time>
      </trkpt>
      <trkpt lat="45.19923" lon="5.84503">
        <ele>394</ele>
        <time>2021-04-10T07:47:07Z</time>
      </trkpt>
      <trkpt lat="45.19922" lon="5.84504">
        <ele>394.2</ele>
        <time>2021-04-10T07:47:08Z</time>
      </trkpt>
      <trkpt lat="45.19921" lon="5.84505">
        <ele>394.4</ele>
        <time>2021-04-10T07:47:09Z</time>
      </trkpt>
      <trkpt lat="45.19921" lon="5.84506">
        <ele>394.4</ele>
        <time>2021-04-10T07:47:10Z</time>
      </trkpt>
      <trkpt lat="45.1992" lon="5.84506">
        <ele>394.8</ele>
        <time>2021-04-10T07:47:11Z</time>
      </trkpt>
      <trkpt lat="45.19919" lon="5.84507">
        <ele>395</ele>
        <time>2021-04-10T07:47:12Z</time>
      </trkpt>
      <trkpt lat="45.19918" lon="5.84508">
        <ele>395.2</ele>
        <time>2021-04-10T07:47:13Z</time>
      </trkpt>
      <trkpt lat="45.19918" lon="5.84509">
        <ele>395.4</ele>
        <time>2021-04-10T07:47:14Z</time>
      </trkpt>
      <trkpt lat="45.19917" lon="5.8451">
        <ele>396</ele>
        <time>2021-04-10T07:47:15Z</time>
      </trkpt>
      <trkpt lat="45.19916" lon="5.84511">
        <ele>396</ele>
        <time>2021-04-10T07:47:16Z</time>
      </trkpt>
      <trkpt lat="45.19915" lon="5.84511">
        <ele>396.2</ele>
        <time>2021-04-10T07:47:17Z</time>
      </trkpt>
      <trkpt lat="45.19914" lon="5.84512">
        <ele>396.4</ele>
        <time>2021-04-10T07:47:18Z</time>
      </trkpt>
      <trkpt lat="45.19913" lon="5.84513">
        <ele>396.4</ele>
        <time>2021-04-10T07:47:19Z</time>
      </trkpt>
      <trkpt lat="45.19913" lon="5.84514">
        <ele>396.6</ele>
        <time>2021-04-10T07:47:20Z</time>
      </trkpt>
      <trkpt lat="45.19912" lon="5.84515">
        <ele>397</ele>
        <time>2021-04-10T07:47:21Z</time>
      </trkpt>
      <trkpt lat="45.19911" lon="5.84517">
        <ele>397.2</ele>
        <time>2021-04-10T07:47:22Z</time>
      </trkpt>
      <trkpt lat="45.1991" lon="5.84518">
        <ele>397.4</ele>
        <time>2021-04-10T07:47:23Z</time>
      </trkpt>
      <trkpt lat="45.19909" lon="5.8452">
        <ele>397.6</ele>
        <time>2021-04-10T07:47:24Z</time>
      </trkpt>
      <trkpt lat="45.19908" lon="5.84521">
        <ele>397.6</ele>
        <time>2021-04-10T07:47:25Z</time>
      </trkpt>
      <trkpt lat="45.19907" lon="5.84523">
        <ele>397.8</ele>
        <time>2021-04-10T07:47:26Z</time>
      </trkpt>
      <trkpt lat="45.19906" lon="5.84525">
        <ele>397.8</ele>
        <time>2021-04-10T07:47:27Z</time>
      </trkpt>
      <trkpt lat="45.19906" lon="5.84526">
        <ele>398.2</ele>
        <time>2021-04-10T07:47:28Z</time>
      </trkpt>
      <trkpt lat="45.19906" lon="5.84527">
        <ele>398.4</ele>
        <time>2021-04-10T07:47:29Z</time>
      </trkpt>
      <trkpt lat="45.19907" lon="5.84529">
        <ele>398.8</ele>
        <time>2021-04-10T07:47:30Z</time>
      </trkpt>
      <trkpt lat="45.19907" lon="5.8453">
        <ele>399</ele>
        <time>2021-04-10T07:47:31Z</time>
      </trkpt>
      <trkpt lat="45.19907" lon="5.84532">
        <ele>399</ele>
        <time>2021-04-10T07:47:32Z</time>
      </trkpt>
      <trkpt lat="45.19907" lon="5.84533">
        <ele>399.2</ele>
        <time>2021-04-10T07:47:33Z</time>
      </trkpt>
      <trkpt lat="45.19907" lon="5.84535">
        <ele>399.6</ele>
        <time>2021-04-10T07:47:34Z</time>
      </trkpt>
      <trkpt lat="45.19907" lon="5.84536">
        <ele>400</ele>
        <time>2021-04-10T07:47:35Z</time>
      </trkpt>
      <trkpt lat="45.19907" lon="5.84538">
        <ele>400</ele>
        <time>2021-04-10T07:47:36Z</time>
      </trkpt>
      <trkpt lat="45.19906" lon="5.84538">
        <ele>400.2</ele>
        <time>2021-04-10T07:47:37Z</time>
      </trkpt>
      <trkpt lat="45.19906" lon="5.84539">
        <ele>400.4</ele>
        <time>2021-04-10T07:47:38Z</time>
      </trkpt>
      <trkpt lat="45.19906" lon="5.8454">
        <ele>400.6</ele>
        <time>2021-04-10T07:47:39Z</time>
      </trkpt>
      <trkpt lat="45.19906" lon="5.84541">
        <ele>400.8</ele>
        <time>2021-04-10T07:47:40Z</time>
      </trkpt>
      <trkpt lat="45.19905" lon="5.84542">
        <ele>401</ele>
        <time>2021-04-10T07:47:41Z</time>
      </trkpt>
      <trkpt lat="45.19905" lon="5.84543">
        <ele>401.2</ele>
        <time>2021-04-10T07:47:42Z</time>
      </trkpt>
      <trkpt lat="45.19905" lon="5.84544">
        <ele>401.4</ele>
        <time>2021-04-10T07:47:43Z</time>
      </trkpt>
      <trkpt lat="45.19905" lon="5.84545">
        <ele>401.6</ele>
        <time>2021-04-10T07:47:44Z</time>
      </trkpt>
      <trkpt lat="45.19904" lon="5.84546">
        <ele>401.8</ele>
        <time>2021-04-10T07:47:45Z</time>
      </trkpt>
      <trkpt lat="45.19904" lon="5.84547">
        <ele>402.2</ele>
        <time>2021-04-10T07:47:46Z</time>
      </trkpt>
      <trkpt lat="45.19904" lon="5.84548">
        <ele>402.6</ele>
        <time>2021-04-10T07:47:47Z</time>
      </trkpt>
      <trkpt lat="45.19904" lon="5.84549">
        <ele>402.8</ele>
        <time>2021-04-10T07:47:48Z</time>
      </trkpt>
      <trkpt lat="45.19903" lon="5.8455">
        <ele>403</ele>
        <time>2021-04-10T07:47:49Z</time>
      </trkpt>
      <trkpt lat="45.19903" lon="5.84551">
        <ele>403.2</ele>
        <time>2021-04-10T07:47:50Z</time>
      </trkpt>
      <trkpt lat="45.19903" lon="5.84552">
        <ele>403.2</ele>
        <time>2021-04-10T07:47:51Z</time>
      </trkpt>
      <trkpt lat="45.19903" lon="5.84553">
        <ele>403.6</ele>
        <time>2021-04-10T07:47:52Z</time>
      </trkpt>
      <trkpt lat="45.19903" lon="5.84554">
        <ele>403.6</ele>
        <time>2021-04-10T07:47:53Z</time>
      </trkpt>
      <trkpt lat="45.19902" lon="5.84555">
        <ele>403.8</ele>
        <time>2021-04-10T07:47:54Z</time>
      </trkpt>
      <trkpt lat="45.19902" lon="5.84556">
        <ele>404.2</ele>
        <time>2021-04-10T07:47:55Z</time>
      </trkpt>
      <trkpt lat="45.19902" lon="5.84557">
        <ele>404.6</ele>
        <time>2021-04-10T07:47:56Z</time>
      </trkpt>
      <trkpt lat="45.19902" lon="5.84559">
        <ele>404.6</ele>
        <time>2021-04-10T07:47:57Z</time>
      </trkpt>
      <trkpt lat="45.19901" lon="5.8456">
        <ele>405</ele>
        <time>2021-04-10T07:47:58Z</time>
      </trkpt>
      <trkpt lat="45.19901" lon="5.84561">
        <ele>405.2</ele>
        <time>2021-04-10T07:47:59Z</time>
      </trkpt>
      <trkpt lat="45.19901" lon="5.84562">
        <ele>405.4</ele>
        <time>2021-04-10T07:48:00Z</time>
      </trkpt>
      <trkpt lat="45.19901" lon="5.84563">
        <ele>405.6</ele>
        <time>2021-04-10T07:48:01Z</time>
      </trkpt>
      <trkpt lat="45.19901" lon="5.84564">
        <ele>406</ele>
        <time>2021-04-10T07:48:02Z</time>
      </trkpt>
      <trkpt lat="45.19901" lon="5.84564">
        <ele>406</ele>
        <time>2021-04-10T07:48:03Z</time>
      </trkpt>
      <trkpt lat="45.19901" lon="5.84565">
        <ele>406.2</ele>
        <time>2021-04-10T07:48:04Z</time>
      </trkpt>
      <trkpt lat="45.199" lon="5.84566">
        <ele>406.4</ele>
        <time>2021-04-10T07:48:05Z</time>
      </trkpt>
      <trkpt lat="45.199" lon="5.84566">
        <ele>406.6</ele>
        <time>2021-04-10T07:48:06Z</time>
      </trkpt>
      <trkpt lat="45.199" lon="5.84567">
        <ele>406.8</ele>
        <time>2021-04-10T07:48:07Z</time>
      </trkpt>
      <trkpt lat="45.199" lon="5.84568">
        <ele>407</ele>
        <time>2021-04-10T07:48:08Z</time>
      </trkpt>
      <trkpt lat="45.199" lon="5.84569">
        <ele>407.2</ele>
        <time>2021-04-10T07:48:09Z</time>
      </trkpt>
      <trkpt lat="45.199" lon="5.84569">
        <ele>407.4</ele>
        <time>2021-04-10T07:48:10Z</time>
      </trkpt>
      <trkpt lat="45.199" lon="5.8457">
        <ele>407.8</ele>
        <time>2021-04-10T07:48:11Z</time>
      </trkpt>
      <trkpt lat="45.199" lon="5.84571">
        <ele>408.2</ele>
        <time>2021-04-10T07:48:12Z</time>
      </trkpt>
      <trkpt lat="45.199" lon="5.84571">
        <ele>408.4</ele>
        <time>2021-04-10T07:48:13Z</time>
      </trkpt>
      <trkpt lat="45.199" lon="5.84572">
        <ele>408.8</ele>
        <time>2021-04-10T07:48:14Z</time>
      </trkpt>
      <trkpt lat="45.199" lon="5.84573">
        <ele>408.8</ele>
        <time>2021-04-10T07:48:15Z</time>
      </trkpt>
      <trkpt lat="45.199" lon="5.84574">
        <ele>409</ele>
        <time>2021-04-10T07:48:16Z</time>
      </trkpt>
      <trkpt lat="45.199" lon="5.84574">
        <ele>409.4</ele>
        <time>2021-04-10T07:48:17Z</time>
      </trkpt>
      <trkpt lat="45.199" lon="5.84575">
        <ele>409.6</ele>
        <time>2021-04-10T07:48:18Z</time>
      </trkpt>
      <trkpt lat="45.199" lon="5.84576">
        <ele>409.6</ele>
        <time>2021-04-10T07:48:19Z</time>
      </trkpt>
      <trkpt lat="45.19899" lon="5.84576">
        <ele>409.8</ele>
        <time>2021-04-10T07:48:20Z</time>
      </trkpt>
      <trkpt lat="45.19899" lon="5.84577">
        <ele>410</ele>
        <time>2021-04-10T07:48:21Z</time>
      </trkpt>
      <trkpt lat="45.19898" lon="5.84578">
        <ele>410.2</ele>
        <time>2021-04-10T07:48:22Z</time>
      </trkpt>
      <trkpt lat="45.19898" lon="5.84579">
        <ele>410.4</ele>
        <time>2021-04-10T07:48:23Z</time>
      </trkpt>
      <trkpt lat="45.19897" lon="5.84579">
        <ele>410.4</ele>
        <time>2021-04-10T07:48:24Z</time>
      </trkpt>
      <trkpt lat="45.19897" lon="5.8458">
        <ele>410.6</ele>
        <time>2021-04-10T07:48:25Z</time>
      </trkpt>
      <trkpt lat="45.19896" lon="5.84581">
        <ele>410.8</ele>
        <time>2021-04-10T07:48:26Z</time>
      </trkpt>
      <trkpt lat="45.19896" lon="5.84582">
        <ele>411</ele>
        <time>2021-04-10T07:48:27Z</time>
      </trkpt>
      <trkpt lat="45.19895" lon="5.84582">
        <ele>411.6</ele>
        <time>2021-04-10T07:48:28Z</time>
      </trkpt>
      <trkpt lat="45.19895" lon="5.84583">
        <ele>411.6</ele>
        <time>2021-04-10T07:48:29Z</time>
      </trkpt>
      <trkpt lat="45.19894" lon="5.84584">
        <ele>411.8</ele>
        <time>2021-04-10T07:48:30Z</time>
      </trkpt>
      <trkpt lat="45.19894" lon="5.84585">
        <ele>412</ele>
        <time>2021-04-10T07:48:31Z</time>
      </trkpt>
      <trkpt lat="45.19893" lon="5.84585">
        <ele>412.4</ele>
        <time>2021-04-10T07:48:32Z</time>
      </trkpt>
      <trkpt lat="45.19893" lon="5.84586">
        <ele>412.6</ele>
        <time>2021-04-10T07:48:33Z</time>
      </trkpt>
      <trkpt lat="45.19893" lon="5.84587">
        <ele>412.8</ele>
        <time>2021-04-10T07:48:34Z</time>
      </trkpt>
      <trkpt lat="45.19893" lon="5.84587">
        <ele>412.8</ele>
        <time>2021-04-10T07:48:35Z</time>
      </trkpt>
      <trkpt lat="45.19892" lon="5.84588">
        <ele>413</ele>
        <time>2021-04-10T07:48:36Z</time>
      </trkpt>
      <trkpt lat="45.19892" lon="5.84588">
        <ele>413.2</ele>
        <time>2021-04-10T07:48:37Z</time>
      </trkpt>
      <trkpt lat="45.19892" lon="5.84589">
        <ele>413.4</ele>
        <time>2021-04-10T07:48:38Z</time>
      </trkpt>
      <trkpt lat="45.19892" lon="5.8459">
        <ele>413.6</ele>
        <time>2021-04-10T07:48:39Z</time>
      </trkpt>
      <trkpt lat="45.19892" lon="5.8459">
        <ele>413.8</ele>
        <time>2021-04-10T07:48:40Z</time>
      </trkpt>
      <trkpt lat="45.19891" lon="5.84591">
        <ele>414</ele>
        <time>2021-04-10T07:48:41Z</time>
      </trkpt>
      <trkpt lat="45.19891" lon="5.84592">
        <ele>414.4</ele>
        <time>2021-04-10T07:48:42Z</time>
      </trkpt>
      <trkpt lat="45.19891" lon="5.84592">
        <ele>414.6</ele>
        <time>2021-04-10T07:48:43Z</time>
      </trkpt>
      <trkpt lat="45.19891" lon="5.84593">
        <ele>414.8</ele>
        <time>2021-04-10T07:48:44Z</time>
      </trkpt>
      <trkpt lat="45.19891" lon="5.84593">
        <ele>414.8</ele>
        <time>2021-04-10T07:48:45Z</time>
      </trkpt>
      <trkpt lat="45.19891" lon="5.84594">
        <ele>415.2</ele>
        <time>2021-04-10T07:48:46Z</time>
      </trkpt>
      <trkpt lat="45.1989" lon="5.84595">
        <ele>415.6</ele>
        <time>2021-04-10T07:48:47Z</time>
      </trkpt>
      <trkpt lat="45.1989" lon="5.84595">
        <ele>415.6</ele>
        <time>2021-04-10T07:48:48Z</time>
      </trkpt>
      <trkpt lat="45.1989" lon="5.84596">
        <ele>415.8</ele>
        <time>2021-04-10T07:48:49Z</time>
      </trkpt>
      <trkpt lat="45.1989" lon="5.84597">
        <ele>415.8</ele>
        <time>2021-04-10T07:48:50Z</time>
      </trkpt>
      <trkpt lat="45.1989" lon="5.84597">
        <ele>416</ele>
        <time>2021-04-10T07:48:51Z</time>
      </trkpt>
      <trkpt lat="45.1989" lon="5.84598">
        <ele>416.2</ele>
        <time>2021-04-10T07:48:52Z</time>
      </trkpt>
      <trkpt lat="45.1989" lon="5.84599">
        <ele>416.4</ele>
        <time>2021-04-10T07:48:53Z</time>
      </trkpt>
      <trkpt lat="45.19889" lon="5.84599">
        <ele>416.8</ele>
        <time>2021-04-10T07:48:54Z</time>
      </trkpt>
      <trkpt lat="45.19889" lon="5.846">
        <ele>416.8</ele>
        <time>2021-04-10T07:48:55Z</time>
      </trkpt>
      <trkpt lat="45.19889" lon="5.84601">
        <ele>417</ele>
        <time>2021-04-10T07:48:56Z</time>
      </trkpt>
      <trkpt lat="45.19889" lon="5.84602">
        <ele>417.4</ele>
        <time>2021-04-10T07:48:57Z</time>
      </trkpt>
      <trkpt lat="45.19889" lon="5.84603">
        <ele>417.6</ele>
        <time>2021-04-10T07:48:58Z</time>
      </trkpt>
      <trkpt lat="45.19889" lon="5.84603">
        <ele>418</ele>
        <time>2021-04-10T07:48:59Z</time>
      </trkpt>
      <trkpt lat="45.19889" lon="5.84604">
        <ele>418.2</ele>
        <time>2021-04-10T07:49:00Z</time>
      </trkpt>
      <trkpt lat="45.19889" lon="5.84605">
        <ele>418.2</ele>
        <time>2021-04-10T07:49:01Z</time>
      </trkpt>
      <trkpt lat="45.19889" lon="5.84606">
        <ele>418.4</ele>
        <time>2021-04-10T07:49:02Z</time>
      </trkpt>
      <trkpt lat="45.19889" lon="5.84606">
        <ele>418.6</ele>
        <time>2021-04-10T07:49:03Z</time>
      </trkpt>
      <trkpt lat="45.19889" lon="5.84607">
        <ele>419</ele>
        <time>2021-04-10T07:49:04Z</time>
      </trkpt>
      <trkpt lat="45.19888" lon="5.84608">
        <ele>419.2</ele>
        <time>2021-04-10T07:49:05Z</time>
      </trkpt>
      <trkpt lat="45.19888" lon="5.84609">
        <ele>419.4</ele>
        <time>2021-04-10T07:49:06Z</time>
      </trkpt>
      <trkpt lat="45.19888" lon="5.84609">
        <ele>419.4</ele>
        <time>2021-04-10T07:49:07Z</time>
      </trkpt>
      <trkpt lat="45.19888" lon="5.8461">
        <ele>419.8</ele>
        <time>2021-04-10T07:49:08Z</time>
      </trkpt>
      <trkpt lat="45.19888" lon="5.84611">
        <ele>420</ele>
        <time>2021-04-10T07:49:09Z</time>
      </trkpt>
      <trkpt lat="45.19888" lon="5.84612">
        <ele>420.2</ele>
        <time>2021-04-10T07:49:10Z</time>
      </trkpt>
      <trkpt lat="45.19888" lon="5.84614">
        <ele>420.4</ele>
        <time>2021-04-10T07:49:11Z</time>
      </trkpt>
      <trkpt lat="45.19887" lon="5.84615">
        <ele>420.4</ele>
        <time>2021-04-10T07:49:12Z</time>
      </trkpt>
      <trkpt lat="45.19887" lon="5.84616">
        <ele>420.6</ele>
        <time>2021-04-10T07:49:13Z</time>
      </trkpt>
      <trkpt lat="45.19887" lon="5.84617">
        <ele>420.8</ele>
        <time>2021-04-10T07:49:14Z</time>
      </trkpt>
      <trkpt lat="45.19887" lon="5.84618">
        <ele>421.2</ele>
        <time>2021-04-10T07:49:15Z</time>
      </trkpt>
      <trkpt lat="45.19887" lon="5.84619">
        <ele>421.6</ele>
        <time>2021-04-10T07:49:16Z</time>
      </trkpt>
      <trkpt lat="45.19887" lon="5.8462">
        <ele>421.8</ele>
        <time>2021-04-10T07:49:17Z</time>
      </trkpt>
      <trkpt lat="45.19886" lon="5.84621">
        <ele>422.2</ele>
        <time>2021-04-10T07:49:18Z</time>
      </trkpt>
      <trkpt lat="45.19886" lon="5.84623">
        <ele>422.2</ele>
        <time>2021-04-10T07:49:19Z</time>
      </trkpt>
      <trkpt lat="45.19886" lon="5.84624">
        <ele>422.4</ele>
        <time>2021-04-10T07:49:20Z</time>
      </trkpt>
      <trkpt lat="45.19885" lon="5.84624">
        <ele>422.8</ele>
        <time>2021-04-10T07:49:21Z</time>
      </trkpt>
      <trkpt lat="45.19884" lon="5.84625">
        <ele>423.2</ele>
        <time>2021-04-10T07:49:22Z</time>
      </trkpt>
      <trkpt lat="45.19883" lon="5.84626">
        <ele>423.4</ele>
        <time>2021-04-10T07:49:23Z</time>
      </trkpt>
      <trkpt lat="45.19881" lon="5.84627">
        <ele>423.6</ele>
        <time>2021-04-10T07:49:24Z</time>
      </trkpt>
      <trkpt lat="45.1988" lon="5.84627">
        <ele>424</ele>
        <time>2021-04-10T07:49:25Z</time>
      </trkpt>
      <trkpt lat="45.19879" lon="5.84628">
        <ele>424.2</ele>
        <time>2021-04-10T07:49:26Z</time>
      </trkpt>
      <trkpt lat="45.19878" lon="5.84629">
        <ele>424.6</ele>
        <time>2021-04-10T07:49:27Z</time>
      </trkpt>
      <trkpt lat="45.19877" lon="5.8463">
        <ele>424.8</ele>
        <time>2021-04-10T07:49:28Z</time>
      </trkpt>
      <trkpt lat="45.19877" lon="5.8463">
        <ele>425</ele>
        <time>2021-04-10T07:49:29Z</time>
      </trkpt>
      <trkpt lat="45.19877" lon="5.84631">
        <ele>425.2</ele>
        <time>2021-04-10T07:49:30Z</time>
      </trkpt>
      <trkpt lat="45.19877" lon="5.84632">
        <ele>425.4</ele>
        <time>2021-04-10T07:49:31Z</time>
      </trkpt>
      <trkpt lat="45.19876" lon="5.84633">
        <ele>425.8</ele>
        <time>2021-04-10T07:49:32Z</time>
      </trkpt>
      <trkpt lat="45.19876" lon="5.84634">
        <ele>426</ele>
        <time>2021-04-10T07:49:33Z</time>
      </trkpt>
      <trkpt lat="45.19876" lon="5.84635">
        <ele>426</ele>
        <time>2021-04-10T07:49:34Z</time>
      </trkpt>
      <trkpt lat="45.19875" lon="5.84636">
        <ele>426.4</ele>
        <time>2021-04-10T07:49:35Z</time>
      </trkpt>
      <trkpt lat="45.19875" lon="5.84636">
        <ele>426.8</ele>
        <time>2021-04-10T07:49:36Z</time>
      </trkpt>
      <trkpt lat="45.19875" lon="5.84637">
        <ele>427</ele>
        <time>2021-04-10T07:49:37Z</time>
      </trkpt>
      <trkpt lat="45.19875" lon="5.84638">
        <ele>427.2</ele>
        <time>2021-04-10T07:49:38Z</time>
      </trkpt>
      <trkpt lat="45.19874" lon="5.84639">
        <ele>427.4</ele>
        <time>2021-04-10T07:49:39Z</time>
      </trkpt>
      <trkpt lat="45.19874" lon="5.8464">
        <ele>427.8</ele>
        <time>2021-04-10T07:49:40Z</time>
      </trkpt>
      <trkpt lat="45.19874" lon="5.84641">
        <ele>428</ele>
        <time>2021-04-10T07:49:41Z</time>
      </trkpt>
      <trkpt lat="45.19874" lon="5.84641">
        <ele>428.4</ele>
        <time>2021-04-10T07:49:42Z</time>
      </trkpt>
      <trkpt lat="45.19874" lon="5.84642">
        <ele>428.6</ele>
        <time>2021-04-10T07:49:43Z</time>
      </trkpt>
      <trkpt lat="45.19873" lon="5.84643">
        <ele>428.6</ele>
        <time>2021-04-10T07:49:44Z</time>
      </trkpt>
      <trkpt lat="45.19873" lon="5.84644">
        <ele>428.8</ele>
        <time>2021-04-10T07:49:45Z</time>
      </trkpt>
      <trkpt lat="45.19873" lon="5.84645">
        <ele>429</ele>
        <time>2021-04-10T07:49:46Z</time>
      </trkpt>
      <trkpt lat="45.19873" lon="5.84646">
        <ele>429.6</ele>
        <time>2021-04-10T07:49:47Z</time>
      </trkpt>
      <trkpt lat="45.19873" lon="5.84646">
        <ele>429.8</ele>
        <time>2021-04-10T07:49:48Z</time>
      </trkpt>
      <trkpt lat="45.19873" lon="5.84647">
        <ele>430</ele>
        <time>2021-04-10T07:49:49Z</time>
      </trkpt>
      <trkpt lat="45.19873" lon="5.84648">
        <ele>430.2</ele>
        <time>2021-04-10T07:49:50Z</time>
      </trkpt>
      <trkpt lat="45.19872" lon="5.84649">
        <ele>430.4</ele>
        <time>2021-04-10T07:49:51Z</time>
      </trkpt>
      <trkpt lat="45.19872" lon="5.8465">
        <ele>430.6</ele>
        <time>2021-04-10T07:49:52Z</time>
      </trkpt>
      <trkpt lat="45.19872" lon="5.84651">
        <ele>431</ele>
        <time>2021-04-10T07:49:53Z</time>
      </trkpt>
      <trkpt lat="45.19872" lon="5.84651">
        <ele>431.4</ele>
        <time>2021-04-10T07:49:54Z</time>
      </trkpt>
      <trkpt lat="45.19872" lon="5.84652">
        <ele>431.6</ele>
        <time>2021-04-10T07:49:55Z</time>
      </trkpt>
      <trkpt lat="45.19872" lon="5.84653">
        <ele>431.6</ele>
        <time>2021-04-10T07:49:56Z</time>
      </trkpt>
      <trkpt lat="45.19871" lon="5.84654">
        <ele>432</ele>
        <time>2021-04-10T07:49:57Z</time>
      </trkpt>
      <trkpt lat="45.19871" lon="5.84655">
        <ele>432.2</ele>
        <time>2021-04-10T07:49:58Z</time>
      </trkpt>
      <trkpt lat="45.1987" lon="5.84656">
        <ele>432</ele>
        <time>2021-04-10T07:49:59Z</time>
      </trkpt>
      <trkpt lat="45.19869" lon="5.84657">
        <ele>432.4</ele>
        <time>2021-04-10T07:50:01Z</time>
      </trkpt>
      <trkpt lat="45.19868" lon="5.84658">
        <ele>432.4</ele>
        <time>2021-04-10T07:50:02Z</time>
      </trkpt>
      <trkpt lat="45.19868" lon="5.84659">
        <ele>432.6</ele>
        <time>2021-04-10T07:50:03Z</time>
      </trkpt>
      <trkpt lat="45.19867" lon="5.8466">
        <ele>432.6</ele>
        <time>2021-04-10T07:50:04Z</time>
      </trkpt>
      <trkpt lat="45.19866" lon="5.84661">
        <ele>432.8</ele>
        <time>2021-04-10T07:50:05Z</time>
      </trkpt>
      <trkpt lat="45.19865" lon="5.84662">
        <ele>433</ele>
        <time>2021-04-10T07:50:06Z</time>
      </trkpt>
      <trkpt lat="45.19864" lon="5.84663">
        <ele>433.2</ele>
        <time>2021-04-10T07:50:07Z</time>
      </trkpt>
      <trkpt lat="45.19865" lon="5.84664">
        <ele>433.4</ele>
        <time>2021-04-10T07:50:08Z</time>
      </trkpt>
      <trkpt lat="45.19865" lon="5.84665">
        <ele>433.6</ele>
        <time>2021-04-10T07:50:09Z</time>
      </trkpt>
      <trkpt lat="45.19865" lon="5.84666">
        <ele>433.8</ele>
        <time>2021-04-10T07:50:10Z</time>
      </trkpt>
      <trkpt lat="45.19865" lon="5.84668">
        <ele>434.2</ele>
        <time>2021-04-10T07:50:11Z</time>
      </trkpt>
      <trkpt lat="45.19866" lon="5.84669">
        <ele>434.2</ele>
        <time>2021-04-10T07:50:12Z</time>
      </trkpt>
      <trkpt lat="45.19866" lon="5.8467">
        <ele>434.6</ele>
        <time>2021-04-10T07:50:13Z</time>
      </trkpt>
      <trkpt lat="45.19866" lon="5.84671">
        <ele>435</ele>
        <time>2021-04-10T07:50:14Z</time>
      </trkpt>
      <trkpt lat="45.19866" lon="5.84672">
        <ele>435.2</ele>
        <time>2021-04-10T07:50:15Z</time>
      </trkpt>
      <trkpt lat="45.19867" lon="5.84673">
        <ele>435.4</ele>
        <time>2021-04-10T07:50:16Z</time>
      </trkpt>
      <trkpt lat="45.19867" lon="5.84674">
        <ele>435.8</ele>
        <time>2021-04-10T07:50:17Z</time>
      </trkpt>
      <trkpt lat="45.19867" lon="5.84675">
        <ele>436</ele>
        <time>2021-04-10T07:50:18Z</time>
      </trkpt>
      <trkpt lat="45.19867" lon="5.84676">
        <ele>436.2</ele>
        <time>2021-04-10T07:50:19Z</time>
      </trkpt>
      <trkpt lat="45.19867" lon="5.84678">
        <ele>436.4</ele>
        <time>2021-04-10T07:50:20Z</time>
      </trkpt>
      <trkpt lat="45.19867" lon="5.8468">
        <ele>436.6</ele>
        <time>2021-04-10T07:50:21Z</time>
      </trkpt>
      <trkpt lat="45.19866" lon="5.84682">
        <ele>436.8</ele>
        <time>2021-04-10T07:50:22Z</time>
      </trkpt>
      <trkpt lat="45.19866" lon="5.84683">
        <ele>437.2</ele>
        <time>2021-04-10T07:50:23Z</time>
      </trkpt>
      <trkpt lat="45.19865" lon="5.84685">
        <ele>437.2</ele>
        <time>2021-04-10T07:50:24Z</time>
      </trkpt>
      <trkpt lat="45.19865" lon="5.84687">
        <ele>437.6</ele>
        <time>2021-04-10T07:50:25Z</time>
      </trkpt>
      <trkpt lat="45.19864" lon="5.84688">
        <ele>437.8</ele>
        <time>2021-04-10T07:50:26Z</time>
      </trkpt>
      <trkpt lat="45.19864" lon="5.8469">
        <ele>437.8</ele>
        <time>2021-04-10T07:50:27Z</time>
      </trkpt>
      <trkpt lat="45.19864" lon="5.84691">
        <ele>438</ele>
        <time>2021-04-10T07:50:28Z</time>
      </trkpt>
      <trkpt lat="45.19863" lon="5.84693">
        <ele>438.2</ele>
        <time>2021-04-10T07:50:29Z</time>
      </trkpt>
      <trkpt lat="45.19863" lon="5.84694">
        <ele>438.2</ele>
        <time>2021-04-10T07:50:30Z</time>
      </trkpt>
      <trkpt lat="45.19863" lon="5.84695">
        <ele>438.4</ele>
        <time>2021-04-10T07:50:31Z</time>
      </trkpt>
      <trkpt lat="45.19862" lon="5.84697">
        <ele>438.4</ele>
        <time>2021-04-10T07:50:32Z</time>
      </trkpt>
      <trkpt lat="45.19862" lon="5.84698">
        <ele>438.6</ele>
        <time>2021-04-10T07:50:33Z</time>
      </trkpt>
      <trkpt lat="45.19862" lon="5.84699">
        <ele>438.8</ele>
        <time>2021-04-10T07:50:34Z</time>
      </trkpt>
      <trkpt lat="45.19861" lon="5.847">
        <ele>438.8</ele>
        <time>2021-04-10T07:50:35Z</time>
      </trkpt>
      <trkpt lat="45.19861" lon="5.84702">
        <ele>439</ele>
        <time>2021-04-10T07:50:36Z</time>
      </trkpt>
      <trkpt lat="45.19861" lon="5.84703">
        <ele>439.2</ele>
        <time>2021-04-10T07:50:37Z</time>
      </trkpt>
      <trkpt lat="45.1986" lon="5.84704">
        <ele>439.6</ele>
        <time>2021-04-10T07:50:38Z</time>
      </trkpt>
      <trkpt lat="45.19859" lon="5.84706">
        <ele>439.8</ele>
        <time>2021-04-10T07:50:39Z</time>
      </trkpt>
      <trkpt lat="45.19858" lon="5.84707">
        <ele>440</ele>
        <time>2021-04-10T07:50:40Z</time>
      </trkpt>
      <trkpt lat="45.19857" lon="5.84708">
        <ele>440.2</ele>
        <time>2021-04-10T07:50:41Z</time>
      </trkpt>
      <trkpt lat="45.19856" lon="5.8471">
        <ele>440.4</ele>
        <time>2021-04-10T07:50:42Z</time>
      </trkpt>
      <trkpt lat="45.19855" lon="5.84711">
        <ele>440.6</ele>
        <time>2021-04-10T07:50:43Z</time>
      </trkpt>
      <trkpt lat="45.19854" lon="5.84713">
        <ele>440.8</ele>
        <time>2021-04-10T07:50:44Z</time>
      </trkpt>
      <trkpt lat="45.19854" lon="5.84714">
        <ele>441</ele>
        <time>2021-04-10T07:50:45Z</time>
      </trkpt>
      <trkpt lat="45.19855" lon="5.84715">
        <ele>441</ele>
        <time>2021-04-10T07:50:46Z</time>
      </trkpt>
      <trkpt lat="45.19855" lon="5.84716">
        <ele>441</ele>
        <time>2021-04-10T07:50:47Z</time>
      </trkpt>
      <trkpt lat="45.19855" lon="5.84718">
        <ele>441.2</ele>
        <time>2021-04-10T07:50:48Z</time>
      </trkpt>
      <trkpt lat="45.19856" lon="5.84719">
        <ele>441.2</ele>
        <time>2021-04-10T07:50:49Z</time>
      </trkpt>
      <trkpt lat="45.19856" lon="5.8472">
        <ele>441.4</ele>
        <time>2021-04-10T07:50:50Z</time>
      </trkpt>
      <trkpt lat="45.19856" lon="5.84722">
        <ele>441.6</ele>
        <time>2021-04-10T07:50:51Z</time>
      </trkpt>
      <trkpt lat="45.19857" lon="5.84723">
        <ele>441.6</ele>
        <time>2021-04-10T07:50:52Z</time>
      </trkpt>
      <trkpt lat="45.19857" lon="5.84724">
        <ele>441.8</ele>
        <time>2021-04-10T07:50:53Z</time>
      </trkpt>
      <trkpt lat="45.19857" lon="5.84726">
        <ele>442</ele>
        <time>2021-04-10T07:50:54Z</time>
      </trkpt>
      <trkpt lat="45.19858" lon="5.84727">
        <ele>442.2</ele>
        <time>2021-04-10T07:50:55Z</time>
      </trkpt>
      <trkpt lat="45.19858" lon="5.84728">
        <ele>442.2</ele>
        <time>2021-04-10T07:50:56Z</time>
      </trkpt>
      <trkpt lat="45.19859" lon="5.84729">
        <ele>442.4</ele>
        <time>2021-04-10T07:50:57Z</time>
      </trkpt>
      <trkpt lat="45.19859" lon="5.8473">
        <ele>442.6</ele>
        <time>2021-04-10T07:50:58Z</time>
      </trkpt>
      <trkpt lat="45.1986" lon="5.84732">
        <ele>442.6</ele>
        <time>2021-04-10T07:50:59Z</time>
      </trkpt>
      <trkpt lat="45.1986" lon="5.84733">
        <ele>442.8</ele>
        <time>2021-04-10T07:51:00Z</time>
      </trkpt>
      <trkpt lat="45.19861" lon="5.84734">
        <ele>442.8</ele>
        <time>2021-04-10T07:51:01Z</time>
      </trkpt>
      <trkpt lat="45.19861" lon="5.84735">
        <ele>442.8</ele>
        <time>2021-04-10T07:51:02Z</time>
      </trkpt>
      <trkpt lat="45.19862" lon="5.84736">
        <ele>442.8</ele>
        <time>2021-04-10T07:51:03Z</time>
      </trkpt>
      <trkpt lat="45.19862" lon="5.84738">
        <ele>442.8</ele>
        <time>2021-04-10T07:51:04Z</time>
      </trkpt>
      <trkpt lat="45.19862" lon="5.84739">
        <ele>443</ele>
        <time>2021-04-10T07:51:05Z</time>
      </trkpt>
      <trkpt lat="45.19862" lon="5.84741">
        <ele>443.2</ele>
        <time>2021-04-10T07:51:06Z</time>
      </trkpt>
      <trkpt lat="45.19861" lon="5.84743">
        <ele>443.4</ele>
        <time>2021-04-10T07:51:07Z</time>
      </trkpt>
      <trkpt lat="45.19861" lon="5.84744">
        <ele>443.6</ele>
        <time>2021-04-10T07:51:08Z</time>
      </trkpt>
      <trkpt lat="45.19861" lon="5.84746">
        <ele>443.8</ele>
        <time>2021-04-10T07:51:09Z</time>
      </trkpt>
      <trkpt lat="45.19861" lon="5.84748">
        <ele>444</ele>
        <time>2021-04-10T07:51:10Z</time>
      </trkpt>
      <trkpt lat="45.1986" lon="5.8475">
        <ele>444</ele>
        <time>2021-04-10T07:51:11Z</time>
      </trkpt>
      <trkpt lat="45.1986" lon="5.84751">
        <ele>444.2</ele>
        <time>2021-04-10T07:51:12Z</time>
      </trkpt>
      <trkpt lat="45.19861" lon="5.84753">
        <ele>444.4</ele>
        <time>2021-04-10T07:51:13Z</time>
      </trkpt>
      <trkpt lat="45.19861" lon="5.84754">
        <ele>444.6</ele>
        <time>2021-04-10T07:51:14Z</time>
      </trkpt>
      <trkpt lat="45.19862" lon="5.84755">
        <ele>444.8</ele>
        <time>2021-04-10T07:51:15Z</time>
      </trkpt>
      <trkpt lat="45.19863" lon="5.84757">
        <ele>445</ele>
        <time>2021-04-10T07:51:16Z</time>
      </trkpt>
      <trkpt lat="45.19863" lon="5.84758">
        <ele>445.2</ele>
        <time>2021-04-10T07:51:17Z</time>
      </trkpt>
      <trkpt lat="45.19864" lon="5.8476">
        <ele>445.6</ele>
        <time>2021-04-10T07:51:18Z</time>
      </trkpt>
      <trkpt lat="45.19865" lon="5.84761">
        <ele>445.8</ele>
        <time>2021-04-10T07:51:19Z</time>
      </trkpt>
      <trkpt lat="45.19865" lon="5.84762">
        <ele>446</ele>
        <time>2021-04-10T07:51:20Z</time>
      </trkpt>
      <trkpt lat="45.19866" lon="5.84764">
        <ele>446.2</ele>
        <time>2021-04-10T07:51:21Z</time>
      </trkpt>
      <trkpt lat="45.19866" lon="5.84765">
        <ele>446.6</ele>
        <time>2021-04-10T07:51:22Z</time>
      </trkpt>
      <trkpt lat="45.19867" lon="5.84766">
        <ele>446.8</ele>
        <time>2021-04-10T07:51:23Z</time>
      </trkpt>
      <trkpt lat="45.19868" lon="5.84767">
        <ele>447</ele>
        <time>2021-04-10T07:51:24Z</time>
      </trkpt>
      <trkpt lat="45.19868" lon="5.84769">
        <ele>447.2</ele>
        <time>2021-04-10T07:51:25Z</time>
      </trkpt>
      <trkpt lat="45.19869" lon="5.8477">
        <ele>447.4</ele>
        <time>2021-04-10T07:51:26Z</time>
      </trkpt>
      <trkpt lat="45.19869" lon="5.84771">
        <ele>447.6</ele>
        <time>2021-04-10T07:51:27Z</time>
      </trkpt>
      <trkpt lat="45.1987" lon="5.84772">
        <ele>447.8</ele>
        <time>2021-04-10T07:51:28Z</time>
      </trkpt>
      <trkpt lat="45.19871" lon="5.84774">
        <ele>447.8</ele>
        <time>2021-04-10T07:51:29Z</time>
      </trkpt>
      <trkpt lat="45.19872" lon="5.84775">
        <ele>448</ele>
        <time>2021-04-10T07:51:30Z</time>
      </trkpt>
      <trkpt lat="45.19872" lon="5.84777">
        <ele>448.4</ele>
        <time>2021-04-10T07:51:31Z</time>
      </trkpt>
      <trkpt lat="45.19873" lon="5.84779">
        <ele>448.6</ele>
        <time>2021-04-10T07:51:32Z</time>
      </trkpt>
      <trkpt lat="45.19874" lon="5.8478">
        <ele>448.8</ele>
        <time>2021-04-10T07:51:33Z</time>
      </trkpt>
      <trkpt lat="45.19875" lon="5.84782">
        <ele>448.8</ele>
        <time>2021-04-10T07:51:34Z</time>
      </trkpt>
      <trkpt lat="45.19876" lon="5.84784">
        <ele>449</ele>
        <time>2021-04-10T07:51:35Z</time>
      </trkpt>
      <trkpt lat="45.19877" lon="5.84785">
        <ele>449.2</ele>
        <time>2021-04-10T07:51:36Z</time>
      </trkpt>
      <trkpt lat="45.19878" lon="5.84786">
        <ele>449.4</ele>
        <time>2021-04-10T07:51:37Z</time>
      </trkpt>
      <trkpt lat="45.19878" lon="5.84787">
        <ele>449.6</ele>
        <time>2021-04-10T07:51:38Z</time>
      </trkpt>
      <trkpt lat="45.19879" lon="5.84788">
        <ele>449.8</ele>
        <time>2021-04-10T07:51:39Z</time>
      </trkpt>
      <trkpt lat="45.1988" lon="5.8479">
        <ele>450</ele>
        <time>2021-04-10T07:51:40Z</time>
      </trkpt>
      <trkpt lat="45.1988" lon="5.84791">
        <ele>450.2</ele>
        <time>2021-04-10T07:51:41Z</time>
      </trkpt>
      <trkpt lat="45.19881" lon="5.84792">
        <ele>450.6</ele>
        <time>2021-04-10T07:51:42Z</time>
      </trkpt>
      <trkpt lat="45.19882" lon="5.84794">
        <ele>450.6</ele>
        <time>2021-04-10T07:51:43Z</time>
      </trkpt>
      <trkpt lat="45.19882" lon="5.84796">
        <ele>450.6</ele>
        <time>2021-04-10T07:51:44Z</time>
      </trkpt>
      <trkpt lat="45.19883" lon="5.84798">
        <ele>450.6</ele>
        <time>2021-04-10T07:51:45Z</time>
      </trkpt>
      <trkpt lat="45.19884" lon="5.848">
        <ele>450.6</ele>
        <time>2021-04-10T07:51:46Z</time>
      </trkpt>
      <trkpt lat="45.19885" lon="5.84803">
        <ele>450.8</ele>
        <time>2021-04-10T07:51:47Z</time>
      </trkpt>
      <trkpt lat="45.19885" lon="5.84805">
        <ele>450.8</ele>
        <time>2021-04-10T07:51:48Z</time>
      </trkpt>
      <trkpt lat="45.19886" lon="5.84807">
        <ele>450.8</ele>
        <time>2021-04-10T07:51:49Z</time>
      </trkpt>
      <trkpt lat="45.19886" lon="5.84809">
        <ele>451</ele>
        <time>2021-04-10T07:51:50Z</time>
      </trkpt>
      <trkpt lat="45.19886" lon="5.84811">
        <ele>451</ele>
        <time>2021-04-10T07:51:51Z</time>
      </trkpt>
      <trkpt lat="45.19886" lon="5.84813">
        <ele>451.4</ele>
        <time>2021-04-10T07:51:52Z</time>
      </trkpt>
      <trkpt lat="45.19887" lon="5.84816">
        <ele>451.6</ele>
        <time>2021-04-10T07:51:53Z</time>
      </trkpt>
      <trkpt lat="45.19887" lon="5.84818">
        <ele>451.6</ele>
        <time>2021-04-10T07:51:54Z</time>
      </trkpt>
      <trkpt lat="45.19887" lon="5.8482">
        <ele>452</ele>
        <time>2021-04-10T07:51:55Z</time>
      </trkpt>
      <trkpt lat="45.19887" lon="5.84821">
        <ele>452</ele>
        <time>2021-04-10T07:51:56Z</time>
      </trkpt>
      <trkpt lat="45.19886" lon="5.84823">
        <ele>452.2</ele>
        <time>2021-04-10T07:51:57Z</time>
      </trkpt>
      <trkpt lat="45.19886" lon="5.84825">
        <ele>452.4</ele>
        <time>2021-04-10T07:51:58Z</time>
      </trkpt>
      <trkpt lat="45.19886" lon="5.84827">
        <ele>452.6</ele>
        <time>2021-04-10T07:51:59Z</time>
      </trkpt>
      <trkpt lat="45.19886" lon="5.84828">
        <ele>452.8</ele>
        <time>2021-04-10T07:52:00Z</time>
      </trkpt>
      <trkpt lat="45.19885" lon="5.8483">
        <ele>453</ele>
        <time>2021-04-10T07:52:01Z</time>
      </trkpt>
      <trkpt lat="45.19885" lon="5.84832">
        <ele>453.2</ele>
        <time>2021-04-10T07:52:02Z</time>
      </trkpt>
      <trkpt lat="45.19884" lon="5.84834">
        <ele>453.4</ele>
        <time>2021-04-10T07:52:03Z</time>
      </trkpt>
      <trkpt lat="45.19883" lon="5.84836">
        <ele>453.8</ele>
        <time>2021-04-10T07:52:04Z</time>
      </trkpt>
      <trkpt lat="45.19881" lon="5.84838">
        <ele>454</ele>
        <time>2021-04-10T07:52:05Z</time>
      </trkpt>
      <trkpt lat="45.1988" lon="5.8484">
        <ele>454.2</ele>
        <time>2021-04-10T07:52:06Z</time>
      </trkpt>
      <trkpt lat="45.19879" lon="5.84842">
        <ele>454.4</ele>
        <time>2021-04-10T07:52:07Z</time>
      </trkpt>
      <trkpt lat="45.19878" lon="5.84842">
        <ele>454.6</ele>
        <time>2021-04-10T07:52:08Z</time>
      </trkpt>
      <trkpt lat="45.19877" lon="5.84843">
        <ele>455</ele>
        <time>2021-04-10T07:52:09Z</time>
      </trkpt>
      <trkpt lat="45.19876" lon="5.84844">
        <ele>455</ele>
        <time>2021-04-10T07:52:10Z</time>
      </trkpt>
      <trkpt lat="45.19875" lon="5.84845">
        <ele>455.2</ele>
        <time>2021-04-10T07:52:11Z</time>
      </trkpt>
      <trkpt lat="45.19874" lon="5.84845">
        <ele>455.2</ele>
        <time>2021-04-10T07:52:12Z</time>
      </trkpt>
      <trkpt lat="45.19873" lon="5.84846">
        <ele>455.4</ele>
        <time>2021-04-10T07:52:13Z</time>
      </trkpt>
      <trkpt lat="45.19872" lon="5.84847">
        <ele>455.4</ele>
        <time>2021-04-10T07:52:14Z</time>
      </trkpt>
      <trkpt lat="45.19871" lon="5.84848">
        <ele>455.6</ele>
        <time>2021-04-10T07:52:15Z</time>
      </trkpt>
      <trkpt lat="45.1987" lon="5.84848">
        <ele>455.8</ele>
        <time>2021-04-10T07:52:16Z</time>
      </trkpt>
      <trkpt lat="45.19868" lon="5.84848">
        <ele>455.8</ele>
        <time>2021-04-10T07:52:17Z</time>
      </trkpt>
      <trkpt lat="45.19867" lon="5.84848">
        <ele>456</ele>
        <time>2021-04-10T07:52:18Z</time>
      </trkpt>
      <trkpt lat="45.19866" lon="5.84848">
        <ele>456.2</ele>
        <time>2021-04-10T07:52:19Z</time>
      </trkpt>
      <trkpt lat="45.19864" lon="5.84848">
        <ele>456.2</ele>
        <time>2021-04-10T07:52:20Z</time>
      </trkpt>
      <trkpt lat="45.19863" lon="5.84848">
        <ele>456.2</ele>
        <time>2021-04-10T07:52:21Z</time>
      </trkpt>
      <trkpt lat="45.19862" lon="5.84848">
        <ele>456.4</ele>
        <time>2021-04-10T07:52:22Z</time>
      </trkpt>
      <trkpt lat="45.19861" lon="5.84848">
        <ele>456.6</ele>
        <time>2021-04-10T07:52:23Z</time>
      </trkpt>
      <trkpt lat="45.1986" lon="5.84847">
        <ele>456.8</ele>
        <time>2021-04-10T07:52:24Z</time>
      </trkpt>
      <trkpt lat="45.19859" lon="5.84846">
        <ele>457</ele>
        <time>2021-04-10T07:52:25Z</time>
      </trkpt>
      <trkpt lat="45.19858" lon="5.84846">
        <ele>457.2</ele>
        <time>2021-04-10T07:52:26Z</time>
      </trkpt>
      <trkpt lat="45.19857" lon="5.84845">
        <ele>457.4</ele>
        <time>2021-04-10T07:52:27Z</time>
      </trkpt>
      <trkpt lat="45.19856" lon="5.84844">
        <ele>457.6</ele>
        <time>2021-04-10T07:52:28Z</time>
      </trkpt>
      <trkpt lat="45.19855" lon="5.84844">
        <ele>457.8</ele>
        <time>2021-04-10T07:52:29Z</time>
      </trkpt>
      <trkpt lat="45.19854" lon="5.84843">
        <ele>458</ele>
        <time>2021-04-10T07:52:30Z</time>
      </trkpt>
      <trkpt lat="45.19853" lon="5.84842">
        <ele>458</ele>
        <time>2021-04-10T07:52:31Z</time>
      </trkpt>
      <trkpt lat="45.19852" lon="5.84842">
        <ele>458.8</ele>
        <time>2021-04-10T07:52:32Z</time>
      </trkpt>
      <trkpt lat="45.19852" lon="5.84841">
        <ele>459.4</ele>
        <time>2021-04-10T07:52:33Z</time>
      </trkpt>
      <trkpt lat="45.19851" lon="5.84841">
        <ele>459.4</ele>
        <time>2021-04-10T07:52:34Z</time>
      </trkpt>
      <trkpt lat="45.1985" lon="5.8484">
        <ele>459.6</ele>
        <time>2021-04-10T07:52:35Z</time>
      </trkpt>
      <trkpt lat="45.19849" lon="5.8484">
        <ele>460.2</ele>
        <time>2021-04-10T07:52:36Z</time>
      </trkpt>
      <trkpt lat="45.19848" lon="5.84839">
        <ele>460.2</ele>
        <time>2021-04-10T07:52:37Z</time>
      </trkpt>
      <trkpt lat="45.19847" lon="5.84839">
        <ele>460.4</ele>
        <time>2021-04-10T07:52:38Z</time>
      </trkpt>
      <trkpt lat="45.19846" lon="5.84838">
        <ele>460.4</ele>
        <time>2021-04-10T07:52:39Z</time>
      </trkpt>
      <trkpt lat="45.19845" lon="5.84838">
        <ele>460.6</ele>
        <time>2021-04-10T07:52:40Z</time>
      </trkpt>
      <trkpt lat="45.19844" lon="5.84837">
        <ele>460.8</ele>
        <time>2021-04-10T07:52:41Z</time>
      </trkpt>
      <trkpt lat="45.19843" lon="5.84837">
        <ele>461.2</ele>
        <time>2021-04-10T07:52:42Z</time>
      </trkpt>
      <trkpt lat="45.19842" lon="5.84836">
        <ele>461.4</ele>
        <time>2021-04-10T07:52:43Z</time>
      </trkpt>
      <trkpt lat="45.19842" lon="5.84837">
        <ele>461.8</ele>
        <time>2021-04-10T07:52:44Z</time>
      </trkpt>
      <trkpt lat="45.19842" lon="5.84838">
        <ele>462</ele>
        <time>2021-04-10T07:52:45Z</time>
      </trkpt>
      <trkpt lat="45.19842" lon="5.84838">
        <ele>462.2</ele>
        <time>2021-04-10T07:52:46Z</time>
      </trkpt>
      <trkpt lat="45.19842" lon="5.84839">
        <ele>462.4</ele>
        <time>2021-04-10T07:52:47Z</time>
      </trkpt>
      <trkpt lat="45.19842" lon="5.8484">
        <ele>462.6</ele>
        <time>2021-04-10T07:52:48Z</time>
      </trkpt>
      <trkpt lat="45.19842" lon="5.84841">
        <ele>462.8</ele>
        <time>2021-04-10T07:52:49Z</time>
      </trkpt>
      <trkpt lat="45.19842" lon="5.84841">
        <ele>463</ele>
        <time>2021-04-10T07:52:50Z</time>
      </trkpt>
      <trkpt lat="45.19842" lon="5.84842">
        <ele>463.2</ele>
        <time>2021-04-10T07:52:51Z</time>
      </trkpt>
      <trkpt lat="45.19842" lon="5.84843">
        <ele>463.4</ele>
        <time>2021-04-10T07:52:52Z</time>
      </trkpt>
      <trkpt lat="45.19842" lon="5.84844">
        <ele>463.8</ele>
        <time>2021-04-10T07:52:53Z</time>
      </trkpt>
      <trkpt lat="45.19842" lon="5.84845">
        <ele>464</ele>
        <time>2021-04-10T07:52:54Z</time>
      </trkpt>
      <trkpt lat="45.19842" lon="5.84845">
        <ele>464.2</ele>
        <time>2021-04-10T07:52:55Z</time>
      </trkpt>
      <trkpt lat="45.19842" lon="5.84846">
        <ele>464.4</ele>
        <time>2021-04-10T07:52:56Z</time>
      </trkpt>
      <trkpt lat="45.19842" lon="5.84847">
        <ele>464.8</ele>
        <time>2021-04-10T07:52:57Z</time>
      </trkpt>
      <trkpt lat="45.19842" lon="5.84848">
        <ele>465.2</ele>
        <time>2021-04-10T07:52:58Z</time>
      </trkpt>
      <trkpt lat="45.19842" lon="5.84848">
        <ele>465.8</ele>
        <time>2021-04-10T07:52:59Z</time>
      </trkpt>
      <trkpt lat="45.19842" lon="5.84849">
        <ele>466.4</ele>
        <time>2021-04-10T07:53:00Z</time>
      </trkpt>
      <trkpt lat="45.19842" lon="5.84851">
        <ele>466.4</ele>
        <time>2021-04-10T07:53:01Z</time>
      </trkpt>
      <trkpt lat="45.19842" lon="5.84853">
        <ele>466.6</ele>
        <time>2021-04-10T07:53:02Z</time>
      </trkpt>
      <trkpt lat="45.19843" lon="5.84855">
        <ele>466.8</ele>
        <time>2021-04-10T07:53:03Z</time>
      </trkpt>
      <trkpt lat="45.19843" lon="5.84856">
        <ele>467</ele>
        <time>2021-04-10T07:53:04Z</time>
      </trkpt>
      <trkpt lat="45.19843" lon="5.84858">
        <ele>467.2</ele>
        <time>2021-04-10T07:53:05Z</time>
      </trkpt>
      <trkpt lat="45.19844" lon="5.8486">
        <ele>467.6</ele>
        <time>2021-04-10T07:53:06Z</time>
      </trkpt>
      <trkpt lat="45.19844" lon="5.84862">
        <ele>467.6</ele>
        <time>2021-04-10T07:53:07Z</time>
      </trkpt>
      <trkpt lat="45.19844" lon="5.84864">
        <ele>468</ele>
        <time>2021-04-10T07:53:08Z</time>
      </trkpt>
      <trkpt lat="45.19844" lon="5.84865">
        <ele>468</ele>
        <time>2021-04-10T07:53:09Z</time>
      </trkpt>
      <trkpt lat="45.19843" lon="5.84868">
        <ele>468</ele>
        <time>2021-04-10T07:53:10Z</time>
      </trkpt>
      <trkpt lat="45.19842" lon="5.8487">
        <ele>468</ele>
        <time>2021-04-10T07:53:11Z</time>
      </trkpt>
      <trkpt lat="45.19841" lon="5.84872">
        <ele>468</ele>
        <time>2021-04-10T07:53:12Z</time>
      </trkpt>
      <trkpt lat="45.1984" lon="5.84874">
        <ele>468.2</ele>
        <time>2021-04-10T07:53:13Z</time>
      </trkpt>
      <trkpt lat="45.19838" lon="5.84877">
        <ele>468.2</ele>
        <time>2021-04-10T07:53:14Z</time>
      </trkpt>
      <trkpt lat="45.19837" lon="5.84879">
        <ele>468.2</ele>
        <time>2021-04-10T07:53:15Z</time>
      </trkpt>
      <trkpt lat="45.19836" lon="5.8488">
        <ele>468.4</ele>
        <time>2021-04-10T07:53:16Z</time>
      </trkpt>
      <trkpt lat="45.19835" lon="5.84882">
        <ele>468.6</ele>
        <time>2021-04-10T07:53:17Z</time>
      </trkpt>
      <trkpt lat="45.19834" lon="5.84883">
        <ele>468.8</ele>
        <time>2021-04-10T07:53:18Z</time>
      </trkpt>
      <trkpt lat="45.19834" lon="5.84884">
        <ele>469</ele>
        <time>2021-04-10T07:53:19Z</time>
      </trkpt>
      <trkpt lat="45.19833" lon="5.84885">
        <ele>469.2</ele>
        <time>2021-04-10T07:53:20Z</time>
      </trkpt>
      <trkpt lat="45.19832" lon="5.84886">
        <ele>469.4</ele>
        <time>2021-04-10T07:53:21Z</time>
      </trkpt>
      <trkpt lat="45.19831" lon="5.84888">
        <ele>469.6</ele>
        <time>2021-04-10T07:53:22Z</time>
      </trkpt>
      <trkpt lat="45.1983" lon="5.84889">
        <ele>469.8</ele>
        <time>2021-04-10T07:53:23Z</time>
      </trkpt>
      <trkpt lat="45.1983" lon="5.8489">
        <ele>470</ele>
        <time>2021-04-10T07:53:24Z</time>
      </trkpt>
      <trkpt lat="45.19829" lon="5.84891">
        <ele>470.2</ele>
        <time>2021-04-10T07:53:25Z</time>
      </trkpt>
      <trkpt lat="45.19828" lon="5.84893">
        <ele>470.4</ele>
        <time>2021-04-10T07:53:26Z</time>
      </trkpt>
      <trkpt lat="45.19827" lon="5.84894">
        <ele>470.6</ele>
        <time>2021-04-10T07:53:27Z</time>
      </trkpt>
      <trkpt lat="45.19826" lon="5.84895">
        <ele>470.8</ele>
        <time>2021-04-10T07:53:28Z</time>
      </trkpt>
      <trkpt lat="45.19826" lon="5.84896">
        <ele>471.2</ele>
        <time>2021-04-10T07:53:29Z</time>
      </trkpt>
      <trkpt lat="45.19825" lon="5.84897">
        <ele>471.4</ele>
        <time>2021-04-10T07:53:30Z</time>
      </trkpt>
      <trkpt lat="45.19824" lon="5.84899">
        <ele>471.6</ele>
        <time>2021-04-10T07:53:31Z</time>
      </trkpt>
      <trkpt lat="45.19823" lon="5.849">
        <ele>471.8</ele>
        <time>2021-04-10T07:53:32Z</time>
      </trkpt>
      <trkpt lat="45.19822" lon="5.84901">
        <ele>472</ele>
        <time>2021-04-10T07:53:33Z</time>
      </trkpt>
      <trkpt lat="45.19822" lon="5.84902">
        <ele>472.4</ele>
        <time>2021-04-10T07:53:34Z</time>
      </trkpt>
      <trkpt lat="45.19821" lon="5.84904">
        <ele>472.8</ele>
        <time>2021-04-10T07:53:35Z</time>
      </trkpt>
      <trkpt lat="45.1982" lon="5.84905">
        <ele>473</ele>
        <time>2021-04-10T07:53:36Z</time>
      </trkpt>
      <trkpt lat="45.19819" lon="5.84906">
        <ele>473.2</ele>
        <time>2021-04-10T07:53:37Z</time>
      </trkpt>
      <trkpt lat="45.19818" lon="5.84907">
        <ele>473.4</ele>
        <time>2021-04-10T07:53:38Z</time>
      </trkpt>
      <trkpt lat="45.19818" lon="5.84908">
        <ele>473.6</ele>
        <time>2021-04-10T07:53:39Z</time>
      </trkpt>
      <trkpt lat="45.19817" lon="5.8491">
        <ele>474</ele>
        <time>2021-04-10T07:53:40Z</time>
      </trkpt>
      <trkpt lat="45.19816" lon="5.84911">
        <ele>474.2</ele>
        <time>2021-04-10T07:53:41Z</time>
      </trkpt>
      <trkpt lat="45.19815" lon="5.84912">
        <ele>474.4</ele>
        <time>2021-04-10T07:53:42Z</time>
      </trkpt>
      <trkpt lat="45.19814" lon="5.84913">
        <ele>474.6</ele>
        <time>2021-04-10T07:53:43Z</time>
      </trkpt>
      <trkpt lat="45.19814" lon="5.84915">
        <ele>474.8</ele>
        <time>2021-04-10T07:53:44Z</time>
      </trkpt>
      <trkpt lat="45.19813" lon="5.84916">
        <ele>475</ele>
        <time>2021-04-10T07:53:45Z</time>
      </trkpt>
      <trkpt lat="45.19812" lon="5.84917">
        <ele>475.2</ele>
        <time>2021-04-10T07:53:46Z</time>
      </trkpt>
      <trkpt lat="45.19811" lon="5.84918">
        <ele>475.4</ele>
        <time>2021-04-10T07:53:47Z</time>
      </trkpt>
      <trkpt lat="45.1981" lon="5.84919">
        <ele>475.4</ele>
        <time>2021-04-10T07:53:48Z</time>
      </trkpt>
      <trkpt lat="45.1981" lon="5.84921">
        <ele>475.6</ele>
        <time>2021-04-10T07:53:49Z</time>
      </trkpt>
      <trkpt lat="45.19809" lon="5.84922">
        <ele>475.6</ele>
        <time>2021-04-10T07:53:50Z</time>
      </trkpt>
      <trkpt lat="45.19808" lon="5.84923">
        <ele>476</ele>
        <time>2021-04-10T07:53:51Z</time>
      </trkpt>
      <trkpt lat="45.19807" lon="5.84924">
        <ele>476</ele>
        <time>2021-04-10T07:53:52Z</time>
      </trkpt>
      <trkpt lat="45.19806" lon="5.84926">
        <ele>476.4</ele>
        <time>2021-04-10T07:53:53Z</time>
      </trkpt>
      <trkpt lat="45.19806" lon="5.84927">
        <ele>476.6</ele>
        <time>2021-04-10T07:53:54Z</time>
      </trkpt>
      <trkpt lat="45.19805" lon="5.84928">
        <ele>476.8</ele>
        <time>2021-04-10T07:53:55Z</time>
      </trkpt>
      <trkpt lat="45.19804" lon="5.84929">
        <ele>477.2</ele>
        <time>2021-04-10T07:53:56Z</time>
      </trkpt>
      <trkpt lat="45.19803" lon="5.8493">
        <ele>477.2</ele>
        <time>2021-04-10T07:53:57Z</time>
      </trkpt>
      <trkpt lat="45.19802" lon="5.84932">
        <ele>477.4</ele>
        <time>2021-04-10T07:53:58Z</time>
      </trkpt>
      <trkpt lat="45.19802" lon="5.84933">
        <ele>477.6</ele>
        <time>2021-04-10T07:53:59Z</time>
      </trkpt>
      <trkpt lat="45.19801" lon="5.84934">
        <ele>477.8</ele>
        <time>2021-04-10T07:54:00Z</time>
      </trkpt>
      <trkpt lat="45.198" lon="5.84935">
        <ele>477.6</ele>
        <time>2021-04-10T07:54:01Z</time>
      </trkpt>
      <trkpt lat="45.19799" lon="5.84937">
        <ele>477.8</ele>
        <time>2021-04-10T07:54:02Z</time>
      </trkpt>
      <trkpt lat="45.19799" lon="5.84937">
        <ele>478.2</ele>
        <time>2021-04-10T07:54:03Z</time>
      </trkpt>
      <trkpt lat="45.19799" lon="5.84937">
        <ele>478.4</ele>
        <time>2021-04-10T07:54:04Z</time>
      </trkpt>
      <trkpt lat="45.19799" lon="5.84937">
        <ele>478.6</ele>
        <time>2021-04-10T07:54:05Z</time>
      </trkpt>
      <trkpt lat="45.19799" lon="5.8494">
        <ele>478.8</ele>
        <time>2021-04-10T07:54:06Z</time>
      </trkpt>
      <trkpt lat="45.19798" lon="5.84943">
        <ele>478.8</ele>
        <time>2021-04-10T07:54:07Z</time>
      </trkpt>
      <trkpt lat="45.19798" lon="5.84946">
        <ele>478.8</ele>
        <time>2021-04-10T07:54:08Z</time>
      </trkpt>
      <trkpt lat="45.19797" lon="5.84949">
        <ele>478.6</ele>
        <time>2021-04-10T07:54:09Z</time>
      </trkpt>
      <trkpt lat="45.19797" lon="5.84952">
        <ele>478.8</ele>
        <time>2021-04-10T07:54:10Z</time>
      </trkpt>
      <trkpt lat="45.19796" lon="5.84955">
        <ele>478.8</ele>
        <time>2021-04-10T07:54:11Z</time>
      </trkpt>
      <trkpt lat="45.19796" lon="5.84958">
        <ele>478.8</ele>
        <time>2021-04-10T07:54:12Z</time>
      </trkpt>
      <trkpt lat="45.19796" lon="5.84961">
        <ele>479</ele>
        <time>2021-04-10T07:54:13Z</time>
      </trkpt>
      <trkpt lat="45.19795" lon="5.84967">
        <ele>478.8</ele>
        <time>2021-04-10T07:54:14Z</time>
      </trkpt>
      <trkpt lat="45.19794" lon="5.8497">
        <ele>478.6</ele>
        <time>2021-04-10T07:54:15Z</time>
      </trkpt>
      <trkpt lat="45.19794" lon="5.84973">
        <ele>478.2</ele>
        <time>2021-04-10T07:54:16Z</time>
      </trkpt>
      <trkpt lat="45.19794" lon="5.84975">
        <ele>478.4</ele>
        <time>2021-04-10T07:54:17Z</time>
      </trkpt>
      <trkpt lat="45.19794" lon="5.84978">
        <ele>478.2</ele>
        <time>2021-04-10T07:54:18Z</time>
      </trkpt>
      <trkpt lat="45.19793" lon="5.84981">
        <ele>478.2</ele>
        <time>2021-04-10T07:54:19Z</time>
      </trkpt>
      <trkpt lat="45.19793" lon="5.84983">
        <ele>478</ele>
        <time>2021-04-10T07:54:20Z</time>
      </trkpt>
      <trkpt lat="45.19793" lon="5.84986">
        <ele>478</ele>
        <time>2021-04-10T07:54:21Z</time>
      </trkpt>
      <trkpt lat="45.19792" lon="5.84988">
        <ele>477.8</ele>
        <time>2021-04-10T07:54:22Z</time>
      </trkpt>
      <trkpt lat="45.19792" lon="5.84991">
        <ele>478</ele>
        <time>2021-04-10T07:54:23Z</time>
      </trkpt>
      <trkpt lat="45.19792" lon="5.84994">
        <ele>478.2</ele>
        <time>2021-04-10T07:54:24Z</time>
      </trkpt>
      <trkpt lat="45.19792" lon="5.84994">
        <ele>478.2</ele>
        <time>2021-04-10T07:54:25Z</time>
      </trkpt>
      <trkpt lat="45.19792" lon="5.84994">
        <ele>478.4</ele>
        <time>2021-04-10T07:54:26Z</time>
      </trkpt>
      <trkpt lat="45.19792" lon="5.84994">
        <ele>478.6</ele>
        <time>2021-04-10T07:54:27Z</time>
      </trkpt>
      <trkpt lat="45.19793" lon="5.84996">
        <ele>479</ele>
        <time>2021-04-10T07:54:28Z</time>
      </trkpt>
      <trkpt lat="45.19793" lon="5.84999">
        <ele>479.2</ele>
        <time>2021-04-10T07:54:29Z</time>
      </trkpt>
      <trkpt lat="45.19794" lon="5.85001">
        <ele>479.6</ele>
        <time>2021-04-10T07:54:30Z</time>
      </trkpt>
      <trkpt lat="45.19795" lon="5.85004">
        <ele>479.8</ele>
        <time>2021-04-10T07:54:31Z</time>
      </trkpt>
      <trkpt lat="45.19795" lon="5.85007">
        <ele>480.2</ele>
        <time>2021-04-10T07:54:32Z</time>
      </trkpt>
      <trkpt lat="45.19796" lon="5.85007">
        <ele>480.2</ele>
        <time>2021-04-10T07:54:33Z</time>
      </trkpt>
      <trkpt lat="45.19797" lon="5.85008">
        <ele>480.6</ele>
        <time>2021-04-10T07:54:34Z</time>
      </trkpt>
      <trkpt lat="45.19798" lon="5.85009">
        <ele>480.6</ele>
        <time>2021-04-10T07:54:35Z</time>
      </trkpt>
      <trkpt lat="45.19799" lon="5.85009">
        <ele>481</ele>
        <time>2021-04-10T07:54:36Z</time>
      </trkpt>
      <trkpt lat="45.198" lon="5.8501">
        <ele>481.2</ele>
        <time>2021-04-10T07:54:37Z</time>
      </trkpt>
      <trkpt lat="45.19801" lon="5.85011">
        <ele>481.8</ele>
        <time>2021-04-10T07:54:38Z</time>
      </trkpt>
      <trkpt lat="45.19802" lon="5.85011">
        <ele>481.8</ele>
        <time>2021-04-10T07:54:39Z</time>
      </trkpt>
      <trkpt lat="45.19803" lon="5.85012">
        <ele>482.2</ele>
        <time>2021-04-10T07:54:40Z</time>
      </trkpt>
      <trkpt lat="45.19803" lon="5.85013">
        <ele>482.4</ele>
        <time>2021-04-10T07:54:41Z</time>
      </trkpt>
      <trkpt lat="45.19804" lon="5.85015">
        <ele>482.8</ele>
        <time>2021-04-10T07:54:42Z</time>
      </trkpt>
      <trkpt lat="45.19805" lon="5.85017">
        <ele>482.8</ele>
        <time>2021-04-10T07:54:43Z</time>
      </trkpt>
      <trkpt lat="45.19805" lon="5.85019">
        <ele>482.8</ele>
        <time>2021-04-10T07:54:44Z</time>
      </trkpt>
      <trkpt lat="45.19806" lon="5.85021">
        <ele>482.8</ele>
        <time>2021-04-10T07:54:45Z</time>
      </trkpt>
      <trkpt lat="45.19806" lon="5.85024">
        <ele>483.2</ele>
        <time>2021-04-10T07:54:46Z</time>
      </trkpt>
      <trkpt lat="45.19807" lon="5.85026">
        <ele>483.4</ele>
        <time>2021-04-10T07:54:47Z</time>
      </trkpt>
      <trkpt lat="45.19808" lon="5.85028">
        <ele>483.6</ele>
        <time>2021-04-10T07:54:48Z</time>
      </trkpt>
      <trkpt lat="45.19808" lon="5.8503">
        <ele>483.6</ele>
        <time>2021-04-10T07:54:49Z</time>
      </trkpt>
      <trkpt lat="45.19809" lon="5.85032">
        <ele>483.8</ele>
        <time>2021-04-10T07:54:50Z</time>
      </trkpt>
      <trkpt lat="45.19809" lon="5.85035">
        <ele>483.8</ele>
        <time>2021-04-10T07:54:51Z</time>
      </trkpt>
      <trkpt lat="45.1981" lon="5.85037">
        <ele>484</ele>
        <time>2021-04-10T07:54:52Z</time>
      </trkpt>
      <trkpt lat="45.1981" lon="5.85037">
        <ele>484.2</ele>
        <time>2021-04-10T07:54:53Z</time>
      </trkpt>
      <trkpt lat="45.1981" lon="5.85037">
        <ele>484.4</ele>
        <time>2021-04-10T07:54:54Z</time>
      </trkpt>
      <trkpt lat="45.1981" lon="5.85037">
        <ele>484.6</ele>
        <time>2021-04-10T07:54:55Z</time>
      </trkpt>
      <trkpt lat="45.19809" lon="5.85039">
        <ele>484.6</ele>
        <time>2021-04-10T07:54:56Z</time>
      </trkpt>
      <trkpt lat="45.19808" lon="5.85041">
        <ele>484.8</ele>
        <time>2021-04-10T07:54:57Z</time>
      </trkpt>
      <trkpt lat="45.19807" lon="5.85043">
        <ele>485</ele>
        <time>2021-04-10T07:54:58Z</time>
      </trkpt>
      <trkpt lat="45.19806" lon="5.85044">
        <ele>485.2</ele>
        <time>2021-04-10T07:54:59Z</time>
      </trkpt>
      <trkpt lat="45.19806" lon="5.85046">
        <ele>485.2</ele>
        <time>2021-04-10T07:55:00Z</time>
      </trkpt>
      <trkpt lat="45.19805" lon="5.85048">
        <ele>485.4</ele>
        <time>2021-04-10T07:55:01Z</time>
      </trkpt>
      <trkpt lat="45.19804" lon="5.8505">
        <ele>485.6</ele>
        <time>2021-04-10T07:55:02Z</time>
      </trkpt>
      <trkpt lat="45.19803" lon="5.85051">
        <ele>486</ele>
        <time>2021-04-10T07:55:03Z</time>
      </trkpt>
      <trkpt lat="45.19803" lon="5.85052">
        <ele>486.4</ele>
        <time>2021-04-10T07:55:04Z</time>
      </trkpt>
      <trkpt lat="45.19802" lon="5.85054">
        <ele>486.4</ele>
        <time>2021-04-10T07:55:05Z</time>
      </trkpt>
      <trkpt lat="45.19801" lon="5.85055">
        <ele>486.8</ele>
        <time>2021-04-10T07:55:06Z</time>
      </trkpt>
      <trkpt lat="45.19801" lon="5.85056">
        <ele>487.2</ele>
        <time>2021-04-10T07:55:07Z</time>
      </trkpt>
      <trkpt lat="45.198" lon="5.85058">
        <ele>487.8</ele>
        <time>2021-04-10T07:55:08Z</time>
      </trkpt>
      <trkpt lat="45.19799" lon="5.85059">
        <ele>488</ele>
        <time>2021-04-10T07:55:09Z</time>
      </trkpt>
      <trkpt lat="45.19798" lon="5.8506">
        <ele>488.2</ele>
        <time>2021-04-10T07:55:10Z</time>
      </trkpt>
      <trkpt lat="45.19797" lon="5.85062">
        <ele>488.6</ele>
        <time>2021-04-10T07:55:11Z</time>
      </trkpt>
      <trkpt lat="45.19796" lon="5.85063">
        <ele>488.8</ele>
        <time>2021-04-10T07:55:12Z</time>
      </trkpt>
      <trkpt lat="45.19795" lon="5.85064">
        <ele>489</ele>
        <time>2021-04-10T07:55:13Z</time>
      </trkpt>
      <trkpt lat="45.19794" lon="5.85065">
        <ele>489</ele>
        <time>2021-04-10T07:55:14Z</time>
      </trkpt>
      <trkpt lat="45.19793" lon="5.85066">
        <ele>489.2</ele>
        <time>2021-04-10T07:55:15Z</time>
      </trkpt>
      <trkpt lat="45.19791" lon="5.85067">
        <ele>489.2</ele>
        <time>2021-04-10T07:55:16Z</time>
      </trkpt>
      <trkpt lat="45.19791" lon="5.85068">
        <ele>489.4</ele>
        <time>2021-04-10T07:55:17Z</time>
      </trkpt>
      <trkpt lat="45.1979" lon="5.85069">
        <ele>489.6</ele>
        <time>2021-04-10T07:55:18Z</time>
      </trkpt>
      <trkpt lat="45.19789" lon="5.8507">
        <ele>489.8</ele>
        <time>2021-04-10T07:55:19Z</time>
      </trkpt>
      <trkpt lat="45.19788" lon="5.85072">
        <ele>490</ele>
        <time>2021-04-10T07:55:20Z</time>
      </trkpt>
      <trkpt lat="45.19787" lon="5.85073">
        <ele>490.2</ele>
        <time>2021-04-10T07:55:21Z</time>
      </trkpt>
      <trkpt lat="45.19786" lon="5.85074">
        <ele>490.4</ele>
        <time>2021-04-10T07:55:22Z</time>
      </trkpt>
      <trkpt lat="45.19785" lon="5.85075">
        <ele>490.6</ele>
        <time>2021-04-10T07:55:23Z</time>
      </trkpt>
      <trkpt lat="45.19784" lon="5.85076">
        <ele>490.8</ele>
        <time>2021-04-10T07:55:24Z</time>
      </trkpt>
      <trkpt lat="45.19784" lon="5.85077">
        <ele>491.2</ele>
        <time>2021-04-10T07:55:25Z</time>
      </trkpt>
      <trkpt lat="45.19783" lon="5.85078">
        <ele>491.6</ele>
        <time>2021-04-10T07:55:26Z</time>
      </trkpt>
      <trkpt lat="45.19783" lon="5.85079">
        <ele>491.8</ele>
        <time>2021-04-10T07:55:27Z</time>
      </trkpt>
      <trkpt lat="45.19783" lon="5.85079">
        <ele>492</ele>
        <time>2021-04-10T07:55:28Z</time>
      </trkpt>
      <trkpt lat="45.19782" lon="5.8508">
        <ele>492.4</ele>
        <time>2021-04-10T07:55:29Z</time>
      </trkpt>
      <trkpt lat="45.19782" lon="5.85081">
        <ele>492.6</ele>
        <time>2021-04-10T07:55:30Z</time>
      </trkpt>
      <trkpt lat="45.19782" lon="5.85082">
        <ele>493</ele>
        <time>2021-04-10T07:55:31Z</time>
      </trkpt>
      <trkpt lat="45.19781" lon="5.85083">
        <ele>493.2</ele>
        <time>2021-04-10T07:55:32Z</time>
      </trkpt>
      <trkpt lat="45.19781" lon="5.85084">
        <ele>493.2</ele>
        <time>2021-04-10T07:55:33Z</time>
      </trkpt>
      <trkpt lat="45.19781" lon="5.85085">
        <ele>493.6</ele>
        <time>2021-04-10T07:55:34Z</time>
      </trkpt>
      <trkpt lat="45.1978" lon="5.85086">
        <ele>493.8</ele>
        <time>2021-04-10T07:55:35Z</time>
      </trkpt>
      <trkpt lat="45.1978" lon="5.85086">
        <ele>494.2</ele>
        <time>2021-04-10T07:55:36Z</time>
      </trkpt>
      <trkpt lat="45.1978" lon="5.85087">
        <ele>494.4</ele>
        <time>2021-04-10T07:55:37Z</time>
      </trkpt>
      <trkpt lat="45.19779" lon="5.85088">
        <ele>494.6</ele>
        <time>2021-04-10T07:55:38Z</time>
      </trkpt>
      <trkpt lat="45.19779" lon="5.85089">
        <ele>494.8</ele>
        <time>2021-04-10T07:55:39Z</time>
      </trkpt>
      <trkpt lat="45.19778" lon="5.85091">
        <ele>494.8</ele>
        <time>2021-04-10T07:55:40Z</time>
      </trkpt>
      <trkpt lat="45.19778" lon="5.85092">
        <ele>495</ele>
        <time>2021-04-10T07:55:41Z</time>
      </trkpt>
      <trkpt lat="45.19777" lon="5.85093">
        <ele>495.4</ele>
        <time>2021-04-10T07:55:42Z</time>
      </trkpt>
      <trkpt lat="45.19777" lon="5.85094">
        <ele>495.8</ele>
        <time>2021-04-10T07:55:43Z</time>
      </trkpt>
      <trkpt lat="45.19777" lon="5.85095">
        <ele>496.2</ele>
        <time>2021-04-10T07:55:44Z</time>
      </trkpt>
      <trkpt lat="45.19776" lon="5.85096">
        <ele>496.4</ele>
        <time>2021-04-10T07:55:45Z</time>
      </trkpt>
      <trkpt lat="45.19776" lon="5.85097">
        <ele>496.6</ele>
        <time>2021-04-10T07:55:46Z</time>
      </trkpt>
      <trkpt lat="45.19775" lon="5.85098">
        <ele>497</ele>
        <time>2021-04-10T07:55:47Z</time>
      </trkpt>
      <trkpt lat="45.19775" lon="5.85099">
        <ele>497.2</ele>
        <time>2021-04-10T07:55:48Z</time>
      </trkpt>
      <trkpt lat="45.19775" lon="5.851">
        <ele>497.6</ele>
        <time>2021-04-10T07:55:49Z</time>
      </trkpt>
      <trkpt lat="45.19775" lon="5.85101">
        <ele>497.6</ele>
        <time>2021-04-10T07:55:50Z</time>
      </trkpt>
      <trkpt lat="45.19775" lon="5.85101">
        <ele>497.8</ele>
        <time>2021-04-10T07:55:51Z</time>
      </trkpt>
      <trkpt lat="45.19775" lon="5.85102">
        <ele>498</ele>
        <time>2021-04-10T07:55:52Z</time>
      </trkpt>
      <trkpt lat="45.19776" lon="5.85103">
        <ele>498.2</ele>
        <time>2021-04-10T07:55:53Z</time>
      </trkpt>
      <trkpt lat="45.19776" lon="5.85103">
        <ele>498.6</ele>
        <time>2021-04-10T07:55:54Z</time>
      </trkpt>
      <trkpt lat="45.19776" lon="5.85104">
        <ele>499</ele>
        <time>2021-04-10T07:55:55Z</time>
      </trkpt>
      <trkpt lat="45.19776" lon="5.85105">
        <ele>499.2</ele>
        <time>2021-04-10T07:55:56Z</time>
      </trkpt>
      <trkpt lat="45.19776" lon="5.85105">
        <ele>499.4</ele>
        <time>2021-04-10T07:55:57Z</time>
      </trkpt>
      <trkpt lat="45.19776" lon="5.85106">
        <ele>499.6</ele>
        <time>2021-04-10T07:55:58Z</time>
      </trkpt>
      <trkpt lat="45.19776" lon="5.85107">
        <ele>499.8</ele>
        <time>2021-04-10T07:55:59Z</time>
      </trkpt>
      <trkpt lat="45.19777" lon="5.85107">
        <ele>500.2</ele>
        <time>2021-04-10T07:56:00Z</time>
      </trkpt>
      <trkpt lat="45.19777" lon="5.85108">
        <ele>500.4</ele>
        <time>2021-04-10T07:56:01Z</time>
      </trkpt>
      <trkpt lat="45.19777" lon="5.85109">
        <ele>500.6</ele>
        <time>2021-04-10T07:56:02Z</time>
      </trkpt>
      <trkpt lat="45.19777" lon="5.85109">
        <ele>501</ele>
        <time>2021-04-10T07:56:03Z</time>
      </trkpt>
      <trkpt lat="45.19777" lon="5.8511">
        <ele>501.2</ele>
        <time>2021-04-10T07:56:04Z</time>
      </trkpt>
      <trkpt lat="45.19777" lon="5.8511">
        <ele>501.4</ele>
        <time>2021-04-10T07:56:05Z</time>
      </trkpt>
      <trkpt lat="45.19777" lon="5.85111">
        <ele>501.6</ele>
        <time>2021-04-10T07:56:06Z</time>
      </trkpt>
      <trkpt lat="45.19778" lon="5.85112">
        <ele>502</ele>
        <time>2021-04-10T07:56:07Z</time>
      </trkpt>
      <trkpt lat="45.19778" lon="5.85112">
        <ele>502.2</ele>
        <time>2021-04-10T07:56:08Z</time>
      </trkpt>
      <trkpt lat="45.19778" lon="5.85113">
        <ele>502.6</ele>
        <time>2021-04-10T07:56:09Z</time>
      </trkpt>
      <trkpt lat="45.19778" lon="5.85113">
        <ele>503</ele>
        <time>2021-04-10T07:56:10Z</time>
      </trkpt>
      <trkpt lat="45.19778" lon="5.85114">
        <ele>503.2</ele>
        <time>2021-04-10T07:56:11Z</time>
      </trkpt>
      <trkpt lat="45.19778" lon="5.85115">
        <ele>503.4</ele>
        <time>2021-04-10T07:56:12Z</time>
      </trkpt>
      <trkpt lat="45.19779" lon="5.85115">
        <ele>503.6</ele>
        <time>2021-04-10T07:56:13Z</time>
      </trkpt>
      <trkpt lat="45.19779" lon="5.85116">
        <ele>503.8</ele>
        <time>2021-04-10T07:56:14Z</time>
      </trkpt>
      <trkpt lat="45.19779" lon="5.85116">
        <ele>504</ele>
        <time>2021-04-10T07:56:15Z</time>
      </trkpt>
      <trkpt lat="45.19779" lon="5.85117">
        <ele>504.2</ele>
        <time>2021-04-10T07:56:16Z</time>
      </trkpt>
      <trkpt lat="45.19779" lon="5.85117">
        <ele>504.4</ele>
        <time>2021-04-10T07:56:17Z</time>
      </trkpt>
      <trkpt lat="45.1978" lon="5.85118">
        <ele>504.8</ele>
        <time>2021-04-10T07:56:18Z</time>
      </trkpt>
      <trkpt lat="45.1978" lon="5.85118">
        <ele>505</ele>
        <time>2021-04-10T07:56:19Z</time>
      </trkpt>
      <trkpt lat="45.1978" lon="5.85119">
        <ele>505.4</ele>
        <time>2021-04-10T07:56:20Z</time>
      </trkpt>
      <trkpt lat="45.1978" lon="5.85119">
        <ele>505.6</ele>
        <time>2021-04-10T07:56:21Z</time>
      </trkpt>
      <trkpt lat="45.1978" lon="5.8512">
        <ele>505.6</ele>
        <time>2021-04-10T07:56:22Z</time>
      </trkpt>
      <trkpt lat="45.19781" lon="5.8512">
        <ele>505.8</ele>
        <time>2021-04-10T07:56:23Z</time>
      </trkpt>
      <trkpt lat="45.19781" lon="5.85121">
        <ele>506.2</ele>
        <time>2021-04-10T07:56:24Z</time>
      </trkpt>
      <trkpt lat="45.19781" lon="5.85121">
        <ele>506.4</ele>
        <time>2021-04-10T07:56:25Z</time>
      </trkpt>
      <trkpt lat="45.19781" lon="5.85122">
        <ele>506.6</ele>
        <time>2021-04-10T07:56:26Z</time>
      </trkpt>
      <trkpt lat="45.19781" lon="5.85122">
        <ele>506.6</ele>
        <time>2021-04-10T07:56:27Z</time>
      </trkpt>
      <trkpt lat="45.19782" lon="5.85123">
        <ele>506.8</ele>
        <time>2021-04-10T07:56:28Z</time>
      </trkpt>
      <trkpt lat="45.19782" lon="5.85123">
        <ele>507</ele>
        <time>2021-04-10T07:56:29Z</time>
      </trkpt>
      <trkpt lat="45.19782" lon="5.85124">
        <ele>507.2</ele>
        <time>2021-04-10T07:56:30Z</time>
      </trkpt>
      <trkpt lat="45.19782" lon="5.85125">
        <ele>507.4</ele>
        <time>2021-04-10T07:56:31Z</time>
      </trkpt>
      <trkpt lat="45.19782" lon="5.85125">
        <ele>507.8</ele>
        <time>2021-04-10T07:56:32Z</time>
      </trkpt>
      <trkpt lat="45.19783" lon="5.85127">
        <ele>508</ele>
        <time>2021-04-10T07:56:33Z</time>
      </trkpt>
      <trkpt lat="45.19783" lon="5.85129">
        <ele>508.4</ele>
        <time>2021-04-10T07:56:34Z</time>
      </trkpt>
      <trkpt lat="45.19784" lon="5.85131">
        <ele>508.8</ele>
        <time>2021-04-10T07:56:35Z</time>
      </trkpt>
      <trkpt lat="45.19784" lon="5.85133">
        <ele>509.2</ele>
        <time>2021-04-10T07:56:36Z</time>
      </trkpt>
      <trkpt lat="45.19785" lon="5.85135">
        <ele>509.2</ele>
        <time>2021-04-10T07:56:37Z</time>
      </trkpt>
      <trkpt lat="45.19785" lon="5.85137">
        <ele>509.4</ele>
        <time>2021-04-10T07:56:38Z</time>
      </trkpt>
      <trkpt lat="45.19786" lon="5.85139">
        <ele>509.6</ele>
        <time>2021-04-10T07:56:39Z</time>
      </trkpt>
      <trkpt lat="45.19787" lon="5.8514">
        <ele>510</ele>
        <time>2021-04-10T07:56:40Z</time>
      </trkpt>
      <trkpt lat="45.19787" lon="5.85142">
        <ele>510.4</ele>
        <time>2021-04-10T07:56:41Z</time>
      </trkpt>
      <trkpt lat="45.19788" lon="5.85144">
        <ele>510.6</ele>
        <time>2021-04-10T07:56:42Z</time>
      </trkpt>
      <trkpt lat="45.19789" lon="5.85145">
        <ele>510.8</ele>
        <time>2021-04-10T07:56:43Z</time>
      </trkpt>
      <trkpt lat="45.19789" lon="5.85147">
        <ele>511.2</ele>
        <time>2021-04-10T07:56:44Z</time>
      </trkpt>
      <trkpt lat="45.1979" lon="5.85148">
        <ele>511.4</ele>
        <time>2021-04-10T07:56:45Z</time>
      </trkpt>
      <trkpt lat="45.19791" lon="5.8515">
        <ele>511.8</ele>
        <time>2021-04-10T07:56:46Z</time>
      </trkpt>
      <trkpt lat="45.19791" lon="5.85151">
        <ele>512</ele>
        <time>2021-04-10T07:56:47Z</time>
      </trkpt>
      <trkpt lat="45.19792" lon="5.85152">
        <ele>512.4</ele>
        <time>2021-04-10T07:56:48Z</time>
      </trkpt>
      <trkpt lat="45.19793" lon="5.85153">
        <ele>512.2</ele>
        <time>2021-04-10T07:56:49Z</time>
      </trkpt>
      <trkpt lat="45.19793" lon="5.85155">
        <ele>512.6</ele>
        <time>2021-04-10T07:56:50Z</time>
      </trkpt>
      <trkpt lat="45.19794" lon="5.85156">
        <ele>513</ele>
        <time>2021-04-10T07:56:51Z</time>
      </trkpt>
      <trkpt lat="45.19795" lon="5.85157">
        <ele>513.2</ele>
        <time>2021-04-10T07:56:52Z</time>
      </trkpt>
      <trkpt lat="45.19795" lon="5.85159">
        <ele>513.4</ele>
        <time>2021-04-10T07:56:53Z</time>
      </trkpt>
      <trkpt lat="45.19796" lon="5.8516">
        <ele>513.6</ele>
        <time>2021-04-10T07:56:54Z</time>
      </trkpt>
      <trkpt lat="45.19797" lon="5.85161">
        <ele>513.8</ele>
        <time>2021-04-10T07:56:55Z</time>
      </trkpt>
      <trkpt lat="45.19797" lon="5.85162">
        <ele>514</ele>
        <time>2021-04-10T07:56:56Z</time>
      </trkpt>
      <trkpt lat="45.19797" lon="5.85162">
        <ele>514.2</ele>
        <time>2021-04-10T07:56:57Z</time>
      </trkpt>
      <trkpt lat="45.19798" lon="5.85163">
        <ele>514.4</ele>
        <time>2021-04-10T07:56:58Z</time>
      </trkpt>
      <trkpt lat="45.19798" lon="5.85164">
        <ele>514.8</ele>
        <time>2021-04-10T07:56:59Z</time>
      </trkpt>
      <trkpt lat="45.19799" lon="5.85165">
        <ele>515</ele>
        <time>2021-04-10T07:57:00Z</time>
      </trkpt>
      <trkpt lat="45.19799" lon="5.85165">
        <ele>515.2</ele>
        <time>2021-04-10T07:57:01Z</time>
      </trkpt>
      <trkpt lat="45.198" lon="5.85166">
        <ele>515.2</ele>
        <time>2021-04-10T07:57:02Z</time>
      </trkpt>
      <trkpt lat="45.198" lon="5.85167">
        <ele>515.6</ele>
        <time>2021-04-10T07:57:03Z</time>
      </trkpt>
      <trkpt lat="45.19801" lon="5.85167">
        <ele>516</ele>
        <time>2021-04-10T07:57:04Z</time>
      </trkpt>
      <trkpt lat="45.19801" lon="5.85168">
        <ele>516.2</ele>
        <time>2021-04-10T07:57:05Z</time>
      </trkpt>
      <trkpt lat="45.19801" lon="5.85169">
        <ele>516.4</ele>
        <time>2021-04-10T07:57:06Z</time>
      </trkpt>
      <trkpt lat="45.19802" lon="5.8517">
        <ele>516.4</ele>
        <time>2021-04-10T07:57:07Z</time>
      </trkpt>
      <trkpt lat="45.19802" lon="5.8517">
        <ele>516.6</ele>
        <time>2021-04-10T07:57:08Z</time>
      </trkpt>
      <trkpt lat="45.19803" lon="5.85171">
        <ele>516.8</ele>
        <time>2021-04-10T07:57:09Z</time>
      </trkpt>
      <trkpt lat="45.19804" lon="5.85171">
        <ele>517.2</ele>
        <time>2021-04-10T07:57:10Z</time>
      </trkpt>
      <trkpt lat="45.19804" lon="5.85171">
        <ele>517.6</ele>
        <time>2021-04-10T07:57:11Z</time>
      </trkpt>
      <trkpt lat="45.19805" lon="5.85172">
        <ele>518</ele>
        <time>2021-04-10T07:57:12Z</time>
      </trkpt>
      <trkpt lat="45.19806" lon="5.85172">
        <ele>518.2</ele>
        <time>2021-04-10T07:57:13Z</time>
      </trkpt>
      <trkpt lat="45.19807" lon="5.85172">
        <ele>518</ele>
        <time>2021-04-10T07:57:14Z</time>
      </trkpt>
      <trkpt lat="45.19807" lon="5.85172">
        <ele>518.4</ele>
        <time>2021-04-10T07:57:15Z</time>
      </trkpt>
      <trkpt lat="45.19808" lon="5.85172">
        <ele>518.8</ele>
        <time>2021-04-10T07:57:16Z</time>
      </trkpt>
      <trkpt lat="45.19809" lon="5.85172">
        <ele>519</ele>
        <time>2021-04-10T07:57:17Z</time>
      </trkpt>
      <trkpt lat="45.1981" lon="5.85173">
        <ele>519.4</ele>
        <time>2021-04-10T07:57:18Z</time>
      </trkpt>
      <trkpt lat="45.19811" lon="5.85173">
        <ele>519.6</ele>
        <time>2021-04-10T07:57:19Z</time>
      </trkpt>
      <trkpt lat="45.19811" lon="5.85173">
        <ele>519.8</ele>
        <time>2021-04-10T07:57:20Z</time>
      </trkpt>
      <trkpt lat="45.19812" lon="5.85173">
        <ele>520</ele>
        <time>2021-04-10T07:57:21Z</time>
      </trkpt>
      <trkpt lat="45.19813" lon="5.85174">
        <ele>520.4</ele>
        <time>2021-04-10T07:57:22Z</time>
      </trkpt>
      <trkpt lat="45.19814" lon="5.85175">
        <ele>520.4</ele>
        <time>2021-04-10T07:57:23Z</time>
      </trkpt>
      <trkpt lat="45.19815" lon="5.85176">
        <ele>520.8</ele>
        <time>2021-04-10T07:57:24Z</time>
      </trkpt>
      <trkpt lat="45.19816" lon="5.85177">
        <ele>521</ele>
        <time>2021-04-10T07:57:25Z</time>
      </trkpt>
      <trkpt lat="45.19817" lon="5.85178">
        <ele>521</ele>
        <time>2021-04-10T07:57:26Z</time>
      </trkpt>
      <trkpt lat="45.19818" lon="5.85179">
        <ele>521</ele>
        <time>2021-04-10T07:57:27Z</time>
      </trkpt>
      <trkpt lat="45.19819" lon="5.8518">
        <ele>521.2</ele>
        <time>2021-04-10T07:57:28Z</time>
      </trkpt>
      <trkpt lat="45.19821" lon="5.85181">
        <ele>521.6</ele>
        <time>2021-04-10T07:57:29Z</time>
      </trkpt>
      <trkpt lat="45.19822" lon="5.85182">
        <ele>521.8</ele>
        <time>2021-04-10T07:57:30Z</time>
      </trkpt>
      <trkpt lat="45.19823" lon="5.85182">
        <ele>522</ele>
        <time>2021-04-10T07:57:31Z</time>
      </trkpt>
      <trkpt lat="45.19824" lon="5.85183">
        <ele>522.4</ele>
        <time>2021-04-10T07:57:32Z</time>
      </trkpt>
      <trkpt lat="45.19825" lon="5.85183">
        <ele>522.6</ele>
        <time>2021-04-10T07:57:33Z</time>
      </trkpt>
      <trkpt lat="45.19826" lon="5.85184">
        <ele>522.8</ele>
        <time>2021-04-10T07:57:34Z</time>
      </trkpt>
      <trkpt lat="45.19827" lon="5.85184">
        <ele>523</ele>
        <time>2021-04-10T07:57:35Z</time>
      </trkpt>
      <trkpt lat="45.19828" lon="5.85185">
        <ele>523.4</ele>
        <time>2021-04-10T07:57:36Z</time>
      </trkpt>
      <trkpt lat="45.19829" lon="5.85185">
        <ele>523.6</ele>
        <time>2021-04-10T07:57:37Z</time>
      </trkpt>
      <trkpt lat="45.19829" lon="5.85186">
        <ele>523.8</ele>
        <time>2021-04-10T07:57:38Z</time>
      </trkpt>
      <trkpt lat="45.1983" lon="5.85186">
        <ele>524</ele>
        <time>2021-04-10T07:57:39Z</time>
      </trkpt>
      <trkpt lat="45.1983" lon="5.85187">
        <ele>524</ele>
        <time>2021-04-10T07:57:40Z</time>
      </trkpt>
      <trkpt lat="45.1983" lon="5.85187">
        <ele>524.2</ele>
        <time>2021-04-10T07:57:41Z</time>
      </trkpt>
      <trkpt lat="45.1983" lon="5.85188">
        <ele>524.6</ele>
        <time>2021-04-10T07:57:42Z</time>
      </trkpt>
      <trkpt lat="45.1983" lon="5.85188">
        <ele>524.8</ele>
        <time>2021-04-10T07:57:43Z</time>
      </trkpt>
      <trkpt lat="45.19831" lon="5.85189">
        <ele>525.2</ele>
        <time>2021-04-10T07:57:44Z</time>
      </trkpt>
      <trkpt lat="45.19831" lon="5.8519">
        <ele>525.4</ele>
        <time>2021-04-10T07:57:45Z</time>
      </trkpt>
      <trkpt lat="45.19831" lon="5.8519">
        <ele>525.6</ele>
        <time>2021-04-10T07:57:46Z</time>
      </trkpt>
      <trkpt lat="45.19831" lon="5.85191">
        <ele>525.8</ele>
        <time>2021-04-10T07:57:47Z</time>
      </trkpt>
      <trkpt lat="45.19831" lon="5.85191">
        <ele>526</ele>
        <time>2021-04-10T07:57:48Z</time>
      </trkpt>
      <trkpt lat="45.19831" lon="5.85192">
        <ele>526.4</ele>
        <time>2021-04-10T07:57:49Z</time>
      </trkpt>
      <trkpt lat="45.19832" lon="5.85192">
        <ele>526.4</ele>
        <time>2021-04-10T07:57:50Z</time>
      </trkpt>
      <trkpt lat="45.19832" lon="5.85193">
        <ele>526.8</ele>
        <time>2021-04-10T07:57:51Z</time>
      </trkpt>
      <trkpt lat="45.19832" lon="5.85193">
        <ele>527</ele>
        <time>2021-04-10T07:57:52Z</time>
      </trkpt>
      <trkpt lat="45.19832" lon="5.85194">
        <ele>527.2</ele>
        <time>2021-04-10T07:57:53Z</time>
      </trkpt>
      <trkpt lat="45.19832" lon="5.85194">
        <ele>527.4</ele>
        <time>2021-04-10T07:57:54Z</time>
      </trkpt>
      <trkpt lat="45.19833" lon="5.85195">
        <ele>527.6</ele>
        <time>2021-04-10T07:57:55Z</time>
      </trkpt>
      <trkpt lat="45.19833" lon="5.85196">
        <ele>528</ele>
        <time>2021-04-10T07:57:56Z</time>
      </trkpt>
      <trkpt lat="45.19833" lon="5.85196">
        <ele>528.2</ele>
        <time>2021-04-10T07:57:57Z</time>
      </trkpt>
      <trkpt lat="45.19833" lon="5.85197">
        <ele>528.6</ele>
        <time>2021-04-10T07:57:58Z</time>
      </trkpt>
      <trkpt lat="45.19833" lon="5.85197">
        <ele>528.6</ele>
        <time>2021-04-10T07:57:59Z</time>
      </trkpt>
      <trkpt lat="45.19834" lon="5.85198">
        <ele>529</ele>
        <time>2021-04-10T07:58:00Z</time>
      </trkpt>
      <trkpt lat="45.19835" lon="5.85199">
        <ele>529.2</ele>
        <time>2021-04-10T07:58:01Z</time>
      </trkpt>
      <trkpt lat="45.19836" lon="5.852">
        <ele>529.6</ele>
        <time>2021-04-10T07:58:02Z</time>
      </trkpt>
      <trkpt lat="45.19837" lon="5.852">
        <ele>529.8</ele>
        <time>2021-04-10T07:58:03Z</time>
      </trkpt>
      <trkpt lat="45.19838" lon="5.85201">
        <ele>530</ele>
        <time>2021-04-10T07:58:04Z</time>
      </trkpt>
      <trkpt lat="45.19839" lon="5.85202">
        <ele>530.2</ele>
        <time>2021-04-10T07:58:05Z</time>
      </trkpt>
      <trkpt lat="45.1984" lon="5.85203">
        <ele>530.4</ele>
        <time>2021-04-10T07:58:06Z</time>
      </trkpt>
      <trkpt lat="45.19841" lon="5.85204">
        <ele>530.6</ele>
        <time>2021-04-10T07:58:07Z</time>
      </trkpt>
      <trkpt lat="45.19841" lon="5.85205">
        <ele>531</ele>
        <time>2021-04-10T07:58:08Z</time>
      </trkpt>
      <trkpt lat="45.19843" lon="5.85206">
        <ele>531.2</ele>
        <time>2021-04-10T07:58:09Z</time>
      </trkpt>
      <trkpt lat="45.19844" lon="5.85207">
        <ele>531.4</ele>
        <time>2021-04-10T07:58:10Z</time>
      </trkpt>
      <trkpt lat="45.19845" lon="5.85208">
        <ele>531.8</ele>
        <time>2021-04-10T07:58:11Z</time>
      </trkpt>
      <trkpt lat="45.19846" lon="5.85209">
        <ele>532</ele>
        <time>2021-04-10T07:58:12Z</time>
      </trkpt>
      <trkpt lat="45.19847" lon="5.8521">
        <ele>532.4</ele>
        <time>2021-04-10T07:58:13Z</time>
      </trkpt>
      <trkpt lat="45.19848" lon="5.85211">
        <ele>532.6</ele>
        <time>2021-04-10T07:58:14Z</time>
      </trkpt>
      <trkpt lat="45.19849" lon="5.85212">
        <ele>532.8</ele>
        <time>2021-04-10T07:58:15Z</time>
      </trkpt>
      <trkpt lat="45.1985" lon="5.85213">
        <ele>532.8</ele>
        <time>2021-04-10T07:58:16Z</time>
      </trkpt>
      <trkpt lat="45.19851" lon="5.85214">
        <ele>533.2</ele>
        <time>2021-04-10T07:58:17Z</time>
      </trkpt>
      <trkpt lat="45.19851" lon="5.85214">
        <ele>533.4</ele>
        <time>2021-04-10T07:58:18Z</time>
      </trkpt>
      <trkpt lat="45.19851" lon="5.85214">
        <ele>533.8</ele>
        <time>2021-04-10T07:58:19Z</time>
      </trkpt>
      <trkpt lat="45.19852" lon="5.85214">
        <ele>533.8</ele>
        <time>2021-04-10T07:58:20Z</time>
      </trkpt>
      <trkpt lat="45.19853" lon="5.85215">
        <ele>534</ele>
        <time>2021-04-10T07:58:21Z</time>
      </trkpt>
      <trkpt lat="45.19854" lon="5.85216">
        <ele>534.2</ele>
        <time>2021-04-10T07:58:22Z</time>
      </trkpt>
      <trkpt lat="45.19855" lon="5.85216">
        <ele>534.4</ele>
        <time>2021-04-10T07:58:23Z</time>
      </trkpt>
      <trkpt lat="45.19856" lon="5.85217">
        <ele>534.4</ele>
        <time>2021-04-10T07:58:24Z</time>
      </trkpt>
      <trkpt lat="45.19857" lon="5.85217">
        <ele>534.6</ele>
        <time>2021-04-10T07:58:25Z</time>
      </trkpt>
      <trkpt lat="45.19858" lon="5.85218">
        <ele>534.8</ele>
        <time>2021-04-10T07:58:26Z</time>
      </trkpt>
      <trkpt lat="45.19859" lon="5.85218">
        <ele>535</ele>
        <time>2021-04-10T07:58:27Z</time>
      </trkpt>
      <trkpt lat="45.1986" lon="5.85219">
        <ele>535.4</ele>
        <time>2021-04-10T07:58:28Z</time>
      </trkpt>
      <trkpt lat="45.19861" lon="5.8522">
        <ele>535.8</ele>
        <time>2021-04-10T07:58:29Z</time>
      </trkpt>
      <trkpt lat="45.19861" lon="5.8522">
        <ele>535.8</ele>
        <time>2021-04-10T07:58:30Z</time>
      </trkpt>
      <trkpt lat="45.19861" lon="5.8522">
        <ele>536</ele>
        <time>2021-04-10T07:58:31Z</time>
      </trkpt>
      <trkpt lat="45.19862" lon="5.85221">
        <ele>536.2</ele>
        <time>2021-04-10T07:58:32Z</time>
      </trkpt>
      <trkpt lat="45.19862" lon="5.85221">
        <ele>536.6</ele>
        <time>2021-04-10T07:58:33Z</time>
      </trkpt>
      <trkpt lat="45.19863" lon="5.85222">
        <ele>537</ele>
        <time>2021-04-10T07:58:34Z</time>
      </trkpt>
      <trkpt lat="45.19863" lon="5.85222">
        <ele>537</ele>
        <time>2021-04-10T07:58:35Z</time>
      </trkpt>
      <trkpt lat="45.19863" lon="5.85223">
        <ele>537</ele>
        <time>2021-04-10T07:58:36Z</time>
      </trkpt>
      <trkpt lat="45.19864" lon="5.85223">
        <ele>537.2</ele>
        <time>2021-04-10T07:58:37Z</time>
      </trkpt>
      <trkpt lat="45.19864" lon="5.85224">
        <ele>537.4</ele>
        <time>2021-04-10T07:58:38Z</time>
      </trkpt>
      <trkpt lat="45.19864" lon="5.85224">
        <ele>537.8</ele>
        <time>2021-04-10T07:58:39Z</time>
      </trkpt>
      <trkpt lat="45.19865" lon="5.85225">
        <ele>538.2</ele>
        <time>2021-04-10T07:58:40Z</time>
      </trkpt>
      <trkpt lat="45.19865" lon="5.85225">
        <ele>538.2</ele>
        <time>2021-04-10T07:58:41Z</time>
      </trkpt>
      <trkpt lat="45.19866" lon="5.85226">
        <ele>538.4</ele>
        <time>2021-04-10T07:58:42Z</time>
      </trkpt>
      <trkpt lat="45.19866" lon="5.85226">
        <ele>538.8</ele>
        <time>2021-04-10T07:58:43Z</time>
      </trkpt>
      <trkpt lat="45.19866" lon="5.85227">
        <ele>539</ele>
        <time>2021-04-10T07:58:44Z</time>
      </trkpt>
      <trkpt lat="45.19867" lon="5.85227">
        <ele>539.4</ele>
        <time>2021-04-10T07:58:45Z</time>
      </trkpt>
      <trkpt lat="45.19867" lon="5.85228">
        <ele>539.6</ele>
        <time>2021-04-10T07:58:46Z</time>
      </trkpt>
      <trkpt lat="45.19867" lon="5.85229">
        <ele>539.8</ele>
        <time>2021-04-10T07:58:47Z</time>
      </trkpt>
      <trkpt lat="45.19868" lon="5.85229">
        <ele>540</ele>
        <time>2021-04-10T07:58:48Z</time>
      </trkpt>
      <trkpt lat="45.19868" lon="5.8523">
        <ele>540.4</ele>
        <time>2021-04-10T07:58:49Z</time>
      </trkpt>
      <trkpt lat="45.19868" lon="5.85231">
        <ele>540.6</ele>
        <time>2021-04-10T07:58:50Z</time>
      </trkpt>
      <trkpt lat="45.19868" lon="5.85232">
        <ele>540.8</ele>
        <time>2021-04-10T07:58:51Z</time>
      </trkpt>
      <trkpt lat="45.19868" lon="5.85232">
        <ele>541</ele>
        <time>2021-04-10T07:58:52Z</time>
      </trkpt>
      <trkpt lat="45.19868" lon="5.85233">
        <ele>541.2</ele>
        <time>2021-04-10T07:58:53Z</time>
      </trkpt>
      <trkpt lat="45.19869" lon="5.85234">
        <ele>541.4</ele>
        <time>2021-04-10T07:58:54Z</time>
      </trkpt>
      <trkpt lat="45.19869" lon="5.85235">
        <ele>541.6</ele>
        <time>2021-04-10T07:58:55Z</time>
      </trkpt>
      <trkpt lat="45.19869" lon="5.85235">
        <ele>542</ele>
        <time>2021-04-10T07:58:56Z</time>
      </trkpt>
      <trkpt lat="45.19869" lon="5.85236">
        <ele>542.2</ele>
        <time>2021-04-10T07:58:57Z</time>
      </trkpt>
      <trkpt lat="45.19869" lon="5.85237">
        <ele>542.4</ele>
        <time>2021-04-10T07:58:58Z</time>
      </trkpt>
      <trkpt lat="45.19869" lon="5.85238">
        <ele>542.6</ele>
        <time>2021-04-10T07:58:59Z</time>
      </trkpt>
      <trkpt lat="45.1987" lon="5.85238">
        <ele>543</ele>
        <time>2021-04-10T07:59:00Z</time>
      </trkpt>
      <trkpt lat="45.1987" lon="5.85239">
        <ele>543.2</ele>
        <time>2021-04-10T07:59:01Z</time>
      </trkpt>
      <trkpt lat="45.1987" lon="5.8524">
        <ele>543.4</ele>
        <time>2021-04-10T07:59:02Z</time>
      </trkpt>
      <trkpt lat="45.1987" lon="5.85241">
        <ele>543.6</ele>
        <time>2021-04-10T07:59:03Z</time>
      </trkpt>
      <trkpt lat="45.19871" lon="5.85241">
        <ele>543.8</ele>
        <time>2021-04-10T07:59:04Z</time>
      </trkpt>
      <trkpt lat="45.19871" lon="5.85242">
        <ele>544</ele>
        <time>2021-04-10T07:59:05Z</time>
      </trkpt>
      <trkpt lat="45.19872" lon="5.85243">
        <ele>544.2</ele>
        <time>2021-04-10T07:59:06Z</time>
      </trkpt>
      <trkpt lat="45.19872" lon="5.85243">
        <ele>544.4</ele>
        <time>2021-04-10T07:59:07Z</time>
      </trkpt>
      <trkpt lat="45.19873" lon="5.85244">
        <ele>544.6</ele>
        <time>2021-04-10T07:59:08Z</time>
      </trkpt>
      <trkpt lat="45.19873" lon="5.85245">
        <ele>545</ele>
        <time>2021-04-10T07:59:09Z</time>
      </trkpt>
      <trkpt lat="45.19874" lon="5.85245">
        <ele>545.2</ele>
        <time>2021-04-10T07:59:10Z</time>
      </trkpt>
      <trkpt lat="45.19874" lon="5.85246">
        <ele>545.4</ele>
        <time>2021-04-10T07:59:11Z</time>
      </trkpt>
      <trkpt lat="45.19875" lon="5.85246">
        <ele>545.6</ele>
        <time>2021-04-10T07:59:12Z</time>
      </trkpt>
      <trkpt lat="45.19875" lon="5.85247">
        <ele>546</ele>
        <time>2021-04-10T07:59:13Z</time>
      </trkpt>
      <trkpt lat="45.19875" lon="5.85247">
        <ele>546.4</ele>
        <time>2021-04-10T07:59:14Z</time>
      </trkpt>
      <trkpt lat="45.19878" lon="5.85251">
        <ele>546.6</ele>
        <time>2021-04-10T07:59:15Z</time>
      </trkpt>
      <trkpt lat="45.19878" lon="5.85251">
        <ele>546.8</ele>
        <time>2021-04-10T07:59:16Z</time>
      </trkpt>
      <trkpt lat="45.19878" lon="5.85251">
        <ele>547</ele>
        <time>2021-04-10T07:59:17Z</time>
      </trkpt>
      <trkpt lat="45.19879" lon="5.85253">
        <ele>547.2</ele>
        <time>2021-04-10T07:59:18Z</time>
      </trkpt>
      <trkpt lat="45.19879" lon="5.85253">
        <ele>547.4</ele>
        <time>2021-04-10T07:59:19Z</time>
      </trkpt>
      <trkpt lat="45.19879" lon="5.85253">
        <ele>547.6</ele>
        <time>2021-04-10T07:59:20Z</time>
      </trkpt>
      <trkpt lat="45.19879" lon="5.85253">
        <ele>547.8</ele>
        <time>2021-04-10T07:59:21Z</time>
      </trkpt>
      <trkpt lat="45.1988" lon="5.85256">
        <ele>548</ele>
        <time>2021-04-10T07:59:22Z</time>
      </trkpt>
      <trkpt lat="45.1988" lon="5.85256">
        <ele>548.4</ele>
        <time>2021-04-10T07:59:23Z</time>
      </trkpt>
      <trkpt lat="45.1988" lon="5.85256">
        <ele>548.6</ele>
        <time>2021-04-10T07:59:24Z</time>
      </trkpt>
      <trkpt lat="45.19881" lon="5.85259">
        <ele>548.8</ele>
        <time>2021-04-10T07:59:25Z</time>
      </trkpt>
      <trkpt lat="45.19881" lon="5.85259">
        <ele>549.2</ele>
        <time>2021-04-10T07:59:26Z</time>
      </trkpt>
      <trkpt lat="45.19881" lon="5.85259">
        <ele>549.6</ele>
        <time>2021-04-10T07:59:27Z</time>
      </trkpt>
      <trkpt lat="45.19882" lon="5.85262">
        <ele>549.6</ele>
        <time>2021-04-10T07:59:28Z</time>
      </trkpt>
      <trkpt lat="45.19882" lon="5.85262">
        <ele>549.8</ele>
        <time>2021-04-10T07:59:29Z</time>
      </trkpt>
      <trkpt lat="45.19882" lon="5.85262">
        <ele>550</ele>
        <time>2021-04-10T07:59:30Z</time>
      </trkpt>
      <trkpt lat="45.19883" lon="5.85264">
        <ele>550.2</ele>
        <time>2021-04-10T07:59:31Z</time>
      </trkpt>
      <trkpt lat="45.19883" lon="5.85264">
        <ele>550.6</ele>
        <time>2021-04-10T07:59:32Z</time>
      </trkpt>
      <trkpt lat="45.19883" lon="5.85264">
        <ele>550.8</ele>
        <time>2021-04-10T07:59:33Z</time>
      </trkpt>
      <trkpt lat="45.19883" lon="5.85264">
        <ele>551</ele>
        <time>2021-04-10T07:59:34Z</time>
      </trkpt>
      <trkpt lat="45.19883" lon="5.85264">
        <ele>551.4</ele>
        <time>2021-04-10T07:59:35Z</time>
      </trkpt>
      <trkpt lat="45.19883" lon="5.85264">
        <ele>551.6</ele>
        <time>2021-04-10T07:59:36Z</time>
      </trkpt>
      <trkpt lat="45.19883" lon="5.85267">
        <ele>551.8</ele>
        <time>2021-04-10T07:59:37Z</time>
      </trkpt>
      <trkpt lat="45.19883" lon="5.85267">
        <ele>552.2</ele>
        <time>2021-04-10T07:59:38Z</time>
      </trkpt>
      <trkpt lat="45.19883" lon="5.85267">
        <ele>552.4</ele>
        <time>2021-04-10T07:59:39Z</time>
      </trkpt>
      <trkpt lat="45.19883" lon="5.85267">
        <ele>552.4</ele>
        <time>2021-04-10T07:59:40Z</time>
      </trkpt>
      <trkpt lat="45.19885" lon="5.85268">
        <ele>552.6</ele>
        <time>2021-04-10T07:59:41Z</time>
      </trkpt>
      <trkpt lat="45.19886" lon="5.85268">
        <ele>552.8</ele>
        <time>2021-04-10T07:59:42Z</time>
      </trkpt>
      <trkpt lat="45.19886" lon="5.85268">
        <ele>553</ele>
        <time>2021-04-10T07:59:43Z</time>
      </trkpt>
      <trkpt lat="45.19887" lon="5.85269">
        <ele>553.2</ele>
        <time>2021-04-10T07:59:44Z</time>
      </trkpt>
      <trkpt lat="45.19887" lon="5.85269">
        <ele>553.6</ele>
        <time>2021-04-10T07:59:45Z</time>
      </trkpt>
      <trkpt lat="45.19888" lon="5.85269">
        <ele>553.8</ele>
        <time>2021-04-10T07:59:46Z</time>
      </trkpt>
      <trkpt lat="45.19888" lon="5.8527">
        <ele>554</ele>
        <time>2021-04-10T07:59:47Z</time>
      </trkpt>
      <trkpt lat="45.19888" lon="5.8527">
        <ele>554.2</ele>
        <time>2021-04-10T07:59:48Z</time>
      </trkpt>
      <trkpt lat="45.19889" lon="5.8527">
        <ele>554.4</ele>
        <time>2021-04-10T07:59:49Z</time>
      </trkpt>
      <trkpt lat="45.19889" lon="5.8527">
        <ele>554.8</ele>
        <time>2021-04-10T07:59:50Z</time>
      </trkpt>
      <trkpt lat="45.1989" lon="5.85271">
        <ele>555</ele>
        <time>2021-04-10T07:59:51Z</time>
      </trkpt>
      <trkpt lat="45.1989" lon="5.85271">
        <ele>555.2</ele>
        <time>2021-04-10T07:59:52Z</time>
      </trkpt>
      <trkpt lat="45.1989" lon="5.85271">
        <ele>555.4</ele>
        <time>2021-04-10T07:59:53Z</time>
      </trkpt>
      <trkpt lat="45.19891" lon="5.85272">
        <ele>555.8</ele>
        <time>2021-04-10T07:59:54Z</time>
      </trkpt>
      <trkpt lat="45.19891" lon="5.85272">
        <ele>556</ele>
        <time>2021-04-10T07:59:55Z</time>
      </trkpt>
      <trkpt lat="45.19892" lon="5.85272">
        <ele>556.2</ele>
        <time>2021-04-10T07:59:56Z</time>
      </trkpt>
      <trkpt lat="45.19892" lon="5.85273">
        <ele>556.4</ele>
        <time>2021-04-10T07:59:57Z</time>
      </trkpt>
      <trkpt lat="45.19893" lon="5.85273">
        <ele>556.8</ele>
        <time>2021-04-10T07:59:58Z</time>
      </trkpt>
      <trkpt lat="45.19893" lon="5.85273">
        <ele>557</ele>
        <time>2021-04-10T07:59:59Z</time>
      </trkpt>
      <trkpt lat="45.19893" lon="5.85274">
        <ele>557.6</ele>
        <time>2021-04-10T08:00:01Z</time>
      </trkpt>
      <trkpt lat="45.19894" lon="5.85274">
        <ele>557.8</ele>
        <time>2021-04-10T08:00:02Z</time>
      </trkpt>
      <trkpt lat="45.19894" lon="5.85274">
        <ele>558</ele>
        <time>2021-04-10T08:00:03Z</time>
      </trkpt>
      <trkpt lat="45.19895" lon="5.85274">
        <ele>558.2</ele>
        <time>2021-04-10T08:00:04Z</time>
      </trkpt>
      <trkpt lat="45.19895" lon="5.85275">
        <ele>558.4</ele>
        <time>2021-04-10T08:00:05Z</time>
      </trkpt>
      <trkpt lat="45.19895" lon="5.85275">
        <ele>558.6</ele>
        <time>2021-04-10T08:00:06Z</time>
      </trkpt>
      <trkpt lat="45.19896" lon="5.85275">
        <ele>559</ele>
        <time>2021-04-10T08:00:07Z</time>
      </trkpt>
      <trkpt lat="45.19896" lon="5.85276">
        <ele>559.2</ele>
        <time>2021-04-10T08:00:08Z</time>
      </trkpt>
      <trkpt lat="45.19897" lon="5.85276">
        <ele>559.2</ele>
        <time>2021-04-10T08:00:09Z</time>
      </trkpt>
      <trkpt lat="45.19897" lon="5.85276">
        <ele>559.2</ele>
        <time>2021-04-10T08:00:10Z</time>
      </trkpt>
      <trkpt lat="45.19897" lon="5.85276">
        <ele>559.8</ele>
        <time>2021-04-10T08:00:11Z</time>
      </trkpt>
      <trkpt lat="45.19899" lon="5.85278">
        <ele>560.2</ele>
        <time>2021-04-10T08:00:12Z</time>
      </trkpt>
      <trkpt lat="45.19899" lon="5.85278">
        <ele>560.4</ele>
        <time>2021-04-10T08:00:13Z</time>
      </trkpt>
      <trkpt lat="45.19899" lon="5.85278">
        <ele>560.4</ele>
        <time>2021-04-10T08:00:14Z</time>
      </trkpt>
      <trkpt lat="45.19899" lon="5.85278">
        <ele>560.8</ele>
        <time>2021-04-10T08:00:15Z</time>
      </trkpt>
      <trkpt lat="45.199" lon="5.85279">
        <ele>561</ele>
        <time>2021-04-10T08:00:16Z</time>
      </trkpt>
      <trkpt lat="45.19902" lon="5.85281">
        <ele>561.2</ele>
        <time>2021-04-10T08:00:17Z</time>
      </trkpt>
      <trkpt lat="45.19903" lon="5.85282">
        <ele>561.4</ele>
        <time>2021-04-10T08:00:18Z</time>
      </trkpt>
      <trkpt lat="45.19904" lon="5.85283">
        <ele>561.6</ele>
        <time>2021-04-10T08:00:19Z</time>
      </trkpt>
      <trkpt lat="45.19906" lon="5.85285">
        <ele>562</ele>
        <time>2021-04-10T08:00:20Z</time>
      </trkpt>
      <trkpt lat="45.19907" lon="5.85286">
        <ele>562.4</ele>
        <time>2021-04-10T08:00:21Z</time>
      </trkpt>
      <trkpt lat="45.19909" lon="5.85287">
        <ele>562.6</ele>
        <time>2021-04-10T08:00:22Z</time>
      </trkpt>
      <trkpt lat="45.19909" lon="5.85288">
        <ele>562.6</ele>
        <time>2021-04-10T08:00:23Z</time>
      </trkpt>
      <trkpt lat="45.1991" lon="5.85289">
        <ele>562.8</ele>
        <time>2021-04-10T08:00:24Z</time>
      </trkpt>
      <trkpt lat="45.1991" lon="5.85289">
        <ele>563.2</ele>
        <time>2021-04-10T08:00:25Z</time>
      </trkpt>
      <trkpt lat="45.19911" lon="5.8529">
        <ele>563.4</ele>
        <time>2021-04-10T08:00:26Z</time>
      </trkpt>
      <trkpt lat="45.19912" lon="5.85291">
        <ele>563.8</ele>
        <time>2021-04-10T08:00:27Z</time>
      </trkpt>
      <trkpt lat="45.19912" lon="5.85291">
        <ele>564</ele>
        <time>2021-04-10T08:00:28Z</time>
      </trkpt>
      <trkpt lat="45.19913" lon="5.85292">
        <ele>564.2</ele>
        <time>2021-04-10T08:00:29Z</time>
      </trkpt>
      <trkpt lat="45.19913" lon="5.85293">
        <ele>564.4</ele>
        <time>2021-04-10T08:00:30Z</time>
      </trkpt>
      <trkpt lat="45.19914" lon="5.85294">
        <ele>564.6</ele>
        <time>2021-04-10T08:00:31Z</time>
      </trkpt>
      <trkpt lat="45.19914" lon="5.85294">
        <ele>564.6</ele>
        <time>2021-04-10T08:00:32Z</time>
      </trkpt>
      <trkpt lat="45.19915" lon="5.85295">
        <ele>564.8</ele>
        <time>2021-04-10T08:00:33Z</time>
      </trkpt>
      <trkpt lat="45.19916" lon="5.85296">
        <ele>565.2</ele>
        <time>2021-04-10T08:00:34Z</time>
      </trkpt>
      <trkpt lat="45.19916" lon="5.85297">
        <ele>565.4</ele>
        <time>2021-04-10T08:00:35Z</time>
      </trkpt>
      <trkpt lat="45.19917" lon="5.85297">
        <ele>565.6</ele>
        <time>2021-04-10T08:00:36Z</time>
      </trkpt>
      <trkpt lat="45.19917" lon="5.85298">
        <ele>565.8</ele>
        <time>2021-04-10T08:00:37Z</time>
      </trkpt>
      <trkpt lat="45.19918" lon="5.85299">
        <ele>566.2</ele>
        <time>2021-04-10T08:00:38Z</time>
      </trkpt>
      <trkpt lat="45.19918" lon="5.853">
        <ele>566.6</ele>
        <time>2021-04-10T08:00:39Z</time>
      </trkpt>
      <trkpt lat="45.19919" lon="5.85301">
        <ele>566.6</ele>
        <time>2021-04-10T08:00:40Z</time>
      </trkpt>
      <trkpt lat="45.19919" lon="5.85302">
        <ele>566.8</ele>
        <time>2021-04-10T08:00:41Z</time>
      </trkpt>
      <trkpt lat="45.1992" lon="5.85303">
        <ele>567</ele>
        <time>2021-04-10T08:00:42Z</time>
      </trkpt>
      <trkpt lat="45.19921" lon="5.85304">
        <ele>567.4</ele>
        <time>2021-04-10T08:00:43Z</time>
      </trkpt>
      <trkpt lat="45.19921" lon="5.85304">
        <ele>567.6</ele>
        <time>2021-04-10T08:00:44Z</time>
      </trkpt>
      <trkpt lat="45.19922" lon="5.85305">
        <ele>567.8</ele>
        <time>2021-04-10T08:00:45Z</time>
      </trkpt>
      <trkpt lat="45.19922" lon="5.85306">
        <ele>568</ele>
        <time>2021-04-10T08:00:46Z</time>
      </trkpt>
      <trkpt lat="45.19923" lon="5.85308">
        <ele>568.4</ele>
        <time>2021-04-10T08:00:47Z</time>
      </trkpt>
      <trkpt lat="45.19924" lon="5.85309">
        <ele>568.8</ele>
        <time>2021-04-10T08:00:48Z</time>
      </trkpt>
      <trkpt lat="45.19924" lon="5.8531">
        <ele>568.8</ele>
        <time>2021-04-10T08:00:49Z</time>
      </trkpt>
      <trkpt lat="45.19925" lon="5.85311">
        <ele>568.8</ele>
        <time>2021-04-10T08:00:50Z</time>
      </trkpt>
      <trkpt lat="45.19926" lon="5.85312">
        <ele>569.2</ele>
        <time>2021-04-10T08:00:51Z</time>
      </trkpt>
      <trkpt lat="45.19926" lon="5.85313">
        <ele>569.6</ele>
        <time>2021-04-10T08:00:52Z</time>
      </trkpt>
      <trkpt lat="45.19927" lon="5.85314">
        <ele>569.6</ele>
        <time>2021-04-10T08:00:53Z</time>
      </trkpt>
      <trkpt lat="45.19928" lon="5.85316">
        <ele>569.8</ele>
        <time>2021-04-10T08:00:54Z</time>
      </trkpt>
      <trkpt lat="45.19928" lon="5.85317">
        <ele>570.2</ele>
        <time>2021-04-10T08:00:55Z</time>
      </trkpt>
      <trkpt lat="45.19929" lon="5.85318">
        <ele>570.6</ele>
        <time>2021-04-10T08:00:56Z</time>
      </trkpt>
      <trkpt lat="45.1993" lon="5.85319">
        <ele>570.8</ele>
        <time>2021-04-10T08:00:57Z</time>
      </trkpt>
      <trkpt lat="45.19931" lon="5.8532">
        <ele>570.8</ele>
        <time>2021-04-10T08:00:58Z</time>
      </trkpt>
      <trkpt lat="45.19931" lon="5.85321">
        <ele>571.2</ele>
        <time>2021-04-10T08:00:59Z</time>
      </trkpt>
      <trkpt lat="45.19932" lon="5.85322">
        <ele>571.4</ele>
        <time>2021-04-10T08:01:00Z</time>
      </trkpt>
      <trkpt lat="45.19932" lon="5.85322">
        <ele>571.8</ele>
        <time>2021-04-10T08:01:01Z</time>
      </trkpt>
      <trkpt lat="45.19932" lon="5.85322">
        <ele>572.2</ele>
        <time>2021-04-10T08:01:02Z</time>
      </trkpt>
      <trkpt lat="45.19932" lon="5.85322">
        <ele>572.6</ele>
        <time>2021-04-10T08:01:03Z</time>
      </trkpt>
      <trkpt lat="45.19933" lon="5.85326">
        <ele>572.8</ele>
        <time>2021-04-10T08:01:04Z</time>
      </trkpt>
      <trkpt lat="45.19933" lon="5.85326">
        <ele>572.8</ele>
        <time>2021-04-10T08:01:05Z</time>
      </trkpt>
      <trkpt lat="45.19933" lon="5.85326">
        <ele>573.2</ele>
        <time>2021-04-10T08:01:06Z</time>
      </trkpt>
      <trkpt lat="45.19933" lon="5.85326">
        <ele>573.4</ele>
        <time>2021-04-10T08:01:07Z</time>
      </trkpt>
      <trkpt lat="45.19933" lon="5.85326">
        <ele>573.6</ele>
        <time>2021-04-10T08:01:08Z</time>
      </trkpt>
      <trkpt lat="45.19934" lon="5.85327">
        <ele>574</ele>
        <time>2021-04-10T08:01:09Z</time>
      </trkpt>
      <trkpt lat="45.19935" lon="5.85328">
        <ele>574.2</ele>
        <time>2021-04-10T08:01:10Z</time>
      </trkpt>
      <trkpt lat="45.19936" lon="5.8533">
        <ele>574.4</ele>
        <time>2021-04-10T08:01:11Z</time>
      </trkpt>
      <trkpt lat="45.19936" lon="5.85331">
        <ele>574.6</ele>
        <time>2021-04-10T08:01:12Z</time>
      </trkpt>
      <trkpt lat="45.19937" lon="5.85332">
        <ele>574.8</ele>
        <time>2021-04-10T08:01:13Z</time>
      </trkpt>
      <trkpt lat="45.19938" lon="5.85333">
        <ele>575.2</ele>
        <time>2021-04-10T08:01:14Z</time>
      </trkpt>
      <trkpt lat="45.19939" lon="5.85334">
        <ele>575.4</ele>
        <time>2021-04-10T08:01:15Z</time>
      </trkpt>
      <trkpt lat="45.1994" lon="5.85336">
        <ele>576</ele>
        <time>2021-04-10T08:01:16Z</time>
      </trkpt>
      <trkpt lat="45.1994" lon="5.85337">
        <ele>576.2</ele>
        <time>2021-04-10T08:01:17Z</time>
      </trkpt>
      <trkpt lat="45.19941" lon="5.85338">
        <ele>576.4</ele>
        <time>2021-04-10T08:01:18Z</time>
      </trkpt>
      <trkpt lat="45.19942" lon="5.85339">
        <ele>576.8</ele>
        <time>2021-04-10T08:01:19Z</time>
      </trkpt>
      <trkpt lat="45.19942" lon="5.85339">
        <ele>577.2</ele>
        <time>2021-04-10T08:01:20Z</time>
      </trkpt>
      <trkpt lat="45.19942" lon="5.85339">
        <ele>577.4</ele>
        <time>2021-04-10T08:01:21Z</time>
      </trkpt>
      <trkpt lat="45.19943" lon="5.8534">
        <ele>577.6</ele>
        <time>2021-04-10T08:01:22Z</time>
      </trkpt>
      <trkpt lat="45.19943" lon="5.85341">
        <ele>578</ele>
        <time>2021-04-10T08:01:23Z</time>
      </trkpt>
      <trkpt lat="45.19944" lon="5.85342">
        <ele>578.2</ele>
        <time>2021-04-10T08:01:24Z</time>
      </trkpt>
      <trkpt lat="45.19944" lon="5.85343">
        <ele>578.2</ele>
        <time>2021-04-10T08:01:25Z</time>
      </trkpt>
      <trkpt lat="45.19945" lon="5.85344">
        <ele>578.4</ele>
        <time>2021-04-10T08:01:26Z</time>
      </trkpt>
      <trkpt lat="45.19945" lon="5.85345">
        <ele>578.4</ele>
        <time>2021-04-10T08:01:27Z</time>
      </trkpt>
      <trkpt lat="45.19946" lon="5.85347">
        <ele>578.6</ele>
        <time>2021-04-10T08:01:28Z</time>
      </trkpt>
      <trkpt lat="45.19947" lon="5.85348">
        <ele>578.8</ele>
        <time>2021-04-10T08:01:29Z</time>
      </trkpt>
      <trkpt lat="45.19947" lon="5.85349">
        <ele>578.8</ele>
        <time>2021-04-10T08:01:30Z</time>
      </trkpt>
      <trkpt lat="45.19948" lon="5.8535">
        <ele>579</ele>
        <time>2021-04-10T08:01:31Z</time>
      </trkpt>
      <trkpt lat="45.19948" lon="5.85351">
        <ele>579</ele>
        <time>2021-04-10T08:01:32Z</time>
      </trkpt>
      <trkpt lat="45.19949" lon="5.85352">
        <ele>579.4</ele>
        <time>2021-04-10T08:01:33Z</time>
      </trkpt>
      <trkpt lat="45.19949" lon="5.85353">
        <ele>579.6</ele>
        <time>2021-04-10T08:01:34Z</time>
      </trkpt>
      <trkpt lat="45.19949" lon="5.85354">
        <ele>579.8</ele>
        <time>2021-04-10T08:01:35Z</time>
      </trkpt>
      <trkpt lat="45.1995" lon="5.85355">
        <ele>580.2</ele>
        <time>2021-04-10T08:01:36Z</time>
      </trkpt>
      <trkpt lat="45.1995" lon="5.85356">
        <ele>580.4</ele>
        <time>2021-04-10T08:01:37Z</time>
      </trkpt>
      <trkpt lat="45.1995" lon="5.85357">
        <ele>580.6</ele>
        <time>2021-04-10T08:01:38Z</time>
      </trkpt>
      <trkpt lat="45.19951" lon="5.85358">
        <ele>581</ele>
        <time>2021-04-10T08:01:39Z</time>
      </trkpt>
      <trkpt lat="45.19951" lon="5.85359">
        <ele>581.2</ele>
        <time>2021-04-10T08:01:40Z</time>
      </trkpt>
      <trkpt lat="45.19951" lon="5.8536">
        <ele>581.4</ele>
        <time>2021-04-10T08:01:41Z</time>
      </trkpt>
      <trkpt lat="45.19952" lon="5.85361">
        <ele>581.6</ele>
        <time>2021-04-10T08:01:42Z</time>
      </trkpt>
      <trkpt lat="45.19952" lon="5.85362">
        <ele>582</ele>
        <time>2021-04-10T08:01:43Z</time>
      </trkpt>
      <trkpt lat="45.19952" lon="5.85363">
        <ele>582.4</ele>
        <time>2021-04-10T08:01:44Z</time>
      </trkpt>
      <trkpt lat="45.19952" lon="5.85364">
        <ele>582.6</ele>
        <time>2021-04-10T08:01:45Z</time>
      </trkpt>
      <trkpt lat="45.19953" lon="5.85365">
        <ele>583</ele>
        <time>2021-04-10T08:01:46Z</time>
      </trkpt>
      <trkpt lat="45.19953" lon="5.85366">
        <ele>583.4</ele>
        <time>2021-04-10T08:01:47Z</time>
      </trkpt>
      <trkpt lat="45.19953" lon="5.85367">
        <ele>583.6</ele>
        <time>2021-04-10T08:01:48Z</time>
      </trkpt>
      <trkpt lat="45.19955" lon="5.85369">
        <ele>583.8</ele>
        <time>2021-04-10T08:01:49Z</time>
      </trkpt>
      <trkpt lat="45.19956" lon="5.85371">
        <ele>584</ele>
        <time>2021-04-10T08:01:50Z</time>
      </trkpt>
      <trkpt lat="45.19957" lon="5.85374">
        <ele>584.2</ele>
        <time>2021-04-10T08:01:51Z</time>
      </trkpt>
      <trkpt lat="45.19958" lon="5.85376">
        <ele>584.2</ele>
        <time>2021-04-10T08:01:52Z</time>
      </trkpt>
      <trkpt lat="45.19959" lon="5.85378">
        <ele>584.4</ele>
        <time>2021-04-10T08:01:53Z</time>
      </trkpt>
      <trkpt lat="45.1996" lon="5.85379">
        <ele>584.6</ele>
        <time>2021-04-10T08:01:54Z</time>
      </trkpt>
      <trkpt lat="45.19961" lon="5.85379">
        <ele>584.8</ele>
        <time>2021-04-10T08:01:55Z</time>
      </trkpt>
      <trkpt lat="45.19962" lon="5.8538">
        <ele>585</ele>
        <time>2021-04-10T08:01:56Z</time>
      </trkpt>
      <trkpt lat="45.19963" lon="5.8538">
        <ele>585.2</ele>
        <time>2021-04-10T08:01:57Z</time>
      </trkpt>
      <trkpt lat="45.19964" lon="5.8538">
        <ele>585.2</ele>
        <time>2021-04-10T08:01:58Z</time>
      </trkpt>
      <trkpt lat="45.19965" lon="5.85381">
        <ele>585.2</ele>
        <time>2021-04-10T08:01:59Z</time>
      </trkpt>
      <trkpt lat="45.19966" lon="5.85381">
        <ele>585.4</ele>
        <time>2021-04-10T08:02:00Z</time>
      </trkpt>
      <trkpt lat="45.19966" lon="5.85382">
        <ele>585.4</ele>
        <time>2021-04-10T08:02:01Z</time>
      </trkpt>
      <trkpt lat="45.19967" lon="5.85382">
        <ele>585.4</ele>
        <time>2021-04-10T08:02:02Z</time>
      </trkpt>
      <trkpt lat="45.19968" lon="5.85382">
        <ele>585.4</ele>
        <time>2021-04-10T08:02:03Z</time>
      </trkpt>
      <trkpt lat="45.19969" lon="5.85384">
        <ele>585.6</ele>
        <time>2021-04-10T08:02:04Z</time>
      </trkpt>
      <trkpt lat="45.19969" lon="5.85386">
        <ele>585.8</ele>
        <time>2021-04-10T08:02:05Z</time>
      </trkpt>
      <trkpt lat="45.1997" lon="5.85388">
        <ele>586</ele>
        <time>2021-04-10T08:02:06Z</time>
      </trkpt>
      <trkpt lat="45.1997" lon="5.85389">
        <ele>586</ele>
        <time>2021-04-10T08:02:07Z</time>
      </trkpt>
      <trkpt lat="45.1997" lon="5.85391">
        <ele>586.2</ele>
        <time>2021-04-10T08:02:08Z</time>
      </trkpt>
      <trkpt lat="45.19971" lon="5.85393">
        <ele>586.4</ele>
        <time>2021-04-10T08:02:09Z</time>
      </trkpt>
      <trkpt lat="45.19971" lon="5.85394">
        <ele>586.6</ele>
        <time>2021-04-10T08:02:10Z</time>
      </trkpt>
      <trkpt lat="45.19972" lon="5.85395">
        <ele>586.8</ele>
        <time>2021-04-10T08:02:11Z</time>
      </trkpt>
      <trkpt lat="45.19972" lon="5.85396">
        <ele>587</ele>
        <time>2021-04-10T08:02:12Z</time>
      </trkpt>
      <trkpt lat="45.19973" lon="5.85397">
        <ele>587</ele>
        <time>2021-04-10T08:02:13Z</time>
      </trkpt>
      <trkpt lat="45.19973" lon="5.85398">
        <ele>587.2</ele>
        <time>2021-04-10T08:02:14Z</time>
      </trkpt>
      <trkpt lat="45.19974" lon="5.854">
        <ele>587.6</ele>
        <time>2021-04-10T08:02:15Z</time>
      </trkpt>
      <trkpt lat="45.19974" lon="5.85401">
        <ele>587.8</ele>
        <time>2021-04-10T08:02:16Z</time>
      </trkpt>
      <trkpt lat="45.19975" lon="5.85402">
        <ele>588</ele>
        <time>2021-04-10T08:02:17Z</time>
      </trkpt>
      <trkpt lat="45.19975" lon="5.85403">
        <ele>588.2</ele>
        <time>2021-04-10T08:02:18Z</time>
      </trkpt>
      <trkpt lat="45.19976" lon="5.85404">
        <ele>588.6</ele>
        <time>2021-04-10T08:02:19Z</time>
      </trkpt>
      <trkpt lat="45.19976" lon="5.85405">
        <ele>588.8</ele>
        <time>2021-04-10T08:02:20Z</time>
      </trkpt>
      <trkpt lat="45.19977" lon="5.85406">
        <ele>589</ele>
        <time>2021-04-10T08:02:21Z</time>
      </trkpt>
      <trkpt lat="45.19978" lon="5.85406">
        <ele>589.2</ele>
        <time>2021-04-10T08:02:22Z</time>
      </trkpt>
      <trkpt lat="45.19978" lon="5.85407">
        <ele>589.4</ele>
        <time>2021-04-10T08:02:23Z</time>
      </trkpt>
      <trkpt lat="45.19979" lon="5.85408">
        <ele>589.6</ele>
        <time>2021-04-10T08:02:24Z</time>
      </trkpt>
      <trkpt lat="45.1998" lon="5.85409">
        <ele>589.8</ele>
        <time>2021-04-10T08:02:25Z</time>
      </trkpt>
      <trkpt lat="45.19981" lon="5.85409">
        <ele>590</ele>
        <time>2021-04-10T08:02:26Z</time>
      </trkpt>
      <trkpt lat="45.19981" lon="5.8541">
        <ele>590.2</ele>
        <time>2021-04-10T08:02:27Z</time>
      </trkpt>
      <trkpt lat="45.19982" lon="5.85411">
        <ele>590.4</ele>
        <time>2021-04-10T08:02:28Z</time>
      </trkpt>
      <trkpt lat="45.19983" lon="5.85412">
        <ele>590.4</ele>
        <time>2021-04-10T08:02:29Z</time>
      </trkpt>
      <trkpt lat="45.19984" lon="5.85412">
        <ele>590.8</ele>
        <time>2021-04-10T08:02:30Z</time>
      </trkpt>
      <trkpt lat="45.19984" lon="5.85413">
        <ele>590.8</ele>
        <time>2021-04-10T08:02:31Z</time>
      </trkpt>
      <trkpt lat="45.19985" lon="5.85414">
        <ele>591</ele>
        <time>2021-04-10T08:02:32Z</time>
      </trkpt>
      <trkpt lat="45.19986" lon="5.85415">
        <ele>591.2</ele>
        <time>2021-04-10T08:02:33Z</time>
      </trkpt>
      <trkpt lat="45.19987" lon="5.85416">
        <ele>591.6</ele>
        <time>2021-04-10T08:02:34Z</time>
      </trkpt>
      <trkpt lat="45.19987" lon="5.85418">
        <ele>591.8</ele>
        <time>2021-04-10T08:02:35Z</time>
      </trkpt>
      <trkpt lat="45.19988" lon="5.85419">
        <ele>592.2</ele>
        <time>2021-04-10T08:02:36Z</time>
      </trkpt>
      <trkpt lat="45.19989" lon="5.8542">
        <ele>592.2</ele>
        <time>2021-04-10T08:02:37Z</time>
      </trkpt>
      <trkpt lat="45.1999" lon="5.85421">
        <ele>592.2</ele>
        <time>2021-04-10T08:02:38Z</time>
      </trkpt>
      <trkpt lat="45.1999" lon="5.85422">
        <ele>592.6</ele>
        <time>2021-04-10T08:02:39Z</time>
      </trkpt>
      <trkpt lat="45.19991" lon="5.85423">
        <ele>592.8</ele>
        <time>2021-04-10T08:02:40Z</time>
      </trkpt>
      <trkpt lat="45.19991" lon="5.85423">
        <ele>593.2</ele>
        <time>2021-04-10T08:02:41Z</time>
      </trkpt>
      <trkpt lat="45.19991" lon="5.85423">
        <ele>593.6</ele>
        <time>2021-04-10T08:02:42Z</time>
      </trkpt>
      <trkpt lat="45.19993" lon="5.85425">
        <ele>593.6</ele>
        <time>2021-04-10T08:02:43Z</time>
      </trkpt>
      <trkpt lat="45.19993" lon="5.85425">
        <ele>594</ele>
        <time>2021-04-10T08:02:44Z</time>
      </trkpt>
      <trkpt lat="45.19993" lon="5.85425">
        <ele>594.2</ele>
        <time>2021-04-10T08:02:45Z</time>
      </trkpt>
      <trkpt lat="45.19993" lon="5.85425">
        <ele>594.8</ele>
        <time>2021-04-10T08:02:46Z</time>
      </trkpt>
      <trkpt lat="45.19993" lon="5.85425">
        <ele>595</ele>
        <time>2021-04-10T08:02:47Z</time>
      </trkpt>
      <trkpt lat="45.19993" lon="5.85426">
        <ele>595</ele>
        <time>2021-04-10T08:02:48Z</time>
      </trkpt>
      <trkpt lat="45.19993" lon="5.85426">
        <ele>595.2</ele>
        <time>2021-04-10T08:02:49Z</time>
      </trkpt>
      <trkpt lat="45.19994" lon="5.85426">
        <ele>595.6</ele>
        <time>2021-04-10T08:02:50Z</time>
      </trkpt>
      <trkpt lat="45.19994" lon="5.85427">
        <ele>595.8</ele>
        <time>2021-04-10T08:02:51Z</time>
      </trkpt>
      <trkpt lat="45.19994" lon="5.85427">
        <ele>596.2</ele>
        <time>2021-04-10T08:02:52Z</time>
      </trkpt>
      <trkpt lat="45.19995" lon="5.85427">
        <ele>596.6</ele>
        <time>2021-04-10T08:02:53Z</time>
      </trkpt>
      <trkpt lat="45.19995" lon="5.85428">
        <ele>596.8</ele>
        <time>2021-04-10T08:02:54Z</time>
      </trkpt>
      <trkpt lat="45.19995" lon="5.85428">
        <ele>597</ele>
        <time>2021-04-10T08:02:55Z</time>
      </trkpt>
      <trkpt lat="45.19995" lon="5.85428">
        <ele>597.2</ele>
        <time>2021-04-10T08:02:56Z</time>
      </trkpt>
      <trkpt lat="45.19996" lon="5.85428">
        <ele>597.4</ele>
        <time>2021-04-10T08:02:57Z</time>
      </trkpt>
      <trkpt lat="45.19996" lon="5.85429">
        <ele>597.6</ele>
        <time>2021-04-10T08:02:58Z</time>
      </trkpt>
      <trkpt lat="45.19996" lon="5.85429">
        <ele>597.8</ele>
        <time>2021-04-10T08:02:59Z</time>
      </trkpt>
      <trkpt lat="45.19997" lon="5.85429">
        <ele>598.4</ele>
        <time>2021-04-10T08:03:00Z</time>
      </trkpt>
      <trkpt lat="45.19997" lon="5.8543">
        <ele>598.8</ele>
        <time>2021-04-10T08:03:01Z</time>
      </trkpt>
      <trkpt lat="45.19997" lon="5.8543">
        <ele>599</ele>
        <time>2021-04-10T08:03:02Z</time>
      </trkpt>
      <trkpt lat="45.19997" lon="5.8543">
        <ele>599.2</ele>
        <time>2021-04-10T08:03:03Z</time>
      </trkpt>
      <trkpt lat="45.19998" lon="5.85431">
        <ele>599.4</ele>
        <time>2021-04-10T08:03:04Z</time>
      </trkpt>
      <trkpt lat="45.19998" lon="5.85431">
        <ele>599.6</ele>
        <time>2021-04-10T08:03:05Z</time>
      </trkpt>
      <trkpt lat="45.19998" lon="5.85431">
        <ele>599.8</ele>
        <time>2021-04-10T08:03:06Z</time>
      </trkpt>
      <trkpt lat="45.19998" lon="5.85432">
        <ele>600</ele>
        <time>2021-04-10T08:03:07Z</time>
      </trkpt>
      <trkpt lat="45.19999" lon="5.85432">
        <ele>600.4</ele>
        <time>2021-04-10T08:03:08Z</time>
      </trkpt>
      <trkpt lat="45.19999" lon="5.85432">
        <ele>600.8</ele>
        <time>2021-04-10T08:03:09Z</time>
      </trkpt>
      <trkpt lat="45.19999" lon="5.85433">
        <ele>601</ele>
        <time>2021-04-10T08:03:10Z</time>
      </trkpt>
      <trkpt lat="45.2" lon="5.85433">
        <ele>601.4</ele>
        <time>2021-04-10T08:03:11Z</time>
      </trkpt>
      <trkpt lat="45.2" lon="5.85433">
        <ele>601.4</ele>
        <time>2021-04-10T08:03:12Z</time>
      </trkpt>
      <trkpt lat="45.2" lon="5.85434">
        <ele>601.8</ele>
        <time>2021-04-10T08:03:13Z</time>
      </trkpt>
      <trkpt lat="45.20001" lon="5.85434">
        <ele>602</ele>
        <time>2021-04-10T08:03:14Z</time>
      </trkpt>
      <trkpt lat="45.20001" lon="5.85435">
        <ele>602.2</ele>
        <time>2021-04-10T08:03:15Z</time>
      </trkpt>
      <trkpt lat="45.20001" lon="5.85435">
        <ele>602.4</ele>
        <time>2021-04-10T08:03:16Z</time>
      </trkpt>
      <trkpt lat="45.20002" lon="5.85436">
        <ele>602.6</ele>
        <time>2021-04-10T08:03:17Z</time>
      </trkpt>
      <trkpt lat="45.20002" lon="5.85436">
        <ele>602.8</ele>
        <time>2021-04-10T08:03:18Z</time>
      </trkpt>
      <trkpt lat="45.20003" lon="5.85437">
        <ele>603</ele>
        <time>2021-04-10T08:03:19Z</time>
      </trkpt>
      <trkpt lat="45.20003" lon="5.85437">
        <ele>603.2</ele>
        <time>2021-04-10T08:03:20Z</time>
      </trkpt>
      <trkpt lat="45.20003" lon="5.85437">
        <ele>603.6</ele>
        <time>2021-04-10T08:03:21Z</time>
      </trkpt>
      <trkpt lat="45.20004" lon="5.85438">
        <ele>603.6</ele>
        <time>2021-04-10T08:03:22Z</time>
      </trkpt>
      <trkpt lat="45.20004" lon="5.85438">
        <ele>603.8</ele>
        <time>2021-04-10T08:03:23Z</time>
      </trkpt>
      <trkpt lat="45.20005" lon="5.85439">
        <ele>604</ele>
        <time>2021-04-10T08:03:24Z</time>
      </trkpt>
      <trkpt lat="45.20005" lon="5.85439">
        <ele>604.2</ele>
        <time>2021-04-10T08:03:25Z</time>
      </trkpt>
      <trkpt lat="45.20005" lon="5.8544">
        <ele>604.6</ele>
        <time>2021-04-10T08:03:26Z</time>
      </trkpt>
      <trkpt lat="45.20006" lon="5.8544">
        <ele>604.8</ele>
        <time>2021-04-10T08:03:27Z</time>
      </trkpt>
      <trkpt lat="45.20006" lon="5.85441">
        <ele>605.2</ele>
        <time>2021-04-10T08:03:28Z</time>
      </trkpt>
      <trkpt lat="45.20007" lon="5.85441">
        <ele>605.4</ele>
        <time>2021-04-10T08:03:29Z</time>
      </trkpt>
      <trkpt lat="45.20007" lon="5.85442">
        <ele>605.6</ele>
        <time>2021-04-10T08:03:30Z</time>
      </trkpt>
      <trkpt lat="45.20007" lon="5.85443">
        <ele>605.8</ele>
        <time>2021-04-10T08:03:31Z</time>
      </trkpt>
      <trkpt lat="45.20007" lon="5.85444">
        <ele>605.8</ele>
        <time>2021-04-10T08:03:32Z</time>
      </trkpt>
      <trkpt lat="45.20008" lon="5.85445">
        <ele>606</ele>
        <time>2021-04-10T08:03:33Z</time>
      </trkpt>
      <trkpt lat="45.20008" lon="5.85446">
        <ele>606.4</ele>
        <time>2021-04-10T08:03:34Z</time>
      </trkpt>
      <trkpt lat="45.20008" lon="5.85447">
        <ele>606.6</ele>
        <time>2021-04-10T08:03:35Z</time>
      </trkpt>
      <trkpt lat="45.20008" lon="5.85448">
        <ele>606.8</ele>
        <time>2021-04-10T08:03:36Z</time>
      </trkpt>
      <trkpt lat="45.20008" lon="5.85449">
        <ele>607</ele>
        <time>2021-04-10T08:03:37Z</time>
      </trkpt>
      <trkpt lat="45.20009" lon="5.8545">
        <ele>607.4</ele>
        <time>2021-04-10T08:03:38Z</time>
      </trkpt>
      <trkpt lat="45.20009" lon="5.85451">
        <ele>607.6</ele>
        <time>2021-04-10T08:03:39Z</time>
      </trkpt>
      <trkpt lat="45.20009" lon="5.85452">
        <ele>608</ele>
        <time>2021-04-10T08:03:40Z</time>
      </trkpt>
      <trkpt lat="45.20009" lon="5.85453">
        <ele>608.2</ele>
        <time>2021-04-10T08:03:41Z</time>
      </trkpt>
      <trkpt lat="45.20009" lon="5.85454">
        <ele>608.6</ele>
        <time>2021-04-10T08:03:42Z</time>
      </trkpt>
      <trkpt lat="45.2001" lon="5.85455">
        <ele>608.8</ele>
        <time>2021-04-10T08:03:43Z</time>
      </trkpt>
      <trkpt lat="45.2001" lon="5.85456">
        <ele>609</ele>
        <time>2021-04-10T08:03:44Z</time>
      </trkpt>
      <trkpt lat="45.2001" lon="5.85458">
        <ele>609</ele>
        <time>2021-04-10T08:03:45Z</time>
      </trkpt>
      <trkpt lat="45.2001" lon="5.8546">
        <ele>609.4</ele>
        <time>2021-04-10T08:03:46Z</time>
      </trkpt>
      <trkpt lat="45.20011" lon="5.85461">
        <ele>609.6</ele>
        <time>2021-04-10T08:03:47Z</time>
      </trkpt>
      <trkpt lat="45.20011" lon="5.85463">
        <ele>609.6</ele>
        <time>2021-04-10T08:03:48Z</time>
      </trkpt>
      <trkpt lat="45.20011" lon="5.85464">
        <ele>609.8</ele>
        <time>2021-04-10T08:03:49Z</time>
      </trkpt>
      <trkpt lat="45.20012" lon="5.85466">
        <ele>609.8</ele>
        <time>2021-04-10T08:03:50Z</time>
      </trkpt>
      <trkpt lat="45.20012" lon="5.85467">
        <ele>610</ele>
        <time>2021-04-10T08:03:51Z</time>
      </trkpt>
      <trkpt lat="45.20012" lon="5.85469">
        <ele>610</ele>
        <time>2021-04-10T08:03:52Z</time>
      </trkpt>
      <trkpt lat="45.20012" lon="5.85471">
        <ele>610</ele>
        <time>2021-04-10T08:03:53Z</time>
      </trkpt>
      <trkpt lat="45.20013" lon="5.85474">
        <ele>610</ele>
        <time>2021-04-10T08:03:54Z</time>
      </trkpt>
      <trkpt lat="45.20013" lon="5.85476">
        <ele>610.2</ele>
        <time>2021-04-10T08:03:55Z</time>
      </trkpt>
      <trkpt lat="45.20013" lon="5.85478">
        <ele>610.2</ele>
        <time>2021-04-10T08:03:56Z</time>
      </trkpt>
      <trkpt lat="45.20013" lon="5.8548">
        <ele>610.4</ele>
        <time>2021-04-10T08:03:57Z</time>
      </trkpt>
      <trkpt lat="45.20014" lon="5.85483">
        <ele>610.4</ele>
        <time>2021-04-10T08:03:58Z</time>
      </trkpt>
      <trkpt lat="45.20014" lon="5.85485">
        <ele>610.4</ele>
        <time>2021-04-10T08:03:59Z</time>
      </trkpt>
      <trkpt lat="45.20014" lon="5.85485">
        <ele>610.6</ele>
        <time>2021-04-10T08:04:00Z</time>
      </trkpt>
      <trkpt lat="45.20014" lon="5.85485">
        <ele>611.2</ele>
        <time>2021-04-10T08:04:01Z</time>
      </trkpt>
      <trkpt lat="45.20014" lon="5.85487">
        <ele>611.4</ele>
        <time>2021-04-10T08:04:02Z</time>
      </trkpt>
      <trkpt lat="45.20014" lon="5.85489">
        <ele>611.6</ele>
        <time>2021-04-10T08:04:03Z</time>
      </trkpt>
      <trkpt lat="45.20015" lon="5.85491">
        <ele>612</ele>
        <time>2021-04-10T08:04:04Z</time>
      </trkpt>
      <trkpt lat="45.20015" lon="5.85493">
        <ele>611.6</ele>
        <time>2021-04-10T08:04:05Z</time>
      </trkpt>
      <trkpt lat="45.20015" lon="5.85495">
        <ele>611.6</ele>
        <time>2021-04-10T08:04:06Z</time>
      </trkpt>
      <trkpt lat="45.20015" lon="5.85497">
        <ele>611.4</ele>
        <time>2021-04-10T08:04:07Z</time>
      </trkpt>
      <trkpt lat="45.20015" lon="5.85499">
        <ele>611.6</ele>
        <time>2021-04-10T08:04:08Z</time>
      </trkpt>
      <trkpt lat="45.20015" lon="5.85502">
        <ele>611.8</ele>
        <time>2021-04-10T08:04:09Z</time>
      </trkpt>
      <trkpt lat="45.20015" lon="5.85503">
        <ele>612</ele>
        <time>2021-04-10T08:04:10Z</time>
      </trkpt>
      <trkpt lat="45.20015" lon="5.85504">
        <ele>612.2</ele>
        <time>2021-04-10T08:04:11Z</time>
      </trkpt>
      <trkpt lat="45.20016" lon="5.85506">
        <ele>612.4</ele>
        <time>2021-04-10T08:04:12Z</time>
      </trkpt>
      <trkpt lat="45.20016" lon="5.85507">
        <ele>612.4</ele>
        <time>2021-04-10T08:04:13Z</time>
      </trkpt>
      <trkpt lat="45.20016" lon="5.85507">
        <ele>612.4</ele>
        <time>2021-04-10T08:04:14Z</time>
      </trkpt>
      <trkpt lat="45.20016" lon="5.85507">
        <ele>612.4</ele>
        <time>2021-04-10T08:04:15Z</time>
      </trkpt>
      <trkpt lat="45.20016" lon="5.85507">
        <ele>612.6</ele>
        <time>2021-04-10T08:04:16Z</time>
      </trkpt>
      <trkpt lat="45.20016" lon="5.85509">
        <ele>613</ele>
        <time>2021-04-10T08:04:17Z</time>
      </trkpt>
      <trkpt lat="45.20016" lon="5.85512">
        <ele>613.2</ele>
        <time>2021-04-10T08:04:18Z</time>
      </trkpt>
      <trkpt lat="45.20016" lon="5.85514">
        <ele>613.4</ele>
        <time>2021-04-10T08:04:19Z</time>
      </trkpt>
      <trkpt lat="45.20017" lon="5.85516">
        <ele>613.6</ele>
        <time>2021-04-10T08:04:20Z</time>
      </trkpt>
      <trkpt lat="45.20017" lon="5.85519">
        <ele>613.8</ele>
        <time>2021-04-10T08:04:21Z</time>
      </trkpt>
      <trkpt lat="45.20017" lon="5.85521">
        <ele>614</ele>
        <time>2021-04-10T08:04:22Z</time>
      </trkpt>
      <trkpt lat="45.20018" lon="5.85523">
        <ele>614.2</ele>
        <time>2021-04-10T08:04:23Z</time>
      </trkpt>
      <trkpt lat="45.20018" lon="5.85523">
        <ele>614.4</ele>
        <time>2021-04-10T08:04:24Z</time>
      </trkpt>
      <trkpt lat="45.20017" lon="5.85526">
        <ele>614.4</ele>
        <time>2021-04-10T08:04:25Z</time>
      </trkpt>
      <trkpt lat="45.20017" lon="5.85526">
        <ele>614.8</ele>
        <time>2021-04-10T08:04:26Z</time>
      </trkpt>
      <trkpt lat="45.20017" lon="5.85526">
        <ele>615.2</ele>
        <time>2021-04-10T08:04:27Z</time>
      </trkpt>
      <trkpt lat="45.20017" lon="5.85528">
        <ele>615.6</ele>
        <time>2021-04-10T08:04:28Z</time>
      </trkpt>
      <trkpt lat="45.20017" lon="5.85528">
        <ele>615.6</ele>
        <time>2021-04-10T08:04:29Z</time>
      </trkpt>
      <trkpt lat="45.20017" lon="5.85528">
        <ele>616</ele>
        <time>2021-04-10T08:04:30Z</time>
      </trkpt>
      <trkpt lat="45.20017" lon="5.85528">
        <ele>616.2</ele>
        <time>2021-04-10T08:04:31Z</time>
      </trkpt>
      <trkpt lat="45.20017" lon="5.85529">
        <ele>616.2</ele>
        <time>2021-04-10T08:04:32Z</time>
      </trkpt>
      <trkpt lat="45.20017" lon="5.85531">
        <ele>616.6</ele>
        <time>2021-04-10T08:04:33Z</time>
      </trkpt>
      <trkpt lat="45.20017" lon="5.85532">
        <ele>617</ele>
        <time>2021-04-10T08:04:34Z</time>
      </trkpt>
      <trkpt lat="45.20017" lon="5.85533">
        <ele>617.2</ele>
        <time>2021-04-10T08:04:35Z</time>
      </trkpt>
      <trkpt lat="45.20017" lon="5.85534">
        <ele>617.4</ele>
        <time>2021-04-10T08:04:36Z</time>
      </trkpt>
      <trkpt lat="45.20017" lon="5.85535">
        <ele>617.6</ele>
        <time>2021-04-10T08:04:37Z</time>
      </trkpt>
      <trkpt lat="45.20017" lon="5.85536">
        <ele>618</ele>
        <time>2021-04-10T08:04:38Z</time>
      </trkpt>
      <trkpt lat="45.20017" lon="5.85537">
        <ele>618.2</ele>
        <time>2021-04-10T08:04:39Z</time>
      </trkpt>
      <trkpt lat="45.20017" lon="5.85538">
        <ele>618.6</ele>
        <time>2021-04-10T08:04:40Z</time>
      </trkpt>
      <trkpt lat="45.20017" lon="5.85539">
        <ele>618.6</ele>
        <time>2021-04-10T08:04:41Z</time>
      </trkpt>
      <trkpt lat="45.20017" lon="5.8554">
        <ele>618.8</ele>
        <time>2021-04-10T08:04:42Z</time>
      </trkpt>
      <trkpt lat="45.20017" lon="5.85541">
        <ele>619</ele>
        <time>2021-04-10T08:04:43Z</time>
      </trkpt>
      <trkpt lat="45.20017" lon="5.85542">
        <ele>619.2</ele>
        <time>2021-04-10T08:04:44Z</time>
      </trkpt>
      <trkpt lat="45.20017" lon="5.85543">
        <ele>619.4</ele>
        <time>2021-04-10T08:04:45Z</time>
      </trkpt>
      <trkpt lat="45.20017" lon="5.85544">
        <ele>619.6</ele>
        <time>2021-04-10T08:04:46Z</time>
      </trkpt>
      <trkpt lat="45.20018" lon="5.85545">
        <ele>619.8</ele>
        <time>2021-04-10T08:04:47Z</time>
      </trkpt>
      <trkpt lat="45.20018" lon="5.85546">
        <ele>620.2</ele>
        <time>2021-04-10T08:04:48Z</time>
      </trkpt>
      <trkpt lat="45.20018" lon="5.85547">
        <ele>620.4</ele>
        <time>2021-04-10T08:04:49Z</time>
      </trkpt>
      <trkpt lat="45.20018" lon="5.85548">
        <ele>620.6</ele>
        <time>2021-04-10T08:04:50Z</time>
      </trkpt>
      <trkpt lat="45.20018" lon="5.85549">
        <ele>620.8</ele>
        <time>2021-04-10T08:04:51Z</time>
      </trkpt>
      <trkpt lat="45.20018" lon="5.8555">
        <ele>621</ele>
        <time>2021-04-10T08:04:52Z</time>
      </trkpt>
      <trkpt lat="45.20019" lon="5.85551">
        <ele>621.2</ele>
        <time>2021-04-10T08:04:53Z</time>
      </trkpt>
      <trkpt lat="45.20019" lon="5.85552">
        <ele>621.4</ele>
        <time>2021-04-10T08:04:54Z</time>
      </trkpt>
      <trkpt lat="45.20019" lon="5.85553">
        <ele>621.8</ele>
        <time>2021-04-10T08:04:55Z</time>
      </trkpt>
      <trkpt lat="45.20019" lon="5.85554">
        <ele>622</ele>
        <time>2021-04-10T08:04:56Z</time>
      </trkpt>
      <trkpt lat="45.20019" lon="5.85555">
        <ele>622.2</ele>
        <time>2021-04-10T08:04:57Z</time>
      </trkpt>
      <trkpt lat="45.2002" lon="5.85556">
        <ele>622.4</ele>
        <time>2021-04-10T08:04:58Z</time>
      </trkpt>
      <trkpt lat="45.2002" lon="5.85557">
        <ele>622.6</ele>
        <time>2021-04-10T08:04:59Z</time>
      </trkpt>
      <trkpt lat="45.20021" lon="5.85558">
        <ele>622.8</ele>
        <time>2021-04-10T08:05:00Z</time>
      </trkpt>
      <trkpt lat="45.20021" lon="5.85559">
        <ele>623</ele>
        <time>2021-04-10T08:05:01Z</time>
      </trkpt>
      <trkpt lat="45.20021" lon="5.8556">
        <ele>623.2</ele>
        <time>2021-04-10T08:05:02Z</time>
      </trkpt>
      <trkpt lat="45.20022" lon="5.85561">
        <ele>623.4</ele>
        <time>2021-04-10T08:05:03Z</time>
      </trkpt>
      <trkpt lat="45.20022" lon="5.85562">
        <ele>623.4</ele>
        <time>2021-04-10T08:05:04Z</time>
      </trkpt>
      <trkpt lat="45.20023" lon="5.85563">
        <ele>623.8</ele>
        <time>2021-04-10T08:05:05Z</time>
      </trkpt>
      <trkpt lat="45.20023" lon="5.85563">
        <ele>623.8</ele>
        <time>2021-04-10T08:05:06Z</time>
      </trkpt>
      <trkpt lat="45.20024" lon="5.85564">
        <ele>624</ele>
        <time>2021-04-10T08:05:07Z</time>
      </trkpt>
      <trkpt lat="45.20024" lon="5.85565">
        <ele>624</ele>
        <time>2021-04-10T08:05:08Z</time>
      </trkpt>
      <trkpt lat="45.20024" lon="5.85566">
        <ele>624.2</ele>
        <time>2021-04-10T08:05:09Z</time>
      </trkpt>
      <trkpt lat="45.20025" lon="5.85567">
        <ele>624.4</ele>
        <time>2021-04-10T08:05:10Z</time>
      </trkpt>
      <trkpt lat="45.20025" lon="5.85568">
        <ele>624.6</ele>
        <time>2021-04-10T08:05:11Z</time>
      </trkpt>
      <trkpt lat="45.20025" lon="5.85569">
        <ele>625</ele>
        <time>2021-04-10T08:05:12Z</time>
      </trkpt>
      <trkpt lat="45.20025" lon="5.8557">
        <ele>625.2</ele>
        <time>2021-04-10T08:05:13Z</time>
      </trkpt>
      <trkpt lat="45.20025" lon="5.8557">
        <ele>625.2</ele>
        <time>2021-04-10T08:05:14Z</time>
      </trkpt>
      <trkpt lat="45.20026" lon="5.85571">
        <ele>625.2</ele>
        <time>2021-04-10T08:05:15Z</time>
      </trkpt>
      <trkpt lat="45.20026" lon="5.85572">
        <ele>625.6</ele>
        <time>2021-04-10T08:05:16Z</time>
      </trkpt>
      <trkpt lat="45.20026" lon="5.85573">
        <ele>626</ele>
        <time>2021-04-10T08:05:17Z</time>
      </trkpt>
      <trkpt lat="45.20026" lon="5.85573">
        <ele>626.4</ele>
        <time>2021-04-10T08:05:18Z</time>
      </trkpt>
      <trkpt lat="45.20026" lon="5.85574">
        <ele>626.8</ele>
        <time>2021-04-10T08:05:19Z</time>
      </trkpt>
      <trkpt lat="45.20026" lon="5.85575">
        <ele>626.8</ele>
        <time>2021-04-10T08:05:20Z</time>
      </trkpt>
      <trkpt lat="45.20027" lon="5.85576">
        <ele>627</ele>
        <time>2021-04-10T08:05:21Z</time>
      </trkpt>
      <trkpt lat="45.20027" lon="5.85577">
        <ele>627.2</ele>
        <time>2021-04-10T08:05:22Z</time>
      </trkpt>
      <trkpt lat="45.20027" lon="5.85577">
        <ele>627.6</ele>
        <time>2021-04-10T08:05:23Z</time>
      </trkpt>
      <trkpt lat="45.20027" lon="5.85578">
        <ele>627.6</ele>
        <time>2021-04-10T08:05:24Z</time>
      </trkpt>
      <trkpt lat="45.20027" lon="5.85579">
        <ele>627.6</ele>
        <time>2021-04-10T08:05:25Z</time>
      </trkpt>
      <trkpt lat="45.20028" lon="5.85581">
        <ele>627.8</ele>
        <time>2021-04-10T08:05:26Z</time>
      </trkpt>
      <trkpt lat="45.20029" lon="5.85582">
        <ele>628.2</ele>
        <time>2021-04-10T08:05:27Z</time>
      </trkpt>
      <trkpt lat="45.2003" lon="5.85584">
        <ele>628.4</ele>
        <time>2021-04-10T08:05:28Z</time>
      </trkpt>
      <trkpt lat="45.20031" lon="5.85586">
        <ele>628.4</ele>
        <time>2021-04-10T08:05:29Z</time>
      </trkpt>
      <trkpt lat="45.20032" lon="5.85588">
        <ele>628.8</ele>
        <time>2021-04-10T08:05:30Z</time>
      </trkpt>
      <trkpt lat="45.20032" lon="5.85588">
        <ele>629</ele>
        <time>2021-04-10T08:05:31Z</time>
      </trkpt>
      <trkpt lat="45.20032" lon="5.85588">
        <ele>629.4</ele>
        <time>2021-04-10T08:05:32Z</time>
      </trkpt>
      <trkpt lat="45.20032" lon="5.85588">
        <ele>629.8</ele>
        <time>2021-04-10T08:05:33Z</time>
      </trkpt>
      <trkpt lat="45.20032" lon="5.85588">
        <ele>630</ele>
        <time>2021-04-10T08:05:34Z</time>
      </trkpt>
      <trkpt lat="45.20033" lon="5.8559">
        <ele>630.2</ele>
        <time>2021-04-10T08:05:35Z</time>
      </trkpt>
      <trkpt lat="45.20033" lon="5.8559">
        <ele>630.4</ele>
        <time>2021-04-10T08:05:36Z</time>
      </trkpt>
      <trkpt lat="45.20033" lon="5.8559">
        <ele>630.6</ele>
        <time>2021-04-10T08:05:37Z</time>
      </trkpt>
      <trkpt lat="45.20033" lon="5.8559">
        <ele>631</ele>
        <time>2021-04-10T08:05:38Z</time>
      </trkpt>
      <trkpt lat="45.20033" lon="5.85591">
        <ele>631.2</ele>
        <time>2021-04-10T08:05:39Z</time>
      </trkpt>
      <trkpt lat="45.20032" lon="5.85592">
        <ele>631.6</ele>
        <time>2021-04-10T08:05:40Z</time>
      </trkpt>
      <trkpt lat="45.20032" lon="5.85593">
        <ele>631.6</ele>
        <time>2021-04-10T08:05:41Z</time>
      </trkpt>
      <trkpt lat="45.20032" lon="5.85594">
        <ele>631.8</ele>
        <time>2021-04-10T08:05:42Z</time>
      </trkpt>
      <trkpt lat="45.20032" lon="5.85595">
        <ele>632</ele>
        <time>2021-04-10T08:05:43Z</time>
      </trkpt>
      <trkpt lat="45.20032" lon="5.85596">
        <ele>632.2</ele>
        <time>2021-04-10T08:05:44Z</time>
      </trkpt>
      <trkpt lat="45.20032" lon="5.85597">
        <ele>632.4</ele>
        <time>2021-04-10T08:05:45Z</time>
      </trkpt>
      <trkpt lat="45.20031" lon="5.85598">
        <ele>632.6</ele>
        <time>2021-04-10T08:05:46Z</time>
      </trkpt>
      <trkpt lat="45.20031" lon="5.85599">
        <ele>633</ele>
        <time>2021-04-10T08:05:47Z</time>
      </trkpt>
      <trkpt lat="45.20031" lon="5.85601">
        <ele>633.4</ele>
        <time>2021-04-10T08:05:48Z</time>
      </trkpt>
      <trkpt lat="45.20031" lon="5.85602">
        <ele>633.4</ele>
        <time>2021-04-10T08:05:49Z</time>
      </trkpt>
      <trkpt lat="45.20031" lon="5.85603">
        <ele>633.6</ele>
        <time>2021-04-10T08:05:50Z</time>
      </trkpt>
      <trkpt lat="45.2003" lon="5.85604">
        <ele>633.8</ele>
        <time>2021-04-10T08:05:51Z</time>
      </trkpt>
      <trkpt lat="45.20031" lon="5.85605">
        <ele>634</ele>
        <time>2021-04-10T08:05:52Z</time>
      </trkpt>
      <trkpt lat="45.20031" lon="5.85606">
        <ele>634.4</ele>
        <time>2021-04-10T08:05:53Z</time>
      </trkpt>
      <trkpt lat="45.20031" lon="5.85607">
        <ele>634.6</ele>
        <time>2021-04-10T08:05:54Z</time>
      </trkpt>
      <trkpt lat="45.20032" lon="5.85608">
        <ele>635</ele>
        <time>2021-04-10T08:05:55Z</time>
      </trkpt>
      <trkpt lat="45.20032" lon="5.85609">
        <ele>635.2</ele>
        <time>2021-04-10T08:05:56Z</time>
      </trkpt>
      <trkpt lat="45.20033" lon="5.8561">
        <ele>635.4</ele>
        <time>2021-04-10T08:05:57Z</time>
      </trkpt>
      <trkpt lat="45.20033" lon="5.85611">
        <ele>635.6</ele>
        <time>2021-04-10T08:05:58Z</time>
      </trkpt>
      <trkpt lat="45.20033" lon="5.85612">
        <ele>635.8</ele>
        <time>2021-04-10T08:05:59Z</time>
      </trkpt>
      <trkpt lat="45.20034" lon="5.85613">
        <ele>635.8</ele>
        <time>2021-04-10T08:06:00Z</time>
      </trkpt>
      <trkpt lat="45.20034" lon="5.85614">
        <ele>636.2</ele>
        <time>2021-04-10T08:06:01Z</time>
      </trkpt>
      <trkpt lat="45.20034" lon="5.85615">
        <ele>636.4</ele>
        <time>2021-04-10T08:06:02Z</time>
      </trkpt>
      <trkpt lat="45.20035" lon="5.85617">
        <ele>636.6</ele>
        <time>2021-04-10T08:06:03Z</time>
      </trkpt>
      <trkpt lat="45.20035" lon="5.85618">
        <ele>636.8</ele>
        <time>2021-04-10T08:06:04Z</time>
      </trkpt>
      <trkpt lat="45.20036" lon="5.85619">
        <ele>637</ele>
        <time>2021-04-10T08:06:05Z</time>
      </trkpt>
      <trkpt lat="45.20036" lon="5.8562">
        <ele>637.2</ele>
        <time>2021-04-10T08:06:06Z</time>
      </trkpt>
      <trkpt lat="45.20037" lon="5.85621">
        <ele>637.4</ele>
        <time>2021-04-10T08:06:07Z</time>
      </trkpt>
      <trkpt lat="45.20037" lon="5.85622">
        <ele>637.8</ele>
        <time>2021-04-10T08:06:08Z</time>
      </trkpt>
      <trkpt lat="45.20038" lon="5.85623">
        <ele>638</ele>
        <time>2021-04-10T08:06:09Z</time>
      </trkpt>
      <trkpt lat="45.20038" lon="5.85624">
        <ele>638.2</ele>
        <time>2021-04-10T08:06:10Z</time>
      </trkpt>
      <trkpt lat="45.20039" lon="5.85625">
        <ele>638.2</ele>
        <time>2021-04-10T08:06:11Z</time>
      </trkpt>
      <trkpt lat="45.20039" lon="5.85626">
        <ele>638.4</ele>
        <time>2021-04-10T08:06:12Z</time>
      </trkpt>
      <trkpt lat="45.2004" lon="5.85627">
        <ele>638.8</ele>
        <time>2021-04-10T08:06:13Z</time>
      </trkpt>
      <trkpt lat="45.2004" lon="5.85629">
        <ele>639</ele>
        <time>2021-04-10T08:06:14Z</time>
      </trkpt>
      <trkpt lat="45.2004" lon="5.8563">
        <ele>639</ele>
        <time>2021-04-10T08:06:15Z</time>
      </trkpt>
      <trkpt lat="45.2004" lon="5.85632">
        <ele>639.2</ele>
        <time>2021-04-10T08:06:16Z</time>
      </trkpt>
      <trkpt lat="45.20041" lon="5.85633">
        <ele>639.6</ele>
        <time>2021-04-10T08:06:17Z</time>
      </trkpt>
      <trkpt lat="45.20041" lon="5.85635">
        <ele>639.8</ele>
        <time>2021-04-10T08:06:18Z</time>
      </trkpt>
      <trkpt lat="45.20041" lon="5.85636">
        <ele>640</ele>
        <time>2021-04-10T08:06:19Z</time>
      </trkpt>
      <trkpt lat="45.20041" lon="5.85638">
        <ele>640.2</ele>
        <time>2021-04-10T08:06:20Z</time>
      </trkpt>
      <trkpt lat="45.20042" lon="5.85639">
        <ele>640.4</ele>
        <time>2021-04-10T08:06:21Z</time>
      </trkpt>
      <trkpt lat="45.20042" lon="5.85641">
        <ele>640.6</ele>
        <time>2021-04-10T08:06:22Z</time>
      </trkpt>
      <trkpt lat="45.20042" lon="5.85642">
        <ele>640.8</ele>
        <time>2021-04-10T08:06:23Z</time>
      </trkpt>
      <trkpt lat="45.20042" lon="5.85643">
        <ele>641</ele>
        <time>2021-04-10T08:06:24Z</time>
      </trkpt>
      <trkpt lat="45.20042" lon="5.85644">
        <ele>641.2</ele>
        <time>2021-04-10T08:06:25Z</time>
      </trkpt>
      <trkpt lat="45.20042" lon="5.85645">
        <ele>641.4</ele>
        <time>2021-04-10T08:06:26Z</time>
      </trkpt>
      <trkpt lat="45.20042" lon="5.85646">
        <ele>641.6</ele>
        <time>2021-04-10T08:06:27Z</time>
      </trkpt>
      <trkpt lat="45.20042" lon="5.85647">
        <ele>641.8</ele>
        <time>2021-04-10T08:06:28Z</time>
      </trkpt>
      <trkpt lat="45.20042" lon="5.85648">
        <ele>641.8</ele>
        <time>2021-04-10T08:06:29Z</time>
      </trkpt>
      <trkpt lat="45.20042" lon="5.85649">
        <ele>642</ele>
        <time>2021-04-10T08:06:30Z</time>
      </trkpt>
      <trkpt lat="45.20042" lon="5.8565">
        <ele>642.2</ele>
        <time>2021-04-10T08:06:31Z</time>
      </trkpt>
      <trkpt lat="45.20042" lon="5.85651">
        <ele>642.6</ele>
        <time>2021-04-10T08:06:32Z</time>
      </trkpt>
      <trkpt lat="45.20042" lon="5.85652">
        <ele>642.6</ele>
        <time>2021-04-10T08:06:33Z</time>
      </trkpt>
      <trkpt lat="45.20042" lon="5.85653">
        <ele>642.8</ele>
        <time>2021-04-10T08:06:34Z</time>
      </trkpt>
      <trkpt lat="45.20042" lon="5.85655">
        <ele>643</ele>
        <time>2021-04-10T08:06:35Z</time>
      </trkpt>
      <trkpt lat="45.20042" lon="5.85656">
        <ele>643.6</ele>
        <time>2021-04-10T08:06:36Z</time>
      </trkpt>
      <trkpt lat="45.20043" lon="5.85657">
        <ele>644</ele>
        <time>2021-04-10T08:06:37Z</time>
      </trkpt>
      <trkpt lat="45.20043" lon="5.85659">
        <ele>643.8</ele>
        <time>2021-04-10T08:06:38Z</time>
      </trkpt>
      <trkpt lat="45.20043" lon="5.8566">
        <ele>644</ele>
        <time>2021-04-10T08:06:39Z</time>
      </trkpt>
      <trkpt lat="45.20044" lon="5.85661">
        <ele>644.4</ele>
        <time>2021-04-10T08:06:40Z</time>
      </trkpt>
      <trkpt lat="45.20044" lon="5.85662">
        <ele>644.4</ele>
        <time>2021-04-10T08:06:41Z</time>
      </trkpt>
      <trkpt lat="45.20044" lon="5.85664">
        <ele>644.6</ele>
        <time>2021-04-10T08:06:42Z</time>
      </trkpt>
      <trkpt lat="45.20044" lon="5.85665">
        <ele>644.6</ele>
        <time>2021-04-10T08:06:43Z</time>
      </trkpt>
      <trkpt lat="45.20045" lon="5.85667">
        <ele>645</ele>
        <time>2021-04-10T08:06:44Z</time>
      </trkpt>
      <trkpt lat="45.20045" lon="5.85668">
        <ele>645.2</ele>
        <time>2021-04-10T08:06:45Z</time>
      </trkpt>
      <trkpt lat="45.20045" lon="5.85669">
        <ele>645.4</ele>
        <time>2021-04-10T08:06:46Z</time>
      </trkpt>
      <trkpt lat="45.20045" lon="5.85671">
        <ele>645.6</ele>
        <time>2021-04-10T08:06:47Z</time>
      </trkpt>
      <trkpt lat="45.20046" lon="5.85672">
        <ele>645.8</ele>
        <time>2021-04-10T08:06:48Z</time>
      </trkpt>
      <trkpt lat="45.20046" lon="5.85673">
        <ele>645.8</ele>
        <time>2021-04-10T08:06:49Z</time>
      </trkpt>
      <trkpt lat="45.20046" lon="5.85675">
        <ele>645.8</ele>
        <time>2021-04-10T08:06:50Z</time>
      </trkpt>
      <trkpt lat="45.20047" lon="5.85676">
        <ele>646.2</ele>
        <time>2021-04-10T08:06:51Z</time>
      </trkpt>
      <trkpt lat="45.20047" lon="5.85678">
        <ele>646.6</ele>
        <time>2021-04-10T08:06:52Z</time>
      </trkpt>
      <trkpt lat="45.20047" lon="5.85679">
        <ele>646.8</ele>
        <time>2021-04-10T08:06:53Z</time>
      </trkpt>
      <trkpt lat="45.20048" lon="5.85681">
        <ele>647</ele>
        <time>2021-04-10T08:06:54Z</time>
      </trkpt>
      <trkpt lat="45.20048" lon="5.85682">
        <ele>647.2</ele>
        <time>2021-04-10T08:06:55Z</time>
      </trkpt>
      <trkpt lat="45.20048" lon="5.85684">
        <ele>647.2</ele>
        <time>2021-04-10T08:06:56Z</time>
      </trkpt>
      <trkpt lat="45.20049" lon="5.85685">
        <ele>647.4</ele>
        <time>2021-04-10T08:06:57Z</time>
      </trkpt>
      <trkpt lat="45.20049" lon="5.85687">
        <ele>647.6</ele>
        <time>2021-04-10T08:06:58Z</time>
      </trkpt>
      <trkpt lat="45.20049" lon="5.85688">
        <ele>648</ele>
        <time>2021-04-10T08:06:59Z</time>
      </trkpt>
      <trkpt lat="45.20049" lon="5.8569">
        <ele>648.2</ele>
        <time>2021-04-10T08:07:00Z</time>
      </trkpt>
      <trkpt lat="45.2005" lon="5.85691">
        <ele>648.4</ele>
        <time>2021-04-10T08:07:01Z</time>
      </trkpt>
      <trkpt lat="45.2005" lon="5.85693">
        <ele>648.6</ele>
        <time>2021-04-10T08:07:02Z</time>
      </trkpt>
      <trkpt lat="45.2005" lon="5.85694">
        <ele>648.6</ele>
        <time>2021-04-10T08:07:03Z</time>
      </trkpt>
      <trkpt lat="45.2005" lon="5.85696">
        <ele>649</ele>
        <time>2021-04-10T08:07:04Z</time>
      </trkpt>
      <trkpt lat="45.2005" lon="5.85697">
        <ele>649.4</ele>
        <time>2021-04-10T08:07:05Z</time>
      </trkpt>
      <trkpt lat="45.2005" lon="5.85699">
        <ele>649.6</ele>
        <time>2021-04-10T08:07:06Z</time>
      </trkpt>
      <trkpt lat="45.2005" lon="5.857">
        <ele>649.6</ele>
        <time>2021-04-10T08:07:07Z</time>
      </trkpt>
      <trkpt lat="45.2005" lon="5.85701">
        <ele>649.8</ele>
        <time>2021-04-10T08:07:08Z</time>
      </trkpt>
      <trkpt lat="45.20051" lon="5.85703">
        <ele>649.8</ele>
        <time>2021-04-10T08:07:09Z</time>
      </trkpt>
      <trkpt lat="45.20051" lon="5.85704">
        <ele>650.4</ele>
        <time>2021-04-10T08:07:10Z</time>
      </trkpt>
      <trkpt lat="45.20051" lon="5.85705">
        <ele>650.4</ele>
        <time>2021-04-10T08:07:11Z</time>
      </trkpt>
      <trkpt lat="45.20051" lon="5.85707">
        <ele>650.6</ele>
        <time>2021-04-10T08:07:12Z</time>
      </trkpt>
      <trkpt lat="45.20051" lon="5.85708">
        <ele>650.8</ele>
        <time>2021-04-10T08:07:13Z</time>
      </trkpt>
      <trkpt lat="45.20052" lon="5.85709">
        <ele>650.8</ele>
        <time>2021-04-10T08:07:14Z</time>
      </trkpt>
      <trkpt lat="45.20052" lon="5.85711">
        <ele>651.2</ele>
        <time>2021-04-10T08:07:15Z</time>
      </trkpt>
      <trkpt lat="45.20052" lon="5.85712">
        <ele>651.4</ele>
        <time>2021-04-10T08:07:16Z</time>
      </trkpt>
      <trkpt lat="45.20052" lon="5.85714">
        <ele>651.6</ele>
        <time>2021-04-10T08:07:17Z</time>
      </trkpt>
      <trkpt lat="45.20053" lon="5.85715">
        <ele>651.8</ele>
        <time>2021-04-10T08:07:18Z</time>
      </trkpt>
      <trkpt lat="45.20053" lon="5.85717">
        <ele>652</ele>
        <time>2021-04-10T08:07:19Z</time>
      </trkpt>
      <trkpt lat="45.20053" lon="5.85719">
        <ele>652.4</ele>
        <time>2021-04-10T08:07:20Z</time>
      </trkpt>
      <trkpt lat="45.20053" lon="5.85721">
        <ele>652.8</ele>
        <time>2021-04-10T08:07:21Z</time>
      </trkpt>
      <trkpt lat="45.20053" lon="5.85723">
        <ele>653</ele>
        <time>2021-04-10T08:07:22Z</time>
      </trkpt>
      <trkpt lat="45.20053" lon="5.85724">
        <ele>653</ele>
        <time>2021-04-10T08:07:23Z</time>
      </trkpt>
      <trkpt lat="45.20053" lon="5.85726">
        <ele>653.2</ele>
        <time>2021-04-10T08:07:24Z</time>
      </trkpt>
      <trkpt lat="45.20053" lon="5.85728">
        <ele>653.2</ele>
        <time>2021-04-10T08:07:25Z</time>
      </trkpt>
      <trkpt lat="45.20054" lon="5.85731">
        <ele>653.4</ele>
        <time>2021-04-10T08:07:26Z</time>
      </trkpt>
      <trkpt lat="45.20054" lon="5.85734">
        <ele>653.6</ele>
        <time>2021-04-10T08:07:27Z</time>
      </trkpt>
      <trkpt lat="45.20054" lon="5.85737">
        <ele>653.8</ele>
        <time>2021-04-10T08:07:28Z</time>
      </trkpt>
      <trkpt lat="45.20054" lon="5.8574">
        <ele>654</ele>
        <time>2021-04-10T08:07:29Z</time>
      </trkpt>
      <trkpt lat="45.20055" lon="5.85744">
        <ele>654.2</ele>
        <time>2021-04-10T08:07:30Z</time>
      </trkpt>
      <trkpt lat="45.20055" lon="5.85744">
        <ele>654.4</ele>
        <time>2021-04-10T08:07:31Z</time>
      </trkpt>
      <trkpt lat="45.20055" lon="5.85744">
        <ele>654.8</ele>
        <time>2021-04-10T08:07:32Z</time>
      </trkpt>
      <trkpt lat="45.20054" lon="5.85747">
        <ele>655.4</ele>
        <time>2021-04-10T08:07:33Z</time>
      </trkpt>
      <trkpt lat="45.20054" lon="5.85747">
        <ele>655.6</ele>
        <time>2021-04-10T08:07:34Z</time>
      </trkpt>
      <trkpt lat="45.20054" lon="5.85747">
        <ele>655.8</ele>
        <time>2021-04-10T08:07:35Z</time>
      </trkpt>
      <trkpt lat="45.20053" lon="5.8575">
        <ele>655.8</ele>
        <time>2021-04-10T08:07:36Z</time>
      </trkpt>
      <trkpt lat="45.20053" lon="5.8575">
        <ele>655.8</ele>
        <time>2021-04-10T08:07:37Z</time>
      </trkpt>
      <trkpt lat="45.20051" lon="5.85753">
        <ele>656</ele>
        <time>2021-04-10T08:07:38Z</time>
      </trkpt>
      <trkpt lat="45.20051" lon="5.85753">
        <ele>656.2</ele>
        <time>2021-04-10T08:07:39Z</time>
      </trkpt>
      <trkpt lat="45.2005" lon="5.85756">
        <ele>656.4</ele>
        <time>2021-04-10T08:07:40Z</time>
      </trkpt>
      <trkpt lat="45.2005" lon="5.85756">
        <ele>656.6</ele>
        <time>2021-04-10T08:07:41Z</time>
      </trkpt>
      <trkpt lat="45.20049" lon="5.85758">
        <ele>656.8</ele>
        <time>2021-04-10T08:07:42Z</time>
      </trkpt>
      <trkpt lat="45.20049" lon="5.85758">
        <ele>657</ele>
        <time>2021-04-10T08:07:43Z</time>
      </trkpt>
      <trkpt lat="45.20049" lon="5.85758">
        <ele>657.2</ele>
        <time>2021-04-10T08:07:44Z</time>
      </trkpt>
      <trkpt lat="45.20047" lon="5.85761">
        <ele>657.6</ele>
        <time>2021-04-10T08:07:45Z</time>
      </trkpt>
      <trkpt lat="45.20047" lon="5.85761">
        <ele>657.8</ele>
        <time>2021-04-10T08:07:46Z</time>
      </trkpt>
      <trkpt lat="45.20047" lon="5.85761">
        <ele>658</ele>
        <time>2021-04-10T08:07:47Z</time>
      </trkpt>
      <trkpt lat="45.20045" lon="5.85765">
        <ele>658.4</ele>
        <time>2021-04-10T08:07:48Z</time>
      </trkpt>
      <trkpt lat="45.20045" lon="5.85765">
        <ele>658.4</ele>
        <time>2021-04-10T08:07:49Z</time>
      </trkpt>
      <trkpt lat="45.20045" lon="5.85765">
        <ele>658.6</ele>
        <time>2021-04-10T08:07:50Z</time>
      </trkpt>
      <trkpt lat="45.20043" lon="5.85767">
        <ele>658.8</ele>
        <time>2021-04-10T08:07:51Z</time>
      </trkpt>
      <trkpt lat="45.20043" lon="5.85767">
        <ele>659</ele>
        <time>2021-04-10T08:07:52Z</time>
      </trkpt>
      <trkpt lat="45.20042" lon="5.85769">
        <ele>659.2</ele>
        <time>2021-04-10T08:07:53Z</time>
      </trkpt>
      <trkpt lat="45.20042" lon="5.85769">
        <ele>659.6</ele>
        <time>2021-04-10T08:07:54Z</time>
      </trkpt>
      <trkpt lat="45.20042" lon="5.85769">
        <ele>660</ele>
        <time>2021-04-10T08:07:55Z</time>
      </trkpt>
      <trkpt lat="45.20042" lon="5.85769">
        <ele>660.2</ele>
        <time>2021-04-10T08:07:56Z</time>
      </trkpt>
      <trkpt lat="45.20042" lon="5.85769">
        <ele>660.6</ele>
        <time>2021-04-10T08:07:57Z</time>
      </trkpt>
      <trkpt lat="45.2004" lon="5.85772">
        <ele>660.8</ele>
        <time>2021-04-10T08:07:58Z</time>
      </trkpt>
      <trkpt lat="45.2004" lon="5.85772">
        <ele>660.8</ele>
        <time>2021-04-10T08:07:59Z</time>
      </trkpt>
      <trkpt lat="45.2004" lon="5.85772">
        <ele>661</ele>
        <time>2021-04-10T08:08:00Z</time>
      </trkpt>
      <trkpt lat="45.20038" lon="5.85775">
        <ele>661.4</ele>
        <time>2021-04-10T08:08:01Z</time>
      </trkpt>
      <trkpt lat="45.20037" lon="5.85776">
        <ele>661.6</ele>
        <time>2021-04-10T08:08:02Z</time>
      </trkpt>
      <trkpt lat="45.20036" lon="5.85778">
        <ele>661.8</ele>
        <time>2021-04-10T08:08:03Z</time>
      </trkpt>
      <trkpt lat="45.20036" lon="5.85779">
        <ele>662.2</ele>
        <time>2021-04-10T08:08:04Z</time>
      </trkpt>
      <trkpt lat="45.20035" lon="5.85781">
        <ele>662.4</ele>
        <time>2021-04-10T08:08:05Z</time>
      </trkpt>
      <trkpt lat="45.20034" lon="5.85783">
        <ele>662.4</ele>
        <time>2021-04-10T08:08:06Z</time>
      </trkpt>
      <trkpt lat="45.20033" lon="5.85784">
        <ele>662.8</ele>
        <time>2021-04-10T08:08:07Z</time>
      </trkpt>
      <trkpt lat="45.20032" lon="5.85786">
        <ele>663</ele>
        <time>2021-04-10T08:08:08Z</time>
      </trkpt>
      <trkpt lat="45.20032" lon="5.85787">
        <ele>663.2</ele>
        <time>2021-04-10T08:08:09Z</time>
      </trkpt>
      <trkpt lat="45.20031" lon="5.85789">
        <ele>663.4</ele>
        <time>2021-04-10T08:08:10Z</time>
      </trkpt>
      <trkpt lat="45.2003" lon="5.8579">
        <ele>663.8</ele>
        <time>2021-04-10T08:08:11Z</time>
      </trkpt>
      <trkpt lat="45.20029" lon="5.85792">
        <ele>664.2</ele>
        <time>2021-04-10T08:08:12Z</time>
      </trkpt>
      <trkpt lat="45.20029" lon="5.85793">
        <ele>664.2</ele>
        <time>2021-04-10T08:08:13Z</time>
      </trkpt>
      <trkpt lat="45.20028" lon="5.85795">
        <ele>664.6</ele>
        <time>2021-04-10T08:08:14Z</time>
      </trkpt>
      <trkpt lat="45.20027" lon="5.85796">
        <ele>664.8</ele>
        <time>2021-04-10T08:08:15Z</time>
      </trkpt>
      <trkpt lat="45.20026" lon="5.85798">
        <ele>665</ele>
        <time>2021-04-10T08:08:16Z</time>
      </trkpt>
      <trkpt lat="45.20025" lon="5.85799">
        <ele>665.4</ele>
        <time>2021-04-10T08:08:17Z</time>
      </trkpt>
      <trkpt lat="45.20025" lon="5.85801">
        <ele>665.6</ele>
        <time>2021-04-10T08:08:18Z</time>
      </trkpt>
      <trkpt lat="45.20024" lon="5.85803">
        <ele>666</ele>
        <time>2021-04-10T08:08:19Z</time>
      </trkpt>
      <trkpt lat="45.20023" lon="5.85803">
        <ele>666</ele>
        <time>2021-04-10T08:08:20Z</time>
      </trkpt>
      <trkpt lat="45.20022" lon="5.85803">
        <ele>666.2</ele>
        <time>2021-04-10T08:08:21Z</time>
      </trkpt>
      <trkpt lat="45.20022" lon="5.85804">
        <ele>666.2</ele>
        <time>2021-04-10T08:08:22Z</time>
      </trkpt>
      <trkpt lat="45.20021" lon="5.85804">
        <ele>666.6</ele>
        <time>2021-04-10T08:08:23Z</time>
      </trkpt>
      <trkpt lat="45.2002" lon="5.85804">
        <ele>667</ele>
        <time>2021-04-10T08:08:24Z</time>
      </trkpt>
      <trkpt lat="45.2002" lon="5.85805">
        <ele>667.2</ele>
        <time>2021-04-10T08:08:25Z</time>
      </trkpt>
      <trkpt lat="45.20019" lon="5.85805">
        <ele>667.4</ele>
        <time>2021-04-10T08:08:26Z</time>
      </trkpt>
      <trkpt lat="45.20018" lon="5.85805">
        <ele>667.8</ele>
        <time>2021-04-10T08:08:27Z</time>
      </trkpt>
      <trkpt lat="45.20017" lon="5.85806">
        <ele>667.8</ele>
        <time>2021-04-10T08:08:28Z</time>
      </trkpt>
      <trkpt lat="45.20017" lon="5.85806">
        <ele>668.2</ele>
        <time>2021-04-10T08:08:29Z</time>
      </trkpt>
      <trkpt lat="45.20016" lon="5.85806">
        <ele>668.6</ele>
        <time>2021-04-10T08:08:30Z</time>
      </trkpt>
      <trkpt lat="45.20015" lon="5.85807">
        <ele>668.8</ele>
        <time>2021-04-10T08:08:31Z</time>
      </trkpt>
      <trkpt lat="45.20015" lon="5.85807">
        <ele>669</ele>
        <time>2021-04-10T08:08:32Z</time>
      </trkpt>
      <trkpt lat="45.20014" lon="5.85807">
        <ele>669.4</ele>
        <time>2021-04-10T08:08:33Z</time>
      </trkpt>
      <trkpt lat="45.20013" lon="5.85808">
        <ele>669.6</ele>
        <time>2021-04-10T08:08:34Z</time>
      </trkpt>
      <trkpt lat="45.20012" lon="5.85808">
        <ele>669.6</ele>
        <time>2021-04-10T08:08:35Z</time>
      </trkpt>
      <trkpt lat="45.20012" lon="5.85809">
        <ele>669.6</ele>
        <time>2021-04-10T08:08:36Z</time>
      </trkpt>
      <trkpt lat="45.20011" lon="5.85809">
        <ele>670</ele>
        <time>2021-04-10T08:08:37Z</time>
      </trkpt>
      <trkpt lat="45.2001" lon="5.85809">
        <ele>670.4</ele>
        <time>2021-04-10T08:08:38Z</time>
      </trkpt>
      <trkpt lat="45.20009" lon="5.8581">
        <ele>670.6</ele>
        <time>2021-04-10T08:08:39Z</time>
      </trkpt>
      <trkpt lat="45.20009" lon="5.8581">
        <ele>670.6</ele>
        <time>2021-04-10T08:08:40Z</time>
      </trkpt>
      <trkpt lat="45.20008" lon="5.8581">
        <ele>671</ele>
        <time>2021-04-10T08:08:41Z</time>
      </trkpt>
      <trkpt lat="45.20007" lon="5.85811">
        <ele>671.4</ele>
        <time>2021-04-10T08:08:42Z</time>
      </trkpt>
      <trkpt lat="45.20007" lon="5.85811">
        <ele>671.4</ele>
        <time>2021-04-10T08:08:43Z</time>
      </trkpt>
      <trkpt lat="45.20006" lon="5.85811">
        <ele>671.6</ele>
        <time>2021-04-10T08:08:44Z</time>
      </trkpt>
      <trkpt lat="45.20005" lon="5.85812">
        <ele>671.8</ele>
        <time>2021-04-10T08:08:45Z</time>
      </trkpt>
      <trkpt lat="45.20004" lon="5.85812">
        <ele>672</ele>
        <time>2021-04-10T08:08:46Z</time>
      </trkpt>
      <trkpt lat="45.20004" lon="5.85812">
        <ele>672.2</ele>
        <time>2021-04-10T08:08:47Z</time>
      </trkpt>
      <trkpt lat="45.20003" lon="5.85813">
        <ele>672.4</ele>
        <time>2021-04-10T08:08:48Z</time>
      </trkpt>
      <trkpt lat="45.20002" lon="5.85813">
        <ele>672.8</ele>
        <time>2021-04-10T08:08:49Z</time>
      </trkpt>
      <trkpt lat="45.20001" lon="5.85813">
        <ele>672.8</ele>
        <time>2021-04-10T08:08:50Z</time>
      </trkpt>
      <trkpt lat="45.20001" lon="5.85814">
        <ele>673</ele>
        <time>2021-04-10T08:08:51Z</time>
      </trkpt>
      <trkpt lat="45.2" lon="5.85814">
        <ele>673.2</ele>
        <time>2021-04-10T08:08:52Z</time>
      </trkpt>
      <trkpt lat="45.19999" lon="5.85814">
        <ele>673.8</ele>
        <time>2021-04-10T08:08:53Z</time>
      </trkpt>
      <trkpt lat="45.19999" lon="5.85815">
        <ele>674.2</ele>
        <time>2021-04-10T08:08:54Z</time>
      </trkpt>
      <trkpt lat="45.19998" lon="5.85815">
        <ele>674.4</ele>
        <time>2021-04-10T08:08:55Z</time>
      </trkpt>
      <trkpt lat="45.19997" lon="5.85816">
        <ele>674.8</ele>
        <time>2021-04-10T08:08:56Z</time>
      </trkpt>
      <trkpt lat="45.19996" lon="5.85816">
        <ele>674.8</ele>
        <time>2021-04-10T08:08:57Z</time>
      </trkpt>
      <trkpt lat="45.19996" lon="5.85816">
        <ele>675.2</ele>
        <time>2021-04-10T08:08:58Z</time>
      </trkpt>
      <trkpt lat="45.19995" lon="5.85817">
        <ele>675.4</ele>
        <time>2021-04-10T08:08:59Z</time>
      </trkpt>
      <trkpt lat="45.19994" lon="5.85817">
        <ele>675.6</ele>
        <time>2021-04-10T08:09:00Z</time>
      </trkpt>
      <trkpt lat="45.19993" lon="5.85817">
        <ele>675.8</ele>
        <time>2021-04-10T08:09:01Z</time>
      </trkpt>
      <trkpt lat="45.19993" lon="5.85818">
        <ele>676.2</ele>
        <time>2021-04-10T08:09:02Z</time>
      </trkpt>
      <trkpt lat="45.19992" lon="5.85818">
        <ele>676.6</ele>
        <time>2021-04-10T08:09:03Z</time>
      </trkpt>
      <trkpt lat="45.19991" lon="5.85818">
        <ele>676.8</ele>
        <time>2021-04-10T08:09:04Z</time>
      </trkpt>
      <trkpt lat="45.19991" lon="5.85819">
        <ele>677.2</ele>
        <time>2021-04-10T08:09:05Z</time>
      </trkpt>
      <trkpt lat="45.1999" lon="5.85819">
        <ele>677.4</ele>
        <time>2021-04-10T08:09:06Z</time>
      </trkpt>
      <trkpt lat="45.19989" lon="5.85819">
        <ele>677.6</ele>
        <time>2021-04-10T08:09:07Z</time>
      </trkpt>
      <trkpt lat="45.19988" lon="5.8582">
        <ele>677.8</ele>
        <time>2021-04-10T08:09:08Z</time>
      </trkpt>
      <trkpt lat="45.19988" lon="5.8582">
        <ele>678.2</ele>
        <time>2021-04-10T08:09:09Z</time>
      </trkpt>
      <trkpt lat="45.19987" lon="5.8582">
        <ele>678.2</ele>
        <time>2021-04-10T08:09:10Z</time>
      </trkpt>
      <trkpt lat="45.19986" lon="5.85821">
        <ele>678.2</ele>
        <time>2021-04-10T08:09:11Z</time>
      </trkpt>
      <trkpt lat="45.19985" lon="5.85821">
        <ele>678.4</ele>
        <time>2021-04-10T08:09:12Z</time>
      </trkpt>
      <trkpt lat="45.19985" lon="5.85822">
        <ele>678.6</ele>
        <time>2021-04-10T08:09:13Z</time>
      </trkpt>
      <trkpt lat="45.19984" lon="5.85822">
        <ele>679</ele>
        <time>2021-04-10T08:09:14Z</time>
      </trkpt>
      <trkpt lat="45.19983" lon="5.85822">
        <ele>679.2</ele>
        <time>2021-04-10T08:09:15Z</time>
      </trkpt>
      <trkpt lat="45.19983" lon="5.85823">
        <ele>679.4</ele>
        <time>2021-04-10T08:09:16Z</time>
      </trkpt>
      <trkpt lat="45.19982" lon="5.85823">
        <ele>679.6</ele>
        <time>2021-04-10T08:09:17Z</time>
      </trkpt>
      <trkpt lat="45.19981" lon="5.85823">
        <ele>679.8</ele>
        <time>2021-04-10T08:09:18Z</time>
      </trkpt>
      <trkpt lat="45.1998" lon="5.85824">
        <ele>680</ele>
        <time>2021-04-10T08:09:19Z</time>
      </trkpt>
      <trkpt lat="45.1998" lon="5.85824">
        <ele>680.2</ele>
        <time>2021-04-10T08:09:20Z</time>
      </trkpt>
      <trkpt lat="45.19979" lon="5.85824">
        <ele>680.4</ele>
        <time>2021-04-10T08:09:21Z</time>
      </trkpt>
      <trkpt lat="45.19978" lon="5.85825">
        <ele>680.6</ele>
        <time>2021-04-10T08:09:22Z</time>
      </trkpt>
      <trkpt lat="45.19977" lon="5.85825">
        <ele>680.6</ele>
        <time>2021-04-10T08:09:23Z</time>
      </trkpt>
      <trkpt lat="45.19977" lon="5.85825">
        <ele>680.8</ele>
        <time>2021-04-10T08:09:24Z</time>
      </trkpt>
      <trkpt lat="45.19976" lon="5.85826">
        <ele>681</ele>
        <time>2021-04-10T08:09:25Z</time>
      </trkpt>
      <trkpt lat="45.19975" lon="5.85826">
        <ele>681</ele>
        <time>2021-04-10T08:09:26Z</time>
      </trkpt>
      <trkpt lat="45.19975" lon="5.85826">
        <ele>681.4</ele>
        <time>2021-04-10T08:09:27Z</time>
      </trkpt>
      <trkpt lat="45.19974" lon="5.85827">
        <ele>681.6</ele>
        <time>2021-04-10T08:09:28Z</time>
      </trkpt>
      <trkpt lat="45.19973" lon="5.85827">
        <ele>681.8</ele>
        <time>2021-04-10T08:09:29Z</time>
      </trkpt>
      <trkpt lat="45.19972" lon="5.85827">
        <ele>681.8</ele>
        <time>2021-04-10T08:09:30Z</time>
      </trkpt>
      <trkpt lat="45.19972" lon="5.85828">
        <ele>681.8</ele>
        <time>2021-04-10T08:09:31Z</time>
      </trkpt>
      <trkpt lat="45.19971" lon="5.85828">
        <ele>681.8</ele>
        <time>2021-04-10T08:09:32Z</time>
      </trkpt>
      <trkpt lat="45.1997" lon="5.85829">
        <ele>681.8</ele>
        <time>2021-04-10T08:09:33Z</time>
      </trkpt>
      <trkpt lat="45.19969" lon="5.85829">
        <ele>682</ele>
        <time>2021-04-10T08:09:34Z</time>
      </trkpt>
      <trkpt lat="45.19969" lon="5.85829">
        <ele>682</ele>
        <time>2021-04-10T08:09:35Z</time>
      </trkpt>
      <trkpt lat="45.19968" lon="5.8583">
        <ele>682</ele>
        <time>2021-04-10T08:09:36Z</time>
      </trkpt>
      <trkpt lat="45.19967" lon="5.8583">
        <ele>682.4</ele>
        <time>2021-04-10T08:09:37Z</time>
      </trkpt>
      <trkpt lat="45.19967" lon="5.8583">
        <ele>682.6</ele>
        <time>2021-04-10T08:09:38Z</time>
      </trkpt>
      <trkpt lat="45.19966" lon="5.85831">
        <ele>682.8</ele>
        <time>2021-04-10T08:09:39Z</time>
      </trkpt>
      <trkpt lat="45.19965" lon="5.85831">
        <ele>683</ele>
        <time>2021-04-10T08:09:40Z</time>
      </trkpt>
      <trkpt lat="45.19964" lon="5.85831">
        <ele>683.2</ele>
        <time>2021-04-10T08:09:41Z</time>
      </trkpt>
      <trkpt lat="45.19964" lon="5.85832">
        <ele>683.4</ele>
        <time>2021-04-10T08:09:42Z</time>
      </trkpt>
      <trkpt lat="45.19963" lon="5.85832">
        <ele>683.6</ele>
        <time>2021-04-10T08:09:43Z</time>
      </trkpt>
      <trkpt lat="45.19962" lon="5.85832">
        <ele>683.6</ele>
        <time>2021-04-10T08:09:44Z</time>
      </trkpt>
      <trkpt lat="45.19961" lon="5.85833">
        <ele>683.8</ele>
        <time>2021-04-10T08:09:45Z</time>
      </trkpt>
      <trkpt lat="45.19961" lon="5.85833">
        <ele>683.8</ele>
        <time>2021-04-10T08:09:46Z</time>
      </trkpt>
      <trkpt lat="45.1996" lon="5.85833">
        <ele>683.8</ele>
        <time>2021-04-10T08:09:47Z</time>
      </trkpt>
      <trkpt lat="45.19959" lon="5.85834">
        <ele>684.2</ele>
        <time>2021-04-10T08:09:48Z</time>
      </trkpt>
      <trkpt lat="45.19959" lon="5.85834">
        <ele>684.4</ele>
        <time>2021-04-10T08:09:49Z</time>
      </trkpt>
      <trkpt lat="45.19957" lon="5.85835">
        <ele>684.8</ele>
        <time>2021-04-10T08:09:50Z</time>
      </trkpt>
      <trkpt lat="45.19956" lon="5.85835">
        <ele>685</ele>
        <time>2021-04-10T08:09:51Z</time>
      </trkpt>
      <trkpt lat="45.19955" lon="5.85836">
        <ele>685.2</ele>
        <time>2021-04-10T08:09:52Z</time>
      </trkpt>
      <trkpt lat="45.19954" lon="5.85837">
        <ele>685.2</ele>
        <time>2021-04-10T08:09:53Z</time>
      </trkpt>
      <trkpt lat="45.19949" lon="5.85839">
        <ele>685.4</ele>
        <time>2021-04-10T08:09:54Z</time>
      </trkpt>
      <trkpt lat="45.19949" lon="5.85839">
        <ele>685.6</ele>
        <time>2021-04-10T08:09:55Z</time>
      </trkpt>
      <trkpt lat="45.19949" lon="5.85839">
        <ele>685.8</ele>
        <time>2021-04-10T08:09:56Z</time>
      </trkpt>
      <trkpt lat="45.19949" lon="5.85839">
        <ele>685.8</ele>
        <time>2021-04-10T08:09:57Z</time>
      </trkpt>
      <trkpt lat="45.19948" lon="5.85841">
        <ele>686</ele>
        <time>2021-04-10T08:09:58Z</time>
      </trkpt>
      <trkpt lat="45.19947" lon="5.85843">
        <ele>686</ele>
        <time>2021-04-10T08:09:59Z</time>
      </trkpt>
      <trkpt lat="45.19946" lon="5.85844">
        <ele>686.4</ele>
        <time>2021-04-10T08:10:01Z</time>
      </trkpt>
      <trkpt lat="45.19946" lon="5.85846">
        <ele>686.6</ele>
        <time>2021-04-10T08:10:02Z</time>
      </trkpt>
      <trkpt lat="45.19945" lon="5.85848">
        <ele>686.8</ele>
        <time>2021-04-10T08:10:03Z</time>
      </trkpt>
      <trkpt lat="45.19944" lon="5.8585">
        <ele>687</ele>
        <time>2021-04-10T08:10:04Z</time>
      </trkpt>
      <trkpt lat="45.19944" lon="5.85851">
        <ele>687.2</ele>
        <time>2021-04-10T08:10:05Z</time>
      </trkpt>
      <trkpt lat="45.19944" lon="5.85853">
        <ele>687.4</ele>
        <time>2021-04-10T08:10:06Z</time>
      </trkpt>
      <trkpt lat="45.19944" lon="5.85854">
        <ele>687.6</ele>
        <time>2021-04-10T08:10:07Z</time>
      </trkpt>
      <trkpt lat="45.19944" lon="5.85855">
        <ele>687.8</ele>
        <time>2021-04-10T08:10:08Z</time>
      </trkpt>
      <trkpt lat="45.19944" lon="5.85857">
        <ele>688</ele>
        <time>2021-04-10T08:10:09Z</time>
      </trkpt>
      <trkpt lat="45.19943" lon="5.85858">
        <ele>688.2</ele>
        <time>2021-04-10T08:10:10Z</time>
      </trkpt>
      <trkpt lat="45.19943" lon="5.8586">
        <ele>688.6</ele>
        <time>2021-04-10T08:10:11Z</time>
      </trkpt>
      <trkpt lat="45.19943" lon="5.85861">
        <ele>688.8</ele>
        <time>2021-04-10T08:10:12Z</time>
      </trkpt>
      <trkpt lat="45.19943" lon="5.85862">
        <ele>689.2</ele>
        <time>2021-04-10T08:10:13Z</time>
      </trkpt>
      <trkpt lat="45.19943" lon="5.85864">
        <ele>689.4</ele>
        <time>2021-04-10T08:10:14Z</time>
      </trkpt>
      <trkpt lat="45.19943" lon="5.85865">
        <ele>689.6</ele>
        <time>2021-04-10T08:10:15Z</time>
      </trkpt>
      <trkpt lat="45.19944" lon="5.85867">
        <ele>689.8</ele>
        <time>2021-04-10T08:10:16Z</time>
      </trkpt>
      <trkpt lat="45.19944" lon="5.85868">
        <ele>690</ele>
        <time>2021-04-10T08:10:17Z</time>
      </trkpt>
      <trkpt lat="45.19944" lon="5.85869">
        <ele>690.2</ele>
        <time>2021-04-10T08:10:18Z</time>
      </trkpt>
      <trkpt lat="45.19944" lon="5.85871">
        <ele>690.6</ele>
        <time>2021-04-10T08:10:19Z</time>
      </trkpt>
      <trkpt lat="45.19945" lon="5.85872">
        <ele>690.8</ele>
        <time>2021-04-10T08:10:20Z</time>
      </trkpt>
      <trkpt lat="45.19945" lon="5.85874">
        <ele>691</ele>
        <time>2021-04-10T08:10:21Z</time>
      </trkpt>
      <trkpt lat="45.19945" lon="5.85875">
        <ele>691.6</ele>
        <time>2021-04-10T08:10:22Z</time>
      </trkpt>
      <trkpt lat="45.19946" lon="5.85877">
        <ele>691.8</ele>
        <time>2021-04-10T08:10:23Z</time>
      </trkpt>
      <trkpt lat="45.19946" lon="5.85878">
        <ele>692.2</ele>
        <time>2021-04-10T08:10:24Z</time>
      </trkpt>
      <trkpt lat="45.19946" lon="5.85879">
        <ele>692.2</ele>
        <time>2021-04-10T08:10:25Z</time>
      </trkpt>
      <trkpt lat="45.19946" lon="5.8588">
        <ele>692.2</ele>
        <time>2021-04-10T08:10:26Z</time>
      </trkpt>
      <trkpt lat="45.19946" lon="5.85881">
        <ele>692.4</ele>
        <time>2021-04-10T08:10:27Z</time>
      </trkpt>
      <trkpt lat="45.19946" lon="5.85882">
        <ele>692.8</ele>
        <time>2021-04-10T08:10:28Z</time>
      </trkpt>
      <trkpt lat="45.19946" lon="5.85883">
        <ele>692.8</ele>
        <time>2021-04-10T08:10:29Z</time>
      </trkpt>
      <trkpt lat="45.19946" lon="5.85884">
        <ele>693</ele>
        <time>2021-04-10T08:10:30Z</time>
      </trkpt>
      <trkpt lat="45.19946" lon="5.85886">
        <ele>693.4</ele>
        <time>2021-04-10T08:10:31Z</time>
      </trkpt>
      <trkpt lat="45.19946" lon="5.85887">
        <ele>693.8</ele>
        <time>2021-04-10T08:10:32Z</time>
      </trkpt>
      <trkpt lat="45.19946" lon="5.85888">
        <ele>694</ele>
        <time>2021-04-10T08:10:33Z</time>
      </trkpt>
      <trkpt lat="45.19946" lon="5.85889">
        <ele>694.2</ele>
        <time>2021-04-10T08:10:34Z</time>
      </trkpt>
      <trkpt lat="45.19946" lon="5.8589">
        <ele>694.4</ele>
        <time>2021-04-10T08:10:35Z</time>
      </trkpt>
      <trkpt lat="45.19946" lon="5.85891">
        <ele>694.8</ele>
        <time>2021-04-10T08:10:36Z</time>
      </trkpt>
      <trkpt lat="45.19946" lon="5.85892">
        <ele>695</ele>
        <time>2021-04-10T08:10:37Z</time>
      </trkpt>
      <trkpt lat="45.19947" lon="5.85894">
        <ele>695.2</ele>
        <time>2021-04-10T08:10:38Z</time>
      </trkpt>
      <trkpt lat="45.19947" lon="5.85895">
        <ele>695.6</ele>
        <time>2021-04-10T08:10:39Z</time>
      </trkpt>
      <trkpt lat="45.19947" lon="5.85896">
        <ele>695.8</ele>
        <time>2021-04-10T08:10:40Z</time>
      </trkpt>
      <trkpt lat="45.19948" lon="5.85897">
        <ele>696.2</ele>
        <time>2021-04-10T08:10:41Z</time>
      </trkpt>
      <trkpt lat="45.19948" lon="5.85898">
        <ele>696.6</ele>
        <time>2021-04-10T08:10:42Z</time>
      </trkpt>
      <trkpt lat="45.19948" lon="5.85899">
        <ele>696.6</ele>
        <time>2021-04-10T08:10:43Z</time>
      </trkpt>
      <trkpt lat="45.19949" lon="5.85901">
        <ele>696.8</ele>
        <time>2021-04-10T08:10:44Z</time>
      </trkpt>
      <trkpt lat="45.19949" lon="5.85902">
        <ele>697</ele>
        <time>2021-04-10T08:10:45Z</time>
      </trkpt>
      <trkpt lat="45.19949" lon="5.85903">
        <ele>697.4</ele>
        <time>2021-04-10T08:10:46Z</time>
      </trkpt>
      <trkpt lat="45.19949" lon="5.85904">
        <ele>697.6</ele>
        <time>2021-04-10T08:10:47Z</time>
      </trkpt>
      <trkpt lat="45.1995" lon="5.85905">
        <ele>697.6</ele>
        <time>2021-04-10T08:10:48Z</time>
      </trkpt>
      <trkpt lat="45.1995" lon="5.85907">
        <ele>698</ele>
        <time>2021-04-10T08:10:49Z</time>
      </trkpt>
      <trkpt lat="45.1995" lon="5.85908">
        <ele>698.4</ele>
        <time>2021-04-10T08:10:50Z</time>
      </trkpt>
      <trkpt lat="45.1995" lon="5.85909">
        <ele>698.4</ele>
        <time>2021-04-10T08:10:51Z</time>
      </trkpt>
      <trkpt lat="45.19951" lon="5.8591">
        <ele>698.4</ele>
        <time>2021-04-10T08:10:52Z</time>
      </trkpt>
      <trkpt lat="45.19951" lon="5.85912">
        <ele>698.6</ele>
        <time>2021-04-10T08:10:53Z</time>
      </trkpt>
      <trkpt lat="45.19951" lon="5.85913">
        <ele>699</ele>
        <time>2021-04-10T08:10:54Z</time>
      </trkpt>
      <trkpt lat="45.19951" lon="5.85914">
        <ele>699.2</ele>
        <time>2021-04-10T08:10:55Z</time>
      </trkpt>
      <trkpt lat="45.19952" lon="5.85915">
        <ele>699.6</ele>
        <time>2021-04-10T08:10:56Z</time>
      </trkpt>
      <trkpt lat="45.19952" lon="5.85917">
        <ele>699.6</ele>
        <time>2021-04-10T08:10:57Z</time>
      </trkpt>
      <trkpt lat="45.19952" lon="5.85918">
        <ele>699.8</ele>
        <time>2021-04-10T08:10:58Z</time>
      </trkpt>
      <trkpt lat="45.19952" lon="5.85919">
        <ele>700.2</ele>
        <time>2021-04-10T08:10:59Z</time>
      </trkpt>
      <trkpt lat="45.19953" lon="5.85921">
        <ele>700.6</ele>
        <time>2021-04-10T08:11:00Z</time>
      </trkpt>
      <trkpt lat="45.19953" lon="5.85922">
        <ele>700.6</ele>
        <time>2021-04-10T08:11:01Z</time>
      </trkpt>
      <trkpt lat="45.19953" lon="5.85924">
        <ele>700.8</ele>
        <time>2021-04-10T08:11:02Z</time>
      </trkpt>
      <trkpt lat="45.19954" lon="5.85925">
        <ele>701</ele>
        <time>2021-04-10T08:11:03Z</time>
      </trkpt>
      <trkpt lat="45.19954" lon="5.85926">
        <ele>701.2</ele>
        <time>2021-04-10T08:11:04Z</time>
      </trkpt>
      <trkpt lat="45.19954" lon="5.85928">
        <ele>701.6</ele>
        <time>2021-04-10T08:11:05Z</time>
      </trkpt>
      <trkpt lat="45.19954" lon="5.85929">
        <ele>702</ele>
        <time>2021-04-10T08:11:06Z</time>
      </trkpt>
      <trkpt lat="45.19955" lon="5.8593">
        <ele>702.2</ele>
        <time>2021-04-10T08:11:07Z</time>
      </trkpt>
      <trkpt lat="45.19955" lon="5.85931">
        <ele>702.4</ele>
        <time>2021-04-10T08:11:08Z</time>
      </trkpt>
      <trkpt lat="45.19955" lon="5.85932">
        <ele>702.8</ele>
        <time>2021-04-10T08:11:09Z</time>
      </trkpt>
      <trkpt lat="45.19955" lon="5.85933">
        <ele>703.2</ele>
        <time>2021-04-10T08:11:10Z</time>
      </trkpt>
      <trkpt lat="45.19955" lon="5.85935">
        <ele>703.2</ele>
        <time>2021-04-10T08:11:11Z</time>
      </trkpt>
      <trkpt lat="45.19955" lon="5.85936">
        <ele>703.4</ele>
        <time>2021-04-10T08:11:12Z</time>
      </trkpt>
      <trkpt lat="45.19956" lon="5.85937">
        <ele>703.6</ele>
        <time>2021-04-10T08:11:13Z</time>
      </trkpt>
      <trkpt lat="45.19956" lon="5.85938">
        <ele>703.8</ele>
        <time>2021-04-10T08:11:14Z</time>
      </trkpt>
      <trkpt lat="45.19956" lon="5.85939">
        <ele>704</ele>
        <time>2021-04-10T08:11:15Z</time>
      </trkpt>
      <trkpt lat="45.19956" lon="5.8594">
        <ele>704.2</ele>
        <time>2021-04-10T08:11:16Z</time>
      </trkpt>
      <trkpt lat="45.19956" lon="5.85941">
        <ele>704.2</ele>
        <time>2021-04-10T08:11:17Z</time>
      </trkpt>
      <trkpt lat="45.19957" lon="5.85942">
        <ele>704.4</ele>
        <time>2021-04-10T08:11:18Z</time>
      </trkpt>
      <trkpt lat="45.19957" lon="5.85943">
        <ele>704.8</ele>
        <time>2021-04-10T08:11:19Z</time>
      </trkpt>
      <trkpt lat="45.19957" lon="5.85944">
        <ele>705</ele>
        <time>2021-04-10T08:11:20Z</time>
      </trkpt>
      <trkpt lat="45.19957" lon="5.85945">
        <ele>705.4</ele>
        <time>2021-04-10T08:11:21Z</time>
      </trkpt>
      <trkpt lat="45.19957" lon="5.85946">
        <ele>705.6</ele>
        <time>2021-04-10T08:11:22Z</time>
      </trkpt>
      <trkpt lat="45.19957" lon="5.85948">
        <ele>705.6</ele>
        <time>2021-04-10T08:11:23Z</time>
      </trkpt>
      <trkpt lat="45.19957" lon="5.85949">
        <ele>705.6</ele>
        <time>2021-04-10T08:11:24Z</time>
      </trkpt>
      <trkpt lat="45.19958" lon="5.8595">
        <ele>705.6</ele>
        <time>2021-04-10T08:11:25Z</time>
      </trkpt>
      <trkpt lat="45.19958" lon="5.85951">
        <ele>705.6</ele>
        <time>2021-04-10T08:11:26Z</time>
      </trkpt>
      <trkpt lat="45.19958" lon="5.85952">
        <ele>705.6</ele>
        <time>2021-04-10T08:11:27Z</time>
      </trkpt>
      <trkpt lat="45.19958" lon="5.85953">
        <ele>705.6</ele>
        <time>2021-04-10T08:11:28Z</time>
      </trkpt>
      <trkpt lat="45.19958" lon="5.85954">
        <ele>705.8</ele>
        <time>2021-04-10T08:11:29Z</time>
      </trkpt>
      <trkpt lat="45.19958" lon="5.85955">
        <ele>706</ele>
        <time>2021-04-10T08:11:30Z</time>
      </trkpt>
      <trkpt lat="45.19958" lon="5.85956">
        <ele>705.8</ele>
        <time>2021-04-10T08:11:31Z</time>
      </trkpt>
      <trkpt lat="45.19958" lon="5.85956">
        <ele>706</ele>
        <time>2021-04-10T08:11:32Z</time>
      </trkpt>
      <trkpt lat="45.19957" lon="5.85957">
        <ele>706.2</ele>
        <time>2021-04-10T08:11:33Z</time>
      </trkpt>
      <trkpt lat="45.19957" lon="5.85958">
        <ele>706.2</ele>
        <time>2021-04-10T08:11:34Z</time>
      </trkpt>
      <trkpt lat="45.19957" lon="5.85959">
        <ele>706.2</ele>
        <time>2021-04-10T08:11:35Z</time>
      </trkpt>
      <trkpt lat="45.19957" lon="5.85959">
        <ele>706.2</ele>
        <time>2021-04-10T08:11:36Z</time>
      </trkpt>
      <trkpt lat="45.19956" lon="5.8596">
        <ele>706.4</ele>
        <time>2021-04-10T08:11:37Z</time>
      </trkpt>
      <trkpt lat="45.19956" lon="5.85961">
        <ele>706.6</ele>
        <time>2021-04-10T08:11:38Z</time>
      </trkpt>
      <trkpt lat="45.19956" lon="5.85961">
        <ele>706.6</ele>
        <time>2021-04-10T08:11:39Z</time>
      </trkpt>
      <trkpt lat="45.19956" lon="5.85962">
        <ele>706.6</ele>
        <time>2021-04-10T08:11:40Z</time>
      </trkpt>
      <trkpt lat="45.19955" lon="5.85963">
        <ele>706.8</ele>
        <time>2021-04-10T08:11:41Z</time>
      </trkpt>
      <trkpt lat="45.19955" lon="5.85964">
        <ele>707</ele>
        <time>2021-04-10T08:11:42Z</time>
      </trkpt>
      <trkpt lat="45.19955" lon="5.85964">
        <ele>707.2</ele>
        <time>2021-04-10T08:11:43Z</time>
      </trkpt>
      <trkpt lat="45.19955" lon="5.85965">
        <ele>707.2</ele>
        <time>2021-04-10T08:11:44Z</time>
      </trkpt>
      <trkpt lat="45.19954" lon="5.85966">
        <ele>707.4</ele>
        <time>2021-04-10T08:11:45Z</time>
      </trkpt>
      <trkpt lat="45.19954" lon="5.85966">
        <ele>707.4</ele>
        <time>2021-04-10T08:11:46Z</time>
      </trkpt>
      <trkpt lat="45.19954" lon="5.85967">
        <ele>707.4</ele>
        <time>2021-04-10T08:11:47Z</time>
      </trkpt>
      <trkpt lat="45.19954" lon="5.85967">
        <ele>707.4</ele>
        <time>2021-04-10T08:11:48Z</time>
      </trkpt>
      <trkpt lat="45.19954" lon="5.85967">
        <ele>707.4</ele>
        <time>2021-04-10T08:11:49Z</time>
      </trkpt>
      <trkpt lat="45.19953" lon="5.8597">
        <ele>707.4</ele>
        <time>2021-04-10T08:11:50Z</time>
      </trkpt>
      <trkpt lat="45.19953" lon="5.8597">
        <ele>707.4</ele>
        <time>2021-04-10T08:11:51Z</time>
      </trkpt>
      <trkpt lat="45.19953" lon="5.8597">
        <ele>707.4</ele>
        <time>2021-04-10T08:11:52Z</time>
      </trkpt>
      <trkpt lat="45.19953" lon="5.8597">
        <ele>707.6</ele>
        <time>2021-04-10T08:11:53Z</time>
      </trkpt>
      <trkpt lat="45.19953" lon="5.85971">
        <ele>707.6</ele>
        <time>2021-04-10T08:11:54Z</time>
      </trkpt>
      <trkpt lat="45.19954" lon="5.85971">
        <ele>707.4</ele>
        <time>2021-04-10T08:11:55Z</time>
      </trkpt>
      <trkpt lat="45.19954" lon="5.85972">
        <ele>707.4</ele>
        <time>2021-04-10T08:11:56Z</time>
      </trkpt>
      <trkpt lat="45.19954" lon="5.85973">
        <ele>707.4</ele>
        <time>2021-04-10T08:11:57Z</time>
      </trkpt>
      <trkpt lat="45.19954" lon="5.85973">
        <ele>707.4</ele>
        <time>2021-04-10T08:11:58Z</time>
      </trkpt>
      <trkpt lat="45.19954" lon="5.85974">
        <ele>707.4</ele>
        <time>2021-04-10T08:11:59Z</time>
      </trkpt>
      <trkpt lat="45.19954" lon="5.85975">
        <ele>707.4</ele>
        <time>2021-04-10T08:12:00Z</time>
      </trkpt>
      <trkpt lat="45.19954" lon="5.85976">
        <ele>707.4</ele>
        <time>2021-04-10T08:12:01Z</time>
      </trkpt>
      <trkpt lat="45.19954" lon="5.85976">
        <ele>707.6</ele>
        <time>2021-04-10T08:12:02Z</time>
      </trkpt>
      <trkpt lat="45.19954" lon="5.85977">
        <ele>707.6</ele>
        <time>2021-04-10T08:12:03Z</time>
      </trkpt>
      <trkpt lat="45.19954" lon="5.85978">
        <ele>707.6</ele>
        <time>2021-04-10T08:12:04Z</time>
      </trkpt>
      <trkpt lat="45.19955" lon="5.85979">
        <ele>707.6</ele>
        <time>2021-04-10T08:12:05Z</time>
      </trkpt>
      <trkpt lat="45.19955" lon="5.8598">
        <ele>707.8</ele>
        <time>2021-04-10T08:12:06Z</time>
      </trkpt>
      <trkpt lat="45.19956" lon="5.85982">
        <ele>707.8</ele>
        <time>2021-04-10T08:12:07Z</time>
      </trkpt>
      <trkpt lat="45.19956" lon="5.85983">
        <ele>707.8</ele>
        <time>2021-04-10T08:12:08Z</time>
      </trkpt>
      <trkpt lat="45.19956" lon="5.85984">
        <ele>707.8</ele>
        <time>2021-04-10T08:12:09Z</time>
      </trkpt>
      <trkpt lat="45.19957" lon="5.85986">
        <ele>708</ele>
        <time>2021-04-10T08:12:10Z</time>
      </trkpt>
      <trkpt lat="45.19957" lon="5.85987">
        <ele>708</ele>
        <time>2021-04-10T08:12:11Z</time>
      </trkpt>
      <trkpt lat="45.19958" lon="5.85988">
        <ele>708</ele>
        <time>2021-04-10T08:12:12Z</time>
      </trkpt>
      <trkpt lat="45.19958" lon="5.8599">
        <ele>708.2</ele>
        <time>2021-04-10T08:12:13Z</time>
      </trkpt>
      <trkpt lat="45.19959" lon="5.85992">
        <ele>708.4</ele>
        <time>2021-04-10T08:12:14Z</time>
      </trkpt>
      <trkpt lat="45.19959" lon="5.85995">
        <ele>708.4</ele>
        <time>2021-04-10T08:12:15Z</time>
      </trkpt>
      <trkpt lat="45.1996" lon="5.85997">
        <ele>708.6</ele>
        <time>2021-04-10T08:12:16Z</time>
      </trkpt>
      <trkpt lat="45.19961" lon="5.86">
        <ele>708.6</ele>
        <time>2021-04-10T08:12:17Z</time>
      </trkpt>
      <trkpt lat="45.19962" lon="5.86002">
        <ele>708.8</ele>
        <time>2021-04-10T08:12:18Z</time>
      </trkpt>
      <trkpt lat="45.19962" lon="5.86005">
        <ele>709</ele>
        <time>2021-04-10T08:12:19Z</time>
      </trkpt>
      <trkpt lat="45.19963" lon="5.86007">
        <ele>709.2</ele>
        <time>2021-04-10T08:12:20Z</time>
      </trkpt>
      <trkpt lat="45.19964" lon="5.86012">
        <ele>709.4</ele>
        <time>2021-04-10T08:12:21Z</time>
      </trkpt>
      <trkpt lat="45.19964" lon="5.86012">
        <ele>709.4</ele>
        <time>2021-04-10T08:12:22Z</time>
      </trkpt>
      <trkpt lat="45.19964" lon="5.86012">
        <ele>709.4</ele>
        <time>2021-04-10T08:12:23Z</time>
      </trkpt>
      <trkpt lat="45.19964" lon="5.86012">
        <ele>709.8</ele>
        <time>2021-04-10T08:12:24Z</time>
      </trkpt>
      <trkpt lat="45.19964" lon="5.86015">
        <ele>709.8</ele>
        <time>2021-04-10T08:12:25Z</time>
      </trkpt>
      <trkpt lat="45.19964" lon="5.86018">
        <ele>709.8</ele>
        <time>2021-04-10T08:12:26Z</time>
      </trkpt>
      <trkpt lat="45.19965" lon="5.86021">
        <ele>710</ele>
        <time>2021-04-10T08:12:27Z</time>
      </trkpt>
      <trkpt lat="45.19965" lon="5.86023">
        <ele>710</ele>
        <time>2021-04-10T08:12:28Z</time>
      </trkpt>
      <trkpt lat="45.19966" lon="5.86026">
        <ele>710</ele>
        <time>2021-04-10T08:12:29Z</time>
      </trkpt>
      <trkpt lat="45.19966" lon="5.86029">
        <ele>710.2</ele>
        <time>2021-04-10T08:12:30Z</time>
      </trkpt>
      <trkpt lat="45.19966" lon="5.86032">
        <ele>710.2</ele>
        <time>2021-04-10T08:12:31Z</time>
      </trkpt>
      <trkpt lat="45.19966" lon="5.86034">
        <ele>710.4</ele>
        <time>2021-04-10T08:12:32Z</time>
      </trkpt>
      <trkpt lat="45.19967" lon="5.86037">
        <ele>710.4</ele>
        <time>2021-04-10T08:12:33Z</time>
      </trkpt>
      <trkpt lat="45.19967" lon="5.8604">
        <ele>710.6</ele>
        <time>2021-04-10T08:12:34Z</time>
      </trkpt>
      <trkpt lat="45.19967" lon="5.86042">
        <ele>710.8</ele>
        <time>2021-04-10T08:12:35Z</time>
      </trkpt>
      <trkpt lat="45.19967" lon="5.86042">
        <ele>711</ele>
        <time>2021-04-10T08:12:36Z</time>
      </trkpt>
      <trkpt lat="45.19967" lon="5.86045">
        <ele>711.6</ele>
        <time>2021-04-10T08:12:37Z</time>
      </trkpt>
      <trkpt lat="45.19967" lon="5.86045">
        <ele>712</ele>
        <time>2021-04-10T08:12:38Z</time>
      </trkpt>
      <trkpt lat="45.19967" lon="5.86048">
        <ele>712.2</ele>
        <time>2021-04-10T08:12:39Z</time>
      </trkpt>
      <trkpt lat="45.19967" lon="5.86048">
        <ele>712</ele>
        <time>2021-04-10T08:12:40Z</time>
      </trkpt>
      <trkpt lat="45.19967" lon="5.86048">
        <ele>712.6</ele>
        <time>2021-04-10T08:12:41Z</time>
      </trkpt>
      <trkpt lat="45.19967" lon="5.86048">
        <ele>712.8</ele>
        <time>2021-04-10T08:12:42Z</time>
      </trkpt>
      <trkpt lat="45.19967" lon="5.86051">
        <ele>713</ele>
        <time>2021-04-10T08:12:43Z</time>
      </trkpt>
      <trkpt lat="45.19967" lon="5.86054">
        <ele>713</ele>
        <time>2021-04-10T08:12:44Z</time>
      </trkpt>
      <trkpt lat="45.19968" lon="5.86056">
        <ele>713.2</ele>
        <time>2021-04-10T08:12:45Z</time>
      </trkpt>
      <trkpt lat="45.19968" lon="5.86059">
        <ele>713.2</ele>
        <time>2021-04-10T08:12:46Z</time>
      </trkpt>
      <trkpt lat="45.19968" lon="5.86061">
        <ele>713.2</ele>
        <time>2021-04-10T08:12:47Z</time>
      </trkpt>
      <trkpt lat="45.19969" lon="5.86062">
        <ele>713.4</ele>
        <time>2021-04-10T08:12:48Z</time>
      </trkpt>
      <trkpt lat="45.19969" lon="5.86064">
        <ele>713.6</ele>
        <time>2021-04-10T08:12:49Z</time>
      </trkpt>
      <trkpt lat="45.19969" lon="5.86065">
        <ele>713.8</ele>
        <time>2021-04-10T08:12:50Z</time>
      </trkpt>
      <trkpt lat="45.1997" lon="5.86066">
        <ele>713.8</ele>
        <time>2021-04-10T08:12:51Z</time>
      </trkpt>
      <trkpt lat="45.1997" lon="5.86067">
        <ele>714.2</ele>
        <time>2021-04-10T08:12:52Z</time>
      </trkpt>
      <trkpt lat="45.1997" lon="5.86067">
        <ele>714.4</ele>
        <time>2021-04-10T08:12:53Z</time>
      </trkpt>
      <trkpt lat="45.1997" lon="5.86067">
        <ele>714.6</ele>
        <time>2021-04-10T08:12:54Z</time>
      </trkpt>
      <trkpt lat="45.1997" lon="5.86067">
        <ele>714.8</ele>
        <time>2021-04-10T08:12:55Z</time>
      </trkpt>
      <trkpt lat="45.1997" lon="5.86071">
        <ele>714.8</ele>
        <time>2021-04-10T08:12:56Z</time>
      </trkpt>
      <trkpt lat="45.1997" lon="5.86075">
        <ele>715</ele>
        <time>2021-04-10T08:12:57Z</time>
      </trkpt>
      <trkpt lat="45.1997" lon="5.86078">
        <ele>715.2</ele>
        <time>2021-04-10T08:12:58Z</time>
      </trkpt>
      <trkpt lat="45.1997" lon="5.86082">
        <ele>715.6</ele>
        <time>2021-04-10T08:12:59Z</time>
      </trkpt>
      <trkpt lat="45.19971" lon="5.86086">
        <ele>715.8</ele>
        <time>2021-04-10T08:13:00Z</time>
      </trkpt>
      <trkpt lat="45.19971" lon="5.8609">
        <ele>715.8</ele>
        <time>2021-04-10T08:13:01Z</time>
      </trkpt>
      <trkpt lat="45.19971" lon="5.86092">
        <ele>716</ele>
        <time>2021-04-10T08:13:02Z</time>
      </trkpt>
      <trkpt lat="45.19972" lon="5.86093">
        <ele>716.4</ele>
        <time>2021-04-10T08:13:03Z</time>
      </trkpt>
      <trkpt lat="45.19972" lon="5.86095">
        <ele>716.6</ele>
        <time>2021-04-10T08:13:04Z</time>
      </trkpt>
      <trkpt lat="45.19972" lon="5.86097">
        <ele>716.8</ele>
        <time>2021-04-10T08:13:05Z</time>
      </trkpt>
      <trkpt lat="45.19973" lon="5.86099">
        <ele>717</ele>
        <time>2021-04-10T08:13:06Z</time>
      </trkpt>
      <trkpt lat="45.19973" lon="5.86101">
        <ele>717.2</ele>
        <time>2021-04-10T08:13:07Z</time>
      </trkpt>
      <trkpt lat="45.19974" lon="5.86102">
        <ele>717.4</ele>
        <time>2021-04-10T08:13:08Z</time>
      </trkpt>
      <trkpt lat="45.19974" lon="5.86104">
        <ele>717.6</ele>
        <time>2021-04-10T08:13:09Z</time>
      </trkpt>
      <trkpt lat="45.19974" lon="5.86105">
        <ele>717.8</ele>
        <time>2021-04-10T08:13:10Z</time>
      </trkpt>
      <trkpt lat="45.19974" lon="5.86106">
        <ele>718.2</ele>
        <time>2021-04-10T08:13:11Z</time>
      </trkpt>
      <trkpt lat="45.19974" lon="5.86107">
        <ele>718.8</ele>
        <time>2021-04-10T08:13:12Z</time>
      </trkpt>
      <trkpt lat="45.19975" lon="5.86109">
        <ele>719.2</ele>
        <time>2021-04-10T08:13:13Z</time>
      </trkpt>
      <trkpt lat="45.19975" lon="5.8611">
        <ele>719.4</ele>
        <time>2021-04-10T08:13:14Z</time>
      </trkpt>
      <trkpt lat="45.19975" lon="5.86111">
        <ele>719.6</ele>
        <time>2021-04-10T08:13:15Z</time>
      </trkpt>
      <trkpt lat="45.19975" lon="5.86113">
        <ele>720</ele>
        <time>2021-04-10T08:13:16Z</time>
      </trkpt>
      <trkpt lat="45.19975" lon="5.86114">
        <ele>720.2</ele>
        <time>2021-04-10T08:13:17Z</time>
      </trkpt>
      <trkpt lat="45.19975" lon="5.86115">
        <ele>720.2</ele>
        <time>2021-04-10T08:13:18Z</time>
      </trkpt>
      <trkpt lat="45.19976" lon="5.86116">
        <ele>720.6</ele>
        <time>2021-04-10T08:13:19Z</time>
      </trkpt>
      <trkpt lat="45.19976" lon="5.86117">
        <ele>720.8</ele>
        <time>2021-04-10T08:13:20Z</time>
      </trkpt>
      <trkpt lat="45.19976" lon="5.86118">
        <ele>721.2</ele>
        <time>2021-04-10T08:13:21Z</time>
      </trkpt>
      <trkpt lat="45.19976" lon="5.86119">
        <ele>721.6</ele>
        <time>2021-04-10T08:13:22Z</time>
      </trkpt>
      <trkpt lat="45.19976" lon="5.8612">
        <ele>721.8</ele>
        <time>2021-04-10T08:13:23Z</time>
      </trkpt>
      <trkpt lat="45.19976" lon="5.86121">
        <ele>722</ele>
        <time>2021-04-10T08:13:24Z</time>
      </trkpt>
      <trkpt lat="45.19976" lon="5.86122">
        <ele>722</ele>
        <time>2021-04-10T08:13:25Z</time>
      </trkpt>
      <trkpt lat="45.19976" lon="5.86123">
        <ele>722.4</ele>
        <time>2021-04-10T08:13:26Z</time>
      </trkpt>
      <trkpt lat="45.19976" lon="5.86124">
        <ele>722.6</ele>
        <time>2021-04-10T08:13:27Z</time>
      </trkpt>
      <trkpt lat="45.19976" lon="5.86125">
        <ele>723</ele>
        <time>2021-04-10T08:13:28Z</time>
      </trkpt>
      <trkpt lat="45.19977" lon="5.86126">
        <ele>723.4</ele>
        <time>2021-04-10T08:13:29Z</time>
      </trkpt>
      <trkpt lat="45.19977" lon="5.86127">
        <ele>723.6</ele>
        <time>2021-04-10T08:13:30Z</time>
      </trkpt>
      <trkpt lat="45.19977" lon="5.86128">
        <ele>723.8</ele>
        <time>2021-04-10T08:13:31Z</time>
      </trkpt>
      <trkpt lat="45.19977" lon="5.86129">
        <ele>724</ele>
        <time>2021-04-10T08:13:32Z</time>
      </trkpt>
      <trkpt lat="45.19977" lon="5.86131">
        <ele>724.2</ele>
        <time>2021-04-10T08:13:33Z</time>
      </trkpt>
      <trkpt lat="45.19978" lon="5.86132">
        <ele>724.2</ele>
        <time>2021-04-10T08:13:34Z</time>
      </trkpt>
      <trkpt lat="45.19978" lon="5.86134">
        <ele>724.6</ele>
        <time>2021-04-10T08:13:35Z</time>
      </trkpt>
      <trkpt lat="45.19979" lon="5.86135">
        <ele>725</ele>
        <time>2021-04-10T08:13:36Z</time>
      </trkpt>
      <trkpt lat="45.19979" lon="5.86136">
        <ele>725.2</ele>
        <time>2021-04-10T08:13:37Z</time>
      </trkpt>
      <trkpt lat="45.1998" lon="5.86138">
        <ele>725.4</ele>
        <time>2021-04-10T08:13:38Z</time>
      </trkpt>
      <trkpt lat="45.1998" lon="5.86139">
        <ele>725.8</ele>
        <time>2021-04-10T08:13:39Z</time>
      </trkpt>
      <trkpt lat="45.19981" lon="5.86141">
        <ele>726.2</ele>
        <time>2021-04-10T08:13:40Z</time>
      </trkpt>
      <trkpt lat="45.19981" lon="5.86142">
        <ele>726.4</ele>
        <time>2021-04-10T08:13:41Z</time>
      </trkpt>
      <trkpt lat="45.19981" lon="5.86143">
        <ele>726.4</ele>
        <time>2021-04-10T08:13:42Z</time>
      </trkpt>
      <trkpt lat="45.19981" lon="5.86144">
        <ele>726.8</ele>
        <time>2021-04-10T08:13:43Z</time>
      </trkpt>
      <trkpt lat="45.19981" lon="5.86146">
        <ele>727</ele>
        <time>2021-04-10T08:13:44Z</time>
      </trkpt>
      <trkpt lat="45.19981" lon="5.86147">
        <ele>727.2</ele>
        <time>2021-04-10T08:13:45Z</time>
      </trkpt>
      <trkpt lat="45.19981" lon="5.86148">
        <ele>727.6</ele>
        <time>2021-04-10T08:13:46Z</time>
      </trkpt>
      <trkpt lat="45.19981" lon="5.86149">
        <ele>728</ele>
        <time>2021-04-10T08:13:47Z</time>
      </trkpt>
      <trkpt lat="45.19981" lon="5.8615">
        <ele>728</ele>
        <time>2021-04-10T08:13:48Z</time>
      </trkpt>
      <trkpt lat="45.19981" lon="5.86152">
        <ele>728.2</ele>
        <time>2021-04-10T08:13:49Z</time>
      </trkpt>
      <trkpt lat="45.19982" lon="5.86153">
        <ele>728.4</ele>
        <time>2021-04-10T08:13:50Z</time>
      </trkpt>
      <trkpt lat="45.19982" lon="5.86154">
        <ele>728.6</ele>
        <time>2021-04-10T08:13:51Z</time>
      </trkpt>
      <trkpt lat="45.19982" lon="5.86155">
        <ele>728.8</ele>
        <time>2021-04-10T08:13:52Z</time>
      </trkpt>
      <trkpt lat="45.19982" lon="5.86156">
        <ele>729.2</ele>
        <time>2021-04-10T08:13:53Z</time>
      </trkpt>
      <trkpt lat="45.19982" lon="5.86157">
        <ele>729.4</ele>
        <time>2021-04-10T08:13:54Z</time>
      </trkpt>
      <trkpt lat="45.19982" lon="5.86157">
        <ele>729.8</ele>
        <time>2021-04-10T08:13:55Z</time>
      </trkpt>
      <trkpt lat="45.19983" lon="5.86158">
        <ele>730</ele>
        <time>2021-04-10T08:13:56Z</time>
      </trkpt>
      <trkpt lat="45.19983" lon="5.86159">
        <ele>730.2</ele>
        <time>2021-04-10T08:13:57Z</time>
      </trkpt>
      <trkpt lat="45.19983" lon="5.8616">
        <ele>730.4</ele>
        <time>2021-04-10T08:13:58Z</time>
      </trkpt>
      <trkpt lat="45.19983" lon="5.86161">
        <ele>730.8</ele>
        <time>2021-04-10T08:13:59Z</time>
      </trkpt>
      <trkpt lat="45.19983" lon="5.86162">
        <ele>730.8</ele>
        <time>2021-04-10T08:14:00Z</time>
      </trkpt>
      <trkpt lat="45.19983" lon="5.86163">
        <ele>731.2</ele>
        <time>2021-04-10T08:14:01Z</time>
      </trkpt>
      <trkpt lat="45.19984" lon="5.86164">
        <ele>731.4</ele>
        <time>2021-04-10T08:14:02Z</time>
      </trkpt>
      <trkpt lat="45.19984" lon="5.86165">
        <ele>731.6</ele>
        <time>2021-04-10T08:14:03Z</time>
      </trkpt>
      <trkpt lat="45.19984" lon="5.86165">
        <ele>731.8</ele>
        <time>2021-04-10T08:14:04Z</time>
      </trkpt>
      <trkpt lat="45.19984" lon="5.86166">
        <ele>732</ele>
        <time>2021-04-10T08:14:05Z</time>
      </trkpt>
      <trkpt lat="45.19984" lon="5.86167">
        <ele>732.2</ele>
        <time>2021-04-10T08:14:06Z</time>
      </trkpt>
      <trkpt lat="45.19984" lon="5.86167">
        <ele>732.6</ele>
        <time>2021-04-10T08:14:07Z</time>
      </trkpt>
      <trkpt lat="45.19984" lon="5.86168">
        <ele>732.6</ele>
        <time>2021-04-10T08:14:08Z</time>
      </trkpt>
      <trkpt lat="45.19984" lon="5.86168">
        <ele>732.8</ele>
        <time>2021-04-10T08:14:09Z</time>
      </trkpt>
      <trkpt lat="45.19984" lon="5.86168">
        <ele>733</ele>
        <time>2021-04-10T08:14:10Z</time>
      </trkpt>
      <trkpt lat="45.19984" lon="5.86169">
        <ele>733</ele>
        <time>2021-04-10T08:14:11Z</time>
      </trkpt>
      <trkpt lat="45.19984" lon="5.86169">
        <ele>733.2</ele>
        <time>2021-04-10T08:14:12Z</time>
      </trkpt>
      <trkpt lat="45.19984" lon="5.8617">
        <ele>733.4</ele>
        <time>2021-04-10T08:14:13Z</time>
      </trkpt>
      <trkpt lat="45.19983" lon="5.8617">
        <ele>733.8</ele>
        <time>2021-04-10T08:14:14Z</time>
      </trkpt>
      <trkpt lat="45.19983" lon="5.86171">
        <ele>734.2</ele>
        <time>2021-04-10T08:14:15Z</time>
      </trkpt>
      <trkpt lat="45.19983" lon="5.86171">
        <ele>734.2</ele>
        <time>2021-04-10T08:14:16Z</time>
      </trkpt>
      <trkpt lat="45.19983" lon="5.86171">
        <ele>734.2</ele>
        <time>2021-04-10T08:14:17Z</time>
      </trkpt>
      <trkpt lat="45.19983" lon="5.86172">
        <ele>734</ele>
        <time>2021-04-10T08:14:18Z</time>
      </trkpt>
      <trkpt lat="45.19983" lon="5.86172">
        <ele>734.4</ele>
        <time>2021-04-10T08:14:19Z</time>
      </trkpt>
      <trkpt lat="45.19983" lon="5.86173">
        <ele>734.4</ele>
        <time>2021-04-10T08:14:20Z</time>
      </trkpt>
      <trkpt lat="45.19983" lon="5.86173">
        <ele>734.4</ele>
        <time>2021-04-10T08:14:21Z</time>
      </trkpt>
      <trkpt lat="45.19983" lon="5.86174">
        <ele>734.6</ele>
        <time>2021-04-10T08:14:22Z</time>
      </trkpt>
      <trkpt lat="45.19983" lon="5.86174">
        <ele>734.6</ele>
        <time>2021-04-10T08:14:23Z</time>
      </trkpt>
      <trkpt lat="45.19983" lon="5.86174">
        <ele>734.8</ele>
        <time>2021-04-10T08:14:24Z</time>
      </trkpt>
      <trkpt lat="45.19983" lon="5.86175">
        <ele>734.8</ele>
        <time>2021-04-10T08:14:25Z</time>
      </trkpt>
      <trkpt lat="45.19983" lon="5.86175">
        <ele>734.6</ele>
        <time>2021-04-10T08:14:26Z</time>
      </trkpt>
      <trkpt lat="45.19983" lon="5.86176">
        <ele>734.4</ele>
        <time>2021-04-10T08:14:27Z</time>
      </trkpt>
      <trkpt lat="45.19983" lon="5.86176">
        <ele>734.4</ele>
        <time>2021-04-10T08:14:28Z</time>
      </trkpt>
      <trkpt lat="45.19982" lon="5.86177">
        <ele>734.4</ele>
        <time>2021-04-10T08:14:29Z</time>
      </trkpt>
      <trkpt lat="45.19982" lon="5.86177">
        <ele>734.4</ele>
        <time>2021-04-10T08:14:30Z</time>
      </trkpt>
      <trkpt lat="45.19982" lon="5.86177">
        <ele>734.4</ele>
        <time>2021-04-10T08:14:31Z</time>
      </trkpt>
      <trkpt lat="45.19982" lon="5.86178">
        <ele>734.6</ele>
        <time>2021-04-10T08:14:32Z</time>
      </trkpt>
      <trkpt lat="45.19982" lon="5.86178">
        <ele>734.8</ele>
        <time>2021-04-10T08:14:33Z</time>
      </trkpt>
      <trkpt lat="45.19982" lon="5.86179">
        <ele>735</ele>
        <time>2021-04-10T08:14:34Z</time>
      </trkpt>
      <trkpt lat="45.19982" lon="5.86179">
        <ele>735.4</ele>
        <time>2021-04-10T08:14:35Z</time>
      </trkpt>
      <trkpt lat="45.19982" lon="5.8618">
        <ele>735.6</ele>
        <time>2021-04-10T08:14:36Z</time>
      </trkpt>
      <trkpt lat="45.19981" lon="5.86182">
        <ele>735.8</ele>
        <time>2021-04-10T08:14:37Z</time>
      </trkpt>
      <trkpt lat="45.19981" lon="5.86183">
        <ele>736</ele>
        <time>2021-04-10T08:14:38Z</time>
      </trkpt>
      <trkpt lat="45.19981" lon="5.86184">
        <ele>736.2</ele>
        <time>2021-04-10T08:14:39Z</time>
      </trkpt>
      <trkpt lat="45.1998" lon="5.86186">
        <ele>736.2</ele>
        <time>2021-04-10T08:14:40Z</time>
      </trkpt>
      <trkpt lat="45.1998" lon="5.86187">
        <ele>736.4</ele>
        <time>2021-04-10T08:14:41Z</time>
      </trkpt>
      <trkpt lat="45.1998" lon="5.86188">
        <ele>736.6</ele>
        <time>2021-04-10T08:14:42Z</time>
      </trkpt>
      <trkpt lat="45.19979" lon="5.86189">
        <ele>736.8</ele>
        <time>2021-04-10T08:14:43Z</time>
      </trkpt>
      <trkpt lat="45.19979" lon="5.86191">
        <ele>737</ele>
        <time>2021-04-10T08:14:44Z</time>
      </trkpt>
      <trkpt lat="45.19979" lon="5.86192">
        <ele>737.2</ele>
        <time>2021-04-10T08:14:45Z</time>
      </trkpt>
      <trkpt lat="45.19978" lon="5.86193">
        <ele>737.4</ele>
        <time>2021-04-10T08:14:46Z</time>
      </trkpt>
      <trkpt lat="45.19978" lon="5.86195">
        <ele>737.6</ele>
        <time>2021-04-10T08:14:47Z</time>
      </trkpt>
      <trkpt lat="45.19978" lon="5.86196">
        <ele>737.6</ele>
        <time>2021-04-10T08:14:48Z</time>
      </trkpt>
      <trkpt lat="45.19978" lon="5.86198">
        <ele>738</ele>
        <time>2021-04-10T08:14:49Z</time>
      </trkpt>
      <trkpt lat="45.19978" lon="5.86199">
        <ele>738</ele>
        <time>2021-04-10T08:14:50Z</time>
      </trkpt>
      <trkpt lat="45.19977" lon="5.86201">
        <ele>738.2</ele>
        <time>2021-04-10T08:14:51Z</time>
      </trkpt>
      <trkpt lat="45.19977" lon="5.86202">
        <ele>738.4</ele>
        <time>2021-04-10T08:14:52Z</time>
      </trkpt>
      <trkpt lat="45.19977" lon="5.86204">
        <ele>738.8</ele>
        <time>2021-04-10T08:14:53Z</time>
      </trkpt>
      <trkpt lat="45.19977" lon="5.86205">
        <ele>739</ele>
        <time>2021-04-10T08:14:54Z</time>
      </trkpt>
      <trkpt lat="45.19978" lon="5.86206">
        <ele>739.4</ele>
        <time>2021-04-10T08:14:55Z</time>
      </trkpt>
      <trkpt lat="45.19978" lon="5.86208">
        <ele>739.8</ele>
        <time>2021-04-10T08:14:56Z</time>
      </trkpt>
      <trkpt lat="45.19979" lon="5.86209">
        <ele>740</ele>
        <time>2021-04-10T08:14:57Z</time>
      </trkpt>
      <trkpt lat="45.1998" lon="5.8621">
        <ele>740.2</ele>
        <time>2021-04-10T08:14:58Z</time>
      </trkpt>
      <trkpt lat="45.1998" lon="5.86211">
        <ele>740.4</ele>
        <time>2021-04-10T08:14:59Z</time>
      </trkpt>
      <trkpt lat="45.19981" lon="5.86213">
        <ele>740.4</ele>
        <time>2021-04-10T08:15:00Z</time>
      </trkpt>
      <trkpt lat="45.19981" lon="5.86214">
        <ele>740.8</ele>
        <time>2021-04-10T08:15:01Z</time>
      </trkpt>
      <trkpt lat="45.19982" lon="5.86215">
        <ele>741</ele>
        <time>2021-04-10T08:15:02Z</time>
      </trkpt>
      <trkpt lat="45.19983" lon="5.86216">
        <ele>741.4</ele>
        <time>2021-04-10T08:15:03Z</time>
      </trkpt>
      <trkpt lat="45.19983" lon="5.86217">
        <ele>741.8</ele>
        <time>2021-04-10T08:15:04Z</time>
      </trkpt>
      <trkpt lat="45.19984" lon="5.86218">
        <ele>742.2</ele>
        <time>2021-04-10T08:15:05Z</time>
      </trkpt>
      <trkpt lat="45.19984" lon="5.86219">
        <ele>742.2</ele>
        <time>2021-04-10T08:15:06Z</time>
      </trkpt>
      <trkpt lat="45.19985" lon="5.8622">
        <ele>742.6</ele>
        <time>2021-04-10T08:15:07Z</time>
      </trkpt>
      <trkpt lat="45.19985" lon="5.86221">
        <ele>743</ele>
        <time>2021-04-10T08:15:08Z</time>
      </trkpt>
      <trkpt lat="45.19985" lon="5.86222">
        <ele>743.2</ele>
        <time>2021-04-10T08:15:09Z</time>
      </trkpt>
      <trkpt lat="45.19986" lon="5.86223">
        <ele>743.6</ele>
        <time>2021-04-10T08:15:10Z</time>
      </trkpt>
      <trkpt lat="45.19986" lon="5.86223">
        <ele>743.8</ele>
        <time>2021-04-10T08:15:11Z</time>
      </trkpt>
      <trkpt lat="45.19987" lon="5.86224">
        <ele>744.4</ele>
        <time>2021-04-10T08:15:12Z</time>
      </trkpt>
      <trkpt lat="45.19987" lon="5.86225">
        <ele>744.6</ele>
        <time>2021-04-10T08:15:13Z</time>
      </trkpt>
      <trkpt lat="45.19988" lon="5.86226">
        <ele>744.8</ele>
        <time>2021-04-10T08:15:14Z</time>
      </trkpt>
      <trkpt lat="45.19988" lon="5.86227">
        <ele>745</ele>
        <time>2021-04-10T08:15:15Z</time>
      </trkpt>
      <trkpt lat="45.19988" lon="5.86228">
        <ele>745.2</ele>
        <time>2021-04-10T08:15:16Z</time>
      </trkpt>
      <trkpt lat="45.19988" lon="5.86228">
        <ele>745.4</ele>
        <time>2021-04-10T08:15:17Z</time>
      </trkpt>
      <trkpt lat="45.19989" lon="5.86229">
        <ele>745.6</ele>
        <time>2021-04-10T08:15:18Z</time>
      </trkpt>
      <trkpt lat="45.19989" lon="5.8623">
        <ele>745.8</ele>
        <time>2021-04-10T08:15:19Z</time>
      </trkpt>
      <trkpt lat="45.19989" lon="5.86231">
        <ele>746.2</ele>
        <time>2021-04-10T08:15:20Z</time>
      </trkpt>
      <trkpt lat="45.19989" lon="5.86231">
        <ele>746.4</ele>
        <time>2021-04-10T08:15:21Z</time>
      </trkpt>
      <trkpt lat="45.19989" lon="5.86232">
        <ele>746.8</ele>
        <time>2021-04-10T08:15:22Z</time>
      </trkpt>
      <trkpt lat="45.19989" lon="5.86233">
        <ele>747</ele>
        <time>2021-04-10T08:15:23Z</time>
      </trkpt>
      <trkpt lat="45.19989" lon="5.86233">
        <ele>747.4</ele>
        <time>2021-04-10T08:15:24Z</time>
      </trkpt>
      <trkpt lat="45.1999" lon="5.86234">
        <ele>747.6</ele>
        <time>2021-04-10T08:15:25Z</time>
      </trkpt>
      <trkpt lat="45.1999" lon="5.86235">
        <ele>747.8</ele>
        <time>2021-04-10T08:15:26Z</time>
      </trkpt>
      <trkpt lat="45.1999" lon="5.86235">
        <ele>748.2</ele>
        <time>2021-04-10T08:15:27Z</time>
      </trkpt>
      <trkpt lat="45.1999" lon="5.86236">
        <ele>748.4</ele>
        <time>2021-04-10T08:15:28Z</time>
      </trkpt>
      <trkpt lat="45.1999" lon="5.86237">
        <ele>748.6</ele>
        <time>2021-04-10T08:15:29Z</time>
      </trkpt>
      <trkpt lat="45.1999" lon="5.86238">
        <ele>749</ele>
        <time>2021-04-10T08:15:30Z</time>
      </trkpt>
      <trkpt lat="45.1999" lon="5.86238">
        <ele>749.2</ele>
        <time>2021-04-10T08:15:31Z</time>
      </trkpt>
      <trkpt lat="45.19991" lon="5.86239">
        <ele>749.4</ele>
        <time>2021-04-10T08:15:32Z</time>
      </trkpt>
      <trkpt lat="45.19991" lon="5.8624">
        <ele>749.8</ele>
        <time>2021-04-10T08:15:33Z</time>
      </trkpt>
      <trkpt lat="45.19991" lon="5.8624">
        <ele>750.2</ele>
        <time>2021-04-10T08:15:34Z</time>
      </trkpt>
      <trkpt lat="45.19991" lon="5.86242">
        <ele>750</ele>
        <time>2021-04-10T08:15:35Z</time>
      </trkpt>
      <trkpt lat="45.19991" lon="5.86243">
        <ele>750.2</ele>
        <time>2021-04-10T08:15:36Z</time>
      </trkpt>
      <trkpt lat="45.19991" lon="5.86244">
        <ele>750.6</ele>
        <time>2021-04-10T08:15:37Z</time>
      </trkpt>
      <trkpt lat="45.19991" lon="5.86245">
        <ele>750.8</ele>
        <time>2021-04-10T08:15:38Z</time>
      </trkpt>
      <trkpt lat="45.19991" lon="5.86246">
        <ele>751</ele>
        <time>2021-04-10T08:15:39Z</time>
      </trkpt>
      <trkpt lat="45.19991" lon="5.86247">
        <ele>751.4</ele>
        <time>2021-04-10T08:15:40Z</time>
      </trkpt>
      <trkpt lat="45.19991" lon="5.86248">
        <ele>751.4</ele>
        <time>2021-04-10T08:15:41Z</time>
      </trkpt>
      <trkpt lat="45.19991" lon="5.86249">
        <ele>751.8</ele>
        <time>2021-04-10T08:15:42Z</time>
      </trkpt>
      <trkpt lat="45.19991" lon="5.8625">
        <ele>752</ele>
        <time>2021-04-10T08:15:43Z</time>
      </trkpt>
      <trkpt lat="45.19991" lon="5.86251">
        <ele>752.2</ele>
        <time>2021-04-10T08:15:44Z</time>
      </trkpt>
      <trkpt lat="45.19992" lon="5.86252">
        <ele>752.4</ele>
        <time>2021-04-10T08:15:45Z</time>
      </trkpt>
      <trkpt lat="45.19992" lon="5.86254">
        <ele>752.8</ele>
        <time>2021-04-10T08:15:46Z</time>
      </trkpt>
      <trkpt lat="45.19991" lon="5.86257">
        <ele>753</ele>
        <time>2021-04-10T08:15:47Z</time>
      </trkpt>
      <trkpt lat="45.19991" lon="5.8626">
        <ele>753.4</ele>
        <time>2021-04-10T08:15:48Z</time>
      </trkpt>
      <trkpt lat="45.19991" lon="5.86263">
        <ele>753.4</ele>
        <time>2021-04-10T08:15:49Z</time>
      </trkpt>
      <trkpt lat="45.19991" lon="5.86267">
        <ele>753.8</ele>
        <time>2021-04-10T08:15:50Z</time>
      </trkpt>
      <trkpt lat="45.1999" lon="5.8627">
        <ele>754</ele>
        <time>2021-04-10T08:15:51Z</time>
      </trkpt>
      <trkpt lat="45.1999" lon="5.86273">
        <ele>754.2</ele>
        <time>2021-04-10T08:15:52Z</time>
      </trkpt>
      <trkpt lat="45.1999" lon="5.86277">
        <ele>754.4</ele>
        <time>2021-04-10T08:15:53Z</time>
      </trkpt>
      <trkpt lat="45.1999" lon="5.8628">
        <ele>754.4</ele>
        <time>2021-04-10T08:15:54Z</time>
      </trkpt>
      <trkpt lat="45.1999" lon="5.86281">
        <ele>754.4</ele>
        <time>2021-04-10T08:15:55Z</time>
      </trkpt>
      <trkpt lat="45.19991" lon="5.86283">
        <ele>754.6</ele>
        <time>2021-04-10T08:15:56Z</time>
      </trkpt>
      <trkpt lat="45.19991" lon="5.86284">
        <ele>755</ele>
        <time>2021-04-10T08:15:57Z</time>
      </trkpt>
      <trkpt lat="45.19992" lon="5.86286">
        <ele>755.2</ele>
        <time>2021-04-10T08:15:58Z</time>
      </trkpt>
      <trkpt lat="45.19992" lon="5.86287">
        <ele>755.6</ele>
        <time>2021-04-10T08:15:59Z</time>
      </trkpt>
      <trkpt lat="45.19993" lon="5.86289">
        <ele>756</ele>
        <time>2021-04-10T08:16:00Z</time>
      </trkpt>
      <trkpt lat="45.19993" lon="5.8629">
        <ele>756.4</ele>
        <time>2021-04-10T08:16:01Z</time>
      </trkpt>
      <trkpt lat="45.19994" lon="5.86291">
        <ele>756.8</ele>
        <time>2021-04-10T08:16:02Z</time>
      </trkpt>
      <trkpt lat="45.19994" lon="5.86293">
        <ele>757</ele>
        <time>2021-04-10T08:16:03Z</time>
      </trkpt>
      <trkpt lat="45.19995" lon="5.86294">
        <ele>757</ele>
        <time>2021-04-10T08:16:04Z</time>
      </trkpt>
      <trkpt lat="45.19995" lon="5.86296">
        <ele>757.4</ele>
        <time>2021-04-10T08:16:05Z</time>
      </trkpt>
      <trkpt lat="45.19995" lon="5.86297">
        <ele>757.6</ele>
        <time>2021-04-10T08:16:06Z</time>
      </trkpt>
      <trkpt lat="45.19996" lon="5.86299">
        <ele>757.8</ele>
        <time>2021-04-10T08:16:07Z</time>
      </trkpt>
      <trkpt lat="45.19996" lon="5.863">
        <ele>757.8</ele>
        <time>2021-04-10T08:16:08Z</time>
      </trkpt>
      <trkpt lat="45.19997" lon="5.86301">
        <ele>758.2</ele>
        <time>2021-04-10T08:16:09Z</time>
      </trkpt>
      <trkpt lat="45.19997" lon="5.86303">
        <ele>758.6</ele>
        <time>2021-04-10T08:16:10Z</time>
      </trkpt>
      <trkpt lat="45.19998" lon="5.86304">
        <ele>758.8</ele>
        <time>2021-04-10T08:16:11Z</time>
      </trkpt>
      <trkpt lat="45.19998" lon="5.86306">
        <ele>759</ele>
        <time>2021-04-10T08:16:12Z</time>
      </trkpt>
      <trkpt lat="45.19999" lon="5.86307">
        <ele>759</ele>
        <time>2021-04-10T08:16:13Z</time>
      </trkpt>
      <trkpt lat="45.19999" lon="5.86309">
        <ele>759.4</ele>
        <time>2021-04-10T08:16:14Z</time>
      </trkpt>
      <trkpt lat="45.2" lon="5.8631">
        <ele>759.4</ele>
        <time>2021-04-10T08:16:15Z</time>
      </trkpt>
      <trkpt lat="45.2" lon="5.86311">
        <ele>759.8</ele>
        <time>2021-04-10T08:16:16Z</time>
      </trkpt>
      <trkpt lat="45.20001" lon="5.86313">
        <ele>760</ele>
        <time>2021-04-10T08:16:17Z</time>
      </trkpt>
      <trkpt lat="45.20001" lon="5.86314">
        <ele>760.4</ele>
        <time>2021-04-10T08:16:18Z</time>
      </trkpt>
      <trkpt lat="45.20002" lon="5.86316">
        <ele>760.6</ele>
        <time>2021-04-10T08:16:19Z</time>
      </trkpt>
      <trkpt lat="45.20002" lon="5.86317">
        <ele>760.8</ele>
        <time>2021-04-10T08:16:20Z</time>
      </trkpt>
      <trkpt lat="45.20002" lon="5.86319">
        <ele>760.8</ele>
        <time>2021-04-10T08:16:21Z</time>
      </trkpt>
      <trkpt lat="45.20003" lon="5.8632">
        <ele>761</ele>
        <time>2021-04-10T08:16:22Z</time>
      </trkpt>
      <trkpt lat="45.20003" lon="5.86321">
        <ele>761.2</ele>
        <time>2021-04-10T08:16:23Z</time>
      </trkpt>
      <trkpt lat="45.20004" lon="5.86323">
        <ele>761.6</ele>
        <time>2021-04-10T08:16:24Z</time>
      </trkpt>
      <trkpt lat="45.20004" lon="5.86324">
        <ele>762</ele>
        <time>2021-04-10T08:16:25Z</time>
      </trkpt>
      <trkpt lat="45.20005" lon="5.86326">
        <ele>762.2</ele>
        <time>2021-04-10T08:16:26Z</time>
      </trkpt>
      <trkpt lat="45.20005" lon="5.86327">
        <ele>762.2</ele>
        <time>2021-04-10T08:16:27Z</time>
      </trkpt>
      <trkpt lat="45.20006" lon="5.86329">
        <ele>762.6</ele>
        <time>2021-04-10T08:16:28Z</time>
      </trkpt>
      <trkpt lat="45.20006" lon="5.8633">
        <ele>762.8</ele>
        <time>2021-04-10T08:16:29Z</time>
      </trkpt>
      <trkpt lat="45.20007" lon="5.86331">
        <ele>763</ele>
        <time>2021-04-10T08:16:30Z</time>
      </trkpt>
      <trkpt lat="45.20007" lon="5.86333">
        <ele>763.4</ele>
        <time>2021-04-10T08:16:31Z</time>
      </trkpt>
      <trkpt lat="45.20008" lon="5.86334">
        <ele>763.8</ele>
        <time>2021-04-10T08:16:32Z</time>
      </trkpt>
      <trkpt lat="45.20008" lon="5.86335">
        <ele>764</ele>
        <time>2021-04-10T08:16:33Z</time>
      </trkpt>
      <trkpt lat="45.20009" lon="5.86336">
        <ele>764.2</ele>
        <time>2021-04-10T08:16:34Z</time>
      </trkpt>
      <trkpt lat="45.20009" lon="5.86337">
        <ele>764.4</ele>
        <time>2021-04-10T08:16:35Z</time>
      </trkpt>
      <trkpt lat="45.20009" lon="5.86337">
        <ele>764.8</ele>
        <time>2021-04-10T08:16:36Z</time>
      </trkpt>
      <trkpt lat="45.2001" lon="5.8634">
        <ele>765</ele>
        <time>2021-04-10T08:16:37Z</time>
      </trkpt>
      <trkpt lat="45.2001" lon="5.8634">
        <ele>765.2</ele>
        <time>2021-04-10T08:16:38Z</time>
      </trkpt>
      <trkpt lat="45.2001" lon="5.8634">
        <ele>765.4</ele>
        <time>2021-04-10T08:16:39Z</time>
      </trkpt>
      <trkpt lat="45.20012" lon="5.86342">
        <ele>765.8</ele>
        <time>2021-04-10T08:16:40Z</time>
      </trkpt>
      <trkpt lat="45.20012" lon="5.86342">
        <ele>766</ele>
        <time>2021-04-10T08:16:41Z</time>
      </trkpt>
      <trkpt lat="45.20012" lon="5.86342">
        <ele>766.2</ele>
        <time>2021-04-10T08:16:42Z</time>
      </trkpt>
      <trkpt lat="45.20014" lon="5.86345">
        <ele>766.4</ele>
        <time>2021-04-10T08:16:43Z</time>
      </trkpt>
      <trkpt lat="45.20014" lon="5.86345">
        <ele>766.4</ele>
        <time>2021-04-10T08:16:44Z</time>
      </trkpt>
      <trkpt lat="45.20015" lon="5.86348">
        <ele>766.6</ele>
        <time>2021-04-10T08:16:45Z</time>
      </trkpt>
      <trkpt lat="45.20015" lon="5.86348">
        <ele>767</ele>
        <time>2021-04-10T08:16:46Z</time>
      </trkpt>
      <trkpt lat="45.20015" lon="5.86348">
        <ele>767.2</ele>
        <time>2021-04-10T08:16:47Z</time>
      </trkpt>
      <trkpt lat="45.20017" lon="5.86351">
        <ele>767.4</ele>
        <time>2021-04-10T08:16:48Z</time>
      </trkpt>
      <trkpt lat="45.20017" lon="5.86351">
        <ele>767.4</ele>
        <time>2021-04-10T08:16:49Z</time>
      </trkpt>
      <trkpt lat="45.20018" lon="5.86353">
        <ele>767.6</ele>
        <time>2021-04-10T08:16:50Z</time>
      </trkpt>
      <trkpt lat="45.20018" lon="5.86353">
        <ele>768</ele>
        <time>2021-04-10T08:16:51Z</time>
      </trkpt>
      <trkpt lat="45.20018" lon="5.86353">
        <ele>768.4</ele>
        <time>2021-04-10T08:16:52Z</time>
      </trkpt>
      <trkpt lat="45.20019" lon="5.86356">
        <ele>768.6</ele>
        <time>2021-04-10T08:16:53Z</time>
      </trkpt>
      <trkpt lat="45.20019" lon="5.86356">
        <ele>768.6</ele>
        <time>2021-04-10T08:16:54Z</time>
      </trkpt>
      <trkpt lat="45.20019" lon="5.86356">
        <ele>768.8</ele>
        <time>2021-04-10T08:16:55Z</time>
      </trkpt>
      <trkpt lat="45.20021" lon="5.86358">
        <ele>769</ele>
        <time>2021-04-10T08:16:56Z</time>
      </trkpt>
      <trkpt lat="45.20021" lon="5.86358">
        <ele>769.4</ele>
        <time>2021-04-10T08:16:57Z</time>
      </trkpt>
      <trkpt lat="45.20022" lon="5.86358">
        <ele>769.6</ele>
        <time>2021-04-10T08:16:58Z</time>
      </trkpt>
      <trkpt lat="45.20023" lon="5.86359">
        <ele>769.6</ele>
        <time>2021-04-10T08:16:59Z</time>
      </trkpt>
      <trkpt lat="45.20024" lon="5.86359">
        <ele>769.8</ele>
        <time>2021-04-10T08:17:00Z</time>
      </trkpt>
      <trkpt lat="45.20024" lon="5.86359">
        <ele>770</ele>
        <time>2021-04-10T08:17:01Z</time>
      </trkpt>
      <trkpt lat="45.20027" lon="5.86357">
        <ele>770</ele>
        <time>2021-04-10T08:17:02Z</time>
      </trkpt>
      <trkpt lat="45.20027" lon="5.86357">
        <ele>770</ele>
        <time>2021-04-10T08:17:03Z</time>
      </trkpt>
      <trkpt lat="45.20027" lon="5.86357">
        <ele>770</ele>
        <time>2021-04-10T08:17:04Z</time>
      </trkpt>
      <trkpt lat="45.20028" lon="5.86358">
        <ele>770.2</ele>
        <time>2021-04-10T08:17:05Z</time>
      </trkpt>
      <trkpt lat="45.20028" lon="5.86358">
        <ele>770.4</ele>
        <time>2021-04-10T08:17:06Z</time>
      </trkpt>
      <trkpt lat="45.20028" lon="5.86358">
        <ele>770.6</ele>
        <time>2021-04-10T08:17:07Z</time>
      </trkpt>
      <trkpt lat="45.20028" lon="5.86358">
        <ele>770.8</ele>
        <time>2021-04-10T08:17:08Z</time>
      </trkpt>
      <trkpt lat="45.20029" lon="5.86359">
        <ele>770.8</ele>
        <time>2021-04-10T08:17:09Z</time>
      </trkpt>
      <trkpt lat="45.20029" lon="5.8636">
        <ele>771</ele>
        <time>2021-04-10T08:17:10Z</time>
      </trkpt>
      <trkpt lat="45.20029" lon="5.86361">
        <ele>771</ele>
        <time>2021-04-10T08:17:11Z</time>
      </trkpt>
      <trkpt lat="45.20029" lon="5.86362">
        <ele>771.2</ele>
        <time>2021-04-10T08:17:12Z</time>
      </trkpt>
      <trkpt lat="45.20029" lon="5.86363">
        <ele>771.4</ele>
        <time>2021-04-10T08:17:13Z</time>
      </trkpt>
      <trkpt lat="45.2003" lon="5.86364">
        <ele>771.6</ele>
        <time>2021-04-10T08:17:14Z</time>
      </trkpt>
      <trkpt lat="45.2003" lon="5.86366">
        <ele>771.8</ele>
        <time>2021-04-10T08:17:15Z</time>
      </trkpt>
      <trkpt lat="45.2003" lon="5.86367">
        <ele>772</ele>
        <time>2021-04-10T08:17:16Z</time>
      </trkpt>
      <trkpt lat="45.2003" lon="5.86368">
        <ele>772.4</ele>
        <time>2021-04-10T08:17:17Z</time>
      </trkpt>
      <trkpt lat="45.2003" lon="5.86369">
        <ele>772.6</ele>
        <time>2021-04-10T08:17:18Z</time>
      </trkpt>
      <trkpt lat="45.20031" lon="5.8637">
        <ele>772.8</ele>
        <time>2021-04-10T08:17:19Z</time>
      </trkpt>
      <trkpt lat="45.20031" lon="5.86371">
        <ele>773.2</ele>
        <time>2021-04-10T08:17:20Z</time>
      </trkpt>
      <trkpt lat="45.20031" lon="5.86372">
        <ele>773.6</ele>
        <time>2021-04-10T08:17:21Z</time>
      </trkpt>
      <trkpt lat="45.20032" lon="5.86373">
        <ele>773.6</ele>
        <time>2021-04-10T08:17:22Z</time>
      </trkpt>
      <trkpt lat="45.20032" lon="5.86374">
        <ele>774</ele>
        <time>2021-04-10T08:17:23Z</time>
      </trkpt>
      <trkpt lat="45.20033" lon="5.86375">
        <ele>774</ele>
        <time>2021-04-10T08:17:24Z</time>
      </trkpt>
      <trkpt lat="45.20033" lon="5.86376">
        <ele>774.2</ele>
        <time>2021-04-10T08:17:25Z</time>
      </trkpt>
      <trkpt lat="45.20034" lon="5.86378">
        <ele>774.2</ele>
        <time>2021-04-10T08:17:26Z</time>
      </trkpt>
      <trkpt lat="45.20034" lon="5.86379">
        <ele>774.4</ele>
        <time>2021-04-10T08:17:27Z</time>
      </trkpt>
      <trkpt lat="45.20035" lon="5.8638">
        <ele>774.6</ele>
        <time>2021-04-10T08:17:28Z</time>
      </trkpt>
      <trkpt lat="45.20035" lon="5.86381">
        <ele>774.6</ele>
        <time>2021-04-10T08:17:29Z</time>
      </trkpt>
      <trkpt lat="45.20036" lon="5.86382">
        <ele>774.8</ele>
        <time>2021-04-10T08:17:30Z</time>
      </trkpt>
      <trkpt lat="45.20037" lon="5.86384">
        <ele>775.2</ele>
        <time>2021-04-10T08:17:31Z</time>
      </trkpt>
      <trkpt lat="45.20038" lon="5.86386">
        <ele>775.6</ele>
        <time>2021-04-10T08:17:32Z</time>
      </trkpt>
      <trkpt lat="45.20039" lon="5.86387">
        <ele>775.8</ele>
        <time>2021-04-10T08:17:33Z</time>
      </trkpt>
      <trkpt lat="45.2004" lon="5.86389">
        <ele>776.2</ele>
        <time>2021-04-10T08:17:34Z</time>
      </trkpt>
      <trkpt lat="45.20041" lon="5.86391">
        <ele>776.2</ele>
        <time>2021-04-10T08:17:35Z</time>
      </trkpt>
      <trkpt lat="45.20042" lon="5.86393">
        <ele>776.4</ele>
        <time>2021-04-10T08:17:36Z</time>
      </trkpt>
      <trkpt lat="45.20043" lon="5.86394">
        <ele>776.8</ele>
        <time>2021-04-10T08:17:37Z</time>
      </trkpt>
      <trkpt lat="45.20043" lon="5.86396">
        <ele>777</ele>
        <time>2021-04-10T08:17:38Z</time>
      </trkpt>
      <trkpt lat="45.20044" lon="5.86397">
        <ele>777.2</ele>
        <time>2021-04-10T08:17:39Z</time>
      </trkpt>
      <trkpt lat="45.20045" lon="5.86398">
        <ele>777.6</ele>
        <time>2021-04-10T08:17:40Z</time>
      </trkpt>
      <trkpt lat="45.20045" lon="5.864">
        <ele>777.8</ele>
        <time>2021-04-10T08:17:41Z</time>
      </trkpt>
      <trkpt lat="45.20046" lon="5.86401">
        <ele>778</ele>
        <time>2021-04-10T08:17:42Z</time>
      </trkpt>
      <trkpt lat="45.20046" lon="5.86403">
        <ele>778.2</ele>
        <time>2021-04-10T08:17:43Z</time>
      </trkpt>
      <trkpt lat="45.20047" lon="5.86404">
        <ele>778.4</ele>
        <time>2021-04-10T08:17:44Z</time>
      </trkpt>
      <trkpt lat="45.20047" lon="5.86405">
        <ele>778.6</ele>
        <time>2021-04-10T08:17:45Z</time>
      </trkpt>
      <trkpt lat="45.20046" lon="5.86407">
        <ele>779</ele>
        <time>2021-04-10T08:17:46Z</time>
      </trkpt>
      <trkpt lat="45.20046" lon="5.86408">
        <ele>779.2</ele>
        <time>2021-04-10T08:17:47Z</time>
      </trkpt>
      <trkpt lat="45.20046" lon="5.86409">
        <ele>779.4</ele>
        <time>2021-04-10T08:17:48Z</time>
      </trkpt>
      <trkpt lat="45.20046" lon="5.86411">
        <ele>779.4</ele>
        <time>2021-04-10T08:17:49Z</time>
      </trkpt>
      <trkpt lat="45.20046" lon="5.86412">
        <ele>779.6</ele>
        <time>2021-04-10T08:17:50Z</time>
      </trkpt>
      <trkpt lat="45.20046" lon="5.86413">
        <ele>779.8</ele>
        <time>2021-04-10T08:17:51Z</time>
      </trkpt>
      <trkpt lat="45.20046" lon="5.86414">
        <ele>780.2</ele>
        <time>2021-04-10T08:17:52Z</time>
      </trkpt>
      <trkpt lat="45.20045" lon="5.86416">
        <ele>780.6</ele>
        <time>2021-04-10T08:17:53Z</time>
      </trkpt>
      <trkpt lat="45.20045" lon="5.86417">
        <ele>780.6</ele>
        <time>2021-04-10T08:17:54Z</time>
      </trkpt>
      <trkpt lat="45.20045" lon="5.86418">
        <ele>781</ele>
        <time>2021-04-10T08:17:55Z</time>
      </trkpt>
      <trkpt lat="45.20045" lon="5.86419">
        <ele>781.4</ele>
        <time>2021-04-10T08:17:56Z</time>
      </trkpt>
      <trkpt lat="45.20045" lon="5.8642">
        <ele>781.8</ele>
        <time>2021-04-10T08:17:57Z</time>
      </trkpt>
      <trkpt lat="45.20045" lon="5.86421">
        <ele>782</ele>
        <time>2021-04-10T08:17:58Z</time>
      </trkpt>
      <trkpt lat="45.20045" lon="5.86421">
        <ele>782</ele>
        <time>2021-04-10T08:17:59Z</time>
      </trkpt>
      <trkpt lat="45.20045" lon="5.86422">
        <ele>782.4</ele>
        <time>2021-04-10T08:18:00Z</time>
      </trkpt>
      <trkpt lat="45.20045" lon="5.86423">
        <ele>782.8</ele>
        <time>2021-04-10T08:18:01Z</time>
      </trkpt>
      <trkpt lat="45.20045" lon="5.86424">
        <ele>783.2</ele>
        <time>2021-04-10T08:18:02Z</time>
      </trkpt>
      <trkpt lat="45.20045" lon="5.86425">
        <ele>783.6</ele>
        <time>2021-04-10T08:18:03Z</time>
      </trkpt>
      <trkpt lat="45.20045" lon="5.86426">
        <ele>783.8</ele>
        <time>2021-04-10T08:18:04Z</time>
      </trkpt>
      <trkpt lat="45.20045" lon="5.86427">
        <ele>784.2</ele>
        <time>2021-04-10T08:18:05Z</time>
      </trkpt>
      <trkpt lat="45.20045" lon="5.86428">
        <ele>784.2</ele>
        <time>2021-04-10T08:18:06Z</time>
      </trkpt>
      <trkpt lat="45.20045" lon="5.86429">
        <ele>784.6</ele>
        <time>2021-04-10T08:18:07Z</time>
      </trkpt>
      <trkpt lat="45.20045" lon="5.8643">
        <ele>784.8</ele>
        <time>2021-04-10T08:18:08Z</time>
      </trkpt>
      <trkpt lat="45.20046" lon="5.86431">
        <ele>785</ele>
        <time>2021-04-10T08:18:09Z</time>
      </trkpt>
      <trkpt lat="45.20046" lon="5.86432">
        <ele>785.4</ele>
        <time>2021-04-10T08:18:10Z</time>
      </trkpt>
      <trkpt lat="45.20046" lon="5.86433">
        <ele>785.6</ele>
        <time>2021-04-10T08:18:11Z</time>
      </trkpt>
      <trkpt lat="45.20046" lon="5.86434">
        <ele>785.8</ele>
        <time>2021-04-10T08:18:12Z</time>
      </trkpt>
      <trkpt lat="45.20047" lon="5.86435">
        <ele>786.2</ele>
        <time>2021-04-10T08:18:13Z</time>
      </trkpt>
      <trkpt lat="45.20047" lon="5.86436">
        <ele>786.4</ele>
        <time>2021-04-10T08:18:14Z</time>
      </trkpt>
      <trkpt lat="45.20047" lon="5.86437">
        <ele>786.6</ele>
        <time>2021-04-10T08:18:15Z</time>
      </trkpt>
      <trkpt lat="45.20048" lon="5.86438">
        <ele>786.8</ele>
        <time>2021-04-10T08:18:16Z</time>
      </trkpt>
      <trkpt lat="45.20048" lon="5.86439">
        <ele>787.2</ele>
        <time>2021-04-10T08:18:17Z</time>
      </trkpt>
      <trkpt lat="45.20048" lon="5.8644">
        <ele>787.6</ele>
        <time>2021-04-10T08:18:18Z</time>
      </trkpt>
      <trkpt lat="45.20049" lon="5.86441">
        <ele>787.8</ele>
        <time>2021-04-10T08:18:19Z</time>
      </trkpt>
      <trkpt lat="45.20049" lon="5.86442">
        <ele>788</ele>
        <time>2021-04-10T08:18:20Z</time>
      </trkpt>
      <trkpt lat="45.20049" lon="5.86443">
        <ele>788.4</ele>
        <time>2021-04-10T08:18:21Z</time>
      </trkpt>
      <trkpt lat="45.20049" lon="5.86444">
        <ele>788.4</ele>
        <time>2021-04-10T08:18:22Z</time>
      </trkpt>
      <trkpt lat="45.20049" lon="5.86445">
        <ele>788.8</ele>
        <time>2021-04-10T08:18:23Z</time>
      </trkpt>
      <trkpt lat="45.20049" lon="5.86446">
        <ele>789</ele>
        <time>2021-04-10T08:18:24Z</time>
      </trkpt>
      <trkpt lat="45.20049" lon="5.86447">
        <ele>789.2</ele>
        <time>2021-04-10T08:18:25Z</time>
      </trkpt>
      <trkpt lat="45.2005" lon="5.86448">
        <ele>789.4</ele>
        <time>2021-04-10T08:18:26Z</time>
      </trkpt>
      <trkpt lat="45.2005" lon="5.86449">
        <ele>789.6</ele>
        <time>2021-04-10T08:18:27Z</time>
      </trkpt>
      <trkpt lat="45.2005" lon="5.8645">
        <ele>789.8</ele>
        <time>2021-04-10T08:18:28Z</time>
      </trkpt>
      <trkpt lat="45.2005" lon="5.86451">
        <ele>790</ele>
        <time>2021-04-10T08:18:29Z</time>
      </trkpt>
      <trkpt lat="45.2005" lon="5.86452">
        <ele>790.6</ele>
        <time>2021-04-10T08:18:30Z</time>
      </trkpt>
      <trkpt lat="45.2005" lon="5.86453">
        <ele>790.8</ele>
        <time>2021-04-10T08:18:31Z</time>
      </trkpt>
      <trkpt lat="45.2005" lon="5.86454">
        <ele>791</ele>
        <time>2021-04-10T08:18:32Z</time>
      </trkpt>
      <trkpt lat="45.2005" lon="5.86455">
        <ele>791</ele>
        <time>2021-04-10T08:18:33Z</time>
      </trkpt>
      <trkpt lat="45.20051" lon="5.86456">
        <ele>791.4</ele>
        <time>2021-04-10T08:18:34Z</time>
      </trkpt>
      <trkpt lat="45.20051" lon="5.86457">
        <ele>791.8</ele>
        <time>2021-04-10T08:18:35Z</time>
      </trkpt>
      <trkpt lat="45.20051" lon="5.86457">
        <ele>792</ele>
        <time>2021-04-10T08:18:36Z</time>
      </trkpt>
      <trkpt lat="45.20051" lon="5.86458">
        <ele>792.4</ele>
        <time>2021-04-10T08:18:37Z</time>
      </trkpt>
      <trkpt lat="45.20051" lon="5.86459">
        <ele>792.6</ele>
        <time>2021-04-10T08:18:38Z</time>
      </trkpt>
      <trkpt lat="45.20052" lon="5.8646">
        <ele>792.8</ele>
        <time>2021-04-10T08:18:39Z</time>
      </trkpt>
      <trkpt lat="45.20052" lon="5.86461">
        <ele>793.2</ele>
        <time>2021-04-10T08:18:40Z</time>
      </trkpt>
      <trkpt lat="45.20052" lon="5.86462">
        <ele>793.4</ele>
        <time>2021-04-10T08:18:41Z</time>
      </trkpt>
      <trkpt lat="45.20052" lon="5.86462">
        <ele>793.8</ele>
        <time>2021-04-10T08:18:42Z</time>
      </trkpt>
      <trkpt lat="45.20052" lon="5.86463">
        <ele>793.8</ele>
        <time>2021-04-10T08:18:43Z</time>
      </trkpt>
      <trkpt lat="45.20052" lon="5.86464">
        <ele>794</ele>
        <time>2021-04-10T08:18:44Z</time>
      </trkpt>
      <trkpt lat="45.20053" lon="5.86465">
        <ele>794.2</ele>
        <time>2021-04-10T08:18:45Z</time>
      </trkpt>
      <trkpt lat="45.20053" lon="5.86466">
        <ele>794.6</ele>
        <time>2021-04-10T08:18:46Z</time>
      </trkpt>
      <trkpt lat="45.20053" lon="5.86467">
        <ele>794.8</ele>
        <time>2021-04-10T08:18:47Z</time>
      </trkpt>
      <trkpt lat="45.20053" lon="5.86467">
        <ele>795</ele>
        <time>2021-04-10T08:18:48Z</time>
      </trkpt>
      <trkpt lat="45.20054" lon="5.86469">
        <ele>795.2</ele>
        <time>2021-04-10T08:18:49Z</time>
      </trkpt>
      <trkpt lat="45.20054" lon="5.8647">
        <ele>795.4</ele>
        <time>2021-04-10T08:18:50Z</time>
      </trkpt>
      <trkpt lat="45.20055" lon="5.86471">
        <ele>795.8</ele>
        <time>2021-04-10T08:18:51Z</time>
      </trkpt>
      <trkpt lat="45.20055" lon="5.86472">
        <ele>796</ele>
        <time>2021-04-10T08:18:52Z</time>
      </trkpt>
      <trkpt lat="45.20056" lon="5.86473">
        <ele>796.2</ele>
        <time>2021-04-10T08:18:53Z</time>
      </trkpt>
      <trkpt lat="45.20056" lon="5.86474">
        <ele>796.2</ele>
        <time>2021-04-10T08:18:54Z</time>
      </trkpt>
      <trkpt lat="45.20056" lon="5.86475">
        <ele>796.4</ele>
        <time>2021-04-10T08:18:55Z</time>
      </trkpt>
      <trkpt lat="45.20057" lon="5.86477">
        <ele>796.6</ele>
        <time>2021-04-10T08:18:56Z</time>
      </trkpt>
      <trkpt lat="45.20057" lon="5.86478">
        <ele>797</ele>
        <time>2021-04-10T08:18:57Z</time>
      </trkpt>
      <trkpt lat="45.20058" lon="5.86479">
        <ele>797.2</ele>
        <time>2021-04-10T08:18:58Z</time>
      </trkpt>
      <trkpt lat="45.20057" lon="5.8648">
        <ele>797.2</ele>
        <time>2021-04-10T08:18:59Z</time>
      </trkpt>
      <trkpt lat="45.20057" lon="5.86482">
        <ele>797.4</ele>
        <time>2021-04-10T08:19:00Z</time>
      </trkpt>
      <trkpt lat="45.20057" lon="5.86483">
        <ele>797.8</ele>
        <time>2021-04-10T08:19:01Z</time>
      </trkpt>
      <trkpt lat="45.20056" lon="5.86484">
        <ele>798.2</ele>
        <time>2021-04-10T08:19:02Z</time>
      </trkpt>
      <trkpt lat="45.20056" lon="5.86486">
        <ele>798.6</ele>
        <time>2021-04-10T08:19:03Z</time>
      </trkpt>
      <trkpt lat="45.20055" lon="5.86487">
        <ele>798.8</ele>
        <time>2021-04-10T08:19:04Z</time>
      </trkpt>
      <trkpt lat="45.20055" lon="5.86488">
        <ele>799</ele>
        <time>2021-04-10T08:19:05Z</time>
      </trkpt>
      <trkpt lat="45.20055" lon="5.86489">
        <ele>799.4</ele>
        <time>2021-04-10T08:19:06Z</time>
      </trkpt>
      <trkpt lat="45.20054" lon="5.86491">
        <ele>799.6</ele>
        <time>2021-04-10T08:19:07Z</time>
      </trkpt>
      <trkpt lat="45.20054" lon="5.86493">
        <ele>800</ele>
        <time>2021-04-10T08:19:08Z</time>
      </trkpt>
      <trkpt lat="45.20053" lon="5.86495">
        <ele>800.2</ele>
        <time>2021-04-10T08:19:09Z</time>
      </trkpt>
      <trkpt lat="45.20052" lon="5.86496">
        <ele>800.2</ele>
        <time>2021-04-10T08:19:10Z</time>
      </trkpt>
      <trkpt lat="45.20052" lon="5.86498">
        <ele>800.4</ele>
        <time>2021-04-10T08:19:11Z</time>
      </trkpt>
      <trkpt lat="45.20051" lon="5.865">
        <ele>800.6</ele>
        <time>2021-04-10T08:19:12Z</time>
      </trkpt>
      <trkpt lat="45.20051" lon="5.86502">
        <ele>800.6</ele>
        <time>2021-04-10T08:19:13Z</time>
      </trkpt>
      <trkpt lat="45.2005" lon="5.86504">
        <ele>800.8</ele>
        <time>2021-04-10T08:19:14Z</time>
      </trkpt>
      <trkpt lat="45.20049" lon="5.86505">
        <ele>801</ele>
        <time>2021-04-10T08:19:15Z</time>
      </trkpt>
      <trkpt lat="45.20049" lon="5.86507">
        <ele>801</ele>
        <time>2021-04-10T08:19:16Z</time>
      </trkpt>
      <trkpt lat="45.20048" lon="5.86508">
        <ele>801</ele>
        <time>2021-04-10T08:19:17Z</time>
      </trkpt>
      <trkpt lat="45.20048" lon="5.86509">
        <ele>801</ele>
        <time>2021-04-10T08:19:18Z</time>
      </trkpt>
      <trkpt lat="45.20047" lon="5.86511">
        <ele>801.2</ele>
        <time>2021-04-10T08:19:19Z</time>
      </trkpt>
      <trkpt lat="45.20047" lon="5.86512">
        <ele>801.4</ele>
        <time>2021-04-10T08:19:20Z</time>
      </trkpt>
      <trkpt lat="45.20046" lon="5.86513">
        <ele>801.6</ele>
        <time>2021-04-10T08:19:21Z</time>
      </trkpt>
      <trkpt lat="45.20045" lon="5.86514">
        <ele>801.8</ele>
        <time>2021-04-10T08:19:22Z</time>
      </trkpt>
      <trkpt lat="45.20045" lon="5.86516">
        <ele>801.8</ele>
        <time>2021-04-10T08:19:23Z</time>
      </trkpt>
      <trkpt lat="45.20044" lon="5.86517">
        <ele>802.2</ele>
        <time>2021-04-10T08:19:24Z</time>
      </trkpt>
      <trkpt lat="45.20044" lon="5.86518">
        <ele>802.4</ele>
        <time>2021-04-10T08:19:25Z</time>
      </trkpt>
      <trkpt lat="45.20043" lon="5.8652">
        <ele>802.4</ele>
        <time>2021-04-10T08:19:26Z</time>
      </trkpt>
      <trkpt lat="45.20043" lon="5.86521">
        <ele>802.6</ele>
        <time>2021-04-10T08:19:27Z</time>
      </trkpt>
      <trkpt lat="45.20043" lon="5.86527">
        <ele>802.8</ele>
        <time>2021-04-10T08:19:28Z</time>
      </trkpt>
      <trkpt lat="45.20043" lon="5.86527">
        <ele>803</ele>
        <time>2021-04-10T08:19:29Z</time>
      </trkpt>
      <trkpt lat="45.20043" lon="5.86527">
        <ele>803</ele>
        <time>2021-04-10T08:19:30Z</time>
      </trkpt>
      <trkpt lat="45.20043" lon="5.86527">
        <ele>803</ele>
        <time>2021-04-10T08:19:31Z</time>
      </trkpt>
      <trkpt lat="45.20043" lon="5.86529">
        <ele>803</ele>
        <time>2021-04-10T08:19:32Z</time>
      </trkpt>
      <trkpt lat="45.20043" lon="5.86531">
        <ele>803</ele>
        <time>2021-04-10T08:19:33Z</time>
      </trkpt>
      <trkpt lat="45.20043" lon="5.86533">
        <ele>803</ele>
        <time>2021-04-10T08:19:34Z</time>
      </trkpt>
      <trkpt lat="45.20043" lon="5.86534">
        <ele>803</ele>
        <time>2021-04-10T08:19:35Z</time>
      </trkpt>
      <trkpt lat="45.20044" lon="5.86536">
        <ele>803</ele>
        <time>2021-04-10T08:19:36Z</time>
      </trkpt>
      <trkpt lat="45.20044" lon="5.86538">
        <ele>802.8</ele>
        <time>2021-04-10T08:19:37Z</time>
      </trkpt>
      <trkpt lat="45.20044" lon="5.86539">
        <ele>802.6</ele>
        <time>2021-04-10T08:19:38Z</time>
      </trkpt>
      <trkpt lat="45.20044" lon="5.86541">
        <ele>802.6</ele>
        <time>2021-04-10T08:19:39Z</time>
      </trkpt>
      <trkpt lat="45.20044" lon="5.86543">
        <ele>802.8</ele>
        <time>2021-04-10T08:19:40Z</time>
      </trkpt>
      <trkpt lat="45.20044" lon="5.86545">
        <ele>802.6</ele>
        <time>2021-04-10T08:19:41Z</time>
      </trkpt>
      <trkpt lat="45.20044" lon="5.86546">
        <ele>802.8</ele>
        <time>2021-04-10T08:19:42Z</time>
      </trkpt>
      <trkpt lat="45.20044" lon="5.86548">
        <ele>802.8</ele>
        <time>2021-04-10T08:19:43Z</time>
      </trkpt>
      <trkpt lat="45.20044" lon="5.8655">
        <ele>802.8</ele>
        <time>2021-04-10T08:19:44Z</time>
      </trkpt>
      <trkpt lat="45.20044" lon="5.86552">
        <ele>803</ele>
        <time>2021-04-10T08:19:45Z</time>
      </trkpt>
      <trkpt lat="45.20044" lon="5.86553">
        <ele>803.2</ele>
        <time>2021-04-10T08:19:46Z</time>
      </trkpt>
      <trkpt lat="45.20044" lon="5.86555">
        <ele>803.2</ele>
        <time>2021-04-10T08:19:47Z</time>
      </trkpt>
      <trkpt lat="45.20044" lon="5.86556">
        <ele>803.4</ele>
        <time>2021-04-10T08:19:48Z</time>
      </trkpt>
      <trkpt lat="45.20044" lon="5.86558">
        <ele>803.6</ele>
        <time>2021-04-10T08:19:49Z</time>
      </trkpt>
      <trkpt lat="45.20044" lon="5.86559">
        <ele>803.6</ele>
        <time>2021-04-10T08:19:50Z</time>
      </trkpt>
      <trkpt lat="45.20043" lon="5.86561">
        <ele>803.6</ele>
        <time>2021-04-10T08:19:51Z</time>
      </trkpt>
      <trkpt lat="45.20043" lon="5.86562">
        <ele>803.8</ele>
        <time>2021-04-10T08:19:52Z</time>
      </trkpt>
      <trkpt lat="45.20043" lon="5.86563">
        <ele>804</ele>
        <time>2021-04-10T08:19:53Z</time>
      </trkpt>
      <trkpt lat="45.20043" lon="5.86565">
        <ele>804</ele>
        <time>2021-04-10T08:19:54Z</time>
      </trkpt>
      <trkpt lat="45.20042" lon="5.86566">
        <ele>804.2</ele>
        <time>2021-04-10T08:19:55Z</time>
      </trkpt>
      <trkpt lat="45.20042" lon="5.86568">
        <ele>804.2</ele>
        <time>2021-04-10T08:19:56Z</time>
      </trkpt>
      <trkpt lat="45.20042" lon="5.86569">
        <ele>804.2</ele>
        <time>2021-04-10T08:19:57Z</time>
      </trkpt>
      <trkpt lat="45.20042" lon="5.8657">
        <ele>804.2</ele>
        <time>2021-04-10T08:19:58Z</time>
      </trkpt>
      <trkpt lat="45.20041" lon="5.86572">
        <ele>804.4</ele>
        <time>2021-04-10T08:19:59Z</time>
      </trkpt>
      <trkpt lat="45.20041" lon="5.86573">
        <ele>804.6</ele>
        <time>2021-04-10T08:20:01Z</time>
      </trkpt>
      <trkpt lat="45.2004" lon="5.86575">
        <ele>804.6</ele>
        <time>2021-04-10T08:20:02Z</time>
      </trkpt>
      <trkpt lat="45.2004" lon="5.86576">
        <ele>804.8</ele>
        <time>2021-04-10T08:20:03Z</time>
      </trkpt>
      <trkpt lat="45.20039" lon="5.86577">
        <ele>804.8</ele>
        <time>2021-04-10T08:20:04Z</time>
      </trkpt>
      <trkpt lat="45.20039" lon="5.86579">
        <ele>805</ele>
        <time>2021-04-10T08:20:05Z</time>
      </trkpt>
      <trkpt lat="45.20039" lon="5.8658">
        <ele>805</ele>
        <time>2021-04-10T08:20:06Z</time>
      </trkpt>
      <trkpt lat="45.20038" lon="5.86582">
        <ele>805.2</ele>
        <time>2021-04-10T08:20:07Z</time>
      </trkpt>
      <trkpt lat="45.20038" lon="5.86583">
        <ele>805.2</ele>
        <time>2021-04-10T08:20:08Z</time>
      </trkpt>
      <trkpt lat="45.20037" lon="5.86584">
        <ele>805.4</ele>
        <time>2021-04-10T08:20:09Z</time>
      </trkpt>
      <trkpt lat="45.20037" lon="5.86585">
        <ele>805.6</ele>
        <time>2021-04-10T08:20:10Z</time>
      </trkpt>
      <trkpt lat="45.20036" lon="5.86587">
        <ele>805.8</ele>
        <time>2021-04-10T08:20:11Z</time>
      </trkpt>
      <trkpt lat="45.20036" lon="5.86588">
        <ele>806</ele>
        <time>2021-04-10T08:20:12Z</time>
      </trkpt>
      <trkpt lat="45.20035" lon="5.86589">
        <ele>806.4</ele>
        <time>2021-04-10T08:20:13Z</time>
      </trkpt>
      <trkpt lat="45.20035" lon="5.86591">
        <ele>806.6</ele>
        <time>2021-04-10T08:20:14Z</time>
      </trkpt>
      <trkpt lat="45.20034" lon="5.86592">
        <ele>806.8</ele>
        <time>2021-04-10T08:20:15Z</time>
      </trkpt>
      <trkpt lat="45.20034" lon="5.86593">
        <ele>807</ele>
        <time>2021-04-10T08:20:16Z</time>
      </trkpt>
      <trkpt lat="45.20033" lon="5.86595">
        <ele>807.2</ele>
        <time>2021-04-10T08:20:17Z</time>
      </trkpt>
      <trkpt lat="45.20033" lon="5.86596">
        <ele>807.2</ele>
        <time>2021-04-10T08:20:18Z</time>
      </trkpt>
      <trkpt lat="45.20032" lon="5.86597">
        <ele>807.4</ele>
        <time>2021-04-10T08:20:19Z</time>
      </trkpt>
      <trkpt lat="45.20031" lon="5.86599">
        <ele>807.6</ele>
        <time>2021-04-10T08:20:20Z</time>
      </trkpt>
      <trkpt lat="45.20031" lon="5.866">
        <ele>808</ele>
        <time>2021-04-10T08:20:21Z</time>
      </trkpt>
      <trkpt lat="45.2003" lon="5.86602">
        <ele>808.2</ele>
        <time>2021-04-10T08:20:22Z</time>
      </trkpt>
      <trkpt lat="45.2003" lon="5.86603">
        <ele>808.4</ele>
        <time>2021-04-10T08:20:23Z</time>
      </trkpt>
      <trkpt lat="45.20029" lon="5.86605">
        <ele>808.6</ele>
        <time>2021-04-10T08:20:24Z</time>
      </trkpt>
      <trkpt lat="45.20029" lon="5.86606">
        <ele>808.8</ele>
        <time>2021-04-10T08:20:25Z</time>
      </trkpt>
      <trkpt lat="45.20028" lon="5.86607">
        <ele>809</ele>
        <time>2021-04-10T08:20:26Z</time>
      </trkpt>
      <trkpt lat="45.20028" lon="5.86608">
        <ele>809.2</ele>
        <time>2021-04-10T08:20:27Z</time>
      </trkpt>
      <trkpt lat="45.20028" lon="5.86608">
        <ele>809.2</ele>
        <time>2021-04-10T08:20:28Z</time>
      </trkpt>
      <trkpt lat="45.20027" lon="5.86609">
        <ele>809.2</ele>
        <time>2021-04-10T08:20:29Z</time>
      </trkpt>
      <trkpt lat="45.20027" lon="5.8661">
        <ele>809.4</ele>
        <time>2021-04-10T08:20:30Z</time>
      </trkpt>
      <trkpt lat="45.20027" lon="5.86611">
        <ele>809.6</ele>
        <time>2021-04-10T08:20:31Z</time>
      </trkpt>
      <trkpt lat="45.20027" lon="5.86612">
        <ele>809.8</ele>
        <time>2021-04-10T08:20:32Z</time>
      </trkpt>
      <trkpt lat="45.20026" lon="5.86613">
        <ele>810.2</ele>
        <time>2021-04-10T08:20:33Z</time>
      </trkpt>
      <trkpt lat="45.20026" lon="5.86614">
        <ele>810.6</ele>
        <time>2021-04-10T08:20:34Z</time>
      </trkpt>
      <trkpt lat="45.20026" lon="5.86615">
        <ele>810.8</ele>
        <time>2021-04-10T08:20:35Z</time>
      </trkpt>
      <trkpt lat="45.20025" lon="5.86616">
        <ele>810.8</ele>
        <time>2021-04-10T08:20:36Z</time>
      </trkpt>
      <trkpt lat="45.20025" lon="5.86617">
        <ele>811</ele>
        <time>2021-04-10T08:20:37Z</time>
      </trkpt>
      <trkpt lat="45.20025" lon="5.86618">
        <ele>811.2</ele>
        <time>2021-04-10T08:20:38Z</time>
      </trkpt>
      <trkpt lat="45.20024" lon="5.86619">
        <ele>811.4</ele>
        <time>2021-04-10T08:20:39Z</time>
      </trkpt>
      <trkpt lat="45.20024" lon="5.86621">
        <ele>811.6</ele>
        <time>2021-04-10T08:20:40Z</time>
      </trkpt>
      <trkpt lat="45.20023" lon="5.86622">
        <ele>811.8</ele>
        <time>2021-04-10T08:20:41Z</time>
      </trkpt>
      <trkpt lat="45.20023" lon="5.86623">
        <ele>811.8</ele>
        <time>2021-04-10T08:20:42Z</time>
      </trkpt>
      <trkpt lat="45.20023" lon="5.86625">
        <ele>812</ele>
        <time>2021-04-10T08:20:43Z</time>
      </trkpt>
      <trkpt lat="45.20022" lon="5.86626">
        <ele>812</ele>
        <time>2021-04-10T08:20:44Z</time>
      </trkpt>
      <trkpt lat="45.20022" lon="5.86627">
        <ele>812.2</ele>
        <time>2021-04-10T08:20:45Z</time>
      </trkpt>
      <trkpt lat="45.20021" lon="5.86629">
        <ele>812.4</ele>
        <time>2021-04-10T08:20:46Z</time>
      </trkpt>
      <trkpt lat="45.20022" lon="5.8663">
        <ele>812.4</ele>
        <time>2021-04-10T08:20:47Z</time>
      </trkpt>
      <trkpt lat="45.20022" lon="5.86631">
        <ele>812.6</ele>
        <time>2021-04-10T08:20:48Z</time>
      </trkpt>
      <trkpt lat="45.20022" lon="5.86632">
        <ele>812.6</ele>
        <time>2021-04-10T08:20:49Z</time>
      </trkpt>
      <trkpt lat="45.20022" lon="5.86633">
        <ele>812.6</ele>
        <time>2021-04-10T08:20:50Z</time>
      </trkpt>
      <trkpt lat="45.20023" lon="5.86635">
        <ele>812.8</ele>
        <time>2021-04-10T08:20:51Z</time>
      </trkpt>
      <trkpt lat="45.20023" lon="5.86636">
        <ele>813</ele>
        <time>2021-04-10T08:20:52Z</time>
      </trkpt>
      <trkpt lat="45.20023" lon="5.86637">
        <ele>813.2</ele>
        <time>2021-04-10T08:20:53Z</time>
      </trkpt>
      <trkpt lat="45.20024" lon="5.86638">
        <ele>813.4</ele>
        <time>2021-04-10T08:20:54Z</time>
      </trkpt>
      <trkpt lat="45.20024" lon="5.86639">
        <ele>813.4</ele>
        <time>2021-04-10T08:20:55Z</time>
      </trkpt>
      <trkpt lat="45.20024" lon="5.86641">
        <ele>813.8</ele>
        <time>2021-04-10T08:20:56Z</time>
      </trkpt>
      <trkpt lat="45.20024" lon="5.86642">
        <ele>814</ele>
        <time>2021-04-10T08:20:57Z</time>
      </trkpt>
      <trkpt lat="45.20025" lon="5.86643">
        <ele>814.4</ele>
        <time>2021-04-10T08:20:58Z</time>
      </trkpt>
      <trkpt lat="45.20025" lon="5.86645">
        <ele>814.6</ele>
        <time>2021-04-10T08:20:59Z</time>
      </trkpt>
      <trkpt lat="45.20025" lon="5.86647">
        <ele>814.8</ele>
        <time>2021-04-10T08:21:00Z</time>
      </trkpt>
      <trkpt lat="45.20025" lon="5.86648">
        <ele>815.2</ele>
        <time>2021-04-10T08:21:01Z</time>
      </trkpt>
      <trkpt lat="45.20025" lon="5.8665">
        <ele>815.2</ele>
        <time>2021-04-10T08:21:02Z</time>
      </trkpt>
      <trkpt lat="45.20025" lon="5.86651">
        <ele>815.6</ele>
        <time>2021-04-10T08:21:03Z</time>
      </trkpt>
      <trkpt lat="45.20025" lon="5.86653">
        <ele>815.6</ele>
        <time>2021-04-10T08:21:04Z</time>
      </trkpt>
      <trkpt lat="45.20025" lon="5.86654">
        <ele>815.8</ele>
        <time>2021-04-10T08:21:05Z</time>
      </trkpt>
      <trkpt lat="45.20025" lon="5.86655">
        <ele>815.8</ele>
        <time>2021-04-10T08:21:06Z</time>
      </trkpt>
      <trkpt lat="45.20025" lon="5.86656">
        <ele>816.2</ele>
        <time>2021-04-10T08:21:07Z</time>
      </trkpt>
      <trkpt lat="45.20024" lon="5.86657">
        <ele>816.4</ele>
        <time>2021-04-10T08:21:08Z</time>
      </trkpt>
      <trkpt lat="45.20024" lon="5.86658">
        <ele>816.8</ele>
        <time>2021-04-10T08:21:09Z</time>
      </trkpt>
      <trkpt lat="45.20023" lon="5.86659">
        <ele>817</ele>
        <time>2021-04-10T08:21:10Z</time>
      </trkpt>
      <trkpt lat="45.20023" lon="5.8666">
        <ele>817.2</ele>
        <time>2021-04-10T08:21:11Z</time>
      </trkpt>
      <trkpt lat="45.20023" lon="5.86661">
        <ele>817.4</ele>
        <time>2021-04-10T08:21:12Z</time>
      </trkpt>
      <trkpt lat="45.20022" lon="5.86662">
        <ele>817.6</ele>
        <time>2021-04-10T08:21:13Z</time>
      </trkpt>
      <trkpt lat="45.20022" lon="5.86663">
        <ele>817.6</ele>
        <time>2021-04-10T08:21:14Z</time>
      </trkpt>
      <trkpt lat="45.20022" lon="5.86664">
        <ele>817.8</ele>
        <time>2021-04-10T08:21:15Z</time>
      </trkpt>
      <trkpt lat="45.20021" lon="5.86665">
        <ele>818.2</ele>
        <time>2021-04-10T08:21:16Z</time>
      </trkpt>
      <trkpt lat="45.20021" lon="5.86666">
        <ele>818.6</ele>
        <time>2021-04-10T08:21:17Z</time>
      </trkpt>
      <trkpt lat="45.2002" lon="5.86667">
        <ele>818.8</ele>
        <time>2021-04-10T08:21:18Z</time>
      </trkpt>
      <trkpt lat="45.20019" lon="5.86668">
        <ele>818.8</ele>
        <time>2021-04-10T08:21:19Z</time>
      </trkpt>
      <trkpt lat="45.20019" lon="5.86669">
        <ele>819.2</ele>
        <time>2021-04-10T08:21:20Z</time>
      </trkpt>
      <trkpt lat="45.20018" lon="5.8667">
        <ele>819.6</ele>
        <time>2021-04-10T08:21:21Z</time>
      </trkpt>
      <trkpt lat="45.20017" lon="5.86671">
        <ele>819.8</ele>
        <time>2021-04-10T08:21:22Z</time>
      </trkpt>
      <trkpt lat="45.20016" lon="5.86672">
        <ele>820.2</ele>
        <time>2021-04-10T08:21:23Z</time>
      </trkpt>
      <trkpt lat="45.20016" lon="5.86673">
        <ele>820.6</ele>
        <time>2021-04-10T08:21:24Z</time>
      </trkpt>
      <trkpt lat="45.20015" lon="5.86674">
        <ele>821</ele>
        <time>2021-04-10T08:21:25Z</time>
      </trkpt>
      <trkpt lat="45.20014" lon="5.86675">
        <ele>821.4</ele>
        <time>2021-04-10T08:21:26Z</time>
      </trkpt>
      <trkpt lat="45.20013" lon="5.86676">
        <ele>821.6</ele>
        <time>2021-04-10T08:21:27Z</time>
      </trkpt>
      <trkpt lat="45.20013" lon="5.86676">
        <ele>821.8</ele>
        <time>2021-04-10T08:21:28Z</time>
      </trkpt>
      <trkpt lat="45.20012" lon="5.86676">
        <ele>821.8</ele>
        <time>2021-04-10T08:21:29Z</time>
      </trkpt>
      <trkpt lat="45.20012" lon="5.86677">
        <ele>822</ele>
        <time>2021-04-10T08:21:30Z</time>
      </trkpt>
      <trkpt lat="45.20011" lon="5.86677">
        <ele>822.4</ele>
        <time>2021-04-10T08:21:31Z</time>
      </trkpt>
      <trkpt lat="45.2001" lon="5.86678">
        <ele>822.6</ele>
        <time>2021-04-10T08:21:32Z</time>
      </trkpt>
      <trkpt lat="45.2001" lon="5.86678">
        <ele>822.6</ele>
        <time>2021-04-10T08:21:33Z</time>
      </trkpt>
      <trkpt lat="45.20009" lon="5.86678">
        <ele>823</ele>
        <time>2021-04-10T08:21:34Z</time>
      </trkpt>
      <trkpt lat="45.20008" lon="5.86679">
        <ele>823.2</ele>
        <time>2021-04-10T08:21:35Z</time>
      </trkpt>
      <trkpt lat="45.20008" lon="5.86679">
        <ele>823.4</ele>
        <time>2021-04-10T08:21:36Z</time>
      </trkpt>
      <trkpt lat="45.20007" lon="5.86679">
        <ele>823.6</ele>
        <time>2021-04-10T08:21:37Z</time>
      </trkpt>
      <trkpt lat="45.20006" lon="5.8668">
        <ele>823.8</ele>
        <time>2021-04-10T08:21:38Z</time>
      </trkpt>
      <trkpt lat="45.20006" lon="5.8668">
        <ele>824</ele>
        <time>2021-04-10T08:21:39Z</time>
      </trkpt>
      <trkpt lat="45.20005" lon="5.86683">
        <ele>824.4</ele>
        <time>2021-04-10T08:21:40Z</time>
      </trkpt>
      <trkpt lat="45.20003" lon="5.86685">
        <ele>824.4</ele>
        <time>2021-04-10T08:21:41Z</time>
      </trkpt>
      <trkpt lat="45.20002" lon="5.86688">
        <ele>824.6</ele>
        <time>2021-04-10T08:21:42Z</time>
      </trkpt>
      <trkpt lat="45.20001" lon="5.8669">
        <ele>824.8</ele>
        <time>2021-04-10T08:21:43Z</time>
      </trkpt>
      <trkpt lat="45.2" lon="5.86692">
        <ele>825</ele>
        <time>2021-04-10T08:21:44Z</time>
      </trkpt>
      <trkpt lat="45.19999" lon="5.86695">
        <ele>825</ele>
        <time>2021-04-10T08:21:45Z</time>
      </trkpt>
      <trkpt lat="45.19998" lon="5.86697">
        <ele>825.2</ele>
        <time>2021-04-10T08:21:46Z</time>
      </trkpt>
      <trkpt lat="45.19997" lon="5.867">
        <ele>825.4</ele>
        <time>2021-04-10T08:21:47Z</time>
      </trkpt>
      <trkpt lat="45.19996" lon="5.86702">
        <ele>825.2</ele>
        <time>2021-04-10T08:21:48Z</time>
      </trkpt>
      <trkpt lat="45.19995" lon="5.86705">
        <ele>825.6</ele>
        <time>2021-04-10T08:21:49Z</time>
      </trkpt>
      <trkpt lat="45.19994" lon="5.86707">
        <ele>825.8</ele>
        <time>2021-04-10T08:21:50Z</time>
      </trkpt>
      <trkpt lat="45.1999" lon="5.86716">
        <ele>826</ele>
        <time>2021-04-10T08:21:51Z</time>
      </trkpt>
      <trkpt lat="45.1999" lon="5.86716">
        <ele>826.2</ele>
        <time>2021-04-10T08:21:52Z</time>
      </trkpt>
      <trkpt lat="45.1999" lon="5.86716">
        <ele>826.4</ele>
        <time>2021-04-10T08:21:53Z</time>
      </trkpt>
      <trkpt lat="45.19989" lon="5.86719">
        <ele>826.8</ele>
        <time>2021-04-10T08:21:54Z</time>
      </trkpt>
      <trkpt lat="45.19988" lon="5.86721">
        <ele>827</ele>
        <time>2021-04-10T08:21:55Z</time>
      </trkpt>
      <trkpt lat="45.19987" lon="5.86724">
        <ele>827.4</ele>
        <time>2021-04-10T08:21:56Z</time>
      </trkpt>
      <trkpt lat="45.19986" lon="5.86726">
        <ele>827.6</ele>
        <time>2021-04-10T08:21:57Z</time>
      </trkpt>
      <trkpt lat="45.19986" lon="5.86728">
        <ele>828</ele>
        <time>2021-04-10T08:21:58Z</time>
      </trkpt>
      <trkpt lat="45.19985" lon="5.86729">
        <ele>828</ele>
        <time>2021-04-10T08:21:59Z</time>
      </trkpt>
      <trkpt lat="45.19985" lon="5.8673">
        <ele>828.4</ele>
        <time>2021-04-10T08:22:00Z</time>
      </trkpt>
      <trkpt lat="45.19984" lon="5.8673">
        <ele>828.8</ele>
        <time>2021-04-10T08:22:01Z</time>
      </trkpt>
      <trkpt lat="45.19984" lon="5.86731">
        <ele>829</ele>
        <time>2021-04-10T08:22:02Z</time>
      </trkpt>
      <trkpt lat="45.19983" lon="5.86731">
        <ele>829.4</ele>
        <time>2021-04-10T08:22:03Z</time>
      </trkpt>
      <trkpt lat="45.19983" lon="5.86732">
        <ele>829.6</ele>
        <time>2021-04-10T08:22:04Z</time>
      </trkpt>
      <trkpt lat="45.19983" lon="5.86732">
        <ele>829.8</ele>
        <time>2021-04-10T08:22:05Z</time>
      </trkpt>
      <trkpt lat="45.19982" lon="5.86733">
        <ele>830</ele>
        <time>2021-04-10T08:22:06Z</time>
      </trkpt>
      <trkpt lat="45.19982" lon="5.86734">
        <ele>830.2</ele>
        <time>2021-04-10T08:22:07Z</time>
      </trkpt>
      <trkpt lat="45.19981" lon="5.86734">
        <ele>830.6</ele>
        <time>2021-04-10T08:22:08Z</time>
      </trkpt>
      <trkpt lat="45.19981" lon="5.86735">
        <ele>831</ele>
        <time>2021-04-10T08:22:09Z</time>
      </trkpt>
      <trkpt lat="45.19981" lon="5.86735">
        <ele>831.2</ele>
        <time>2021-04-10T08:22:10Z</time>
      </trkpt>
      <trkpt lat="45.1998" lon="5.86736">
        <ele>831.4</ele>
        <time>2021-04-10T08:22:11Z</time>
      </trkpt>
      <trkpt lat="45.1998" lon="5.86737">
        <ele>831.4</ele>
        <time>2021-04-10T08:22:12Z</time>
      </trkpt>
      <trkpt lat="45.19979" lon="5.86737">
        <ele>831.6</ele>
        <time>2021-04-10T08:22:13Z</time>
      </trkpt>
      <trkpt lat="45.19979" lon="5.86738">
        <ele>832</ele>
        <time>2021-04-10T08:22:14Z</time>
      </trkpt>
      <trkpt lat="45.19979" lon="5.86738">
        <ele>832.2</ele>
        <time>2021-04-10T08:22:15Z</time>
      </trkpt>
      <trkpt lat="45.19979" lon="5.86739">
        <ele>832.4</ele>
        <time>2021-04-10T08:22:16Z</time>
      </trkpt>
      <trkpt lat="45.19978" lon="5.8674">
        <ele>832.6</ele>
        <time>2021-04-10T08:22:17Z</time>
      </trkpt>
      <trkpt lat="45.19978" lon="5.86741">
        <ele>832.8</ele>
        <time>2021-04-10T08:22:18Z</time>
      </trkpt>
      <trkpt lat="45.19978" lon="5.86742">
        <ele>833.4</ele>
        <time>2021-04-10T08:22:19Z</time>
      </trkpt>
      <trkpt lat="45.19978" lon="5.86743">
        <ele>833.6</ele>
        <time>2021-04-10T08:22:20Z</time>
      </trkpt>
      <trkpt lat="45.19978" lon="5.86743">
        <ele>833.8</ele>
        <time>2021-04-10T08:22:21Z</time>
      </trkpt>
      <trkpt lat="45.19977" lon="5.86744">
        <ele>834.2</ele>
        <time>2021-04-10T08:22:22Z</time>
      </trkpt>
      <trkpt lat="45.19977" lon="5.86745">
        <ele>834.4</ele>
        <time>2021-04-10T08:22:23Z</time>
      </trkpt>
      <trkpt lat="45.19977" lon="5.86746">
        <ele>834.6</ele>
        <time>2021-04-10T08:22:24Z</time>
      </trkpt>
      <trkpt lat="45.19977" lon="5.86747">
        <ele>835</ele>
        <time>2021-04-10T08:22:25Z</time>
      </trkpt>
      <trkpt lat="45.19977" lon="5.86747">
        <ele>835.2</ele>
        <time>2021-04-10T08:22:26Z</time>
      </trkpt>
      <trkpt lat="45.19976" lon="5.86748">
        <ele>835.4</ele>
        <time>2021-04-10T08:22:27Z</time>
      </trkpt>
      <trkpt lat="45.19976" lon="5.86749">
        <ele>835.8</ele>
        <time>2021-04-10T08:22:28Z</time>
      </trkpt>
      <trkpt lat="45.19976" lon="5.8675">
        <ele>836</ele>
        <time>2021-04-10T08:22:29Z</time>
      </trkpt>
      <trkpt lat="45.19975" lon="5.86751">
        <ele>836.2</ele>
        <time>2021-04-10T08:22:30Z</time>
      </trkpt>
      <trkpt lat="45.19975" lon="5.86752">
        <ele>836.4</ele>
        <time>2021-04-10T08:22:31Z</time>
      </trkpt>
      <trkpt lat="45.19974" lon="5.86752">
        <ele>836.6</ele>
        <time>2021-04-10T08:22:32Z</time>
      </trkpt>
      <trkpt lat="45.19974" lon="5.86753">
        <ele>837</ele>
        <time>2021-04-10T08:22:33Z</time>
      </trkpt>
      <trkpt lat="45.19973" lon="5.86754">
        <ele>837.2</ele>
        <time>2021-04-10T08:22:34Z</time>
      </trkpt>
      <trkpt lat="45.19972" lon="5.86755">
        <ele>837.4</ele>
        <time>2021-04-10T08:22:35Z</time>
      </trkpt>
      <trkpt lat="45.19972" lon="5.86756">
        <ele>837.6</ele>
        <time>2021-04-10T08:22:36Z</time>
      </trkpt>
      <trkpt lat="45.19971" lon="5.86757">
        <ele>838</ele>
        <time>2021-04-10T08:22:37Z</time>
      </trkpt>
      <trkpt lat="45.1997" lon="5.86757">
        <ele>838</ele>
        <time>2021-04-10T08:22:38Z</time>
      </trkpt>
      <trkpt lat="45.1997" lon="5.86758">
        <ele>838.4</ele>
        <time>2021-04-10T08:22:39Z</time>
      </trkpt>
      <trkpt lat="45.19969" lon="5.86759">
        <ele>838.6</ele>
        <time>2021-04-10T08:22:40Z</time>
      </trkpt>
      <trkpt lat="45.19969" lon="5.8676">
        <ele>838.8</ele>
        <time>2021-04-10T08:22:41Z</time>
      </trkpt>
      <trkpt lat="45.19969" lon="5.8676">
        <ele>839.2</ele>
        <time>2021-04-10T08:22:42Z</time>
      </trkpt>
      <trkpt lat="45.19968" lon="5.86761">
        <ele>839.6</ele>
        <time>2021-04-10T08:22:43Z</time>
      </trkpt>
      <trkpt lat="45.19968" lon="5.86761">
        <ele>839.8</ele>
        <time>2021-04-10T08:22:44Z</time>
      </trkpt>
      <trkpt lat="45.19968" lon="5.86762">
        <ele>840</ele>
        <time>2021-04-10T08:22:45Z</time>
      </trkpt>
      <trkpt lat="45.19967" lon="5.86762">
        <ele>840.4</ele>
        <time>2021-04-10T08:22:46Z</time>
      </trkpt>
      <trkpt lat="45.19967" lon="5.86763">
        <ele>840.2</ele>
        <time>2021-04-10T08:22:47Z</time>
      </trkpt>
      <trkpt lat="45.19967" lon="5.86764">
        <ele>840.6</ele>
        <time>2021-04-10T08:22:48Z</time>
      </trkpt>
      <trkpt lat="45.19966" lon="5.86764">
        <ele>841</ele>
        <time>2021-04-10T08:22:49Z</time>
      </trkpt>
      <trkpt lat="45.19966" lon="5.86765">
        <ele>841.2</ele>
        <time>2021-04-10T08:22:50Z</time>
      </trkpt>
      <trkpt lat="45.19966" lon="5.86765">
        <ele>841.4</ele>
        <time>2021-04-10T08:22:51Z</time>
      </trkpt>
      <trkpt lat="45.19965" lon="5.86766">
        <ele>841.8</ele>
        <time>2021-04-10T08:22:52Z</time>
      </trkpt>
      <trkpt lat="45.19965" lon="5.86766">
        <ele>842</ele>
        <time>2021-04-10T08:22:53Z</time>
      </trkpt>
      <trkpt lat="45.19965" lon="5.86767">
        <ele>842.2</ele>
        <time>2021-04-10T08:22:54Z</time>
      </trkpt>
      <trkpt lat="45.19964" lon="5.86767">
        <ele>842.4</ele>
        <time>2021-04-10T08:22:55Z</time>
      </trkpt>
      <trkpt lat="45.19964" lon="5.86768">
        <ele>842.8</ele>
        <time>2021-04-10T08:22:56Z</time>
      </trkpt>
      <trkpt lat="45.19964" lon="5.86768">
        <ele>843.4</ele>
        <time>2021-04-10T08:22:57Z</time>
      </trkpt>
      <trkpt lat="45.19963" lon="5.86769">
        <ele>843.6</ele>
        <time>2021-04-10T08:22:58Z</time>
      </trkpt>
      <trkpt lat="45.19963" lon="5.8677">
        <ele>843.8</ele>
        <time>2021-04-10T08:22:59Z</time>
      </trkpt>
      <trkpt lat="45.19962" lon="5.86771">
        <ele>844</ele>
        <time>2021-04-10T08:23:00Z</time>
      </trkpt>
      <trkpt lat="45.19962" lon="5.86772">
        <ele>844</ele>
        <time>2021-04-10T08:23:01Z</time>
      </trkpt>
      <trkpt lat="45.19961" lon="5.86773">
        <ele>844.2</ele>
        <time>2021-04-10T08:23:02Z</time>
      </trkpt>
      <trkpt lat="45.19961" lon="5.86774">
        <ele>844.6</ele>
        <time>2021-04-10T08:23:03Z</time>
      </trkpt>
      <trkpt lat="45.1996" lon="5.86775">
        <ele>844.8</ele>
        <time>2021-04-10T08:23:04Z</time>
      </trkpt>
      <trkpt lat="45.19959" lon="5.86776">
        <ele>845</ele>
        <time>2021-04-10T08:23:05Z</time>
      </trkpt>
      <trkpt lat="45.19959" lon="5.86777">
        <ele>845.2</ele>
        <time>2021-04-10T08:23:06Z</time>
      </trkpt>
      <trkpt lat="45.19958" lon="5.86778">
        <ele>845.6</ele>
        <time>2021-04-10T08:23:07Z</time>
      </trkpt>
      <trkpt lat="45.19958" lon="5.86779">
        <ele>845.6</ele>
        <time>2021-04-10T08:23:08Z</time>
      </trkpt>
      <trkpt lat="45.19957" lon="5.8678">
        <ele>846</ele>
        <time>2021-04-10T08:23:09Z</time>
      </trkpt>
      <trkpt lat="45.19957" lon="5.86781">
        <ele>846.2</ele>
        <time>2021-04-10T08:23:10Z</time>
      </trkpt>
      <trkpt lat="45.19957" lon="5.86782">
        <ele>846.4</ele>
        <time>2021-04-10T08:23:11Z</time>
      </trkpt>
      <trkpt lat="45.19956" lon="5.86782">
        <ele>846.6</ele>
        <time>2021-04-10T08:23:12Z</time>
      </trkpt>
      <trkpt lat="45.19956" lon="5.86783">
        <ele>846.8</ele>
        <time>2021-04-10T08:23:13Z</time>
      </trkpt>
      <trkpt lat="45.19956" lon="5.86784">
        <ele>847</ele>
        <time>2021-04-10T08:23:14Z</time>
      </trkpt>
      <trkpt lat="45.19955" lon="5.86784">
        <ele>847.6</ele>
        <time>2021-04-10T08:23:15Z</time>
      </trkpt>
      <trkpt lat="45.19955" lon="5.86785">
        <ele>847.6</ele>
        <time>2021-04-10T08:23:16Z</time>
      </trkpt>
      <trkpt lat="45.19955" lon="5.86786">
        <ele>848</ele>
        <time>2021-04-10T08:23:17Z</time>
      </trkpt>
      <trkpt lat="45.19954" lon="5.86787">
        <ele>848.2</ele>
        <time>2021-04-10T08:23:18Z</time>
      </trkpt>
      <trkpt lat="45.19954" lon="5.86787">
        <ele>848.6</ele>
        <time>2021-04-10T08:23:19Z</time>
      </trkpt>
      <trkpt lat="45.19953" lon="5.86788">
        <ele>848.8</ele>
        <time>2021-04-10T08:23:20Z</time>
      </trkpt>
      <trkpt lat="45.19953" lon="5.86789">
        <ele>849.2</ele>
        <time>2021-04-10T08:23:21Z</time>
      </trkpt>
      <trkpt lat="45.19953" lon="5.86789">
        <ele>849.2</ele>
        <time>2021-04-10T08:23:22Z</time>
      </trkpt>
      <trkpt lat="45.19952" lon="5.8679">
        <ele>849.4</ele>
        <time>2021-04-10T08:23:23Z</time>
      </trkpt>
      <trkpt lat="45.19952" lon="5.86791">
        <ele>849.8</ele>
        <time>2021-04-10T08:23:24Z</time>
      </trkpt>
      <trkpt lat="45.19951" lon="5.86792">
        <ele>850</ele>
        <time>2021-04-10T08:23:25Z</time>
      </trkpt>
      <trkpt lat="45.1995" lon="5.86794">
        <ele>850.2</ele>
        <time>2021-04-10T08:23:26Z</time>
      </trkpt>
      <trkpt lat="45.1995" lon="5.86795">
        <ele>850.4</ele>
        <time>2021-04-10T08:23:27Z</time>
      </trkpt>
      <trkpt lat="45.19949" lon="5.86796">
        <ele>850.6</ele>
        <time>2021-04-10T08:23:28Z</time>
      </trkpt>
      <trkpt lat="45.19948" lon="5.86797">
        <ele>850.8</ele>
        <time>2021-04-10T08:23:29Z</time>
      </trkpt>
      <trkpt lat="45.19947" lon="5.86798">
        <ele>851.2</ele>
        <time>2021-04-10T08:23:30Z</time>
      </trkpt>
      <trkpt lat="45.19947" lon="5.86799">
        <ele>851.4</ele>
        <time>2021-04-10T08:23:31Z</time>
      </trkpt>
      <trkpt lat="45.19946" lon="5.868">
        <ele>851.8</ele>
        <time>2021-04-10T08:23:32Z</time>
      </trkpt>
      <trkpt lat="45.19945" lon="5.86801">
        <ele>851.8</ele>
        <time>2021-04-10T08:23:33Z</time>
      </trkpt>
      <trkpt lat="45.19945" lon="5.86802">
        <ele>852.4</ele>
        <time>2021-04-10T08:23:34Z</time>
      </trkpt>
      <trkpt lat="45.19944" lon="5.86803">
        <ele>852.8</ele>
        <time>2021-04-10T08:23:35Z</time>
      </trkpt>
      <trkpt lat="45.19943" lon="5.86804">
        <ele>853</ele>
        <time>2021-04-10T08:23:36Z</time>
      </trkpt>
      <trkpt lat="45.19943" lon="5.86805">
        <ele>853</ele>
        <time>2021-04-10T08:23:37Z</time>
      </trkpt>
      <trkpt lat="45.19942" lon="5.86806">
        <ele>853.2</ele>
        <time>2021-04-10T08:23:38Z</time>
      </trkpt>
      <trkpt lat="45.19941" lon="5.86807">
        <ele>853.4</ele>
        <time>2021-04-10T08:23:39Z</time>
      </trkpt>
      <trkpt lat="45.1994" lon="5.86808">
        <ele>853.8</ele>
        <time>2021-04-10T08:23:40Z</time>
      </trkpt>
      <trkpt lat="45.1994" lon="5.86809">
        <ele>854</ele>
        <time>2021-04-10T08:23:41Z</time>
      </trkpt>
      <trkpt lat="45.19939" lon="5.8681">
        <ele>854.2</ele>
        <time>2021-04-10T08:23:42Z</time>
      </trkpt>
      <trkpt lat="45.19938" lon="5.86811">
        <ele>854.4</ele>
        <time>2021-04-10T08:23:43Z</time>
      </trkpt>
      <trkpt lat="45.19938" lon="5.86811">
        <ele>854.6</ele>
        <time>2021-04-10T08:23:44Z</time>
      </trkpt>
      <trkpt lat="45.19938" lon="5.86811">
        <ele>854.8</ele>
        <time>2021-04-10T08:23:45Z</time>
      </trkpt>
      <trkpt lat="45.19938" lon="5.86813">
        <ele>855.2</ele>
        <time>2021-04-10T08:23:46Z</time>
      </trkpt>
      <trkpt lat="45.19938" lon="5.86814">
        <ele>855.4</ele>
        <time>2021-04-10T08:23:47Z</time>
      </trkpt>
      <trkpt lat="45.19938" lon="5.86816">
        <ele>855.8</ele>
        <time>2021-04-10T08:23:48Z</time>
      </trkpt>
      <trkpt lat="45.19938" lon="5.86818">
        <ele>856.2</ele>
        <time>2021-04-10T08:23:49Z</time>
      </trkpt>
      <trkpt lat="45.19938" lon="5.86819">
        <ele>856.6</ele>
        <time>2021-04-10T08:23:50Z</time>
      </trkpt>
      <trkpt lat="45.19937" lon="5.86821">
        <ele>856.6</ele>
        <time>2021-04-10T08:23:51Z</time>
      </trkpt>
      <trkpt lat="45.19937" lon="5.86822">
        <ele>856.8</ele>
        <time>2021-04-10T08:23:52Z</time>
      </trkpt>
      <trkpt lat="45.19937" lon="5.86824">
        <ele>857</ele>
        <time>2021-04-10T08:23:53Z</time>
      </trkpt>
      <trkpt lat="45.19937" lon="5.86825">
        <ele>857.2</ele>
        <time>2021-04-10T08:23:54Z</time>
      </trkpt>
      <trkpt lat="45.19937" lon="5.86825">
        <ele>857.4</ele>
        <time>2021-04-10T08:23:55Z</time>
      </trkpt>
      <trkpt lat="45.19937" lon="5.86826">
        <ele>857.6</ele>
        <time>2021-04-10T08:23:56Z</time>
      </trkpt>
      <trkpt lat="45.19937" lon="5.86827">
        <ele>857.6</ele>
        <time>2021-04-10T08:23:57Z</time>
      </trkpt>
      <trkpt lat="45.19936" lon="5.86827">
        <ele>858</ele>
        <time>2021-04-10T08:23:58Z</time>
      </trkpt>
      <trkpt lat="45.19936" lon="5.86828">
        <ele>858.2</ele>
        <time>2021-04-10T08:23:59Z</time>
      </trkpt>
      <trkpt lat="45.19936" lon="5.86828">
        <ele>858.4</ele>
        <time>2021-04-10T08:24:00Z</time>
      </trkpt>
      <trkpt lat="45.19936" lon="5.86829">
        <ele>858.8</ele>
        <time>2021-04-10T08:24:01Z</time>
      </trkpt>
      <trkpt lat="45.19936" lon="5.8683">
        <ele>859</ele>
        <time>2021-04-10T08:24:02Z</time>
      </trkpt>
      <trkpt lat="45.19936" lon="5.8683">
        <ele>859.2</ele>
        <time>2021-04-10T08:24:03Z</time>
      </trkpt>
      <trkpt lat="45.19935" lon="5.86831">
        <ele>859.6</ele>
        <time>2021-04-10T08:24:04Z</time>
      </trkpt>
      <trkpt lat="45.19935" lon="5.86831">
        <ele>859.8</ele>
        <time>2021-04-10T08:24:05Z</time>
      </trkpt>
      <trkpt lat="45.19935" lon="5.86832">
        <ele>860.2</ele>
        <time>2021-04-10T08:24:06Z</time>
      </trkpt>
      <trkpt lat="45.19935" lon="5.86833">
        <ele>860.4</ele>
        <time>2021-04-10T08:24:07Z</time>
      </trkpt>
      <trkpt lat="45.19935" lon="5.86833">
        <ele>860.8</ele>
        <time>2021-04-10T08:24:08Z</time>
      </trkpt>
      <trkpt lat="45.19935" lon="5.86834">
        <ele>861</ele>
        <time>2021-04-10T08:24:09Z</time>
      </trkpt>
      <trkpt lat="45.19934" lon="5.86835">
        <ele>861.2</ele>
        <time>2021-04-10T08:24:10Z</time>
      </trkpt>
      <trkpt lat="45.19934" lon="5.86835">
        <ele>861.6</ele>
        <time>2021-04-10T08:24:11Z</time>
      </trkpt>
      <trkpt lat="45.19934" lon="5.86836">
        <ele>862</ele>
        <time>2021-04-10T08:24:12Z</time>
      </trkpt>
      <trkpt lat="45.19934" lon="5.86836">
        <ele>862.2</ele>
        <time>2021-04-10T08:24:13Z</time>
      </trkpt>
      <trkpt lat="45.19934" lon="5.86838">
        <ele>862.2</ele>
        <time>2021-04-10T08:24:14Z</time>
      </trkpt>
      <trkpt lat="45.19934" lon="5.86839">
        <ele>862.4</ele>
        <time>2021-04-10T08:24:15Z</time>
      </trkpt>
      <trkpt lat="45.19934" lon="5.8684">
        <ele>862.6</ele>
        <time>2021-04-10T08:24:16Z</time>
      </trkpt>
      <trkpt lat="45.19934" lon="5.86841">
        <ele>862.8</ele>
        <time>2021-04-10T08:24:17Z</time>
      </trkpt>
      <trkpt lat="45.19934" lon="5.86843">
        <ele>863</ele>
        <time>2021-04-10T08:24:18Z</time>
      </trkpt>
      <trkpt lat="45.19934" lon="5.86844">
        <ele>863.4</ele>
        <time>2021-04-10T08:24:19Z</time>
      </trkpt>
      <trkpt lat="45.19934" lon="5.86845">
        <ele>863.4</ele>
        <time>2021-04-10T08:24:20Z</time>
      </trkpt>
      <trkpt lat="45.19934" lon="5.86846">
        <ele>863.8</ele>
        <time>2021-04-10T08:24:21Z</time>
      </trkpt>
      <trkpt lat="45.19934" lon="5.86848">
        <ele>863.8</ele>
        <time>2021-04-10T08:24:22Z</time>
      </trkpt>
      <trkpt lat="45.19934" lon="5.86849">
        <ele>864.2</ele>
        <time>2021-04-10T08:24:23Z</time>
      </trkpt>
      <trkpt lat="45.19934" lon="5.8685">
        <ele>864.8</ele>
        <time>2021-04-10T08:24:24Z</time>
      </trkpt>
      <trkpt lat="45.19934" lon="5.86851">
        <ele>864.8</ele>
        <time>2021-04-10T08:24:25Z</time>
      </trkpt>
      <trkpt lat="45.19934" lon="5.86851">
        <ele>864.8</ele>
        <time>2021-04-10T08:24:26Z</time>
      </trkpt>
      <trkpt lat="45.19934" lon="5.86851">
        <ele>865</ele>
        <time>2021-04-10T08:24:27Z</time>
      </trkpt>
      <trkpt lat="45.19934" lon="5.86851">
        <ele>865.4</ele>
        <time>2021-04-10T08:24:28Z</time>
      </trkpt>
      <trkpt lat="45.19934" lon="5.86854">
        <ele>865.4</ele>
        <time>2021-04-10T08:24:29Z</time>
      </trkpt>
      <trkpt lat="45.19934" lon="5.86854">
        <ele>865.8</ele>
        <time>2021-04-10T08:24:30Z</time>
      </trkpt>
      <trkpt lat="45.19934" lon="5.86854">
        <ele>866</ele>
        <time>2021-04-10T08:24:31Z</time>
      </trkpt>
      <trkpt lat="45.19934" lon="5.86854">
        <ele>866.2</ele>
        <time>2021-04-10T08:24:32Z</time>
      </trkpt>
      <trkpt lat="45.19933" lon="5.86855">
        <ele>866.6</ele>
        <time>2021-04-10T08:24:33Z</time>
      </trkpt>
      <trkpt lat="45.19933" lon="5.86856">
        <ele>866.8</ele>
        <time>2021-04-10T08:24:34Z</time>
      </trkpt>
      <trkpt lat="45.19933" lon="5.86857">
        <ele>867</ele>
        <time>2021-04-10T08:24:35Z</time>
      </trkpt>
      <trkpt lat="45.19932" lon="5.86857">
        <ele>867.2</ele>
        <time>2021-04-10T08:24:36Z</time>
      </trkpt>
      <trkpt lat="45.19932" lon="5.86858">
        <ele>867.4</ele>
        <time>2021-04-10T08:24:37Z</time>
      </trkpt>
      <trkpt lat="45.19932" lon="5.86859">
        <ele>867.6</ele>
        <time>2021-04-10T08:24:38Z</time>
      </trkpt>
      <trkpt lat="45.19931" lon="5.8686">
        <ele>867.6</ele>
        <time>2021-04-10T08:24:39Z</time>
      </trkpt>
      <trkpt lat="45.19931" lon="5.8686">
        <ele>867.8</ele>
        <time>2021-04-10T08:24:40Z</time>
      </trkpt>
      <trkpt lat="45.19931" lon="5.86861">
        <ele>868.2</ele>
        <time>2021-04-10T08:24:41Z</time>
      </trkpt>
      <trkpt lat="45.19931" lon="5.86862">
        <ele>868.4</ele>
        <time>2021-04-10T08:24:42Z</time>
      </trkpt>
      <trkpt lat="45.1993" lon="5.86863">
        <ele>868.4</ele>
        <time>2021-04-10T08:24:43Z</time>
      </trkpt>
      <trkpt lat="45.1993" lon="5.86864">
        <ele>868.8</ele>
        <time>2021-04-10T08:24:44Z</time>
      </trkpt>
      <trkpt lat="45.1993" lon="5.86864">
        <ele>868.8</ele>
        <time>2021-04-10T08:24:45Z</time>
      </trkpt>
      <trkpt lat="45.19929" lon="5.86865">
        <ele>868.6</ele>
        <time>2021-04-10T08:24:46Z</time>
      </trkpt>
      <trkpt lat="45.19929" lon="5.86866">
        <ele>868.8</ele>
        <time>2021-04-10T08:24:47Z</time>
      </trkpt>
      <trkpt lat="45.19929" lon="5.86867">
        <ele>869</ele>
        <time>2021-04-10T08:24:48Z</time>
      </trkpt>
      <trkpt lat="45.19928" lon="5.86867">
        <ele>869.2</ele>
        <time>2021-04-10T08:24:49Z</time>
      </trkpt>
      <trkpt lat="45.19928" lon="5.86868">
        <ele>869.4</ele>
        <time>2021-04-10T08:24:50Z</time>
      </trkpt>
      <trkpt lat="45.19927" lon="5.86869">
        <ele>869.4</ele>
        <time>2021-04-10T08:24:51Z</time>
      </trkpt>
      <trkpt lat="45.19927" lon="5.86869">
        <ele>869.4</ele>
        <time>2021-04-10T08:24:52Z</time>
      </trkpt>
      <trkpt lat="45.19926" lon="5.8687">
        <ele>869.6</ele>
        <time>2021-04-10T08:24:53Z</time>
      </trkpt>
      <trkpt lat="45.19926" lon="5.86871">
        <ele>869.4</ele>
        <time>2021-04-10T08:24:54Z</time>
      </trkpt>
      <trkpt lat="45.19925" lon="5.86871">
        <ele>869.4</ele>
        <time>2021-04-10T08:24:55Z</time>
      </trkpt>
      <trkpt lat="45.19925" lon="5.86872">
        <ele>869.4</ele>
        <time>2021-04-10T08:24:56Z</time>
      </trkpt>
      <trkpt lat="45.19924" lon="5.86873">
        <ele>869</ele>
        <time>2021-04-10T08:24:57Z</time>
      </trkpt>
      <trkpt lat="45.19924" lon="5.86873">
        <ele>869</ele>
        <time>2021-04-10T08:24:58Z</time>
      </trkpt>
      <trkpt lat="45.19923" lon="5.86874">
        <ele>868.6</ele>
        <time>2021-04-10T08:24:59Z</time>
      </trkpt>
      <trkpt lat="45.19923" lon="5.86875">
        <ele>868.4</ele>
        <time>2021-04-10T08:25:00Z</time>
      </trkpt>
      <trkpt lat="45.19922" lon="5.86875">
        <ele>868</ele>
        <time>2021-04-10T08:25:01Z</time>
      </trkpt>
      <trkpt lat="45.19922" lon="5.86876">
        <ele>867.6</ele>
        <time>2021-04-10T08:25:02Z</time>
      </trkpt>
      <trkpt lat="45.1992" lon="5.8688">
        <ele>867.8</ele>
        <time>2021-04-10T08:25:03Z</time>
      </trkpt>
      <trkpt lat="45.19919" lon="5.86883">
        <ele>867.6</ele>
        <time>2021-04-10T08:25:04Z</time>
      </trkpt>
      <trkpt lat="45.19917" lon="5.86887">
        <ele>867.8</ele>
        <time>2021-04-10T08:25:05Z</time>
      </trkpt>
      <trkpt lat="45.19916" lon="5.86891">
        <ele>867.8</ele>
        <time>2021-04-10T08:25:06Z</time>
      </trkpt>
      <trkpt lat="45.19915" lon="5.86895">
        <ele>868</ele>
        <time>2021-04-10T08:25:07Z</time>
      </trkpt>
      <trkpt lat="45.19913" lon="5.86898">
        <ele>867.8</ele>
        <time>2021-04-10T08:25:08Z</time>
      </trkpt>
      <trkpt lat="45.19912" lon="5.86902">
        <ele>868.2</ele>
        <time>2021-04-10T08:25:09Z</time>
      </trkpt>
      <trkpt lat="45.1991" lon="5.86906">
        <ele>868</ele>
        <time>2021-04-10T08:25:10Z</time>
      </trkpt>
      <trkpt lat="45.19909" lon="5.86919">
        <ele>868.4</ele>
        <time>2021-04-10T08:25:11Z</time>
      </trkpt>
      <trkpt lat="45.19909" lon="5.86919">
        <ele>868.4</ele>
        <time>2021-04-10T08:25:12Z</time>
      </trkpt>
      <trkpt lat="45.19909" lon="5.86919">
        <ele>868.8</ele>
        <time>2021-04-10T08:25:13Z</time>
      </trkpt>
      <trkpt lat="45.19909" lon="5.86919">
        <ele>868.6</ele>
        <time>2021-04-10T08:25:14Z</time>
      </trkpt>
      <trkpt lat="45.19908" lon="5.86921">
        <ele>869</ele>
        <time>2021-04-10T08:25:15Z</time>
      </trkpt>
      <trkpt lat="45.19908" lon="5.86922">
        <ele>868.8</ele>
        <time>2021-04-10T08:25:16Z</time>
      </trkpt>
      <trkpt lat="45.19908" lon="5.86924">
        <ele>869</ele>
        <time>2021-04-10T08:25:17Z</time>
      </trkpt>
      <trkpt lat="45.19908" lon="5.86925">
        <ele>868.8</ele>
        <time>2021-04-10T08:25:18Z</time>
      </trkpt>
      <trkpt lat="45.19908" lon="5.86927">
        <ele>869</ele>
        <time>2021-04-10T08:25:19Z</time>
      </trkpt>
      <trkpt lat="45.19908" lon="5.86929">
        <ele>869</ele>
        <time>2021-04-10T08:25:20Z</time>
      </trkpt>
      <trkpt lat="45.19908" lon="5.8693">
        <ele>869.4</ele>
        <time>2021-04-10T08:25:21Z</time>
      </trkpt>
      <trkpt lat="45.19908" lon="5.86932">
        <ele>869.4</ele>
        <time>2021-04-10T08:25:22Z</time>
      </trkpt>
      <trkpt lat="45.19908" lon="5.86933">
        <ele>869.6</ele>
        <time>2021-04-10T08:25:23Z</time>
      </trkpt>
      <trkpt lat="45.19908" lon="5.86935">
        <ele>869.6</ele>
        <time>2021-04-10T08:25:24Z</time>
      </trkpt>
      <trkpt lat="45.19907" lon="5.86937">
        <ele>869.8</ele>
        <time>2021-04-10T08:25:25Z</time>
      </trkpt>
      <trkpt lat="45.19907" lon="5.86939">
        <ele>869.6</ele>
        <time>2021-04-10T08:25:26Z</time>
      </trkpt>
      <trkpt lat="45.19907" lon="5.86941">
        <ele>869.6</ele>
        <time>2021-04-10T08:25:27Z</time>
      </trkpt>
      <trkpt lat="45.19906" lon="5.86943">
        <ele>869.6</ele>
        <time>2021-04-10T08:25:28Z</time>
      </trkpt>
      <trkpt lat="45.19906" lon="5.86945">
        <ele>870</ele>
        <time>2021-04-10T08:25:29Z</time>
      </trkpt>
      <trkpt lat="45.19906" lon="5.86947">
        <ele>870.4</ele>
        <time>2021-04-10T08:25:30Z</time>
      </trkpt>
      <trkpt lat="45.19906" lon="5.86949">
        <ele>870.8</ele>
        <time>2021-04-10T08:25:31Z</time>
      </trkpt>
      <trkpt lat="45.19905" lon="5.86952">
        <ele>871</ele>
        <time>2021-04-10T08:25:32Z</time>
      </trkpt>
      <trkpt lat="45.19904" lon="5.86954">
        <ele>871.2</ele>
        <time>2021-04-10T08:25:33Z</time>
      </trkpt>
      <trkpt lat="45.19904" lon="5.86957">
        <ele>871.6</ele>
        <time>2021-04-10T08:25:34Z</time>
      </trkpt>
      <trkpt lat="45.19903" lon="5.8696">
        <ele>871.8</ele>
        <time>2021-04-10T08:25:35Z</time>
      </trkpt>
      <trkpt lat="45.19902" lon="5.86962">
        <ele>872.2</ele>
        <time>2021-04-10T08:25:36Z</time>
      </trkpt>
      <trkpt lat="45.19902" lon="5.86965">
        <ele>872.2</ele>
        <time>2021-04-10T08:25:37Z</time>
      </trkpt>
      <trkpt lat="45.19901" lon="5.86967">
        <ele>872.4</ele>
        <time>2021-04-10T08:25:38Z</time>
      </trkpt>
      <trkpt lat="45.199" lon="5.86969">
        <ele>872.4</ele>
        <time>2021-04-10T08:25:39Z</time>
      </trkpt>
      <trkpt lat="45.19899" lon="5.86972">
        <ele>872.6</ele>
        <time>2021-04-10T08:25:40Z</time>
      </trkpt>
      <trkpt lat="45.19899" lon="5.86974">
        <ele>872.8</ele>
        <time>2021-04-10T08:25:41Z</time>
      </trkpt>
      <trkpt lat="45.19898" lon="5.86976">
        <ele>873</ele>
        <time>2021-04-10T08:25:42Z</time>
      </trkpt>
      <trkpt lat="45.19897" lon="5.86979">
        <ele>873.4</ele>
        <time>2021-04-10T08:25:43Z</time>
      </trkpt>
      <trkpt lat="45.19897" lon="5.86979">
        <ele>874</ele>
        <time>2021-04-10T08:25:44Z</time>
      </trkpt>
      <trkpt lat="45.19897" lon="5.86979">
        <ele>874.2</ele>
        <time>2021-04-10T08:25:45Z</time>
      </trkpt>
      <trkpt lat="45.19897" lon="5.86982">
        <ele>874.6</ele>
        <time>2021-04-10T08:25:46Z</time>
      </trkpt>
      <trkpt lat="45.19897" lon="5.86982">
        <ele>874.8</ele>
        <time>2021-04-10T08:25:47Z</time>
      </trkpt>
      <trkpt lat="45.19897" lon="5.86982">
        <ele>874.8</ele>
        <time>2021-04-10T08:25:48Z</time>
      </trkpt>
      <trkpt lat="45.19897" lon="5.86982">
        <ele>875.4</ele>
        <time>2021-04-10T08:25:49Z</time>
      </trkpt>
      <trkpt lat="45.19896" lon="5.86984">
        <ele>875.8</ele>
        <time>2021-04-10T08:25:50Z</time>
      </trkpt>
      <trkpt lat="45.19896" lon="5.86984">
        <ele>876.2</ele>
        <time>2021-04-10T08:25:51Z</time>
      </trkpt>
      <trkpt lat="45.19896" lon="5.86984">
        <ele>876.6</ele>
        <time>2021-04-10T08:25:52Z</time>
      </trkpt>
      <trkpt lat="45.19896" lon="5.86984">
        <ele>876.6</ele>
        <time>2021-04-10T08:25:53Z</time>
      </trkpt>
      <trkpt lat="45.19896" lon="5.86984">
        <ele>876.8</ele>
        <time>2021-04-10T08:25:54Z</time>
      </trkpt>
      <trkpt lat="45.19897" lon="5.86988">
        <ele>877</ele>
        <time>2021-04-10T08:25:55Z</time>
      </trkpt>
      <trkpt lat="45.19897" lon="5.86988">
        <ele>877.2</ele>
        <time>2021-04-10T08:25:56Z</time>
      </trkpt>
      <trkpt lat="45.19897" lon="5.86988">
        <ele>877.4</ele>
        <time>2021-04-10T08:25:57Z</time>
      </trkpt>
      <trkpt lat="45.19897" lon="5.86991">
        <ele>877.8</ele>
        <time>2021-04-10T08:25:58Z</time>
      </trkpt>
      <trkpt lat="45.19897" lon="5.86991">
        <ele>878.2</ele>
        <time>2021-04-10T08:25:59Z</time>
      </trkpt>
      <trkpt lat="45.19895" lon="5.86994">
        <ele>878.4</ele>
        <time>2021-04-10T08:26:00Z</time>
      </trkpt>
      <trkpt lat="45.19895" lon="5.86994">
        <ele>878.6</ele>
        <time>2021-04-10T08:26:01Z</time>
      </trkpt>
      <trkpt lat="45.19894" lon="5.86997">
        <ele>878.8</ele>
        <time>2021-04-10T08:26:02Z</time>
      </trkpt>
      <trkpt lat="45.19894" lon="5.86997">
        <ele>879</ele>
        <time>2021-04-10T08:26:03Z</time>
      </trkpt>
      <trkpt lat="45.19894" lon="5.86997">
        <ele>879.2</ele>
        <time>2021-04-10T08:26:04Z</time>
      </trkpt>
      <trkpt lat="45.19893" lon="5.87">
        <ele>879.6</ele>
        <time>2021-04-10T08:26:05Z</time>
      </trkpt>
      <trkpt lat="45.19893" lon="5.87">
        <ele>880</ele>
        <time>2021-04-10T08:26:06Z</time>
      </trkpt>
      <trkpt lat="45.19891" lon="5.87003">
        <ele>880.2</ele>
        <time>2021-04-10T08:26:07Z</time>
      </trkpt>
      <trkpt lat="45.19891" lon="5.87003">
        <ele>880.2</ele>
        <time>2021-04-10T08:26:08Z</time>
      </trkpt>
      <trkpt lat="45.19891" lon="5.87003">
        <ele>880.6</ele>
        <time>2021-04-10T08:26:09Z</time>
      </trkpt>
      <trkpt lat="45.19891" lon="5.87006">
        <ele>880.6</ele>
        <time>2021-04-10T08:26:10Z</time>
      </trkpt>
      <trkpt lat="45.19891" lon="5.87006">
        <ele>881</ele>
        <time>2021-04-10T08:26:11Z</time>
      </trkpt>
      <trkpt lat="45.1989" lon="5.87009">
        <ele>881</ele>
        <time>2021-04-10T08:26:12Z</time>
      </trkpt>
      <trkpt lat="45.1989" lon="5.87009">
        <ele>881.2</ele>
        <time>2021-04-10T08:26:13Z</time>
      </trkpt>
      <trkpt lat="45.1989" lon="5.87009">
        <ele>881.8</ele>
        <time>2021-04-10T08:26:14Z</time>
      </trkpt>
      <trkpt lat="45.1989" lon="5.87009">
        <ele>882</ele>
        <time>2021-04-10T08:26:15Z</time>
      </trkpt>
      <trkpt lat="45.19889" lon="5.87012">
        <ele>882.2</ele>
        <time>2021-04-10T08:26:16Z</time>
      </trkpt>
      <trkpt lat="45.19889" lon="5.87012">
        <ele>882.4</ele>
        <time>2021-04-10T08:26:17Z</time>
      </trkpt>
      <trkpt lat="45.19887" lon="5.87014">
        <ele>882.4</ele>
        <time>2021-04-10T08:26:18Z</time>
      </trkpt>
      <trkpt lat="45.19885" lon="5.87016">
        <ele>883</ele>
        <time>2021-04-10T08:26:19Z</time>
      </trkpt>
      <trkpt lat="45.19885" lon="5.87016">
        <ele>883.4</ele>
        <time>2021-04-10T08:26:20Z</time>
      </trkpt>
      <trkpt lat="45.19885" lon="5.87016">
        <ele>883.8</ele>
        <time>2021-04-10T08:26:21Z</time>
      </trkpt>
      <trkpt lat="45.19885" lon="5.87016">
        <ele>884.2</ele>
        <time>2021-04-10T08:26:22Z</time>
      </trkpt>
      <trkpt lat="45.19885" lon="5.87016">
        <ele>884.2</ele>
        <time>2021-04-10T08:26:23Z</time>
      </trkpt>
      <trkpt lat="45.19884" lon="5.87017">
        <ele>884.4</ele>
        <time>2021-04-10T08:26:24Z</time>
      </trkpt>
      <trkpt lat="45.19883" lon="5.87017">
        <ele>884.8</ele>
        <time>2021-04-10T08:26:25Z</time>
      </trkpt>
      <trkpt lat="45.19883" lon="5.87018">
        <ele>885</ele>
        <time>2021-04-10T08:26:26Z</time>
      </trkpt>
      <trkpt lat="45.19882" lon="5.87018">
        <ele>885.4</ele>
        <time>2021-04-10T08:26:27Z</time>
      </trkpt>
      <trkpt lat="45.19881" lon="5.87019">
        <ele>885.6</ele>
        <time>2021-04-10T08:26:28Z</time>
      </trkpt>
      <trkpt lat="45.19881" lon="5.87019">
        <ele>885.8</ele>
        <time>2021-04-10T08:26:29Z</time>
      </trkpt>
      <trkpt lat="45.1988" lon="5.8702">
        <ele>886.2</ele>
        <time>2021-04-10T08:26:30Z</time>
      </trkpt>
      <trkpt lat="45.19879" lon="5.8702">
        <ele>886.4</ele>
        <time>2021-04-10T08:26:31Z</time>
      </trkpt>
      <trkpt lat="45.19879" lon="5.87021">
        <ele>886.6</ele>
        <time>2021-04-10T08:26:32Z</time>
      </trkpt>
      <trkpt lat="45.19878" lon="5.87021">
        <ele>886.8</ele>
        <time>2021-04-10T08:26:33Z</time>
      </trkpt>
      <trkpt lat="45.19877" lon="5.87022">
        <ele>887.2</ele>
        <time>2021-04-10T08:26:34Z</time>
      </trkpt>
      <trkpt lat="45.19876" lon="5.87022">
        <ele>887.4</ele>
        <time>2021-04-10T08:26:35Z</time>
      </trkpt>
      <trkpt lat="45.19874" lon="5.87022">
        <ele>887.6</ele>
        <time>2021-04-10T08:26:36Z</time>
      </trkpt>
      <trkpt lat="45.19873" lon="5.87022">
        <ele>887.6</ele>
        <time>2021-04-10T08:26:37Z</time>
      </trkpt>
      <trkpt lat="45.19872" lon="5.87022">
        <ele>888</ele>
        <time>2021-04-10T08:26:38Z</time>
      </trkpt>
      <trkpt lat="45.19871" lon="5.87022">
        <ele>888.2</ele>
        <time>2021-04-10T08:26:39Z</time>
      </trkpt>
      <trkpt lat="45.19869" lon="5.87022">
        <ele>888.6</ele>
        <time>2021-04-10T08:26:40Z</time>
      </trkpt>
      <trkpt lat="45.19868" lon="5.87022">
        <ele>889</ele>
        <time>2021-04-10T08:26:41Z</time>
      </trkpt>
      <trkpt lat="45.19868" lon="5.87022">
        <ele>889</ele>
        <time>2021-04-10T08:26:42Z</time>
      </trkpt>
      <trkpt lat="45.19867" lon="5.87023">
        <ele>889.2</ele>
        <time>2021-04-10T08:26:43Z</time>
      </trkpt>
      <trkpt lat="45.19867" lon="5.87023">
        <ele>889.4</ele>
        <time>2021-04-10T08:26:44Z</time>
      </trkpt>
      <trkpt lat="45.19867" lon="5.87024">
        <ele>889.6</ele>
        <time>2021-04-10T08:26:45Z</time>
      </trkpt>
      <trkpt lat="45.19867" lon="5.87024">
        <ele>889.8</ele>
        <time>2021-04-10T08:26:46Z</time>
      </trkpt>
      <trkpt lat="45.19866" lon="5.87025">
        <ele>890.2</ele>
        <time>2021-04-10T08:26:47Z</time>
      </trkpt>
      <trkpt lat="45.19866" lon="5.87026">
        <ele>890.4</ele>
        <time>2021-04-10T08:26:48Z</time>
      </trkpt>
      <trkpt lat="45.19866" lon="5.87026">
        <ele>890.6</ele>
        <time>2021-04-10T08:26:49Z</time>
      </trkpt>
      <trkpt lat="45.19865" lon="5.87027">
        <ele>891</ele>
        <time>2021-04-10T08:26:50Z</time>
      </trkpt>
      <trkpt lat="45.19865" lon="5.87027">
        <ele>891.4</ele>
        <time>2021-04-10T08:26:51Z</time>
      </trkpt>
      <trkpt lat="45.19865" lon="5.87028">
        <ele>891.6</ele>
        <time>2021-04-10T08:26:52Z</time>
      </trkpt>
      <trkpt lat="45.19865" lon="5.87028">
        <ele>891.8</ele>
        <time>2021-04-10T08:26:53Z</time>
      </trkpt>
      <trkpt lat="45.19864" lon="5.87029">
        <ele>891.8</ele>
        <time>2021-04-10T08:26:54Z</time>
      </trkpt>
      <trkpt lat="45.19864" lon="5.87029">
        <ele>892.2</ele>
        <time>2021-04-10T08:26:55Z</time>
      </trkpt>
      <trkpt lat="45.19864" lon="5.8703">
        <ele>892.2</ele>
        <time>2021-04-10T08:26:56Z</time>
      </trkpt>
      <trkpt lat="45.19864" lon="5.8703">
        <ele>892.4</ele>
        <time>2021-04-10T08:26:57Z</time>
      </trkpt>
      <trkpt lat="45.19863" lon="5.87031">
        <ele>892.6</ele>
        <time>2021-04-10T08:26:58Z</time>
      </trkpt>
      <trkpt lat="45.19863" lon="5.87032">
        <ele>892.4</ele>
        <time>2021-04-10T08:26:59Z</time>
      </trkpt>
      <trkpt lat="45.19863" lon="5.87032">
        <ele>892.4</ele>
        <time>2021-04-10T08:27:00Z</time>
      </trkpt>
      <trkpt lat="45.19863" lon="5.87035">
        <ele>892.6</ele>
        <time>2021-04-10T08:27:01Z</time>
      </trkpt>
      <trkpt lat="45.19863" lon="5.87037">
        <ele>892.8</ele>
        <time>2021-04-10T08:27:02Z</time>
      </trkpt>
      <trkpt lat="45.19863" lon="5.87039">
        <ele>892.8</ele>
        <time>2021-04-10T08:27:03Z</time>
      </trkpt>
      <trkpt lat="45.19863" lon="5.87042">
        <ele>893</ele>
        <time>2021-04-10T08:27:04Z</time>
      </trkpt>
      <trkpt lat="45.19864" lon="5.87044">
        <ele>893</ele>
        <time>2021-04-10T08:27:05Z</time>
      </trkpt>
      <trkpt lat="45.19864" lon="5.87046">
        <ele>893</ele>
        <time>2021-04-10T08:27:06Z</time>
      </trkpt>
      <trkpt lat="45.19864" lon="5.87049">
        <ele>893.2</ele>
        <time>2021-04-10T08:27:07Z</time>
      </trkpt>
      <trkpt lat="45.19864" lon="5.87051">
        <ele>893.4</ele>
        <time>2021-04-10T08:27:08Z</time>
      </trkpt>
      <trkpt lat="45.19864" lon="5.87053">
        <ele>893.4</ele>
        <time>2021-04-10T08:27:09Z</time>
      </trkpt>
      <trkpt lat="45.19865" lon="5.87055">
        <ele>893.4</ele>
        <time>2021-04-10T08:27:10Z</time>
      </trkpt>
      <trkpt lat="45.19865" lon="5.87056">
        <ele>893.4</ele>
        <time>2021-04-10T08:27:11Z</time>
      </trkpt>
      <trkpt lat="45.19866" lon="5.87058">
        <ele>893.4</ele>
        <time>2021-04-10T08:27:12Z</time>
      </trkpt>
      <trkpt lat="45.19866" lon="5.8706">
        <ele>893.4</ele>
        <time>2021-04-10T08:27:13Z</time>
      </trkpt>
      <trkpt lat="45.19867" lon="5.87061">
        <ele>893.4</ele>
        <time>2021-04-10T08:27:14Z</time>
      </trkpt>
      <trkpt lat="45.19867" lon="5.87063">
        <ele>893.4</ele>
        <time>2021-04-10T08:27:15Z</time>
      </trkpt>
      <trkpt lat="45.19867" lon="5.87065">
        <ele>893.6</ele>
        <time>2021-04-10T08:27:16Z</time>
      </trkpt>
      <trkpt lat="45.19867" lon="5.87067">
        <ele>893.6</ele>
        <time>2021-04-10T08:27:17Z</time>
      </trkpt>
      <trkpt lat="45.19867" lon="5.87069">
        <ele>893.8</ele>
        <time>2021-04-10T08:27:18Z</time>
      </trkpt>
      <trkpt lat="45.19868" lon="5.87071">
        <ele>893.8</ele>
        <time>2021-04-10T08:27:19Z</time>
      </trkpt>
      <trkpt lat="45.19868" lon="5.87073">
        <ele>893.8</ele>
        <time>2021-04-10T08:27:20Z</time>
      </trkpt>
      <trkpt lat="45.19868" lon="5.87075">
        <ele>893.8</ele>
        <time>2021-04-10T08:27:21Z</time>
      </trkpt>
      <trkpt lat="45.19868" lon="5.87078">
        <ele>894</ele>
        <time>2021-04-10T08:27:22Z</time>
      </trkpt>
      <trkpt lat="45.19868" lon="5.87079">
        <ele>894.2</ele>
        <time>2021-04-10T08:27:23Z</time>
      </trkpt>
      <trkpt lat="45.19867" lon="5.87081">
        <ele>894.2</ele>
        <time>2021-04-10T08:27:24Z</time>
      </trkpt>
      <trkpt lat="45.19867" lon="5.87082">
        <ele>894.2</ele>
        <time>2021-04-10T08:27:25Z</time>
      </trkpt>
      <trkpt lat="45.19867" lon="5.87084">
        <ele>894.2</ele>
        <time>2021-04-10T08:27:26Z</time>
      </trkpt>
      <trkpt lat="45.19867" lon="5.87086">
        <ele>894.4</ele>
        <time>2021-04-10T08:27:27Z</time>
      </trkpt>
      <trkpt lat="45.19866" lon="5.87087">
        <ele>895.2</ele>
        <time>2021-04-10T08:27:28Z</time>
      </trkpt>
      <trkpt lat="45.19866" lon="5.87089">
        <ele>895.4</ele>
        <time>2021-04-10T08:27:29Z</time>
      </trkpt>
      <trkpt lat="45.19866" lon="5.8709">
        <ele>895.8</ele>
        <time>2021-04-10T08:27:30Z</time>
      </trkpt>
      <trkpt lat="45.19866" lon="5.87096">
        <ele>895.8</ele>
        <time>2021-04-10T08:27:31Z</time>
      </trkpt>
      <trkpt lat="45.19865" lon="5.87098">
        <ele>895.8</ele>
        <time>2021-04-10T08:27:32Z</time>
      </trkpt>
      <trkpt lat="45.19865" lon="5.87098">
        <ele>896</ele>
        <time>2021-04-10T08:27:33Z</time>
      </trkpt>
      <trkpt lat="45.19865" lon="5.87098">
        <ele>896.4</ele>
        <time>2021-04-10T08:27:34Z</time>
      </trkpt>
      <trkpt lat="45.19865" lon="5.87098">
        <ele>896.4</ele>
        <time>2021-04-10T08:27:35Z</time>
      </trkpt>
      <trkpt lat="45.19865" lon="5.87098">
        <ele>896.4</ele>
        <time>2021-04-10T08:27:36Z</time>
      </trkpt>
      <trkpt lat="45.19863" lon="5.87102">
        <ele>896.4</ele>
        <time>2021-04-10T08:27:37Z</time>
      </trkpt>
      <trkpt lat="45.19863" lon="5.87104">
        <ele>896.4</ele>
        <time>2021-04-10T08:27:38Z</time>
      </trkpt>
      <trkpt lat="45.19863" lon="5.87106">
        <ele>896.4</ele>
        <time>2021-04-10T08:27:39Z</time>
      </trkpt>
      <trkpt lat="45.19863" lon="5.87108">
        <ele>896.2</ele>
        <time>2021-04-10T08:27:40Z</time>
      </trkpt>
      <trkpt lat="45.19863" lon="5.87108">
        <ele>896.2</ele>
        <time>2021-04-10T08:27:41Z</time>
      </trkpt>
      <trkpt lat="45.19863" lon="5.87108">
        <ele>896.2</ele>
        <time>2021-04-10T08:27:42Z</time>
      </trkpt>
      <trkpt lat="45.19863" lon="5.87108">
        <ele>896.2</ele>
        <time>2021-04-10T08:27:43Z</time>
      </trkpt>
      <trkpt lat="45.19862" lon="5.87109">
        <ele>896</ele>
        <time>2021-04-10T08:27:44Z</time>
      </trkpt>
      <trkpt lat="45.19862" lon="5.87111">
        <ele>895.6</ele>
        <time>2021-04-10T08:27:45Z</time>
      </trkpt>
      <trkpt lat="45.19861" lon="5.87112">
        <ele>895.2</ele>
        <time>2021-04-10T08:27:46Z</time>
      </trkpt>
      <trkpt lat="45.19861" lon="5.87114">
        <ele>894.8</ele>
        <time>2021-04-10T08:27:47Z</time>
      </trkpt>
      <trkpt lat="45.1986" lon="5.87115">
        <ele>894.4</ele>
        <time>2021-04-10T08:27:48Z</time>
      </trkpt>
      <trkpt lat="45.1986" lon="5.87117">
        <ele>894.2</ele>
        <time>2021-04-10T08:27:49Z</time>
      </trkpt>
      <trkpt lat="45.1986" lon="5.87119">
        <ele>893.8</ele>
        <time>2021-04-10T08:27:50Z</time>
      </trkpt>
      <trkpt lat="45.19859" lon="5.8712">
        <ele>893.6</ele>
        <time>2021-04-10T08:27:51Z</time>
      </trkpt>
      <trkpt lat="45.19859" lon="5.87122">
        <ele>893.4</ele>
        <time>2021-04-10T08:27:52Z</time>
      </trkpt>
      <trkpt lat="45.19859" lon="5.87123">
        <ele>893.2</ele>
        <time>2021-04-10T08:27:53Z</time>
      </trkpt>
      <trkpt lat="45.19859" lon="5.87125">
        <ele>893</ele>
        <time>2021-04-10T08:27:54Z</time>
      </trkpt>
      <trkpt lat="45.19858" lon="5.87126">
        <ele>893</ele>
        <time>2021-04-10T08:27:55Z</time>
      </trkpt>
      <trkpt lat="45.19858" lon="5.87128">
        <ele>893</ele>
        <time>2021-04-10T08:27:56Z</time>
      </trkpt>
      <trkpt lat="45.19858" lon="5.87129">
        <ele>893</ele>
        <time>2021-04-10T08:27:57Z</time>
      </trkpt>
      <trkpt lat="45.19858" lon="5.87131">
        <ele>892.8</ele>
        <time>2021-04-10T08:27:58Z</time>
      </trkpt>
      <trkpt lat="45.19858" lon="5.87132">
        <ele>892.8</ele>
        <time>2021-04-10T08:27:59Z</time>
      </trkpt>
      <trkpt lat="45.19857" lon="5.87134">
        <ele>892.8</ele>
        <time>2021-04-10T08:28:00Z</time>
      </trkpt>
      <trkpt lat="45.19858" lon="5.87135">
        <ele>892.8</ele>
        <time>2021-04-10T08:28:01Z</time>
      </trkpt>
      <trkpt lat="45.19858" lon="5.87136">
        <ele>893</ele>
        <time>2021-04-10T08:28:02Z</time>
      </trkpt>
      <trkpt lat="45.19858" lon="5.87138">
        <ele>893</ele>
        <time>2021-04-10T08:28:03Z</time>
      </trkpt>
      <trkpt lat="45.19858" lon="5.87139">
        <ele>893</ele>
        <time>2021-04-10T08:28:04Z</time>
      </trkpt>
      <trkpt lat="45.19858" lon="5.8714">
        <ele>893.2</ele>
        <time>2021-04-10T08:28:05Z</time>
      </trkpt>
      <trkpt lat="45.19858" lon="5.87142">
        <ele>893.4</ele>
        <time>2021-04-10T08:28:06Z</time>
      </trkpt>
      <trkpt lat="45.19858" lon="5.87143">
        <ele>893.4</ele>
        <time>2021-04-10T08:28:07Z</time>
      </trkpt>
      <trkpt lat="45.19858" lon="5.87144">
        <ele>893.6</ele>
        <time>2021-04-10T08:28:08Z</time>
      </trkpt>
      <trkpt lat="45.19859" lon="5.87146">
        <ele>893.6</ele>
        <time>2021-04-10T08:28:09Z</time>
      </trkpt>
      <trkpt lat="45.19859" lon="5.87147">
        <ele>893.8</ele>
        <time>2021-04-10T08:28:10Z</time>
      </trkpt>
      <trkpt lat="45.19859" lon="5.87148">
        <ele>893.8</ele>
        <time>2021-04-10T08:28:11Z</time>
      </trkpt>
      <trkpt lat="45.19859" lon="5.8715">
        <ele>894</ele>
        <time>2021-04-10T08:28:12Z</time>
      </trkpt>
      <trkpt lat="45.19859" lon="5.87151">
        <ele>893.8</ele>
        <time>2021-04-10T08:28:13Z</time>
      </trkpt>
      <trkpt lat="45.19859" lon="5.87152">
        <ele>893.8</ele>
        <time>2021-04-10T08:28:14Z</time>
      </trkpt>
      <trkpt lat="45.1986" lon="5.87154">
        <ele>894</ele>
        <time>2021-04-10T08:28:15Z</time>
      </trkpt>
      <trkpt lat="45.1986" lon="5.87155">
        <ele>894</ele>
        <time>2021-04-10T08:28:16Z</time>
      </trkpt>
      <trkpt lat="45.1986" lon="5.87156">
        <ele>894.4</ele>
        <time>2021-04-10T08:28:17Z</time>
      </trkpt>
      <trkpt lat="45.1986" lon="5.87158">
        <ele>894.4</ele>
        <time>2021-04-10T08:28:18Z</time>
      </trkpt>
      <trkpt lat="45.19861" lon="5.87159">
        <ele>894.8</ele>
        <time>2021-04-10T08:28:19Z</time>
      </trkpt>
      <trkpt lat="45.19861" lon="5.8716">
        <ele>895</ele>
        <time>2021-04-10T08:28:20Z</time>
      </trkpt>
      <trkpt lat="45.19861" lon="5.87162">
        <ele>895.2</ele>
        <time>2021-04-10T08:28:21Z</time>
      </trkpt>
      <trkpt lat="45.19861" lon="5.87163">
        <ele>895.4</ele>
        <time>2021-04-10T08:28:22Z</time>
      </trkpt>
      <trkpt lat="45.19861" lon="5.87165">
        <ele>895.4</ele>
        <time>2021-04-10T08:28:23Z</time>
      </trkpt>
      <trkpt lat="45.19861" lon="5.87167">
        <ele>895.6</ele>
        <time>2021-04-10T08:28:24Z</time>
      </trkpt>
      <trkpt lat="45.19861" lon="5.87168">
        <ele>895.8</ele>
        <time>2021-04-10T08:28:25Z</time>
      </trkpt>
      <trkpt lat="45.19861" lon="5.8717">
        <ele>896</ele>
        <time>2021-04-10T08:28:26Z</time>
      </trkpt>
      <trkpt lat="45.19861" lon="5.87171">
        <ele>896.4</ele>
        <time>2021-04-10T08:28:27Z</time>
      </trkpt>
      <trkpt lat="45.19861" lon="5.87173">
        <ele>896.8</ele>
        <time>2021-04-10T08:28:28Z</time>
      </trkpt>
      <trkpt lat="45.19861" lon="5.87174">
        <ele>896.8</ele>
        <time>2021-04-10T08:28:29Z</time>
      </trkpt>
      <trkpt lat="45.19862" lon="5.87176">
        <ele>897</ele>
        <time>2021-04-10T08:28:30Z</time>
      </trkpt>
      <trkpt lat="45.19863" lon="5.87178">
        <ele>897.2</ele>
        <time>2021-04-10T08:28:31Z</time>
      </trkpt>
      <trkpt lat="45.19863" lon="5.8718">
        <ele>897.6</ele>
        <time>2021-04-10T08:28:32Z</time>
      </trkpt>
      <trkpt lat="45.19864" lon="5.87182">
        <ele>897.8</ele>
        <time>2021-04-10T08:28:33Z</time>
      </trkpt>
      <trkpt lat="45.19865" lon="5.87184">
        <ele>898.2</ele>
        <time>2021-04-10T08:28:34Z</time>
      </trkpt>
      <trkpt lat="45.19866" lon="5.87186">
        <ele>898.4</ele>
        <time>2021-04-10T08:28:35Z</time>
      </trkpt>
      <trkpt lat="45.19864" lon="5.87191">
        <ele>898.4</ele>
        <time>2021-04-10T08:28:36Z</time>
      </trkpt>
      <trkpt lat="45.19863" lon="5.87196">
        <ele>898.8</ele>
        <time>2021-04-10T08:28:37Z</time>
      </trkpt>
      <trkpt lat="45.19862" lon="5.872">
        <ele>899.2</ele>
        <time>2021-04-10T08:28:38Z</time>
      </trkpt>
      <trkpt lat="45.19861" lon="5.87205">
        <ele>899.6</ele>
        <time>2021-04-10T08:28:39Z</time>
      </trkpt>
      <trkpt lat="45.1986" lon="5.87209">
        <ele>899.8</ele>
        <time>2021-04-10T08:28:40Z</time>
      </trkpt>
      <trkpt lat="45.19859" lon="5.87214">
        <ele>900</ele>
        <time>2021-04-10T08:28:41Z</time>
      </trkpt>
      <trkpt lat="45.19858" lon="5.87219">
        <ele>900.2</ele>
        <time>2021-04-10T08:28:42Z</time>
      </trkpt>
      <trkpt lat="45.19856" lon="5.87223">
        <ele>900.4</ele>
        <time>2021-04-10T08:28:43Z</time>
      </trkpt>
      <trkpt lat="45.19855" lon="5.87228">
        <ele>900.6</ele>
        <time>2021-04-10T08:28:44Z</time>
      </trkpt>
      <trkpt lat="45.19854" lon="5.87232">
        <ele>901</ele>
        <time>2021-04-10T08:28:45Z</time>
      </trkpt>
      <trkpt lat="45.19853" lon="5.87239">
        <ele>901.2</ele>
        <time>2021-04-10T08:28:46Z</time>
      </trkpt>
      <trkpt lat="45.19852" lon="5.87246">
        <ele>901.4</ele>
        <time>2021-04-10T08:28:47Z</time>
      </trkpt>
      <trkpt lat="45.19852" lon="5.87246">
        <ele>901.6</ele>
        <time>2021-04-10T08:28:48Z</time>
      </trkpt>
      <trkpt lat="45.19852" lon="5.87246">
        <ele>901.8</ele>
        <time>2021-04-10T08:28:49Z</time>
      </trkpt>
      <trkpt lat="45.19852" lon="5.87246">
        <ele>902.2</ele>
        <time>2021-04-10T08:28:50Z</time>
      </trkpt>
      <trkpt lat="45.19851" lon="5.87248">
        <ele>902.6</ele>
        <time>2021-04-10T08:28:51Z</time>
      </trkpt>
      <trkpt lat="45.1985" lon="5.87251">
        <ele>902.8</ele>
        <time>2021-04-10T08:28:52Z</time>
      </trkpt>
      <trkpt lat="45.1985" lon="5.87253">
        <ele>903.2</ele>
        <time>2021-04-10T08:28:53Z</time>
      </trkpt>
      <trkpt lat="45.19849" lon="5.87255">
        <ele>903.4</ele>
        <time>2021-04-10T08:28:54Z</time>
      </trkpt>
      <trkpt lat="45.19848" lon="5.87257">
        <ele>903.4</ele>
        <time>2021-04-10T08:28:55Z</time>
      </trkpt>
      <trkpt lat="45.19848" lon="5.87257">
        <ele>903.8</ele>
        <time>2021-04-10T08:28:56Z</time>
      </trkpt>
      <trkpt lat="45.19848" lon="5.87257">
        <ele>904</ele>
        <time>2021-04-10T08:28:57Z</time>
      </trkpt>
      <trkpt lat="45.19849" lon="5.8726">
        <ele>904.2</ele>
        <time>2021-04-10T08:28:58Z</time>
      </trkpt>
      <trkpt lat="45.19849" lon="5.8726">
        <ele>904.6</ele>
        <time>2021-04-10T08:28:59Z</time>
      </trkpt>
      <trkpt lat="45.19849" lon="5.87262">
        <ele>905</ele>
        <time>2021-04-10T08:29:00Z</time>
      </trkpt>
      <trkpt lat="45.19849" lon="5.87262">
        <ele>905.2</ele>
        <time>2021-04-10T08:29:01Z</time>
      </trkpt>
      <trkpt lat="45.19848" lon="5.87265">
        <ele>905.4</ele>
        <time>2021-04-10T08:29:02Z</time>
      </trkpt>
      <trkpt lat="45.19848" lon="5.87265">
        <ele>905.6</ele>
        <time>2021-04-10T08:29:03Z</time>
      </trkpt>
      <trkpt lat="45.19849" lon="5.87268">
        <ele>906</ele>
        <time>2021-04-10T08:29:04Z</time>
      </trkpt>
      <trkpt lat="45.19849" lon="5.87268">
        <ele>906.4</ele>
        <time>2021-04-10T08:29:05Z</time>
      </trkpt>
      <trkpt lat="45.1985" lon="5.8727">
        <ele>906.6</ele>
        <time>2021-04-10T08:29:06Z</time>
      </trkpt>
      <trkpt lat="45.1985" lon="5.87274">
        <ele>906.8</ele>
        <time>2021-04-10T08:29:07Z</time>
      </trkpt>
      <trkpt lat="45.1985" lon="5.87274">
        <ele>907</ele>
        <time>2021-04-10T08:29:08Z</time>
      </trkpt>
      <trkpt lat="45.1985" lon="5.87274">
        <ele>907</ele>
        <time>2021-04-10T08:29:09Z</time>
      </trkpt>
      <trkpt lat="45.19852" lon="5.87277">
        <ele>907.4</ele>
        <time>2021-04-10T08:29:10Z</time>
      </trkpt>
      <trkpt lat="45.19852" lon="5.87277">
        <ele>907.6</ele>
        <time>2021-04-10T08:29:11Z</time>
      </trkpt>
      <trkpt lat="45.19852" lon="5.87277">
        <ele>908</ele>
        <time>2021-04-10T08:29:12Z</time>
      </trkpt>
      <trkpt lat="45.19853" lon="5.8728">
        <ele>908.2</ele>
        <time>2021-04-10T08:29:13Z</time>
      </trkpt>
      <trkpt lat="45.19853" lon="5.8728">
        <ele>908.2</ele>
        <time>2021-04-10T08:29:14Z</time>
      </trkpt>
      <trkpt lat="45.19853" lon="5.8728">
        <ele>908.4</ele>
        <time>2021-04-10T08:29:15Z</time>
      </trkpt>
      <trkpt lat="45.19853" lon="5.8728">
        <ele>908.8</ele>
        <time>2021-04-10T08:29:16Z</time>
      </trkpt>
      <trkpt lat="45.19853" lon="5.8728">
        <ele>909</ele>
        <time>2021-04-10T08:29:17Z</time>
      </trkpt>
      <trkpt lat="45.19853" lon="5.8728">
        <ele>909</ele>
        <time>2021-04-10T08:29:18Z</time>
      </trkpt>
      <trkpt lat="45.19853" lon="5.8728">
        <ele>909.2</ele>
        <time>2021-04-10T08:29:19Z</time>
      </trkpt>
      <trkpt lat="45.19853" lon="5.87282">
        <ele>909.2</ele>
        <time>2021-04-10T08:29:20Z</time>
      </trkpt>
      <trkpt lat="45.19853" lon="5.87282">
        <ele>909.2</ele>
        <time>2021-04-10T08:29:21Z</time>
      </trkpt>
      <trkpt lat="45.19853" lon="5.87282">
        <ele>909.2</ele>
        <time>2021-04-10T08:29:22Z</time>
      </trkpt>
      <trkpt lat="45.19853" lon="5.87282">
        <ele>909.2</ele>
        <time>2021-04-10T08:29:23Z</time>
      </trkpt>
      <trkpt lat="45.19853" lon="5.87282">
        <ele>909.2</ele>
        <time>2021-04-10T08:29:24Z</time>
      </trkpt>
      <trkpt lat="45.19853" lon="5.87282">
        <ele>909.2</ele>
        <time>2021-04-10T08:29:25Z</time>
      </trkpt>
      <trkpt lat="45.19853" lon="5.87282">
        <ele>909.2</ele>
        <time>2021-04-10T08:29:26Z</time>
      </trkpt>
      <trkpt lat="45.19853" lon="5.87282">
        <ele>909.2</ele>
        <time>2021-04-10T08:29:27Z</time>
      </trkpt>
      <trkpt lat="45.19853" lon="5.87282">
        <ele>909.2</ele>
        <time>2021-04-10T08:29:28Z</time>
      </trkpt>
      <trkpt lat="45.19853" lon="5.87282">
        <ele>909.2</ele>
        <time>2021-04-10T08:29:29Z</time>
      </trkpt>
      <trkpt lat="45.19853" lon="5.87282">
        <ele>909.2</ele>
        <time>2021-04-10T08:29:30Z</time>
      </trkpt>
      <trkpt lat="45.19853" lon="5.87282">
        <ele>909.2</ele>
        <time>2021-04-10T08:29:31Z</time>
      </trkpt>
      <trkpt lat="45.19853" lon="5.87282">
        <ele>909.2</ele>
        <time>2021-04-10T08:29:32Z</time>
      </trkpt>
      <trkpt lat="45.19853" lon="5.87282">
        <ele>909.2</ele>
        <time>2021-04-10T08:29:33Z</time>
      </trkpt>
      <trkpt lat="45.19853" lon="5.87282">
        <ele>909.2</ele>
        <time>2021-04-10T08:29:34Z</time>
      </trkpt>
      <trkpt lat="45.19853" lon="5.87282">
        <ele>909.2</ele>
        <time>2021-04-10T08:29:35Z</time>
      </trkpt>
      <trkpt lat="45.19854" lon="5.87281">
        <ele>909.2</ele>
        <time>2021-04-10T08:29:36Z</time>
      </trkpt>
      <trkpt lat="45.19854" lon="5.87281">
        <ele>909</ele>
        <time>2021-04-10T08:29:37Z</time>
      </trkpt>
      <trkpt lat="45.19854" lon="5.87281">
        <ele>909</ele>
        <time>2021-04-10T08:29:38Z</time>
      </trkpt>
      <trkpt lat="45.19854" lon="5.87281">
        <ele>909</ele>
        <time>2021-04-10T08:29:39Z</time>
      </trkpt>
      <trkpt lat="45.19854" lon="5.87281">
        <ele>909.2</ele>
        <time>2021-04-10T08:29:40Z</time>
      </trkpt>
      <trkpt lat="45.19854" lon="5.87281">
        <ele>909.2</ele>
        <time>2021-04-10T08:29:41Z</time>
      </trkpt>
      <trkpt lat="45.19854" lon="5.87281">
        <ele>909.2</ele>
        <time>2021-04-10T08:29:42Z</time>
      </trkpt>
      <trkpt lat="45.19854" lon="5.87281">
        <ele>909.2</ele>
        <time>2021-04-10T08:29:43Z</time>
      </trkpt>
      <trkpt lat="45.19854" lon="5.87281">
        <ele>909.2</ele>
        <time>2021-04-10T08:29:44Z</time>
      </trkpt>
      <trkpt lat="45.19854" lon="5.87281">
        <ele>909.2</ele>
        <time>2021-04-10T08:29:45Z</time>
      </trkpt>
      <trkpt lat="45.19854" lon="5.87281">
        <ele>909.2</ele>
        <time>2021-04-10T08:29:46Z</time>
      </trkpt>
      <trkpt lat="45.19854" lon="5.87281">
        <ele>909.4</ele>
        <time>2021-04-10T08:29:47Z</time>
      </trkpt>
      <trkpt lat="45.19854" lon="5.87281">
        <ele>909.4</ele>
        <time>2021-04-10T08:29:48Z</time>
      </trkpt>
      <trkpt lat="45.19854" lon="5.87278">
        <ele>909.4</ele>
        <time>2021-04-10T08:29:49Z</time>
      </trkpt>
      <trkpt lat="45.19854" lon="5.87278">
        <ele>909.4</ele>
        <time>2021-04-10T08:29:50Z</time>
      </trkpt>
      <trkpt lat="45.19854" lon="5.87278">
        <ele>909.4</ele>
        <time>2021-04-10T08:29:51Z</time>
      </trkpt>
      <trkpt lat="45.19854" lon="5.87278">
        <ele>909.6</ele>
        <time>2021-04-10T08:29:52Z</time>
      </trkpt>
      <trkpt lat="45.19854" lon="5.87278">
        <ele>909.8</ele>
        <time>2021-04-10T08:29:53Z</time>
      </trkpt>
      <trkpt lat="45.19854" lon="5.87278">
        <ele>909.8</ele>
        <time>2021-04-10T08:29:54Z</time>
      </trkpt>
      <trkpt lat="45.19854" lon="5.87278">
        <ele>909.8</ele>
        <time>2021-04-10T08:29:55Z</time>
      </trkpt>
      <trkpt lat="45.19854" lon="5.87278">
        <ele>909.8</ele>
        <time>2021-04-10T08:29:56Z</time>
      </trkpt>
      <trkpt lat="45.19854" lon="5.87278">
        <ele>909.8</ele>
        <time>2021-04-10T08:29:57Z</time>
      </trkpt>
      <trkpt lat="45.19854" lon="5.87278">
        <ele>910.2</ele>
        <time>2021-04-10T08:29:58Z</time>
      </trkpt>
      <trkpt lat="45.19854" lon="5.87278">
        <ele>910.4</ele>
        <time>2021-04-10T08:29:59Z</time>
      </trkpt>
      <trkpt lat="45.19854" lon="5.87278">
        <ele>910.4</ele>
        <time>2021-04-10T08:30:01Z</time>
      </trkpt>
      <trkpt lat="45.19854" lon="5.87278">
        <ele>910.4</ele>
        <time>2021-04-10T08:30:02Z</time>
      </trkpt>
      <trkpt lat="45.19854" lon="5.87278">
        <ele>910.6</ele>
        <time>2021-04-10T08:30:03Z</time>
      </trkpt>
      <trkpt lat="45.19854" lon="5.87278">
        <ele>910.6</ele>
        <time>2021-04-10T08:30:04Z</time>
      </trkpt>
      <trkpt lat="45.19854" lon="5.87278">
        <ele>910.8</ele>
        <time>2021-04-10T08:30:05Z</time>
      </trkpt>
      <trkpt lat="45.19852" lon="5.87278">
        <ele>910.8</ele>
        <time>2021-04-10T08:30:06Z</time>
      </trkpt>
      <trkpt lat="45.19851" lon="5.87279">
        <ele>910.8</ele>
        <time>2021-04-10T08:30:07Z</time>
      </trkpt>
      <trkpt lat="45.19851" lon="5.87281">
        <ele>910.8</ele>
        <time>2021-04-10T08:30:08Z</time>
      </trkpt>
      <trkpt lat="45.1985" lon="5.87282">
        <ele>910.8</ele>
        <time>2021-04-10T08:30:09Z</time>
      </trkpt>
      <trkpt lat="45.1985" lon="5.87283">
        <ele>910.8</ele>
        <time>2021-04-10T08:30:10Z</time>
      </trkpt>
      <trkpt lat="45.19849" lon="5.87284">
        <ele>910.8</ele>
        <time>2021-04-10T08:30:11Z</time>
      </trkpt>
      <trkpt lat="45.19849" lon="5.87286">
        <ele>910.8</ele>
        <time>2021-04-10T08:30:12Z</time>
      </trkpt>
      <trkpt lat="45.19848" lon="5.87287">
        <ele>910.8</ele>
        <time>2021-04-10T08:30:13Z</time>
      </trkpt>
      <trkpt lat="45.19848" lon="5.87288">
        <ele>910.8</ele>
        <time>2021-04-10T08:30:14Z</time>
      </trkpt>
      <trkpt lat="45.19847" lon="5.87289">
        <ele>910.4</ele>
        <time>2021-04-10T08:30:15Z</time>
      </trkpt>
      <trkpt lat="45.19847" lon="5.8729">
        <ele>910</ele>
        <time>2021-04-10T08:30:16Z</time>
      </trkpt>
      <trkpt lat="45.19846" lon="5.87292">
        <ele>910</ele>
        <time>2021-04-10T08:30:17Z</time>
      </trkpt>
      <trkpt lat="45.19845" lon="5.87293">
        <ele>909.8</ele>
        <time>2021-04-10T08:30:18Z</time>
      </trkpt>
      <trkpt lat="45.19845" lon="5.87294">
        <ele>909.8</ele>
        <time>2021-04-10T08:30:19Z</time>
      </trkpt>
      <trkpt lat="45.19844" lon="5.87295">
        <ele>909.8</ele>
        <time>2021-04-10T08:30:20Z</time>
      </trkpt>
      <trkpt lat="45.19844" lon="5.87297">
        <ele>909.6</ele>
        <time>2021-04-10T08:30:21Z</time>
      </trkpt>
      <trkpt lat="45.19843" lon="5.87298">
        <ele>909</ele>
        <time>2021-04-10T08:30:22Z</time>
      </trkpt>
      <trkpt lat="45.19843" lon="5.87299">
        <ele>908.8</ele>
        <time>2021-04-10T08:30:23Z</time>
      </trkpt>
      <trkpt lat="45.19842" lon="5.873">
        <ele>908.4</ele>
        <time>2021-04-10T08:30:24Z</time>
      </trkpt>
      <trkpt lat="45.19842" lon="5.87301">
        <ele>908.4</ele>
        <time>2021-04-10T08:30:25Z</time>
      </trkpt>
      <trkpt lat="45.19842" lon="5.87305">
        <ele>908.4</ele>
        <time>2021-04-10T08:30:26Z</time>
      </trkpt>
      <trkpt lat="45.19841" lon="5.87307">
        <ele>908.8</ele>
        <time>2021-04-10T08:30:27Z</time>
      </trkpt>
      <trkpt lat="45.19841" lon="5.87308">
        <ele>909.2</ele>
        <time>2021-04-10T08:30:28Z</time>
      </trkpt>
      <trkpt lat="45.19841" lon="5.8731">
        <ele>909.2</ele>
        <time>2021-04-10T08:30:29Z</time>
      </trkpt>
      <trkpt lat="45.19841" lon="5.87312">
        <ele>909</ele>
        <time>2021-04-10T08:30:30Z</time>
      </trkpt>
      <trkpt lat="45.1984" lon="5.87315">
        <ele>909</ele>
        <time>2021-04-10T08:30:31Z</time>
      </trkpt>
      <trkpt lat="45.1984" lon="5.87317">
        <ele>908.8</ele>
        <time>2021-04-10T08:30:32Z</time>
      </trkpt>
      <trkpt lat="45.1984" lon="5.87318">
        <ele>908.8</ele>
        <time>2021-04-10T08:30:33Z</time>
      </trkpt>
      <trkpt lat="45.1984" lon="5.8732">
        <ele>908.6</ele>
        <time>2021-04-10T08:30:34Z</time>
      </trkpt>
      <trkpt lat="45.1984" lon="5.87321">
        <ele>908.6</ele>
        <time>2021-04-10T08:30:35Z</time>
      </trkpt>
      <trkpt lat="45.1984" lon="5.87321">
        <ele>908.6</ele>
        <time>2021-04-10T08:30:36Z</time>
      </trkpt>
      <trkpt lat="45.19839" lon="5.87325">
        <ele>908.6</ele>
        <time>2021-04-10T08:30:37Z</time>
      </trkpt>
      <trkpt lat="45.19839" lon="5.87327">
        <ele>908.4</ele>
        <time>2021-04-10T08:30:38Z</time>
      </trkpt>
      <trkpt lat="45.19839" lon="5.8733">
        <ele>907.8</ele>
        <time>2021-04-10T08:30:39Z</time>
      </trkpt>
      <trkpt lat="45.19838" lon="5.87334">
        <ele>907.6</ele>
        <time>2021-04-10T08:30:40Z</time>
      </trkpt>
      <trkpt lat="45.19838" lon="5.87337">
        <ele>907.4</ele>
        <time>2021-04-10T08:30:41Z</time>
      </trkpt>
      <trkpt lat="45.19838" lon="5.8734">
        <ele>907.6</ele>
        <time>2021-04-10T08:30:42Z</time>
      </trkpt>
      <trkpt lat="45.19838" lon="5.87342">
        <ele>907.2</ele>
        <time>2021-04-10T08:30:43Z</time>
      </trkpt>
      <trkpt lat="45.19838" lon="5.87344">
        <ele>907.2</ele>
        <time>2021-04-10T08:30:44Z</time>
      </trkpt>
      <trkpt lat="45.19837" lon="5.87346">
        <ele>907</ele>
        <time>2021-04-10T08:30:45Z</time>
      </trkpt>
      <trkpt lat="45.19837" lon="5.87348">
        <ele>907.2</ele>
        <time>2021-04-10T08:30:46Z</time>
      </trkpt>
      <trkpt lat="45.19837" lon="5.87349">
        <ele>907</ele>
        <time>2021-04-10T08:30:47Z</time>
      </trkpt>
      <trkpt lat="45.19837" lon="5.87351">
        <ele>907</ele>
        <time>2021-04-10T08:30:48Z</time>
      </trkpt>
      <trkpt lat="45.19837" lon="5.87353">
        <ele>906.8</ele>
        <time>2021-04-10T08:30:49Z</time>
      </trkpt>
      <trkpt lat="45.19837" lon="5.87355">
        <ele>907</ele>
        <time>2021-04-10T08:30:50Z</time>
      </trkpt>
      <trkpt lat="45.19837" lon="5.87357">
        <ele>907</ele>
        <time>2021-04-10T08:30:51Z</time>
      </trkpt>
      <trkpt lat="45.19837" lon="5.87359">
        <ele>907.2</ele>
        <time>2021-04-10T08:30:52Z</time>
      </trkpt>
      <trkpt lat="45.19836" lon="5.87361">
        <ele>907.2</ele>
        <time>2021-04-10T08:30:53Z</time>
      </trkpt>
      <trkpt lat="45.19836" lon="5.87363">
        <ele>907.4</ele>
        <time>2021-04-10T08:30:54Z</time>
      </trkpt>
      <trkpt lat="45.19835" lon="5.87371">
        <ele>907.4</ele>
        <time>2021-04-10T08:30:55Z</time>
      </trkpt>
      <trkpt lat="45.19835" lon="5.87373">
        <ele>907.4</ele>
        <time>2021-04-10T08:30:56Z</time>
      </trkpt>
      <trkpt lat="45.19834" lon="5.87374">
        <ele>907</ele>
        <time>2021-04-10T08:30:57Z</time>
      </trkpt>
      <trkpt lat="45.19834" lon="5.87375">
        <ele>906.6</ele>
        <time>2021-04-10T08:30:58Z</time>
      </trkpt>
      <trkpt lat="45.19833" lon="5.87382">
        <ele>906.2</ele>
        <time>2021-04-10T08:30:59Z</time>
      </trkpt>
      <trkpt lat="45.19833" lon="5.87383">
        <ele>905.8</ele>
        <time>2021-04-10T08:31:00Z</time>
      </trkpt>
      <trkpt lat="45.19833" lon="5.87384">
        <ele>905.8</ele>
        <time>2021-04-10T08:31:01Z</time>
      </trkpt>
      <trkpt lat="45.19832" lon="5.87385">
        <ele>905.4</ele>
        <time>2021-04-10T08:31:02Z</time>
      </trkpt>
      <trkpt lat="45.19832" lon="5.87386">
        <ele>905.2</ele>
        <time>2021-04-10T08:31:03Z</time>
      </trkpt>
      <trkpt lat="45.19832" lon="5.87387">
        <ele>904.6</ele>
        <time>2021-04-10T08:31:04Z</time>
      </trkpt>
      <trkpt lat="45.1983" lon="5.87393">
        <ele>904.2</ele>
        <time>2021-04-10T08:31:05Z</time>
      </trkpt>
      <trkpt lat="45.19829" lon="5.87398">
        <ele>903.8</ele>
        <time>2021-04-10T08:31:06Z</time>
      </trkpt>
      <trkpt lat="45.19827" lon="5.87403">
        <ele>903.6</ele>
        <time>2021-04-10T08:31:07Z</time>
      </trkpt>
      <trkpt lat="45.19826" lon="5.87409">
        <ele>902.8</ele>
        <time>2021-04-10T08:31:08Z</time>
      </trkpt>
      <trkpt lat="45.19826" lon="5.87409">
        <ele>902.4</ele>
        <time>2021-04-10T08:31:09Z</time>
      </trkpt>
      <trkpt lat="45.19826" lon="5.87409">
        <ele>902</ele>
        <time>2021-04-10T08:31:10Z</time>
      </trkpt>
      <trkpt lat="45.19826" lon="5.87409">
        <ele>901.6</ele>
        <time>2021-04-10T08:31:11Z</time>
      </trkpt>
      <trkpt lat="45.19826" lon="5.87409">
        <ele>901.2</ele>
        <time>2021-04-10T08:31:12Z</time>
      </trkpt>
      <trkpt lat="45.19825" lon="5.87411">
        <ele>901</ele>
        <time>2021-04-10T08:31:13Z</time>
      </trkpt>
      <trkpt lat="45.19824" lon="5.87413">
        <ele>901</ele>
        <time>2021-04-10T08:31:14Z</time>
      </trkpt>
      <trkpt lat="45.19823" lon="5.87415">
        <ele>901.2</ele>
        <time>2021-04-10T08:31:15Z</time>
      </trkpt>
      <trkpt lat="45.19822" lon="5.87417">
        <ele>901.2</ele>
        <time>2021-04-10T08:31:16Z</time>
      </trkpt>
      <trkpt lat="45.19821" lon="5.87419">
        <ele>901.4</ele>
        <time>2021-04-10T08:31:17Z</time>
      </trkpt>
      <trkpt lat="45.1982" lon="5.87421">
        <ele>901.6</ele>
        <time>2021-04-10T08:31:18Z</time>
      </trkpt>
      <trkpt lat="45.1982" lon="5.87424">
        <ele>901.8</ele>
        <time>2021-04-10T08:31:19Z</time>
      </trkpt>
      <trkpt lat="45.19819" lon="5.87427">
        <ele>902.2</ele>
        <time>2021-04-10T08:31:20Z</time>
      </trkpt>
      <trkpt lat="45.19819" lon="5.8743">
        <ele>902.4</ele>
        <time>2021-04-10T08:31:21Z</time>
      </trkpt>
      <trkpt lat="45.19818" lon="5.87432">
        <ele>902.8</ele>
        <time>2021-04-10T08:31:22Z</time>
      </trkpt>
      <trkpt lat="45.19818" lon="5.87435">
        <ele>903.2</ele>
        <time>2021-04-10T08:31:23Z</time>
      </trkpt>
      <trkpt lat="45.19817" lon="5.87438">
        <ele>903.6</ele>
        <time>2021-04-10T08:31:24Z</time>
      </trkpt>
      <trkpt lat="45.19817" lon="5.87438">
        <ele>903.8</ele>
        <time>2021-04-10T08:31:25Z</time>
      </trkpt>
      <trkpt lat="45.19817" lon="5.87438">
        <ele>904.2</ele>
        <time>2021-04-10T08:31:26Z</time>
      </trkpt>
      <trkpt lat="45.19817" lon="5.8744">
        <ele>904.4</ele>
        <time>2021-04-10T08:31:27Z</time>
      </trkpt>
      <trkpt lat="45.19817" lon="5.87442">
        <ele>904.6</ele>
        <time>2021-04-10T08:31:28Z</time>
      </trkpt>
      <trkpt lat="45.19817" lon="5.87444">
        <ele>905</ele>
        <time>2021-04-10T08:31:29Z</time>
      </trkpt>
      <trkpt lat="45.19817" lon="5.87447">
        <ele>905.2</ele>
        <time>2021-04-10T08:31:30Z</time>
      </trkpt>
      <trkpt lat="45.19818" lon="5.87449">
        <ele>905.4</ele>
        <time>2021-04-10T08:31:31Z</time>
      </trkpt>
      <trkpt lat="45.19818" lon="5.87451">
        <ele>905.6</ele>
        <time>2021-04-10T08:31:32Z</time>
      </trkpt>
      <trkpt lat="45.19817" lon="5.87453">
        <ele>905.8</ele>
        <time>2021-04-10T08:31:33Z</time>
      </trkpt>
      <trkpt lat="45.19817" lon="5.87455">
        <ele>906.2</ele>
        <time>2021-04-10T08:31:34Z</time>
      </trkpt>
      <trkpt lat="45.19816" lon="5.87457">
        <ele>906.2</ele>
        <time>2021-04-10T08:31:35Z</time>
      </trkpt>
      <trkpt lat="45.19816" lon="5.87459">
        <ele>906.6</ele>
        <time>2021-04-10T08:31:36Z</time>
      </trkpt>
      <trkpt lat="45.19815" lon="5.87461">
        <ele>906.8</ele>
        <time>2021-04-10T08:31:37Z</time>
      </trkpt>
      <trkpt lat="45.19815" lon="5.87462">
        <ele>907</ele>
        <time>2021-04-10T08:31:38Z</time>
      </trkpt>
      <trkpt lat="45.19815" lon="5.87464">
        <ele>907.4</ele>
        <time>2021-04-10T08:31:39Z</time>
      </trkpt>
      <trkpt lat="45.19814" lon="5.87466">
        <ele>907.4</ele>
        <time>2021-04-10T08:31:40Z</time>
      </trkpt>
      <trkpt lat="45.19814" lon="5.87467">
        <ele>907.8</ele>
        <time>2021-04-10T08:31:41Z</time>
      </trkpt>
      <trkpt lat="45.19813" lon="5.87469">
        <ele>908</ele>
        <time>2021-04-10T08:31:42Z</time>
      </trkpt>
      <trkpt lat="45.19812" lon="5.8747">
        <ele>908</ele>
        <time>2021-04-10T08:31:43Z</time>
      </trkpt>
      <trkpt lat="45.19812" lon="5.87472">
        <ele>908.2</ele>
        <time>2021-04-10T08:31:44Z</time>
      </trkpt>
      <trkpt lat="45.19811" lon="5.87473">
        <ele>908.6</ele>
        <time>2021-04-10T08:31:45Z</time>
      </trkpt>
      <trkpt lat="45.19811" lon="5.87475">
        <ele>908.6</ele>
        <time>2021-04-10T08:31:46Z</time>
      </trkpt>
      <trkpt lat="45.1981" lon="5.87476">
        <ele>909</ele>
        <time>2021-04-10T08:31:47Z</time>
      </trkpt>
      <trkpt lat="45.1981" lon="5.87478">
        <ele>909.4</ele>
        <time>2021-04-10T08:31:48Z</time>
      </trkpt>
      <trkpt lat="45.1981" lon="5.8748">
        <ele>909.6</ele>
        <time>2021-04-10T08:31:49Z</time>
      </trkpt>
      <trkpt lat="45.1981" lon="5.87481">
        <ele>910</ele>
        <time>2021-04-10T08:31:50Z</time>
      </trkpt>
      <trkpt lat="45.19809" lon="5.87483">
        <ele>910.4</ele>
        <time>2021-04-10T08:31:51Z</time>
      </trkpt>
      <trkpt lat="45.19809" lon="5.87484">
        <ele>910.4</ele>
        <time>2021-04-10T08:31:52Z</time>
      </trkpt>
      <trkpt lat="45.19809" lon="5.87486">
        <ele>910.6</ele>
        <time>2021-04-10T08:31:53Z</time>
      </trkpt>
      <trkpt lat="45.19809" lon="5.87488">
        <ele>910.8</ele>
        <time>2021-04-10T08:31:54Z</time>
      </trkpt>
      <trkpt lat="45.19809" lon="5.87489">
        <ele>911</ele>
        <time>2021-04-10T08:31:55Z</time>
      </trkpt>
      <trkpt lat="45.19808" lon="5.87491">
        <ele>911.2</ele>
        <time>2021-04-10T08:31:56Z</time>
      </trkpt>
      <trkpt lat="45.19808" lon="5.87492">
        <ele>911.6</ele>
        <time>2021-04-10T08:31:57Z</time>
      </trkpt>
      <trkpt lat="45.19808" lon="5.87493">
        <ele>911.8</ele>
        <time>2021-04-10T08:31:58Z</time>
      </trkpt>
      <trkpt lat="45.19808" lon="5.87495">
        <ele>912.2</ele>
        <time>2021-04-10T08:31:59Z</time>
      </trkpt>
      <trkpt lat="45.19808" lon="5.87496">
        <ele>912.4</ele>
        <time>2021-04-10T08:32:00Z</time>
      </trkpt>
      <trkpt lat="45.19808" lon="5.87498">
        <ele>912.6</ele>
        <time>2021-04-10T08:32:01Z</time>
      </trkpt>
      <trkpt lat="45.19808" lon="5.87499">
        <ele>913</ele>
        <time>2021-04-10T08:32:02Z</time>
      </trkpt>
      <trkpt lat="45.19808" lon="5.87501">
        <ele>913.4</ele>
        <time>2021-04-10T08:32:03Z</time>
      </trkpt>
      <trkpt lat="45.19807" lon="5.87502">
        <ele>913.6</ele>
        <time>2021-04-10T08:32:04Z</time>
      </trkpt>
      <trkpt lat="45.19807" lon="5.87503">
        <ele>913.8</ele>
        <time>2021-04-10T08:32:05Z</time>
      </trkpt>
      <trkpt lat="45.19807" lon="5.87505">
        <ele>913.8</ele>
        <time>2021-04-10T08:32:06Z</time>
      </trkpt>
      <trkpt lat="45.19807" lon="5.87506">
        <ele>914</ele>
        <time>2021-04-10T08:32:07Z</time>
      </trkpt>
      <trkpt lat="45.19806" lon="5.87507">
        <ele>914.2</ele>
        <time>2021-04-10T08:32:08Z</time>
      </trkpt>
      <trkpt lat="45.19806" lon="5.87508">
        <ele>914.6</ele>
        <time>2021-04-10T08:32:09Z</time>
      </trkpt>
      <trkpt lat="45.19806" lon="5.8751">
        <ele>915</ele>
        <time>2021-04-10T08:32:10Z</time>
      </trkpt>
      <trkpt lat="45.19806" lon="5.87511">
        <ele>915.2</ele>
        <time>2021-04-10T08:32:11Z</time>
      </trkpt>
      <trkpt lat="45.19805" lon="5.87512">
        <ele>915.6</ele>
        <time>2021-04-10T08:32:12Z</time>
      </trkpt>
      <trkpt lat="45.19805" lon="5.87513">
        <ele>916</ele>
        <time>2021-04-10T08:32:13Z</time>
      </trkpt>
      <trkpt lat="45.19805" lon="5.87515">
        <ele>916.4</ele>
        <time>2021-04-10T08:32:14Z</time>
      </trkpt>
      <trkpt lat="45.19805" lon="5.87516">
        <ele>916.6</ele>
        <time>2021-04-10T08:32:15Z</time>
      </trkpt>
      <trkpt lat="45.19805" lon="5.87518">
        <ele>916.8</ele>
        <time>2021-04-10T08:32:16Z</time>
      </trkpt>
      <trkpt lat="45.19805" lon="5.87519">
        <ele>917</ele>
        <time>2021-04-10T08:32:17Z</time>
      </trkpt>
      <trkpt lat="45.19804" lon="5.87521">
        <ele>917.2</ele>
        <time>2021-04-10T08:32:18Z</time>
      </trkpt>
      <trkpt lat="45.19804" lon="5.87522">
        <ele>917.2</ele>
        <time>2021-04-10T08:32:19Z</time>
      </trkpt>
      <trkpt lat="45.19804" lon="5.87524">
        <ele>917.2</ele>
        <time>2021-04-10T08:32:20Z</time>
      </trkpt>
      <trkpt lat="45.19804" lon="5.87525">
        <ele>917.6</ele>
        <time>2021-04-10T08:32:21Z</time>
      </trkpt>
      <trkpt lat="45.19804" lon="5.87527">
        <ele>917.6</ele>
        <time>2021-04-10T08:32:22Z</time>
      </trkpt>
      <trkpt lat="45.19804" lon="5.87528">
        <ele>917.8</ele>
        <time>2021-04-10T08:32:23Z</time>
      </trkpt>
      <trkpt lat="45.19804" lon="5.87529">
        <ele>918.2</ele>
        <time>2021-04-10T08:32:24Z</time>
      </trkpt>
      <trkpt lat="45.19804" lon="5.8753">
        <ele>918.2</ele>
        <time>2021-04-10T08:32:25Z</time>
      </trkpt>
      <trkpt lat="45.19804" lon="5.87531">
        <ele>918.4</ele>
        <time>2021-04-10T08:32:26Z</time>
      </trkpt>
      <trkpt lat="45.19804" lon="5.87532">
        <ele>918.6</ele>
        <time>2021-04-10T08:32:27Z</time>
      </trkpt>
      <trkpt lat="45.19804" lon="5.87533">
        <ele>918.6</ele>
        <time>2021-04-10T08:32:28Z</time>
      </trkpt>
      <trkpt lat="45.19804" lon="5.87534">
        <ele>918.8</ele>
        <time>2021-04-10T08:32:29Z</time>
      </trkpt>
      <trkpt lat="45.19804" lon="5.87535">
        <ele>919</ele>
        <time>2021-04-10T08:32:30Z</time>
      </trkpt>
      <trkpt lat="45.19804" lon="5.87536">
        <ele>919.2</ele>
        <time>2021-04-10T08:32:31Z</time>
      </trkpt>
      <trkpt lat="45.19804" lon="5.87537">
        <ele>919.2</ele>
        <time>2021-04-10T08:32:32Z</time>
      </trkpt>
      <trkpt lat="45.19804" lon="5.87538">
        <ele>919.2</ele>
        <time>2021-04-10T08:32:33Z</time>
      </trkpt>
      <trkpt lat="45.19804" lon="5.87539">
        <ele>919.4</ele>
        <time>2021-04-10T08:32:34Z</time>
      </trkpt>
      <trkpt lat="45.19804" lon="5.8754">
        <ele>919.8</ele>
        <time>2021-04-10T08:32:35Z</time>
      </trkpt>
      <trkpt lat="45.19804" lon="5.87541">
        <ele>920</ele>
        <time>2021-04-10T08:32:36Z</time>
      </trkpt>
      <trkpt lat="45.19804" lon="5.87543">
        <ele>920.2</ele>
        <time>2021-04-10T08:32:37Z</time>
      </trkpt>
      <trkpt lat="45.19805" lon="5.87545">
        <ele>920.4</ele>
        <time>2021-04-10T08:32:38Z</time>
      </trkpt>
      <trkpt lat="45.19805" lon="5.87547">
        <ele>920.8</ele>
        <time>2021-04-10T08:32:39Z</time>
      </trkpt>
      <trkpt lat="45.19805" lon="5.87549">
        <ele>921</ele>
        <time>2021-04-10T08:32:40Z</time>
      </trkpt>
      <trkpt lat="45.19805" lon="5.87551">
        <ele>921</ele>
        <time>2021-04-10T08:32:41Z</time>
      </trkpt>
      <trkpt lat="45.19805" lon="5.87553">
        <ele>921.2</ele>
        <time>2021-04-10T08:32:42Z</time>
      </trkpt>
      <trkpt lat="45.19805" lon="5.87554">
        <ele>921.6</ele>
        <time>2021-04-10T08:32:43Z</time>
      </trkpt>
      <trkpt lat="45.19805" lon="5.87556">
        <ele>922.2</ele>
        <time>2021-04-10T08:32:44Z</time>
      </trkpt>
      <trkpt lat="45.19805" lon="5.87558">
        <ele>922.4</ele>
        <time>2021-04-10T08:32:45Z</time>
      </trkpt>
      <trkpt lat="45.19805" lon="5.87559">
        <ele>922.6</ele>
        <time>2021-04-10T08:32:46Z</time>
      </trkpt>
      <trkpt lat="45.19805" lon="5.87561">
        <ele>922.8</ele>
        <time>2021-04-10T08:32:47Z</time>
      </trkpt>
      <trkpt lat="45.19805" lon="5.87563">
        <ele>922.8</ele>
        <time>2021-04-10T08:32:48Z</time>
      </trkpt>
      <trkpt lat="45.19805" lon="5.87564">
        <ele>923.2</ele>
        <time>2021-04-10T08:32:49Z</time>
      </trkpt>
      <trkpt lat="45.19805" lon="5.87566">
        <ele>923.4</ele>
        <time>2021-04-10T08:32:50Z</time>
      </trkpt>
      <trkpt lat="45.19805" lon="5.87567">
        <ele>923.4</ele>
        <time>2021-04-10T08:32:51Z</time>
      </trkpt>
      <trkpt lat="45.19805" lon="5.8757">
        <ele>923.8</ele>
        <time>2021-04-10T08:32:52Z</time>
      </trkpt>
      <trkpt lat="45.19804" lon="5.87572">
        <ele>924</ele>
        <time>2021-04-10T08:32:53Z</time>
      </trkpt>
      <trkpt lat="45.19804" lon="5.87574">
        <ele>924.2</ele>
        <time>2021-04-10T08:32:54Z</time>
      </trkpt>
      <trkpt lat="45.19803" lon="5.87576">
        <ele>924.2</ele>
        <time>2021-04-10T08:32:55Z</time>
      </trkpt>
      <trkpt lat="45.19802" lon="5.87578">
        <ele>924.6</ele>
        <time>2021-04-10T08:32:56Z</time>
      </trkpt>
      <trkpt lat="45.19802" lon="5.8758">
        <ele>924.8</ele>
        <time>2021-04-10T08:32:57Z</time>
      </trkpt>
      <trkpt lat="45.19802" lon="5.87582">
        <ele>925</ele>
        <time>2021-04-10T08:32:58Z</time>
      </trkpt>
      <trkpt lat="45.19801" lon="5.87583">
        <ele>925</ele>
        <time>2021-04-10T08:32:59Z</time>
      </trkpt>
      <trkpt lat="45.19801" lon="5.87585">
        <ele>925</ele>
        <time>2021-04-10T08:33:00Z</time>
      </trkpt>
      <trkpt lat="45.19801" lon="5.87587">
        <ele>925</ele>
        <time>2021-04-10T08:33:01Z</time>
      </trkpt>
      <trkpt lat="45.19801" lon="5.87588">
        <ele>925</ele>
        <time>2021-04-10T08:33:02Z</time>
      </trkpt>
      <trkpt lat="45.198" lon="5.8759">
        <ele>924.8</ele>
        <time>2021-04-10T08:33:03Z</time>
      </trkpt>
      <trkpt lat="45.198" lon="5.87592">
        <ele>924.8</ele>
        <time>2021-04-10T08:33:04Z</time>
      </trkpt>
      <trkpt lat="45.198" lon="5.87593">
        <ele>925</ele>
        <time>2021-04-10T08:33:05Z</time>
      </trkpt>
      <trkpt lat="45.19799" lon="5.87595">
        <ele>925</ele>
        <time>2021-04-10T08:33:06Z</time>
      </trkpt>
      <trkpt lat="45.19799" lon="5.87596">
        <ele>925</ele>
        <time>2021-04-10T08:33:07Z</time>
      </trkpt>
      <trkpt lat="45.19799" lon="5.87597">
        <ele>925</ele>
        <time>2021-04-10T08:33:08Z</time>
      </trkpt>
      <trkpt lat="45.19798" lon="5.87599">
        <ele>925</ele>
        <time>2021-04-10T08:33:09Z</time>
      </trkpt>
      <trkpt lat="45.19798" lon="5.876">
        <ele>925.2</ele>
        <time>2021-04-10T08:33:10Z</time>
      </trkpt>
      <trkpt lat="45.19798" lon="5.87602">
        <ele>925.4</ele>
        <time>2021-04-10T08:33:11Z</time>
      </trkpt>
      <trkpt lat="45.19797" lon="5.87603">
        <ele>925.4</ele>
        <time>2021-04-10T08:33:12Z</time>
      </trkpt>
      <trkpt lat="45.19797" lon="5.87605">
        <ele>925.6</ele>
        <time>2021-04-10T08:33:13Z</time>
      </trkpt>
      <trkpt lat="45.19796" lon="5.87606">
        <ele>925.6</ele>
        <time>2021-04-10T08:33:14Z</time>
      </trkpt>
      <trkpt lat="45.19796" lon="5.87607">
        <ele>925.8</ele>
        <time>2021-04-10T08:33:15Z</time>
      </trkpt>
      <trkpt lat="45.19795" lon="5.87609">
        <ele>925.8</ele>
        <time>2021-04-10T08:33:16Z</time>
      </trkpt>
      <trkpt lat="45.19795" lon="5.8761">
        <ele>925.8</ele>
        <time>2021-04-10T08:33:17Z</time>
      </trkpt>
      <trkpt lat="45.19794" lon="5.87611">
        <ele>926.2</ele>
        <time>2021-04-10T08:33:18Z</time>
      </trkpt>
      <trkpt lat="45.19794" lon="5.87613">
        <ele>926.4</ele>
        <time>2021-04-10T08:33:19Z</time>
      </trkpt>
      <trkpt lat="45.19793" lon="5.87614">
        <ele>926.8</ele>
        <time>2021-04-10T08:33:20Z</time>
      </trkpt>
      <trkpt lat="45.19792" lon="5.87615">
        <ele>927</ele>
        <time>2021-04-10T08:33:21Z</time>
      </trkpt>
      <trkpt lat="45.19792" lon="5.87617">
        <ele>927</ele>
        <time>2021-04-10T08:33:22Z</time>
      </trkpt>
      <trkpt lat="45.19791" lon="5.87618">
        <ele>927.2</ele>
        <time>2021-04-10T08:33:23Z</time>
      </trkpt>
      <trkpt lat="45.19791" lon="5.87619">
        <ele>927.2</ele>
        <time>2021-04-10T08:33:24Z</time>
      </trkpt>
      <trkpt lat="45.19791" lon="5.87621">
        <ele>927.4</ele>
        <time>2021-04-10T08:33:25Z</time>
      </trkpt>
      <trkpt lat="45.1979" lon="5.87622">
        <ele>927.6</ele>
        <time>2021-04-10T08:33:26Z</time>
      </trkpt>
      <trkpt lat="45.1979" lon="5.87623">
        <ele>927.6</ele>
        <time>2021-04-10T08:33:27Z</time>
      </trkpt>
      <trkpt lat="45.1979" lon="5.87625">
        <ele>927.6</ele>
        <time>2021-04-10T08:33:28Z</time>
      </trkpt>
      <trkpt lat="45.19789" lon="5.87626">
        <ele>927.8</ele>
        <time>2021-04-10T08:33:29Z</time>
      </trkpt>
      <trkpt lat="45.19789" lon="5.87627">
        <ele>928</ele>
        <time>2021-04-10T08:33:30Z</time>
      </trkpt>
      <trkpt lat="45.19789" lon="5.87629">
        <ele>928.2</ele>
        <time>2021-04-10T08:33:31Z</time>
      </trkpt>
      <trkpt lat="45.19788" lon="5.8763">
        <ele>928.4</ele>
        <time>2021-04-10T08:33:32Z</time>
      </trkpt>
      <trkpt lat="45.19788" lon="5.87631">
        <ele>928.6</ele>
        <time>2021-04-10T08:33:33Z</time>
      </trkpt>
      <trkpt lat="45.19787" lon="5.87633">
        <ele>928.8</ele>
        <time>2021-04-10T08:33:34Z</time>
      </trkpt>
      <trkpt lat="45.19787" lon="5.87634">
        <ele>929</ele>
        <time>2021-04-10T08:33:35Z</time>
      </trkpt>
      <trkpt lat="45.19787" lon="5.87635">
        <ele>929.4</ele>
        <time>2021-04-10T08:33:36Z</time>
      </trkpt>
      <trkpt lat="45.19786" lon="5.87637">
        <ele>929.6</ele>
        <time>2021-04-10T08:33:37Z</time>
      </trkpt>
      <trkpt lat="45.19786" lon="5.87638">
        <ele>929.8</ele>
        <time>2021-04-10T08:33:38Z</time>
      </trkpt>
      <trkpt lat="45.19785" lon="5.87639">
        <ele>930.2</ele>
        <time>2021-04-10T08:33:39Z</time>
      </trkpt>
      <trkpt lat="45.19785" lon="5.87643">
        <ele>930.4</ele>
        <time>2021-04-10T08:33:40Z</time>
      </trkpt>
      <trkpt lat="45.19784" lon="5.87646">
        <ele>930.6</ele>
        <time>2021-04-10T08:33:41Z</time>
      </trkpt>
      <trkpt lat="45.19784" lon="5.87649">
        <ele>930.8</ele>
        <time>2021-04-10T08:33:42Z</time>
      </trkpt>
      <trkpt lat="45.19784" lon="5.87652">
        <ele>931</ele>
        <time>2021-04-10T08:33:43Z</time>
      </trkpt>
      <trkpt lat="45.19783" lon="5.8766">
        <ele>931</ele>
        <time>2021-04-10T08:33:44Z</time>
      </trkpt>
      <trkpt lat="45.19783" lon="5.87669">
        <ele>931.2</ele>
        <time>2021-04-10T08:33:45Z</time>
      </trkpt>
      <trkpt lat="45.19782" lon="5.87677">
        <ele>931.2</ele>
        <time>2021-04-10T08:33:46Z</time>
      </trkpt>
      <trkpt lat="45.19781" lon="5.87686">
        <ele>931.2</ele>
        <time>2021-04-10T08:33:47Z</time>
      </trkpt>
      <trkpt lat="45.19781" lon="5.87694">
        <ele>931.6</ele>
        <time>2021-04-10T08:33:48Z</time>
      </trkpt>
      <trkpt lat="45.1978" lon="5.87703">
        <ele>931.6</ele>
        <time>2021-04-10T08:33:49Z</time>
      </trkpt>
      <trkpt lat="45.1978" lon="5.87711">
        <ele>931.8</ele>
        <time>2021-04-10T08:33:50Z</time>
      </trkpt>
      <trkpt lat="45.1978" lon="5.87711">
        <ele>931.8</ele>
        <time>2021-04-10T08:33:51Z</time>
      </trkpt>
      <trkpt lat="45.1978" lon="5.87711">
        <ele>932</ele>
        <time>2021-04-10T08:33:52Z</time>
      </trkpt>
      <trkpt lat="45.19779" lon="5.87713">
        <ele>932</ele>
        <time>2021-04-10T08:33:53Z</time>
      </trkpt>
      <trkpt lat="45.19779" lon="5.87714">
        <ele>932.2</ele>
        <time>2021-04-10T08:33:54Z</time>
      </trkpt>
      <trkpt lat="45.19778" lon="5.87716">
        <ele>932.2</ele>
        <time>2021-04-10T08:33:55Z</time>
      </trkpt>
      <trkpt lat="45.19778" lon="5.87717">
        <ele>932.4</ele>
        <time>2021-04-10T08:33:56Z</time>
      </trkpt>
      <trkpt lat="45.19777" lon="5.87719">
        <ele>932.4</ele>
        <time>2021-04-10T08:33:57Z</time>
      </trkpt>
      <trkpt lat="45.19777" lon="5.8772">
        <ele>932.4</ele>
        <time>2021-04-10T08:33:58Z</time>
      </trkpt>
      <trkpt lat="45.19776" lon="5.87722">
        <ele>932.6</ele>
        <time>2021-04-10T08:33:59Z</time>
      </trkpt>
      <trkpt lat="45.19776" lon="5.87723">
        <ele>932.8</ele>
        <time>2021-04-10T08:34:00Z</time>
      </trkpt>
      <trkpt lat="45.19776" lon="5.87725">
        <ele>932.8</ele>
        <time>2021-04-10T08:34:01Z</time>
      </trkpt>
      <trkpt lat="45.19775" lon="5.87727">
        <ele>932.8</ele>
        <time>2021-04-10T08:34:02Z</time>
      </trkpt>
      <trkpt lat="45.19774" lon="5.87728">
        <ele>933.2</ele>
        <time>2021-04-10T08:34:03Z</time>
      </trkpt>
      <trkpt lat="45.19774" lon="5.8773">
        <ele>933.4</ele>
        <time>2021-04-10T08:34:04Z</time>
      </trkpt>
      <trkpt lat="45.19773" lon="5.87732">
        <ele>933.8</ele>
        <time>2021-04-10T08:34:05Z</time>
      </trkpt>
      <trkpt lat="45.19772" lon="5.87734">
        <ele>934</ele>
        <time>2021-04-10T08:34:06Z</time>
      </trkpt>
      <trkpt lat="45.19772" lon="5.87736">
        <ele>934.2</ele>
        <time>2021-04-10T08:34:07Z</time>
      </trkpt>
      <trkpt lat="45.19771" lon="5.87737">
        <ele>934.4</ele>
        <time>2021-04-10T08:34:08Z</time>
      </trkpt>
      <trkpt lat="45.19771" lon="5.87738">
        <ele>934.6</ele>
        <time>2021-04-10T08:34:09Z</time>
      </trkpt>
      <trkpt lat="45.1977" lon="5.87739">
        <ele>934.6</ele>
        <time>2021-04-10T08:34:10Z</time>
      </trkpt>
      <trkpt lat="45.19769" lon="5.8774">
        <ele>934.8</ele>
        <time>2021-04-10T08:34:11Z</time>
      </trkpt>
      <trkpt lat="45.19769" lon="5.87741">
        <ele>935</ele>
        <time>2021-04-10T08:34:12Z</time>
      </trkpt>
      <trkpt lat="45.19768" lon="5.87742">
        <ele>935</ele>
        <time>2021-04-10T08:34:13Z</time>
      </trkpt>
      <trkpt lat="45.19767" lon="5.87743">
        <ele>935.2</ele>
        <time>2021-04-10T08:34:14Z</time>
      </trkpt>
      <trkpt lat="45.19767" lon="5.87744">
        <ele>935.6</ele>
        <time>2021-04-10T08:34:15Z</time>
      </trkpt>
      <trkpt lat="45.19766" lon="5.87745">
        <ele>935.8</ele>
        <time>2021-04-10T08:34:16Z</time>
      </trkpt>
      <trkpt lat="45.19765" lon="5.87746">
        <ele>936.2</ele>
        <time>2021-04-10T08:34:17Z</time>
      </trkpt>
      <trkpt lat="45.19765" lon="5.87747">
        <ele>936.4</ele>
        <time>2021-04-10T08:34:18Z</time>
      </trkpt>
      <trkpt lat="45.19764" lon="5.87749">
        <ele>936.6</ele>
        <time>2021-04-10T08:34:19Z</time>
      </trkpt>
      <trkpt lat="45.19764" lon="5.8775">
        <ele>937.2</ele>
        <time>2021-04-10T08:34:20Z</time>
      </trkpt>
      <trkpt lat="45.19763" lon="5.87752">
        <ele>937.6</ele>
        <time>2021-04-10T08:34:21Z</time>
      </trkpt>
      <trkpt lat="45.19762" lon="5.87753">
        <ele>938</ele>
        <time>2021-04-10T08:34:22Z</time>
      </trkpt>
      <trkpt lat="45.19762" lon="5.87755">
        <ele>938.2</ele>
        <time>2021-04-10T08:34:23Z</time>
      </trkpt>
      <trkpt lat="45.19761" lon="5.87756">
        <ele>938.4</ele>
        <time>2021-04-10T08:34:24Z</time>
      </trkpt>
      <trkpt lat="45.19761" lon="5.87758">
        <ele>938.6</ele>
        <time>2021-04-10T08:34:25Z</time>
      </trkpt>
      <trkpt lat="45.1976" lon="5.87759">
        <ele>938.8</ele>
        <time>2021-04-10T08:34:26Z</time>
      </trkpt>
      <trkpt lat="45.19758" lon="5.87761">
        <ele>938.6</ele>
        <time>2021-04-10T08:34:27Z</time>
      </trkpt>
      <trkpt lat="45.19757" lon="5.87763">
        <ele>938.6</ele>
        <time>2021-04-10T08:34:28Z</time>
      </trkpt>
      <trkpt lat="45.19755" lon="5.87765">
        <ele>938.8</ele>
        <time>2021-04-10T08:34:29Z</time>
      </trkpt>
      <trkpt lat="45.19754" lon="5.87767">
        <ele>939</ele>
        <time>2021-04-10T08:34:30Z</time>
      </trkpt>
      <trkpt lat="45.19752" lon="5.87769">
        <ele>939.2</ele>
        <time>2021-04-10T08:34:31Z</time>
      </trkpt>
      <trkpt lat="45.19752" lon="5.8777">
        <ele>939.6</ele>
        <time>2021-04-10T08:34:32Z</time>
      </trkpt>
      <trkpt lat="45.19751" lon="5.87771">
        <ele>940</ele>
        <time>2021-04-10T08:34:33Z</time>
      </trkpt>
      <trkpt lat="45.19751" lon="5.87772">
        <ele>940.2</ele>
        <time>2021-04-10T08:34:34Z</time>
      </trkpt>
      <trkpt lat="45.1975" lon="5.87773">
        <ele>940.6</ele>
        <time>2021-04-10T08:34:35Z</time>
      </trkpt>
      <trkpt lat="45.1975" lon="5.87775">
        <ele>940.8</ele>
        <time>2021-04-10T08:34:36Z</time>
      </trkpt>
      <trkpt lat="45.1975" lon="5.87778">
        <ele>940.8</ele>
        <time>2021-04-10T08:34:37Z</time>
      </trkpt>
      <trkpt lat="45.1975" lon="5.87778">
        <ele>941</ele>
        <time>2021-04-10T08:34:38Z</time>
      </trkpt>
      <trkpt lat="45.1975" lon="5.87778">
        <ele>941.2</ele>
        <time>2021-04-10T08:34:39Z</time>
      </trkpt>
      <trkpt lat="45.19749" lon="5.87781">
        <ele>941.4</ele>
        <time>2021-04-10T08:34:40Z</time>
      </trkpt>
      <trkpt lat="45.19749" lon="5.87781">
        <ele>941.6</ele>
        <time>2021-04-10T08:34:41Z</time>
      </trkpt>
      <trkpt lat="45.19748" lon="5.87785">
        <ele>941.8</ele>
        <time>2021-04-10T08:34:42Z</time>
      </trkpt>
      <trkpt lat="45.19748" lon="5.87785">
        <ele>942</ele>
        <time>2021-04-10T08:34:43Z</time>
      </trkpt>
      <trkpt lat="45.19747" lon="5.87787">
        <ele>942</ele>
        <time>2021-04-10T08:34:44Z</time>
      </trkpt>
      <trkpt lat="45.19747" lon="5.87787">
        <ele>942</ele>
        <time>2021-04-10T08:34:45Z</time>
      </trkpt>
      <trkpt lat="45.19747" lon="5.87787">
        <ele>942.2</ele>
        <time>2021-04-10T08:34:46Z</time>
      </trkpt>
      <trkpt lat="45.19747" lon="5.87791">
        <ele>942.4</ele>
        <time>2021-04-10T08:34:47Z</time>
      </trkpt>
      <trkpt lat="45.19747" lon="5.87791">
        <ele>942.6</ele>
        <time>2021-04-10T08:34:48Z</time>
      </trkpt>
      <trkpt lat="45.19747" lon="5.87794">
        <ele>942.6</ele>
        <time>2021-04-10T08:34:49Z</time>
      </trkpt>
      <trkpt lat="45.19747" lon="5.87794">
        <ele>942.6</ele>
        <time>2021-04-10T08:34:50Z</time>
      </trkpt>
      <trkpt lat="45.19747" lon="5.87796">
        <ele>942.4</ele>
        <time>2021-04-10T08:34:51Z</time>
      </trkpt>
      <trkpt lat="45.19747" lon="5.87796">
        <ele>942.6</ele>
        <time>2021-04-10T08:34:52Z</time>
      </trkpt>
      <trkpt lat="45.19747" lon="5.87796">
        <ele>942.8</ele>
        <time>2021-04-10T08:34:53Z</time>
      </trkpt>
      <trkpt lat="45.19747" lon="5.87796">
        <ele>943</ele>
        <time>2021-04-10T08:34:54Z</time>
      </trkpt>
      <trkpt lat="45.19748" lon="5.87798">
        <ele>943.2</ele>
        <time>2021-04-10T08:34:55Z</time>
      </trkpt>
      <trkpt lat="45.19749" lon="5.878">
        <ele>943.2</ele>
        <time>2021-04-10T08:34:56Z</time>
      </trkpt>
      <trkpt lat="45.1975" lon="5.87802">
        <ele>943.4</ele>
        <time>2021-04-10T08:34:57Z</time>
      </trkpt>
      <trkpt lat="45.1975" lon="5.87804">
        <ele>943.4</ele>
        <time>2021-04-10T08:34:58Z</time>
      </trkpt>
      <trkpt lat="45.19751" lon="5.87806">
        <ele>943.4</ele>
        <time>2021-04-10T08:34:59Z</time>
      </trkpt>
      <trkpt lat="45.19752" lon="5.87808">
        <ele>943.2</ele>
        <time>2021-04-10T08:35:00Z</time>
      </trkpt>
      <trkpt lat="45.19752" lon="5.87808">
        <ele>943.2</ele>
        <time>2021-04-10T08:35:01Z</time>
      </trkpt>
      <trkpt lat="45.19752" lon="5.87808">
        <ele>943</ele>
        <time>2021-04-10T08:35:02Z</time>
      </trkpt>
      <trkpt lat="45.19752" lon="5.87808">
        <ele>943</ele>
        <time>2021-04-10T08:35:03Z</time>
      </trkpt>
      <trkpt lat="45.19752" lon="5.8781">
        <ele>943.2</ele>
        <time>2021-04-10T08:35:04Z</time>
      </trkpt>
      <trkpt lat="45.19752" lon="5.87811">
        <ele>943.2</ele>
        <time>2021-04-10T08:35:05Z</time>
      </trkpt>
      <trkpt lat="45.19752" lon="5.87813">
        <ele>943.4</ele>
        <time>2021-04-10T08:35:06Z</time>
      </trkpt>
      <trkpt lat="45.19752" lon="5.87814">
        <ele>943.4</ele>
        <time>2021-04-10T08:35:07Z</time>
      </trkpt>
      <trkpt lat="45.19753" lon="5.87816">
        <ele>943.6</ele>
        <time>2021-04-10T08:35:08Z</time>
      </trkpt>
      <trkpt lat="45.19753" lon="5.87817">
        <ele>943.6</ele>
        <time>2021-04-10T08:35:09Z</time>
      </trkpt>
      <trkpt lat="45.19753" lon="5.87819">
        <ele>943.8</ele>
        <time>2021-04-10T08:35:10Z</time>
      </trkpt>
      <trkpt lat="45.19753" lon="5.8782">
        <ele>944.2</ele>
        <time>2021-04-10T08:35:11Z</time>
      </trkpt>
      <trkpt lat="45.19753" lon="5.87822">
        <ele>944.4</ele>
        <time>2021-04-10T08:35:12Z</time>
      </trkpt>
      <trkpt lat="45.19753" lon="5.87823">
        <ele>944.8</ele>
        <time>2021-04-10T08:35:13Z</time>
      </trkpt>
      <trkpt lat="45.19753" lon="5.87825">
        <ele>945.2</ele>
        <time>2021-04-10T08:35:14Z</time>
      </trkpt>
      <trkpt lat="45.19753" lon="5.87825">
        <ele>945.6</ele>
        <time>2021-04-10T08:35:15Z</time>
      </trkpt>
      <trkpt lat="45.19753" lon="5.87825">
        <ele>946</ele>
        <time>2021-04-10T08:35:16Z</time>
      </trkpt>
      <trkpt lat="45.19753" lon="5.87825">
        <ele>946.4</ele>
        <time>2021-04-10T08:35:17Z</time>
      </trkpt>
      <trkpt lat="45.19755" lon="5.87829">
        <ele>946.6</ele>
        <time>2021-04-10T08:35:18Z</time>
      </trkpt>
      <trkpt lat="45.19755" lon="5.87829">
        <ele>946.8</ele>
        <time>2021-04-10T08:35:19Z</time>
      </trkpt>
      <trkpt lat="45.19756" lon="5.87832">
        <ele>947</ele>
        <time>2021-04-10T08:35:20Z</time>
      </trkpt>
      <trkpt lat="45.19756" lon="5.87832">
        <ele>947.2</ele>
        <time>2021-04-10T08:35:21Z</time>
      </trkpt>
      <trkpt lat="45.19756" lon="5.87832">
        <ele>947.2</ele>
        <time>2021-04-10T08:35:22Z</time>
      </trkpt>
      <trkpt lat="45.19756" lon="5.87832">
        <ele>947.4</ele>
        <time>2021-04-10T08:35:23Z</time>
      </trkpt>
      <trkpt lat="45.19756" lon="5.87833">
        <ele>947.6</ele>
        <time>2021-04-10T08:35:24Z</time>
      </trkpt>
      <trkpt lat="45.19756" lon="5.87834">
        <ele>947.6</ele>
        <time>2021-04-10T08:35:25Z</time>
      </trkpt>
      <trkpt lat="45.19756" lon="5.87835">
        <ele>947.8</ele>
        <time>2021-04-10T08:35:26Z</time>
      </trkpt>
      <trkpt lat="45.19757" lon="5.87836">
        <ele>948</ele>
        <time>2021-04-10T08:35:27Z</time>
      </trkpt>
      <trkpt lat="45.19757" lon="5.87837">
        <ele>948</ele>
        <time>2021-04-10T08:35:28Z</time>
      </trkpt>
      <trkpt lat="45.19757" lon="5.87838">
        <ele>948.2</ele>
        <time>2021-04-10T08:35:29Z</time>
      </trkpt>
      <trkpt lat="45.19757" lon="5.8784">
        <ele>948.6</ele>
        <time>2021-04-10T08:35:30Z</time>
      </trkpt>
      <trkpt lat="45.19758" lon="5.87841">
        <ele>948.8</ele>
        <time>2021-04-10T08:35:31Z</time>
      </trkpt>
      <trkpt lat="45.19758" lon="5.87842">
        <ele>948.8</ele>
        <time>2021-04-10T08:35:32Z</time>
      </trkpt>
      <trkpt lat="45.19758" lon="5.87843">
        <ele>949</ele>
        <time>2021-04-10T08:35:33Z</time>
      </trkpt>
      <trkpt lat="45.19758" lon="5.87844">
        <ele>949</ele>
        <time>2021-04-10T08:35:34Z</time>
      </trkpt>
      <trkpt lat="45.19759" lon="5.87845">
        <ele>949.2</ele>
        <time>2021-04-10T08:35:35Z</time>
      </trkpt>
      <trkpt lat="45.19759" lon="5.87846">
        <ele>949.2</ele>
        <time>2021-04-10T08:35:36Z</time>
      </trkpt>
      <trkpt lat="45.19759" lon="5.87847">
        <ele>949.2</ele>
        <time>2021-04-10T08:35:37Z</time>
      </trkpt>
      <trkpt lat="45.1976" lon="5.87849">
        <ele>949.6</ele>
        <time>2021-04-10T08:35:38Z</time>
      </trkpt>
      <trkpt lat="45.1976" lon="5.8785">
        <ele>949.8</ele>
        <time>2021-04-10T08:35:39Z</time>
      </trkpt>
      <trkpt lat="45.1976" lon="5.87851">
        <ele>950</ele>
        <time>2021-04-10T08:35:40Z</time>
      </trkpt>
      <trkpt lat="45.19761" lon="5.87852">
        <ele>950.4</ele>
        <time>2021-04-10T08:35:41Z</time>
      </trkpt>
      <trkpt lat="45.19761" lon="5.87854">
        <ele>950.6</ele>
        <time>2021-04-10T08:35:42Z</time>
      </trkpt>
      <trkpt lat="45.19761" lon="5.87855">
        <ele>950.8</ele>
        <time>2021-04-10T08:35:43Z</time>
      </trkpt>
      <trkpt lat="45.19762" lon="5.87856">
        <ele>951</ele>
        <time>2021-04-10T08:35:44Z</time>
      </trkpt>
      <trkpt lat="45.19762" lon="5.87857">
        <ele>951.2</ele>
        <time>2021-04-10T08:35:45Z</time>
      </trkpt>
      <trkpt lat="45.19762" lon="5.87859">
        <ele>951.2</ele>
        <time>2021-04-10T08:35:46Z</time>
      </trkpt>
      <trkpt lat="45.19762" lon="5.8786">
        <ele>951.4</ele>
        <time>2021-04-10T08:35:47Z</time>
      </trkpt>
      <trkpt lat="45.19762" lon="5.87862">
        <ele>951.4</ele>
        <time>2021-04-10T08:35:48Z</time>
      </trkpt>
      <trkpt lat="45.19762" lon="5.87863">
        <ele>951.8</ele>
        <time>2021-04-10T08:35:49Z</time>
      </trkpt>
      <trkpt lat="45.19762" lon="5.87864">
        <ele>952</ele>
        <time>2021-04-10T08:35:50Z</time>
      </trkpt>
      <trkpt lat="45.19762" lon="5.87866">
        <ele>952</ele>
        <time>2021-04-10T08:35:51Z</time>
      </trkpt>
      <trkpt lat="45.19762" lon="5.87867">
        <ele>952.4</ele>
        <time>2021-04-10T08:35:52Z</time>
      </trkpt>
      <trkpt lat="45.19762" lon="5.87869">
        <ele>952.6</ele>
        <time>2021-04-10T08:35:53Z</time>
      </trkpt>
      <trkpt lat="45.19762" lon="5.8787">
        <ele>952.6</ele>
        <time>2021-04-10T08:35:54Z</time>
      </trkpt>
      <trkpt lat="45.19762" lon="5.87872">
        <ele>952.6</ele>
        <time>2021-04-10T08:35:55Z</time>
      </trkpt>
      <trkpt lat="45.19762" lon="5.87873">
        <ele>953</ele>
        <time>2021-04-10T08:35:56Z</time>
      </trkpt>
      <trkpt lat="45.19762" lon="5.87875">
        <ele>953.2</ele>
        <time>2021-04-10T08:35:57Z</time>
      </trkpt>
      <trkpt lat="45.19761" lon="5.87876">
        <ele>953.6</ele>
        <time>2021-04-10T08:35:58Z</time>
      </trkpt>
      <trkpt lat="45.19761" lon="5.87878">
        <ele>954</ele>
        <time>2021-04-10T08:35:59Z</time>
      </trkpt>
      <trkpt lat="45.19761" lon="5.87879">
        <ele>954.2</ele>
        <time>2021-04-10T08:36:00Z</time>
      </trkpt>
      <trkpt lat="45.19761" lon="5.87881">
        <ele>954.6</ele>
        <time>2021-04-10T08:36:01Z</time>
      </trkpt>
      <trkpt lat="45.1976" lon="5.87882">
        <ele>954.6</ele>
        <time>2021-04-10T08:36:02Z</time>
      </trkpt>
      <trkpt lat="45.1976" lon="5.87884">
        <ele>955</ele>
        <time>2021-04-10T08:36:03Z</time>
      </trkpt>
      <trkpt lat="45.1976" lon="5.87886">
        <ele>955.2</ele>
        <time>2021-04-10T08:36:04Z</time>
      </trkpt>
      <trkpt lat="45.19761" lon="5.87889">
        <ele>955.4</ele>
        <time>2021-04-10T08:36:05Z</time>
      </trkpt>
      <trkpt lat="45.19761" lon="5.87891">
        <ele>955.4</ele>
        <time>2021-04-10T08:36:06Z</time>
      </trkpt>
      <trkpt lat="45.19761" lon="5.87893">
        <ele>955.6</ele>
        <time>2021-04-10T08:36:07Z</time>
      </trkpt>
      <trkpt lat="45.19761" lon="5.87896">
        <ele>955.8</ele>
        <time>2021-04-10T08:36:08Z</time>
      </trkpt>
      <trkpt lat="45.19762" lon="5.87901">
        <ele>955.8</ele>
        <time>2021-04-10T08:36:09Z</time>
      </trkpt>
      <trkpt lat="45.19762" lon="5.87904">
        <ele>955.8</ele>
        <time>2021-04-10T08:36:10Z</time>
      </trkpt>
      <trkpt lat="45.19762" lon="5.87904">
        <ele>956.2</ele>
        <time>2021-04-10T08:36:11Z</time>
      </trkpt>
      <trkpt lat="45.19763" lon="5.87908">
        <ele>956.4</ele>
        <time>2021-04-10T08:36:12Z</time>
      </trkpt>
      <trkpt lat="45.19763" lon="5.87908">
        <ele>956.6</ele>
        <time>2021-04-10T08:36:13Z</time>
      </trkpt>
      <trkpt lat="45.19763" lon="5.87908">
        <ele>956.8</ele>
        <time>2021-04-10T08:36:14Z</time>
      </trkpt>
      <trkpt lat="45.19763" lon="5.87908">
        <ele>956.6</ele>
        <time>2021-04-10T08:36:15Z</time>
      </trkpt>
      <trkpt lat="45.19764" lon="5.8791">
        <ele>956.8</ele>
        <time>2021-04-10T08:36:16Z</time>
      </trkpt>
      <trkpt lat="45.19764" lon="5.87913">
        <ele>957</ele>
        <time>2021-04-10T08:36:17Z</time>
      </trkpt>
      <trkpt lat="45.19765" lon="5.87916">
        <ele>957.2</ele>
        <time>2021-04-10T08:36:18Z</time>
      </trkpt>
      <trkpt lat="45.19765" lon="5.87918">
        <ele>957.2</ele>
        <time>2021-04-10T08:36:19Z</time>
      </trkpt>
      <trkpt lat="45.19766" lon="5.87921">
        <ele>957.6</ele>
        <time>2021-04-10T08:36:20Z</time>
      </trkpt>
      <trkpt lat="45.19767" lon="5.87935">
        <ele>957.8</ele>
        <time>2021-04-10T08:36:21Z</time>
      </trkpt>
      <trkpt lat="45.19767" lon="5.87937">
        <ele>958</ele>
        <time>2021-04-10T08:36:22Z</time>
      </trkpt>
      <trkpt lat="45.19767" lon="5.87939">
        <ele>957.8</ele>
        <time>2021-04-10T08:36:23Z</time>
      </trkpt>
      <trkpt lat="45.19767" lon="5.87941">
        <ele>957.8</ele>
        <time>2021-04-10T08:36:24Z</time>
      </trkpt>
      <trkpt lat="45.19766" lon="5.87943">
        <ele>957.4</ele>
        <time>2021-04-10T08:36:25Z</time>
      </trkpt>
      <trkpt lat="45.19766" lon="5.87945">
        <ele>957.2</ele>
        <time>2021-04-10T08:36:26Z</time>
      </trkpt>
      <trkpt lat="45.19766" lon="5.87947">
        <ele>957.2</ele>
        <time>2021-04-10T08:36:27Z</time>
      </trkpt>
      <trkpt lat="45.19766" lon="5.8795">
        <ele>956.8</ele>
        <time>2021-04-10T08:36:28Z</time>
      </trkpt>
      <trkpt lat="45.19766" lon="5.87952">
        <ele>957</ele>
        <time>2021-04-10T08:36:29Z</time>
      </trkpt>
      <trkpt lat="45.19766" lon="5.87954">
        <ele>956.6</ele>
        <time>2021-04-10T08:36:30Z</time>
      </trkpt>
      <trkpt lat="45.19766" lon="5.87956">
        <ele>956.8</ele>
        <time>2021-04-10T08:36:31Z</time>
      </trkpt>
      <trkpt lat="45.19765" lon="5.87958">
        <ele>956.6</ele>
        <time>2021-04-10T08:36:32Z</time>
      </trkpt>
      <trkpt lat="45.19765" lon="5.8796">
        <ele>956.4</ele>
        <time>2021-04-10T08:36:33Z</time>
      </trkpt>
      <trkpt lat="45.19765" lon="5.87962">
        <ele>956</ele>
        <time>2021-04-10T08:36:34Z</time>
      </trkpt>
      <trkpt lat="45.19765" lon="5.87965">
        <ele>956</ele>
        <time>2021-04-10T08:36:35Z</time>
      </trkpt>
      <trkpt lat="45.19765" lon="5.87967">
        <ele>955.6</ele>
        <time>2021-04-10T08:36:36Z</time>
      </trkpt>
      <trkpt lat="45.19765" lon="5.87969">
        <ele>955.6</ele>
        <time>2021-04-10T08:36:37Z</time>
      </trkpt>
      <trkpt lat="45.19765" lon="5.87971">
        <ele>955</ele>
        <time>2021-04-10T08:36:38Z</time>
      </trkpt>
      <trkpt lat="45.19764" lon="5.87973">
        <ele>954.8</ele>
        <time>2021-04-10T08:36:39Z</time>
      </trkpt>
      <trkpt lat="45.19764" lon="5.87984">
        <ele>954.4</ele>
        <time>2021-04-10T08:36:40Z</time>
      </trkpt>
      <trkpt lat="45.19763" lon="5.87994">
        <ele>954.2</ele>
        <time>2021-04-10T08:36:41Z</time>
      </trkpt>
      <trkpt lat="45.19763" lon="5.88005">
        <ele>954</ele>
        <time>2021-04-10T08:36:42Z</time>
      </trkpt>
      <trkpt lat="45.19762" lon="5.88015">
        <ele>953.6</ele>
        <time>2021-04-10T08:36:43Z</time>
      </trkpt>
      <trkpt lat="45.19762" lon="5.88026">
        <ele>953.6</ele>
        <time>2021-04-10T08:36:44Z</time>
      </trkpt>
      <trkpt lat="45.19761" lon="5.88033">
        <ele>953.2</ele>
        <time>2021-04-10T08:36:45Z</time>
      </trkpt>
      <trkpt lat="45.19761" lon="5.88033">
        <ele>953.6</ele>
        <time>2021-04-10T08:36:46Z</time>
      </trkpt>
      <trkpt lat="45.19761" lon="5.88033">
        <ele>953.6</ele>
        <time>2021-04-10T08:36:47Z</time>
      </trkpt>
      <trkpt lat="45.19761" lon="5.88035">
        <ele>954</ele>
        <time>2021-04-10T08:36:48Z</time>
      </trkpt>
      <trkpt lat="45.19761" lon="5.88037">
        <ele>953.8</ele>
        <time>2021-04-10T08:36:49Z</time>
      </trkpt>
      <trkpt lat="45.19761" lon="5.88039">
        <ele>954</ele>
        <time>2021-04-10T08:36:50Z</time>
      </trkpt>
      <trkpt lat="45.19761" lon="5.88042">
        <ele>953.8</ele>
        <time>2021-04-10T08:36:51Z</time>
      </trkpt>
      <trkpt lat="45.19761" lon="5.88044">
        <ele>953.8</ele>
        <time>2021-04-10T08:36:52Z</time>
      </trkpt>
      <trkpt lat="45.19761" lon="5.88046">
        <ele>953.6</ele>
        <time>2021-04-10T08:36:53Z</time>
      </trkpt>
      <trkpt lat="45.19761" lon="5.88049">
        <ele>953.8</ele>
        <time>2021-04-10T08:36:54Z</time>
      </trkpt>
      <trkpt lat="45.19762" lon="5.8805">
        <ele>954</ele>
        <time>2021-04-10T08:36:55Z</time>
      </trkpt>
      <trkpt lat="45.19762" lon="5.88052">
        <ele>954.2</ele>
        <time>2021-04-10T08:36:56Z</time>
      </trkpt>
      <trkpt lat="45.19762" lon="5.88054">
        <ele>954.4</ele>
        <time>2021-04-10T08:36:57Z</time>
      </trkpt>
      <trkpt lat="45.19763" lon="5.88056">
        <ele>954.4</ele>
        <time>2021-04-10T08:36:58Z</time>
      </trkpt>
      <trkpt lat="45.19763" lon="5.88058">
        <ele>954.6</ele>
        <time>2021-04-10T08:36:59Z</time>
      </trkpt>
      <trkpt lat="45.19763" lon="5.8806">
        <ele>955.2</ele>
        <time>2021-04-10T08:37:00Z</time>
      </trkpt>
      <trkpt lat="45.19763" lon="5.88061">
        <ele>955.2</ele>
        <time>2021-04-10T08:37:01Z</time>
      </trkpt>
      <trkpt lat="45.19764" lon="5.88063">
        <ele>955.2</ele>
        <time>2021-04-10T08:37:02Z</time>
      </trkpt>
      <trkpt lat="45.19764" lon="5.88066">
        <ele>954.8</ele>
        <time>2021-04-10T08:37:03Z</time>
      </trkpt>
      <trkpt lat="45.19765" lon="5.88068">
        <ele>954</ele>
        <time>2021-04-10T08:37:04Z</time>
      </trkpt>
      <trkpt lat="45.19765" lon="5.8807">
        <ele>953.8</ele>
        <time>2021-04-10T08:37:05Z</time>
      </trkpt>
      <trkpt lat="45.19766" lon="5.88072">
        <ele>953.4</ele>
        <time>2021-04-10T08:37:06Z</time>
      </trkpt>
      <trkpt lat="45.19766" lon="5.88075">
        <ele>953.6</ele>
        <time>2021-04-10T08:37:07Z</time>
      </trkpt>
      <trkpt lat="45.19767" lon="5.88077">
        <ele>952.8</ele>
        <time>2021-04-10T08:37:08Z</time>
      </trkpt>
      <trkpt lat="45.19767" lon="5.88079">
        <ele>952.4</ele>
        <time>2021-04-10T08:37:09Z</time>
      </trkpt>
      <trkpt lat="45.19768" lon="5.88081">
        <ele>951.8</ele>
        <time>2021-04-10T08:37:10Z</time>
      </trkpt>
      <trkpt lat="45.19769" lon="5.88083">
        <ele>951.2</ele>
        <time>2021-04-10T08:37:11Z</time>
      </trkpt>
      <trkpt lat="45.19769" lon="5.88086">
        <ele>950.6</ele>
        <time>2021-04-10T08:37:12Z</time>
      </trkpt>
      <trkpt lat="45.1977" lon="5.88088">
        <ele>949.6</ele>
        <time>2021-04-10T08:37:13Z</time>
      </trkpt>
      <trkpt lat="45.19771" lon="5.8809">
        <ele>949.4</ele>
        <time>2021-04-10T08:37:14Z</time>
      </trkpt>
      <trkpt lat="45.19771" lon="5.88093">
        <ele>948.8</ele>
        <time>2021-04-10T08:37:15Z</time>
      </trkpt>
      <trkpt lat="45.19772" lon="5.88095">
        <ele>948.8</ele>
        <time>2021-04-10T08:37:16Z</time>
      </trkpt>
      <trkpt lat="45.19772" lon="5.88097">
        <ele>948.4</ele>
        <time>2021-04-10T08:37:17Z</time>
      </trkpt>
      <trkpt lat="45.19773" lon="5.881">
        <ele>948.2</ele>
        <time>2021-04-10T08:37:18Z</time>
      </trkpt>
      <trkpt lat="45.19773" lon="5.88102">
        <ele>947.6</ele>
        <time>2021-04-10T08:37:19Z</time>
      </trkpt>
      <trkpt lat="45.19773" lon="5.88108">
        <ele>947.4</ele>
        <time>2021-04-10T08:37:20Z</time>
      </trkpt>
      <trkpt lat="45.19772" lon="5.88111">
        <ele>946.8</ele>
        <time>2021-04-10T08:37:21Z</time>
      </trkpt>
      <trkpt lat="45.19772" lon="5.88114">
        <ele>946.6</ele>
        <time>2021-04-10T08:37:22Z</time>
      </trkpt>
      <trkpt lat="45.19772" lon="5.88118">
        <ele>946.2</ele>
        <time>2021-04-10T08:37:23Z</time>
      </trkpt>
      <trkpt lat="45.19771" lon="5.88121">
        <ele>945.8</ele>
        <time>2021-04-10T08:37:24Z</time>
      </trkpt>
      <trkpt lat="45.19771" lon="5.88124">
        <ele>945.4</ele>
        <time>2021-04-10T08:37:25Z</time>
      </trkpt>
      <trkpt lat="45.1977" lon="5.88127">
        <ele>944.8</ele>
        <time>2021-04-10T08:37:26Z</time>
      </trkpt>
      <trkpt lat="45.1977" lon="5.88131">
        <ele>943.8</ele>
        <time>2021-04-10T08:37:27Z</time>
      </trkpt>
      <trkpt lat="45.19769" lon="5.88133">
        <ele>943.6</ele>
        <time>2021-04-10T08:37:28Z</time>
      </trkpt>
      <trkpt lat="45.19768" lon="5.88136">
        <ele>943.2</ele>
        <time>2021-04-10T08:37:29Z</time>
      </trkpt>
      <trkpt lat="45.19768" lon="5.88138">
        <ele>942.8</ele>
        <time>2021-04-10T08:37:30Z</time>
      </trkpt>
      <trkpt lat="45.19767" lon="5.8814">
        <ele>942.4</ele>
        <time>2021-04-10T08:37:31Z</time>
      </trkpt>
      <trkpt lat="45.19764" lon="5.8815">
        <ele>941.6</ele>
        <time>2021-04-10T08:37:32Z</time>
      </trkpt>
      <trkpt lat="45.19762" lon="5.88154">
        <ele>940.8</ele>
        <time>2021-04-10T08:37:33Z</time>
      </trkpt>
      <trkpt lat="45.19761" lon="5.88157">
        <ele>940.4</ele>
        <time>2021-04-10T08:37:34Z</time>
      </trkpt>
      <trkpt lat="45.19761" lon="5.8816">
        <ele>940.4</ele>
        <time>2021-04-10T08:37:35Z</time>
      </trkpt>
      <trkpt lat="45.1976" lon="5.88162">
        <ele>939.8</ele>
        <time>2021-04-10T08:37:36Z</time>
      </trkpt>
      <trkpt lat="45.1976" lon="5.88169">
        <ele>939.4</ele>
        <time>2021-04-10T08:37:37Z</time>
      </trkpt>
      <trkpt lat="45.19759" lon="5.88172">
        <ele>938.8</ele>
        <time>2021-04-10T08:37:38Z</time>
      </trkpt>
      <trkpt lat="45.19759" lon="5.88172">
        <ele>938</ele>
        <time>2021-04-10T08:37:39Z</time>
      </trkpt>
      <trkpt lat="45.19759" lon="5.88172">
        <ele>937.2</ele>
        <time>2021-04-10T08:37:40Z</time>
      </trkpt>
      <trkpt lat="45.19759" lon="5.88172">
        <ele>936.8</ele>
        <time>2021-04-10T08:37:41Z</time>
      </trkpt>
      <trkpt lat="45.19759" lon="5.88172">
        <ele>936.8</ele>
        <time>2021-04-10T08:37:42Z</time>
      </trkpt>
      <trkpt lat="45.19759" lon="5.88175">
        <ele>936.4</ele>
        <time>2021-04-10T08:37:43Z</time>
      </trkpt>
      <trkpt lat="45.19759" lon="5.88178">
        <ele>935.8</ele>
        <time>2021-04-10T08:37:44Z</time>
      </trkpt>
      <trkpt lat="45.19759" lon="5.88181">
        <ele>935.4</ele>
        <time>2021-04-10T08:37:45Z</time>
      </trkpt>
      <trkpt lat="45.19759" lon="5.88183">
        <ele>934.6</ele>
        <time>2021-04-10T08:37:46Z</time>
      </trkpt>
      <trkpt lat="45.19759" lon="5.88186">
        <ele>934.4</ele>
        <time>2021-04-10T08:37:47Z</time>
      </trkpt>
      <trkpt lat="45.19758" lon="5.8819">
        <ele>934</ele>
        <time>2021-04-10T08:37:48Z</time>
      </trkpt>
      <trkpt lat="45.19758" lon="5.88195">
        <ele>933.8</ele>
        <time>2021-04-10T08:37:49Z</time>
      </trkpt>
      <trkpt lat="45.19757" lon="5.88199">
        <ele>933.2</ele>
        <time>2021-04-10T08:37:50Z</time>
      </trkpt>
      <trkpt lat="45.19756" lon="5.88203">
        <ele>932.8</ele>
        <time>2021-04-10T08:37:51Z</time>
      </trkpt>
      <trkpt lat="45.19756" lon="5.88208">
        <ele>932.2</ele>
        <time>2021-04-10T08:37:52Z</time>
      </trkpt>
      <trkpt lat="45.19753" lon="5.88217">
        <ele>931.6</ele>
        <time>2021-04-10T08:37:53Z</time>
      </trkpt>
      <trkpt lat="45.19752" lon="5.88221">
        <ele>931.2</ele>
        <time>2021-04-10T08:37:54Z</time>
      </trkpt>
      <trkpt lat="45.19752" lon="5.88224">
        <ele>930.6</ele>
        <time>2021-04-10T08:37:55Z</time>
      </trkpt>
      <trkpt lat="45.19751" lon="5.88227">
        <ele>930.4</ele>
        <time>2021-04-10T08:37:56Z</time>
      </trkpt>
      <trkpt lat="45.1975" lon="5.88231">
        <ele>930</ele>
        <time>2021-04-10T08:37:57Z</time>
      </trkpt>
      <trkpt lat="45.1975" lon="5.88234">
        <ele>929.8</ele>
        <time>2021-04-10T08:37:58Z</time>
      </trkpt>
      <trkpt lat="45.19749" lon="5.88237">
        <ele>929.4</ele>
        <time>2021-04-10T08:37:59Z</time>
      </trkpt>
      <trkpt lat="45.19748" lon="5.88241">
        <ele>929.4</ele>
        <time>2021-04-10T08:38:00Z</time>
      </trkpt>
      <trkpt lat="45.19748" lon="5.88243">
        <ele>929</ele>
        <time>2021-04-10T08:38:01Z</time>
      </trkpt>
      <trkpt lat="45.19748" lon="5.88245">
        <ele>929</ele>
        <time>2021-04-10T08:38:02Z</time>
      </trkpt>
      <trkpt lat="45.19747" lon="5.88247">
        <ele>928.4</ele>
        <time>2021-04-10T08:38:03Z</time>
      </trkpt>
      <trkpt lat="45.19747" lon="5.88249">
        <ele>928.2</ele>
        <time>2021-04-10T08:38:04Z</time>
      </trkpt>
      <trkpt lat="45.19747" lon="5.88251">
        <ele>927.8</ele>
        <time>2021-04-10T08:38:05Z</time>
      </trkpt>
      <trkpt lat="45.19745" lon="5.88261">
        <ele>928</ele>
        <time>2021-04-10T08:38:06Z</time>
      </trkpt>
      <trkpt lat="45.19743" lon="5.88266">
        <ele>927.4</ele>
        <time>2021-04-10T08:38:07Z</time>
      </trkpt>
      <trkpt lat="45.19742" lon="5.8827">
        <ele>927.6</ele>
        <time>2021-04-10T08:38:08Z</time>
      </trkpt>
      <trkpt lat="45.19741" lon="5.88274">
        <ele>927.4</ele>
        <time>2021-04-10T08:38:09Z</time>
      </trkpt>
      <trkpt lat="45.1974" lon="5.88277">
        <ele>927.4</ele>
        <time>2021-04-10T08:38:10Z</time>
      </trkpt>
      <trkpt lat="45.19739" lon="5.88279">
        <ele>927</ele>
        <time>2021-04-10T08:38:11Z</time>
      </trkpt>
      <trkpt lat="45.19736" lon="5.88288">
        <ele>927.2</ele>
        <time>2021-04-10T08:38:12Z</time>
      </trkpt>
      <trkpt lat="45.19734" lon="5.88292">
        <ele>927</ele>
        <time>2021-04-10T08:38:13Z</time>
      </trkpt>
      <trkpt lat="45.19733" lon="5.88294">
        <ele>926.8</ele>
        <time>2021-04-10T08:38:14Z</time>
      </trkpt>
      <trkpt lat="45.19732" lon="5.88297">
        <ele>926.6</ele>
        <time>2021-04-10T08:38:15Z</time>
      </trkpt>
      <trkpt lat="45.19731" lon="5.88299">
        <ele>926.4</ele>
        <time>2021-04-10T08:38:16Z</time>
      </trkpt>
      <trkpt lat="45.19729" lon="5.88301">
        <ele>926.2</ele>
        <time>2021-04-10T08:38:17Z</time>
      </trkpt>
      <trkpt lat="45.19727" lon="5.88306">
        <ele>926</ele>
        <time>2021-04-10T08:38:18Z</time>
      </trkpt>
      <trkpt lat="45.19726" lon="5.88308">
        <ele>925.6</ele>
        <time>2021-04-10T08:38:19Z</time>
      </trkpt>
      <trkpt lat="45.19725" lon="5.88311">
        <ele>925</ele>
        <time>2021-04-10T08:38:20Z</time>
      </trkpt>
      <trkpt lat="45.19723" lon="5.88313">
        <ele>924.8</ele>
        <time>2021-04-10T08:38:21Z</time>
      </trkpt>
      <trkpt lat="45.19723" lon="5.88314">
        <ele>924.4</ele>
        <time>2021-04-10T08:38:22Z</time>
      </trkpt>
      <trkpt lat="45.19722" lon="5.88315">
        <ele>924.8</ele>
        <time>2021-04-10T08:38:23Z</time>
      </trkpt>
      <trkpt lat="45.19721" lon="5.88316">
        <ele>924.4</ele>
        <time>2021-04-10T08:38:24Z</time>
      </trkpt>
      <trkpt lat="45.19721" lon="5.88317">
        <ele>924.2</ele>
        <time>2021-04-10T08:38:25Z</time>
      </trkpt>
      <trkpt lat="45.19717" lon="5.88321">
        <ele>923.6</ele>
        <time>2021-04-10T08:38:26Z</time>
      </trkpt>
      <trkpt lat="45.19717" lon="5.88322">
        <ele>923.2</ele>
        <time>2021-04-10T08:38:27Z</time>
      </trkpt>
      <trkpt lat="45.19716" lon="5.88324">
        <ele>923.4</ele>
        <time>2021-04-10T08:38:28Z</time>
      </trkpt>
      <trkpt lat="45.19715" lon="5.88325">
        <ele>923</ele>
        <time>2021-04-10T08:38:29Z</time>
      </trkpt>
      <trkpt lat="45.19714" lon="5.88327">
        <ele>923.2</ele>
        <time>2021-04-10T08:38:30Z</time>
      </trkpt>
      <trkpt lat="45.19711" lon="5.88332">
        <ele>923</ele>
        <time>2021-04-10T08:38:31Z</time>
      </trkpt>
      <trkpt lat="45.1971" lon="5.88333">
        <ele>922.6</ele>
        <time>2021-04-10T08:38:32Z</time>
      </trkpt>
      <trkpt lat="45.19709" lon="5.88334">
        <ele>922</ele>
        <time>2021-04-10T08:38:33Z</time>
      </trkpt>
      <trkpt lat="45.19707" lon="5.88335">
        <ele>921.2</ele>
        <time>2021-04-10T08:38:34Z</time>
      </trkpt>
      <trkpt lat="45.19706" lon="5.88336">
        <ele>921.4</ele>
        <time>2021-04-10T08:38:35Z</time>
      </trkpt>
      <trkpt lat="45.19704" lon="5.88337">
        <ele>921.2</ele>
        <time>2021-04-10T08:38:36Z</time>
      </trkpt>
      <trkpt lat="45.19703" lon="5.88338">
        <ele>920.8</ele>
        <time>2021-04-10T08:38:37Z</time>
      </trkpt>
      <trkpt lat="45.19701" lon="5.88339">
        <ele>920.4</ele>
        <time>2021-04-10T08:38:38Z</time>
      </trkpt>
      <trkpt lat="45.197" lon="5.8834">
        <ele>920.2</ele>
        <time>2021-04-10T08:38:39Z</time>
      </trkpt>
      <trkpt lat="45.19698" lon="5.88341">
        <ele>920</ele>
        <time>2021-04-10T08:38:40Z</time>
      </trkpt>
      <trkpt lat="45.19697" lon="5.88342">
        <ele>920</ele>
        <time>2021-04-10T08:38:41Z</time>
      </trkpt>
      <trkpt lat="45.19695" lon="5.88342">
        <ele>920.4</ele>
        <time>2021-04-10T08:38:42Z</time>
      </trkpt>
      <trkpt lat="45.19693" lon="5.88342">
        <ele>920.4</ele>
        <time>2021-04-10T08:38:43Z</time>
      </trkpt>
      <trkpt lat="45.19691" lon="5.88342">
        <ele>920.6</ele>
        <time>2021-04-10T08:38:44Z</time>
      </trkpt>
      <trkpt lat="45.19688" lon="5.88342">
        <ele>920.2</ele>
        <time>2021-04-10T08:38:45Z</time>
      </trkpt>
      <trkpt lat="45.19686" lon="5.88342">
        <ele>920.2</ele>
        <time>2021-04-10T08:38:46Z</time>
      </trkpt>
      <trkpt lat="45.19684" lon="5.88342">
        <ele>920</ele>
        <time>2021-04-10T08:38:47Z</time>
      </trkpt>
      <trkpt lat="45.19681" lon="5.88342">
        <ele>920</ele>
        <time>2021-04-10T08:38:48Z</time>
      </trkpt>
      <trkpt lat="45.19679" lon="5.88342">
        <ele>919.8</ele>
        <time>2021-04-10T08:38:49Z</time>
      </trkpt>
      <trkpt lat="45.19677" lon="5.88341">
        <ele>920</ele>
        <time>2021-04-10T08:38:50Z</time>
      </trkpt>
      <trkpt lat="45.19676" lon="5.88342">
        <ele>919.8</ele>
        <time>2021-04-10T08:38:51Z</time>
      </trkpt>
      <trkpt lat="45.19674" lon="5.88342">
        <ele>920</ele>
        <time>2021-04-10T08:38:52Z</time>
      </trkpt>
      <trkpt lat="45.19673" lon="5.88343">
        <ele>920</ele>
        <time>2021-04-10T08:38:53Z</time>
      </trkpt>
      <trkpt lat="45.19672" lon="5.88343">
        <ele>919.8</ele>
        <time>2021-04-10T08:38:54Z</time>
      </trkpt>
      <trkpt lat="45.19667" lon="5.88345">
        <ele>920</ele>
        <time>2021-04-10T08:38:55Z</time>
      </trkpt>
      <trkpt lat="45.19667" lon="5.88345">
        <ele>919.6</ele>
        <time>2021-04-10T08:38:56Z</time>
      </trkpt>
      <trkpt lat="45.19667" lon="5.88345">
        <ele>919.8</ele>
        <time>2021-04-10T08:38:57Z</time>
      </trkpt>
      <trkpt lat="45.19665" lon="5.88346">
        <ele>919.2</ele>
        <time>2021-04-10T08:38:58Z</time>
      </trkpt>
      <trkpt lat="45.19663" lon="5.88347">
        <ele>918.4</ele>
        <time>2021-04-10T08:38:59Z</time>
      </trkpt>
      <trkpt lat="45.1966" lon="5.88347">
        <ele>918.6</ele>
        <time>2021-04-10T08:39:00Z</time>
      </trkpt>
      <trkpt lat="45.19658" lon="5.88348">
        <ele>918.2</ele>
        <time>2021-04-10T08:39:01Z</time>
      </trkpt>
      <trkpt lat="45.19656" lon="5.88348">
        <ele>918</ele>
        <time>2021-04-10T08:39:02Z</time>
      </trkpt>
      <trkpt lat="45.19654" lon="5.88349">
        <ele>917.4</ele>
        <time>2021-04-10T08:39:03Z</time>
      </trkpt>
      <trkpt lat="45.19652" lon="5.88349">
        <ele>916.8</ele>
        <time>2021-04-10T08:39:04Z</time>
      </trkpt>
      <trkpt lat="45.1965" lon="5.8835">
        <ele>916.2</ele>
        <time>2021-04-10T08:39:05Z</time>
      </trkpt>
      <trkpt lat="45.19648" lon="5.8835">
        <ele>915.6</ele>
        <time>2021-04-10T08:39:06Z</time>
      </trkpt>
      <trkpt lat="45.19646" lon="5.88351">
        <ele>915.6</ele>
        <time>2021-04-10T08:39:07Z</time>
      </trkpt>
      <trkpt lat="45.19643" lon="5.88352">
        <ele>915.2</ele>
        <time>2021-04-10T08:39:08Z</time>
      </trkpt>
      <trkpt lat="45.1964" lon="5.88353">
        <ele>915.2</ele>
        <time>2021-04-10T08:39:09Z</time>
      </trkpt>
      <trkpt lat="45.19637" lon="5.88353">
        <ele>914.6</ele>
        <time>2021-04-10T08:39:10Z</time>
      </trkpt>
      <trkpt lat="45.19634" lon="5.88354">
        <ele>913.8</ele>
        <time>2021-04-10T08:39:11Z</time>
      </trkpt>
      <trkpt lat="45.19631" lon="5.88355">
        <ele>913</ele>
        <time>2021-04-10T08:39:12Z</time>
      </trkpt>
      <trkpt lat="45.19628" lon="5.88356">
        <ele>912.2</ele>
        <time>2021-04-10T08:39:13Z</time>
      </trkpt>
      <trkpt lat="45.1962" lon="5.88357">
        <ele>912.2</ele>
        <time>2021-04-10T08:39:14Z</time>
      </trkpt>
      <trkpt lat="45.19618" lon="5.88357">
        <ele>911.8</ele>
        <time>2021-04-10T08:39:15Z</time>
      </trkpt>
      <trkpt lat="45.19616" lon="5.88356">
        <ele>911.4</ele>
        <time>2021-04-10T08:39:16Z</time>
      </trkpt>
      <trkpt lat="45.19613" lon="5.88356">
        <ele>910.8</ele>
        <time>2021-04-10T08:39:17Z</time>
      </trkpt>
      <trkpt lat="45.19608" lon="5.88355">
        <ele>910.4</ele>
        <time>2021-04-10T08:39:18Z</time>
      </trkpt>
      <trkpt lat="45.19608" lon="5.88355">
        <ele>909.6</ele>
        <time>2021-04-10T08:39:19Z</time>
      </trkpt>
      <trkpt lat="45.19605" lon="5.88354">
        <ele>909.2</ele>
        <time>2021-04-10T08:39:20Z</time>
      </trkpt>
      <trkpt lat="45.19601" lon="5.88354">
        <ele>909.2</ele>
        <time>2021-04-10T08:39:21Z</time>
      </trkpt>
      <trkpt lat="45.19597" lon="5.88354">
        <ele>908.6</ele>
        <time>2021-04-10T08:39:22Z</time>
      </trkpt>
      <trkpt lat="45.19597" lon="5.88354">
        <ele>908.2</ele>
        <time>2021-04-10T08:39:23Z</time>
      </trkpt>
      <trkpt lat="45.19595" lon="5.88354">
        <ele>907.4</ele>
        <time>2021-04-10T08:39:24Z</time>
      </trkpt>
      <trkpt lat="45.19594" lon="5.88353">
        <ele>906.8</ele>
        <time>2021-04-10T08:39:25Z</time>
      </trkpt>
      <trkpt lat="45.19592" lon="5.88352">
        <ele>906.8</ele>
        <time>2021-04-10T08:39:26Z</time>
      </trkpt>
      <trkpt lat="45.19591" lon="5.88351">
        <ele>906.4</ele>
        <time>2021-04-10T08:39:27Z</time>
      </trkpt>
      <trkpt lat="45.1959" lon="5.8835">
        <ele>906.2</ele>
        <time>2021-04-10T08:39:28Z</time>
      </trkpt>
      <trkpt lat="45.19585" lon="5.88347">
        <ele>905.6</ele>
        <time>2021-04-10T08:39:29Z</time>
      </trkpt>
      <trkpt lat="45.19582" lon="5.88346">
        <ele>904.8</ele>
        <time>2021-04-10T08:39:30Z</time>
      </trkpt>
      <trkpt lat="45.19581" lon="5.88345">
        <ele>904.6</ele>
        <time>2021-04-10T08:39:31Z</time>
      </trkpt>
      <trkpt lat="45.19579" lon="5.88344">
        <ele>904.2</ele>
        <time>2021-04-10T08:39:32Z</time>
      </trkpt>
      <trkpt lat="45.19577" lon="5.88343">
        <ele>904.2</ele>
        <time>2021-04-10T08:39:33Z</time>
      </trkpt>
      <trkpt lat="45.19576" lon="5.88343">
        <ele>903.6</ele>
        <time>2021-04-10T08:39:34Z</time>
      </trkpt>
      <trkpt lat="45.19569" lon="5.88339">
        <ele>903.4</ele>
        <time>2021-04-10T08:39:35Z</time>
      </trkpt>
      <trkpt lat="45.19565" lon="5.88339">
        <ele>903</ele>
        <time>2021-04-10T08:39:36Z</time>
      </trkpt>
      <trkpt lat="45.19563" lon="5.88338">
        <ele>902.2</ele>
        <time>2021-04-10T08:39:37Z</time>
      </trkpt>
      <trkpt lat="45.19561" lon="5.88338">
        <ele>902.4</ele>
        <time>2021-04-10T08:39:38Z</time>
      </trkpt>
      <trkpt lat="45.19561" lon="5.88338">
        <ele>902</ele>
        <time>2021-04-10T08:39:39Z</time>
      </trkpt>
      <trkpt lat="45.19558" lon="5.88337">
        <ele>902</ele>
        <time>2021-04-10T08:39:40Z</time>
      </trkpt>
      <trkpt lat="45.19556" lon="5.88336">
        <ele>901.4</ele>
        <time>2021-04-10T08:39:41Z</time>
      </trkpt>
      <trkpt lat="45.19553" lon="5.88335">
        <ele>901</ele>
        <time>2021-04-10T08:39:42Z</time>
      </trkpt>
      <trkpt lat="45.19551" lon="5.88334">
        <ele>900.4</ele>
        <time>2021-04-10T08:39:43Z</time>
      </trkpt>
      <trkpt lat="45.19548" lon="5.88332">
        <ele>899.4</ele>
        <time>2021-04-10T08:39:44Z</time>
      </trkpt>
      <trkpt lat="45.19548" lon="5.88332">
        <ele>899.2</ele>
        <time>2021-04-10T08:39:45Z</time>
      </trkpt>
      <trkpt lat="45.19548" lon="5.88332">
        <ele>898.8</ele>
        <time>2021-04-10T08:39:46Z</time>
      </trkpt>
      <trkpt lat="45.19548" lon="5.88332">
        <ele>898.6</ele>
        <time>2021-04-10T08:39:47Z</time>
      </trkpt>
      <trkpt lat="45.19547" lon="5.8833">
        <ele>898</ele>
        <time>2021-04-10T08:39:48Z</time>
      </trkpt>
      <trkpt lat="45.19545" lon="5.88329">
        <ele>897.6</ele>
        <time>2021-04-10T08:39:49Z</time>
      </trkpt>
      <trkpt lat="45.19543" lon="5.88328">
        <ele>897</ele>
        <time>2021-04-10T08:39:50Z</time>
      </trkpt>
      <trkpt lat="45.19541" lon="5.88326">
        <ele>896.2</ele>
        <time>2021-04-10T08:39:51Z</time>
      </trkpt>
      <trkpt lat="45.19539" lon="5.88325">
        <ele>896.2</ele>
        <time>2021-04-10T08:39:52Z</time>
      </trkpt>
      <trkpt lat="45.19529" lon="5.88316">
        <ele>895.6</ele>
        <time>2021-04-10T08:39:53Z</time>
      </trkpt>
      <trkpt lat="45.19527" lon="5.88315">
        <ele>895.6</ele>
        <time>2021-04-10T08:39:54Z</time>
      </trkpt>
      <trkpt lat="45.19525" lon="5.88314">
        <ele>895</ele>
        <time>2021-04-10T08:39:55Z</time>
      </trkpt>
      <trkpt lat="45.19523" lon="5.88313">
        <ele>894.4</ele>
        <time>2021-04-10T08:39:56Z</time>
      </trkpt>
      <trkpt lat="45.19521" lon="5.88311">
        <ele>894.2</ele>
        <time>2021-04-10T08:39:57Z</time>
      </trkpt>
      <trkpt lat="45.1952" lon="5.8831">
        <ele>894</ele>
        <time>2021-04-10T08:39:58Z</time>
      </trkpt>
      <trkpt lat="45.19519" lon="5.8831">
        <ele>893.6</ele>
        <time>2021-04-10T08:39:59Z</time>
      </trkpt>
      <trkpt lat="45.19517" lon="5.88309">
        <ele>893.6</ele>
        <time>2021-04-10T08:40:00Z</time>
      </trkpt>
      <trkpt lat="45.19516" lon="5.88308">
        <ele>892.6</ele>
        <time>2021-04-10T08:40:01Z</time>
      </trkpt>
      <trkpt lat="45.19515" lon="5.88307">
        <ele>892.4</ele>
        <time>2021-04-10T08:40:02Z</time>
      </trkpt>
      <trkpt lat="45.19515" lon="5.88307">
        <ele>892</ele>
        <time>2021-04-10T08:40:03Z</time>
      </trkpt>
      <trkpt lat="45.19515" lon="5.88307">
        <ele>891.4</ele>
        <time>2021-04-10T08:40:04Z</time>
      </trkpt>
      <trkpt lat="45.19512" lon="5.88306">
        <ele>891.2</ele>
        <time>2021-04-10T08:40:05Z</time>
      </trkpt>
      <trkpt lat="45.19512" lon="5.88306">
        <ele>890.8</ele>
        <time>2021-04-10T08:40:06Z</time>
      </trkpt>
      <trkpt lat="45.1951" lon="5.88305">
        <ele>890.6</ele>
        <time>2021-04-10T08:40:07Z</time>
      </trkpt>
      <trkpt lat="45.1951" lon="5.88305">
        <ele>890.2</ele>
        <time>2021-04-10T08:40:08Z</time>
      </trkpt>
      <trkpt lat="45.1951" lon="5.88305">
        <ele>890.6</ele>
        <time>2021-04-10T08:40:09Z</time>
      </trkpt>
      <trkpt lat="45.1951" lon="5.88305">
        <ele>890.4</ele>
        <time>2021-04-10T08:40:10Z</time>
      </trkpt>
      <trkpt lat="45.1951" lon="5.88305">
        <ele>890.2</ele>
        <time>2021-04-10T08:40:11Z</time>
      </trkpt>
      <trkpt lat="45.1951" lon="5.88305">
        <ele>890.2</ele>
        <time>2021-04-10T08:40:12Z</time>
      </trkpt>
      <trkpt lat="45.1951" lon="5.88305">
        <ele>890.2</ele>
        <time>2021-04-10T08:40:13Z</time>
      </trkpt>
      <trkpt lat="45.19507" lon="5.88304">
        <ele>890.2</ele>
        <time>2021-04-10T08:40:14Z</time>
      </trkpt>
      <trkpt lat="45.19507" lon="5.88304">
        <ele>890.4</ele>
        <time>2021-04-10T08:40:15Z</time>
      </trkpt>
      <trkpt lat="45.19507" lon="5.88304">
        <ele>890.4</ele>
        <time>2021-04-10T08:40:16Z</time>
      </trkpt>
      <trkpt lat="45.19507" lon="5.88304">
        <ele>890.2</ele>
        <time>2021-04-10T08:40:17Z</time>
      </trkpt>
      <trkpt lat="45.19507" lon="5.88304">
        <ele>890.2</ele>
        <time>2021-04-10T08:40:18Z</time>
      </trkpt>
      <trkpt lat="45.19507" lon="5.88304">
        <ele>890.2</ele>
        <time>2021-04-10T08:40:19Z</time>
      </trkpt>
      <trkpt lat="45.19505" lon="5.88303">
        <ele>890.4</ele>
        <time>2021-04-10T08:40:20Z</time>
      </trkpt>
      <trkpt lat="45.19505" lon="5.88303">
        <ele>890.2</ele>
        <time>2021-04-10T08:40:21Z</time>
      </trkpt>
      <trkpt lat="45.19505" lon="5.88303">
        <ele>890.2</ele>
        <time>2021-04-10T08:40:22Z</time>
      </trkpt>
      <trkpt lat="45.19505" lon="5.88303">
        <ele>890.4</ele>
        <time>2021-04-10T08:40:23Z</time>
      </trkpt>
      <trkpt lat="45.19505" lon="5.88303">
        <ele>890.4</ele>
        <time>2021-04-10T08:40:24Z</time>
      </trkpt>
      <trkpt lat="45.19505" lon="5.88303">
        <ele>890.4</ele>
        <time>2021-04-10T08:40:25Z</time>
      </trkpt>
      <trkpt lat="45.19502" lon="5.88303">
        <ele>890.6</ele>
        <time>2021-04-10T08:40:27Z</time>
      </trkpt>
      <trkpt lat="45.19502" lon="5.88303">
        <ele>890.6</ele>
        <time>2021-04-10T08:40:28Z</time>
      </trkpt>
      <trkpt lat="45.19502" lon="5.88303">
        <ele>890.8</ele>
        <time>2021-04-10T08:40:29Z</time>
      </trkpt>
      <trkpt lat="45.19502" lon="5.88303">
        <ele>890.8</ele>
        <time>2021-04-10T08:40:30Z</time>
      </trkpt>
      <trkpt lat="45.195" lon="5.88302">
        <ele>890.8</ele>
        <time>2021-04-10T08:40:31Z</time>
      </trkpt>
      <trkpt lat="45.19498" lon="5.88302">
        <ele>890.8</ele>
        <time>2021-04-10T08:40:32Z</time>
      </trkpt>
      <trkpt lat="45.19496" lon="5.88301">
        <ele>890.8</ele>
        <time>2021-04-10T08:40:33Z</time>
      </trkpt>
      <trkpt lat="45.19495" lon="5.88301">
        <ele>890.8</ele>
        <time>2021-04-10T08:40:34Z</time>
      </trkpt>
      <trkpt lat="45.19493" lon="5.88301">
        <ele>890.6</ele>
        <time>2021-04-10T08:40:35Z</time>
      </trkpt>
      <trkpt lat="45.19492" lon="5.88301">
        <ele>890.6</ele>
        <time>2021-04-10T08:40:36Z</time>
      </trkpt>
      <trkpt lat="45.19491" lon="5.88302">
        <ele>890.6</ele>
        <time>2021-04-10T08:40:37Z</time>
      </trkpt>
      <trkpt lat="45.1949" lon="5.88302">
        <ele>890.6</ele>
        <time>2021-04-10T08:40:38Z</time>
      </trkpt>
      <trkpt lat="45.19489" lon="5.88303">
        <ele>890.8</ele>
        <time>2021-04-10T08:40:39Z</time>
      </trkpt>
      <trkpt lat="45.19488" lon="5.88304">
        <ele>890.8</ele>
        <time>2021-04-10T08:40:40Z</time>
      </trkpt>
      <trkpt lat="45.19487" lon="5.88304">
        <ele>890.8</ele>
        <time>2021-04-10T08:40:41Z</time>
      </trkpt>
      <trkpt lat="45.19486" lon="5.88305">
        <ele>890.8</ele>
        <time>2021-04-10T08:40:42Z</time>
      </trkpt>
      <trkpt lat="45.19485" lon="5.88305">
        <ele>890.8</ele>
        <time>2021-04-10T08:40:43Z</time>
      </trkpt>
      <trkpt lat="45.19484" lon="5.88306">
        <ele>890.8</ele>
        <time>2021-04-10T08:40:44Z</time>
      </trkpt>
      <trkpt lat="45.19484" lon="5.88307">
        <ele>890.6</ele>
        <time>2021-04-10T08:40:45Z</time>
      </trkpt>
      <trkpt lat="45.19484" lon="5.88308">
        <ele>890.6</ele>
        <time>2021-04-10T08:40:46Z</time>
      </trkpt>
      <trkpt lat="45.19483" lon="5.88309">
        <ele>890.4</ele>
        <time>2021-04-10T08:40:47Z</time>
      </trkpt>
      <trkpt lat="45.19483" lon="5.8831">
        <ele>890.4</ele>
        <time>2021-04-10T08:40:48Z</time>
      </trkpt>
      <trkpt lat="45.19483" lon="5.88312">
        <ele>890.6</ele>
        <time>2021-04-10T08:40:49Z</time>
      </trkpt>
      <trkpt lat="45.19483" lon="5.88313">
        <ele>890.4</ele>
        <time>2021-04-10T08:40:50Z</time>
      </trkpt>
      <trkpt lat="45.19482" lon="5.88314">
        <ele>890.4</ele>
        <time>2021-04-10T08:40:51Z</time>
      </trkpt>
      <trkpt lat="45.19482" lon="5.88315">
        <ele>890.4</ele>
        <time>2021-04-10T08:40:52Z</time>
      </trkpt>
      <trkpt lat="45.19482" lon="5.88316">
        <ele>890.6</ele>
        <time>2021-04-10T08:40:53Z</time>
      </trkpt>
      <trkpt lat="45.19482" lon="5.88317">
        <ele>890.6</ele>
        <time>2021-04-10T08:40:54Z</time>
      </trkpt>
      <trkpt lat="45.19481" lon="5.88318">
        <ele>890.6</ele>
        <time>2021-04-10T08:40:55Z</time>
      </trkpt>
      <trkpt lat="45.19481" lon="5.88319">
        <ele>890.6</ele>
        <time>2021-04-10T08:40:56Z</time>
      </trkpt>
      <trkpt lat="45.19481" lon="5.8832">
        <ele>890.6</ele>
        <time>2021-04-10T08:40:57Z</time>
      </trkpt>
      <trkpt lat="45.19481" lon="5.8832">
        <ele>890.4</ele>
        <time>2021-04-10T08:40:58Z</time>
      </trkpt>
      <trkpt lat="45.1948" lon="5.8832">
        <ele>890.4</ele>
        <time>2021-04-10T08:40:59Z</time>
      </trkpt>
      <trkpt lat="45.1948" lon="5.88321">
        <ele>890.4</ele>
        <time>2021-04-10T08:41:00Z</time>
      </trkpt>
      <trkpt lat="45.1948" lon="5.88321">
        <ele>890.4</ele>
        <time>2021-04-10T08:41:01Z</time>
      </trkpt>
      <trkpt lat="45.1948" lon="5.88321">
        <ele>890.4</ele>
        <time>2021-04-10T08:41:02Z</time>
      </trkpt>
      <trkpt lat="45.1948" lon="5.88321">
        <ele>890.4</ele>
        <time>2021-04-10T08:41:03Z</time>
      </trkpt>
      <trkpt lat="45.1948" lon="5.88321">
        <ele>890.6</ele>
        <time>2021-04-10T08:41:04Z</time>
      </trkpt>
      <trkpt lat="45.19479" lon="5.88321">
        <ele>890.6</ele>
        <time>2021-04-10T08:41:05Z</time>
      </trkpt>
      <trkpt lat="45.19479" lon="5.88321">
        <ele>890.6</ele>
        <time>2021-04-10T08:41:06Z</time>
      </trkpt>
      <trkpt lat="45.19479" lon="5.88321">
        <ele>890.6</ele>
        <time>2021-04-10T08:41:07Z</time>
      </trkpt>
      <trkpt lat="45.19479" lon="5.88321">
        <ele>890.4</ele>
        <time>2021-04-10T08:41:08Z</time>
      </trkpt>
      <trkpt lat="45.19479" lon="5.88321">
        <ele>890.4</ele>
        <time>2021-04-10T08:41:09Z</time>
      </trkpt>
      <trkpt lat="45.19479" lon="5.88321">
        <ele>890.6</ele>
        <time>2021-04-10T08:41:10Z</time>
      </trkpt>
      <trkpt lat="45.19478" lon="5.88321">
        <ele>890.6</ele>
        <time>2021-04-10T08:41:11Z</time>
      </trkpt>
      <trkpt lat="45.19478" lon="5.88322">
        <ele>890.6</ele>
        <time>2021-04-10T08:41:12Z</time>
      </trkpt>
      <trkpt lat="45.19478" lon="5.88322">
        <ele>890.6</ele>
        <time>2021-04-10T08:41:13Z</time>
      </trkpt>
      <trkpt lat="45.19478" lon="5.88322">
        <ele>890.6</ele>
        <time>2021-04-10T08:41:14Z</time>
      </trkpt>
      <trkpt lat="45.19478" lon="5.88322">
        <ele>890.6</ele>
        <time>2021-04-10T08:41:15Z</time>
      </trkpt>
      <trkpt lat="45.19478" lon="5.88322">
        <ele>890.6</ele>
        <time>2021-04-10T08:41:16Z</time>
      </trkpt>
      <trkpt lat="45.19477" lon="5.88322">
        <ele>890.6</ele>
        <time>2021-04-10T08:41:17Z</time>
      </trkpt>
      <trkpt lat="45.19477" lon="5.88322">
        <ele>890.6</ele>
        <time>2021-04-10T08:41:18Z</time>
      </trkpt>
      <trkpt lat="45.19477" lon="5.88322">
        <ele>890.6</ele>
        <time>2021-04-10T08:41:19Z</time>
      </trkpt>
      <trkpt lat="45.19477" lon="5.88322">
        <ele>890.6</ele>
        <time>2021-04-10T08:41:20Z</time>
      </trkpt>
      <trkpt lat="45.19477" lon="5.88322">
        <ele>890.8</ele>
        <time>2021-04-10T08:41:21Z</time>
      </trkpt>
      <trkpt lat="45.19477" lon="5.88322">
        <ele>890.6</ele>
        <time>2021-04-10T08:41:22Z</time>
      </trkpt>
      <trkpt lat="45.19476" lon="5.88322">
        <ele>890.6</ele>
        <time>2021-04-10T08:41:23Z</time>
      </trkpt>
      <trkpt lat="45.19476" lon="5.88323">
        <ele>890.8</ele>
        <time>2021-04-10T08:41:24Z</time>
      </trkpt>
      <trkpt lat="45.19476" lon="5.88323">
        <ele>890.8</ele>
        <time>2021-04-10T08:41:25Z</time>
      </trkpt>
      <trkpt lat="45.19476" lon="5.88323">
        <ele>890.6</ele>
        <time>2021-04-10T08:41:26Z</time>
      </trkpt>
      <trkpt lat="45.19476" lon="5.88323">
        <ele>890.6</ele>
        <time>2021-04-10T08:41:27Z</time>
      </trkpt>
      <trkpt lat="45.19476" lon="5.88323">
        <ele>890.6</ele>
        <time>2021-04-10T08:41:28Z</time>
      </trkpt>
      <trkpt lat="45.19476" lon="5.88323">
        <ele>890.6</ele>
        <time>2021-04-10T08:41:29Z</time>
      </trkpt>
      <trkpt lat="45.19476" lon="5.88323">
        <ele>890.8</ele>
        <time>2021-04-10T08:41:30Z</time>
      </trkpt>
      <trkpt lat="45.19476" lon="5.88323">
        <ele>890.8</ele>
        <time>2021-04-10T08:41:31Z</time>
      </trkpt>
      <trkpt lat="45.19476" lon="5.88323">
        <ele>890.8</ele>
        <time>2021-04-10T08:41:32Z</time>
      </trkpt>
      <trkpt lat="45.19474" lon="5.88323">
        <ele>890.8</ele>
        <time>2021-04-10T08:41:33Z</time>
      </trkpt>
      <trkpt lat="45.19474" lon="5.88323">
        <ele>890.8</ele>
        <time>2021-04-10T08:41:34Z</time>
      </trkpt>
      <trkpt lat="45.19474" lon="5.88323">
        <ele>890.8</ele>
        <time>2021-04-10T08:41:35Z</time>
      </trkpt>
      <trkpt lat="45.19474" lon="5.88323">
        <ele>890.8</ele>
        <time>2021-04-10T08:41:36Z</time>
      </trkpt>
      <trkpt lat="45.19475" lon="5.88322">
        <ele>890.8</ele>
        <time>2021-04-10T08:41:37Z</time>
      </trkpt>
      <trkpt lat="45.19475" lon="5.88321">
        <ele>890.8</ele>
        <time>2021-04-10T08:41:38Z</time>
      </trkpt>
      <trkpt lat="45.19475" lon="5.88319">
        <ele>890.8</ele>
        <time>2021-04-10T08:41:39Z</time>
      </trkpt>
      <trkpt lat="45.19476" lon="5.88318">
        <ele>891</ele>
        <time>2021-04-10T08:41:40Z</time>
      </trkpt>
      <trkpt lat="45.19476" lon="5.88317">
        <ele>891</ele>
        <time>2021-04-10T08:41:41Z</time>
      </trkpt>
      <trkpt lat="45.19476" lon="5.88315">
        <ele>891</ele>
        <time>2021-04-10T08:41:42Z</time>
      </trkpt>
      <trkpt lat="45.19477" lon="5.88314">
        <ele>891</ele>
        <time>2021-04-10T08:41:43Z</time>
      </trkpt>
      <trkpt lat="45.19477" lon="5.88313">
        <ele>891</ele>
        <time>2021-04-10T08:41:44Z</time>
      </trkpt>
      <trkpt lat="45.19477" lon="5.88311">
        <ele>891</ele>
        <time>2021-04-10T08:41:45Z</time>
      </trkpt>
      <trkpt lat="45.19478" lon="5.8831">
        <ele>890.8</ele>
        <time>2021-04-10T08:41:46Z</time>
      </trkpt>
      <trkpt lat="45.19477" lon="5.88309">
        <ele>890.8</ele>
        <time>2021-04-10T08:41:47Z</time>
      </trkpt>
      <trkpt lat="45.19477" lon="5.88308">
        <ele>890.8</ele>
        <time>2021-04-10T08:41:48Z</time>
      </trkpt>
      <trkpt lat="45.19476" lon="5.88307">
        <ele>890.8</ele>
        <time>2021-04-10T08:41:49Z</time>
      </trkpt>
      <trkpt lat="45.19476" lon="5.88306">
        <ele>890.8</ele>
        <time>2021-04-10T08:41:50Z</time>
      </trkpt>
      <trkpt lat="45.19475" lon="5.88305">
        <ele>890.8</ele>
        <time>2021-04-10T08:41:51Z</time>
      </trkpt>
      <trkpt lat="45.19475" lon="5.88304">
        <ele>891</ele>
        <time>2021-04-10T08:41:52Z</time>
      </trkpt>
      <trkpt lat="45.19475" lon="5.88303">
        <ele>890.8</ele>
        <time>2021-04-10T08:41:53Z</time>
      </trkpt>
      <trkpt lat="45.19474" lon="5.88301">
        <ele>890.8</ele>
        <time>2021-04-10T08:41:54Z</time>
      </trkpt>
      <trkpt lat="45.19474" lon="5.883">
        <ele>890.8</ele>
        <time>2021-04-10T08:41:55Z</time>
      </trkpt>
      <trkpt lat="45.19473" lon="5.88299">
        <ele>891</ele>
        <time>2021-04-10T08:41:56Z</time>
      </trkpt>
      <trkpt lat="45.19473" lon="5.88298">
        <ele>891</ele>
        <time>2021-04-10T08:41:57Z</time>
      </trkpt>
      <trkpt lat="45.19472" lon="5.88297">
        <ele>891</ele>
        <time>2021-04-10T08:41:58Z</time>
      </trkpt>
      <trkpt lat="45.19472" lon="5.88296">
        <ele>891</ele>
        <time>2021-04-10T08:41:59Z</time>
      </trkpt>
      <trkpt lat="45.19472" lon="5.88295">
        <ele>890.8</ele>
        <time>2021-04-10T08:42:00Z</time>
      </trkpt>
      <trkpt lat="45.19471" lon="5.88294">
        <ele>890.6</ele>
        <time>2021-04-10T08:42:01Z</time>
      </trkpt>
      <trkpt lat="45.19471" lon="5.88293">
        <ele>890.2</ele>
        <time>2021-04-10T08:42:02Z</time>
      </trkpt>
      <trkpt lat="45.1947" lon="5.88292">
        <ele>890.2</ele>
        <time>2021-04-10T08:42:03Z</time>
      </trkpt>
      <trkpt lat="45.1947" lon="5.88292">
        <ele>889.6</ele>
        <time>2021-04-10T08:42:04Z</time>
      </trkpt>
      <trkpt lat="45.1947" lon="5.88292">
        <ele>889.4</ele>
        <time>2021-04-10T08:42:05Z</time>
      </trkpt>
      <trkpt lat="45.1947" lon="5.88292">
        <ele>889.4</ele>
        <time>2021-04-10T08:42:06Z</time>
      </trkpt>
      <trkpt lat="45.19469" lon="5.8829">
        <ele>889</ele>
        <time>2021-04-10T08:42:07Z</time>
      </trkpt>
      <trkpt lat="45.19468" lon="5.88288">
        <ele>888.8</ele>
        <time>2021-04-10T08:42:08Z</time>
      </trkpt>
      <trkpt lat="45.19467" lon="5.88285">
        <ele>888.6</ele>
        <time>2021-04-10T08:42:09Z</time>
      </trkpt>
      <trkpt lat="45.19466" lon="5.88283">
        <ele>888.6</ele>
        <time>2021-04-10T08:42:10Z</time>
      </trkpt>
      <trkpt lat="45.19465" lon="5.88281">
        <ele>888.2</ele>
        <time>2021-04-10T08:42:11Z</time>
      </trkpt>
      <trkpt lat="45.19465" lon="5.88278">
        <ele>888.2</ele>
        <time>2021-04-10T08:42:12Z</time>
      </trkpt>
      <trkpt lat="45.19466" lon="5.88275">
        <ele>888</ele>
        <time>2021-04-10T08:42:13Z</time>
      </trkpt>
      <trkpt lat="45.19466" lon="5.88272">
        <ele>887.8</ele>
        <time>2021-04-10T08:42:14Z</time>
      </trkpt>
      <trkpt lat="45.19466" lon="5.88269">
        <ele>887.6</ele>
        <time>2021-04-10T08:42:15Z</time>
      </trkpt>
      <trkpt lat="45.19466" lon="5.88267">
        <ele>887.6</ele>
        <time>2021-04-10T08:42:16Z</time>
      </trkpt>
      <trkpt lat="45.19466" lon="5.88265">
        <ele>887.6</ele>
        <time>2021-04-10T08:42:17Z</time>
      </trkpt>
      <trkpt lat="45.19466" lon="5.88264">
        <ele>887.8</ele>
        <time>2021-04-10T08:42:18Z</time>
      </trkpt>
      <trkpt lat="45.19467" lon="5.88263">
        <ele>888</ele>
        <time>2021-04-10T08:42:19Z</time>
      </trkpt>
      <trkpt lat="45.19467" lon="5.88261">
        <ele>888</ele>
        <time>2021-04-10T08:42:20Z</time>
      </trkpt>
      <trkpt lat="45.19467" lon="5.8826">
        <ele>888.2</ele>
        <time>2021-04-10T08:42:21Z</time>
      </trkpt>
      <trkpt lat="45.19467" lon="5.88259">
        <ele>888.2</ele>
        <time>2021-04-10T08:42:22Z</time>
      </trkpt>
      <trkpt lat="45.19467" lon="5.88259">
        <ele>888.2</ele>
        <time>2021-04-10T08:42:23Z</time>
      </trkpt>
      <trkpt lat="45.19467" lon="5.88259">
        <ele>888</ele>
        <time>2021-04-10T08:42:24Z</time>
      </trkpt>
      <trkpt lat="45.19467" lon="5.88259">
        <ele>888.2</ele>
        <time>2021-04-10T08:42:25Z</time>
      </trkpt>
      <trkpt lat="45.19467" lon="5.88259">
        <ele>888.2</ele>
        <time>2021-04-10T08:42:26Z</time>
      </trkpt>
      <trkpt lat="45.19467" lon="5.88259">
        <ele>888.2</ele>
        <time>2021-04-10T08:42:27Z</time>
      </trkpt>
      <trkpt lat="45.19468" lon="5.88256">
        <ele>888.2</ele>
        <time>2021-04-10T08:42:28Z</time>
      </trkpt>
      <trkpt lat="45.19468" lon="5.88256">
        <ele>888.2</ele>
        <time>2021-04-10T08:42:29Z</time>
      </trkpt>
      <trkpt lat="45.19468" lon="5.88256">
        <ele>888.2</ele>
        <time>2021-04-10T08:42:30Z</time>
      </trkpt>
      <trkpt lat="45.19468" lon="5.88256">
        <ele>888.4</ele>
        <time>2021-04-10T08:42:31Z</time>
      </trkpt>
      <trkpt lat="45.19468" lon="5.88256">
        <ele>888.4</ele>
        <time>2021-04-10T08:42:32Z</time>
      </trkpt>
      <trkpt lat="45.19468" lon="5.88256">
        <ele>888.2</ele>
        <time>2021-04-10T08:42:33Z</time>
      </trkpt>
      <trkpt lat="45.1947" lon="5.88254">
        <ele>888.2</ele>
        <time>2021-04-10T08:42:34Z</time>
      </trkpt>
      <trkpt lat="45.1947" lon="5.88254">
        <ele>888.2</ele>
        <time>2021-04-10T08:42:35Z</time>
      </trkpt>
      <trkpt lat="45.1947" lon="5.88254">
        <ele>888.2</ele>
        <time>2021-04-10T08:42:36Z</time>
      </trkpt>
      <trkpt lat="45.1947" lon="5.88254">
        <ele>888.2</ele>
        <time>2021-04-10T08:42:37Z</time>
      </trkpt>
      <trkpt lat="45.1947" lon="5.88257">
        <ele>888</ele>
        <time>2021-04-10T08:42:38Z</time>
      </trkpt>
      <trkpt lat="45.1947" lon="5.88259">
        <ele>888.2</ele>
        <time>2021-04-10T08:42:39Z</time>
      </trkpt>
      <trkpt lat="45.19471" lon="5.88262">
        <ele>888.2</ele>
        <time>2021-04-10T08:42:40Z</time>
      </trkpt>
      <trkpt lat="45.19471" lon="5.88264">
        <ele>888.2</ele>
        <time>2021-04-10T08:42:41Z</time>
      </trkpt>
      <trkpt lat="45.19472" lon="5.88267">
        <ele>888.2</ele>
        <time>2021-04-10T08:42:42Z</time>
      </trkpt>
      <trkpt lat="45.19472" lon="5.88269">
        <ele>888.4</ele>
        <time>2021-04-10T08:42:43Z</time>
      </trkpt>
      <trkpt lat="45.19472" lon="5.88272">
        <ele>888.4</ele>
        <time>2021-04-10T08:42:44Z</time>
      </trkpt>
      <trkpt lat="45.19474" lon="5.88286">
        <ele>888.6</ele>
        <time>2021-04-10T08:42:45Z</time>
      </trkpt>
      <trkpt lat="45.19475" lon="5.88289">
        <ele>888.2</ele>
        <time>2021-04-10T08:42:46Z</time>
      </trkpt>
      <trkpt lat="45.19475" lon="5.88291">
        <ele>888.2</ele>
        <time>2021-04-10T08:42:47Z</time>
      </trkpt>
      <trkpt lat="45.19476" lon="5.88294">
        <ele>887.8</ele>
        <time>2021-04-10T08:42:48Z</time>
      </trkpt>
      <trkpt lat="45.19476" lon="5.88296">
        <ele>887.8</ele>
        <time>2021-04-10T08:42:49Z</time>
      </trkpt>
      <trkpt lat="45.19477" lon="5.88299">
        <ele>887.6</ele>
        <time>2021-04-10T08:42:50Z</time>
      </trkpt>
      <trkpt lat="45.19477" lon="5.88299">
        <ele>887.4</ele>
        <time>2021-04-10T08:42:51Z</time>
      </trkpt>
      <trkpt lat="45.19477" lon="5.88299">
        <ele>887.6</ele>
        <time>2021-04-10T08:42:52Z</time>
      </trkpt>
      <trkpt lat="45.19477" lon="5.88299">
        <ele>887.6</ele>
        <time>2021-04-10T08:42:53Z</time>
      </trkpt>
      <trkpt lat="45.19477" lon="5.88301">
        <ele>888.2</ele>
        <time>2021-04-10T08:42:54Z</time>
      </trkpt>
      <trkpt lat="45.19478" lon="5.88304">
        <ele>888.4</ele>
        <time>2021-04-10T08:42:55Z</time>
      </trkpt>
      <trkpt lat="45.19478" lon="5.88306">
        <ele>889</ele>
        <time>2021-04-10T08:42:56Z</time>
      </trkpt>
      <trkpt lat="45.19479" lon="5.88308">
        <ele>889</ele>
        <time>2021-04-10T08:42:57Z</time>
      </trkpt>
      <trkpt lat="45.19479" lon="5.88311">
        <ele>889.4</ele>
        <time>2021-04-10T08:42:58Z</time>
      </trkpt>
      <trkpt lat="45.1948" lon="5.88313">
        <ele>889.4</ele>
        <time>2021-04-10T08:42:59Z</time>
      </trkpt>
      <trkpt lat="45.1948" lon="5.88316">
        <ele>889.8</ele>
        <time>2021-04-10T08:43:00Z</time>
      </trkpt>
      <trkpt lat="45.19481" lon="5.88318">
        <ele>890.2</ele>
        <time>2021-04-10T08:43:01Z</time>
      </trkpt>
      <trkpt lat="45.19481" lon="5.88321">
        <ele>890.6</ele>
        <time>2021-04-10T08:43:02Z</time>
      </trkpt>
      <trkpt lat="45.19482" lon="5.88323">
        <ele>891</ele>
        <time>2021-04-10T08:43:03Z</time>
      </trkpt>
      <trkpt lat="45.19482" lon="5.88326">
        <ele>891.2</ele>
        <time>2021-04-10T08:43:04Z</time>
      </trkpt>
      <trkpt lat="45.19483" lon="5.88328">
        <ele>891.8</ele>
        <time>2021-04-10T08:43:05Z</time>
      </trkpt>
      <trkpt lat="45.19483" lon="5.88331">
        <ele>891.6</ele>
        <time>2021-04-10T08:43:06Z</time>
      </trkpt>
      <trkpt lat="45.19483" lon="5.88334">
        <ele>891.8</ele>
        <time>2021-04-10T08:43:07Z</time>
      </trkpt>
      <trkpt lat="45.19483" lon="5.88337">
        <ele>891.6</ele>
        <time>2021-04-10T08:43:08Z</time>
      </trkpt>
      <trkpt lat="45.19483" lon="5.88339">
        <ele>891.8</ele>
        <time>2021-04-10T08:43:09Z</time>
      </trkpt>
      <trkpt lat="45.19483" lon="5.88342">
        <ele>891.6</ele>
        <time>2021-04-10T08:43:10Z</time>
      </trkpt>
      <trkpt lat="45.19484" lon="5.88359">
        <ele>891.4</ele>
        <time>2021-04-10T08:43:11Z</time>
      </trkpt>
      <trkpt lat="45.19485" lon="5.88364">
        <ele>891</ele>
        <time>2021-04-10T08:43:12Z</time>
      </trkpt>
      <trkpt lat="45.19485" lon="5.88367">
        <ele>891</ele>
        <time>2021-04-10T08:43:13Z</time>
      </trkpt>
      <trkpt lat="45.19486" lon="5.88371">
        <ele>890.6</ele>
        <time>2021-04-10T08:43:14Z</time>
      </trkpt>
      <trkpt lat="45.19486" lon="5.88374">
        <ele>890.6</ele>
        <time>2021-04-10T08:43:15Z</time>
      </trkpt>
      <trkpt lat="45.19487" lon="5.88377">
        <ele>890.4</ele>
        <time>2021-04-10T08:43:16Z</time>
      </trkpt>
      <trkpt lat="45.19488" lon="5.8838">
        <ele>890.4</ele>
        <time>2021-04-10T08:43:17Z</time>
      </trkpt>
      <trkpt lat="45.19489" lon="5.88383">
        <ele>890.6</ele>
        <time>2021-04-10T08:43:18Z</time>
      </trkpt>
      <trkpt lat="45.19489" lon="5.88386">
        <ele>890.6</ele>
        <time>2021-04-10T08:43:19Z</time>
      </trkpt>
      <trkpt lat="45.19489" lon="5.8839">
        <ele>891</ele>
        <time>2021-04-10T08:43:20Z</time>
      </trkpt>
      <trkpt lat="45.19489" lon="5.88393">
        <ele>890.8</ele>
        <time>2021-04-10T08:43:21Z</time>
      </trkpt>
      <trkpt lat="45.19489" lon="5.88396">
        <ele>891</ele>
        <time>2021-04-10T08:43:22Z</time>
      </trkpt>
      <trkpt lat="45.1949" lon="5.88401">
        <ele>890.8</ele>
        <time>2021-04-10T08:43:23Z</time>
      </trkpt>
      <trkpt lat="45.1949" lon="5.88405">
        <ele>890.8</ele>
        <time>2021-04-10T08:43:24Z</time>
      </trkpt>
      <trkpt lat="45.1949" lon="5.8841">
        <ele>890.8</ele>
        <time>2021-04-10T08:43:25Z</time>
      </trkpt>
      <trkpt lat="45.19491" lon="5.88413">
        <ele>890.8</ele>
        <time>2021-04-10T08:43:26Z</time>
      </trkpt>
      <trkpt lat="45.19491" lon="5.88415">
        <ele>890.8</ele>
        <time>2021-04-10T08:43:27Z</time>
      </trkpt>
      <trkpt lat="45.19491" lon="5.88418">
        <ele>890.8</ele>
        <time>2021-04-10T08:43:28Z</time>
      </trkpt>
      <trkpt lat="45.19492" lon="5.8842">
        <ele>890.6</ele>
        <time>2021-04-10T08:43:29Z</time>
      </trkpt>
      <trkpt lat="45.19492" lon="5.88423">
        <ele>890.4</ele>
        <time>2021-04-10T08:43:30Z</time>
      </trkpt>
      <trkpt lat="45.19492" lon="5.88423">
        <ele>890.4</ele>
        <time>2021-04-10T08:43:31Z</time>
      </trkpt>
      <trkpt lat="45.19492" lon="5.88423">
        <ele>890.6</ele>
        <time>2021-04-10T08:43:32Z</time>
      </trkpt>
      <trkpt lat="45.19492" lon="5.88423">
        <ele>890.6</ele>
        <time>2021-04-10T08:43:33Z</time>
      </trkpt>
      <trkpt lat="45.19493" lon="5.88426">
        <ele>890.4</ele>
        <time>2021-04-10T08:43:34Z</time>
      </trkpt>
      <trkpt lat="45.19493" lon="5.88429">
        <ele>890.4</ele>
        <time>2021-04-10T08:43:35Z</time>
      </trkpt>
      <trkpt lat="45.19494" lon="5.88431">
        <ele>890.4</ele>
        <time>2021-04-10T08:43:36Z</time>
      </trkpt>
      <trkpt lat="45.19494" lon="5.88434">
        <ele>890.2</ele>
        <time>2021-04-10T08:43:37Z</time>
      </trkpt>
      <trkpt lat="45.19495" lon="5.88437">
        <ele>890</ele>
        <time>2021-04-10T08:43:38Z</time>
      </trkpt>
      <trkpt lat="45.19495" lon="5.8844">
        <ele>889.8</ele>
        <time>2021-04-10T08:43:39Z</time>
      </trkpt>
      <trkpt lat="45.19495" lon="5.88443">
        <ele>889.8</ele>
        <time>2021-04-10T08:43:40Z</time>
      </trkpt>
      <trkpt lat="45.19496" lon="5.88446">
        <ele>890</ele>
        <time>2021-04-10T08:43:41Z</time>
      </trkpt>
      <trkpt lat="45.19496" lon="5.88449">
        <ele>889.8</ele>
        <time>2021-04-10T08:43:42Z</time>
      </trkpt>
      <trkpt lat="45.19497" lon="5.88451">
        <ele>890</ele>
        <time>2021-04-10T08:43:43Z</time>
      </trkpt>
      <trkpt lat="45.19498" lon="5.88453">
        <ele>890.2</ele>
        <time>2021-04-10T08:43:44Z</time>
      </trkpt>
      <trkpt lat="45.19498" lon="5.88455">
        <ele>890.4</ele>
        <time>2021-04-10T08:43:45Z</time>
      </trkpt>
      <trkpt lat="45.19499" lon="5.88457">
        <ele>890.6</ele>
        <time>2021-04-10T08:43:46Z</time>
      </trkpt>
      <trkpt lat="45.195" lon="5.8846">
        <ele>890.8</ele>
        <time>2021-04-10T08:43:47Z</time>
      </trkpt>
      <trkpt lat="45.19501" lon="5.88462">
        <ele>891</ele>
        <time>2021-04-10T08:43:48Z</time>
      </trkpt>
      <trkpt lat="45.19502" lon="5.88464">
        <ele>891.2</ele>
        <time>2021-04-10T08:43:49Z</time>
      </trkpt>
      <trkpt lat="45.19508" lon="5.88477">
        <ele>891.4</ele>
        <time>2021-04-10T08:43:50Z</time>
      </trkpt>
      <trkpt lat="45.19509" lon="5.88478">
        <ele>891.6</ele>
        <time>2021-04-10T08:43:51Z</time>
      </trkpt>
      <trkpt lat="45.19509" lon="5.88478">
        <ele>891.6</ele>
        <time>2021-04-10T08:43:52Z</time>
      </trkpt>
      <trkpt lat="45.1951" lon="5.88479">
        <ele>891.8</ele>
        <time>2021-04-10T08:43:53Z</time>
      </trkpt>
      <trkpt lat="45.1951" lon="5.8848">
        <ele>892</ele>
        <time>2021-04-10T08:43:54Z</time>
      </trkpt>
      <trkpt lat="45.1951" lon="5.8848">
        <ele>892</ele>
        <time>2021-04-10T08:43:55Z</time>
      </trkpt>
      <trkpt lat="45.1951" lon="5.8848">
        <ele>892.4</ele>
        <time>2021-04-10T08:43:56Z</time>
      </trkpt>
      <trkpt lat="45.1951" lon="5.8848">
        <ele>892.6</ele>
        <time>2021-04-10T08:43:57Z</time>
      </trkpt>
      <trkpt lat="45.19511" lon="5.88482">
        <ele>892.8</ele>
        <time>2021-04-10T08:43:58Z</time>
      </trkpt>
      <trkpt lat="45.19512" lon="5.88483">
        <ele>892.8</ele>
        <time>2021-04-10T08:43:59Z</time>
      </trkpt>
      <trkpt lat="45.19513" lon="5.88484">
        <ele>893</ele>
        <time>2021-04-10T08:44:00Z</time>
      </trkpt>
      <trkpt lat="45.19514" lon="5.88485">
        <ele>893</ele>
        <time>2021-04-10T08:44:01Z</time>
      </trkpt>
      <trkpt lat="45.19515" lon="5.88487">
        <ele>893.2</ele>
        <time>2021-04-10T08:44:02Z</time>
      </trkpt>
      <trkpt lat="45.19516" lon="5.88488">
        <ele>893.2</ele>
        <time>2021-04-10T08:44:03Z</time>
      </trkpt>
      <trkpt lat="45.19517" lon="5.88489">
        <ele>893.4</ele>
        <time>2021-04-10T08:44:04Z</time>
      </trkpt>
      <trkpt lat="45.19518" lon="5.8849">
        <ele>893.6</ele>
        <time>2021-04-10T08:44:05Z</time>
      </trkpt>
      <trkpt lat="45.19519" lon="5.88491">
        <ele>893.6</ele>
        <time>2021-04-10T08:44:06Z</time>
      </trkpt>
      <trkpt lat="45.1952" lon="5.88492">
        <ele>893.8</ele>
        <time>2021-04-10T08:44:07Z</time>
      </trkpt>
      <trkpt lat="45.19521" lon="5.88493">
        <ele>894</ele>
        <time>2021-04-10T08:44:08Z</time>
      </trkpt>
      <trkpt lat="45.19522" lon="5.88494">
        <ele>894.2</ele>
        <time>2021-04-10T08:44:09Z</time>
      </trkpt>
      <trkpt lat="45.19523" lon="5.88495">
        <ele>894.4</ele>
        <time>2021-04-10T08:44:10Z</time>
      </trkpt>
      <trkpt lat="45.19524" lon="5.88496">
        <ele>894.6</ele>
        <time>2021-04-10T08:44:11Z</time>
      </trkpt>
      <trkpt lat="45.19525" lon="5.88497">
        <ele>895.2</ele>
        <time>2021-04-10T08:44:12Z</time>
      </trkpt>
      <trkpt lat="45.19526" lon="5.88498">
        <ele>895.4</ele>
        <time>2021-04-10T08:44:13Z</time>
      </trkpt>
      <trkpt lat="45.19527" lon="5.88498">
        <ele>895.6</ele>
        <time>2021-04-10T08:44:14Z</time>
      </trkpt>
      <trkpt lat="45.19527" lon="5.88499">
        <ele>895.8</ele>
        <time>2021-04-10T08:44:15Z</time>
      </trkpt>
      <trkpt lat="45.19528" lon="5.885">
        <ele>896</ele>
        <time>2021-04-10T08:44:16Z</time>
      </trkpt>
      <trkpt lat="45.19529" lon="5.885">
        <ele>896.2</ele>
        <time>2021-04-10T08:44:17Z</time>
      </trkpt>
      <trkpt lat="45.1953" lon="5.88501">
        <ele>896.4</ele>
        <time>2021-04-10T08:44:18Z</time>
      </trkpt>
      <trkpt lat="45.19531" lon="5.88502">
        <ele>896.6</ele>
        <time>2021-04-10T08:44:19Z</time>
      </trkpt>
      <trkpt lat="45.19532" lon="5.88503">
        <ele>896.8</ele>
        <time>2021-04-10T08:44:20Z</time>
      </trkpt>
      <trkpt lat="45.19533" lon="5.88503">
        <ele>897.2</ele>
        <time>2021-04-10T08:44:21Z</time>
      </trkpt>
      <trkpt lat="45.19535" lon="5.88505">
        <ele>897.6</ele>
        <time>2021-04-10T08:44:22Z</time>
      </trkpt>
      <trkpt lat="45.19537" lon="5.88507">
        <ele>897.8</ele>
        <time>2021-04-10T08:44:23Z</time>
      </trkpt>
      <trkpt lat="45.19539" lon="5.88509">
        <ele>898.2</ele>
        <time>2021-04-10T08:44:24Z</time>
      </trkpt>
      <trkpt lat="45.19542" lon="5.8851">
        <ele>898.4</ele>
        <time>2021-04-10T08:44:25Z</time>
      </trkpt>
      <trkpt lat="45.19544" lon="5.88512">
        <ele>898.6</ele>
        <time>2021-04-10T08:44:26Z</time>
      </trkpt>
      <trkpt lat="45.19546" lon="5.88514">
        <ele>898.6</ele>
        <time>2021-04-10T08:44:27Z</time>
      </trkpt>
      <trkpt lat="45.19548" lon="5.88516">
        <ele>898.6</ele>
        <time>2021-04-10T08:44:28Z</time>
      </trkpt>
      <trkpt lat="45.1955" lon="5.88518">
        <ele>898.8</ele>
        <time>2021-04-10T08:44:29Z</time>
      </trkpt>
      <trkpt lat="45.19556" lon="5.88522">
        <ele>898.8</ele>
        <time>2021-04-10T08:44:30Z</time>
      </trkpt>
      <trkpt lat="45.19556" lon="5.88522">
        <ele>898.8</ele>
        <time>2021-04-10T08:44:31Z</time>
      </trkpt>
      <trkpt lat="45.19556" lon="5.88522">
        <ele>899.2</ele>
        <time>2021-04-10T08:44:32Z</time>
      </trkpt>
      <trkpt lat="45.19558" lon="5.88524">
        <ele>899.2</ele>
        <time>2021-04-10T08:44:33Z</time>
      </trkpt>
      <trkpt lat="45.1956" lon="5.88526">
        <ele>899.4</ele>
        <time>2021-04-10T08:44:34Z</time>
      </trkpt>
      <trkpt lat="45.19563" lon="5.88528">
        <ele>899.6</ele>
        <time>2021-04-10T08:44:35Z</time>
      </trkpt>
      <trkpt lat="45.19565" lon="5.8853">
        <ele>899.8</ele>
        <time>2021-04-10T08:44:36Z</time>
      </trkpt>
      <trkpt lat="45.19568" lon="5.88532">
        <ele>899.8</ele>
        <time>2021-04-10T08:44:37Z</time>
      </trkpt>
      <trkpt lat="45.1957" lon="5.88534">
        <ele>900</ele>
        <time>2021-04-10T08:44:38Z</time>
      </trkpt>
      <trkpt lat="45.19572" lon="5.88535">
        <ele>900.4</ele>
        <time>2021-04-10T08:44:39Z</time>
      </trkpt>
      <trkpt lat="45.19575" lon="5.88537">
        <ele>900.6</ele>
        <time>2021-04-10T08:44:40Z</time>
      </trkpt>
      <trkpt lat="45.19579" lon="5.88542">
        <ele>900.6</ele>
        <time>2021-04-10T08:44:41Z</time>
      </trkpt>
      <trkpt lat="45.19579" lon="5.88542">
        <ele>900.8</ele>
        <time>2021-04-10T08:44:42Z</time>
      </trkpt>
      <trkpt lat="45.19579" lon="5.88542">
        <ele>901</ele>
        <time>2021-04-10T08:44:43Z</time>
      </trkpt>
      <trkpt lat="45.1958" lon="5.88544">
        <ele>901.2</ele>
        <time>2021-04-10T08:44:44Z</time>
      </trkpt>
      <trkpt lat="45.19581" lon="5.88546">
        <ele>901.4</ele>
        <time>2021-04-10T08:44:45Z</time>
      </trkpt>
      <trkpt lat="45.19581" lon="5.88547">
        <ele>901.6</ele>
        <time>2021-04-10T08:44:46Z</time>
      </trkpt>
      <trkpt lat="45.19582" lon="5.88549">
        <ele>901.6</ele>
        <time>2021-04-10T08:44:47Z</time>
      </trkpt>
      <trkpt lat="45.19583" lon="5.88551">
        <ele>901.8</ele>
        <time>2021-04-10T08:44:48Z</time>
      </trkpt>
      <trkpt lat="45.19584" lon="5.88553">
        <ele>902</ele>
        <time>2021-04-10T08:44:49Z</time>
      </trkpt>
      <trkpt lat="45.19584" lon="5.88554">
        <ele>902</ele>
        <time>2021-04-10T08:44:50Z</time>
      </trkpt>
      <trkpt lat="45.19585" lon="5.88555">
        <ele>902</ele>
        <time>2021-04-10T08:44:51Z</time>
      </trkpt>
      <trkpt lat="45.19586" lon="5.88556">
        <ele>902.4</ele>
        <time>2021-04-10T08:44:52Z</time>
      </trkpt>
      <trkpt lat="45.19587" lon="5.88557">
        <ele>902.6</ele>
        <time>2021-04-10T08:44:53Z</time>
      </trkpt>
      <trkpt lat="45.19587" lon="5.88558">
        <ele>902.6</ele>
        <time>2021-04-10T08:44:54Z</time>
      </trkpt>
      <trkpt lat="45.19588" lon="5.88559">
        <ele>902.8</ele>
        <time>2021-04-10T08:44:55Z</time>
      </trkpt>
      <trkpt lat="45.19589" lon="5.8856">
        <ele>903</ele>
        <time>2021-04-10T08:44:56Z</time>
      </trkpt>
      <trkpt lat="45.1959" lon="5.88561">
        <ele>903</ele>
        <time>2021-04-10T08:44:57Z</time>
      </trkpt>
      <trkpt lat="45.1959" lon="5.88562">
        <ele>903.4</ele>
        <time>2021-04-10T08:44:58Z</time>
      </trkpt>
      <trkpt lat="45.19591" lon="5.88562">
        <ele>903.6</ele>
        <time>2021-04-10T08:44:59Z</time>
      </trkpt>
      <trkpt lat="45.19592" lon="5.88561">
        <ele>903.8</ele>
        <time>2021-04-10T08:45:00Z</time>
      </trkpt>
      <trkpt lat="45.19593" lon="5.88561">
        <ele>904.2</ele>
        <time>2021-04-10T08:45:01Z</time>
      </trkpt>
      <trkpt lat="45.19594" lon="5.88561">
        <ele>904.6</ele>
        <time>2021-04-10T08:45:02Z</time>
      </trkpt>
      <trkpt lat="45.19595" lon="5.8856">
        <ele>905</ele>
        <time>2021-04-10T08:45:03Z</time>
      </trkpt>
      <trkpt lat="45.19595" lon="5.8856">
        <ele>905.4</ele>
        <time>2021-04-10T08:45:04Z</time>
      </trkpt>
      <trkpt lat="45.19596" lon="5.88559">
        <ele>905.8</ele>
        <time>2021-04-10T08:45:05Z</time>
      </trkpt>
      <trkpt lat="45.19597" lon="5.88559">
        <ele>906.2</ele>
        <time>2021-04-10T08:45:06Z</time>
      </trkpt>
      <trkpt lat="45.19598" lon="5.88559">
        <ele>906.6</ele>
        <time>2021-04-10T08:45:07Z</time>
      </trkpt>
      <trkpt lat="45.19599" lon="5.88558">
        <ele>906.8</ele>
        <time>2021-04-10T08:45:08Z</time>
      </trkpt>
      <trkpt lat="45.196" lon="5.88558">
        <ele>907</ele>
        <time>2021-04-10T08:45:09Z</time>
      </trkpt>
      <trkpt lat="45.19601" lon="5.88558">
        <ele>907.2</ele>
        <time>2021-04-10T08:45:10Z</time>
      </trkpt>
      <trkpt lat="45.19601" lon="5.88557">
        <ele>907.4</ele>
        <time>2021-04-10T08:45:11Z</time>
      </trkpt>
      <trkpt lat="45.19602" lon="5.88557">
        <ele>907.6</ele>
        <time>2021-04-10T08:45:12Z</time>
      </trkpt>
      <trkpt lat="45.19605" lon="5.88556">
        <ele>907.8</ele>
        <time>2021-04-10T08:45:13Z</time>
      </trkpt>
      <trkpt lat="45.19605" lon="5.88556">
        <ele>908</ele>
        <time>2021-04-10T08:45:14Z</time>
      </trkpt>
      <trkpt lat="45.19605" lon="5.88556">
        <ele>908</ele>
        <time>2021-04-10T08:45:15Z</time>
      </trkpt>
      <trkpt lat="45.19606" lon="5.88555">
        <ele>907.8</ele>
        <time>2021-04-10T08:45:16Z</time>
      </trkpt>
      <trkpt lat="45.19607" lon="5.88555">
        <ele>907.8</ele>
        <time>2021-04-10T08:45:17Z</time>
      </trkpt>
      <trkpt lat="45.19608" lon="5.88554">
        <ele>908</ele>
        <time>2021-04-10T08:45:18Z</time>
      </trkpt>
      <trkpt lat="45.19609" lon="5.88554">
        <ele>908.4</ele>
        <time>2021-04-10T08:45:19Z</time>
      </trkpt>
      <trkpt lat="45.19611" lon="5.88553">
        <ele>908.8</ele>
        <time>2021-04-10T08:45:20Z</time>
      </trkpt>
      <trkpt lat="45.19612" lon="5.88553">
        <ele>909</ele>
        <time>2021-04-10T08:45:21Z</time>
      </trkpt>
      <trkpt lat="45.19615" lon="5.88552">
        <ele>909</ele>
        <time>2021-04-10T08:45:22Z</time>
      </trkpt>
      <trkpt lat="45.19617" lon="5.88552">
        <ele>909</ele>
        <time>2021-04-10T08:45:23Z</time>
      </trkpt>
      <trkpt lat="45.1962" lon="5.88552">
        <ele>909</ele>
        <time>2021-04-10T08:45:24Z</time>
      </trkpt>
      <trkpt lat="45.19623" lon="5.88551">
        <ele>909.2</ele>
        <time>2021-04-10T08:45:25Z</time>
      </trkpt>
      <trkpt lat="45.19626" lon="5.88551">
        <ele>909.2</ele>
        <time>2021-04-10T08:45:26Z</time>
      </trkpt>
      <trkpt lat="45.19626" lon="5.88551">
        <ele>909.4</ele>
        <time>2021-04-10T08:45:27Z</time>
      </trkpt>
      <trkpt lat="45.19626" lon="5.88551">
        <ele>909.6</ele>
        <time>2021-04-10T08:45:28Z</time>
      </trkpt>
      <trkpt lat="45.19629" lon="5.88551">
        <ele>909.8</ele>
        <time>2021-04-10T08:45:29Z</time>
      </trkpt>
      <trkpt lat="45.19629" lon="5.88551">
        <ele>909.8</ele>
        <time>2021-04-10T08:45:30Z</time>
      </trkpt>
      <trkpt lat="45.19629" lon="5.88551">
        <ele>909.8</ele>
        <time>2021-04-10T08:45:31Z</time>
      </trkpt>
      <trkpt lat="45.19629" lon="5.88551">
        <ele>910</ele>
        <time>2021-04-10T08:45:32Z</time>
      </trkpt>
      <trkpt lat="45.1963" lon="5.88552">
        <ele>910</ele>
        <time>2021-04-10T08:45:33Z</time>
      </trkpt>
      <trkpt lat="45.19632" lon="5.88553">
        <ele>910.2</ele>
        <time>2021-04-10T08:45:34Z</time>
      </trkpt>
      <trkpt lat="45.19633" lon="5.88554">
        <ele>910.6</ele>
        <time>2021-04-10T08:45:35Z</time>
      </trkpt>
      <trkpt lat="45.19635" lon="5.88555">
        <ele>911</ele>
        <time>2021-04-10T08:45:36Z</time>
      </trkpt>
      <trkpt lat="45.19636" lon="5.88555">
        <ele>910.8</ele>
        <time>2021-04-10T08:45:37Z</time>
      </trkpt>
      <trkpt lat="45.19638" lon="5.88556">
        <ele>911.2</ele>
        <time>2021-04-10T08:45:38Z</time>
      </trkpt>
      <trkpt lat="45.19639" lon="5.88557">
        <ele>911.4</ele>
        <time>2021-04-10T08:45:39Z</time>
      </trkpt>
      <trkpt lat="45.1964" lon="5.88558">
        <ele>911.6</ele>
        <time>2021-04-10T08:45:40Z</time>
      </trkpt>
      <trkpt lat="45.19642" lon="5.88559">
        <ele>911.8</ele>
        <time>2021-04-10T08:45:41Z</time>
      </trkpt>
      <trkpt lat="45.19643" lon="5.8856">
        <ele>911.8</ele>
        <time>2021-04-10T08:45:42Z</time>
      </trkpt>
      <trkpt lat="45.19647" lon="5.88563">
        <ele>911.8</ele>
        <time>2021-04-10T08:45:43Z</time>
      </trkpt>
      <trkpt lat="45.19647" lon="5.88563">
        <ele>912</ele>
        <time>2021-04-10T08:45:44Z</time>
      </trkpt>
      <trkpt lat="45.19647" lon="5.88563">
        <ele>912</ele>
        <time>2021-04-10T08:45:45Z</time>
      </trkpt>
      <trkpt lat="45.19649" lon="5.88564">
        <ele>912</ele>
        <time>2021-04-10T08:45:46Z</time>
      </trkpt>
      <trkpt lat="45.19651" lon="5.88565">
        <ele>912.2</ele>
        <time>2021-04-10T08:45:47Z</time>
      </trkpt>
      <trkpt lat="45.19653" lon="5.88566">
        <ele>912.6</ele>
        <time>2021-04-10T08:45:48Z</time>
      </trkpt>
      <trkpt lat="45.19655" lon="5.88567">
        <ele>912.8</ele>
        <time>2021-04-10T08:45:49Z</time>
      </trkpt>
      <trkpt lat="45.19657" lon="5.88568">
        <ele>912.8</ele>
        <time>2021-04-10T08:45:50Z</time>
      </trkpt>
      <trkpt lat="45.19659" lon="5.88568">
        <ele>912.8</ele>
        <time>2021-04-10T08:45:51Z</time>
      </trkpt>
      <trkpt lat="45.19661" lon="5.88569">
        <ele>912.8</ele>
        <time>2021-04-10T08:45:52Z</time>
      </trkpt>
      <trkpt lat="45.19663" lon="5.8857">
        <ele>912.8</ele>
        <time>2021-04-10T08:45:53Z</time>
      </trkpt>
      <trkpt lat="45.19663" lon="5.8857">
        <ele>913</ele>
        <time>2021-04-10T08:45:54Z</time>
      </trkpt>
      <trkpt lat="45.19663" lon="5.8857">
        <ele>913</ele>
        <time>2021-04-10T08:45:55Z</time>
      </trkpt>
      <trkpt lat="45.19663" lon="5.8857">
        <ele>913</ele>
        <time>2021-04-10T08:45:56Z</time>
      </trkpt>
      <trkpt lat="45.19663" lon="5.8857">
        <ele>913</ele>
        <time>2021-04-10T08:45:57Z</time>
      </trkpt>
      <trkpt lat="45.19664" lon="5.88572">
        <ele>913.2</ele>
        <time>2021-04-10T08:45:58Z</time>
      </trkpt>
      <trkpt lat="45.19664" lon="5.88573">
        <ele>913.4</ele>
        <time>2021-04-10T08:45:59Z</time>
      </trkpt>
      <trkpt lat="45.19665" lon="5.88574">
        <ele>913.8</ele>
        <time>2021-04-10T08:46:00Z</time>
      </trkpt>
      <trkpt lat="45.19666" lon="5.88576">
        <ele>914</ele>
        <time>2021-04-10T08:46:01Z</time>
      </trkpt>
      <trkpt lat="45.19666" lon="5.88577">
        <ele>914.6</ele>
        <time>2021-04-10T08:46:02Z</time>
      </trkpt>
      <trkpt lat="45.19667" lon="5.88579">
        <ele>914.2</ele>
        <time>2021-04-10T08:46:03Z</time>
      </trkpt>
      <trkpt lat="45.19668" lon="5.8858">
        <ele>914</ele>
        <time>2021-04-10T08:46:04Z</time>
      </trkpt>
      <trkpt lat="45.19668" lon="5.88581">
        <ele>914</ele>
        <time>2021-04-10T08:46:05Z</time>
      </trkpt>
      <trkpt lat="45.19668" lon="5.88583">
        <ele>914.2</ele>
        <time>2021-04-10T08:46:06Z</time>
      </trkpt>
      <trkpt lat="45.19668" lon="5.88585">
        <ele>914.2</ele>
        <time>2021-04-10T08:46:07Z</time>
      </trkpt>
      <trkpt lat="45.19667" lon="5.88586">
        <ele>914.4</ele>
        <time>2021-04-10T08:46:08Z</time>
      </trkpt>
      <trkpt lat="45.19667" lon="5.88588">
        <ele>914.4</ele>
        <time>2021-04-10T08:46:09Z</time>
      </trkpt>
      <trkpt lat="45.19666" lon="5.8859">
        <ele>914.4</ele>
        <time>2021-04-10T08:46:10Z</time>
      </trkpt>
      <trkpt lat="45.19666" lon="5.88592">
        <ele>914.6</ele>
        <time>2021-04-10T08:46:11Z</time>
      </trkpt>
      <trkpt lat="45.19666" lon="5.88593">
        <ele>914.4</ele>
        <time>2021-04-10T08:46:12Z</time>
      </trkpt>
      <trkpt lat="45.19665" lon="5.88595">
        <ele>914.6</ele>
        <time>2021-04-10T08:46:13Z</time>
      </trkpt>
      <trkpt lat="45.19665" lon="5.88596">
        <ele>914.6</ele>
        <time>2021-04-10T08:46:14Z</time>
      </trkpt>
      <trkpt lat="45.19665" lon="5.88597">
        <ele>914.6</ele>
        <time>2021-04-10T08:46:15Z</time>
      </trkpt>
      <trkpt lat="45.19665" lon="5.88597">
        <ele>914.8</ele>
        <time>2021-04-10T08:46:16Z</time>
      </trkpt>
      <trkpt lat="45.19664" lon="5.88598">
        <ele>915</ele>
        <time>2021-04-10T08:46:17Z</time>
      </trkpt>
      <trkpt lat="45.19664" lon="5.88599">
        <ele>915.2</ele>
        <time>2021-04-10T08:46:18Z</time>
      </trkpt>
      <trkpt lat="45.19664" lon="5.886">
        <ele>915.4</ele>
        <time>2021-04-10T08:46:19Z</time>
      </trkpt>
      <trkpt lat="45.19664" lon="5.88601">
        <ele>915.4</ele>
        <time>2021-04-10T08:46:20Z</time>
      </trkpt>
      <trkpt lat="45.19663" lon="5.88602">
        <ele>915.6</ele>
        <time>2021-04-10T08:46:21Z</time>
      </trkpt>
      <trkpt lat="45.19663" lon="5.88603">
        <ele>915.6</ele>
        <time>2021-04-10T08:46:22Z</time>
      </trkpt>
      <trkpt lat="45.19663" lon="5.88603">
        <ele>915.6</ele>
        <time>2021-04-10T08:46:23Z</time>
      </trkpt>
      <trkpt lat="45.19663" lon="5.88604">
        <ele>915.6</ele>
        <time>2021-04-10T08:46:24Z</time>
      </trkpt>
      <trkpt lat="45.19662" lon="5.88605">
        <ele>915.6</ele>
        <time>2021-04-10T08:46:25Z</time>
      </trkpt>
      <trkpt lat="45.19662" lon="5.88606">
        <ele>915.6</ele>
        <time>2021-04-10T08:46:26Z</time>
      </trkpt>
      <trkpt lat="45.19662" lon="5.88607">
        <ele>915.6</ele>
        <time>2021-04-10T08:46:27Z</time>
      </trkpt>
      <trkpt lat="45.19662" lon="5.88607">
        <ele>915.6</ele>
        <time>2021-04-10T08:46:28Z</time>
      </trkpt>
      <trkpt lat="45.19662" lon="5.88608">
        <ele>915.6</ele>
        <time>2021-04-10T08:46:29Z</time>
      </trkpt>
      <trkpt lat="45.19662" lon="5.88609">
        <ele>915.6</ele>
        <time>2021-04-10T08:46:30Z</time>
      </trkpt>
      <trkpt lat="45.19662" lon="5.88609">
        <ele>915.6</ele>
        <time>2021-04-10T08:46:31Z</time>
      </trkpt>
      <trkpt lat="45.19662" lon="5.8861">
        <ele>915.6</ele>
        <time>2021-04-10T08:46:32Z</time>
      </trkpt>
      <trkpt lat="45.19662" lon="5.88611">
        <ele>915.6</ele>
        <time>2021-04-10T08:46:33Z</time>
      </trkpt>
      <trkpt lat="45.19662" lon="5.88611">
        <ele>915.6</ele>
        <time>2021-04-10T08:46:34Z</time>
      </trkpt>
      <trkpt lat="45.19662" lon="5.88614">
        <ele>915.6</ele>
        <time>2021-04-10T08:46:35Z</time>
      </trkpt>
      <trkpt lat="45.19662" lon="5.88614">
        <ele>915.8</ele>
        <time>2021-04-10T08:46:36Z</time>
      </trkpt>
      <trkpt lat="45.19662" lon="5.88614">
        <ele>915.8</ele>
        <time>2021-04-10T08:46:37Z</time>
      </trkpt>
      <trkpt lat="45.19662" lon="5.88614">
        <ele>915.8</ele>
        <time>2021-04-10T08:46:38Z</time>
      </trkpt>
      <trkpt lat="45.19662" lon="5.88614">
        <ele>915.6</ele>
        <time>2021-04-10T08:46:39Z</time>
      </trkpt>
      <trkpt lat="45.19662" lon="5.88615">
        <ele>915.6</ele>
        <time>2021-04-10T08:46:40Z</time>
      </trkpt>
      <trkpt lat="45.19662" lon="5.88615">
        <ele>915.6</ele>
        <time>2021-04-10T08:46:41Z</time>
      </trkpt>
      <trkpt lat="45.19662" lon="5.88616">
        <ele>915.6</ele>
        <time>2021-04-10T08:46:42Z</time>
      </trkpt>
      <trkpt lat="45.19662" lon="5.88616">
        <ele>915.6</ele>
        <time>2021-04-10T08:46:43Z</time>
      </trkpt>
      <trkpt lat="45.19662" lon="5.88617">
        <ele>915.6</ele>
        <time>2021-04-10T08:46:44Z</time>
      </trkpt>
      <trkpt lat="45.19662" lon="5.88617">
        <ele>915.6</ele>
        <time>2021-04-10T08:46:45Z</time>
      </trkpt>
      <trkpt lat="45.19662" lon="5.88618">
        <ele>915.6</ele>
        <time>2021-04-10T08:46:46Z</time>
      </trkpt>
      <trkpt lat="45.19662" lon="5.88618">
        <ele>915.6</ele>
        <time>2021-04-10T08:46:47Z</time>
      </trkpt>
      <trkpt lat="45.19662" lon="5.88619">
        <ele>915.6</ele>
        <time>2021-04-10T08:46:48Z</time>
      </trkpt>
      <trkpt lat="45.19662" lon="5.88619">
        <ele>915.6</ele>
        <time>2021-04-10T08:46:49Z</time>
      </trkpt>
      <trkpt lat="45.19662" lon="5.8862">
        <ele>915.4</ele>
        <time>2021-04-10T08:46:50Z</time>
      </trkpt>
      <trkpt lat="45.19663" lon="5.8862">
        <ele>915.2</ele>
        <time>2021-04-10T08:46:51Z</time>
      </trkpt>
      <trkpt lat="45.19663" lon="5.88621">
        <ele>915.4</ele>
        <time>2021-04-10T08:46:52Z</time>
      </trkpt>
      <trkpt lat="45.19663" lon="5.88621">
        <ele>915.2</ele>
        <time>2021-04-10T08:46:53Z</time>
      </trkpt>
      <trkpt lat="45.19663" lon="5.88622">
        <ele>915.2</ele>
        <time>2021-04-10T08:46:54Z</time>
      </trkpt>
      <trkpt lat="45.19663" lon="5.88622">
        <ele>915.2</ele>
        <time>2021-04-10T08:46:55Z</time>
      </trkpt>
      <trkpt lat="45.19663" lon="5.88623">
        <ele>915.2</ele>
        <time>2021-04-10T08:46:56Z</time>
      </trkpt>
      <trkpt lat="45.19663" lon="5.88623">
        <ele>915.2</ele>
        <time>2021-04-10T08:46:57Z</time>
      </trkpt>
      <trkpt lat="45.19663" lon="5.88624">
        <ele>915.2</ele>
        <time>2021-04-10T08:46:58Z</time>
      </trkpt>
      <trkpt lat="45.19663" lon="5.88624">
        <ele>915.2</ele>
        <time>2021-04-10T08:46:59Z</time>
      </trkpt>
      <trkpt lat="45.19663" lon="5.88625">
        <ele>915.2</ele>
        <time>2021-04-10T08:47:00Z</time>
      </trkpt>
      <trkpt lat="45.19663" lon="5.88625">
        <ele>915.2</ele>
        <time>2021-04-10T08:47:01Z</time>
      </trkpt>
      <trkpt lat="45.19663" lon="5.88626">
        <ele>915.2</ele>
        <time>2021-04-10T08:47:02Z</time>
      </trkpt>
      <trkpt lat="45.19663" lon="5.88626">
        <ele>915.2</ele>
        <time>2021-04-10T08:47:03Z</time>
      </trkpt>
      <trkpt lat="45.19663" lon="5.88627">
        <ele>915.2</ele>
        <time>2021-04-10T08:47:04Z</time>
      </trkpt>
      <trkpt lat="45.19663" lon="5.88627">
        <ele>915.2</ele>
        <time>2021-04-10T08:47:05Z</time>
      </trkpt>
      <trkpt lat="45.19664" lon="5.88628">
        <ele>915.4</ele>
        <time>2021-04-10T08:47:06Z</time>
      </trkpt>
      <trkpt lat="45.19664" lon="5.88629">
        <ele>915.6</ele>
        <time>2021-04-10T08:47:07Z</time>
      </trkpt>
      <trkpt lat="45.19663" lon="5.88631">
        <ele>915.6</ele>
        <time>2021-04-10T08:47:08Z</time>
      </trkpt>
      <trkpt lat="45.19663" lon="5.88633">
        <ele>915.8</ele>
        <time>2021-04-10T08:47:09Z</time>
      </trkpt>
      <trkpt lat="45.19663" lon="5.88635">
        <ele>915.8</ele>
        <time>2021-04-10T08:47:10Z</time>
      </trkpt>
      <trkpt lat="45.19663" lon="5.88637">
        <ele>916</ele>
        <time>2021-04-10T08:47:11Z</time>
      </trkpt>
      <trkpt lat="45.19663" lon="5.88638">
        <ele>916</ele>
        <time>2021-04-10T08:47:12Z</time>
      </trkpt>
      <trkpt lat="45.19663" lon="5.8864">
        <ele>916</ele>
        <time>2021-04-10T08:47:13Z</time>
      </trkpt>
      <trkpt lat="45.19663" lon="5.88642">
        <ele>916.2</ele>
        <time>2021-04-10T08:47:14Z</time>
      </trkpt>
      <trkpt lat="45.19663" lon="5.88643">
        <ele>916.2</ele>
        <time>2021-04-10T08:47:15Z</time>
      </trkpt>
      <trkpt lat="45.19663" lon="5.88644">
        <ele>916.2</ele>
        <time>2021-04-10T08:47:16Z</time>
      </trkpt>
      <trkpt lat="45.19663" lon="5.88645">
        <ele>916.4</ele>
        <time>2021-04-10T08:47:17Z</time>
      </trkpt>
      <trkpt lat="45.19663" lon="5.88646">
        <ele>916.4</ele>
        <time>2021-04-10T08:47:18Z</time>
      </trkpt>
      <trkpt lat="45.19663" lon="5.88647">
        <ele>916.2</ele>
        <time>2021-04-10T08:47:19Z</time>
      </trkpt>
      <trkpt lat="45.19663" lon="5.88648">
        <ele>916.2</ele>
        <time>2021-04-10T08:47:20Z</time>
      </trkpt>
      <trkpt lat="45.19663" lon="5.88649">
        <ele>916.2</ele>
        <time>2021-04-10T08:47:21Z</time>
      </trkpt>
      <trkpt lat="45.19663" lon="5.88651">
        <ele>916.4</ele>
        <time>2021-04-10T08:47:22Z</time>
      </trkpt>
      <trkpt lat="45.19663" lon="5.88652">
        <ele>916.4</ele>
        <time>2021-04-10T08:47:23Z</time>
      </trkpt>
      <trkpt lat="45.19663" lon="5.88653">
        <ele>916.6</ele>
        <time>2021-04-10T08:47:24Z</time>
      </trkpt>
      <trkpt lat="45.19663" lon="5.88654">
        <ele>916.8</ele>
        <time>2021-04-10T08:47:25Z</time>
      </trkpt>
      <trkpt lat="45.19663" lon="5.88655">
        <ele>916.6</ele>
        <time>2021-04-10T08:47:26Z</time>
      </trkpt>
      <trkpt lat="45.19663" lon="5.88657">
        <ele>916.8</ele>
        <time>2021-04-10T08:47:27Z</time>
      </trkpt>
      <trkpt lat="45.19663" lon="5.88659">
        <ele>916.8</ele>
        <time>2021-04-10T08:47:28Z</time>
      </trkpt>
      <trkpt lat="45.19664" lon="5.88661">
        <ele>917</ele>
        <time>2021-04-10T08:47:29Z</time>
      </trkpt>
      <trkpt lat="45.19664" lon="5.88663">
        <ele>917</ele>
        <time>2021-04-10T08:47:30Z</time>
      </trkpt>
      <trkpt lat="45.19664" lon="5.88666">
        <ele>917.4</ele>
        <time>2021-04-10T08:47:31Z</time>
      </trkpt>
      <trkpt lat="45.19664" lon="5.88668">
        <ele>917.6</ele>
        <time>2021-04-10T08:47:32Z</time>
      </trkpt>
      <trkpt lat="45.19664" lon="5.88669">
        <ele>917.8</ele>
        <time>2021-04-10T08:47:33Z</time>
      </trkpt>
      <trkpt lat="45.19664" lon="5.8867">
        <ele>917.8</ele>
        <time>2021-04-10T08:47:34Z</time>
      </trkpt>
      <trkpt lat="45.19665" lon="5.88671">
        <ele>917.8</ele>
        <time>2021-04-10T08:47:35Z</time>
      </trkpt>
      <trkpt lat="45.19665" lon="5.88673">
        <ele>917.8</ele>
        <time>2021-04-10T08:47:36Z</time>
      </trkpt>
      <trkpt lat="45.19665" lon="5.88674">
        <ele>918</ele>
        <time>2021-04-10T08:47:37Z</time>
      </trkpt>
      <trkpt lat="45.19665" lon="5.88675">
        <ele>918.2</ele>
        <time>2021-04-10T08:47:38Z</time>
      </trkpt>
      <trkpt lat="45.19665" lon="5.88676">
        <ele>918.4</ele>
        <time>2021-04-10T08:47:39Z</time>
      </trkpt>
      <trkpt lat="45.19665" lon="5.88677">
        <ele>918.6</ele>
        <time>2021-04-10T08:47:40Z</time>
      </trkpt>
      <trkpt lat="45.19666" lon="5.88679">
        <ele>918.6</ele>
        <time>2021-04-10T08:47:41Z</time>
      </trkpt>
      <trkpt lat="45.19666" lon="5.8868">
        <ele>918.6</ele>
        <time>2021-04-10T08:47:42Z</time>
      </trkpt>
      <trkpt lat="45.19666" lon="5.88681">
        <ele>918.6</ele>
        <time>2021-04-10T08:47:43Z</time>
      </trkpt>
      <trkpt lat="45.19666" lon="5.88684">
        <ele>918.6</ele>
        <time>2021-04-10T08:47:44Z</time>
      </trkpt>
      <trkpt lat="45.19666" lon="5.88688">
        <ele>918.6</ele>
        <time>2021-04-10T08:47:45Z</time>
      </trkpt>
      <trkpt lat="45.19666" lon="5.88691">
        <ele>918.8</ele>
        <time>2021-04-10T08:47:46Z</time>
      </trkpt>
      <trkpt lat="45.19666" lon="5.88694">
        <ele>919</ele>
        <time>2021-04-10T08:47:47Z</time>
      </trkpt>
      <trkpt lat="45.19666" lon="5.88697">
        <ele>919.4</ele>
        <time>2021-04-10T08:47:48Z</time>
      </trkpt>
      <trkpt lat="45.19666" lon="5.88701">
        <ele>919.6</ele>
        <time>2021-04-10T08:47:49Z</time>
      </trkpt>
      <trkpt lat="45.19666" lon="5.88701">
        <ele>919.6</ele>
        <time>2021-04-10T08:47:50Z</time>
      </trkpt>
      <trkpt lat="45.19666" lon="5.88701">
        <ele>919.6</ele>
        <time>2021-04-10T08:47:51Z</time>
      </trkpt>
      <trkpt lat="45.19666" lon="5.88701">
        <ele>919.6</ele>
        <time>2021-04-10T08:47:52Z</time>
      </trkpt>
      <trkpt lat="45.19666" lon="5.88701">
        <ele>919.6</ele>
        <time>2021-04-10T08:47:53Z</time>
      </trkpt>
      <trkpt lat="45.19665" lon="5.88702">
        <ele>919.8</ele>
        <time>2021-04-10T08:47:54Z</time>
      </trkpt>
      <trkpt lat="45.19665" lon="5.88704">
        <ele>920</ele>
        <time>2021-04-10T08:47:55Z</time>
      </trkpt>
      <trkpt lat="45.19665" lon="5.88706">
        <ele>920.2</ele>
        <time>2021-04-10T08:47:56Z</time>
      </trkpt>
      <trkpt lat="45.19664" lon="5.88708">
        <ele>920.2</ele>
        <time>2021-04-10T08:47:57Z</time>
      </trkpt>
      <trkpt lat="45.19664" lon="5.8871">
        <ele>920.4</ele>
        <time>2021-04-10T08:47:58Z</time>
      </trkpt>
      <trkpt lat="45.19664" lon="5.88711">
        <ele>920.6</ele>
        <time>2021-04-10T08:47:59Z</time>
      </trkpt>
      <trkpt lat="45.19663" lon="5.88713">
        <ele>920.6</ele>
        <time>2021-04-10T08:48:00Z</time>
      </trkpt>
      <trkpt lat="45.19663" lon="5.88715">
        <ele>920.6</ele>
        <time>2021-04-10T08:48:01Z</time>
      </trkpt>
      <trkpt lat="45.19663" lon="5.88717">
        <ele>921.4</ele>
        <time>2021-04-10T08:48:02Z</time>
      </trkpt>
      <trkpt lat="45.19662" lon="5.88719">
        <ele>921.6</ele>
        <time>2021-04-10T08:48:03Z</time>
      </trkpt>
      <trkpt lat="45.19662" lon="5.88721">
        <ele>921.8</ele>
        <time>2021-04-10T08:48:04Z</time>
      </trkpt>
      <trkpt lat="45.19662" lon="5.88723">
        <ele>921.6</ele>
        <time>2021-04-10T08:48:05Z</time>
      </trkpt>
      <trkpt lat="45.19661" lon="5.88724">
        <ele>921.6</ele>
        <time>2021-04-10T08:48:06Z</time>
      </trkpt>
      <trkpt lat="45.19661" lon="5.88726">
        <ele>921.4</ele>
        <time>2021-04-10T08:48:07Z</time>
      </trkpt>
      <trkpt lat="45.19661" lon="5.88728">
        <ele>921.4</ele>
        <time>2021-04-10T08:48:08Z</time>
      </trkpt>
      <trkpt lat="45.19661" lon="5.8873">
        <ele>921.4</ele>
        <time>2021-04-10T08:48:09Z</time>
      </trkpt>
      <trkpt lat="45.19661" lon="5.88732">
        <ele>921.6</ele>
        <time>2021-04-10T08:48:10Z</time>
      </trkpt>
      <trkpt lat="45.19661" lon="5.88733">
        <ele>921.8</ele>
        <time>2021-04-10T08:48:11Z</time>
      </trkpt>
      <trkpt lat="45.19661" lon="5.88735">
        <ele>922</ele>
        <time>2021-04-10T08:48:12Z</time>
      </trkpt>
      <trkpt lat="45.19661" lon="5.88737">
        <ele>922.2</ele>
        <time>2021-04-10T08:48:13Z</time>
      </trkpt>
      <trkpt lat="45.19661" lon="5.88739">
        <ele>922.4</ele>
        <time>2021-04-10T08:48:14Z</time>
      </trkpt>
      <trkpt lat="45.19661" lon="5.8874">
        <ele>922.6</ele>
        <time>2021-04-10T08:48:15Z</time>
      </trkpt>
      <trkpt lat="45.19661" lon="5.88742">
        <ele>922.8</ele>
        <time>2021-04-10T08:48:16Z</time>
      </trkpt>
      <trkpt lat="45.19661" lon="5.88744">
        <ele>923</ele>
        <time>2021-04-10T08:48:17Z</time>
      </trkpt>
      <trkpt lat="45.19661" lon="5.88745">
        <ele>923.2</ele>
        <time>2021-04-10T08:48:18Z</time>
      </trkpt>
      <trkpt lat="45.19661" lon="5.88747">
        <ele>923.6</ele>
        <time>2021-04-10T08:48:19Z</time>
      </trkpt>
      <trkpt lat="45.1966" lon="5.88749">
        <ele>924</ele>
        <time>2021-04-10T08:48:20Z</time>
      </trkpt>
      <trkpt lat="45.1966" lon="5.8875">
        <ele>924.4</ele>
        <time>2021-04-10T08:48:21Z</time>
      </trkpt>
      <trkpt lat="45.1966" lon="5.88752">
        <ele>924.6</ele>
        <time>2021-04-10T08:48:22Z</time>
      </trkpt>
      <trkpt lat="45.1966" lon="5.88753">
        <ele>924.8</ele>
        <time>2021-04-10T08:48:23Z</time>
      </trkpt>
      <trkpt lat="45.1966" lon="5.88755">
        <ele>925.2</ele>
        <time>2021-04-10T08:48:24Z</time>
      </trkpt>
      <trkpt lat="45.19659" lon="5.88757">
        <ele>925.4</ele>
        <time>2021-04-10T08:48:25Z</time>
      </trkpt>
      <trkpt lat="45.19659" lon="5.8876">
        <ele>925.6</ele>
        <time>2021-04-10T08:48:26Z</time>
      </trkpt>
      <trkpt lat="45.19658" lon="5.88762">
        <ele>925.6</ele>
        <time>2021-04-10T08:48:27Z</time>
      </trkpt>
      <trkpt lat="45.19658" lon="5.88765">
        <ele>925.8</ele>
        <time>2021-04-10T08:48:28Z</time>
      </trkpt>
      <trkpt lat="45.19658" lon="5.88767">
        <ele>926</ele>
        <time>2021-04-10T08:48:29Z</time>
      </trkpt>
      <trkpt lat="45.19657" lon="5.8877">
        <ele>926.2</ele>
        <time>2021-04-10T08:48:30Z</time>
      </trkpt>
      <trkpt lat="45.19657" lon="5.88772">
        <ele>926.6</ele>
        <time>2021-04-10T08:48:31Z</time>
      </trkpt>
      <trkpt lat="45.19657" lon="5.88772">
        <ele>926.8</ele>
        <time>2021-04-10T08:48:32Z</time>
      </trkpt>
      <trkpt lat="45.19657" lon="5.88772">
        <ele>927</ele>
        <time>2021-04-10T08:48:33Z</time>
      </trkpt>
      <trkpt lat="45.19657" lon="5.88772">
        <ele>927.4</ele>
        <time>2021-04-10T08:48:34Z</time>
      </trkpt>
      <trkpt lat="45.19657" lon="5.88772">
        <ele>927.6</ele>
        <time>2021-04-10T08:48:35Z</time>
      </trkpt>
      <trkpt lat="45.19657" lon="5.88773">
        <ele>927.8</ele>
        <time>2021-04-10T08:48:36Z</time>
      </trkpt>
      <trkpt lat="45.19657" lon="5.88775">
        <ele>928</ele>
        <time>2021-04-10T08:48:37Z</time>
      </trkpt>
      <trkpt lat="45.19657" lon="5.88776">
        <ele>928.2</ele>
        <time>2021-04-10T08:48:38Z</time>
      </trkpt>
      <trkpt lat="45.19657" lon="5.88777">
        <ele>928.4</ele>
        <time>2021-04-10T08:48:39Z</time>
      </trkpt>
      <trkpt lat="45.19656" lon="5.88778">
        <ele>928.4</ele>
        <time>2021-04-10T08:48:40Z</time>
      </trkpt>
      <trkpt lat="45.19656" lon="5.88779">
        <ele>928.6</ele>
        <time>2021-04-10T08:48:41Z</time>
      </trkpt>
      <trkpt lat="45.19656" lon="5.8878">
        <ele>929</ele>
        <time>2021-04-10T08:48:42Z</time>
      </trkpt>
      <trkpt lat="45.19656" lon="5.88782">
        <ele>929</ele>
        <time>2021-04-10T08:48:43Z</time>
      </trkpt>
      <trkpt lat="45.19656" lon="5.88783">
        <ele>929.4</ele>
        <time>2021-04-10T08:48:44Z</time>
      </trkpt>
      <trkpt lat="45.19656" lon="5.88784">
        <ele>929.6</ele>
        <time>2021-04-10T08:48:45Z</time>
      </trkpt>
      <trkpt lat="45.19656" lon="5.88785">
        <ele>929.8</ele>
        <time>2021-04-10T08:48:46Z</time>
      </trkpt>
      <trkpt lat="45.19655" lon="5.88786">
        <ele>930.2</ele>
        <time>2021-04-10T08:48:47Z</time>
      </trkpt>
      <trkpt lat="45.19655" lon="5.88787">
        <ele>930.4</ele>
        <time>2021-04-10T08:48:48Z</time>
      </trkpt>
      <trkpt lat="45.19654" lon="5.88788">
        <ele>930.4</ele>
        <time>2021-04-10T08:48:49Z</time>
      </trkpt>
      <trkpt lat="45.19654" lon="5.88788">
        <ele>930.6</ele>
        <time>2021-04-10T08:48:50Z</time>
      </trkpt>
      <trkpt lat="45.19653" lon="5.88789">
        <ele>930.6</ele>
        <time>2021-04-10T08:48:51Z</time>
      </trkpt>
      <trkpt lat="45.19653" lon="5.8879">
        <ele>931</ele>
        <time>2021-04-10T08:48:52Z</time>
      </trkpt>
      <trkpt lat="45.19652" lon="5.88791">
        <ele>931.4</ele>
        <time>2021-04-10T08:48:53Z</time>
      </trkpt>
      <trkpt lat="45.19652" lon="5.88792">
        <ele>931.6</ele>
        <time>2021-04-10T08:48:54Z</time>
      </trkpt>
      <trkpt lat="45.19651" lon="5.88793">
        <ele>931.8</ele>
        <time>2021-04-10T08:48:55Z</time>
      </trkpt>
      <trkpt lat="45.19651" lon="5.88794">
        <ele>932</ele>
        <time>2021-04-10T08:48:56Z</time>
      </trkpt>
      <trkpt lat="45.1965" lon="5.88794">
        <ele>932</ele>
        <time>2021-04-10T08:48:57Z</time>
      </trkpt>
      <trkpt lat="45.1965" lon="5.88795">
        <ele>932.2</ele>
        <time>2021-04-10T08:48:58Z</time>
      </trkpt>
      <trkpt lat="45.19648" lon="5.88797">
        <ele>932.4</ele>
        <time>2021-04-10T08:48:59Z</time>
      </trkpt>
      <trkpt lat="45.19647" lon="5.88799">
        <ele>932.6</ele>
        <time>2021-04-10T08:49:00Z</time>
      </trkpt>
      <trkpt lat="45.19645" lon="5.88801">
        <ele>932.6</ele>
        <time>2021-04-10T08:49:01Z</time>
      </trkpt>
      <trkpt lat="45.19644" lon="5.88802">
        <ele>932.8</ele>
        <time>2021-04-10T08:49:02Z</time>
      </trkpt>
      <trkpt lat="45.19642" lon="5.88804">
        <ele>933</ele>
        <time>2021-04-10T08:49:03Z</time>
      </trkpt>
      <trkpt lat="45.19641" lon="5.88806">
        <ele>933</ele>
        <time>2021-04-10T08:49:04Z</time>
      </trkpt>
      <trkpt lat="45.19639" lon="5.88808">
        <ele>933.2</ele>
        <time>2021-04-10T08:49:05Z</time>
      </trkpt>
      <trkpt lat="45.19638" lon="5.88809">
        <ele>933.4</ele>
        <time>2021-04-10T08:49:06Z</time>
      </trkpt>
      <trkpt lat="45.19636" lon="5.88811">
        <ele>933.4</ele>
        <time>2021-04-10T08:49:07Z</time>
      </trkpt>
      <trkpt lat="45.19635" lon="5.88813">
        <ele>933.6</ele>
        <time>2021-04-10T08:49:08Z</time>
      </trkpt>
      <trkpt lat="45.19634" lon="5.88815">
        <ele>934</ele>
        <time>2021-04-10T08:49:09Z</time>
      </trkpt>
      <trkpt lat="45.1963" lon="5.88819">
        <ele>934.4</ele>
        <time>2021-04-10T08:49:10Z</time>
      </trkpt>
      <trkpt lat="45.1963" lon="5.88819">
        <ele>934.6</ele>
        <time>2021-04-10T08:49:11Z</time>
      </trkpt>
      <trkpt lat="45.1963" lon="5.88819">
        <ele>934.8</ele>
        <time>2021-04-10T08:49:12Z</time>
      </trkpt>
      <trkpt lat="45.1963" lon="5.8882">
        <ele>935</ele>
        <time>2021-04-10T08:49:13Z</time>
      </trkpt>
      <trkpt lat="45.19629" lon="5.88821">
        <ele>935.4</ele>
        <time>2021-04-10T08:49:14Z</time>
      </trkpt>
      <trkpt lat="45.19628" lon="5.88822">
        <ele>935.6</ele>
        <time>2021-04-10T08:49:15Z</time>
      </trkpt>
      <trkpt lat="45.19627" lon="5.88822">
        <ele>935.8</ele>
        <time>2021-04-10T08:49:16Z</time>
      </trkpt>
      <trkpt lat="45.19627" lon="5.88823">
        <ele>936</ele>
        <time>2021-04-10T08:49:17Z</time>
      </trkpt>
      <trkpt lat="45.19626" lon="5.88824">
        <ele>936.2</ele>
        <time>2021-04-10T08:49:18Z</time>
      </trkpt>
      <trkpt lat="45.19625" lon="5.88825">
        <ele>936.4</ele>
        <time>2021-04-10T08:49:19Z</time>
      </trkpt>
      <trkpt lat="45.19624" lon="5.88825">
        <ele>936.6</ele>
        <time>2021-04-10T08:49:20Z</time>
      </trkpt>
      <trkpt lat="45.19623" lon="5.88826">
        <ele>936.6</ele>
        <time>2021-04-10T08:49:21Z</time>
      </trkpt>
      <trkpt lat="45.19623" lon="5.88827">
        <ele>936.8</ele>
        <time>2021-04-10T08:49:22Z</time>
      </trkpt>
      <trkpt lat="45.19622" lon="5.88826">
        <ele>936.8</ele>
        <time>2021-04-10T08:49:23Z</time>
      </trkpt>
      <trkpt lat="45.1962" lon="5.88826">
        <ele>937.2</ele>
        <time>2021-04-10T08:49:24Z</time>
      </trkpt>
      <trkpt lat="45.19619" lon="5.88826">
        <ele>937.4</ele>
        <time>2021-04-10T08:49:25Z</time>
      </trkpt>
      <trkpt lat="45.19618" lon="5.88825">
        <ele>937.6</ele>
        <time>2021-04-10T08:49:26Z</time>
      </trkpt>
      <trkpt lat="45.19617" lon="5.88825">
        <ele>938</ele>
        <time>2021-04-10T08:49:27Z</time>
      </trkpt>
      <trkpt lat="45.19616" lon="5.88825">
        <ele>938.4</ele>
        <time>2021-04-10T08:49:28Z</time>
      </trkpt>
      <trkpt lat="45.19615" lon="5.88824">
        <ele>938.6</ele>
        <time>2021-04-10T08:49:29Z</time>
      </trkpt>
      <trkpt lat="45.19614" lon="5.88824">
        <ele>938.8</ele>
        <time>2021-04-10T08:49:30Z</time>
      </trkpt>
      <trkpt lat="45.19613" lon="5.88825">
        <ele>939</ele>
        <time>2021-04-10T08:49:31Z</time>
      </trkpt>
      <trkpt lat="45.19612" lon="5.88827">
        <ele>939.2</ele>
        <time>2021-04-10T08:49:32Z</time>
      </trkpt>
      <trkpt lat="45.19612" lon="5.88828">
        <ele>939.2</ele>
        <time>2021-04-10T08:49:33Z</time>
      </trkpt>
      <trkpt lat="45.19611" lon="5.8883">
        <ele>939.4</ele>
        <time>2021-04-10T08:49:34Z</time>
      </trkpt>
      <trkpt lat="45.1961" lon="5.88831">
        <ele>939.8</ele>
        <time>2021-04-10T08:49:35Z</time>
      </trkpt>
      <trkpt lat="45.1961" lon="5.88833">
        <ele>940.4</ele>
        <time>2021-04-10T08:49:36Z</time>
      </trkpt>
      <trkpt lat="45.19609" lon="5.88834">
        <ele>940.8</ele>
        <time>2021-04-10T08:49:37Z</time>
      </trkpt>
      <trkpt lat="45.19608" lon="5.88836">
        <ele>941</ele>
        <time>2021-04-10T08:49:38Z</time>
      </trkpt>
      <trkpt lat="45.19607" lon="5.88837">
        <ele>941.4</ele>
        <time>2021-04-10T08:49:39Z</time>
      </trkpt>
      <trkpt lat="45.19607" lon="5.88839">
        <ele>941.4</ele>
        <time>2021-04-10T08:49:40Z</time>
      </trkpt>
      <trkpt lat="45.19606" lon="5.8884">
        <ele>941.8</ele>
        <time>2021-04-10T08:49:41Z</time>
      </trkpt>
      <trkpt lat="45.19605" lon="5.88841">
        <ele>942</ele>
        <time>2021-04-10T08:49:42Z</time>
      </trkpt>
      <trkpt lat="45.19603" lon="5.88847">
        <ele>942</ele>
        <time>2021-04-10T08:49:43Z</time>
      </trkpt>
      <trkpt lat="45.19602" lon="5.88848">
        <ele>942.2</ele>
        <time>2021-04-10T08:49:44Z</time>
      </trkpt>
      <trkpt lat="45.19601" lon="5.88849">
        <ele>942.4</ele>
        <time>2021-04-10T08:49:45Z</time>
      </trkpt>
      <trkpt lat="45.196" lon="5.88849">
        <ele>942.6</ele>
        <time>2021-04-10T08:49:46Z</time>
      </trkpt>
      <trkpt lat="45.19599" lon="5.8885">
        <ele>943</ele>
        <time>2021-04-10T08:49:47Z</time>
      </trkpt>
      <trkpt lat="45.19598" lon="5.88851">
        <ele>943.2</ele>
        <time>2021-04-10T08:49:48Z</time>
      </trkpt>
      <trkpt lat="45.19597" lon="5.88852">
        <ele>943.6</ele>
        <time>2021-04-10T08:49:49Z</time>
      </trkpt>
      <trkpt lat="45.19596" lon="5.88853">
        <ele>943.8</ele>
        <time>2021-04-10T08:49:50Z</time>
      </trkpt>
      <trkpt lat="45.19595" lon="5.88854">
        <ele>944</ele>
        <time>2021-04-10T08:49:51Z</time>
      </trkpt>
      <trkpt lat="45.19593" lon="5.88855">
        <ele>944</ele>
        <time>2021-04-10T08:49:52Z</time>
      </trkpt>
      <trkpt lat="45.19592" lon="5.88855">
        <ele>944.2</ele>
        <time>2021-04-10T08:49:53Z</time>
      </trkpt>
      <trkpt lat="45.19591" lon="5.88856">
        <ele>944.6</ele>
        <time>2021-04-10T08:49:54Z</time>
      </trkpt>
      <trkpt lat="45.1959" lon="5.88857">
        <ele>944.6</ele>
        <time>2021-04-10T08:49:55Z</time>
      </trkpt>
      <trkpt lat="45.19589" lon="5.88858">
        <ele>944.6</ele>
        <time>2021-04-10T08:49:56Z</time>
      </trkpt>
      <trkpt lat="45.19588" lon="5.88859">
        <ele>944.8</ele>
        <time>2021-04-10T08:49:57Z</time>
      </trkpt>
      <trkpt lat="45.19587" lon="5.8886">
        <ele>944.8</ele>
        <time>2021-04-10T08:49:58Z</time>
      </trkpt>
      <trkpt lat="45.19586" lon="5.8886">
        <ele>944.8</ele>
        <time>2021-04-10T08:49:59Z</time>
      </trkpt>
      <trkpt lat="45.19585" lon="5.88861">
        <ele>945.2</ele>
        <time>2021-04-10T08:50:01Z</time>
      </trkpt>
      <trkpt lat="45.19584" lon="5.88862">
        <ele>945.4</ele>
        <time>2021-04-10T08:50:02Z</time>
      </trkpt>
      <trkpt lat="45.19583" lon="5.88863">
        <ele>945.6</ele>
        <time>2021-04-10T08:50:03Z</time>
      </trkpt>
      <trkpt lat="45.19582" lon="5.88864">
        <ele>945.8</ele>
        <time>2021-04-10T08:50:04Z</time>
      </trkpt>
      <trkpt lat="45.19581" lon="5.88865">
        <ele>946.2</ele>
        <time>2021-04-10T08:50:05Z</time>
      </trkpt>
      <trkpt lat="45.1958" lon="5.88866">
        <ele>946.4</ele>
        <time>2021-04-10T08:50:06Z</time>
      </trkpt>
      <trkpt lat="45.19579" lon="5.88866">
        <ele>946.8</ele>
        <time>2021-04-10T08:50:07Z</time>
      </trkpt>
      <trkpt lat="45.19578" lon="5.88867">
        <ele>947</ele>
        <time>2021-04-10T08:50:08Z</time>
      </trkpt>
      <trkpt lat="45.19577" lon="5.88868">
        <ele>947.2</ele>
        <time>2021-04-10T08:50:09Z</time>
      </trkpt>
      <trkpt lat="45.19576" lon="5.88869">
        <ele>947.4</ele>
        <time>2021-04-10T08:50:10Z</time>
      </trkpt>
      <trkpt lat="45.19575" lon="5.8887">
        <ele>947.8</ele>
        <time>2021-04-10T08:50:11Z</time>
      </trkpt>
      <trkpt lat="45.19574" lon="5.88871">
        <ele>948</ele>
        <time>2021-04-10T08:50:12Z</time>
      </trkpt>
      <trkpt lat="45.19573" lon="5.88872">
        <ele>948.4</ele>
        <time>2021-04-10T08:50:13Z</time>
      </trkpt>
      <trkpt lat="45.19572" lon="5.88872">
        <ele>948.6</ele>
        <time>2021-04-10T08:50:14Z</time>
      </trkpt>
      <trkpt lat="45.19571" lon="5.88873">
        <ele>948.8</ele>
        <time>2021-04-10T08:50:15Z</time>
      </trkpt>
      <trkpt lat="45.1957" lon="5.88874">
        <ele>949.2</ele>
        <time>2021-04-10T08:50:16Z</time>
      </trkpt>
      <trkpt lat="45.19569" lon="5.88875">
        <ele>949.4</ele>
        <time>2021-04-10T08:50:17Z</time>
      </trkpt>
      <trkpt lat="45.19568" lon="5.88876">
        <ele>949.6</ele>
        <time>2021-04-10T08:50:18Z</time>
      </trkpt>
      <trkpt lat="45.19567" lon="5.88877">
        <ele>949.8</ele>
        <time>2021-04-10T08:50:19Z</time>
      </trkpt>
      <trkpt lat="45.19566" lon="5.88877">
        <ele>950</ele>
        <time>2021-04-10T08:50:20Z</time>
      </trkpt>
      <trkpt lat="45.19565" lon="5.88878">
        <ele>950.2</ele>
        <time>2021-04-10T08:50:21Z</time>
      </trkpt>
      <trkpt lat="45.19564" lon="5.88879">
        <ele>950.2</ele>
        <time>2021-04-10T08:50:22Z</time>
      </trkpt>
      <trkpt lat="45.19563" lon="5.8888">
        <ele>950.4</ele>
        <time>2021-04-10T08:50:23Z</time>
      </trkpt>
      <trkpt lat="45.19562" lon="5.88881">
        <ele>950.6</ele>
        <time>2021-04-10T08:50:24Z</time>
      </trkpt>
      <trkpt lat="45.1956" lon="5.88882">
        <ele>951</ele>
        <time>2021-04-10T08:50:25Z</time>
      </trkpt>
      <trkpt lat="45.19559" lon="5.88883">
        <ele>951.2</ele>
        <time>2021-04-10T08:50:26Z</time>
      </trkpt>
      <trkpt lat="45.19558" lon="5.88883">
        <ele>951.4</ele>
        <time>2021-04-10T08:50:27Z</time>
      </trkpt>
      <trkpt lat="45.19557" lon="5.88884">
        <ele>951.6</ele>
        <time>2021-04-10T08:50:28Z</time>
      </trkpt>
      <trkpt lat="45.19556" lon="5.88885">
        <ele>951.8</ele>
        <time>2021-04-10T08:50:29Z</time>
      </trkpt>
      <trkpt lat="45.19555" lon="5.88886">
        <ele>952.2</ele>
        <time>2021-04-10T08:50:30Z</time>
      </trkpt>
      <trkpt lat="45.19554" lon="5.88887">
        <ele>952.4</ele>
        <time>2021-04-10T08:50:31Z</time>
      </trkpt>
      <trkpt lat="45.19553" lon="5.88888">
        <ele>952.8</ele>
        <time>2021-04-10T08:50:32Z</time>
      </trkpt>
      <trkpt lat="45.19553" lon="5.88888">
        <ele>952.8</ele>
        <time>2021-04-10T08:50:33Z</time>
      </trkpt>
      <trkpt lat="45.19553" lon="5.88888">
        <ele>953</ele>
        <time>2021-04-10T08:50:35Z</time>
      </trkpt>
      <trkpt lat="45.19553" lon="5.88888">
        <ele>953.2</ele>
        <time>2021-04-10T08:50:36Z</time>
      </trkpt>
      <trkpt lat="45.19552" lon="5.88889">
        <ele>953.4</ele>
        <time>2021-04-10T08:50:37Z</time>
      </trkpt>
      <trkpt lat="45.19552" lon="5.88889">
        <ele>953.6</ele>
        <time>2021-04-10T08:50:38Z</time>
      </trkpt>
      <trkpt lat="45.19551" lon="5.8889">
        <ele>954</ele>
        <time>2021-04-10T08:50:39Z</time>
      </trkpt>
      <trkpt lat="45.19551" lon="5.8889">
        <ele>954.2</ele>
        <time>2021-04-10T08:50:40Z</time>
      </trkpt>
      <trkpt lat="45.19551" lon="5.88891">
        <ele>954.4</ele>
        <time>2021-04-10T08:50:41Z</time>
      </trkpt>
      <trkpt lat="45.1955" lon="5.88891">
        <ele>954.6</ele>
        <time>2021-04-10T08:50:42Z</time>
      </trkpt>
      <trkpt lat="45.1955" lon="5.88892">
        <ele>955</ele>
        <time>2021-04-10T08:50:43Z</time>
      </trkpt>
      <trkpt lat="45.19549" lon="5.88892">
        <ele>955.2</ele>
        <time>2021-04-10T08:50:44Z</time>
      </trkpt>
      <trkpt lat="45.19549" lon="5.88893">
        <ele>955.4</ele>
        <time>2021-04-10T08:50:45Z</time>
      </trkpt>
      <trkpt lat="45.19548" lon="5.88893">
        <ele>955.8</ele>
        <time>2021-04-10T08:50:46Z</time>
      </trkpt>
      <trkpt lat="45.19548" lon="5.88894">
        <ele>956</ele>
        <time>2021-04-10T08:50:47Z</time>
      </trkpt>
      <trkpt lat="45.19547" lon="5.88895">
        <ele>956.2</ele>
        <time>2021-04-10T08:50:48Z</time>
      </trkpt>
      <trkpt lat="45.19547" lon="5.88895">
        <ele>956.2</ele>
        <time>2021-04-10T08:50:49Z</time>
      </trkpt>
      <trkpt lat="45.19547" lon="5.88896">
        <ele>956.4</ele>
        <time>2021-04-10T08:50:50Z</time>
      </trkpt>
      <trkpt lat="45.19546" lon="5.88896">
        <ele>956.8</ele>
        <time>2021-04-10T08:50:51Z</time>
      </trkpt>
      <trkpt lat="45.19546" lon="5.88897">
        <ele>957</ele>
        <time>2021-04-10T08:50:52Z</time>
      </trkpt>
      <trkpt lat="45.19546" lon="5.88898">
        <ele>957.4</ele>
        <time>2021-04-10T08:50:53Z</time>
      </trkpt>
      <trkpt lat="45.19545" lon="5.88899">
        <ele>957.6</ele>
        <time>2021-04-10T08:50:54Z</time>
      </trkpt>
      <trkpt lat="45.19545" lon="5.889">
        <ele>957.8</ele>
        <time>2021-04-10T08:50:55Z</time>
      </trkpt>
      <trkpt lat="45.19545" lon="5.88901">
        <ele>958</ele>
        <time>2021-04-10T08:50:56Z</time>
      </trkpt>
      <trkpt lat="45.19544" lon="5.88902">
        <ele>958.6</ele>
        <time>2021-04-10T08:50:57Z</time>
      </trkpt>
      <trkpt lat="45.19544" lon="5.88903">
        <ele>958.8</ele>
        <time>2021-04-10T08:50:58Z</time>
      </trkpt>
      <trkpt lat="45.19544" lon="5.88904">
        <ele>959</ele>
        <time>2021-04-10T08:50:59Z</time>
      </trkpt>
      <trkpt lat="45.19543" lon="5.88905">
        <ele>959</ele>
        <time>2021-04-10T08:51:00Z</time>
      </trkpt>
      <trkpt lat="45.19543" lon="5.88906">
        <ele>959</ele>
        <time>2021-04-10T08:51:01Z</time>
      </trkpt>
      <trkpt lat="45.19543" lon="5.88907">
        <ele>959.2</ele>
        <time>2021-04-10T08:51:02Z</time>
      </trkpt>
      <trkpt lat="45.19543" lon="5.88908">
        <ele>959.6</ele>
        <time>2021-04-10T08:51:03Z</time>
      </trkpt>
      <trkpt lat="45.19542" lon="5.88909">
        <ele>960</ele>
        <time>2021-04-10T08:51:04Z</time>
      </trkpt>
      <trkpt lat="45.19541" lon="5.8891">
        <ele>960.2</ele>
        <time>2021-04-10T08:51:05Z</time>
      </trkpt>
      <trkpt lat="45.1954" lon="5.8891">
        <ele>960.6</ele>
        <time>2021-04-10T08:51:06Z</time>
      </trkpt>
      <trkpt lat="45.1954" lon="5.88911">
        <ele>960.4</ele>
        <time>2021-04-10T08:51:07Z</time>
      </trkpt>
      <trkpt lat="45.19539" lon="5.88912">
        <ele>960.8</ele>
        <time>2021-04-10T08:51:08Z</time>
      </trkpt>
      <trkpt lat="45.19538" lon="5.88913">
        <ele>961</ele>
        <time>2021-04-10T08:51:09Z</time>
      </trkpt>
      <trkpt lat="45.19538" lon="5.88914">
        <ele>961</ele>
        <time>2021-04-10T08:51:10Z</time>
      </trkpt>
      <trkpt lat="45.19537" lon="5.88915">
        <ele>961.2</ele>
        <time>2021-04-10T08:51:11Z</time>
      </trkpt>
      <trkpt lat="45.19536" lon="5.88916">
        <ele>961.4</ele>
        <time>2021-04-10T08:51:12Z</time>
      </trkpt>
      <trkpt lat="45.19535" lon="5.88917">
        <ele>961.4</ele>
        <time>2021-04-10T08:51:13Z</time>
      </trkpt>
      <trkpt lat="45.19535" lon="5.88917">
        <ele>961.6</ele>
        <time>2021-04-10T08:51:14Z</time>
      </trkpt>
      <trkpt lat="45.19534" lon="5.88919">
        <ele>962</ele>
        <time>2021-04-10T08:51:15Z</time>
      </trkpt>
      <trkpt lat="45.19533" lon="5.88921">
        <ele>962</ele>
        <time>2021-04-10T08:51:16Z</time>
      </trkpt>
      <trkpt lat="45.19532" lon="5.88923">
        <ele>962.2</ele>
        <time>2021-04-10T08:51:17Z</time>
      </trkpt>
      <trkpt lat="45.19531" lon="5.88925">
        <ele>962.4</ele>
        <time>2021-04-10T08:51:18Z</time>
      </trkpt>
      <trkpt lat="45.1953" lon="5.88927">
        <ele>962.6</ele>
        <time>2021-04-10T08:51:19Z</time>
      </trkpt>
      <trkpt lat="45.19529" lon="5.88929">
        <ele>962.8</ele>
        <time>2021-04-10T08:51:20Z</time>
      </trkpt>
      <trkpt lat="45.19528" lon="5.88931">
        <ele>963</ele>
        <time>2021-04-10T08:51:21Z</time>
      </trkpt>
      <trkpt lat="45.19527" lon="5.88933">
        <ele>963.2</ele>
        <time>2021-04-10T08:51:22Z</time>
      </trkpt>
      <trkpt lat="45.19526" lon="5.88934">
        <ele>963.6</ele>
        <time>2021-04-10T08:51:23Z</time>
      </trkpt>
      <trkpt lat="45.19525" lon="5.88936">
        <ele>963.8</ele>
        <time>2021-04-10T08:51:24Z</time>
      </trkpt>
      <trkpt lat="45.19524" lon="5.88938">
        <ele>964</ele>
        <time>2021-04-10T08:51:25Z</time>
      </trkpt>
      <trkpt lat="45.19523" lon="5.8894">
        <ele>964.2</ele>
        <time>2021-04-10T08:51:26Z</time>
      </trkpt>
      <trkpt lat="45.19523" lon="5.8894">
        <ele>964.6</ele>
        <time>2021-04-10T08:51:27Z</time>
      </trkpt>
      <trkpt lat="45.19522" lon="5.88943">
        <ele>965</ele>
        <time>2021-04-10T08:51:28Z</time>
      </trkpt>
      <trkpt lat="45.19521" lon="5.88946">
        <ele>965</ele>
        <time>2021-04-10T08:51:29Z</time>
      </trkpt>
      <trkpt lat="45.1952" lon="5.88948">
        <ele>965.4</ele>
        <time>2021-04-10T08:51:30Z</time>
      </trkpt>
      <trkpt lat="45.19519" lon="5.88951">
        <ele>965.6</ele>
        <time>2021-04-10T08:51:31Z</time>
      </trkpt>
      <trkpt lat="45.19518" lon="5.88954">
        <ele>965.8</ele>
        <time>2021-04-10T08:51:32Z</time>
      </trkpt>
      <trkpt lat="45.19518" lon="5.88955">
        <ele>966.2</ele>
        <time>2021-04-10T08:51:33Z</time>
      </trkpt>
      <trkpt lat="45.19517" lon="5.88956">
        <ele>966.4</ele>
        <time>2021-04-10T08:51:34Z</time>
      </trkpt>
      <trkpt lat="45.19516" lon="5.88957">
        <ele>966.6</ele>
        <time>2021-04-10T08:51:35Z</time>
      </trkpt>
      <trkpt lat="45.19515" lon="5.88959">
        <ele>966.8</ele>
        <time>2021-04-10T08:51:36Z</time>
      </trkpt>
      <trkpt lat="45.19514" lon="5.8896">
        <ele>967</ele>
        <time>2021-04-10T08:51:37Z</time>
      </trkpt>
      <trkpt lat="45.19513" lon="5.88961">
        <ele>967.2</ele>
        <time>2021-04-10T08:51:38Z</time>
      </trkpt>
      <trkpt lat="45.19512" lon="5.88962">
        <ele>967.4</ele>
        <time>2021-04-10T08:51:39Z</time>
      </trkpt>
      <trkpt lat="45.19511" lon="5.88963">
        <ele>967.6</ele>
        <time>2021-04-10T08:51:40Z</time>
      </trkpt>
      <trkpt lat="45.1951" lon="5.88963">
        <ele>967.6</ele>
        <time>2021-04-10T08:51:41Z</time>
      </trkpt>
      <trkpt lat="45.19509" lon="5.88962">
        <ele>967.8</ele>
        <time>2021-04-10T08:51:42Z</time>
      </trkpt>
      <trkpt lat="45.19507" lon="5.88962">
        <ele>968</ele>
        <time>2021-04-10T08:51:43Z</time>
      </trkpt>
      <trkpt lat="45.19506" lon="5.88962">
        <ele>968.4</ele>
        <time>2021-04-10T08:51:44Z</time>
      </trkpt>
      <trkpt lat="45.19505" lon="5.88961">
        <ele>968.6</ele>
        <time>2021-04-10T08:51:45Z</time>
      </trkpt>
      <trkpt lat="45.19504" lon="5.88961">
        <ele>969</ele>
        <time>2021-04-10T08:51:46Z</time>
      </trkpt>
      <trkpt lat="45.19503" lon="5.8896">
        <ele>969</ele>
        <time>2021-04-10T08:51:47Z</time>
      </trkpt>
      <trkpt lat="45.19502" lon="5.8896">
        <ele>969</ele>
        <time>2021-04-10T08:51:48Z</time>
      </trkpt>
      <trkpt lat="45.19501" lon="5.88961">
        <ele>969.2</ele>
        <time>2021-04-10T08:51:49Z</time>
      </trkpt>
      <trkpt lat="45.195" lon="5.88962">
        <ele>969.4</ele>
        <time>2021-04-10T08:51:50Z</time>
      </trkpt>
      <trkpt lat="45.19499" lon="5.88963">
        <ele>969.6</ele>
        <time>2021-04-10T08:51:51Z</time>
      </trkpt>
      <trkpt lat="45.19498" lon="5.88964">
        <ele>970</ele>
        <time>2021-04-10T08:51:52Z</time>
      </trkpt>
      <trkpt lat="45.19497" lon="5.88965">
        <ele>970</ele>
        <time>2021-04-10T08:51:53Z</time>
      </trkpt>
      <trkpt lat="45.19496" lon="5.88966">
        <ele>970.2</ele>
        <time>2021-04-10T08:51:54Z</time>
      </trkpt>
      <trkpt lat="45.19496" lon="5.88967">
        <ele>970.4</ele>
        <time>2021-04-10T08:51:55Z</time>
      </trkpt>
      <trkpt lat="45.19495" lon="5.88968">
        <ele>970.6</ele>
        <time>2021-04-10T08:51:56Z</time>
      </trkpt>
      <trkpt lat="45.19494" lon="5.88969">
        <ele>970.8</ele>
        <time>2021-04-10T08:51:57Z</time>
      </trkpt>
      <trkpt lat="45.19493" lon="5.88971">
        <ele>971.2</ele>
        <time>2021-04-10T08:51:58Z</time>
      </trkpt>
      <trkpt lat="45.19492" lon="5.88973">
        <ele>971.6</ele>
        <time>2021-04-10T08:51:59Z</time>
      </trkpt>
      <trkpt lat="45.19492" lon="5.88975">
        <ele>971.8</ele>
        <time>2021-04-10T08:52:00Z</time>
      </trkpt>
      <trkpt lat="45.19491" lon="5.88977">
        <ele>971.8</ele>
        <time>2021-04-10T08:52:01Z</time>
      </trkpt>
      <trkpt lat="45.1949" lon="5.88979">
        <ele>972</ele>
        <time>2021-04-10T08:52:02Z</time>
      </trkpt>
      <trkpt lat="45.1949" lon="5.88981">
        <ele>972.2</ele>
        <time>2021-04-10T08:52:03Z</time>
      </trkpt>
      <trkpt lat="45.19489" lon="5.88982">
        <ele>972.6</ele>
        <time>2021-04-10T08:52:04Z</time>
      </trkpt>
      <trkpt lat="45.19488" lon="5.88983">
        <ele>973</ele>
        <time>2021-04-10T08:52:05Z</time>
      </trkpt>
      <trkpt lat="45.19487" lon="5.88985">
        <ele>973.2</ele>
        <time>2021-04-10T08:52:06Z</time>
      </trkpt>
      <trkpt lat="45.19486" lon="5.88986">
        <ele>973.2</ele>
        <time>2021-04-10T08:52:07Z</time>
      </trkpt>
      <trkpt lat="45.19485" lon="5.88987">
        <ele>973.6</ele>
        <time>2021-04-10T08:52:08Z</time>
      </trkpt>
      <trkpt lat="45.19484" lon="5.88988">
        <ele>973.6</ele>
        <time>2021-04-10T08:52:09Z</time>
      </trkpt>
      <trkpt lat="45.19483" lon="5.88989">
        <ele>974.2</ele>
        <time>2021-04-10T08:52:10Z</time>
      </trkpt>
      <trkpt lat="45.19482" lon="5.8899">
        <ele>974.6</ele>
        <time>2021-04-10T08:52:11Z</time>
      </trkpt>
      <trkpt lat="45.19481" lon="5.88991">
        <ele>974.8</ele>
        <time>2021-04-10T08:52:12Z</time>
      </trkpt>
      <trkpt lat="45.1948" lon="5.88991">
        <ele>975</ele>
        <time>2021-04-10T08:52:13Z</time>
      </trkpt>
      <trkpt lat="45.1948" lon="5.88992">
        <ele>975</ele>
        <time>2021-04-10T08:52:14Z</time>
      </trkpt>
      <trkpt lat="45.19479" lon="5.88993">
        <ele>975.4</ele>
        <time>2021-04-10T08:52:15Z</time>
      </trkpt>
      <trkpt lat="45.19478" lon="5.88994">
        <ele>975.4</ele>
        <time>2021-04-10T08:52:16Z</time>
      </trkpt>
      <trkpt lat="45.19477" lon="5.88995">
        <ele>975.6</ele>
        <time>2021-04-10T08:52:17Z</time>
      </trkpt>
      <trkpt lat="45.19477" lon="5.88996">
        <ele>976</ele>
        <time>2021-04-10T08:52:18Z</time>
      </trkpt>
      <trkpt lat="45.19476" lon="5.88996">
        <ele>976.2</ele>
        <time>2021-04-10T08:52:19Z</time>
      </trkpt>
      <trkpt lat="45.19475" lon="5.88997">
        <ele>976.4</ele>
        <time>2021-04-10T08:52:20Z</time>
      </trkpt>
      <trkpt lat="45.19474" lon="5.88998">
        <ele>976.8</ele>
        <time>2021-04-10T08:52:21Z</time>
      </trkpt>
      <trkpt lat="45.19474" lon="5.88999">
        <ele>977</ele>
        <time>2021-04-10T08:52:22Z</time>
      </trkpt>
      <trkpt lat="45.19473" lon="5.89">
        <ele>977.4</ele>
        <time>2021-04-10T08:52:23Z</time>
      </trkpt>
      <trkpt lat="45.19472" lon="5.89">
        <ele>977.6</ele>
        <time>2021-04-10T08:52:24Z</time>
      </trkpt>
      <trkpt lat="45.1947" lon="5.89001">
        <ele>978</ele>
        <time>2021-04-10T08:52:25Z</time>
      </trkpt>
      <trkpt lat="45.19469" lon="5.89002">
        <ele>978</ele>
        <time>2021-04-10T08:52:26Z</time>
      </trkpt>
      <trkpt lat="45.19468" lon="5.89003">
        <ele>978.2</ele>
        <time>2021-04-10T08:52:27Z</time>
      </trkpt>
      <trkpt lat="45.19467" lon="5.89004">
        <ele>978.4</ele>
        <time>2021-04-10T08:52:28Z</time>
      </trkpt>
      <trkpt lat="45.19466" lon="5.89004">
        <ele>978.6</ele>
        <time>2021-04-10T08:52:29Z</time>
      </trkpt>
      <trkpt lat="45.19465" lon="5.89005">
        <ele>978.8</ele>
        <time>2021-04-10T08:52:30Z</time>
      </trkpt>
      <trkpt lat="45.19464" lon="5.89006">
        <ele>978.8</ele>
        <time>2021-04-10T08:52:31Z</time>
      </trkpt>
      <trkpt lat="45.19464" lon="5.89007">
        <ele>979</ele>
        <time>2021-04-10T08:52:32Z</time>
      </trkpt>
      <trkpt lat="45.19463" lon="5.89008">
        <ele>979.4</ele>
        <time>2021-04-10T08:52:33Z</time>
      </trkpt>
      <trkpt lat="45.19463" lon="5.89009">
        <ele>979.6</ele>
        <time>2021-04-10T08:52:34Z</time>
      </trkpt>
      <trkpt lat="45.19462" lon="5.8901">
        <ele>979.8</ele>
        <time>2021-04-10T08:52:35Z</time>
      </trkpt>
      <trkpt lat="45.19461" lon="5.89011">
        <ele>980.2</ele>
        <time>2021-04-10T08:52:36Z</time>
      </trkpt>
      <trkpt lat="45.19461" lon="5.89012">
        <ele>980.2</ele>
        <time>2021-04-10T08:52:37Z</time>
      </trkpt>
      <trkpt lat="45.1946" lon="5.89012">
        <ele>980.2</ele>
        <time>2021-04-10T08:52:38Z</time>
      </trkpt>
      <trkpt lat="45.19459" lon="5.89013">
        <ele>980.4</ele>
        <time>2021-04-10T08:52:39Z</time>
      </trkpt>
      <trkpt lat="45.19459" lon="5.89014">
        <ele>980.6</ele>
        <time>2021-04-10T08:52:40Z</time>
      </trkpt>
      <trkpt lat="45.19458" lon="5.89015">
        <ele>980.8</ele>
        <time>2021-04-10T08:52:41Z</time>
      </trkpt>
      <trkpt lat="45.19457" lon="5.89016">
        <ele>981.2</ele>
        <time>2021-04-10T08:52:42Z</time>
      </trkpt>
      <trkpt lat="45.19456" lon="5.89017">
        <ele>981.4</ele>
        <time>2021-04-10T08:52:43Z</time>
      </trkpt>
      <trkpt lat="45.19456" lon="5.89017">
        <ele>981.6</ele>
        <time>2021-04-10T08:52:44Z</time>
      </trkpt>
      <trkpt lat="45.19455" lon="5.89018">
        <ele>981.6</ele>
        <time>2021-04-10T08:52:45Z</time>
      </trkpt>
      <trkpt lat="45.19454" lon="5.89019">
        <ele>981.8</ele>
        <time>2021-04-10T08:52:46Z</time>
      </trkpt>
      <trkpt lat="45.19454" lon="5.89019">
        <ele>982</ele>
        <time>2021-04-10T08:52:47Z</time>
      </trkpt>
      <trkpt lat="45.19453" lon="5.8902">
        <ele>982.4</ele>
        <time>2021-04-10T08:52:48Z</time>
      </trkpt>
      <trkpt lat="45.19452" lon="5.89021">
        <ele>982.6</ele>
        <time>2021-04-10T08:52:49Z</time>
      </trkpt>
      <trkpt lat="45.19451" lon="5.89022">
        <ele>983</ele>
        <time>2021-04-10T08:52:50Z</time>
      </trkpt>
      <trkpt lat="45.19451" lon="5.89022">
        <ele>983.2</ele>
        <time>2021-04-10T08:52:51Z</time>
      </trkpt>
      <trkpt lat="45.1945" lon="5.89023">
        <ele>983.2</ele>
        <time>2021-04-10T08:52:52Z</time>
      </trkpt>
      <trkpt lat="45.19449" lon="5.89024">
        <ele>983.6</ele>
        <time>2021-04-10T08:52:53Z</time>
      </trkpt>
      <trkpt lat="45.19448" lon="5.89025">
        <ele>983.8</ele>
        <time>2021-04-10T08:52:54Z</time>
      </trkpt>
      <trkpt lat="45.19448" lon="5.89025">
        <ele>984</ele>
        <time>2021-04-10T08:52:55Z</time>
      </trkpt>
      <trkpt lat="45.19447" lon="5.89026">
        <ele>984.2</ele>
        <time>2021-04-10T08:52:56Z</time>
      </trkpt>
      <trkpt lat="45.19446" lon="5.89027">
        <ele>984.2</ele>
        <time>2021-04-10T08:52:57Z</time>
      </trkpt>
      <trkpt lat="45.19445" lon="5.89028">
        <ele>984.6</ele>
        <time>2021-04-10T08:52:58Z</time>
      </trkpt>
      <trkpt lat="45.19445" lon="5.89029">
        <ele>984.8</ele>
        <time>2021-04-10T08:52:59Z</time>
      </trkpt>
      <trkpt lat="45.19444" lon="5.8903">
        <ele>984.8</ele>
        <time>2021-04-10T08:53:00Z</time>
      </trkpt>
      <trkpt lat="45.19443" lon="5.8903">
        <ele>985.2</ele>
        <time>2021-04-10T08:53:01Z</time>
      </trkpt>
      <trkpt lat="45.19442" lon="5.89032">
        <ele>985.2</ele>
        <time>2021-04-10T08:53:02Z</time>
      </trkpt>
      <trkpt lat="45.19442" lon="5.89033">
        <ele>985.2</ele>
        <time>2021-04-10T08:53:03Z</time>
      </trkpt>
      <trkpt lat="45.19441" lon="5.89034">
        <ele>985.4</ele>
        <time>2021-04-10T08:53:04Z</time>
      </trkpt>
      <trkpt lat="45.1944" lon="5.89035">
        <ele>985.4</ele>
        <time>2021-04-10T08:53:05Z</time>
      </trkpt>
      <trkpt lat="45.19439" lon="5.89036">
        <ele>985.8</ele>
        <time>2021-04-10T08:53:06Z</time>
      </trkpt>
      <trkpt lat="45.19439" lon="5.89038">
        <ele>986.2</ele>
        <time>2021-04-10T08:53:07Z</time>
      </trkpt>
      <trkpt lat="45.19438" lon="5.89039">
        <ele>986.4</ele>
        <time>2021-04-10T08:53:08Z</time>
      </trkpt>
      <trkpt lat="45.19437" lon="5.8904">
        <ele>986.6</ele>
        <time>2021-04-10T08:53:09Z</time>
      </trkpt>
      <trkpt lat="45.19437" lon="5.89041">
        <ele>986.6</ele>
        <time>2021-04-10T08:53:10Z</time>
      </trkpt>
      <trkpt lat="45.19436" lon="5.89042">
        <ele>986.6</ele>
        <time>2021-04-10T08:53:11Z</time>
      </trkpt>
      <trkpt lat="45.19436" lon="5.89043">
        <ele>986.8</ele>
        <time>2021-04-10T08:53:12Z</time>
      </trkpt>
      <trkpt lat="45.19436" lon="5.89044">
        <ele>987</ele>
        <time>2021-04-10T08:53:13Z</time>
      </trkpt>
      <trkpt lat="45.19435" lon="5.89045">
        <ele>987.6</ele>
        <time>2021-04-10T08:53:14Z</time>
      </trkpt>
      <trkpt lat="45.19435" lon="5.89046">
        <ele>987.8</ele>
        <time>2021-04-10T08:53:15Z</time>
      </trkpt>
      <trkpt lat="45.19434" lon="5.89047">
        <ele>988</ele>
        <time>2021-04-10T08:53:16Z</time>
      </trkpt>
      <trkpt lat="45.19434" lon="5.89048">
        <ele>988.2</ele>
        <time>2021-04-10T08:53:17Z</time>
      </trkpt>
      <trkpt lat="45.19433" lon="5.89049">
        <ele>988.4</ele>
        <time>2021-04-10T08:53:18Z</time>
      </trkpt>
      <trkpt lat="45.19433" lon="5.8905">
        <ele>988.8</ele>
        <time>2021-04-10T08:53:19Z</time>
      </trkpt>
      <trkpt lat="45.19433" lon="5.89051">
        <ele>989.2</ele>
        <time>2021-04-10T08:53:20Z</time>
      </trkpt>
      <trkpt lat="45.19432" lon="5.89052">
        <ele>989.6</ele>
        <time>2021-04-10T08:53:21Z</time>
      </trkpt>
      <trkpt lat="45.19432" lon="5.89053">
        <ele>989.8</ele>
        <time>2021-04-10T08:53:22Z</time>
      </trkpt>
      <trkpt lat="45.19431" lon="5.89054">
        <ele>989.8</ele>
        <time>2021-04-10T08:53:23Z</time>
      </trkpt>
      <trkpt lat="45.19431" lon="5.89055">
        <ele>990</ele>
        <time>2021-04-10T08:53:24Z</time>
      </trkpt>
      <trkpt lat="45.19431" lon="5.89056">
        <ele>990.2</ele>
        <time>2021-04-10T08:53:25Z</time>
      </trkpt>
      <trkpt lat="45.19431" lon="5.89057">
        <ele>990</ele>
        <time>2021-04-10T08:53:26Z</time>
      </trkpt>
      <trkpt lat="45.1943" lon="5.89058">
        <ele>990.2</ele>
        <time>2021-04-10T08:53:27Z</time>
      </trkpt>
      <trkpt lat="45.1943" lon="5.8906">
        <ele>990.4</ele>
        <time>2021-04-10T08:53:28Z</time>
      </trkpt>
      <trkpt lat="45.1943" lon="5.89061">
        <ele>990.8</ele>
        <time>2021-04-10T08:53:29Z</time>
      </trkpt>
      <trkpt lat="45.19429" lon="5.89062">
        <ele>991.2</ele>
        <time>2021-04-10T08:53:30Z</time>
      </trkpt>
      <trkpt lat="45.19429" lon="5.89063">
        <ele>991.6</ele>
        <time>2021-04-10T08:53:31Z</time>
      </trkpt>
      <trkpt lat="45.19429" lon="5.89064">
        <ele>991.8</ele>
        <time>2021-04-10T08:53:32Z</time>
      </trkpt>
      <trkpt lat="45.19429" lon="5.89065">
        <ele>991.8</ele>
        <time>2021-04-10T08:53:33Z</time>
      </trkpt>
      <trkpt lat="45.19428" lon="5.89066">
        <ele>992</ele>
        <time>2021-04-10T08:53:34Z</time>
      </trkpt>
      <trkpt lat="45.19428" lon="5.89067">
        <ele>992</ele>
        <time>2021-04-10T08:53:35Z</time>
      </trkpt>
      <trkpt lat="45.19427" lon="5.89069">
        <ele>992.4</ele>
        <time>2021-04-10T08:53:36Z</time>
      </trkpt>
      <trkpt lat="45.19426" lon="5.8907">
        <ele>992.6</ele>
        <time>2021-04-10T08:53:37Z</time>
      </trkpt>
      <trkpt lat="45.19426" lon="5.89071">
        <ele>992.8</ele>
        <time>2021-04-10T08:53:38Z</time>
      </trkpt>
      <trkpt lat="45.19425" lon="5.89072">
        <ele>993</ele>
        <time>2021-04-10T08:53:39Z</time>
      </trkpt>
      <trkpt lat="45.19425" lon="5.89073">
        <ele>993</ele>
        <time>2021-04-10T08:53:40Z</time>
      </trkpt>
      <trkpt lat="45.19424" lon="5.89074">
        <ele>993.2</ele>
        <time>2021-04-10T08:53:41Z</time>
      </trkpt>
      <trkpt lat="45.19423" lon="5.89075">
        <ele>993.2</ele>
        <time>2021-04-10T08:53:42Z</time>
      </trkpt>
      <trkpt lat="45.19423" lon="5.89076">
        <ele>993.4</ele>
        <time>2021-04-10T08:53:43Z</time>
      </trkpt>
      <trkpt lat="45.19422" lon="5.89078">
        <ele>993.8</ele>
        <time>2021-04-10T08:53:44Z</time>
      </trkpt>
      <trkpt lat="45.19422" lon="5.89078">
        <ele>994</ele>
        <time>2021-04-10T08:53:45Z</time>
      </trkpt>
      <trkpt lat="45.19421" lon="5.89079">
        <ele>994.2</ele>
        <time>2021-04-10T08:53:46Z</time>
      </trkpt>
      <trkpt lat="45.1942" lon="5.8908">
        <ele>994.4</ele>
        <time>2021-04-10T08:53:47Z</time>
      </trkpt>
      <trkpt lat="45.1942" lon="5.89081">
        <ele>994.8</ele>
        <time>2021-04-10T08:53:48Z</time>
      </trkpt>
      <trkpt lat="45.19419" lon="5.89081">
        <ele>995</ele>
        <time>2021-04-10T08:53:49Z</time>
      </trkpt>
      <trkpt lat="45.19418" lon="5.89082">
        <ele>995.4</ele>
        <time>2021-04-10T08:53:50Z</time>
      </trkpt>
      <trkpt lat="45.19418" lon="5.89083">
        <ele>995.6</ele>
        <time>2021-04-10T08:53:51Z</time>
      </trkpt>
      <trkpt lat="45.19417" lon="5.89084">
        <ele>995.8</ele>
        <time>2021-04-10T08:53:52Z</time>
      </trkpt>
      <trkpt lat="45.19416" lon="5.89084">
        <ele>996.2</ele>
        <time>2021-04-10T08:53:53Z</time>
      </trkpt>
      <trkpt lat="45.19416" lon="5.89085">
        <ele>996.8</ele>
        <time>2021-04-10T08:53:54Z</time>
      </trkpt>
      <trkpt lat="45.19415" lon="5.89086">
        <ele>997.2</ele>
        <time>2021-04-10T08:53:55Z</time>
      </trkpt>
      <trkpt lat="45.19414" lon="5.89087">
        <ele>997.8</ele>
        <time>2021-04-10T08:53:56Z</time>
      </trkpt>
      <trkpt lat="45.19413" lon="5.89087">
        <ele>998</ele>
        <time>2021-04-10T08:53:57Z</time>
      </trkpt>
      <trkpt lat="45.19412" lon="5.89088">
        <ele>998</ele>
        <time>2021-04-10T08:53:58Z</time>
      </trkpt>
      <trkpt lat="45.19412" lon="5.89088">
        <ele>998</ele>
        <time>2021-04-10T08:53:59Z</time>
      </trkpt>
      <trkpt lat="45.19411" lon="5.89089">
        <ele>998.2</ele>
        <time>2021-04-10T08:54:00Z</time>
      </trkpt>
      <trkpt lat="45.1941" lon="5.8909">
        <ele>998.6</ele>
        <time>2021-04-10T08:54:01Z</time>
      </trkpt>
      <trkpt lat="45.19409" lon="5.8909">
        <ele>998.6</ele>
        <time>2021-04-10T08:54:02Z</time>
      </trkpt>
      <trkpt lat="45.19408" lon="5.89091">
        <ele>998.8</ele>
        <time>2021-04-10T08:54:03Z</time>
      </trkpt>
      <trkpt lat="45.19407" lon="5.89092">
        <ele>998.8</ele>
        <time>2021-04-10T08:54:04Z</time>
      </trkpt>
      <trkpt lat="45.19406" lon="5.89092">
        <ele>999</ele>
        <time>2021-04-10T08:54:05Z</time>
      </trkpt>
      <trkpt lat="45.19405" lon="5.89093">
        <ele>999.4</ele>
        <time>2021-04-10T08:54:06Z</time>
      </trkpt>
      <trkpt lat="45.19404" lon="5.89093">
        <ele>999.8</ele>
        <time>2021-04-10T08:54:07Z</time>
      </trkpt>
      <trkpt lat="45.19402" lon="5.89094">
        <ele>1000.4</ele>
        <time>2021-04-10T08:54:08Z</time>
      </trkpt>
      <trkpt lat="45.19401" lon="5.89094">
        <ele>1000.8</ele>
        <time>2021-04-10T08:54:09Z</time>
      </trkpt>
      <trkpt lat="45.19399" lon="5.89095">
        <ele>1001.2</ele>
        <time>2021-04-10T08:54:10Z</time>
      </trkpt>
      <trkpt lat="45.19398" lon="5.89095">
        <ele>1001.4</ele>
        <time>2021-04-10T08:54:11Z</time>
      </trkpt>
      <trkpt lat="45.19397" lon="5.89096">
        <ele>1001.4</ele>
        <time>2021-04-10T08:54:12Z</time>
      </trkpt>
      <trkpt lat="45.19395" lon="5.89097">
        <ele>1001.6</ele>
        <time>2021-04-10T08:54:13Z</time>
      </trkpt>
      <trkpt lat="45.19393" lon="5.89098">
        <ele>1001.8</ele>
        <time>2021-04-10T08:54:14Z</time>
      </trkpt>
      <trkpt lat="45.19392" lon="5.89099">
        <ele>1002</ele>
        <time>2021-04-10T08:54:15Z</time>
      </trkpt>
      <trkpt lat="45.1939" lon="5.891">
        <ele>1002.2</ele>
        <time>2021-04-10T08:54:16Z</time>
      </trkpt>
      <trkpt lat="45.19388" lon="5.89101">
        <ele>1002.4</ele>
        <time>2021-04-10T08:54:17Z</time>
      </trkpt>
      <trkpt lat="45.19388" lon="5.89102">
        <ele>1002.8</ele>
        <time>2021-04-10T08:54:18Z</time>
      </trkpt>
      <trkpt lat="45.19387" lon="5.89103">
        <ele>1003</ele>
        <time>2021-04-10T08:54:19Z</time>
      </trkpt>
      <trkpt lat="45.19386" lon="5.89104">
        <ele>1003</ele>
        <time>2021-04-10T08:54:20Z</time>
      </trkpt>
      <trkpt lat="45.19386" lon="5.89106">
        <ele>1003.4</ele>
        <time>2021-04-10T08:54:21Z</time>
      </trkpt>
      <trkpt lat="45.19385" lon="5.89107">
        <ele>1003.8</ele>
        <time>2021-04-10T08:54:22Z</time>
      </trkpt>
      <trkpt lat="45.19385" lon="5.89108">
        <ele>1004</ele>
        <time>2021-04-10T08:54:23Z</time>
      </trkpt>
      <trkpt lat="45.19384" lon="5.89109">
        <ele>1004.2</ele>
        <time>2021-04-10T08:54:24Z</time>
      </trkpt>
      <trkpt lat="45.19384" lon="5.8911">
        <ele>1004.6</ele>
        <time>2021-04-10T08:54:25Z</time>
      </trkpt>
      <trkpt lat="45.19383" lon="5.89111">
        <ele>1005</ele>
        <time>2021-04-10T08:54:26Z</time>
      </trkpt>
      <trkpt lat="45.19382" lon="5.89112">
        <ele>1004.8</ele>
        <time>2021-04-10T08:54:27Z</time>
      </trkpt>
      <trkpt lat="45.19382" lon="5.89113">
        <ele>1005</ele>
        <time>2021-04-10T08:54:28Z</time>
      </trkpt>
      <trkpt lat="45.19381" lon="5.89114">
        <ele>1004.8</ele>
        <time>2021-04-10T08:54:29Z</time>
      </trkpt>
      <trkpt lat="45.19381" lon="5.89115">
        <ele>1005</ele>
        <time>2021-04-10T08:54:30Z</time>
      </trkpt>
      <trkpt lat="45.19381" lon="5.89116">
        <ele>1005.2</ele>
        <time>2021-04-10T08:54:31Z</time>
      </trkpt>
      <trkpt lat="45.1938" lon="5.89117">
        <ele>1005.6</ele>
        <time>2021-04-10T08:54:32Z</time>
      </trkpt>
      <trkpt lat="45.1938" lon="5.89118">
        <ele>1006</ele>
        <time>2021-04-10T08:54:33Z</time>
      </trkpt>
      <trkpt lat="45.19379" lon="5.89119">
        <ele>1006.4</ele>
        <time>2021-04-10T08:54:34Z</time>
      </trkpt>
      <trkpt lat="45.19379" lon="5.8912">
        <ele>1006.6</ele>
        <time>2021-04-10T08:54:35Z</time>
      </trkpt>
      <trkpt lat="45.19378" lon="5.89121">
        <ele>1006.6</ele>
        <time>2021-04-10T08:54:36Z</time>
      </trkpt>
      <trkpt lat="45.19378" lon="5.89122">
        <ele>1006.6</ele>
        <time>2021-04-10T08:54:37Z</time>
      </trkpt>
      <trkpt lat="45.19377" lon="5.89123">
        <ele>1007</ele>
        <time>2021-04-10T08:54:38Z</time>
      </trkpt>
      <trkpt lat="45.19377" lon="5.89124">
        <ele>1007.4</ele>
        <time>2021-04-10T08:54:39Z</time>
      </trkpt>
      <trkpt lat="45.19376" lon="5.89126">
        <ele>1007.6</ele>
        <time>2021-04-10T08:54:40Z</time>
      </trkpt>
      <trkpt lat="45.19376" lon="5.89127">
        <ele>1007.8</ele>
        <time>2021-04-10T08:54:41Z</time>
      </trkpt>
      <trkpt lat="45.19376" lon="5.89129">
        <ele>1008</ele>
        <time>2021-04-10T08:54:42Z</time>
      </trkpt>
      <trkpt lat="45.19375" lon="5.8913">
        <ele>1008</ele>
        <time>2021-04-10T08:54:43Z</time>
      </trkpt>
      <trkpt lat="45.19375" lon="5.89132">
        <ele>1008.4</ele>
        <time>2021-04-10T08:54:44Z</time>
      </trkpt>
      <trkpt lat="45.19374" lon="5.89133">
        <ele>1008.6</ele>
        <time>2021-04-10T08:54:45Z</time>
      </trkpt>
      <trkpt lat="45.19374" lon="5.89134">
        <ele>1008.6</ele>
        <time>2021-04-10T08:54:46Z</time>
      </trkpt>
      <trkpt lat="45.19373" lon="5.89136">
        <ele>1008.8</ele>
        <time>2021-04-10T08:54:47Z</time>
      </trkpt>
      <trkpt lat="45.19373" lon="5.89137">
        <ele>1009.2</ele>
        <time>2021-04-10T08:54:48Z</time>
      </trkpt>
      <trkpt lat="45.19372" lon="5.89137">
        <ele>1009.4</ele>
        <time>2021-04-10T08:54:49Z</time>
      </trkpt>
      <trkpt lat="45.19371" lon="5.89138">
        <ele>1009.6</ele>
        <time>2021-04-10T08:54:50Z</time>
      </trkpt>
      <trkpt lat="45.1937" lon="5.89138">
        <ele>1009.8</ele>
        <time>2021-04-10T08:54:51Z</time>
      </trkpt>
      <trkpt lat="45.1937" lon="5.89139">
        <ele>1010.2</ele>
        <time>2021-04-10T08:54:52Z</time>
      </trkpt>
      <trkpt lat="45.19369" lon="5.8914">
        <ele>1010.4</ele>
        <time>2021-04-10T08:54:53Z</time>
      </trkpt>
      <trkpt lat="45.19368" lon="5.8914">
        <ele>1010.6</ele>
        <time>2021-04-10T08:54:54Z</time>
      </trkpt>
      <trkpt lat="45.19368" lon="5.89141">
        <ele>1010.8</ele>
        <time>2021-04-10T08:54:55Z</time>
      </trkpt>
      <trkpt lat="45.19367" lon="5.89142">
        <ele>1011</ele>
        <time>2021-04-10T08:54:56Z</time>
      </trkpt>
      <trkpt lat="45.19366" lon="5.89142">
        <ele>1011.4</ele>
        <time>2021-04-10T08:54:57Z</time>
      </trkpt>
      <trkpt lat="45.19366" lon="5.89143">
        <ele>1011.6</ele>
        <time>2021-04-10T08:54:58Z</time>
      </trkpt>
      <trkpt lat="45.19365" lon="5.89144">
        <ele>1011.8</ele>
        <time>2021-04-10T08:54:59Z</time>
      </trkpt>
      <trkpt lat="45.19364" lon="5.89144">
        <ele>1012</ele>
        <time>2021-04-10T08:55:00Z</time>
      </trkpt>
      <trkpt lat="45.19363" lon="5.89145">
        <ele>1012.4</ele>
        <time>2021-04-10T08:55:01Z</time>
      </trkpt>
      <trkpt lat="45.19362" lon="5.89146">
        <ele>1012.6</ele>
        <time>2021-04-10T08:55:02Z</time>
      </trkpt>
      <trkpt lat="45.19362" lon="5.89147">
        <ele>1012.6</ele>
        <time>2021-04-10T08:55:03Z</time>
      </trkpt>
      <trkpt lat="45.19361" lon="5.89148">
        <ele>1012.8</ele>
        <time>2021-04-10T08:55:04Z</time>
      </trkpt>
      <trkpt lat="45.1936" lon="5.89149">
        <ele>1013</ele>
        <time>2021-04-10T08:55:05Z</time>
      </trkpt>
      <trkpt lat="45.19359" lon="5.8915">
        <ele>1013.2</ele>
        <time>2021-04-10T08:55:06Z</time>
      </trkpt>
      <trkpt lat="45.19358" lon="5.89151">
        <ele>1013.4</ele>
        <time>2021-04-10T08:55:07Z</time>
      </trkpt>
      <trkpt lat="45.19357" lon="5.89152">
        <ele>1013.8</ele>
        <time>2021-04-10T08:55:08Z</time>
      </trkpt>
      <trkpt lat="45.19357" lon="5.89153">
        <ele>1014</ele>
        <time>2021-04-10T08:55:09Z</time>
      </trkpt>
      <trkpt lat="45.19356" lon="5.89154">
        <ele>1014.4</ele>
        <time>2021-04-10T08:55:10Z</time>
      </trkpt>
      <trkpt lat="45.19355" lon="5.89155">
        <ele>1014.6</ele>
        <time>2021-04-10T08:55:11Z</time>
      </trkpt>
      <trkpt lat="45.19355" lon="5.89156">
        <ele>1015</ele>
        <time>2021-04-10T08:55:12Z</time>
      </trkpt>
      <trkpt lat="45.19354" lon="5.89157">
        <ele>1015.2</ele>
        <time>2021-04-10T08:55:13Z</time>
      </trkpt>
      <trkpt lat="45.19353" lon="5.89158">
        <ele>1015.4</ele>
        <time>2021-04-10T08:55:14Z</time>
      </trkpt>
      <trkpt lat="45.19352" lon="5.89159">
        <ele>1015.6</ele>
        <time>2021-04-10T08:55:15Z</time>
      </trkpt>
      <trkpt lat="45.19352" lon="5.8916">
        <ele>1015.8</ele>
        <time>2021-04-10T08:55:16Z</time>
      </trkpt>
      <trkpt lat="45.19351" lon="5.89161">
        <ele>1016</ele>
        <time>2021-04-10T08:55:17Z</time>
      </trkpt>
      <trkpt lat="45.1935" lon="5.89163">
        <ele>1016.2</ele>
        <time>2021-04-10T08:55:18Z</time>
      </trkpt>
      <trkpt lat="45.1935" lon="5.89164">
        <ele>1016.4</ele>
        <time>2021-04-10T08:55:19Z</time>
      </trkpt>
      <trkpt lat="45.19349" lon="5.89164">
        <ele>1016.6</ele>
        <time>2021-04-10T08:55:20Z</time>
      </trkpt>
      <trkpt lat="45.19348" lon="5.89165">
        <ele>1016.6</ele>
        <time>2021-04-10T08:55:21Z</time>
      </trkpt>
      <trkpt lat="45.19347" lon="5.89166">
        <ele>1016.8</ele>
        <time>2021-04-10T08:55:22Z</time>
      </trkpt>
      <trkpt lat="45.19347" lon="5.89167">
        <ele>1017.2</ele>
        <time>2021-04-10T08:55:23Z</time>
      </trkpt>
      <trkpt lat="45.19346" lon="5.89167">
        <ele>1017.4</ele>
        <time>2021-04-10T08:55:24Z</time>
      </trkpt>
      <trkpt lat="45.19345" lon="5.89168">
        <ele>1017.8</ele>
        <time>2021-04-10T08:55:25Z</time>
      </trkpt>
      <trkpt lat="45.19345" lon="5.89169">
        <ele>1017.8</ele>
        <time>2021-04-10T08:55:26Z</time>
      </trkpt>
      <trkpt lat="45.19344" lon="5.8917">
        <ele>1018.2</ele>
        <time>2021-04-10T08:55:27Z</time>
      </trkpt>
      <trkpt lat="45.19343" lon="5.8917">
        <ele>1018.4</ele>
        <time>2021-04-10T08:55:28Z</time>
      </trkpt>
      <trkpt lat="45.19343" lon="5.89171">
        <ele>1018.8</ele>
        <time>2021-04-10T08:55:29Z</time>
      </trkpt>
      <trkpt lat="45.19342" lon="5.89172">
        <ele>1019</ele>
        <time>2021-04-10T08:55:30Z</time>
      </trkpt>
      <trkpt lat="45.19341" lon="5.89173">
        <ele>1018.8</ele>
        <time>2021-04-10T08:55:31Z</time>
      </trkpt>
      <trkpt lat="45.19341" lon="5.89174">
        <ele>1018.8</ele>
        <time>2021-04-10T08:55:32Z</time>
      </trkpt>
      <trkpt lat="45.1934" lon="5.89176">
        <ele>1019</ele>
        <time>2021-04-10T08:55:33Z</time>
      </trkpt>
      <trkpt lat="45.19339" lon="5.89177">
        <ele>1019.2</ele>
        <time>2021-04-10T08:55:34Z</time>
      </trkpt>
      <trkpt lat="45.19338" lon="5.89179">
        <ele>1019.4</ele>
        <time>2021-04-10T08:55:35Z</time>
      </trkpt>
      <trkpt lat="45.19338" lon="5.89181">
        <ele>1019.6</ele>
        <time>2021-04-10T08:55:36Z</time>
      </trkpt>
      <trkpt lat="45.19337" lon="5.89182">
        <ele>1019.8</ele>
        <time>2021-04-10T08:55:37Z</time>
      </trkpt>
      <trkpt lat="45.19336" lon="5.89184">
        <ele>1019.8</ele>
        <time>2021-04-10T08:55:38Z</time>
      </trkpt>
      <trkpt lat="45.19335" lon="5.89185">
        <ele>1019.8</ele>
        <time>2021-04-10T08:55:39Z</time>
      </trkpt>
      <trkpt lat="45.19334" lon="5.89186">
        <ele>1020.2</ele>
        <time>2021-04-10T08:55:40Z</time>
      </trkpt>
      <trkpt lat="45.19333" lon="5.89187">
        <ele>1020.4</ele>
        <time>2021-04-10T08:55:41Z</time>
      </trkpt>
      <trkpt lat="45.19332" lon="5.89188">
        <ele>1020.6</ele>
        <time>2021-04-10T08:55:42Z</time>
      </trkpt>
      <trkpt lat="45.19331" lon="5.89189">
        <ele>1020.8</ele>
        <time>2021-04-10T08:55:43Z</time>
      </trkpt>
      <trkpt lat="45.1933" lon="5.8919">
        <ele>1021</ele>
        <time>2021-04-10T08:55:44Z</time>
      </trkpt>
      <trkpt lat="45.19328" lon="5.89191">
        <ele>1021.2</ele>
        <time>2021-04-10T08:55:45Z</time>
      </trkpt>
      <trkpt lat="45.19327" lon="5.89192">
        <ele>1021.4</ele>
        <time>2021-04-10T08:55:46Z</time>
      </trkpt>
      <trkpt lat="45.19326" lon="5.89193">
        <ele>1021.6</ele>
        <time>2021-04-10T08:55:47Z</time>
      </trkpt>
      <trkpt lat="45.19325" lon="5.89193">
        <ele>1021.8</ele>
        <time>2021-04-10T08:55:48Z</time>
      </trkpt>
      <trkpt lat="45.19324" lon="5.89194">
        <ele>1022.2</ele>
        <time>2021-04-10T08:55:49Z</time>
      </trkpt>
      <trkpt lat="45.19324" lon="5.89194">
        <ele>1022.4</ele>
        <time>2021-04-10T08:55:50Z</time>
      </trkpt>
      <trkpt lat="45.19323" lon="5.89194">
        <ele>1022.8</ele>
        <time>2021-04-10T08:55:51Z</time>
      </trkpt>
      <trkpt lat="45.19322" lon="5.89195">
        <ele>1022.8</ele>
        <time>2021-04-10T08:55:52Z</time>
      </trkpt>
      <trkpt lat="45.19321" lon="5.89195">
        <ele>1023</ele>
        <time>2021-04-10T08:55:53Z</time>
      </trkpt>
      <trkpt lat="45.19321" lon="5.89195">
        <ele>1023</ele>
        <time>2021-04-10T08:55:54Z</time>
      </trkpt>
      <trkpt lat="45.1932" lon="5.89196">
        <ele>1023.2</ele>
        <time>2021-04-10T08:55:55Z</time>
      </trkpt>
      <trkpt lat="45.19319" lon="5.89196">
        <ele>1023.4</ele>
        <time>2021-04-10T08:55:56Z</time>
      </trkpt>
      <trkpt lat="45.19318" lon="5.89197">
        <ele>1023.8</ele>
        <time>2021-04-10T08:55:57Z</time>
      </trkpt>
      <trkpt lat="45.19318" lon="5.89197">
        <ele>1024.2</ele>
        <time>2021-04-10T08:55:58Z</time>
      </trkpt>
      <trkpt lat="45.19317" lon="5.89197">
        <ele>1024.4</ele>
        <time>2021-04-10T08:55:59Z</time>
      </trkpt>
      <trkpt lat="45.19316" lon="5.89198">
        <ele>1024.6</ele>
        <time>2021-04-10T08:56:00Z</time>
      </trkpt>
      <trkpt lat="45.19315" lon="5.89199">
        <ele>1024.6</ele>
        <time>2021-04-10T08:56:01Z</time>
      </trkpt>
      <trkpt lat="45.19314" lon="5.89199">
        <ele>1024.8</ele>
        <time>2021-04-10T08:56:02Z</time>
      </trkpt>
      <trkpt lat="45.19314" lon="5.892">
        <ele>1025</ele>
        <time>2021-04-10T08:56:03Z</time>
      </trkpt>
      <trkpt lat="45.19313" lon="5.89201">
        <ele>1025.4</ele>
        <time>2021-04-10T08:56:04Z</time>
      </trkpt>
      <trkpt lat="45.19312" lon="5.89201">
        <ele>1025.8</ele>
        <time>2021-04-10T08:56:05Z</time>
      </trkpt>
      <trkpt lat="45.19311" lon="5.89202">
        <ele>1026</ele>
        <time>2021-04-10T08:56:06Z</time>
      </trkpt>
      <trkpt lat="45.1931" lon="5.89203">
        <ele>1026.2</ele>
        <time>2021-04-10T08:56:07Z</time>
      </trkpt>
      <trkpt lat="45.19309" lon="5.89204">
        <ele>1026.4</ele>
        <time>2021-04-10T08:56:08Z</time>
      </trkpt>
      <trkpt lat="45.19308" lon="5.89204">
        <ele>1026.6</ele>
        <time>2021-04-10T08:56:09Z</time>
      </trkpt>
      <trkpt lat="45.19307" lon="5.89205">
        <ele>1026.8</ele>
        <time>2021-04-10T08:56:10Z</time>
      </trkpt>
      <trkpt lat="45.19306" lon="5.89206">
        <ele>1027</ele>
        <time>2021-04-10T08:56:11Z</time>
      </trkpt>
      <trkpt lat="45.19305" lon="5.89207">
        <ele>1027.2</ele>
        <time>2021-04-10T08:56:12Z</time>
      </trkpt>
      <trkpt lat="45.19304" lon="5.89207">
        <ele>1027.6</ele>
        <time>2021-04-10T08:56:13Z</time>
      </trkpt>
      <trkpt lat="45.19303" lon="5.89208">
        <ele>1027.8</ele>
        <time>2021-04-10T08:56:14Z</time>
      </trkpt>
      <trkpt lat="45.19301" lon="5.89209">
        <ele>1028</ele>
        <time>2021-04-10T08:56:15Z</time>
      </trkpt>
      <trkpt lat="45.193" lon="5.8921">
        <ele>1028</ele>
        <time>2021-04-10T08:56:16Z</time>
      </trkpt>
      <trkpt lat="45.19299" lon="5.8921">
        <ele>1028.2</ele>
        <time>2021-04-10T08:56:17Z</time>
      </trkpt>
      <trkpt lat="45.19298" lon="5.89211">
        <ele>1028.6</ele>
        <time>2021-04-10T08:56:18Z</time>
      </trkpt>
      <trkpt lat="45.19298" lon="5.89211">
        <ele>1029</ele>
        <time>2021-04-10T08:56:19Z</time>
      </trkpt>
      <trkpt lat="45.19297" lon="5.89212">
        <ele>1029.2</ele>
        <time>2021-04-10T08:56:20Z</time>
      </trkpt>
      <trkpt lat="45.19296" lon="5.89212">
        <ele>1029.2</ele>
        <time>2021-04-10T08:56:21Z</time>
      </trkpt>
      <trkpt lat="45.19295" lon="5.89213">
        <ele>1029.4</ele>
        <time>2021-04-10T08:56:22Z</time>
      </trkpt>
      <trkpt lat="45.19294" lon="5.89213">
        <ele>1029.6</ele>
        <time>2021-04-10T08:56:23Z</time>
      </trkpt>
      <trkpt lat="45.19293" lon="5.89213">
        <ele>1029.8</ele>
        <time>2021-04-10T08:56:24Z</time>
      </trkpt>
      <trkpt lat="45.19293" lon="5.89214">
        <ele>1029.8</ele>
        <time>2021-04-10T08:56:25Z</time>
      </trkpt>
      <trkpt lat="45.19292" lon="5.89214">
        <ele>1030</ele>
        <time>2021-04-10T08:56:26Z</time>
      </trkpt>
      <trkpt lat="45.19291" lon="5.89215">
        <ele>1030.2</ele>
        <time>2021-04-10T08:56:27Z</time>
      </trkpt>
      <trkpt lat="45.1929" lon="5.89215">
        <ele>1030.4</ele>
        <time>2021-04-10T08:56:28Z</time>
      </trkpt>
      <trkpt lat="45.19289" lon="5.89216">
        <ele>1030.6</ele>
        <time>2021-04-10T08:56:29Z</time>
      </trkpt>
      <trkpt lat="45.19288" lon="5.89217">
        <ele>1030.8</ele>
        <time>2021-04-10T08:56:30Z</time>
      </trkpt>
      <trkpt lat="45.19287" lon="5.89218">
        <ele>1031</ele>
        <time>2021-04-10T08:56:31Z</time>
      </trkpt>
      <trkpt lat="45.19286" lon="5.89219">
        <ele>1031.2</ele>
        <time>2021-04-10T08:56:32Z</time>
      </trkpt>
      <trkpt lat="45.19285" lon="5.8922">
        <ele>1031.6</ele>
        <time>2021-04-10T08:56:33Z</time>
      </trkpt>
      <trkpt lat="45.19284" lon="5.89221">
        <ele>1032</ele>
        <time>2021-04-10T08:56:34Z</time>
      </trkpt>
      <trkpt lat="45.19283" lon="5.89222">
        <ele>1032.2</ele>
        <time>2021-04-10T08:56:35Z</time>
      </trkpt>
      <trkpt lat="45.19282" lon="5.89222">
        <ele>1032.4</ele>
        <time>2021-04-10T08:56:36Z</time>
      </trkpt>
      <trkpt lat="45.19281" lon="5.89223">
        <ele>1032.6</ele>
        <time>2021-04-10T08:56:37Z</time>
      </trkpt>
      <trkpt lat="45.1928" lon="5.89224">
        <ele>1032.6</ele>
        <time>2021-04-10T08:56:38Z</time>
      </trkpt>
      <trkpt lat="45.19278" lon="5.89225">
        <ele>1032.8</ele>
        <time>2021-04-10T08:56:39Z</time>
      </trkpt>
      <trkpt lat="45.19277" lon="5.89226">
        <ele>1032.8</ele>
        <time>2021-04-10T08:56:40Z</time>
      </trkpt>
      <trkpt lat="45.19276" lon="5.89227">
        <ele>1033</ele>
        <time>2021-04-10T08:56:41Z</time>
      </trkpt>
      <trkpt lat="45.19275" lon="5.89228">
        <ele>1033</ele>
        <time>2021-04-10T08:56:42Z</time>
      </trkpt>
      <trkpt lat="45.19274" lon="5.89229">
        <ele>1033.4</ele>
        <time>2021-04-10T08:56:43Z</time>
      </trkpt>
      <trkpt lat="45.19272" lon="5.89229">
        <ele>1033.6</ele>
        <time>2021-04-10T08:56:44Z</time>
      </trkpt>
      <trkpt lat="45.19272" lon="5.89231">
        <ele>1034</ele>
        <time>2021-04-10T08:56:45Z</time>
      </trkpt>
      <trkpt lat="45.19271" lon="5.89232">
        <ele>1034.2</ele>
        <time>2021-04-10T08:56:46Z</time>
      </trkpt>
      <trkpt lat="45.1927" lon="5.89234">
        <ele>1034.6</ele>
        <time>2021-04-10T08:56:47Z</time>
      </trkpt>
      <trkpt lat="45.19269" lon="5.89235">
        <ele>1034.8</ele>
        <time>2021-04-10T08:56:48Z</time>
      </trkpt>
      <trkpt lat="45.19269" lon="5.89236">
        <ele>1034.8</ele>
        <time>2021-04-10T08:56:49Z</time>
      </trkpt>
      <trkpt lat="45.19268" lon="5.89238">
        <ele>1035</ele>
        <time>2021-04-10T08:56:50Z</time>
      </trkpt>
      <trkpt lat="45.19267" lon="5.89239">
        <ele>1035.2</ele>
        <time>2021-04-10T08:56:51Z</time>
      </trkpt>
      <trkpt lat="45.19266" lon="5.8924">
        <ele>1035.2</ele>
        <time>2021-04-10T08:56:52Z</time>
      </trkpt>
      <trkpt lat="45.19266" lon="5.89241">
        <ele>1035.4</ele>
        <time>2021-04-10T08:56:53Z</time>
      </trkpt>
      <trkpt lat="45.19265" lon="5.89242">
        <ele>1035.4</ele>
        <time>2021-04-10T08:56:54Z</time>
      </trkpt>
      <trkpt lat="45.19264" lon="5.89243">
        <ele>1035.8</ele>
        <time>2021-04-10T08:56:55Z</time>
      </trkpt>
      <trkpt lat="45.19264" lon="5.89244">
        <ele>1036</ele>
        <time>2021-04-10T08:56:56Z</time>
      </trkpt>
      <trkpt lat="45.19263" lon="5.89245">
        <ele>1036.2</ele>
        <time>2021-04-10T08:56:57Z</time>
      </trkpt>
      <trkpt lat="45.19262" lon="5.89246">
        <ele>1036.4</ele>
        <time>2021-04-10T08:56:58Z</time>
      </trkpt>
      <trkpt lat="45.19261" lon="5.89247">
        <ele>1036.6</ele>
        <time>2021-04-10T08:56:59Z</time>
      </trkpt>
      <trkpt lat="45.19261" lon="5.89247">
        <ele>1036.8</ele>
        <time>2021-04-10T08:57:00Z</time>
      </trkpt>
      <trkpt lat="45.1926" lon="5.89248">
        <ele>1037</ele>
        <time>2021-04-10T08:57:01Z</time>
      </trkpt>
      <trkpt lat="45.19259" lon="5.89249">
        <ele>1037.2</ele>
        <time>2021-04-10T08:57:02Z</time>
      </trkpt>
      <trkpt lat="45.19258" lon="5.8925">
        <ele>1037.2</ele>
        <time>2021-04-10T08:57:03Z</time>
      </trkpt>
      <trkpt lat="45.19257" lon="5.89251">
        <ele>1037.8</ele>
        <time>2021-04-10T08:57:04Z</time>
      </trkpt>
      <trkpt lat="45.19257" lon="5.89252">
        <ele>1038</ele>
        <time>2021-04-10T08:57:05Z</time>
      </trkpt>
      <trkpt lat="45.19256" lon="5.89252">
        <ele>1038.4</ele>
        <time>2021-04-10T08:57:06Z</time>
      </trkpt>
      <trkpt lat="45.19255" lon="5.89253">
        <ele>1038.4</ele>
        <time>2021-04-10T08:57:07Z</time>
      </trkpt>
      <trkpt lat="45.19254" lon="5.89254">
        <ele>1038.6</ele>
        <time>2021-04-10T08:57:08Z</time>
      </trkpt>
      <trkpt lat="45.19253" lon="5.89255">
        <ele>1038.8</ele>
        <time>2021-04-10T08:57:09Z</time>
      </trkpt>
      <trkpt lat="45.19252" lon="5.89256">
        <ele>1038.8</ele>
        <time>2021-04-10T08:57:10Z</time>
      </trkpt>
      <trkpt lat="45.19251" lon="5.89256">
        <ele>1039</ele>
        <time>2021-04-10T08:57:11Z</time>
      </trkpt>
      <trkpt lat="45.1925" lon="5.89257">
        <ele>1039.2</ele>
        <time>2021-04-10T08:57:12Z</time>
      </trkpt>
      <trkpt lat="45.19248" lon="5.89258">
        <ele>1039.6</ele>
        <time>2021-04-10T08:57:13Z</time>
      </trkpt>
      <trkpt lat="45.19246" lon="5.89259">
        <ele>1039.8</ele>
        <time>2021-04-10T08:57:14Z</time>
      </trkpt>
      <trkpt lat="45.19245" lon="5.8926">
        <ele>1040</ele>
        <time>2021-04-10T08:57:15Z</time>
      </trkpt>
      <trkpt lat="45.19243" lon="5.89261">
        <ele>1040.4</ele>
        <time>2021-04-10T08:57:16Z</time>
      </trkpt>
      <trkpt lat="45.19241" lon="5.89262">
        <ele>1040.4</ele>
        <time>2021-04-10T08:57:17Z</time>
      </trkpt>
      <trkpt lat="45.1924" lon="5.89263">
        <ele>1040.6</ele>
        <time>2021-04-10T08:57:18Z</time>
      </trkpt>
      <trkpt lat="45.19239" lon="5.89263">
        <ele>1040.6</ele>
        <time>2021-04-10T08:57:19Z</time>
      </trkpt>
      <trkpt lat="45.19238" lon="5.89264">
        <ele>1041</ele>
        <time>2021-04-10T08:57:20Z</time>
      </trkpt>
      <trkpt lat="45.19236" lon="5.89264">
        <ele>1041.4</ele>
        <time>2021-04-10T08:57:21Z</time>
      </trkpt>
      <trkpt lat="45.19235" lon="5.89265">
        <ele>1041.8</ele>
        <time>2021-04-10T08:57:22Z</time>
      </trkpt>
      <trkpt lat="45.19234" lon="5.89265">
        <ele>1042</ele>
        <time>2021-04-10T08:57:23Z</time>
      </trkpt>
      <trkpt lat="45.19232" lon="5.89266">
        <ele>1042</ele>
        <time>2021-04-10T08:57:24Z</time>
      </trkpt>
      <trkpt lat="45.19231" lon="5.89266">
        <ele>1042.4</ele>
        <time>2021-04-10T08:57:25Z</time>
      </trkpt>
      <trkpt lat="45.19231" lon="5.89267">
        <ele>1042.8</ele>
        <time>2021-04-10T08:57:26Z</time>
      </trkpt>
      <trkpt lat="45.1923" lon="5.89268">
        <ele>1043</ele>
        <time>2021-04-10T08:57:27Z</time>
      </trkpt>
      <trkpt lat="45.19229" lon="5.89268">
        <ele>1043.2</ele>
        <time>2021-04-10T08:57:28Z</time>
      </trkpt>
      <trkpt lat="45.19228" lon="5.89269">
        <ele>1043.4</ele>
        <time>2021-04-10T08:57:29Z</time>
      </trkpt>
      <trkpt lat="45.19227" lon="5.89269">
        <ele>1043.6</ele>
        <time>2021-04-10T08:57:30Z</time>
      </trkpt>
      <trkpt lat="45.19226" lon="5.8927">
        <ele>1043.8</ele>
        <time>2021-04-10T08:57:31Z</time>
      </trkpt>
      <trkpt lat="45.19225" lon="5.89271">
        <ele>1044</ele>
        <time>2021-04-10T08:57:32Z</time>
      </trkpt>
      <trkpt lat="45.19225" lon="5.89271">
        <ele>1044.2</ele>
        <time>2021-04-10T08:57:33Z</time>
      </trkpt>
      <trkpt lat="45.19224" lon="5.89272">
        <ele>1044.4</ele>
        <time>2021-04-10T08:57:34Z</time>
      </trkpt>
      <trkpt lat="45.19223" lon="5.89273">
        <ele>1044.6</ele>
        <time>2021-04-10T08:57:35Z</time>
      </trkpt>
      <trkpt lat="45.19221" lon="5.89274">
        <ele>1044.8</ele>
        <time>2021-04-10T08:57:36Z</time>
      </trkpt>
      <trkpt lat="45.1922" lon="5.89275">
        <ele>1044.8</ele>
        <time>2021-04-10T08:57:37Z</time>
      </trkpt>
      <trkpt lat="45.19219" lon="5.89276">
        <ele>1044.8</ele>
        <time>2021-04-10T08:57:38Z</time>
      </trkpt>
      <trkpt lat="45.19218" lon="5.89278">
        <ele>1044.8</ele>
        <time>2021-04-10T08:57:39Z</time>
      </trkpt>
      <trkpt lat="45.19217" lon="5.89279">
        <ele>1044.8</ele>
        <time>2021-04-10T08:57:40Z</time>
      </trkpt>
      <trkpt lat="45.19216" lon="5.8928">
        <ele>1045.2</ele>
        <time>2021-04-10T08:57:41Z</time>
      </trkpt>
      <trkpt lat="45.19215" lon="5.89281">
        <ele>1045.4</ele>
        <time>2021-04-10T08:57:42Z</time>
      </trkpt>
      <trkpt lat="45.19213" lon="5.89281">
        <ele>1045.4</ele>
        <time>2021-04-10T08:57:43Z</time>
      </trkpt>
      <trkpt lat="45.19212" lon="5.89282">
        <ele>1045.8</ele>
        <time>2021-04-10T08:57:44Z</time>
      </trkpt>
      <trkpt lat="45.19211" lon="5.89283">
        <ele>1045.8</ele>
        <time>2021-04-10T08:57:45Z</time>
      </trkpt>
      <trkpt lat="45.1921" lon="5.89284">
        <ele>1046</ele>
        <time>2021-04-10T08:57:46Z</time>
      </trkpt>
      <trkpt lat="45.19209" lon="5.89284">
        <ele>1046.2</ele>
        <time>2021-04-10T08:57:47Z</time>
      </trkpt>
      <trkpt lat="45.19207" lon="5.89285">
        <ele>1046.2</ele>
        <time>2021-04-10T08:57:48Z</time>
      </trkpt>
      <trkpt lat="45.19206" lon="5.89286">
        <ele>1046.2</ele>
        <time>2021-04-10T08:57:49Z</time>
      </trkpt>
      <trkpt lat="45.19205" lon="5.89286">
        <ele>1046.4</ele>
        <time>2021-04-10T08:57:50Z</time>
      </trkpt>
      <trkpt lat="45.19204" lon="5.89287">
        <ele>1046.4</ele>
        <time>2021-04-10T08:57:51Z</time>
      </trkpt>
      <trkpt lat="45.19203" lon="5.89288">
        <ele>1046.6</ele>
        <time>2021-04-10T08:57:52Z</time>
      </trkpt>
      <trkpt lat="45.19202" lon="5.89289">
        <ele>1046.8</ele>
        <time>2021-04-10T08:57:53Z</time>
      </trkpt>
      <trkpt lat="45.19201" lon="5.89289">
        <ele>1047</ele>
        <time>2021-04-10T08:57:54Z</time>
      </trkpt>
      <trkpt lat="45.19199" lon="5.8929">
        <ele>1047.2</ele>
        <time>2021-04-10T08:57:55Z</time>
      </trkpt>
      <trkpt lat="45.19198" lon="5.89291">
        <ele>1047.4</ele>
        <time>2021-04-10T08:57:56Z</time>
      </trkpt>
      <trkpt lat="45.19197" lon="5.89291">
        <ele>1047.4</ele>
        <time>2021-04-10T08:57:57Z</time>
      </trkpt>
      <trkpt lat="45.19196" lon="5.89292">
        <ele>1047.8</ele>
        <time>2021-04-10T08:57:58Z</time>
      </trkpt>
      <trkpt lat="45.19195" lon="5.89292">
        <ele>1048</ele>
        <time>2021-04-10T08:57:59Z</time>
      </trkpt>
      <trkpt lat="45.19193" lon="5.89293">
        <ele>1048</ele>
        <time>2021-04-10T08:58:00Z</time>
      </trkpt>
      <trkpt lat="45.19192" lon="5.89293">
        <ele>1048.2</ele>
        <time>2021-04-10T08:58:01Z</time>
      </trkpt>
      <trkpt lat="45.19191" lon="5.89293">
        <ele>1048.4</ele>
        <time>2021-04-10T08:58:02Z</time>
      </trkpt>
      <trkpt lat="45.19189" lon="5.89294">
        <ele>1048.6</ele>
        <time>2021-04-10T08:58:03Z</time>
      </trkpt>
      <trkpt lat="45.19188" lon="5.89294">
        <ele>1048.8</ele>
        <time>2021-04-10T08:58:04Z</time>
      </trkpt>
      <trkpt lat="45.19187" lon="5.89295">
        <ele>1049</ele>
        <time>2021-04-10T08:58:05Z</time>
      </trkpt>
      <trkpt lat="45.19186" lon="5.89295">
        <ele>1049</ele>
        <time>2021-04-10T08:58:06Z</time>
      </trkpt>
      <trkpt lat="45.19185" lon="5.89296">
        <ele>1049.2</ele>
        <time>2021-04-10T08:58:07Z</time>
      </trkpt>
      <trkpt lat="45.19183" lon="5.89296">
        <ele>1049.2</ele>
        <time>2021-04-10T08:58:08Z</time>
      </trkpt>
      <trkpt lat="45.19182" lon="5.89297">
        <ele>1049.2</ele>
        <time>2021-04-10T08:58:09Z</time>
      </trkpt>
      <trkpt lat="45.19181" lon="5.89297">
        <ele>1049.4</ele>
        <time>2021-04-10T08:58:10Z</time>
      </trkpt>
      <trkpt lat="45.1918" lon="5.89298">
        <ele>1049.6</ele>
        <time>2021-04-10T08:58:11Z</time>
      </trkpt>
      <trkpt lat="45.19179" lon="5.89298">
        <ele>1049.8</ele>
        <time>2021-04-10T08:58:12Z</time>
      </trkpt>
      <trkpt lat="45.19177" lon="5.89299">
        <ele>1050</ele>
        <time>2021-04-10T08:58:13Z</time>
      </trkpt>
      <trkpt lat="45.19176" lon="5.893">
        <ele>1050.2</ele>
        <time>2021-04-10T08:58:14Z</time>
      </trkpt>
      <trkpt lat="45.19175" lon="5.89301">
        <ele>1050.8</ele>
        <time>2021-04-10T08:58:15Z</time>
      </trkpt>
      <trkpt lat="45.19173" lon="5.89302">
        <ele>1050.8</ele>
        <time>2021-04-10T08:58:16Z</time>
      </trkpt>
      <trkpt lat="45.19172" lon="5.89303">
        <ele>1050.8</ele>
        <time>2021-04-10T08:58:17Z</time>
      </trkpt>
      <trkpt lat="45.1917" lon="5.89303">
        <ele>1051</ele>
        <time>2021-04-10T08:58:18Z</time>
      </trkpt>
      <trkpt lat="45.1917" lon="5.89304">
        <ele>1051.2</ele>
        <time>2021-04-10T08:58:19Z</time>
      </trkpt>
      <trkpt lat="45.19169" lon="5.89304">
        <ele>1051.4</ele>
        <time>2021-04-10T08:58:20Z</time>
      </trkpt>
      <trkpt lat="45.19168" lon="5.89304">
        <ele>1051.6</ele>
        <time>2021-04-10T08:58:21Z</time>
      </trkpt>
      <trkpt lat="45.19168" lon="5.89305">
        <ele>1051.8</ele>
        <time>2021-04-10T08:58:22Z</time>
      </trkpt>
      <trkpt lat="45.19167" lon="5.89305">
        <ele>1052</ele>
        <time>2021-04-10T08:58:23Z</time>
      </trkpt>
      <trkpt lat="45.19166" lon="5.89305">
        <ele>1052.4</ele>
        <time>2021-04-10T08:58:24Z</time>
      </trkpt>
      <trkpt lat="45.19166" lon="5.89305">
        <ele>1052.6</ele>
        <time>2021-04-10T08:58:25Z</time>
      </trkpt>
      <trkpt lat="45.19165" lon="5.89306">
        <ele>1052.6</ele>
        <time>2021-04-10T08:58:26Z</time>
      </trkpt>
      <trkpt lat="45.19164" lon="5.89306">
        <ele>1052.8</ele>
        <time>2021-04-10T08:58:27Z</time>
      </trkpt>
      <trkpt lat="45.19164" lon="5.89306">
        <ele>1053.2</ele>
        <time>2021-04-10T08:58:28Z</time>
      </trkpt>
      <trkpt lat="45.19163" lon="5.89307">
        <ele>1053.4</ele>
        <time>2021-04-10T08:58:29Z</time>
      </trkpt>
      <trkpt lat="45.19162" lon="5.89307">
        <ele>1053.8</ele>
        <time>2021-04-10T08:58:30Z</time>
      </trkpt>
      <trkpt lat="45.19162" lon="5.89307">
        <ele>1053.8</ele>
        <time>2021-04-10T08:58:31Z</time>
      </trkpt>
      <trkpt lat="45.19161" lon="5.89308">
        <ele>1054.2</ele>
        <time>2021-04-10T08:58:32Z</time>
      </trkpt>
      <trkpt lat="45.1916" lon="5.89308">
        <ele>1054.6</ele>
        <time>2021-04-10T08:58:33Z</time>
      </trkpt>
      <trkpt lat="45.19159" lon="5.89308">
        <ele>1054.8</ele>
        <time>2021-04-10T08:58:34Z</time>
      </trkpt>
      <trkpt lat="45.19158" lon="5.89309">
        <ele>1055</ele>
        <time>2021-04-10T08:58:35Z</time>
      </trkpt>
      <trkpt lat="45.19157" lon="5.89309">
        <ele>1055.2</ele>
        <time>2021-04-10T08:58:36Z</time>
      </trkpt>
      <trkpt lat="45.19156" lon="5.8931">
        <ele>1055.2</ele>
        <time>2021-04-10T08:58:37Z</time>
      </trkpt>
      <trkpt lat="45.19155" lon="5.8931">
        <ele>1055.6</ele>
        <time>2021-04-10T08:58:38Z</time>
      </trkpt>
      <trkpt lat="45.19154" lon="5.8931">
        <ele>1055.8</ele>
        <time>2021-04-10T08:58:39Z</time>
      </trkpt>
      <trkpt lat="45.19153" lon="5.89311">
        <ele>1056</ele>
        <time>2021-04-10T08:58:40Z</time>
      </trkpt>
      <trkpt lat="45.19152" lon="5.89311">
        <ele>1056.2</ele>
        <time>2021-04-10T08:58:41Z</time>
      </trkpt>
      <trkpt lat="45.19151" lon="5.89312">
        <ele>1056.4</ele>
        <time>2021-04-10T08:58:42Z</time>
      </trkpt>
      <trkpt lat="45.19151" lon="5.89313">
        <ele>1056.8</ele>
        <time>2021-04-10T08:58:43Z</time>
      </trkpt>
      <trkpt lat="45.1915" lon="5.89313">
        <ele>1057</ele>
        <time>2021-04-10T08:58:44Z</time>
      </trkpt>
      <trkpt lat="45.19149" lon="5.89314">
        <ele>1057.2</ele>
        <time>2021-04-10T08:58:45Z</time>
      </trkpt>
      <trkpt lat="45.19149" lon="5.89315">
        <ele>1057.2</ele>
        <time>2021-04-10T08:58:46Z</time>
      </trkpt>
      <trkpt lat="45.19148" lon="5.89316">
        <ele>1057.2</ele>
        <time>2021-04-10T08:58:47Z</time>
      </trkpt>
      <trkpt lat="45.19147" lon="5.89316">
        <ele>1057.4</ele>
        <time>2021-04-10T08:58:48Z</time>
      </trkpt>
      <trkpt lat="45.19146" lon="5.89317">
        <ele>1057.6</ele>
        <time>2021-04-10T08:58:49Z</time>
      </trkpt>
      <trkpt lat="45.19146" lon="5.89318">
        <ele>1058</ele>
        <time>2021-04-10T08:58:50Z</time>
      </trkpt>
      <trkpt lat="45.19145" lon="5.89319">
        <ele>1058.4</ele>
        <time>2021-04-10T08:58:51Z</time>
      </trkpt>
      <trkpt lat="45.19144" lon="5.89319">
        <ele>1058.8</ele>
        <time>2021-04-10T08:58:52Z</time>
      </trkpt>
      <trkpt lat="45.19143" lon="5.89319">
        <ele>1059</ele>
        <time>2021-04-10T08:58:53Z</time>
      </trkpt>
      <trkpt lat="45.19142" lon="5.89319">
        <ele>1059.2</ele>
        <time>2021-04-10T08:58:54Z</time>
      </trkpt>
      <trkpt lat="45.19141" lon="5.8932">
        <ele>1059.4</ele>
        <time>2021-04-10T08:58:55Z</time>
      </trkpt>
      <trkpt lat="45.19141" lon="5.8932">
        <ele>1059.4</ele>
        <time>2021-04-10T08:58:56Z</time>
      </trkpt>
      <trkpt lat="45.1914" lon="5.8932">
        <ele>1059.6</ele>
        <time>2021-04-10T08:58:57Z</time>
      </trkpt>
      <trkpt lat="45.19139" lon="5.8932">
        <ele>1059.6</ele>
        <time>2021-04-10T08:58:58Z</time>
      </trkpt>
      <trkpt lat="45.19138" lon="5.8932">
        <ele>1059.6</ele>
        <time>2021-04-10T08:58:59Z</time>
      </trkpt>
      <trkpt lat="45.19137" lon="5.8932">
        <ele>1059.8</ele>
        <time>2021-04-10T08:59:00Z</time>
      </trkpt>
      <trkpt lat="45.19136" lon="5.8932">
        <ele>1060.2</ele>
        <time>2021-04-10T08:59:01Z</time>
      </trkpt>
      <trkpt lat="45.19135" lon="5.8932">
        <ele>1060.4</ele>
        <time>2021-04-10T08:59:02Z</time>
      </trkpt>
      <trkpt lat="45.19134" lon="5.89321">
        <ele>1060.6</ele>
        <time>2021-04-10T08:59:03Z</time>
      </trkpt>
      <trkpt lat="45.19133" lon="5.89323">
        <ele>1061</ele>
        <time>2021-04-10T08:59:04Z</time>
      </trkpt>
      <trkpt lat="45.19132" lon="5.89324">
        <ele>1061.2</ele>
        <time>2021-04-10T08:59:05Z</time>
      </trkpt>
      <trkpt lat="45.19131" lon="5.89325">
        <ele>1061.4</ele>
        <time>2021-04-10T08:59:06Z</time>
      </trkpt>
      <trkpt lat="45.1913" lon="5.89326">
        <ele>1061.4</ele>
        <time>2021-04-10T08:59:07Z</time>
      </trkpt>
      <trkpt lat="45.19129" lon="5.89327">
        <ele>1061.4</ele>
        <time>2021-04-10T08:59:08Z</time>
      </trkpt>
      <trkpt lat="45.19128" lon="5.89328">
        <ele>1061.6</ele>
        <time>2021-04-10T08:59:09Z</time>
      </trkpt>
      <trkpt lat="45.19127" lon="5.89329">
        <ele>1061.8</ele>
        <time>2021-04-10T08:59:10Z</time>
      </trkpt>
      <trkpt lat="45.19126" lon="5.89329">
        <ele>1061.8</ele>
        <time>2021-04-10T08:59:11Z</time>
      </trkpt>
      <trkpt lat="45.19124" lon="5.8933">
        <ele>1062</ele>
        <time>2021-04-10T08:59:12Z</time>
      </trkpt>
      <trkpt lat="45.19122" lon="5.8933">
        <ele>1062</ele>
        <time>2021-04-10T08:59:13Z</time>
      </trkpt>
      <trkpt lat="45.19121" lon="5.8933">
        <ele>1062.2</ele>
        <time>2021-04-10T08:59:14Z</time>
      </trkpt>
      <trkpt lat="45.19119" lon="5.8933">
        <ele>1062.4</ele>
        <time>2021-04-10T08:59:15Z</time>
      </trkpt>
      <trkpt lat="45.19118" lon="5.89331">
        <ele>1062.6</ele>
        <time>2021-04-10T08:59:16Z</time>
      </trkpt>
      <trkpt lat="45.19117" lon="5.89332">
        <ele>1062.6</ele>
        <time>2021-04-10T08:59:17Z</time>
      </trkpt>
      <trkpt lat="45.19116" lon="5.89333">
        <ele>1062.8</ele>
        <time>2021-04-10T08:59:18Z</time>
      </trkpt>
      <trkpt lat="45.19115" lon="5.89334">
        <ele>1063</ele>
        <time>2021-04-10T08:59:19Z</time>
      </trkpt>
      <trkpt lat="45.19114" lon="5.89335">
        <ele>1063.2</ele>
        <time>2021-04-10T08:59:20Z</time>
      </trkpt>
      <trkpt lat="45.19113" lon="5.89336">
        <ele>1063.4</ele>
        <time>2021-04-10T08:59:21Z</time>
      </trkpt>
      <trkpt lat="45.19113" lon="5.89337">
        <ele>1063.4</ele>
        <time>2021-04-10T08:59:22Z</time>
      </trkpt>
      <trkpt lat="45.19112" lon="5.89337">
        <ele>1063.6</ele>
        <time>2021-04-10T08:59:23Z</time>
      </trkpt>
      <trkpt lat="45.19111" lon="5.89338">
        <ele>1063.8</ele>
        <time>2021-04-10T08:59:24Z</time>
      </trkpt>
      <trkpt lat="45.1911" lon="5.89339">
        <ele>1063.8</ele>
        <time>2021-04-10T08:59:25Z</time>
      </trkpt>
      <trkpt lat="45.19109" lon="5.8934">
        <ele>1064</ele>
        <time>2021-04-10T08:59:26Z</time>
      </trkpt>
      <trkpt lat="45.19108" lon="5.8934">
        <ele>1064</ele>
        <time>2021-04-10T08:59:27Z</time>
      </trkpt>
      <trkpt lat="45.19107" lon="5.89341">
        <ele>1064</ele>
        <time>2021-04-10T08:59:28Z</time>
      </trkpt>
      <trkpt lat="45.19106" lon="5.89341">
        <ele>1064.2</ele>
        <time>2021-04-10T08:59:29Z</time>
      </trkpt>
      <trkpt lat="45.19105" lon="5.89342">
        <ele>1064.2</ele>
        <time>2021-04-10T08:59:30Z</time>
      </trkpt>
      <trkpt lat="45.19103" lon="5.89342">
        <ele>1064.4</ele>
        <time>2021-04-10T08:59:31Z</time>
      </trkpt>
      <trkpt lat="45.19102" lon="5.89342">
        <ele>1064.4</ele>
        <time>2021-04-10T08:59:32Z</time>
      </trkpt>
      <trkpt lat="45.19101" lon="5.89343">
        <ele>1064.6</ele>
        <time>2021-04-10T08:59:33Z</time>
      </trkpt>
      <trkpt lat="45.191" lon="5.89343">
        <ele>1064.6</ele>
        <time>2021-04-10T08:59:34Z</time>
      </trkpt>
      <trkpt lat="45.19098" lon="5.89344">
        <ele>1064.8</ele>
        <time>2021-04-10T08:59:35Z</time>
      </trkpt>
      <trkpt lat="45.19097" lon="5.89345">
        <ele>1064.8</ele>
        <time>2021-04-10T08:59:36Z</time>
      </trkpt>
      <trkpt lat="45.19095" lon="5.89346">
        <ele>1065</ele>
        <time>2021-04-10T08:59:37Z</time>
      </trkpt>
      <trkpt lat="45.19093" lon="5.89347">
        <ele>1065.2</ele>
        <time>2021-04-10T08:59:38Z</time>
      </trkpt>
      <trkpt lat="45.19092" lon="5.89348">
        <ele>1065.2</ele>
        <time>2021-04-10T08:59:39Z</time>
      </trkpt>
      <trkpt lat="45.19091" lon="5.89349">
        <ele>1065.4</ele>
        <time>2021-04-10T08:59:40Z</time>
      </trkpt>
      <trkpt lat="45.19091" lon="5.8935">
        <ele>1065.4</ele>
        <time>2021-04-10T08:59:41Z</time>
      </trkpt>
      <trkpt lat="45.1909" lon="5.89351">
        <ele>1065.6</ele>
        <time>2021-04-10T08:59:42Z</time>
      </trkpt>
      <trkpt lat="45.1909" lon="5.89351">
        <ele>1065.8</ele>
        <time>2021-04-10T08:59:43Z</time>
      </trkpt>
      <trkpt lat="45.19089" lon="5.89352">
        <ele>1065.8</ele>
        <time>2021-04-10T08:59:44Z</time>
      </trkpt>
      <trkpt lat="45.19089" lon="5.89353">
        <ele>1066</ele>
        <time>2021-04-10T08:59:45Z</time>
      </trkpt>
      <trkpt lat="45.19088" lon="5.89354">
        <ele>1066.2</ele>
        <time>2021-04-10T08:59:46Z</time>
      </trkpt>
      <trkpt lat="45.19088" lon="5.89354">
        <ele>1066.2</ele>
        <time>2021-04-10T08:59:47Z</time>
      </trkpt>
      <trkpt lat="45.19087" lon="5.89355">
        <ele>1066.4</ele>
        <time>2021-04-10T08:59:48Z</time>
      </trkpt>
      <trkpt lat="45.19087" lon="5.89356">
        <ele>1066.6</ele>
        <time>2021-04-10T08:59:49Z</time>
      </trkpt>
      <trkpt lat="45.19086" lon="5.89357">
        <ele>1066.8</ele>
        <time>2021-04-10T08:59:50Z</time>
      </trkpt>
      <trkpt lat="45.19086" lon="5.89357">
        <ele>1067</ele>
        <time>2021-04-10T08:59:51Z</time>
      </trkpt>
      <trkpt lat="45.19085" lon="5.89358">
        <ele>1067.2</ele>
        <time>2021-04-10T08:59:52Z</time>
      </trkpt>
      <trkpt lat="45.19084" lon="5.89359">
        <ele>1067.4</ele>
        <time>2021-04-10T08:59:53Z</time>
      </trkpt>
      <trkpt lat="45.19083" lon="5.8936">
        <ele>1067.4</ele>
        <time>2021-04-10T08:59:54Z</time>
      </trkpt>
      <trkpt lat="45.19082" lon="5.89361">
        <ele>1067.8</ele>
        <time>2021-04-10T08:59:55Z</time>
      </trkpt>
      <trkpt lat="45.19082" lon="5.89362">
        <ele>1068</ele>
        <time>2021-04-10T08:59:56Z</time>
      </trkpt>
      <trkpt lat="45.19081" lon="5.89363">
        <ele>1068.4</ele>
        <time>2021-04-10T08:59:57Z</time>
      </trkpt>
      <trkpt lat="45.1908" lon="5.89364">
        <ele>1068.6</ele>
        <time>2021-04-10T08:59:58Z</time>
      </trkpt>
      <trkpt lat="45.19079" lon="5.89365">
        <ele>1068.8</ele>
        <time>2021-04-10T08:59:59Z</time>
      </trkpt>
      <trkpt lat="45.19078" lon="5.89366">
        <ele>1069</ele>
        <time>2021-04-10T09:00:01Z</time>
      </trkpt>
      <trkpt lat="45.19077" lon="5.89367">
        <ele>1069.2</ele>
        <time>2021-04-10T09:00:02Z</time>
      </trkpt>
      <trkpt lat="45.19076" lon="5.89367">
        <ele>1069.2</ele>
        <time>2021-04-10T09:00:03Z</time>
      </trkpt>
      <trkpt lat="45.19074" lon="5.89368">
        <ele>1069.4</ele>
        <time>2021-04-10T09:00:04Z</time>
      </trkpt>
      <trkpt lat="45.19073" lon="5.89368">
        <ele>1069.6</ele>
        <time>2021-04-10T09:00:05Z</time>
      </trkpt>
      <trkpt lat="45.19072" lon="5.89369">
        <ele>1069.6</ele>
        <time>2021-04-10T09:00:06Z</time>
      </trkpt>
      <trkpt lat="45.19071" lon="5.89369">
        <ele>1069.8</ele>
        <time>2021-04-10T09:00:07Z</time>
      </trkpt>
      <trkpt lat="45.19069" lon="5.8937">
        <ele>1069.8</ele>
        <time>2021-04-10T09:00:08Z</time>
      </trkpt>
      <trkpt lat="45.19068" lon="5.8937">
        <ele>1070.2</ele>
        <time>2021-04-10T09:00:09Z</time>
      </trkpt>
      <trkpt lat="45.19066" lon="5.89371">
        <ele>1070.4</ele>
        <time>2021-04-10T09:00:10Z</time>
      </trkpt>
      <trkpt lat="45.19065" lon="5.89371">
        <ele>1070.4</ele>
        <time>2021-04-10T09:00:11Z</time>
      </trkpt>
      <trkpt lat="45.19063" lon="5.89371">
        <ele>1070.6</ele>
        <time>2021-04-10T09:00:12Z</time>
      </trkpt>
      <trkpt lat="45.19062" lon="5.89371">
        <ele>1070.8</ele>
        <time>2021-04-10T09:00:13Z</time>
      </trkpt>
      <trkpt lat="45.1906" lon="5.89372">
        <ele>1070.8</ele>
        <time>2021-04-10T09:00:14Z</time>
      </trkpt>
      <trkpt lat="45.19059" lon="5.89372">
        <ele>1071</ele>
        <time>2021-04-10T09:00:15Z</time>
      </trkpt>
      <trkpt lat="45.19057" lon="5.89372">
        <ele>1071.2</ele>
        <time>2021-04-10T09:00:16Z</time>
      </trkpt>
      <trkpt lat="45.19055" lon="5.89373">
        <ele>1071.2</ele>
        <time>2021-04-10T09:00:17Z</time>
      </trkpt>
      <trkpt lat="45.19053" lon="5.89374">
        <ele>1071.6</ele>
        <time>2021-04-10T09:00:18Z</time>
      </trkpt>
      <trkpt lat="45.19051" lon="5.89374">
        <ele>1071.6</ele>
        <time>2021-04-10T09:00:19Z</time>
      </trkpt>
      <trkpt lat="45.19049" lon="5.89375">
        <ele>1071.8</ele>
        <time>2021-04-10T09:00:20Z</time>
      </trkpt>
      <trkpt lat="45.19047" lon="5.89376">
        <ele>1072</ele>
        <time>2021-04-10T09:00:21Z</time>
      </trkpt>
      <trkpt lat="45.19046" lon="5.89377">
        <ele>1072.4</ele>
        <time>2021-04-10T09:00:23Z</time>
      </trkpt>
      <trkpt lat="45.19045" lon="5.89377">
        <ele>1072.4</ele>
        <time>2021-04-10T09:00:24Z</time>
      </trkpt>
      <trkpt lat="45.19044" lon="5.89378">
        <ele>1072.6</ele>
        <time>2021-04-10T09:00:25Z</time>
      </trkpt>
      <trkpt lat="45.19043" lon="5.89378">
        <ele>1072.6</ele>
        <time>2021-04-10T09:00:26Z</time>
      </trkpt>
      <trkpt lat="45.19042" lon="5.89379">
        <ele>1072.6</ele>
        <time>2021-04-10T09:00:27Z</time>
      </trkpt>
      <trkpt lat="45.19041" lon="5.8938">
        <ele>1072.8</ele>
        <time>2021-04-10T09:00:28Z</time>
      </trkpt>
      <trkpt lat="45.1904" lon="5.8938">
        <ele>1072.6</ele>
        <time>2021-04-10T09:00:29Z</time>
      </trkpt>
      <trkpt lat="45.19039" lon="5.89381">
        <ele>1072.4</ele>
        <time>2021-04-10T09:00:30Z</time>
      </trkpt>
      <trkpt lat="45.19037" lon="5.89381">
        <ele>1072.4</ele>
        <time>2021-04-10T09:00:31Z</time>
      </trkpt>
      <trkpt lat="45.19036" lon="5.89381">
        <ele>1072.4</ele>
        <time>2021-04-10T09:00:32Z</time>
      </trkpt>
      <trkpt lat="45.19035" lon="5.89382">
        <ele>1072.8</ele>
        <time>2021-04-10T09:00:33Z</time>
      </trkpt>
      <trkpt lat="45.19033" lon="5.89382">
        <ele>1073</ele>
        <time>2021-04-10T09:00:34Z</time>
      </trkpt>
      <trkpt lat="45.19032" lon="5.89382">
        <ele>1073</ele>
        <time>2021-04-10T09:00:35Z</time>
      </trkpt>
      <trkpt lat="45.19031" lon="5.89382">
        <ele>1073</ele>
        <time>2021-04-10T09:00:36Z</time>
      </trkpt>
      <trkpt lat="45.19029" lon="5.89382">
        <ele>1073</ele>
        <time>2021-04-10T09:00:37Z</time>
      </trkpt>
      <trkpt lat="45.19029" lon="5.89383">
        <ele>1073.2</ele>
        <time>2021-04-10T09:00:38Z</time>
      </trkpt>
      <trkpt lat="45.19028" lon="5.89383">
        <ele>1073.4</ele>
        <time>2021-04-10T09:00:39Z</time>
      </trkpt>
      <trkpt lat="45.19027" lon="5.89384">
        <ele>1073.6</ele>
        <time>2021-04-10T09:00:40Z</time>
      </trkpt>
      <trkpt lat="45.19026" lon="5.89384">
        <ele>1073.6</ele>
        <time>2021-04-10T09:00:41Z</time>
      </trkpt>
      <trkpt lat="45.19025" lon="5.89384">
        <ele>1073.8</ele>
        <time>2021-04-10T09:00:42Z</time>
      </trkpt>
      <trkpt lat="45.19024" lon="5.89385">
        <ele>1074.2</ele>
        <time>2021-04-10T09:00:43Z</time>
      </trkpt>
      <trkpt lat="45.19023" lon="5.89385">
        <ele>1074.4</ele>
        <time>2021-04-10T09:00:44Z</time>
      </trkpt>
      <trkpt lat="45.19022" lon="5.89386">
        <ele>1074.4</ele>
        <time>2021-04-10T09:00:45Z</time>
      </trkpt>
      <trkpt lat="45.19022" lon="5.89386">
        <ele>1074.4</ele>
        <time>2021-04-10T09:00:46Z</time>
      </trkpt>
      <trkpt lat="45.19021" lon="5.89386">
        <ele>1074.4</ele>
        <time>2021-04-10T09:00:47Z</time>
      </trkpt>
      <trkpt lat="45.1902" lon="5.89387">
        <ele>1074.6</ele>
        <time>2021-04-10T09:00:48Z</time>
      </trkpt>
      <trkpt lat="45.19019" lon="5.89388">
        <ele>1074.6</ele>
        <time>2021-04-10T09:00:49Z</time>
      </trkpt>
      <trkpt lat="45.19019" lon="5.89389">
        <ele>1074.8</ele>
        <time>2021-04-10T09:00:50Z</time>
      </trkpt>
      <trkpt lat="45.19018" lon="5.8939">
        <ele>1075</ele>
        <time>2021-04-10T09:00:51Z</time>
      </trkpt>
      <trkpt lat="45.19018" lon="5.8939">
        <ele>1075.2</ele>
        <time>2021-04-10T09:00:52Z</time>
      </trkpt>
      <trkpt lat="45.19017" lon="5.89391">
        <ele>1075.2</ele>
        <time>2021-04-10T09:00:53Z</time>
      </trkpt>
      <trkpt lat="45.19016" lon="5.89392">
        <ele>1075.6</ele>
        <time>2021-04-10T09:00:54Z</time>
      </trkpt>
      <trkpt lat="45.19016" lon="5.89393">
        <ele>1075.8</ele>
        <time>2021-04-10T09:00:55Z</time>
      </trkpt>
      <trkpt lat="45.19015" lon="5.89394">
        <ele>1076</ele>
        <time>2021-04-10T09:00:56Z</time>
      </trkpt>
      <trkpt lat="45.19014" lon="5.89395">
        <ele>1076.4</ele>
        <time>2021-04-10T09:00:57Z</time>
      </trkpt>
      <trkpt lat="45.19014" lon="5.89395">
        <ele>1076.6</ele>
        <time>2021-04-10T09:00:58Z</time>
      </trkpt>
      <trkpt lat="45.19013" lon="5.89396">
        <ele>1077</ele>
        <time>2021-04-10T09:00:59Z</time>
      </trkpt>
      <trkpt lat="45.19012" lon="5.89397">
        <ele>1077.2</ele>
        <time>2021-04-10T09:01:00Z</time>
      </trkpt>
      <trkpt lat="45.19011" lon="5.89397">
        <ele>1077.6</ele>
        <time>2021-04-10T09:01:01Z</time>
      </trkpt>
      <trkpt lat="45.1901" lon="5.89398">
        <ele>1077.8</ele>
        <time>2021-04-10T09:01:02Z</time>
      </trkpt>
      <trkpt lat="45.19009" lon="5.89398">
        <ele>1078</ele>
        <time>2021-04-10T09:01:03Z</time>
      </trkpt>
      <trkpt lat="45.19008" lon="5.89399">
        <ele>1078</ele>
        <time>2021-04-10T09:01:04Z</time>
      </trkpt>
      <trkpt lat="45.19007" lon="5.894">
        <ele>1078</ele>
        <time>2021-04-10T09:01:05Z</time>
      </trkpt>
      <trkpt lat="45.19006" lon="5.894">
        <ele>1078</ele>
        <time>2021-04-10T09:01:06Z</time>
      </trkpt>
      <trkpt lat="45.19005" lon="5.89401">
        <ele>1078</ele>
        <time>2021-04-10T09:01:07Z</time>
      </trkpt>
      <trkpt lat="45.19003" lon="5.89402">
        <ele>1078.2</ele>
        <time>2021-04-10T09:01:08Z</time>
      </trkpt>
      <trkpt lat="45.19001" lon="5.89403">
        <ele>1078.6</ele>
        <time>2021-04-10T09:01:09Z</time>
      </trkpt>
      <trkpt lat="45.18999" lon="5.89404">
        <ele>1078.6</ele>
        <time>2021-04-10T09:01:10Z</time>
      </trkpt>
      <trkpt lat="45.18997" lon="5.89405">
        <ele>1078.6</ele>
        <time>2021-04-10T09:01:11Z</time>
      </trkpt>
      <trkpt lat="45.18995" lon="5.89406">
        <ele>1078.8</ele>
        <time>2021-04-10T09:01:12Z</time>
      </trkpt>
      <trkpt lat="45.18994" lon="5.89406">
        <ele>1079</ele>
        <time>2021-04-10T09:01:13Z</time>
      </trkpt>
      <trkpt lat="45.18993" lon="5.89406">
        <ele>1079.4</ele>
        <time>2021-04-10T09:01:14Z</time>
      </trkpt>
      <trkpt lat="45.18992" lon="5.89406">
        <ele>1079.8</ele>
        <time>2021-04-10T09:01:15Z</time>
      </trkpt>
      <trkpt lat="45.1899" lon="5.89406">
        <ele>1080</ele>
        <time>2021-04-10T09:01:16Z</time>
      </trkpt>
      <trkpt lat="45.18989" lon="5.89406">
        <ele>1080.2</ele>
        <time>2021-04-10T09:01:17Z</time>
      </trkpt>
      <trkpt lat="45.18988" lon="5.89406">
        <ele>1080.2</ele>
        <time>2021-04-10T09:01:18Z</time>
      </trkpt>
      <trkpt lat="45.18987" lon="5.89406">
        <ele>1080.4</ele>
        <time>2021-04-10T09:01:19Z</time>
      </trkpt>
      <trkpt lat="45.18985" lon="5.89406">
        <ele>1080.8</ele>
        <time>2021-04-10T09:01:20Z</time>
      </trkpt>
      <trkpt lat="45.18984" lon="5.89406">
        <ele>1081.2</ele>
        <time>2021-04-10T09:01:21Z</time>
      </trkpt>
      <trkpt lat="45.18982" lon="5.89405">
        <ele>1081.2</ele>
        <time>2021-04-10T09:01:22Z</time>
      </trkpt>
      <trkpt lat="45.18981" lon="5.89405">
        <ele>1081.4</ele>
        <time>2021-04-10T09:01:23Z</time>
      </trkpt>
      <trkpt lat="45.18979" lon="5.89405">
        <ele>1081.6</ele>
        <time>2021-04-10T09:01:24Z</time>
      </trkpt>
      <trkpt lat="45.18978" lon="5.89404">
        <ele>1082</ele>
        <time>2021-04-10T09:01:25Z</time>
      </trkpt>
      <trkpt lat="45.18976" lon="5.89404">
        <ele>1082.2</ele>
        <time>2021-04-10T09:01:26Z</time>
      </trkpt>
      <trkpt lat="45.18975" lon="5.89404">
        <ele>1082.4</ele>
        <time>2021-04-10T09:01:27Z</time>
      </trkpt>
      <trkpt lat="45.18974" lon="5.89404">
        <ele>1082.6</ele>
        <time>2021-04-10T09:01:28Z</time>
      </trkpt>
      <trkpt lat="45.18973" lon="5.89404">
        <ele>1082.8</ele>
        <time>2021-04-10T09:01:29Z</time>
      </trkpt>
      <trkpt lat="45.18972" lon="5.89404">
        <ele>1082.8</ele>
        <time>2021-04-10T09:01:30Z</time>
      </trkpt>
      <trkpt lat="45.18971" lon="5.89404">
        <ele>1082.8</ele>
        <time>2021-04-10T09:01:31Z</time>
      </trkpt>
      <trkpt lat="45.18971" lon="5.89404">
        <ele>1083.2</ele>
        <time>2021-04-10T09:01:32Z</time>
      </trkpt>
      <trkpt lat="45.1897" lon="5.89404">
        <ele>1083.6</ele>
        <time>2021-04-10T09:01:33Z</time>
      </trkpt>
      <trkpt lat="45.18969" lon="5.89404">
        <ele>1084</ele>
        <time>2021-04-10T09:01:34Z</time>
      </trkpt>
      <trkpt lat="45.18968" lon="5.89404">
        <ele>1084</ele>
        <time>2021-04-10T09:01:35Z</time>
      </trkpt>
      <trkpt lat="45.18967" lon="5.89404">
        <ele>1084.6</ele>
        <time>2021-04-10T09:01:36Z</time>
      </trkpt>
      <trkpt lat="45.18966" lon="5.89404">
        <ele>1084.8</ele>
        <time>2021-04-10T09:01:37Z</time>
      </trkpt>
      <trkpt lat="45.18965" lon="5.89404">
        <ele>1085.2</ele>
        <time>2021-04-10T09:01:38Z</time>
      </trkpt>
      <trkpt lat="45.18964" lon="5.89404">
        <ele>1085.4</ele>
        <time>2021-04-10T09:01:39Z</time>
      </trkpt>
      <trkpt lat="45.18962" lon="5.89404">
        <ele>1085.4</ele>
        <time>2021-04-10T09:01:40Z</time>
      </trkpt>
      <trkpt lat="45.18961" lon="5.89404">
        <ele>1085.6</ele>
        <time>2021-04-10T09:01:41Z</time>
      </trkpt>
      <trkpt lat="45.18959" lon="5.89404">
        <ele>1086</ele>
        <time>2021-04-10T09:01:42Z</time>
      </trkpt>
      <trkpt lat="45.18958" lon="5.89404">
        <ele>1086.2</ele>
        <time>2021-04-10T09:01:43Z</time>
      </trkpt>
      <trkpt lat="45.18956" lon="5.89403">
        <ele>1086.4</ele>
        <time>2021-04-10T09:01:44Z</time>
      </trkpt>
      <trkpt lat="45.18955" lon="5.89403">
        <ele>1086.8</ele>
        <time>2021-04-10T09:01:45Z</time>
      </trkpt>
      <trkpt lat="45.18954" lon="5.89404">
        <ele>1087</ele>
        <time>2021-04-10T09:01:46Z</time>
      </trkpt>
      <trkpt lat="45.18952" lon="5.89404">
        <ele>1087.2</ele>
        <time>2021-04-10T09:01:47Z</time>
      </trkpt>
      <trkpt lat="45.18951" lon="5.89404">
        <ele>1087.4</ele>
        <time>2021-04-10T09:01:48Z</time>
      </trkpt>
      <trkpt lat="45.1895" lon="5.89405">
        <ele>1087.4</ele>
        <time>2021-04-10T09:01:49Z</time>
      </trkpt>
      <trkpt lat="45.18949" lon="5.89405">
        <ele>1087.6</ele>
        <time>2021-04-10T09:01:50Z</time>
      </trkpt>
      <trkpt lat="45.18948" lon="5.89405">
        <ele>1087.8</ele>
        <time>2021-04-10T09:01:51Z</time>
      </trkpt>
      <trkpt lat="45.18946" lon="5.89405">
        <ele>1088</ele>
        <time>2021-04-10T09:01:52Z</time>
      </trkpt>
      <trkpt lat="45.18945" lon="5.89406">
        <ele>1088.2</ele>
        <time>2021-04-10T09:01:53Z</time>
      </trkpt>
      <trkpt lat="45.18944" lon="5.89406">
        <ele>1088.4</ele>
        <time>2021-04-10T09:01:54Z</time>
      </trkpt>
      <trkpt lat="45.18944" lon="5.89406">
        <ele>1088.6</ele>
        <time>2021-04-10T09:01:55Z</time>
      </trkpt>
      <trkpt lat="45.18943" lon="5.89406">
        <ele>1089</ele>
        <time>2021-04-10T09:01:56Z</time>
      </trkpt>
      <trkpt lat="45.18942" lon="5.89407">
        <ele>1089.2</ele>
        <time>2021-04-10T09:01:57Z</time>
      </trkpt>
      <trkpt lat="45.18941" lon="5.89407">
        <ele>1089.4</ele>
        <time>2021-04-10T09:01:58Z</time>
      </trkpt>
      <trkpt lat="45.18941" lon="5.89407">
        <ele>1089.6</ele>
        <time>2021-04-10T09:01:59Z</time>
      </trkpt>
      <trkpt lat="45.1894" lon="5.89407">
        <ele>1089.6</ele>
        <time>2021-04-10T09:02:00Z</time>
      </trkpt>
      <trkpt lat="45.18939" lon="5.89408">
        <ele>1089.6</ele>
        <time>2021-04-10T09:02:01Z</time>
      </trkpt>
      <trkpt lat="45.18938" lon="5.89408">
        <ele>1089.6</ele>
        <time>2021-04-10T09:02:02Z</time>
      </trkpt>
      <trkpt lat="45.18938" lon="5.89408">
        <ele>1089.6</ele>
        <time>2021-04-10T09:02:03Z</time>
      </trkpt>
      <trkpt lat="45.18937" lon="5.89408">
        <ele>1089.8</ele>
        <time>2021-04-10T09:02:04Z</time>
      </trkpt>
      <trkpt lat="45.18936" lon="5.89409">
        <ele>1090</ele>
        <time>2021-04-10T09:02:05Z</time>
      </trkpt>
      <trkpt lat="45.18935" lon="5.89408">
        <ele>1090.2</ele>
        <time>2021-04-10T09:02:06Z</time>
      </trkpt>
      <trkpt lat="45.18935" lon="5.89408">
        <ele>1090.6</ele>
        <time>2021-04-10T09:02:07Z</time>
      </trkpt>
      <trkpt lat="45.18934" lon="5.89408">
        <ele>1090.8</ele>
        <time>2021-04-10T09:02:08Z</time>
      </trkpt>
      <trkpt lat="45.18933" lon="5.89408">
        <ele>1090.8</ele>
        <time>2021-04-10T09:02:09Z</time>
      </trkpt>
      <trkpt lat="45.18932" lon="5.89407">
        <ele>1091</ele>
        <time>2021-04-10T09:02:10Z</time>
      </trkpt>
      <trkpt lat="45.18932" lon="5.89407">
        <ele>1091</ele>
        <time>2021-04-10T09:02:11Z</time>
      </trkpt>
      <trkpt lat="45.18931" lon="5.89407">
        <ele>1091.2</ele>
        <time>2021-04-10T09:02:12Z</time>
      </trkpt>
      <trkpt lat="45.1893" lon="5.89406">
        <ele>1091.4</ele>
        <time>2021-04-10T09:02:13Z</time>
      </trkpt>
      <trkpt lat="45.18929" lon="5.89406">
        <ele>1091.6</ele>
        <time>2021-04-10T09:02:14Z</time>
      </trkpt>
      <trkpt lat="45.18928" lon="5.89406">
        <ele>1091.8</ele>
        <time>2021-04-10T09:02:15Z</time>
      </trkpt>
      <trkpt lat="45.18928" lon="5.89406">
        <ele>1092</ele>
        <time>2021-04-10T09:02:16Z</time>
      </trkpt>
      <trkpt lat="45.18927" lon="5.89405">
        <ele>1092.2</ele>
        <time>2021-04-10T09:02:17Z</time>
      </trkpt>
      <trkpt lat="45.18925" lon="5.89405">
        <ele>1092.4</ele>
        <time>2021-04-10T09:02:18Z</time>
      </trkpt>
      <trkpt lat="45.18923" lon="5.89405">
        <ele>1092.4</ele>
        <time>2021-04-10T09:02:19Z</time>
      </trkpt>
      <trkpt lat="45.18922" lon="5.89405">
        <ele>1092.6</ele>
        <time>2021-04-10T09:02:20Z</time>
      </trkpt>
      <trkpt lat="45.1892" lon="5.89405">
        <ele>1092.6</ele>
        <time>2021-04-10T09:02:21Z</time>
      </trkpt>
      <trkpt lat="45.18918" lon="5.89406">
        <ele>1092.8</ele>
        <time>2021-04-10T09:02:22Z</time>
      </trkpt>
      <trkpt lat="45.18917" lon="5.89406">
        <ele>1093</ele>
        <time>2021-04-10T09:02:23Z</time>
      </trkpt>
      <trkpt lat="45.18915" lon="5.89405">
        <ele>1093.4</ele>
        <time>2021-04-10T09:02:24Z</time>
      </trkpt>
      <trkpt lat="45.18914" lon="5.89405">
        <ele>1093.6</ele>
        <time>2021-04-10T09:02:25Z</time>
      </trkpt>
      <trkpt lat="45.18912" lon="5.89405">
        <ele>1093.6</ele>
        <time>2021-04-10T09:02:26Z</time>
      </trkpt>
      <trkpt lat="45.18911" lon="5.89405">
        <ele>1094</ele>
        <time>2021-04-10T09:02:27Z</time>
      </trkpt>
      <trkpt lat="45.1891" lon="5.89405">
        <ele>1094.2</ele>
        <time>2021-04-10T09:02:28Z</time>
      </trkpt>
      <trkpt lat="45.18908" lon="5.89404">
        <ele>1094.4</ele>
        <time>2021-04-10T09:02:29Z</time>
      </trkpt>
      <trkpt lat="45.18907" lon="5.89404">
        <ele>1094.6</ele>
        <time>2021-04-10T09:02:30Z</time>
      </trkpt>
      <trkpt lat="45.18906" lon="5.89404">
        <ele>1094.8</ele>
        <time>2021-04-10T09:02:31Z</time>
      </trkpt>
      <trkpt lat="45.18904" lon="5.89404">
        <ele>1095</ele>
        <time>2021-04-10T09:02:32Z</time>
      </trkpt>
      <trkpt lat="45.18903" lon="5.89403">
        <ele>1095.2</ele>
        <time>2021-04-10T09:02:33Z</time>
      </trkpt>
      <trkpt lat="45.18902" lon="5.89403">
        <ele>1095.2</ele>
        <time>2021-04-10T09:02:34Z</time>
      </trkpt>
      <trkpt lat="45.18901" lon="5.89403">
        <ele>1095.4</ele>
        <time>2021-04-10T09:02:35Z</time>
      </trkpt>
      <trkpt lat="45.18899" lon="5.89402">
        <ele>1095.6</ele>
        <time>2021-04-10T09:02:36Z</time>
      </trkpt>
      <trkpt lat="45.18898" lon="5.89402">
        <ele>1096</ele>
        <time>2021-04-10T09:02:37Z</time>
      </trkpt>
      <trkpt lat="45.18897" lon="5.89402">
        <ele>1096.2</ele>
        <time>2021-04-10T09:02:38Z</time>
      </trkpt>
      <trkpt lat="45.18896" lon="5.89402">
        <ele>1096.2</ele>
        <time>2021-04-10T09:02:39Z</time>
      </trkpt>
      <trkpt lat="45.18895" lon="5.89402">
        <ele>1096.2</ele>
        <time>2021-04-10T09:02:40Z</time>
      </trkpt>
      <trkpt lat="45.18893" lon="5.89403">
        <ele>1096.4</ele>
        <time>2021-04-10T09:02:41Z</time>
      </trkpt>
      <trkpt lat="45.18892" lon="5.89403">
        <ele>1096.6</ele>
        <time>2021-04-10T09:02:42Z</time>
      </trkpt>
      <trkpt lat="45.18891" lon="5.89403">
        <ele>1097</ele>
        <time>2021-04-10T09:02:43Z</time>
      </trkpt>
      <trkpt lat="45.1889" lon="5.89403">
        <ele>1097.2</ele>
        <time>2021-04-10T09:02:44Z</time>
      </trkpt>
      <trkpt lat="45.18889" lon="5.89403">
        <ele>1097.6</ele>
        <time>2021-04-10T09:02:45Z</time>
      </trkpt>
      <trkpt lat="45.18888" lon="5.89403">
        <ele>1097.6</ele>
        <time>2021-04-10T09:02:46Z</time>
      </trkpt>
      <trkpt lat="45.18887" lon="5.89404">
        <ele>1097.8</ele>
        <time>2021-04-10T09:02:47Z</time>
      </trkpt>
      <trkpt lat="45.18885" lon="5.89404">
        <ele>1098</ele>
        <time>2021-04-10T09:02:48Z</time>
      </trkpt>
      <trkpt lat="45.18884" lon="5.89404">
        <ele>1098.2</ele>
        <time>2021-04-10T09:02:49Z</time>
      </trkpt>
      <trkpt lat="45.18883" lon="5.89404">
        <ele>1098.4</ele>
        <time>2021-04-10T09:02:50Z</time>
      </trkpt>
      <trkpt lat="45.18882" lon="5.89405">
        <ele>1098.6</ele>
        <time>2021-04-10T09:02:51Z</time>
      </trkpt>
      <trkpt lat="45.18881" lon="5.89405">
        <ele>1099</ele>
        <time>2021-04-10T09:02:52Z</time>
      </trkpt>
      <trkpt lat="45.1888" lon="5.89405">
        <ele>1099</ele>
        <time>2021-04-10T09:02:53Z</time>
      </trkpt>
      <trkpt lat="45.18879" lon="5.89405">
        <ele>1099.4</ele>
        <time>2021-04-10T09:02:54Z</time>
      </trkpt>
      <trkpt lat="45.18878" lon="5.89405">
        <ele>1099.6</ele>
        <time>2021-04-10T09:02:55Z</time>
      </trkpt>
      <trkpt lat="45.18877" lon="5.89404">
        <ele>1100</ele>
        <time>2021-04-10T09:02:56Z</time>
      </trkpt>
      <trkpt lat="45.18876" lon="5.89404">
        <ele>1100</ele>
        <time>2021-04-10T09:02:57Z</time>
      </trkpt>
      <trkpt lat="45.18874" lon="5.89403">
        <ele>1100</ele>
        <time>2021-04-10T09:02:58Z</time>
      </trkpt>
      <trkpt lat="45.18873" lon="5.89403">
        <ele>1100.2</ele>
        <time>2021-04-10T09:02:59Z</time>
      </trkpt>
      <trkpt lat="45.18872" lon="5.89403">
        <ele>1100.2</ele>
        <time>2021-04-10T09:03:00Z</time>
      </trkpt>
      <trkpt lat="45.18871" lon="5.89402">
        <ele>1100.4</ele>
        <time>2021-04-10T09:03:01Z</time>
      </trkpt>
      <trkpt lat="45.1887" lon="5.89402">
        <ele>1100.6</ele>
        <time>2021-04-10T09:03:02Z</time>
      </trkpt>
      <trkpt lat="45.18869" lon="5.89402">
        <ele>1100.8</ele>
        <time>2021-04-10T09:03:03Z</time>
      </trkpt>
      <trkpt lat="45.18869" lon="5.89403">
        <ele>1101</ele>
        <time>2021-04-10T09:03:04Z</time>
      </trkpt>
      <trkpt lat="45.18868" lon="5.89403">
        <ele>1101.2</ele>
        <time>2021-04-10T09:03:05Z</time>
      </trkpt>
      <trkpt lat="45.18867" lon="5.89403">
        <ele>1101.4</ele>
        <time>2021-04-10T09:03:06Z</time>
      </trkpt>
      <trkpt lat="45.18866" lon="5.89403">
        <ele>1101.6</ele>
        <time>2021-04-10T09:03:07Z</time>
      </trkpt>
      <trkpt lat="45.18865" lon="5.89404">
        <ele>1101.8</ele>
        <time>2021-04-10T09:03:08Z</time>
      </trkpt>
      <trkpt lat="45.18864" lon="5.89404">
        <ele>1102</ele>
        <time>2021-04-10T09:03:09Z</time>
      </trkpt>
      <trkpt lat="45.18864" lon="5.89404">
        <ele>1102</ele>
        <time>2021-04-10T09:03:10Z</time>
      </trkpt>
      <trkpt lat="45.18863" lon="5.89405">
        <ele>1102.2</ele>
        <time>2021-04-10T09:03:11Z</time>
      </trkpt>
      <trkpt lat="45.18862" lon="5.89405">
        <ele>1102.2</ele>
        <time>2021-04-10T09:03:12Z</time>
      </trkpt>
      <trkpt lat="45.18861" lon="5.89405">
        <ele>1102.2</ele>
        <time>2021-04-10T09:03:13Z</time>
      </trkpt>
      <trkpt lat="45.1886" lon="5.89405">
        <ele>1102.4</ele>
        <time>2021-04-10T09:03:14Z</time>
      </trkpt>
      <trkpt lat="45.18859" lon="5.89406">
        <ele>1102.4</ele>
        <time>2021-04-10T09:03:15Z</time>
      </trkpt>
      <trkpt lat="45.18858" lon="5.89406">
        <ele>1102.6</ele>
        <time>2021-04-10T09:03:16Z</time>
      </trkpt>
      <trkpt lat="45.18857" lon="5.89406">
        <ele>1102.8</ele>
        <time>2021-04-10T09:03:17Z</time>
      </trkpt>
      <trkpt lat="45.18856" lon="5.89406">
        <ele>1103</ele>
        <time>2021-04-10T09:03:18Z</time>
      </trkpt>
      <trkpt lat="45.18855" lon="5.89406">
        <ele>1103.2</ele>
        <time>2021-04-10T09:03:19Z</time>
      </trkpt>
      <trkpt lat="45.18854" lon="5.89407">
        <ele>1103.4</ele>
        <time>2021-04-10T09:03:20Z</time>
      </trkpt>
      <trkpt lat="45.18853" lon="5.89407">
        <ele>1103.6</ele>
        <time>2021-04-10T09:03:21Z</time>
      </trkpt>
      <trkpt lat="45.18853" lon="5.89407">
        <ele>1104</ele>
        <time>2021-04-10T09:03:22Z</time>
      </trkpt>
      <trkpt lat="45.18852" lon="5.89407">
        <ele>1104.4</ele>
        <time>2021-04-10T09:03:23Z</time>
      </trkpt>
      <trkpt lat="45.1885" lon="5.89408">
        <ele>1104.6</ele>
        <time>2021-04-10T09:03:24Z</time>
      </trkpt>
      <trkpt lat="45.18849" lon="5.89408">
        <ele>1104.8</ele>
        <time>2021-04-10T09:03:25Z</time>
      </trkpt>
      <trkpt lat="45.18848" lon="5.89409">
        <ele>1105</ele>
        <time>2021-04-10T09:03:26Z</time>
      </trkpt>
      <trkpt lat="45.18847" lon="5.89409">
        <ele>1105</ele>
        <time>2021-04-10T09:03:27Z</time>
      </trkpt>
      <trkpt lat="45.18846" lon="5.89409">
        <ele>1105.4</ele>
        <time>2021-04-10T09:03:28Z</time>
      </trkpt>
      <trkpt lat="45.18845" lon="5.8941">
        <ele>1105.8</ele>
        <time>2021-04-10T09:03:29Z</time>
      </trkpt>
      <trkpt lat="45.18844" lon="5.8941">
        <ele>1106.2</ele>
        <time>2021-04-10T09:03:30Z</time>
      </trkpt>
      <trkpt lat="45.18843" lon="5.89411">
        <ele>1106.2</ele>
        <time>2021-04-10T09:03:31Z</time>
      </trkpt>
      <trkpt lat="45.18841" lon="5.89411">
        <ele>1106.4</ele>
        <time>2021-04-10T09:03:32Z</time>
      </trkpt>
      <trkpt lat="45.1884" lon="5.89411">
        <ele>1106.6</ele>
        <time>2021-04-10T09:03:33Z</time>
      </trkpt>
      <trkpt lat="45.18839" lon="5.89412">
        <ele>1106.8</ele>
        <time>2021-04-10T09:03:34Z</time>
      </trkpt>
      <trkpt lat="45.18837" lon="5.89412">
        <ele>1107</ele>
        <time>2021-04-10T09:03:35Z</time>
      </trkpt>
      <trkpt lat="45.18836" lon="5.89412">
        <ele>1107.4</ele>
        <time>2021-04-10T09:03:36Z</time>
      </trkpt>
      <trkpt lat="45.18834" lon="5.89412">
        <ele>1107.6</ele>
        <time>2021-04-10T09:03:37Z</time>
      </trkpt>
      <trkpt lat="45.18833" lon="5.89412">
        <ele>1107.6</ele>
        <time>2021-04-10T09:03:38Z</time>
      </trkpt>
      <trkpt lat="45.18832" lon="5.89413">
        <ele>1107.8</ele>
        <time>2021-04-10T09:03:39Z</time>
      </trkpt>
      <trkpt lat="45.18831" lon="5.89414">
        <ele>1107.8</ele>
        <time>2021-04-10T09:03:40Z</time>
      </trkpt>
      <trkpt lat="45.1883" lon="5.89415">
        <ele>1108</ele>
        <time>2021-04-10T09:03:41Z</time>
      </trkpt>
      <trkpt lat="45.18829" lon="5.89415">
        <ele>1108.2</ele>
        <time>2021-04-10T09:03:42Z</time>
      </trkpt>
      <trkpt lat="45.18827" lon="5.89416">
        <ele>1108.2</ele>
        <time>2021-04-10T09:03:43Z</time>
      </trkpt>
      <trkpt lat="45.18826" lon="5.89417">
        <ele>1108.4</ele>
        <time>2021-04-10T09:03:44Z</time>
      </trkpt>
      <trkpt lat="45.18825" lon="5.89417">
        <ele>1108.4</ele>
        <time>2021-04-10T09:03:45Z</time>
      </trkpt>
      <trkpt lat="45.18824" lon="5.89418">
        <ele>1108.6</ele>
        <time>2021-04-10T09:03:46Z</time>
      </trkpt>
      <trkpt lat="45.18823" lon="5.89419">
        <ele>1108.6</ele>
        <time>2021-04-10T09:03:47Z</time>
      </trkpt>
      <trkpt lat="45.18822" lon="5.89419">
        <ele>1109</ele>
        <time>2021-04-10T09:03:48Z</time>
      </trkpt>
      <trkpt lat="45.1882" lon="5.8942">
        <ele>1109</ele>
        <time>2021-04-10T09:03:49Z</time>
      </trkpt>
      <trkpt lat="45.18819" lon="5.8942">
        <ele>1109.2</ele>
        <time>2021-04-10T09:03:50Z</time>
      </trkpt>
      <trkpt lat="45.18818" lon="5.89421">
        <ele>1109.6</ele>
        <time>2021-04-10T09:03:51Z</time>
      </trkpt>
      <trkpt lat="45.18817" lon="5.89422">
        <ele>1109.8</ele>
        <time>2021-04-10T09:03:52Z</time>
      </trkpt>
      <trkpt lat="45.18815" lon="5.89422">
        <ele>1109.8</ele>
        <time>2021-04-10T09:03:53Z</time>
      </trkpt>
      <trkpt lat="45.18815" lon="5.89423">
        <ele>1109.6</ele>
        <time>2021-04-10T09:03:54Z</time>
      </trkpt>
      <trkpt lat="45.18814" lon="5.89424">
        <ele>1109.8</ele>
        <time>2021-04-10T09:03:55Z</time>
      </trkpt>
      <trkpt lat="45.18814" lon="5.89425">
        <ele>1109.8</ele>
        <time>2021-04-10T09:03:56Z</time>
      </trkpt>
      <trkpt lat="45.18813" lon="5.89425">
        <ele>1109.8</ele>
        <time>2021-04-10T09:03:57Z</time>
      </trkpt>
      <trkpt lat="45.18812" lon="5.89426">
        <ele>1110</ele>
        <time>2021-04-10T09:03:58Z</time>
      </trkpt>
      <trkpt lat="45.18812" lon="5.89427">
        <ele>1110</ele>
        <time>2021-04-10T09:03:59Z</time>
      </trkpt>
      <trkpt lat="45.18811" lon="5.89428">
        <ele>1110.2</ele>
        <time>2021-04-10T09:04:00Z</time>
      </trkpt>
      <trkpt lat="45.1881" lon="5.89428">
        <ele>1110.2</ele>
        <time>2021-04-10T09:04:01Z</time>
      </trkpt>
      <trkpt lat="45.1881" lon="5.89429">
        <ele>1110.2</ele>
        <time>2021-04-10T09:04:02Z</time>
      </trkpt>
      <trkpt lat="45.18809" lon="5.8943">
        <ele>1110</ele>
        <time>2021-04-10T09:04:03Z</time>
      </trkpt>
      <trkpt lat="45.18808" lon="5.89431">
        <ele>1110.2</ele>
        <time>2021-04-10T09:04:04Z</time>
      </trkpt>
      <trkpt lat="45.18808" lon="5.89431">
        <ele>1110.2</ele>
        <time>2021-04-10T09:04:05Z</time>
      </trkpt>
      <trkpt lat="45.18807" lon="5.89433">
        <ele>1110.2</ele>
        <time>2021-04-10T09:04:06Z</time>
      </trkpt>
      <trkpt lat="45.18807" lon="5.89434">
        <ele>1110</ele>
        <time>2021-04-10T09:04:07Z</time>
      </trkpt>
      <trkpt lat="45.18806" lon="5.89435">
        <ele>1110.2</ele>
        <time>2021-04-10T09:04:08Z</time>
      </trkpt>
      <trkpt lat="45.18805" lon="5.89436">
        <ele>1110.2</ele>
        <time>2021-04-10T09:04:09Z</time>
      </trkpt>
      <trkpt lat="45.18805" lon="5.89438">
        <ele>1110.2</ele>
        <time>2021-04-10T09:04:10Z</time>
      </trkpt>
      <trkpt lat="45.18804" lon="5.89439">
        <ele>1110.4</ele>
        <time>2021-04-10T09:04:11Z</time>
      </trkpt>
      <trkpt lat="45.18804" lon="5.8944">
        <ele>1110.6</ele>
        <time>2021-04-10T09:04:12Z</time>
      </trkpt>
      <trkpt lat="45.18803" lon="5.89442">
        <ele>1110.8</ele>
        <time>2021-04-10T09:04:13Z</time>
      </trkpt>
      <trkpt lat="45.18802" lon="5.89443">
        <ele>1111</ele>
        <time>2021-04-10T09:04:14Z</time>
      </trkpt>
      <trkpt lat="45.18802" lon="5.89444">
        <ele>1111</ele>
        <time>2021-04-10T09:04:15Z</time>
      </trkpt>
      <trkpt lat="45.18801" lon="5.89446">
        <ele>1111</ele>
        <time>2021-04-10T09:04:16Z</time>
      </trkpt>
      <trkpt lat="45.188" lon="5.89447">
        <ele>1111</ele>
        <time>2021-04-10T09:04:17Z</time>
      </trkpt>
      <trkpt lat="45.18799" lon="5.89449">
        <ele>1111</ele>
        <time>2021-04-10T09:04:18Z</time>
      </trkpt>
      <trkpt lat="45.18799" lon="5.8945">
        <ele>1111.2</ele>
        <time>2021-04-10T09:04:19Z</time>
      </trkpt>
      <trkpt lat="45.18798" lon="5.89451">
        <ele>1111.2</ele>
        <time>2021-04-10T09:04:20Z</time>
      </trkpt>
      <trkpt lat="45.18797" lon="5.89453">
        <ele>1111.4</ele>
        <time>2021-04-10T09:04:21Z</time>
      </trkpt>
      <trkpt lat="45.18796" lon="5.89454">
        <ele>1111.6</ele>
        <time>2021-04-10T09:04:22Z</time>
      </trkpt>
      <trkpt lat="45.18796" lon="5.89456">
        <ele>1111.6</ele>
        <time>2021-04-10T09:04:23Z</time>
      </trkpt>
      <trkpt lat="45.18795" lon="5.89457">
        <ele>1111.8</ele>
        <time>2021-04-10T09:04:24Z</time>
      </trkpt>
      <trkpt lat="45.18794" lon="5.89459">
        <ele>1112</ele>
        <time>2021-04-10T09:04:25Z</time>
      </trkpt>
      <trkpt lat="45.18793" lon="5.8946">
        <ele>1112</ele>
        <time>2021-04-10T09:04:26Z</time>
      </trkpt>
      <trkpt lat="45.18793" lon="5.89462">
        <ele>1112</ele>
        <time>2021-04-10T09:04:27Z</time>
      </trkpt>
      <trkpt lat="45.18792" lon="5.89463">
        <ele>1112</ele>
        <time>2021-04-10T09:04:28Z</time>
      </trkpt>
      <trkpt lat="45.18791" lon="5.89465">
        <ele>1112.2</ele>
        <time>2021-04-10T09:04:29Z</time>
      </trkpt>
      <trkpt lat="45.18791" lon="5.89466">
        <ele>1112.2</ele>
        <time>2021-04-10T09:04:30Z</time>
      </trkpt>
      <trkpt lat="45.1879" lon="5.89468">
        <ele>1112.4</ele>
        <time>2021-04-10T09:04:31Z</time>
      </trkpt>
      <trkpt lat="45.18789" lon="5.89469">
        <ele>1112.6</ele>
        <time>2021-04-10T09:04:32Z</time>
      </trkpt>
      <trkpt lat="45.18787" lon="5.8947">
        <ele>1112.8</ele>
        <time>2021-04-10T09:04:33Z</time>
      </trkpt>
      <trkpt lat="45.18786" lon="5.89472">
        <ele>1113</ele>
        <time>2021-04-10T09:04:34Z</time>
      </trkpt>
      <trkpt lat="45.18784" lon="5.89473">
        <ele>1113.2</ele>
        <time>2021-04-10T09:04:35Z</time>
      </trkpt>
      <trkpt lat="45.18783" lon="5.89475">
        <ele>1113.4</ele>
        <time>2021-04-10T09:04:36Z</time>
      </trkpt>
      <trkpt lat="45.18782" lon="5.89476">
        <ele>1113.4</ele>
        <time>2021-04-10T09:04:37Z</time>
      </trkpt>
      <trkpt lat="45.18782" lon="5.89477">
        <ele>1113.6</ele>
        <time>2021-04-10T09:04:38Z</time>
      </trkpt>
      <trkpt lat="45.18782" lon="5.89478">
        <ele>1113.8</ele>
        <time>2021-04-10T09:04:39Z</time>
      </trkpt>
      <trkpt lat="45.18782" lon="5.89479">
        <ele>1114</ele>
        <time>2021-04-10T09:04:40Z</time>
      </trkpt>
      <trkpt lat="45.18782" lon="5.8948">
        <ele>1114.2</ele>
        <time>2021-04-10T09:04:41Z</time>
      </trkpt>
      <trkpt lat="45.18781" lon="5.89481">
        <ele>1114.4</ele>
        <time>2021-04-10T09:04:42Z</time>
      </trkpt>
      <trkpt lat="45.18781" lon="5.89482">
        <ele>1114.4</ele>
        <time>2021-04-10T09:04:43Z</time>
      </trkpt>
      <trkpt lat="45.18781" lon="5.89483">
        <ele>1114.4</ele>
        <time>2021-04-10T09:04:44Z</time>
      </trkpt>
      <trkpt lat="45.18781" lon="5.89484">
        <ele>1114.4</ele>
        <time>2021-04-10T09:04:45Z</time>
      </trkpt>
      <trkpt lat="45.1878" lon="5.89485">
        <ele>1114.4</ele>
        <time>2021-04-10T09:04:46Z</time>
      </trkpt>
      <trkpt lat="45.1878" lon="5.89486">
        <ele>1114.6</ele>
        <time>2021-04-10T09:04:47Z</time>
      </trkpt>
      <trkpt lat="45.1878" lon="5.89487">
        <ele>1114.6</ele>
        <time>2021-04-10T09:04:48Z</time>
      </trkpt>
      <trkpt lat="45.18781" lon="5.89489">
        <ele>1114.6</ele>
        <time>2021-04-10T09:04:49Z</time>
      </trkpt>
      <trkpt lat="45.18781" lon="5.89491">
        <ele>1114.8</ele>
        <time>2021-04-10T09:04:50Z</time>
      </trkpt>
      <trkpt lat="45.18782" lon="5.89492">
        <ele>1115</ele>
        <time>2021-04-10T09:04:51Z</time>
      </trkpt>
      <trkpt lat="45.18782" lon="5.89494">
        <ele>1115.2</ele>
        <time>2021-04-10T09:04:52Z</time>
      </trkpt>
      <trkpt lat="45.18783" lon="5.89496">
        <ele>1115.2</ele>
        <time>2021-04-10T09:04:53Z</time>
      </trkpt>
      <trkpt lat="45.18783" lon="5.89498">
        <ele>1115.2</ele>
        <time>2021-04-10T09:04:54Z</time>
      </trkpt>
      <trkpt lat="45.18784" lon="5.89499">
        <ele>1115.2</ele>
        <time>2021-04-10T09:04:55Z</time>
      </trkpt>
      <trkpt lat="45.18785" lon="5.89501">
        <ele>1115.2</ele>
        <time>2021-04-10T09:04:56Z</time>
      </trkpt>
      <trkpt lat="45.18785" lon="5.89503">
        <ele>1115</ele>
        <time>2021-04-10T09:04:57Z</time>
      </trkpt>
      <trkpt lat="45.18786" lon="5.89505">
        <ele>1115.2</ele>
        <time>2021-04-10T09:04:58Z</time>
      </trkpt>
      <trkpt lat="45.18786" lon="5.89507">
        <ele>1115</ele>
        <time>2021-04-10T09:04:59Z</time>
      </trkpt>
      <trkpt lat="45.18787" lon="5.89509">
        <ele>1115</ele>
        <time>2021-04-10T09:05:00Z</time>
      </trkpt>
      <trkpt lat="45.18787" lon="5.89511">
        <ele>1114.8</ele>
        <time>2021-04-10T09:05:01Z</time>
      </trkpt>
      <trkpt lat="45.18788" lon="5.89513">
        <ele>1114.6</ele>
        <time>2021-04-10T09:05:02Z</time>
      </trkpt>
      <trkpt lat="45.18789" lon="5.89516">
        <ele>1114.6</ele>
        <time>2021-04-10T09:05:03Z</time>
      </trkpt>
      <trkpt lat="45.1879" lon="5.89518">
        <ele>1114.4</ele>
        <time>2021-04-10T09:05:04Z</time>
      </trkpt>
      <trkpt lat="45.18791" lon="5.8952">
        <ele>1114.4</ele>
        <time>2021-04-10T09:05:05Z</time>
      </trkpt>
      <trkpt lat="45.18792" lon="5.89522">
        <ele>1114.4</ele>
        <time>2021-04-10T09:05:06Z</time>
      </trkpt>
      <trkpt lat="45.18793" lon="5.89525">
        <ele>1114.4</ele>
        <time>2021-04-10T09:05:07Z</time>
      </trkpt>
      <trkpt lat="45.18793" lon="5.89527">
        <ele>1114.6</ele>
        <time>2021-04-10T09:05:08Z</time>
      </trkpt>
      <trkpt lat="45.18794" lon="5.8953">
        <ele>1114.8</ele>
        <time>2021-04-10T09:05:09Z</time>
      </trkpt>
      <trkpt lat="45.18795" lon="5.89532">
        <ele>1114.8</ele>
        <time>2021-04-10T09:05:10Z</time>
      </trkpt>
      <trkpt lat="45.18795" lon="5.89535">
        <ele>1115.2</ele>
        <time>2021-04-10T09:05:11Z</time>
      </trkpt>
      <trkpt lat="45.18796" lon="5.89537">
        <ele>1115.2</ele>
        <time>2021-04-10T09:05:12Z</time>
      </trkpt>
      <trkpt lat="45.18796" lon="5.89539">
        <ele>1115.6</ele>
        <time>2021-04-10T09:05:13Z</time>
      </trkpt>
      <trkpt lat="45.18795" lon="5.89541">
        <ele>1115.6</ele>
        <time>2021-04-10T09:05:14Z</time>
      </trkpt>
      <trkpt lat="45.18795" lon="5.89543">
        <ele>1115.8</ele>
        <time>2021-04-10T09:05:15Z</time>
      </trkpt>
      <trkpt lat="45.18795" lon="5.89545">
        <ele>1115.6</ele>
        <time>2021-04-10T09:05:16Z</time>
      </trkpt>
      <trkpt lat="45.18795" lon="5.89547">
        <ele>1116</ele>
        <time>2021-04-10T09:05:17Z</time>
      </trkpt>
      <trkpt lat="45.18794" lon="5.89549">
        <ele>1116</ele>
        <time>2021-04-10T09:05:18Z</time>
      </trkpt>
      <trkpt lat="45.18794" lon="5.89551">
        <ele>1116.4</ele>
        <time>2021-04-10T09:05:19Z</time>
      </trkpt>
      <trkpt lat="45.18794" lon="5.89553">
        <ele>1116.4</ele>
        <time>2021-04-10T09:05:20Z</time>
      </trkpt>
      <trkpt lat="45.18793" lon="5.89555">
        <ele>1116.6</ele>
        <time>2021-04-10T09:05:21Z</time>
      </trkpt>
      <trkpt lat="45.18793" lon="5.89557">
        <ele>1116.6</ele>
        <time>2021-04-10T09:05:22Z</time>
      </trkpt>
      <trkpt lat="45.18792" lon="5.89559">
        <ele>1116.8</ele>
        <time>2021-04-10T09:05:23Z</time>
      </trkpt>
      <trkpt lat="45.18792" lon="5.89561">
        <ele>1116.8</ele>
        <time>2021-04-10T09:05:24Z</time>
      </trkpt>
      <trkpt lat="45.18791" lon="5.89563">
        <ele>1117</ele>
        <time>2021-04-10T09:05:25Z</time>
      </trkpt>
      <trkpt lat="45.1879" lon="5.89565">
        <ele>1117</ele>
        <time>2021-04-10T09:05:26Z</time>
      </trkpt>
      <trkpt lat="45.18789" lon="5.89567">
        <ele>1117.4</ele>
        <time>2021-04-10T09:05:27Z</time>
      </trkpt>
      <trkpt lat="45.18788" lon="5.89569">
        <ele>1117.4</ele>
        <time>2021-04-10T09:05:28Z</time>
      </trkpt>
      <trkpt lat="45.18787" lon="5.89571">
        <ele>1117.6</ele>
        <time>2021-04-10T09:05:29Z</time>
      </trkpt>
      <trkpt lat="45.18786" lon="5.89574">
        <ele>1117.6</ele>
        <time>2021-04-10T09:05:30Z</time>
      </trkpt>
      <trkpt lat="45.18785" lon="5.89576">
        <ele>1117.8</ele>
        <time>2021-04-10T09:05:31Z</time>
      </trkpt>
      <trkpt lat="45.18785" lon="5.89577">
        <ele>1117.8</ele>
        <time>2021-04-10T09:05:32Z</time>
      </trkpt>
      <trkpt lat="45.18784" lon="5.89579">
        <ele>1118.2</ele>
        <time>2021-04-10T09:05:33Z</time>
      </trkpt>
      <trkpt lat="45.18783" lon="5.8958">
        <ele>1118.2</ele>
        <time>2021-04-10T09:05:34Z</time>
      </trkpt>
      <trkpt lat="45.18782" lon="5.89582">
        <ele>1118.6</ele>
        <time>2021-04-10T09:05:35Z</time>
      </trkpt>
      <trkpt lat="45.18782" lon="5.89583">
        <ele>1118.6</ele>
        <time>2021-04-10T09:05:36Z</time>
      </trkpt>
      <trkpt lat="45.18781" lon="5.89584">
        <ele>1119</ele>
        <time>2021-04-10T09:05:37Z</time>
      </trkpt>
      <trkpt lat="45.1878" lon="5.89586">
        <ele>1119</ele>
        <time>2021-04-10T09:05:38Z</time>
      </trkpt>
      <trkpt lat="45.18779" lon="5.89587">
        <ele>1119.2</ele>
        <time>2021-04-10T09:05:39Z</time>
      </trkpt>
      <trkpt lat="45.18779" lon="5.89589">
        <ele>1119.2</ele>
        <time>2021-04-10T09:05:40Z</time>
      </trkpt>
      <trkpt lat="45.18778" lon="5.8959">
        <ele>1119.4</ele>
        <time>2021-04-10T09:05:41Z</time>
      </trkpt>
      <trkpt lat="45.18778" lon="5.89592">
        <ele>1119.4</ele>
        <time>2021-04-10T09:05:42Z</time>
      </trkpt>
      <trkpt lat="45.18777" lon="5.89594">
        <ele>1119.6</ele>
        <time>2021-04-10T09:05:43Z</time>
      </trkpt>
      <trkpt lat="45.18777" lon="5.89595">
        <ele>1119.6</ele>
        <time>2021-04-10T09:05:44Z</time>
      </trkpt>
      <trkpt lat="45.18777" lon="5.89597">
        <ele>1119.8</ele>
        <time>2021-04-10T09:05:45Z</time>
      </trkpt>
      <trkpt lat="45.18776" lon="5.89598">
        <ele>1119.8</ele>
        <time>2021-04-10T09:05:46Z</time>
      </trkpt>
      <trkpt lat="45.18776" lon="5.896">
        <ele>1120</ele>
        <time>2021-04-10T09:05:47Z</time>
      </trkpt>
      <trkpt lat="45.18774" lon="5.89601">
        <ele>1120</ele>
        <time>2021-04-10T09:05:48Z</time>
      </trkpt>
      <trkpt lat="45.18773" lon="5.89603">
        <ele>1120.2</ele>
        <time>2021-04-10T09:05:49Z</time>
      </trkpt>
      <trkpt lat="45.18772" lon="5.89604">
        <ele>1120.2</ele>
        <time>2021-04-10T09:05:50Z</time>
      </trkpt>
      <trkpt lat="45.18771" lon="5.89606">
        <ele>1120.4</ele>
        <time>2021-04-10T09:05:51Z</time>
      </trkpt>
      <trkpt lat="45.18769" lon="5.89608">
        <ele>1120.4</ele>
        <time>2021-04-10T09:05:52Z</time>
      </trkpt>
      <trkpt lat="45.18768" lon="5.89609">
        <ele>1120.6</ele>
        <time>2021-04-10T09:05:53Z</time>
      </trkpt>
      <trkpt lat="45.18767" lon="5.89611">
        <ele>1120.6</ele>
        <time>2021-04-10T09:05:54Z</time>
      </trkpt>
      <trkpt lat="45.18766" lon="5.89613">
        <ele>1121</ele>
        <time>2021-04-10T09:05:55Z</time>
      </trkpt>
      <trkpt lat="45.18765" lon="5.89615">
        <ele>1120.8</ele>
        <time>2021-04-10T09:05:56Z</time>
      </trkpt>
      <trkpt lat="45.18764" lon="5.89617">
        <ele>1121.2</ele>
        <time>2021-04-10T09:05:57Z</time>
      </trkpt>
      <trkpt lat="45.18763" lon="5.89619">
        <ele>1121.4</ele>
        <time>2021-04-10T09:05:58Z</time>
      </trkpt>
      <trkpt lat="45.18762" lon="5.89621">
        <ele>1121.8</ele>
        <time>2021-04-10T09:05:59Z</time>
      </trkpt>
      <trkpt lat="45.18761" lon="5.89623">
        <ele>1122</ele>
        <time>2021-04-10T09:06:00Z</time>
      </trkpt>
      <trkpt lat="45.1876" lon="5.89626">
        <ele>1122.4</ele>
        <time>2021-04-10T09:06:01Z</time>
      </trkpt>
      <trkpt lat="45.18759" lon="5.89628">
        <ele>1122.6</ele>
        <time>2021-04-10T09:06:02Z</time>
      </trkpt>
      <trkpt lat="45.18758" lon="5.89631">
        <ele>1122.8</ele>
        <time>2021-04-10T09:06:03Z</time>
      </trkpt>
      <trkpt lat="45.18757" lon="5.89634">
        <ele>1122.8</ele>
        <time>2021-04-10T09:06:04Z</time>
      </trkpt>
      <trkpt lat="45.18756" lon="5.89638">
        <ele>1123.2</ele>
        <time>2021-04-10T09:06:05Z</time>
      </trkpt>
      <trkpt lat="45.18756" lon="5.89643">
        <ele>1123.2</ele>
        <time>2021-04-10T09:06:06Z</time>
      </trkpt>
      <trkpt lat="45.18756" lon="5.89647">
        <ele>1123.4</ele>
        <time>2021-04-10T09:06:07Z</time>
      </trkpt>
      <trkpt lat="45.18755" lon="5.89652">
        <ele>1123.4</ele>
        <time>2021-04-10T09:06:08Z</time>
      </trkpt>
      <trkpt lat="45.18755" lon="5.89656">
        <ele>1123.6</ele>
        <time>2021-04-10T09:06:09Z</time>
      </trkpt>
      <trkpt lat="45.18755" lon="5.89664">
        <ele>1123.6</ele>
        <time>2021-04-10T09:06:10Z</time>
      </trkpt>
      <trkpt lat="45.18754" lon="5.89666">
        <ele>1123.6</ele>
        <time>2021-04-10T09:06:11Z</time>
      </trkpt>
      <trkpt lat="45.18754" lon="5.89669">
        <ele>1123.6</ele>
        <time>2021-04-10T09:06:12Z</time>
      </trkpt>
      <trkpt lat="45.18754" lon="5.89671">
        <ele>1123.6</ele>
        <time>2021-04-10T09:06:13Z</time>
      </trkpt>
      <trkpt lat="45.18754" lon="5.89678">
        <ele>1123.6</ele>
        <time>2021-04-10T09:06:14Z</time>
      </trkpt>
      <trkpt lat="45.18754" lon="5.89678">
        <ele>1123.6</ele>
        <time>2021-04-10T09:06:15Z</time>
      </trkpt>
      <trkpt lat="45.18754" lon="5.89678">
        <ele>1123.6</ele>
        <time>2021-04-10T09:06:16Z</time>
      </trkpt>
      <trkpt lat="45.18754" lon="5.89681">
        <ele>1123.4</ele>
        <time>2021-04-10T09:06:17Z</time>
      </trkpt>
      <trkpt lat="45.18753" lon="5.89684">
        <ele>1123.4</ele>
        <time>2021-04-10T09:06:18Z</time>
      </trkpt>
      <trkpt lat="45.18753" lon="5.89687">
        <ele>1123.4</ele>
        <time>2021-04-10T09:06:19Z</time>
      </trkpt>
      <trkpt lat="45.18753" lon="5.8969">
        <ele>1123.8</ele>
        <time>2021-04-10T09:06:20Z</time>
      </trkpt>
      <trkpt lat="45.18753" lon="5.89692">
        <ele>1124</ele>
        <time>2021-04-10T09:06:21Z</time>
      </trkpt>
      <trkpt lat="45.18753" lon="5.89694">
        <ele>1124.2</ele>
        <time>2021-04-10T09:06:22Z</time>
      </trkpt>
      <trkpt lat="45.18752" lon="5.89696">
        <ele>1124.4</ele>
        <time>2021-04-10T09:06:23Z</time>
      </trkpt>
      <trkpt lat="45.18752" lon="5.89698">
        <ele>1124.6</ele>
        <time>2021-04-10T09:06:24Z</time>
      </trkpt>
      <trkpt lat="45.18752" lon="5.89699">
        <ele>1124.8</ele>
        <time>2021-04-10T09:06:25Z</time>
      </trkpt>
      <trkpt lat="45.18752" lon="5.89701">
        <ele>1124.8</ele>
        <time>2021-04-10T09:06:26Z</time>
      </trkpt>
      <trkpt lat="45.18751" lon="5.89703">
        <ele>1125</ele>
        <time>2021-04-10T09:06:27Z</time>
      </trkpt>
      <trkpt lat="45.18751" lon="5.89705">
        <ele>1124.8</ele>
        <time>2021-04-10T09:06:28Z</time>
      </trkpt>
      <trkpt lat="45.18751" lon="5.89706">
        <ele>1124.4</ele>
        <time>2021-04-10T09:06:29Z</time>
      </trkpt>
      <trkpt lat="45.1875" lon="5.89708">
        <ele>1124.4</ele>
        <time>2021-04-10T09:06:30Z</time>
      </trkpt>
      <trkpt lat="45.1875" lon="5.8971">
        <ele>1124.2</ele>
        <time>2021-04-10T09:06:31Z</time>
      </trkpt>
      <trkpt lat="45.18749" lon="5.89712">
        <ele>1124.2</ele>
        <time>2021-04-10T09:06:32Z</time>
      </trkpt>
      <trkpt lat="45.18749" lon="5.89715">
        <ele>1124.2</ele>
        <time>2021-04-10T09:06:33Z</time>
      </trkpt>
      <trkpt lat="45.18748" lon="5.89717">
        <ele>1124</ele>
        <time>2021-04-10T09:06:34Z</time>
      </trkpt>
      <trkpt lat="45.18747" lon="5.8972">
        <ele>1124.4</ele>
        <time>2021-04-10T09:06:35Z</time>
      </trkpt>
      <trkpt lat="45.18746" lon="5.89722">
        <ele>1124.4</ele>
        <time>2021-04-10T09:06:36Z</time>
      </trkpt>
      <trkpt lat="45.18746" lon="5.89724">
        <ele>1124.4</ele>
        <time>2021-04-10T09:06:37Z</time>
      </trkpt>
      <trkpt lat="45.18746" lon="5.89726">
        <ele>1124.4</ele>
        <time>2021-04-10T09:06:38Z</time>
      </trkpt>
      <trkpt lat="45.18746" lon="5.89728">
        <ele>1124.6</ele>
        <time>2021-04-10T09:06:39Z</time>
      </trkpt>
      <trkpt lat="45.18746" lon="5.8973">
        <ele>1124.4</ele>
        <time>2021-04-10T09:06:40Z</time>
      </trkpt>
      <trkpt lat="45.18746" lon="5.89732">
        <ele>1124.4</ele>
        <time>2021-04-10T09:06:41Z</time>
      </trkpt>
      <trkpt lat="45.18746" lon="5.89734">
        <ele>1124.4</ele>
        <time>2021-04-10T09:06:42Z</time>
      </trkpt>
      <trkpt lat="45.18746" lon="5.89736">
        <ele>1124.4</ele>
        <time>2021-04-10T09:06:43Z</time>
      </trkpt>
      <trkpt lat="45.18746" lon="5.89738">
        <ele>1124.6</ele>
        <time>2021-04-10T09:06:44Z</time>
      </trkpt>
      <trkpt lat="45.18746" lon="5.89739">
        <ele>1124.6</ele>
        <time>2021-04-10T09:06:45Z</time>
      </trkpt>
      <trkpt lat="45.18746" lon="5.89741">
        <ele>1124.6</ele>
        <time>2021-04-10T09:06:46Z</time>
      </trkpt>
      <trkpt lat="45.18746" lon="5.89743">
        <ele>1124.6</ele>
        <time>2021-04-10T09:06:47Z</time>
      </trkpt>
      <trkpt lat="45.18746" lon="5.89745">
        <ele>1124.8</ele>
        <time>2021-04-10T09:06:48Z</time>
      </trkpt>
      <trkpt lat="45.18745" lon="5.89746">
        <ele>1124.8</ele>
        <time>2021-04-10T09:06:49Z</time>
      </trkpt>
      <trkpt lat="45.18745" lon="5.89748">
        <ele>1124.8</ele>
        <time>2021-04-10T09:06:50Z</time>
      </trkpt>
      <trkpt lat="45.18745" lon="5.8975">
        <ele>1124.8</ele>
        <time>2021-04-10T09:06:51Z</time>
      </trkpt>
      <trkpt lat="45.18745" lon="5.89752">
        <ele>1124.8</ele>
        <time>2021-04-10T09:06:52Z</time>
      </trkpt>
      <trkpt lat="45.18744" lon="5.89753">
        <ele>1125</ele>
        <time>2021-04-10T09:06:53Z</time>
      </trkpt>
      <trkpt lat="45.18744" lon="5.89755">
        <ele>1125</ele>
        <time>2021-04-10T09:06:54Z</time>
      </trkpt>
      <trkpt lat="45.18743" lon="5.89757">
        <ele>1125</ele>
        <time>2021-04-10T09:06:55Z</time>
      </trkpt>
      <trkpt lat="45.18743" lon="5.89759">
        <ele>1125</ele>
        <time>2021-04-10T09:06:56Z</time>
      </trkpt>
      <trkpt lat="45.18742" lon="5.89761">
        <ele>1125</ele>
        <time>2021-04-10T09:06:57Z</time>
      </trkpt>
      <trkpt lat="45.18742" lon="5.89763">
        <ele>1125</ele>
        <time>2021-04-10T09:06:58Z</time>
      </trkpt>
      <trkpt lat="45.18741" lon="5.89765">
        <ele>1125</ele>
        <time>2021-04-10T09:06:59Z</time>
      </trkpt>
      <trkpt lat="45.18741" lon="5.89767">
        <ele>1125</ele>
        <time>2021-04-10T09:07:00Z</time>
      </trkpt>
      <trkpt lat="45.18741" lon="5.8977">
        <ele>1125</ele>
        <time>2021-04-10T09:07:01Z</time>
      </trkpt>
      <trkpt lat="45.1874" lon="5.89773">
        <ele>1125</ele>
        <time>2021-04-10T09:07:02Z</time>
      </trkpt>
      <trkpt lat="45.1874" lon="5.89776">
        <ele>1125</ele>
        <time>2021-04-10T09:07:03Z</time>
      </trkpt>
      <trkpt lat="45.18739" lon="5.89779">
        <ele>1125</ele>
        <time>2021-04-10T09:07:04Z</time>
      </trkpt>
      <trkpt lat="45.18739" lon="5.8978">
        <ele>1124.8</ele>
        <time>2021-04-10T09:07:05Z</time>
      </trkpt>
      <trkpt lat="45.18739" lon="5.89782">
        <ele>1125</ele>
        <time>2021-04-10T09:07:06Z</time>
      </trkpt>
      <trkpt lat="45.18738" lon="5.89784">
        <ele>1125</ele>
        <time>2021-04-10T09:07:07Z</time>
      </trkpt>
      <trkpt lat="45.18738" lon="5.89785">
        <ele>1125</ele>
        <time>2021-04-10T09:07:08Z</time>
      </trkpt>
      <trkpt lat="45.18738" lon="5.89787">
        <ele>1125</ele>
        <time>2021-04-10T09:07:09Z</time>
      </trkpt>
      <trkpt lat="45.18737" lon="5.89788">
        <ele>1125.2</ele>
        <time>2021-04-10T09:07:10Z</time>
      </trkpt>
      <trkpt lat="45.18737" lon="5.8979">
        <ele>1125.2</ele>
        <time>2021-04-10T09:07:11Z</time>
      </trkpt>
      <trkpt lat="45.18736" lon="5.89792">
        <ele>1125.2</ele>
        <time>2021-04-10T09:07:12Z</time>
      </trkpt>
      <trkpt lat="45.18736" lon="5.89793">
        <ele>1125.2</ele>
        <time>2021-04-10T09:07:13Z</time>
      </trkpt>
      <trkpt lat="45.18735" lon="5.89795">
        <ele>1125.4</ele>
        <time>2021-04-10T09:07:14Z</time>
      </trkpt>
      <trkpt lat="45.18734" lon="5.89796">
        <ele>1125.6</ele>
        <time>2021-04-10T09:07:15Z</time>
      </trkpt>
      <trkpt lat="45.18733" lon="5.89798">
        <ele>1125.6</ele>
        <time>2021-04-10T09:07:16Z</time>
      </trkpt>
      <trkpt lat="45.18732" lon="5.89799">
        <ele>1125.6</ele>
        <time>2021-04-10T09:07:17Z</time>
      </trkpt>
      <trkpt lat="45.18732" lon="5.89801">
        <ele>1125.8</ele>
        <time>2021-04-10T09:07:18Z</time>
      </trkpt>
      <trkpt lat="45.18731" lon="5.89802">
        <ele>1125.6</ele>
        <time>2021-04-10T09:07:19Z</time>
      </trkpt>
      <trkpt lat="45.1873" lon="5.89804">
        <ele>1125.8</ele>
        <time>2021-04-10T09:07:20Z</time>
      </trkpt>
      <trkpt lat="45.1873" lon="5.89805">
        <ele>1125.8</ele>
        <time>2021-04-10T09:07:21Z</time>
      </trkpt>
      <trkpt lat="45.18729" lon="5.89807">
        <ele>1125.6</ele>
        <time>2021-04-10T09:07:22Z</time>
      </trkpt>
      <trkpt lat="45.18729" lon="5.89809">
        <ele>1125.6</ele>
        <time>2021-04-10T09:07:23Z</time>
      </trkpt>
      <trkpt lat="45.18728" lon="5.8981">
        <ele>1125.6</ele>
        <time>2021-04-10T09:07:24Z</time>
      </trkpt>
      <trkpt lat="45.18728" lon="5.89812">
        <ele>1125.6</ele>
        <time>2021-04-10T09:07:25Z</time>
      </trkpt>
      <trkpt lat="45.18727" lon="5.89814">
        <ele>1125.6</ele>
        <time>2021-04-10T09:07:26Z</time>
      </trkpt>
      <trkpt lat="45.18727" lon="5.89815">
        <ele>1125.6</ele>
        <time>2021-04-10T09:07:27Z</time>
      </trkpt>
      <trkpt lat="45.18726" lon="5.89818">
        <ele>1125.8</ele>
        <time>2021-04-10T09:07:28Z</time>
      </trkpt>
      <trkpt lat="45.18726" lon="5.89821">
        <ele>1125.8</ele>
        <time>2021-04-10T09:07:29Z</time>
      </trkpt>
      <trkpt lat="45.18725" lon="5.89824">
        <ele>1125.6</ele>
        <time>2021-04-10T09:07:30Z</time>
      </trkpt>
      <trkpt lat="45.18725" lon="5.89827">
        <ele>1125.4</ele>
        <time>2021-04-10T09:07:31Z</time>
      </trkpt>
      <trkpt lat="45.18724" lon="5.8983">
        <ele>1125.2</ele>
        <time>2021-04-10T09:07:32Z</time>
      </trkpt>
      <trkpt lat="45.18723" lon="5.89832">
        <ele>1125</ele>
        <time>2021-04-10T09:07:33Z</time>
      </trkpt>
      <trkpt lat="45.18723" lon="5.89834">
        <ele>1125</ele>
        <time>2021-04-10T09:07:34Z</time>
      </trkpt>
      <trkpt lat="45.18722" lon="5.89836">
        <ele>1125.2</ele>
        <time>2021-04-10T09:07:35Z</time>
      </trkpt>
      <trkpt lat="45.18722" lon="5.89838">
        <ele>1125</ele>
        <time>2021-04-10T09:07:36Z</time>
      </trkpt>
      <trkpt lat="45.18721" lon="5.8984">
        <ele>1125</ele>
        <time>2021-04-10T09:07:37Z</time>
      </trkpt>
      <trkpt lat="45.1872" lon="5.89842">
        <ele>1125</ele>
        <time>2021-04-10T09:07:38Z</time>
      </trkpt>
      <trkpt lat="45.1872" lon="5.89844">
        <ele>1125</ele>
        <time>2021-04-10T09:07:39Z</time>
      </trkpt>
      <trkpt lat="45.18719" lon="5.89845">
        <ele>1125.2</ele>
        <time>2021-04-10T09:07:40Z</time>
      </trkpt>
      <trkpt lat="45.18719" lon="5.89847">
        <ele>1125.2</ele>
        <time>2021-04-10T09:07:41Z</time>
      </trkpt>
      <trkpt lat="45.18719" lon="5.89848">
        <ele>1125.2</ele>
        <time>2021-04-10T09:07:42Z</time>
      </trkpt>
      <trkpt lat="45.18718" lon="5.8985">
        <ele>1125.2</ele>
        <time>2021-04-10T09:07:43Z</time>
      </trkpt>
      <trkpt lat="45.18718" lon="5.89851">
        <ele>1125.4</ele>
        <time>2021-04-10T09:07:44Z</time>
      </trkpt>
      <trkpt lat="45.18717" lon="5.89853">
        <ele>1125.4</ele>
        <time>2021-04-10T09:07:45Z</time>
      </trkpt>
      <trkpt lat="45.18717" lon="5.89854">
        <ele>1125.2</ele>
        <time>2021-04-10T09:07:46Z</time>
      </trkpt>
      <trkpt lat="45.18716" lon="5.89855">
        <ele>1125</ele>
        <time>2021-04-10T09:07:47Z</time>
      </trkpt>
      <trkpt lat="45.18716" lon="5.89857">
        <ele>1125.2</ele>
        <time>2021-04-10T09:07:48Z</time>
      </trkpt>
      <trkpt lat="45.18716" lon="5.89858">
        <ele>1125.2</ele>
        <time>2021-04-10T09:07:49Z</time>
      </trkpt>
      <trkpt lat="45.18716" lon="5.89859">
        <ele>1125</ele>
        <time>2021-04-10T09:07:50Z</time>
      </trkpt>
      <trkpt lat="45.18715" lon="5.8986">
        <ele>1125</ele>
        <time>2021-04-10T09:07:51Z</time>
      </trkpt>
      <trkpt lat="45.18715" lon="5.89861">
        <ele>1125</ele>
        <time>2021-04-10T09:07:52Z</time>
      </trkpt>
      <trkpt lat="45.18715" lon="5.89862">
        <ele>1125</ele>
        <time>2021-04-10T09:07:53Z</time>
      </trkpt>
      <trkpt lat="45.18715" lon="5.89863">
        <ele>1125</ele>
        <time>2021-04-10T09:07:54Z</time>
      </trkpt>
      <trkpt lat="45.18714" lon="5.89864">
        <ele>1124.8</ele>
        <time>2021-04-10T09:07:55Z</time>
      </trkpt>
      <trkpt lat="45.18714" lon="5.89866">
        <ele>1124.6</ele>
        <time>2021-04-10T09:07:56Z</time>
      </trkpt>
      <trkpt lat="45.18714" lon="5.89867">
        <ele>1124.6</ele>
        <time>2021-04-10T09:07:57Z</time>
      </trkpt>
      <trkpt lat="45.18714" lon="5.89868">
        <ele>1124.6</ele>
        <time>2021-04-10T09:07:58Z</time>
      </trkpt>
      <trkpt lat="45.18713" lon="5.89869">
        <ele>1124.6</ele>
        <time>2021-04-10T09:07:59Z</time>
      </trkpt>
      <trkpt lat="45.18713" lon="5.8987">
        <ele>1124.6</ele>
        <time>2021-04-10T09:08:00Z</time>
      </trkpt>
      <trkpt lat="45.18713" lon="5.89871">
        <ele>1124.6</ele>
        <time>2021-04-10T09:08:01Z</time>
      </trkpt>
      <trkpt lat="45.18713" lon="5.89872">
        <ele>1124.8</ele>
        <time>2021-04-10T09:08:02Z</time>
      </trkpt>
      <trkpt lat="45.18713" lon="5.89873">
        <ele>1125</ele>
        <time>2021-04-10T09:08:03Z</time>
      </trkpt>
      <trkpt lat="45.18713" lon="5.89874">
        <ele>1125</ele>
        <time>2021-04-10T09:08:04Z</time>
      </trkpt>
      <trkpt lat="45.18713" lon="5.89875">
        <ele>1125.2</ele>
        <time>2021-04-10T09:08:05Z</time>
      </trkpt>
      <trkpt lat="45.18713" lon="5.89876">
        <ele>1125.2</ele>
        <time>2021-04-10T09:08:06Z</time>
      </trkpt>
      <trkpt lat="45.18713" lon="5.89877">
        <ele>1125.6</ele>
        <time>2021-04-10T09:08:07Z</time>
      </trkpt>
      <trkpt lat="45.18713" lon="5.89878">
        <ele>1125.8</ele>
        <time>2021-04-10T09:08:08Z</time>
      </trkpt>
      <trkpt lat="45.18713" lon="5.89879">
        <ele>1125.6</ele>
        <time>2021-04-10T09:08:09Z</time>
      </trkpt>
      <trkpt lat="45.18713" lon="5.8988">
        <ele>1125.6</ele>
        <time>2021-04-10T09:08:10Z</time>
      </trkpt>
      <trkpt lat="45.18712" lon="5.89881">
        <ele>1125.4</ele>
        <time>2021-04-10T09:08:11Z</time>
      </trkpt>
      <trkpt lat="45.18712" lon="5.89882">
        <ele>1125.4</ele>
        <time>2021-04-10T09:08:12Z</time>
      </trkpt>
      <trkpt lat="45.18712" lon="5.89883">
        <ele>1125.4</ele>
        <time>2021-04-10T09:08:13Z</time>
      </trkpt>
      <trkpt lat="45.18712" lon="5.89886">
        <ele>1125.4</ele>
        <time>2021-04-10T09:08:14Z</time>
      </trkpt>
      <trkpt lat="45.18711" lon="5.89889">
        <ele>1125.4</ele>
        <time>2021-04-10T09:08:15Z</time>
      </trkpt>
      <trkpt lat="45.1871" lon="5.89891">
        <ele>1125.6</ele>
        <time>2021-04-10T09:08:16Z</time>
      </trkpt>
      <trkpt lat="45.18709" lon="5.89894">
        <ele>1125.8</ele>
        <time>2021-04-10T09:08:17Z</time>
      </trkpt>
      <trkpt lat="45.18709" lon="5.89897">
        <ele>1125.8</ele>
        <time>2021-04-10T09:08:18Z</time>
      </trkpt>
      <trkpt lat="45.18708" lon="5.899">
        <ele>1125.8</ele>
        <time>2021-04-10T09:08:19Z</time>
      </trkpt>
      <trkpt lat="45.18708" lon="5.89901">
        <ele>1126</ele>
        <time>2021-04-10T09:08:20Z</time>
      </trkpt>
      <trkpt lat="45.18707" lon="5.89902">
        <ele>1126.2</ele>
        <time>2021-04-10T09:08:21Z</time>
      </trkpt>
      <trkpt lat="45.18707" lon="5.89903">
        <ele>1126.2</ele>
        <time>2021-04-10T09:08:22Z</time>
      </trkpt>
      <trkpt lat="45.18707" lon="5.89904">
        <ele>1126.4</ele>
        <time>2021-04-10T09:08:23Z</time>
      </trkpt>
      <trkpt lat="45.18706" lon="5.89906">
        <ele>1126.4</ele>
        <time>2021-04-10T09:08:24Z</time>
      </trkpt>
      <trkpt lat="45.18706" lon="5.89907">
        <ele>1126.4</ele>
        <time>2021-04-10T09:08:25Z</time>
      </trkpt>
      <trkpt lat="45.18706" lon="5.89908">
        <ele>1126.4</ele>
        <time>2021-04-10T09:08:26Z</time>
      </trkpt>
      <trkpt lat="45.18706" lon="5.89909">
        <ele>1126.6</ele>
        <time>2021-04-10T09:08:27Z</time>
      </trkpt>
      <trkpt lat="45.18705" lon="5.89911">
        <ele>1126.4</ele>
        <time>2021-04-10T09:08:28Z</time>
      </trkpt>
      <trkpt lat="45.18705" lon="5.89912">
        <ele>1126.2</ele>
        <time>2021-04-10T09:08:29Z</time>
      </trkpt>
      <trkpt lat="45.18705" lon="5.89913">
        <ele>1126.2</ele>
        <time>2021-04-10T09:08:30Z</time>
      </trkpt>
      <trkpt lat="45.18704" lon="5.89914">
        <ele>1126.2</ele>
        <time>2021-04-10T09:08:31Z</time>
      </trkpt>
      <trkpt lat="45.18704" lon="5.89916">
        <ele>1126.2</ele>
        <time>2021-04-10T09:08:32Z</time>
      </trkpt>
      <trkpt lat="45.18704" lon="5.89917">
        <ele>1126.6</ele>
        <time>2021-04-10T09:08:33Z</time>
      </trkpt>
      <trkpt lat="45.18704" lon="5.89918">
        <ele>1126.8</ele>
        <time>2021-04-10T09:08:34Z</time>
      </trkpt>
      <trkpt lat="45.18703" lon="5.89919">
        <ele>1126.8</ele>
        <time>2021-04-10T09:08:35Z</time>
      </trkpt>
      <trkpt lat="45.18703" lon="5.8992">
        <ele>1127</ele>
        <time>2021-04-10T09:08:36Z</time>
      </trkpt>
      <trkpt lat="45.18703" lon="5.89922">
        <ele>1127</ele>
        <time>2021-04-10T09:08:37Z</time>
      </trkpt>
      <trkpt lat="45.18703" lon="5.89923">
        <ele>1127</ele>
        <time>2021-04-10T09:08:38Z</time>
      </trkpt>
      <trkpt lat="45.18702" lon="5.89924">
        <ele>1127</ele>
        <time>2021-04-10T09:08:39Z</time>
      </trkpt>
      <trkpt lat="45.18702" lon="5.89925">
        <ele>1126.8</ele>
        <time>2021-04-10T09:08:40Z</time>
      </trkpt>
      <trkpt lat="45.18702" lon="5.89927">
        <ele>1126.8</ele>
        <time>2021-04-10T09:08:41Z</time>
      </trkpt>
      <trkpt lat="45.18701" lon="5.89928">
        <ele>1127</ele>
        <time>2021-04-10T09:08:42Z</time>
      </trkpt>
      <trkpt lat="45.18701" lon="5.89929">
        <ele>1127.4</ele>
        <time>2021-04-10T09:08:43Z</time>
      </trkpt>
      <trkpt lat="45.18701" lon="5.8993">
        <ele>1127.4</ele>
        <time>2021-04-10T09:08:44Z</time>
      </trkpt>
      <trkpt lat="45.18701" lon="5.89932">
        <ele>1127.4</ele>
        <time>2021-04-10T09:08:45Z</time>
      </trkpt>
      <trkpt lat="45.187" lon="5.89933">
        <ele>1127.4</ele>
        <time>2021-04-10T09:08:46Z</time>
      </trkpt>
      <trkpt lat="45.187" lon="5.89934">
        <ele>1127.4</ele>
        <time>2021-04-10T09:08:47Z</time>
      </trkpt>
      <trkpt lat="45.187" lon="5.89935">
        <ele>1127.6</ele>
        <time>2021-04-10T09:08:48Z</time>
      </trkpt>
      <trkpt lat="45.18699" lon="5.89936">
        <ele>1127.8</ele>
        <time>2021-04-10T09:08:49Z</time>
      </trkpt>
      <trkpt lat="45.18699" lon="5.89938">
        <ele>1127.8</ele>
        <time>2021-04-10T09:08:50Z</time>
      </trkpt>
      <trkpt lat="45.18699" lon="5.89939">
        <ele>1128</ele>
        <time>2021-04-10T09:08:51Z</time>
      </trkpt>
      <trkpt lat="45.18699" lon="5.8994">
        <ele>1128.2</ele>
        <time>2021-04-10T09:08:52Z</time>
      </trkpt>
      <trkpt lat="45.18698" lon="5.89941">
        <ele>1128.2</ele>
        <time>2021-04-10T09:08:53Z</time>
      </trkpt>
      <trkpt lat="45.18698" lon="5.89943">
        <ele>1128.2</ele>
        <time>2021-04-10T09:08:54Z</time>
      </trkpt>
      <trkpt lat="45.18698" lon="5.89944">
        <ele>1128.4</ele>
        <time>2021-04-10T09:08:55Z</time>
      </trkpt>
      <trkpt lat="45.18697" lon="5.89945">
        <ele>1128.4</ele>
        <time>2021-04-10T09:08:56Z</time>
      </trkpt>
      <trkpt lat="45.18697" lon="5.89946">
        <ele>1128.4</ele>
        <time>2021-04-10T09:08:57Z</time>
      </trkpt>
      <trkpt lat="45.18697" lon="5.89947">
        <ele>1128.2</ele>
        <time>2021-04-10T09:08:58Z</time>
      </trkpt>
      <trkpt lat="45.18697" lon="5.89949">
        <ele>1128.4</ele>
        <time>2021-04-10T09:08:59Z</time>
      </trkpt>
      <trkpt lat="45.18696" lon="5.8995">
        <ele>1128.2</ele>
        <time>2021-04-10T09:09:00Z</time>
      </trkpt>
      <trkpt lat="45.18696" lon="5.89951">
        <ele>1128.2</ele>
        <time>2021-04-10T09:09:01Z</time>
      </trkpt>
      <trkpt lat="45.18696" lon="5.89952">
        <ele>1128.2</ele>
        <time>2021-04-10T09:09:02Z</time>
      </trkpt>
      <trkpt lat="45.18695" lon="5.89954">
        <ele>1128.2</ele>
        <time>2021-04-10T09:09:03Z</time>
      </trkpt>
      <trkpt lat="45.18695" lon="5.89955">
        <ele>1128.2</ele>
        <time>2021-04-10T09:09:04Z</time>
      </trkpt>
      <trkpt lat="45.18695" lon="5.89956">
        <ele>1128.4</ele>
        <time>2021-04-10T09:09:05Z</time>
      </trkpt>
      <trkpt lat="45.18695" lon="5.89957">
        <ele>1128.4</ele>
        <time>2021-04-10T09:09:06Z</time>
      </trkpt>
      <trkpt lat="45.18694" lon="5.89959">
        <ele>1128.8</ele>
        <time>2021-04-10T09:09:07Z</time>
      </trkpt>
      <trkpt lat="45.18694" lon="5.8996">
        <ele>1128.8</ele>
        <time>2021-04-10T09:09:08Z</time>
      </trkpt>
      <trkpt lat="45.18694" lon="5.89961">
        <ele>1129</ele>
        <time>2021-04-10T09:09:09Z</time>
      </trkpt>
      <trkpt lat="45.18694" lon="5.89962">
        <ele>1129.4</ele>
        <time>2021-04-10T09:09:10Z</time>
      </trkpt>
      <trkpt lat="45.18693" lon="5.89963">
        <ele>1129.6</ele>
        <time>2021-04-10T09:09:11Z</time>
      </trkpt>
      <trkpt lat="45.18693" lon="5.89965">
        <ele>1130</ele>
        <time>2021-04-10T09:09:12Z</time>
      </trkpt>
      <trkpt lat="45.18693" lon="5.89966">
        <ele>1130.2</ele>
        <time>2021-04-10T09:09:13Z</time>
      </trkpt>
      <trkpt lat="45.18692" lon="5.89967">
        <ele>1130.4</ele>
        <time>2021-04-10T09:09:14Z</time>
      </trkpt>
      <trkpt lat="45.18692" lon="5.89968">
        <ele>1130.6</ele>
        <time>2021-04-10T09:09:15Z</time>
      </trkpt>
      <trkpt lat="45.18692" lon="5.8997">
        <ele>1130.8</ele>
        <time>2021-04-10T09:09:16Z</time>
      </trkpt>
      <trkpt lat="45.18692" lon="5.89971">
        <ele>1131</ele>
        <time>2021-04-10T09:09:17Z</time>
      </trkpt>
      <trkpt lat="45.1869" lon="5.89977">
        <ele>1131</ele>
        <time>2021-04-10T09:09:18Z</time>
      </trkpt>
      <trkpt lat="45.1869" lon="5.89977">
        <ele>1131.2</ele>
        <time>2021-04-10T09:09:19Z</time>
      </trkpt>
      <trkpt lat="45.1869" lon="5.89977">
        <ele>1131.6</ele>
        <time>2021-04-10T09:09:20Z</time>
      </trkpt>
      <trkpt lat="45.1869" lon="5.89977">
        <ele>1132</ele>
        <time>2021-04-10T09:09:21Z</time>
      </trkpt>
      <trkpt lat="45.18689" lon="5.8998">
        <ele>1132.2</ele>
        <time>2021-04-10T09:09:22Z</time>
      </trkpt>
      <trkpt lat="45.18688" lon="5.89982">
        <ele>1132.6</ele>
        <time>2021-04-10T09:09:23Z</time>
      </trkpt>
      <trkpt lat="45.18687" lon="5.89985">
        <ele>1132.8</ele>
        <time>2021-04-10T09:09:24Z</time>
      </trkpt>
      <trkpt lat="45.18687" lon="5.89988">
        <ele>1133.2</ele>
        <time>2021-04-10T09:09:25Z</time>
      </trkpt>
      <trkpt lat="45.18686" lon="5.8999">
        <ele>1133.4</ele>
        <time>2021-04-10T09:09:26Z</time>
      </trkpt>
      <trkpt lat="45.18685" lon="5.89992">
        <ele>1133.6</ele>
        <time>2021-04-10T09:09:27Z</time>
      </trkpt>
      <trkpt lat="45.18684" lon="5.89993">
        <ele>1133.6</ele>
        <time>2021-04-10T09:09:28Z</time>
      </trkpt>
      <trkpt lat="45.18683" lon="5.89994">
        <ele>1134</ele>
        <time>2021-04-10T09:09:29Z</time>
      </trkpt>
      <trkpt lat="45.18682" lon="5.89996">
        <ele>1134.4</ele>
        <time>2021-04-10T09:09:30Z</time>
      </trkpt>
      <trkpt lat="45.18681" lon="5.89997">
        <ele>1134.6</ele>
        <time>2021-04-10T09:09:31Z</time>
      </trkpt>
      <trkpt lat="45.1868" lon="5.89999">
        <ele>1134.8</ele>
        <time>2021-04-10T09:09:32Z</time>
      </trkpt>
      <trkpt lat="45.18679" lon="5.9">
        <ele>1135.2</ele>
        <time>2021-04-10T09:09:33Z</time>
      </trkpt>
      <trkpt lat="45.18677" lon="5.90001">
        <ele>1135.2</ele>
        <time>2021-04-10T09:09:34Z</time>
      </trkpt>
      <trkpt lat="45.18675" lon="5.90002">
        <ele>1135.4</ele>
        <time>2021-04-10T09:09:35Z</time>
      </trkpt>
      <trkpt lat="45.18673" lon="5.90003">
        <ele>1135.8</ele>
        <time>2021-04-10T09:09:36Z</time>
      </trkpt>
      <trkpt lat="45.18672" lon="5.90004">
        <ele>1136</ele>
        <time>2021-04-10T09:09:37Z</time>
      </trkpt>
      <trkpt lat="45.1867" lon="5.90005">
        <ele>1136.2</ele>
        <time>2021-04-10T09:09:38Z</time>
      </trkpt>
      <trkpt lat="45.1867" lon="5.90006">
        <ele>1136.4</ele>
        <time>2021-04-10T09:09:39Z</time>
      </trkpt>
      <trkpt lat="45.18669" lon="5.90008">
        <ele>1136.8</ele>
        <time>2021-04-10T09:09:40Z</time>
      </trkpt>
      <trkpt lat="45.18669" lon="5.9001">
        <ele>1136.8</ele>
        <time>2021-04-10T09:09:41Z</time>
      </trkpt>
      <trkpt lat="45.18668" lon="5.90011">
        <ele>1137</ele>
        <time>2021-04-10T09:09:42Z</time>
      </trkpt>
      <trkpt lat="45.18668" lon="5.90013">
        <ele>1136.8</ele>
        <time>2021-04-10T09:09:43Z</time>
      </trkpt>
      <trkpt lat="45.18667" lon="5.90014">
        <ele>1137.2</ele>
        <time>2021-04-10T09:09:44Z</time>
      </trkpt>
      <trkpt lat="45.18667" lon="5.90016">
        <ele>1137.2</ele>
        <time>2021-04-10T09:09:45Z</time>
      </trkpt>
      <trkpt lat="45.18666" lon="5.90017">
        <ele>1137.6</ele>
        <time>2021-04-10T09:09:46Z</time>
      </trkpt>
      <trkpt lat="45.18666" lon="5.90019">
        <ele>1138</ele>
        <time>2021-04-10T09:09:47Z</time>
      </trkpt>
      <trkpt lat="45.18666" lon="5.9002">
        <ele>1138.4</ele>
        <time>2021-04-10T09:09:48Z</time>
      </trkpt>
      <trkpt lat="45.18666" lon="5.90022">
        <ele>1138.6</ele>
        <time>2021-04-10T09:09:49Z</time>
      </trkpt>
      <trkpt lat="45.18665" lon="5.90023">
        <ele>1138.6</ele>
        <time>2021-04-10T09:09:50Z</time>
      </trkpt>
      <trkpt lat="45.18665" lon="5.90024">
        <ele>1138.6</ele>
        <time>2021-04-10T09:09:51Z</time>
      </trkpt>
      <trkpt lat="45.18665" lon="5.90025">
        <ele>1138.6</ele>
        <time>2021-04-10T09:09:52Z</time>
      </trkpt>
      <trkpt lat="45.18665" lon="5.90027">
        <ele>1138.8</ele>
        <time>2021-04-10T09:09:53Z</time>
      </trkpt>
      <trkpt lat="45.18665" lon="5.90028">
        <ele>1138.8</ele>
        <time>2021-04-10T09:09:54Z</time>
      </trkpt>
      <trkpt lat="45.18664" lon="5.90029">
        <ele>1139</ele>
        <time>2021-04-10T09:09:55Z</time>
      </trkpt>
      <trkpt lat="45.18664" lon="5.9003">
        <ele>1139.2</ele>
        <time>2021-04-10T09:09:56Z</time>
      </trkpt>
      <trkpt lat="45.18664" lon="5.90032">
        <ele>1139.6</ele>
        <time>2021-04-10T09:09:57Z</time>
      </trkpt>
      <trkpt lat="45.18664" lon="5.90032">
        <ele>1139.8</ele>
        <time>2021-04-10T09:09:58Z</time>
      </trkpt>
      <trkpt lat="45.18664" lon="5.90033">
        <ele>1140.2</ele>
        <time>2021-04-10T09:09:59Z</time>
      </trkpt>
      <trkpt lat="45.18663" lon="5.90034">
        <ele>1140.4</ele>
        <time>2021-04-10T09:10:01Z</time>
      </trkpt>
      <trkpt lat="45.18663" lon="5.90035">
        <ele>1140.6</ele>
        <time>2021-04-10T09:10:02Z</time>
      </trkpt>
      <trkpt lat="45.18663" lon="5.90035">
        <ele>1140.8</ele>
        <time>2021-04-10T09:10:03Z</time>
      </trkpt>
      <trkpt lat="45.18662" lon="5.90036">
        <ele>1140.8</ele>
        <time>2021-04-10T09:10:04Z</time>
      </trkpt>
      <trkpt lat="45.18662" lon="5.90037">
        <ele>1141</ele>
        <time>2021-04-10T09:10:05Z</time>
      </trkpt>
      <trkpt lat="45.18662" lon="5.90038">
        <ele>1141.2</ele>
        <time>2021-04-10T09:10:06Z</time>
      </trkpt>
      <trkpt lat="45.18662" lon="5.90038">
        <ele>1141.4</ele>
        <time>2021-04-10T09:10:07Z</time>
      </trkpt>
      <trkpt lat="45.18661" lon="5.90039">
        <ele>1141.4</ele>
        <time>2021-04-10T09:10:08Z</time>
      </trkpt>
      <trkpt lat="45.18661" lon="5.9004">
        <ele>1141.8</ele>
        <time>2021-04-10T09:10:09Z</time>
      </trkpt>
      <trkpt lat="45.18661" lon="5.90041">
        <ele>1141.8</ele>
        <time>2021-04-10T09:10:10Z</time>
      </trkpt>
      <trkpt lat="45.18661" lon="5.90042">
        <ele>1142</ele>
        <time>2021-04-10T09:10:11Z</time>
      </trkpt>
      <trkpt lat="45.1866" lon="5.90042">
        <ele>1142.2</ele>
        <time>2021-04-10T09:10:12Z</time>
      </trkpt>
      <trkpt lat="45.1866" lon="5.90043">
        <ele>1142.2</ele>
        <time>2021-04-10T09:10:13Z</time>
      </trkpt>
      <trkpt lat="45.18659" lon="5.90044">
        <ele>1142.4</ele>
        <time>2021-04-10T09:10:14Z</time>
      </trkpt>
      <trkpt lat="45.18659" lon="5.90045">
        <ele>1142.4</ele>
        <time>2021-04-10T09:10:15Z</time>
      </trkpt>
      <trkpt lat="45.18658" lon="5.90047">
        <ele>1142.6</ele>
        <time>2021-04-10T09:10:16Z</time>
      </trkpt>
      <trkpt lat="45.18658" lon="5.90048">
        <ele>1142.6</ele>
        <time>2021-04-10T09:10:17Z</time>
      </trkpt>
      <trkpt lat="45.18657" lon="5.90049">
        <ele>1142.8</ele>
        <time>2021-04-10T09:10:18Z</time>
      </trkpt>
      <trkpt lat="45.18657" lon="5.9005">
        <ele>1142.8</ele>
        <time>2021-04-10T09:10:19Z</time>
      </trkpt>
      <trkpt lat="45.18656" lon="5.90052">
        <ele>1142.8</ele>
        <time>2021-04-10T09:10:20Z</time>
      </trkpt>
      <trkpt lat="45.18655" lon="5.90053">
        <ele>1142.8</ele>
        <time>2021-04-10T09:10:21Z</time>
      </trkpt>
      <trkpt lat="45.18655" lon="5.90054">
        <ele>1142.8</ele>
        <time>2021-04-10T09:10:22Z</time>
      </trkpt>
      <trkpt lat="45.18654" lon="5.90055">
        <ele>1142.8</ele>
        <time>2021-04-10T09:10:23Z</time>
      </trkpt>
      <trkpt lat="45.18654" lon="5.90056">
        <ele>1143</ele>
        <time>2021-04-10T09:10:24Z</time>
      </trkpt>
      <trkpt lat="45.18653" lon="5.90058">
        <ele>1143</ele>
        <time>2021-04-10T09:10:25Z</time>
      </trkpt>
      <trkpt lat="45.18653" lon="5.90058">
        <ele>1142.8</ele>
        <time>2021-04-10T09:10:26Z</time>
      </trkpt>
      <trkpt lat="45.18653" lon="5.90058">
        <ele>1142.8</ele>
        <time>2021-04-10T09:10:27Z</time>
      </trkpt>
      <trkpt lat="45.18653" lon="5.90058">
        <ele>1142.8</ele>
        <time>2021-04-10T09:10:28Z</time>
      </trkpt>
      <trkpt lat="45.18653" lon="5.9006">
        <ele>1142.8</ele>
        <time>2021-04-10T09:10:29Z</time>
      </trkpt>
      <trkpt lat="45.18652" lon="5.90063">
        <ele>1142.8</ele>
        <time>2021-04-10T09:10:30Z</time>
      </trkpt>
      <trkpt lat="45.18651" lon="5.90065">
        <ele>1143</ele>
        <time>2021-04-10T09:10:31Z</time>
      </trkpt>
      <trkpt lat="45.18651" lon="5.90067">
        <ele>1143</ele>
        <time>2021-04-10T09:10:32Z</time>
      </trkpt>
      <trkpt lat="45.1865" lon="5.9007">
        <ele>1142.8</ele>
        <time>2021-04-10T09:10:33Z</time>
      </trkpt>
      <trkpt lat="45.1865" lon="5.90072">
        <ele>1142.8</ele>
        <time>2021-04-10T09:10:34Z</time>
      </trkpt>
      <trkpt lat="45.18649" lon="5.90075">
        <ele>1142.8</ele>
        <time>2021-04-10T09:10:35Z</time>
      </trkpt>
      <trkpt lat="45.18648" lon="5.90077">
        <ele>1143</ele>
        <time>2021-04-10T09:10:36Z</time>
      </trkpt>
      <trkpt lat="45.18648" lon="5.9008">
        <ele>1142.8</ele>
        <time>2021-04-10T09:10:37Z</time>
      </trkpt>
      <trkpt lat="45.18647" lon="5.90082">
        <ele>1142.8</ele>
        <time>2021-04-10T09:10:38Z</time>
      </trkpt>
      <trkpt lat="45.18647" lon="5.90085">
        <ele>1143</ele>
        <time>2021-04-10T09:10:39Z</time>
      </trkpt>
      <trkpt lat="45.18646" lon="5.90087">
        <ele>1143</ele>
        <time>2021-04-10T09:10:40Z</time>
      </trkpt>
      <trkpt lat="45.18646" lon="5.90087">
        <ele>1143.2</ele>
        <time>2021-04-10T09:10:41Z</time>
      </trkpt>
      <trkpt lat="45.18646" lon="5.90087">
        <ele>1143</ele>
        <time>2021-04-10T09:10:42Z</time>
      </trkpt>
      <trkpt lat="45.18646" lon="5.90087">
        <ele>1143.2</ele>
        <time>2021-04-10T09:10:43Z</time>
      </trkpt>
      <trkpt lat="45.18647" lon="5.9009">
        <ele>1143.2</ele>
        <time>2021-04-10T09:10:44Z</time>
      </trkpt>
      <trkpt lat="45.18647" lon="5.90093">
        <ele>1143.2</ele>
        <time>2021-04-10T09:10:45Z</time>
      </trkpt>
      <trkpt lat="45.18648" lon="5.90096">
        <ele>1143.4</ele>
        <time>2021-04-10T09:10:46Z</time>
      </trkpt>
      <trkpt lat="45.18648" lon="5.90099">
        <ele>1143.4</ele>
        <time>2021-04-10T09:10:47Z</time>
      </trkpt>
      <trkpt lat="45.18649" lon="5.90102">
        <ele>1143.6</ele>
        <time>2021-04-10T09:10:48Z</time>
      </trkpt>
      <trkpt lat="45.18649" lon="5.90105">
        <ele>1143.8</ele>
        <time>2021-04-10T09:10:49Z</time>
      </trkpt>
      <trkpt lat="45.1865" lon="5.90108">
        <ele>1143.8</ele>
        <time>2021-04-10T09:10:50Z</time>
      </trkpt>
      <trkpt lat="45.18651" lon="5.90115">
        <ele>1143.8</ele>
        <time>2021-04-10T09:10:51Z</time>
      </trkpt>
      <trkpt lat="45.18651" lon="5.90117">
        <ele>1143.8</ele>
        <time>2021-04-10T09:10:52Z</time>
      </trkpt>
      <trkpt lat="45.18651" lon="5.90118">
        <ele>1144</ele>
        <time>2021-04-10T09:10:53Z</time>
      </trkpt>
      <trkpt lat="45.18651" lon="5.9012">
        <ele>1144.4</ele>
        <time>2021-04-10T09:10:54Z</time>
      </trkpt>
      <trkpt lat="45.18651" lon="5.90122">
        <ele>1144.4</ele>
        <time>2021-04-10T09:10:55Z</time>
      </trkpt>
      <trkpt lat="45.18651" lon="5.90123">
        <ele>1144.6</ele>
        <time>2021-04-10T09:10:56Z</time>
      </trkpt>
      <trkpt lat="45.18651" lon="5.90125">
        <ele>1144.6</ele>
        <time>2021-04-10T09:10:57Z</time>
      </trkpt>
      <trkpt lat="45.18651" lon="5.90126">
        <ele>1144.6</ele>
        <time>2021-04-10T09:10:58Z</time>
      </trkpt>
      <trkpt lat="45.18651" lon="5.90128">
        <ele>1144.6</ele>
        <time>2021-04-10T09:10:59Z</time>
      </trkpt>
      <trkpt lat="45.18651" lon="5.9013">
        <ele>1144.8</ele>
        <time>2021-04-10T09:11:00Z</time>
      </trkpt>
      <trkpt lat="45.18651" lon="5.90131">
        <ele>1145.2</ele>
        <time>2021-04-10T09:11:01Z</time>
      </trkpt>
      <trkpt lat="45.18652" lon="5.90133">
        <ele>1145.4</ele>
        <time>2021-04-10T09:11:02Z</time>
      </trkpt>
      <trkpt lat="45.18652" lon="5.90135">
        <ele>1145.6</ele>
        <time>2021-04-10T09:11:03Z</time>
      </trkpt>
      <trkpt lat="45.18652" lon="5.90136">
        <ele>1145.6</ele>
        <time>2021-04-10T09:11:04Z</time>
      </trkpt>
      <trkpt lat="45.18652" lon="5.90138">
        <ele>1145.8</ele>
        <time>2021-04-10T09:11:05Z</time>
      </trkpt>
      <trkpt lat="45.18652" lon="5.9014">
        <ele>1146</ele>
        <time>2021-04-10T09:11:06Z</time>
      </trkpt>
      <trkpt lat="45.18652" lon="5.90141">
        <ele>1146.2</ele>
        <time>2021-04-10T09:11:07Z</time>
      </trkpt>
      <trkpt lat="45.18652" lon="5.90143">
        <ele>1146.4</ele>
        <time>2021-04-10T09:11:08Z</time>
      </trkpt>
      <trkpt lat="45.18652" lon="5.90145">
        <ele>1146.6</ele>
        <time>2021-04-10T09:11:09Z</time>
      </trkpt>
      <trkpt lat="45.18652" lon="5.90146">
        <ele>1146.6</ele>
        <time>2021-04-10T09:11:10Z</time>
      </trkpt>
      <trkpt lat="45.18652" lon="5.90148">
        <ele>1146.6</ele>
        <time>2021-04-10T09:11:11Z</time>
      </trkpt>
      <trkpt lat="45.18652" lon="5.90149">
        <ele>1146.8</ele>
        <time>2021-04-10T09:11:12Z</time>
      </trkpt>
      <trkpt lat="45.18652" lon="5.90151">
        <ele>1147</ele>
        <time>2021-04-10T09:11:13Z</time>
      </trkpt>
      <trkpt lat="45.18652" lon="5.90153">
        <ele>1147.2</ele>
        <time>2021-04-10T09:11:14Z</time>
      </trkpt>
      <trkpt lat="45.18653" lon="5.90154">
        <ele>1147.4</ele>
        <time>2021-04-10T09:11:15Z</time>
      </trkpt>
      <trkpt lat="45.18653" lon="5.90156">
        <ele>1147.4</ele>
        <time>2021-04-10T09:11:16Z</time>
      </trkpt>
      <trkpt lat="45.18653" lon="5.90158">
        <ele>1147.6</ele>
        <time>2021-04-10T09:11:17Z</time>
      </trkpt>
      <trkpt lat="45.18653" lon="5.90159">
        <ele>1147.8</ele>
        <time>2021-04-10T09:11:18Z</time>
      </trkpt>
      <trkpt lat="45.18653" lon="5.90161">
        <ele>1147.6</ele>
        <time>2021-04-10T09:11:19Z</time>
      </trkpt>
      <trkpt lat="45.18653" lon="5.90163">
        <ele>1147.8</ele>
        <time>2021-04-10T09:11:20Z</time>
      </trkpt>
      <trkpt lat="45.18653" lon="5.90164">
        <ele>1147.8</ele>
        <time>2021-04-10T09:11:21Z</time>
      </trkpt>
      <trkpt lat="45.18653" lon="5.90166">
        <ele>1148</ele>
        <time>2021-04-10T09:11:22Z</time>
      </trkpt>
      <trkpt lat="45.18653" lon="5.90168">
        <ele>1148.4</ele>
        <time>2021-04-10T09:11:23Z</time>
      </trkpt>
      <trkpt lat="45.18653" lon="5.90169">
        <ele>1148.4</ele>
        <time>2021-04-10T09:11:24Z</time>
      </trkpt>
      <trkpt lat="45.18653" lon="5.90171">
        <ele>1148.2</ele>
        <time>2021-04-10T09:11:25Z</time>
      </trkpt>
      <trkpt lat="45.18653" lon="5.90172">
        <ele>1148.4</ele>
        <time>2021-04-10T09:11:26Z</time>
      </trkpt>
      <trkpt lat="45.18653" lon="5.90174">
        <ele>1148.4</ele>
        <time>2021-04-10T09:11:27Z</time>
      </trkpt>
      <trkpt lat="45.18654" lon="5.90176">
        <ele>1148.6</ele>
        <time>2021-04-10T09:11:28Z</time>
      </trkpt>
      <trkpt lat="45.18654" lon="5.90177">
        <ele>1148.8</ele>
        <time>2021-04-10T09:11:29Z</time>
      </trkpt>
      <trkpt lat="45.18654" lon="5.90179">
        <ele>1149</ele>
        <time>2021-04-10T09:11:30Z</time>
      </trkpt>
      <trkpt lat="45.18654" lon="5.90181">
        <ele>1149.2</ele>
        <time>2021-04-10T09:11:31Z</time>
      </trkpt>
      <trkpt lat="45.18654" lon="5.90182">
        <ele>1149.2</ele>
        <time>2021-04-10T09:11:32Z</time>
      </trkpt>
      <trkpt lat="45.18654" lon="5.90184">
        <ele>1149.4</ele>
        <time>2021-04-10T09:11:33Z</time>
      </trkpt>
      <trkpt lat="45.18654" lon="5.90186">
        <ele>1149.4</ele>
        <time>2021-04-10T09:11:34Z</time>
      </trkpt>
      <trkpt lat="45.18654" lon="5.90187">
        <ele>1149.6</ele>
        <time>2021-04-10T09:11:35Z</time>
      </trkpt>
      <trkpt lat="45.18654" lon="5.90189">
        <ele>1149.8</ele>
        <time>2021-04-10T09:11:36Z</time>
      </trkpt>
      <trkpt lat="45.18654" lon="5.90191">
        <ele>1150.2</ele>
        <time>2021-04-10T09:11:37Z</time>
      </trkpt>
      <trkpt lat="45.18654" lon="5.90192">
        <ele>1150.4</ele>
        <time>2021-04-10T09:11:38Z</time>
      </trkpt>
      <trkpt lat="45.18654" lon="5.90194">
        <ele>1150.6</ele>
        <time>2021-04-10T09:11:39Z</time>
      </trkpt>
      <trkpt lat="45.18654" lon="5.90195">
        <ele>1150.6</ele>
        <time>2021-04-10T09:11:40Z</time>
      </trkpt>
      <trkpt lat="45.18655" lon="5.90197">
        <ele>1150.8</ele>
        <time>2021-04-10T09:11:41Z</time>
      </trkpt>
      <trkpt lat="45.18655" lon="5.90199">
        <ele>1150.8</ele>
        <time>2021-04-10T09:11:42Z</time>
      </trkpt>
      <trkpt lat="45.18655" lon="5.902">
        <ele>1151</ele>
        <time>2021-04-10T09:11:43Z</time>
      </trkpt>
      <trkpt lat="45.18655" lon="5.90202">
        <ele>1151</ele>
        <time>2021-04-10T09:11:44Z</time>
      </trkpt>
      <trkpt lat="45.18655" lon="5.90204">
        <ele>1151.4</ele>
        <time>2021-04-10T09:11:45Z</time>
      </trkpt>
      <trkpt lat="45.18655" lon="5.90205">
        <ele>1151.6</ele>
        <time>2021-04-10T09:11:46Z</time>
      </trkpt>
      <trkpt lat="45.18655" lon="5.90207">
        <ele>1152</ele>
        <time>2021-04-10T09:11:47Z</time>
      </trkpt>
      <trkpt lat="45.18655" lon="5.90209">
        <ele>1152.4</ele>
        <time>2021-04-10T09:11:48Z</time>
      </trkpt>
      <trkpt lat="45.18655" lon="5.9021">
        <ele>1152.4</ele>
        <time>2021-04-10T09:11:49Z</time>
      </trkpt>
      <trkpt lat="45.18655" lon="5.90212">
        <ele>1152.4</ele>
        <time>2021-04-10T09:11:50Z</time>
      </trkpt>
      <trkpt lat="45.18655" lon="5.90213">
        <ele>1152.4</ele>
        <time>2021-04-10T09:11:51Z</time>
      </trkpt>
      <trkpt lat="45.18655" lon="5.90215">
        <ele>1152.6</ele>
        <time>2021-04-10T09:11:52Z</time>
      </trkpt>
      <trkpt lat="45.18655" lon="5.90217">
        <ele>1152.8</ele>
        <time>2021-04-10T09:11:53Z</time>
      </trkpt>
      <trkpt lat="45.18656" lon="5.90218">
        <ele>1153</ele>
        <time>2021-04-10T09:11:54Z</time>
      </trkpt>
      <trkpt lat="45.18656" lon="5.9022">
        <ele>1153.6</ele>
        <time>2021-04-10T09:11:55Z</time>
      </trkpt>
      <trkpt lat="45.18656" lon="5.90222">
        <ele>1153.8</ele>
        <time>2021-04-10T09:11:56Z</time>
      </trkpt>
      <trkpt lat="45.18656" lon="5.90223">
        <ele>1154</ele>
        <time>2021-04-10T09:11:57Z</time>
      </trkpt>
      <trkpt lat="45.18656" lon="5.90225">
        <ele>1154.2</ele>
        <time>2021-04-10T09:11:58Z</time>
      </trkpt>
      <trkpt lat="45.18656" lon="5.90227">
        <ele>1154.4</ele>
        <time>2021-04-10T09:11:59Z</time>
      </trkpt>
      <trkpt lat="45.18656" lon="5.90229">
        <ele>1154.4</ele>
        <time>2021-04-10T09:12:00Z</time>
      </trkpt>
      <trkpt lat="45.18656" lon="5.90231">
        <ele>1154.6</ele>
        <time>2021-04-10T09:12:01Z</time>
      </trkpt>
      <trkpt lat="45.18656" lon="5.90233">
        <ele>1154.8</ele>
        <time>2021-04-10T09:12:02Z</time>
      </trkpt>
      <trkpt lat="45.18657" lon="5.90234">
        <ele>1155</ele>
        <time>2021-04-10T09:12:03Z</time>
      </trkpt>
      <trkpt lat="45.18657" lon="5.90234">
        <ele>1155</ele>
        <time>2021-04-10T09:12:04Z</time>
      </trkpt>
      <trkpt lat="45.18657" lon="5.90235">
        <ele>1155.2</ele>
        <time>2021-04-10T09:12:05Z</time>
      </trkpt>
      <trkpt lat="45.18657" lon="5.90236">
        <ele>1155.4</ele>
        <time>2021-04-10T09:12:06Z</time>
      </trkpt>
      <trkpt lat="45.18657" lon="5.90236">
        <ele>1155.4</ele>
        <time>2021-04-10T09:12:07Z</time>
      </trkpt>
      <trkpt lat="45.18657" lon="5.90239">
        <ele>1155.6</ele>
        <time>2021-04-10T09:12:08Z</time>
      </trkpt>
      <trkpt lat="45.18657" lon="5.90239">
        <ele>1155.6</ele>
        <time>2021-04-10T09:12:09Z</time>
      </trkpt>
      <trkpt lat="45.18657" lon="5.90242">
        <ele>1156</ele>
        <time>2021-04-10T09:12:10Z</time>
      </trkpt>
      <trkpt lat="45.18657" lon="5.90244">
        <ele>1156</ele>
        <time>2021-04-10T09:12:11Z</time>
      </trkpt>
      <trkpt lat="45.18656" lon="5.90245">
        <ele>1156.2</ele>
        <time>2021-04-10T09:12:12Z</time>
      </trkpt>
      <trkpt lat="45.18656" lon="5.90247">
        <ele>1156.2</ele>
        <time>2021-04-10T09:12:13Z</time>
      </trkpt>
      <trkpt lat="45.18656" lon="5.90248">
        <ele>1156.4</ele>
        <time>2021-04-10T09:12:14Z</time>
      </trkpt>
      <trkpt lat="45.18655" lon="5.90249">
        <ele>1156.6</ele>
        <time>2021-04-10T09:12:15Z</time>
      </trkpt>
      <trkpt lat="45.18655" lon="5.90251">
        <ele>1157</ele>
        <time>2021-04-10T09:12:16Z</time>
      </trkpt>
      <trkpt lat="45.18654" lon="5.90252">
        <ele>1157.4</ele>
        <time>2021-04-10T09:12:17Z</time>
      </trkpt>
      <trkpt lat="45.18654" lon="5.90253">
        <ele>1157.6</ele>
        <time>2021-04-10T09:12:18Z</time>
      </trkpt>
      <trkpt lat="45.18654" lon="5.90255">
        <ele>1158</ele>
        <time>2021-04-10T09:12:19Z</time>
      </trkpt>
      <trkpt lat="45.18653" lon="5.90256">
        <ele>1158.2</ele>
        <time>2021-04-10T09:12:20Z</time>
      </trkpt>
      <trkpt lat="45.18653" lon="5.90258">
        <ele>1158.2</ele>
        <time>2021-04-10T09:12:21Z</time>
      </trkpt>
      <trkpt lat="45.18653" lon="5.90266">
        <ele>1158.4</ele>
        <time>2021-04-10T09:12:22Z</time>
      </trkpt>
      <trkpt lat="45.18654" lon="5.90275">
        <ele>1158.4</ele>
        <time>2021-04-10T09:12:23Z</time>
      </trkpt>
      <trkpt lat="45.18654" lon="5.90283">
        <ele>1158.4</ele>
        <time>2021-04-10T09:12:24Z</time>
      </trkpt>
      <trkpt lat="45.18654" lon="5.90291">
        <ele>1158.6</ele>
        <time>2021-04-10T09:12:25Z</time>
      </trkpt>
      <trkpt lat="45.18655" lon="5.90295">
        <ele>1158.8</ele>
        <time>2021-04-10T09:12:26Z</time>
      </trkpt>
      <trkpt lat="45.18655" lon="5.90298">
        <ele>1158.8</ele>
        <time>2021-04-10T09:12:27Z</time>
      </trkpt>
      <trkpt lat="45.18656" lon="5.90305">
        <ele>1159</ele>
        <time>2021-04-10T09:12:28Z</time>
      </trkpt>
      <trkpt lat="45.18656" lon="5.90305">
        <ele>1159.2</ele>
        <time>2021-04-10T09:12:29Z</time>
      </trkpt>
      <trkpt lat="45.18656" lon="5.90305">
        <ele>1159.4</ele>
        <time>2021-04-10T09:12:30Z</time>
      </trkpt>
      <trkpt lat="45.18656" lon="5.90305">
        <ele>1159.4</ele>
        <time>2021-04-10T09:12:31Z</time>
      </trkpt>
      <trkpt lat="45.18656" lon="5.90306">
        <ele>1159.6</ele>
        <time>2021-04-10T09:12:32Z</time>
      </trkpt>
      <trkpt lat="45.18656" lon="5.90307">
        <ele>1159.8</ele>
        <time>2021-04-10T09:12:33Z</time>
      </trkpt>
      <trkpt lat="45.18656" lon="5.90309">
        <ele>1160</ele>
        <time>2021-04-10T09:12:34Z</time>
      </trkpt>
      <trkpt lat="45.18656" lon="5.9031">
        <ele>1160</ele>
        <time>2021-04-10T09:12:35Z</time>
      </trkpt>
      <trkpt lat="45.18655" lon="5.90312">
        <ele>1160</ele>
        <time>2021-04-10T09:12:36Z</time>
      </trkpt>
      <trkpt lat="45.18655" lon="5.90313">
        <ele>1160.2</ele>
        <time>2021-04-10T09:12:37Z</time>
      </trkpt>
      <trkpt lat="45.18655" lon="5.90315">
        <ele>1160.4</ele>
        <time>2021-04-10T09:12:38Z</time>
      </trkpt>
      <trkpt lat="45.18655" lon="5.90316">
        <ele>1160.8</ele>
        <time>2021-04-10T09:12:39Z</time>
      </trkpt>
      <trkpt lat="45.18654" lon="5.90318">
        <ele>1161</ele>
        <time>2021-04-10T09:12:40Z</time>
      </trkpt>
      <trkpt lat="45.18654" lon="5.90319">
        <ele>1161.2</ele>
        <time>2021-04-10T09:12:41Z</time>
      </trkpt>
      <trkpt lat="45.18653" lon="5.90321">
        <ele>1161.4</ele>
        <time>2021-04-10T09:12:42Z</time>
      </trkpt>
      <trkpt lat="45.18652" lon="5.90322">
        <ele>1161.8</ele>
        <time>2021-04-10T09:12:43Z</time>
      </trkpt>
      <trkpt lat="45.18652" lon="5.90324">
        <ele>1161.8</ele>
        <time>2021-04-10T09:12:44Z</time>
      </trkpt>
      <trkpt lat="45.18651" lon="5.90326">
        <ele>1162.2</ele>
        <time>2021-04-10T09:12:45Z</time>
      </trkpt>
      <trkpt lat="45.1865" lon="5.90327">
        <ele>1162.4</ele>
        <time>2021-04-10T09:12:46Z</time>
      </trkpt>
      <trkpt lat="45.18649" lon="5.90329">
        <ele>1162.8</ele>
        <time>2021-04-10T09:12:47Z</time>
      </trkpt>
      <trkpt lat="45.18649" lon="5.9033">
        <ele>1163.2</ele>
        <time>2021-04-10T09:12:48Z</time>
      </trkpt>
      <trkpt lat="45.18648" lon="5.90332">
        <ele>1163.4</ele>
        <time>2021-04-10T09:12:49Z</time>
      </trkpt>
      <trkpt lat="45.18648" lon="5.90333">
        <ele>1163.6</ele>
        <time>2021-04-10T09:12:50Z</time>
      </trkpt>
      <trkpt lat="45.18647" lon="5.90335">
        <ele>1163.6</ele>
        <time>2021-04-10T09:12:51Z</time>
      </trkpt>
      <trkpt lat="45.18647" lon="5.90336">
        <ele>1163.6</ele>
        <time>2021-04-10T09:12:52Z</time>
      </trkpt>
      <trkpt lat="45.18647" lon="5.90338">
        <ele>1163.8</ele>
        <time>2021-04-10T09:12:53Z</time>
      </trkpt>
      <trkpt lat="45.18646" lon="5.90339">
        <ele>1164</ele>
        <time>2021-04-10T09:12:54Z</time>
      </trkpt>
      <trkpt lat="45.18646" lon="5.90341">
        <ele>1164.2</ele>
        <time>2021-04-10T09:12:55Z</time>
      </trkpt>
      <trkpt lat="45.18645" lon="5.90342">
        <ele>1164.4</ele>
        <time>2021-04-10T09:12:56Z</time>
      </trkpt>
      <trkpt lat="45.18645" lon="5.90343">
        <ele>1164.6</ele>
        <time>2021-04-10T09:12:57Z</time>
      </trkpt>
      <trkpt lat="45.18644" lon="5.90344">
        <ele>1164.8</ele>
        <time>2021-04-10T09:12:58Z</time>
      </trkpt>
      <trkpt lat="45.18644" lon="5.90344">
        <ele>1165.2</ele>
        <time>2021-04-10T09:12:59Z</time>
      </trkpt>
      <trkpt lat="45.18643" lon="5.90345">
        <ele>1165.4</ele>
        <time>2021-04-10T09:13:00Z</time>
      </trkpt>
      <trkpt lat="45.18643" lon="5.90346">
        <ele>1165.6</ele>
        <time>2021-04-10T09:13:01Z</time>
      </trkpt>
      <trkpt lat="45.18642" lon="5.90347">
        <ele>1165.8</ele>
        <time>2021-04-10T09:13:02Z</time>
      </trkpt>
      <trkpt lat="45.18641" lon="5.90348">
        <ele>1166.2</ele>
        <time>2021-04-10T09:13:03Z</time>
      </trkpt>
      <trkpt lat="45.18641" lon="5.90349">
        <ele>1166.4</ele>
        <time>2021-04-10T09:13:04Z</time>
      </trkpt>
      <trkpt lat="45.1864" lon="5.9035">
        <ele>1166.6</ele>
        <time>2021-04-10T09:13:05Z</time>
      </trkpt>
      <trkpt lat="45.1864" lon="5.90351">
        <ele>1166.8</ele>
        <time>2021-04-10T09:13:06Z</time>
      </trkpt>
      <trkpt lat="45.18639" lon="5.90351">
        <ele>1167.2</ele>
        <time>2021-04-10T09:13:07Z</time>
      </trkpt>
      <trkpt lat="45.18639" lon="5.90353">
        <ele>1167.4</ele>
        <time>2021-04-10T09:13:08Z</time>
      </trkpt>
      <trkpt lat="45.18639" lon="5.90355">
        <ele>1167.8</ele>
        <time>2021-04-10T09:13:09Z</time>
      </trkpt>
      <trkpt lat="45.18639" lon="5.90356">
        <ele>1168</ele>
        <time>2021-04-10T09:13:10Z</time>
      </trkpt>
      <trkpt lat="45.18638" lon="5.90358">
        <ele>1168.2</ele>
        <time>2021-04-10T09:13:11Z</time>
      </trkpt>
      <trkpt lat="45.18638" lon="5.90359">
        <ele>1168.6</ele>
        <time>2021-04-10T09:13:12Z</time>
      </trkpt>
      <trkpt lat="45.18638" lon="5.90361">
        <ele>1168.6</ele>
        <time>2021-04-10T09:13:13Z</time>
      </trkpt>
      <trkpt lat="45.18638" lon="5.90362">
        <ele>1168.8</ele>
        <time>2021-04-10T09:13:14Z</time>
      </trkpt>
      <trkpt lat="45.18637" lon="5.90364">
        <ele>1169.2</ele>
        <time>2021-04-10T09:13:15Z</time>
      </trkpt>
      <trkpt lat="45.18637" lon="5.90365">
        <ele>1169.4</ele>
        <time>2021-04-10T09:13:16Z</time>
      </trkpt>
      <trkpt lat="45.18637" lon="5.90367">
        <ele>1169.8</ele>
        <time>2021-04-10T09:13:17Z</time>
      </trkpt>
      <trkpt lat="45.18637" lon="5.90368">
        <ele>1170.2</ele>
        <time>2021-04-10T09:13:18Z</time>
      </trkpt>
      <trkpt lat="45.18636" lon="5.9037">
        <ele>1170.2</ele>
        <time>2021-04-10T09:13:19Z</time>
      </trkpt>
      <trkpt lat="45.18636" lon="5.90371">
        <ele>1170.4</ele>
        <time>2021-04-10T09:13:20Z</time>
      </trkpt>
      <trkpt lat="45.18636" lon="5.90373">
        <ele>1170.4</ele>
        <time>2021-04-10T09:13:21Z</time>
      </trkpt>
      <trkpt lat="45.18636" lon="5.90374">
        <ele>1170.8</ele>
        <time>2021-04-10T09:13:22Z</time>
      </trkpt>
      <trkpt lat="45.18636" lon="5.90376">
        <ele>1170.8</ele>
        <time>2021-04-10T09:13:23Z</time>
      </trkpt>
      <trkpt lat="45.18635" lon="5.90377">
        <ele>1171.2</ele>
        <time>2021-04-10T09:13:24Z</time>
      </trkpt>
      <trkpt lat="45.18635" lon="5.90378">
        <ele>1171.4</ele>
        <time>2021-04-10T09:13:25Z</time>
      </trkpt>
      <trkpt lat="45.18635" lon="5.90379">
        <ele>1171.6</ele>
        <time>2021-04-10T09:13:26Z</time>
      </trkpt>
      <trkpt lat="45.18635" lon="5.9038">
        <ele>1171.8</ele>
        <time>2021-04-10T09:13:27Z</time>
      </trkpt>
      <trkpt lat="45.18635" lon="5.90381">
        <ele>1172</ele>
        <time>2021-04-10T09:13:28Z</time>
      </trkpt>
      <trkpt lat="45.18635" lon="5.90382">
        <ele>1172</ele>
        <time>2021-04-10T09:13:29Z</time>
      </trkpt>
      <trkpt lat="45.18634" lon="5.90383">
        <ele>1172.2</ele>
        <time>2021-04-10T09:13:30Z</time>
      </trkpt>
      <trkpt lat="45.18634" lon="5.90384">
        <ele>1172.4</ele>
        <time>2021-04-10T09:13:31Z</time>
      </trkpt>
      <trkpt lat="45.18634" lon="5.90385">
        <ele>1172.6</ele>
        <time>2021-04-10T09:13:32Z</time>
      </trkpt>
      <trkpt lat="45.18634" lon="5.90386">
        <ele>1172.8</ele>
        <time>2021-04-10T09:13:33Z</time>
      </trkpt>
      <trkpt lat="45.18634" lon="5.90387">
        <ele>1173.2</ele>
        <time>2021-04-10T09:13:34Z</time>
      </trkpt>
      <trkpt lat="45.18633" lon="5.90388">
        <ele>1173.4</ele>
        <time>2021-04-10T09:13:35Z</time>
      </trkpt>
      <trkpt lat="45.18633" lon="5.90389">
        <ele>1173.8</ele>
        <time>2021-04-10T09:13:36Z</time>
      </trkpt>
      <trkpt lat="45.18633" lon="5.9039">
        <ele>1173.8</ele>
        <time>2021-04-10T09:13:37Z</time>
      </trkpt>
      <trkpt lat="45.18633" lon="5.90391">
        <ele>1174.2</ele>
        <time>2021-04-10T09:13:38Z</time>
      </trkpt>
      <trkpt lat="45.18633" lon="5.90392">
        <ele>1174.4</ele>
        <time>2021-04-10T09:13:39Z</time>
      </trkpt>
      <trkpt lat="45.18632" lon="5.90394">
        <ele>1174.4</ele>
        <time>2021-04-10T09:13:40Z</time>
      </trkpt>
      <trkpt lat="45.18632" lon="5.90396">
        <ele>1174.4</ele>
        <time>2021-04-10T09:13:41Z</time>
      </trkpt>
      <trkpt lat="45.18632" lon="5.90398">
        <ele>1174.6</ele>
        <time>2021-04-10T09:13:42Z</time>
      </trkpt>
      <trkpt lat="45.18631" lon="5.904">
        <ele>1174.8</ele>
        <time>2021-04-10T09:13:43Z</time>
      </trkpt>
      <trkpt lat="45.18631" lon="5.90402">
        <ele>1174.8</ele>
        <time>2021-04-10T09:13:44Z</time>
      </trkpt>
      <trkpt lat="45.1863" lon="5.90404">
        <ele>1175</ele>
        <time>2021-04-10T09:13:45Z</time>
      </trkpt>
      <trkpt lat="45.1863" lon="5.90406">
        <ele>1175.2</ele>
        <time>2021-04-10T09:13:46Z</time>
      </trkpt>
      <trkpt lat="45.1863" lon="5.90409">
        <ele>1175.4</ele>
        <time>2021-04-10T09:13:47Z</time>
      </trkpt>
      <trkpt lat="45.18629" lon="5.90411">
        <ele>1175.6</ele>
        <time>2021-04-10T09:13:48Z</time>
      </trkpt>
      <trkpt lat="45.18629" lon="5.90414">
        <ele>1175.8</ele>
        <time>2021-04-10T09:13:49Z</time>
      </trkpt>
      <trkpt lat="45.18629" lon="5.90414">
        <ele>1176</ele>
        <time>2021-04-10T09:13:50Z</time>
      </trkpt>
      <trkpt lat="45.18629" lon="5.90414">
        <ele>1176.2</ele>
        <time>2021-04-10T09:13:51Z</time>
      </trkpt>
      <trkpt lat="45.18629" lon="5.90414">
        <ele>1176.4</ele>
        <time>2021-04-10T09:13:52Z</time>
      </trkpt>
      <trkpt lat="45.18629" lon="5.90415">
        <ele>1176.8</ele>
        <time>2021-04-10T09:13:53Z</time>
      </trkpt>
      <trkpt lat="45.18628" lon="5.90417">
        <ele>1177.2</ele>
        <time>2021-04-10T09:13:54Z</time>
      </trkpt>
      <trkpt lat="45.18628" lon="5.90418">
        <ele>1177.4</ele>
        <time>2021-04-10T09:13:55Z</time>
      </trkpt>
      <trkpt lat="45.18628" lon="5.90419">
        <ele>1177.8</ele>
        <time>2021-04-10T09:13:56Z</time>
      </trkpt>
      <trkpt lat="45.18628" lon="5.90421">
        <ele>1178</ele>
        <time>2021-04-10T09:13:57Z</time>
      </trkpt>
      <trkpt lat="45.18627" lon="5.90422">
        <ele>1178.2</ele>
        <time>2021-04-10T09:13:58Z</time>
      </trkpt>
      <trkpt lat="45.18627" lon="5.90423">
        <ele>1178.4</ele>
        <time>2021-04-10T09:13:59Z</time>
      </trkpt>
      <trkpt lat="45.18627" lon="5.90425">
        <ele>1178.6</ele>
        <time>2021-04-10T09:14:00Z</time>
      </trkpt>
      <trkpt lat="45.18627" lon="5.90426">
        <ele>1179</ele>
        <time>2021-04-10T09:14:01Z</time>
      </trkpt>
      <trkpt lat="45.18626" lon="5.90427">
        <ele>1179.2</ele>
        <time>2021-04-10T09:14:02Z</time>
      </trkpt>
      <trkpt lat="45.18626" lon="5.90429">
        <ele>1179.4</ele>
        <time>2021-04-10T09:14:03Z</time>
      </trkpt>
      <trkpt lat="45.18625" lon="5.9043">
        <ele>1179.8</ele>
        <time>2021-04-10T09:14:04Z</time>
      </trkpt>
      <trkpt lat="45.18624" lon="5.90431">
        <ele>1180</ele>
        <time>2021-04-10T09:14:05Z</time>
      </trkpt>
      <trkpt lat="45.18623" lon="5.90432">
        <ele>1180.4</ele>
        <time>2021-04-10T09:14:06Z</time>
      </trkpt>
      <trkpt lat="45.18622" lon="5.90434">
        <ele>1180.6</ele>
        <time>2021-04-10T09:14:07Z</time>
      </trkpt>
      <trkpt lat="45.18622" lon="5.90435">
        <ele>1180.8</ele>
        <time>2021-04-10T09:14:08Z</time>
      </trkpt>
      <trkpt lat="45.18621" lon="5.90436">
        <ele>1181.2</ele>
        <time>2021-04-10T09:14:09Z</time>
      </trkpt>
      <trkpt lat="45.1862" lon="5.90438">
        <ele>1181.6</ele>
        <time>2021-04-10T09:14:10Z</time>
      </trkpt>
      <trkpt lat="45.18619" lon="5.90439">
        <ele>1181.8</ele>
        <time>2021-04-10T09:14:11Z</time>
      </trkpt>
      <trkpt lat="45.18618" lon="5.9044">
        <ele>1182</ele>
        <time>2021-04-10T09:14:12Z</time>
      </trkpt>
      <trkpt lat="45.18618" lon="5.90442">
        <ele>1182.4</ele>
        <time>2021-04-10T09:14:13Z</time>
      </trkpt>
      <trkpt lat="45.18617" lon="5.90443">
        <ele>1182.6</ele>
        <time>2021-04-10T09:14:14Z</time>
      </trkpt>
      <trkpt lat="45.18616" lon="5.90444">
        <ele>1182.8</ele>
        <time>2021-04-10T09:14:15Z</time>
      </trkpt>
      <trkpt lat="45.18615" lon="5.90446">
        <ele>1183</ele>
        <time>2021-04-10T09:14:16Z</time>
      </trkpt>
      <trkpt lat="45.18614" lon="5.90447">
        <ele>1183.2</ele>
        <time>2021-04-10T09:14:17Z</time>
      </trkpt>
      <trkpt lat="45.18614" lon="5.90448">
        <ele>1183.2</ele>
        <time>2021-04-10T09:14:18Z</time>
      </trkpt>
      <trkpt lat="45.18612" lon="5.9045">
        <ele>1183.6</ele>
        <time>2021-04-10T09:14:19Z</time>
      </trkpt>
      <trkpt lat="45.18611" lon="5.90451">
        <ele>1184</ele>
        <time>2021-04-10T09:14:20Z</time>
      </trkpt>
      <trkpt lat="45.1861" lon="5.90452">
        <ele>1184.2</ele>
        <time>2021-04-10T09:14:21Z</time>
      </trkpt>
      <trkpt lat="45.18608" lon="5.90453">
        <ele>1184.4</ele>
        <time>2021-04-10T09:14:22Z</time>
      </trkpt>
      <trkpt lat="45.18607" lon="5.90454">
        <ele>1184.8</ele>
        <time>2021-04-10T09:14:23Z</time>
      </trkpt>
      <trkpt lat="45.18606" lon="5.90455">
        <ele>1184.8</ele>
        <time>2021-04-10T09:14:24Z</time>
      </trkpt>
      <trkpt lat="45.18605" lon="5.90456">
        <ele>1185.2</ele>
        <time>2021-04-10T09:14:25Z</time>
      </trkpt>
      <trkpt lat="45.18604" lon="5.90457">
        <ele>1185.4</ele>
        <time>2021-04-10T09:14:26Z</time>
      </trkpt>
      <trkpt lat="45.18603" lon="5.90458">
        <ele>1185.8</ele>
        <time>2021-04-10T09:14:27Z</time>
      </trkpt>
      <trkpt lat="45.18603" lon="5.90458">
        <ele>1186</ele>
        <time>2021-04-10T09:14:28Z</time>
      </trkpt>
      <trkpt lat="45.18602" lon="5.90459">
        <ele>1186.4</ele>
        <time>2021-04-10T09:14:29Z</time>
      </trkpt>
      <trkpt lat="45.18602" lon="5.90459">
        <ele>1186.6</ele>
        <time>2021-04-10T09:14:30Z</time>
      </trkpt>
      <trkpt lat="45.18601" lon="5.9046">
        <ele>1186.8</ele>
        <time>2021-04-10T09:14:31Z</time>
      </trkpt>
      <trkpt lat="45.18601" lon="5.90461">
        <ele>1186.8</ele>
        <time>2021-04-10T09:14:32Z</time>
      </trkpt>
      <trkpt lat="45.186" lon="5.90461">
        <ele>1186.8</ele>
        <time>2021-04-10T09:14:33Z</time>
      </trkpt>
      <trkpt lat="45.18599" lon="5.90462">
        <ele>1187</ele>
        <time>2021-04-10T09:14:34Z</time>
      </trkpt>
      <trkpt lat="45.18599" lon="5.90462">
        <ele>1187.2</ele>
        <time>2021-04-10T09:14:35Z</time>
      </trkpt>
      <trkpt lat="45.18598" lon="5.90463">
        <ele>1187.4</ele>
        <time>2021-04-10T09:14:36Z</time>
      </trkpt>
      <trkpt lat="45.18598" lon="5.90464">
        <ele>1187.6</ele>
        <time>2021-04-10T09:14:37Z</time>
      </trkpt>
      <trkpt lat="45.18597" lon="5.90464">
        <ele>1187.8</ele>
        <time>2021-04-10T09:14:38Z</time>
      </trkpt>
      <trkpt lat="45.18597" lon="5.90466">
        <ele>1187.8</ele>
        <time>2021-04-10T09:14:39Z</time>
      </trkpt>
      <trkpt lat="45.18597" lon="5.90467">
        <ele>1188</ele>
        <time>2021-04-10T09:14:40Z</time>
      </trkpt>
      <trkpt lat="45.18596" lon="5.90468">
        <ele>1188</ele>
        <time>2021-04-10T09:14:41Z</time>
      </trkpt>
      <trkpt lat="45.18596" lon="5.9047">
        <ele>1188.2</ele>
        <time>2021-04-10T09:14:42Z</time>
      </trkpt>
      <trkpt lat="45.18596" lon="5.90471">
        <ele>1188.4</ele>
        <time>2021-04-10T09:14:43Z</time>
      </trkpt>
      <trkpt lat="45.18595" lon="5.90473">
        <ele>1188.4</ele>
        <time>2021-04-10T09:14:44Z</time>
      </trkpt>
      <trkpt lat="45.18595" lon="5.90474">
        <ele>1188.4</ele>
        <time>2021-04-10T09:14:45Z</time>
      </trkpt>
      <trkpt lat="45.18594" lon="5.90476">
        <ele>1188.6</ele>
        <time>2021-04-10T09:14:46Z</time>
      </trkpt>
      <trkpt lat="45.18594" lon="5.90477">
        <ele>1188.8</ele>
        <time>2021-04-10T09:14:47Z</time>
      </trkpt>
      <trkpt lat="45.18594" lon="5.90479">
        <ele>1188.8</ele>
        <time>2021-04-10T09:14:48Z</time>
      </trkpt>
      <trkpt lat="45.18594" lon="5.9048">
        <ele>1189</ele>
        <time>2021-04-10T09:14:49Z</time>
      </trkpt>
      <trkpt lat="45.18594" lon="5.90481">
        <ele>1189</ele>
        <time>2021-04-10T09:14:50Z</time>
      </trkpt>
      <trkpt lat="45.18594" lon="5.90483">
        <ele>1189.2</ele>
        <time>2021-04-10T09:14:51Z</time>
      </trkpt>
      <trkpt lat="45.18594" lon="5.90484">
        <ele>1189.4</ele>
        <time>2021-04-10T09:14:52Z</time>
      </trkpt>
      <trkpt lat="45.18594" lon="5.90486">
        <ele>1189.6</ele>
        <time>2021-04-10T09:14:53Z</time>
      </trkpt>
      <trkpt lat="45.18594" lon="5.90487">
        <ele>1189.8</ele>
        <time>2021-04-10T09:14:54Z</time>
      </trkpt>
      <trkpt lat="45.18594" lon="5.90489">
        <ele>1190.2</ele>
        <time>2021-04-10T09:14:55Z</time>
      </trkpt>
      <trkpt lat="45.18594" lon="5.9049">
        <ele>1190.4</ele>
        <time>2021-04-10T09:14:56Z</time>
      </trkpt>
      <trkpt lat="45.18594" lon="5.90492">
        <ele>1190.4</ele>
        <time>2021-04-10T09:14:57Z</time>
      </trkpt>
      <trkpt lat="45.18594" lon="5.90493">
        <ele>1190.6</ele>
        <time>2021-04-10T09:14:58Z</time>
      </trkpt>
      <trkpt lat="45.18594" lon="5.90495">
        <ele>1190.8</ele>
        <time>2021-04-10T09:14:59Z</time>
      </trkpt>
      <trkpt lat="45.18594" lon="5.90496">
        <ele>1190.8</ele>
        <time>2021-04-10T09:15:00Z</time>
      </trkpt>
      <trkpt lat="45.18594" lon="5.90498">
        <ele>1191</ele>
        <time>2021-04-10T09:15:01Z</time>
      </trkpt>
      <trkpt lat="45.18594" lon="5.90499">
        <ele>1191.2</ele>
        <time>2021-04-10T09:15:02Z</time>
      </trkpt>
      <trkpt lat="45.18594" lon="5.90501">
        <ele>1191.4</ele>
        <time>2021-04-10T09:15:03Z</time>
      </trkpt>
      <trkpt lat="45.18594" lon="5.90502">
        <ele>1191.6</ele>
        <time>2021-04-10T09:15:04Z</time>
      </trkpt>
      <trkpt lat="45.18594" lon="5.90504">
        <ele>1191.8</ele>
        <time>2021-04-10T09:15:05Z</time>
      </trkpt>
      <trkpt lat="45.18594" lon="5.90505">
        <ele>1192.2</ele>
        <time>2021-04-10T09:15:06Z</time>
      </trkpt>
      <trkpt lat="45.18593" lon="5.90506">
        <ele>1192.2</ele>
        <time>2021-04-10T09:15:07Z</time>
      </trkpt>
      <trkpt lat="45.18592" lon="5.90508">
        <ele>1192.4</ele>
        <time>2021-04-10T09:15:08Z</time>
      </trkpt>
      <trkpt lat="45.18592" lon="5.90509">
        <ele>1192.6</ele>
        <time>2021-04-10T09:15:09Z</time>
      </trkpt>
      <trkpt lat="45.18591" lon="5.9051">
        <ele>1192.8</ele>
        <time>2021-04-10T09:15:10Z</time>
      </trkpt>
      <trkpt lat="45.18591" lon="5.90511">
        <ele>1193</ele>
        <time>2021-04-10T09:15:11Z</time>
      </trkpt>
      <trkpt lat="45.1859" lon="5.90512">
        <ele>1193.2</ele>
        <time>2021-04-10T09:15:12Z</time>
      </trkpt>
      <trkpt lat="45.18589" lon="5.90514">
        <ele>1193.4</ele>
        <time>2021-04-10T09:15:13Z</time>
      </trkpt>
      <trkpt lat="45.18589" lon="5.90515">
        <ele>1193.8</ele>
        <time>2021-04-10T09:15:14Z</time>
      </trkpt>
      <trkpt lat="45.18588" lon="5.90516">
        <ele>1193.8</ele>
        <time>2021-04-10T09:15:15Z</time>
      </trkpt>
      <trkpt lat="45.18587" lon="5.90517">
        <ele>1194</ele>
        <time>2021-04-10T09:15:16Z</time>
      </trkpt>
      <trkpt lat="45.18586" lon="5.90519">
        <ele>1194.2</ele>
        <time>2021-04-10T09:15:17Z</time>
      </trkpt>
      <trkpt lat="45.18585" lon="5.9052">
        <ele>1194.4</ele>
        <time>2021-04-10T09:15:18Z</time>
      </trkpt>
      <trkpt lat="45.18584" lon="5.90521">
        <ele>1194.6</ele>
        <time>2021-04-10T09:15:19Z</time>
      </trkpt>
      <trkpt lat="45.18583" lon="5.90522">
        <ele>1194.6</ele>
        <time>2021-04-10T09:15:20Z</time>
      </trkpt>
      <trkpt lat="45.18583" lon="5.90523">
        <ele>1194.8</ele>
        <time>2021-04-10T09:15:21Z</time>
      </trkpt>
      <trkpt lat="45.18582" lon="5.90525">
        <ele>1195</ele>
        <time>2021-04-10T09:15:22Z</time>
      </trkpt>
      <trkpt lat="45.1858" lon="5.90528">
        <ele>1195</ele>
        <time>2021-04-10T09:15:23Z</time>
      </trkpt>
      <trkpt lat="45.18579" lon="5.9053">
        <ele>1195</ele>
        <time>2021-04-10T09:15:24Z</time>
      </trkpt>
      <trkpt lat="45.18578" lon="5.90533">
        <ele>1195.2</ele>
        <time>2021-04-10T09:15:25Z</time>
      </trkpt>
      <trkpt lat="45.18577" lon="5.90536">
        <ele>1195.4</ele>
        <time>2021-04-10T09:15:26Z</time>
      </trkpt>
      <trkpt lat="45.18575" lon="5.90539">
        <ele>1195.8</ele>
        <time>2021-04-10T09:15:27Z</time>
      </trkpt>
      <trkpt lat="45.18574" lon="5.90542">
        <ele>1196.2</ele>
        <time>2021-04-10T09:15:28Z</time>
      </trkpt>
      <trkpt lat="45.18573" lon="5.90545">
        <ele>1196.6</ele>
        <time>2021-04-10T09:15:29Z</time>
      </trkpt>
      <trkpt lat="45.18571" lon="5.90545">
        <ele>1196.8</ele>
        <time>2021-04-10T09:15:30Z</time>
      </trkpt>
      <trkpt lat="45.18569" lon="5.90544">
        <ele>1197.2</ele>
        <time>2021-04-10T09:15:31Z</time>
      </trkpt>
      <trkpt lat="45.18567" lon="5.90544">
        <ele>1197.4</ele>
        <time>2021-04-10T09:15:32Z</time>
      </trkpt>
      <trkpt lat="45.18566" lon="5.90544">
        <ele>1197.6</ele>
        <time>2021-04-10T09:15:33Z</time>
      </trkpt>
      <trkpt lat="45.18564" lon="5.90543">
        <ele>1197.6</ele>
        <time>2021-04-10T09:15:34Z</time>
      </trkpt>
      <trkpt lat="45.18562" lon="5.90543">
        <ele>1198</ele>
        <time>2021-04-10T09:15:35Z</time>
      </trkpt>
      <trkpt lat="45.18562" lon="5.90544">
        <ele>1198.2</ele>
        <time>2021-04-10T09:15:36Z</time>
      </trkpt>
      <trkpt lat="45.18561" lon="5.90545">
        <ele>1198.4</ele>
        <time>2021-04-10T09:15:37Z</time>
      </trkpt>
      <trkpt lat="45.18561" lon="5.90545">
        <ele>1198.6</ele>
        <time>2021-04-10T09:15:38Z</time>
      </trkpt>
      <trkpt lat="45.1856" lon="5.90546">
        <ele>1199</ele>
        <time>2021-04-10T09:15:39Z</time>
      </trkpt>
      <trkpt lat="45.1856" lon="5.90547">
        <ele>1199.2</ele>
        <time>2021-04-10T09:15:40Z</time>
      </trkpt>
      <trkpt lat="45.18559" lon="5.90548">
        <ele>1199.4</ele>
        <time>2021-04-10T09:15:41Z</time>
      </trkpt>
      <trkpt lat="45.18559" lon="5.90548">
        <ele>1199.6</ele>
        <time>2021-04-10T09:15:42Z</time>
      </trkpt>
      <trkpt lat="45.18558" lon="5.90549">
        <ele>1199.6</ele>
        <time>2021-04-10T09:15:43Z</time>
      </trkpt>
      <trkpt lat="45.18558" lon="5.9055">
        <ele>1199.6</ele>
        <time>2021-04-10T09:15:44Z</time>
      </trkpt>
      <trkpt lat="45.18557" lon="5.90551">
        <ele>1199.8</ele>
        <time>2021-04-10T09:15:45Z</time>
      </trkpt>
      <trkpt lat="45.18557" lon="5.90551">
        <ele>1200.2</ele>
        <time>2021-04-10T09:15:46Z</time>
      </trkpt>
      <trkpt lat="45.18557" lon="5.90552">
        <ele>1200.4</ele>
        <time>2021-04-10T09:15:47Z</time>
      </trkpt>
      <trkpt lat="45.18556" lon="5.90553">
        <ele>1200.6</ele>
        <time>2021-04-10T09:15:48Z</time>
      </trkpt>
      <trkpt lat="45.18555" lon="5.90554">
        <ele>1200.6</ele>
        <time>2021-04-10T09:15:49Z</time>
      </trkpt>
      <trkpt lat="45.18554" lon="5.90555">
        <ele>1200.6</ele>
        <time>2021-04-10T09:15:50Z</time>
      </trkpt>
      <trkpt lat="45.18552" lon="5.90556">
        <ele>1200.8</ele>
        <time>2021-04-10T09:15:51Z</time>
      </trkpt>
      <trkpt lat="45.18551" lon="5.90557">
        <ele>1201</ele>
        <time>2021-04-10T09:15:52Z</time>
      </trkpt>
      <trkpt lat="45.1855" lon="5.90558">
        <ele>1201.2</ele>
        <time>2021-04-10T09:15:53Z</time>
      </trkpt>
      <trkpt lat="45.18549" lon="5.90559">
        <ele>1201.2</ele>
        <time>2021-04-10T09:15:54Z</time>
      </trkpt>
      <trkpt lat="45.18548" lon="5.90561">
        <ele>1201.4</ele>
        <time>2021-04-10T09:15:55Z</time>
      </trkpt>
      <trkpt lat="45.18547" lon="5.90561">
        <ele>1201.6</ele>
        <time>2021-04-10T09:15:56Z</time>
      </trkpt>
      <trkpt lat="45.18546" lon="5.90562">
        <ele>1201.6</ele>
        <time>2021-04-10T09:15:57Z</time>
      </trkpt>
      <trkpt lat="45.18546" lon="5.90563">
        <ele>1201.8</ele>
        <time>2021-04-10T09:15:58Z</time>
      </trkpt>
      <trkpt lat="45.18545" lon="5.90563">
        <ele>1202</ele>
        <time>2021-04-10T09:15:59Z</time>
      </trkpt>
      <trkpt lat="45.18544" lon="5.90564">
        <ele>1202.2</ele>
        <time>2021-04-10T09:16:00Z</time>
      </trkpt>
      <trkpt lat="45.18543" lon="5.90565">
        <ele>1202.6</ele>
        <time>2021-04-10T09:16:01Z</time>
      </trkpt>
      <trkpt lat="45.18543" lon="5.90565">
        <ele>1202.8</ele>
        <time>2021-04-10T09:16:02Z</time>
      </trkpt>
      <trkpt lat="45.18542" lon="5.90566">
        <ele>1203</ele>
        <time>2021-04-10T09:16:03Z</time>
      </trkpt>
      <trkpt lat="45.18541" lon="5.90567">
        <ele>1203.4</ele>
        <time>2021-04-10T09:16:04Z</time>
      </trkpt>
      <trkpt lat="45.18541" lon="5.90567">
        <ele>1203.6</ele>
        <time>2021-04-10T09:16:05Z</time>
      </trkpt>
      <trkpt lat="45.1854" lon="5.90568">
        <ele>1203.8</ele>
        <time>2021-04-10T09:16:06Z</time>
      </trkpt>
      <trkpt lat="45.18539" lon="5.9057">
        <ele>1204</ele>
        <time>2021-04-10T09:16:07Z</time>
      </trkpt>
      <trkpt lat="45.18539" lon="5.90571">
        <ele>1204</ele>
        <time>2021-04-10T09:16:08Z</time>
      </trkpt>
      <trkpt lat="45.18538" lon="5.90572">
        <ele>1204.2</ele>
        <time>2021-04-10T09:16:09Z</time>
      </trkpt>
      <trkpt lat="45.18538" lon="5.90574">
        <ele>1204.4</ele>
        <time>2021-04-10T09:16:10Z</time>
      </trkpt>
      <trkpt lat="45.18537" lon="5.90575">
        <ele>1204.8</ele>
        <time>2021-04-10T09:16:11Z</time>
      </trkpt>
      <trkpt lat="45.18537" lon="5.90577">
        <ele>1205</ele>
        <time>2021-04-10T09:16:12Z</time>
      </trkpt>
      <trkpt lat="45.18536" lon="5.90578">
        <ele>1205.4</ele>
        <time>2021-04-10T09:16:13Z</time>
      </trkpt>
      <trkpt lat="45.18536" lon="5.9058">
        <ele>1205.8</ele>
        <time>2021-04-10T09:16:14Z</time>
      </trkpt>
      <trkpt lat="45.18535" lon="5.9058">
        <ele>1206</ele>
        <time>2021-04-10T09:16:15Z</time>
      </trkpt>
      <trkpt lat="45.18534" lon="5.90581">
        <ele>1206.4</ele>
        <time>2021-04-10T09:16:16Z</time>
      </trkpt>
      <trkpt lat="45.18533" lon="5.90582">
        <ele>1206.6</ele>
        <time>2021-04-10T09:16:17Z</time>
      </trkpt>
      <trkpt lat="45.18532" lon="5.90583">
        <ele>1206.6</ele>
        <time>2021-04-10T09:16:18Z</time>
      </trkpt>
      <trkpt lat="45.18532" lon="5.90584">
        <ele>1206.8</ele>
        <time>2021-04-10T09:16:19Z</time>
      </trkpt>
      <trkpt lat="45.18531" lon="5.90584">
        <ele>1207</ele>
        <time>2021-04-10T09:16:20Z</time>
      </trkpt>
      <trkpt lat="45.1853" lon="5.90585">
        <ele>1207.2</ele>
        <time>2021-04-10T09:16:21Z</time>
      </trkpt>
      <trkpt lat="45.18529" lon="5.90586">
        <ele>1207.4</ele>
        <time>2021-04-10T09:16:22Z</time>
      </trkpt>
      <trkpt lat="45.18528" lon="5.90587">
        <ele>1207.6</ele>
        <time>2021-04-10T09:16:23Z</time>
      </trkpt>
      <trkpt lat="45.18528" lon="5.90588">
        <ele>1208</ele>
        <time>2021-04-10T09:16:24Z</time>
      </trkpt>
      <trkpt lat="45.18526" lon="5.90588">
        <ele>1208.2</ele>
        <time>2021-04-10T09:16:25Z</time>
      </trkpt>
      <trkpt lat="45.18525" lon="5.90589">
        <ele>1208.6</ele>
        <time>2021-04-10T09:16:26Z</time>
      </trkpt>
      <trkpt lat="45.18524" lon="5.90589">
        <ele>1209</ele>
        <time>2021-04-10T09:16:27Z</time>
      </trkpt>
      <trkpt lat="45.18523" lon="5.9059">
        <ele>1209.2</ele>
        <time>2021-04-10T09:16:28Z</time>
      </trkpt>
      <trkpt lat="45.18522" lon="5.9059">
        <ele>1209.4</ele>
        <time>2021-04-10T09:16:29Z</time>
      </trkpt>
      <trkpt lat="45.18521" lon="5.90591">
        <ele>1209.4</ele>
        <time>2021-04-10T09:16:30Z</time>
      </trkpt>
      <trkpt lat="45.1852" lon="5.90591">
        <ele>1209.6</ele>
        <time>2021-04-10T09:16:31Z</time>
      </trkpt>
      <trkpt lat="45.18518" lon="5.90592">
        <ele>1209.6</ele>
        <time>2021-04-10T09:16:32Z</time>
      </trkpt>
      <trkpt lat="45.18518" lon="5.90593">
        <ele>1210</ele>
        <time>2021-04-10T09:16:33Z</time>
      </trkpt>
      <trkpt lat="45.18517" lon="5.90593">
        <ele>1210.4</ele>
        <time>2021-04-10T09:16:34Z</time>
      </trkpt>
      <trkpt lat="45.18517" lon="5.90594">
        <ele>1210.6</ele>
        <time>2021-04-10T09:16:35Z</time>
      </trkpt>
      <trkpt lat="45.18516" lon="5.90595">
        <ele>1210.8</ele>
        <time>2021-04-10T09:16:36Z</time>
      </trkpt>
      <trkpt lat="45.18515" lon="5.90596">
        <ele>1211</ele>
        <time>2021-04-10T09:16:37Z</time>
      </trkpt>
      <trkpt lat="45.18515" lon="5.90597">
        <ele>1211.2</ele>
        <time>2021-04-10T09:16:38Z</time>
      </trkpt>
      <trkpt lat="45.18514" lon="5.90597">
        <ele>1211.6</ele>
        <time>2021-04-10T09:16:39Z</time>
      </trkpt>
      <trkpt lat="45.18514" lon="5.90598">
        <ele>1211.6</ele>
        <time>2021-04-10T09:16:40Z</time>
      </trkpt>
      <trkpt lat="45.18513" lon="5.90599">
        <ele>1212</ele>
        <time>2021-04-10T09:16:41Z</time>
      </trkpt>
      <trkpt lat="45.18512" lon="5.906">
        <ele>1212.2</ele>
        <time>2021-04-10T09:16:42Z</time>
      </trkpt>
      <trkpt lat="45.18512" lon="5.90601">
        <ele>1212.4</ele>
        <time>2021-04-10T09:16:43Z</time>
      </trkpt>
      <trkpt lat="45.18511" lon="5.90601">
        <ele>1212.8</ele>
        <time>2021-04-10T09:16:44Z</time>
      </trkpt>
      <trkpt lat="45.1851" lon="5.90602">
        <ele>1213</ele>
        <time>2021-04-10T09:16:45Z</time>
      </trkpt>
      <trkpt lat="45.18509" lon="5.90603">
        <ele>1213.4</ele>
        <time>2021-04-10T09:16:46Z</time>
      </trkpt>
      <trkpt lat="45.18508" lon="5.90603">
        <ele>1213.8</ele>
        <time>2021-04-10T09:16:47Z</time>
      </trkpt>
      <trkpt lat="45.18507" lon="5.90604">
        <ele>1214.2</ele>
        <time>2021-04-10T09:16:48Z</time>
      </trkpt>
      <trkpt lat="45.18506" lon="5.90604">
        <ele>1214.4</ele>
        <time>2021-04-10T09:16:49Z</time>
      </trkpt>
      <trkpt lat="45.18505" lon="5.90605">
        <ele>1214.6</ele>
        <time>2021-04-10T09:16:50Z</time>
      </trkpt>
      <trkpt lat="45.18504" lon="5.90606">
        <ele>1214.8</ele>
        <time>2021-04-10T09:16:51Z</time>
      </trkpt>
      <trkpt lat="45.18503" lon="5.90606">
        <ele>1215</ele>
        <time>2021-04-10T09:16:52Z</time>
      </trkpt>
      <trkpt lat="45.18502" lon="5.90607">
        <ele>1215.2</ele>
        <time>2021-04-10T09:16:53Z</time>
      </trkpt>
      <trkpt lat="45.18501" lon="5.90608">
        <ele>1215.4</ele>
        <time>2021-04-10T09:16:54Z</time>
      </trkpt>
      <trkpt lat="45.185" lon="5.90608">
        <ele>1215.6</ele>
        <time>2021-04-10T09:16:55Z</time>
      </trkpt>
      <trkpt lat="45.185" lon="5.90609">
        <ele>1216</ele>
        <time>2021-04-10T09:16:56Z</time>
      </trkpt>
      <trkpt lat="45.18499" lon="5.90609">
        <ele>1216.2</ele>
        <time>2021-04-10T09:16:57Z</time>
      </trkpt>
      <trkpt lat="45.18498" lon="5.9061">
        <ele>1216.6</ele>
        <time>2021-04-10T09:16:58Z</time>
      </trkpt>
      <trkpt lat="45.18497" lon="5.90611">
        <ele>1216.8</ele>
        <time>2021-04-10T09:16:59Z</time>
      </trkpt>
      <trkpt lat="45.18497" lon="5.90611">
        <ele>1217.2</ele>
        <time>2021-04-10T09:17:00Z</time>
      </trkpt>
      <trkpt lat="45.18496" lon="5.90612">
        <ele>1217.6</ele>
        <time>2021-04-10T09:17:01Z</time>
      </trkpt>
      <trkpt lat="45.18495" lon="5.90612">
        <ele>1217.8</ele>
        <time>2021-04-10T09:17:02Z</time>
      </trkpt>
      <trkpt lat="45.18495" lon="5.90613">
        <ele>1218</ele>
        <time>2021-04-10T09:17:03Z</time>
      </trkpt>
      <trkpt lat="45.18494" lon="5.90614">
        <ele>1218.2</ele>
        <time>2021-04-10T09:17:04Z</time>
      </trkpt>
      <trkpt lat="45.18493" lon="5.90615">
        <ele>1218.6</ele>
        <time>2021-04-10T09:17:05Z</time>
      </trkpt>
      <trkpt lat="45.18492" lon="5.90616">
        <ele>1218.8</ele>
        <time>2021-04-10T09:17:06Z</time>
      </trkpt>
      <trkpt lat="45.18491" lon="5.90617">
        <ele>1218.8</ele>
        <time>2021-04-10T09:17:07Z</time>
      </trkpt>
      <trkpt lat="45.18491" lon="5.90618">
        <ele>1219</ele>
        <time>2021-04-10T09:17:08Z</time>
      </trkpt>
      <trkpt lat="45.1849" lon="5.90619">
        <ele>1219.2</ele>
        <time>2021-04-10T09:17:09Z</time>
      </trkpt>
      <trkpt lat="45.18489" lon="5.90621">
        <ele>1219.4</ele>
        <time>2021-04-10T09:17:10Z</time>
      </trkpt>
      <trkpt lat="45.18488" lon="5.90622">
        <ele>1219.6</ele>
        <time>2021-04-10T09:17:11Z</time>
      </trkpt>
      <trkpt lat="45.18487" lon="5.90623">
        <ele>1219.8</ele>
        <time>2021-04-10T09:17:12Z</time>
      </trkpt>
      <trkpt lat="45.18487" lon="5.90623">
        <ele>1219.8</ele>
        <time>2021-04-10T09:17:13Z</time>
      </trkpt>
      <trkpt lat="45.18486" lon="5.90624">
        <ele>1220.2</ele>
        <time>2021-04-10T09:17:14Z</time>
      </trkpt>
      <trkpt lat="45.18485" lon="5.90624">
        <ele>1220.4</ele>
        <time>2021-04-10T09:17:15Z</time>
      </trkpt>
      <trkpt lat="45.18484" lon="5.90624">
        <ele>1220.8</ele>
        <time>2021-04-10T09:17:16Z</time>
      </trkpt>
      <trkpt lat="45.18484" lon="5.90624">
        <ele>1221.2</ele>
        <time>2021-04-10T09:17:17Z</time>
      </trkpt>
      <trkpt lat="45.18483" lon="5.90625">
        <ele>1221.6</ele>
        <time>2021-04-10T09:17:18Z</time>
      </trkpt>
      <trkpt lat="45.18482" lon="5.90625">
        <ele>1221.8</ele>
        <time>2021-04-10T09:17:19Z</time>
      </trkpt>
      <trkpt lat="45.18482" lon="5.90625">
        <ele>1222.2</ele>
        <time>2021-04-10T09:17:20Z</time>
      </trkpt>
      <trkpt lat="45.18481" lon="5.90625">
        <ele>1222.4</ele>
        <time>2021-04-10T09:17:21Z</time>
      </trkpt>
      <trkpt lat="45.1848" lon="5.90626">
        <ele>1222.6</ele>
        <time>2021-04-10T09:17:22Z</time>
      </trkpt>
      <trkpt lat="45.18479" lon="5.90626">
        <ele>1222.8</ele>
        <time>2021-04-10T09:17:23Z</time>
      </trkpt>
      <trkpt lat="45.18479" lon="5.90626">
        <ele>1222.8</ele>
        <time>2021-04-10T09:17:24Z</time>
      </trkpt>
      <trkpt lat="45.18478" lon="5.90626">
        <ele>1223</ele>
        <time>2021-04-10T09:17:25Z</time>
      </trkpt>
      <trkpt lat="45.18477" lon="5.90627">
        <ele>1223.2</ele>
        <time>2021-04-10T09:17:26Z</time>
      </trkpt>
      <trkpt lat="45.18476" lon="5.90628">
        <ele>1223.4</ele>
        <time>2021-04-10T09:17:27Z</time>
      </trkpt>
      <trkpt lat="45.18475" lon="5.90628">
        <ele>1223.8</ele>
        <time>2021-04-10T09:17:28Z</time>
      </trkpt>
      <trkpt lat="45.18474" lon="5.90629">
        <ele>1224.2</ele>
        <time>2021-04-10T09:17:29Z</time>
      </trkpt>
      <trkpt lat="45.18473" lon="5.9063">
        <ele>1224.4</ele>
        <time>2021-04-10T09:17:30Z</time>
      </trkpt>
      <trkpt lat="45.18472" lon="5.9063">
        <ele>1224.6</ele>
        <time>2021-04-10T09:17:31Z</time>
      </trkpt>
      <trkpt lat="45.18472" lon="5.90631">
        <ele>1224.8</ele>
        <time>2021-04-10T09:17:32Z</time>
      </trkpt>
      <trkpt lat="45.18471" lon="5.90632">
        <ele>1225</ele>
        <time>2021-04-10T09:17:33Z</time>
      </trkpt>
      <trkpt lat="45.1847" lon="5.90632">
        <ele>1225</ele>
        <time>2021-04-10T09:17:34Z</time>
      </trkpt>
      <trkpt lat="45.18468" lon="5.90633">
        <ele>1225.2</ele>
        <time>2021-04-10T09:17:35Z</time>
      </trkpt>
      <trkpt lat="45.18466" lon="5.90634">
        <ele>1225.4</ele>
        <time>2021-04-10T09:17:36Z</time>
      </trkpt>
      <trkpt lat="45.18465" lon="5.90634">
        <ele>1225.6</ele>
        <time>2021-04-10T09:17:37Z</time>
      </trkpt>
      <trkpt lat="45.18463" lon="5.90635">
        <ele>1226</ele>
        <time>2021-04-10T09:17:38Z</time>
      </trkpt>
      <trkpt lat="45.18462" lon="5.90636">
        <ele>1226.2</ele>
        <time>2021-04-10T09:17:39Z</time>
      </trkpt>
      <trkpt lat="45.1846" lon="5.90637">
        <ele>1226.4</ele>
        <time>2021-04-10T09:17:40Z</time>
      </trkpt>
      <trkpt lat="45.18459" lon="5.90638">
        <ele>1226.6</ele>
        <time>2021-04-10T09:17:41Z</time>
      </trkpt>
      <trkpt lat="45.18458" lon="5.90639">
        <ele>1226.8</ele>
        <time>2021-04-10T09:17:42Z</time>
      </trkpt>
      <trkpt lat="45.18457" lon="5.9064">
        <ele>1227</ele>
        <time>2021-04-10T09:17:43Z</time>
      </trkpt>
      <trkpt lat="45.18456" lon="5.90641">
        <ele>1227</ele>
        <time>2021-04-10T09:17:44Z</time>
      </trkpt>
      <trkpt lat="45.18455" lon="5.90642">
        <ele>1227.2</ele>
        <time>2021-04-10T09:17:45Z</time>
      </trkpt>
      <trkpt lat="45.18454" lon="5.90643">
        <ele>1227</ele>
        <time>2021-04-10T09:17:46Z</time>
      </trkpt>
      <trkpt lat="45.18453" lon="5.90644">
        <ele>1227.4</ele>
        <time>2021-04-10T09:17:47Z</time>
      </trkpt>
      <trkpt lat="45.18452" lon="5.90646">
        <ele>1227.4</ele>
        <time>2021-04-10T09:17:48Z</time>
      </trkpt>
      <trkpt lat="45.18451" lon="5.90647">
        <ele>1227.4</ele>
        <time>2021-04-10T09:17:49Z</time>
      </trkpt>
      <trkpt lat="45.1845" lon="5.90648">
        <ele>1227.4</ele>
        <time>2021-04-10T09:17:50Z</time>
      </trkpt>
      <trkpt lat="45.18449" lon="5.90649">
        <ele>1227.6</ele>
        <time>2021-04-10T09:17:51Z</time>
      </trkpt>
      <trkpt lat="45.18448" lon="5.9065">
        <ele>1227.8</ele>
        <time>2021-04-10T09:17:52Z</time>
      </trkpt>
      <trkpt lat="45.18447" lon="5.90651">
        <ele>1228</ele>
        <time>2021-04-10T09:17:53Z</time>
      </trkpt>
      <trkpt lat="45.18446" lon="5.90652">
        <ele>1228</ele>
        <time>2021-04-10T09:17:54Z</time>
      </trkpt>
      <trkpt lat="45.18445" lon="5.90653">
        <ele>1228.2</ele>
        <time>2021-04-10T09:17:55Z</time>
      </trkpt>
      <trkpt lat="45.18444" lon="5.90654">
        <ele>1228.2</ele>
        <time>2021-04-10T09:17:56Z</time>
      </trkpt>
      <trkpt lat="45.18444" lon="5.90656">
        <ele>1228.4</ele>
        <time>2021-04-10T09:17:57Z</time>
      </trkpt>
      <trkpt lat="45.18444" lon="5.90657">
        <ele>1228.6</ele>
        <time>2021-04-10T09:17:58Z</time>
      </trkpt>
      <trkpt lat="45.18443" lon="5.90659">
        <ele>1228.8</ele>
        <time>2021-04-10T09:17:59Z</time>
      </trkpt>
      <trkpt lat="45.18443" lon="5.9066">
        <ele>1229</ele>
        <time>2021-04-10T09:18:00Z</time>
      </trkpt>
      <trkpt lat="45.18443" lon="5.90661">
        <ele>1229.2</ele>
        <time>2021-04-10T09:18:01Z</time>
      </trkpt>
      <trkpt lat="45.18442" lon="5.90663">
        <ele>1229.2</ele>
        <time>2021-04-10T09:18:02Z</time>
      </trkpt>
      <trkpt lat="45.18442" lon="5.90664">
        <ele>1229.4</ele>
        <time>2021-04-10T09:18:03Z</time>
      </trkpt>
      <trkpt lat="45.18442" lon="5.90666">
        <ele>1229.4</ele>
        <time>2021-04-10T09:18:04Z</time>
      </trkpt>
      <trkpt lat="45.18441" lon="5.90667">
        <ele>1229.4</ele>
        <time>2021-04-10T09:18:05Z</time>
      </trkpt>
      <trkpt lat="45.18441" lon="5.90668">
        <ele>1229.2</ele>
        <time>2021-04-10T09:18:06Z</time>
      </trkpt>
      <trkpt lat="45.18441" lon="5.9067">
        <ele>1229.4</ele>
        <time>2021-04-10T09:18:07Z</time>
      </trkpt>
      <trkpt lat="45.1844" lon="5.90671">
        <ele>1229.6</ele>
        <time>2021-04-10T09:18:08Z</time>
      </trkpt>
      <trkpt lat="45.1844" lon="5.90673">
        <ele>1229.6</ele>
        <time>2021-04-10T09:18:09Z</time>
      </trkpt>
      <trkpt lat="45.1844" lon="5.90674">
        <ele>1229.6</ele>
        <time>2021-04-10T09:18:10Z</time>
      </trkpt>
      <trkpt lat="45.18439" lon="5.90676">
        <ele>1229.6</ele>
        <time>2021-04-10T09:18:11Z</time>
      </trkpt>
      <trkpt lat="45.18439" lon="5.90677">
        <ele>1230</ele>
        <time>2021-04-10T09:18:12Z</time>
      </trkpt>
      <trkpt lat="45.18439" lon="5.90678">
        <ele>1230.2</ele>
        <time>2021-04-10T09:18:13Z</time>
      </trkpt>
      <trkpt lat="45.18438" lon="5.9068">
        <ele>1230.4</ele>
        <time>2021-04-10T09:18:14Z</time>
      </trkpt>
      <trkpt lat="45.18438" lon="5.9068">
        <ele>1230.4</ele>
        <time>2021-04-10T09:18:15Z</time>
      </trkpt>
      <trkpt lat="45.18438" lon="5.9068">
        <ele>1230.6</ele>
        <time>2021-04-10T09:18:16Z</time>
      </trkpt>
      <trkpt lat="45.18437" lon="5.9068">
        <ele>1230.6</ele>
        <time>2021-04-10T09:18:17Z</time>
      </trkpt>
      <trkpt lat="45.18437" lon="5.9068">
        <ele>1230.6</ele>
        <time>2021-04-10T09:18:18Z</time>
      </trkpt>
      <trkpt lat="45.18437" lon="5.90679">
        <ele>1230.8</ele>
        <time>2021-04-10T09:18:19Z</time>
      </trkpt>
      <trkpt lat="45.18436" lon="5.90679">
        <ele>1230.8</ele>
        <time>2021-04-10T09:18:20Z</time>
      </trkpt>
      <trkpt lat="45.18436" lon="5.90679">
        <ele>1230.8</ele>
        <time>2021-04-10T09:18:21Z</time>
      </trkpt>
      <trkpt lat="45.18436" lon="5.90679">
        <ele>1231</ele>
        <time>2021-04-10T09:18:22Z</time>
      </trkpt>
      <trkpt lat="45.18436" lon="5.90679">
        <ele>1231</ele>
        <time>2021-04-10T09:18:23Z</time>
      </trkpt>
      <trkpt lat="45.18435" lon="5.90679">
        <ele>1230.8</ele>
        <time>2021-04-10T09:18:24Z</time>
      </trkpt>
      <trkpt lat="45.18435" lon="5.90679">
        <ele>1230.8</ele>
        <time>2021-04-10T09:18:25Z</time>
      </trkpt>
      <trkpt lat="45.18435" lon="5.90679">
        <ele>1230.8</ele>
        <time>2021-04-10T09:18:26Z</time>
      </trkpt>
      <trkpt lat="45.18434" lon="5.90679">
        <ele>1230.8</ele>
        <time>2021-04-10T09:18:27Z</time>
      </trkpt>
      <trkpt lat="45.18434" lon="5.90679">
        <ele>1230.6</ele>
        <time>2021-04-10T09:18:28Z</time>
      </trkpt>
      <trkpt lat="45.18434" lon="5.90679">
        <ele>1230.4</ele>
        <time>2021-04-10T09:18:29Z</time>
      </trkpt>
      <trkpt lat="45.18434" lon="5.90678">
        <ele>1230.4</ele>
        <time>2021-04-10T09:18:30Z</time>
      </trkpt>
      <trkpt lat="45.18433" lon="5.90678">
        <ele>1230.4</ele>
        <time>2021-04-10T09:18:31Z</time>
      </trkpt>
      <trkpt lat="45.18433" lon="5.90678">
        <ele>1230.4</ele>
        <time>2021-04-10T09:18:32Z</time>
      </trkpt>
      <trkpt lat="45.18433" lon="5.90678">
        <ele>1230.4</ele>
        <time>2021-04-10T09:18:33Z</time>
      </trkpt>
      <trkpt lat="45.18432" lon="5.90678">
        <ele>1230.4</ele>
        <time>2021-04-10T09:18:34Z</time>
      </trkpt>
      <trkpt lat="45.18432" lon="5.90678">
        <ele>1230.4</ele>
        <time>2021-04-10T09:18:35Z</time>
      </trkpt>
      <trkpt lat="45.18432" lon="5.90678">
        <ele>1230.4</ele>
        <time>2021-04-10T09:18:36Z</time>
      </trkpt>
      <trkpt lat="45.18431" lon="5.90678">
        <ele>1230.4</ele>
        <time>2021-04-10T09:18:37Z</time>
      </trkpt>
      <trkpt lat="45.18431" lon="5.90678">
        <ele>1230.4</ele>
        <time>2021-04-10T09:18:38Z</time>
      </trkpt>
      <trkpt lat="45.18431" lon="5.90678">
        <ele>1230.4</ele>
        <time>2021-04-10T09:18:39Z</time>
      </trkpt>
      <trkpt lat="45.18431" lon="5.90678">
        <ele>1230.2</ele>
        <time>2021-04-10T09:18:40Z</time>
      </trkpt>
      <trkpt lat="45.1843" lon="5.90678">
        <ele>1230.4</ele>
        <time>2021-04-10T09:18:41Z</time>
      </trkpt>
      <trkpt lat="45.1843" lon="5.90677">
        <ele>1230.6</ele>
        <time>2021-04-10T09:18:42Z</time>
      </trkpt>
      <trkpt lat="45.1843" lon="5.90677">
        <ele>1230.6</ele>
        <time>2021-04-10T09:18:43Z</time>
      </trkpt>
      <trkpt lat="45.18429" lon="5.90677">
        <ele>1230.4</ele>
        <time>2021-04-10T09:18:44Z</time>
      </trkpt>
      <trkpt lat="45.18429" lon="5.90677">
        <ele>1230.4</ele>
        <time>2021-04-10T09:18:45Z</time>
      </trkpt>
      <trkpt lat="45.18429" lon="5.90677">
        <ele>1230.4</ele>
        <time>2021-04-10T09:18:46Z</time>
      </trkpt>
      <trkpt lat="45.18429" lon="5.90677">
        <ele>1230.2</ele>
        <time>2021-04-10T09:18:47Z</time>
      </trkpt>
      <trkpt lat="45.18428" lon="5.90677">
        <ele>1230.2</ele>
        <time>2021-04-10T09:18:48Z</time>
      </trkpt>
      <trkpt lat="45.18428" lon="5.90677">
        <ele>1230.2</ele>
        <time>2021-04-10T09:18:49Z</time>
      </trkpt>
      <trkpt lat="45.18427" lon="5.90676">
        <ele>1230</ele>
        <time>2021-04-10T09:18:50Z</time>
      </trkpt>
      <trkpt lat="45.18425" lon="5.90675">
        <ele>1230.2</ele>
        <time>2021-04-10T09:18:51Z</time>
      </trkpt>
      <trkpt lat="45.18424" lon="5.90675">
        <ele>1230.2</ele>
        <time>2021-04-10T09:18:52Z</time>
      </trkpt>
      <trkpt lat="45.18423" lon="5.90674">
        <ele>1230.2</ele>
        <time>2021-04-10T09:18:53Z</time>
      </trkpt>
      <trkpt lat="45.18421" lon="5.90673">
        <ele>1230</ele>
        <time>2021-04-10T09:18:54Z</time>
      </trkpt>
      <trkpt lat="45.1842" lon="5.90673">
        <ele>1230</ele>
        <time>2021-04-10T09:18:55Z</time>
      </trkpt>
      <trkpt lat="45.18419" lon="5.90672">
        <ele>1229.8</ele>
        <time>2021-04-10T09:18:56Z</time>
      </trkpt>
      <trkpt lat="45.18417" lon="5.90672">
        <ele>1229.8</ele>
        <time>2021-04-10T09:18:57Z</time>
      </trkpt>
      <trkpt lat="45.18415" lon="5.90671">
        <ele>1229.6</ele>
        <time>2021-04-10T09:18:58Z</time>
      </trkpt>
      <trkpt lat="45.18413" lon="5.90671">
        <ele>1229.6</ele>
        <time>2021-04-10T09:18:59Z</time>
      </trkpt>
      <trkpt lat="45.18411" lon="5.90671">
        <ele>1229.6</ele>
        <time>2021-04-10T09:19:00Z</time>
      </trkpt>
      <trkpt lat="45.18409" lon="5.9067">
        <ele>1229.6</ele>
        <time>2021-04-10T09:19:01Z</time>
      </trkpt>
      <trkpt lat="45.18407" lon="5.90669">
        <ele>1229.6</ele>
        <time>2021-04-10T09:19:02Z</time>
      </trkpt>
      <trkpt lat="45.18406" lon="5.90669">
        <ele>1229.6</ele>
        <time>2021-04-10T09:19:03Z</time>
      </trkpt>
      <trkpt lat="45.18404" lon="5.90668">
        <ele>1229.6</ele>
        <time>2021-04-10T09:19:04Z</time>
      </trkpt>
      <trkpt lat="45.18402" lon="5.90667">
        <ele>1229.6</ele>
        <time>2021-04-10T09:19:05Z</time>
      </trkpt>
      <trkpt lat="45.18401" lon="5.90666">
        <ele>1229.6</ele>
        <time>2021-04-10T09:19:06Z</time>
      </trkpt>
      <trkpt lat="45.18399" lon="5.90665">
        <ele>1229.6</ele>
        <time>2021-04-10T09:19:07Z</time>
      </trkpt>
      <trkpt lat="45.18398" lon="5.90665">
        <ele>1229.4</ele>
        <time>2021-04-10T09:19:08Z</time>
      </trkpt>
      <trkpt lat="45.18397" lon="5.90664">
        <ele>1229</ele>
        <time>2021-04-10T09:19:09Z</time>
      </trkpt>
      <trkpt lat="45.18396" lon="5.90663">
        <ele>1228.8</ele>
        <time>2021-04-10T09:19:10Z</time>
      </trkpt>
      <trkpt lat="45.18395" lon="5.90663">
        <ele>1228.6</ele>
        <time>2021-04-10T09:19:11Z</time>
      </trkpt>
      <trkpt lat="45.18393" lon="5.90662">
        <ele>1228.4</ele>
        <time>2021-04-10T09:19:12Z</time>
      </trkpt>
      <trkpt lat="45.18392" lon="5.90661">
        <ele>1228.2</ele>
        <time>2021-04-10T09:19:13Z</time>
      </trkpt>
      <trkpt lat="45.18391" lon="5.9066">
        <ele>1228</ele>
        <time>2021-04-10T09:19:14Z</time>
      </trkpt>
      <trkpt lat="45.18392" lon="5.90659">
        <ele>1228</ele>
        <time>2021-04-10T09:19:15Z</time>
      </trkpt>
      <trkpt lat="45.18392" lon="5.90658">
        <ele>1227.8</ele>
        <time>2021-04-10T09:19:16Z</time>
      </trkpt>
      <trkpt lat="45.18393" lon="5.90657">
        <ele>1228</ele>
        <time>2021-04-10T09:19:17Z</time>
      </trkpt>
      <trkpt lat="45.18393" lon="5.90655">
        <ele>1228</ele>
        <time>2021-04-10T09:19:18Z</time>
      </trkpt>
      <trkpt lat="45.18394" lon="5.90654">
        <ele>1228.2</ele>
        <time>2021-04-10T09:19:19Z</time>
      </trkpt>
      <trkpt lat="45.18395" lon="5.90653">
        <ele>1228</ele>
        <time>2021-04-10T09:19:20Z</time>
      </trkpt>
      <trkpt lat="45.18395" lon="5.90652">
        <ele>1227.8</ele>
        <time>2021-04-10T09:19:21Z</time>
      </trkpt>
      <trkpt lat="45.18396" lon="5.9065">
        <ele>1227.8</ele>
        <time>2021-04-10T09:19:22Z</time>
      </trkpt>
      <trkpt lat="45.18396" lon="5.90649">
        <ele>1227.8</ele>
        <time>2021-04-10T09:19:23Z</time>
      </trkpt>
      <trkpt lat="45.18398" lon="5.90648">
        <ele>1227.8</ele>
        <time>2021-04-10T09:19:24Z</time>
      </trkpt>
      <trkpt lat="45.184" lon="5.90647">
        <ele>1227.8</ele>
        <time>2021-04-10T09:19:25Z</time>
      </trkpt>
      <trkpt lat="45.18402" lon="5.90646">
        <ele>1227.8</ele>
        <time>2021-04-10T09:19:26Z</time>
      </trkpt>
      <trkpt lat="45.18404" lon="5.90644">
        <ele>1227.8</ele>
        <time>2021-04-10T09:19:27Z</time>
      </trkpt>
      <trkpt lat="45.18406" lon="5.90643">
        <ele>1228</ele>
        <time>2021-04-10T09:19:28Z</time>
      </trkpt>
      <trkpt lat="45.18408" lon="5.90643">
        <ele>1228.4</ele>
        <time>2021-04-10T09:19:29Z</time>
      </trkpt>
      <trkpt lat="45.1841" lon="5.90643">
        <ele>1228.4</ele>
        <time>2021-04-10T09:19:30Z</time>
      </trkpt>
      <trkpt lat="45.18413" lon="5.90643">
        <ele>1228.6</ele>
        <time>2021-04-10T09:19:31Z</time>
      </trkpt>
      <trkpt lat="45.18415" lon="5.90643">
        <ele>1228.6</ele>
        <time>2021-04-10T09:19:32Z</time>
      </trkpt>
      <trkpt lat="45.18417" lon="5.90643">
        <ele>1228.6</ele>
        <time>2021-04-10T09:19:33Z</time>
      </trkpt>
      <trkpt lat="45.18418" lon="5.90646">
        <ele>1228.6</ele>
        <time>2021-04-10T09:19:34Z</time>
      </trkpt>
      <trkpt lat="45.1842" lon="5.90648">
        <ele>1228.8</ele>
        <time>2021-04-10T09:19:35Z</time>
      </trkpt>
      <trkpt lat="45.18421" lon="5.90651">
        <ele>1229</ele>
        <time>2021-04-10T09:19:36Z</time>
      </trkpt>
      <trkpt lat="45.18423" lon="5.90653">
        <ele>1229</ele>
        <time>2021-04-10T09:19:37Z</time>
      </trkpt>
      <trkpt lat="45.18425" lon="5.90655">
        <ele>1229</ele>
        <time>2021-04-10T09:19:38Z</time>
      </trkpt>
      <trkpt lat="45.18426" lon="5.90658">
        <ele>1229</ele>
        <time>2021-04-10T09:19:39Z</time>
      </trkpt>
      <trkpt lat="45.18428" lon="5.9066">
        <ele>1229</ele>
        <time>2021-04-10T09:19:40Z</time>
      </trkpt>
      <trkpt lat="45.18429" lon="5.90666">
        <ele>1229</ele>
        <time>2021-04-10T09:19:41Z</time>
      </trkpt>
      <trkpt lat="45.18429" lon="5.90666">
        <ele>1229</ele>
        <time>2021-04-10T09:19:42Z</time>
      </trkpt>
      <trkpt lat="45.18429" lon="5.90666">
        <ele>1229</ele>
        <time>2021-04-10T09:19:43Z</time>
      </trkpt>
      <trkpt lat="45.18429" lon="5.90666">
        <ele>1229.2</ele>
        <time>2021-04-10T09:19:44Z</time>
      </trkpt>
      <trkpt lat="45.1843" lon="5.90667">
        <ele>1229.4</ele>
        <time>2021-04-10T09:19:45Z</time>
      </trkpt>
      <trkpt lat="45.1843" lon="5.90668">
        <ele>1229.6</ele>
        <time>2021-04-10T09:19:46Z</time>
      </trkpt>
      <trkpt lat="45.18431" lon="5.90669">
        <ele>1229.6</ele>
        <time>2021-04-10T09:19:47Z</time>
      </trkpt>
      <trkpt lat="45.18432" lon="5.9067">
        <ele>1230</ele>
        <time>2021-04-10T09:19:48Z</time>
      </trkpt>
      <trkpt lat="45.18432" lon="5.90671">
        <ele>1230.2</ele>
        <time>2021-04-10T09:19:49Z</time>
      </trkpt>
      <trkpt lat="45.18433" lon="5.90672">
        <ele>1230.4</ele>
        <time>2021-04-10T09:19:50Z</time>
      </trkpt>
      <trkpt lat="45.18433" lon="5.90673">
        <ele>1230.6</ele>
        <time>2021-04-10T09:19:51Z</time>
      </trkpt>
      <trkpt lat="45.18434" lon="5.90674">
        <ele>1230.8</ele>
        <time>2021-04-10T09:19:52Z</time>
      </trkpt>
      <trkpt lat="45.18434" lon="5.90675">
        <ele>1230.6</ele>
        <time>2021-04-10T09:19:53Z</time>
      </trkpt>
      <trkpt lat="45.18435" lon="5.90676">
        <ele>1230.6</ele>
        <time>2021-04-10T09:19:54Z</time>
      </trkpt>
      <trkpt lat="45.18435" lon="5.90677">
        <ele>1230.6</ele>
        <time>2021-04-10T09:19:55Z</time>
      </trkpt>
      <trkpt lat="45.18436" lon="5.90678">
        <ele>1230.6</ele>
        <time>2021-04-10T09:19:56Z</time>
      </trkpt>
      <trkpt lat="45.18435" lon="5.9068">
        <ele>1230.8</ele>
        <time>2021-04-10T09:19:57Z</time>
      </trkpt>
      <trkpt lat="45.18434" lon="5.90683">
        <ele>1230.8</ele>
        <time>2021-04-10T09:19:58Z</time>
      </trkpt>
      <trkpt lat="45.18433" lon="5.90686">
        <ele>1231</ele>
        <time>2021-04-10T09:19:59Z</time>
      </trkpt>
      <trkpt lat="45.18432" lon="5.90688">
        <ele>1231.2</ele>
        <time>2021-04-10T09:20:01Z</time>
      </trkpt>
      <trkpt lat="45.18432" lon="5.90691">
        <ele>1231</ele>
        <time>2021-04-10T09:20:02Z</time>
      </trkpt>
      <trkpt lat="45.18431" lon="5.90691">
        <ele>1231</ele>
        <time>2021-04-10T09:20:03Z</time>
      </trkpt>
      <trkpt lat="45.1843" lon="5.90692">
        <ele>1231</ele>
        <time>2021-04-10T09:20:04Z</time>
      </trkpt>
      <trkpt lat="45.1843" lon="5.90693">
        <ele>1231.2</ele>
        <time>2021-04-10T09:20:05Z</time>
      </trkpt>
      <trkpt lat="45.18429" lon="5.90694">
        <ele>1231.4</ele>
        <time>2021-04-10T09:20:06Z</time>
      </trkpt>
      <trkpt lat="45.18429" lon="5.90695">
        <ele>1231.6</ele>
        <time>2021-04-10T09:20:07Z</time>
      </trkpt>
      <trkpt lat="45.18428" lon="5.90696">
        <ele>1231.8</ele>
        <time>2021-04-10T09:20:08Z</time>
      </trkpt>
      <trkpt lat="45.18428" lon="5.90697">
        <ele>1232</ele>
        <time>2021-04-10T09:20:09Z</time>
      </trkpt>
      <trkpt lat="45.18427" lon="5.90698">
        <ele>1232.2</ele>
        <time>2021-04-10T09:20:10Z</time>
      </trkpt>
      <trkpt lat="45.18427" lon="5.90699">
        <ele>1232.4</ele>
        <time>2021-04-10T09:20:11Z</time>
      </trkpt>
      <trkpt lat="45.18426" lon="5.907">
        <ele>1232.6</ele>
        <time>2021-04-10T09:20:12Z</time>
      </trkpt>
      <trkpt lat="45.18426" lon="5.90701">
        <ele>1232.6</ele>
        <time>2021-04-10T09:20:13Z</time>
      </trkpt>
      <trkpt lat="45.18425" lon="5.90701">
        <ele>1232.8</ele>
        <time>2021-04-10T09:20:14Z</time>
      </trkpt>
      <trkpt lat="45.18425" lon="5.90701">
        <ele>1233.2</ele>
        <time>2021-04-10T09:20:15Z</time>
      </trkpt>
      <trkpt lat="45.18425" lon="5.90701">
        <ele>1233.6</ele>
        <time>2021-04-10T09:20:16Z</time>
      </trkpt>
      <trkpt lat="45.18425" lon="5.90701">
        <ele>1233.6</ele>
        <time>2021-04-10T09:20:17Z</time>
      </trkpt>
      <trkpt lat="45.18424" lon="5.90701">
        <ele>1233.6</ele>
        <time>2021-04-10T09:20:18Z</time>
      </trkpt>
      <trkpt lat="45.18424" lon="5.90701">
        <ele>1233.8</ele>
        <time>2021-04-10T09:20:19Z</time>
      </trkpt>
      <trkpt lat="45.18424" lon="5.90701">
        <ele>1234</ele>
        <time>2021-04-10T09:20:20Z</time>
      </trkpt>
      <trkpt lat="45.18423" lon="5.90701">
        <ele>1234</ele>
        <time>2021-04-10T09:20:21Z</time>
      </trkpt>
      <trkpt lat="45.18423" lon="5.90701">
        <ele>1234</ele>
        <time>2021-04-10T09:20:22Z</time>
      </trkpt>
      <trkpt lat="45.18423" lon="5.90701">
        <ele>1234.2</ele>
        <time>2021-04-10T09:20:23Z</time>
      </trkpt>
      <trkpt lat="45.18423" lon="5.90701">
        <ele>1234.2</ele>
        <time>2021-04-10T09:20:24Z</time>
      </trkpt>
      <trkpt lat="45.18422" lon="5.90701">
        <ele>1234.2</ele>
        <time>2021-04-10T09:20:25Z</time>
      </trkpt>
      <trkpt lat="45.18422" lon="5.90701">
        <ele>1234.2</ele>
        <time>2021-04-10T09:20:26Z</time>
      </trkpt>
      <trkpt lat="45.18422" lon="5.90702">
        <ele>1234.2</ele>
        <time>2021-04-10T09:20:27Z</time>
      </trkpt>
      <trkpt lat="45.18421" lon="5.90702">
        <ele>1234.2</ele>
        <time>2021-04-10T09:20:28Z</time>
      </trkpt>
      <trkpt lat="45.18421" lon="5.90702">
        <ele>1234.2</ele>
        <time>2021-04-10T09:20:29Z</time>
      </trkpt>
      <trkpt lat="45.18421" lon="5.90702">
        <ele>1234.4</ele>
        <time>2021-04-10T09:20:30Z</time>
      </trkpt>
      <trkpt lat="45.18421" lon="5.90702">
        <ele>1234.4</ele>
        <time>2021-04-10T09:20:31Z</time>
      </trkpt>
      <trkpt lat="45.1842" lon="5.90702">
        <ele>1234.2</ele>
        <time>2021-04-10T09:20:32Z</time>
      </trkpt>
      <trkpt lat="45.1842" lon="5.90702">
        <ele>1234.2</ele>
        <time>2021-04-10T09:20:33Z</time>
      </trkpt>
      <trkpt lat="45.1842" lon="5.90702">
        <ele>1234.2</ele>
        <time>2021-04-10T09:20:34Z</time>
      </trkpt>
      <trkpt lat="45.18419" lon="5.90702">
        <ele>1234.4</ele>
        <time>2021-04-10T09:20:35Z</time>
      </trkpt>
      <trkpt lat="45.18419" lon="5.90702">
        <ele>1234.4</ele>
        <time>2021-04-10T09:20:36Z</time>
      </trkpt>
      <trkpt lat="45.18419" lon="5.90702">
        <ele>1234.4</ele>
        <time>2021-04-10T09:20:37Z</time>
      </trkpt>
      <trkpt lat="45.18419" lon="5.90702">
        <ele>1234.4</ele>
        <time>2021-04-10T09:20:38Z</time>
      </trkpt>
      <trkpt lat="45.18418" lon="5.90702">
        <ele>1234.4</ele>
        <time>2021-04-10T09:20:39Z</time>
      </trkpt>
      <trkpt lat="45.18418" lon="5.90702">
        <ele>1234.4</ele>
        <time>2021-04-10T09:20:40Z</time>
      </trkpt>
      <trkpt lat="45.18418" lon="5.90702">
        <ele>1234.4</ele>
        <time>2021-04-10T09:20:41Z</time>
      </trkpt>
      <trkpt lat="45.18417" lon="5.90702">
        <ele>1234.6</ele>
        <time>2021-04-10T09:20:42Z</time>
      </trkpt>
      <trkpt lat="45.18417" lon="5.90703">
        <ele>1234.4</ele>
        <time>2021-04-10T09:20:43Z</time>
      </trkpt>
      <trkpt lat="45.18417" lon="5.90703">
        <ele>1234.4</ele>
        <time>2021-04-10T09:20:44Z</time>
      </trkpt>
      <trkpt lat="45.18417" lon="5.90703">
        <ele>1234.2</ele>
        <time>2021-04-10T09:20:45Z</time>
      </trkpt>
      <trkpt lat="45.18417" lon="5.90703">
        <ele>1234.4</ele>
        <time>2021-04-10T09:20:46Z</time>
      </trkpt>
      <trkpt lat="45.18417" lon="5.90704">
        <ele>1234.4</ele>
        <time>2021-04-10T09:20:47Z</time>
      </trkpt>
      <trkpt lat="45.18416" lon="5.90704">
        <ele>1234.4</ele>
        <time>2021-04-10T09:20:48Z</time>
      </trkpt>
      <trkpt lat="45.18416" lon="5.90704">
        <ele>1234.4</ele>
        <time>2021-04-10T09:20:49Z</time>
      </trkpt>
      <trkpt lat="45.18416" lon="5.90705">
        <ele>1234.4</ele>
        <time>2021-04-10T09:20:50Z</time>
      </trkpt>
      <trkpt lat="45.18416" lon="5.90705">
        <ele>1234.4</ele>
        <time>2021-04-10T09:20:51Z</time>
      </trkpt>
      <trkpt lat="45.18416" lon="5.90706">
        <ele>1234.4</ele>
        <time>2021-04-10T09:20:52Z</time>
      </trkpt>
      <trkpt lat="45.18416" lon="5.90706">
        <ele>1234.4</ele>
        <time>2021-04-10T09:20:53Z</time>
      </trkpt>
      <trkpt lat="45.18416" lon="5.90707">
        <ele>1234.4</ele>
        <time>2021-04-10T09:20:54Z</time>
      </trkpt>
      <trkpt lat="45.18416" lon="5.90707">
        <ele>1234.4</ele>
        <time>2021-04-10T09:20:55Z</time>
      </trkpt>
      <trkpt lat="45.18416" lon="5.90708">
        <ele>1234.4</ele>
        <time>2021-04-10T09:20:56Z</time>
      </trkpt>
      <trkpt lat="45.18416" lon="5.90708">
        <ele>1234.4</ele>
        <time>2021-04-10T09:20:57Z</time>
      </trkpt>
      <trkpt lat="45.18416" lon="5.90709">
        <ele>1234.4</ele>
        <time>2021-04-10T09:20:58Z</time>
      </trkpt>
      <trkpt lat="45.18416" lon="5.90709">
        <ele>1234.6</ele>
        <time>2021-04-10T09:20:59Z</time>
      </trkpt>
      <trkpt lat="45.18416" lon="5.9071">
        <ele>1234.4</ele>
        <time>2021-04-10T09:21:00Z</time>
      </trkpt>
      <trkpt lat="45.18416" lon="5.9071">
        <ele>1234.4</ele>
        <time>2021-04-10T09:21:01Z</time>
      </trkpt>
      <trkpt lat="45.18416" lon="5.9071">
        <ele>1234.2</ele>
        <time>2021-04-10T09:21:02Z</time>
      </trkpt>
      <trkpt lat="45.18416" lon="5.90711">
        <ele>1234.2</ele>
        <time>2021-04-10T09:21:03Z</time>
      </trkpt>
      <trkpt lat="45.18416" lon="5.90711">
        <ele>1234.2</ele>
        <time>2021-04-10T09:21:04Z</time>
      </trkpt>
      <trkpt lat="45.18416" lon="5.90712">
        <ele>1234.4</ele>
        <time>2021-04-10T09:21:05Z</time>
      </trkpt>
      <trkpt lat="45.18416" lon="5.90712">
        <ele>1234.4</ele>
        <time>2021-04-10T09:21:06Z</time>
      </trkpt>
      <trkpt lat="45.18416" lon="5.90713">
        <ele>1234.6</ele>
        <time>2021-04-10T09:21:07Z</time>
      </trkpt>
      <trkpt lat="45.18416" lon="5.90713">
        <ele>1234.4</ele>
        <time>2021-04-10T09:21:08Z</time>
      </trkpt>
      <trkpt lat="45.18416" lon="5.90714">
        <ele>1234.4</ele>
        <time>2021-04-10T09:21:09Z</time>
      </trkpt>
      <trkpt lat="45.18416" lon="5.90714">
        <ele>1234.2</ele>
        <time>2021-04-10T09:21:10Z</time>
      </trkpt>
      <trkpt lat="45.18416" lon="5.90715">
        <ele>1234.2</ele>
        <time>2021-04-10T09:21:11Z</time>
      </trkpt>
      <trkpt lat="45.18416" lon="5.90715">
        <ele>1234.2</ele>
        <time>2021-04-10T09:21:12Z</time>
      </trkpt>
      <trkpt lat="45.18416" lon="5.90715">
        <ele>1234.2</ele>
        <time>2021-04-10T09:21:13Z</time>
      </trkpt>
      <trkpt lat="45.18417" lon="5.90715">
        <ele>1234</ele>
        <time>2021-04-10T09:21:14Z</time>
      </trkpt>
      <trkpt lat="45.18417" lon="5.90715">
        <ele>1234.2</ele>
        <time>2021-04-10T09:21:15Z</time>
      </trkpt>
      <trkpt lat="45.18418" lon="5.90714">
        <ele>1234.2</ele>
        <time>2021-04-10T09:21:16Z</time>
      </trkpt>
      <trkpt lat="45.18419" lon="5.90714">
        <ele>1234.2</ele>
        <time>2021-04-10T09:21:17Z</time>
      </trkpt>
      <trkpt lat="45.18419" lon="5.90713">
        <ele>1234.2</ele>
        <time>2021-04-10T09:21:18Z</time>
      </trkpt>
      <trkpt lat="45.1842" lon="5.90713">
        <ele>1234.2</ele>
        <time>2021-04-10T09:21:19Z</time>
      </trkpt>
      <trkpt lat="45.18421" lon="5.90713">
        <ele>1234.2</ele>
        <time>2021-04-10T09:21:20Z</time>
      </trkpt>
      <trkpt lat="45.18421" lon="5.90712">
        <ele>1234.2</ele>
        <time>2021-04-10T09:21:21Z</time>
      </trkpt>
      <trkpt lat="45.18422" lon="5.90712">
        <ele>1234.2</ele>
        <time>2021-04-10T09:21:22Z</time>
      </trkpt>
      <trkpt lat="45.18423" lon="5.90711">
        <ele>1234.2</ele>
        <time>2021-04-10T09:21:23Z</time>
      </trkpt>
      <trkpt lat="45.18424" lon="5.90711">
        <ele>1234.4</ele>
        <time>2021-04-10T09:21:24Z</time>
      </trkpt>
      <trkpt lat="45.18424" lon="5.90711">
        <ele>1234.4</ele>
        <time>2021-04-10T09:21:25Z</time>
      </trkpt>
      <trkpt lat="45.18425" lon="5.9071">
        <ele>1234.4</ele>
        <time>2021-04-10T09:21:26Z</time>
      </trkpt>
      <trkpt lat="45.18425" lon="5.90711">
        <ele>1234.4</ele>
        <time>2021-04-10T09:21:27Z</time>
      </trkpt>
      <trkpt lat="45.18424" lon="5.90712">
        <ele>1234.4</ele>
        <time>2021-04-10T09:21:28Z</time>
      </trkpt>
      <trkpt lat="45.18424" lon="5.90712">
        <ele>1234.4</ele>
        <time>2021-04-10T09:21:29Z</time>
      </trkpt>
      <trkpt lat="45.18423" lon="5.90713">
        <ele>1234.4</ele>
        <time>2021-04-10T09:21:30Z</time>
      </trkpt>
      <trkpt lat="45.18423" lon="5.90714">
        <ele>1234.6</ele>
        <time>2021-04-10T09:21:31Z</time>
      </trkpt>
      <trkpt lat="45.18423" lon="5.90715">
        <ele>1234.8</ele>
        <time>2021-04-10T09:21:32Z</time>
      </trkpt>
      <trkpt lat="45.18422" lon="5.90715">
        <ele>1235</ele>
        <time>2021-04-10T09:21:33Z</time>
      </trkpt>
      <trkpt lat="45.18422" lon="5.90716">
        <ele>1235</ele>
        <time>2021-04-10T09:21:34Z</time>
      </trkpt>
      <trkpt lat="45.18421" lon="5.90717">
        <ele>1235.2</ele>
        <time>2021-04-10T09:21:35Z</time>
      </trkpt>
      <trkpt lat="45.18421" lon="5.90718">
        <ele>1235.4</ele>
        <time>2021-04-10T09:21:36Z</time>
      </trkpt>
      <trkpt lat="45.18421" lon="5.90718">
        <ele>1235.6</ele>
        <time>2021-04-10T09:21:37Z</time>
      </trkpt>
      <trkpt lat="45.1842" lon="5.90719">
        <ele>1235.6</ele>
        <time>2021-04-10T09:21:38Z</time>
      </trkpt>
      <trkpt lat="45.1842" lon="5.9072">
        <ele>1235.8</ele>
        <time>2021-04-10T09:21:39Z</time>
      </trkpt>
      <trkpt lat="45.1842" lon="5.90721">
        <ele>1236</ele>
        <time>2021-04-10T09:21:40Z</time>
      </trkpt>
      <trkpt lat="45.18419" lon="5.90722">
        <ele>1236.2</ele>
        <time>2021-04-10T09:21:41Z</time>
      </trkpt>
      <trkpt lat="45.18419" lon="5.90722">
        <ele>1236.4</ele>
        <time>2021-04-10T09:21:42Z</time>
      </trkpt>
      <trkpt lat="45.18418" lon="5.90723">
        <ele>1236.4</ele>
        <time>2021-04-10T09:21:43Z</time>
      </trkpt>
      <trkpt lat="45.18418" lon="5.90724">
        <ele>1236.6</ele>
        <time>2021-04-10T09:21:44Z</time>
      </trkpt>
      <trkpt lat="45.18418" lon="5.90725">
        <ele>1237</ele>
        <time>2021-04-10T09:21:45Z</time>
      </trkpt>
      <trkpt lat="45.18417" lon="5.90726">
        <ele>1237.2</ele>
        <time>2021-04-10T09:21:46Z</time>
      </trkpt>
      <trkpt lat="45.18417" lon="5.90727">
        <ele>1237.4</ele>
        <time>2021-04-10T09:21:47Z</time>
      </trkpt>
      <trkpt lat="45.18416" lon="5.90727">
        <ele>1237.6</ele>
        <time>2021-04-10T09:21:48Z</time>
      </trkpt>
      <trkpt lat="45.18416" lon="5.90728">
        <ele>1238</ele>
        <time>2021-04-10T09:21:49Z</time>
      </trkpt>
      <trkpt lat="45.18415" lon="5.90729">
        <ele>1238.2</ele>
        <time>2021-04-10T09:21:50Z</time>
      </trkpt>
      <trkpt lat="45.18415" lon="5.9073">
        <ele>1238.4</ele>
        <time>2021-04-10T09:21:51Z</time>
      </trkpt>
      <trkpt lat="45.18415" lon="5.90731">
        <ele>1238.4</ele>
        <time>2021-04-10T09:21:52Z</time>
      </trkpt>
      <trkpt lat="45.18414" lon="5.90732">
        <ele>1238.8</ele>
        <time>2021-04-10T09:21:53Z</time>
      </trkpt>
      <trkpt lat="45.18413" lon="5.90734">
        <ele>1239.2</ele>
        <time>2021-04-10T09:21:54Z</time>
      </trkpt>
      <trkpt lat="45.18412" lon="5.90736">
        <ele>1239.4</ele>
        <time>2021-04-10T09:21:55Z</time>
      </trkpt>
      <trkpt lat="45.18411" lon="5.90738">
        <ele>1239.6</ele>
        <time>2021-04-10T09:21:56Z</time>
      </trkpt>
      <trkpt lat="45.1841" lon="5.9074">
        <ele>1239.8</ele>
        <time>2021-04-10T09:21:57Z</time>
      </trkpt>
      <trkpt lat="45.18408" lon="5.90742">
        <ele>1240.2</ele>
        <time>2021-04-10T09:21:58Z</time>
      </trkpt>
      <trkpt lat="45.18407" lon="5.90743">
        <ele>1240.4</ele>
        <time>2021-04-10T09:21:59Z</time>
      </trkpt>
      <trkpt lat="45.18406" lon="5.90745">
        <ele>1240.8</ele>
        <time>2021-04-10T09:22:00Z</time>
      </trkpt>
      <trkpt lat="45.18404" lon="5.90747">
        <ele>1241.2</ele>
        <time>2021-04-10T09:22:01Z</time>
      </trkpt>
      <trkpt lat="45.18403" lon="5.90748">
        <ele>1241.4</ele>
        <time>2021-04-10T09:22:02Z</time>
      </trkpt>
      <trkpt lat="45.18401" lon="5.9075">
        <ele>1241.6</ele>
        <time>2021-04-10T09:22:03Z</time>
      </trkpt>
      <trkpt lat="45.18401" lon="5.90751">
        <ele>1242</ele>
        <time>2021-04-10T09:22:04Z</time>
      </trkpt>
      <trkpt lat="45.184" lon="5.90752">
        <ele>1242.2</ele>
        <time>2021-04-10T09:22:05Z</time>
      </trkpt>
      <trkpt lat="45.18399" lon="5.90752">
        <ele>1242.4</ele>
        <time>2021-04-10T09:22:06Z</time>
      </trkpt>
      <trkpt lat="45.18399" lon="5.90753">
        <ele>1242.6</ele>
        <time>2021-04-10T09:22:07Z</time>
      </trkpt>
      <trkpt lat="45.18398" lon="5.90754">
        <ele>1242.6</ele>
        <time>2021-04-10T09:22:08Z</time>
      </trkpt>
      <trkpt lat="45.18397" lon="5.90755">
        <ele>1242.6</ele>
        <time>2021-04-10T09:22:09Z</time>
      </trkpt>
      <trkpt lat="45.18397" lon="5.90755">
        <ele>1242.8</ele>
        <time>2021-04-10T09:22:10Z</time>
      </trkpt>
      <trkpt lat="45.18396" lon="5.90756">
        <ele>1243</ele>
        <time>2021-04-10T09:22:11Z</time>
      </trkpt>
      <trkpt lat="45.18395" lon="5.90757">
        <ele>1243.2</ele>
        <time>2021-04-10T09:22:12Z</time>
      </trkpt>
      <trkpt lat="45.18395" lon="5.90758">
        <ele>1243.4</ele>
        <time>2021-04-10T09:22:13Z</time>
      </trkpt>
      <trkpt lat="45.18394" lon="5.90758">
        <ele>1243.8</ele>
        <time>2021-04-10T09:22:14Z</time>
      </trkpt>
      <trkpt lat="45.18393" lon="5.90759">
        <ele>1244.2</ele>
        <time>2021-04-10T09:22:15Z</time>
      </trkpt>
      <trkpt lat="45.18393" lon="5.9076">
        <ele>1244.4</ele>
        <time>2021-04-10T09:22:16Z</time>
      </trkpt>
      <trkpt lat="45.18392" lon="5.90761">
        <ele>1244.4</ele>
        <time>2021-04-10T09:22:17Z</time>
      </trkpt>
      <trkpt lat="45.18392" lon="5.90763">
        <ele>1244.6</ele>
        <time>2021-04-10T09:22:18Z</time>
      </trkpt>
      <trkpt lat="45.18391" lon="5.90764">
        <ele>1244.8</ele>
        <time>2021-04-10T09:22:19Z</time>
      </trkpt>
      <trkpt lat="45.18391" lon="5.90765">
        <ele>1245.2</ele>
        <time>2021-04-10T09:22:20Z</time>
      </trkpt>
      <trkpt lat="45.1839" lon="5.90766">
        <ele>1245.2</ele>
        <time>2021-04-10T09:22:21Z</time>
      </trkpt>
      <trkpt lat="45.18389" lon="5.90767">
        <ele>1245.4</ele>
        <time>2021-04-10T09:22:22Z</time>
      </trkpt>
      <trkpt lat="45.18389" lon="5.90768">
        <ele>1245.6</ele>
        <time>2021-04-10T09:22:23Z</time>
      </trkpt>
      <trkpt lat="45.18388" lon="5.90769">
        <ele>1246.2</ele>
        <time>2021-04-10T09:22:24Z</time>
      </trkpt>
      <trkpt lat="45.18388" lon="5.9077">
        <ele>1246.4</ele>
        <time>2021-04-10T09:22:25Z</time>
      </trkpt>
      <trkpt lat="45.18387" lon="5.90771">
        <ele>1246.4</ele>
        <time>2021-04-10T09:22:26Z</time>
      </trkpt>
      <trkpt lat="45.18386" lon="5.90773">
        <ele>1246.6</ele>
        <time>2021-04-10T09:22:27Z</time>
      </trkpt>
      <trkpt lat="45.18386" lon="5.90774">
        <ele>1247</ele>
        <time>2021-04-10T09:22:28Z</time>
      </trkpt>
      <trkpt lat="45.18385" lon="5.90775">
        <ele>1247.2</ele>
        <time>2021-04-10T09:22:29Z</time>
      </trkpt>
      <trkpt lat="45.18384" lon="5.90776">
        <ele>1247.4</ele>
        <time>2021-04-10T09:22:30Z</time>
      </trkpt>
      <trkpt lat="45.18383" lon="5.90777">
        <ele>1247.8</ele>
        <time>2021-04-10T09:22:31Z</time>
      </trkpt>
      <trkpt lat="45.18383" lon="5.90778">
        <ele>1248</ele>
        <time>2021-04-10T09:22:32Z</time>
      </trkpt>
      <trkpt lat="45.18382" lon="5.90779">
        <ele>1248.2</ele>
        <time>2021-04-10T09:22:33Z</time>
      </trkpt>
      <trkpt lat="45.18381" lon="5.9078">
        <ele>1248.4</ele>
        <time>2021-04-10T09:22:34Z</time>
      </trkpt>
      <trkpt lat="45.1838" lon="5.90781">
        <ele>1248.8</ele>
        <time>2021-04-10T09:22:35Z</time>
      </trkpt>
      <trkpt lat="45.18379" lon="5.90782">
        <ele>1249</ele>
        <time>2021-04-10T09:22:36Z</time>
      </trkpt>
      <trkpt lat="45.18378" lon="5.90782">
        <ele>1249</ele>
        <time>2021-04-10T09:22:37Z</time>
      </trkpt>
      <trkpt lat="45.18377" lon="5.90783">
        <ele>1249.2</ele>
        <time>2021-04-10T09:22:38Z</time>
      </trkpt>
      <trkpt lat="45.18376" lon="5.90784">
        <ele>1249.8</ele>
        <time>2021-04-10T09:22:39Z</time>
      </trkpt>
      <trkpt lat="45.18375" lon="5.90785">
        <ele>1250</ele>
        <time>2021-04-10T09:22:40Z</time>
      </trkpt>
      <trkpt lat="45.18373" lon="5.90785">
        <ele>1250</ele>
        <time>2021-04-10T09:22:41Z</time>
      </trkpt>
      <trkpt lat="45.18372" lon="5.90786">
        <ele>1250.4</ele>
        <time>2021-04-10T09:22:42Z</time>
      </trkpt>
      <trkpt lat="45.18371" lon="5.90787">
        <ele>1250.8</ele>
        <time>2021-04-10T09:22:43Z</time>
      </trkpt>
      <trkpt lat="45.1837" lon="5.90788">
        <ele>1251</ele>
        <time>2021-04-10T09:22:44Z</time>
      </trkpt>
      <trkpt lat="45.18369" lon="5.90788">
        <ele>1251.2</ele>
        <time>2021-04-10T09:22:45Z</time>
      </trkpt>
      <trkpt lat="45.18368" lon="5.90789">
        <ele>1251.4</ele>
        <time>2021-04-10T09:22:46Z</time>
      </trkpt>
      <trkpt lat="45.18367" lon="5.9079">
        <ele>1251.6</ele>
        <time>2021-04-10T09:22:47Z</time>
      </trkpt>
      <trkpt lat="45.18366" lon="5.90791">
        <ele>1251.8</ele>
        <time>2021-04-10T09:22:48Z</time>
      </trkpt>
      <trkpt lat="45.18365" lon="5.90791">
        <ele>1252.2</ele>
        <time>2021-04-10T09:22:49Z</time>
      </trkpt>
      <trkpt lat="45.18364" lon="5.90792">
        <ele>1252.4</ele>
        <time>2021-04-10T09:22:50Z</time>
      </trkpt>
      <trkpt lat="45.18363" lon="5.90793">
        <ele>1252.6</ele>
        <time>2021-04-10T09:22:51Z</time>
      </trkpt>
      <trkpt lat="45.18363" lon="5.90793">
        <ele>1253</ele>
        <time>2021-04-10T09:22:52Z</time>
      </trkpt>
      <trkpt lat="45.18362" lon="5.90794">
        <ele>1253.2</ele>
        <time>2021-04-10T09:22:53Z</time>
      </trkpt>
      <trkpt lat="45.18362" lon="5.90795">
        <ele>1253.4</ele>
        <time>2021-04-10T09:22:54Z</time>
      </trkpt>
      <trkpt lat="45.18362" lon="5.90795">
        <ele>1253.6</ele>
        <time>2021-04-10T09:22:55Z</time>
      </trkpt>
      <trkpt lat="45.18361" lon="5.90796">
        <ele>1253.8</ele>
        <time>2021-04-10T09:22:56Z</time>
      </trkpt>
      <trkpt lat="45.18361" lon="5.90797">
        <ele>1254</ele>
        <time>2021-04-10T09:22:57Z</time>
      </trkpt>
      <trkpt lat="45.1836" lon="5.90797">
        <ele>1254.4</ele>
        <time>2021-04-10T09:22:58Z</time>
      </trkpt>
      <trkpt lat="45.1836" lon="5.90798">
        <ele>1254.4</ele>
        <time>2021-04-10T09:22:59Z</time>
      </trkpt>
      <trkpt lat="45.18359" lon="5.90799">
        <ele>1254.8</ele>
        <time>2021-04-10T09:23:00Z</time>
      </trkpt>
      <trkpt lat="45.18359" lon="5.90799">
        <ele>1255</ele>
        <time>2021-04-10T09:23:01Z</time>
      </trkpt>
      <trkpt lat="45.18359" lon="5.908">
        <ele>1255.4</ele>
        <time>2021-04-10T09:23:02Z</time>
      </trkpt>
      <trkpt lat="45.18358" lon="5.90801">
        <ele>1255.6</ele>
        <time>2021-04-10T09:23:03Z</time>
      </trkpt>
      <trkpt lat="45.18358" lon="5.90801">
        <ele>1255.6</ele>
        <time>2021-04-10T09:23:04Z</time>
      </trkpt>
      <trkpt lat="45.18357" lon="5.90802">
        <ele>1256</ele>
        <time>2021-04-10T09:23:05Z</time>
      </trkpt>
      <trkpt lat="45.18357" lon="5.90803">
        <ele>1256.4</ele>
        <time>2021-04-10T09:23:06Z</time>
      </trkpt>
      <trkpt lat="45.18357" lon="5.90804">
        <ele>1256.6</ele>
        <time>2021-04-10T09:23:07Z</time>
      </trkpt>
      <trkpt lat="45.18356" lon="5.90805">
        <ele>1256.6</ele>
        <time>2021-04-10T09:23:08Z</time>
      </trkpt>
      <trkpt lat="45.18356" lon="5.90806">
        <ele>1256.8</ele>
        <time>2021-04-10T09:23:09Z</time>
      </trkpt>
      <trkpt lat="45.18355" lon="5.90807">
        <ele>1257</ele>
        <time>2021-04-10T09:23:10Z</time>
      </trkpt>
      <trkpt lat="45.18355" lon="5.90809">
        <ele>1257.6</ele>
        <time>2021-04-10T09:23:11Z</time>
      </trkpt>
      <trkpt lat="45.18355" lon="5.9081">
        <ele>1257.8</ele>
        <time>2021-04-10T09:23:12Z</time>
      </trkpt>
      <trkpt lat="45.18354" lon="5.90811">
        <ele>1258</ele>
        <time>2021-04-10T09:23:13Z</time>
      </trkpt>
      <trkpt lat="45.18354" lon="5.90812">
        <ele>1258</ele>
        <time>2021-04-10T09:23:14Z</time>
      </trkpt>
      <trkpt lat="45.18354" lon="5.90813">
        <ele>1258.2</ele>
        <time>2021-04-10T09:23:15Z</time>
      </trkpt>
      <trkpt lat="45.18353" lon="5.90814">
        <ele>1258.6</ele>
        <time>2021-04-10T09:23:16Z</time>
      </trkpt>
      <trkpt lat="45.18353" lon="5.90815">
        <ele>1258.8</ele>
        <time>2021-04-10T09:23:17Z</time>
      </trkpt>
      <trkpt lat="45.18352" lon="5.90815">
        <ele>1259.2</ele>
        <time>2021-04-10T09:23:18Z</time>
      </trkpt>
      <trkpt lat="45.18352" lon="5.90816">
        <ele>1259.4</ele>
        <time>2021-04-10T09:23:19Z</time>
      </trkpt>
      <trkpt lat="45.18351" lon="5.90817">
        <ele>1259.8</ele>
        <time>2021-04-10T09:23:20Z</time>
      </trkpt>
      <trkpt lat="45.18351" lon="5.90818">
        <ele>1260</ele>
        <time>2021-04-10T09:23:21Z</time>
      </trkpt>
      <trkpt lat="45.1835" lon="5.90818">
        <ele>1260.2</ele>
        <time>2021-04-10T09:23:22Z</time>
      </trkpt>
      <trkpt lat="45.1835" lon="5.90819">
        <ele>1260.4</ele>
        <time>2021-04-10T09:23:23Z</time>
      </trkpt>
      <trkpt lat="45.1835" lon="5.9082">
        <ele>1260.6</ele>
        <time>2021-04-10T09:23:24Z</time>
      </trkpt>
      <trkpt lat="45.18349" lon="5.9082">
        <ele>1261</ele>
        <time>2021-04-10T09:23:25Z</time>
      </trkpt>
      <trkpt lat="45.18349" lon="5.90821">
        <ele>1261.2</ele>
        <time>2021-04-10T09:23:26Z</time>
      </trkpt>
      <trkpt lat="45.18348" lon="5.90822">
        <ele>1261.4</ele>
        <time>2021-04-10T09:23:27Z</time>
      </trkpt>
      <trkpt lat="45.18348" lon="5.90823">
        <ele>1261.6</ele>
        <time>2021-04-10T09:23:28Z</time>
      </trkpt>
      <trkpt lat="45.18347" lon="5.90823">
        <ele>1261.8</ele>
        <time>2021-04-10T09:23:29Z</time>
      </trkpt>
      <trkpt lat="45.18347" lon="5.90824">
        <ele>1262</ele>
        <time>2021-04-10T09:23:30Z</time>
      </trkpt>
      <trkpt lat="45.18346" lon="5.90825">
        <ele>1262.2</ele>
        <time>2021-04-10T09:23:31Z</time>
      </trkpt>
      <trkpt lat="45.18345" lon="5.90826">
        <ele>1262.4</ele>
        <time>2021-04-10T09:23:32Z</time>
      </trkpt>
      <trkpt lat="45.18345" lon="5.90827">
        <ele>1262.6</ele>
        <time>2021-04-10T09:23:33Z</time>
      </trkpt>
      <trkpt lat="45.18344" lon="5.90828">
        <ele>1263</ele>
        <time>2021-04-10T09:23:34Z</time>
      </trkpt>
      <trkpt lat="45.18343" lon="5.90829">
        <ele>1263.2</ele>
        <time>2021-04-10T09:23:35Z</time>
      </trkpt>
      <trkpt lat="45.18343" lon="5.9083">
        <ele>1263.4</ele>
        <time>2021-04-10T09:23:36Z</time>
      </trkpt>
      <trkpt lat="45.18342" lon="5.9083">
        <ele>1263.8</ele>
        <time>2021-04-10T09:23:37Z</time>
      </trkpt>
      <trkpt lat="45.18341" lon="5.90831">
        <ele>1264.2</ele>
        <time>2021-04-10T09:23:38Z</time>
      </trkpt>
      <trkpt lat="45.18341" lon="5.90832">
        <ele>1264.4</ele>
        <time>2021-04-10T09:23:39Z</time>
      </trkpt>
      <trkpt lat="45.1834" lon="5.90833">
        <ele>1264.4</ele>
        <time>2021-04-10T09:23:40Z</time>
      </trkpt>
      <trkpt lat="45.18339" lon="5.90833">
        <ele>1264.8</ele>
        <time>2021-04-10T09:23:41Z</time>
      </trkpt>
      <trkpt lat="45.18338" lon="5.90834">
        <ele>1265</ele>
        <time>2021-04-10T09:23:42Z</time>
      </trkpt>
      <trkpt lat="45.18336" lon="5.90834">
        <ele>1265</ele>
        <time>2021-04-10T09:23:43Z</time>
      </trkpt>
      <trkpt lat="45.18335" lon="5.90834">
        <ele>1265.4</ele>
        <time>2021-04-10T09:23:44Z</time>
      </trkpt>
      <trkpt lat="45.18334" lon="5.90834">
        <ele>1265.8</ele>
        <time>2021-04-10T09:23:45Z</time>
      </trkpt>
      <trkpt lat="45.18333" lon="5.90835">
        <ele>1266.2</ele>
        <time>2021-04-10T09:23:46Z</time>
      </trkpt>
      <trkpt lat="45.18332" lon="5.90835">
        <ele>1266.4</ele>
        <time>2021-04-10T09:23:47Z</time>
      </trkpt>
      <trkpt lat="45.1833" lon="5.90835">
        <ele>1266.6</ele>
        <time>2021-04-10T09:23:48Z</time>
      </trkpt>
      <trkpt lat="45.18329" lon="5.90836">
        <ele>1266.8</ele>
        <time>2021-04-10T09:23:49Z</time>
      </trkpt>
      <trkpt lat="45.18328" lon="5.90836">
        <ele>1267</ele>
        <time>2021-04-10T09:23:50Z</time>
      </trkpt>
      <trkpt lat="45.18327" lon="5.90836">
        <ele>1267.2</ele>
        <time>2021-04-10T09:23:51Z</time>
      </trkpt>
      <trkpt lat="45.18326" lon="5.90837">
        <ele>1267.4</ele>
        <time>2021-04-10T09:23:52Z</time>
      </trkpt>
      <trkpt lat="45.18324" lon="5.90837">
        <ele>1267.6</ele>
        <time>2021-04-10T09:23:53Z</time>
      </trkpt>
      <trkpt lat="45.18323" lon="5.90837">
        <ele>1267.8</ele>
        <time>2021-04-10T09:23:54Z</time>
      </trkpt>
      <trkpt lat="45.18322" lon="5.90838">
        <ele>1268</ele>
        <time>2021-04-10T09:23:55Z</time>
      </trkpt>
      <trkpt lat="45.18321" lon="5.90838">
        <ele>1268.4</ele>
        <time>2021-04-10T09:23:56Z</time>
      </trkpt>
      <trkpt lat="45.1832" lon="5.90838">
        <ele>1268.6</ele>
        <time>2021-04-10T09:23:57Z</time>
      </trkpt>
      <trkpt lat="45.18319" lon="5.90838">
        <ele>1269</ele>
        <time>2021-04-10T09:23:58Z</time>
      </trkpt>
      <trkpt lat="45.18318" lon="5.90838">
        <ele>1269</ele>
        <time>2021-04-10T09:23:59Z</time>
      </trkpt>
      <trkpt lat="45.18317" lon="5.90838">
        <ele>1269.2</ele>
        <time>2021-04-10T09:24:00Z</time>
      </trkpt>
      <trkpt lat="45.18315" lon="5.90838">
        <ele>1269.6</ele>
        <time>2021-04-10T09:24:01Z</time>
      </trkpt>
      <trkpt lat="45.18314" lon="5.90838">
        <ele>1269.6</ele>
        <time>2021-04-10T09:24:02Z</time>
      </trkpt>
      <trkpt lat="45.18313" lon="5.90838">
        <ele>1270</ele>
        <time>2021-04-10T09:24:03Z</time>
      </trkpt>
      <trkpt lat="45.18312" lon="5.90838">
        <ele>1270.4</ele>
        <time>2021-04-10T09:24:04Z</time>
      </trkpt>
      <trkpt lat="45.18311" lon="5.90838">
        <ele>1270.6</ele>
        <time>2021-04-10T09:24:05Z</time>
      </trkpt>
      <trkpt lat="45.1831" lon="5.90838">
        <ele>1270.8</ele>
        <time>2021-04-10T09:24:06Z</time>
      </trkpt>
      <trkpt lat="45.18309" lon="5.90838">
        <ele>1271</ele>
        <time>2021-04-10T09:24:07Z</time>
      </trkpt>
      <trkpt lat="45.18308" lon="5.90838">
        <ele>1271.2</ele>
        <time>2021-04-10T09:24:08Z</time>
      </trkpt>
      <trkpt lat="45.18307" lon="5.90837">
        <ele>1271.6</ele>
        <time>2021-04-10T09:24:09Z</time>
      </trkpt>
      <trkpt lat="45.18306" lon="5.90837">
        <ele>1271.8</ele>
        <time>2021-04-10T09:24:10Z</time>
      </trkpt>
      <trkpt lat="45.18305" lon="5.90837">
        <ele>1272</ele>
        <time>2021-04-10T09:24:11Z</time>
      </trkpt>
      <trkpt lat="45.18304" lon="5.90837">
        <ele>1272.2</ele>
        <time>2021-04-10T09:24:12Z</time>
      </trkpt>
      <trkpt lat="45.18303" lon="5.90837">
        <ele>1272.4</ele>
        <time>2021-04-10T09:24:13Z</time>
      </trkpt>
      <trkpt lat="45.18302" lon="5.90837">
        <ele>1272.8</ele>
        <time>2021-04-10T09:24:14Z</time>
      </trkpt>
      <trkpt lat="45.18301" lon="5.90837">
        <ele>1272.8</ele>
        <time>2021-04-10T09:24:15Z</time>
      </trkpt>
      <trkpt lat="45.183" lon="5.90837">
        <ele>1272.8</ele>
        <time>2021-04-10T09:24:16Z</time>
      </trkpt>
      <trkpt lat="45.18299" lon="5.90837">
        <ele>1272.8</ele>
        <time>2021-04-10T09:24:17Z</time>
      </trkpt>
      <trkpt lat="45.18298" lon="5.90837">
        <ele>1273</ele>
        <time>2021-04-10T09:24:18Z</time>
      </trkpt>
      <trkpt lat="45.18297" lon="5.90838">
        <ele>1273.4</ele>
        <time>2021-04-10T09:24:19Z</time>
      </trkpt>
      <trkpt lat="45.18295" lon="5.90838">
        <ele>1273.6</ele>
        <time>2021-04-10T09:24:20Z</time>
      </trkpt>
      <trkpt lat="45.18294" lon="5.90839">
        <ele>1273.8</ele>
        <time>2021-04-10T09:24:21Z</time>
      </trkpt>
      <trkpt lat="45.18293" lon="5.90839">
        <ele>1274</ele>
        <time>2021-04-10T09:24:22Z</time>
      </trkpt>
      <trkpt lat="45.18291" lon="5.9084">
        <ele>1274.4</ele>
        <time>2021-04-10T09:24:23Z</time>
      </trkpt>
      <trkpt lat="45.1829" lon="5.90841">
        <ele>1274.6</ele>
        <time>2021-04-10T09:24:24Z</time>
      </trkpt>
      <trkpt lat="45.18289" lon="5.90842">
        <ele>1275</ele>
        <time>2021-04-10T09:24:25Z</time>
      </trkpt>
      <trkpt lat="45.18288" lon="5.90843">
        <ele>1275.2</ele>
        <time>2021-04-10T09:24:26Z</time>
      </trkpt>
      <trkpt lat="45.18287" lon="5.90844">
        <ele>1275.4</ele>
        <time>2021-04-10T09:24:27Z</time>
      </trkpt>
      <trkpt lat="45.18286" lon="5.90845">
        <ele>1275.8</ele>
        <time>2021-04-10T09:24:28Z</time>
      </trkpt>
      <trkpt lat="45.18285" lon="5.90846">
        <ele>1275.8</ele>
        <time>2021-04-10T09:24:29Z</time>
      </trkpt>
      <trkpt lat="45.18284" lon="5.90846">
        <ele>1276</ele>
        <time>2021-04-10T09:24:30Z</time>
      </trkpt>
      <trkpt lat="45.18283" lon="5.90847">
        <ele>1276</ele>
        <time>2021-04-10T09:24:31Z</time>
      </trkpt>
      <trkpt lat="45.18282" lon="5.90848">
        <ele>1276.4</ele>
        <time>2021-04-10T09:24:32Z</time>
      </trkpt>
      <trkpt lat="45.18281" lon="5.90849">
        <ele>1276.8</ele>
        <time>2021-04-10T09:24:33Z</time>
      </trkpt>
      <trkpt lat="45.18281" lon="5.90849">
        <ele>1277</ele>
        <time>2021-04-10T09:24:34Z</time>
      </trkpt>
      <trkpt lat="45.1828" lon="5.90849">
        <ele>1277.2</ele>
        <time>2021-04-10T09:24:35Z</time>
      </trkpt>
      <trkpt lat="45.18279" lon="5.90849">
        <ele>1277.4</ele>
        <time>2021-04-10T09:24:36Z</time>
      </trkpt>
      <trkpt lat="45.18278" lon="5.90849">
        <ele>1277.6</ele>
        <time>2021-04-10T09:24:37Z</time>
      </trkpt>
      <trkpt lat="45.18277" lon="5.90849">
        <ele>1277.6</ele>
        <time>2021-04-10T09:24:38Z</time>
      </trkpt>
      <trkpt lat="45.18276" lon="5.90849">
        <ele>1278</ele>
        <time>2021-04-10T09:24:39Z</time>
      </trkpt>
      <trkpt lat="45.18276" lon="5.90849">
        <ele>1278.2</ele>
        <time>2021-04-10T09:24:40Z</time>
      </trkpt>
      <trkpt lat="45.18275" lon="5.90849">
        <ele>1278.2</ele>
        <time>2021-04-10T09:24:41Z</time>
      </trkpt>
      <trkpt lat="45.18274" lon="5.90849">
        <ele>1278.2</ele>
        <time>2021-04-10T09:24:42Z</time>
      </trkpt>
      <trkpt lat="45.18273" lon="5.90849">
        <ele>1278.4</ele>
        <time>2021-04-10T09:24:43Z</time>
      </trkpt>
      <trkpt lat="45.18272" lon="5.9085">
        <ele>1278.6</ele>
        <time>2021-04-10T09:24:44Z</time>
      </trkpt>
      <trkpt lat="45.18271" lon="5.9085">
        <ele>1278.8</ele>
        <time>2021-04-10T09:24:45Z</time>
      </trkpt>
      <trkpt lat="45.1827" lon="5.9085">
        <ele>1279.2</ele>
        <time>2021-04-10T09:24:46Z</time>
      </trkpt>
      <trkpt lat="45.18269" lon="5.90851">
        <ele>1279.4</ele>
        <time>2021-04-10T09:24:47Z</time>
      </trkpt>
      <trkpt lat="45.18268" lon="5.90851">
        <ele>1279.4</ele>
        <time>2021-04-10T09:24:48Z</time>
      </trkpt>
      <trkpt lat="45.18267" lon="5.90851">
        <ele>1279.6</ele>
        <time>2021-04-10T09:24:49Z</time>
      </trkpt>
      <trkpt lat="45.18266" lon="5.90851">
        <ele>1279.8</ele>
        <time>2021-04-10T09:24:50Z</time>
      </trkpt>
      <trkpt lat="45.18265" lon="5.90852">
        <ele>1280</ele>
        <time>2021-04-10T09:24:51Z</time>
      </trkpt>
      <trkpt lat="45.18264" lon="5.90852">
        <ele>1280</ele>
        <time>2021-04-10T09:24:52Z</time>
      </trkpt>
      <trkpt lat="45.18263" lon="5.90852">
        <ele>1280.4</ele>
        <time>2021-04-10T09:24:53Z</time>
      </trkpt>
      <trkpt lat="45.18263" lon="5.90853">
        <ele>1280.8</ele>
        <time>2021-04-10T09:24:54Z</time>
      </trkpt>
      <trkpt lat="45.18262" lon="5.90854">
        <ele>1281</ele>
        <time>2021-04-10T09:24:55Z</time>
      </trkpt>
      <trkpt lat="45.18262" lon="5.90855">
        <ele>1281.2</ele>
        <time>2021-04-10T09:24:56Z</time>
      </trkpt>
      <trkpt lat="45.18261" lon="5.90856">
        <ele>1281.4</ele>
        <time>2021-04-10T09:24:57Z</time>
      </trkpt>
      <trkpt lat="45.1826" lon="5.90857">
        <ele>1281.4</ele>
        <time>2021-04-10T09:24:58Z</time>
      </trkpt>
      <trkpt lat="45.1826" lon="5.90858">
        <ele>1281.6</ele>
        <time>2021-04-10T09:24:59Z</time>
      </trkpt>
      <trkpt lat="45.18259" lon="5.90859">
        <ele>1281.8</ele>
        <time>2021-04-10T09:25:00Z</time>
      </trkpt>
      <trkpt lat="45.18258" lon="5.9086">
        <ele>1282</ele>
        <time>2021-04-10T09:25:01Z</time>
      </trkpt>
      <trkpt lat="45.18258" lon="5.9086">
        <ele>1282</ele>
        <time>2021-04-10T09:25:02Z</time>
      </trkpt>
      <trkpt lat="45.18257" lon="5.90861">
        <ele>1282.2</ele>
        <time>2021-04-10T09:25:03Z</time>
      </trkpt>
      <trkpt lat="45.18256" lon="5.90862">
        <ele>1282.4</ele>
        <time>2021-04-10T09:25:04Z</time>
      </trkpt>
      <trkpt lat="45.18255" lon="5.90862">
        <ele>1282.6</ele>
        <time>2021-04-10T09:25:05Z</time>
      </trkpt>
      <trkpt lat="45.18254" lon="5.90863">
        <ele>1282.6</ele>
        <time>2021-04-10T09:25:06Z</time>
      </trkpt>
      <trkpt lat="45.18254" lon="5.90863">
        <ele>1282.8</ele>
        <time>2021-04-10T09:25:07Z</time>
      </trkpt>
      <trkpt lat="45.18253" lon="5.90864">
        <ele>1283</ele>
        <time>2021-04-10T09:25:08Z</time>
      </trkpt>
      <trkpt lat="45.18252" lon="5.90864">
        <ele>1283.4</ele>
        <time>2021-04-10T09:25:09Z</time>
      </trkpt>
      <trkpt lat="45.18251" lon="5.90864">
        <ele>1283.6</ele>
        <time>2021-04-10T09:25:10Z</time>
      </trkpt>
      <trkpt lat="45.1825" lon="5.90865">
        <ele>1284</ele>
        <time>2021-04-10T09:25:11Z</time>
      </trkpt>
      <trkpt lat="45.18249" lon="5.90865">
        <ele>1284</ele>
        <time>2021-04-10T09:25:12Z</time>
      </trkpt>
      <trkpt lat="45.18248" lon="5.90866">
        <ele>1284</ele>
        <time>2021-04-10T09:25:13Z</time>
      </trkpt>
      <trkpt lat="45.18248" lon="5.90866">
        <ele>1284</ele>
        <time>2021-04-10T09:25:14Z</time>
      </trkpt>
      <trkpt lat="45.18247" lon="5.90867">
        <ele>1284</ele>
        <time>2021-04-10T09:25:15Z</time>
      </trkpt>
      <trkpt lat="45.18246" lon="5.90867">
        <ele>1284.2</ele>
        <time>2021-04-10T09:25:16Z</time>
      </trkpt>
      <trkpt lat="45.18246" lon="5.90867">
        <ele>1284.4</ele>
        <time>2021-04-10T09:25:17Z</time>
      </trkpt>
      <trkpt lat="45.18245" lon="5.90867">
        <ele>1284.4</ele>
        <time>2021-04-10T09:25:18Z</time>
      </trkpt>
      <trkpt lat="45.18245" lon="5.90868">
        <ele>1284.6</ele>
        <time>2021-04-10T09:25:19Z</time>
      </trkpt>
      <trkpt lat="45.18244" lon="5.90868">
        <ele>1284.6</ele>
        <time>2021-04-10T09:25:20Z</time>
      </trkpt>
      <trkpt lat="45.18243" lon="5.90868">
        <ele>1284.6</ele>
        <time>2021-04-10T09:25:21Z</time>
      </trkpt>
      <trkpt lat="45.18243" lon="5.90869">
        <ele>1285</ele>
        <time>2021-04-10T09:25:22Z</time>
      </trkpt>
      <trkpt lat="45.18242" lon="5.90869">
        <ele>1285.2</ele>
        <time>2021-04-10T09:25:23Z</time>
      </trkpt>
      <trkpt lat="45.18242" lon="5.90869">
        <ele>1285.4</ele>
        <time>2021-04-10T09:25:24Z</time>
      </trkpt>
      <trkpt lat="45.18241" lon="5.90869">
        <ele>1285.4</ele>
        <time>2021-04-10T09:25:25Z</time>
      </trkpt>
      <trkpt lat="45.1824" lon="5.9087">
        <ele>1285.8</ele>
        <time>2021-04-10T09:25:26Z</time>
      </trkpt>
      <trkpt lat="45.1824" lon="5.9087">
        <ele>1285.8</ele>
        <time>2021-04-10T09:25:27Z</time>
      </trkpt>
      <trkpt lat="45.18239" lon="5.9087">
        <ele>1286</ele>
        <time>2021-04-10T09:25:28Z</time>
      </trkpt>
      <trkpt lat="45.18239" lon="5.90871">
        <ele>1286.2</ele>
        <time>2021-04-10T09:25:29Z</time>
      </trkpt>
      <trkpt lat="45.18238" lon="5.90871">
        <ele>1286.4</ele>
        <time>2021-04-10T09:25:30Z</time>
      </trkpt>
      <trkpt lat="45.18237" lon="5.90871">
        <ele>1286.4</ele>
        <time>2021-04-10T09:25:31Z</time>
      </trkpt>
      <trkpt lat="45.18237" lon="5.90872">
        <ele>1286.6</ele>
        <time>2021-04-10T09:25:32Z</time>
      </trkpt>
      <trkpt lat="45.18236" lon="5.90872">
        <ele>1286.8</ele>
        <time>2021-04-10T09:25:33Z</time>
      </trkpt>
      <trkpt lat="45.18235" lon="5.90873">
        <ele>1287</ele>
        <time>2021-04-10T09:25:34Z</time>
      </trkpt>
      <trkpt lat="45.18235" lon="5.90873">
        <ele>1287.2</ele>
        <time>2021-04-10T09:25:35Z</time>
      </trkpt>
      <trkpt lat="45.18234" lon="5.90874">
        <ele>1287.4</ele>
        <time>2021-04-10T09:25:36Z</time>
      </trkpt>
      <trkpt lat="45.18234" lon="5.90874">
        <ele>1287.6</ele>
        <time>2021-04-10T09:25:37Z</time>
      </trkpt>
      <trkpt lat="45.18233" lon="5.90874">
        <ele>1287.8</ele>
        <time>2021-04-10T09:25:38Z</time>
      </trkpt>
      <trkpt lat="45.18232" lon="5.90875">
        <ele>1287.8</ele>
        <time>2021-04-10T09:25:39Z</time>
      </trkpt>
      <trkpt lat="45.18232" lon="5.90875">
        <ele>1288</ele>
        <time>2021-04-10T09:25:40Z</time>
      </trkpt>
      <trkpt lat="45.18231" lon="5.90876">
        <ele>1288.2</ele>
        <time>2021-04-10T09:25:41Z</time>
      </trkpt>
      <trkpt lat="45.1823" lon="5.90876">
        <ele>1288.4</ele>
        <time>2021-04-10T09:25:42Z</time>
      </trkpt>
      <trkpt lat="45.1823" lon="5.90877">
        <ele>1288.8</ele>
        <time>2021-04-10T09:25:43Z</time>
      </trkpt>
      <trkpt lat="45.18229" lon="5.90877">
        <ele>1289</ele>
        <time>2021-04-10T09:25:44Z</time>
      </trkpt>
      <trkpt lat="45.18228" lon="5.90878">
        <ele>1289</ele>
        <time>2021-04-10T09:25:45Z</time>
      </trkpt>
      <trkpt lat="45.18227" lon="5.90879">
        <ele>1289</ele>
        <time>2021-04-10T09:25:46Z</time>
      </trkpt>
      <trkpt lat="45.18226" lon="5.9088">
        <ele>1289.2</ele>
        <time>2021-04-10T09:25:47Z</time>
      </trkpt>
      <trkpt lat="45.18226" lon="5.90881">
        <ele>1289.4</ele>
        <time>2021-04-10T09:25:48Z</time>
      </trkpt>
      <trkpt lat="45.18225" lon="5.90882">
        <ele>1289.8</ele>
        <time>2021-04-10T09:25:49Z</time>
      </trkpt>
      <trkpt lat="45.18224" lon="5.90883">
        <ele>1290</ele>
        <time>2021-04-10T09:25:50Z</time>
      </trkpt>
      <trkpt lat="45.18223" lon="5.90884">
        <ele>1290</ele>
        <time>2021-04-10T09:25:51Z</time>
      </trkpt>
      <trkpt lat="45.18222" lon="5.90885">
        <ele>1290</ele>
        <time>2021-04-10T09:25:52Z</time>
      </trkpt>
      <trkpt lat="45.18221" lon="5.90886">
        <ele>1290.2</ele>
        <time>2021-04-10T09:25:53Z</time>
      </trkpt>
      <trkpt lat="45.1822" lon="5.90887">
        <ele>1290.6</ele>
        <time>2021-04-10T09:25:54Z</time>
      </trkpt>
      <trkpt lat="45.18219" lon="5.90888">
        <ele>1290.8</ele>
        <time>2021-04-10T09:25:55Z</time>
      </trkpt>
      <trkpt lat="45.18219" lon="5.90889">
        <ele>1291</ele>
        <time>2021-04-10T09:25:56Z</time>
      </trkpt>
      <trkpt lat="45.18218" lon="5.9089">
        <ele>1291.2</ele>
        <time>2021-04-10T09:25:57Z</time>
      </trkpt>
      <trkpt lat="45.18217" lon="5.90891">
        <ele>1291.4</ele>
        <time>2021-04-10T09:25:58Z</time>
      </trkpt>
      <trkpt lat="45.18216" lon="5.90892">
        <ele>1291.6</ele>
        <time>2021-04-10T09:25:59Z</time>
      </trkpt>
      <trkpt lat="45.18215" lon="5.90893">
        <ele>1291.8</ele>
        <time>2021-04-10T09:26:00Z</time>
      </trkpt>
      <trkpt lat="45.18214" lon="5.90893">
        <ele>1292</ele>
        <time>2021-04-10T09:26:01Z</time>
      </trkpt>
      <trkpt lat="45.18213" lon="5.90894">
        <ele>1292.2</ele>
        <time>2021-04-10T09:26:02Z</time>
      </trkpt>
      <trkpt lat="45.18211" lon="5.90895">
        <ele>1292.2</ele>
        <time>2021-04-10T09:26:03Z</time>
      </trkpt>
      <trkpt lat="45.1821" lon="5.90896">
        <ele>1292.4</ele>
        <time>2021-04-10T09:26:04Z</time>
      </trkpt>
      <trkpt lat="45.18208" lon="5.90897">
        <ele>1292.6</ele>
        <time>2021-04-10T09:26:05Z</time>
      </trkpt>
      <trkpt lat="45.18207" lon="5.90898">
        <ele>1292.8</ele>
        <time>2021-04-10T09:26:06Z</time>
      </trkpt>
      <trkpt lat="45.18205" lon="5.90899">
        <ele>1293</ele>
        <time>2021-04-10T09:26:07Z</time>
      </trkpt>
      <trkpt lat="45.18205" lon="5.909">
        <ele>1293</ele>
        <time>2021-04-10T09:26:08Z</time>
      </trkpt>
      <trkpt lat="45.18204" lon="5.90901">
        <ele>1293.2</ele>
        <time>2021-04-10T09:26:09Z</time>
      </trkpt>
      <trkpt lat="45.18203" lon="5.90902">
        <ele>1293.4</ele>
        <time>2021-04-10T09:26:10Z</time>
      </trkpt>
      <trkpt lat="45.18202" lon="5.90903">
        <ele>1293.6</ele>
        <time>2021-04-10T09:26:11Z</time>
      </trkpt>
      <trkpt lat="45.18202" lon="5.90903">
        <ele>1293.8</ele>
        <time>2021-04-10T09:26:12Z</time>
      </trkpt>
      <trkpt lat="45.18201" lon="5.90904">
        <ele>1293.8</ele>
        <time>2021-04-10T09:26:13Z</time>
      </trkpt>
      <trkpt lat="45.182" lon="5.90905">
        <ele>1293.8</ele>
        <time>2021-04-10T09:26:14Z</time>
      </trkpt>
      <trkpt lat="45.18199" lon="5.90906">
        <ele>1294</ele>
        <time>2021-04-10T09:26:15Z</time>
      </trkpt>
      <trkpt lat="45.18199" lon="5.90907">
        <ele>1294.2</ele>
        <time>2021-04-10T09:26:16Z</time>
      </trkpt>
      <trkpt lat="45.18198" lon="5.90908">
        <ele>1294.4</ele>
        <time>2021-04-10T09:26:17Z</time>
      </trkpt>
      <trkpt lat="45.18196" lon="5.90909">
        <ele>1294.6</ele>
        <time>2021-04-10T09:26:18Z</time>
      </trkpt>
      <trkpt lat="45.18195" lon="5.9091">
        <ele>1294.6</ele>
        <time>2021-04-10T09:26:19Z</time>
      </trkpt>
      <trkpt lat="45.18194" lon="5.90911">
        <ele>1294.8</ele>
        <time>2021-04-10T09:26:20Z</time>
      </trkpt>
      <trkpt lat="45.18193" lon="5.90912">
        <ele>1295</ele>
        <time>2021-04-10T09:26:21Z</time>
      </trkpt>
      <trkpt lat="45.18192" lon="5.90913">
        <ele>1295.4</ele>
        <time>2021-04-10T09:26:22Z</time>
      </trkpt>
      <trkpt lat="45.18191" lon="5.90914">
        <ele>1295.6</ele>
        <time>2021-04-10T09:26:23Z</time>
      </trkpt>
      <trkpt lat="45.1819" lon="5.90915">
        <ele>1295.8</ele>
        <time>2021-04-10T09:26:24Z</time>
      </trkpt>
      <trkpt lat="45.18188" lon="5.90917">
        <ele>1296</ele>
        <time>2021-04-10T09:26:25Z</time>
      </trkpt>
      <trkpt lat="45.18187" lon="5.90918">
        <ele>1296.2</ele>
        <time>2021-04-10T09:26:26Z</time>
      </trkpt>
      <trkpt lat="45.18186" lon="5.90919">
        <ele>1296.4</ele>
        <time>2021-04-10T09:26:27Z</time>
      </trkpt>
      <trkpt lat="45.18184" lon="5.9092">
        <ele>1296.8</ele>
        <time>2021-04-10T09:26:28Z</time>
      </trkpt>
      <trkpt lat="45.18183" lon="5.90922">
        <ele>1297</ele>
        <time>2021-04-10T09:26:29Z</time>
      </trkpt>
      <trkpt lat="45.18181" lon="5.90923">
        <ele>1297.2</ele>
        <time>2021-04-10T09:26:30Z</time>
      </trkpt>
      <trkpt lat="45.1818" lon="5.90924">
        <ele>1297.4</ele>
        <time>2021-04-10T09:26:31Z</time>
      </trkpt>
      <trkpt lat="45.18179" lon="5.90925">
        <ele>1297.6</ele>
        <time>2021-04-10T09:26:32Z</time>
      </trkpt>
      <trkpt lat="45.18178" lon="5.90926">
        <ele>1298</ele>
        <time>2021-04-10T09:26:33Z</time>
      </trkpt>
      <trkpt lat="45.18177" lon="5.90926">
        <ele>1298.2</ele>
        <time>2021-04-10T09:26:34Z</time>
      </trkpt>
      <trkpt lat="45.18176" lon="5.90927">
        <ele>1298.2</ele>
        <time>2021-04-10T09:26:35Z</time>
      </trkpt>
      <trkpt lat="45.18175" lon="5.90928">
        <ele>1298.4</ele>
        <time>2021-04-10T09:26:36Z</time>
      </trkpt>
      <trkpt lat="45.18175" lon="5.90929">
        <ele>1298.6</ele>
        <time>2021-04-10T09:26:37Z</time>
      </trkpt>
      <trkpt lat="45.18174" lon="5.9093">
        <ele>1298.8</ele>
        <time>2021-04-10T09:26:38Z</time>
      </trkpt>
      <trkpt lat="45.18172" lon="5.9093">
        <ele>1299</ele>
        <time>2021-04-10T09:26:39Z</time>
      </trkpt>
      <trkpt lat="45.18171" lon="5.90931">
        <ele>1299.4</ele>
        <time>2021-04-10T09:26:40Z</time>
      </trkpt>
      <trkpt lat="45.1817" lon="5.90931">
        <ele>1299.4</ele>
        <time>2021-04-10T09:26:41Z</time>
      </trkpt>
      <trkpt lat="45.18168" lon="5.90931">
        <ele>1299.8</ele>
        <time>2021-04-10T09:26:42Z</time>
      </trkpt>
      <trkpt lat="45.18167" lon="5.90932">
        <ele>1300</ele>
        <time>2021-04-10T09:26:43Z</time>
      </trkpt>
      <trkpt lat="45.18166" lon="5.90932">
        <ele>1300.2</ele>
        <time>2021-04-10T09:26:44Z</time>
      </trkpt>
      <trkpt lat="45.18165" lon="5.90933">
        <ele>1300.4</ele>
        <time>2021-04-10T09:26:45Z</time>
      </trkpt>
      <trkpt lat="45.18163" lon="5.90933">
        <ele>1300.6</ele>
        <time>2021-04-10T09:26:46Z</time>
      </trkpt>
      <trkpt lat="45.18161" lon="5.90933">
        <ele>1300.8</ele>
        <time>2021-04-10T09:26:47Z</time>
      </trkpt>
      <trkpt lat="45.18159" lon="5.90934">
        <ele>1301</ele>
        <time>2021-04-10T09:26:48Z</time>
      </trkpt>
      <trkpt lat="45.18158" lon="5.90934">
        <ele>1301.4</ele>
        <time>2021-04-10T09:26:49Z</time>
      </trkpt>
      <trkpt lat="45.18156" lon="5.90934">
        <ele>1301.8</ele>
        <time>2021-04-10T09:26:50Z</time>
      </trkpt>
      <trkpt lat="45.18154" lon="5.90934">
        <ele>1302.2</ele>
        <time>2021-04-10T09:26:51Z</time>
      </trkpt>
      <trkpt lat="45.18153" lon="5.90935">
        <ele>1302.4</ele>
        <time>2021-04-10T09:26:52Z</time>
      </trkpt>
      <trkpt lat="45.18152" lon="5.90935">
        <ele>1302.4</ele>
        <time>2021-04-10T09:26:53Z</time>
      </trkpt>
      <trkpt lat="45.18151" lon="5.90936">
        <ele>1302.6</ele>
        <time>2021-04-10T09:26:54Z</time>
      </trkpt>
      <trkpt lat="45.1815" lon="5.90936">
        <ele>1303</ele>
        <time>2021-04-10T09:26:55Z</time>
      </trkpt>
      <trkpt lat="45.18149" lon="5.90936">
        <ele>1303.2</ele>
        <time>2021-04-10T09:26:56Z</time>
      </trkpt>
      <trkpt lat="45.18148" lon="5.90937">
        <ele>1303.6</ele>
        <time>2021-04-10T09:26:57Z</time>
      </trkpt>
      <trkpt lat="45.18147" lon="5.90937">
        <ele>1303.8</ele>
        <time>2021-04-10T09:26:58Z</time>
      </trkpt>
      <trkpt lat="45.18146" lon="5.90937">
        <ele>1304</ele>
        <time>2021-04-10T09:26:59Z</time>
      </trkpt>
      <trkpt lat="45.18145" lon="5.90938">
        <ele>1304.4</ele>
        <time>2021-04-10T09:27:00Z</time>
      </trkpt>
      <trkpt lat="45.18145" lon="5.90939">
        <ele>1304.6</ele>
        <time>2021-04-10T09:27:01Z</time>
      </trkpt>
      <trkpt lat="45.18144" lon="5.9094">
        <ele>1304.6</ele>
        <time>2021-04-10T09:27:02Z</time>
      </trkpt>
      <trkpt lat="45.18144" lon="5.90941">
        <ele>1304.8</ele>
        <time>2021-04-10T09:27:03Z</time>
      </trkpt>
      <trkpt lat="45.18143" lon="5.90941">
        <ele>1305.4</ele>
        <time>2021-04-10T09:27:04Z</time>
      </trkpt>
      <trkpt lat="45.18142" lon="5.90942">
        <ele>1305.6</ele>
        <time>2021-04-10T09:27:05Z</time>
      </trkpt>
      <trkpt lat="45.18142" lon="5.90943">
        <ele>1305.8</ele>
        <time>2021-04-10T09:27:06Z</time>
      </trkpt>
      <trkpt lat="45.18141" lon="5.90944">
        <ele>1306</ele>
        <time>2021-04-10T09:27:07Z</time>
      </trkpt>
      <trkpt lat="45.18141" lon="5.90945">
        <ele>1306.2</ele>
        <time>2021-04-10T09:27:08Z</time>
      </trkpt>
      <trkpt lat="45.1814" lon="5.90946">
        <ele>1306.4</ele>
        <time>2021-04-10T09:27:09Z</time>
      </trkpt>
      <trkpt lat="45.1814" lon="5.90947">
        <ele>1306.8</ele>
        <time>2021-04-10T09:27:10Z</time>
      </trkpt>
      <trkpt lat="45.18139" lon="5.90948">
        <ele>1307</ele>
        <time>2021-04-10T09:27:11Z</time>
      </trkpt>
      <trkpt lat="45.18139" lon="5.90948">
        <ele>1307.2</ele>
        <time>2021-04-10T09:27:12Z</time>
      </trkpt>
      <trkpt lat="45.18138" lon="5.90949">
        <ele>1307.4</ele>
        <time>2021-04-10T09:27:13Z</time>
      </trkpt>
      <trkpt lat="45.18138" lon="5.90949">
        <ele>1307.8</ele>
        <time>2021-04-10T09:27:14Z</time>
      </trkpt>
      <trkpt lat="45.18137" lon="5.9095">
        <ele>1308.2</ele>
        <time>2021-04-10T09:27:15Z</time>
      </trkpt>
      <trkpt lat="45.18137" lon="5.90951">
        <ele>1308.4</ele>
        <time>2021-04-10T09:27:16Z</time>
      </trkpt>
      <trkpt lat="45.18136" lon="5.90951">
        <ele>1308.8</ele>
        <time>2021-04-10T09:27:17Z</time>
      </trkpt>
      <trkpt lat="45.18136" lon="5.90952">
        <ele>1309</ele>
        <time>2021-04-10T09:27:18Z</time>
      </trkpt>
      <trkpt lat="45.18135" lon="5.90952">
        <ele>1309</ele>
        <time>2021-04-10T09:27:19Z</time>
      </trkpt>
      <trkpt lat="45.18135" lon="5.90953">
        <ele>1309.2</ele>
        <time>2021-04-10T09:27:20Z</time>
      </trkpt>
      <trkpt lat="45.18134" lon="5.90953">
        <ele>1309.6</ele>
        <time>2021-04-10T09:27:21Z</time>
      </trkpt>
      <trkpt lat="45.18134" lon="5.90954">
        <ele>1309.8</ele>
        <time>2021-04-10T09:27:22Z</time>
      </trkpt>
      <trkpt lat="45.18134" lon="5.90954">
        <ele>1310</ele>
        <time>2021-04-10T09:27:23Z</time>
      </trkpt>
      <trkpt lat="45.18133" lon="5.90955">
        <ele>1310.4</ele>
        <time>2021-04-10T09:27:24Z</time>
      </trkpt>
      <trkpt lat="45.18133" lon="5.90955">
        <ele>1310.4</ele>
        <time>2021-04-10T09:27:25Z</time>
      </trkpt>
      <trkpt lat="45.18132" lon="5.90956">
        <ele>1310.6</ele>
        <time>2021-04-10T09:27:26Z</time>
      </trkpt>
      <trkpt lat="45.18132" lon="5.90957">
        <ele>1310.6</ele>
        <time>2021-04-10T09:27:27Z</time>
      </trkpt>
      <trkpt lat="45.18132" lon="5.90957">
        <ele>1311</ele>
        <time>2021-04-10T09:27:28Z</time>
      </trkpt>
      <trkpt lat="45.18131" lon="5.90958">
        <ele>1311.4</ele>
        <time>2021-04-10T09:27:29Z</time>
      </trkpt>
      <trkpt lat="45.18131" lon="5.90959">
        <ele>1311.6</ele>
        <time>2021-04-10T09:27:30Z</time>
      </trkpt>
      <trkpt lat="45.18131" lon="5.90959">
        <ele>1311.8</ele>
        <time>2021-04-10T09:27:31Z</time>
      </trkpt>
      <trkpt lat="45.1813" lon="5.9096">
        <ele>1312</ele>
        <time>2021-04-10T09:27:32Z</time>
      </trkpt>
      <trkpt lat="45.1813" lon="5.9096">
        <ele>1312.2</ele>
        <time>2021-04-10T09:27:33Z</time>
      </trkpt>
      <trkpt lat="45.1813" lon="5.90961">
        <ele>1312.4</ele>
        <time>2021-04-10T09:27:34Z</time>
      </trkpt>
      <trkpt lat="45.18129" lon="5.90962">
        <ele>1312.6</ele>
        <time>2021-04-10T09:27:35Z</time>
      </trkpt>
      <trkpt lat="45.18129" lon="5.90962">
        <ele>1313</ele>
        <time>2021-04-10T09:27:36Z</time>
      </trkpt>
      <trkpt lat="45.18129" lon="5.90963">
        <ele>1313.2</ele>
        <time>2021-04-10T09:27:37Z</time>
      </trkpt>
      <trkpt lat="45.18128" lon="5.90964">
        <ele>1313.4</ele>
        <time>2021-04-10T09:27:38Z</time>
      </trkpt>
      <trkpt lat="45.18128" lon="5.90964">
        <ele>1313.6</ele>
        <time>2021-04-10T09:27:39Z</time>
      </trkpt>
      <trkpt lat="45.18128" lon="5.90965">
        <ele>1314</ele>
        <time>2021-04-10T09:27:40Z</time>
      </trkpt>
      <trkpt lat="45.18127" lon="5.90966">
        <ele>1314.2</ele>
        <time>2021-04-10T09:27:41Z</time>
      </trkpt>
      <trkpt lat="45.18127" lon="5.90966">
        <ele>1314.6</ele>
        <time>2021-04-10T09:27:42Z</time>
      </trkpt>
      <trkpt lat="45.18127" lon="5.90967">
        <ele>1315</ele>
        <time>2021-04-10T09:27:43Z</time>
      </trkpt>
      <trkpt lat="45.18126" lon="5.90968">
        <ele>1315.2</ele>
        <time>2021-04-10T09:27:44Z</time>
      </trkpt>
      <trkpt lat="45.18125" lon="5.90968">
        <ele>1315.4</ele>
        <time>2021-04-10T09:27:45Z</time>
      </trkpt>
      <trkpt lat="45.18125" lon="5.90969">
        <ele>1315.8</ele>
        <time>2021-04-10T09:27:46Z</time>
      </trkpt>
      <trkpt lat="45.18124" lon="5.9097">
        <ele>1316</ele>
        <time>2021-04-10T09:27:47Z</time>
      </trkpt>
      <trkpt lat="45.18123" lon="5.9097">
        <ele>1316.2</ele>
        <time>2021-04-10T09:27:48Z</time>
      </trkpt>
      <trkpt lat="45.18122" lon="5.90971">
        <ele>1316.6</ele>
        <time>2021-04-10T09:27:49Z</time>
      </trkpt>
      <trkpt lat="45.18122" lon="5.90972">
        <ele>1316.8</ele>
        <time>2021-04-10T09:27:50Z</time>
      </trkpt>
      <trkpt lat="45.18121" lon="5.90972">
        <ele>1317</ele>
        <time>2021-04-10T09:27:51Z</time>
      </trkpt>
      <trkpt lat="45.1812" lon="5.90973">
        <ele>1317.2</ele>
        <time>2021-04-10T09:27:52Z</time>
      </trkpt>
      <trkpt lat="45.18119" lon="5.90974">
        <ele>1317</ele>
        <time>2021-04-10T09:27:53Z</time>
      </trkpt>
      <trkpt lat="45.18118" lon="5.90974">
        <ele>1316.8</ele>
        <time>2021-04-10T09:27:54Z</time>
      </trkpt>
      <trkpt lat="45.18117" lon="5.90974">
        <ele>1316.8</ele>
        <time>2021-04-10T09:27:55Z</time>
      </trkpt>
      <trkpt lat="45.18116" lon="5.90974">
        <ele>1316.8</ele>
        <time>2021-04-10T09:27:56Z</time>
      </trkpt>
      <trkpt lat="45.18115" lon="5.90974">
        <ele>1316.8</ele>
        <time>2021-04-10T09:27:57Z</time>
      </trkpt>
      <trkpt lat="45.18114" lon="5.90974">
        <ele>1316.8</ele>
        <time>2021-04-10T09:27:58Z</time>
      </trkpt>
      <trkpt lat="45.18113" lon="5.90975">
        <ele>1316.8</ele>
        <time>2021-04-10T09:27:59Z</time>
      </trkpt>
      <trkpt lat="45.18112" lon="5.90975">
        <ele>1316.8</ele>
        <time>2021-04-10T09:28:00Z</time>
      </trkpt>
      <trkpt lat="45.18111" lon="5.90975">
        <ele>1316.6</ele>
        <time>2021-04-10T09:28:01Z</time>
      </trkpt>
      <trkpt lat="45.1811" lon="5.90975">
        <ele>1316.6</ele>
        <time>2021-04-10T09:28:02Z</time>
      </trkpt>
      <trkpt lat="45.18109" lon="5.90975">
        <ele>1316.6</ele>
        <time>2021-04-10T09:28:03Z</time>
      </trkpt>
      <trkpt lat="45.18108" lon="5.90975">
        <ele>1316.2</ele>
        <time>2021-04-10T09:28:04Z</time>
      </trkpt>
      <trkpt lat="45.18106" lon="5.90976">
        <ele>1316</ele>
        <time>2021-04-10T09:28:05Z</time>
      </trkpt>
      <trkpt lat="45.18104" lon="5.90976">
        <ele>1316.2</ele>
        <time>2021-04-10T09:28:06Z</time>
      </trkpt>
      <trkpt lat="45.18102" lon="5.90976">
        <ele>1315.8</ele>
        <time>2021-04-10T09:28:07Z</time>
      </trkpt>
      <trkpt lat="45.181" lon="5.90976">
        <ele>1315.8</ele>
        <time>2021-04-10T09:28:08Z</time>
      </trkpt>
      <trkpt lat="45.18098" lon="5.90976">
        <ele>1315.2</ele>
        <time>2021-04-10T09:28:09Z</time>
      </trkpt>
      <trkpt lat="45.18096" lon="5.90976">
        <ele>1315</ele>
        <time>2021-04-10T09:28:10Z</time>
      </trkpt>
      <trkpt lat="45.18094" lon="5.90975">
        <ele>1314.6</ele>
        <time>2021-04-10T09:28:11Z</time>
      </trkpt>
      <trkpt lat="45.18092" lon="5.90975">
        <ele>1314</ele>
        <time>2021-04-10T09:28:12Z</time>
      </trkpt>
      <trkpt lat="45.1809" lon="5.90975">
        <ele>1314</ele>
        <time>2021-04-10T09:28:13Z</time>
      </trkpt>
      <trkpt lat="45.18088" lon="5.90974">
        <ele>1313.8</ele>
        <time>2021-04-10T09:28:14Z</time>
      </trkpt>
      <trkpt lat="45.18079" lon="5.90973">
        <ele>1314</ele>
        <time>2021-04-10T09:28:15Z</time>
      </trkpt>
      <trkpt lat="45.18077" lon="5.90971">
        <ele>1313.6</ele>
        <time>2021-04-10T09:28:16Z</time>
      </trkpt>
      <trkpt lat="45.18075" lon="5.9097">
        <ele>1313.6</ele>
        <time>2021-04-10T09:28:17Z</time>
      </trkpt>
      <trkpt lat="45.18073" lon="5.90969">
        <ele>1313.2</ele>
        <time>2021-04-10T09:28:18Z</time>
      </trkpt>
      <trkpt lat="45.18071" lon="5.90967">
        <ele>1312.6</ele>
        <time>2021-04-10T09:28:19Z</time>
      </trkpt>
      <trkpt lat="45.18068" lon="5.90966">
        <ele>1312.2</ele>
        <time>2021-04-10T09:28:20Z</time>
      </trkpt>
      <trkpt lat="45.18066" lon="5.90965">
        <ele>1311.8</ele>
        <time>2021-04-10T09:28:21Z</time>
      </trkpt>
      <trkpt lat="45.18064" lon="5.90964">
        <ele>1312</ele>
        <time>2021-04-10T09:28:22Z</time>
      </trkpt>
      <trkpt lat="45.18061" lon="5.90963">
        <ele>1311.8</ele>
        <time>2021-04-10T09:28:23Z</time>
      </trkpt>
      <trkpt lat="45.1806" lon="5.90962">
        <ele>1312</ele>
        <time>2021-04-10T09:28:24Z</time>
      </trkpt>
      <trkpt lat="45.18058" lon="5.90961">
        <ele>1311.6</ele>
        <time>2021-04-10T09:28:25Z</time>
      </trkpt>
      <trkpt lat="45.18056" lon="5.90961">
        <ele>1311.6</ele>
        <time>2021-04-10T09:28:26Z</time>
      </trkpt>
      <trkpt lat="45.18054" lon="5.9096">
        <ele>1311.4</ele>
        <time>2021-04-10T09:28:27Z</time>
      </trkpt>
      <trkpt lat="45.18047" lon="5.90957">
        <ele>1311.2</ele>
        <time>2021-04-10T09:28:28Z</time>
      </trkpt>
      <trkpt lat="45.18044" lon="5.90955">
        <ele>1311</ele>
        <time>2021-04-10T09:28:29Z</time>
      </trkpt>
      <trkpt lat="45.18042" lon="5.90953">
        <ele>1310.6</ele>
        <time>2021-04-10T09:28:30Z</time>
      </trkpt>
      <trkpt lat="45.1804" lon="5.90952">
        <ele>1310</ele>
        <time>2021-04-10T09:28:31Z</time>
      </trkpt>
      <trkpt lat="45.18037" lon="5.90951">
        <ele>1309.6</ele>
        <time>2021-04-10T09:28:32Z</time>
      </trkpt>
      <trkpt lat="45.18035" lon="5.9095">
        <ele>1309.2</ele>
        <time>2021-04-10T09:28:33Z</time>
      </trkpt>
      <trkpt lat="45.18033" lon="5.90949">
        <ele>1308.8</ele>
        <time>2021-04-10T09:28:34Z</time>
      </trkpt>
      <trkpt lat="45.18026" lon="5.90946">
        <ele>1308.8</ele>
        <time>2021-04-10T09:28:35Z</time>
      </trkpt>
      <trkpt lat="45.18022" lon="5.90946">
        <ele>1308.6</ele>
        <time>2021-04-10T09:28:36Z</time>
      </trkpt>
      <trkpt lat="45.18019" lon="5.90946">
        <ele>1308.8</ele>
        <time>2021-04-10T09:28:37Z</time>
      </trkpt>
      <trkpt lat="45.18016" lon="5.90946">
        <ele>1308.6</ele>
        <time>2021-04-10T09:28:38Z</time>
      </trkpt>
      <trkpt lat="45.18012" lon="5.90945">
        <ele>1308.4</ele>
        <time>2021-04-10T09:28:39Z</time>
      </trkpt>
      <trkpt lat="45.1801" lon="5.90944">
        <ele>1308.2</ele>
        <time>2021-04-10T09:28:40Z</time>
      </trkpt>
      <trkpt lat="45.18008" lon="5.90944">
        <ele>1307.8</ele>
        <time>2021-04-10T09:28:41Z</time>
      </trkpt>
      <trkpt lat="45.18005" lon="5.90943">
        <ele>1307.6</ele>
        <time>2021-04-10T09:28:42Z</time>
      </trkpt>
      <trkpt lat="45.18003" lon="5.90943">
        <ele>1307</ele>
        <time>2021-04-10T09:28:43Z</time>
      </trkpt>
      <trkpt lat="45.18" lon="5.90942">
        <ele>1307</ele>
        <time>2021-04-10T09:28:44Z</time>
      </trkpt>
      <trkpt lat="45.17998" lon="5.90942">
        <ele>1306.6</ele>
        <time>2021-04-10T09:28:45Z</time>
      </trkpt>
      <trkpt lat="45.17995" lon="5.90942">
        <ele>1306.8</ele>
        <time>2021-04-10T09:28:46Z</time>
      </trkpt>
      <trkpt lat="45.17991" lon="5.90943">
        <ele>1306.4</ele>
        <time>2021-04-10T09:28:47Z</time>
      </trkpt>
      <trkpt lat="45.17988" lon="5.90943">
        <ele>1306.6</ele>
        <time>2021-04-10T09:28:48Z</time>
      </trkpt>
      <trkpt lat="45.17985" lon="5.90943">
        <ele>1306.2</ele>
        <time>2021-04-10T09:28:49Z</time>
      </trkpt>
      <trkpt lat="45.17982" lon="5.90943">
        <ele>1306</ele>
        <time>2021-04-10T09:28:50Z</time>
      </trkpt>
      <trkpt lat="45.17979" lon="5.90943">
        <ele>1305.4</ele>
        <time>2021-04-10T09:28:51Z</time>
      </trkpt>
      <trkpt lat="45.17976" lon="5.90943">
        <ele>1305</ele>
        <time>2021-04-10T09:28:52Z</time>
      </trkpt>
      <trkpt lat="45.17972" lon="5.90942">
        <ele>1305</ele>
        <time>2021-04-10T09:28:53Z</time>
      </trkpt>
      <trkpt lat="45.17969" lon="5.90942">
        <ele>1304.8</ele>
        <time>2021-04-10T09:28:54Z</time>
      </trkpt>
      <trkpt lat="45.17967" lon="5.90941">
        <ele>1304.8</ele>
        <time>2021-04-10T09:28:55Z</time>
      </trkpt>
      <trkpt lat="45.17965" lon="5.90941">
        <ele>1304.4</ele>
        <time>2021-04-10T09:28:56Z</time>
      </trkpt>
      <trkpt lat="45.17963" lon="5.90941">
        <ele>1304.4</ele>
        <time>2021-04-10T09:28:57Z</time>
      </trkpt>
      <trkpt lat="45.17956" lon="5.9094">
        <ele>1304.2</ele>
        <time>2021-04-10T09:28:58Z</time>
      </trkpt>
      <trkpt lat="45.17951" lon="5.9094">
        <ele>1303.8</ele>
        <time>2021-04-10T09:28:59Z</time>
      </trkpt>
      <trkpt lat="45.17948" lon="5.9094">
        <ele>1303.4</ele>
        <time>2021-04-10T09:29:00Z</time>
      </trkpt>
      <trkpt lat="45.17945" lon="5.9094">
        <ele>1303</ele>
        <time>2021-04-10T09:29:01Z</time>
      </trkpt>
      <trkpt lat="45.17941" lon="5.9094">
        <ele>1303</ele>
        <time>2021-04-10T09:29:02Z</time>
      </trkpt>
      <trkpt lat="45.17937" lon="5.90939">
        <ele>1302.8</ele>
        <time>2021-04-10T09:29:03Z</time>
      </trkpt>
      <trkpt lat="45.17935" lon="5.90939">
        <ele>1303</ele>
        <time>2021-04-10T09:29:04Z</time>
      </trkpt>
      <trkpt lat="45.17934" lon="5.90939">
        <ele>1302.6</ele>
        <time>2021-04-10T09:29:05Z</time>
      </trkpt>
      <trkpt lat="45.17932" lon="5.90938">
        <ele>1302.8</ele>
        <time>2021-04-10T09:29:06Z</time>
      </trkpt>
      <trkpt lat="45.17927" lon="5.90938">
        <ele>1302.4</ele>
        <time>2021-04-10T09:29:07Z</time>
      </trkpt>
      <trkpt lat="45.17926" lon="5.90938">
        <ele>1302.4</ele>
        <time>2021-04-10T09:29:08Z</time>
      </trkpt>
      <trkpt lat="45.17924" lon="5.90938">
        <ele>1302</ele>
        <time>2021-04-10T09:29:09Z</time>
      </trkpt>
      <trkpt lat="45.17922" lon="5.90938">
        <ele>1301.6</ele>
        <time>2021-04-10T09:29:10Z</time>
      </trkpt>
      <trkpt lat="45.17916" lon="5.90938">
        <ele>1301.2</ele>
        <time>2021-04-10T09:29:11Z</time>
      </trkpt>
      <trkpt lat="45.17916" lon="5.90938">
        <ele>1301</ele>
        <time>2021-04-10T09:29:12Z</time>
      </trkpt>
      <trkpt lat="45.17916" lon="5.90938">
        <ele>1300.6</ele>
        <time>2021-04-10T09:29:13Z</time>
      </trkpt>
      <trkpt lat="45.17914" lon="5.90938">
        <ele>1300.2</ele>
        <time>2021-04-10T09:29:14Z</time>
      </trkpt>
      <trkpt lat="45.17912" lon="5.90938">
        <ele>1300.2</ele>
        <time>2021-04-10T09:29:15Z</time>
      </trkpt>
      <trkpt lat="45.1791" lon="5.90938">
        <ele>1300</ele>
        <time>2021-04-10T09:29:16Z</time>
      </trkpt>
      <trkpt lat="45.17908" lon="5.90938">
        <ele>1300.4</ele>
        <time>2021-04-10T09:29:17Z</time>
      </trkpt>
      <trkpt lat="45.17906" lon="5.90938">
        <ele>1299.8</ele>
        <time>2021-04-10T09:29:18Z</time>
      </trkpt>
      <trkpt lat="45.17903" lon="5.90941">
        <ele>1300</ele>
        <time>2021-04-10T09:29:19Z</time>
      </trkpt>
      <trkpt lat="45.17902" lon="5.90943">
        <ele>1299.6</ele>
        <time>2021-04-10T09:29:20Z</time>
      </trkpt>
      <trkpt lat="45.179" lon="5.90944">
        <ele>1299.4</ele>
        <time>2021-04-10T09:29:21Z</time>
      </trkpt>
      <trkpt lat="45.17898" lon="5.90946">
        <ele>1299</ele>
        <time>2021-04-10T09:29:22Z</time>
      </trkpt>
      <trkpt lat="45.17896" lon="5.90948">
        <ele>1298.4</ele>
        <time>2021-04-10T09:29:23Z</time>
      </trkpt>
      <trkpt lat="45.17894" lon="5.9095">
        <ele>1298</ele>
        <time>2021-04-10T09:29:24Z</time>
      </trkpt>
      <trkpt lat="45.17892" lon="5.90951">
        <ele>1297.2</ele>
        <time>2021-04-10T09:29:25Z</time>
      </trkpt>
      <trkpt lat="45.17891" lon="5.90953">
        <ele>1297.2</ele>
        <time>2021-04-10T09:29:26Z</time>
      </trkpt>
      <trkpt lat="45.17889" lon="5.90954">
        <ele>1296.6</ele>
        <time>2021-04-10T09:29:27Z</time>
      </trkpt>
      <trkpt lat="45.17888" lon="5.90955">
        <ele>1296.6</ele>
        <time>2021-04-10T09:29:28Z</time>
      </trkpt>
      <trkpt lat="45.17886" lon="5.90956">
        <ele>1296</ele>
        <time>2021-04-10T09:29:29Z</time>
      </trkpt>
      <trkpt lat="45.17885" lon="5.90957">
        <ele>1296</ele>
        <time>2021-04-10T09:29:30Z</time>
      </trkpt>
      <trkpt lat="45.17878" lon="5.9096">
        <ele>1295.2</ele>
        <time>2021-04-10T09:29:31Z</time>
      </trkpt>
      <trkpt lat="45.17875" lon="5.90962">
        <ele>1295</ele>
        <time>2021-04-10T09:29:32Z</time>
      </trkpt>
      <trkpt lat="45.17874" lon="5.90963">
        <ele>1294.4</ele>
        <time>2021-04-10T09:29:33Z</time>
      </trkpt>
      <trkpt lat="45.17872" lon="5.90964">
        <ele>1294</ele>
        <time>2021-04-10T09:29:34Z</time>
      </trkpt>
      <trkpt lat="45.17869" lon="5.90968">
        <ele>1293.2</ele>
        <time>2021-04-10T09:29:35Z</time>
      </trkpt>
      <trkpt lat="45.17867" lon="5.90971">
        <ele>1292.8</ele>
        <time>2021-04-10T09:29:36Z</time>
      </trkpt>
      <trkpt lat="45.17865" lon="5.90975">
        <ele>1292.2</ele>
        <time>2021-04-10T09:29:37Z</time>
      </trkpt>
      <trkpt lat="45.17864" lon="5.90976">
        <ele>1291.8</ele>
        <time>2021-04-10T09:29:38Z</time>
      </trkpt>
      <trkpt lat="45.17864" lon="5.90978">
        <ele>1291.2</ele>
        <time>2021-04-10T09:29:39Z</time>
      </trkpt>
      <trkpt lat="45.17863" lon="5.9098">
        <ele>1290.4</ele>
        <time>2021-04-10T09:29:40Z</time>
      </trkpt>
      <trkpt lat="45.17862" lon="5.90982">
        <ele>1290.2</ele>
        <time>2021-04-10T09:29:41Z</time>
      </trkpt>
      <trkpt lat="45.1786" lon="5.90989">
        <ele>1289.6</ele>
        <time>2021-04-10T09:29:42Z</time>
      </trkpt>
      <trkpt lat="45.1786" lon="5.90989">
        <ele>1289.6</ele>
        <time>2021-04-10T09:29:43Z</time>
      </trkpt>
      <trkpt lat="45.1786" lon="5.90989">
        <ele>1289.2</ele>
        <time>2021-04-10T09:29:44Z</time>
      </trkpt>
      <trkpt lat="45.17858" lon="5.9099">
        <ele>1289.2</ele>
        <time>2021-04-10T09:29:45Z</time>
      </trkpt>
      <trkpt lat="45.17857" lon="5.9099">
        <ele>1288.8</ele>
        <time>2021-04-10T09:29:46Z</time>
      </trkpt>
      <trkpt lat="45.17855" lon="5.90991">
        <ele>1288.8</ele>
        <time>2021-04-10T09:29:47Z</time>
      </trkpt>
      <trkpt lat="45.17854" lon="5.90992">
        <ele>1288.6</ele>
        <time>2021-04-10T09:29:48Z</time>
      </trkpt>
      <trkpt lat="45.17852" lon="5.90993">
        <ele>1288.6</ele>
        <time>2021-04-10T09:29:49Z</time>
      </trkpt>
      <trkpt lat="45.17851" lon="5.90994">
        <ele>1288.4</ele>
        <time>2021-04-10T09:29:50Z</time>
      </trkpt>
      <trkpt lat="45.1785" lon="5.90995">
        <ele>1288.6</ele>
        <time>2021-04-10T09:29:51Z</time>
      </trkpt>
      <trkpt lat="45.17848" lon="5.90995">
        <ele>1288.8</ele>
        <time>2021-04-10T09:29:52Z</time>
      </trkpt>
      <trkpt lat="45.17847" lon="5.90996">
        <ele>1289</ele>
        <time>2021-04-10T09:29:53Z</time>
      </trkpt>
      <trkpt lat="45.17846" lon="5.90997">
        <ele>1289</ele>
        <time>2021-04-10T09:29:54Z</time>
      </trkpt>
      <trkpt lat="45.17844" lon="5.90997">
        <ele>1289.2</ele>
        <time>2021-04-10T09:29:55Z</time>
      </trkpt>
      <trkpt lat="45.17843" lon="5.90998">
        <ele>1289.2</ele>
        <time>2021-04-10T09:29:56Z</time>
      </trkpt>
      <trkpt lat="45.17841" lon="5.90999">
        <ele>1289.6</ele>
        <time>2021-04-10T09:29:57Z</time>
      </trkpt>
      <trkpt lat="45.1784" lon="5.90999">
        <ele>1289.6</ele>
        <time>2021-04-10T09:29:58Z</time>
      </trkpt>
      <trkpt lat="45.17839" lon="5.90999">
        <ele>1289.8</ele>
        <time>2021-04-10T09:29:59Z</time>
      </trkpt>
      <trkpt lat="45.17837" lon="5.90999">
        <ele>1290.2</ele>
        <time>2021-04-10T09:30:01Z</time>
      </trkpt>
      <trkpt lat="45.17836" lon="5.90999">
        <ele>1290.4</ele>
        <time>2021-04-10T09:30:02Z</time>
      </trkpt>
      <trkpt lat="45.17834" lon="5.90999">
        <ele>1290.6</ele>
        <time>2021-04-10T09:30:03Z</time>
      </trkpt>
      <trkpt lat="45.17833" lon="5.90999">
        <ele>1290.6</ele>
        <time>2021-04-10T09:30:04Z</time>
      </trkpt>
      <trkpt lat="45.17832" lon="5.91">
        <ele>1291</ele>
        <time>2021-04-10T09:30:05Z</time>
      </trkpt>
      <trkpt lat="45.1783" lon="5.90999">
        <ele>1291</ele>
        <time>2021-04-10T09:30:06Z</time>
      </trkpt>
      <trkpt lat="45.17829" lon="5.90998">
        <ele>1291.4</ele>
        <time>2021-04-10T09:30:07Z</time>
      </trkpt>
      <trkpt lat="45.17828" lon="5.90997">
        <ele>1291.4</ele>
        <time>2021-04-10T09:30:08Z</time>
      </trkpt>
      <trkpt lat="45.17827" lon="5.90997">
        <ele>1291.8</ele>
        <time>2021-04-10T09:30:09Z</time>
      </trkpt>
      <trkpt lat="45.17826" lon="5.90996">
        <ele>1292</ele>
        <time>2021-04-10T09:30:10Z</time>
      </trkpt>
      <trkpt lat="45.17825" lon="5.90995">
        <ele>1292.2</ele>
        <time>2021-04-10T09:30:11Z</time>
      </trkpt>
      <trkpt lat="45.17823" lon="5.90994">
        <ele>1292.2</ele>
        <time>2021-04-10T09:30:12Z</time>
      </trkpt>
      <trkpt lat="45.17822" lon="5.90994">
        <ele>1292.6</ele>
        <time>2021-04-10T09:30:13Z</time>
      </trkpt>
      <trkpt lat="45.17821" lon="5.90993">
        <ele>1292.6</ele>
        <time>2021-04-10T09:30:14Z</time>
      </trkpt>
      <trkpt lat="45.17819" lon="5.90992">
        <ele>1293.2</ele>
        <time>2021-04-10T09:30:15Z</time>
      </trkpt>
      <trkpt lat="45.17817" lon="5.90992">
        <ele>1293.2</ele>
        <time>2021-04-10T09:30:16Z</time>
      </trkpt>
      <trkpt lat="45.17815" lon="5.90991">
        <ele>1293.6</ele>
        <time>2021-04-10T09:30:17Z</time>
      </trkpt>
      <trkpt lat="45.17814" lon="5.9099">
        <ele>1293.8</ele>
        <time>2021-04-10T09:30:18Z</time>
      </trkpt>
      <trkpt lat="45.17812" lon="5.9099">
        <ele>1294.2</ele>
        <time>2021-04-10T09:30:19Z</time>
      </trkpt>
      <trkpt lat="45.1781" lon="5.90988">
        <ele>1294.2</ele>
        <time>2021-04-10T09:30:20Z</time>
      </trkpt>
      <trkpt lat="45.17809" lon="5.90987">
        <ele>1294.8</ele>
        <time>2021-04-10T09:30:21Z</time>
      </trkpt>
      <trkpt lat="45.17808" lon="5.90986">
        <ele>1294.8</ele>
        <time>2021-04-10T09:30:22Z</time>
      </trkpt>
      <trkpt lat="45.17806" lon="5.90985">
        <ele>1295.2</ele>
        <time>2021-04-10T09:30:23Z</time>
      </trkpt>
      <trkpt lat="45.17805" lon="5.90984">
        <ele>1295.2</ele>
        <time>2021-04-10T09:30:24Z</time>
      </trkpt>
      <trkpt lat="45.17803" lon="5.90983">
        <ele>1295.6</ele>
        <time>2021-04-10T09:30:25Z</time>
      </trkpt>
      <trkpt lat="45.17802" lon="5.90981">
        <ele>1295.4</ele>
        <time>2021-04-10T09:30:26Z</time>
      </trkpt>
      <trkpt lat="45.17801" lon="5.9098">
        <ele>1295.8</ele>
        <time>2021-04-10T09:30:27Z</time>
      </trkpt>
      <trkpt lat="45.178" lon="5.90978">
        <ele>1296</ele>
        <time>2021-04-10T09:30:28Z</time>
      </trkpt>
      <trkpt lat="45.17798" lon="5.90976">
        <ele>1296.2</ele>
        <time>2021-04-10T09:30:29Z</time>
      </trkpt>
      <trkpt lat="45.17797" lon="5.90975">
        <ele>1296.2</ele>
        <time>2021-04-10T09:30:30Z</time>
      </trkpt>
      <trkpt lat="45.17796" lon="5.90973">
        <ele>1296.2</ele>
        <time>2021-04-10T09:30:31Z</time>
      </trkpt>
      <trkpt lat="45.17795" lon="5.90973">
        <ele>1296.2</ele>
        <time>2021-04-10T09:30:32Z</time>
      </trkpt>
      <trkpt lat="45.17793" lon="5.90972">
        <ele>1296.2</ele>
        <time>2021-04-10T09:30:33Z</time>
      </trkpt>
      <trkpt lat="45.17792" lon="5.90971">
        <ele>1296.2</ele>
        <time>2021-04-10T09:30:34Z</time>
      </trkpt>
      <trkpt lat="45.17791" lon="5.9097">
        <ele>1296.4</ele>
        <time>2021-04-10T09:30:35Z</time>
      </trkpt>
      <trkpt lat="45.17789" lon="5.9097">
        <ele>1296.8</ele>
        <time>2021-04-10T09:30:36Z</time>
      </trkpt>
      <trkpt lat="45.17788" lon="5.90969">
        <ele>1297</ele>
        <time>2021-04-10T09:30:37Z</time>
      </trkpt>
      <trkpt lat="45.17787" lon="5.90968">
        <ele>1297</ele>
        <time>2021-04-10T09:30:38Z</time>
      </trkpt>
      <trkpt lat="45.17785" lon="5.90967">
        <ele>1297.2</ele>
        <time>2021-04-10T09:30:39Z</time>
      </trkpt>
      <trkpt lat="45.17784" lon="5.90967">
        <ele>1297.2</ele>
        <time>2021-04-10T09:30:40Z</time>
      </trkpt>
      <trkpt lat="45.17783" lon="5.90966">
        <ele>1297.6</ele>
        <time>2021-04-10T09:30:41Z</time>
      </trkpt>
      <trkpt lat="45.17781" lon="5.90965">
        <ele>1297.8</ele>
        <time>2021-04-10T09:30:42Z</time>
      </trkpt>
      <trkpt lat="45.17776" lon="5.90964">
        <ele>1298.2</ele>
        <time>2021-04-10T09:30:43Z</time>
      </trkpt>
      <trkpt lat="45.17774" lon="5.90963">
        <ele>1298.4</ele>
        <time>2021-04-10T09:30:44Z</time>
      </trkpt>
      <trkpt lat="45.17772" lon="5.90962">
        <ele>1298.2</ele>
        <time>2021-04-10T09:30:45Z</time>
      </trkpt>
      <trkpt lat="45.17769" lon="5.90961">
        <ele>1298.4</ele>
        <time>2021-04-10T09:30:46Z</time>
      </trkpt>
      <trkpt lat="45.17762" lon="5.90959">
        <ele>1298.6</ele>
        <time>2021-04-10T09:30:47Z</time>
      </trkpt>
      <trkpt lat="45.17759" lon="5.90958">
        <ele>1298.8</ele>
        <time>2021-04-10T09:30:48Z</time>
      </trkpt>
      <trkpt lat="45.17757" lon="5.90957">
        <ele>1299.2</ele>
        <time>2021-04-10T09:30:49Z</time>
      </trkpt>
      <trkpt lat="45.17754" lon="5.90956">
        <ele>1299.6</ele>
        <time>2021-04-10T09:30:50Z</time>
      </trkpt>
      <trkpt lat="45.17754" lon="5.90956">
        <ele>1299.6</ele>
        <time>2021-04-10T09:30:51Z</time>
      </trkpt>
      <trkpt lat="45.17754" lon="5.90956">
        <ele>1299.6</ele>
        <time>2021-04-10T09:30:52Z</time>
      </trkpt>
      <trkpt lat="45.17753" lon="5.90955">
        <ele>1299.6</ele>
        <time>2021-04-10T09:30:53Z</time>
      </trkpt>
      <trkpt lat="45.17752" lon="5.90954">
        <ele>1299.8</ele>
        <time>2021-04-10T09:30:54Z</time>
      </trkpt>
      <trkpt lat="45.1775" lon="5.90953">
        <ele>1300</ele>
        <time>2021-04-10T09:30:55Z</time>
      </trkpt>
      <trkpt lat="45.17749" lon="5.90952">
        <ele>1300.4</ele>
        <time>2021-04-10T09:30:56Z</time>
      </trkpt>
      <trkpt lat="45.17747" lon="5.90951">
        <ele>1300.4</ele>
        <time>2021-04-10T09:30:57Z</time>
      </trkpt>
      <trkpt lat="45.17746" lon="5.9095">
        <ele>1300.4</ele>
        <time>2021-04-10T09:30:58Z</time>
      </trkpt>
      <trkpt lat="45.17745" lon="5.90949">
        <ele>1300.4</ele>
        <time>2021-04-10T09:30:59Z</time>
      </trkpt>
      <trkpt lat="45.17743" lon="5.90948">
        <ele>1300.8</ele>
        <time>2021-04-10T09:31:00Z</time>
      </trkpt>
      <trkpt lat="45.17742" lon="5.90947">
        <ele>1300.8</ele>
        <time>2021-04-10T09:31:01Z</time>
      </trkpt>
      <trkpt lat="45.17741" lon="5.90946">
        <ele>1301.2</ele>
        <time>2021-04-10T09:31:02Z</time>
      </trkpt>
      <trkpt lat="45.1774" lon="5.90945">
        <ele>1301.8</ele>
        <time>2021-04-10T09:31:03Z</time>
      </trkpt>
      <trkpt lat="45.17738" lon="5.90944">
        <ele>1301.8</ele>
        <time>2021-04-10T09:31:04Z</time>
      </trkpt>
      <trkpt lat="45.17737" lon="5.90943">
        <ele>1302</ele>
        <time>2021-04-10T09:31:05Z</time>
      </trkpt>
      <trkpt lat="45.17736" lon="5.90942">
        <ele>1302</ele>
        <time>2021-04-10T09:31:06Z</time>
      </trkpt>
      <trkpt lat="45.17735" lon="5.90942">
        <ele>1302.2</ele>
        <time>2021-04-10T09:31:07Z</time>
      </trkpt>
      <trkpt lat="45.17734" lon="5.90941">
        <ele>1302.6</ele>
        <time>2021-04-10T09:31:08Z</time>
      </trkpt>
      <trkpt lat="45.17733" lon="5.9094">
        <ele>1302.6</ele>
        <time>2021-04-10T09:31:09Z</time>
      </trkpt>
      <trkpt lat="45.17732" lon="5.9094">
        <ele>1302.8</ele>
        <time>2021-04-10T09:31:10Z</time>
      </trkpt>
      <trkpt lat="45.1773" lon="5.90939">
        <ele>1302.8</ele>
        <time>2021-04-10T09:31:11Z</time>
      </trkpt>
      <trkpt lat="45.17729" lon="5.90938">
        <ele>1303</ele>
        <time>2021-04-10T09:31:12Z</time>
      </trkpt>
      <trkpt lat="45.17728" lon="5.90938">
        <ele>1303</ele>
        <time>2021-04-10T09:31:13Z</time>
      </trkpt>
      <trkpt lat="45.17727" lon="5.90937">
        <ele>1303.4</ele>
        <time>2021-04-10T09:31:14Z</time>
      </trkpt>
      <trkpt lat="45.17726" lon="5.90936">
        <ele>1303.6</ele>
        <time>2021-04-10T09:31:15Z</time>
      </trkpt>
      <trkpt lat="45.17724" lon="5.90935">
        <ele>1303.8</ele>
        <time>2021-04-10T09:31:16Z</time>
      </trkpt>
      <trkpt lat="45.17723" lon="5.90935">
        <ele>1304</ele>
        <time>2021-04-10T09:31:17Z</time>
      </trkpt>
      <trkpt lat="45.17722" lon="5.90934">
        <ele>1304</ele>
        <time>2021-04-10T09:31:18Z</time>
      </trkpt>
      <trkpt lat="45.17721" lon="5.90933">
        <ele>1304.2</ele>
        <time>2021-04-10T09:31:19Z</time>
      </trkpt>
      <trkpt lat="45.17719" lon="5.90932">
        <ele>1304.2</ele>
        <time>2021-04-10T09:31:20Z</time>
      </trkpt>
      <trkpt lat="45.17718" lon="5.90931">
        <ele>1304.2</ele>
        <time>2021-04-10T09:31:21Z</time>
      </trkpt>
      <trkpt lat="45.17717" lon="5.9093">
        <ele>1304.2</ele>
        <time>2021-04-10T09:31:22Z</time>
      </trkpt>
      <trkpt lat="45.17716" lon="5.90928">
        <ele>1304.4</ele>
        <time>2021-04-10T09:31:23Z</time>
      </trkpt>
      <trkpt lat="45.17715" lon="5.90927">
        <ele>1304.8</ele>
        <time>2021-04-10T09:31:24Z</time>
      </trkpt>
      <trkpt lat="45.17714" lon="5.90925">
        <ele>1305</ele>
        <time>2021-04-10T09:31:25Z</time>
      </trkpt>
      <trkpt lat="45.17712" lon="5.90924">
        <ele>1305</ele>
        <time>2021-04-10T09:31:26Z</time>
      </trkpt>
      <trkpt lat="45.17711" lon="5.90923">
        <ele>1305.2</ele>
        <time>2021-04-10T09:31:27Z</time>
      </trkpt>
      <trkpt lat="45.1771" lon="5.90921">
        <ele>1305.4</ele>
        <time>2021-04-10T09:31:28Z</time>
      </trkpt>
      <trkpt lat="45.17708" lon="5.90919">
        <ele>1305.4</ele>
        <time>2021-04-10T09:31:29Z</time>
      </trkpt>
      <trkpt lat="45.17706" lon="5.90916">
        <ele>1305.4</ele>
        <time>2021-04-10T09:31:30Z</time>
      </trkpt>
      <trkpt lat="45.17704" lon="5.90914">
        <ele>1305.6</ele>
        <time>2021-04-10T09:31:31Z</time>
      </trkpt>
      <trkpt lat="45.17702" lon="5.90912">
        <ele>1305.8</ele>
        <time>2021-04-10T09:31:32Z</time>
      </trkpt>
      <trkpt lat="45.17701" lon="5.9091">
        <ele>1306</ele>
        <time>2021-04-10T09:31:33Z</time>
      </trkpt>
      <trkpt lat="45.17699" lon="5.90908">
        <ele>1306.2</ele>
        <time>2021-04-10T09:31:34Z</time>
      </trkpt>
      <trkpt lat="45.17696" lon="5.90902">
        <ele>1306.2</ele>
        <time>2021-04-10T09:31:35Z</time>
      </trkpt>
      <trkpt lat="45.17696" lon="5.90902">
        <ele>1306.4</ele>
        <time>2021-04-10T09:31:36Z</time>
      </trkpt>
      <trkpt lat="45.17696" lon="5.90902">
        <ele>1306.4</ele>
        <time>2021-04-10T09:31:37Z</time>
      </trkpt>
      <trkpt lat="45.17696" lon="5.90902">
        <ele>1306.6</ele>
        <time>2021-04-10T09:31:38Z</time>
      </trkpt>
      <trkpt lat="45.17695" lon="5.90901">
        <ele>1306.6</ele>
        <time>2021-04-10T09:31:39Z</time>
      </trkpt>
      <trkpt lat="45.17694" lon="5.90899">
        <ele>1307</ele>
        <time>2021-04-10T09:31:40Z</time>
      </trkpt>
      <trkpt lat="45.17694" lon="5.90898">
        <ele>1307.4</ele>
        <time>2021-04-10T09:31:41Z</time>
      </trkpt>
      <trkpt lat="45.17693" lon="5.90897">
        <ele>1307.6</ele>
        <time>2021-04-10T09:31:42Z</time>
      </trkpt>
      <trkpt lat="45.17692" lon="5.90896">
        <ele>1307.6</ele>
        <time>2021-04-10T09:31:43Z</time>
      </trkpt>
      <trkpt lat="45.17692" lon="5.90894">
        <ele>1307.8</ele>
        <time>2021-04-10T09:31:44Z</time>
      </trkpt>
      <trkpt lat="45.17691" lon="5.90893">
        <ele>1307.8</ele>
        <time>2021-04-10T09:31:45Z</time>
      </trkpt>
      <trkpt lat="45.1769" lon="5.90892">
        <ele>1308</ele>
        <time>2021-04-10T09:31:46Z</time>
      </trkpt>
      <trkpt lat="45.1769" lon="5.9089">
        <ele>1308</ele>
        <time>2021-04-10T09:31:47Z</time>
      </trkpt>
      <trkpt lat="45.17689" lon="5.9089">
        <ele>1308</ele>
        <time>2021-04-10T09:31:48Z</time>
      </trkpt>
      <trkpt lat="45.17689" lon="5.90889">
        <ele>1308.2</ele>
        <time>2021-04-10T09:31:49Z</time>
      </trkpt>
      <trkpt lat="45.17688" lon="5.90888">
        <ele>1308.4</ele>
        <time>2021-04-10T09:31:50Z</time>
      </trkpt>
      <trkpt lat="45.17688" lon="5.90887">
        <ele>1308.4</ele>
        <time>2021-04-10T09:31:51Z</time>
      </trkpt>
      <trkpt lat="45.17687" lon="5.90887">
        <ele>1308.8</ele>
        <time>2021-04-10T09:31:52Z</time>
      </trkpt>
      <trkpt lat="45.17687" lon="5.90886">
        <ele>1309</ele>
        <time>2021-04-10T09:31:53Z</time>
      </trkpt>
      <trkpt lat="45.17686" lon="5.90885">
        <ele>1309.4</ele>
        <time>2021-04-10T09:31:54Z</time>
      </trkpt>
      <trkpt lat="45.17685" lon="5.90885">
        <ele>1309.6</ele>
        <time>2021-04-10T09:31:55Z</time>
      </trkpt>
      <trkpt lat="45.17685" lon="5.90884">
        <ele>1310</ele>
        <time>2021-04-10T09:31:56Z</time>
      </trkpt>
      <trkpt lat="45.17684" lon="5.90883">
        <ele>1310.2</ele>
        <time>2021-04-10T09:31:57Z</time>
      </trkpt>
      <trkpt lat="45.17684" lon="5.90882">
        <ele>1310.2</ele>
        <time>2021-04-10T09:31:58Z</time>
      </trkpt>
      <trkpt lat="45.17683" lon="5.90882">
        <ele>1310.2</ele>
        <time>2021-04-10T09:31:59Z</time>
      </trkpt>
      <trkpt lat="45.17683" lon="5.90881">
        <ele>1310.2</ele>
        <time>2021-04-10T09:32:00Z</time>
      </trkpt>
      <trkpt lat="45.17682" lon="5.90879">
        <ele>1310.4</ele>
        <time>2021-04-10T09:32:01Z</time>
      </trkpt>
      <trkpt lat="45.1768" lon="5.90878">
        <ele>1310.6</ele>
        <time>2021-04-10T09:32:02Z</time>
      </trkpt>
      <trkpt lat="45.17679" lon="5.90876">
        <ele>1310.6</ele>
        <time>2021-04-10T09:32:03Z</time>
      </trkpt>
      <trkpt lat="45.17678" lon="5.90875">
        <ele>1310.8</ele>
        <time>2021-04-10T09:32:04Z</time>
      </trkpt>
      <trkpt lat="45.17677" lon="5.90873">
        <ele>1311.2</ele>
        <time>2021-04-10T09:32:05Z</time>
      </trkpt>
      <trkpt lat="45.17676" lon="5.90872">
        <ele>1311.4</ele>
        <time>2021-04-10T09:32:06Z</time>
      </trkpt>
      <trkpt lat="45.17673" lon="5.90871">
        <ele>1311.4</ele>
        <time>2021-04-10T09:32:07Z</time>
      </trkpt>
      <trkpt lat="45.1767" lon="5.90869">
        <ele>1311.2</ele>
        <time>2021-04-10T09:32:08Z</time>
      </trkpt>
      <trkpt lat="45.17667" lon="5.90868">
        <ele>1311.4</ele>
        <time>2021-04-10T09:32:09Z</time>
      </trkpt>
      <trkpt lat="45.17664" lon="5.90867">
        <ele>1311.6</ele>
        <time>2021-04-10T09:32:10Z</time>
      </trkpt>
      <trkpt lat="45.17661" lon="5.90866">
        <ele>1311.8</ele>
        <time>2021-04-10T09:32:11Z</time>
      </trkpt>
      <trkpt lat="45.17658" lon="5.90865">
        <ele>1312</ele>
        <time>2021-04-10T09:32:12Z</time>
      </trkpt>
      <trkpt lat="45.17655" lon="5.90864">
        <ele>1312</ele>
        <time>2021-04-10T09:32:13Z</time>
      </trkpt>
      <trkpt lat="45.17647" lon="5.90863">
        <ele>1312.4</ele>
        <time>2021-04-10T09:32:14Z</time>
      </trkpt>
      <trkpt lat="45.17645" lon="5.90862">
        <ele>1312.4</ele>
        <time>2021-04-10T09:32:15Z</time>
      </trkpt>
      <trkpt lat="45.17644" lon="5.90862">
        <ele>1312.4</ele>
        <time>2021-04-10T09:32:16Z</time>
      </trkpt>
      <trkpt lat="45.17638" lon="5.90861">
        <ele>1312.4</ele>
        <time>2021-04-10T09:32:17Z</time>
      </trkpt>
      <trkpt lat="45.17638" lon="5.90861">
        <ele>1312.6</ele>
        <time>2021-04-10T09:32:18Z</time>
      </trkpt>
      <trkpt lat="45.17638" lon="5.90861">
        <ele>1313</ele>
        <time>2021-04-10T09:32:19Z</time>
      </trkpt>
      <trkpt lat="45.17636" lon="5.9086">
        <ele>1313.2</ele>
        <time>2021-04-10T09:32:20Z</time>
      </trkpt>
      <trkpt lat="45.17634" lon="5.9086">
        <ele>1313.6</ele>
        <time>2021-04-10T09:32:21Z</time>
      </trkpt>
      <trkpt lat="45.17632" lon="5.9086">
        <ele>1313.6</ele>
        <time>2021-04-10T09:32:22Z</time>
      </trkpt>
      <trkpt lat="45.1763" lon="5.90859">
        <ele>1313.6</ele>
        <time>2021-04-10T09:32:23Z</time>
      </trkpt>
      <trkpt lat="45.17628" lon="5.90859">
        <ele>1313.6</ele>
        <time>2021-04-10T09:32:24Z</time>
      </trkpt>
      <trkpt lat="45.17627" lon="5.90859">
        <ele>1313.8</ele>
        <time>2021-04-10T09:32:25Z</time>
      </trkpt>
      <trkpt lat="45.17627" lon="5.90859">
        <ele>1314</ele>
        <time>2021-04-10T09:32:26Z</time>
      </trkpt>
      <trkpt lat="45.17626" lon="5.90859">
        <ele>1314.2</ele>
        <time>2021-04-10T09:32:27Z</time>
      </trkpt>
      <trkpt lat="45.17626" lon="5.90859">
        <ele>1314.4</ele>
        <time>2021-04-10T09:32:28Z</time>
      </trkpt>
      <trkpt lat="45.17625" lon="5.90859">
        <ele>1314.8</ele>
        <time>2021-04-10T09:32:29Z</time>
      </trkpt>
      <trkpt lat="45.17625" lon="5.90859">
        <ele>1314.6</ele>
        <time>2021-04-10T09:32:30Z</time>
      </trkpt>
      <trkpt lat="45.17625" lon="5.90859">
        <ele>1314.8</ele>
        <time>2021-04-10T09:32:31Z</time>
      </trkpt>
      <trkpt lat="45.17624" lon="5.90859">
        <ele>1315</ele>
        <time>2021-04-10T09:32:32Z</time>
      </trkpt>
      <trkpt lat="45.17624" lon="5.90859">
        <ele>1315.4</ele>
        <time>2021-04-10T09:32:33Z</time>
      </trkpt>
      <trkpt lat="45.17623" lon="5.90859">
        <ele>1315.4</ele>
        <time>2021-04-10T09:32:34Z</time>
      </trkpt>
      <trkpt lat="45.17623" lon="5.90859">
        <ele>1315.6</ele>
        <time>2021-04-10T09:32:35Z</time>
      </trkpt>
      <trkpt lat="45.17622" lon="5.90859">
        <ele>1315.8</ele>
        <time>2021-04-10T09:32:36Z</time>
      </trkpt>
      <trkpt lat="45.17622" lon="5.90859">
        <ele>1316</ele>
        <time>2021-04-10T09:32:37Z</time>
      </trkpt>
      <trkpt lat="45.17621" lon="5.90859">
        <ele>1316</ele>
        <time>2021-04-10T09:32:38Z</time>
      </trkpt>
      <trkpt lat="45.17621" lon="5.90859">
        <ele>1316</ele>
        <time>2021-04-10T09:32:39Z</time>
      </trkpt>
      <trkpt lat="45.1762" lon="5.90859">
        <ele>1316.4</ele>
        <time>2021-04-10T09:32:40Z</time>
      </trkpt>
      <trkpt lat="45.1762" lon="5.90859">
        <ele>1316.4</ele>
        <time>2021-04-10T09:32:41Z</time>
      </trkpt>
      <trkpt lat="45.17619" lon="5.90859">
        <ele>1316.8</ele>
        <time>2021-04-10T09:32:42Z</time>
      </trkpt>
      <trkpt lat="45.17619" lon="5.90859">
        <ele>1317</ele>
        <time>2021-04-10T09:32:43Z</time>
      </trkpt>
      <trkpt lat="45.17618" lon="5.90859">
        <ele>1317.2</ele>
        <time>2021-04-10T09:32:44Z</time>
      </trkpt>
      <trkpt lat="45.17618" lon="5.90859">
        <ele>1317.4</ele>
        <time>2021-04-10T09:32:45Z</time>
      </trkpt>
      <trkpt lat="45.17617" lon="5.90859">
        <ele>1317.6</ele>
        <time>2021-04-10T09:32:46Z</time>
      </trkpt>
      <trkpt lat="45.17616" lon="5.90857">
        <ele>1318</ele>
        <time>2021-04-10T09:32:47Z</time>
      </trkpt>
      <trkpt lat="45.17615" lon="5.90856">
        <ele>1318.2</ele>
        <time>2021-04-10T09:32:48Z</time>
      </trkpt>
      <trkpt lat="45.17614" lon="5.90854">
        <ele>1318.4</ele>
        <time>2021-04-10T09:32:49Z</time>
      </trkpt>
      <trkpt lat="45.17613" lon="5.90852">
        <ele>1318.4</ele>
        <time>2021-04-10T09:32:50Z</time>
      </trkpt>
      <trkpt lat="45.17612" lon="5.9085">
        <ele>1318.6</ele>
        <time>2021-04-10T09:32:51Z</time>
      </trkpt>
      <trkpt lat="45.1761" lon="5.90848">
        <ele>1318.6</ele>
        <time>2021-04-10T09:32:52Z</time>
      </trkpt>
      <trkpt lat="45.17609" lon="5.90846">
        <ele>1318.8</ele>
        <time>2021-04-10T09:32:53Z</time>
      </trkpt>
      <trkpt lat="45.17608" lon="5.90844">
        <ele>1319</ele>
        <time>2021-04-10T09:32:54Z</time>
      </trkpt>
      <trkpt lat="45.17607" lon="5.90842">
        <ele>1319.2</ele>
        <time>2021-04-10T09:32:55Z</time>
      </trkpt>
      <trkpt lat="45.17606" lon="5.90839">
        <ele>1319.4</ele>
        <time>2021-04-10T09:32:56Z</time>
      </trkpt>
      <trkpt lat="45.17605" lon="5.90837">
        <ele>1319.6</ele>
        <time>2021-04-10T09:32:57Z</time>
      </trkpt>
      <trkpt lat="45.17598" lon="5.90825">
        <ele>1319.8</ele>
        <time>2021-04-10T09:32:58Z</time>
      </trkpt>
      <trkpt lat="45.17598" lon="5.90825">
        <ele>1320</ele>
        <time>2021-04-10T09:32:59Z</time>
      </trkpt>
      <trkpt lat="45.17598" lon="5.90825">
        <ele>1320</ele>
        <time>2021-04-10T09:33:00Z</time>
      </trkpt>
      <trkpt lat="45.17598" lon="5.90825">
        <ele>1320.2</ele>
        <time>2021-04-10T09:33:01Z</time>
      </trkpt>
      <trkpt lat="45.17597" lon="5.90823">
        <ele>1320.4</ele>
        <time>2021-04-10T09:33:02Z</time>
      </trkpt>
      <trkpt lat="45.17596" lon="5.9082">
        <ele>1320.8</ele>
        <time>2021-04-10T09:33:03Z</time>
      </trkpt>
      <trkpt lat="45.17595" lon="5.90818">
        <ele>1321</ele>
        <time>2021-04-10T09:33:04Z</time>
      </trkpt>
      <trkpt lat="45.17594" lon="5.90816">
        <ele>1321.2</ele>
        <time>2021-04-10T09:33:05Z</time>
      </trkpt>
      <trkpt lat="45.17593" lon="5.90813">
        <ele>1321.4</ele>
        <time>2021-04-10T09:33:06Z</time>
      </trkpt>
      <trkpt lat="45.17593" lon="5.90811">
        <ele>1321.6</ele>
        <time>2021-04-10T09:33:07Z</time>
      </trkpt>
      <trkpt lat="45.17592" lon="5.9081">
        <ele>1321.8</ele>
        <time>2021-04-10T09:33:08Z</time>
      </trkpt>
      <trkpt lat="45.17591" lon="5.90808">
        <ele>1321.8</ele>
        <time>2021-04-10T09:33:09Z</time>
      </trkpt>
      <trkpt lat="45.17591" lon="5.90806">
        <ele>1322</ele>
        <time>2021-04-10T09:33:10Z</time>
      </trkpt>
      <trkpt lat="45.1759" lon="5.90804">
        <ele>1322</ele>
        <time>2021-04-10T09:33:11Z</time>
      </trkpt>
      <trkpt lat="45.1759" lon="5.90802">
        <ele>1322.2</ele>
        <time>2021-04-10T09:33:12Z</time>
      </trkpt>
      <trkpt lat="45.17589" lon="5.908">
        <ele>1322.4</ele>
        <time>2021-04-10T09:33:13Z</time>
      </trkpt>
      <trkpt lat="45.17589" lon="5.90798">
        <ele>1322.8</ele>
        <time>2021-04-10T09:33:14Z</time>
      </trkpt>
      <trkpt lat="45.17588" lon="5.90795">
        <ele>1323.2</ele>
        <time>2021-04-10T09:33:15Z</time>
      </trkpt>
      <trkpt lat="45.17587" lon="5.90793">
        <ele>1323.4</ele>
        <time>2021-04-10T09:33:16Z</time>
      </trkpt>
      <trkpt lat="45.17587" lon="5.9079">
        <ele>1323.6</ele>
        <time>2021-04-10T09:33:17Z</time>
      </trkpt>
      <trkpt lat="45.17586" lon="5.90788">
        <ele>1323.6</ele>
        <time>2021-04-10T09:33:18Z</time>
      </trkpt>
      <trkpt lat="45.17586" lon="5.90785">
        <ele>1323.8</ele>
        <time>2021-04-10T09:33:19Z</time>
      </trkpt>
      <trkpt lat="45.17586" lon="5.90783">
        <ele>1323.8</ele>
        <time>2021-04-10T09:33:20Z</time>
      </trkpt>
      <trkpt lat="45.17586" lon="5.9078">
        <ele>1324</ele>
        <time>2021-04-10T09:33:21Z</time>
      </trkpt>
      <trkpt lat="45.17586" lon="5.90778">
        <ele>1324.4</ele>
        <time>2021-04-10T09:33:22Z</time>
      </trkpt>
      <trkpt lat="45.17586" lon="5.90775">
        <ele>1324.6</ele>
        <time>2021-04-10T09:33:23Z</time>
      </trkpt>
      <trkpt lat="45.17586" lon="5.90772">
        <ele>1324.8</ele>
        <time>2021-04-10T09:33:24Z</time>
      </trkpt>
      <trkpt lat="45.17584" lon="5.90771">
        <ele>1325</ele>
        <time>2021-04-10T09:33:25Z</time>
      </trkpt>
      <trkpt lat="45.17583" lon="5.9077">
        <ele>1325</ele>
        <time>2021-04-10T09:33:26Z</time>
      </trkpt>
      <trkpt lat="45.17582" lon="5.90769">
        <ele>1325</ele>
        <time>2021-04-10T09:33:27Z</time>
      </trkpt>
      <trkpt lat="45.17581" lon="5.90768">
        <ele>1325.2</ele>
        <time>2021-04-10T09:33:28Z</time>
      </trkpt>
      <trkpt lat="45.1758" lon="5.90768">
        <ele>1325.4</ele>
        <time>2021-04-10T09:33:29Z</time>
      </trkpt>
      <trkpt lat="45.17579" lon="5.90767">
        <ele>1325.6</ele>
        <time>2021-04-10T09:33:30Z</time>
      </trkpt>
      <trkpt lat="45.17578" lon="5.90766">
        <ele>1325.8</ele>
        <time>2021-04-10T09:33:31Z</time>
      </trkpt>
      <trkpt lat="45.17577" lon="5.90765">
        <ele>1326</ele>
        <time>2021-04-10T09:33:32Z</time>
      </trkpt>
      <trkpt lat="45.17577" lon="5.90764">
        <ele>1325.8</ele>
        <time>2021-04-10T09:33:33Z</time>
      </trkpt>
      <trkpt lat="45.17576" lon="5.90763">
        <ele>1326</ele>
        <time>2021-04-10T09:33:34Z</time>
      </trkpt>
      <trkpt lat="45.17575" lon="5.90763">
        <ele>1326.2</ele>
        <time>2021-04-10T09:33:35Z</time>
      </trkpt>
      <trkpt lat="45.17574" lon="5.90762">
        <ele>1326.4</ele>
        <time>2021-04-10T09:33:36Z</time>
      </trkpt>
      <trkpt lat="45.17573" lon="5.90761">
        <ele>1326.6</ele>
        <time>2021-04-10T09:33:37Z</time>
      </trkpt>
      <trkpt lat="45.17572" lon="5.9076">
        <ele>1326.8</ele>
        <time>2021-04-10T09:33:38Z</time>
      </trkpt>
      <trkpt lat="45.17571" lon="5.90759">
        <ele>1327</ele>
        <time>2021-04-10T09:33:39Z</time>
      </trkpt>
      <trkpt lat="45.1757" lon="5.90758">
        <ele>1327</ele>
        <time>2021-04-10T09:33:40Z</time>
      </trkpt>
      <trkpt lat="45.17569" lon="5.90758">
        <ele>1327.2</ele>
        <time>2021-04-10T09:33:41Z</time>
      </trkpt>
      <trkpt lat="45.17568" lon="5.90757">
        <ele>1327.4</ele>
        <time>2021-04-10T09:33:42Z</time>
      </trkpt>
      <trkpt lat="45.17567" lon="5.90756">
        <ele>1327.6</ele>
        <time>2021-04-10T09:33:43Z</time>
      </trkpt>
      <trkpt lat="45.17567" lon="5.90756">
        <ele>1327.8</ele>
        <time>2021-04-10T09:33:44Z</time>
      </trkpt>
      <trkpt lat="45.17567" lon="5.90756">
        <ele>1328</ele>
        <time>2021-04-10T09:33:45Z</time>
      </trkpt>
      <trkpt lat="45.17566" lon="5.90755">
        <ele>1328.2</ele>
        <time>2021-04-10T09:33:46Z</time>
      </trkpt>
      <trkpt lat="45.17564" lon="5.90754">
        <ele>1328.2</ele>
        <time>2021-04-10T09:33:47Z</time>
      </trkpt>
      <trkpt lat="45.17562" lon="5.90753">
        <ele>1328.2</ele>
        <time>2021-04-10T09:33:48Z</time>
      </trkpt>
      <trkpt lat="45.17561" lon="5.90753">
        <ele>1328.2</ele>
        <time>2021-04-10T09:33:49Z</time>
      </trkpt>
      <trkpt lat="45.17559" lon="5.90752">
        <ele>1328.4</ele>
        <time>2021-04-10T09:33:50Z</time>
      </trkpt>
      <trkpt lat="45.17558" lon="5.90751">
        <ele>1328.6</ele>
        <time>2021-04-10T09:33:51Z</time>
      </trkpt>
      <trkpt lat="45.17557" lon="5.9075">
        <ele>1329</ele>
        <time>2021-04-10T09:33:52Z</time>
      </trkpt>
      <trkpt lat="45.17556" lon="5.90748">
        <ele>1329.4</ele>
        <time>2021-04-10T09:33:53Z</time>
      </trkpt>
      <trkpt lat="45.17555" lon="5.90747">
        <ele>1329.6</ele>
        <time>2021-04-10T09:33:54Z</time>
      </trkpt>
      <trkpt lat="45.17554" lon="5.90746">
        <ele>1329.6</ele>
        <time>2021-04-10T09:33:55Z</time>
      </trkpt>
      <trkpt lat="45.17553" lon="5.90744">
        <ele>1329.6</ele>
        <time>2021-04-10T09:33:56Z</time>
      </trkpt>
      <trkpt lat="45.17552" lon="5.90743">
        <ele>1329.6</ele>
        <time>2021-04-10T09:33:57Z</time>
      </trkpt>
      <trkpt lat="45.17551" lon="5.90741">
        <ele>1329.4</ele>
        <time>2021-04-10T09:33:58Z</time>
      </trkpt>
      <trkpt lat="45.1755" lon="5.90741">
        <ele>1329.8</ele>
        <time>2021-04-10T09:33:59Z</time>
      </trkpt>
      <trkpt lat="45.17549" lon="5.9074">
        <ele>1330</ele>
        <time>2021-04-10T09:34:00Z</time>
      </trkpt>
      <trkpt lat="45.17548" lon="5.9074">
        <ele>1330.2</ele>
        <time>2021-04-10T09:34:01Z</time>
      </trkpt>
      <trkpt lat="45.17547" lon="5.90739">
        <ele>1330.4</ele>
        <time>2021-04-10T09:34:02Z</time>
      </trkpt>
      <trkpt lat="45.17547" lon="5.90738">
        <ele>1330.4</ele>
        <time>2021-04-10T09:34:03Z</time>
      </trkpt>
      <trkpt lat="45.17546" lon="5.90738">
        <ele>1330.4</ele>
        <time>2021-04-10T09:34:04Z</time>
      </trkpt>
      <trkpt lat="45.17545" lon="5.90737">
        <ele>1330.6</ele>
        <time>2021-04-10T09:34:05Z</time>
      </trkpt>
      <trkpt lat="45.17544" lon="5.90737">
        <ele>1330.8</ele>
        <time>2021-04-10T09:34:06Z</time>
      </trkpt>
      <trkpt lat="45.17543" lon="5.90736">
        <ele>1331</ele>
        <time>2021-04-10T09:34:07Z</time>
      </trkpt>
      <trkpt lat="45.17542" lon="5.90735">
        <ele>1331.4</ele>
        <time>2021-04-10T09:34:08Z</time>
      </trkpt>
      <trkpt lat="45.17541" lon="5.90735">
        <ele>1331.6</ele>
        <time>2021-04-10T09:34:09Z</time>
      </trkpt>
      <trkpt lat="45.1754" lon="5.90734">
        <ele>1331.8</ele>
        <time>2021-04-10T09:34:10Z</time>
      </trkpt>
      <trkpt lat="45.17538" lon="5.90734">
        <ele>1331.8</ele>
        <time>2021-04-10T09:34:11Z</time>
      </trkpt>
      <trkpt lat="45.17537" lon="5.90734">
        <ele>1332</ele>
        <time>2021-04-10T09:34:12Z</time>
      </trkpt>
      <trkpt lat="45.17535" lon="5.90733">
        <ele>1332.2</ele>
        <time>2021-04-10T09:34:13Z</time>
      </trkpt>
      <trkpt lat="45.17534" lon="5.90733">
        <ele>1332.4</ele>
        <time>2021-04-10T09:34:14Z</time>
      </trkpt>
      <trkpt lat="45.17533" lon="5.90732">
        <ele>1332.6</ele>
        <time>2021-04-10T09:34:15Z</time>
      </trkpt>
      <trkpt lat="45.17531" lon="5.90731">
        <ele>1332.8</ele>
        <time>2021-04-10T09:34:16Z</time>
      </trkpt>
      <trkpt lat="45.1753" lon="5.9073">
        <ele>1333</ele>
        <time>2021-04-10T09:34:17Z</time>
      </trkpt>
      <trkpt lat="45.17528" lon="5.90729">
        <ele>1333.2</ele>
        <time>2021-04-10T09:34:18Z</time>
      </trkpt>
      <trkpt lat="45.17527" lon="5.90728">
        <ele>1333.2</ele>
        <time>2021-04-10T09:34:19Z</time>
      </trkpt>
      <trkpt lat="45.17525" lon="5.90727">
        <ele>1333.4</ele>
        <time>2021-04-10T09:34:20Z</time>
      </trkpt>
      <trkpt lat="45.17524" lon="5.90727">
        <ele>1333.6</ele>
        <time>2021-04-10T09:34:21Z</time>
      </trkpt>
      <trkpt lat="45.17522" lon="5.90726">
        <ele>1333.8</ele>
        <time>2021-04-10T09:34:22Z</time>
      </trkpt>
      <trkpt lat="45.17521" lon="5.90725">
        <ele>1334.2</ele>
        <time>2021-04-10T09:34:23Z</time>
      </trkpt>
      <trkpt lat="45.1752" lon="5.90724">
        <ele>1334.4</ele>
        <time>2021-04-10T09:34:24Z</time>
      </trkpt>
      <trkpt lat="45.17518" lon="5.90723">
        <ele>1334.6</ele>
        <time>2021-04-10T09:34:25Z</time>
      </trkpt>
      <trkpt lat="45.17517" lon="5.90722">
        <ele>1334.6</ele>
        <time>2021-04-10T09:34:26Z</time>
      </trkpt>
      <trkpt lat="45.17516" lon="5.90721">
        <ele>1334.6</ele>
        <time>2021-04-10T09:34:27Z</time>
      </trkpt>
      <trkpt lat="45.17514" lon="5.9072">
        <ele>1334.8</ele>
        <time>2021-04-10T09:34:28Z</time>
      </trkpt>
      <trkpt lat="45.17513" lon="5.9072">
        <ele>1334.8</ele>
        <time>2021-04-10T09:34:29Z</time>
      </trkpt>
      <trkpt lat="45.17511" lon="5.90719">
        <ele>1335.2</ele>
        <time>2021-04-10T09:34:30Z</time>
      </trkpt>
      <trkpt lat="45.17509" lon="5.90718">
        <ele>1335.4</ele>
        <time>2021-04-10T09:34:31Z</time>
      </trkpt>
      <trkpt lat="45.17508" lon="5.90717">
        <ele>1335.6</ele>
        <time>2021-04-10T09:34:32Z</time>
      </trkpt>
      <trkpt lat="45.17506" lon="5.90717">
        <ele>1335.6</ele>
        <time>2021-04-10T09:34:33Z</time>
      </trkpt>
      <trkpt lat="45.17504" lon="5.90716">
        <ele>1335.4</ele>
        <time>2021-04-10T09:34:34Z</time>
      </trkpt>
      <trkpt lat="45.17503" lon="5.90716">
        <ele>1335.6</ele>
        <time>2021-04-10T09:34:35Z</time>
      </trkpt>
      <trkpt lat="45.17501" lon="5.90716">
        <ele>1335.8</ele>
        <time>2021-04-10T09:34:36Z</time>
      </trkpt>
      <trkpt lat="45.17499" lon="5.90716">
        <ele>1336</ele>
        <time>2021-04-10T09:34:37Z</time>
      </trkpt>
      <trkpt lat="45.17498" lon="5.90716">
        <ele>1336.2</ele>
        <time>2021-04-10T09:34:38Z</time>
      </trkpt>
      <trkpt lat="45.17496" lon="5.90716">
        <ele>1336.6</ele>
        <time>2021-04-10T09:34:39Z</time>
      </trkpt>
      <trkpt lat="45.17495" lon="5.90716">
        <ele>1336.8</ele>
        <time>2021-04-10T09:34:40Z</time>
      </trkpt>
      <trkpt lat="45.17493" lon="5.90717">
        <ele>1337</ele>
        <time>2021-04-10T09:34:41Z</time>
      </trkpt>
      <trkpt lat="45.17492" lon="5.90718">
        <ele>1337</ele>
        <time>2021-04-10T09:34:42Z</time>
      </trkpt>
      <trkpt lat="45.17491" lon="5.90719">
        <ele>1337</ele>
        <time>2021-04-10T09:34:43Z</time>
      </trkpt>
      <trkpt lat="45.1749" lon="5.9072">
        <ele>1337.2</ele>
        <time>2021-04-10T09:34:44Z</time>
      </trkpt>
      <trkpt lat="45.17489" lon="5.90721">
        <ele>1337.2</ele>
        <time>2021-04-10T09:34:45Z</time>
      </trkpt>
      <trkpt lat="45.17488" lon="5.90721">
        <ele>1337.4</ele>
        <time>2021-04-10T09:34:46Z</time>
      </trkpt>
      <trkpt lat="45.17487" lon="5.90722">
        <ele>1337.6</ele>
        <time>2021-04-10T09:34:47Z</time>
      </trkpt>
      <trkpt lat="45.17486" lon="5.90723">
        <ele>1337.8</ele>
        <time>2021-04-10T09:34:48Z</time>
      </trkpt>
      <trkpt lat="45.17484" lon="5.90723">
        <ele>1338</ele>
        <time>2021-04-10T09:34:49Z</time>
      </trkpt>
      <trkpt lat="45.17483" lon="5.90723">
        <ele>1338.2</ele>
        <time>2021-04-10T09:34:50Z</time>
      </trkpt>
      <trkpt lat="45.17481" lon="5.90723">
        <ele>1338.4</ele>
        <time>2021-04-10T09:34:51Z</time>
      </trkpt>
      <trkpt lat="45.17479" lon="5.90723">
        <ele>1338.2</ele>
        <time>2021-04-10T09:34:52Z</time>
      </trkpt>
      <trkpt lat="45.17478" lon="5.90723">
        <ele>1338.4</ele>
        <time>2021-04-10T09:34:53Z</time>
      </trkpt>
      <trkpt lat="45.17476" lon="5.90723">
        <ele>1338.4</ele>
        <time>2021-04-10T09:34:54Z</time>
      </trkpt>
      <trkpt lat="45.17474" lon="5.90724">
        <ele>1338.6</ele>
        <time>2021-04-10T09:34:55Z</time>
      </trkpt>
      <trkpt lat="45.17473" lon="5.90724">
        <ele>1338.8</ele>
        <time>2021-04-10T09:34:56Z</time>
      </trkpt>
      <trkpt lat="45.17471" lon="5.90725">
        <ele>1339.2</ele>
        <time>2021-04-10T09:34:57Z</time>
      </trkpt>
      <trkpt lat="45.1747" lon="5.90726">
        <ele>1339.2</ele>
        <time>2021-04-10T09:34:58Z</time>
      </trkpt>
      <trkpt lat="45.17468" lon="5.90727">
        <ele>1339.6</ele>
        <time>2021-04-10T09:34:59Z</time>
      </trkpt>
      <trkpt lat="45.17466" lon="5.90727">
        <ele>1339.8</ele>
        <time>2021-04-10T09:35:00Z</time>
      </trkpt>
      <trkpt lat="45.17465" lon="5.90728">
        <ele>1339.8</ele>
        <time>2021-04-10T09:35:01Z</time>
      </trkpt>
      <trkpt lat="45.17463" lon="5.90728">
        <ele>1339.8</ele>
        <time>2021-04-10T09:35:02Z</time>
      </trkpt>
      <trkpt lat="45.17461" lon="5.90729">
        <ele>1340</ele>
        <time>2021-04-10T09:35:03Z</time>
      </trkpt>
      <trkpt lat="45.1746" lon="5.90729">
        <ele>1340.2</ele>
        <time>2021-04-10T09:35:04Z</time>
      </trkpt>
      <trkpt lat="45.17458" lon="5.9073">
        <ele>1340.2</ele>
        <time>2021-04-10T09:35:05Z</time>
      </trkpt>
      <trkpt lat="45.17456" lon="5.9073">
        <ele>1340.4</ele>
        <time>2021-04-10T09:35:06Z</time>
      </trkpt>
      <trkpt lat="45.17456" lon="5.9073">
        <ele>1340.8</ele>
        <time>2021-04-10T09:35:07Z</time>
      </trkpt>
      <trkpt lat="45.17455" lon="5.9073">
        <ele>1341</ele>
        <time>2021-04-10T09:35:08Z</time>
      </trkpt>
      <trkpt lat="45.17454" lon="5.9073">
        <ele>1341.2</ele>
        <time>2021-04-10T09:35:09Z</time>
      </trkpt>
      <trkpt lat="45.17454" lon="5.9073">
        <ele>1341.4</ele>
        <time>2021-04-10T09:35:10Z</time>
      </trkpt>
      <trkpt lat="45.17453" lon="5.9073">
        <ele>1341.4</ele>
        <time>2021-04-10T09:35:11Z</time>
      </trkpt>
      <trkpt lat="45.17452" lon="5.90729">
        <ele>1341.4</ele>
        <time>2021-04-10T09:35:12Z</time>
      </trkpt>
      <trkpt lat="45.17452" lon="5.90729">
        <ele>1341.6</ele>
        <time>2021-04-10T09:35:13Z</time>
      </trkpt>
      <trkpt lat="45.17451" lon="5.90729">
        <ele>1341.8</ele>
        <time>2021-04-10T09:35:14Z</time>
      </trkpt>
      <trkpt lat="45.1745" lon="5.90729">
        <ele>1342</ele>
        <time>2021-04-10T09:35:15Z</time>
      </trkpt>
      <trkpt lat="45.1745" lon="5.90729">
        <ele>1342.4</ele>
        <time>2021-04-10T09:35:16Z</time>
      </trkpt>
      <trkpt lat="45.17449" lon="5.90728">
        <ele>1342.6</ele>
        <time>2021-04-10T09:35:17Z</time>
      </trkpt>
      <trkpt lat="45.17448" lon="5.90728">
        <ele>1342.8</ele>
        <time>2021-04-10T09:35:18Z</time>
      </trkpt>
      <trkpt lat="45.17448" lon="5.90728">
        <ele>1342.8</ele>
        <time>2021-04-10T09:35:19Z</time>
      </trkpt>
      <trkpt lat="45.17447" lon="5.90728">
        <ele>1343</ele>
        <time>2021-04-10T09:35:20Z</time>
      </trkpt>
      <trkpt lat="45.17446" lon="5.90728">
        <ele>1343.2</ele>
        <time>2021-04-10T09:35:21Z</time>
      </trkpt>
      <trkpt lat="45.17442" lon="5.90727">
        <ele>1343.4</ele>
        <time>2021-04-10T09:35:22Z</time>
      </trkpt>
      <trkpt lat="45.17438" lon="5.90726">
        <ele>1343.6</ele>
        <time>2021-04-10T09:35:23Z</time>
      </trkpt>
      <trkpt lat="45.17435" lon="5.90725">
        <ele>1343.8</ele>
        <time>2021-04-10T09:35:24Z</time>
      </trkpt>
      <trkpt lat="45.17431" lon="5.90724">
        <ele>1344</ele>
        <time>2021-04-10T09:35:25Z</time>
      </trkpt>
      <trkpt lat="45.17427" lon="5.90724">
        <ele>1344.2</ele>
        <time>2021-04-10T09:35:26Z</time>
      </trkpt>
      <trkpt lat="45.17424" lon="5.90723">
        <ele>1344.6</ele>
        <time>2021-04-10T09:35:27Z</time>
      </trkpt>
      <trkpt lat="45.17421" lon="5.90723">
        <ele>1344.6</ele>
        <time>2021-04-10T09:35:28Z</time>
      </trkpt>
      <trkpt lat="45.17418" lon="5.90722">
        <ele>1344.8</ele>
        <time>2021-04-10T09:35:29Z</time>
      </trkpt>
      <trkpt lat="45.17418" lon="5.90722">
        <ele>1344.6</ele>
        <time>2021-04-10T09:35:30Z</time>
      </trkpt>
      <trkpt lat="45.17418" lon="5.90722">
        <ele>1344.8</ele>
        <time>2021-04-10T09:35:31Z</time>
      </trkpt>
      <trkpt lat="45.17418" lon="5.90722">
        <ele>1344.8</ele>
        <time>2021-04-10T09:35:32Z</time>
      </trkpt>
      <trkpt lat="45.17416" lon="5.90721">
        <ele>1345.2</ele>
        <time>2021-04-10T09:35:33Z</time>
      </trkpt>
      <trkpt lat="45.17414" lon="5.9072">
        <ele>1345.4</ele>
        <time>2021-04-10T09:35:34Z</time>
      </trkpt>
      <trkpt lat="45.17413" lon="5.90719">
        <ele>1345.8</ele>
        <time>2021-04-10T09:35:35Z</time>
      </trkpt>
      <trkpt lat="45.17411" lon="5.90718">
        <ele>1346</ele>
        <time>2021-04-10T09:35:36Z</time>
      </trkpt>
      <trkpt lat="45.17409" lon="5.90717">
        <ele>1346</ele>
        <time>2021-04-10T09:35:37Z</time>
      </trkpt>
      <trkpt lat="45.17407" lon="5.90715">
        <ele>1346.2</ele>
        <time>2021-04-10T09:35:38Z</time>
      </trkpt>
      <trkpt lat="45.17406" lon="5.90713">
        <ele>1346.4</ele>
        <time>2021-04-10T09:35:39Z</time>
      </trkpt>
      <trkpt lat="45.17404" lon="5.90712">
        <ele>1346.6</ele>
        <time>2021-04-10T09:35:40Z</time>
      </trkpt>
      <trkpt lat="45.17402" lon="5.9071">
        <ele>1346.6</ele>
        <time>2021-04-10T09:35:41Z</time>
      </trkpt>
      <trkpt lat="45.174" lon="5.90709">
        <ele>1347</ele>
        <time>2021-04-10T09:35:42Z</time>
      </trkpt>
      <trkpt lat="45.17399" lon="5.90709">
        <ele>1347.2</ele>
        <time>2021-04-10T09:35:43Z</time>
      </trkpt>
      <trkpt lat="45.17398" lon="5.90709">
        <ele>1347.4</ele>
        <time>2021-04-10T09:35:44Z</time>
      </trkpt>
      <trkpt lat="45.17396" lon="5.90709">
        <ele>1347.6</ele>
        <time>2021-04-10T09:35:45Z</time>
      </trkpt>
      <trkpt lat="45.17395" lon="5.90709">
        <ele>1347.6</ele>
        <time>2021-04-10T09:35:46Z</time>
      </trkpt>
      <trkpt lat="45.17393" lon="5.90709">
        <ele>1347.6</ele>
        <time>2021-04-10T09:35:47Z</time>
      </trkpt>
      <trkpt lat="45.17392" lon="5.90709">
        <ele>1347.6</ele>
        <time>2021-04-10T09:35:48Z</time>
      </trkpt>
      <trkpt lat="45.1739" lon="5.90709">
        <ele>1347.8</ele>
        <time>2021-04-10T09:35:49Z</time>
      </trkpt>
      <trkpt lat="45.17389" lon="5.90708">
        <ele>1347.8</ele>
        <time>2021-04-10T09:35:50Z</time>
      </trkpt>
      <trkpt lat="45.17387" lon="5.90707">
        <ele>1348</ele>
        <time>2021-04-10T09:35:51Z</time>
      </trkpt>
      <trkpt lat="45.17385" lon="5.90706">
        <ele>1348.4</ele>
        <time>2021-04-10T09:35:52Z</time>
      </trkpt>
      <trkpt lat="45.17383" lon="5.90706">
        <ele>1348.6</ele>
        <time>2021-04-10T09:35:53Z</time>
      </trkpt>
      <trkpt lat="45.17381" lon="5.90705">
        <ele>1348.6</ele>
        <time>2021-04-10T09:35:54Z</time>
      </trkpt>
      <trkpt lat="45.1738" lon="5.90704">
        <ele>1348.6</ele>
        <time>2021-04-10T09:35:55Z</time>
      </trkpt>
      <trkpt lat="45.17378" lon="5.90703">
        <ele>1348.6</ele>
        <time>2021-04-10T09:35:56Z</time>
      </trkpt>
      <trkpt lat="45.17377" lon="5.90702">
        <ele>1348.6</ele>
        <time>2021-04-10T09:35:57Z</time>
      </trkpt>
      <trkpt lat="45.17376" lon="5.907">
        <ele>1348.8</ele>
        <time>2021-04-10T09:35:58Z</time>
      </trkpt>
      <trkpt lat="45.17375" lon="5.90699">
        <ele>1349</ele>
        <time>2021-04-10T09:35:59Z</time>
      </trkpt>
      <trkpt lat="45.17373" lon="5.90698">
        <ele>1349.2</ele>
        <time>2021-04-10T09:36:00Z</time>
      </trkpt>
      <trkpt lat="45.17372" lon="5.90697">
        <ele>1349.6</ele>
        <time>2021-04-10T09:36:01Z</time>
      </trkpt>
      <trkpt lat="45.17371" lon="5.90695">
        <ele>1350</ele>
        <time>2021-04-10T09:36:02Z</time>
      </trkpt>
      <trkpt lat="45.17369" lon="5.90696">
        <ele>1350.2</ele>
        <time>2021-04-10T09:36:03Z</time>
      </trkpt>
      <trkpt lat="45.17367" lon="5.90697">
        <ele>1350.4</ele>
        <time>2021-04-10T09:36:04Z</time>
      </trkpt>
      <trkpt lat="45.17365" lon="5.90698">
        <ele>1350.4</ele>
        <time>2021-04-10T09:36:05Z</time>
      </trkpt>
      <trkpt lat="45.17363" lon="5.90699">
        <ele>1350.6</ele>
        <time>2021-04-10T09:36:06Z</time>
      </trkpt>
      <trkpt lat="45.17361" lon="5.907">
        <ele>1350.8</ele>
        <time>2021-04-10T09:36:07Z</time>
      </trkpt>
      <trkpt lat="45.17359" lon="5.90701">
        <ele>1351</ele>
        <time>2021-04-10T09:36:08Z</time>
      </trkpt>
      <trkpt lat="45.17357" lon="5.90702">
        <ele>1351</ele>
        <time>2021-04-10T09:36:09Z</time>
      </trkpt>
      <trkpt lat="45.17357" lon="5.90702">
        <ele>1350.8</ele>
        <time>2021-04-10T09:36:10Z</time>
      </trkpt>
      <trkpt lat="45.17357" lon="5.90702">
        <ele>1350.8</ele>
        <time>2021-04-10T09:36:11Z</time>
      </trkpt>
      <trkpt lat="45.17357" lon="5.90702">
        <ele>1350.8</ele>
        <time>2021-04-10T09:36:12Z</time>
      </trkpt>
      <trkpt lat="45.17356" lon="5.90703">
        <ele>1351</ele>
        <time>2021-04-10T09:36:13Z</time>
      </trkpt>
      <trkpt lat="45.17355" lon="5.90703">
        <ele>1351.2</ele>
        <time>2021-04-10T09:36:14Z</time>
      </trkpt>
      <trkpt lat="45.17353" lon="5.90704">
        <ele>1351.4</ele>
        <time>2021-04-10T09:36:15Z</time>
      </trkpt>
      <trkpt lat="45.17352" lon="5.90705">
        <ele>1351.6</ele>
        <time>2021-04-10T09:36:16Z</time>
      </trkpt>
      <trkpt lat="45.1735" lon="5.90705">
        <ele>1351.6</ele>
        <time>2021-04-10T09:36:17Z</time>
      </trkpt>
      <trkpt lat="45.17349" lon="5.90706">
        <ele>1352</ele>
        <time>2021-04-10T09:36:18Z</time>
      </trkpt>
      <trkpt lat="45.17348" lon="5.90706">
        <ele>1352.2</ele>
        <time>2021-04-10T09:36:19Z</time>
      </trkpt>
      <trkpt lat="45.17347" lon="5.90706">
        <ele>1352.4</ele>
        <time>2021-04-10T09:36:20Z</time>
      </trkpt>
      <trkpt lat="45.17345" lon="5.90707">
        <ele>1352.4</ele>
        <time>2021-04-10T09:36:21Z</time>
      </trkpt>
      <trkpt lat="45.17344" lon="5.90707">
        <ele>1352.4</ele>
        <time>2021-04-10T09:36:22Z</time>
      </trkpt>
      <trkpt lat="45.17343" lon="5.90707">
        <ele>1352.6</ele>
        <time>2021-04-10T09:36:23Z</time>
      </trkpt>
      <trkpt lat="45.17342" lon="5.90707">
        <ele>1352.8</ele>
        <time>2021-04-10T09:36:24Z</time>
      </trkpt>
      <trkpt lat="45.17341" lon="5.90707">
        <ele>1352.8</ele>
        <time>2021-04-10T09:36:25Z</time>
      </trkpt>
      <trkpt lat="45.1734" lon="5.90707">
        <ele>1352.8</ele>
        <time>2021-04-10T09:36:26Z</time>
      </trkpt>
      <trkpt lat="45.17339" lon="5.90707">
        <ele>1353.2</ele>
        <time>2021-04-10T09:36:27Z</time>
      </trkpt>
      <trkpt lat="45.17338" lon="5.90707">
        <ele>1353.2</ele>
        <time>2021-04-10T09:36:28Z</time>
      </trkpt>
      <trkpt lat="45.17336" lon="5.90707">
        <ele>1353.4</ele>
        <time>2021-04-10T09:36:29Z</time>
      </trkpt>
      <trkpt lat="45.17335" lon="5.90707">
        <ele>1353.6</ele>
        <time>2021-04-10T09:36:30Z</time>
      </trkpt>
      <trkpt lat="45.17333" lon="5.90707">
        <ele>1353.8</ele>
        <time>2021-04-10T09:36:31Z</time>
      </trkpt>
      <trkpt lat="45.17332" lon="5.90707">
        <ele>1354</ele>
        <time>2021-04-10T09:36:32Z</time>
      </trkpt>
      <trkpt lat="45.1733" lon="5.90707">
        <ele>1354.4</ele>
        <time>2021-04-10T09:36:33Z</time>
      </trkpt>
      <trkpt lat="45.17329" lon="5.90707">
        <ele>1354.4</ele>
        <time>2021-04-10T09:36:34Z</time>
      </trkpt>
      <trkpt lat="45.17328" lon="5.90707">
        <ele>1354.8</ele>
        <time>2021-04-10T09:36:35Z</time>
      </trkpt>
      <trkpt lat="45.17326" lon="5.90707">
        <ele>1354.8</ele>
        <time>2021-04-10T09:36:36Z</time>
      </trkpt>
      <trkpt lat="45.17325" lon="5.90707">
        <ele>1354.8</ele>
        <time>2021-04-10T09:36:37Z</time>
      </trkpt>
      <trkpt lat="45.17323" lon="5.90707">
        <ele>1354.8</ele>
        <time>2021-04-10T09:36:38Z</time>
      </trkpt>
      <trkpt lat="45.17322" lon="5.90707">
        <ele>1355</ele>
        <time>2021-04-10T09:36:39Z</time>
      </trkpt>
      <trkpt lat="45.1732" lon="5.90707">
        <ele>1354.8</ele>
        <time>2021-04-10T09:36:40Z</time>
      </trkpt>
      <trkpt lat="45.17319" lon="5.90708">
        <ele>1355</ele>
        <time>2021-04-10T09:36:41Z</time>
      </trkpt>
      <trkpt lat="45.17317" lon="5.90708">
        <ele>1355</ele>
        <time>2021-04-10T09:36:42Z</time>
      </trkpt>
      <trkpt lat="45.17316" lon="5.90708">
        <ele>1355.4</ele>
        <time>2021-04-10T09:36:43Z</time>
      </trkpt>
      <trkpt lat="45.17315" lon="5.90709">
        <ele>1355.8</ele>
        <time>2021-04-10T09:36:44Z</time>
      </trkpt>
      <trkpt lat="45.17314" lon="5.90709">
        <ele>1356.2</ele>
        <time>2021-04-10T09:36:45Z</time>
      </trkpt>
      <trkpt lat="45.17313" lon="5.9071">
        <ele>1356.4</ele>
        <time>2021-04-10T09:36:46Z</time>
      </trkpt>
      <trkpt lat="45.17312" lon="5.9071">
        <ele>1356.6</ele>
        <time>2021-04-10T09:36:47Z</time>
      </trkpt>
      <trkpt lat="45.17311" lon="5.9071">
        <ele>1356.8</ele>
        <time>2021-04-10T09:36:48Z</time>
      </trkpt>
      <trkpt lat="45.1731" lon="5.90711">
        <ele>1356.8</ele>
        <time>2021-04-10T09:36:49Z</time>
      </trkpt>
      <trkpt lat="45.17309" lon="5.90711">
        <ele>1356.8</ele>
        <time>2021-04-10T09:36:50Z</time>
      </trkpt>
      <trkpt lat="45.17307" lon="5.90712">
        <ele>1357</ele>
        <time>2021-04-10T09:36:51Z</time>
      </trkpt>
      <trkpt lat="45.17306" lon="5.90713">
        <ele>1357.2</ele>
        <time>2021-04-10T09:36:52Z</time>
      </trkpt>
      <trkpt lat="45.17304" lon="5.90713">
        <ele>1357.2</ele>
        <time>2021-04-10T09:36:53Z</time>
      </trkpt>
      <trkpt lat="45.17303" lon="5.90714">
        <ele>1357.4</ele>
        <time>2021-04-10T09:36:54Z</time>
      </trkpt>
      <trkpt lat="45.17301" lon="5.90715">
        <ele>1357.6</ele>
        <time>2021-04-10T09:36:55Z</time>
      </trkpt>
      <trkpt lat="45.173" lon="5.90715">
        <ele>1357.8</ele>
        <time>2021-04-10T09:36:56Z</time>
      </trkpt>
      <trkpt lat="45.17299" lon="5.90715">
        <ele>1358</ele>
        <time>2021-04-10T09:36:57Z</time>
      </trkpt>
      <trkpt lat="45.17298" lon="5.90715">
        <ele>1358.2</ele>
        <time>2021-04-10T09:36:58Z</time>
      </trkpt>
      <trkpt lat="45.17297" lon="5.90716">
        <ele>1358.4</ele>
        <time>2021-04-10T09:36:59Z</time>
      </trkpt>
      <trkpt lat="45.17296" lon="5.90716">
        <ele>1358.2</ele>
        <time>2021-04-10T09:37:00Z</time>
      </trkpt>
      <trkpt lat="45.17295" lon="5.90716">
        <ele>1358.2</ele>
        <time>2021-04-10T09:37:01Z</time>
      </trkpt>
      <trkpt lat="45.17294" lon="5.90716">
        <ele>1358.4</ele>
        <time>2021-04-10T09:37:02Z</time>
      </trkpt>
      <trkpt lat="45.17293" lon="5.90716">
        <ele>1358.6</ele>
        <time>2021-04-10T09:37:03Z</time>
      </trkpt>
      <trkpt lat="45.17292" lon="5.90716">
        <ele>1358.8</ele>
        <time>2021-04-10T09:37:04Z</time>
      </trkpt>
      <trkpt lat="45.17291" lon="5.90716">
        <ele>1359</ele>
        <time>2021-04-10T09:37:05Z</time>
      </trkpt>
      <trkpt lat="45.1729" lon="5.90716">
        <ele>1359.2</ele>
        <time>2021-04-10T09:37:06Z</time>
      </trkpt>
      <trkpt lat="45.1729" lon="5.90716">
        <ele>1359.4</ele>
        <time>2021-04-10T09:37:07Z</time>
      </trkpt>
      <trkpt lat="45.17289" lon="5.90716">
        <ele>1359.6</ele>
        <time>2021-04-10T09:37:08Z</time>
      </trkpt>
      <trkpt lat="45.17288" lon="5.90716">
        <ele>1359.8</ele>
        <time>2021-04-10T09:37:09Z</time>
      </trkpt>
      <trkpt lat="45.17288" lon="5.90716">
        <ele>1360.2</ele>
        <time>2021-04-10T09:37:10Z</time>
      </trkpt>
      <trkpt lat="45.17287" lon="5.90716">
        <ele>1360.6</ele>
        <time>2021-04-10T09:37:11Z</time>
      </trkpt>
      <trkpt lat="45.17287" lon="5.90716">
        <ele>1360.8</ele>
        <time>2021-04-10T09:37:12Z</time>
      </trkpt>
      <trkpt lat="45.17286" lon="5.90716">
        <ele>1361.2</ele>
        <time>2021-04-10T09:37:13Z</time>
      </trkpt>
      <trkpt lat="45.17285" lon="5.90715">
        <ele>1361</ele>
        <time>2021-04-10T09:37:14Z</time>
      </trkpt>
      <trkpt lat="45.17285" lon="5.90715">
        <ele>1361</ele>
        <time>2021-04-10T09:37:15Z</time>
      </trkpt>
      <trkpt lat="45.17284" lon="5.90715">
        <ele>1361</ele>
        <time>2021-04-10T09:37:16Z</time>
      </trkpt>
      <trkpt lat="45.17283" lon="5.90715">
        <ele>1360.8</ele>
        <time>2021-04-10T09:37:17Z</time>
      </trkpt>
      <trkpt lat="45.17283" lon="5.90715">
        <ele>1360.8</ele>
        <time>2021-04-10T09:37:18Z</time>
      </trkpt>
      <trkpt lat="45.17282" lon="5.90715">
        <ele>1360.6</ele>
        <time>2021-04-10T09:37:19Z</time>
      </trkpt>
      <trkpt lat="45.17282" lon="5.90715">
        <ele>1360.6</ele>
        <time>2021-04-10T09:37:20Z</time>
      </trkpt>
      <trkpt lat="45.17281" lon="5.90715">
        <ele>1360.8</ele>
        <time>2021-04-10T09:37:21Z</time>
      </trkpt>
      <trkpt lat="45.17281" lon="5.90715">
        <ele>1360.8</ele>
        <time>2021-04-10T09:37:22Z</time>
      </trkpt>
      <trkpt lat="45.1728" lon="5.90716">
        <ele>1360.6</ele>
        <time>2021-04-10T09:37:23Z</time>
      </trkpt>
      <trkpt lat="45.1728" lon="5.90716">
        <ele>1360.4</ele>
        <time>2021-04-10T09:37:24Z</time>
      </trkpt>
      <trkpt lat="45.1728" lon="5.90716">
        <ele>1360.6</ele>
        <time>2021-04-10T09:37:25Z</time>
      </trkpt>
      <trkpt lat="45.17279" lon="5.90717">
        <ele>1360.6</ele>
        <time>2021-04-10T09:37:26Z</time>
      </trkpt>
      <trkpt lat="45.17279" lon="5.90717">
        <ele>1360.6</ele>
        <time>2021-04-10T09:37:27Z</time>
      </trkpt>
      <trkpt lat="45.17279" lon="5.90717">
        <ele>1360.6</ele>
        <time>2021-04-10T09:37:28Z</time>
      </trkpt>
      <trkpt lat="45.17278" lon="5.90718">
        <ele>1360.8</ele>
        <time>2021-04-10T09:37:29Z</time>
      </trkpt>
      <trkpt lat="45.17278" lon="5.90718">
        <ele>1360.8</ele>
        <time>2021-04-10T09:37:30Z</time>
      </trkpt>
      <trkpt lat="45.17278" lon="5.90718">
        <ele>1361.2</ele>
        <time>2021-04-10T09:37:31Z</time>
      </trkpt>
      <trkpt lat="45.17277" lon="5.90719">
        <ele>1361.2</ele>
        <time>2021-04-10T09:37:32Z</time>
      </trkpt>
      <trkpt lat="45.17277" lon="5.90719">
        <ele>1361.4</ele>
        <time>2021-04-10T09:37:33Z</time>
      </trkpt>
      <trkpt lat="45.17277" lon="5.90719">
        <ele>1361</ele>
        <time>2021-04-10T09:37:34Z</time>
      </trkpt>
      <trkpt lat="45.17276" lon="5.9072">
        <ele>1361</ele>
        <time>2021-04-10T09:37:35Z</time>
      </trkpt>
      <trkpt lat="45.17276" lon="5.9072">
        <ele>1360.8</ele>
        <time>2021-04-10T09:37:36Z</time>
      </trkpt>
      <trkpt lat="45.17276" lon="5.9072">
        <ele>1360.8</ele>
        <time>2021-04-10T09:37:37Z</time>
      </trkpt>
      <trkpt lat="45.17275" lon="5.90721">
        <ele>1360.8</ele>
        <time>2021-04-10T09:37:38Z</time>
      </trkpt>
      <trkpt lat="45.17275" lon="5.90721">
        <ele>1361</ele>
        <time>2021-04-10T09:37:39Z</time>
      </trkpt>
      <trkpt lat="45.17275" lon="5.90721">
        <ele>1361.6</ele>
        <time>2021-04-10T09:37:40Z</time>
      </trkpt>
      <trkpt lat="45.17274" lon="5.90722">
        <ele>1361.8</ele>
        <time>2021-04-10T09:37:41Z</time>
      </trkpt>
      <trkpt lat="45.17274" lon="5.90722">
        <ele>1362</ele>
        <time>2021-04-10T09:37:42Z</time>
      </trkpt>
      <trkpt lat="45.17274" lon="5.90722">
        <ele>1361.8</ele>
        <time>2021-04-10T09:37:43Z</time>
      </trkpt>
      <trkpt lat="45.17274" lon="5.90723">
        <ele>1361.8</ele>
        <time>2021-04-10T09:37:44Z</time>
      </trkpt>
      <trkpt lat="45.17273" lon="5.90723">
        <ele>1361.6</ele>
        <time>2021-04-10T09:37:45Z</time>
      </trkpt>
      <trkpt lat="45.17273" lon="5.90723">
        <ele>1361.6</ele>
        <time>2021-04-10T09:37:46Z</time>
      </trkpt>
      <trkpt lat="45.17272" lon="5.90724">
        <ele>1361.6</ele>
        <time>2021-04-10T09:37:47Z</time>
      </trkpt>
      <trkpt lat="45.17271" lon="5.90724">
        <ele>1361.6</ele>
        <time>2021-04-10T09:37:48Z</time>
      </trkpt>
      <trkpt lat="45.1727" lon="5.90725">
        <ele>1361.6</ele>
        <time>2021-04-10T09:37:49Z</time>
      </trkpt>
      <trkpt lat="45.17268" lon="5.90725">
        <ele>1361.8</ele>
        <time>2021-04-10T09:37:50Z</time>
      </trkpt>
      <trkpt lat="45.17267" lon="5.90726">
        <ele>1362.2</ele>
        <time>2021-04-10T09:37:51Z</time>
      </trkpt>
      <trkpt lat="45.17266" lon="5.90726">
        <ele>1362.2</ele>
        <time>2021-04-10T09:37:52Z</time>
      </trkpt>
      <trkpt lat="45.17265" lon="5.90726">
        <ele>1362.2</ele>
        <time>2021-04-10T09:37:53Z</time>
      </trkpt>
      <trkpt lat="45.17264" lon="5.90727">
        <ele>1362.2</ele>
        <time>2021-04-10T09:37:54Z</time>
      </trkpt>
      <trkpt lat="45.17263" lon="5.90727">
        <ele>1362.2</ele>
        <time>2021-04-10T09:37:55Z</time>
      </trkpt>
      <trkpt lat="45.17262" lon="5.90728">
        <ele>1362.2</ele>
        <time>2021-04-10T09:37:56Z</time>
      </trkpt>
      <trkpt lat="45.17261" lon="5.90729">
        <ele>1362.2</ele>
        <time>2021-04-10T09:37:57Z</time>
      </trkpt>
      <trkpt lat="45.1726" lon="5.90729">
        <ele>1362.4</ele>
        <time>2021-04-10T09:37:58Z</time>
      </trkpt>
      <trkpt lat="45.17259" lon="5.9073">
        <ele>1362.6</ele>
        <time>2021-04-10T09:37:59Z</time>
      </trkpt>
      <trkpt lat="45.17258" lon="5.90731">
        <ele>1362.6</ele>
        <time>2021-04-10T09:38:00Z</time>
      </trkpt>
      <trkpt lat="45.17256" lon="5.90732">
        <ele>1362.8</ele>
        <time>2021-04-10T09:38:01Z</time>
      </trkpt>
      <trkpt lat="45.17255" lon="5.90732">
        <ele>1363</ele>
        <time>2021-04-10T09:38:02Z</time>
      </trkpt>
      <trkpt lat="45.17254" lon="5.90733">
        <ele>1363.2</ele>
        <time>2021-04-10T09:38:03Z</time>
      </trkpt>
      <trkpt lat="45.17253" lon="5.90734">
        <ele>1363.4</ele>
        <time>2021-04-10T09:38:04Z</time>
      </trkpt>
      <trkpt lat="45.17251" lon="5.90734">
        <ele>1363.6</ele>
        <time>2021-04-10T09:38:05Z</time>
      </trkpt>
      <trkpt lat="45.17249" lon="5.90735">
        <ele>1363.8</ele>
        <time>2021-04-10T09:38:06Z</time>
      </trkpt>
      <trkpt lat="45.17248" lon="5.90735">
        <ele>1363.8</ele>
        <time>2021-04-10T09:38:07Z</time>
      </trkpt>
      <trkpt lat="45.17246" lon="5.90736">
        <ele>1363.8</ele>
        <time>2021-04-10T09:38:08Z</time>
      </trkpt>
      <trkpt lat="45.17245" lon="5.90736">
        <ele>1364</ele>
        <time>2021-04-10T09:38:09Z</time>
      </trkpt>
      <trkpt lat="45.17243" lon="5.90736">
        <ele>1364</ele>
        <time>2021-04-10T09:38:10Z</time>
      </trkpt>
      <trkpt lat="45.17242" lon="5.90737">
        <ele>1364.2</ele>
        <time>2021-04-10T09:38:11Z</time>
      </trkpt>
      <trkpt lat="45.17241" lon="5.90737">
        <ele>1364.6</ele>
        <time>2021-04-10T09:38:12Z</time>
      </trkpt>
      <trkpt lat="45.1724" lon="5.90737">
        <ele>1364.6</ele>
        <time>2021-04-10T09:38:13Z</time>
      </trkpt>
      <trkpt lat="45.17238" lon="5.90738">
        <ele>1365</ele>
        <time>2021-04-10T09:38:14Z</time>
      </trkpt>
      <trkpt lat="45.17237" lon="5.90738">
        <ele>1365</ele>
        <time>2021-04-10T09:38:15Z</time>
      </trkpt>
      <trkpt lat="45.17236" lon="5.90738">
        <ele>1365.2</ele>
        <time>2021-04-10T09:38:16Z</time>
      </trkpt>
      <trkpt lat="45.17235" lon="5.90739">
        <ele>1365.4</ele>
        <time>2021-04-10T09:38:17Z</time>
      </trkpt>
      <trkpt lat="45.17233" lon="5.9074">
        <ele>1365.8</ele>
        <time>2021-04-10T09:38:18Z</time>
      </trkpt>
      <trkpt lat="45.17231" lon="5.9074">
        <ele>1365.8</ele>
        <time>2021-04-10T09:38:19Z</time>
      </trkpt>
      <trkpt lat="45.17229" lon="5.90741">
        <ele>1365.8</ele>
        <time>2021-04-10T09:38:20Z</time>
      </trkpt>
      <trkpt lat="45.17227" lon="5.90742">
        <ele>1366</ele>
        <time>2021-04-10T09:38:21Z</time>
      </trkpt>
      <trkpt lat="45.17225" lon="5.90743">
        <ele>1366.4</ele>
        <time>2021-04-10T09:38:22Z</time>
      </trkpt>
      <trkpt lat="45.17223" lon="5.90743">
        <ele>1366.4</ele>
        <time>2021-04-10T09:38:23Z</time>
      </trkpt>
      <trkpt lat="45.17221" lon="5.90744">
        <ele>1366.6</ele>
        <time>2021-04-10T09:38:24Z</time>
      </trkpt>
      <trkpt lat="45.1722" lon="5.90744">
        <ele>1367</ele>
        <time>2021-04-10T09:38:25Z</time>
      </trkpt>
      <trkpt lat="45.17218" lon="5.90745">
        <ele>1367.2</ele>
        <time>2021-04-10T09:38:26Z</time>
      </trkpt>
      <trkpt lat="45.17216" lon="5.90745">
        <ele>1367.4</ele>
        <time>2021-04-10T09:38:27Z</time>
      </trkpt>
      <trkpt lat="45.17214" lon="5.90746">
        <ele>1367.6</ele>
        <time>2021-04-10T09:38:28Z</time>
      </trkpt>
      <trkpt lat="45.17213" lon="5.90745">
        <ele>1367.6</ele>
        <time>2021-04-10T09:38:29Z</time>
      </trkpt>
      <trkpt lat="45.17211" lon="5.90745">
        <ele>1367.8</ele>
        <time>2021-04-10T09:38:30Z</time>
      </trkpt>
      <trkpt lat="45.1721" lon="5.90745">
        <ele>1368</ele>
        <time>2021-04-10T09:38:31Z</time>
      </trkpt>
      <trkpt lat="45.17209" lon="5.90745">
        <ele>1368.2</ele>
        <time>2021-04-10T09:38:32Z</time>
      </trkpt>
      <trkpt lat="45.17207" lon="5.90744">
        <ele>1368.2</ele>
        <time>2021-04-10T09:38:33Z</time>
      </trkpt>
      <trkpt lat="45.17206" lon="5.90744">
        <ele>1368.2</ele>
        <time>2021-04-10T09:38:34Z</time>
      </trkpt>
      <trkpt lat="45.17205" lon="5.90744">
        <ele>1368.6</ele>
        <time>2021-04-10T09:38:35Z</time>
      </trkpt>
      <trkpt lat="45.17203" lon="5.90744">
        <ele>1368.6</ele>
        <time>2021-04-10T09:38:36Z</time>
      </trkpt>
      <trkpt lat="45.17201" lon="5.90744">
        <ele>1368.6</ele>
        <time>2021-04-10T09:38:37Z</time>
      </trkpt>
      <trkpt lat="45.172" lon="5.90744">
        <ele>1368.6</ele>
        <time>2021-04-10T09:38:38Z</time>
      </trkpt>
      <trkpt lat="45.17198" lon="5.90744">
        <ele>1368.6</ele>
        <time>2021-04-10T09:38:39Z</time>
      </trkpt>
      <trkpt lat="45.17196" lon="5.90744">
        <ele>1368.8</ele>
        <time>2021-04-10T09:38:40Z</time>
      </trkpt>
      <trkpt lat="45.17195" lon="5.90744">
        <ele>1369.2</ele>
        <time>2021-04-10T09:38:41Z</time>
      </trkpt>
      <trkpt lat="45.17193" lon="5.90744">
        <ele>1369.4</ele>
        <time>2021-04-10T09:38:42Z</time>
      </trkpt>
      <trkpt lat="45.17191" lon="5.90744">
        <ele>1369.4</ele>
        <time>2021-04-10T09:38:43Z</time>
      </trkpt>
      <trkpt lat="45.1719" lon="5.90745">
        <ele>1369.4</ele>
        <time>2021-04-10T09:38:44Z</time>
      </trkpt>
      <trkpt lat="45.17188" lon="5.90745">
        <ele>1369.4</ele>
        <time>2021-04-10T09:38:45Z</time>
      </trkpt>
      <trkpt lat="45.17186" lon="5.90745">
        <ele>1369.6</ele>
        <time>2021-04-10T09:38:46Z</time>
      </trkpt>
      <trkpt lat="45.17185" lon="5.90745">
        <ele>1369.6</ele>
        <time>2021-04-10T09:38:47Z</time>
      </trkpt>
      <trkpt lat="45.17183" lon="5.90745">
        <ele>1369.6</ele>
        <time>2021-04-10T09:38:48Z</time>
      </trkpt>
      <trkpt lat="45.17182" lon="5.90745">
        <ele>1369.6</ele>
        <time>2021-04-10T09:38:49Z</time>
      </trkpt>
      <trkpt lat="45.1718" lon="5.90745">
        <ele>1369.8</ele>
        <time>2021-04-10T09:38:50Z</time>
      </trkpt>
      <trkpt lat="45.17179" lon="5.90745">
        <ele>1370.2</ele>
        <time>2021-04-10T09:38:51Z</time>
      </trkpt>
      <trkpt lat="45.17178" lon="5.90745">
        <ele>1370.6</ele>
        <time>2021-04-10T09:38:52Z</time>
      </trkpt>
      <trkpt lat="45.17176" lon="5.90745">
        <ele>1370.8</ele>
        <time>2021-04-10T09:38:53Z</time>
      </trkpt>
      <trkpt lat="45.17175" lon="5.90744">
        <ele>1370.8</ele>
        <time>2021-04-10T09:38:54Z</time>
      </trkpt>
      <trkpt lat="45.17174" lon="5.90745">
        <ele>1370.8</ele>
        <time>2021-04-10T09:38:55Z</time>
      </trkpt>
      <trkpt lat="45.17173" lon="5.90745">
        <ele>1371</ele>
        <time>2021-04-10T09:38:56Z</time>
      </trkpt>
      <trkpt lat="45.17172" lon="5.90746">
        <ele>1371</ele>
        <time>2021-04-10T09:38:57Z</time>
      </trkpt>
      <trkpt lat="45.17172" lon="5.90746">
        <ele>1371.2</ele>
        <time>2021-04-10T09:38:58Z</time>
      </trkpt>
      <trkpt lat="45.17171" lon="5.90747">
        <ele>1371.4</ele>
        <time>2021-04-10T09:38:59Z</time>
      </trkpt>
      <trkpt lat="45.1717" lon="5.90747">
        <ele>1371.6</ele>
        <time>2021-04-10T09:39:00Z</time>
      </trkpt>
      <trkpt lat="45.17169" lon="5.90748">
        <ele>1371.6</ele>
        <time>2021-04-10T09:39:01Z</time>
      </trkpt>
      <trkpt lat="45.17168" lon="5.90748">
        <ele>1371.4</ele>
        <time>2021-04-10T09:39:02Z</time>
      </trkpt>
      <trkpt lat="45.17167" lon="5.90749">
        <ele>1371.4</ele>
        <time>2021-04-10T09:39:03Z</time>
      </trkpt>
      <trkpt lat="45.17166" lon="5.90749">
        <ele>1371.6</ele>
        <time>2021-04-10T09:39:04Z</time>
      </trkpt>
      <trkpt lat="45.17165" lon="5.9075">
        <ele>1371.6</ele>
        <time>2021-04-10T09:39:05Z</time>
      </trkpt>
      <trkpt lat="45.17164" lon="5.90751">
        <ele>1372</ele>
        <time>2021-04-10T09:39:06Z</time>
      </trkpt>
      <trkpt lat="45.17163" lon="5.90752">
        <ele>1372.2</ele>
        <time>2021-04-10T09:39:07Z</time>
      </trkpt>
      <trkpt lat="45.17162" lon="5.90752">
        <ele>1372.4</ele>
        <time>2021-04-10T09:39:08Z</time>
      </trkpt>
      <trkpt lat="45.17161" lon="5.90753">
        <ele>1372.6</ele>
        <time>2021-04-10T09:39:09Z</time>
      </trkpt>
      <trkpt lat="45.1716" lon="5.90754">
        <ele>1372.6</ele>
        <time>2021-04-10T09:39:10Z</time>
      </trkpt>
      <trkpt lat="45.17159" lon="5.90755">
        <ele>1372.6</ele>
        <time>2021-04-10T09:39:11Z</time>
      </trkpt>
      <trkpt lat="45.17158" lon="5.90756">
        <ele>1372.6</ele>
        <time>2021-04-10T09:39:12Z</time>
      </trkpt>
      <trkpt lat="45.17158" lon="5.90756">
        <ele>1372.8</ele>
        <time>2021-04-10T09:39:13Z</time>
      </trkpt>
      <trkpt lat="45.17157" lon="5.90757">
        <ele>1372.8</ele>
        <time>2021-04-10T09:39:14Z</time>
      </trkpt>
      <trkpt lat="45.17157" lon="5.90758">
        <ele>1373</ele>
        <time>2021-04-10T09:39:15Z</time>
      </trkpt>
      <trkpt lat="45.17156" lon="5.90758">
        <ele>1373.2</ele>
        <time>2021-04-10T09:39:16Z</time>
      </trkpt>
      <trkpt lat="45.17156" lon="5.90759">
        <ele>1373.4</ele>
        <time>2021-04-10T09:39:17Z</time>
      </trkpt>
      <trkpt lat="45.17155" lon="5.9076">
        <ele>1373.6</ele>
        <time>2021-04-10T09:39:18Z</time>
      </trkpt>
      <trkpt lat="45.17155" lon="5.90761">
        <ele>1373.8</ele>
        <time>2021-04-10T09:39:19Z</time>
      </trkpt>
      <trkpt lat="45.17154" lon="5.90761">
        <ele>1373.8</ele>
        <time>2021-04-10T09:39:20Z</time>
      </trkpt>
      <trkpt lat="45.17154" lon="5.90762">
        <ele>1373.8</ele>
        <time>2021-04-10T09:39:21Z</time>
      </trkpt>
      <trkpt lat="45.17153" lon="5.90763">
        <ele>1373.8</ele>
        <time>2021-04-10T09:39:22Z</time>
      </trkpt>
      <trkpt lat="45.17153" lon="5.90763">
        <ele>1374</ele>
        <time>2021-04-10T09:39:23Z</time>
      </trkpt>
      <trkpt lat="45.17152" lon="5.90764">
        <ele>1374.2</ele>
        <time>2021-04-10T09:39:24Z</time>
      </trkpt>
      <trkpt lat="45.17152" lon="5.90765">
        <ele>1374.2</ele>
        <time>2021-04-10T09:39:25Z</time>
      </trkpt>
      <trkpt lat="45.17151" lon="5.90767">
        <ele>1374.6</ele>
        <time>2021-04-10T09:39:26Z</time>
      </trkpt>
      <trkpt lat="45.1715" lon="5.90768">
        <ele>1375</ele>
        <time>2021-04-10T09:39:27Z</time>
      </trkpt>
      <trkpt lat="45.17149" lon="5.9077">
        <ele>1375.2</ele>
        <time>2021-04-10T09:39:28Z</time>
      </trkpt>
      <trkpt lat="45.17148" lon="5.90772">
        <ele>1375.4</ele>
        <time>2021-04-10T09:39:29Z</time>
      </trkpt>
      <trkpt lat="45.17148" lon="5.90774">
        <ele>1375.2</ele>
        <time>2021-04-10T09:39:30Z</time>
      </trkpt>
      <trkpt lat="45.17147" lon="5.90776">
        <ele>1375</ele>
        <time>2021-04-10T09:39:31Z</time>
      </trkpt>
      <trkpt lat="45.17146" lon="5.90777">
        <ele>1375.2</ele>
        <time>2021-04-10T09:39:32Z</time>
      </trkpt>
      <trkpt lat="45.17145" lon="5.90778">
        <ele>1375.4</ele>
        <time>2021-04-10T09:39:33Z</time>
      </trkpt>
      <trkpt lat="45.17144" lon="5.90779">
        <ele>1375.6</ele>
        <time>2021-04-10T09:39:34Z</time>
      </trkpt>
      <trkpt lat="45.17144" lon="5.9078">
        <ele>1375.8</ele>
        <time>2021-04-10T09:39:35Z</time>
      </trkpt>
      <trkpt lat="45.17143" lon="5.90781">
        <ele>1376</ele>
        <time>2021-04-10T09:39:36Z</time>
      </trkpt>
      <trkpt lat="45.17142" lon="5.90782">
        <ele>1376.2</ele>
        <time>2021-04-10T09:39:37Z</time>
      </trkpt>
      <trkpt lat="45.17141" lon="5.90783">
        <ele>1376.2</ele>
        <time>2021-04-10T09:39:38Z</time>
      </trkpt>
      <trkpt lat="45.17141" lon="5.90784">
        <ele>1376.2</ele>
        <time>2021-04-10T09:39:39Z</time>
      </trkpt>
      <trkpt lat="45.1714" lon="5.90785">
        <ele>1376.2</ele>
        <time>2021-04-10T09:39:40Z</time>
      </trkpt>
      <trkpt lat="45.17139" lon="5.90786">
        <ele>1376.4</ele>
        <time>2021-04-10T09:39:41Z</time>
      </trkpt>
      <trkpt lat="45.17137" lon="5.90786">
        <ele>1376.8</ele>
        <time>2021-04-10T09:39:42Z</time>
      </trkpt>
      <trkpt lat="45.17135" lon="5.90787">
        <ele>1377.2</ele>
        <time>2021-04-10T09:39:43Z</time>
      </trkpt>
      <trkpt lat="45.17133" lon="5.90788">
        <ele>1377.2</ele>
        <time>2021-04-10T09:39:44Z</time>
      </trkpt>
      <trkpt lat="45.17131" lon="5.90788">
        <ele>1377.6</ele>
        <time>2021-04-10T09:39:45Z</time>
      </trkpt>
      <trkpt lat="45.17128" lon="5.90789">
        <ele>1378</ele>
        <time>2021-04-10T09:39:46Z</time>
      </trkpt>
      <trkpt lat="45.17127" lon="5.90789">
        <ele>1378.4</ele>
        <time>2021-04-10T09:39:47Z</time>
      </trkpt>
      <trkpt lat="45.17125" lon="5.90789">
        <ele>1378.6</ele>
        <time>2021-04-10T09:39:48Z</time>
      </trkpt>
      <trkpt lat="45.17123" lon="5.90789">
        <ele>1378.6</ele>
        <time>2021-04-10T09:39:49Z</time>
      </trkpt>
      <trkpt lat="45.17122" lon="5.90789">
        <ele>1378.4</ele>
        <time>2021-04-10T09:39:50Z</time>
      </trkpt>
      <trkpt lat="45.1712" lon="5.90789">
        <ele>1378.4</ele>
        <time>2021-04-10T09:39:51Z</time>
      </trkpt>
      <trkpt lat="45.17118" lon="5.90789">
        <ele>1378.4</ele>
        <time>2021-04-10T09:39:52Z</time>
      </trkpt>
      <trkpt lat="45.17116" lon="5.90789">
        <ele>1378.4</ele>
        <time>2021-04-10T09:39:53Z</time>
      </trkpt>
      <trkpt lat="45.17114" lon="5.9079">
        <ele>1378.6</ele>
        <time>2021-04-10T09:39:54Z</time>
      </trkpt>
      <trkpt lat="45.17113" lon="5.90791">
        <ele>1378.8</ele>
        <time>2021-04-10T09:39:55Z</time>
      </trkpt>
      <trkpt lat="45.17111" lon="5.90792">
        <ele>1379</ele>
        <time>2021-04-10T09:39:56Z</time>
      </trkpt>
      <trkpt lat="45.17109" lon="5.90793">
        <ele>1379.4</ele>
        <time>2021-04-10T09:39:57Z</time>
      </trkpt>
      <trkpt lat="45.17107" lon="5.90794">
        <ele>1379.8</ele>
        <time>2021-04-10T09:39:58Z</time>
      </trkpt>
      <trkpt lat="45.17105" lon="5.90795">
        <ele>1379.8</ele>
        <time>2021-04-10T09:39:59Z</time>
      </trkpt>
      <trkpt lat="45.17099" lon="5.90797">
        <ele>1380</ele>
        <time>2021-04-10T09:40:01Z</time>
      </trkpt>
      <trkpt lat="45.17099" lon="5.90797">
        <ele>1380</ele>
        <time>2021-04-10T09:40:02Z</time>
      </trkpt>
      <trkpt lat="45.17099" lon="5.90797">
        <ele>1380</ele>
        <time>2021-04-10T09:40:03Z</time>
      </trkpt>
      <trkpt lat="45.17099" lon="5.90797">
        <ele>1380</ele>
        <time>2021-04-10T09:40:04Z</time>
      </trkpt>
      <trkpt lat="45.17097" lon="5.90798">
        <ele>1380.2</ele>
        <time>2021-04-10T09:40:05Z</time>
      </trkpt>
      <trkpt lat="45.17096" lon="5.90798">
        <ele>1380.4</ele>
        <time>2021-04-10T09:40:06Z</time>
      </trkpt>
      <trkpt lat="45.17094" lon="5.90798">
        <ele>1380.8</ele>
        <time>2021-04-10T09:40:07Z</time>
      </trkpt>
      <trkpt lat="45.17093" lon="5.90799">
        <ele>1381</ele>
        <time>2021-04-10T09:40:08Z</time>
      </trkpt>
      <trkpt lat="45.17091" lon="5.90799">
        <ele>1381.2</ele>
        <time>2021-04-10T09:40:09Z</time>
      </trkpt>
      <trkpt lat="45.1709" lon="5.908">
        <ele>1381.4</ele>
        <time>2021-04-10T09:40:10Z</time>
      </trkpt>
      <trkpt lat="45.17089" lon="5.908">
        <ele>1381.8</ele>
        <time>2021-04-10T09:40:11Z</time>
      </trkpt>
      <trkpt lat="45.17087" lon="5.90801">
        <ele>1382</ele>
        <time>2021-04-10T09:40:12Z</time>
      </trkpt>
      <trkpt lat="45.17085" lon="5.90801">
        <ele>1382.2</ele>
        <time>2021-04-10T09:40:13Z</time>
      </trkpt>
      <trkpt lat="45.17083" lon="5.90802">
        <ele>1382.4</ele>
        <time>2021-04-10T09:40:14Z</time>
      </trkpt>
      <trkpt lat="45.17082" lon="5.90803">
        <ele>1382.6</ele>
        <time>2021-04-10T09:40:15Z</time>
      </trkpt>
      <trkpt lat="45.1708" lon="5.90803">
        <ele>1382.4</ele>
        <time>2021-04-10T09:40:16Z</time>
      </trkpt>
      <trkpt lat="45.17078" lon="5.90804">
        <ele>1382.6</ele>
        <time>2021-04-10T09:40:17Z</time>
      </trkpt>
      <trkpt lat="45.17078" lon="5.90804">
        <ele>1382.6</ele>
        <time>2021-04-10T09:40:18Z</time>
      </trkpt>
      <trkpt lat="45.17078" lon="5.90803">
        <ele>1382.6</ele>
        <time>2021-04-10T09:40:19Z</time>
      </trkpt>
      <trkpt lat="45.17077" lon="5.90803">
        <ele>1382.8</ele>
        <time>2021-04-10T09:40:20Z</time>
      </trkpt>
      <trkpt lat="45.17077" lon="5.90802">
        <ele>1382.8</ele>
        <time>2021-04-10T09:40:21Z</time>
      </trkpt>
      <trkpt lat="45.17077" lon="5.90802">
        <ele>1383</ele>
        <time>2021-04-10T09:40:22Z</time>
      </trkpt>
      <trkpt lat="45.17076" lon="5.90801">
        <ele>1383</ele>
        <time>2021-04-10T09:40:23Z</time>
      </trkpt>
      <trkpt lat="45.17076" lon="5.90801">
        <ele>1383</ele>
        <time>2021-04-10T09:40:24Z</time>
      </trkpt>
      <trkpt lat="45.17076" lon="5.908">
        <ele>1383.4</ele>
        <time>2021-04-10T09:40:25Z</time>
      </trkpt>
      <trkpt lat="45.17075" lon="5.908">
        <ele>1383.4</ele>
        <time>2021-04-10T09:40:26Z</time>
      </trkpt>
      <trkpt lat="45.17075" lon="5.90799">
        <ele>1383.6</ele>
        <time>2021-04-10T09:40:27Z</time>
      </trkpt>
      <trkpt lat="45.17075" lon="5.90799">
        <ele>1383.8</ele>
        <time>2021-04-10T09:40:28Z</time>
      </trkpt>
      <trkpt lat="45.17074" lon="5.90798">
        <ele>1383.8</ele>
        <time>2021-04-10T09:40:29Z</time>
      </trkpt>
      <trkpt lat="45.17074" lon="5.90798">
        <ele>1384.2</ele>
        <time>2021-04-10T09:40:30Z</time>
      </trkpt>
      <trkpt lat="45.17073" lon="5.90797">
        <ele>1384.4</ele>
        <time>2021-04-10T09:40:31Z</time>
      </trkpt>
      <trkpt lat="45.17073" lon="5.90797">
        <ele>1384.6</ele>
        <time>2021-04-10T09:40:32Z</time>
      </trkpt>
      <trkpt lat="45.17073" lon="5.90796">
        <ele>1384.6</ele>
        <time>2021-04-10T09:40:33Z</time>
      </trkpt>
      <trkpt lat="45.17072" lon="5.90796">
        <ele>1384.6</ele>
        <time>2021-04-10T09:40:34Z</time>
      </trkpt>
      <trkpt lat="45.17072" lon="5.90795">
        <ele>1384.8</ele>
        <time>2021-04-10T09:40:35Z</time>
      </trkpt>
      <trkpt lat="45.17072" lon="5.90795">
        <ele>1385</ele>
        <time>2021-04-10T09:40:36Z</time>
      </trkpt>
      <trkpt lat="45.17071" lon="5.90794">
        <ele>1385</ele>
        <time>2021-04-10T09:40:37Z</time>
      </trkpt>
      <trkpt lat="45.1707" lon="5.90793">
        <ele>1385.4</ele>
        <time>2021-04-10T09:40:38Z</time>
      </trkpt>
      <trkpt lat="45.1707" lon="5.90792">
        <ele>1385.6</ele>
        <time>2021-04-10T09:40:39Z</time>
      </trkpt>
      <trkpt lat="45.17069" lon="5.90791">
        <ele>1385.6</ele>
        <time>2021-04-10T09:40:40Z</time>
      </trkpt>
      <trkpt lat="45.17068" lon="5.9079">
        <ele>1385.8</ele>
        <time>2021-04-10T09:40:41Z</time>
      </trkpt>
      <trkpt lat="45.17067" lon="5.90788">
        <ele>1385.8</ele>
        <time>2021-04-10T09:40:42Z</time>
      </trkpt>
      <trkpt lat="45.17066" lon="5.90787">
        <ele>1385.8</ele>
        <time>2021-04-10T09:40:43Z</time>
      </trkpt>
      <trkpt lat="45.17065" lon="5.90786">
        <ele>1386</ele>
        <time>2021-04-10T09:40:44Z</time>
      </trkpt>
      <trkpt lat="45.17064" lon="5.90785">
        <ele>1386</ele>
        <time>2021-04-10T09:40:45Z</time>
      </trkpt>
      <trkpt lat="45.17063" lon="5.90783">
        <ele>1386.2</ele>
        <time>2021-04-10T09:40:46Z</time>
      </trkpt>
      <trkpt lat="45.17061" lon="5.90781">
        <ele>1386</ele>
        <time>2021-04-10T09:40:47Z</time>
      </trkpt>
      <trkpt lat="45.1706" lon="5.9078">
        <ele>1386</ele>
        <time>2021-04-10T09:40:48Z</time>
      </trkpt>
      <trkpt lat="45.17058" lon="5.90778">
        <ele>1386.2</ele>
        <time>2021-04-10T09:40:49Z</time>
      </trkpt>
      <trkpt lat="45.17056" lon="5.90776">
        <ele>1386.2</ele>
        <time>2021-04-10T09:40:50Z</time>
      </trkpt>
      <trkpt lat="45.17055" lon="5.90775">
        <ele>1386.4</ele>
        <time>2021-04-10T09:40:51Z</time>
      </trkpt>
      <trkpt lat="45.17054" lon="5.90774">
        <ele>1386.6</ele>
        <time>2021-04-10T09:40:52Z</time>
      </trkpt>
      <trkpt lat="45.17052" lon="5.90772">
        <ele>1386.8</ele>
        <time>2021-04-10T09:40:53Z</time>
      </trkpt>
      <trkpt lat="45.17051" lon="5.90771">
        <ele>1387</ele>
        <time>2021-04-10T09:40:54Z</time>
      </trkpt>
      <trkpt lat="45.1705" lon="5.90769">
        <ele>1387.4</ele>
        <time>2021-04-10T09:40:55Z</time>
      </trkpt>
      <trkpt lat="45.17048" lon="5.90768">
        <ele>1387.6</ele>
        <time>2021-04-10T09:40:56Z</time>
      </trkpt>
      <trkpt lat="45.17047" lon="5.90767">
        <ele>1387.8</ele>
        <time>2021-04-10T09:40:57Z</time>
      </trkpt>
      <trkpt lat="45.17046" lon="5.90766">
        <ele>1387.8</ele>
        <time>2021-04-10T09:40:58Z</time>
      </trkpt>
      <trkpt lat="45.17044" lon="5.90765">
        <ele>1388</ele>
        <time>2021-04-10T09:40:59Z</time>
      </trkpt>
      <trkpt lat="45.17043" lon="5.90764">
        <ele>1387.8</ele>
        <time>2021-04-10T09:41:00Z</time>
      </trkpt>
      <trkpt lat="45.17041" lon="5.90764">
        <ele>1388</ele>
        <time>2021-04-10T09:41:01Z</time>
      </trkpt>
      <trkpt lat="45.1704" lon="5.90763">
        <ele>1388</ele>
        <time>2021-04-10T09:41:02Z</time>
      </trkpt>
      <trkpt lat="45.17039" lon="5.90762">
        <ele>1388</ele>
        <time>2021-04-10T09:41:03Z</time>
      </trkpt>
      <trkpt lat="45.17038" lon="5.9076">
        <ele>1388.2</ele>
        <time>2021-04-10T09:41:04Z</time>
      </trkpt>
      <trkpt lat="45.17037" lon="5.90759">
        <ele>1388.4</ele>
        <time>2021-04-10T09:41:05Z</time>
      </trkpt>
      <trkpt lat="45.17036" lon="5.90758">
        <ele>1388.8</ele>
        <time>2021-04-10T09:41:06Z</time>
      </trkpt>
      <trkpt lat="45.17036" lon="5.90757">
        <ele>1389</ele>
        <time>2021-04-10T09:41:07Z</time>
      </trkpt>
      <trkpt lat="45.17035" lon="5.90756">
        <ele>1389.4</ele>
        <time>2021-04-10T09:41:08Z</time>
      </trkpt>
      <trkpt lat="45.17034" lon="5.90755">
        <ele>1389.6</ele>
        <time>2021-04-10T09:41:09Z</time>
      </trkpt>
      <trkpt lat="45.17033" lon="5.90754">
        <ele>1389.6</ele>
        <time>2021-04-10T09:41:10Z</time>
      </trkpt>
      <trkpt lat="45.17032" lon="5.90753">
        <ele>1389.6</ele>
        <time>2021-04-10T09:41:11Z</time>
      </trkpt>
      <trkpt lat="45.17031" lon="5.90752">
        <ele>1389.8</ele>
        <time>2021-04-10T09:41:12Z</time>
      </trkpt>
      <trkpt lat="45.17029" lon="5.90751">
        <ele>1389.8</ele>
        <time>2021-04-10T09:41:13Z</time>
      </trkpt>
      <trkpt lat="45.17028" lon="5.9075">
        <ele>1390</ele>
        <time>2021-04-10T09:41:14Z</time>
      </trkpt>
      <trkpt lat="45.17026" lon="5.90749">
        <ele>1390.2</ele>
        <time>2021-04-10T09:41:15Z</time>
      </trkpt>
      <trkpt lat="45.17025" lon="5.90749">
        <ele>1390.4</ele>
        <time>2021-04-10T09:41:16Z</time>
      </trkpt>
      <trkpt lat="45.17023" lon="5.90748">
        <ele>1390.8</ele>
        <time>2021-04-10T09:41:17Z</time>
      </trkpt>
      <trkpt lat="45.17022" lon="5.90747">
        <ele>1390.8</ele>
        <time>2021-04-10T09:41:18Z</time>
      </trkpt>
      <trkpt lat="45.17021" lon="5.90747">
        <ele>1391.2</ele>
        <time>2021-04-10T09:41:19Z</time>
      </trkpt>
      <trkpt lat="45.1702" lon="5.90746">
        <ele>1391.4</ele>
        <time>2021-04-10T09:41:20Z</time>
      </trkpt>
      <trkpt lat="45.17019" lon="5.90745">
        <ele>1391.4</ele>
        <time>2021-04-10T09:41:21Z</time>
      </trkpt>
      <trkpt lat="45.17018" lon="5.90745">
        <ele>1391.4</ele>
        <time>2021-04-10T09:41:22Z</time>
      </trkpt>
      <trkpt lat="45.17016" lon="5.90744">
        <ele>1391.4</ele>
        <time>2021-04-10T09:41:23Z</time>
      </trkpt>
      <trkpt lat="45.17015" lon="5.90744">
        <ele>1391.2</ele>
        <time>2021-04-10T09:41:24Z</time>
      </trkpt>
      <trkpt lat="45.17014" lon="5.90743">
        <ele>1391.4</ele>
        <time>2021-04-10T09:41:25Z</time>
      </trkpt>
      <trkpt lat="45.17013" lon="5.90743">
        <ele>1391.6</ele>
        <time>2021-04-10T09:41:26Z</time>
      </trkpt>
      <trkpt lat="45.17012" lon="5.90743">
        <ele>1391.8</ele>
        <time>2021-04-10T09:41:27Z</time>
      </trkpt>
      <trkpt lat="45.17011" lon="5.90744">
        <ele>1392</ele>
        <time>2021-04-10T09:41:28Z</time>
      </trkpt>
      <trkpt lat="45.17009" lon="5.90744">
        <ele>1392.4</ele>
        <time>2021-04-10T09:41:29Z</time>
      </trkpt>
      <trkpt lat="45.17008" lon="5.90744">
        <ele>1392.6</ele>
        <time>2021-04-10T09:41:30Z</time>
      </trkpt>
      <trkpt lat="45.17007" lon="5.90744">
        <ele>1393</ele>
        <time>2021-04-10T09:41:31Z</time>
      </trkpt>
      <trkpt lat="45.17006" lon="5.90744">
        <ele>1393.2</ele>
        <time>2021-04-10T09:41:32Z</time>
      </trkpt>
      <trkpt lat="45.17005" lon="5.90744">
        <ele>1393.2</ele>
        <time>2021-04-10T09:41:33Z</time>
      </trkpt>
      <trkpt lat="45.17004" lon="5.90744">
        <ele>1393.2</ele>
        <time>2021-04-10T09:41:34Z</time>
      </trkpt>
      <trkpt lat="45.17003" lon="5.90744">
        <ele>1393.4</ele>
        <time>2021-04-10T09:41:35Z</time>
      </trkpt>
      <trkpt lat="45.17002" lon="5.90745">
        <ele>1393.6</ele>
        <time>2021-04-10T09:41:36Z</time>
      </trkpt>
      <trkpt lat="45.17001" lon="5.90745">
        <ele>1393.8</ele>
        <time>2021-04-10T09:41:37Z</time>
      </trkpt>
      <trkpt lat="45.17" lon="5.90745">
        <ele>1394</ele>
        <time>2021-04-10T09:41:38Z</time>
      </trkpt>
      <trkpt lat="45.16999" lon="5.90745">
        <ele>1394.4</ele>
        <time>2021-04-10T09:41:39Z</time>
      </trkpt>
      <trkpt lat="45.16998" lon="5.90745">
        <ele>1394.6</ele>
        <time>2021-04-10T09:41:40Z</time>
      </trkpt>
      <trkpt lat="45.16997" lon="5.90745">
        <ele>1395</ele>
        <time>2021-04-10T09:41:41Z</time>
      </trkpt>
      <trkpt lat="45.16996" lon="5.90745">
        <ele>1395.2</ele>
        <time>2021-04-10T09:41:42Z</time>
      </trkpt>
      <trkpt lat="45.16995" lon="5.90745">
        <ele>1395.2</ele>
        <time>2021-04-10T09:41:43Z</time>
      </trkpt>
      <trkpt lat="45.16994" lon="5.90745">
        <ele>1394.8</ele>
        <time>2021-04-10T09:41:44Z</time>
      </trkpt>
      <trkpt lat="45.16993" lon="5.90745">
        <ele>1395</ele>
        <time>2021-04-10T09:41:45Z</time>
      </trkpt>
      <trkpt lat="45.16992" lon="5.90746">
        <ele>1395</ele>
        <time>2021-04-10T09:41:46Z</time>
      </trkpt>
      <trkpt lat="45.1699" lon="5.90746">
        <ele>1395.2</ele>
        <time>2021-04-10T09:41:47Z</time>
      </trkpt>
      <trkpt lat="45.16989" lon="5.90746">
        <ele>1395.4</ele>
        <time>2021-04-10T09:41:48Z</time>
      </trkpt>
      <trkpt lat="45.16988" lon="5.90747">
        <ele>1395.6</ele>
        <time>2021-04-10T09:41:49Z</time>
      </trkpt>
      <trkpt lat="45.16987" lon="5.90747">
        <ele>1395.8</ele>
        <time>2021-04-10T09:41:50Z</time>
      </trkpt>
      <trkpt lat="45.16986" lon="5.90747">
        <ele>1396</ele>
        <time>2021-04-10T09:41:51Z</time>
      </trkpt>
      <trkpt lat="45.16985" lon="5.90747">
        <ele>1395.8</ele>
        <time>2021-04-10T09:41:52Z</time>
      </trkpt>
      <trkpt lat="45.16984" lon="5.90748">
        <ele>1396</ele>
        <time>2021-04-10T09:41:53Z</time>
      </trkpt>
      <trkpt lat="45.16983" lon="5.90748">
        <ele>1396.4</ele>
        <time>2021-04-10T09:41:54Z</time>
      </trkpt>
      <trkpt lat="45.16983" lon="5.90748">
        <ele>1396.6</ele>
        <time>2021-04-10T09:41:55Z</time>
      </trkpt>
      <trkpt lat="45.16982" lon="5.90748">
        <ele>1397</ele>
        <time>2021-04-10T09:41:56Z</time>
      </trkpt>
      <trkpt lat="45.16981" lon="5.90748">
        <ele>1397.2</ele>
        <time>2021-04-10T09:41:57Z</time>
      </trkpt>
      <trkpt lat="45.1698" lon="5.90748">
        <ele>1397.4</ele>
        <time>2021-04-10T09:41:58Z</time>
      </trkpt>
      <trkpt lat="45.16979" lon="5.90748">
        <ele>1397.6</ele>
        <time>2021-04-10T09:41:59Z</time>
      </trkpt>
      <trkpt lat="45.16979" lon="5.90748">
        <ele>1397.6</ele>
        <time>2021-04-10T09:42:00Z</time>
      </trkpt>
      <trkpt lat="45.16978" lon="5.90748">
        <ele>1397.8</ele>
        <time>2021-04-10T09:42:01Z</time>
      </trkpt>
      <trkpt lat="45.16977" lon="5.90748">
        <ele>1397.8</ele>
        <time>2021-04-10T09:42:02Z</time>
      </trkpt>
      <trkpt lat="45.16976" lon="5.90748">
        <ele>1397.8</ele>
        <time>2021-04-10T09:42:03Z</time>
      </trkpt>
      <trkpt lat="45.16975" lon="5.90749">
        <ele>1398</ele>
        <time>2021-04-10T09:42:04Z</time>
      </trkpt>
      <trkpt lat="45.16974" lon="5.90749">
        <ele>1398</ele>
        <time>2021-04-10T09:42:05Z</time>
      </trkpt>
      <trkpt lat="45.16973" lon="5.9075">
        <ele>1398.4</ele>
        <time>2021-04-10T09:42:06Z</time>
      </trkpt>
      <trkpt lat="45.16972" lon="5.90751">
        <ele>1398.6</ele>
        <time>2021-04-10T09:42:07Z</time>
      </trkpt>
      <trkpt lat="45.16971" lon="5.90751">
        <ele>1398.6</ele>
        <time>2021-04-10T09:42:08Z</time>
      </trkpt>
      <trkpt lat="45.16969" lon="5.90752">
        <ele>1398.8</ele>
        <time>2021-04-10T09:42:09Z</time>
      </trkpt>
      <trkpt lat="45.16968" lon="5.90753">
        <ele>1399</ele>
        <time>2021-04-10T09:42:10Z</time>
      </trkpt>
      <trkpt lat="45.16967" lon="5.90754">
        <ele>1399.4</ele>
        <time>2021-04-10T09:42:11Z</time>
      </trkpt>
      <trkpt lat="45.16966" lon="5.90755">
        <ele>1399.8</ele>
        <time>2021-04-10T09:42:12Z</time>
      </trkpt>
      <trkpt lat="45.16965" lon="5.90756">
        <ele>1400</ele>
        <time>2021-04-10T09:42:13Z</time>
      </trkpt>
      <trkpt lat="45.16964" lon="5.90757">
        <ele>1400.4</ele>
        <time>2021-04-10T09:42:14Z</time>
      </trkpt>
      <trkpt lat="45.16963" lon="5.90758">
        <ele>1400.4</ele>
        <time>2021-04-10T09:42:15Z</time>
      </trkpt>
      <trkpt lat="45.16962" lon="5.90759">
        <ele>1400.8</ele>
        <time>2021-04-10T09:42:16Z</time>
      </trkpt>
      <trkpt lat="45.1696" lon="5.9076">
        <ele>1401</ele>
        <time>2021-04-10T09:42:17Z</time>
      </trkpt>
      <trkpt lat="45.16959" lon="5.90761">
        <ele>1401.2</ele>
        <time>2021-04-10T09:42:18Z</time>
      </trkpt>
      <trkpt lat="45.16958" lon="5.90762">
        <ele>1401.2</ele>
        <time>2021-04-10T09:42:19Z</time>
      </trkpt>
      <trkpt lat="45.16958" lon="5.90763">
        <ele>1401.2</ele>
        <time>2021-04-10T09:42:20Z</time>
      </trkpt>
      <trkpt lat="45.16957" lon="5.90764">
        <ele>1401</ele>
        <time>2021-04-10T09:42:21Z</time>
      </trkpt>
      <trkpt lat="45.16956" lon="5.90765">
        <ele>1401</ele>
        <time>2021-04-10T09:42:22Z</time>
      </trkpt>
      <trkpt lat="45.16955" lon="5.90766">
        <ele>1401</ele>
        <time>2021-04-10T09:42:23Z</time>
      </trkpt>
      <trkpt lat="45.16955" lon="5.90767">
        <ele>1401</ele>
        <time>2021-04-10T09:42:24Z</time>
      </trkpt>
      <trkpt lat="45.16954" lon="5.90768">
        <ele>1401.2</ele>
        <time>2021-04-10T09:42:25Z</time>
      </trkpt>
      <trkpt lat="45.16953" lon="5.9077">
        <ele>1401.4</ele>
        <time>2021-04-10T09:42:26Z</time>
      </trkpt>
      <trkpt lat="45.16952" lon="5.90771">
        <ele>1401.4</ele>
        <time>2021-04-10T09:42:27Z</time>
      </trkpt>
      <trkpt lat="45.16951" lon="5.90771">
        <ele>1401.8</ele>
        <time>2021-04-10T09:42:28Z</time>
      </trkpt>
      <trkpt lat="45.16949" lon="5.90772">
        <ele>1402</ele>
        <time>2021-04-10T09:42:29Z</time>
      </trkpt>
      <trkpt lat="45.16948" lon="5.90773">
        <ele>1402</ele>
        <time>2021-04-10T09:42:30Z</time>
      </trkpt>
      <trkpt lat="45.16946" lon="5.90773">
        <ele>1402.2</ele>
        <time>2021-04-10T09:42:31Z</time>
      </trkpt>
      <trkpt lat="45.16945" lon="5.90774">
        <ele>1402.6</ele>
        <time>2021-04-10T09:42:32Z</time>
      </trkpt>
      <trkpt lat="45.16943" lon="5.90774">
        <ele>1402.8</ele>
        <time>2021-04-10T09:42:33Z</time>
      </trkpt>
      <trkpt lat="45.16942" lon="5.90775">
        <ele>1403</ele>
        <time>2021-04-10T09:42:34Z</time>
      </trkpt>
      <trkpt lat="45.16941" lon="5.90775">
        <ele>1403</ele>
        <time>2021-04-10T09:42:35Z</time>
      </trkpt>
      <trkpt lat="45.1694" lon="5.90776">
        <ele>1403</ele>
        <time>2021-04-10T09:42:36Z</time>
      </trkpt>
      <trkpt lat="45.16938" lon="5.90776">
        <ele>1403.2</ele>
        <time>2021-04-10T09:42:37Z</time>
      </trkpt>
      <trkpt lat="45.16937" lon="5.90777">
        <ele>1403</ele>
        <time>2021-04-10T09:42:38Z</time>
      </trkpt>
      <trkpt lat="45.16936" lon="5.90777">
        <ele>1403.2</ele>
        <time>2021-04-10T09:42:39Z</time>
      </trkpt>
      <trkpt lat="45.16934" lon="5.90778">
        <ele>1403.4</ele>
        <time>2021-04-10T09:42:40Z</time>
      </trkpt>
      <trkpt lat="45.16933" lon="5.90778">
        <ele>1403.6</ele>
        <time>2021-04-10T09:42:41Z</time>
      </trkpt>
      <trkpt lat="45.16932" lon="5.90779">
        <ele>1404</ele>
        <time>2021-04-10T09:42:42Z</time>
      </trkpt>
      <trkpt lat="45.16931" lon="5.90779">
        <ele>1404.2</ele>
        <time>2021-04-10T09:42:43Z</time>
      </trkpt>
      <trkpt lat="45.1693" lon="5.90779">
        <ele>1404.2</ele>
        <time>2021-04-10T09:42:44Z</time>
      </trkpt>
      <trkpt lat="45.1693" lon="5.90779">
        <ele>1404.6</ele>
        <time>2021-04-10T09:42:45Z</time>
      </trkpt>
      <trkpt lat="45.16929" lon="5.90779">
        <ele>1404.6</ele>
        <time>2021-04-10T09:42:46Z</time>
      </trkpt>
      <trkpt lat="45.16928" lon="5.90779">
        <ele>1404.8</ele>
        <time>2021-04-10T09:42:47Z</time>
      </trkpt>
      <trkpt lat="45.16927" lon="5.9078">
        <ele>1405</ele>
        <time>2021-04-10T09:42:48Z</time>
      </trkpt>
      <trkpt lat="45.16926" lon="5.9078">
        <ele>1405</ele>
        <time>2021-04-10T09:42:49Z</time>
      </trkpt>
      <trkpt lat="45.16925" lon="5.9078">
        <ele>1405</ele>
        <time>2021-04-10T09:42:50Z</time>
      </trkpt>
      <trkpt lat="45.16924" lon="5.9078">
        <ele>1404.8</ele>
        <time>2021-04-10T09:42:51Z</time>
      </trkpt>
      <trkpt lat="45.16924" lon="5.90781">
        <ele>1405</ele>
        <time>2021-04-10T09:42:52Z</time>
      </trkpt>
      <trkpt lat="45.16923" lon="5.90781">
        <ele>1405.2</ele>
        <time>2021-04-10T09:42:53Z</time>
      </trkpt>
      <trkpt lat="45.16923" lon="5.90781">
        <ele>1405.4</ele>
        <time>2021-04-10T09:42:54Z</time>
      </trkpt>
      <trkpt lat="45.16922" lon="5.90781">
        <ele>1405.6</ele>
        <time>2021-04-10T09:42:55Z</time>
      </trkpt>
      <trkpt lat="45.16922" lon="5.90782">
        <ele>1405.8</ele>
        <time>2021-04-10T09:42:56Z</time>
      </trkpt>
      <trkpt lat="45.16921" lon="5.90782">
        <ele>1406</ele>
        <time>2021-04-10T09:42:57Z</time>
      </trkpt>
      <trkpt lat="45.16921" lon="5.90782">
        <ele>1406.2</ele>
        <time>2021-04-10T09:42:58Z</time>
      </trkpt>
      <trkpt lat="45.1692" lon="5.90782">
        <ele>1406.6</ele>
        <time>2021-04-10T09:42:59Z</time>
      </trkpt>
      <trkpt lat="45.1692" lon="5.90783">
        <ele>1406.8</ele>
        <time>2021-04-10T09:43:00Z</time>
      </trkpt>
      <trkpt lat="45.16919" lon="5.90783">
        <ele>1406.8</ele>
        <time>2021-04-10T09:43:01Z</time>
      </trkpt>
      <trkpt lat="45.16919" lon="5.90783">
        <ele>1407</ele>
        <time>2021-04-10T09:43:02Z</time>
      </trkpt>
      <trkpt lat="45.16918" lon="5.90784">
        <ele>1407</ele>
        <time>2021-04-10T09:43:03Z</time>
      </trkpt>
      <trkpt lat="45.16918" lon="5.90784">
        <ele>1407</ele>
        <time>2021-04-10T09:43:04Z</time>
      </trkpt>
      <trkpt lat="45.16917" lon="5.90784">
        <ele>1407</ele>
        <time>2021-04-10T09:43:05Z</time>
      </trkpt>
      <trkpt lat="45.16917" lon="5.90784">
        <ele>1407.2</ele>
        <time>2021-04-10T09:43:06Z</time>
      </trkpt>
      <trkpt lat="45.16916" lon="5.90785">
        <ele>1407.2</ele>
        <time>2021-04-10T09:43:07Z</time>
      </trkpt>
      <trkpt lat="45.16916" lon="5.90785">
        <ele>1407.4</ele>
        <time>2021-04-10T09:43:08Z</time>
      </trkpt>
      <trkpt lat="45.16915" lon="5.90785">
        <ele>1407.6</ele>
        <time>2021-04-10T09:43:09Z</time>
      </trkpt>
      <trkpt lat="45.16914" lon="5.90785">
        <ele>1407.8</ele>
        <time>2021-04-10T09:43:10Z</time>
      </trkpt>
      <trkpt lat="45.16913" lon="5.90785">
        <ele>1408.2</ele>
        <time>2021-04-10T09:43:11Z</time>
      </trkpt>
      <trkpt lat="45.16912" lon="5.90785">
        <ele>1408.4</ele>
        <time>2021-04-10T09:43:12Z</time>
      </trkpt>
      <trkpt lat="45.16911" lon="5.90784">
        <ele>1408.4</ele>
        <time>2021-04-10T09:43:13Z</time>
      </trkpt>
      <trkpt lat="45.1691" lon="5.90784">
        <ele>1408.4</ele>
        <time>2021-04-10T09:43:14Z</time>
      </trkpt>
      <trkpt lat="45.16908" lon="5.90784">
        <ele>1408.6</ele>
        <time>2021-04-10T09:43:15Z</time>
      </trkpt>
      <trkpt lat="45.16907" lon="5.90784">
        <ele>1408.4</ele>
        <time>2021-04-10T09:43:16Z</time>
      </trkpt>
      <trkpt lat="45.16906" lon="5.90784">
        <ele>1408.4</ele>
        <time>2021-04-10T09:43:17Z</time>
      </trkpt>
      <trkpt lat="45.16904" lon="5.90783">
        <ele>1408.6</ele>
        <time>2021-04-10T09:43:18Z</time>
      </trkpt>
      <trkpt lat="45.16902" lon="5.90782">
        <ele>1408.8</ele>
        <time>2021-04-10T09:43:19Z</time>
      </trkpt>
      <trkpt lat="45.16901" lon="5.90781">
        <ele>1409</ele>
        <time>2021-04-10T09:43:20Z</time>
      </trkpt>
      <trkpt lat="45.16899" lon="5.9078">
        <ele>1409.2</ele>
        <time>2021-04-10T09:43:21Z</time>
      </trkpt>
      <trkpt lat="45.16897" lon="5.90779">
        <ele>1409.6</ele>
        <time>2021-04-10T09:43:22Z</time>
      </trkpt>
      <trkpt lat="45.16896" lon="5.90777">
        <ele>1410</ele>
        <time>2021-04-10T09:43:23Z</time>
      </trkpt>
      <trkpt lat="45.16895" lon="5.90776">
        <ele>1410</ele>
        <time>2021-04-10T09:43:24Z</time>
      </trkpt>
      <trkpt lat="45.16893" lon="5.90775">
        <ele>1410.4</ele>
        <time>2021-04-10T09:43:25Z</time>
      </trkpt>
      <trkpt lat="45.16892" lon="5.90774">
        <ele>1410.4</ele>
        <time>2021-04-10T09:43:26Z</time>
      </trkpt>
      <trkpt lat="45.16891" lon="5.90772">
        <ele>1410.4</ele>
        <time>2021-04-10T09:43:27Z</time>
      </trkpt>
      <trkpt lat="45.1689" lon="5.90771">
        <ele>1410.4</ele>
        <time>2021-04-10T09:43:28Z</time>
      </trkpt>
      <trkpt lat="45.16889" lon="5.90771">
        <ele>1410.4</ele>
        <time>2021-04-10T09:43:29Z</time>
      </trkpt>
      <trkpt lat="45.16888" lon="5.90771">
        <ele>1410.6</ele>
        <time>2021-04-10T09:43:30Z</time>
      </trkpt>
      <trkpt lat="45.16887" lon="5.90771">
        <ele>1410.6</ele>
        <time>2021-04-10T09:43:31Z</time>
      </trkpt>
      <trkpt lat="45.16887" lon="5.90771">
        <ele>1410.8</ele>
        <time>2021-04-10T09:43:32Z</time>
      </trkpt>
      <trkpt lat="45.16886" lon="5.9077">
        <ele>1410.8</ele>
        <time>2021-04-10T09:43:33Z</time>
      </trkpt>
      <trkpt lat="45.16885" lon="5.9077">
        <ele>1411.2</ele>
        <time>2021-04-10T09:43:34Z</time>
      </trkpt>
      <trkpt lat="45.16884" lon="5.9077">
        <ele>1411.6</ele>
        <time>2021-04-10T09:43:35Z</time>
      </trkpt>
      <trkpt lat="45.16883" lon="5.9077">
        <ele>1411.8</ele>
        <time>2021-04-10T09:43:36Z</time>
      </trkpt>
      <trkpt lat="45.16883" lon="5.9077">
        <ele>1412.2</ele>
        <time>2021-04-10T09:43:37Z</time>
      </trkpt>
      <trkpt lat="45.16882" lon="5.9077">
        <ele>1412.4</ele>
        <time>2021-04-10T09:43:38Z</time>
      </trkpt>
      <trkpt lat="45.16881" lon="5.9077">
        <ele>1412.4</ele>
        <time>2021-04-10T09:43:39Z</time>
      </trkpt>
      <trkpt lat="45.1688" lon="5.9077">
        <ele>1412.2</ele>
        <time>2021-04-10T09:43:40Z</time>
      </trkpt>
      <trkpt lat="45.1688" lon="5.9077">
        <ele>1412.2</ele>
        <time>2021-04-10T09:43:41Z</time>
      </trkpt>
      <trkpt lat="45.16879" lon="5.9077">
        <ele>1412.4</ele>
        <time>2021-04-10T09:43:42Z</time>
      </trkpt>
      <trkpt lat="45.16879" lon="5.9077">
        <ele>1412.4</ele>
        <time>2021-04-10T09:43:43Z</time>
      </trkpt>
      <trkpt lat="45.16878" lon="5.9077">
        <ele>1412.6</ele>
        <time>2021-04-10T09:43:44Z</time>
      </trkpt>
      <trkpt lat="45.16878" lon="5.9077">
        <ele>1412.6</ele>
        <time>2021-04-10T09:43:45Z</time>
      </trkpt>
      <trkpt lat="45.16877" lon="5.9077">
        <ele>1412.8</ele>
        <time>2021-04-10T09:43:46Z</time>
      </trkpt>
      <trkpt lat="45.16877" lon="5.9077">
        <ele>1413</ele>
        <time>2021-04-10T09:43:47Z</time>
      </trkpt>
      <trkpt lat="45.16876" lon="5.9077">
        <ele>1413.2</ele>
        <time>2021-04-10T09:43:48Z</time>
      </trkpt>
      <trkpt lat="45.16876" lon="5.9077">
        <ele>1413.4</ele>
        <time>2021-04-10T09:43:49Z</time>
      </trkpt>
      <trkpt lat="45.16875" lon="5.9077">
        <ele>1413.6</ele>
        <time>2021-04-10T09:43:50Z</time>
      </trkpt>
      <trkpt lat="45.16875" lon="5.9077">
        <ele>1413.8</ele>
        <time>2021-04-10T09:43:51Z</time>
      </trkpt>
      <trkpt lat="45.16874" lon="5.9077">
        <ele>1414</ele>
        <time>2021-04-10T09:43:52Z</time>
      </trkpt>
      <trkpt lat="45.16874" lon="5.9077">
        <ele>1414.4</ele>
        <time>2021-04-10T09:43:53Z</time>
      </trkpt>
      <trkpt lat="45.16873" lon="5.9077">
        <ele>1414.4</ele>
        <time>2021-04-10T09:43:54Z</time>
      </trkpt>
      <trkpt lat="45.16873" lon="5.9077">
        <ele>1414.6</ele>
        <time>2021-04-10T09:43:55Z</time>
      </trkpt>
      <trkpt lat="45.16873" lon="5.9077">
        <ele>1414.6</ele>
        <time>2021-04-10T09:43:56Z</time>
      </trkpt>
      <trkpt lat="45.16872" lon="5.9077">
        <ele>1414.6</ele>
        <time>2021-04-10T09:43:57Z</time>
      </trkpt>
      <trkpt lat="45.16872" lon="5.90771">
        <ele>1414.6</ele>
        <time>2021-04-10T09:43:58Z</time>
      </trkpt>
      <trkpt lat="45.16871" lon="5.90771">
        <ele>1414.6</ele>
        <time>2021-04-10T09:43:59Z</time>
      </trkpt>
      <trkpt lat="45.1687" lon="5.9077">
        <ele>1414.6</ele>
        <time>2021-04-10T09:44:00Z</time>
      </trkpt>
      <trkpt lat="45.16869" lon="5.90769">
        <ele>1414.8</ele>
        <time>2021-04-10T09:44:01Z</time>
      </trkpt>
      <trkpt lat="45.16868" lon="5.90768">
        <ele>1415</ele>
        <time>2021-04-10T09:44:02Z</time>
      </trkpt>
      <trkpt lat="45.16867" lon="5.90767">
        <ele>1415.4</ele>
        <time>2021-04-10T09:44:03Z</time>
      </trkpt>
      <trkpt lat="45.16866" lon="5.90766">
        <ele>1415.8</ele>
        <time>2021-04-10T09:44:04Z</time>
      </trkpt>
      <trkpt lat="45.16865" lon="5.90765">
        <ele>1416</ele>
        <time>2021-04-10T09:44:05Z</time>
      </trkpt>
      <trkpt lat="45.16864" lon="5.90765">
        <ele>1416</ele>
        <time>2021-04-10T09:44:06Z</time>
      </trkpt>
      <trkpt lat="45.16863" lon="5.90764">
        <ele>1416.2</ele>
        <time>2021-04-10T09:44:07Z</time>
      </trkpt>
      <trkpt lat="45.16862" lon="5.90763">
        <ele>1416.2</ele>
        <time>2021-04-10T09:44:08Z</time>
      </trkpt>
      <trkpt lat="45.16861" lon="5.90762">
        <ele>1416.4</ele>
        <time>2021-04-10T09:44:09Z</time>
      </trkpt>
      <trkpt lat="45.1686" lon="5.90761">
        <ele>1416.2</ele>
        <time>2021-04-10T09:44:10Z</time>
      </trkpt>
      <trkpt lat="45.1686" lon="5.9076">
        <ele>1416.2</ele>
        <time>2021-04-10T09:44:11Z</time>
      </trkpt>
      <trkpt lat="45.16859" lon="5.90759">
        <ele>1416.4</ele>
        <time>2021-04-10T09:44:12Z</time>
      </trkpt>
      <trkpt lat="45.16858" lon="5.90758">
        <ele>1416.6</ele>
        <time>2021-04-10T09:44:13Z</time>
      </trkpt>
      <trkpt lat="45.16858" lon="5.90758">
        <ele>1416.6</ele>
        <time>2021-04-10T09:44:14Z</time>
      </trkpt>
      <trkpt lat="45.16857" lon="5.90757">
        <ele>1416.8</ele>
        <time>2021-04-10T09:44:15Z</time>
      </trkpt>
      <trkpt lat="45.16856" lon="5.90756">
        <ele>1417.2</ele>
        <time>2021-04-10T09:44:16Z</time>
      </trkpt>
      <trkpt lat="45.16856" lon="5.90755">
        <ele>1417.4</ele>
        <time>2021-04-10T09:44:17Z</time>
      </trkpt>
      <trkpt lat="45.16855" lon="5.90754">
        <ele>1417.6</ele>
        <time>2021-04-10T09:44:18Z</time>
      </trkpt>
      <trkpt lat="45.16854" lon="5.90752">
        <ele>1417.6</ele>
        <time>2021-04-10T09:44:19Z</time>
      </trkpt>
      <trkpt lat="45.16853" lon="5.90751">
        <ele>1418</ele>
        <time>2021-04-10T09:44:20Z</time>
      </trkpt>
      <trkpt lat="45.16852" lon="5.90749">
        <ele>1418</ele>
        <time>2021-04-10T09:44:21Z</time>
      </trkpt>
      <trkpt lat="45.16851" lon="5.90748">
        <ele>1418</ele>
        <time>2021-04-10T09:44:22Z</time>
      </trkpt>
      <trkpt lat="45.1685" lon="5.90746">
        <ele>1418</ele>
        <time>2021-04-10T09:44:23Z</time>
      </trkpt>
      <trkpt lat="45.1685" lon="5.90745">
        <ele>1418</ele>
        <time>2021-04-10T09:44:24Z</time>
      </trkpt>
      <trkpt lat="45.16848" lon="5.90742">
        <ele>1418</ele>
        <time>2021-04-10T09:44:25Z</time>
      </trkpt>
      <trkpt lat="45.16847" lon="5.9074">
        <ele>1418.2</ele>
        <time>2021-04-10T09:44:26Z</time>
      </trkpt>
      <trkpt lat="45.16845" lon="5.90738">
        <ele>1418.6</ele>
        <time>2021-04-10T09:44:27Z</time>
      </trkpt>
      <trkpt lat="45.16844" lon="5.90736">
        <ele>1418.8</ele>
        <time>2021-04-10T09:44:28Z</time>
      </trkpt>
      <trkpt lat="45.16842" lon="5.90734">
        <ele>1419</ele>
        <time>2021-04-10T09:44:29Z</time>
      </trkpt>
      <trkpt lat="45.16841" lon="5.90732">
        <ele>1419.4</ele>
        <time>2021-04-10T09:44:30Z</time>
      </trkpt>
      <trkpt lat="45.1684" lon="5.90731">
        <ele>1419.6</ele>
        <time>2021-04-10T09:44:31Z</time>
      </trkpt>
      <trkpt lat="45.16839" lon="5.90731">
        <ele>1419.8</ele>
        <time>2021-04-10T09:44:32Z</time>
      </trkpt>
      <trkpt lat="45.16839" lon="5.9073">
        <ele>1419.6</ele>
        <time>2021-04-10T09:44:33Z</time>
      </trkpt>
      <trkpt lat="45.16838" lon="5.90729">
        <ele>1419.6</ele>
        <time>2021-04-10T09:44:34Z</time>
      </trkpt>
      <trkpt lat="45.16837" lon="5.90728">
        <ele>1419.8</ele>
        <time>2021-04-10T09:44:35Z</time>
      </trkpt>
      <trkpt lat="45.16837" lon="5.90728">
        <ele>1420</ele>
        <time>2021-04-10T09:44:36Z</time>
      </trkpt>
      <trkpt lat="45.16836" lon="5.90727">
        <ele>1420</ele>
        <time>2021-04-10T09:44:37Z</time>
      </trkpt>
      <trkpt lat="45.16835" lon="5.90726">
        <ele>1420.4</ele>
        <time>2021-04-10T09:44:38Z</time>
      </trkpt>
      <trkpt lat="45.16835" lon="5.90726">
        <ele>1420.8</ele>
        <time>2021-04-10T09:44:39Z</time>
      </trkpt>
      <trkpt lat="45.16834" lon="5.90725">
        <ele>1421</ele>
        <time>2021-04-10T09:44:40Z</time>
      </trkpt>
      <trkpt lat="45.16833" lon="5.90724">
        <ele>1421</ele>
        <time>2021-04-10T09:44:41Z</time>
      </trkpt>
      <trkpt lat="45.16832" lon="5.90723">
        <ele>1421.2</ele>
        <time>2021-04-10T09:44:42Z</time>
      </trkpt>
      <trkpt lat="45.16832" lon="5.90723">
        <ele>1421.2</ele>
        <time>2021-04-10T09:44:43Z</time>
      </trkpt>
      <trkpt lat="45.16831" lon="5.90722">
        <ele>1421.2</ele>
        <time>2021-04-10T09:44:44Z</time>
      </trkpt>
      <trkpt lat="45.1683" lon="5.90721">
        <ele>1421.2</ele>
        <time>2021-04-10T09:44:45Z</time>
      </trkpt>
      <trkpt lat="45.1683" lon="5.9072">
        <ele>1421.8</ele>
        <time>2021-04-10T09:44:46Z</time>
      </trkpt>
      <trkpt lat="45.16829" lon="5.9072">
        <ele>1422</ele>
        <time>2021-04-10T09:44:47Z</time>
      </trkpt>
      <trkpt lat="45.16828" lon="5.90719">
        <ele>1422</ele>
        <time>2021-04-10T09:44:48Z</time>
      </trkpt>
      <trkpt lat="45.16827" lon="5.90718">
        <ele>1422.2</ele>
        <time>2021-04-10T09:44:49Z</time>
      </trkpt>
      <trkpt lat="45.16827" lon="5.90718">
        <ele>1422.4</ele>
        <time>2021-04-10T09:44:50Z</time>
      </trkpt>
      <trkpt lat="45.16826" lon="5.90717">
        <ele>1422.4</ele>
        <time>2021-04-10T09:44:51Z</time>
      </trkpt>
      <trkpt lat="45.16825" lon="5.90716">
        <ele>1422.2</ele>
        <time>2021-04-10T09:44:52Z</time>
      </trkpt>
      <trkpt lat="45.16825" lon="5.90715">
        <ele>1421.8</ele>
        <time>2021-04-10T09:44:53Z</time>
      </trkpt>
      <trkpt lat="45.16824" lon="5.90715">
        <ele>1421.4</ele>
        <time>2021-04-10T09:44:54Z</time>
      </trkpt>
      <trkpt lat="45.16823" lon="5.90714">
        <ele>1421.2</ele>
        <time>2021-04-10T09:44:55Z</time>
      </trkpt>
      <trkpt lat="45.16823" lon="5.90713">
        <ele>1421</ele>
        <time>2021-04-10T09:44:56Z</time>
      </trkpt>
      <trkpt lat="45.16822" lon="5.90712">
        <ele>1421</ele>
        <time>2021-04-10T09:44:57Z</time>
      </trkpt>
      <trkpt lat="45.16821" lon="5.90712">
        <ele>1420.8</ele>
        <time>2021-04-10T09:44:58Z</time>
      </trkpt>
      <trkpt lat="45.1682" lon="5.90711">
        <ele>1420.8</ele>
        <time>2021-04-10T09:44:59Z</time>
      </trkpt>
      <trkpt lat="45.1682" lon="5.9071">
        <ele>1421</ele>
        <time>2021-04-10T09:45:00Z</time>
      </trkpt>
      <trkpt lat="45.16819" lon="5.9071">
        <ele>1421.2</ele>
        <time>2021-04-10T09:45:01Z</time>
      </trkpt>
      <trkpt lat="45.16818" lon="5.90709">
        <ele>1421.4</ele>
        <time>2021-04-10T09:45:02Z</time>
      </trkpt>
      <trkpt lat="45.16818" lon="5.90708">
        <ele>1421.6</ele>
        <time>2021-04-10T09:45:03Z</time>
      </trkpt>
      <trkpt lat="45.16817" lon="5.90707">
        <ele>1421.8</ele>
        <time>2021-04-10T09:45:04Z</time>
      </trkpt>
      <trkpt lat="45.16816" lon="5.90707">
        <ele>1421.8</ele>
        <time>2021-04-10T09:45:05Z</time>
      </trkpt>
      <trkpt lat="45.16816" lon="5.90706">
        <ele>1422.2</ele>
        <time>2021-04-10T09:45:06Z</time>
      </trkpt>
      <trkpt lat="45.1681" lon="5.90704">
        <ele>1422.6</ele>
        <time>2021-04-10T09:45:07Z</time>
      </trkpt>
      <trkpt lat="45.16809" lon="5.90703">
        <ele>1423</ele>
        <time>2021-04-10T09:45:08Z</time>
      </trkpt>
      <trkpt lat="45.16808" lon="5.90702">
        <ele>1423.2</ele>
        <time>2021-04-10T09:45:09Z</time>
      </trkpt>
      <trkpt lat="45.16807" lon="5.90701">
        <ele>1423.2</ele>
        <time>2021-04-10T09:45:10Z</time>
      </trkpt>
      <trkpt lat="45.16806" lon="5.907">
        <ele>1423.4</ele>
        <time>2021-04-10T09:45:11Z</time>
      </trkpt>
      <trkpt lat="45.16805" lon="5.90699">
        <ele>1423.6</ele>
        <time>2021-04-10T09:45:12Z</time>
      </trkpt>
      <trkpt lat="45.16805" lon="5.90698">
        <ele>1423.6</ele>
        <time>2021-04-10T09:45:13Z</time>
      </trkpt>
      <trkpt lat="45.16804" lon="5.90697">
        <ele>1423.4</ele>
        <time>2021-04-10T09:45:14Z</time>
      </trkpt>
      <trkpt lat="45.16803" lon="5.90696">
        <ele>1423.2</ele>
        <time>2021-04-10T09:45:15Z</time>
      </trkpt>
      <trkpt lat="45.16802" lon="5.90695">
        <ele>1423.2</ele>
        <time>2021-04-10T09:45:16Z</time>
      </trkpt>
      <trkpt lat="45.16801" lon="5.90694">
        <ele>1423</ele>
        <time>2021-04-10T09:45:17Z</time>
      </trkpt>
      <trkpt lat="45.168" lon="5.90693">
        <ele>1423.2</ele>
        <time>2021-04-10T09:45:18Z</time>
      </trkpt>
      <trkpt lat="45.16799" lon="5.90692">
        <ele>1423.4</ele>
        <time>2021-04-10T09:45:19Z</time>
      </trkpt>
      <trkpt lat="45.16799" lon="5.90691">
        <ele>1423.4</ele>
        <time>2021-04-10T09:45:20Z</time>
      </trkpt>
      <trkpt lat="45.16798" lon="5.90691">
        <ele>1423.6</ele>
        <time>2021-04-10T09:45:21Z</time>
      </trkpt>
      <trkpt lat="45.16797" lon="5.9069">
        <ele>1423.6</ele>
        <time>2021-04-10T09:45:22Z</time>
      </trkpt>
      <trkpt lat="45.16796" lon="5.90689">
        <ele>1423.8</ele>
        <time>2021-04-10T09:45:23Z</time>
      </trkpt>
      <trkpt lat="45.16795" lon="5.90688">
        <ele>1424</ele>
        <time>2021-04-10T09:45:24Z</time>
      </trkpt>
      <trkpt lat="45.16794" lon="5.90687">
        <ele>1424.2</ele>
        <time>2021-04-10T09:45:25Z</time>
      </trkpt>
      <trkpt lat="45.16794" lon="5.90686">
        <ele>1424.6</ele>
        <time>2021-04-10T09:45:26Z</time>
      </trkpt>
      <trkpt lat="45.16793" lon="5.90685">
        <ele>1424.8</ele>
        <time>2021-04-10T09:45:27Z</time>
      </trkpt>
      <trkpt lat="45.16792" lon="5.90684">
        <ele>1425</ele>
        <time>2021-04-10T09:45:28Z</time>
      </trkpt>
      <trkpt lat="45.16791" lon="5.90683">
        <ele>1425.2</ele>
        <time>2021-04-10T09:45:29Z</time>
      </trkpt>
      <trkpt lat="45.1679" lon="5.90682">
        <ele>1425.2</ele>
        <time>2021-04-10T09:45:30Z</time>
      </trkpt>
      <trkpt lat="45.16786" lon="5.90676">
        <ele>1425.4</ele>
        <time>2021-04-10T09:45:31Z</time>
      </trkpt>
      <trkpt lat="45.16782" lon="5.9067">
        <ele>1425.6</ele>
        <time>2021-04-10T09:45:32Z</time>
      </trkpt>
      <trkpt lat="45.16779" lon="5.90664">
        <ele>1425.4</ele>
        <time>2021-04-10T09:45:33Z</time>
      </trkpt>
      <trkpt lat="45.16775" lon="5.90658">
        <ele>1425.6</ele>
        <time>2021-04-10T09:45:34Z</time>
      </trkpt>
      <trkpt lat="45.16767" lon="5.90653">
        <ele>1425.6</ele>
        <time>2021-04-10T09:45:35Z</time>
      </trkpt>
      <trkpt lat="45.16764" lon="5.90652">
        <ele>1425.6</ele>
        <time>2021-04-10T09:45:36Z</time>
      </trkpt>
      <trkpt lat="45.16758" lon="5.9065">
        <ele>1425.8</ele>
        <time>2021-04-10T09:45:37Z</time>
      </trkpt>
      <trkpt lat="45.16758" lon="5.9065">
        <ele>1426</ele>
        <time>2021-04-10T09:45:38Z</time>
      </trkpt>
      <trkpt lat="45.16756" lon="5.90648">
        <ele>1426.2</ele>
        <time>2021-04-10T09:45:39Z</time>
      </trkpt>
      <trkpt lat="45.16754" lon="5.90647">
        <ele>1426.2</ele>
        <time>2021-04-10T09:45:40Z</time>
      </trkpt>
      <trkpt lat="45.1675" lon="5.90644">
        <ele>1426.4</ele>
        <time>2021-04-10T09:45:41Z</time>
      </trkpt>
      <trkpt lat="45.1675" lon="5.90644">
        <ele>1426.4</ele>
        <time>2021-04-10T09:45:42Z</time>
      </trkpt>
      <trkpt lat="45.1675" lon="5.90644">
        <ele>1426.6</ele>
        <time>2021-04-10T09:45:43Z</time>
      </trkpt>
      <trkpt lat="45.1675" lon="5.90644">
        <ele>1426.6</ele>
        <time>2021-04-10T09:45:44Z</time>
      </trkpt>
      <trkpt lat="45.16748" lon="5.90642">
        <ele>1426.8</ele>
        <time>2021-04-10T09:45:45Z</time>
      </trkpt>
      <trkpt lat="45.16746" lon="5.9064">
        <ele>1427</ele>
        <time>2021-04-10T09:45:46Z</time>
      </trkpt>
      <trkpt lat="45.16744" lon="5.90639">
        <ele>1427.2</ele>
        <time>2021-04-10T09:45:47Z</time>
      </trkpt>
      <trkpt lat="45.16743" lon="5.90637">
        <ele>1427.6</ele>
        <time>2021-04-10T09:45:48Z</time>
      </trkpt>
      <trkpt lat="45.16741" lon="5.90635">
        <ele>1427.6</ele>
        <time>2021-04-10T09:45:49Z</time>
      </trkpt>
      <trkpt lat="45.1674" lon="5.90634">
        <ele>1427.6</ele>
        <time>2021-04-10T09:45:50Z</time>
      </trkpt>
      <trkpt lat="45.16739" lon="5.90633">
        <ele>1427.6</ele>
        <time>2021-04-10T09:45:51Z</time>
      </trkpt>
      <trkpt lat="45.16737" lon="5.90632">
        <ele>1427.6</ele>
        <time>2021-04-10T09:45:52Z</time>
      </trkpt>
      <trkpt lat="45.16736" lon="5.90631">
        <ele>1427.6</ele>
        <time>2021-04-10T09:45:53Z</time>
      </trkpt>
      <trkpt lat="45.16735" lon="5.9063">
        <ele>1427.6</ele>
        <time>2021-04-10T09:45:54Z</time>
      </trkpt>
      <trkpt lat="45.16734" lon="5.90629">
        <ele>1427.8</ele>
        <time>2021-04-10T09:45:55Z</time>
      </trkpt>
      <trkpt lat="45.16733" lon="5.90628">
        <ele>1427.8</ele>
        <time>2021-04-10T09:45:56Z</time>
      </trkpt>
      <trkpt lat="45.16731" lon="5.90627">
        <ele>1428</ele>
        <time>2021-04-10T09:45:57Z</time>
      </trkpt>
      <trkpt lat="45.1673" lon="5.90627">
        <ele>1428.2</ele>
        <time>2021-04-10T09:45:58Z</time>
      </trkpt>
      <trkpt lat="45.16729" lon="5.90627">
        <ele>1428.4</ele>
        <time>2021-04-10T09:45:59Z</time>
      </trkpt>
      <trkpt lat="45.16727" lon="5.90627">
        <ele>1428.6</ele>
        <time>2021-04-10T09:46:00Z</time>
      </trkpt>
      <trkpt lat="45.16726" lon="5.90627">
        <ele>1428.8</ele>
        <time>2021-04-10T09:46:01Z</time>
      </trkpt>
      <trkpt lat="45.16724" lon="5.90626">
        <ele>1429</ele>
        <time>2021-04-10T09:46:02Z</time>
      </trkpt>
      <trkpt lat="45.16723" lon="5.90626">
        <ele>1429</ele>
        <time>2021-04-10T09:46:03Z</time>
      </trkpt>
      <trkpt lat="45.16721" lon="5.90626">
        <ele>1429.4</ele>
        <time>2021-04-10T09:46:04Z</time>
      </trkpt>
      <trkpt lat="45.1672" lon="5.90625">
        <ele>1429.8</ele>
        <time>2021-04-10T09:46:05Z</time>
      </trkpt>
      <trkpt lat="45.16718" lon="5.90625">
        <ele>1429.8</ele>
        <time>2021-04-10T09:46:06Z</time>
      </trkpt>
      <trkpt lat="45.16717" lon="5.90625">
        <ele>1430</ele>
        <time>2021-04-10T09:46:07Z</time>
      </trkpt>
      <trkpt lat="45.16715" lon="5.90624">
        <ele>1430</ele>
        <time>2021-04-10T09:46:08Z</time>
      </trkpt>
      <trkpt lat="45.16713" lon="5.90624">
        <ele>1430</ele>
        <time>2021-04-10T09:46:09Z</time>
      </trkpt>
      <trkpt lat="45.16711" lon="5.90624">
        <ele>1430</ele>
        <time>2021-04-10T09:46:10Z</time>
      </trkpt>
      <trkpt lat="45.16709" lon="5.90624">
        <ele>1430</ele>
        <time>2021-04-10T09:46:11Z</time>
      </trkpt>
      <trkpt lat="45.16708" lon="5.90624">
        <ele>1430.2</ele>
        <time>2021-04-10T09:46:12Z</time>
      </trkpt>
      <trkpt lat="45.16706" lon="5.90623">
        <ele>1430.2</ele>
        <time>2021-04-10T09:46:13Z</time>
      </trkpt>
      <trkpt lat="45.16704" lon="5.90623">
        <ele>1430.6</ele>
        <time>2021-04-10T09:46:14Z</time>
      </trkpt>
      <trkpt lat="45.16702" lon="5.90623">
        <ele>1430.6</ele>
        <time>2021-04-10T09:46:15Z</time>
      </trkpt>
      <trkpt lat="45.167" lon="5.90623">
        <ele>1430.8</ele>
        <time>2021-04-10T09:46:16Z</time>
      </trkpt>
      <trkpt lat="45.16699" lon="5.90622">
        <ele>1430.8</ele>
        <time>2021-04-10T09:46:17Z</time>
      </trkpt>
      <trkpt lat="45.16697" lon="5.90622">
        <ele>1430.8</ele>
        <time>2021-04-10T09:46:18Z</time>
      </trkpt>
      <trkpt lat="45.16695" lon="5.90622">
        <ele>1430.8</ele>
        <time>2021-04-10T09:46:19Z</time>
      </trkpt>
      <trkpt lat="45.16693" lon="5.90621">
        <ele>1430.8</ele>
        <time>2021-04-10T09:46:20Z</time>
      </trkpt>
      <trkpt lat="45.16692" lon="5.90621">
        <ele>1431</ele>
        <time>2021-04-10T09:46:21Z</time>
      </trkpt>
      <trkpt lat="45.1669" lon="5.9062">
        <ele>1431.2</ele>
        <time>2021-04-10T09:46:22Z</time>
      </trkpt>
      <trkpt lat="45.16689" lon="5.90619">
        <ele>1431.4</ele>
        <time>2021-04-10T09:46:23Z</time>
      </trkpt>
      <trkpt lat="45.16687" lon="5.90618">
        <ele>1431.6</ele>
        <time>2021-04-10T09:46:24Z</time>
      </trkpt>
      <trkpt lat="45.16686" lon="5.90618">
        <ele>1432.2</ele>
        <time>2021-04-10T09:46:25Z</time>
      </trkpt>
      <trkpt lat="45.16684" lon="5.90617">
        <ele>1432.2</ele>
        <time>2021-04-10T09:46:26Z</time>
      </trkpt>
      <trkpt lat="45.16682" lon="5.90617">
        <ele>1432.6</ele>
        <time>2021-04-10T09:46:27Z</time>
      </trkpt>
      <trkpt lat="45.1668" lon="5.90616">
        <ele>1432.4</ele>
        <time>2021-04-10T09:46:28Z</time>
      </trkpt>
      <trkpt lat="45.16678" lon="5.90616">
        <ele>1432.6</ele>
        <time>2021-04-10T09:46:29Z</time>
      </trkpt>
      <trkpt lat="45.16677" lon="5.90616">
        <ele>1432.8</ele>
        <time>2021-04-10T09:46:30Z</time>
      </trkpt>
      <trkpt lat="45.16675" lon="5.90615">
        <ele>1433</ele>
        <time>2021-04-10T09:46:31Z</time>
      </trkpt>
      <trkpt lat="45.16673" lon="5.90615">
        <ele>1433</ele>
        <time>2021-04-10T09:46:32Z</time>
      </trkpt>
      <trkpt lat="45.1667" lon="5.90615">
        <ele>1433.2</ele>
        <time>2021-04-10T09:46:33Z</time>
      </trkpt>
      <trkpt lat="45.16668" lon="5.90614">
        <ele>1433.6</ele>
        <time>2021-04-10T09:46:34Z</time>
      </trkpt>
      <trkpt lat="45.16666" lon="5.90614">
        <ele>1433.8</ele>
        <time>2021-04-10T09:46:35Z</time>
      </trkpt>
      <trkpt lat="45.16664" lon="5.90614">
        <ele>1433.8</ele>
        <time>2021-04-10T09:46:36Z</time>
      </trkpt>
      <trkpt lat="45.16662" lon="5.90613">
        <ele>1433.8</ele>
        <time>2021-04-10T09:46:37Z</time>
      </trkpt>
      <trkpt lat="45.1666" lon="5.90613">
        <ele>1433.6</ele>
        <time>2021-04-10T09:46:38Z</time>
      </trkpt>
      <trkpt lat="45.16658" lon="5.90613">
        <ele>1433.8</ele>
        <time>2021-04-10T09:46:39Z</time>
      </trkpt>
      <trkpt lat="45.16655" lon="5.90613">
        <ele>1433.8</ele>
        <time>2021-04-10T09:46:40Z</time>
      </trkpt>
      <trkpt lat="45.16655" lon="5.90613">
        <ele>1433.8</ele>
        <time>2021-04-10T09:46:41Z</time>
      </trkpt>
      <trkpt lat="45.16655" lon="5.90613">
        <ele>1434.2</ele>
        <time>2021-04-10T09:46:42Z</time>
      </trkpt>
      <trkpt lat="45.16655" lon="5.90613">
        <ele>1434.4</ele>
        <time>2021-04-10T09:46:43Z</time>
      </trkpt>
      <trkpt lat="45.16654" lon="5.90612">
        <ele>1434.4</ele>
        <time>2021-04-10T09:46:44Z</time>
      </trkpt>
      <trkpt lat="45.16653" lon="5.90612">
        <ele>1434.4</ele>
        <time>2021-04-10T09:46:45Z</time>
      </trkpt>
      <trkpt lat="45.16651" lon="5.90612">
        <ele>1434.6</ele>
        <time>2021-04-10T09:46:46Z</time>
      </trkpt>
      <trkpt lat="45.1665" lon="5.90611">
        <ele>1434.6</ele>
        <time>2021-04-10T09:46:47Z</time>
      </trkpt>
      <trkpt lat="45.16649" lon="5.90611">
        <ele>1434.8</ele>
        <time>2021-04-10T09:46:48Z</time>
      </trkpt>
      <trkpt lat="45.16647" lon="5.90611">
        <ele>1435</ele>
        <time>2021-04-10T09:46:49Z</time>
      </trkpt>
      <trkpt lat="45.16646" lon="5.90611">
        <ele>1435.2</ele>
        <time>2021-04-10T09:46:50Z</time>
      </trkpt>
      <trkpt lat="45.16645" lon="5.90611">
        <ele>1435.4</ele>
        <time>2021-04-10T09:46:51Z</time>
      </trkpt>
      <trkpt lat="45.16644" lon="5.90611">
        <ele>1435.4</ele>
        <time>2021-04-10T09:46:52Z</time>
      </trkpt>
      <trkpt lat="45.16643" lon="5.90611">
        <ele>1435.2</ele>
        <time>2021-04-10T09:46:53Z</time>
      </trkpt>
      <trkpt lat="45.16642" lon="5.90611">
        <ele>1435.2</ele>
        <time>2021-04-10T09:46:54Z</time>
      </trkpt>
      <trkpt lat="45.16642" lon="5.90612">
        <ele>1435.4</ele>
        <time>2021-04-10T09:46:55Z</time>
      </trkpt>
      <trkpt lat="45.16641" lon="5.90612">
        <ele>1435.4</ele>
        <time>2021-04-10T09:46:56Z</time>
      </trkpt>
      <trkpt lat="45.1664" lon="5.90612">
        <ele>1435.8</ele>
        <time>2021-04-10T09:46:57Z</time>
      </trkpt>
      <trkpt lat="45.16639" lon="5.90612">
        <ele>1436.2</ele>
        <time>2021-04-10T09:46:58Z</time>
      </trkpt>
      <trkpt lat="45.16638" lon="5.90613">
        <ele>1436.4</ele>
        <time>2021-04-10T09:46:59Z</time>
      </trkpt>
      <trkpt lat="45.16637" lon="5.90613">
        <ele>1436.6</ele>
        <time>2021-04-10T09:47:00Z</time>
      </trkpt>
      <trkpt lat="45.16634" lon="5.9061">
        <ele>1436.8</ele>
        <time>2021-04-10T09:47:01Z</time>
      </trkpt>
      <trkpt lat="45.16631" lon="5.90608">
        <ele>1436.8</ele>
        <time>2021-04-10T09:47:02Z</time>
      </trkpt>
      <trkpt lat="45.16628" lon="5.90605">
        <ele>1436.8</ele>
        <time>2021-04-10T09:47:03Z</time>
      </trkpt>
      <trkpt lat="45.16625" lon="5.90603">
        <ele>1437</ele>
        <time>2021-04-10T09:47:04Z</time>
      </trkpt>
      <trkpt lat="45.16621" lon="5.906">
        <ele>1437.2</ele>
        <time>2021-04-10T09:47:05Z</time>
      </trkpt>
      <trkpt lat="45.16618" lon="5.90598">
        <ele>1437.4</ele>
        <time>2021-04-10T09:47:06Z</time>
      </trkpt>
      <trkpt lat="45.16617" lon="5.90596">
        <ele>1437.8</ele>
        <time>2021-04-10T09:47:07Z</time>
      </trkpt>
      <trkpt lat="45.16615" lon="5.90595">
        <ele>1437.8</ele>
        <time>2021-04-10T09:47:08Z</time>
      </trkpt>
      <trkpt lat="45.16614" lon="5.90594">
        <ele>1438</ele>
        <time>2021-04-10T09:47:09Z</time>
      </trkpt>
      <trkpt lat="45.1661" lon="5.90591">
        <ele>1438</ele>
        <time>2021-04-10T09:47:10Z</time>
      </trkpt>
      <trkpt lat="45.1661" lon="5.90591">
        <ele>1438</ele>
        <time>2021-04-10T09:47:11Z</time>
      </trkpt>
      <trkpt lat="45.1661" lon="5.90591">
        <ele>1438</ele>
        <time>2021-04-10T09:47:12Z</time>
      </trkpt>
      <trkpt lat="45.1661" lon="5.90591">
        <ele>1438</ele>
        <time>2021-04-10T09:47:13Z</time>
      </trkpt>
      <trkpt lat="45.16608" lon="5.9059">
        <ele>1438</ele>
        <time>2021-04-10T09:47:14Z</time>
      </trkpt>
      <trkpt lat="45.16607" lon="5.90589">
        <ele>1438.2</ele>
        <time>2021-04-10T09:47:15Z</time>
      </trkpt>
      <trkpt lat="45.16605" lon="5.90588">
        <ele>1438.4</ele>
        <time>2021-04-10T09:47:16Z</time>
      </trkpt>
      <trkpt lat="45.16604" lon="5.90588">
        <ele>1438.4</ele>
        <time>2021-04-10T09:47:17Z</time>
      </trkpt>
      <trkpt lat="45.16602" lon="5.90587">
        <ele>1438.6</ele>
        <time>2021-04-10T09:47:18Z</time>
      </trkpt>
      <trkpt lat="45.16601" lon="5.90586">
        <ele>1438.6</ele>
        <time>2021-04-10T09:47:19Z</time>
      </trkpt>
      <trkpt lat="45.166" lon="5.90586">
        <ele>1438.8</ele>
        <time>2021-04-10T09:47:20Z</time>
      </trkpt>
      <trkpt lat="45.16599" lon="5.90586">
        <ele>1439</ele>
        <time>2021-04-10T09:47:21Z</time>
      </trkpt>
      <trkpt lat="45.16598" lon="5.90586">
        <ele>1439.2</ele>
        <time>2021-04-10T09:47:22Z</time>
      </trkpt>
      <trkpt lat="45.16597" lon="5.90586">
        <ele>1439.6</ele>
        <time>2021-04-10T09:47:23Z</time>
      </trkpt>
      <trkpt lat="45.16596" lon="5.90586">
        <ele>1439.8</ele>
        <time>2021-04-10T09:47:24Z</time>
      </trkpt>
      <trkpt lat="45.16595" lon="5.90586">
        <ele>1440</ele>
        <time>2021-04-10T09:47:25Z</time>
      </trkpt>
      <trkpt lat="45.16594" lon="5.90586">
        <ele>1440</ele>
        <time>2021-04-10T09:47:26Z</time>
      </trkpt>
      <trkpt lat="45.16593" lon="5.90586">
        <ele>1440.2</ele>
        <time>2021-04-10T09:47:27Z</time>
      </trkpt>
      <trkpt lat="45.16592" lon="5.90586">
        <ele>1440.2</ele>
        <time>2021-04-10T09:47:28Z</time>
      </trkpt>
      <trkpt lat="45.16591" lon="5.90586">
        <ele>1440.2</ele>
        <time>2021-04-10T09:47:29Z</time>
      </trkpt>
      <trkpt lat="45.1659" lon="5.90586">
        <ele>1440.4</ele>
        <time>2021-04-10T09:47:30Z</time>
      </trkpt>
      <trkpt lat="45.16589" lon="5.90585">
        <ele>1440.6</ele>
        <time>2021-04-10T09:47:31Z</time>
      </trkpt>
      <trkpt lat="45.16587" lon="5.90584">
        <ele>1440.6</ele>
        <time>2021-04-10T09:47:32Z</time>
      </trkpt>
      <trkpt lat="45.16585" lon="5.90582">
        <ele>1440.6</ele>
        <time>2021-04-10T09:47:33Z</time>
      </trkpt>
      <trkpt lat="45.16583" lon="5.90581">
        <ele>1440.8</ele>
        <time>2021-04-10T09:47:34Z</time>
      </trkpt>
      <trkpt lat="45.16582" lon="5.9058">
        <ele>1441.2</ele>
        <time>2021-04-10T09:47:35Z</time>
      </trkpt>
      <trkpt lat="45.1658" lon="5.90578">
        <ele>1441.2</ele>
        <time>2021-04-10T09:47:36Z</time>
      </trkpt>
      <trkpt lat="45.16579" lon="5.90577">
        <ele>1441.4</ele>
        <time>2021-04-10T09:47:37Z</time>
      </trkpt>
      <trkpt lat="45.16578" lon="5.90576">
        <ele>1441.4</ele>
        <time>2021-04-10T09:47:38Z</time>
      </trkpt>
      <trkpt lat="45.16577" lon="5.90575">
        <ele>1441.6</ele>
        <time>2021-04-10T09:47:39Z</time>
      </trkpt>
      <trkpt lat="45.16576" lon="5.90574">
        <ele>1441.6</ele>
        <time>2021-04-10T09:47:40Z</time>
      </trkpt>
      <trkpt lat="45.16575" lon="5.90573">
        <ele>1441.6</ele>
        <time>2021-04-10T09:47:41Z</time>
      </trkpt>
      <trkpt lat="45.16574" lon="5.90572">
        <ele>1441.8</ele>
        <time>2021-04-10T09:47:42Z</time>
      </trkpt>
      <trkpt lat="45.16572" lon="5.90571">
        <ele>1441.8</ele>
        <time>2021-04-10T09:47:43Z</time>
      </trkpt>
      <trkpt lat="45.1657" lon="5.9057">
        <ele>1442</ele>
        <time>2021-04-10T09:47:44Z</time>
      </trkpt>
      <trkpt lat="45.16569" lon="5.90569">
        <ele>1442.2</ele>
        <time>2021-04-10T09:47:45Z</time>
      </trkpt>
      <trkpt lat="45.16567" lon="5.90568">
        <ele>1442.4</ele>
        <time>2021-04-10T09:47:46Z</time>
      </trkpt>
      <trkpt lat="45.16566" lon="5.90567">
        <ele>1442.8</ele>
        <time>2021-04-10T09:47:47Z</time>
      </trkpt>
      <trkpt lat="45.16564" lon="5.90566">
        <ele>1443</ele>
        <time>2021-04-10T09:47:48Z</time>
      </trkpt>
      <trkpt lat="45.16562" lon="5.90566">
        <ele>1443.2</ele>
        <time>2021-04-10T09:47:49Z</time>
      </trkpt>
      <trkpt lat="45.16561" lon="5.90565">
        <ele>1443.4</ele>
        <time>2021-04-10T09:47:50Z</time>
      </trkpt>
      <trkpt lat="45.16559" lon="5.90565">
        <ele>1443.4</ele>
        <time>2021-04-10T09:47:51Z</time>
      </trkpt>
      <trkpt lat="45.16557" lon="5.90565">
        <ele>1443.6</ele>
        <time>2021-04-10T09:47:52Z</time>
      </trkpt>
      <trkpt lat="45.16555" lon="5.90564">
        <ele>1443.8</ele>
        <time>2021-04-10T09:47:53Z</time>
      </trkpt>
      <trkpt lat="45.16554" lon="5.90563">
        <ele>1444</ele>
        <time>2021-04-10T09:47:54Z</time>
      </trkpt>
      <trkpt lat="45.16553" lon="5.90563">
        <ele>1444</ele>
        <time>2021-04-10T09:47:55Z</time>
      </trkpt>
      <trkpt lat="45.16552" lon="5.90562">
        <ele>1444</ele>
        <time>2021-04-10T09:47:56Z</time>
      </trkpt>
      <trkpt lat="45.16551" lon="5.90561">
        <ele>1444.2</ele>
        <time>2021-04-10T09:47:57Z</time>
      </trkpt>
      <trkpt lat="45.1655" lon="5.90561">
        <ele>1444.4</ele>
        <time>2021-04-10T09:47:58Z</time>
      </trkpt>
      <trkpt lat="45.16549" lon="5.9056">
        <ele>1444.4</ele>
        <time>2021-04-10T09:47:59Z</time>
      </trkpt>
      <trkpt lat="45.16548" lon="5.90559">
        <ele>1444.6</ele>
        <time>2021-04-10T09:48:00Z</time>
      </trkpt>
      <trkpt lat="45.16547" lon="5.90558">
        <ele>1445</ele>
        <time>2021-04-10T09:48:01Z</time>
      </trkpt>
      <trkpt lat="45.16546" lon="5.90558">
        <ele>1445.2</ele>
        <time>2021-04-10T09:48:02Z</time>
      </trkpt>
      <trkpt lat="45.16545" lon="5.90556">
        <ele>1445.4</ele>
        <time>2021-04-10T09:48:03Z</time>
      </trkpt>
      <trkpt lat="45.16543" lon="5.90555">
        <ele>1445.4</ele>
        <time>2021-04-10T09:48:04Z</time>
      </trkpt>
      <trkpt lat="45.16542" lon="5.90554">
        <ele>1445.4</ele>
        <time>2021-04-10T09:48:05Z</time>
      </trkpt>
      <trkpt lat="45.1654" lon="5.90552">
        <ele>1445.2</ele>
        <time>2021-04-10T09:48:06Z</time>
      </trkpt>
      <trkpt lat="45.16539" lon="5.90551">
        <ele>1445.4</ele>
        <time>2021-04-10T09:48:07Z</time>
      </trkpt>
      <trkpt lat="45.16537" lon="5.9055">
        <ele>1445.6</ele>
        <time>2021-04-10T09:48:08Z</time>
      </trkpt>
      <trkpt lat="45.16535" lon="5.90549">
        <ele>1445.8</ele>
        <time>2021-04-10T09:48:09Z</time>
      </trkpt>
      <trkpt lat="45.16534" lon="5.90548">
        <ele>1445.8</ele>
        <time>2021-04-10T09:48:10Z</time>
      </trkpt>
      <trkpt lat="45.16532" lon="5.90547">
        <ele>1446</ele>
        <time>2021-04-10T09:48:11Z</time>
      </trkpt>
      <trkpt lat="45.1653" lon="5.90546">
        <ele>1446.2</ele>
        <time>2021-04-10T09:48:12Z</time>
      </trkpt>
      <trkpt lat="45.16529" lon="5.90544">
        <ele>1446.4</ele>
        <time>2021-04-10T09:48:13Z</time>
      </trkpt>
      <trkpt lat="45.16527" lon="5.90543">
        <ele>1446.6</ele>
        <time>2021-04-10T09:48:14Z</time>
      </trkpt>
      <trkpt lat="45.16526" lon="5.90542">
        <ele>1446.6</ele>
        <time>2021-04-10T09:48:15Z</time>
      </trkpt>
      <trkpt lat="45.16524" lon="5.9054">
        <ele>1446.8</ele>
        <time>2021-04-10T09:48:16Z</time>
      </trkpt>
      <trkpt lat="45.16523" lon="5.90539">
        <ele>1446.8</ele>
        <time>2021-04-10T09:48:17Z</time>
      </trkpt>
      <trkpt lat="45.16521" lon="5.90537">
        <ele>1446.8</ele>
        <time>2021-04-10T09:48:18Z</time>
      </trkpt>
      <trkpt lat="45.16519" lon="5.90536">
        <ele>1447</ele>
        <time>2021-04-10T09:48:19Z</time>
      </trkpt>
      <trkpt lat="45.16517" lon="5.90536">
        <ele>1447</ele>
        <time>2021-04-10T09:48:20Z</time>
      </trkpt>
      <trkpt lat="45.16516" lon="5.90535">
        <ele>1447.2</ele>
        <time>2021-04-10T09:48:21Z</time>
      </trkpt>
      <trkpt lat="45.16514" lon="5.90534">
        <ele>1447.2</ele>
        <time>2021-04-10T09:48:22Z</time>
      </trkpt>
      <trkpt lat="45.16512" lon="5.90533">
        <ele>1447.2</ele>
        <time>2021-04-10T09:48:23Z</time>
      </trkpt>
      <trkpt lat="45.16511" lon="5.90531">
        <ele>1447.4</ele>
        <time>2021-04-10T09:48:24Z</time>
      </trkpt>
      <trkpt lat="45.16511" lon="5.9053">
        <ele>1447.8</ele>
        <time>2021-04-10T09:48:25Z</time>
      </trkpt>
      <trkpt lat="45.16511" lon="5.9053">
        <ele>1448</ele>
        <time>2021-04-10T09:48:26Z</time>
      </trkpt>
      <trkpt lat="45.1651" lon="5.90529">
        <ele>1448.2</ele>
        <time>2021-04-10T09:48:27Z</time>
      </trkpt>
      <trkpt lat="45.1651" lon="5.90528">
        <ele>1448.2</ele>
        <time>2021-04-10T09:48:28Z</time>
      </trkpt>
      <trkpt lat="45.16509" lon="5.90528">
        <ele>1448.2</ele>
        <time>2021-04-10T09:48:29Z</time>
      </trkpt>
      <trkpt lat="45.16509" lon="5.90527">
        <ele>1448.2</ele>
        <time>2021-04-10T09:48:30Z</time>
      </trkpt>
      <trkpt lat="45.16508" lon="5.90526">
        <ele>1448.2</ele>
        <time>2021-04-10T09:48:31Z</time>
      </trkpt>
      <trkpt lat="45.16508" lon="5.90526">
        <ele>1448.4</ele>
        <time>2021-04-10T09:48:32Z</time>
      </trkpt>
      <trkpt lat="45.16507" lon="5.90525">
        <ele>1448.4</ele>
        <time>2021-04-10T09:48:33Z</time>
      </trkpt>
      <trkpt lat="45.16507" lon="5.90524">
        <ele>1448.4</ele>
        <time>2021-04-10T09:48:34Z</time>
      </trkpt>
      <trkpt lat="45.16507" lon="5.90524">
        <ele>1448.6</ele>
        <time>2021-04-10T09:48:35Z</time>
      </trkpt>
      <trkpt lat="45.16506" lon="5.90523">
        <ele>1448.8</ele>
        <time>2021-04-10T09:48:36Z</time>
      </trkpt>
      <trkpt lat="45.16506" lon="5.90522">
        <ele>1448.8</ele>
        <time>2021-04-10T09:48:37Z</time>
      </trkpt>
      <trkpt lat="45.16505" lon="5.90522">
        <ele>1449</ele>
        <time>2021-04-10T09:48:38Z</time>
      </trkpt>
      <trkpt lat="45.16505" lon="5.90521">
        <ele>1449</ele>
        <time>2021-04-10T09:48:39Z</time>
      </trkpt>
      <trkpt lat="45.16504" lon="5.9052">
        <ele>1449.2</ele>
        <time>2021-04-10T09:48:40Z</time>
      </trkpt>
      <trkpt lat="45.16504" lon="5.9052">
        <ele>1449.4</ele>
        <time>2021-04-10T09:48:41Z</time>
      </trkpt>
      <trkpt lat="45.16504" lon="5.90519">
        <ele>1449.8</ele>
        <time>2021-04-10T09:48:42Z</time>
      </trkpt>
      <trkpt lat="45.16503" lon="5.90518">
        <ele>1450.2</ele>
        <time>2021-04-10T09:48:43Z</time>
      </trkpt>
      <trkpt lat="45.16503" lon="5.90518">
        <ele>1450.2</ele>
        <time>2021-04-10T09:48:44Z</time>
      </trkpt>
      <trkpt lat="45.16502" lon="5.90517">
        <ele>1450.2</ele>
        <time>2021-04-10T09:48:45Z</time>
      </trkpt>
      <trkpt lat="45.16502" lon="5.90516">
        <ele>1450.4</ele>
        <time>2021-04-10T09:48:46Z</time>
      </trkpt>
      <trkpt lat="45.16501" lon="5.90516">
        <ele>1450.6</ele>
        <time>2021-04-10T09:48:47Z</time>
      </trkpt>
      <trkpt lat="45.16501" lon="5.90515">
        <ele>1450.6</ele>
        <time>2021-04-10T09:48:48Z</time>
      </trkpt>
      <trkpt lat="45.165" lon="5.90514">
        <ele>1450.8</ele>
        <time>2021-04-10T09:48:49Z</time>
      </trkpt>
      <trkpt lat="45.165" lon="5.90514">
        <ele>1450.8</ele>
        <time>2021-04-10T09:48:50Z</time>
      </trkpt>
      <trkpt lat="45.165" lon="5.90513">
        <ele>1451</ele>
        <time>2021-04-10T09:48:51Z</time>
      </trkpt>
      <trkpt lat="45.16499" lon="5.90512">
        <ele>1450.8</ele>
        <time>2021-04-10T09:48:52Z</time>
      </trkpt>
      <trkpt lat="45.16499" lon="5.90512">
        <ele>1450.8</ele>
        <time>2021-04-10T09:48:53Z</time>
      </trkpt>
      <trkpt lat="45.16498" lon="5.90511">
        <ele>1450.8</ele>
        <time>2021-04-10T09:48:54Z</time>
      </trkpt>
      <trkpt lat="45.16498" lon="5.9051">
        <ele>1450.8</ele>
        <time>2021-04-10T09:48:55Z</time>
      </trkpt>
      <trkpt lat="45.16497" lon="5.9051">
        <ele>1450.8</ele>
        <time>2021-04-10T09:48:56Z</time>
      </trkpt>
      <trkpt lat="45.16497" lon="5.90509">
        <ele>1450.8</ele>
        <time>2021-04-10T09:48:57Z</time>
      </trkpt>
      <trkpt lat="45.16496" lon="5.90508">
        <ele>1450.8</ele>
        <time>2021-04-10T09:48:58Z</time>
      </trkpt>
      <trkpt lat="45.16496" lon="5.90508">
        <ele>1450.8</ele>
        <time>2021-04-10T09:48:59Z</time>
      </trkpt>
      <trkpt lat="45.16496" lon="5.90507">
        <ele>1450.8</ele>
        <time>2021-04-10T09:49:00Z</time>
      </trkpt>
      <trkpt lat="45.16495" lon="5.90506">
        <ele>1450.6</ele>
        <time>2021-04-10T09:49:01Z</time>
      </trkpt>
      <trkpt lat="45.16495" lon="5.90506">
        <ele>1450.6</ele>
        <time>2021-04-10T09:49:02Z</time>
      </trkpt>
      <trkpt lat="45.16494" lon="5.90505">
        <ele>1450.6</ele>
        <time>2021-04-10T09:49:03Z</time>
      </trkpt>
      <trkpt lat="45.16494" lon="5.90504">
        <ele>1450.6</ele>
        <time>2021-04-10T09:49:04Z</time>
      </trkpt>
      <trkpt lat="45.16493" lon="5.90504">
        <ele>1450.6</ele>
        <time>2021-04-10T09:49:05Z</time>
      </trkpt>
      <trkpt lat="45.16493" lon="5.90503">
        <ele>1450.8</ele>
        <time>2021-04-10T09:49:06Z</time>
      </trkpt>
      <trkpt lat="45.16493" lon="5.90502">
        <ele>1450.8</ele>
        <time>2021-04-10T09:49:07Z</time>
      </trkpt>
      <trkpt lat="45.16492" lon="5.90502">
        <ele>1450.8</ele>
        <time>2021-04-10T09:49:08Z</time>
      </trkpt>
      <trkpt lat="45.16492" lon="5.90501">
        <ele>1451</ele>
        <time>2021-04-10T09:49:09Z</time>
      </trkpt>
      <trkpt lat="45.16491" lon="5.905">
        <ele>1451</ele>
        <time>2021-04-10T09:49:10Z</time>
      </trkpt>
      <trkpt lat="45.16491" lon="5.905">
        <ele>1451.2</ele>
        <time>2021-04-10T09:49:11Z</time>
      </trkpt>
      <trkpt lat="45.1649" lon="5.90499">
        <ele>1451.2</ele>
        <time>2021-04-10T09:49:12Z</time>
      </trkpt>
      <trkpt lat="45.1649" lon="5.90498">
        <ele>1451.4</ele>
        <time>2021-04-10T09:49:13Z</time>
      </trkpt>
      <trkpt lat="45.16489" lon="5.90498">
        <ele>1451.4</ele>
        <time>2021-04-10T09:49:14Z</time>
      </trkpt>
      <trkpt lat="45.16489" lon="5.90497">
        <ele>1451.4</ele>
        <time>2021-04-10T09:49:15Z</time>
      </trkpt>
      <trkpt lat="45.16489" lon="5.90496">
        <ele>1451.4</ele>
        <time>2021-04-10T09:49:16Z</time>
      </trkpt>
      <trkpt lat="45.16488" lon="5.90496">
        <ele>1451.6</ele>
        <time>2021-04-10T09:49:17Z</time>
      </trkpt>
      <trkpt lat="45.16488" lon="5.90495">
        <ele>1451.6</ele>
        <time>2021-04-10T09:49:18Z</time>
      </trkpt>
      <trkpt lat="45.16487" lon="5.90494">
        <ele>1451.6</ele>
        <time>2021-04-10T09:49:19Z</time>
      </trkpt>
      <trkpt lat="45.16486" lon="5.90493">
        <ele>1451.8</ele>
        <time>2021-04-10T09:49:20Z</time>
      </trkpt>
      <trkpt lat="45.16485" lon="5.90491">
        <ele>1452</ele>
        <time>2021-04-10T09:49:21Z</time>
      </trkpt>
      <trkpt lat="45.16483" lon="5.90486">
        <ele>1452</ele>
        <time>2021-04-10T09:49:22Z</time>
      </trkpt>
      <trkpt lat="45.16483" lon="5.90486">
        <ele>1452.4</ele>
        <time>2021-04-10T09:49:23Z</time>
      </trkpt>
      <trkpt lat="45.16483" lon="5.90486">
        <ele>1452.2</ele>
        <time>2021-04-10T09:49:24Z</time>
      </trkpt>
      <trkpt lat="45.16483" lon="5.90486">
        <ele>1452.2</ele>
        <time>2021-04-10T09:49:25Z</time>
      </trkpt>
      <trkpt lat="45.16482" lon="5.90486">
        <ele>1452.2</ele>
        <time>2021-04-10T09:49:26Z</time>
      </trkpt>
      <trkpt lat="45.16481" lon="5.90486">
        <ele>1452.4</ele>
        <time>2021-04-10T09:49:27Z</time>
      </trkpt>
      <trkpt lat="45.16481" lon="5.90485">
        <ele>1452.6</ele>
        <time>2021-04-10T09:49:28Z</time>
      </trkpt>
      <trkpt lat="45.1648" lon="5.90485">
        <ele>1452.8</ele>
        <time>2021-04-10T09:49:29Z</time>
      </trkpt>
      <trkpt lat="45.16479" lon="5.90485">
        <ele>1452.8</ele>
        <time>2021-04-10T09:49:30Z</time>
      </trkpt>
      <trkpt lat="45.16479" lon="5.90484">
        <ele>1453</ele>
        <time>2021-04-10T09:49:31Z</time>
      </trkpt>
      <trkpt lat="45.16478" lon="5.90484">
        <ele>1453</ele>
        <time>2021-04-10T09:49:32Z</time>
      </trkpt>
      <trkpt lat="45.16477" lon="5.90484">
        <ele>1452.8</ele>
        <time>2021-04-10T09:49:33Z</time>
      </trkpt>
      <trkpt lat="45.16477" lon="5.90484">
        <ele>1452.8</ele>
        <time>2021-04-10T09:49:34Z</time>
      </trkpt>
      <trkpt lat="45.16476" lon="5.90483">
        <ele>1452.8</ele>
        <time>2021-04-10T09:49:35Z</time>
      </trkpt>
      <trkpt lat="45.16475" lon="5.90483">
        <ele>1453</ele>
        <time>2021-04-10T09:49:36Z</time>
      </trkpt>
      <trkpt lat="45.16475" lon="5.90483">
        <ele>1453.2</ele>
        <time>2021-04-10T09:49:37Z</time>
      </trkpt>
      <trkpt lat="45.16474" lon="5.90483">
        <ele>1453.2</ele>
        <time>2021-04-10T09:49:38Z</time>
      </trkpt>
      <trkpt lat="45.16473" lon="5.90482">
        <ele>1453.2</ele>
        <time>2021-04-10T09:49:39Z</time>
      </trkpt>
      <trkpt lat="45.16474" lon="5.90482">
        <ele>1453.4</ele>
        <time>2021-04-10T09:49:40Z</time>
      </trkpt>
      <trkpt lat="45.16475" lon="5.90482">
        <ele>1453.4</ele>
        <time>2021-04-10T09:49:41Z</time>
      </trkpt>
      <trkpt lat="45.16476" lon="5.90481">
        <ele>1453.6</ele>
        <time>2021-04-10T09:49:42Z</time>
      </trkpt>
      <trkpt lat="45.16477" lon="5.90481">
        <ele>1453.6</ele>
        <time>2021-04-10T09:49:43Z</time>
      </trkpt>
      <trkpt lat="45.16478" lon="5.90481">
        <ele>1453.6</ele>
        <time>2021-04-10T09:49:44Z</time>
      </trkpt>
      <trkpt lat="45.16479" lon="5.90481">
        <ele>1453.6</ele>
        <time>2021-04-10T09:49:45Z</time>
      </trkpt>
      <trkpt lat="45.1648" lon="5.9048">
        <ele>1453.6</ele>
        <time>2021-04-10T09:49:46Z</time>
      </trkpt>
      <trkpt lat="45.16481" lon="5.9048">
        <ele>1453.6</ele>
        <time>2021-04-10T09:49:47Z</time>
      </trkpt>
      <trkpt lat="45.16482" lon="5.9048">
        <ele>1453.6</ele>
        <time>2021-04-10T09:49:48Z</time>
      </trkpt>
      <trkpt lat="45.16484" lon="5.90481">
        <ele>1453.6</ele>
        <time>2021-04-10T09:49:49Z</time>
      </trkpt>
      <trkpt lat="45.16486" lon="5.90483">
        <ele>1453.6</ele>
        <time>2021-04-10T09:49:50Z</time>
      </trkpt>
      <trkpt lat="45.16488" lon="5.90485">
        <ele>1453.8</ele>
        <time>2021-04-10T09:49:51Z</time>
      </trkpt>
      <trkpt lat="45.1649" lon="5.90486">
        <ele>1453.6</ele>
        <time>2021-04-10T09:49:52Z</time>
      </trkpt>
      <trkpt lat="45.16492" lon="5.90488">
        <ele>1453.4</ele>
        <time>2021-04-10T09:49:53Z</time>
      </trkpt>
      <trkpt lat="45.16494" lon="5.9049">
        <ele>1453.4</ele>
        <time>2021-04-10T09:49:54Z</time>
      </trkpt>
      <trkpt lat="45.16496" lon="5.90492">
        <ele>1453</ele>
        <time>2021-04-10T09:49:55Z</time>
      </trkpt>
      <trkpt lat="45.16498" lon="5.90493">
        <ele>1452.8</ele>
        <time>2021-04-10T09:49:56Z</time>
      </trkpt>
      <trkpt lat="45.16504" lon="5.90499">
        <ele>1453</ele>
        <time>2021-04-10T09:49:57Z</time>
      </trkpt>
      <trkpt lat="45.16504" lon="5.90499">
        <ele>1452.6</ele>
        <time>2021-04-10T09:49:58Z</time>
      </trkpt>
      <trkpt lat="45.16504" lon="5.90499">
        <ele>1452.2</ele>
        <time>2021-04-10T09:49:59Z</time>
      </trkpt>
      <trkpt lat="45.16504" lon="5.90499">
        <ele>1451.2</ele>
        <time>2021-04-10T09:50:01Z</time>
      </trkpt>
      <trkpt lat="45.16503" lon="5.90497">
        <ele>1451.2</ele>
        <time>2021-04-10T09:50:02Z</time>
      </trkpt>
      <trkpt lat="45.16503" lon="5.90496">
        <ele>1451</ele>
        <time>2021-04-10T09:50:03Z</time>
      </trkpt>
      <trkpt lat="45.16503" lon="5.90495">
        <ele>1450.8</ele>
        <time>2021-04-10T09:50:04Z</time>
      </trkpt>
      <trkpt lat="45.16503" lon="5.90494">
        <ele>1450.2</ele>
        <time>2021-04-10T09:50:05Z</time>
      </trkpt>
      <trkpt lat="45.16503" lon="5.90493">
        <ele>1449.6</ele>
        <time>2021-04-10T09:50:06Z</time>
      </trkpt>
      <trkpt lat="45.16503" lon="5.90492">
        <ele>1449.6</ele>
        <time>2021-04-10T09:50:07Z</time>
      </trkpt>
      <trkpt lat="45.16503" lon="5.90491">
        <ele>1449.6</ele>
        <time>2021-04-10T09:50:08Z</time>
      </trkpt>
      <trkpt lat="45.16503" lon="5.9049">
        <ele>1449.2</ele>
        <time>2021-04-10T09:50:09Z</time>
      </trkpt>
      <trkpt lat="45.16503" lon="5.90488">
        <ele>1448.8</ele>
        <time>2021-04-10T09:50:10Z</time>
      </trkpt>
      <trkpt lat="45.16503" lon="5.90487">
        <ele>1449</ele>
        <time>2021-04-10T09:50:11Z</time>
      </trkpt>
      <trkpt lat="45.16503" lon="5.90486">
        <ele>1448.6</ele>
        <time>2021-04-10T09:50:12Z</time>
      </trkpt>
      <trkpt lat="45.16503" lon="5.90485">
        <ele>1447.8</ele>
        <time>2021-04-10T09:50:13Z</time>
      </trkpt>
      <trkpt lat="45.16502" lon="5.90482">
        <ele>1447</ele>
        <time>2021-04-10T09:50:14Z</time>
      </trkpt>
      <trkpt lat="45.16501" lon="5.90479">
        <ele>1446.4</ele>
        <time>2021-04-10T09:50:15Z</time>
      </trkpt>
      <trkpt lat="45.16499" lon="5.90475">
        <ele>1445.6</ele>
        <time>2021-04-10T09:50:16Z</time>
      </trkpt>
      <trkpt lat="45.16498" lon="5.90472">
        <ele>1445</ele>
        <time>2021-04-10T09:50:17Z</time>
      </trkpt>
      <trkpt lat="45.16497" lon="5.90469">
        <ele>1444.8</ele>
        <time>2021-04-10T09:50:18Z</time>
      </trkpt>
      <trkpt lat="45.16496" lon="5.90465">
        <ele>1444</ele>
        <time>2021-04-10T09:50:19Z</time>
      </trkpt>
      <trkpt lat="45.16495" lon="5.90462">
        <ele>1443</ele>
        <time>2021-04-10T09:50:20Z</time>
      </trkpt>
      <trkpt lat="45.16492" lon="5.90459">
        <ele>1442.4</ele>
        <time>2021-04-10T09:50:21Z</time>
      </trkpt>
      <trkpt lat="45.1649" lon="5.90456">
        <ele>1441.8</ele>
        <time>2021-04-10T09:50:22Z</time>
      </trkpt>
      <trkpt lat="45.16487" lon="5.90453">
        <ele>1441.8</ele>
        <time>2021-04-10T09:50:23Z</time>
      </trkpt>
      <trkpt lat="45.16487" lon="5.90453">
        <ele>1441.2</ele>
        <time>2021-04-10T09:50:24Z</time>
      </trkpt>
      <trkpt lat="45.16487" lon="5.90453">
        <ele>1441</ele>
        <time>2021-04-10T09:50:25Z</time>
      </trkpt>
      <trkpt lat="45.16487" lon="5.90453">
        <ele>1440.2</ele>
        <time>2021-04-10T09:50:26Z</time>
      </trkpt>
      <trkpt lat="45.16488" lon="5.9045">
        <ele>1439.8</ele>
        <time>2021-04-10T09:50:27Z</time>
      </trkpt>
      <trkpt lat="45.16489" lon="5.90447">
        <ele>1439.2</ele>
        <time>2021-04-10T09:50:28Z</time>
      </trkpt>
      <trkpt lat="45.16489" lon="5.90444">
        <ele>1438.2</ele>
        <time>2021-04-10T09:50:29Z</time>
      </trkpt>
      <trkpt lat="45.1649" lon="5.90442">
        <ele>1437.2</ele>
        <time>2021-04-10T09:50:30Z</time>
      </trkpt>
      <trkpt lat="45.16491" lon="5.90439">
        <ele>1437</ele>
        <time>2021-04-10T09:50:31Z</time>
      </trkpt>
      <trkpt lat="45.1649" lon="5.90437">
        <ele>1436.2</ele>
        <time>2021-04-10T09:50:32Z</time>
      </trkpt>
      <trkpt lat="45.16489" lon="5.90436">
        <ele>1435.6</ele>
        <time>2021-04-10T09:50:33Z</time>
      </trkpt>
      <trkpt lat="45.16488" lon="5.90434">
        <ele>1434.6</ele>
        <time>2021-04-10T09:50:34Z</time>
      </trkpt>
      <trkpt lat="45.16487" lon="5.90432">
        <ele>1434</ele>
        <time>2021-04-10T09:50:35Z</time>
      </trkpt>
      <trkpt lat="45.16486" lon="5.90431">
        <ele>1433.6</ele>
        <time>2021-04-10T09:50:36Z</time>
      </trkpt>
      <trkpt lat="45.16485" lon="5.90429">
        <ele>1432.8</ele>
        <time>2021-04-10T09:50:37Z</time>
      </trkpt>
      <trkpt lat="45.16483" lon="5.90429">
        <ele>1432.2</ele>
        <time>2021-04-10T09:50:38Z</time>
      </trkpt>
      <trkpt lat="45.16481" lon="5.90429">
        <ele>1431.4</ele>
        <time>2021-04-10T09:50:39Z</time>
      </trkpt>
      <trkpt lat="45.16479" lon="5.90429">
        <ele>1430.2</ele>
        <time>2021-04-10T09:50:40Z</time>
      </trkpt>
      <trkpt lat="45.16477" lon="5.90429">
        <ele>1430</ele>
        <time>2021-04-10T09:50:41Z</time>
      </trkpt>
      <trkpt lat="45.16475" lon="5.90429">
        <ele>1429.4</ele>
        <time>2021-04-10T09:50:42Z</time>
      </trkpt>
      <trkpt lat="45.16466" lon="5.90427">
        <ele>1429</ele>
        <time>2021-04-10T09:50:43Z</time>
      </trkpt>
      <trkpt lat="45.16464" lon="5.90427">
        <ele>1428</ele>
        <time>2021-04-10T09:50:44Z</time>
      </trkpt>
      <trkpt lat="45.16462" lon="5.90427">
        <ele>1427.2</ele>
        <time>2021-04-10T09:50:45Z</time>
      </trkpt>
      <trkpt lat="45.16461" lon="5.90427">
        <ele>1426.2</ele>
        <time>2021-04-10T09:50:46Z</time>
      </trkpt>
      <trkpt lat="45.16459" lon="5.90427">
        <ele>1425.6</ele>
        <time>2021-04-10T09:50:47Z</time>
      </trkpt>
      <trkpt lat="45.16451" lon="5.90427">
        <ele>1425.4</ele>
        <time>2021-04-10T09:50:48Z</time>
      </trkpt>
      <trkpt lat="45.16447" lon="5.90427">
        <ele>1424.8</ele>
        <time>2021-04-10T09:50:49Z</time>
      </trkpt>
      <trkpt lat="45.16444" lon="5.90427">
        <ele>1424.2</ele>
        <time>2021-04-10T09:50:50Z</time>
      </trkpt>
      <trkpt lat="45.16441" lon="5.90426">
        <ele>1423.4</ele>
        <time>2021-04-10T09:50:51Z</time>
      </trkpt>
      <trkpt lat="45.16439" lon="5.90426">
        <ele>1422.4</ele>
        <time>2021-04-10T09:50:52Z</time>
      </trkpt>
      <trkpt lat="45.16433" lon="5.90424">
        <ele>1421.2</ele>
        <time>2021-04-10T09:50:53Z</time>
      </trkpt>
      <trkpt lat="45.16428" lon="5.90423">
        <ele>1420.4</ele>
        <time>2021-04-10T09:50:54Z</time>
      </trkpt>
      <trkpt lat="45.16424" lon="5.90421">
        <ele>1419.4</ele>
        <time>2021-04-10T09:50:55Z</time>
      </trkpt>
      <trkpt lat="45.1642" lon="5.9042">
        <ele>1419</ele>
        <time>2021-04-10T09:50:56Z</time>
      </trkpt>
      <trkpt lat="45.16418" lon="5.9042">
        <ele>1418.4</ele>
        <time>2021-04-10T09:50:57Z</time>
      </trkpt>
      <trkpt lat="45.16416" lon="5.90419">
        <ele>1417.8</ele>
        <time>2021-04-10T09:50:58Z</time>
      </trkpt>
      <trkpt lat="45.1641" lon="5.90418">
        <ele>1417.6</ele>
        <time>2021-04-10T09:50:59Z</time>
      </trkpt>
      <trkpt lat="45.16406" lon="5.90416">
        <ele>1416.8</ele>
        <time>2021-04-10T09:51:00Z</time>
      </trkpt>
      <trkpt lat="45.16403" lon="5.90415">
        <ele>1416.2</ele>
        <time>2021-04-10T09:51:01Z</time>
      </trkpt>
      <trkpt lat="45.164" lon="5.90414">
        <ele>1416</ele>
        <time>2021-04-10T09:51:02Z</time>
      </trkpt>
      <trkpt lat="45.164" lon="5.90411">
        <ele>1415</ele>
        <time>2021-04-10T09:51:03Z</time>
      </trkpt>
      <trkpt lat="45.164" lon="5.90408">
        <ele>1414.8</ele>
        <time>2021-04-10T09:51:04Z</time>
      </trkpt>
      <trkpt lat="45.164" lon="5.90405">
        <ele>1414.4</ele>
        <time>2021-04-10T09:51:05Z</time>
      </trkpt>
      <trkpt lat="45.16401" lon="5.90395">
        <ele>1414</ele>
        <time>2021-04-10T09:51:06Z</time>
      </trkpt>
      <trkpt lat="45.16401" lon="5.90393">
        <ele>1413</ele>
        <time>2021-04-10T09:51:07Z</time>
      </trkpt>
      <trkpt lat="45.16401" lon="5.90392">
        <ele>1412.8</ele>
        <time>2021-04-10T09:51:08Z</time>
      </trkpt>
      <trkpt lat="45.16401" lon="5.9039">
        <ele>1412.4</ele>
        <time>2021-04-10T09:51:09Z</time>
      </trkpt>
      <trkpt lat="45.16402" lon="5.90383">
        <ele>1411.8</ele>
        <time>2021-04-10T09:51:10Z</time>
      </trkpt>
      <trkpt lat="45.16404" lon="5.90379">
        <ele>1410.8</ele>
        <time>2021-04-10T09:51:11Z</time>
      </trkpt>
      <trkpt lat="45.16405" lon="5.90375">
        <ele>1410.2</ele>
        <time>2021-04-10T09:51:12Z</time>
      </trkpt>
      <trkpt lat="45.16406" lon="5.90371">
        <ele>1409.6</ele>
        <time>2021-04-10T09:51:13Z</time>
      </trkpt>
      <trkpt lat="45.16408" lon="5.9037">
        <ele>1409.6</ele>
        <time>2021-04-10T09:51:14Z</time>
      </trkpt>
      <trkpt lat="45.16409" lon="5.90368">
        <ele>1408.8</ele>
        <time>2021-04-10T09:51:15Z</time>
      </trkpt>
      <trkpt lat="45.1641" lon="5.90366">
        <ele>1408.2</ele>
        <time>2021-04-10T09:51:16Z</time>
      </trkpt>
      <trkpt lat="45.16411" lon="5.90364">
        <ele>1408</ele>
        <time>2021-04-10T09:51:17Z</time>
      </trkpt>
      <trkpt lat="45.16416" lon="5.90357">
        <ele>1407.8</ele>
        <time>2021-04-10T09:51:18Z</time>
      </trkpt>
      <trkpt lat="45.16418" lon="5.90354">
        <ele>1407.8</ele>
        <time>2021-04-10T09:51:19Z</time>
      </trkpt>
      <trkpt lat="45.1642" lon="5.90352">
        <ele>1407</ele>
        <time>2021-04-10T09:51:20Z</time>
      </trkpt>
      <trkpt lat="45.16421" lon="5.9035">
        <ele>1406.6</ele>
        <time>2021-04-10T09:51:21Z</time>
      </trkpt>
      <trkpt lat="45.16423" lon="5.90347">
        <ele>1406.6</ele>
        <time>2021-04-10T09:51:22Z</time>
      </trkpt>
      <trkpt lat="45.16426" lon="5.90344">
        <ele>1406.2</ele>
        <time>2021-04-10T09:51:23Z</time>
      </trkpt>
      <trkpt lat="45.16427" lon="5.90342">
        <ele>1405.8</ele>
        <time>2021-04-10T09:51:24Z</time>
      </trkpt>
      <trkpt lat="45.16429" lon="5.90339">
        <ele>1405.2</ele>
        <time>2021-04-10T09:51:25Z</time>
      </trkpt>
      <trkpt lat="45.16431" lon="5.90337">
        <ele>1404.6</ele>
        <time>2021-04-10T09:51:26Z</time>
      </trkpt>
      <trkpt lat="45.16434" lon="5.90334">
        <ele>1404.4</ele>
        <time>2021-04-10T09:51:27Z</time>
      </trkpt>
      <trkpt lat="45.16437" lon="5.90332">
        <ele>1404</ele>
        <time>2021-04-10T09:51:28Z</time>
      </trkpt>
      <trkpt lat="45.16439" lon="5.9033">
        <ele>1403.4</ele>
        <time>2021-04-10T09:51:29Z</time>
      </trkpt>
      <trkpt lat="45.16441" lon="5.90328">
        <ele>1402.8</ele>
        <time>2021-04-10T09:51:30Z</time>
      </trkpt>
      <trkpt lat="45.16444" lon="5.90325">
        <ele>1402.2</ele>
        <time>2021-04-10T09:51:31Z</time>
      </trkpt>
      <trkpt lat="45.16447" lon="5.90322">
        <ele>1402.2</ele>
        <time>2021-04-10T09:51:32Z</time>
      </trkpt>
      <trkpt lat="45.16449" lon="5.9032">
        <ele>1401.6</ele>
        <time>2021-04-10T09:51:33Z</time>
      </trkpt>
      <trkpt lat="45.16451" lon="5.90318">
        <ele>1401.6</ele>
        <time>2021-04-10T09:51:34Z</time>
      </trkpt>
      <trkpt lat="45.16453" lon="5.90316">
        <ele>1401.4</ele>
        <time>2021-04-10T09:51:35Z</time>
      </trkpt>
      <trkpt lat="45.16455" lon="5.90313">
        <ele>1401</ele>
        <time>2021-04-10T09:51:36Z</time>
      </trkpt>
      <trkpt lat="45.16456" lon="5.9031">
        <ele>1400.4</ele>
        <time>2021-04-10T09:51:37Z</time>
      </trkpt>
      <trkpt lat="45.16457" lon="5.90307">
        <ele>1400.2</ele>
        <time>2021-04-10T09:51:38Z</time>
      </trkpt>
      <trkpt lat="45.16459" lon="5.90304">
        <ele>1400.2</ele>
        <time>2021-04-10T09:51:39Z</time>
      </trkpt>
      <trkpt lat="45.1646" lon="5.90301">
        <ele>1399.6</ele>
        <time>2021-04-10T09:51:40Z</time>
      </trkpt>
      <trkpt lat="45.16461" lon="5.90299">
        <ele>1398.8</ele>
        <time>2021-04-10T09:51:41Z</time>
      </trkpt>
      <trkpt lat="45.16463" lon="5.90296">
        <ele>1398.8</ele>
        <time>2021-04-10T09:51:42Z</time>
      </trkpt>
      <trkpt lat="45.16464" lon="5.90293">
        <ele>1398</ele>
        <time>2021-04-10T09:51:43Z</time>
      </trkpt>
      <trkpt lat="45.16465" lon="5.90291">
        <ele>1397.2</ele>
        <time>2021-04-10T09:51:44Z</time>
      </trkpt>
      <trkpt lat="45.16466" lon="5.90289">
        <ele>1396.6</ele>
        <time>2021-04-10T09:51:45Z</time>
      </trkpt>
      <trkpt lat="45.16466" lon="5.90287">
        <ele>1395.8</ele>
        <time>2021-04-10T09:51:46Z</time>
      </trkpt>
      <trkpt lat="45.16467" lon="5.90286">
        <ele>1395.6</ele>
        <time>2021-04-10T09:51:47Z</time>
      </trkpt>
      <trkpt lat="45.16468" lon="5.90284">
        <ele>1395.2</ele>
        <time>2021-04-10T09:51:48Z</time>
      </trkpt>
      <trkpt lat="45.1647" lon="5.90278">
        <ele>1394.6</ele>
        <time>2021-04-10T09:51:49Z</time>
      </trkpt>
      <trkpt lat="45.1647" lon="5.90278">
        <ele>1394</ele>
        <time>2021-04-10T09:51:50Z</time>
      </trkpt>
      <trkpt lat="45.1647" lon="5.90278">
        <ele>1393</ele>
        <time>2021-04-10T09:51:51Z</time>
      </trkpt>
      <trkpt lat="45.16472" lon="5.90275">
        <ele>1392.8</ele>
        <time>2021-04-10T09:51:52Z</time>
      </trkpt>
      <trkpt lat="45.16474" lon="5.90271">
        <ele>1392.4</ele>
        <time>2021-04-10T09:51:53Z</time>
      </trkpt>
      <trkpt lat="45.16476" lon="5.90268">
        <ele>1391.4</ele>
        <time>2021-04-10T09:51:54Z</time>
      </trkpt>
      <trkpt lat="45.16478" lon="5.90265">
        <ele>1391.2</ele>
        <time>2021-04-10T09:51:55Z</time>
      </trkpt>
      <trkpt lat="45.1648" lon="5.90262">
        <ele>1390.6</ele>
        <time>2021-04-10T09:51:56Z</time>
      </trkpt>
      <trkpt lat="45.16484" lon="5.90257">
        <ele>1389.8</ele>
        <time>2021-04-10T09:51:57Z</time>
      </trkpt>
      <trkpt lat="45.16485" lon="5.90254">
        <ele>1388.8</ele>
        <time>2021-04-10T09:51:58Z</time>
      </trkpt>
      <trkpt lat="45.16487" lon="5.90252">
        <ele>1388.4</ele>
        <time>2021-04-10T09:51:59Z</time>
      </trkpt>
      <trkpt lat="45.16489" lon="5.9025">
        <ele>1388.2</ele>
        <time>2021-04-10T09:52:00Z</time>
      </trkpt>
      <trkpt lat="45.1649" lon="5.90247">
        <ele>1387.4</ele>
        <time>2021-04-10T09:52:01Z</time>
      </trkpt>
      <trkpt lat="45.16492" lon="5.90246">
        <ele>1386.4</ele>
        <time>2021-04-10T09:52:02Z</time>
      </trkpt>
      <trkpt lat="45.16493" lon="5.90245">
        <ele>1385.6</ele>
        <time>2021-04-10T09:52:03Z</time>
      </trkpt>
      <trkpt lat="45.16494" lon="5.90244">
        <ele>1385.2</ele>
        <time>2021-04-10T09:52:04Z</time>
      </trkpt>
      <trkpt lat="45.16495" lon="5.90243">
        <ele>1384.8</ele>
        <time>2021-04-10T09:52:05Z</time>
      </trkpt>
      <trkpt lat="45.16497" lon="5.90242">
        <ele>1384</ele>
        <time>2021-04-10T09:52:06Z</time>
      </trkpt>
      <trkpt lat="45.16503" lon="5.90236">
        <ele>1383</ele>
        <time>2021-04-10T09:52:07Z</time>
      </trkpt>
      <trkpt lat="45.16505" lon="5.90234">
        <ele>1382.4</ele>
        <time>2021-04-10T09:52:08Z</time>
      </trkpt>
      <trkpt lat="45.16508" lon="5.90232">
        <ele>1382</ele>
        <time>2021-04-10T09:52:09Z</time>
      </trkpt>
      <trkpt lat="45.16509" lon="5.9023">
        <ele>1381.6</ele>
        <time>2021-04-10T09:52:10Z</time>
      </trkpt>
      <trkpt lat="45.16511" lon="5.90229">
        <ele>1380.6</ele>
        <time>2021-04-10T09:52:11Z</time>
      </trkpt>
      <trkpt lat="45.16513" lon="5.90228">
        <ele>1380</ele>
        <time>2021-04-10T09:52:12Z</time>
      </trkpt>
      <trkpt lat="45.1652" lon="5.90225">
        <ele>1379.2</ele>
        <time>2021-04-10T09:52:13Z</time>
      </trkpt>
      <trkpt lat="45.16524" lon="5.90226">
        <ele>1378.6</ele>
        <time>2021-04-10T09:52:14Z</time>
      </trkpt>
      <trkpt lat="45.16527" lon="5.90226">
        <ele>1377.8</ele>
        <time>2021-04-10T09:52:15Z</time>
      </trkpt>
      <trkpt lat="45.1653" lon="5.90226">
        <ele>1376.8</ele>
        <time>2021-04-10T09:52:16Z</time>
      </trkpt>
      <trkpt lat="45.16533" lon="5.90227">
        <ele>1376.2</ele>
        <time>2021-04-10T09:52:17Z</time>
      </trkpt>
      <trkpt lat="45.16538" lon="5.90227">
        <ele>1375.4</ele>
        <time>2021-04-10T09:52:18Z</time>
      </trkpt>
      <trkpt lat="45.16543" lon="5.90227">
        <ele>1374.4</ele>
        <time>2021-04-10T09:52:19Z</time>
      </trkpt>
      <trkpt lat="45.16543" lon="5.90227">
        <ele>1374</ele>
        <time>2021-04-10T09:52:20Z</time>
      </trkpt>
      <trkpt lat="45.16543" lon="5.90227">
        <ele>1374</ele>
        <time>2021-04-10T09:52:21Z</time>
      </trkpt>
      <trkpt lat="45.16546" lon="5.90228">
        <ele>1373.4</ele>
        <time>2021-04-10T09:52:22Z</time>
      </trkpt>
      <trkpt lat="45.16549" lon="5.90228">
        <ele>1373.2</ele>
        <time>2021-04-10T09:52:23Z</time>
      </trkpt>
      <trkpt lat="45.16552" lon="5.90228">
        <ele>1372.2</ele>
        <time>2021-04-10T09:52:24Z</time>
      </trkpt>
      <trkpt lat="45.16555" lon="5.90229">
        <ele>1371.6</ele>
        <time>2021-04-10T09:52:25Z</time>
      </trkpt>
      <trkpt lat="45.16558" lon="5.90229">
        <ele>1371.4</ele>
        <time>2021-04-10T09:52:26Z</time>
      </trkpt>
      <trkpt lat="45.16563" lon="5.90228">
        <ele>1370.4</ele>
        <time>2021-04-10T09:52:27Z</time>
      </trkpt>
      <trkpt lat="45.16565" lon="5.9023">
        <ele>1370</ele>
        <time>2021-04-10T09:52:28Z</time>
      </trkpt>
      <trkpt lat="45.16566" lon="5.90231">
        <ele>1369.6</ele>
        <time>2021-04-10T09:52:29Z</time>
      </trkpt>
      <trkpt lat="45.16568" lon="5.90233">
        <ele>1369.2</ele>
        <time>2021-04-10T09:52:30Z</time>
      </trkpt>
      <trkpt lat="45.16569" lon="5.90234">
        <ele>1368.4</ele>
        <time>2021-04-10T09:52:31Z</time>
      </trkpt>
      <trkpt lat="45.16574" lon="5.9024">
        <ele>1367.4</ele>
        <time>2021-04-10T09:52:32Z</time>
      </trkpt>
      <trkpt lat="45.16577" lon="5.90244">
        <ele>1366.6</ele>
        <time>2021-04-10T09:52:33Z</time>
      </trkpt>
      <trkpt lat="45.16579" lon="5.90246">
        <ele>1365.8</ele>
        <time>2021-04-10T09:52:34Z</time>
      </trkpt>
      <trkpt lat="45.1658" lon="5.90248">
        <ele>1365</ele>
        <time>2021-04-10T09:52:35Z</time>
      </trkpt>
      <trkpt lat="45.16579" lon="5.90246">
        <ele>1364</ele>
        <time>2021-04-10T09:52:36Z</time>
      </trkpt>
      <trkpt lat="45.16578" lon="5.90244">
        <ele>1363.4</ele>
        <time>2021-04-10T09:52:37Z</time>
      </trkpt>
      <trkpt lat="45.16577" lon="5.90242">
        <ele>1363</ele>
        <time>2021-04-10T09:52:38Z</time>
      </trkpt>
      <trkpt lat="45.16575" lon="5.9024">
        <ele>1362.2</ele>
        <time>2021-04-10T09:52:39Z</time>
      </trkpt>
      <trkpt lat="45.16574" lon="5.90238">
        <ele>1361.8</ele>
        <time>2021-04-10T09:52:40Z</time>
      </trkpt>
      <trkpt lat="45.16573" lon="5.90237">
        <ele>1361.6</ele>
        <time>2021-04-10T09:52:41Z</time>
      </trkpt>
      <trkpt lat="45.16572" lon="5.90235">
        <ele>1361</ele>
        <time>2021-04-10T09:52:42Z</time>
      </trkpt>
      <trkpt lat="45.16571" lon="5.90233">
        <ele>1360.4</ele>
        <time>2021-04-10T09:52:43Z</time>
      </trkpt>
      <trkpt lat="45.16569" lon="5.90231">
        <ele>1360.4</ele>
        <time>2021-04-10T09:52:44Z</time>
      </trkpt>
      <trkpt lat="45.16568" lon="5.90229">
        <ele>1359.8</ele>
        <time>2021-04-10T09:52:45Z</time>
      </trkpt>
      <trkpt lat="45.16567" lon="5.90227">
        <ele>1359.2</ele>
        <time>2021-04-10T09:52:46Z</time>
      </trkpt>
      <trkpt lat="45.16566" lon="5.90225">
        <ele>1359</ele>
        <time>2021-04-10T09:52:47Z</time>
      </trkpt>
      <trkpt lat="45.16564" lon="5.90223">
        <ele>1358.4</ele>
        <time>2021-04-10T09:52:48Z</time>
      </trkpt>
      <trkpt lat="45.16563" lon="5.90219">
        <ele>1357.8</ele>
        <time>2021-04-10T09:52:49Z</time>
      </trkpt>
      <trkpt lat="45.16561" lon="5.90215">
        <ele>1357.8</ele>
        <time>2021-04-10T09:52:50Z</time>
      </trkpt>
      <trkpt lat="45.1656" lon="5.90214">
        <ele>1357.4</ele>
        <time>2021-04-10T09:52:51Z</time>
      </trkpt>
      <trkpt lat="45.16559" lon="5.90213">
        <ele>1357.4</ele>
        <time>2021-04-10T09:52:52Z</time>
      </trkpt>
      <trkpt lat="45.16558" lon="5.90212">
        <ele>1356.8</ele>
        <time>2021-04-10T09:52:53Z</time>
      </trkpt>
      <trkpt lat="45.16557" lon="5.9021">
        <ele>1356.4</ele>
        <time>2021-04-10T09:52:54Z</time>
      </trkpt>
      <trkpt lat="45.16554" lon="5.90205">
        <ele>1356</ele>
        <time>2021-04-10T09:52:55Z</time>
      </trkpt>
      <trkpt lat="45.16554" lon="5.90205">
        <ele>1355.8</ele>
        <time>2021-04-10T09:52:56Z</time>
      </trkpt>
      <trkpt lat="45.16554" lon="5.90205">
        <ele>1355.8</ele>
        <time>2021-04-10T09:52:57Z</time>
      </trkpt>
      <trkpt lat="45.16551" lon="5.90202">
        <ele>1355.6</ele>
        <time>2021-04-10T09:52:58Z</time>
      </trkpt>
      <trkpt lat="45.16549" lon="5.90199">
        <ele>1355.8</ele>
        <time>2021-04-10T09:52:59Z</time>
      </trkpt>
      <trkpt lat="45.16547" lon="5.90195">
        <ele>1355.6</ele>
        <time>2021-04-10T09:53:00Z</time>
      </trkpt>
      <trkpt lat="45.16545" lon="5.90192">
        <ele>1355</ele>
        <time>2021-04-10T09:53:01Z</time>
      </trkpt>
      <trkpt lat="45.16542" lon="5.90189">
        <ele>1355.2</ele>
        <time>2021-04-10T09:53:02Z</time>
      </trkpt>
      <trkpt lat="45.16539" lon="5.90184">
        <ele>1355</ele>
        <time>2021-04-10T09:53:03Z</time>
      </trkpt>
      <trkpt lat="45.16538" lon="5.90182">
        <ele>1354.4</ele>
        <time>2021-04-10T09:53:04Z</time>
      </trkpt>
      <trkpt lat="45.16537" lon="5.90181">
        <ele>1354.2</ele>
        <time>2021-04-10T09:53:05Z</time>
      </trkpt>
      <trkpt lat="45.16535" lon="5.9018">
        <ele>1354.2</ele>
        <time>2021-04-10T09:53:06Z</time>
      </trkpt>
      <trkpt lat="45.16534" lon="5.90178">
        <ele>1353.8</ele>
        <time>2021-04-10T09:53:07Z</time>
      </trkpt>
      <trkpt lat="45.16533" lon="5.90177">
        <ele>1353</ele>
        <time>2021-04-10T09:53:08Z</time>
      </trkpt>
      <trkpt lat="45.16532" lon="5.90176">
        <ele>1352.2</ele>
        <time>2021-04-10T09:53:09Z</time>
      </trkpt>
      <trkpt lat="45.16531" lon="5.90175">
        <ele>1352.2</ele>
        <time>2021-04-10T09:53:10Z</time>
      </trkpt>
      <trkpt lat="45.1653" lon="5.90173">
        <ele>1351.8</ele>
        <time>2021-04-10T09:53:11Z</time>
      </trkpt>
      <trkpt lat="45.16529" lon="5.90172">
        <ele>1351.4</ele>
        <time>2021-04-10T09:53:12Z</time>
      </trkpt>
      <trkpt lat="45.16528" lon="5.90171">
        <ele>1350.8</ele>
        <time>2021-04-10T09:53:13Z</time>
      </trkpt>
      <trkpt lat="45.16526" lon="5.90169">
        <ele>1350.2</ele>
        <time>2021-04-10T09:53:14Z</time>
      </trkpt>
      <trkpt lat="45.16525" lon="5.90168">
        <ele>1350</ele>
        <time>2021-04-10T09:53:15Z</time>
      </trkpt>
      <trkpt lat="45.16524" lon="5.90167">
        <ele>1349.6</ele>
        <time>2021-04-10T09:53:16Z</time>
      </trkpt>
      <trkpt lat="45.16523" lon="5.90166">
        <ele>1349.2</ele>
        <time>2021-04-10T09:53:17Z</time>
      </trkpt>
      <trkpt lat="45.16522" lon="5.90164">
        <ele>1348.8</ele>
        <time>2021-04-10T09:53:18Z</time>
      </trkpt>
      <trkpt lat="45.16521" lon="5.90163">
        <ele>1348.4</ele>
        <time>2021-04-10T09:53:19Z</time>
      </trkpt>
      <trkpt lat="45.1652" lon="5.90162">
        <ele>1347.8</ele>
        <time>2021-04-10T09:53:20Z</time>
      </trkpt>
      <trkpt lat="45.16519" lon="5.9016">
        <ele>1347.2</ele>
        <time>2021-04-10T09:53:21Z</time>
      </trkpt>
      <trkpt lat="45.16517" lon="5.90159">
        <ele>1346.4</ele>
        <time>2021-04-10T09:53:22Z</time>
      </trkpt>
      <trkpt lat="45.16516" lon="5.90158">
        <ele>1345.6</ele>
        <time>2021-04-10T09:53:23Z</time>
      </trkpt>
      <trkpt lat="45.16515" lon="5.90157">
        <ele>1344.8</ele>
        <time>2021-04-10T09:53:24Z</time>
      </trkpt>
      <trkpt lat="45.16514" lon="5.90155">
        <ele>1343.6</ele>
        <time>2021-04-10T09:53:25Z</time>
      </trkpt>
      <trkpt lat="45.16513" lon="5.90154">
        <ele>1343.4</ele>
        <time>2021-04-10T09:53:26Z</time>
      </trkpt>
      <trkpt lat="45.16512" lon="5.90153">
        <ele>1342.8</ele>
        <time>2021-04-10T09:53:27Z</time>
      </trkpt>
      <trkpt lat="45.1651" lon="5.90152">
        <ele>1342.2</ele>
        <time>2021-04-10T09:53:28Z</time>
      </trkpt>
      <trkpt lat="45.16507" lon="5.9015">
        <ele>1341.2</ele>
        <time>2021-04-10T09:53:29Z</time>
      </trkpt>
      <trkpt lat="45.16505" lon="5.90149">
        <ele>1341</ele>
        <time>2021-04-10T09:53:30Z</time>
      </trkpt>
      <trkpt lat="45.16503" lon="5.90148">
        <ele>1340.8</ele>
        <time>2021-04-10T09:53:31Z</time>
      </trkpt>
      <trkpt lat="45.16503" lon="5.90148">
        <ele>1340</ele>
        <time>2021-04-10T09:53:32Z</time>
      </trkpt>
      <trkpt lat="45.16503" lon="5.90148">
        <ele>1339.4</ele>
        <time>2021-04-10T09:53:33Z</time>
      </trkpt>
      <trkpt lat="45.16503" lon="5.90148">
        <ele>1339.2</ele>
        <time>2021-04-10T09:53:34Z</time>
      </trkpt>
      <trkpt lat="45.16501" lon="5.90147">
        <ele>1338.8</ele>
        <time>2021-04-10T09:53:35Z</time>
      </trkpt>
      <trkpt lat="45.16499" lon="5.90146">
        <ele>1338.2</ele>
        <time>2021-04-10T09:53:36Z</time>
      </trkpt>
      <trkpt lat="45.16498" lon="5.90145">
        <ele>1337.8</ele>
        <time>2021-04-10T09:53:37Z</time>
      </trkpt>
      <trkpt lat="45.16496" lon="5.90144">
        <ele>1337.8</ele>
        <time>2021-04-10T09:53:38Z</time>
      </trkpt>
      <trkpt lat="45.16494" lon="5.90143">
        <ele>1337</ele>
        <time>2021-04-10T09:53:39Z</time>
      </trkpt>
      <trkpt lat="45.1649" lon="5.90134">
        <ele>1336.6</ele>
        <time>2021-04-10T09:53:40Z</time>
      </trkpt>
      <trkpt lat="45.16487" lon="5.90126">
        <ele>1336</ele>
        <time>2021-04-10T09:53:41Z</time>
      </trkpt>
      <trkpt lat="45.16487" lon="5.90124">
        <ele>1335.6</ele>
        <time>2021-04-10T09:53:42Z</time>
      </trkpt>
      <trkpt lat="45.16487" lon="5.90123">
        <ele>1335.2</ele>
        <time>2021-04-10T09:53:43Z</time>
      </trkpt>
      <trkpt lat="45.16488" lon="5.90116">
        <ele>1334.6</ele>
        <time>2021-04-10T09:53:44Z</time>
      </trkpt>
      <trkpt lat="45.16489" lon="5.90115">
        <ele>1334</ele>
        <time>2021-04-10T09:53:45Z</time>
      </trkpt>
      <trkpt lat="45.1649" lon="5.90113">
        <ele>1333.8</ele>
        <time>2021-04-10T09:53:46Z</time>
      </trkpt>
      <trkpt lat="45.16491" lon="5.90112">
        <ele>1333.6</ele>
        <time>2021-04-10T09:53:47Z</time>
      </trkpt>
      <trkpt lat="45.16491" lon="5.9011">
        <ele>1333.2</ele>
        <time>2021-04-10T09:53:48Z</time>
      </trkpt>
      <trkpt lat="45.16495" lon="5.90105">
        <ele>1332.8</ele>
        <time>2021-04-10T09:53:49Z</time>
      </trkpt>
      <trkpt lat="45.16497" lon="5.90103">
        <ele>1332.2</ele>
        <time>2021-04-10T09:53:50Z</time>
      </trkpt>
      <trkpt lat="45.16499" lon="5.90101">
        <ele>1332</ele>
        <time>2021-04-10T09:53:51Z</time>
      </trkpt>
      <trkpt lat="45.16501" lon="5.901">
        <ele>1331.6</ele>
        <time>2021-04-10T09:53:52Z</time>
      </trkpt>
      <trkpt lat="45.16507" lon="5.90094">
        <ele>1331</ele>
        <time>2021-04-10T09:53:53Z</time>
      </trkpt>
      <trkpt lat="45.16511" lon="5.90092">
        <ele>1331</ele>
        <time>2021-04-10T09:53:54Z</time>
      </trkpt>
      <trkpt lat="45.16514" lon="5.9009">
        <ele>1330.2</ele>
        <time>2021-04-10T09:53:55Z</time>
      </trkpt>
      <trkpt lat="45.16516" lon="5.90088">
        <ele>1329.8</ele>
        <time>2021-04-10T09:53:56Z</time>
      </trkpt>
      <trkpt lat="45.16519" lon="5.90085">
        <ele>1329</ele>
        <time>2021-04-10T09:53:57Z</time>
      </trkpt>
      <trkpt lat="45.16521" lon="5.90083">
        <ele>1328.2</ele>
        <time>2021-04-10T09:53:58Z</time>
      </trkpt>
      <trkpt lat="45.16522" lon="5.9008">
        <ele>1327.4</ele>
        <time>2021-04-10T09:53:59Z</time>
      </trkpt>
      <trkpt lat="45.16524" lon="5.90078">
        <ele>1326.8</ele>
        <time>2021-04-10T09:54:00Z</time>
      </trkpt>
      <trkpt lat="45.16526" lon="5.90075">
        <ele>1326.6</ele>
        <time>2021-04-10T09:54:01Z</time>
      </trkpt>
      <trkpt lat="45.16527" lon="5.90073">
        <ele>1326</ele>
        <time>2021-04-10T09:54:02Z</time>
      </trkpt>
      <trkpt lat="45.16529" lon="5.90071">
        <ele>1325.4</ele>
        <time>2021-04-10T09:54:03Z</time>
      </trkpt>
      <trkpt lat="45.1653" lon="5.90069">
        <ele>1324.6</ele>
        <time>2021-04-10T09:54:04Z</time>
      </trkpt>
      <trkpt lat="45.16531" lon="5.90067">
        <ele>1323.8</ele>
        <time>2021-04-10T09:54:05Z</time>
      </trkpt>
      <trkpt lat="45.16532" lon="5.90065">
        <ele>1323.4</ele>
        <time>2021-04-10T09:54:06Z</time>
      </trkpt>
      <trkpt lat="45.16534" lon="5.90063">
        <ele>1323</ele>
        <time>2021-04-10T09:54:07Z</time>
      </trkpt>
      <trkpt lat="45.16537" lon="5.90057">
        <ele>1322.6</ele>
        <time>2021-04-10T09:54:08Z</time>
      </trkpt>
      <trkpt lat="45.16537" lon="5.90057">
        <ele>1321.8</ele>
        <time>2021-04-10T09:54:09Z</time>
      </trkpt>
      <trkpt lat="45.16537" lon="5.90057">
        <ele>1321.4</ele>
        <time>2021-04-10T09:54:10Z</time>
      </trkpt>
      <trkpt lat="45.1654" lon="5.90056">
        <ele>1320.4</ele>
        <time>2021-04-10T09:54:11Z</time>
      </trkpt>
      <trkpt lat="45.16543" lon="5.90054">
        <ele>1319.8</ele>
        <time>2021-04-10T09:54:12Z</time>
      </trkpt>
      <trkpt lat="45.16546" lon="5.90053">
        <ele>1319.2</ele>
        <time>2021-04-10T09:54:13Z</time>
      </trkpt>
      <trkpt lat="45.16549" lon="5.90051">
        <ele>1318.6</ele>
        <time>2021-04-10T09:54:14Z</time>
      </trkpt>
      <trkpt lat="45.16552" lon="5.90049">
        <ele>1317.8</ele>
        <time>2021-04-10T09:54:15Z</time>
      </trkpt>
      <trkpt lat="45.16557" lon="5.90048">
        <ele>1316.4</ele>
        <time>2021-04-10T09:54:16Z</time>
      </trkpt>
      <trkpt lat="45.16557" lon="5.90048">
        <ele>1316</ele>
        <time>2021-04-10T09:54:17Z</time>
      </trkpt>
      <trkpt lat="45.16557" lon="5.90048">
        <ele>1314.6</ele>
        <time>2021-04-10T09:54:18Z</time>
      </trkpt>
      <trkpt lat="45.16557" lon="5.90048">
        <ele>1313.6</ele>
        <time>2021-04-10T09:54:19Z</time>
      </trkpt>
      <trkpt lat="45.1656" lon="5.90047">
        <ele>1312.8</ele>
        <time>2021-04-10T09:54:20Z</time>
      </trkpt>
      <trkpt lat="45.16564" lon="5.90046">
        <ele>1312.2</ele>
        <time>2021-04-10T09:54:21Z</time>
      </trkpt>
      <trkpt lat="45.16567" lon="5.90045">
        <ele>1311.6</ele>
        <time>2021-04-10T09:54:22Z</time>
      </trkpt>
      <trkpt lat="45.1657" lon="5.90044">
        <ele>1310.4</ele>
        <time>2021-04-10T09:54:23Z</time>
      </trkpt>
      <trkpt lat="45.16573" lon="5.90043">
        <ele>1309.6</ele>
        <time>2021-04-10T09:54:24Z</time>
      </trkpt>
      <trkpt lat="45.1658" lon="5.90043">
        <ele>1309</ele>
        <time>2021-04-10T09:54:25Z</time>
      </trkpt>
      <trkpt lat="45.16583" lon="5.90042">
        <ele>1307.6</ele>
        <time>2021-04-10T09:54:26Z</time>
      </trkpt>
      <trkpt lat="45.16586" lon="5.90042">
        <ele>1306.6</ele>
        <time>2021-04-10T09:54:27Z</time>
      </trkpt>
      <trkpt lat="45.16588" lon="5.90042">
        <ele>1305.6</ele>
        <time>2021-04-10T09:54:28Z</time>
      </trkpt>
      <trkpt lat="45.1659" lon="5.90041">
        <ele>1304.8</ele>
        <time>2021-04-10T09:54:29Z</time>
      </trkpt>
      <trkpt lat="45.16592" lon="5.90041">
        <ele>1303.8</ele>
        <time>2021-04-10T09:54:30Z</time>
      </trkpt>
      <trkpt lat="45.16593" lon="5.90041">
        <ele>1302.8</ele>
        <time>2021-04-10T09:54:31Z</time>
      </trkpt>
      <trkpt lat="45.16598" lon="5.90039">
        <ele>1302</ele>
        <time>2021-04-10T09:54:32Z</time>
      </trkpt>
      <trkpt lat="45.166" lon="5.9004">
        <ele>1301.2</ele>
        <time>2021-04-10T09:54:33Z</time>
      </trkpt>
      <trkpt lat="45.16602" lon="5.9004">
        <ele>1300.4</ele>
        <time>2021-04-10T09:54:34Z</time>
      </trkpt>
      <trkpt lat="45.16604" lon="5.9004">
        <ele>1299.6</ele>
        <time>2021-04-10T09:54:35Z</time>
      </trkpt>
      <trkpt lat="45.16606" lon="5.90041">
        <ele>1298.8</ele>
        <time>2021-04-10T09:54:36Z</time>
      </trkpt>
      <trkpt lat="45.16608" lon="5.90041">
        <ele>1298.2</ele>
        <time>2021-04-10T09:54:37Z</time>
      </trkpt>
      <trkpt lat="45.1661" lon="5.90041">
        <ele>1297.8</ele>
        <time>2021-04-10T09:54:38Z</time>
      </trkpt>
      <trkpt lat="45.16611" lon="5.90041">
        <ele>1297.2</ele>
        <time>2021-04-10T09:54:39Z</time>
      </trkpt>
      <trkpt lat="45.16613" lon="5.90042">
        <ele>1296.4</ele>
        <time>2021-04-10T09:54:40Z</time>
      </trkpt>
      <trkpt lat="45.16615" lon="5.90042">
        <ele>1295.6</ele>
        <time>2021-04-10T09:54:41Z</time>
      </trkpt>
      <trkpt lat="45.16623" lon="5.90044">
        <ele>1294.8</ele>
        <time>2021-04-10T09:54:42Z</time>
      </trkpt>
      <trkpt lat="45.16627" lon="5.90045">
        <ele>1294.4</ele>
        <time>2021-04-10T09:54:43Z</time>
      </trkpt>
      <trkpt lat="45.1663" lon="5.90045">
        <ele>1293.6</ele>
        <time>2021-04-10T09:54:44Z</time>
      </trkpt>
      <trkpt lat="45.16633" lon="5.90046">
        <ele>1293</ele>
        <time>2021-04-10T09:54:45Z</time>
      </trkpt>
      <trkpt lat="45.16637" lon="5.90047">
        <ele>1292.2</ele>
        <time>2021-04-10T09:54:46Z</time>
      </trkpt>
      <trkpt lat="45.16639" lon="5.90047">
        <ele>1291.6</ele>
        <time>2021-04-10T09:54:47Z</time>
      </trkpt>
      <trkpt lat="45.16641" lon="5.90048">
        <ele>1290.2</ele>
        <time>2021-04-10T09:54:48Z</time>
      </trkpt>
      <trkpt lat="45.16643" lon="5.90048">
        <ele>1288.8</ele>
        <time>2021-04-10T09:54:49Z</time>
      </trkpt>
      <trkpt lat="45.16643" lon="5.90048">
        <ele>1288.2</ele>
        <time>2021-04-10T09:54:50Z</time>
      </trkpt>
      <trkpt lat="45.16643" lon="5.90048">
        <ele>1287.6</ele>
        <time>2021-04-10T09:54:51Z</time>
      </trkpt>
      <trkpt lat="45.16643" lon="5.90048">
        <ele>1287.2</ele>
        <time>2021-04-10T09:54:52Z</time>
      </trkpt>
      <trkpt lat="45.16645" lon="5.90049">
        <ele>1286.4</ele>
        <time>2021-04-10T09:54:53Z</time>
      </trkpt>
      <trkpt lat="45.16647" lon="5.90051">
        <ele>1285.8</ele>
        <time>2021-04-10T09:54:54Z</time>
      </trkpt>
      <trkpt lat="45.16649" lon="5.90052">
        <ele>1284.4</ele>
        <time>2021-04-10T09:54:55Z</time>
      </trkpt>
      <trkpt lat="45.16651" lon="5.90053">
        <ele>1283</ele>
        <time>2021-04-10T09:54:56Z</time>
      </trkpt>
      <trkpt lat="45.16654" lon="5.90054">
        <ele>1282</ele>
        <time>2021-04-10T09:54:57Z</time>
      </trkpt>
      <trkpt lat="45.16655" lon="5.90055">
        <ele>1281</ele>
        <time>2021-04-10T09:54:58Z</time>
      </trkpt>
      <trkpt lat="45.16657" lon="5.90056">
        <ele>1280.2</ele>
        <time>2021-04-10T09:54:59Z</time>
      </trkpt>
      <trkpt lat="45.16659" lon="5.90057">
        <ele>1279.6</ele>
        <time>2021-04-10T09:55:00Z</time>
      </trkpt>
      <trkpt lat="45.1666" lon="5.90059">
        <ele>1279</ele>
        <time>2021-04-10T09:55:01Z</time>
      </trkpt>
      <trkpt lat="45.16662" lon="5.9006">
        <ele>1278.4</ele>
        <time>2021-04-10T09:55:02Z</time>
      </trkpt>
      <trkpt lat="45.16672" lon="5.90065">
        <ele>1278</ele>
        <time>2021-04-10T09:55:03Z</time>
      </trkpt>
      <trkpt lat="45.16672" lon="5.90065">
        <ele>1277.4</ele>
        <time>2021-04-10T09:55:04Z</time>
      </trkpt>
      <trkpt lat="45.16672" lon="5.90065">
        <ele>1277</ele>
        <time>2021-04-10T09:55:05Z</time>
      </trkpt>
      <trkpt lat="45.16672" lon="5.90065">
        <ele>1276</ele>
        <time>2021-04-10T09:55:06Z</time>
      </trkpt>
      <trkpt lat="45.16675" lon="5.90066">
        <ele>1275.4</ele>
        <time>2021-04-10T09:55:07Z</time>
      </trkpt>
      <trkpt lat="45.16678" lon="5.90067">
        <ele>1274.6</ele>
        <time>2021-04-10T09:55:08Z</time>
      </trkpt>
      <trkpt lat="45.16681" lon="5.90068">
        <ele>1274</ele>
        <time>2021-04-10T09:55:09Z</time>
      </trkpt>
      <trkpt lat="45.16684" lon="5.9007">
        <ele>1272.8</ele>
        <time>2021-04-10T09:55:10Z</time>
      </trkpt>
      <trkpt lat="45.16686" lon="5.90071">
        <ele>1272.6</ele>
        <time>2021-04-10T09:55:11Z</time>
      </trkpt>
      <trkpt lat="45.16689" lon="5.90072">
        <ele>1271.8</ele>
        <time>2021-04-10T09:55:12Z</time>
      </trkpt>
      <trkpt lat="45.16697" lon="5.90077">
        <ele>1271.4</ele>
        <time>2021-04-10T09:55:13Z</time>
      </trkpt>
      <trkpt lat="45.167" lon="5.90078">
        <ele>1270.4</ele>
        <time>2021-04-10T09:55:14Z</time>
      </trkpt>
      <trkpt lat="45.16703" lon="5.90079">
        <ele>1269.2</ele>
        <time>2021-04-10T09:55:15Z</time>
      </trkpt>
      <trkpt lat="45.16706" lon="5.90081">
        <ele>1268.6</ele>
        <time>2021-04-10T09:55:16Z</time>
      </trkpt>
      <trkpt lat="45.16708" lon="5.90082">
        <ele>1267.2</ele>
        <time>2021-04-10T09:55:17Z</time>
      </trkpt>
      <trkpt lat="45.16709" lon="5.90083">
        <ele>1266.2</ele>
        <time>2021-04-10T09:55:18Z</time>
      </trkpt>
      <trkpt lat="45.16711" lon="5.90084">
        <ele>1266</ele>
        <time>2021-04-10T09:55:19Z</time>
      </trkpt>
      <trkpt lat="45.16712" lon="5.90085">
        <ele>1265.4</ele>
        <time>2021-04-10T09:55:20Z</time>
      </trkpt>
      <trkpt lat="45.16712" lon="5.90085">
        <ele>1265.4</ele>
        <time>2021-04-10T09:55:21Z</time>
      </trkpt>
      <trkpt lat="45.16712" lon="5.90085">
        <ele>1264.6</ele>
        <time>2021-04-10T09:55:22Z</time>
      </trkpt>
      <trkpt lat="45.16712" lon="5.90085">
        <ele>1264</ele>
        <time>2021-04-10T09:55:23Z</time>
      </trkpt>
      <trkpt lat="45.16713" lon="5.90085">
        <ele>1263.2</ele>
        <time>2021-04-10T09:55:24Z</time>
      </trkpt>
      <trkpt lat="45.16713" lon="5.90085">
        <ele>1262.8</ele>
        <time>2021-04-10T09:55:25Z</time>
      </trkpt>
      <trkpt lat="45.16714" lon="5.90086">
        <ele>1261.8</ele>
        <time>2021-04-10T09:55:26Z</time>
      </trkpt>
      <trkpt lat="45.16714" lon="5.90086">
        <ele>1261.2</ele>
        <time>2021-04-10T09:55:27Z</time>
      </trkpt>
      <trkpt lat="45.16715" lon="5.90086">
        <ele>1260.4</ele>
        <time>2021-04-10T09:55:28Z</time>
      </trkpt>
      <trkpt lat="45.16715" lon="5.90086">
        <ele>1259.8</ele>
        <time>2021-04-10T09:55:29Z</time>
      </trkpt>
      <trkpt lat="45.16716" lon="5.90086">
        <ele>1259.4</ele>
        <time>2021-04-10T09:55:30Z</time>
      </trkpt>
      <trkpt lat="45.16716" lon="5.90087">
        <ele>1259</ele>
        <time>2021-04-10T09:55:31Z</time>
      </trkpt>
      <trkpt lat="45.16717" lon="5.90087">
        <ele>1258.8</ele>
        <time>2021-04-10T09:55:32Z</time>
      </trkpt>
      <trkpt lat="45.16717" lon="5.90087">
        <ele>1258.8</ele>
        <time>2021-04-10T09:55:33Z</time>
      </trkpt>
      <trkpt lat="45.16718" lon="5.90087">
        <ele>1259</ele>
        <time>2021-04-10T09:55:34Z</time>
      </trkpt>
      <trkpt lat="45.16718" lon="5.90087">
        <ele>1258.8</ele>
        <time>2021-04-10T09:55:35Z</time>
      </trkpt>
      <trkpt lat="45.16719" lon="5.90088">
        <ele>1258.6</ele>
        <time>2021-04-10T09:55:36Z</time>
      </trkpt>
      <trkpt lat="45.16719" lon="5.90088">
        <ele>1258.6</ele>
        <time>2021-04-10T09:55:37Z</time>
      </trkpt>
      <trkpt lat="45.1672" lon="5.90088">
        <ele>1258.8</ele>
        <time>2021-04-10T09:55:38Z</time>
      </trkpt>
      <trkpt lat="45.1672" lon="5.90088">
        <ele>1258.8</ele>
        <time>2021-04-10T09:55:39Z</time>
      </trkpt>
      <trkpt lat="45.16721" lon="5.90088">
        <ele>1258.6</ele>
        <time>2021-04-10T09:55:40Z</time>
      </trkpt>
      <trkpt lat="45.16721" lon="5.90089">
        <ele>1258.6</ele>
        <time>2021-04-10T09:55:41Z</time>
      </trkpt>
      <trkpt lat="45.16724" lon="5.90091">
        <ele>1258.4</ele>
        <time>2021-04-10T09:55:42Z</time>
      </trkpt>
      <trkpt lat="45.16726" lon="5.90093">
        <ele>1258.2</ele>
        <time>2021-04-10T09:55:43Z</time>
      </trkpt>
      <trkpt lat="45.16729" lon="5.90095">
        <ele>1258</ele>
        <time>2021-04-10T09:55:44Z</time>
      </trkpt>
      <trkpt lat="45.16732" lon="5.90097">
        <ele>1258</ele>
        <time>2021-04-10T09:55:45Z</time>
      </trkpt>
      <trkpt lat="45.16734" lon="5.90099">
        <ele>1257.6</ele>
        <time>2021-04-10T09:55:46Z</time>
      </trkpt>
      <trkpt lat="45.16737" lon="5.90101">
        <ele>1257</ele>
        <time>2021-04-10T09:55:47Z</time>
      </trkpt>
      <trkpt lat="45.16745" lon="5.90107">
        <ele>1256.4</ele>
        <time>2021-04-10T09:55:48Z</time>
      </trkpt>
      <trkpt lat="45.16749" lon="5.90109">
        <ele>1255.6</ele>
        <time>2021-04-10T09:55:49Z</time>
      </trkpt>
      <trkpt lat="45.16752" lon="5.9011">
        <ele>1255.4</ele>
        <time>2021-04-10T09:55:50Z</time>
      </trkpt>
      <trkpt lat="45.16754" lon="5.90111">
        <ele>1254.8</ele>
        <time>2021-04-10T09:55:51Z</time>
      </trkpt>
      <trkpt lat="45.16756" lon="5.90112">
        <ele>1254.4</ele>
        <time>2021-04-10T09:55:52Z</time>
      </trkpt>
      <trkpt lat="45.1676" lon="5.90114">
        <ele>1253.8</ele>
        <time>2021-04-10T09:55:53Z</time>
      </trkpt>
      <trkpt lat="45.16763" lon="5.90116">
        <ele>1252.8</ele>
        <time>2021-04-10T09:55:54Z</time>
      </trkpt>
      <trkpt lat="45.16764" lon="5.90116">
        <ele>1252.4</ele>
        <time>2021-04-10T09:55:55Z</time>
      </trkpt>
      <trkpt lat="45.16766" lon="5.90116">
        <ele>1251.8</ele>
        <time>2021-04-10T09:55:56Z</time>
      </trkpt>
      <trkpt lat="45.16767" lon="5.90117">
        <ele>1251.8</ele>
        <time>2021-04-10T09:55:57Z</time>
      </trkpt>
      <trkpt lat="45.16771" lon="5.90118">
        <ele>1251.2</ele>
        <time>2021-04-10T09:55:58Z</time>
      </trkpt>
      <trkpt lat="45.16773" lon="5.90117">
        <ele>1250.8</ele>
        <time>2021-04-10T09:55:59Z</time>
      </trkpt>
      <trkpt lat="45.16775" lon="5.90117">
        <ele>1250.2</ele>
        <time>2021-04-10T09:56:00Z</time>
      </trkpt>
      <trkpt lat="45.16777" lon="5.90117">
        <ele>1249.8</ele>
        <time>2021-04-10T09:56:01Z</time>
      </trkpt>
      <trkpt lat="45.16779" lon="5.90117">
        <ele>1249.2</ele>
        <time>2021-04-10T09:56:02Z</time>
      </trkpt>
      <trkpt lat="45.16781" lon="5.90117">
        <ele>1248.4</ele>
        <time>2021-04-10T09:56:03Z</time>
      </trkpt>
      <trkpt lat="45.16781" lon="5.90117">
        <ele>1247.8</ele>
        <time>2021-04-10T09:56:04Z</time>
      </trkpt>
      <trkpt lat="45.16781" lon="5.90117">
        <ele>1247.4</ele>
        <time>2021-04-10T09:56:05Z</time>
      </trkpt>
      <trkpt lat="45.16781" lon="5.90117">
        <ele>1247.2</ele>
        <time>2021-04-10T09:56:06Z</time>
      </trkpt>
      <trkpt lat="45.16781" lon="5.90117">
        <ele>1246.8</ele>
        <time>2021-04-10T09:56:07Z</time>
      </trkpt>
      <trkpt lat="45.16783" lon="5.90116">
        <ele>1246</ele>
        <time>2021-04-10T09:56:08Z</time>
      </trkpt>
      <trkpt lat="45.16784" lon="5.90116">
        <ele>1245.2</ele>
        <time>2021-04-10T09:56:09Z</time>
      </trkpt>
      <trkpt lat="45.16786" lon="5.90115">
        <ele>1244.6</ele>
        <time>2021-04-10T09:56:10Z</time>
      </trkpt>
      <trkpt lat="45.16788" lon="5.90115">
        <ele>1244.4</ele>
        <time>2021-04-10T09:56:11Z</time>
      </trkpt>
      <trkpt lat="45.1679" lon="5.90114">
        <ele>1243.8</ele>
        <time>2021-04-10T09:56:12Z</time>
      </trkpt>
      <trkpt lat="45.16794" lon="5.90113">
        <ele>1243.4</ele>
        <time>2021-04-10T09:56:13Z</time>
      </trkpt>
      <trkpt lat="45.16797" lon="5.90112">
        <ele>1242.8</ele>
        <time>2021-04-10T09:56:14Z</time>
      </trkpt>
      <trkpt lat="45.168" lon="5.90111">
        <ele>1241.8</ele>
        <time>2021-04-10T09:56:15Z</time>
      </trkpt>
      <trkpt lat="45.16804" lon="5.9011">
        <ele>1241.8</ele>
        <time>2021-04-10T09:56:16Z</time>
      </trkpt>
      <trkpt lat="45.16807" lon="5.90109">
        <ele>1241.2</ele>
        <time>2021-04-10T09:56:17Z</time>
      </trkpt>
      <trkpt lat="45.16811" lon="5.90108">
        <ele>1241</ele>
        <time>2021-04-10T09:56:18Z</time>
      </trkpt>
      <trkpt lat="45.16814" lon="5.90107">
        <ele>1240.2</ele>
        <time>2021-04-10T09:56:19Z</time>
      </trkpt>
      <trkpt lat="45.16822" lon="5.90105">
        <ele>1239.4</ele>
        <time>2021-04-10T09:56:20Z</time>
      </trkpt>
      <trkpt lat="45.16824" lon="5.90105">
        <ele>1238.6</ele>
        <time>2021-04-10T09:56:21Z</time>
      </trkpt>
      <trkpt lat="45.16826" lon="5.90104">
        <ele>1238.8</ele>
        <time>2021-04-10T09:56:22Z</time>
      </trkpt>
      <trkpt lat="45.16828" lon="5.90103">
        <ele>1238.2</ele>
        <time>2021-04-10T09:56:23Z</time>
      </trkpt>
      <trkpt lat="45.16839" lon="5.90097">
        <ele>1238</ele>
        <time>2021-04-10T09:56:24Z</time>
      </trkpt>
      <trkpt lat="45.16841" lon="5.90095">
        <ele>1237.6</ele>
        <time>2021-04-10T09:56:25Z</time>
      </trkpt>
      <trkpt lat="45.16843" lon="5.90093">
        <ele>1236.6</ele>
        <time>2021-04-10T09:56:26Z</time>
      </trkpt>
      <trkpt lat="45.16845" lon="5.90091">
        <ele>1236.4</ele>
        <time>2021-04-10T09:56:27Z</time>
      </trkpt>
      <trkpt lat="45.16845" lon="5.90091">
        <ele>1236</ele>
        <time>2021-04-10T09:56:28Z</time>
      </trkpt>
      <trkpt lat="45.16845" lon="5.90091">
        <ele>1236</ele>
        <time>2021-04-10T09:56:29Z</time>
      </trkpt>
      <trkpt lat="45.16845" lon="5.90091">
        <ele>1235.4</ele>
        <time>2021-04-10T09:56:30Z</time>
      </trkpt>
      <trkpt lat="45.16844" lon="5.90092">
        <ele>1235.2</ele>
        <time>2021-04-10T09:56:31Z</time>
      </trkpt>
      <trkpt lat="45.16842" lon="5.90094">
        <ele>1234.8</ele>
        <time>2021-04-10T09:56:32Z</time>
      </trkpt>
      <trkpt lat="45.1684" lon="5.90096">
        <ele>1234.4</ele>
        <time>2021-04-10T09:56:33Z</time>
      </trkpt>
      <trkpt lat="45.16839" lon="5.90097">
        <ele>1233.8</ele>
        <time>2021-04-10T09:56:34Z</time>
      </trkpt>
      <trkpt lat="45.16837" lon="5.90099">
        <ele>1233.4</ele>
        <time>2021-04-10T09:56:35Z</time>
      </trkpt>
      <trkpt lat="45.16835" lon="5.90101">
        <ele>1233.6</ele>
        <time>2021-04-10T09:56:36Z</time>
      </trkpt>
      <trkpt lat="45.16834" lon="5.90102">
        <ele>1233.2</ele>
        <time>2021-04-10T09:56:37Z</time>
      </trkpt>
      <trkpt lat="45.16832" lon="5.90104">
        <ele>1233.6</ele>
        <time>2021-04-10T09:56:38Z</time>
      </trkpt>
      <trkpt lat="45.16831" lon="5.90106">
        <ele>1233.4</ele>
        <time>2021-04-10T09:56:39Z</time>
      </trkpt>
      <trkpt lat="45.16825" lon="5.90108">
        <ele>1233.4</ele>
        <time>2021-04-10T09:56:40Z</time>
      </trkpt>
      <trkpt lat="45.16822" lon="5.90107">
        <ele>1233</ele>
        <time>2021-04-10T09:56:41Z</time>
      </trkpt>
      <trkpt lat="45.16819" lon="5.90107">
        <ele>1232.4</ele>
        <time>2021-04-10T09:56:42Z</time>
      </trkpt>
      <trkpt lat="45.16816" lon="5.90106">
        <ele>1232.2</ele>
        <time>2021-04-10T09:56:43Z</time>
      </trkpt>
      <trkpt lat="45.16816" lon="5.90106">
        <ele>1231.8</ele>
        <time>2021-04-10T09:56:44Z</time>
      </trkpt>
      <trkpt lat="45.16816" lon="5.90106">
        <ele>1232</ele>
        <time>2021-04-10T09:56:45Z</time>
      </trkpt>
      <trkpt lat="45.16816" lon="5.90106">
        <ele>1231.8</ele>
        <time>2021-04-10T09:56:46Z</time>
      </trkpt>
      <trkpt lat="45.16814" lon="5.90106">
        <ele>1231.8</ele>
        <time>2021-04-10T09:56:47Z</time>
      </trkpt>
      <trkpt lat="45.16812" lon="5.90106">
        <ele>1231.4</ele>
        <time>2021-04-10T09:56:48Z</time>
      </trkpt>
      <trkpt lat="45.16809" lon="5.90106">
        <ele>1230.8</ele>
        <time>2021-04-10T09:56:49Z</time>
      </trkpt>
      <trkpt lat="45.16807" lon="5.90106">
        <ele>1231.2</ele>
        <time>2021-04-10T09:56:50Z</time>
      </trkpt>
      <trkpt lat="45.16805" lon="5.90106">
        <ele>1231</ele>
        <time>2021-04-10T09:56:51Z</time>
      </trkpt>
      <trkpt lat="45.16804" lon="5.90106">
        <ele>1230.8</ele>
        <time>2021-04-10T09:56:52Z</time>
      </trkpt>
      <trkpt lat="45.16803" lon="5.90106">
        <ele>1230.6</ele>
        <time>2021-04-10T09:56:53Z</time>
      </trkpt>
      <trkpt lat="45.16801" lon="5.90106">
        <ele>1230.4</ele>
        <time>2021-04-10T09:56:54Z</time>
      </trkpt>
      <trkpt lat="45.168" lon="5.90105">
        <ele>1230</ele>
        <time>2021-04-10T09:56:55Z</time>
      </trkpt>
      <trkpt lat="45.16799" lon="5.90105">
        <ele>1229.8</ele>
        <time>2021-04-10T09:56:56Z</time>
      </trkpt>
      <trkpt lat="45.16797" lon="5.90105">
        <ele>1229.8</ele>
        <time>2021-04-10T09:56:57Z</time>
      </trkpt>
      <trkpt lat="45.16796" lon="5.90105">
        <ele>1229.6</ele>
        <time>2021-04-10T09:56:58Z</time>
      </trkpt>
      <trkpt lat="45.16796" lon="5.90104">
        <ele>1229.8</ele>
        <time>2021-04-10T09:56:59Z</time>
      </trkpt>
      <trkpt lat="45.16796" lon="5.90104">
        <ele>1229.8</ele>
        <time>2021-04-10T09:57:00Z</time>
      </trkpt>
      <trkpt lat="45.16796" lon="5.90103">
        <ele>1229.6</ele>
        <time>2021-04-10T09:57:01Z</time>
      </trkpt>
      <trkpt lat="45.16795" lon="5.90103">
        <ele>1229.6</ele>
        <time>2021-04-10T09:57:02Z</time>
      </trkpt>
      <trkpt lat="45.16795" lon="5.90102">
        <ele>1229.8</ele>
        <time>2021-04-10T09:57:03Z</time>
      </trkpt>
      <trkpt lat="45.16795" lon="5.90101">
        <ele>1230</ele>
        <time>2021-04-10T09:57:04Z</time>
      </trkpt>
      <trkpt lat="45.16795" lon="5.90101">
        <ele>1230</ele>
        <time>2021-04-10T09:57:05Z</time>
      </trkpt>
      <trkpt lat="45.16795" lon="5.901">
        <ele>1230</ele>
        <time>2021-04-10T09:57:06Z</time>
      </trkpt>
      <trkpt lat="45.16795" lon="5.90099">
        <ele>1230</ele>
        <time>2021-04-10T09:57:07Z</time>
      </trkpt>
      <trkpt lat="45.16794" lon="5.90099">
        <ele>1230</ele>
        <time>2021-04-10T09:57:08Z</time>
      </trkpt>
      <trkpt lat="45.16794" lon="5.90098">
        <ele>1230</ele>
        <time>2021-04-10T09:57:09Z</time>
      </trkpt>
      <trkpt lat="45.16794" lon="5.90097">
        <ele>1230.2</ele>
        <time>2021-04-10T09:57:10Z</time>
      </trkpt>
      <trkpt lat="45.16794" lon="5.90097">
        <ele>1230.4</ele>
        <time>2021-04-10T09:57:11Z</time>
      </trkpt>
      <trkpt lat="45.16794" lon="5.90096">
        <ele>1230.4</ele>
        <time>2021-04-10T09:57:12Z</time>
      </trkpt>
      <trkpt lat="45.16793" lon="5.90095">
        <ele>1230.4</ele>
        <time>2021-04-10T09:57:13Z</time>
      </trkpt>
      <trkpt lat="45.16793" lon="5.90095">
        <ele>1230.4</ele>
        <time>2021-04-10T09:57:14Z</time>
      </trkpt>
      <trkpt lat="45.16793" lon="5.90094">
        <ele>1230.4</ele>
        <time>2021-04-10T09:57:15Z</time>
      </trkpt>
      <trkpt lat="45.16793" lon="5.90093">
        <ele>1230.2</ele>
        <time>2021-04-10T09:57:16Z</time>
      </trkpt>
      <trkpt lat="45.16792" lon="5.90093">
        <ele>1230.2</ele>
        <time>2021-04-10T09:57:17Z</time>
      </trkpt>
      <trkpt lat="45.16792" lon="5.90093">
        <ele>1230</ele>
        <time>2021-04-10T09:57:18Z</time>
      </trkpt>
      <trkpt lat="45.16792" lon="5.90093">
        <ele>1230</ele>
        <time>2021-04-10T09:57:19Z</time>
      </trkpt>
      <trkpt lat="45.16791" lon="5.90094">
        <ele>1230</ele>
        <time>2021-04-10T09:57:20Z</time>
      </trkpt>
      <trkpt lat="45.16791" lon="5.90094">
        <ele>1230</ele>
        <time>2021-04-10T09:57:21Z</time>
      </trkpt>
      <trkpt lat="45.16791" lon="5.90094">
        <ele>1230.2</ele>
        <time>2021-04-10T09:57:22Z</time>
      </trkpt>
      <trkpt lat="45.1679" lon="5.90094">
        <ele>1230.2</ele>
        <time>2021-04-10T09:57:23Z</time>
      </trkpt>
      <trkpt lat="45.1679" lon="5.90094">
        <ele>1230.2</ele>
        <time>2021-04-10T09:57:24Z</time>
      </trkpt>
      <trkpt lat="45.16789" lon="5.90094">
        <ele>1230.2</ele>
        <time>2021-04-10T09:57:25Z</time>
      </trkpt>
      <trkpt lat="45.16789" lon="5.90094">
        <ele>1230.2</ele>
        <time>2021-04-10T09:57:26Z</time>
      </trkpt>
      <trkpt lat="45.16789" lon="5.90094">
        <ele>1230.2</ele>
        <time>2021-04-10T09:57:27Z</time>
      </trkpt>
      <trkpt lat="45.16788" lon="5.90094">
        <ele>1230.2</ele>
        <time>2021-04-10T09:57:28Z</time>
      </trkpt>
      <trkpt lat="45.16788" lon="5.90094">
        <ele>1230.2</ele>
        <time>2021-04-10T09:57:29Z</time>
      </trkpt>
      <trkpt lat="45.16787" lon="5.90094">
        <ele>1230.4</ele>
        <time>2021-04-10T09:57:30Z</time>
      </trkpt>
      <trkpt lat="45.16787" lon="5.90094">
        <ele>1230.4</ele>
        <time>2021-04-10T09:57:31Z</time>
      </trkpt>
      <trkpt lat="45.16787" lon="5.90094">
        <ele>1230.2</ele>
        <time>2021-04-10T09:57:32Z</time>
      </trkpt>
      <trkpt lat="45.16786" lon="5.90094">
        <ele>1230.2</ele>
        <time>2021-04-10T09:57:33Z</time>
      </trkpt>
      <trkpt lat="45.16786" lon="5.90095">
        <ele>1230.2</ele>
        <time>2021-04-10T09:57:34Z</time>
      </trkpt>
      <trkpt lat="45.16785" lon="5.90095">
        <ele>1230</ele>
        <time>2021-04-10T09:57:35Z</time>
      </trkpt>
      <trkpt lat="45.16785" lon="5.90095">
        <ele>1229.8</ele>
        <time>2021-04-10T09:57:36Z</time>
      </trkpt>
      <trkpt lat="45.16785" lon="5.90095">
        <ele>1229.8</ele>
        <time>2021-04-10T09:57:37Z</time>
      </trkpt>
      <trkpt lat="45.16784" lon="5.90095">
        <ele>1229.6</ele>
        <time>2021-04-10T09:57:38Z</time>
      </trkpt>
      <trkpt lat="45.16784" lon="5.90095">
        <ele>1229.6</ele>
        <time>2021-04-10T09:57:39Z</time>
      </trkpt>
      <trkpt lat="45.16783" lon="5.90095">
        <ele>1229.6</ele>
        <time>2021-04-10T09:57:40Z</time>
      </trkpt>
      <trkpt lat="45.16783" lon="5.90095">
        <ele>1229.8</ele>
        <time>2021-04-10T09:57:41Z</time>
      </trkpt>
      <trkpt lat="45.16782" lon="5.90094">
        <ele>1230</ele>
        <time>2021-04-10T09:57:42Z</time>
      </trkpt>
      <trkpt lat="45.16781" lon="5.90094">
        <ele>1230</ele>
        <time>2021-04-10T09:57:43Z</time>
      </trkpt>
      <trkpt lat="45.1678" lon="5.90093">
        <ele>1230.4</ele>
        <time>2021-04-10T09:57:44Z</time>
      </trkpt>
      <trkpt lat="45.16779" lon="5.90093">
        <ele>1230.4</ele>
        <time>2021-04-10T09:57:45Z</time>
      </trkpt>
      <trkpt lat="45.16778" lon="5.90093">
        <ele>1230.4</ele>
        <time>2021-04-10T09:57:46Z</time>
      </trkpt>
      <trkpt lat="45.16777" lon="5.90092">
        <ele>1230.4</ele>
        <time>2021-04-10T09:57:47Z</time>
      </trkpt>
      <trkpt lat="45.16776" lon="5.90092">
        <ele>1230.4</ele>
        <time>2021-04-10T09:57:48Z</time>
      </trkpt>
      <trkpt lat="45.16775" lon="5.90091">
        <ele>1230.2</ele>
        <time>2021-04-10T09:57:49Z</time>
      </trkpt>
      <trkpt lat="45.16774" lon="5.90091">
        <ele>1230.4</ele>
        <time>2021-04-10T09:57:50Z</time>
      </trkpt>
      <trkpt lat="45.16773" lon="5.90091">
        <ele>1230.6</ele>
        <time>2021-04-10T09:57:51Z</time>
      </trkpt>
      <trkpt lat="45.16772" lon="5.9009">
        <ele>1230.6</ele>
        <time>2021-04-10T09:57:52Z</time>
      </trkpt>
      <trkpt lat="45.1677" lon="5.9009">
        <ele>1230.8</ele>
        <time>2021-04-10T09:57:53Z</time>
      </trkpt>
      <trkpt lat="45.16769" lon="5.90089">
        <ele>1231</ele>
        <time>2021-04-10T09:57:54Z</time>
      </trkpt>
      <trkpt lat="45.16768" lon="5.90089">
        <ele>1231</ele>
        <time>2021-04-10T09:57:55Z</time>
      </trkpt>
      <trkpt lat="45.16767" lon="5.90089">
        <ele>1231.4</ele>
        <time>2021-04-10T09:57:56Z</time>
      </trkpt>
      <trkpt lat="45.16765" lon="5.90088">
        <ele>1231.4</ele>
        <time>2021-04-10T09:57:57Z</time>
      </trkpt>
      <trkpt lat="45.16764" lon="5.90088">
        <ele>1231.6</ele>
        <time>2021-04-10T09:57:58Z</time>
      </trkpt>
      <trkpt lat="45.16763" lon="5.90086">
        <ele>1232.2</ele>
        <time>2021-04-10T09:57:59Z</time>
      </trkpt>
      <trkpt lat="45.16762" lon="5.90083">
        <ele>1232.2</ele>
        <time>2021-04-10T09:58:00Z</time>
      </trkpt>
      <trkpt lat="45.16761" lon="5.90081">
        <ele>1232.2</ele>
        <time>2021-04-10T09:58:01Z</time>
      </trkpt>
      <trkpt lat="45.1676" lon="5.90078">
        <ele>1232.4</ele>
        <time>2021-04-10T09:58:02Z</time>
      </trkpt>
      <trkpt lat="45.16758" lon="5.90076">
        <ele>1232.4</ele>
        <time>2021-04-10T09:58:03Z</time>
      </trkpt>
      <trkpt lat="45.16753" lon="5.90062">
        <ele>1232.8</ele>
        <time>2021-04-10T09:58:04Z</time>
      </trkpt>
      <trkpt lat="45.16753" lon="5.9006">
        <ele>1233.4</ele>
        <time>2021-04-10T09:58:05Z</time>
      </trkpt>
      <trkpt lat="45.16753" lon="5.90058">
        <ele>1233.4</ele>
        <time>2021-04-10T09:58:06Z</time>
      </trkpt>
      <trkpt lat="45.16754" lon="5.90056">
        <ele>1233.4</ele>
        <time>2021-04-10T09:58:07Z</time>
      </trkpt>
      <trkpt lat="45.16754" lon="5.90054">
        <ele>1233.4</ele>
        <time>2021-04-10T09:58:08Z</time>
      </trkpt>
      <trkpt lat="45.16754" lon="5.90052">
        <ele>1233.4</ele>
        <time>2021-04-10T09:58:09Z</time>
      </trkpt>
      <trkpt lat="45.16754" lon="5.9005">
        <ele>1233.6</ele>
        <time>2021-04-10T09:58:10Z</time>
      </trkpt>
      <trkpt lat="45.16754" lon="5.90049">
        <ele>1233.4</ele>
        <time>2021-04-10T09:58:11Z</time>
      </trkpt>
      <trkpt lat="45.16754" lon="5.90047">
        <ele>1233.4</ele>
        <time>2021-04-10T09:58:12Z</time>
      </trkpt>
      <trkpt lat="45.16754" lon="5.90045">
        <ele>1233.4</ele>
        <time>2021-04-10T09:58:13Z</time>
      </trkpt>
      <trkpt lat="45.16754" lon="5.90043">
        <ele>1233.4</ele>
        <time>2021-04-10T09:58:14Z</time>
      </trkpt>
      <trkpt lat="45.16754" lon="5.90041">
        <ele>1233.4</ele>
        <time>2021-04-10T09:58:15Z</time>
      </trkpt>
      <trkpt lat="45.16755" lon="5.90039">
        <ele>1233.4</ele>
        <time>2021-04-10T09:58:16Z</time>
      </trkpt>
      <trkpt lat="45.16755" lon="5.90037">
        <ele>1233.4</ele>
        <time>2021-04-10T09:58:17Z</time>
      </trkpt>
      <trkpt lat="45.16755" lon="5.90035">
        <ele>1233.4</ele>
        <time>2021-04-10T09:58:18Z</time>
      </trkpt>
      <trkpt lat="45.16755" lon="5.90033">
        <ele>1233.4</ele>
        <time>2021-04-10T09:58:19Z</time>
      </trkpt>
      <trkpt lat="45.16755" lon="5.90031">
        <ele>1232.8</ele>
        <time>2021-04-10T09:58:20Z</time>
      </trkpt>
      <trkpt lat="45.16755" lon="5.90029">
        <ele>1232.6</ele>
        <time>2021-04-10T09:58:21Z</time>
      </trkpt>
      <trkpt lat="45.16755" lon="5.90027">
        <ele>1232.2</ele>
        <time>2021-04-10T09:58:22Z</time>
      </trkpt>
      <trkpt lat="45.16755" lon="5.90025">
        <ele>1231.6</ele>
        <time>2021-04-10T09:58:23Z</time>
      </trkpt>
      <trkpt lat="45.16756" lon="5.90023">
        <ele>1231.6</ele>
        <time>2021-04-10T09:58:24Z</time>
      </trkpt>
      <trkpt lat="45.16756" lon="5.90021">
        <ele>1231</ele>
        <time>2021-04-10T09:58:25Z</time>
      </trkpt>
      <trkpt lat="45.16756" lon="5.9002">
        <ele>1230.6</ele>
        <time>2021-04-10T09:58:26Z</time>
      </trkpt>
      <trkpt lat="45.16756" lon="5.90018">
        <ele>1230.2</ele>
        <time>2021-04-10T09:58:27Z</time>
      </trkpt>
      <trkpt lat="45.16756" lon="5.90016">
        <ele>1229.4</ele>
        <time>2021-04-10T09:58:28Z</time>
      </trkpt>
      <trkpt lat="45.16756" lon="5.90014">
        <ele>1229</ele>
        <time>2021-04-10T09:58:29Z</time>
      </trkpt>
      <trkpt lat="45.16756" lon="5.90012">
        <ele>1228.2</ele>
        <time>2021-04-10T09:58:30Z</time>
      </trkpt>
      <trkpt lat="45.16756" lon="5.9001">
        <ele>1228.4</ele>
        <time>2021-04-10T09:58:31Z</time>
      </trkpt>
      <trkpt lat="45.16756" lon="5.90008">
        <ele>1228.2</ele>
        <time>2021-04-10T09:58:32Z</time>
      </trkpt>
      <trkpt lat="45.16757" lon="5.90006">
        <ele>1228.4</ele>
        <time>2021-04-10T09:58:33Z</time>
      </trkpt>
      <trkpt lat="45.16757" lon="5.90004">
        <ele>1228.2</ele>
        <time>2021-04-10T09:58:34Z</time>
      </trkpt>
      <trkpt lat="45.16757" lon="5.90002">
        <ele>1228.4</ele>
        <time>2021-04-10T09:58:35Z</time>
      </trkpt>
      <trkpt lat="45.16757" lon="5.9">
        <ele>1227.8</ele>
        <time>2021-04-10T09:58:36Z</time>
      </trkpt>
      <trkpt lat="45.16752" lon="5.89992">
        <ele>1228.2</ele>
        <time>2021-04-10T09:58:37Z</time>
      </trkpt>
      <trkpt lat="45.1675" lon="5.89989">
        <ele>1227.8</ele>
        <time>2021-04-10T09:58:38Z</time>
      </trkpt>
      <trkpt lat="45.16748" lon="5.89987">
        <ele>1228.2</ele>
        <time>2021-04-10T09:58:39Z</time>
      </trkpt>
      <trkpt lat="45.16746" lon="5.89983">
        <ele>1228.2</ele>
        <time>2021-04-10T09:58:40Z</time>
      </trkpt>
      <trkpt lat="45.16745" lon="5.89979">
        <ele>1228.4</ele>
        <time>2021-04-10T09:58:41Z</time>
      </trkpt>
      <trkpt lat="45.16742" lon="5.8997">
        <ele>1228.2</ele>
        <time>2021-04-10T09:58:42Z</time>
      </trkpt>
      <trkpt lat="45.1674" lon="5.89965">
        <ele>1228.4</ele>
        <time>2021-04-10T09:58:43Z</time>
      </trkpt>
      <trkpt lat="45.16738" lon="5.89961">
        <ele>1228.4</ele>
        <time>2021-04-10T09:58:44Z</time>
      </trkpt>
      <trkpt lat="45.16737" lon="5.89958">
        <ele>1228.8</ele>
        <time>2021-04-10T09:58:45Z</time>
      </trkpt>
      <trkpt lat="45.16736" lon="5.89955">
        <ele>1228.8</ele>
        <time>2021-04-10T09:58:46Z</time>
      </trkpt>
      <trkpt lat="45.16734" lon="5.89951">
        <ele>1229.2</ele>
        <time>2021-04-10T09:58:47Z</time>
      </trkpt>
      <trkpt lat="45.16733" lon="5.89949">
        <ele>1229.2</ele>
        <time>2021-04-10T09:58:48Z</time>
      </trkpt>
      <trkpt lat="45.16731" lon="5.89947">
        <ele>1229.4</ele>
        <time>2021-04-10T09:58:49Z</time>
      </trkpt>
      <trkpt lat="45.1673" lon="5.89945">
        <ele>1229.2</ele>
        <time>2021-04-10T09:58:50Z</time>
      </trkpt>
      <trkpt lat="45.16729" lon="5.89942">
        <ele>1229.4</ele>
        <time>2021-04-10T09:58:51Z</time>
      </trkpt>
      <trkpt lat="45.16728" lon="5.89939">
        <ele>1229.4</ele>
        <time>2021-04-10T09:58:52Z</time>
      </trkpt>
      <trkpt lat="45.16727" lon="5.89937">
        <ele>1229.4</ele>
        <time>2021-04-10T09:58:53Z</time>
      </trkpt>
      <trkpt lat="45.16726" lon="5.89934">
        <ele>1229.2</ele>
        <time>2021-04-10T09:58:54Z</time>
      </trkpt>
      <trkpt lat="45.16725" lon="5.89931">
        <ele>1228.8</ele>
        <time>2021-04-10T09:58:55Z</time>
      </trkpt>
      <trkpt lat="45.16724" lon="5.89928">
        <ele>1228.6</ele>
        <time>2021-04-10T09:58:56Z</time>
      </trkpt>
      <trkpt lat="45.16723" lon="5.89925">
        <ele>1228</ele>
        <time>2021-04-10T09:58:57Z</time>
      </trkpt>
      <trkpt lat="45.16722" lon="5.89922">
        <ele>1227.8</ele>
        <time>2021-04-10T09:58:58Z</time>
      </trkpt>
      <trkpt lat="45.16721" lon="5.89919">
        <ele>1227.4</ele>
        <time>2021-04-10T09:58:59Z</time>
      </trkpt>
      <trkpt lat="45.16721" lon="5.89917">
        <ele>1227.4</ele>
        <time>2021-04-10T09:59:00Z</time>
      </trkpt>
      <trkpt lat="45.1672" lon="5.89914">
        <ele>1226.8</ele>
        <time>2021-04-10T09:59:01Z</time>
      </trkpt>
      <trkpt lat="45.1672" lon="5.89912">
        <ele>1226.8</ele>
        <time>2021-04-10T09:59:02Z</time>
      </trkpt>
      <trkpt lat="45.16719" lon="5.89909">
        <ele>1226.6</ele>
        <time>2021-04-10T09:59:03Z</time>
      </trkpt>
      <trkpt lat="45.16718" lon="5.89907">
        <ele>1226.8</ele>
        <time>2021-04-10T09:59:04Z</time>
      </trkpt>
      <trkpt lat="45.16718" lon="5.89904">
        <ele>1226.4</ele>
        <time>2021-04-10T09:59:05Z</time>
      </trkpt>
      <trkpt lat="45.16717" lon="5.89902">
        <ele>1227</ele>
        <time>2021-04-10T09:59:06Z</time>
      </trkpt>
      <trkpt lat="45.16716" lon="5.89899">
        <ele>1226.8</ele>
        <time>2021-04-10T09:59:07Z</time>
      </trkpt>
      <trkpt lat="45.16716" lon="5.89897">
        <ele>1227.2</ele>
        <time>2021-04-10T09:59:08Z</time>
      </trkpt>
      <trkpt lat="45.16716" lon="5.89897">
        <ele>1227.2</ele>
        <time>2021-04-10T09:59:09Z</time>
      </trkpt>
      <trkpt lat="45.16716" lon="5.89897">
        <ele>1227.8</ele>
        <time>2021-04-10T09:59:10Z</time>
      </trkpt>
      <trkpt lat="45.16716" lon="5.89897">
        <ele>1228.2</ele>
        <time>2021-04-10T09:59:11Z</time>
      </trkpt>
      <trkpt lat="45.16715" lon="5.89895">
        <ele>1228.6</ele>
        <time>2021-04-10T09:59:12Z</time>
      </trkpt>
      <trkpt lat="45.16714" lon="5.89894">
        <ele>1228.6</ele>
        <time>2021-04-10T09:59:13Z</time>
      </trkpt>
      <trkpt lat="45.16713" lon="5.89893">
        <ele>1228.8</ele>
        <time>2021-04-10T09:59:14Z</time>
      </trkpt>
      <trkpt lat="45.16713" lon="5.89892">
        <ele>1228.6</ele>
        <time>2021-04-10T09:59:15Z</time>
      </trkpt>
      <trkpt lat="45.16712" lon="5.89891">
        <ele>1228.6</ele>
        <time>2021-04-10T09:59:16Z</time>
      </trkpt>
      <trkpt lat="45.16711" lon="5.8989">
        <ele>1228.8</ele>
        <time>2021-04-10T09:59:17Z</time>
      </trkpt>
      <trkpt lat="45.1671" lon="5.89888">
        <ele>1228.8</ele>
        <time>2021-04-10T09:59:18Z</time>
      </trkpt>
      <trkpt lat="45.16709" lon="5.89887">
        <ele>1229</ele>
        <time>2021-04-10T09:59:19Z</time>
      </trkpt>
      <trkpt lat="45.16708" lon="5.89886">
        <ele>1229.2</ele>
        <time>2021-04-10T09:59:20Z</time>
      </trkpt>
      <trkpt lat="45.16707" lon="5.89884">
        <ele>1229.6</ele>
        <time>2021-04-10T09:59:21Z</time>
      </trkpt>
      <trkpt lat="45.16706" lon="5.89883">
        <ele>1229.6</ele>
        <time>2021-04-10T09:59:22Z</time>
      </trkpt>
      <trkpt lat="45.16704" lon="5.89881">
        <ele>1229.6</ele>
        <time>2021-04-10T09:59:23Z</time>
      </trkpt>
      <trkpt lat="45.16703" lon="5.89879">
        <ele>1229.6</ele>
        <time>2021-04-10T09:59:24Z</time>
      </trkpt>
      <trkpt lat="45.16702" lon="5.89878">
        <ele>1230</ele>
        <time>2021-04-10T09:59:25Z</time>
      </trkpt>
      <trkpt lat="45.167" lon="5.89878">
        <ele>1230</ele>
        <time>2021-04-10T09:59:26Z</time>
      </trkpt>
      <trkpt lat="45.16699" lon="5.89878">
        <ele>1230</ele>
        <time>2021-04-10T09:59:27Z</time>
      </trkpt>
      <trkpt lat="45.16697" lon="5.89877">
        <ele>1229.8</ele>
        <time>2021-04-10T09:59:28Z</time>
      </trkpt>
      <trkpt lat="45.16696" lon="5.89877">
        <ele>1229.8</ele>
        <time>2021-04-10T09:59:29Z</time>
      </trkpt>
      <trkpt lat="45.16694" lon="5.89877">
        <ele>1230</ele>
        <time>2021-04-10T09:59:30Z</time>
      </trkpt>
      <trkpt lat="45.16693" lon="5.89877">
        <ele>1230</ele>
        <time>2021-04-10T09:59:31Z</time>
      </trkpt>
      <trkpt lat="45.16691" lon="5.89877">
        <ele>1230.4</ele>
        <time>2021-04-10T09:59:32Z</time>
      </trkpt>
      <trkpt lat="45.16688" lon="5.89876">
        <ele>1230.8</ele>
        <time>2021-04-10T09:59:33Z</time>
      </trkpt>
      <trkpt lat="45.16686" lon="5.89874">
        <ele>1231.2</ele>
        <time>2021-04-10T09:59:34Z</time>
      </trkpt>
      <trkpt lat="45.16684" lon="5.89873">
        <ele>1231.2</ele>
        <time>2021-04-10T09:59:35Z</time>
      </trkpt>
      <trkpt lat="45.16681" lon="5.89872">
        <ele>1231.2</ele>
        <time>2021-04-10T09:59:36Z</time>
      </trkpt>
      <trkpt lat="45.16679" lon="5.8987">
        <ele>1231.4</ele>
        <time>2021-04-10T09:59:37Z</time>
      </trkpt>
      <trkpt lat="45.16676" lon="5.89871">
        <ele>1231.6</ele>
        <time>2021-04-10T09:59:38Z</time>
      </trkpt>
      <trkpt lat="45.16675" lon="5.89872">
        <ele>1231.8</ele>
        <time>2021-04-10T09:59:39Z</time>
      </trkpt>
      <trkpt lat="45.16674" lon="5.89872">
        <ele>1232</ele>
        <time>2021-04-10T09:59:40Z</time>
      </trkpt>
      <trkpt lat="45.16672" lon="5.89873">
        <ele>1232</ele>
        <time>2021-04-10T09:59:41Z</time>
      </trkpt>
      <trkpt lat="45.16671" lon="5.89873">
        <ele>1232.6</ele>
        <time>2021-04-10T09:59:42Z</time>
      </trkpt>
      <trkpt lat="45.1667" lon="5.89874">
        <ele>1232.8</ele>
        <time>2021-04-10T09:59:43Z</time>
      </trkpt>
      <trkpt lat="45.16668" lon="5.89874">
        <ele>1232.8</ele>
        <time>2021-04-10T09:59:44Z</time>
      </trkpt>
      <trkpt lat="45.16667" lon="5.89874">
        <ele>1232.8</ele>
        <time>2021-04-10T09:59:45Z</time>
      </trkpt>
      <trkpt lat="45.16666" lon="5.89875">
        <ele>1233</ele>
        <time>2021-04-10T09:59:46Z</time>
      </trkpt>
      <trkpt lat="45.16664" lon="5.89875">
        <ele>1233.2</ele>
        <time>2021-04-10T09:59:47Z</time>
      </trkpt>
      <trkpt lat="45.16663" lon="5.89876">
        <ele>1233.6</ele>
        <time>2021-04-10T09:59:48Z</time>
      </trkpt>
      <trkpt lat="45.16662" lon="5.89876">
        <ele>1234</ele>
        <time>2021-04-10T09:59:49Z</time>
      </trkpt>
      <trkpt lat="45.1666" lon="5.89877">
        <ele>1234.2</ele>
        <time>2021-04-10T09:59:50Z</time>
      </trkpt>
      <trkpt lat="45.16659" lon="5.89877">
        <ele>1234.6</ele>
        <time>2021-04-10T09:59:51Z</time>
      </trkpt>
      <trkpt lat="45.16658" lon="5.89877">
        <ele>1234.8</ele>
        <time>2021-04-10T09:59:52Z</time>
      </trkpt>
      <trkpt lat="45.16656" lon="5.89878">
        <ele>1235</ele>
        <time>2021-04-10T09:59:53Z</time>
      </trkpt>
      <trkpt lat="45.16655" lon="5.89878">
        <ele>1235</ele>
        <time>2021-04-10T09:59:54Z</time>
      </trkpt>
      <trkpt lat="45.16654" lon="5.89879">
        <ele>1235.2</ele>
        <time>2021-04-10T09:59:55Z</time>
      </trkpt>
      <trkpt lat="45.16652" lon="5.89879">
        <ele>1235.6</ele>
        <time>2021-04-10T09:59:56Z</time>
      </trkpt>
      <trkpt lat="45.16651" lon="5.8988">
        <ele>1235.8</ele>
        <time>2021-04-10T09:59:57Z</time>
      </trkpt>
      <trkpt lat="45.16651" lon="5.8988">
        <ele>1236.2</ele>
        <time>2021-04-10T09:59:58Z</time>
      </trkpt>
      <trkpt lat="45.16651" lon="5.8988">
        <ele>1236.6</ele>
        <time>2021-04-10T09:59:59Z</time>
      </trkpt>
      <trkpt lat="45.16651" lon="5.8988">
        <ele>1237</ele>
        <time>2021-04-10T10:00:01Z</time>
      </trkpt>
      <trkpt lat="45.1665" lon="5.8988">
        <ele>1237.2</ele>
        <time>2021-04-10T10:00:02Z</time>
      </trkpt>
      <trkpt lat="45.16649" lon="5.8988">
        <ele>1237.2</ele>
        <time>2021-04-10T10:00:03Z</time>
      </trkpt>
      <trkpt lat="45.16649" lon="5.8988">
        <ele>1237.4</ele>
        <time>2021-04-10T10:00:04Z</time>
      </trkpt>
      <trkpt lat="45.16648" lon="5.8988">
        <ele>1237.6</ele>
        <time>2021-04-10T10:00:05Z</time>
      </trkpt>
      <trkpt lat="45.16647" lon="5.8988">
        <ele>1237.6</ele>
        <time>2021-04-10T10:00:06Z</time>
      </trkpt>
      <trkpt lat="45.16647" lon="5.8988">
        <ele>1238</ele>
        <time>2021-04-10T10:00:07Z</time>
      </trkpt>
      <trkpt lat="45.16646" lon="5.8988">
        <ele>1238.4</ele>
        <time>2021-04-10T10:00:08Z</time>
      </trkpt>
      <trkpt lat="45.16645" lon="5.8988">
        <ele>1238.6</ele>
        <time>2021-04-10T10:00:09Z</time>
      </trkpt>
      <trkpt lat="45.16645" lon="5.8988">
        <ele>1238.6</ele>
        <time>2021-04-10T10:00:10Z</time>
      </trkpt>
      <trkpt lat="45.16644" lon="5.8988">
        <ele>1238.6</ele>
        <time>2021-04-10T10:00:11Z</time>
      </trkpt>
      <trkpt lat="45.16643" lon="5.8988">
        <ele>1239</ele>
        <time>2021-04-10T10:00:12Z</time>
      </trkpt>
      <trkpt lat="45.16642" lon="5.8988">
        <ele>1239.2</ele>
        <time>2021-04-10T10:00:13Z</time>
      </trkpt>
      <trkpt lat="45.16642" lon="5.8988">
        <ele>1239.6</ele>
        <time>2021-04-10T10:00:14Z</time>
      </trkpt>
      <trkpt lat="45.1664" lon="5.89879">
        <ele>1239.6</ele>
        <time>2021-04-10T10:00:15Z</time>
      </trkpt>
      <trkpt lat="45.16639" lon="5.89879">
        <ele>1239.4</ele>
        <time>2021-04-10T10:00:16Z</time>
      </trkpt>
      <trkpt lat="45.16637" lon="5.89879">
        <ele>1239.6</ele>
        <time>2021-04-10T10:00:17Z</time>
      </trkpt>
      <trkpt lat="45.16636" lon="5.89879">
        <ele>1239.4</ele>
        <time>2021-04-10T10:00:18Z</time>
      </trkpt>
      <trkpt lat="45.16634" lon="5.89878">
        <ele>1239.2</ele>
        <time>2021-04-10T10:00:19Z</time>
      </trkpt>
      <trkpt lat="45.16633" lon="5.89878">
        <ele>1239.2</ele>
        <time>2021-04-10T10:00:20Z</time>
      </trkpt>
      <trkpt lat="45.16631" lon="5.89878">
        <ele>1239</ele>
        <time>2021-04-10T10:00:21Z</time>
      </trkpt>
      <trkpt lat="45.16628" lon="5.89877">
        <ele>1239</ele>
        <time>2021-04-10T10:00:22Z</time>
      </trkpt>
      <trkpt lat="45.16624" lon="5.89876">
        <ele>1238.8</ele>
        <time>2021-04-10T10:00:23Z</time>
      </trkpt>
      <trkpt lat="45.16621" lon="5.89875">
        <ele>1239.2</ele>
        <time>2021-04-10T10:00:24Z</time>
      </trkpt>
      <trkpt lat="45.16618" lon="5.89873">
        <ele>1239.2</ele>
        <time>2021-04-10T10:00:25Z</time>
      </trkpt>
      <trkpt lat="45.16614" lon="5.89872">
        <ele>1239.4</ele>
        <time>2021-04-10T10:00:26Z</time>
      </trkpt>
      <trkpt lat="45.16611" lon="5.89871">
        <ele>1239.2</ele>
        <time>2021-04-10T10:00:27Z</time>
      </trkpt>
      <trkpt lat="45.16607" lon="5.8987">
        <ele>1239.2</ele>
        <time>2021-04-10T10:00:28Z</time>
      </trkpt>
      <trkpt lat="45.16603" lon="5.8987">
        <ele>1239</ele>
        <time>2021-04-10T10:00:29Z</time>
      </trkpt>
      <trkpt lat="45.16598" lon="5.89871">
        <ele>1239</ele>
        <time>2021-04-10T10:00:30Z</time>
      </trkpt>
      <trkpt lat="45.16594" lon="5.89871">
        <ele>1238.8</ele>
        <time>2021-04-10T10:00:31Z</time>
      </trkpt>
      <trkpt lat="45.16589" lon="5.8987">
        <ele>1238.8</ele>
        <time>2021-04-10T10:00:32Z</time>
      </trkpt>
      <trkpt lat="45.16585" lon="5.8987">
        <ele>1238.2</ele>
        <time>2021-04-10T10:00:33Z</time>
      </trkpt>
      <trkpt lat="45.1658" lon="5.8987">
        <ele>1237.8</ele>
        <time>2021-04-10T10:00:34Z</time>
      </trkpt>
      <trkpt lat="45.16576" lon="5.89871">
        <ele>1237.2</ele>
        <time>2021-04-10T10:00:35Z</time>
      </trkpt>
      <trkpt lat="45.16571" lon="5.89871">
        <ele>1236.8</ele>
        <time>2021-04-10T10:00:36Z</time>
      </trkpt>
      <trkpt lat="45.16566" lon="5.89872">
        <ele>1236.8</ele>
        <time>2021-04-10T10:00:37Z</time>
      </trkpt>
      <trkpt lat="45.16566" lon="5.89872">
        <ele>1237</ele>
        <time>2021-04-10T10:00:38Z</time>
      </trkpt>
      <trkpt lat="45.16563" lon="5.89871">
        <ele>1237.4</ele>
        <time>2021-04-10T10:00:39Z</time>
      </trkpt>
      <trkpt lat="45.1656" lon="5.89871">
        <ele>1237.4</ele>
        <time>2021-04-10T10:00:40Z</time>
      </trkpt>
      <trkpt lat="45.16553" lon="5.89871">
        <ele>1237.6</ele>
        <time>2021-04-10T10:00:41Z</time>
      </trkpt>
      <trkpt lat="45.16551" lon="5.89871">
        <ele>1237.4</ele>
        <time>2021-04-10T10:00:42Z</time>
      </trkpt>
      <trkpt lat="45.16549" lon="5.89871">
        <ele>1237.2</ele>
        <time>2021-04-10T10:00:43Z</time>
      </trkpt>
      <trkpt lat="45.16547" lon="5.89871">
        <ele>1237.2</ele>
        <time>2021-04-10T10:00:44Z</time>
      </trkpt>
      <trkpt lat="45.16545" lon="5.89871">
        <ele>1236.8</ele>
        <time>2021-04-10T10:00:45Z</time>
      </trkpt>
      <trkpt lat="45.16542" lon="5.89871">
        <ele>1237</ele>
        <time>2021-04-10T10:00:46Z</time>
      </trkpt>
      <trkpt lat="45.16539" lon="5.89872">
        <ele>1236.8</ele>
        <time>2021-04-10T10:00:47Z</time>
      </trkpt>
      <trkpt lat="45.16536" lon="5.89872">
        <ele>1236.4</ele>
        <time>2021-04-10T10:00:48Z</time>
      </trkpt>
      <trkpt lat="45.16534" lon="5.89873">
        <ele>1236</ele>
        <time>2021-04-10T10:00:49Z</time>
      </trkpt>
      <trkpt lat="45.16533" lon="5.89874">
        <ele>1235.6</ele>
        <time>2021-04-10T10:00:50Z</time>
      </trkpt>
      <trkpt lat="45.16532" lon="5.89875">
        <ele>1236.2</ele>
        <time>2021-04-10T10:00:51Z</time>
      </trkpt>
      <trkpt lat="45.1653" lon="5.89876">
        <ele>1236</ele>
        <time>2021-04-10T10:00:52Z</time>
      </trkpt>
      <trkpt lat="45.16529" lon="5.89877">
        <ele>1236.6</ele>
        <time>2021-04-10T10:00:53Z</time>
      </trkpt>
      <trkpt lat="45.16527" lon="5.89878">
        <ele>1236.4</ele>
        <time>2021-04-10T10:00:54Z</time>
      </trkpt>
      <trkpt lat="45.16526" lon="5.89879">
        <ele>1236.4</ele>
        <time>2021-04-10T10:00:55Z</time>
      </trkpt>
      <trkpt lat="45.16524" lon="5.8988">
        <ele>1236.8</ele>
        <time>2021-04-10T10:00:56Z</time>
      </trkpt>
      <trkpt lat="45.16523" lon="5.89881">
        <ele>1236.6</ele>
        <time>2021-04-10T10:00:57Z</time>
      </trkpt>
      <trkpt lat="45.16521" lon="5.89881">
        <ele>1236.6</ele>
        <time>2021-04-10T10:00:58Z</time>
      </trkpt>
      <trkpt lat="45.16515" lon="5.89884">
        <ele>1236.4</ele>
        <time>2021-04-10T10:00:59Z</time>
      </trkpt>
      <trkpt lat="45.16514" lon="5.89885">
        <ele>1235.8</ele>
        <time>2021-04-10T10:01:00Z</time>
      </trkpt>
      <trkpt lat="45.16513" lon="5.89886">
        <ele>1235.4</ele>
        <time>2021-04-10T10:01:01Z</time>
      </trkpt>
      <trkpt lat="45.16509" lon="5.89889">
        <ele>1235.2</ele>
        <time>2021-04-10T10:01:02Z</time>
      </trkpt>
      <trkpt lat="45.16509" lon="5.89889">
        <ele>1235</ele>
        <time>2021-04-10T10:01:03Z</time>
      </trkpt>
      <trkpt lat="45.16509" lon="5.89889">
        <ele>1235.2</ele>
        <time>2021-04-10T10:01:04Z</time>
      </trkpt>
      <trkpt lat="45.16509" lon="5.89889">
        <ele>1235</ele>
        <time>2021-04-10T10:01:05Z</time>
      </trkpt>
      <trkpt lat="45.16507" lon="5.8989">
        <ele>1235.2</ele>
        <time>2021-04-10T10:01:06Z</time>
      </trkpt>
      <trkpt lat="45.16506" lon="5.8989">
        <ele>1235.2</ele>
        <time>2021-04-10T10:01:07Z</time>
      </trkpt>
      <trkpt lat="45.16504" lon="5.89891">
        <ele>1235.4</ele>
        <time>2021-04-10T10:01:08Z</time>
      </trkpt>
      <trkpt lat="45.16502" lon="5.89892">
        <ele>1235.6</ele>
        <time>2021-04-10T10:01:09Z</time>
      </trkpt>
      <trkpt lat="45.165" lon="5.89893">
        <ele>1235.6</ele>
        <time>2021-04-10T10:01:10Z</time>
      </trkpt>
      <trkpt lat="45.16491" lon="5.89895">
        <ele>1236.4</ele>
        <time>2021-04-10T10:01:11Z</time>
      </trkpt>
      <trkpt lat="45.16489" lon="5.89896">
        <ele>1236.6</ele>
        <time>2021-04-10T10:01:12Z</time>
      </trkpt>
      <trkpt lat="45.16487" lon="5.89898">
        <ele>1237.2</ele>
        <time>2021-04-10T10:01:13Z</time>
      </trkpt>
      <trkpt lat="45.16485" lon="5.899">
        <ele>1237.2</ele>
        <time>2021-04-10T10:01:14Z</time>
      </trkpt>
      <trkpt lat="45.16483" lon="5.89901">
        <ele>1237.4</ele>
        <time>2021-04-10T10:01:15Z</time>
      </trkpt>
      <trkpt lat="45.16482" lon="5.89902">
        <ele>1237.2</ele>
        <time>2021-04-10T10:01:16Z</time>
      </trkpt>
      <trkpt lat="45.1648" lon="5.89903">
        <ele>1237.2</ele>
        <time>2021-04-10T10:01:17Z</time>
      </trkpt>
      <trkpt lat="45.16479" lon="5.89904">
        <ele>1236.8</ele>
        <time>2021-04-10T10:01:18Z</time>
      </trkpt>
      <trkpt lat="45.16477" lon="5.89905">
        <ele>1236.8</ele>
        <time>2021-04-10T10:01:19Z</time>
      </trkpt>
      <trkpt lat="45.16471" lon="5.89909">
        <ele>1237</ele>
        <time>2021-04-10T10:01:20Z</time>
      </trkpt>
      <trkpt lat="45.16468" lon="5.89911">
        <ele>1237</ele>
        <time>2021-04-10T10:01:21Z</time>
      </trkpt>
      <trkpt lat="45.16466" lon="5.89912">
        <ele>1237</ele>
        <time>2021-04-10T10:01:22Z</time>
      </trkpt>
      <trkpt lat="45.16466" lon="5.89912">
        <ele>1236.8</ele>
        <time>2021-04-10T10:01:23Z</time>
      </trkpt>
      <trkpt lat="45.16466" lon="5.89912">
        <ele>1236.4</ele>
        <time>2021-04-10T10:01:24Z</time>
      </trkpt>
      <trkpt lat="45.16466" lon="5.89912">
        <ele>1236.4</ele>
        <time>2021-04-10T10:01:25Z</time>
      </trkpt>
      <trkpt lat="45.16466" lon="5.89912">
        <ele>1235.8</ele>
        <time>2021-04-10T10:01:26Z</time>
      </trkpt>
      <trkpt lat="45.16464" lon="5.89915">
        <ele>1235.4</ele>
        <time>2021-04-10T10:01:27Z</time>
      </trkpt>
      <trkpt lat="45.16461" lon="5.89918">
        <ele>1235.4</ele>
        <time>2021-04-10T10:01:28Z</time>
      </trkpt>
      <trkpt lat="45.16458" lon="5.89921">
        <ele>1235.2</ele>
        <time>2021-04-10T10:01:29Z</time>
      </trkpt>
      <trkpt lat="45.16455" lon="5.89924">
        <ele>1234.8</ele>
        <time>2021-04-10T10:01:30Z</time>
      </trkpt>
      <trkpt lat="45.16452" lon="5.89926">
        <ele>1234</ele>
        <time>2021-04-10T10:01:31Z</time>
      </trkpt>
      <trkpt lat="45.16449" lon="5.89929">
        <ele>1233.6</ele>
        <time>2021-04-10T10:01:32Z</time>
      </trkpt>
      <trkpt lat="45.16449" lon="5.89938">
        <ele>1233.8</ele>
        <time>2021-04-10T10:01:33Z</time>
      </trkpt>
      <trkpt lat="45.16448" lon="5.89939">
        <ele>1233.6</ele>
        <time>2021-04-10T10:01:34Z</time>
      </trkpt>
      <trkpt lat="45.16447" lon="5.8994">
        <ele>1233.8</ele>
        <time>2021-04-10T10:01:35Z</time>
      </trkpt>
      <trkpt lat="45.16446" lon="5.89941">
        <ele>1233.4</ele>
        <time>2021-04-10T10:01:36Z</time>
      </trkpt>
      <trkpt lat="45.16443" lon="5.89946">
        <ele>1233.4</ele>
        <time>2021-04-10T10:01:37Z</time>
      </trkpt>
      <trkpt lat="45.16443" lon="5.89946">
        <ele>1232.8</ele>
        <time>2021-04-10T10:01:38Z</time>
      </trkpt>
      <trkpt lat="45.16443" lon="5.89946">
        <ele>1232.4</ele>
        <time>2021-04-10T10:01:39Z</time>
      </trkpt>
      <trkpt lat="45.16443" lon="5.89946">
        <ele>1232.2</ele>
        <time>2021-04-10T10:01:40Z</time>
      </trkpt>
      <trkpt lat="45.16442" lon="5.89948">
        <ele>1232</ele>
        <time>2021-04-10T10:01:41Z</time>
      </trkpt>
      <trkpt lat="45.16441" lon="5.8995">
        <ele>1232</ele>
        <time>2021-04-10T10:01:42Z</time>
      </trkpt>
      <trkpt lat="45.1644" lon="5.89952">
        <ele>1232</ele>
        <time>2021-04-10T10:01:43Z</time>
      </trkpt>
      <trkpt lat="45.16439" lon="5.89954">
        <ele>1232.4</ele>
        <time>2021-04-10T10:01:44Z</time>
      </trkpt>
      <trkpt lat="45.16438" lon="5.89956">
        <ele>1232.8</ele>
        <time>2021-04-10T10:01:45Z</time>
      </trkpt>
      <trkpt lat="45.16433" lon="5.89968">
        <ele>1233.6</ele>
        <time>2021-04-10T10:01:46Z</time>
      </trkpt>
      <trkpt lat="45.16433" lon="5.89968">
        <ele>1233.8</ele>
        <time>2021-04-10T10:01:47Z</time>
      </trkpt>
      <trkpt lat="45.16433" lon="5.89968">
        <ele>1234.4</ele>
        <time>2021-04-10T10:01:48Z</time>
      </trkpt>
      <trkpt lat="45.16433" lon="5.89968">
        <ele>1234.2</ele>
        <time>2021-04-10T10:01:49Z</time>
      </trkpt>
      <trkpt lat="45.1643" lon="5.8997">
        <ele>1234.4</ele>
        <time>2021-04-10T10:01:50Z</time>
      </trkpt>
      <trkpt lat="45.16427" lon="5.89973">
        <ele>1234.4</ele>
        <time>2021-04-10T10:01:51Z</time>
      </trkpt>
      <trkpt lat="45.16424" lon="5.89975">
        <ele>1234.4</ele>
        <time>2021-04-10T10:01:52Z</time>
      </trkpt>
      <trkpt lat="45.16421" lon="5.89977">
        <ele>1234.6</ele>
        <time>2021-04-10T10:01:53Z</time>
      </trkpt>
      <trkpt lat="45.16419" lon="5.8998">
        <ele>1234.4</ele>
        <time>2021-04-10T10:01:54Z</time>
      </trkpt>
      <trkpt lat="45.16414" lon="5.89983">
        <ele>1234</ele>
        <time>2021-04-10T10:01:55Z</time>
      </trkpt>
      <trkpt lat="45.16413" lon="5.89983">
        <ele>1233.6</ele>
        <time>2021-04-10T10:01:56Z</time>
      </trkpt>
      <trkpt lat="45.16412" lon="5.89983">
        <ele>1233.4</ele>
        <time>2021-04-10T10:01:57Z</time>
      </trkpt>
      <trkpt lat="45.16411" lon="5.89983">
        <ele>1232.8</ele>
        <time>2021-04-10T10:01:58Z</time>
      </trkpt>
      <trkpt lat="45.1641" lon="5.89983">
        <ele>1232.8</ele>
        <time>2021-04-10T10:01:59Z</time>
      </trkpt>
      <trkpt lat="45.16407" lon="5.89983">
        <ele>1233.4</ele>
        <time>2021-04-10T10:02:00Z</time>
      </trkpt>
      <trkpt lat="45.16403" lon="5.89983">
        <ele>1232.8</ele>
        <time>2021-04-10T10:02:01Z</time>
      </trkpt>
      <trkpt lat="45.16399" lon="5.89983">
        <ele>1232.6</ele>
        <time>2021-04-10T10:02:02Z</time>
      </trkpt>
      <trkpt lat="45.16395" lon="5.89984">
        <ele>1233</ele>
        <time>2021-04-10T10:02:03Z</time>
      </trkpt>
      <trkpt lat="45.16394" lon="5.89984">
        <ele>1232.2</ele>
        <time>2021-04-10T10:02:04Z</time>
      </trkpt>
      <trkpt lat="45.16392" lon="5.89985">
        <ele>1232.2</ele>
        <time>2021-04-10T10:02:05Z</time>
      </trkpt>
      <trkpt lat="45.1639" lon="5.89986">
        <ele>1232.2</ele>
        <time>2021-04-10T10:02:06Z</time>
      </trkpt>
      <trkpt lat="45.16384" lon="5.89987">
        <ele>1231.6</ele>
        <time>2021-04-10T10:02:07Z</time>
      </trkpt>
      <trkpt lat="45.16384" lon="5.89987">
        <ele>1231.2</ele>
        <time>2021-04-10T10:02:08Z</time>
      </trkpt>
      <trkpt lat="45.16384" lon="5.89987">
        <ele>1231.4</ele>
        <time>2021-04-10T10:02:09Z</time>
      </trkpt>
      <trkpt lat="45.16383" lon="5.89989">
        <ele>1231</ele>
        <time>2021-04-10T10:02:10Z</time>
      </trkpt>
      <trkpt lat="45.16382" lon="5.89991">
        <ele>1230.4</ele>
        <time>2021-04-10T10:02:11Z</time>
      </trkpt>
      <trkpt lat="45.16381" lon="5.89993">
        <ele>1230.6</ele>
        <time>2021-04-10T10:02:12Z</time>
      </trkpt>
      <trkpt lat="45.1638" lon="5.89995">
        <ele>1230.6</ele>
        <time>2021-04-10T10:02:13Z</time>
      </trkpt>
      <trkpt lat="45.16378" lon="5.89997">
        <ele>1230.4</ele>
        <time>2021-04-10T10:02:14Z</time>
      </trkpt>
      <trkpt lat="45.16378" lon="5.89999">
        <ele>1230.2</ele>
        <time>2021-04-10T10:02:15Z</time>
      </trkpt>
      <trkpt lat="45.16377" lon="5.90002">
        <ele>1229.8</ele>
        <time>2021-04-10T10:02:16Z</time>
      </trkpt>
      <trkpt lat="45.16376" lon="5.90004">
        <ele>1229.6</ele>
        <time>2021-04-10T10:02:17Z</time>
      </trkpt>
      <trkpt lat="45.16375" lon="5.90006">
        <ele>1229.4</ele>
        <time>2021-04-10T10:02:18Z</time>
      </trkpt>
      <trkpt lat="45.16374" lon="5.90008">
        <ele>1229.8</ele>
        <time>2021-04-10T10:02:19Z</time>
      </trkpt>
      <trkpt lat="45.16373" lon="5.9001">
        <ele>1229.8</ele>
        <time>2021-04-10T10:02:20Z</time>
      </trkpt>
      <trkpt lat="45.16373" lon="5.90013">
        <ele>1229.8</ele>
        <time>2021-04-10T10:02:21Z</time>
      </trkpt>
      <trkpt lat="45.16373" lon="5.90015">
        <ele>1229.6</ele>
        <time>2021-04-10T10:02:22Z</time>
      </trkpt>
      <trkpt lat="45.16373" lon="5.90017">
        <ele>1229.6</ele>
        <time>2021-04-10T10:02:23Z</time>
      </trkpt>
      <trkpt lat="45.16372" lon="5.9002">
        <ele>1229.4</ele>
        <time>2021-04-10T10:02:24Z</time>
      </trkpt>
      <trkpt lat="45.16372" lon="5.90022">
        <ele>1229.2</ele>
        <time>2021-04-10T10:02:25Z</time>
      </trkpt>
      <trkpt lat="45.16372" lon="5.90025">
        <ele>1228.8</ele>
        <time>2021-04-10T10:02:26Z</time>
      </trkpt>
      <trkpt lat="45.1637" lon="5.90026">
        <ele>1228.4</ele>
        <time>2021-04-10T10:02:27Z</time>
      </trkpt>
      <trkpt lat="45.16368" lon="5.90027">
        <ele>1228.8</ele>
        <time>2021-04-10T10:02:28Z</time>
      </trkpt>
      <trkpt lat="45.16366" lon="5.90028">
        <ele>1228.6</ele>
        <time>2021-04-10T10:02:29Z</time>
      </trkpt>
      <trkpt lat="45.16364" lon="5.90029">
        <ele>1228.8</ele>
        <time>2021-04-10T10:02:30Z</time>
      </trkpt>
      <trkpt lat="45.16362" lon="5.90029">
        <ele>1228</ele>
        <time>2021-04-10T10:02:31Z</time>
      </trkpt>
      <trkpt lat="45.16358" lon="5.9003">
        <ele>1227.8</ele>
        <time>2021-04-10T10:02:32Z</time>
      </trkpt>
      <trkpt lat="45.16353" lon="5.9003">
        <ele>1227.8</ele>
        <time>2021-04-10T10:02:33Z</time>
      </trkpt>
      <trkpt lat="45.16349" lon="5.90031">
        <ele>1227.4</ele>
        <time>2021-04-10T10:02:34Z</time>
      </trkpt>
      <trkpt lat="45.16345" lon="5.90031">
        <ele>1227.4</ele>
        <time>2021-04-10T10:02:35Z</time>
      </trkpt>
      <trkpt lat="45.16341" lon="5.90032">
        <ele>1226.8</ele>
        <time>2021-04-10T10:02:36Z</time>
      </trkpt>
      <trkpt lat="45.16338" lon="5.90031">
        <ele>1226.2</ele>
        <time>2021-04-10T10:02:37Z</time>
      </trkpt>
      <trkpt lat="45.16335" lon="5.9003">
        <ele>1226.2</ele>
        <time>2021-04-10T10:02:38Z</time>
      </trkpt>
      <trkpt lat="45.16332" lon="5.90029">
        <ele>1225.8</ele>
        <time>2021-04-10T10:02:39Z</time>
      </trkpt>
      <trkpt lat="45.16329" lon="5.9003">
        <ele>1225.6</ele>
        <time>2021-04-10T10:02:40Z</time>
      </trkpt>
      <trkpt lat="45.16326" lon="5.9003">
        <ele>1224.8</ele>
        <time>2021-04-10T10:02:41Z</time>
      </trkpt>
      <trkpt lat="45.16322" lon="5.90031">
        <ele>1224.6</ele>
        <time>2021-04-10T10:02:42Z</time>
      </trkpt>
      <trkpt lat="45.16322" lon="5.90031">
        <ele>1224.4</ele>
        <time>2021-04-10T10:02:43Z</time>
      </trkpt>
      <trkpt lat="45.16322" lon="5.90031">
        <ele>1224</ele>
        <time>2021-04-10T10:02:44Z</time>
      </trkpt>
      <trkpt lat="45.16322" lon="5.90031">
        <ele>1223.6</ele>
        <time>2021-04-10T10:02:45Z</time>
      </trkpt>
      <trkpt lat="45.1632" lon="5.90031">
        <ele>1223.2</ele>
        <time>2021-04-10T10:02:46Z</time>
      </trkpt>
      <trkpt lat="45.16318" lon="5.90032">
        <ele>1222.8</ele>
        <time>2021-04-10T10:02:47Z</time>
      </trkpt>
      <trkpt lat="45.16316" lon="5.90032">
        <ele>1222.6</ele>
        <time>2021-04-10T10:02:48Z</time>
      </trkpt>
      <trkpt lat="45.16314" lon="5.90033">
        <ele>1221.8</ele>
        <time>2021-04-10T10:02:49Z</time>
      </trkpt>
      <trkpt lat="45.16311" lon="5.90033">
        <ele>1221</ele>
        <time>2021-04-10T10:02:50Z</time>
      </trkpt>
      <trkpt lat="45.16309" lon="5.90034">
        <ele>1220.2</ele>
        <time>2021-04-10T10:02:51Z</time>
      </trkpt>
      <trkpt lat="45.16306" lon="5.90034">
        <ele>1219.2</ele>
        <time>2021-04-10T10:02:52Z</time>
      </trkpt>
      <trkpt lat="45.16303" lon="5.90035">
        <ele>1219</ele>
        <time>2021-04-10T10:02:53Z</time>
      </trkpt>
      <trkpt lat="45.163" lon="5.90035">
        <ele>1218.4</ele>
        <time>2021-04-10T10:02:54Z</time>
      </trkpt>
      <trkpt lat="45.16297" lon="5.90036">
        <ele>1218</ele>
        <time>2021-04-10T10:02:55Z</time>
      </trkpt>
      <trkpt lat="45.16295" lon="5.90036">
        <ele>1217.4</ele>
        <time>2021-04-10T10:02:56Z</time>
      </trkpt>
      <trkpt lat="45.16288" lon="5.90038">
        <ele>1217.2</ele>
        <time>2021-04-10T10:02:57Z</time>
      </trkpt>
      <trkpt lat="45.16287" lon="5.90039">
        <ele>1216.6</ele>
        <time>2021-04-10T10:02:58Z</time>
      </trkpt>
      <trkpt lat="45.16285" lon="5.9004">
        <ele>1216</ele>
        <time>2021-04-10T10:02:59Z</time>
      </trkpt>
      <trkpt lat="45.16281" lon="5.90044">
        <ele>1215.6</ele>
        <time>2021-04-10T10:03:00Z</time>
      </trkpt>
      <trkpt lat="45.16279" lon="5.90044">
        <ele>1215</ele>
        <time>2021-04-10T10:03:01Z</time>
      </trkpt>
      <trkpt lat="45.16277" lon="5.90045">
        <ele>1214.2</ele>
        <time>2021-04-10T10:03:02Z</time>
      </trkpt>
      <trkpt lat="45.16275" lon="5.90045">
        <ele>1214.2</ele>
        <time>2021-04-10T10:03:03Z</time>
      </trkpt>
      <trkpt lat="45.16272" lon="5.90046">
        <ele>1213.4</ele>
        <time>2021-04-10T10:03:04Z</time>
      </trkpt>
      <trkpt lat="45.16272" lon="5.90046">
        <ele>1212.4</ele>
        <time>2021-04-10T10:03:05Z</time>
      </trkpt>
      <trkpt lat="45.16272" lon="5.90046">
        <ele>1212.6</ele>
        <time>2021-04-10T10:03:06Z</time>
      </trkpt>
      <trkpt lat="45.16272" lon="5.90046">
        <ele>1212.2</ele>
        <time>2021-04-10T10:03:07Z</time>
      </trkpt>
      <trkpt lat="45.1627" lon="5.90046">
        <ele>1211.8</ele>
        <time>2021-04-10T10:03:08Z</time>
      </trkpt>
      <trkpt lat="45.16268" lon="5.90047">
        <ele>1211.4</ele>
        <time>2021-04-10T10:03:09Z</time>
      </trkpt>
      <trkpt lat="45.16266" lon="5.90048">
        <ele>1211.2</ele>
        <time>2021-04-10T10:03:10Z</time>
      </trkpt>
      <trkpt lat="45.16265" lon="5.90049">
        <ele>1211.2</ele>
        <time>2021-04-10T10:03:11Z</time>
      </trkpt>
      <trkpt lat="45.16263" lon="5.9005">
        <ele>1210.8</ele>
        <time>2021-04-10T10:03:12Z</time>
      </trkpt>
      <trkpt lat="45.1626" lon="5.90051">
        <ele>1210.6</ele>
        <time>2021-04-10T10:03:13Z</time>
      </trkpt>
      <trkpt lat="45.16257" lon="5.90052">
        <ele>1210.2</ele>
        <time>2021-04-10T10:03:14Z</time>
      </trkpt>
      <trkpt lat="45.16254" lon="5.90053">
        <ele>1210</ele>
        <time>2021-04-10T10:03:15Z</time>
      </trkpt>
      <trkpt lat="45.16251" lon="5.90054">
        <ele>1210.4</ele>
        <time>2021-04-10T10:03:16Z</time>
      </trkpt>
      <trkpt lat="45.16248" lon="5.90055">
        <ele>1209.8</ele>
        <time>2021-04-10T10:03:17Z</time>
      </trkpt>
      <trkpt lat="45.16241" lon="5.90056">
        <ele>1209.6</ele>
        <time>2021-04-10T10:03:18Z</time>
      </trkpt>
      <trkpt lat="45.16239" lon="5.90057">
        <ele>1209</ele>
        <time>2021-04-10T10:03:19Z</time>
      </trkpt>
      <trkpt lat="45.16237" lon="5.90057">
        <ele>1209</ele>
        <time>2021-04-10T10:03:20Z</time>
      </trkpt>
      <trkpt lat="45.16234" lon="5.90058">
        <ele>1209.2</ele>
        <time>2021-04-10T10:03:21Z</time>
      </trkpt>
      <trkpt lat="45.16234" lon="5.90058">
        <ele>1208.6</ele>
        <time>2021-04-10T10:03:22Z</time>
      </trkpt>
      <trkpt lat="45.16234" lon="5.90058">
        <ele>1207.8</ele>
        <time>2021-04-10T10:03:23Z</time>
      </trkpt>
      <trkpt lat="45.16234" lon="5.90058">
        <ele>1208</ele>
        <time>2021-04-10T10:03:24Z</time>
      </trkpt>
      <trkpt lat="45.16233" lon="5.90058">
        <ele>1207.6</ele>
        <time>2021-04-10T10:03:25Z</time>
      </trkpt>
      <trkpt lat="45.16232" lon="5.90058">
        <ele>1207.4</ele>
        <time>2021-04-10T10:03:26Z</time>
      </trkpt>
      <trkpt lat="45.1623" lon="5.90058">
        <ele>1207.2</ele>
        <time>2021-04-10T10:03:27Z</time>
      </trkpt>
      <trkpt lat="45.16229" lon="5.90058">
        <ele>1207.2</ele>
        <time>2021-04-10T10:03:28Z</time>
      </trkpt>
      <trkpt lat="45.16227" lon="5.90058">
        <ele>1206.8</ele>
        <time>2021-04-10T10:03:29Z</time>
      </trkpt>
      <trkpt lat="45.16226" lon="5.90058">
        <ele>1206.8</ele>
        <time>2021-04-10T10:03:30Z</time>
      </trkpt>
      <trkpt lat="45.16224" lon="5.90058">
        <ele>1206.8</ele>
        <time>2021-04-10T10:03:31Z</time>
      </trkpt>
      <trkpt lat="45.16223" lon="5.90058">
        <ele>1206.2</ele>
        <time>2021-04-10T10:03:32Z</time>
      </trkpt>
      <trkpt lat="45.16221" lon="5.90058">
        <ele>1206.4</ele>
        <time>2021-04-10T10:03:33Z</time>
      </trkpt>
      <trkpt lat="45.16221" lon="5.90059">
        <ele>1206.2</ele>
        <time>2021-04-10T10:03:34Z</time>
      </trkpt>
      <trkpt lat="45.1622" lon="5.9006">
        <ele>1206</ele>
        <time>2021-04-10T10:03:35Z</time>
      </trkpt>
      <trkpt lat="45.1622" lon="5.90061">
        <ele>1206</ele>
        <time>2021-04-10T10:03:36Z</time>
      </trkpt>
      <trkpt lat="45.16219" lon="5.90061">
        <ele>1205.4</ele>
        <time>2021-04-10T10:03:37Z</time>
      </trkpt>
      <trkpt lat="45.16219" lon="5.90062">
        <ele>1205.4</ele>
        <time>2021-04-10T10:03:38Z</time>
      </trkpt>
      <trkpt lat="45.16218" lon="5.90063">
        <ele>1205.2</ele>
        <time>2021-04-10T10:03:39Z</time>
      </trkpt>
      <trkpt lat="45.16217" lon="5.90063">
        <ele>1204.8</ele>
        <time>2021-04-10T10:03:40Z</time>
      </trkpt>
      <trkpt lat="45.16217" lon="5.90064">
        <ele>1204.4</ele>
        <time>2021-04-10T10:03:41Z</time>
      </trkpt>
      <trkpt lat="45.16216" lon="5.90065">
        <ele>1204.4</ele>
        <time>2021-04-10T10:03:42Z</time>
      </trkpt>
      <trkpt lat="45.16216" lon="5.90066">
        <ele>1204.2</ele>
        <time>2021-04-10T10:03:43Z</time>
      </trkpt>
      <trkpt lat="45.16215" lon="5.90066">
        <ele>1203.6</ele>
        <time>2021-04-10T10:03:44Z</time>
      </trkpt>
      <trkpt lat="45.16215" lon="5.90067">
        <ele>1203</ele>
        <time>2021-04-10T10:03:45Z</time>
      </trkpt>
      <trkpt lat="45.16213" lon="5.90069">
        <ele>1202.6</ele>
        <time>2021-04-10T10:03:46Z</time>
      </trkpt>
      <trkpt lat="45.16212" lon="5.90071">
        <ele>1201.8</ele>
        <time>2021-04-10T10:03:47Z</time>
      </trkpt>
      <trkpt lat="45.16211" lon="5.90073">
        <ele>1201</ele>
        <time>2021-04-10T10:03:48Z</time>
      </trkpt>
      <trkpt lat="45.16209" lon="5.90075">
        <ele>1200.6</ele>
        <time>2021-04-10T10:03:49Z</time>
      </trkpt>
      <trkpt lat="45.16208" lon="5.90077">
        <ele>1200.4</ele>
        <time>2021-04-10T10:03:50Z</time>
      </trkpt>
      <trkpt lat="45.16207" lon="5.90079">
        <ele>1200.2</ele>
        <time>2021-04-10T10:03:51Z</time>
      </trkpt>
      <trkpt lat="45.16205" lon="5.90081">
        <ele>1199.2</ele>
        <time>2021-04-10T10:03:52Z</time>
      </trkpt>
      <trkpt lat="45.16204" lon="5.90083">
        <ele>1197.6</ele>
        <time>2021-04-10T10:03:53Z</time>
      </trkpt>
      <trkpt lat="45.16202" lon="5.90085">
        <ele>1196.6</ele>
        <time>2021-04-10T10:03:54Z</time>
      </trkpt>
      <trkpt lat="45.16201" lon="5.90086">
        <ele>1196</ele>
        <time>2021-04-10T10:03:55Z</time>
      </trkpt>
      <trkpt lat="45.16198" lon="5.9009">
        <ele>1195.8</ele>
        <time>2021-04-10T10:03:56Z</time>
      </trkpt>
      <trkpt lat="45.16196" lon="5.90091">
        <ele>1195.6</ele>
        <time>2021-04-10T10:03:57Z</time>
      </trkpt>
      <trkpt lat="45.16194" lon="5.90092">
        <ele>1194.8</ele>
        <time>2021-04-10T10:03:58Z</time>
      </trkpt>
      <trkpt lat="45.16191" lon="5.90093">
        <ele>1194</ele>
        <time>2021-04-10T10:03:59Z</time>
      </trkpt>
      <trkpt lat="45.16189" lon="5.90094">
        <ele>1193.2</ele>
        <time>2021-04-10T10:04:00Z</time>
      </trkpt>
      <trkpt lat="45.16187" lon="5.90096">
        <ele>1192.4</ele>
        <time>2021-04-10T10:04:01Z</time>
      </trkpt>
      <trkpt lat="45.16185" lon="5.90097">
        <ele>1191.4</ele>
        <time>2021-04-10T10:04:02Z</time>
      </trkpt>
      <trkpt lat="45.16185" lon="5.90097">
        <ele>1190.4</ele>
        <time>2021-04-10T10:04:03Z</time>
      </trkpt>
      <trkpt lat="45.16185" lon="5.90097">
        <ele>1190</ele>
        <time>2021-04-10T10:04:04Z</time>
      </trkpt>
      <trkpt lat="45.16185" lon="5.90097">
        <ele>1189</ele>
        <time>2021-04-10T10:04:05Z</time>
      </trkpt>
      <trkpt lat="45.16183" lon="5.90097">
        <ele>1188.2</ele>
        <time>2021-04-10T10:04:06Z</time>
      </trkpt>
      <trkpt lat="45.16181" lon="5.90098">
        <ele>1188.2</ele>
        <time>2021-04-10T10:04:07Z</time>
      </trkpt>
      <trkpt lat="45.16179" lon="5.90098">
        <ele>1186.4</ele>
        <time>2021-04-10T10:04:08Z</time>
      </trkpt>
      <trkpt lat="45.16178" lon="5.90099">
        <ele>1186</ele>
        <time>2021-04-10T10:04:09Z</time>
      </trkpt>
      <trkpt lat="45.16176" lon="5.90099">
        <ele>1185.8</ele>
        <time>2021-04-10T10:04:10Z</time>
      </trkpt>
      <trkpt lat="45.16169" lon="5.90101">
        <ele>1186</ele>
        <time>2021-04-10T10:04:11Z</time>
      </trkpt>
      <trkpt lat="45.16163" lon="5.90102">
        <ele>1185.6</ele>
        <time>2021-04-10T10:04:12Z</time>
      </trkpt>
      <trkpt lat="45.16158" lon="5.90102">
        <ele>1185.2</ele>
        <time>2021-04-10T10:04:13Z</time>
      </trkpt>
      <trkpt lat="45.16155" lon="5.90101">
        <ele>1185</ele>
        <time>2021-04-10T10:04:14Z</time>
      </trkpt>
      <trkpt lat="45.16152" lon="5.90101">
        <ele>1184.6</ele>
        <time>2021-04-10T10:04:15Z</time>
      </trkpt>
      <trkpt lat="45.1615" lon="5.90101">
        <ele>1184</ele>
        <time>2021-04-10T10:04:16Z</time>
      </trkpt>
      <trkpt lat="45.16149" lon="5.90101">
        <ele>1184</ele>
        <time>2021-04-10T10:04:17Z</time>
      </trkpt>
      <trkpt lat="45.16144" lon="5.90102">
        <ele>1183.6</ele>
        <time>2021-04-10T10:04:18Z</time>
      </trkpt>
      <trkpt lat="45.16142" lon="5.901">
        <ele>1182.8</ele>
        <time>2021-04-10T10:04:19Z</time>
      </trkpt>
      <trkpt lat="45.16141" lon="5.90099">
        <ele>1183</ele>
        <time>2021-04-10T10:04:20Z</time>
      </trkpt>
      <trkpt lat="45.1614" lon="5.90097">
        <ele>1181.8</ele>
        <time>2021-04-10T10:04:21Z</time>
      </trkpt>
      <trkpt lat="45.16138" lon="5.90096">
        <ele>1181.6</ele>
        <time>2021-04-10T10:04:22Z</time>
      </trkpt>
      <trkpt lat="45.16133" lon="5.9009">
        <ele>1181.4</ele>
        <time>2021-04-10T10:04:23Z</time>
      </trkpt>
      <trkpt lat="45.16131" lon="5.90085">
        <ele>1181</ele>
        <time>2021-04-10T10:04:24Z</time>
      </trkpt>
      <trkpt lat="45.16129" lon="5.90082">
        <ele>1180</ele>
        <time>2021-04-10T10:04:25Z</time>
      </trkpt>
      <trkpt lat="45.16128" lon="5.90079">
        <ele>1179.6</ele>
        <time>2021-04-10T10:04:26Z</time>
      </trkpt>
      <trkpt lat="45.16128" lon="5.90074">
        <ele>1179.6</ele>
        <time>2021-04-10T10:04:27Z</time>
      </trkpt>
      <trkpt lat="45.16128" lon="5.90072">
        <ele>1179</ele>
        <time>2021-04-10T10:04:28Z</time>
      </trkpt>
      <trkpt lat="45.16128" lon="5.90069">
        <ele>1178</ele>
        <time>2021-04-10T10:04:29Z</time>
      </trkpt>
      <trkpt lat="45.16129" lon="5.90066">
        <ele>1177.4</ele>
        <time>2021-04-10T10:04:30Z</time>
      </trkpt>
      <trkpt lat="45.16129" lon="5.90066">
        <ele>1177</ele>
        <time>2021-04-10T10:04:31Z</time>
      </trkpt>
      <trkpt lat="45.16129" lon="5.90066">
        <ele>1175.4</ele>
        <time>2021-04-10T10:04:32Z</time>
      </trkpt>
      <trkpt lat="45.16129" lon="5.90066">
        <ele>1174.2</ele>
        <time>2021-04-10T10:04:33Z</time>
      </trkpt>
      <trkpt lat="45.16127" lon="5.90063">
        <ele>1174</ele>
        <time>2021-04-10T10:04:34Z</time>
      </trkpt>
      <trkpt lat="45.16125" lon="5.9006">
        <ele>1174</ele>
        <time>2021-04-10T10:04:35Z</time>
      </trkpt>
      <trkpt lat="45.16123" lon="5.90057">
        <ele>1173.2</ele>
        <time>2021-04-10T10:04:36Z</time>
      </trkpt>
      <trkpt lat="45.16122" lon="5.90054">
        <ele>1172.6</ele>
        <time>2021-04-10T10:04:37Z</time>
      </trkpt>
      <trkpt lat="45.1612" lon="5.90051">
        <ele>1171.2</ele>
        <time>2021-04-10T10:04:38Z</time>
      </trkpt>
      <trkpt lat="45.16118" lon="5.90048">
        <ele>1171</ele>
        <time>2021-04-10T10:04:39Z</time>
      </trkpt>
      <trkpt lat="45.16116" lon="5.90045">
        <ele>1170.2</ele>
        <time>2021-04-10T10:04:40Z</time>
      </trkpt>
      <trkpt lat="45.16115" lon="5.90042">
        <ele>1169.8</ele>
        <time>2021-04-10T10:04:41Z</time>
      </trkpt>
      <trkpt lat="45.16113" lon="5.90039">
        <ele>1169.2</ele>
        <time>2021-04-10T10:04:42Z</time>
      </trkpt>
      <trkpt lat="45.16112" lon="5.90035">
        <ele>1168.8</ele>
        <time>2021-04-10T10:04:43Z</time>
      </trkpt>
      <trkpt lat="45.16111" lon="5.90032">
        <ele>1168</ele>
        <time>2021-04-10T10:04:44Z</time>
      </trkpt>
      <trkpt lat="45.16111" lon="5.90028">
        <ele>1167.4</ele>
        <time>2021-04-10T10:04:45Z</time>
      </trkpt>
      <trkpt lat="45.1611" lon="5.90025">
        <ele>1166.8</ele>
        <time>2021-04-10T10:04:46Z</time>
      </trkpt>
      <trkpt lat="45.1611" lon="5.90021">
        <ele>1166.2</ele>
        <time>2021-04-10T10:04:47Z</time>
      </trkpt>
      <trkpt lat="45.16109" lon="5.90018">
        <ele>1165.8</ele>
        <time>2021-04-10T10:04:48Z</time>
      </trkpt>
      <trkpt lat="45.16108" lon="5.90014">
        <ele>1164.6</ele>
        <time>2021-04-10T10:04:49Z</time>
      </trkpt>
      <trkpt lat="45.16108" lon="5.90014">
        <ele>1165</ele>
        <time>2021-04-10T10:04:50Z</time>
      </trkpt>
      <trkpt lat="45.16108" lon="5.90014">
        <ele>1164.4</ele>
        <time>2021-04-10T10:04:51Z</time>
      </trkpt>
      <trkpt lat="45.16108" lon="5.90014">
        <ele>1164.4</ele>
        <time>2021-04-10T10:04:52Z</time>
      </trkpt>
      <trkpt lat="45.16108" lon="5.90012">
        <ele>1163.8</ele>
        <time>2021-04-10T10:04:53Z</time>
      </trkpt>
      <trkpt lat="45.16107" lon="5.90011">
        <ele>1163.4</ele>
        <time>2021-04-10T10:04:54Z</time>
      </trkpt>
      <trkpt lat="45.16106" lon="5.90009">
        <ele>1162.6</ele>
        <time>2021-04-10T10:04:55Z</time>
      </trkpt>
      <trkpt lat="45.16105" lon="5.90007">
        <ele>1162</ele>
        <time>2021-04-10T10:04:56Z</time>
      </trkpt>
      <trkpt lat="45.16104" lon="5.90005">
        <ele>1161</ele>
        <time>2021-04-10T10:04:57Z</time>
      </trkpt>
      <trkpt lat="45.16103" lon="5.90003">
        <ele>1160</ele>
        <time>2021-04-10T10:04:58Z</time>
      </trkpt>
      <trkpt lat="45.16105" lon="5.90001">
        <ele>1159.6</ele>
        <time>2021-04-10T10:04:59Z</time>
      </trkpt>
      <trkpt lat="45.16106" lon="5.89998">
        <ele>1159.4</ele>
        <time>2021-04-10T10:05:00Z</time>
      </trkpt>
      <trkpt lat="45.16108" lon="5.89996">
        <ele>1158.6</ele>
        <time>2021-04-10T10:05:01Z</time>
      </trkpt>
      <trkpt lat="45.16109" lon="5.89994">
        <ele>1157.4</ele>
        <time>2021-04-10T10:05:02Z</time>
      </trkpt>
      <trkpt lat="45.16111" lon="5.89991">
        <ele>1157.4</ele>
        <time>2021-04-10T10:05:03Z</time>
      </trkpt>
      <trkpt lat="45.16112" lon="5.89989">
        <ele>1156.8</ele>
        <time>2021-04-10T10:05:04Z</time>
      </trkpt>
      <trkpt lat="45.16114" lon="5.89986">
        <ele>1156.4</ele>
        <time>2021-04-10T10:05:05Z</time>
      </trkpt>
      <trkpt lat="45.16115" lon="5.89984">
        <ele>1156</ele>
        <time>2021-04-10T10:05:06Z</time>
      </trkpt>
      <trkpt lat="45.16117" lon="5.89981">
        <ele>1155.6</ele>
        <time>2021-04-10T10:05:07Z</time>
      </trkpt>
      <trkpt lat="45.16118" lon="5.89979">
        <ele>1155.4</ele>
        <time>2021-04-10T10:05:08Z</time>
      </trkpt>
      <trkpt lat="45.1612" lon="5.89977">
        <ele>1155.2</ele>
        <time>2021-04-10T10:05:09Z</time>
      </trkpt>
      <trkpt lat="45.1612" lon="5.89975">
        <ele>1155</ele>
        <time>2021-04-10T10:05:10Z</time>
      </trkpt>
      <trkpt lat="45.1612" lon="5.89974">
        <ele>1154.8</ele>
        <time>2021-04-10T10:05:11Z</time>
      </trkpt>
      <trkpt lat="45.16121" lon="5.89973">
        <ele>1154.8</ele>
        <time>2021-04-10T10:05:12Z</time>
      </trkpt>
      <trkpt lat="45.16121" lon="5.89971">
        <ele>1154.4</ele>
        <time>2021-04-10T10:05:13Z</time>
      </trkpt>
      <trkpt lat="45.16121" lon="5.8997">
        <ele>1154.2</ele>
        <time>2021-04-10T10:05:14Z</time>
      </trkpt>
      <trkpt lat="45.16122" lon="5.89968">
        <ele>1154</ele>
        <time>2021-04-10T10:05:15Z</time>
      </trkpt>
      <trkpt lat="45.16122" lon="5.89967">
        <ele>1153.8</ele>
        <time>2021-04-10T10:05:16Z</time>
      </trkpt>
      <trkpt lat="45.16123" lon="5.89966">
        <ele>1153.8</ele>
        <time>2021-04-10T10:05:17Z</time>
      </trkpt>
      <trkpt lat="45.16123" lon="5.89964">
        <ele>1153.6</ele>
        <time>2021-04-10T10:05:18Z</time>
      </trkpt>
      <trkpt lat="45.16124" lon="5.89963">
        <ele>1153.4</ele>
        <time>2021-04-10T10:05:19Z</time>
      </trkpt>
      <trkpt lat="45.16126" lon="5.89961">
        <ele>1153.2</ele>
        <time>2021-04-10T10:05:20Z</time>
      </trkpt>
      <trkpt lat="45.16127" lon="5.89959">
        <ele>1153</ele>
        <time>2021-04-10T10:05:21Z</time>
      </trkpt>
      <trkpt lat="45.16128" lon="5.89957">
        <ele>1153</ele>
        <time>2021-04-10T10:05:22Z</time>
      </trkpt>
      <trkpt lat="45.1613" lon="5.89955">
        <ele>1153</ele>
        <time>2021-04-10T10:05:23Z</time>
      </trkpt>
      <trkpt lat="45.16139" lon="5.89955">
        <ele>1152.8</ele>
        <time>2021-04-10T10:05:24Z</time>
      </trkpt>
      <trkpt lat="45.16139" lon="5.89955">
        <ele>1152.8</ele>
        <time>2021-04-10T10:05:25Z</time>
      </trkpt>
      <trkpt lat="45.16139" lon="5.89955">
        <ele>1152.8</ele>
        <time>2021-04-10T10:05:26Z</time>
      </trkpt>
      <trkpt lat="45.16139" lon="5.89955">
        <ele>1152.6</ele>
        <time>2021-04-10T10:05:27Z</time>
      </trkpt>
      <trkpt lat="45.16139" lon="5.89952">
        <ele>1152.4</ele>
        <time>2021-04-10T10:05:28Z</time>
      </trkpt>
      <trkpt lat="45.1614" lon="5.8995">
        <ele>1152.4</ele>
        <time>2021-04-10T10:05:29Z</time>
      </trkpt>
      <trkpt lat="45.16141" lon="5.89947">
        <ele>1152.2</ele>
        <time>2021-04-10T10:05:30Z</time>
      </trkpt>
      <trkpt lat="45.16141" lon="5.89944">
        <ele>1152.2</ele>
        <time>2021-04-10T10:05:31Z</time>
      </trkpt>
      <trkpt lat="45.16142" lon="5.89942">
        <ele>1152</ele>
        <time>2021-04-10T10:05:32Z</time>
      </trkpt>
      <trkpt lat="45.16142" lon="5.89939">
        <ele>1152</ele>
        <time>2021-04-10T10:05:33Z</time>
      </trkpt>
      <trkpt lat="45.16143" lon="5.89936">
        <ele>1151.8</ele>
        <time>2021-04-10T10:05:34Z</time>
      </trkpt>
      <trkpt lat="45.16143" lon="5.89934">
        <ele>1151.8</ele>
        <time>2021-04-10T10:05:35Z</time>
      </trkpt>
      <trkpt lat="45.16144" lon="5.89931">
        <ele>1152.2</ele>
        <time>2021-04-10T10:05:36Z</time>
      </trkpt>
      <trkpt lat="45.1615" lon="5.89924">
        <ele>1152.4</ele>
        <time>2021-04-10T10:05:37Z</time>
      </trkpt>
      <trkpt lat="45.16153" lon="5.89921">
        <ele>1152.4</ele>
        <time>2021-04-10T10:05:38Z</time>
      </trkpt>
      <trkpt lat="45.16156" lon="5.89918">
        <ele>1152</ele>
        <time>2021-04-10T10:05:39Z</time>
      </trkpt>
      <trkpt lat="45.16157" lon="5.89916">
        <ele>1151.6</ele>
        <time>2021-04-10T10:05:40Z</time>
      </trkpt>
      <trkpt lat="45.16159" lon="5.89914">
        <ele>1151</ele>
        <time>2021-04-10T10:05:41Z</time>
      </trkpt>
      <trkpt lat="45.16161" lon="5.89911">
        <ele>1150.6</ele>
        <time>2021-04-10T10:05:42Z</time>
      </trkpt>
      <trkpt lat="45.16163" lon="5.89909">
        <ele>1150.8</ele>
        <time>2021-04-10T10:05:43Z</time>
      </trkpt>
      <trkpt lat="45.16163" lon="5.89909">
        <ele>1150.4</ele>
        <time>2021-04-10T10:05:44Z</time>
      </trkpt>
      <trkpt lat="45.16163" lon="5.89909">
        <ele>1150.8</ele>
        <time>2021-04-10T10:05:45Z</time>
      </trkpt>
      <trkpt lat="45.16163" lon="5.89909">
        <ele>1150.6</ele>
        <time>2021-04-10T10:05:46Z</time>
      </trkpt>
      <trkpt lat="45.16165" lon="5.89906">
        <ele>1150.4</ele>
        <time>2021-04-10T10:05:47Z</time>
      </trkpt>
      <trkpt lat="45.16167" lon="5.89904">
        <ele>1150.2</ele>
        <time>2021-04-10T10:05:48Z</time>
      </trkpt>
      <trkpt lat="45.16169" lon="5.89901">
        <ele>1149.8</ele>
        <time>2021-04-10T10:05:49Z</time>
      </trkpt>
      <trkpt lat="45.16171" lon="5.89898">
        <ele>1149.6</ele>
        <time>2021-04-10T10:05:50Z</time>
      </trkpt>
      <trkpt lat="45.16174" lon="5.89895">
        <ele>1149.4</ele>
        <time>2021-04-10T10:05:51Z</time>
      </trkpt>
      <trkpt lat="45.16176" lon="5.89893">
        <ele>1149</ele>
        <time>2021-04-10T10:05:52Z</time>
      </trkpt>
      <trkpt lat="45.1618" lon="5.89885">
        <ele>1149.4</ele>
        <time>2021-04-10T10:05:53Z</time>
      </trkpt>
      <trkpt lat="45.16183" lon="5.89882">
        <ele>1149</ele>
        <time>2021-04-10T10:05:54Z</time>
      </trkpt>
      <trkpt lat="45.16184" lon="5.8988">
        <ele>1148.8</ele>
        <time>2021-04-10T10:05:55Z</time>
      </trkpt>
      <trkpt lat="45.16186" lon="5.89879">
        <ele>1148.4</ele>
        <time>2021-04-10T10:05:56Z</time>
      </trkpt>
      <trkpt lat="45.16187" lon="5.89877">
        <ele>1147.6</ele>
        <time>2021-04-10T10:05:57Z</time>
      </trkpt>
      <trkpt lat="45.16187" lon="5.89877">
        <ele>1148</ele>
        <time>2021-04-10T10:05:58Z</time>
      </trkpt>
      <trkpt lat="45.16187" lon="5.89877">
        <ele>1147.8</ele>
        <time>2021-04-10T10:05:59Z</time>
      </trkpt>
      <trkpt lat="45.16188" lon="5.89874">
        <ele>1147.6</ele>
        <time>2021-04-10T10:06:00Z</time>
      </trkpt>
      <trkpt lat="45.16188" lon="5.89871">
        <ele>1147.2</ele>
        <time>2021-04-10T10:06:01Z</time>
      </trkpt>
      <trkpt lat="45.16189" lon="5.89869">
        <ele>1146.8</ele>
        <time>2021-04-10T10:06:02Z</time>
      </trkpt>
      <trkpt lat="45.16189" lon="5.89866">
        <ele>1145.8</ele>
        <time>2021-04-10T10:06:03Z</time>
      </trkpt>
      <trkpt lat="45.1619" lon="5.89863">
        <ele>1145.8</ele>
        <time>2021-04-10T10:06:04Z</time>
      </trkpt>
      <trkpt lat="45.16189" lon="5.89861">
        <ele>1146.2</ele>
        <time>2021-04-10T10:06:05Z</time>
      </trkpt>
      <trkpt lat="45.16188" lon="5.89858">
        <ele>1146</ele>
        <time>2021-04-10T10:06:06Z</time>
      </trkpt>
      <trkpt lat="45.16188" lon="5.89856">
        <ele>1146</ele>
        <time>2021-04-10T10:06:07Z</time>
      </trkpt>
      <trkpt lat="45.16187" lon="5.89853">
        <ele>1145.8</ele>
        <time>2021-04-10T10:06:08Z</time>
      </trkpt>
      <trkpt lat="45.16187" lon="5.89851">
        <ele>1145.6</ele>
        <time>2021-04-10T10:06:09Z</time>
      </trkpt>
      <trkpt lat="45.16184" lon="5.89841">
        <ele>1144.8</ele>
        <time>2021-04-10T10:06:10Z</time>
      </trkpt>
      <trkpt lat="45.16182" lon="5.89832">
        <ele>1144.2</ele>
        <time>2021-04-10T10:06:11Z</time>
      </trkpt>
      <trkpt lat="45.16181" lon="5.89826">
        <ele>1144.4</ele>
        <time>2021-04-10T10:06:12Z</time>
      </trkpt>
      <trkpt lat="45.16181" lon="5.89822">
        <ele>1144.2</ele>
        <time>2021-04-10T10:06:13Z</time>
      </trkpt>
      <trkpt lat="45.1618" lon="5.89818">
        <ele>1144.6</ele>
        <time>2021-04-10T10:06:14Z</time>
      </trkpt>
      <trkpt lat="45.16181" lon="5.89811">
        <ele>1144.4</ele>
        <time>2021-04-10T10:06:15Z</time>
      </trkpt>
      <trkpt lat="45.16182" lon="5.89806">
        <ele>1144.4</ele>
        <time>2021-04-10T10:06:16Z</time>
      </trkpt>
      <trkpt lat="45.16182" lon="5.89802">
        <ele>1144</ele>
        <time>2021-04-10T10:06:17Z</time>
      </trkpt>
      <trkpt lat="45.16182" lon="5.89797">
        <ele>1143.6</ele>
        <time>2021-04-10T10:06:18Z</time>
      </trkpt>
      <trkpt lat="45.16182" lon="5.89792">
        <ele>1143</ele>
        <time>2021-04-10T10:06:19Z</time>
      </trkpt>
      <trkpt lat="45.16183" lon="5.8979">
        <ele>1142.6</ele>
        <time>2021-04-10T10:06:20Z</time>
      </trkpt>
      <trkpt lat="45.16183" lon="5.89787">
        <ele>1142.8</ele>
        <time>2021-04-10T10:06:21Z</time>
      </trkpt>
      <trkpt lat="45.16184" lon="5.89785">
        <ele>1142.2</ele>
        <time>2021-04-10T10:06:22Z</time>
      </trkpt>
      <trkpt lat="45.16187" lon="5.89774">
        <ele>1142.4</ele>
        <time>2021-04-10T10:06:23Z</time>
      </trkpt>
      <trkpt lat="45.16189" lon="5.8977">
        <ele>1142</ele>
        <time>2021-04-10T10:06:24Z</time>
      </trkpt>
      <trkpt lat="45.1619" lon="5.89765">
        <ele>1142</ele>
        <time>2021-04-10T10:06:25Z</time>
      </trkpt>
      <trkpt lat="45.16193" lon="5.89761">
        <ele>1141.4</ele>
        <time>2021-04-10T10:06:26Z</time>
      </trkpt>
      <trkpt lat="45.16195" lon="5.89757">
        <ele>1141</ele>
        <time>2021-04-10T10:06:27Z</time>
      </trkpt>
      <trkpt lat="45.16197" lon="5.89754">
        <ele>1140.6</ele>
        <time>2021-04-10T10:06:28Z</time>
      </trkpt>
      <trkpt lat="45.16198" lon="5.89751">
        <ele>1139.8</ele>
        <time>2021-04-10T10:06:29Z</time>
      </trkpt>
      <trkpt lat="45.16199" lon="5.89745">
        <ele>1140</ele>
        <time>2021-04-10T10:06:30Z</time>
      </trkpt>
      <trkpt lat="45.16199" lon="5.89739">
        <ele>1139.6</ele>
        <time>2021-04-10T10:06:31Z</time>
      </trkpt>
      <trkpt lat="45.16199" lon="5.89739">
        <ele>1139.6</ele>
        <time>2021-04-10T10:06:32Z</time>
      </trkpt>
      <trkpt lat="45.16198" lon="5.89738">
        <ele>1139</ele>
        <time>2021-04-10T10:06:33Z</time>
      </trkpt>
      <trkpt lat="45.16198" lon="5.89737">
        <ele>1138.6</ele>
        <time>2021-04-10T10:06:34Z</time>
      </trkpt>
      <trkpt lat="45.16197" lon="5.89737">
        <ele>1137.8</ele>
        <time>2021-04-10T10:06:35Z</time>
      </trkpt>
      <trkpt lat="45.16197" lon="5.89736">
        <ele>1137.2</ele>
        <time>2021-04-10T10:06:36Z</time>
      </trkpt>
      <trkpt lat="45.16196" lon="5.89736">
        <ele>1137.4</ele>
        <time>2021-04-10T10:06:37Z</time>
      </trkpt>
      <trkpt lat="45.16195" lon="5.89735">
        <ele>1137</ele>
        <time>2021-04-10T10:06:38Z</time>
      </trkpt>
      <trkpt lat="45.16195" lon="5.89734">
        <ele>1137</ele>
        <time>2021-04-10T10:06:39Z</time>
      </trkpt>
      <trkpt lat="45.16194" lon="5.89734">
        <ele>1136.2</ele>
        <time>2021-04-10T10:06:40Z</time>
      </trkpt>
      <trkpt lat="45.16194" lon="5.89734">
        <ele>1136</ele>
        <time>2021-04-10T10:06:41Z</time>
      </trkpt>
      <trkpt lat="45.16194" lon="5.89734">
        <ele>1135.6</ele>
        <time>2021-04-10T10:06:42Z</time>
      </trkpt>
      <trkpt lat="45.16194" lon="5.89734">
        <ele>1135.2</ele>
        <time>2021-04-10T10:06:43Z</time>
      </trkpt>
      <trkpt lat="45.16194" lon="5.89734">
        <ele>1134.8</ele>
        <time>2021-04-10T10:06:44Z</time>
      </trkpt>
      <trkpt lat="45.16194" lon="5.89734">
        <ele>1134.4</ele>
        <time>2021-04-10T10:06:45Z</time>
      </trkpt>
      <trkpt lat="45.16194" lon="5.89734">
        <ele>1134</ele>
        <time>2021-04-10T10:06:46Z</time>
      </trkpt>
      <trkpt lat="45.16194" lon="5.89734">
        <ele>1133.8</ele>
        <time>2021-04-10T10:06:47Z</time>
      </trkpt>
      <trkpt lat="45.16194" lon="5.89734">
        <ele>1133.8</ele>
        <time>2021-04-10T10:06:48Z</time>
      </trkpt>
      <trkpt lat="45.16194" lon="5.89734">
        <ele>1133.6</ele>
        <time>2021-04-10T10:06:49Z</time>
      </trkpt>
      <trkpt lat="45.16194" lon="5.89734">
        <ele>1133.6</ele>
        <time>2021-04-10T10:06:50Z</time>
      </trkpt>
      <trkpt lat="45.16194" lon="5.89734">
        <ele>1133.6</ele>
        <time>2021-04-10T10:06:51Z</time>
      </trkpt>
      <trkpt lat="45.16194" lon="5.89734">
        <ele>1133.8</ele>
        <time>2021-04-10T10:06:52Z</time>
      </trkpt>
      <trkpt lat="45.16194" lon="5.89734">
        <ele>1133.8</ele>
        <time>2021-04-10T10:06:53Z</time>
      </trkpt>
      <trkpt lat="45.16194" lon="5.89734">
        <ele>1133.8</ele>
        <time>2021-04-10T10:06:54Z</time>
      </trkpt>
      <trkpt lat="45.16194" lon="5.89734">
        <ele>1134</ele>
        <time>2021-04-10T10:06:55Z</time>
      </trkpt>
      <trkpt lat="45.16194" lon="5.89734">
        <ele>1134</ele>
        <time>2021-04-10T10:06:56Z</time>
      </trkpt>
      <trkpt lat="45.16194" lon="5.89734">
        <ele>1134</ele>
        <time>2021-04-10T10:06:57Z</time>
      </trkpt>
      <trkpt lat="45.16194" lon="5.89734">
        <ele>1134</ele>
        <time>2021-04-10T10:06:58Z</time>
      </trkpt>
      <trkpt lat="45.16194" lon="5.89735">
        <ele>1133.8</ele>
        <time>2021-04-10T10:06:59Z</time>
      </trkpt>
      <trkpt lat="45.16194" lon="5.89735">
        <ele>1133.6</ele>
        <time>2021-04-10T10:07:00Z</time>
      </trkpt>
      <trkpt lat="45.16194" lon="5.89735">
        <ele>1133.6</ele>
        <time>2021-04-10T10:07:01Z</time>
      </trkpt>
      <trkpt lat="45.16194" lon="5.89735">
        <ele>1133.6</ele>
        <time>2021-04-10T10:07:02Z</time>
      </trkpt>
      <trkpt lat="45.16194" lon="5.89735">
        <ele>1133.6</ele>
        <time>2021-04-10T10:07:03Z</time>
      </trkpt>
      <trkpt lat="45.16194" lon="5.89735">
        <ele>1133.4</ele>
        <time>2021-04-10T10:07:04Z</time>
      </trkpt>
      <trkpt lat="45.16194" lon="5.89735">
        <ele>1133.4</ele>
        <time>2021-04-10T10:07:05Z</time>
      </trkpt>
      <trkpt lat="45.16194" lon="5.89735">
        <ele>1133.2</ele>
        <time>2021-04-10T10:07:06Z</time>
      </trkpt>
      <trkpt lat="45.16194" lon="5.89735">
        <ele>1133.6</ele>
        <time>2021-04-10T10:07:07Z</time>
      </trkpt>
      <trkpt lat="45.16194" lon="5.89735">
        <ele>1133.4</ele>
        <time>2021-04-10T10:07:08Z</time>
      </trkpt>
      <trkpt lat="45.16194" lon="5.89735">
        <ele>1133.4</ele>
        <time>2021-04-10T10:07:09Z</time>
      </trkpt>
      <trkpt lat="45.16194" lon="5.89735">
        <ele>1133.4</ele>
        <time>2021-04-10T10:07:10Z</time>
      </trkpt>
      <trkpt lat="45.16194" lon="5.89735">
        <ele>1133.6</ele>
        <time>2021-04-10T10:07:11Z</time>
      </trkpt>
      <trkpt lat="45.16194" lon="5.89735">
        <ele>1133.4</ele>
        <time>2021-04-10T10:07:12Z</time>
      </trkpt>
      <trkpt lat="45.16194" lon="5.89735">
        <ele>1133.4</ele>
        <time>2021-04-10T10:07:13Z</time>
      </trkpt>
      <trkpt lat="45.16194" lon="5.89735">
        <ele>1133.4</ele>
        <time>2021-04-10T10:07:14Z</time>
      </trkpt>
      <trkpt lat="45.16194" lon="5.89735">
        <ele>1133.2</ele>
        <time>2021-04-10T10:07:15Z</time>
      </trkpt>
      <trkpt lat="45.16194" lon="5.89735">
        <ele>1133.2</ele>
        <time>2021-04-10T10:07:16Z</time>
      </trkpt>
      <trkpt lat="45.16194" lon="5.89735">
        <ele>1133.2</ele>
        <time>2021-04-10T10:07:17Z</time>
      </trkpt>
      <trkpt lat="45.16194" lon="5.89735">
        <ele>1133.4</ele>
        <time>2021-04-10T10:07:18Z</time>
      </trkpt>
      <trkpt lat="45.16194" lon="5.89735">
        <ele>1133.4</ele>
        <time>2021-04-10T10:07:19Z</time>
      </trkpt>
      <trkpt lat="45.16194" lon="5.89735">
        <ele>1133.4</ele>
        <time>2021-04-10T10:07:20Z</time>
      </trkpt>
      <trkpt lat="45.16194" lon="5.89735">
        <ele>1133.6</ele>
        <time>2021-04-10T10:07:21Z</time>
      </trkpt>
      <trkpt lat="45.16194" lon="5.89735">
        <ele>1133.4</ele>
        <time>2021-04-10T10:07:22Z</time>
      </trkpt>
      <trkpt lat="45.16194" lon="5.89735">
        <ele>1133.4</ele>
        <time>2021-04-10T10:07:23Z</time>
      </trkpt>
      <trkpt lat="45.16194" lon="5.89736">
        <ele>1133.4</ele>
        <time>2021-04-10T10:07:24Z</time>
      </trkpt>
      <trkpt lat="45.16194" lon="5.89736">
        <ele>1133.6</ele>
        <time>2021-04-10T10:07:25Z</time>
      </trkpt>
      <trkpt lat="45.16194" lon="5.89736">
        <ele>1133.4</ele>
        <time>2021-04-10T10:07:26Z</time>
      </trkpt>
      <trkpt lat="45.16194" lon="5.89736">
        <ele>1133.4</ele>
        <time>2021-04-10T10:07:27Z</time>
      </trkpt>
      <trkpt lat="45.16194" lon="5.89736">
        <ele>1133.4</ele>
        <time>2021-04-10T10:07:28Z</time>
      </trkpt>
      <trkpt lat="45.16194" lon="5.89736">
        <ele>1133.6</ele>
        <time>2021-04-10T10:07:29Z</time>
      </trkpt>
      <trkpt lat="45.16194" lon="5.89736">
        <ele>1133.6</ele>
        <time>2021-04-10T10:07:30Z</time>
      </trkpt>
      <trkpt lat="45.16194" lon="5.89736">
        <ele>1133.4</ele>
        <time>2021-04-10T10:07:31Z</time>
      </trkpt>
      <trkpt lat="45.16194" lon="5.89736">
        <ele>1133.4</ele>
        <time>2021-04-10T10:07:32Z</time>
      </trkpt>
      <trkpt lat="45.16194" lon="5.89736">
        <ele>1133.6</ele>
        <time>2021-04-10T10:07:33Z</time>
      </trkpt>
      <trkpt lat="45.16194" lon="5.89736">
        <ele>1133.8</ele>
        <time>2021-04-10T10:07:34Z</time>
      </trkpt>
      <trkpt lat="45.16194" lon="5.89736">
        <ele>1133.8</ele>
        <time>2021-04-10T10:07:35Z</time>
      </trkpt>
      <trkpt lat="45.16194" lon="5.89736">
        <ele>1133.6</ele>
        <time>2021-04-10T10:07:36Z</time>
      </trkpt>
      <trkpt lat="45.16194" lon="5.89736">
        <ele>1133.6</ele>
        <time>2021-04-10T10:07:37Z</time>
      </trkpt>
      <trkpt lat="45.16194" lon="5.89736">
        <ele>1133.6</ele>
        <time>2021-04-10T10:07:38Z</time>
      </trkpt>
      <trkpt lat="45.16194" lon="5.89736">
        <ele>1133.4</ele>
        <time>2021-04-10T10:07:39Z</time>
      </trkpt>
      <trkpt lat="45.16194" lon="5.89736">
        <ele>1133.4</ele>
        <time>2021-04-10T10:07:40Z</time>
      </trkpt>
      <trkpt lat="45.16194" lon="5.89736">
        <ele>1133.6</ele>
        <time>2021-04-10T10:07:41Z</time>
      </trkpt>
      <trkpt lat="45.16194" lon="5.89736">
        <ele>1133.6</ele>
        <time>2021-04-10T10:07:42Z</time>
      </trkpt>
      <trkpt lat="45.16194" lon="5.89736">
        <ele>1133.8</ele>
        <time>2021-04-10T10:07:43Z</time>
      </trkpt>
      <trkpt lat="45.16194" lon="5.89736">
        <ele>1133.8</ele>
        <time>2021-04-10T10:07:44Z</time>
      </trkpt>
      <trkpt lat="45.16194" lon="5.89736">
        <ele>1133.6</ele>
        <time>2021-04-10T10:07:45Z</time>
      </trkpt>
      <trkpt lat="45.16194" lon="5.89736">
        <ele>1133.4</ele>
        <time>2021-04-10T10:07:46Z</time>
      </trkpt>
      <trkpt lat="45.16194" lon="5.89736">
        <ele>1133.6</ele>
        <time>2021-04-10T10:07:47Z</time>
      </trkpt>
      <trkpt lat="45.16194" lon="5.89737">
        <ele>1133.6</ele>
        <time>2021-04-10T10:07:48Z</time>
      </trkpt>
      <trkpt lat="45.16194" lon="5.89737">
        <ele>1133.6</ele>
        <time>2021-04-10T10:07:49Z</time>
      </trkpt>
      <trkpt lat="45.16194" lon="5.89737">
        <ele>1133.4</ele>
        <time>2021-04-10T10:07:50Z</time>
      </trkpt>
      <trkpt lat="45.16194" lon="5.89737">
        <ele>1133.6</ele>
        <time>2021-04-10T10:07:51Z</time>
      </trkpt>
      <trkpt lat="45.16194" lon="5.89737">
        <ele>1133.6</ele>
        <time>2021-04-10T10:07:52Z</time>
      </trkpt>
      <trkpt lat="45.16194" lon="5.89737">
        <ele>1133.6</ele>
        <time>2021-04-10T10:07:53Z</time>
      </trkpt>
      <trkpt lat="45.16194" lon="5.89737">
        <ele>1133.6</ele>
        <time>2021-04-10T10:07:54Z</time>
      </trkpt>
      <trkpt lat="45.16194" lon="5.89737">
        <ele>1133.4</ele>
        <time>2021-04-10T10:07:55Z</time>
      </trkpt>
      <trkpt lat="45.16194" lon="5.89737">
        <ele>1133.6</ele>
        <time>2021-04-10T10:07:56Z</time>
      </trkpt>
      <trkpt lat="45.16194" lon="5.89737">
        <ele>1133.6</ele>
        <time>2021-04-10T10:07:57Z</time>
      </trkpt>
      <trkpt lat="45.16194" lon="5.89737">
        <ele>1133.4</ele>
        <time>2021-04-10T10:07:58Z</time>
      </trkpt>
      <trkpt lat="45.16194" lon="5.89737">
        <ele>1133.6</ele>
        <time>2021-04-10T10:07:59Z</time>
      </trkpt>
      <trkpt lat="45.16194" lon="5.89737">
        <ele>1133.4</ele>
        <time>2021-04-10T10:08:00Z</time>
      </trkpt>
      <trkpt lat="45.16194" lon="5.89737">
        <ele>1133.2</ele>
        <time>2021-04-10T10:08:01Z</time>
      </trkpt>
      <trkpt lat="45.16194" lon="5.89737">
        <ele>1133.2</ele>
        <time>2021-04-10T10:08:02Z</time>
      </trkpt>
      <trkpt lat="45.16194" lon="5.89737">
        <ele>1133.2</ele>
        <time>2021-04-10T10:08:03Z</time>
      </trkpt>
      <trkpt lat="45.16194" lon="5.89737">
        <ele>1133.2</ele>
        <time>2021-04-10T10:08:04Z</time>
      </trkpt>
      <trkpt lat="45.16194" lon="5.89737">
        <ele>1133.2</ele>
        <time>2021-04-10T10:08:05Z</time>
      </trkpt>
      <trkpt lat="45.16194" lon="5.89737">
        <ele>1133.2</ele>
        <time>2021-04-10T10:08:06Z</time>
      </trkpt>
      <trkpt lat="45.16194" lon="5.89737">
        <ele>1133.2</ele>
        <time>2021-04-10T10:08:07Z</time>
      </trkpt>
      <trkpt lat="45.16194" lon="5.89737">
        <ele>1133.2</ele>
        <time>2021-04-10T10:08:08Z</time>
      </trkpt>
      <trkpt lat="45.16194" lon="5.89737">
        <ele>1133.4</ele>
        <time>2021-04-10T10:08:09Z</time>
      </trkpt>
      <trkpt lat="45.16194" lon="5.89737">
        <ele>1133.4</ele>
        <time>2021-04-10T10:08:10Z</time>
      </trkpt>
      <trkpt lat="45.16194" lon="5.89737">
        <ele>1133.4</ele>
        <time>2021-04-10T10:08:11Z</time>
      </trkpt>
      <trkpt lat="45.16194" lon="5.89737">
        <ele>1133.2</ele>
        <time>2021-04-10T10:08:12Z</time>
      </trkpt>
      <trkpt lat="45.16193" lon="5.89738">
        <ele>1133.4</ele>
        <time>2021-04-10T10:08:13Z</time>
      </trkpt>
      <trkpt lat="45.16193" lon="5.89738">
        <ele>1133.2</ele>
        <time>2021-04-10T10:08:14Z</time>
      </trkpt>
      <trkpt lat="45.16193" lon="5.89738">
        <ele>1133.2</ele>
        <time>2021-04-10T10:08:15Z</time>
      </trkpt>
      <trkpt lat="45.16193" lon="5.89738">
        <ele>1133</ele>
        <time>2021-04-10T10:08:16Z</time>
      </trkpt>
      <trkpt lat="45.16193" lon="5.89738">
        <ele>1133.2</ele>
        <time>2021-04-10T10:08:17Z</time>
      </trkpt>
      <trkpt lat="45.16193" lon="5.89738">
        <ele>1133.4</ele>
        <time>2021-04-10T10:08:18Z</time>
      </trkpt>
      <trkpt lat="45.16193" lon="5.89738">
        <ele>1133.4</ele>
        <time>2021-04-10T10:08:19Z</time>
      </trkpt>
      <trkpt lat="45.16193" lon="5.89738">
        <ele>1133.4</ele>
        <time>2021-04-10T10:08:20Z</time>
      </trkpt>
      <trkpt lat="45.16193" lon="5.89738">
        <ele>1133.4</ele>
        <time>2021-04-10T10:08:21Z</time>
      </trkpt>
      <trkpt lat="45.16193" lon="5.89738">
        <ele>1133.4</ele>
        <time>2021-04-10T10:08:22Z</time>
      </trkpt>
      <trkpt lat="45.16193" lon="5.89738">
        <ele>1133.4</ele>
        <time>2021-04-10T10:08:23Z</time>
      </trkpt>
      <trkpt lat="45.16193" lon="5.89738">
        <ele>1133.2</ele>
        <time>2021-04-10T10:08:24Z</time>
      </trkpt>
      <trkpt lat="45.16193" lon="5.89738">
        <ele>1133.2</ele>
        <time>2021-04-10T10:08:25Z</time>
      </trkpt>
      <trkpt lat="45.16193" lon="5.89738">
        <ele>1133.2</ele>
        <time>2021-04-10T10:08:26Z</time>
      </trkpt>
      <trkpt lat="45.16193" lon="5.89738">
        <ele>1133.2</ele>
        <time>2021-04-10T10:08:27Z</time>
      </trkpt>
      <trkpt lat="45.16193" lon="5.89738">
        <ele>1133.2</ele>
        <time>2021-04-10T10:08:28Z</time>
      </trkpt>
      <trkpt lat="45.16193" lon="5.89738">
        <ele>1133.4</ele>
        <time>2021-04-10T10:08:29Z</time>
      </trkpt>
      <trkpt lat="45.16193" lon="5.89738">
        <ele>1133.2</ele>
        <time>2021-04-10T10:08:30Z</time>
      </trkpt>
      <trkpt lat="45.16193" lon="5.89738">
        <ele>1133.2</ele>
        <time>2021-04-10T10:08:31Z</time>
      </trkpt>
      <trkpt lat="45.16193" lon="5.89738">
        <ele>1133.2</ele>
        <time>2021-04-10T10:08:32Z</time>
      </trkpt>
      <trkpt lat="45.16193" lon="5.89738">
        <ele>1133.2</ele>
        <time>2021-04-10T10:08:33Z</time>
      </trkpt>
      <trkpt lat="45.16193" lon="5.89738">
        <ele>1133</ele>
        <time>2021-04-10T10:08:34Z</time>
      </trkpt>
      <trkpt lat="45.16193" lon="5.89738">
        <ele>1133</ele>
        <time>2021-04-10T10:08:35Z</time>
      </trkpt>
      <trkpt lat="45.16193" lon="5.89738">
        <ele>1133</ele>
        <time>2021-04-10T10:08:36Z</time>
      </trkpt>
      <trkpt lat="45.16193" lon="5.89739">
        <ele>1133</ele>
        <time>2021-04-10T10:08:37Z</time>
      </trkpt>
      <trkpt lat="45.16193" lon="5.89739">
        <ele>1133</ele>
        <time>2021-04-10T10:08:38Z</time>
      </trkpt>
      <trkpt lat="45.16193" lon="5.89739">
        <ele>1133</ele>
        <time>2021-04-10T10:08:39Z</time>
      </trkpt>
      <trkpt lat="45.16193" lon="5.89739">
        <ele>1133</ele>
        <time>2021-04-10T10:08:40Z</time>
      </trkpt>
      <trkpt lat="45.16193" lon="5.89739">
        <ele>1132.8</ele>
        <time>2021-04-10T10:08:41Z</time>
      </trkpt>
      <trkpt lat="45.16193" lon="5.89739">
        <ele>1133</ele>
        <time>2021-04-10T10:08:42Z</time>
      </trkpt>
      <trkpt lat="45.16193" lon="5.89739">
        <ele>1133</ele>
        <time>2021-04-10T10:08:43Z</time>
      </trkpt>
      <trkpt lat="45.16193" lon="5.89739">
        <ele>1133</ele>
        <time>2021-04-10T10:08:44Z</time>
      </trkpt>
      <trkpt lat="45.16193" lon="5.89739">
        <ele>1133</ele>
        <time>2021-04-10T10:08:45Z</time>
      </trkpt>
      <trkpt lat="45.16193" lon="5.89739">
        <ele>1133.2</ele>
        <time>2021-04-10T10:08:46Z</time>
      </trkpt>
      <trkpt lat="45.16193" lon="5.89739">
        <ele>1133.2</ele>
        <time>2021-04-10T10:08:47Z</time>
      </trkpt>
      <trkpt lat="45.16193" lon="5.89739">
        <ele>1133.4</ele>
        <time>2021-04-10T10:08:48Z</time>
      </trkpt>
      <trkpt lat="45.16193" lon="5.89739">
        <ele>1133.4</ele>
        <time>2021-04-10T10:08:49Z</time>
      </trkpt>
      <trkpt lat="45.16193" lon="5.89739">
        <ele>1133.4</ele>
        <time>2021-04-10T10:08:50Z</time>
      </trkpt>
      <trkpt lat="45.16193" lon="5.89739">
        <ele>1133.2</ele>
        <time>2021-04-10T10:08:51Z</time>
      </trkpt>
      <trkpt lat="45.16193" lon="5.89739">
        <ele>1133.2</ele>
        <time>2021-04-10T10:08:52Z</time>
      </trkpt>
      <trkpt lat="45.16193" lon="5.89739">
        <ele>1133.4</ele>
        <time>2021-04-10T10:08:53Z</time>
      </trkpt>
      <trkpt lat="45.16193" lon="5.89739">
        <ele>1133.4</ele>
        <time>2021-04-10T10:08:54Z</time>
      </trkpt>
      <trkpt lat="45.16193" lon="5.89739">
        <ele>1133.2</ele>
        <time>2021-04-10T10:08:55Z</time>
      </trkpt>
      <trkpt lat="45.16193" lon="5.89739">
        <ele>1133</ele>
        <time>2021-04-10T10:08:56Z</time>
      </trkpt>
      <trkpt lat="45.16193" lon="5.89739">
        <ele>1133.2</ele>
        <time>2021-04-10T10:08:57Z</time>
      </trkpt>
      <trkpt lat="45.16193" lon="5.89739">
        <ele>1133.2</ele>
        <time>2021-04-10T10:08:58Z</time>
      </trkpt>
      <trkpt lat="45.16193" lon="5.89739">
        <ele>1133</ele>
        <time>2021-04-10T10:08:59Z</time>
      </trkpt>
      <trkpt lat="45.16193" lon="5.89739">
        <ele>1132.8</ele>
        <time>2021-04-10T10:09:00Z</time>
      </trkpt>
      <trkpt lat="45.16193" lon="5.89739">
        <ele>1132.6</ele>
        <time>2021-04-10T10:09:01Z</time>
      </trkpt>
      <trkpt lat="45.16193" lon="5.8974">
        <ele>1132.6</ele>
        <time>2021-04-10T10:09:02Z</time>
      </trkpt>
      <trkpt lat="45.16193" lon="5.8974">
        <ele>1132.4</ele>
        <time>2021-04-10T10:09:03Z</time>
      </trkpt>
      <trkpt lat="45.16193" lon="5.8974">
        <ele>1132.6</ele>
        <time>2021-04-10T10:09:04Z</time>
      </trkpt>
      <trkpt lat="45.16193" lon="5.8974">
        <ele>1132.8</ele>
        <time>2021-04-10T10:09:05Z</time>
      </trkpt>
      <trkpt lat="45.16193" lon="5.8974">
        <ele>1133</ele>
        <time>2021-04-10T10:09:06Z</time>
      </trkpt>
      <trkpt lat="45.16193" lon="5.8974">
        <ele>1133.2</ele>
        <time>2021-04-10T10:09:07Z</time>
      </trkpt>
      <trkpt lat="45.16193" lon="5.8974">
        <ele>1133.4</ele>
        <time>2021-04-10T10:09:08Z</time>
      </trkpt>
      <trkpt lat="45.16193" lon="5.8974">
        <ele>1133.6</ele>
        <time>2021-04-10T10:09:09Z</time>
      </trkpt>
      <trkpt lat="45.16193" lon="5.8974">
        <ele>1133.2</ele>
        <time>2021-04-10T10:09:10Z</time>
      </trkpt>
      <trkpt lat="45.16193" lon="5.8974">
        <ele>1133.2</ele>
        <time>2021-04-10T10:09:11Z</time>
      </trkpt>
      <trkpt lat="45.16193" lon="5.8974">
        <ele>1133.2</ele>
        <time>2021-04-10T10:09:12Z</time>
      </trkpt>
      <trkpt lat="45.16193" lon="5.8974">
        <ele>1133</ele>
        <time>2021-04-10T10:09:13Z</time>
      </trkpt>
      <trkpt lat="45.16193" lon="5.8974">
        <ele>1133.2</ele>
        <time>2021-04-10T10:09:14Z</time>
      </trkpt>
      <trkpt lat="45.16193" lon="5.8974">
        <ele>1133.2</ele>
        <time>2021-04-10T10:09:15Z</time>
      </trkpt>
      <trkpt lat="45.16193" lon="5.8974">
        <ele>1133.2</ele>
        <time>2021-04-10T10:09:16Z</time>
      </trkpt>
      <trkpt lat="45.16193" lon="5.8974">
        <ele>1133.2</ele>
        <time>2021-04-10T10:09:17Z</time>
      </trkpt>
      <trkpt lat="45.16193" lon="5.8974">
        <ele>1133</ele>
        <time>2021-04-10T10:09:18Z</time>
      </trkpt>
      <trkpt lat="45.16193" lon="5.8974">
        <ele>1133.2</ele>
        <time>2021-04-10T10:09:19Z</time>
      </trkpt>
      <trkpt lat="45.16193" lon="5.8974">
        <ele>1133.2</ele>
        <time>2021-04-10T10:09:20Z</time>
      </trkpt>
      <trkpt lat="45.16193" lon="5.8974">
        <ele>1133</ele>
        <time>2021-04-10T10:09:21Z</time>
      </trkpt>
      <trkpt lat="45.16193" lon="5.8974">
        <ele>1133</ele>
        <time>2021-04-10T10:09:22Z</time>
      </trkpt>
      <trkpt lat="45.16193" lon="5.8974">
        <ele>1133</ele>
        <time>2021-04-10T10:09:23Z</time>
      </trkpt>
      <trkpt lat="45.16193" lon="5.8974">
        <ele>1133</ele>
        <time>2021-04-10T10:09:24Z</time>
      </trkpt>
      <trkpt lat="45.16193" lon="5.8974">
        <ele>1132.8</ele>
        <time>2021-04-10T10:09:25Z</time>
      </trkpt>
      <trkpt lat="45.16193" lon="5.89741">
        <ele>1132.8</ele>
        <time>2021-04-10T10:09:26Z</time>
      </trkpt>
      <trkpt lat="45.16193" lon="5.89741">
        <ele>1132.8</ele>
        <time>2021-04-10T10:09:27Z</time>
      </trkpt>
      <trkpt lat="45.16193" lon="5.89741">
        <ele>1132.8</ele>
        <time>2021-04-10T10:09:28Z</time>
      </trkpt>
      <trkpt lat="45.16193" lon="5.89741">
        <ele>1132.8</ele>
        <time>2021-04-10T10:09:29Z</time>
      </trkpt>
      <trkpt lat="45.16193" lon="5.89741">
        <ele>1132.8</ele>
        <time>2021-04-10T10:09:30Z</time>
      </trkpt>
      <trkpt lat="45.16193" lon="5.89741">
        <ele>1132.8</ele>
        <time>2021-04-10T10:09:31Z</time>
      </trkpt>
      <trkpt lat="45.16193" lon="5.89741">
        <ele>1132.6</ele>
        <time>2021-04-10T10:09:32Z</time>
      </trkpt>
      <trkpt lat="45.16193" lon="5.89741">
        <ele>1132.6</ele>
        <time>2021-04-10T10:09:33Z</time>
      </trkpt>
      <trkpt lat="45.16193" lon="5.89741">
        <ele>1132.8</ele>
        <time>2021-04-10T10:09:34Z</time>
      </trkpt>
      <trkpt lat="45.16193" lon="5.89741">
        <ele>1133</ele>
        <time>2021-04-10T10:09:35Z</time>
      </trkpt>
      <trkpt lat="45.16193" lon="5.89741">
        <ele>1133</ele>
        <time>2021-04-10T10:09:36Z</time>
      </trkpt>
      <trkpt lat="45.16193" lon="5.89741">
        <ele>1133.2</ele>
        <time>2021-04-10T10:09:37Z</time>
      </trkpt>
      <trkpt lat="45.16193" lon="5.89741">
        <ele>1133.2</ele>
        <time>2021-04-10T10:09:38Z</time>
      </trkpt>
      <trkpt lat="45.16193" lon="5.89741">
        <ele>1133.2</ele>
        <time>2021-04-10T10:09:39Z</time>
      </trkpt>
      <trkpt lat="45.16193" lon="5.89741">
        <ele>1133.4</ele>
        <time>2021-04-10T10:09:40Z</time>
      </trkpt>
      <trkpt lat="45.16193" lon="5.89741">
        <ele>1133.4</ele>
        <time>2021-04-10T10:09:41Z</time>
      </trkpt>
      <trkpt lat="45.16193" lon="5.89741">
        <ele>1133.2</ele>
        <time>2021-04-10T10:09:42Z</time>
      </trkpt>
      <trkpt lat="45.16193" lon="5.89741">
        <ele>1133.2</ele>
        <time>2021-04-10T10:09:43Z</time>
      </trkpt>
      <trkpt lat="45.16193" lon="5.89741">
        <ele>1133</ele>
        <time>2021-04-10T10:09:44Z</time>
      </trkpt>
      <trkpt lat="45.16193" lon="5.89741">
        <ele>1133.2</ele>
        <time>2021-04-10T10:09:45Z</time>
      </trkpt>
      <trkpt lat="45.16193" lon="5.89741">
        <ele>1133.4</ele>
        <time>2021-04-10T10:09:46Z</time>
      </trkpt>
      <trkpt lat="45.16193" lon="5.89741">
        <ele>1133.4</ele>
        <time>2021-04-10T10:09:47Z</time>
      </trkpt>
      <trkpt lat="45.16193" lon="5.89741">
        <ele>1133.4</ele>
        <time>2021-04-10T10:09:48Z</time>
      </trkpt>
      <trkpt lat="45.16193" lon="5.89741">
        <ele>1133.2</ele>
        <time>2021-04-10T10:09:49Z</time>
      </trkpt>
      <trkpt lat="45.16192" lon="5.89741">
        <ele>1133.4</ele>
        <time>2021-04-10T10:09:50Z</time>
      </trkpt>
      <trkpt lat="45.16192" lon="5.89742">
        <ele>1133.4</ele>
        <time>2021-04-10T10:09:51Z</time>
      </trkpt>
      <trkpt lat="45.16192" lon="5.89742">
        <ele>1133.2</ele>
        <time>2021-04-10T10:09:52Z</time>
      </trkpt>
      <trkpt lat="45.16192" lon="5.89742">
        <ele>1133.2</ele>
        <time>2021-04-10T10:09:53Z</time>
      </trkpt>
      <trkpt lat="45.16192" lon="5.89742">
        <ele>1133.2</ele>
        <time>2021-04-10T10:09:54Z</time>
      </trkpt>
      <trkpt lat="45.16192" lon="5.89742">
        <ele>1133.2</ele>
        <time>2021-04-10T10:09:55Z</time>
      </trkpt>
      <trkpt lat="45.16192" lon="5.89742">
        <ele>1133.2</ele>
        <time>2021-04-10T10:09:56Z</time>
      </trkpt>
      <trkpt lat="45.16192" lon="5.89742">
        <ele>1133.4</ele>
        <time>2021-04-10T10:09:57Z</time>
      </trkpt>
      <trkpt lat="45.16192" lon="5.89742">
        <ele>1133.4</ele>
        <time>2021-04-10T10:09:58Z</time>
      </trkpt>
      <trkpt lat="45.16192" lon="5.89742">
        <ele>1133.2</ele>
        <time>2021-04-10T10:09:59Z</time>
      </trkpt>
      <trkpt lat="45.16192" lon="5.89742">
        <ele>1133</ele>
        <time>2021-04-10T10:10:01Z</time>
      </trkpt>
      <trkpt lat="45.16192" lon="5.89742">
        <ele>1132.8</ele>
        <time>2021-04-10T10:10:02Z</time>
      </trkpt>
      <trkpt lat="45.16192" lon="5.89742">
        <ele>1132.8</ele>
        <time>2021-04-10T10:10:03Z</time>
      </trkpt>
      <trkpt lat="45.16192" lon="5.89742">
        <ele>1132.8</ele>
        <time>2021-04-10T10:10:04Z</time>
      </trkpt>
      <trkpt lat="45.16192" lon="5.89742">
        <ele>1132.8</ele>
        <time>2021-04-10T10:10:05Z</time>
      </trkpt>
      <trkpt lat="45.16192" lon="5.89742">
        <ele>1132.8</ele>
        <time>2021-04-10T10:10:06Z</time>
      </trkpt>
      <trkpt lat="45.16192" lon="5.89742">
        <ele>1132.8</ele>
        <time>2021-04-10T10:10:07Z</time>
      </trkpt>
      <trkpt lat="45.16192" lon="5.89742">
        <ele>1132.8</ele>
        <time>2021-04-10T10:10:08Z</time>
      </trkpt>
      <trkpt lat="45.16192" lon="5.89742">
        <ele>1132.8</ele>
        <time>2021-04-10T10:10:09Z</time>
      </trkpt>
      <trkpt lat="45.16192" lon="5.89742">
        <ele>1132.8</ele>
        <time>2021-04-10T10:10:10Z</time>
      </trkpt>
      <trkpt lat="45.16192" lon="5.89742">
        <ele>1133</ele>
        <time>2021-04-10T10:10:11Z</time>
      </trkpt>
      <trkpt lat="45.16192" lon="5.89742">
        <ele>1132.8</ele>
        <time>2021-04-10T10:10:12Z</time>
      </trkpt>
      <trkpt lat="45.16192" lon="5.89742">
        <ele>1132.8</ele>
        <time>2021-04-10T10:10:13Z</time>
      </trkpt>
      <trkpt lat="45.16192" lon="5.89742">
        <ele>1132.8</ele>
        <time>2021-04-10T10:10:14Z</time>
      </trkpt>
      <trkpt lat="45.16192" lon="5.89742">
        <ele>1132.8</ele>
        <time>2021-04-10T10:10:15Z</time>
      </trkpt>
      <trkpt lat="45.16192" lon="5.89742">
        <ele>1132.8</ele>
        <time>2021-04-10T10:10:16Z</time>
      </trkpt>
      <trkpt lat="45.16192" lon="5.89743">
        <ele>1132.8</ele>
        <time>2021-04-10T10:10:17Z</time>
      </trkpt>
      <trkpt lat="45.16192" lon="5.89743">
        <ele>1133</ele>
        <time>2021-04-10T10:10:18Z</time>
      </trkpt>
      <trkpt lat="45.16192" lon="5.89743">
        <ele>1133</ele>
        <time>2021-04-10T10:10:19Z</time>
      </trkpt>
      <trkpt lat="45.16192" lon="5.89743">
        <ele>1133</ele>
        <time>2021-04-10T10:10:20Z</time>
      </trkpt>
      <trkpt lat="45.16192" lon="5.89743">
        <ele>1133</ele>
        <time>2021-04-10T10:10:21Z</time>
      </trkpt>
      <trkpt lat="45.16192" lon="5.89743">
        <ele>1132.8</ele>
        <time>2021-04-10T10:10:22Z</time>
      </trkpt>
      <trkpt lat="45.16192" lon="5.89743">
        <ele>1132.8</ele>
        <time>2021-04-10T10:10:23Z</time>
      </trkpt>
      <trkpt lat="45.16192" lon="5.89743">
        <ele>1132.6</ele>
        <time>2021-04-10T10:10:24Z</time>
      </trkpt>
      <trkpt lat="45.16192" lon="5.89743">
        <ele>1132.6</ele>
        <time>2021-04-10T10:10:25Z</time>
      </trkpt>
      <trkpt lat="45.16192" lon="5.89743">
        <ele>1132.6</ele>
        <time>2021-04-10T10:10:26Z</time>
      </trkpt>
      <trkpt lat="45.16192" lon="5.89743">
        <ele>1132.6</ele>
        <time>2021-04-10T10:10:27Z</time>
      </trkpt>
      <trkpt lat="45.16192" lon="5.89743">
        <ele>1132.6</ele>
        <time>2021-04-10T10:10:28Z</time>
      </trkpt>
      <trkpt lat="45.16192" lon="5.89743">
        <ele>1132.4</ele>
        <time>2021-04-10T10:10:29Z</time>
      </trkpt>
      <trkpt lat="45.16192" lon="5.89743">
        <ele>1132.4</ele>
        <time>2021-04-10T10:10:30Z</time>
      </trkpt>
      <trkpt lat="45.16192" lon="5.89743">
        <ele>1132.4</ele>
        <time>2021-04-10T10:10:31Z</time>
      </trkpt>
      <trkpt lat="45.16192" lon="5.89743">
        <ele>1132.6</ele>
        <time>2021-04-10T10:10:32Z</time>
      </trkpt>
      <trkpt lat="45.16192" lon="5.89743">
        <ele>1132.6</ele>
        <time>2021-04-10T10:10:33Z</time>
      </trkpt>
      <trkpt lat="45.16192" lon="5.89743">
        <ele>1132.4</ele>
        <time>2021-04-10T10:10:34Z</time>
      </trkpt>
      <trkpt lat="45.16192" lon="5.89743">
        <ele>1132.6</ele>
        <time>2021-04-10T10:10:35Z</time>
      </trkpt>
      <trkpt lat="45.16192" lon="5.89743">
        <ele>1132.6</ele>
        <time>2021-04-10T10:10:36Z</time>
      </trkpt>
      <trkpt lat="45.16192" lon="5.89743">
        <ele>1132.6</ele>
        <time>2021-04-10T10:10:37Z</time>
      </trkpt>
      <trkpt lat="45.16192" lon="5.89743">
        <ele>1132.6</ele>
        <time>2021-04-10T10:10:38Z</time>
      </trkpt>
      <trkpt lat="45.16192" lon="5.89743">
        <ele>1132.6</ele>
        <time>2021-04-10T10:10:39Z</time>
      </trkpt>
      <trkpt lat="45.16192" lon="5.89743">
        <ele>1132.6</ele>
        <time>2021-04-10T10:10:40Z</time>
      </trkpt>
      <trkpt lat="45.16192" lon="5.89744">
        <ele>1132.8</ele>
        <time>2021-04-10T10:10:41Z</time>
      </trkpt>
      <trkpt lat="45.16192" lon="5.89744">
        <ele>1133</ele>
        <time>2021-04-10T10:10:42Z</time>
      </trkpt>
      <trkpt lat="45.16192" lon="5.89744">
        <ele>1133</ele>
        <time>2021-04-10T10:10:43Z</time>
      </trkpt>
      <trkpt lat="45.16192" lon="5.89744">
        <ele>1132.8</ele>
        <time>2021-04-10T10:10:44Z</time>
      </trkpt>
      <trkpt lat="45.16192" lon="5.89744">
        <ele>1132.8</ele>
        <time>2021-04-10T10:10:45Z</time>
      </trkpt>
      <trkpt lat="45.16192" lon="5.89744">
        <ele>1132.8</ele>
        <time>2021-04-10T10:10:46Z</time>
      </trkpt>
      <trkpt lat="45.16192" lon="5.89744">
        <ele>1132.8</ele>
        <time>2021-04-10T10:10:47Z</time>
      </trkpt>
      <trkpt lat="45.16192" lon="5.89744">
        <ele>1132.8</ele>
        <time>2021-04-10T10:10:48Z</time>
      </trkpt>
      <trkpt lat="45.16192" lon="5.89744">
        <ele>1132.8</ele>
        <time>2021-04-10T10:10:49Z</time>
      </trkpt>
      <trkpt lat="45.16192" lon="5.89744">
        <ele>1132.8</ele>
        <time>2021-04-10T10:10:50Z</time>
      </trkpt>
      <trkpt lat="45.16192" lon="5.89744">
        <ele>1132.6</ele>
        <time>2021-04-10T10:10:51Z</time>
      </trkpt>
      <trkpt lat="45.16192" lon="5.89744">
        <ele>1132.6</ele>
        <time>2021-04-10T10:10:52Z</time>
      </trkpt>
      <trkpt lat="45.16192" lon="5.89744">
        <ele>1132.8</ele>
        <time>2021-04-10T10:10:53Z</time>
      </trkpt>
      <trkpt lat="45.16192" lon="5.89744">
        <ele>1132.8</ele>
        <time>2021-04-10T10:10:54Z</time>
      </trkpt>
      <trkpt lat="45.16192" lon="5.89744">
        <ele>1132.8</ele>
        <time>2021-04-10T10:10:55Z</time>
      </trkpt>
      <trkpt lat="45.16192" lon="5.89744">
        <ele>1132.8</ele>
        <time>2021-04-10T10:10:56Z</time>
      </trkpt>
      <trkpt lat="45.16192" lon="5.89744">
        <ele>1132.8</ele>
        <time>2021-04-10T10:10:57Z</time>
      </trkpt>
      <trkpt lat="45.16192" lon="5.89744">
        <ele>1133</ele>
        <time>2021-04-10T10:10:58Z</time>
      </trkpt>
      <trkpt lat="45.16192" lon="5.89744">
        <ele>1133.2</ele>
        <time>2021-04-10T10:10:59Z</time>
      </trkpt>
      <trkpt lat="45.16192" lon="5.89744">
        <ele>1133.2</ele>
        <time>2021-04-10T10:11:00Z</time>
      </trkpt>
      <trkpt lat="45.16192" lon="5.89744">
        <ele>1133.4</ele>
        <time>2021-04-10T10:11:01Z</time>
      </trkpt>
      <trkpt lat="45.16192" lon="5.89744">
        <ele>1133.4</ele>
        <time>2021-04-10T10:11:02Z</time>
      </trkpt>
      <trkpt lat="45.16192" lon="5.89744">
        <ele>1133.4</ele>
        <time>2021-04-10T10:11:03Z</time>
      </trkpt>
      <trkpt lat="45.16192" lon="5.89744">
        <ele>1133.4</ele>
        <time>2021-04-10T10:11:04Z</time>
      </trkpt>
      <trkpt lat="45.16192" lon="5.89744">
        <ele>1133.6</ele>
        <time>2021-04-10T10:11:05Z</time>
      </trkpt>
      <trkpt lat="45.16192" lon="5.89745">
        <ele>1133.6</ele>
        <time>2021-04-10T10:11:06Z</time>
      </trkpt>
      <trkpt lat="45.16192" lon="5.89745">
        <ele>1133.4</ele>
        <time>2021-04-10T10:11:07Z</time>
      </trkpt>
      <trkpt lat="45.16192" lon="5.89745">
        <ele>1133.4</ele>
        <time>2021-04-10T10:11:08Z</time>
      </trkpt>
      <trkpt lat="45.16192" lon="5.89745">
        <ele>1133.2</ele>
        <time>2021-04-10T10:11:09Z</time>
      </trkpt>
      <trkpt lat="45.16192" lon="5.89745">
        <ele>1133.4</ele>
        <time>2021-04-10T10:11:10Z</time>
      </trkpt>
      <trkpt lat="45.16192" lon="5.89745">
        <ele>1133.2</ele>
        <time>2021-04-10T10:11:11Z</time>
      </trkpt>
      <trkpt lat="45.16192" lon="5.89745">
        <ele>1133.2</ele>
        <time>2021-04-10T10:11:12Z</time>
      </trkpt>
      <trkpt lat="45.16192" lon="5.89745">
        <ele>1133</ele>
        <time>2021-04-10T10:11:13Z</time>
      </trkpt>
      <trkpt lat="45.16192" lon="5.89745">
        <ele>1133</ele>
        <time>2021-04-10T10:11:14Z</time>
      </trkpt>
      <trkpt lat="45.16192" lon="5.89745">
        <ele>1133</ele>
        <time>2021-04-10T10:11:15Z</time>
      </trkpt>
      <trkpt lat="45.16192" lon="5.89745">
        <ele>1132.8</ele>
        <time>2021-04-10T10:11:16Z</time>
      </trkpt>
      <trkpt lat="45.16192" lon="5.89745">
        <ele>1132.8</ele>
        <time>2021-04-10T10:11:17Z</time>
      </trkpt>
      <trkpt lat="45.16192" lon="5.89745">
        <ele>1132.6</ele>
        <time>2021-04-10T10:11:18Z</time>
      </trkpt>
      <trkpt lat="45.16192" lon="5.89745">
        <ele>1132.8</ele>
        <time>2021-04-10T10:11:19Z</time>
      </trkpt>
      <trkpt lat="45.16192" lon="5.89745">
        <ele>1132.8</ele>
        <time>2021-04-10T10:11:20Z</time>
      </trkpt>
      <trkpt lat="45.16192" lon="5.89745">
        <ele>1132.8</ele>
        <time>2021-04-10T10:11:21Z</time>
      </trkpt>
      <trkpt lat="45.16192" lon="5.89745">
        <ele>1132.8</ele>
        <time>2021-04-10T10:11:22Z</time>
      </trkpt>
      <trkpt lat="45.16192" lon="5.89745">
        <ele>1132.6</ele>
        <time>2021-04-10T10:11:23Z</time>
      </trkpt>
      <trkpt lat="45.16192" lon="5.89745">
        <ele>1132.6</ele>
        <time>2021-04-10T10:11:24Z</time>
      </trkpt>
      <trkpt lat="45.16192" lon="5.89745">
        <ele>1132.6</ele>
        <time>2021-04-10T10:11:25Z</time>
      </trkpt>
      <trkpt lat="45.16192" lon="5.89745">
        <ele>1132.8</ele>
        <time>2021-04-10T10:11:26Z</time>
      </trkpt>
      <trkpt lat="45.16192" lon="5.89745">
        <ele>1132.8</ele>
        <time>2021-04-10T10:11:27Z</time>
      </trkpt>
      <trkpt lat="45.16191" lon="5.89745">
        <ele>1132.8</ele>
        <time>2021-04-10T10:11:28Z</time>
      </trkpt>
      <trkpt lat="45.16191" lon="5.89745">
        <ele>1132.8</ele>
        <time>2021-04-10T10:11:29Z</time>
      </trkpt>
      <trkpt lat="45.16191" lon="5.89746">
        <ele>1132.8</ele>
        <time>2021-04-10T10:11:30Z</time>
      </trkpt>
      <trkpt lat="45.16191" lon="5.89746">
        <ele>1132.8</ele>
        <time>2021-04-10T10:11:31Z</time>
      </trkpt>
      <trkpt lat="45.16191" lon="5.89746">
        <ele>1132.6</ele>
        <time>2021-04-10T10:11:32Z</time>
      </trkpt>
      <trkpt lat="45.16191" lon="5.89746">
        <ele>1132.6</ele>
        <time>2021-04-10T10:11:33Z</time>
      </trkpt>
      <trkpt lat="45.16191" lon="5.89746">
        <ele>1132.6</ele>
        <time>2021-04-10T10:11:34Z</time>
      </trkpt>
      <trkpt lat="45.16191" lon="5.89746">
        <ele>1132.8</ele>
        <time>2021-04-10T10:11:35Z</time>
      </trkpt>
      <trkpt lat="45.16191" lon="5.89746">
        <ele>1132.6</ele>
        <time>2021-04-10T10:11:36Z</time>
      </trkpt>
      <trkpt lat="45.16191" lon="5.89746">
        <ele>1132.8</ele>
        <time>2021-04-10T10:11:37Z</time>
      </trkpt>
      <trkpt lat="45.16191" lon="5.89746">
        <ele>1132.8</ele>
        <time>2021-04-10T10:11:38Z</time>
      </trkpt>
      <trkpt lat="45.16191" lon="5.89746">
        <ele>1132.8</ele>
        <time>2021-04-10T10:11:39Z</time>
      </trkpt>
      <trkpt lat="45.16191" lon="5.89746">
        <ele>1132.6</ele>
        <time>2021-04-10T10:11:40Z</time>
      </trkpt>
      <trkpt lat="45.16191" lon="5.89746">
        <ele>1132.6</ele>
        <time>2021-04-10T10:11:41Z</time>
      </trkpt>
      <trkpt lat="45.16191" lon="5.89746">
        <ele>1132.6</ele>
        <time>2021-04-10T10:11:42Z</time>
      </trkpt>
      <trkpt lat="45.16191" lon="5.89746">
        <ele>1132.8</ele>
        <time>2021-04-10T10:11:43Z</time>
      </trkpt>
      <trkpt lat="45.16191" lon="5.89746">
        <ele>1132.6</ele>
        <time>2021-04-10T10:11:44Z</time>
      </trkpt>
      <trkpt lat="45.16191" lon="5.89746">
        <ele>1132.8</ele>
        <time>2021-04-10T10:11:45Z</time>
      </trkpt>
      <trkpt lat="45.16191" lon="5.89746">
        <ele>1132.6</ele>
        <time>2021-04-10T10:11:46Z</time>
      </trkpt>
      <trkpt lat="45.16191" lon="5.89746">
        <ele>1132.8</ele>
        <time>2021-04-10T10:11:47Z</time>
      </trkpt>
      <trkpt lat="45.16191" lon="5.89746">
        <ele>1132.6</ele>
        <time>2021-04-10T10:11:48Z</time>
      </trkpt>
      <trkpt lat="45.16191" lon="5.89746">
        <ele>1132.8</ele>
        <time>2021-04-10T10:11:49Z</time>
      </trkpt>
      <trkpt lat="45.16191" lon="5.89746">
        <ele>1132.6</ele>
        <time>2021-04-10T10:11:50Z</time>
      </trkpt>
      <trkpt lat="45.16191" lon="5.89746">
        <ele>1132.8</ele>
        <time>2021-04-10T10:11:51Z</time>
      </trkpt>
      <trkpt lat="45.16191" lon="5.89746">
        <ele>1132.8</ele>
        <time>2021-04-10T10:11:52Z</time>
      </trkpt>
      <trkpt lat="45.16191" lon="5.89746">
        <ele>1132.8</ele>
        <time>2021-04-10T10:11:53Z</time>
      </trkpt>
      <trkpt lat="45.16191" lon="5.89746">
        <ele>1132.8</ele>
        <time>2021-04-10T10:11:54Z</time>
      </trkpt>
      <trkpt lat="45.16191" lon="5.89747">
        <ele>1132.8</ele>
        <time>2021-04-10T10:11:55Z</time>
      </trkpt>
      <trkpt lat="45.16191" lon="5.89747">
        <ele>1132.8</ele>
        <time>2021-04-10T10:11:56Z</time>
      </trkpt>
      <trkpt lat="45.16191" lon="5.89747">
        <ele>1132.8</ele>
        <time>2021-04-10T10:11:57Z</time>
      </trkpt>
      <trkpt lat="45.16191" lon="5.89747">
        <ele>1132.8</ele>
        <time>2021-04-10T10:11:58Z</time>
      </trkpt>
      <trkpt lat="45.16191" lon="5.89747">
        <ele>1132.8</ele>
        <time>2021-04-10T10:11:59Z</time>
      </trkpt>
      <trkpt lat="45.16191" lon="5.89747">
        <ele>1132.8</ele>
        <time>2021-04-10T10:12:00Z</time>
      </trkpt>
      <trkpt lat="45.16191" lon="5.89747">
        <ele>1132.6</ele>
        <time>2021-04-10T10:12:01Z</time>
      </trkpt>
      <trkpt lat="45.16191" lon="5.89747">
        <ele>1132.6</ele>
        <time>2021-04-10T10:12:02Z</time>
      </trkpt>
      <trkpt lat="45.16191" lon="5.89747">
        <ele>1132.6</ele>
        <time>2021-04-10T10:12:03Z</time>
      </trkpt>
      <trkpt lat="45.16191" lon="5.89747">
        <ele>1132.6</ele>
        <time>2021-04-10T10:12:04Z</time>
      </trkpt>
      <trkpt lat="45.16191" lon="5.89747">
        <ele>1132.8</ele>
        <time>2021-04-10T10:12:05Z</time>
      </trkpt>
      <trkpt lat="45.16191" lon="5.89747">
        <ele>1132.6</ele>
        <time>2021-04-10T10:12:06Z</time>
      </trkpt>
      <trkpt lat="45.16191" lon="5.89747">
        <ele>1132.6</ele>
        <time>2021-04-10T10:12:07Z</time>
      </trkpt>
      <trkpt lat="45.16191" lon="5.89747">
        <ele>1132.6</ele>
        <time>2021-04-10T10:12:08Z</time>
      </trkpt>
      <trkpt lat="45.16191" lon="5.89747">
        <ele>1132.6</ele>
        <time>2021-04-10T10:12:09Z</time>
      </trkpt>
      <trkpt lat="45.16191" lon="5.89747">
        <ele>1132.8</ele>
        <time>2021-04-10T10:12:10Z</time>
      </trkpt>
      <trkpt lat="45.16191" lon="5.89747">
        <ele>1132.8</ele>
        <time>2021-04-10T10:12:11Z</time>
      </trkpt>
      <trkpt lat="45.16191" lon="5.89747">
        <ele>1132.8</ele>
        <time>2021-04-10T10:12:12Z</time>
      </trkpt>
      <trkpt lat="45.16191" lon="5.89747">
        <ele>1133</ele>
        <time>2021-04-10T10:12:13Z</time>
      </trkpt>
      <trkpt lat="45.16191" lon="5.89747">
        <ele>1132.8</ele>
        <time>2021-04-10T10:12:14Z</time>
      </trkpt>
      <trkpt lat="45.16191" lon="5.89747">
        <ele>1132.8</ele>
        <time>2021-04-10T10:12:15Z</time>
      </trkpt>
      <trkpt lat="45.16191" lon="5.89747">
        <ele>1132.6</ele>
        <time>2021-04-10T10:12:16Z</time>
      </trkpt>
      <trkpt lat="45.16191" lon="5.89747">
        <ele>1132.6</ele>
        <time>2021-04-10T10:12:17Z</time>
      </trkpt>
      <trkpt lat="45.16191" lon="5.89747">
        <ele>1132.6</ele>
        <time>2021-04-10T10:12:18Z</time>
      </trkpt>
      <trkpt lat="45.16191" lon="5.89747">
        <ele>1132.4</ele>
        <time>2021-04-10T10:12:19Z</time>
      </trkpt>
      <trkpt lat="45.16191" lon="5.89748">
        <ele>1132.4</ele>
        <time>2021-04-10T10:12:20Z</time>
      </trkpt>
      <trkpt lat="45.16191" lon="5.89748">
        <ele>1132.4</ele>
        <time>2021-04-10T10:12:21Z</time>
      </trkpt>
      <trkpt lat="45.16191" lon="5.89748">
        <ele>1132.4</ele>
        <time>2021-04-10T10:12:22Z</time>
      </trkpt>
      <trkpt lat="45.16191" lon="5.89748">
        <ele>1132.6</ele>
        <time>2021-04-10T10:12:23Z</time>
      </trkpt>
      <trkpt lat="45.16191" lon="5.89748">
        <ele>1132.6</ele>
        <time>2021-04-10T10:12:24Z</time>
      </trkpt>
      <trkpt lat="45.16191" lon="5.89748">
        <ele>1132.6</ele>
        <time>2021-04-10T10:12:25Z</time>
      </trkpt>
      <trkpt lat="45.16191" lon="5.89748">
        <ele>1132.4</ele>
        <time>2021-04-10T10:12:26Z</time>
      </trkpt>
      <trkpt lat="45.16191" lon="5.89748">
        <ele>1132.4</ele>
        <time>2021-04-10T10:12:27Z</time>
      </trkpt>
      <trkpt lat="45.16191" lon="5.89748">
        <ele>1132.4</ele>
        <time>2021-04-10T10:12:28Z</time>
      </trkpt>
      <trkpt lat="45.16191" lon="5.89748">
        <ele>1132.4</ele>
        <time>2021-04-10T10:12:29Z</time>
      </trkpt>
      <trkpt lat="45.16191" lon="5.89748">
        <ele>1132.4</ele>
        <time>2021-04-10T10:12:30Z</time>
      </trkpt>
      <trkpt lat="45.16191" lon="5.89748">
        <ele>1132.4</ele>
        <time>2021-04-10T10:12:31Z</time>
      </trkpt>
      <trkpt lat="45.16191" lon="5.89748">
        <ele>1132.6</ele>
        <time>2021-04-10T10:12:32Z</time>
      </trkpt>
      <trkpt lat="45.16191" lon="5.89748">
        <ele>1132.6</ele>
        <time>2021-04-10T10:12:33Z</time>
      </trkpt>
      <trkpt lat="45.16191" lon="5.89748">
        <ele>1132.6</ele>
        <time>2021-04-10T10:12:34Z</time>
      </trkpt>
      <trkpt lat="45.16191" lon="5.89748">
        <ele>1132.8</ele>
        <time>2021-04-10T10:12:35Z</time>
      </trkpt>
      <trkpt lat="45.16191" lon="5.89748">
        <ele>1132.8</ele>
        <time>2021-04-10T10:12:36Z</time>
      </trkpt>
      <trkpt lat="45.16191" lon="5.89748">
        <ele>1132.6</ele>
        <time>2021-04-10T10:12:37Z</time>
      </trkpt>
      <trkpt lat="45.16191" lon="5.89748">
        <ele>1132.8</ele>
        <time>2021-04-10T10:12:38Z</time>
      </trkpt>
      <trkpt lat="45.16191" lon="5.89748">
        <ele>1132.8</ele>
        <time>2021-04-10T10:12:39Z</time>
      </trkpt>
      <trkpt lat="45.16191" lon="5.89748">
        <ele>1133</ele>
        <time>2021-04-10T10:12:40Z</time>
      </trkpt>
      <trkpt lat="45.16191" lon="5.89748">
        <ele>1132.8</ele>
        <time>2021-04-10T10:12:41Z</time>
      </trkpt>
      <trkpt lat="45.16191" lon="5.89748">
        <ele>1132.6</ele>
        <time>2021-04-10T10:12:42Z</time>
      </trkpt>
      <trkpt lat="45.16191" lon="5.89748">
        <ele>1132.6</ele>
        <time>2021-04-10T10:12:43Z</time>
      </trkpt>
      <trkpt lat="45.16191" lon="5.89749">
        <ele>1132.6</ele>
        <time>2021-04-10T10:12:44Z</time>
      </trkpt>
      <trkpt lat="45.16191" lon="5.89749">
        <ele>1132.8</ele>
        <time>2021-04-10T10:12:45Z</time>
      </trkpt>
      <trkpt lat="45.16191" lon="5.89749">
        <ele>1132.8</ele>
        <time>2021-04-10T10:12:46Z</time>
      </trkpt>
      <trkpt lat="45.16191" lon="5.89749">
        <ele>1132.8</ele>
        <time>2021-04-10T10:12:47Z</time>
      </trkpt>
      <trkpt lat="45.16191" lon="5.89749">
        <ele>1133</ele>
        <time>2021-04-10T10:12:48Z</time>
      </trkpt>
      <trkpt lat="45.16191" lon="5.89749">
        <ele>1132.8</ele>
        <time>2021-04-10T10:12:49Z</time>
      </trkpt>
      <trkpt lat="45.16191" lon="5.89749">
        <ele>1133</ele>
        <time>2021-04-10T10:12:50Z</time>
      </trkpt>
      <trkpt lat="45.16191" lon="5.89749">
        <ele>1133</ele>
        <time>2021-04-10T10:12:51Z</time>
      </trkpt>
      <trkpt lat="45.16191" lon="5.89749">
        <ele>1132.8</ele>
        <time>2021-04-10T10:12:52Z</time>
      </trkpt>
      <trkpt lat="45.16191" lon="5.89749">
        <ele>1132.8</ele>
        <time>2021-04-10T10:12:53Z</time>
      </trkpt>
      <trkpt lat="45.16191" lon="5.89749">
        <ele>1132.8</ele>
        <time>2021-04-10T10:12:54Z</time>
      </trkpt>
      <trkpt lat="45.16191" lon="5.89749">
        <ele>1132.8</ele>
        <time>2021-04-10T10:12:55Z</time>
      </trkpt>
      <trkpt lat="45.16191" lon="5.89749">
        <ele>1132.8</ele>
        <time>2021-04-10T10:12:56Z</time>
      </trkpt>
      <trkpt lat="45.16191" lon="5.89749">
        <ele>1132.8</ele>
        <time>2021-04-10T10:12:57Z</time>
      </trkpt>
      <trkpt lat="45.16191" lon="5.89749">
        <ele>1133</ele>
        <time>2021-04-10T10:12:58Z</time>
      </trkpt>
      <trkpt lat="45.16191" lon="5.89749">
        <ele>1133</ele>
        <time>2021-04-10T10:12:59Z</time>
      </trkpt>
      <trkpt lat="45.16191" lon="5.89749">
        <ele>1133</ele>
        <time>2021-04-10T10:13:00Z</time>
      </trkpt>
      <trkpt lat="45.16191" lon="5.89749">
        <ele>1133</ele>
        <time>2021-04-10T10:13:01Z</time>
      </trkpt>
      <trkpt lat="45.16191" lon="5.89749">
        <ele>1133</ele>
        <time>2021-04-10T10:13:02Z</time>
      </trkpt>
      <trkpt lat="45.16191" lon="5.89749">
        <ele>1133</ele>
        <time>2021-04-10T10:13:03Z</time>
      </trkpt>
      <trkpt lat="45.16191" lon="5.89749">
        <ele>1133</ele>
        <time>2021-04-10T10:13:04Z</time>
      </trkpt>
      <trkpt lat="45.1619" lon="5.89749">
        <ele>1132.8</ele>
        <time>2021-04-10T10:13:05Z</time>
      </trkpt>
      <trkpt lat="45.1619" lon="5.89749">
        <ele>1132.8</ele>
        <time>2021-04-10T10:13:06Z</time>
      </trkpt>
      <trkpt lat="45.1619" lon="5.89749">
        <ele>1132.6</ele>
        <time>2021-04-10T10:13:07Z</time>
      </trkpt>
      <trkpt lat="45.1619" lon="5.89749">
        <ele>1132.4</ele>
        <time>2021-04-10T10:13:08Z</time>
      </trkpt>
      <trkpt lat="45.1619" lon="5.8975">
        <ele>1132.8</ele>
        <time>2021-04-10T10:13:09Z</time>
      </trkpt>
      <trkpt lat="45.1619" lon="5.8975">
        <ele>1133</ele>
        <time>2021-04-10T10:13:10Z</time>
      </trkpt>
      <trkpt lat="45.1619" lon="5.8975">
        <ele>1133.2</ele>
        <time>2021-04-10T10:13:11Z</time>
      </trkpt>
      <trkpt lat="45.1619" lon="5.8975">
        <ele>1133.4</ele>
        <time>2021-04-10T10:13:12Z</time>
      </trkpt>
      <trkpt lat="45.1619" lon="5.8975">
        <ele>1133.4</ele>
        <time>2021-04-10T10:13:13Z</time>
      </trkpt>
      <trkpt lat="45.1619" lon="5.8975">
        <ele>1133.6</ele>
        <time>2021-04-10T10:13:14Z</time>
      </trkpt>
      <trkpt lat="45.1619" lon="5.8975">
        <ele>1133.8</ele>
        <time>2021-04-10T10:13:15Z</time>
      </trkpt>
      <trkpt lat="45.1619" lon="5.8975">
        <ele>1133.8</ele>
        <time>2021-04-10T10:13:16Z</time>
      </trkpt>
      <trkpt lat="45.1619" lon="5.8975">
        <ele>1134</ele>
        <time>2021-04-10T10:13:17Z</time>
      </trkpt>
      <trkpt lat="45.1619" lon="5.8975">
        <ele>1134</ele>
        <time>2021-04-10T10:13:18Z</time>
      </trkpt>
      <trkpt lat="45.1619" lon="5.8975">
        <ele>1134.2</ele>
        <time>2021-04-10T10:13:19Z</time>
      </trkpt>
      <trkpt lat="45.1619" lon="5.8975">
        <ele>1134</ele>
        <time>2021-04-10T10:13:20Z</time>
      </trkpt>
      <trkpt lat="45.1619" lon="5.8975">
        <ele>1134.2</ele>
        <time>2021-04-10T10:13:21Z</time>
      </trkpt>
      <trkpt lat="45.1619" lon="5.8975">
        <ele>1134.4</ele>
        <time>2021-04-10T10:13:22Z</time>
      </trkpt>
      <trkpt lat="45.1619" lon="5.8975">
        <ele>1134.6</ele>
        <time>2021-04-10T10:13:23Z</time>
      </trkpt>
      <trkpt lat="45.1619" lon="5.8975">
        <ele>1134.8</ele>
        <time>2021-04-10T10:13:24Z</time>
      </trkpt>
      <trkpt lat="45.1619" lon="5.8975">
        <ele>1134.6</ele>
        <time>2021-04-10T10:13:25Z</time>
      </trkpt>
      <trkpt lat="45.1619" lon="5.8975">
        <ele>1134.6</ele>
        <time>2021-04-10T10:13:26Z</time>
      </trkpt>
      <trkpt lat="45.1619" lon="5.8975">
        <ele>1134.4</ele>
        <time>2021-04-10T10:13:27Z</time>
      </trkpt>
      <trkpt lat="45.1619" lon="5.8975">
        <ele>1134.4</ele>
        <time>2021-04-10T10:13:28Z</time>
      </trkpt>
      <trkpt lat="45.1619" lon="5.8975">
        <ele>1134.4</ele>
        <time>2021-04-10T10:13:29Z</time>
      </trkpt>
      <trkpt lat="45.1619" lon="5.8975">
        <ele>1134.2</ele>
        <time>2021-04-10T10:13:30Z</time>
      </trkpt>
      <trkpt lat="45.1619" lon="5.8975">
        <ele>1134.2</ele>
        <time>2021-04-10T10:13:31Z</time>
      </trkpt>
      <trkpt lat="45.1619" lon="5.8975">
        <ele>1134.2</ele>
        <time>2021-04-10T10:13:32Z</time>
      </trkpt>
      <trkpt lat="45.1619" lon="5.89751">
        <ele>1134.2</ele>
        <time>2021-04-10T10:13:33Z</time>
      </trkpt>
      <trkpt lat="45.1619" lon="5.89751">
        <ele>1134.2</ele>
        <time>2021-04-10T10:13:34Z</time>
      </trkpt>
      <trkpt lat="45.1619" lon="5.89751">
        <ele>1134.4</ele>
        <time>2021-04-10T10:13:35Z</time>
      </trkpt>
      <trkpt lat="45.1619" lon="5.89751">
        <ele>1134.2</ele>
        <time>2021-04-10T10:13:36Z</time>
      </trkpt>
      <trkpt lat="45.1619" lon="5.89751">
        <ele>1134.2</ele>
        <time>2021-04-10T10:13:37Z</time>
      </trkpt>
      <trkpt lat="45.1619" lon="5.89751">
        <ele>1134.2</ele>
        <time>2021-04-10T10:13:38Z</time>
      </trkpt>
      <trkpt lat="45.1619" lon="5.89751">
        <ele>1134.2</ele>
        <time>2021-04-10T10:13:39Z</time>
      </trkpt>
      <trkpt lat="45.1619" lon="5.89751">
        <ele>1134.2</ele>
        <time>2021-04-10T10:13:40Z</time>
      </trkpt>
      <trkpt lat="45.1619" lon="5.89751">
        <ele>1134.4</ele>
        <time>2021-04-10T10:13:41Z</time>
      </trkpt>
      <trkpt lat="45.1619" lon="5.89751">
        <ele>1134.4</ele>
        <time>2021-04-10T10:13:42Z</time>
      </trkpt>
      <trkpt lat="45.1619" lon="5.89751">
        <ele>1134.4</ele>
        <time>2021-04-10T10:13:43Z</time>
      </trkpt>
      <trkpt lat="45.1619" lon="5.89751">
        <ele>1134.6</ele>
        <time>2021-04-10T10:13:44Z</time>
      </trkpt>
      <trkpt lat="45.1619" lon="5.89751">
        <ele>1134.6</ele>
        <time>2021-04-10T10:13:45Z</time>
      </trkpt>
      <trkpt lat="45.1619" lon="5.89751">
        <ele>1134.4</ele>
        <time>2021-04-10T10:13:46Z</time>
      </trkpt>
      <trkpt lat="45.1619" lon="5.89751">
        <ele>1134.4</ele>
        <time>2021-04-10T10:13:47Z</time>
      </trkpt>
      <trkpt lat="45.1619" lon="5.89751">
        <ele>1134.2</ele>
        <time>2021-04-10T10:13:48Z</time>
      </trkpt>
      <trkpt lat="45.1619" lon="5.89751">
        <ele>1134.2</ele>
        <time>2021-04-10T10:13:49Z</time>
      </trkpt>
      <trkpt lat="45.1619" lon="5.89751">
        <ele>1134.4</ele>
        <time>2021-04-10T10:13:50Z</time>
      </trkpt>
      <trkpt lat="45.1619" lon="5.89751">
        <ele>1134.2</ele>
        <time>2021-04-10T10:13:51Z</time>
      </trkpt>
      <trkpt lat="45.1619" lon="5.89751">
        <ele>1134.2</ele>
        <time>2021-04-10T10:13:52Z</time>
      </trkpt>
      <trkpt lat="45.1619" lon="5.89751">
        <ele>1134.2</ele>
        <time>2021-04-10T10:13:53Z</time>
      </trkpt>
      <trkpt lat="45.1619" lon="5.89751">
        <ele>1134.4</ele>
        <time>2021-04-10T10:13:54Z</time>
      </trkpt>
      <trkpt lat="45.1619" lon="5.89751">
        <ele>1134.2</ele>
        <time>2021-04-10T10:13:55Z</time>
      </trkpt>
      <trkpt lat="45.1619" lon="5.89751">
        <ele>1134.2</ele>
        <time>2021-04-10T10:13:56Z</time>
      </trkpt>
      <trkpt lat="45.1619" lon="5.89751">
        <ele>1134.4</ele>
        <time>2021-04-10T10:13:57Z</time>
      </trkpt>
      <trkpt lat="45.1619" lon="5.89752">
        <ele>1134.4</ele>
        <time>2021-04-10T10:13:58Z</time>
      </trkpt>
      <trkpt lat="45.1619" lon="5.89752">
        <ele>1134.4</ele>
        <time>2021-04-10T10:13:59Z</time>
      </trkpt>
      <trkpt lat="45.1619" lon="5.89752">
        <ele>1134.2</ele>
        <time>2021-04-10T10:14:00Z</time>
      </trkpt>
      <trkpt lat="45.1619" lon="5.89752">
        <ele>1134.2</ele>
        <time>2021-04-10T10:14:01Z</time>
      </trkpt>
      <trkpt lat="45.1619" lon="5.89752">
        <ele>1134.4</ele>
        <time>2021-04-10T10:14:02Z</time>
      </trkpt>
      <trkpt lat="45.1619" lon="5.89752">
        <ele>1134.4</ele>
        <time>2021-04-10T10:14:03Z</time>
      </trkpt>
      <trkpt lat="45.1619" lon="5.89752">
        <ele>1134.4</ele>
        <time>2021-04-10T10:14:04Z</time>
      </trkpt>
      <trkpt lat="45.1619" lon="5.89752">
        <ele>1134.2</ele>
        <time>2021-04-10T10:14:05Z</time>
      </trkpt>
      <trkpt lat="45.1619" lon="5.89752">
        <ele>1134.2</ele>
        <time>2021-04-10T10:14:06Z</time>
      </trkpt>
      <trkpt lat="45.1619" lon="5.89752">
        <ele>1134.4</ele>
        <time>2021-04-10T10:14:07Z</time>
      </trkpt>
      <trkpt lat="45.1619" lon="5.89752">
        <ele>1134.4</ele>
        <time>2021-04-10T10:14:08Z</time>
      </trkpt>
      <trkpt lat="45.1619" lon="5.89752">
        <ele>1134.4</ele>
        <time>2021-04-10T10:14:09Z</time>
      </trkpt>
      <trkpt lat="45.1619" lon="5.89752">
        <ele>1134.6</ele>
        <time>2021-04-10T10:14:10Z</time>
      </trkpt>
      <trkpt lat="45.1619" lon="5.89752">
        <ele>1134.6</ele>
        <time>2021-04-10T10:14:11Z</time>
      </trkpt>
      <trkpt lat="45.1619" lon="5.89752">
        <ele>1134.6</ele>
        <time>2021-04-10T10:14:12Z</time>
      </trkpt>
      <trkpt lat="45.1619" lon="5.89752">
        <ele>1134.4</ele>
        <time>2021-04-10T10:14:13Z</time>
      </trkpt>
      <trkpt lat="45.1619" lon="5.89752">
        <ele>1134.4</ele>
        <time>2021-04-10T10:14:14Z</time>
      </trkpt>
      <trkpt lat="45.1619" lon="5.89752">
        <ele>1134.2</ele>
        <time>2021-04-10T10:14:15Z</time>
      </trkpt>
      <trkpt lat="45.1619" lon="5.89752">
        <ele>1134</ele>
        <time>2021-04-10T10:14:16Z</time>
      </trkpt>
      <trkpt lat="45.1619" lon="5.89752">
        <ele>1133.8</ele>
        <time>2021-04-10T10:14:17Z</time>
      </trkpt>
      <trkpt lat="45.1619" lon="5.89752">
        <ele>1133.8</ele>
        <time>2021-04-10T10:14:18Z</time>
      </trkpt>
      <trkpt lat="45.1619" lon="5.89752">
        <ele>1133.8</ele>
        <time>2021-04-10T10:14:19Z</time>
      </trkpt>
      <trkpt lat="45.1619" lon="5.89752">
        <ele>1133.6</ele>
        <time>2021-04-10T10:14:20Z</time>
      </trkpt>
      <trkpt lat="45.1619" lon="5.89752">
        <ele>1133.6</ele>
        <time>2021-04-10T10:14:21Z</time>
      </trkpt>
      <trkpt lat="45.1619" lon="5.89753">
        <ele>1133.6</ele>
        <time>2021-04-10T10:14:22Z</time>
      </trkpt>
      <trkpt lat="45.1619" lon="5.89753">
        <ele>1133.6</ele>
        <time>2021-04-10T10:14:23Z</time>
      </trkpt>
      <trkpt lat="45.1619" lon="5.89753">
        <ele>1133.6</ele>
        <time>2021-04-10T10:14:24Z</time>
      </trkpt>
      <trkpt lat="45.1619" lon="5.89753">
        <ele>1133.4</ele>
        <time>2021-04-10T10:14:25Z</time>
      </trkpt>
      <trkpt lat="45.1619" lon="5.89753">
        <ele>1133.4</ele>
        <time>2021-04-10T10:14:26Z</time>
      </trkpt>
      <trkpt lat="45.1619" lon="5.89753">
        <ele>1133.4</ele>
        <time>2021-04-10T10:14:27Z</time>
      </trkpt>
      <trkpt lat="45.1619" lon="5.89753">
        <ele>1133.4</ele>
        <time>2021-04-10T10:14:28Z</time>
      </trkpt>
      <trkpt lat="45.1619" lon="5.89753">
        <ele>1133.4</ele>
        <time>2021-04-10T10:14:29Z</time>
      </trkpt>
      <trkpt lat="45.1619" lon="5.89753">
        <ele>1133.4</ele>
        <time>2021-04-10T10:14:30Z</time>
      </trkpt>
      <trkpt lat="45.1619" lon="5.89753">
        <ele>1133.6</ele>
        <time>2021-04-10T10:14:31Z</time>
      </trkpt>
      <trkpt lat="45.1619" lon="5.89753">
        <ele>1133.6</ele>
        <time>2021-04-10T10:14:32Z</time>
      </trkpt>
      <trkpt lat="45.1619" lon="5.89753">
        <ele>1133.6</ele>
        <time>2021-04-10T10:14:33Z</time>
      </trkpt>
      <trkpt lat="45.1619" lon="5.89753">
        <ele>1133.8</ele>
        <time>2021-04-10T10:14:34Z</time>
      </trkpt>
      <trkpt lat="45.1619" lon="5.89753">
        <ele>1133.6</ele>
        <time>2021-04-10T10:14:35Z</time>
      </trkpt>
      <trkpt lat="45.1619" lon="5.89753">
        <ele>1133.6</ele>
        <time>2021-04-10T10:14:36Z</time>
      </trkpt>
      <trkpt lat="45.1619" lon="5.89753">
        <ele>1133.6</ele>
        <time>2021-04-10T10:14:37Z</time>
      </trkpt>
      <trkpt lat="45.1619" lon="5.89753">
        <ele>1133.8</ele>
        <time>2021-04-10T10:14:38Z</time>
      </trkpt>
      <trkpt lat="45.1619" lon="5.89753">
        <ele>1133.8</ele>
        <time>2021-04-10T10:14:39Z</time>
      </trkpt>
      <trkpt lat="45.1619" lon="5.89753">
        <ele>1133.8</ele>
        <time>2021-04-10T10:14:40Z</time>
      </trkpt>
      <trkpt lat="45.1619" lon="5.89753">
        <ele>1133.8</ele>
        <time>2021-04-10T10:14:41Z</time>
      </trkpt>
      <trkpt lat="45.16189" lon="5.89753">
        <ele>1133.8</ele>
        <time>2021-04-10T10:14:42Z</time>
      </trkpt>
      <trkpt lat="45.16189" lon="5.89753">
        <ele>1133.8</ele>
        <time>2021-04-10T10:14:43Z</time>
      </trkpt>
      <trkpt lat="45.16189" lon="5.89753">
        <ele>1133.6</ele>
        <time>2021-04-10T10:14:44Z</time>
      </trkpt>
      <trkpt lat="45.16189" lon="5.89753">
        <ele>1133.4</ele>
        <time>2021-04-10T10:14:45Z</time>
      </trkpt>
      <trkpt lat="45.16189" lon="5.89753">
        <ele>1133.6</ele>
        <time>2021-04-10T10:14:46Z</time>
      </trkpt>
      <trkpt lat="45.16189" lon="5.89754">
        <ele>1133.6</ele>
        <time>2021-04-10T10:14:47Z</time>
      </trkpt>
      <trkpt lat="45.16189" lon="5.89754">
        <ele>1133.6</ele>
        <time>2021-04-10T10:14:48Z</time>
      </trkpt>
      <trkpt lat="45.16189" lon="5.89754">
        <ele>1133.6</ele>
        <time>2021-04-10T10:14:49Z</time>
      </trkpt>
      <trkpt lat="45.16189" lon="5.89754">
        <ele>1133.6</ele>
        <time>2021-04-10T10:14:50Z</time>
      </trkpt>
      <trkpt lat="45.16189" lon="5.89754">
        <ele>1133.6</ele>
        <time>2021-04-10T10:14:51Z</time>
      </trkpt>
      <trkpt lat="45.16189" lon="5.89754">
        <ele>1133.6</ele>
        <time>2021-04-10T10:14:52Z</time>
      </trkpt>
      <trkpt lat="45.16189" lon="5.89754">
        <ele>1133.6</ele>
        <time>2021-04-10T10:14:53Z</time>
      </trkpt>
      <trkpt lat="45.16189" lon="5.89754">
        <ele>1133.6</ele>
        <time>2021-04-10T10:14:54Z</time>
      </trkpt>
      <trkpt lat="45.16189" lon="5.89754">
        <ele>1134</ele>
        <time>2021-04-10T10:14:55Z</time>
      </trkpt>
      <trkpt lat="45.16189" lon="5.89754">
        <ele>1133.8</ele>
        <time>2021-04-10T10:14:56Z</time>
      </trkpt>
      <trkpt lat="45.16189" lon="5.89754">
        <ele>1133.6</ele>
        <time>2021-04-10T10:14:57Z</time>
      </trkpt>
      <trkpt lat="45.16189" lon="5.89754">
        <ele>1133.6</ele>
        <time>2021-04-10T10:14:58Z</time>
      </trkpt>
      <trkpt lat="45.16189" lon="5.89754">
        <ele>1133.6</ele>
        <time>2021-04-10T10:14:59Z</time>
      </trkpt>
      <trkpt lat="45.16189" lon="5.89754">
        <ele>1133.6</ele>
        <time>2021-04-10T10:15:00Z</time>
      </trkpt>
      <trkpt lat="45.16189" lon="5.89754">
        <ele>1133.8</ele>
        <time>2021-04-10T10:15:01Z</time>
      </trkpt>
      <trkpt lat="45.16189" lon="5.89754">
        <ele>1133.8</ele>
        <time>2021-04-10T10:15:02Z</time>
      </trkpt>
      <trkpt lat="45.16189" lon="5.89754">
        <ele>1133.8</ele>
        <time>2021-04-10T10:15:03Z</time>
      </trkpt>
      <trkpt lat="45.16189" lon="5.89754">
        <ele>1133.8</ele>
        <time>2021-04-10T10:15:04Z</time>
      </trkpt>
      <trkpt lat="45.16189" lon="5.89754">
        <ele>1133.8</ele>
        <time>2021-04-10T10:15:05Z</time>
      </trkpt>
      <trkpt lat="45.16189" lon="5.89754">
        <ele>1133.6</ele>
        <time>2021-04-10T10:15:06Z</time>
      </trkpt>
      <trkpt lat="45.16189" lon="5.89754">
        <ele>1133.8</ele>
        <time>2021-04-10T10:15:07Z</time>
      </trkpt>
      <trkpt lat="45.16189" lon="5.89754">
        <ele>1133.6</ele>
        <time>2021-04-10T10:15:08Z</time>
      </trkpt>
      <trkpt lat="45.16189" lon="5.89754">
        <ele>1133.8</ele>
        <time>2021-04-10T10:15:09Z</time>
      </trkpt>
      <trkpt lat="45.16189" lon="5.89754">
        <ele>1133.6</ele>
        <time>2021-04-10T10:15:10Z</time>
      </trkpt>
      <trkpt lat="45.16189" lon="5.89754">
        <ele>1133.6</ele>
        <time>2021-04-10T10:15:11Z</time>
      </trkpt>
      <trkpt lat="45.16189" lon="5.89755">
        <ele>1133.6</ele>
        <time>2021-04-10T10:15:12Z</time>
      </trkpt>
      <trkpt lat="45.16189" lon="5.89755">
        <ele>1133.6</ele>
        <time>2021-04-10T10:15:13Z</time>
      </trkpt>
      <trkpt lat="45.16189" lon="5.89755">
        <ele>1133.8</ele>
        <time>2021-04-10T10:15:14Z</time>
      </trkpt>
      <trkpt lat="45.16189" lon="5.89755">
        <ele>1133.8</ele>
        <time>2021-04-10T10:15:15Z</time>
      </trkpt>
      <trkpt lat="45.16189" lon="5.89755">
        <ele>1133.8</ele>
        <time>2021-04-10T10:15:16Z</time>
      </trkpt>
      <trkpt lat="45.16189" lon="5.89755">
        <ele>1134</ele>
        <time>2021-04-10T10:15:17Z</time>
      </trkpt>
      <trkpt lat="45.16189" lon="5.89755">
        <ele>1134</ele>
        <time>2021-04-10T10:15:18Z</time>
      </trkpt>
      <trkpt lat="45.16189" lon="5.89755">
        <ele>1133.8</ele>
        <time>2021-04-10T10:15:19Z</time>
      </trkpt>
      <trkpt lat="45.16189" lon="5.89755">
        <ele>1133.6</ele>
        <time>2021-04-10T10:15:20Z</time>
      </trkpt>
      <trkpt lat="45.16189" lon="5.89755">
        <ele>1133.6</ele>
        <time>2021-04-10T10:15:21Z</time>
      </trkpt>
      <trkpt lat="45.16189" lon="5.89755">
        <ele>1133.6</ele>
        <time>2021-04-10T10:15:22Z</time>
      </trkpt>
      <trkpt lat="45.16189" lon="5.89755">
        <ele>1133.6</ele>
        <time>2021-04-10T10:15:23Z</time>
      </trkpt>
      <trkpt lat="45.16189" lon="5.89755">
        <ele>1133.6</ele>
        <time>2021-04-10T10:15:24Z</time>
      </trkpt>
      <trkpt lat="45.16189" lon="5.89755">
        <ele>1133.6</ele>
        <time>2021-04-10T10:15:25Z</time>
      </trkpt>
      <trkpt lat="45.16189" lon="5.89755">
        <ele>1133.6</ele>
        <time>2021-04-10T10:15:26Z</time>
      </trkpt>
      <trkpt lat="45.16189" lon="5.89755">
        <ele>1133.6</ele>
        <time>2021-04-10T10:15:27Z</time>
      </trkpt>
      <trkpt lat="45.16189" lon="5.89755">
        <ele>1133.8</ele>
        <time>2021-04-10T10:15:28Z</time>
      </trkpt>
      <trkpt lat="45.16189" lon="5.89755">
        <ele>1133.6</ele>
        <time>2021-04-10T10:15:29Z</time>
      </trkpt>
      <trkpt lat="45.16189" lon="5.89755">
        <ele>1133.6</ele>
        <time>2021-04-10T10:15:30Z</time>
      </trkpt>
      <trkpt lat="45.16189" lon="5.89755">
        <ele>1133.6</ele>
        <time>2021-04-10T10:15:31Z</time>
      </trkpt>
      <trkpt lat="45.16189" lon="5.89755">
        <ele>1133.6</ele>
        <time>2021-04-10T10:15:32Z</time>
      </trkpt>
      <trkpt lat="45.16189" lon="5.89755">
        <ele>1133.6</ele>
        <time>2021-04-10T10:15:33Z</time>
      </trkpt>
      <trkpt lat="45.16189" lon="5.89755">
        <ele>1133.8</ele>
        <time>2021-04-10T10:15:34Z</time>
      </trkpt>
      <trkpt lat="45.16189" lon="5.89755">
        <ele>1133.6</ele>
        <time>2021-04-10T10:15:35Z</time>
      </trkpt>
      <trkpt lat="45.16189" lon="5.89756">
        <ele>1133.6</ele>
        <time>2021-04-10T10:15:36Z</time>
      </trkpt>
      <trkpt lat="45.16189" lon="5.89756">
        <ele>1133.4</ele>
        <time>2021-04-10T10:15:37Z</time>
      </trkpt>
      <trkpt lat="45.16189" lon="5.89756">
        <ele>1133.6</ele>
        <time>2021-04-10T10:15:38Z</time>
      </trkpt>
      <trkpt lat="45.16189" lon="5.89756">
        <ele>1133.6</ele>
        <time>2021-04-10T10:15:39Z</time>
      </trkpt>
      <trkpt lat="45.16189" lon="5.89756">
        <ele>1133.8</ele>
        <time>2021-04-10T10:15:40Z</time>
      </trkpt>
      <trkpt lat="45.16189" lon="5.89756">
        <ele>1133.8</ele>
        <time>2021-04-10T10:15:41Z</time>
      </trkpt>
      <trkpt lat="45.16189" lon="5.89756">
        <ele>1133.8</ele>
        <time>2021-04-10T10:15:42Z</time>
      </trkpt>
      <trkpt lat="45.16189" lon="5.89756">
        <ele>1133.8</ele>
        <time>2021-04-10T10:15:43Z</time>
      </trkpt>
      <trkpt lat="45.16189" lon="5.89756">
        <ele>1133.8</ele>
        <time>2021-04-10T10:15:44Z</time>
      </trkpt>
      <trkpt lat="45.16189" lon="5.89756">
        <ele>1133.8</ele>
        <time>2021-04-10T10:15:45Z</time>
      </trkpt>
      <trkpt lat="45.16189" lon="5.89756">
        <ele>1133.8</ele>
        <time>2021-04-10T10:15:46Z</time>
      </trkpt>
      <trkpt lat="45.16189" lon="5.89756">
        <ele>1133.8</ele>
        <time>2021-04-10T10:15:47Z</time>
      </trkpt>
      <trkpt lat="45.16189" lon="5.89756">
        <ele>1133.6</ele>
        <time>2021-04-10T10:15:48Z</time>
      </trkpt>
      <trkpt lat="45.16189" lon="5.89756">
        <ele>1133.6</ele>
        <time>2021-04-10T10:15:49Z</time>
      </trkpt>
      <trkpt lat="45.16189" lon="5.89756">
        <ele>1133.6</ele>
        <time>2021-04-10T10:15:50Z</time>
      </trkpt>
      <trkpt lat="45.16189" lon="5.89756">
        <ele>1133.6</ele>
        <time>2021-04-10T10:15:51Z</time>
      </trkpt>
      <trkpt lat="45.16189" lon="5.89756">
        <ele>1133.6</ele>
        <time>2021-04-10T10:15:52Z</time>
      </trkpt>
      <trkpt lat="45.16189" lon="5.89756">
        <ele>1133.6</ele>
        <time>2021-04-10T10:15:53Z</time>
      </trkpt>
      <trkpt lat="45.16189" lon="5.89756">
        <ele>1133.6</ele>
        <time>2021-04-10T10:15:54Z</time>
      </trkpt>
      <trkpt lat="45.16189" lon="5.89756">
        <ele>1133.8</ele>
        <time>2021-04-10T10:15:55Z</time>
      </trkpt>
      <trkpt lat="45.16189" lon="5.89756">
        <ele>1133.8</ele>
        <time>2021-04-10T10:15:56Z</time>
      </trkpt>
      <trkpt lat="45.16189" lon="5.89756">
        <ele>1133.8</ele>
        <time>2021-04-10T10:15:57Z</time>
      </trkpt>
      <trkpt lat="45.16189" lon="5.89756">
        <ele>1133.6</ele>
        <time>2021-04-10T10:15:58Z</time>
      </trkpt>
      <trkpt lat="45.16189" lon="5.89756">
        <ele>1133.6</ele>
        <time>2021-04-10T10:15:59Z</time>
      </trkpt>
      <trkpt lat="45.16189" lon="5.89756">
        <ele>1133.6</ele>
        <time>2021-04-10T10:16:00Z</time>
      </trkpt>
      <trkpt lat="45.16189" lon="5.89757">
        <ele>1133.6</ele>
        <time>2021-04-10T10:16:01Z</time>
      </trkpt>
      <trkpt lat="45.16189" lon="5.89757">
        <ele>1133.6</ele>
        <time>2021-04-10T10:16:02Z</time>
      </trkpt>
      <trkpt lat="45.16189" lon="5.89757">
        <ele>1133.6</ele>
        <time>2021-04-10T10:16:03Z</time>
      </trkpt>
      <trkpt lat="45.16189" lon="5.89757">
        <ele>1133.8</ele>
        <time>2021-04-10T10:16:04Z</time>
      </trkpt>
      <trkpt lat="45.16189" lon="5.89757">
        <ele>1133.8</ele>
        <time>2021-04-10T10:16:05Z</time>
      </trkpt>
      <trkpt lat="45.16189" lon="5.89757">
        <ele>1133.8</ele>
        <time>2021-04-10T10:16:06Z</time>
      </trkpt>
      <trkpt lat="45.16189" lon="5.89757">
        <ele>1133.6</ele>
        <time>2021-04-10T10:16:07Z</time>
      </trkpt>
      <trkpt lat="45.16189" lon="5.89757">
        <ele>1133.6</ele>
        <time>2021-04-10T10:16:08Z</time>
      </trkpt>
      <trkpt lat="45.16189" lon="5.89757">
        <ele>1133.8</ele>
        <time>2021-04-10T10:16:09Z</time>
      </trkpt>
      <trkpt lat="45.16189" lon="5.89757">
        <ele>1133.8</ele>
        <time>2021-04-10T10:16:10Z</time>
      </trkpt>
      <trkpt lat="45.16189" lon="5.89757">
        <ele>1133.8</ele>
        <time>2021-04-10T10:16:11Z</time>
      </trkpt>
      <trkpt lat="45.16189" lon="5.89757">
        <ele>1133.8</ele>
        <time>2021-04-10T10:16:12Z</time>
      </trkpt>
      <trkpt lat="45.16189" lon="5.89757">
        <ele>1133.8</ele>
        <time>2021-04-10T10:16:13Z</time>
      </trkpt>
      <trkpt lat="45.16189" lon="5.89757">
        <ele>1133.8</ele>
        <time>2021-04-10T10:16:14Z</time>
      </trkpt>
      <trkpt lat="45.16189" lon="5.89757">
        <ele>1133.8</ele>
        <time>2021-04-10T10:16:15Z</time>
      </trkpt>
      <trkpt lat="45.16189" lon="5.89757">
        <ele>1133.8</ele>
        <time>2021-04-10T10:16:16Z</time>
      </trkpt>
      <trkpt lat="45.16189" lon="5.89757">
        <ele>1133.8</ele>
        <time>2021-04-10T10:16:17Z</time>
      </trkpt>
      <trkpt lat="45.16189" lon="5.89757">
        <ele>1133.8</ele>
        <time>2021-04-10T10:16:18Z</time>
      </trkpt>
      <trkpt lat="45.16188" lon="5.89757">
        <ele>1133.8</ele>
        <time>2021-04-10T10:16:19Z</time>
      </trkpt>
      <trkpt lat="45.16188" lon="5.89757">
        <ele>1133.8</ele>
        <time>2021-04-10T10:16:20Z</time>
      </trkpt>
      <trkpt lat="45.16188" lon="5.89757">
        <ele>1133.6</ele>
        <time>2021-04-10T10:16:21Z</time>
      </trkpt>
      <trkpt lat="45.16188" lon="5.89757">
        <ele>1133.6</ele>
        <time>2021-04-10T10:16:22Z</time>
      </trkpt>
      <trkpt lat="45.16188" lon="5.89757">
        <ele>1133.6</ele>
        <time>2021-04-10T10:16:23Z</time>
      </trkpt>
      <trkpt lat="45.16188" lon="5.89757">
        <ele>1133.4</ele>
        <time>2021-04-10T10:16:24Z</time>
      </trkpt>
      <trkpt lat="45.16188" lon="5.89758">
        <ele>1133.4</ele>
        <time>2021-04-10T10:16:25Z</time>
      </trkpt>
      <trkpt lat="45.16188" lon="5.89758">
        <ele>1133.4</ele>
        <time>2021-04-10T10:16:26Z</time>
      </trkpt>
      <trkpt lat="45.16188" lon="5.89758">
        <ele>1133.6</ele>
        <time>2021-04-10T10:16:27Z</time>
      </trkpt>
      <trkpt lat="45.16188" lon="5.89758">
        <ele>1133.6</ele>
        <time>2021-04-10T10:16:28Z</time>
      </trkpt>
      <trkpt lat="45.16188" lon="5.89758">
        <ele>1133.6</ele>
        <time>2021-04-10T10:16:29Z</time>
      </trkpt>
      <trkpt lat="45.16188" lon="5.89758">
        <ele>1133.4</ele>
        <time>2021-04-10T10:16:30Z</time>
      </trkpt>
      <trkpt lat="45.16188" lon="5.89758">
        <ele>1133.2</ele>
        <time>2021-04-10T10:16:31Z</time>
      </trkpt>
      <trkpt lat="45.16188" lon="5.89758">
        <ele>1133</ele>
        <time>2021-04-10T10:16:32Z</time>
      </trkpt>
      <trkpt lat="45.16188" lon="5.89758">
        <ele>1133.2</ele>
        <time>2021-04-10T10:16:33Z</time>
      </trkpt>
      <trkpt lat="45.16188" lon="5.89758">
        <ele>1133.2</ele>
        <time>2021-04-10T10:16:34Z</time>
      </trkpt>
      <trkpt lat="45.16188" lon="5.89758">
        <ele>1133.4</ele>
        <time>2021-04-10T10:16:35Z</time>
      </trkpt>
      <trkpt lat="45.16188" lon="5.89758">
        <ele>1133.4</ele>
        <time>2021-04-10T10:16:36Z</time>
      </trkpt>
      <trkpt lat="45.16188" lon="5.89758">
        <ele>1133.4</ele>
        <time>2021-04-10T10:16:37Z</time>
      </trkpt>
      <trkpt lat="45.16188" lon="5.89758">
        <ele>1133.4</ele>
        <time>2021-04-10T10:16:38Z</time>
      </trkpt>
      <trkpt lat="45.16188" lon="5.89758">
        <ele>1133.2</ele>
        <time>2021-04-10T10:16:39Z</time>
      </trkpt>
      <trkpt lat="45.16188" lon="5.89758">
        <ele>1133.4</ele>
        <time>2021-04-10T10:16:40Z</time>
      </trkpt>
      <trkpt lat="45.16188" lon="5.89758">
        <ele>1133.4</ele>
        <time>2021-04-10T10:16:41Z</time>
      </trkpt>
      <trkpt lat="45.16188" lon="5.89758">
        <ele>1133.6</ele>
        <time>2021-04-10T10:16:42Z</time>
      </trkpt>
      <trkpt lat="45.16188" lon="5.89758">
        <ele>1133.6</ele>
        <time>2021-04-10T10:16:43Z</time>
      </trkpt>
      <trkpt lat="45.16188" lon="5.89758">
        <ele>1133.4</ele>
        <time>2021-04-10T10:16:44Z</time>
      </trkpt>
      <trkpt lat="45.16188" lon="5.89758">
        <ele>1133.6</ele>
        <time>2021-04-10T10:16:45Z</time>
      </trkpt>
      <trkpt lat="45.16188" lon="5.89758">
        <ele>1133.6</ele>
        <time>2021-04-10T10:16:46Z</time>
      </trkpt>
      <trkpt lat="45.16188" lon="5.89758">
        <ele>1133.4</ele>
        <time>2021-04-10T10:16:47Z</time>
      </trkpt>
      <trkpt lat="45.16188" lon="5.89758">
        <ele>1133.4</ele>
        <time>2021-04-10T10:16:48Z</time>
      </trkpt>
      <trkpt lat="45.16188" lon="5.89758">
        <ele>1133.4</ele>
        <time>2021-04-10T10:16:49Z</time>
      </trkpt>
      <trkpt lat="45.16188" lon="5.89759">
        <ele>1133.4</ele>
        <time>2021-04-10T10:16:50Z</time>
      </trkpt>
      <trkpt lat="45.16188" lon="5.89759">
        <ele>1133.6</ele>
        <time>2021-04-10T10:16:51Z</time>
      </trkpt>
      <trkpt lat="45.16188" lon="5.89759">
        <ele>1133.6</ele>
        <time>2021-04-10T10:16:52Z</time>
      </trkpt>
      <trkpt lat="45.16188" lon="5.89759">
        <ele>1133.4</ele>
        <time>2021-04-10T10:16:53Z</time>
      </trkpt>
      <trkpt lat="45.16188" lon="5.89759">
        <ele>1133.4</ele>
        <time>2021-04-10T10:16:54Z</time>
      </trkpt>
      <trkpt lat="45.16188" lon="5.89759">
        <ele>1133.4</ele>
        <time>2021-04-10T10:16:55Z</time>
      </trkpt>
      <trkpt lat="45.16188" lon="5.89759">
        <ele>1133.4</ele>
        <time>2021-04-10T10:16:56Z</time>
      </trkpt>
      <trkpt lat="45.16188" lon="5.89759">
        <ele>1133.2</ele>
        <time>2021-04-10T10:16:57Z</time>
      </trkpt>
      <trkpt lat="45.16188" lon="5.89759">
        <ele>1133.4</ele>
        <time>2021-04-10T10:16:58Z</time>
      </trkpt>
      <trkpt lat="45.16188" lon="5.89759">
        <ele>1133.4</ele>
        <time>2021-04-10T10:16:59Z</time>
      </trkpt>
      <trkpt lat="45.16188" lon="5.89759">
        <ele>1133.4</ele>
        <time>2021-04-10T10:17:00Z</time>
      </trkpt>
      <trkpt lat="45.16188" lon="5.89759">
        <ele>1133.6</ele>
        <time>2021-04-10T10:17:01Z</time>
      </trkpt>
      <trkpt lat="45.16188" lon="5.89759">
        <ele>1133.6</ele>
        <time>2021-04-10T10:17:02Z</time>
      </trkpt>
      <trkpt lat="45.16188" lon="5.89759">
        <ele>1133.6</ele>
        <time>2021-04-10T10:17:03Z</time>
      </trkpt>
      <trkpt lat="45.16188" lon="5.89759">
        <ele>1133.4</ele>
        <time>2021-04-10T10:17:04Z</time>
      </trkpt>
      <trkpt lat="45.16188" lon="5.89759">
        <ele>1133.4</ele>
        <time>2021-04-10T10:17:05Z</time>
      </trkpt>
      <trkpt lat="45.16188" lon="5.89759">
        <ele>1133.4</ele>
        <time>2021-04-10T10:17:06Z</time>
      </trkpt>
      <trkpt lat="45.16188" lon="5.89759">
        <ele>1133.4</ele>
        <time>2021-04-10T10:17:07Z</time>
      </trkpt>
      <trkpt lat="45.16188" lon="5.89759">
        <ele>1133.6</ele>
        <time>2021-04-10T10:17:08Z</time>
      </trkpt>
      <trkpt lat="45.16188" lon="5.89759">
        <ele>1133.6</ele>
        <time>2021-04-10T10:17:09Z</time>
      </trkpt>
      <trkpt lat="45.16188" lon="5.89759">
        <ele>1133.6</ele>
        <time>2021-04-10T10:17:10Z</time>
      </trkpt>
      <trkpt lat="45.16188" lon="5.89759">
        <ele>1133.6</ele>
        <time>2021-04-10T10:17:11Z</time>
      </trkpt>
      <trkpt lat="45.16188" lon="5.89759">
        <ele>1133.6</ele>
        <time>2021-04-10T10:17:12Z</time>
      </trkpt>
      <trkpt lat="45.16188" lon="5.89759">
        <ele>1133.6</ele>
        <time>2021-04-10T10:17:13Z</time>
      </trkpt>
      <trkpt lat="45.16188" lon="5.8976">
        <ele>1133.6</ele>
        <time>2021-04-10T10:17:14Z</time>
      </trkpt>
      <trkpt lat="45.16188" lon="5.8976">
        <ele>1133.6</ele>
        <time>2021-04-10T10:17:15Z</time>
      </trkpt>
      <trkpt lat="45.16188" lon="5.8976">
        <ele>1133.8</ele>
        <time>2021-04-10T10:17:16Z</time>
      </trkpt>
      <trkpt lat="45.16188" lon="5.8976">
        <ele>1133.6</ele>
        <time>2021-04-10T10:17:17Z</time>
      </trkpt>
      <trkpt lat="45.16188" lon="5.8976">
        <ele>1133.6</ele>
        <time>2021-04-10T10:17:18Z</time>
      </trkpt>
      <trkpt lat="45.16188" lon="5.8976">
        <ele>1133.4</ele>
        <time>2021-04-10T10:17:19Z</time>
      </trkpt>
      <trkpt lat="45.16188" lon="5.8976">
        <ele>1133.4</ele>
        <time>2021-04-10T10:17:20Z</time>
      </trkpt>
      <trkpt lat="45.16188" lon="5.8976">
        <ele>1133.4</ele>
        <time>2021-04-10T10:17:21Z</time>
      </trkpt>
      <trkpt lat="45.16188" lon="5.8976">
        <ele>1133.4</ele>
        <time>2021-04-10T10:17:22Z</time>
      </trkpt>
      <trkpt lat="45.16188" lon="5.8976">
        <ele>1133.4</ele>
        <time>2021-04-10T10:17:23Z</time>
      </trkpt>
      <trkpt lat="45.16188" lon="5.8976">
        <ele>1133.4</ele>
        <time>2021-04-10T10:17:24Z</time>
      </trkpt>
      <trkpt lat="45.16188" lon="5.8976">
        <ele>1133.6</ele>
        <time>2021-04-10T10:17:25Z</time>
      </trkpt>
      <trkpt lat="45.16188" lon="5.8976">
        <ele>1133.6</ele>
        <time>2021-04-10T10:17:26Z</time>
      </trkpt>
      <trkpt lat="45.16188" lon="5.8976">
        <ele>1133.6</ele>
        <time>2021-04-10T10:17:27Z</time>
      </trkpt>
      <trkpt lat="45.16188" lon="5.8976">
        <ele>1133.4</ele>
        <time>2021-04-10T10:17:28Z</time>
      </trkpt>
      <trkpt lat="45.16188" lon="5.8976">
        <ele>1133.6</ele>
        <time>2021-04-10T10:17:29Z</time>
      </trkpt>
      <trkpt lat="45.16188" lon="5.8976">
        <ele>1133.6</ele>
        <time>2021-04-10T10:17:30Z</time>
      </trkpt>
      <trkpt lat="45.16188" lon="5.8976">
        <ele>1133.4</ele>
        <time>2021-04-10T10:17:31Z</time>
      </trkpt>
      <trkpt lat="45.16188" lon="5.8976">
        <ele>1133.4</ele>
        <time>2021-04-10T10:17:32Z</time>
      </trkpt>
      <trkpt lat="45.16188" lon="5.8976">
        <ele>1133.6</ele>
        <time>2021-04-10T10:17:33Z</time>
      </trkpt>
      <trkpt lat="45.16188" lon="5.8976">
        <ele>1133.4</ele>
        <time>2021-04-10T10:17:34Z</time>
      </trkpt>
      <trkpt lat="45.16188" lon="5.8976">
        <ele>1133.4</ele>
        <time>2021-04-10T10:17:35Z</time>
      </trkpt>
      <trkpt lat="45.16188" lon="5.8976">
        <ele>1133.6</ele>
        <time>2021-04-10T10:17:36Z</time>
      </trkpt>
      <trkpt lat="45.16188" lon="5.8976">
        <ele>1133.8</ele>
        <time>2021-04-10T10:17:37Z</time>
      </trkpt>
      <trkpt lat="45.16188" lon="5.8976">
        <ele>1133.8</ele>
        <time>2021-04-10T10:17:38Z</time>
      </trkpt>
      <trkpt lat="45.16188" lon="5.89761">
        <ele>1133.8</ele>
        <time>2021-04-10T10:17:39Z</time>
      </trkpt>
      <trkpt lat="45.16188" lon="5.89761">
        <ele>1133.8</ele>
        <time>2021-04-10T10:17:40Z</time>
      </trkpt>
      <trkpt lat="45.16188" lon="5.89761">
        <ele>1133.8</ele>
        <time>2021-04-10T10:17:41Z</time>
      </trkpt>
      <trkpt lat="45.16188" lon="5.89761">
        <ele>1133.8</ele>
        <time>2021-04-10T10:17:42Z</time>
      </trkpt>
      <trkpt lat="45.16188" lon="5.89761">
        <ele>1134</ele>
        <time>2021-04-10T10:17:43Z</time>
      </trkpt>
      <trkpt lat="45.16188" lon="5.89761">
        <ele>1134.2</ele>
        <time>2021-04-10T10:17:44Z</time>
      </trkpt>
      <trkpt lat="45.16188" lon="5.89761">
        <ele>1134</ele>
        <time>2021-04-10T10:17:45Z</time>
      </trkpt>
      <trkpt lat="45.16188" lon="5.89761">
        <ele>1133.6</ele>
        <time>2021-04-10T10:17:46Z</time>
      </trkpt>
      <trkpt lat="45.16188" lon="5.89761">
        <ele>1133.6</ele>
        <time>2021-04-10T10:17:47Z</time>
      </trkpt>
      <trkpt lat="45.16188" lon="5.89761">
        <ele>1133.6</ele>
        <time>2021-04-10T10:17:48Z</time>
      </trkpt>
      <trkpt lat="45.16188" lon="5.89761">
        <ele>1133.4</ele>
        <time>2021-04-10T10:17:49Z</time>
      </trkpt>
      <trkpt lat="45.16188" lon="5.89761">
        <ele>1133.4</ele>
        <time>2021-04-10T10:17:50Z</time>
      </trkpt>
      <trkpt lat="45.16188" lon="5.89761">
        <ele>1133.4</ele>
        <time>2021-04-10T10:17:51Z</time>
      </trkpt>
      <trkpt lat="45.16188" lon="5.89761">
        <ele>1133.2</ele>
        <time>2021-04-10T10:17:52Z</time>
      </trkpt>
      <trkpt lat="45.16188" lon="5.89761">
        <ele>1133.4</ele>
        <time>2021-04-10T10:17:53Z</time>
      </trkpt>
      <trkpt lat="45.16188" lon="5.89761">
        <ele>1133.4</ele>
        <time>2021-04-10T10:17:54Z</time>
      </trkpt>
      <trkpt lat="45.16188" lon="5.89761">
        <ele>1133.2</ele>
        <time>2021-04-10T10:17:55Z</time>
      </trkpt>
      <trkpt lat="45.16187" lon="5.89761">
        <ele>1133.4</ele>
        <time>2021-04-10T10:17:56Z</time>
      </trkpt>
      <trkpt lat="45.16187" lon="5.89761">
        <ele>1133.4</ele>
        <time>2021-04-10T10:17:57Z</time>
      </trkpt>
      <trkpt lat="45.16187" lon="5.89761">
        <ele>1133.4</ele>
        <time>2021-04-10T10:17:58Z</time>
      </trkpt>
      <trkpt lat="45.16187" lon="5.89761">
        <ele>1133.4</ele>
        <time>2021-04-10T10:17:59Z</time>
      </trkpt>
      <trkpt lat="45.16187" lon="5.89761">
        <ele>1133.4</ele>
        <time>2021-04-10T10:18:00Z</time>
      </trkpt>
      <trkpt lat="45.16187" lon="5.89761">
        <ele>1133.4</ele>
        <time>2021-04-10T10:18:01Z</time>
      </trkpt>
      <trkpt lat="45.16187" lon="5.89761">
        <ele>1133.4</ele>
        <time>2021-04-10T10:18:02Z</time>
      </trkpt>
      <trkpt lat="45.16187" lon="5.89761">
        <ele>1133.4</ele>
        <time>2021-04-10T10:18:03Z</time>
      </trkpt>
      <trkpt lat="45.16187" lon="5.89762">
        <ele>1133.2</ele>
        <time>2021-04-10T10:18:04Z</time>
      </trkpt>
      <trkpt lat="45.16187" lon="5.89762">
        <ele>1133</ele>
        <time>2021-04-10T10:18:05Z</time>
      </trkpt>
      <trkpt lat="45.16187" lon="5.89762">
        <ele>1133.2</ele>
        <time>2021-04-10T10:18:06Z</time>
      </trkpt>
      <trkpt lat="45.16187" lon="5.89762">
        <ele>1133.2</ele>
        <time>2021-04-10T10:18:07Z</time>
      </trkpt>
      <trkpt lat="45.16187" lon="5.89762">
        <ele>1133.4</ele>
        <time>2021-04-10T10:18:08Z</time>
      </trkpt>
      <trkpt lat="45.16187" lon="5.89762">
        <ele>1133.4</ele>
        <time>2021-04-10T10:18:09Z</time>
      </trkpt>
      <trkpt lat="45.16187" lon="5.89762">
        <ele>1133.4</ele>
        <time>2021-04-10T10:18:10Z</time>
      </trkpt>
      <trkpt lat="45.16187" lon="5.89762">
        <ele>1133.4</ele>
        <time>2021-04-10T10:18:11Z</time>
      </trkpt>
      <trkpt lat="45.16187" lon="5.89762">
        <ele>1133.6</ele>
        <time>2021-04-10T10:18:12Z</time>
      </trkpt>
      <trkpt lat="45.16187" lon="5.89762">
        <ele>1133.8</ele>
        <time>2021-04-10T10:18:13Z</time>
      </trkpt>
      <trkpt lat="45.16187" lon="5.89762">
        <ele>1134</ele>
        <time>2021-04-10T10:18:14Z</time>
      </trkpt>
      <trkpt lat="45.16187" lon="5.89762">
        <ele>1134</ele>
        <time>2021-04-10T10:18:15Z</time>
      </trkpt>
      <trkpt lat="45.16187" lon="5.89762">
        <ele>1134</ele>
        <time>2021-04-10T10:18:16Z</time>
      </trkpt>
      <trkpt lat="45.16187" lon="5.89762">
        <ele>1134</ele>
        <time>2021-04-10T10:18:17Z</time>
      </trkpt>
      <trkpt lat="45.16187" lon="5.89762">
        <ele>1133.8</ele>
        <time>2021-04-10T10:18:18Z</time>
      </trkpt>
      <trkpt lat="45.16187" lon="5.89762">
        <ele>1133.4</ele>
        <time>2021-04-10T10:18:19Z</time>
      </trkpt>
      <trkpt lat="45.16187" lon="5.89762">
        <ele>1133.8</ele>
        <time>2021-04-10T10:18:20Z</time>
      </trkpt>
      <trkpt lat="45.16187" lon="5.89762">
        <ele>1134.2</ele>
        <time>2021-04-10T10:18:21Z</time>
      </trkpt>
      <trkpt lat="45.16187" lon="5.89762">
        <ele>1134.4</ele>
        <time>2021-04-10T10:18:22Z</time>
      </trkpt>
      <trkpt lat="45.16187" lon="5.89762">
        <ele>1134.2</ele>
        <time>2021-04-10T10:18:23Z</time>
      </trkpt>
      <trkpt lat="45.16187" lon="5.89762">
        <ele>1134</ele>
        <time>2021-04-10T10:18:24Z</time>
      </trkpt>
      <trkpt lat="45.16187" lon="5.89762">
        <ele>1134</ele>
        <time>2021-04-10T10:18:25Z</time>
      </trkpt>
      <trkpt lat="45.16187" lon="5.89762">
        <ele>1134</ele>
        <time>2021-04-10T10:18:26Z</time>
      </trkpt>
      <trkpt lat="45.16187" lon="5.89762">
        <ele>1133.8</ele>
        <time>2021-04-10T10:18:27Z</time>
      </trkpt>
      <trkpt lat="45.16187" lon="5.89763">
        <ele>1133.8</ele>
        <time>2021-04-10T10:18:28Z</time>
      </trkpt>
      <trkpt lat="45.16187" lon="5.89763">
        <ele>1134</ele>
        <time>2021-04-10T10:18:29Z</time>
      </trkpt>
      <trkpt lat="45.16187" lon="5.89763">
        <ele>1134</ele>
        <time>2021-04-10T10:18:30Z</time>
      </trkpt>
      <trkpt lat="45.16187" lon="5.89763">
        <ele>1133.8</ele>
        <time>2021-04-10T10:18:31Z</time>
      </trkpt>
      <trkpt lat="45.16187" lon="5.89763">
        <ele>1134.2</ele>
        <time>2021-04-10T10:18:32Z</time>
      </trkpt>
      <trkpt lat="45.16187" lon="5.89763">
        <ele>1134</ele>
        <time>2021-04-10T10:18:33Z</time>
      </trkpt>
      <trkpt lat="45.16187" lon="5.89763">
        <ele>1133.8</ele>
        <time>2021-04-10T10:18:34Z</time>
      </trkpt>
      <trkpt lat="45.16187" lon="5.89763">
        <ele>1133.6</ele>
        <time>2021-04-10T10:18:35Z</time>
      </trkpt>
      <trkpt lat="45.16187" lon="5.89763">
        <ele>1133.4</ele>
        <time>2021-04-10T10:18:36Z</time>
      </trkpt>
      <trkpt lat="45.16187" lon="5.89763">
        <ele>1133.4</ele>
        <time>2021-04-10T10:18:37Z</time>
      </trkpt>
      <trkpt lat="45.16187" lon="5.89763">
        <ele>1133.4</ele>
        <time>2021-04-10T10:18:38Z</time>
      </trkpt>
      <trkpt lat="45.16187" lon="5.89763">
        <ele>1133.4</ele>
        <time>2021-04-10T10:18:39Z</time>
      </trkpt>
      <trkpt lat="45.16187" lon="5.89763">
        <ele>1133.4</ele>
        <time>2021-04-10T10:18:40Z</time>
      </trkpt>
      <trkpt lat="45.16187" lon="5.89763">
        <ele>1133.2</ele>
        <time>2021-04-10T10:18:41Z</time>
      </trkpt>
      <trkpt lat="45.16187" lon="5.89763">
        <ele>1133.2</ele>
        <time>2021-04-10T10:18:42Z</time>
      </trkpt>
      <trkpt lat="45.16187" lon="5.89763">
        <ele>1133.2</ele>
        <time>2021-04-10T10:18:43Z</time>
      </trkpt>
      <trkpt lat="45.16187" lon="5.89763">
        <ele>1133.4</ele>
        <time>2021-04-10T10:18:44Z</time>
      </trkpt>
      <trkpt lat="45.16187" lon="5.89763">
        <ele>1133.2</ele>
        <time>2021-04-10T10:18:45Z</time>
      </trkpt>
      <trkpt lat="45.16187" lon="5.89763">
        <ele>1133.4</ele>
        <time>2021-04-10T10:18:46Z</time>
      </trkpt>
      <trkpt lat="45.16187" lon="5.89763">
        <ele>1133.2</ele>
        <time>2021-04-10T10:18:47Z</time>
      </trkpt>
      <trkpt lat="45.16187" lon="5.89763">
        <ele>1133.2</ele>
        <time>2021-04-10T10:18:48Z</time>
      </trkpt>
      <trkpt lat="45.16187" lon="5.89763">
        <ele>1133</ele>
        <time>2021-04-10T10:18:49Z</time>
      </trkpt>
      <trkpt lat="45.16187" lon="5.89763">
        <ele>1133</ele>
        <time>2021-04-10T10:18:50Z</time>
      </trkpt>
      <trkpt lat="45.16187" lon="5.89763">
        <ele>1133</ele>
        <time>2021-04-10T10:18:51Z</time>
      </trkpt>
      <trkpt lat="45.16187" lon="5.89763">
        <ele>1132.8</ele>
        <time>2021-04-10T10:18:52Z</time>
      </trkpt>
      <trkpt lat="45.16187" lon="5.89764">
        <ele>1132.8</ele>
        <time>2021-04-10T10:18:53Z</time>
      </trkpt>
      <trkpt lat="45.16187" lon="5.89764">
        <ele>1132.8</ele>
        <time>2021-04-10T10:18:54Z</time>
      </trkpt>
      <trkpt lat="45.16187" lon="5.89764">
        <ele>1132.8</ele>
        <time>2021-04-10T10:18:55Z</time>
      </trkpt>
      <trkpt lat="45.16187" lon="5.89764">
        <ele>1133.2</ele>
        <time>2021-04-10T10:18:56Z</time>
      </trkpt>
      <trkpt lat="45.16187" lon="5.89764">
        <ele>1133.6</ele>
        <time>2021-04-10T10:18:57Z</time>
      </trkpt>
      <trkpt lat="45.16187" lon="5.89764">
        <ele>1134</ele>
        <time>2021-04-10T10:18:58Z</time>
      </trkpt>
      <trkpt lat="45.16187" lon="5.89764">
        <ele>1134.4</ele>
        <time>2021-04-10T10:18:59Z</time>
      </trkpt>
      <trkpt lat="45.16187" lon="5.89764">
        <ele>1134.2</ele>
        <time>2021-04-10T10:19:00Z</time>
      </trkpt>
      <trkpt lat="45.16187" lon="5.89764">
        <ele>1134</ele>
        <time>2021-04-10T10:19:01Z</time>
      </trkpt>
      <trkpt lat="45.16187" lon="5.89764">
        <ele>1134</ele>
        <time>2021-04-10T10:19:02Z</time>
      </trkpt>
      <trkpt lat="45.16187" lon="5.89764">
        <ele>1133.8</ele>
        <time>2021-04-10T10:19:03Z</time>
      </trkpt>
      <trkpt lat="45.16187" lon="5.89764">
        <ele>1133.8</ele>
        <time>2021-04-10T10:19:04Z</time>
      </trkpt>
      <trkpt lat="45.16187" lon="5.89764">
        <ele>1133.8</ele>
        <time>2021-04-10T10:19:05Z</time>
      </trkpt>
      <trkpt lat="45.16187" lon="5.89764">
        <ele>1133.8</ele>
        <time>2021-04-10T10:19:06Z</time>
      </trkpt>
      <trkpt lat="45.16187" lon="5.89764">
        <ele>1134</ele>
        <time>2021-04-10T10:19:07Z</time>
      </trkpt>
      <trkpt lat="45.16187" lon="5.89764">
        <ele>1133.8</ele>
        <time>2021-04-10T10:19:08Z</time>
      </trkpt>
      <trkpt lat="45.16187" lon="5.89764">
        <ele>1133.8</ele>
        <time>2021-04-10T10:19:09Z</time>
      </trkpt>
      <trkpt lat="45.16187" lon="5.89764">
        <ele>1134</ele>
        <time>2021-04-10T10:19:10Z</time>
      </trkpt>
      <trkpt lat="45.16187" lon="5.89764">
        <ele>1134.2</ele>
        <time>2021-04-10T10:19:11Z</time>
      </trkpt>
      <trkpt lat="45.16187" lon="5.89764">
        <ele>1134.4</ele>
        <time>2021-04-10T10:19:12Z</time>
      </trkpt>
      <trkpt lat="45.16187" lon="5.89764">
        <ele>1134.4</ele>
        <time>2021-04-10T10:19:13Z</time>
      </trkpt>
      <trkpt lat="45.16187" lon="5.89764">
        <ele>1134.2</ele>
        <time>2021-04-10T10:19:14Z</time>
      </trkpt>
      <trkpt lat="45.16187" lon="5.89764">
        <ele>1134.2</ele>
        <time>2021-04-10T10:19:15Z</time>
      </trkpt>
      <trkpt lat="45.16187" lon="5.89764">
        <ele>1134.4</ele>
        <time>2021-04-10T10:19:16Z</time>
      </trkpt>
      <trkpt lat="45.16187" lon="5.89765">
        <ele>1134.4</ele>
        <time>2021-04-10T10:19:17Z</time>
      </trkpt>
      <trkpt lat="45.16187" lon="5.89765">
        <ele>1134.4</ele>
        <time>2021-04-10T10:19:18Z</time>
      </trkpt>
      <trkpt lat="45.16187" lon="5.89765">
        <ele>1134.4</ele>
        <time>2021-04-10T10:19:19Z</time>
      </trkpt>
      <trkpt lat="45.16187" lon="5.89765">
        <ele>1134.6</ele>
        <time>2021-04-10T10:19:20Z</time>
      </trkpt>
      <trkpt lat="45.16187" lon="5.89765">
        <ele>1134.2</ele>
        <time>2021-04-10T10:19:21Z</time>
      </trkpt>
      <trkpt lat="45.16187" lon="5.89765">
        <ele>1134</ele>
        <time>2021-04-10T10:19:22Z</time>
      </trkpt>
      <trkpt lat="45.16187" lon="5.89765">
        <ele>1133.6</ele>
        <time>2021-04-10T10:19:23Z</time>
      </trkpt>
      <trkpt lat="45.16187" lon="5.89765">
        <ele>1133.8</ele>
        <time>2021-04-10T10:19:24Z</time>
      </trkpt>
      <trkpt lat="45.16187" lon="5.89765">
        <ele>1133.6</ele>
        <time>2021-04-10T10:19:25Z</time>
      </trkpt>
      <trkpt lat="45.16187" lon="5.89765">
        <ele>1133.6</ele>
        <time>2021-04-10T10:19:26Z</time>
      </trkpt>
      <trkpt lat="45.16187" lon="5.89765">
        <ele>1133.6</ele>
        <time>2021-04-10T10:19:27Z</time>
      </trkpt>
      <trkpt lat="45.16187" lon="5.89765">
        <ele>1133.4</ele>
        <time>2021-04-10T10:19:28Z</time>
      </trkpt>
      <trkpt lat="45.16187" lon="5.89765">
        <ele>1133.4</ele>
        <time>2021-04-10T10:19:29Z</time>
      </trkpt>
      <trkpt lat="45.16187" lon="5.89765">
        <ele>1133.4</ele>
        <time>2021-04-10T10:19:30Z</time>
      </trkpt>
      <trkpt lat="45.16187" lon="5.89765">
        <ele>1133.6</ele>
        <time>2021-04-10T10:19:31Z</time>
      </trkpt>
      <trkpt lat="45.16187" lon="5.89765">
        <ele>1133.8</ele>
        <time>2021-04-10T10:19:32Z</time>
      </trkpt>
      <trkpt lat="45.16186" lon="5.89765">
        <ele>1134</ele>
        <time>2021-04-10T10:19:33Z</time>
      </trkpt>
      <trkpt lat="45.16186" lon="5.89765">
        <ele>1134</ele>
        <time>2021-04-10T10:19:34Z</time>
      </trkpt>
      <trkpt lat="45.16186" lon="5.89765">
        <ele>1134.4</ele>
        <time>2021-04-10T10:19:35Z</time>
      </trkpt>
      <trkpt lat="45.16186" lon="5.89765">
        <ele>1134.2</ele>
        <time>2021-04-10T10:19:36Z</time>
      </trkpt>
      <trkpt lat="45.16186" lon="5.89765">
        <ele>1134.4</ele>
        <time>2021-04-10T10:19:37Z</time>
      </trkpt>
      <trkpt lat="45.16186" lon="5.89765">
        <ele>1134.4</ele>
        <time>2021-04-10T10:19:38Z</time>
      </trkpt>
      <trkpt lat="45.16186" lon="5.89765">
        <ele>1134.2</ele>
        <time>2021-04-10T10:19:39Z</time>
      </trkpt>
      <trkpt lat="45.16186" lon="5.89765">
        <ele>1134.2</ele>
        <time>2021-04-10T10:19:40Z</time>
      </trkpt>
      <trkpt lat="45.16186" lon="5.89765">
        <ele>1133.8</ele>
        <time>2021-04-10T10:19:41Z</time>
      </trkpt>
      <trkpt lat="45.16186" lon="5.89766">
        <ele>1133.8</ele>
        <time>2021-04-10T10:19:42Z</time>
      </trkpt>
      <trkpt lat="45.16186" lon="5.89766">
        <ele>1133.6</ele>
        <time>2021-04-10T10:19:43Z</time>
      </trkpt>
      <trkpt lat="45.16186" lon="5.89766">
        <ele>1133.8</ele>
        <time>2021-04-10T10:19:44Z</time>
      </trkpt>
      <trkpt lat="45.16186" lon="5.89766">
        <ele>1133.6</ele>
        <time>2021-04-10T10:19:45Z</time>
      </trkpt>
      <trkpt lat="45.16186" lon="5.89766">
        <ele>1133.4</ele>
        <time>2021-04-10T10:19:46Z</time>
      </trkpt>
      <trkpt lat="45.16186" lon="5.89766">
        <ele>1133.4</ele>
        <time>2021-04-10T10:19:47Z</time>
      </trkpt>
      <trkpt lat="45.16186" lon="5.89766">
        <ele>1133.2</ele>
        <time>2021-04-10T10:19:48Z</time>
      </trkpt>
      <trkpt lat="45.16186" lon="5.89766">
        <ele>1133.2</ele>
        <time>2021-04-10T10:19:49Z</time>
      </trkpt>
      <trkpt lat="45.16186" lon="5.89766">
        <ele>1133.2</ele>
        <time>2021-04-10T10:19:50Z</time>
      </trkpt>
      <trkpt lat="45.16186" lon="5.89766">
        <ele>1133.2</ele>
        <time>2021-04-10T10:19:51Z</time>
      </trkpt>
      <trkpt lat="45.16186" lon="5.89766">
        <ele>1133.2</ele>
        <time>2021-04-10T10:19:52Z</time>
      </trkpt>
      <trkpt lat="45.16186" lon="5.89766">
        <ele>1133.6</ele>
        <time>2021-04-10T10:19:53Z</time>
      </trkpt>
      <trkpt lat="45.16186" lon="5.89766">
        <ele>1133.8</ele>
        <time>2021-04-10T10:19:54Z</time>
      </trkpt>
      <trkpt lat="45.16186" lon="5.89766">
        <ele>1133.8</ele>
        <time>2021-04-10T10:19:55Z</time>
      </trkpt>
      <trkpt lat="45.16186" lon="5.89766">
        <ele>1134</ele>
        <time>2021-04-10T10:19:56Z</time>
      </trkpt>
      <trkpt lat="45.16186" lon="5.89766">
        <ele>1134.2</ele>
        <time>2021-04-10T10:19:57Z</time>
      </trkpt>
      <trkpt lat="45.16186" lon="5.89766">
        <ele>1134.2</ele>
        <time>2021-04-10T10:19:58Z</time>
      </trkpt>
      <trkpt lat="45.16186" lon="5.89766">
        <ele>1134.2</ele>
        <time>2021-04-10T10:19:59Z</time>
      </trkpt>
      <trkpt lat="45.16186" lon="5.89766">
        <ele>1134.2</ele>
        <time>2021-04-10T10:20:01Z</time>
      </trkpt>
      <trkpt lat="45.16186" lon="5.89766">
        <ele>1134.2</ele>
        <time>2021-04-10T10:20:02Z</time>
      </trkpt>
      <trkpt lat="45.16186" lon="5.89766">
        <ele>1134.2</ele>
        <time>2021-04-10T10:20:03Z</time>
      </trkpt>
      <trkpt lat="45.16186" lon="5.89766">
        <ele>1134.2</ele>
        <time>2021-04-10T10:20:04Z</time>
      </trkpt>
      <trkpt lat="45.16186" lon="5.89766">
        <ele>1134.2</ele>
        <time>2021-04-10T10:20:05Z</time>
      </trkpt>
      <trkpt lat="45.16186" lon="5.89766">
        <ele>1134.4</ele>
        <time>2021-04-10T10:20:06Z</time>
      </trkpt>
      <trkpt lat="45.16186" lon="5.89766">
        <ele>1134.4</ele>
        <time>2021-04-10T10:20:07Z</time>
      </trkpt>
      <trkpt lat="45.16186" lon="5.89767">
        <ele>1134.4</ele>
        <time>2021-04-10T10:20:08Z</time>
      </trkpt>
      <trkpt lat="45.16186" lon="5.89767">
        <ele>1134.2</ele>
        <time>2021-04-10T10:20:09Z</time>
      </trkpt>
      <trkpt lat="45.16186" lon="5.89767">
        <ele>1134.2</ele>
        <time>2021-04-10T10:20:10Z</time>
      </trkpt>
      <trkpt lat="45.16186" lon="5.89767">
        <ele>1134.2</ele>
        <time>2021-04-10T10:20:11Z</time>
      </trkpt>
      <trkpt lat="45.16186" lon="5.89767">
        <ele>1134.2</ele>
        <time>2021-04-10T10:20:12Z</time>
      </trkpt>
      <trkpt lat="45.16186" lon="5.89767">
        <ele>1134.2</ele>
        <time>2021-04-10T10:20:13Z</time>
      </trkpt>
      <trkpt lat="45.16186" lon="5.89767">
        <ele>1134</ele>
        <time>2021-04-10T10:20:14Z</time>
      </trkpt>
      <trkpt lat="45.16186" lon="5.89767">
        <ele>1133.8</ele>
        <time>2021-04-10T10:20:15Z</time>
      </trkpt>
      <trkpt lat="45.16186" lon="5.89767">
        <ele>1133.6</ele>
        <time>2021-04-10T10:20:16Z</time>
      </trkpt>
      <trkpt lat="45.16186" lon="5.89767">
        <ele>1133.8</ele>
        <time>2021-04-10T10:20:17Z</time>
      </trkpt>
      <trkpt lat="45.16186" lon="5.89767">
        <ele>1133.6</ele>
        <time>2021-04-10T10:20:18Z</time>
      </trkpt>
      <trkpt lat="45.16186" lon="5.89767">
        <ele>1133.4</ele>
        <time>2021-04-10T10:20:19Z</time>
      </trkpt>
      <trkpt lat="45.16186" lon="5.89767">
        <ele>1133.4</ele>
        <time>2021-04-10T10:20:20Z</time>
      </trkpt>
      <trkpt lat="45.16186" lon="5.89767">
        <ele>1133.2</ele>
        <time>2021-04-10T10:20:21Z</time>
      </trkpt>
      <trkpt lat="45.16186" lon="5.89767">
        <ele>1132.8</ele>
        <time>2021-04-10T10:20:22Z</time>
      </trkpt>
      <trkpt lat="45.16186" lon="5.89767">
        <ele>1133</ele>
        <time>2021-04-10T10:20:23Z</time>
      </trkpt>
      <trkpt lat="45.16186" lon="5.89767">
        <ele>1133</ele>
        <time>2021-04-10T10:20:24Z</time>
      </trkpt>
      <trkpt lat="45.16186" lon="5.89767">
        <ele>1133</ele>
        <time>2021-04-10T10:20:25Z</time>
      </trkpt>
      <trkpt lat="45.16186" lon="5.89767">
        <ele>1133</ele>
        <time>2021-04-10T10:20:26Z</time>
      </trkpt>
      <trkpt lat="45.16186" lon="5.89767">
        <ele>1133</ele>
        <time>2021-04-10T10:20:27Z</time>
      </trkpt>
      <trkpt lat="45.16186" lon="5.89767">
        <ele>1133</ele>
        <time>2021-04-10T10:20:28Z</time>
      </trkpt>
      <trkpt lat="45.16186" lon="5.89767">
        <ele>1133</ele>
        <time>2021-04-10T10:20:29Z</time>
      </trkpt>
      <trkpt lat="45.16186" lon="5.89767">
        <ele>1132.8</ele>
        <time>2021-04-10T10:20:30Z</time>
      </trkpt>
      <trkpt lat="45.16186" lon="5.89767">
        <ele>1133</ele>
        <time>2021-04-10T10:20:31Z</time>
      </trkpt>
      <trkpt lat="45.16186" lon="5.89768">
        <ele>1133</ele>
        <time>2021-04-10T10:20:32Z</time>
      </trkpt>
      <trkpt lat="45.16186" lon="5.89768">
        <ele>1133</ele>
        <time>2021-04-10T10:20:33Z</time>
      </trkpt>
      <trkpt lat="45.16186" lon="5.89768">
        <ele>1133</ele>
        <time>2021-04-10T10:20:34Z</time>
      </trkpt>
      <trkpt lat="45.16186" lon="5.89768">
        <ele>1133.2</ele>
        <time>2021-04-10T10:20:35Z</time>
      </trkpt>
      <trkpt lat="45.16186" lon="5.89768">
        <ele>1133</ele>
        <time>2021-04-10T10:20:36Z</time>
      </trkpt>
      <trkpt lat="45.16186" lon="5.89768">
        <ele>1133</ele>
        <time>2021-04-10T10:20:37Z</time>
      </trkpt>
      <trkpt lat="45.16186" lon="5.89768">
        <ele>1133</ele>
        <time>2021-04-10T10:20:38Z</time>
      </trkpt>
      <trkpt lat="45.16186" lon="5.89768">
        <ele>1133</ele>
        <time>2021-04-10T10:20:39Z</time>
      </trkpt>
      <trkpt lat="45.16186" lon="5.89768">
        <ele>1133</ele>
        <time>2021-04-10T10:20:40Z</time>
      </trkpt>
      <trkpt lat="45.16186" lon="5.89768">
        <ele>1133</ele>
        <time>2021-04-10T10:20:41Z</time>
      </trkpt>
      <trkpt lat="45.16186" lon="5.89768">
        <ele>1132.8</ele>
        <time>2021-04-10T10:20:42Z</time>
      </trkpt>
      <trkpt lat="45.16186" lon="5.89768">
        <ele>1133</ele>
        <time>2021-04-10T10:20:43Z</time>
      </trkpt>
      <trkpt lat="45.16186" lon="5.89768">
        <ele>1133</ele>
        <time>2021-04-10T10:20:44Z</time>
      </trkpt>
      <trkpt lat="45.16186" lon="5.89768">
        <ele>1132.8</ele>
        <time>2021-04-10T10:20:45Z</time>
      </trkpt>
      <trkpt lat="45.16186" lon="5.89768">
        <ele>1132.8</ele>
        <time>2021-04-10T10:20:46Z</time>
      </trkpt>
      <trkpt lat="45.16186" lon="5.89768">
        <ele>1132.6</ele>
        <time>2021-04-10T10:20:47Z</time>
      </trkpt>
      <trkpt lat="45.16186" lon="5.89768">
        <ele>1132.6</ele>
        <time>2021-04-10T10:20:48Z</time>
      </trkpt>
      <trkpt lat="45.16186" lon="5.89768">
        <ele>1132.6</ele>
        <time>2021-04-10T10:20:49Z</time>
      </trkpt>
      <trkpt lat="45.16186" lon="5.89768">
        <ele>1132.6</ele>
        <time>2021-04-10T10:20:50Z</time>
      </trkpt>
      <trkpt lat="45.16186" lon="5.89768">
        <ele>1132.8</ele>
        <time>2021-04-10T10:20:51Z</time>
      </trkpt>
      <trkpt lat="45.16186" lon="5.89768">
        <ele>1132.8</ele>
        <time>2021-04-10T10:20:52Z</time>
      </trkpt>
      <trkpt lat="45.16186" lon="5.89768">
        <ele>1133.2</ele>
        <time>2021-04-10T10:20:53Z</time>
      </trkpt>
      <trkpt lat="45.16186" lon="5.89768">
        <ele>1133.2</ele>
        <time>2021-04-10T10:20:54Z</time>
      </trkpt>
      <trkpt lat="45.16186" lon="5.89768">
        <ele>1133.4</ele>
        <time>2021-04-10T10:20:55Z</time>
      </trkpt>
      <trkpt lat="45.16186" lon="5.89768">
        <ele>1133.4</ele>
        <time>2021-04-10T10:20:56Z</time>
      </trkpt>
      <trkpt lat="45.16186" lon="5.89769">
        <ele>1133.4</ele>
        <time>2021-04-10T10:20:57Z</time>
      </trkpt>
      <trkpt lat="45.16186" lon="5.89769">
        <ele>1133.4</ele>
        <time>2021-04-10T10:20:58Z</time>
      </trkpt>
      <trkpt lat="45.16186" lon="5.89769">
        <ele>1133.4</ele>
        <time>2021-04-10T10:20:59Z</time>
      </trkpt>
      <trkpt lat="45.16186" lon="5.89769">
        <ele>1133.4</ele>
        <time>2021-04-10T10:21:00Z</time>
      </trkpt>
      <trkpt lat="45.16186" lon="5.89769">
        <ele>1133.6</ele>
        <time>2021-04-10T10:21:01Z</time>
      </trkpt>
      <trkpt lat="45.16186" lon="5.89769">
        <ele>1133.4</ele>
        <time>2021-04-10T10:21:02Z</time>
      </trkpt>
      <trkpt lat="45.16186" lon="5.89769">
        <ele>1133.4</ele>
        <time>2021-04-10T10:21:03Z</time>
      </trkpt>
      <trkpt lat="45.16186" lon="5.89769">
        <ele>1133.4</ele>
        <time>2021-04-10T10:21:04Z</time>
      </trkpt>
      <trkpt lat="45.16186" lon="5.89769">
        <ele>1133.4</ele>
        <time>2021-04-10T10:21:05Z</time>
      </trkpt>
      <trkpt lat="45.16186" lon="5.89769">
        <ele>1133.4</ele>
        <time>2021-04-10T10:21:06Z</time>
      </trkpt>
      <trkpt lat="45.16186" lon="5.89769">
        <ele>1133.2</ele>
        <time>2021-04-10T10:21:07Z</time>
      </trkpt>
      <trkpt lat="45.16186" lon="5.89769">
        <ele>1133.2</ele>
        <time>2021-04-10T10:21:08Z</time>
      </trkpt>
      <trkpt lat="45.16186" lon="5.89769">
        <ele>1133.4</ele>
        <time>2021-04-10T10:21:09Z</time>
      </trkpt>
      <trkpt lat="45.16186" lon="5.89769">
        <ele>1133.4</ele>
        <time>2021-04-10T10:21:10Z</time>
      </trkpt>
      <trkpt lat="45.16185" lon="5.89769">
        <ele>1133.6</ele>
        <time>2021-04-10T10:21:11Z</time>
      </trkpt>
      <trkpt lat="45.16185" lon="5.89769">
        <ele>1133.6</ele>
        <time>2021-04-10T10:21:12Z</time>
      </trkpt>
      <trkpt lat="45.16185" lon="5.89769">
        <ele>1133.6</ele>
        <time>2021-04-10T10:21:13Z</time>
      </trkpt>
      <trkpt lat="45.16185" lon="5.89769">
        <ele>1133.6</ele>
        <time>2021-04-10T10:21:14Z</time>
      </trkpt>
      <trkpt lat="45.16185" lon="5.89769">
        <ele>1133.6</ele>
        <time>2021-04-10T10:21:15Z</time>
      </trkpt>
      <trkpt lat="45.16185" lon="5.89769">
        <ele>1133.6</ele>
        <time>2021-04-10T10:21:16Z</time>
      </trkpt>
      <trkpt lat="45.16185" lon="5.89769">
        <ele>1133.4</ele>
        <time>2021-04-10T10:21:17Z</time>
      </trkpt>
      <trkpt lat="45.16185" lon="5.89769">
        <ele>1133.6</ele>
        <time>2021-04-10T10:21:18Z</time>
      </trkpt>
      <trkpt lat="45.16185" lon="5.89769">
        <ele>1133.8</ele>
        <time>2021-04-10T10:21:19Z</time>
      </trkpt>
      <trkpt lat="45.16185" lon="5.89769">
        <ele>1133.6</ele>
        <time>2021-04-10T10:21:20Z</time>
      </trkpt>
      <trkpt lat="45.16185" lon="5.8977">
        <ele>1133.6</ele>
        <time>2021-04-10T10:21:21Z</time>
      </trkpt>
      <trkpt lat="45.16185" lon="5.8977">
        <ele>1133.8</ele>
        <time>2021-04-10T10:21:22Z</time>
      </trkpt>
      <trkpt lat="45.16185" lon="5.8977">
        <ele>1133.8</ele>
        <time>2021-04-10T10:21:23Z</time>
      </trkpt>
      <trkpt lat="45.16185" lon="5.8977">
        <ele>1133.8</ele>
        <time>2021-04-10T10:21:24Z</time>
      </trkpt>
      <trkpt lat="45.16185" lon="5.8977">
        <ele>1133.8</ele>
        <time>2021-04-10T10:21:25Z</time>
      </trkpt>
      <trkpt lat="45.16185" lon="5.8977">
        <ele>1133.6</ele>
        <time>2021-04-10T10:21:26Z</time>
      </trkpt>
      <trkpt lat="45.16185" lon="5.8977">
        <ele>1133.6</ele>
        <time>2021-04-10T10:21:27Z</time>
      </trkpt>
      <trkpt lat="45.16185" lon="5.8977">
        <ele>1133.6</ele>
        <time>2021-04-10T10:21:28Z</time>
      </trkpt>
      <trkpt lat="45.16185" lon="5.8977">
        <ele>1133.6</ele>
        <time>2021-04-10T10:21:29Z</time>
      </trkpt>
      <trkpt lat="45.16185" lon="5.8977">
        <ele>1133.6</ele>
        <time>2021-04-10T10:21:30Z</time>
      </trkpt>
      <trkpt lat="45.16185" lon="5.8977">
        <ele>1133.8</ele>
        <time>2021-04-10T10:21:31Z</time>
      </trkpt>
      <trkpt lat="45.16185" lon="5.8977">
        <ele>1133.8</ele>
        <time>2021-04-10T10:21:32Z</time>
      </trkpt>
      <trkpt lat="45.16185" lon="5.8977">
        <ele>1133.8</ele>
        <time>2021-04-10T10:21:33Z</time>
      </trkpt>
      <trkpt lat="45.16185" lon="5.8977">
        <ele>1133.8</ele>
        <time>2021-04-10T10:21:34Z</time>
      </trkpt>
      <trkpt lat="45.16185" lon="5.8977">
        <ele>1133.8</ele>
        <time>2021-04-10T10:21:35Z</time>
      </trkpt>
      <trkpt lat="45.16185" lon="5.8977">
        <ele>1133.8</ele>
        <time>2021-04-10T10:21:36Z</time>
      </trkpt>
      <trkpt lat="45.16185" lon="5.8977">
        <ele>1134</ele>
        <time>2021-04-10T10:21:37Z</time>
      </trkpt>
      <trkpt lat="45.16185" lon="5.8977">
        <ele>1134</ele>
        <time>2021-04-10T10:21:38Z</time>
      </trkpt>
      <trkpt lat="45.16185" lon="5.8977">
        <ele>1133.8</ele>
        <time>2021-04-10T10:21:39Z</time>
      </trkpt>
      <trkpt lat="45.16185" lon="5.8977">
        <ele>1133.8</ele>
        <time>2021-04-10T10:21:40Z</time>
      </trkpt>
      <trkpt lat="45.16185" lon="5.8977">
        <ele>1133.4</ele>
        <time>2021-04-10T10:21:41Z</time>
      </trkpt>
      <trkpt lat="45.16185" lon="5.8977">
        <ele>1133.2</ele>
        <time>2021-04-10T10:21:42Z</time>
      </trkpt>
      <trkpt lat="45.16185" lon="5.8977">
        <ele>1133.2</ele>
        <time>2021-04-10T10:21:43Z</time>
      </trkpt>
      <trkpt lat="45.16185" lon="5.8977">
        <ele>1133</ele>
        <time>2021-04-10T10:21:44Z</time>
      </trkpt>
      <trkpt lat="45.16185" lon="5.8977">
        <ele>1133</ele>
        <time>2021-04-10T10:21:45Z</time>
      </trkpt>
      <trkpt lat="45.16185" lon="5.89771">
        <ele>1132.8</ele>
        <time>2021-04-10T10:21:46Z</time>
      </trkpt>
      <trkpt lat="45.16185" lon="5.89771">
        <ele>1132.8</ele>
        <time>2021-04-10T10:21:47Z</time>
      </trkpt>
      <trkpt lat="45.16185" lon="5.89771">
        <ele>1132.8</ele>
        <time>2021-04-10T10:21:48Z</time>
      </trkpt>
      <trkpt lat="45.16185" lon="5.89771">
        <ele>1133</ele>
        <time>2021-04-10T10:21:49Z</time>
      </trkpt>
      <trkpt lat="45.16185" lon="5.89771">
        <ele>1132.8</ele>
        <time>2021-04-10T10:21:50Z</time>
      </trkpt>
      <trkpt lat="45.16185" lon="5.89771">
        <ele>1132.8</ele>
        <time>2021-04-10T10:21:51Z</time>
      </trkpt>
      <trkpt lat="45.16185" lon="5.89771">
        <ele>1132.6</ele>
        <time>2021-04-10T10:21:52Z</time>
      </trkpt>
      <trkpt lat="45.16185" lon="5.89771">
        <ele>1132.6</ele>
        <time>2021-04-10T10:21:53Z</time>
      </trkpt>
      <trkpt lat="45.16185" lon="5.89771">
        <ele>1132.6</ele>
        <time>2021-04-10T10:21:54Z</time>
      </trkpt>
      <trkpt lat="45.16185" lon="5.89772">
        <ele>1132.6</ele>
        <time>2021-04-10T10:21:55Z</time>
      </trkpt>
      <trkpt lat="45.16184" lon="5.89773">
        <ele>1132.4</ele>
        <time>2021-04-10T10:21:56Z</time>
      </trkpt>
      <trkpt lat="45.16184" lon="5.89775">
        <ele>1132.4</ele>
        <time>2021-04-10T10:21:57Z</time>
      </trkpt>
      <trkpt lat="45.16183" lon="5.89776">
        <ele>1132.4</ele>
        <time>2021-04-10T10:21:58Z</time>
      </trkpt>
      <trkpt lat="45.16182" lon="5.89777">
        <ele>1132.4</ele>
        <time>2021-04-10T10:21:59Z</time>
      </trkpt>
      <trkpt lat="45.16182" lon="5.89778">
        <ele>1132.4</ele>
        <time>2021-04-10T10:22:00Z</time>
      </trkpt>
      <trkpt lat="45.16181" lon="5.8978">
        <ele>1132</ele>
        <time>2021-04-10T10:22:01Z</time>
      </trkpt>
      <trkpt lat="45.16181" lon="5.89781">
        <ele>1131.8</ele>
        <time>2021-04-10T10:22:02Z</time>
      </trkpt>
      <trkpt lat="45.1618" lon="5.89782">
        <ele>1131.8</ele>
        <time>2021-04-10T10:22:03Z</time>
      </trkpt>
      <trkpt lat="45.1618" lon="5.89783">
        <ele>1131.6</ele>
        <time>2021-04-10T10:22:04Z</time>
      </trkpt>
      <trkpt lat="45.16179" lon="5.89785">
        <ele>1131.6</ele>
        <time>2021-04-10T10:22:05Z</time>
      </trkpt>
      <trkpt lat="45.16179" lon="5.89786">
        <ele>1131.6</ele>
        <time>2021-04-10T10:22:06Z</time>
      </trkpt>
      <trkpt lat="45.16178" lon="5.89787">
        <ele>1131.4</ele>
        <time>2021-04-10T10:22:07Z</time>
      </trkpt>
      <trkpt lat="45.16178" lon="5.89788">
        <ele>1131.4</ele>
        <time>2021-04-10T10:22:08Z</time>
      </trkpt>
      <trkpt lat="45.16177" lon="5.8979">
        <ele>1131.4</ele>
        <time>2021-04-10T10:22:09Z</time>
      </trkpt>
      <trkpt lat="45.16177" lon="5.89791">
        <ele>1131.2</ele>
        <time>2021-04-10T10:22:10Z</time>
      </trkpt>
      <trkpt lat="45.16176" lon="5.89792">
        <ele>1131</ele>
        <time>2021-04-10T10:22:11Z</time>
      </trkpt>
      <trkpt lat="45.16176" lon="5.89793">
        <ele>1131</ele>
        <time>2021-04-10T10:22:12Z</time>
      </trkpt>
      <trkpt lat="45.16175" lon="5.89795">
        <ele>1131</ele>
        <time>2021-04-10T10:22:13Z</time>
      </trkpt>
      <trkpt lat="45.16175" lon="5.89796">
        <ele>1131</ele>
        <time>2021-04-10T10:22:14Z</time>
      </trkpt>
      <trkpt lat="45.16174" lon="5.89797">
        <ele>1131</ele>
        <time>2021-04-10T10:22:15Z</time>
      </trkpt>
      <trkpt lat="45.16174" lon="5.89798">
        <ele>1130.8</ele>
        <time>2021-04-10T10:22:16Z</time>
      </trkpt>
      <trkpt lat="45.16173" lon="5.898">
        <ele>1130.8</ele>
        <time>2021-04-10T10:22:17Z</time>
      </trkpt>
      <trkpt lat="45.16173" lon="5.89801">
        <ele>1130.6</ele>
        <time>2021-04-10T10:22:18Z</time>
      </trkpt>
      <trkpt lat="45.16172" lon="5.89802">
        <ele>1130.8</ele>
        <time>2021-04-10T10:22:19Z</time>
      </trkpt>
      <trkpt lat="45.16172" lon="5.89803">
        <ele>1130.8</ele>
        <time>2021-04-10T10:22:20Z</time>
      </trkpt>
      <trkpt lat="45.16171" lon="5.89805">
        <ele>1130.8</ele>
        <time>2021-04-10T10:22:21Z</time>
      </trkpt>
      <trkpt lat="45.16171" lon="5.89806">
        <ele>1130.6</ele>
        <time>2021-04-10T10:22:22Z</time>
      </trkpt>
      <trkpt lat="45.1617" lon="5.89807">
        <ele>1130.4</ele>
        <time>2021-04-10T10:22:23Z</time>
      </trkpt>
      <trkpt lat="45.1617" lon="5.89808">
        <ele>1130.2</ele>
        <time>2021-04-10T10:22:24Z</time>
      </trkpt>
      <trkpt lat="45.16169" lon="5.8981">
        <ele>1130.2</ele>
        <time>2021-04-10T10:22:25Z</time>
      </trkpt>
      <trkpt lat="45.16169" lon="5.89811">
        <ele>1130</ele>
        <time>2021-04-10T10:22:26Z</time>
      </trkpt>
      <trkpt lat="45.16168" lon="5.89812">
        <ele>1129.8</ele>
        <time>2021-04-10T10:22:27Z</time>
      </trkpt>
      <trkpt lat="45.16168" lon="5.89813">
        <ele>1129.6</ele>
        <time>2021-04-10T10:22:28Z</time>
      </trkpt>
      <trkpt lat="45.16167" lon="5.89815">
        <ele>1129.6</ele>
        <time>2021-04-10T10:22:29Z</time>
      </trkpt>
      <trkpt lat="45.16167" lon="5.89815">
        <ele>1129.4</ele>
        <time>2021-04-10T10:22:30Z</time>
      </trkpt>
      <trkpt lat="45.16167" lon="5.89815">
        <ele>1129.4</ele>
        <time>2021-04-10T10:22:31Z</time>
      </trkpt>
      <trkpt lat="45.16167" lon="5.89815">
        <ele>1129.4</ele>
        <time>2021-04-10T10:22:32Z</time>
      </trkpt>
      <trkpt lat="45.16167" lon="5.89817">
        <ele>1129.4</ele>
        <time>2021-04-10T10:22:33Z</time>
      </trkpt>
      <trkpt lat="45.16166" lon="5.8982">
        <ele>1129.4</ele>
        <time>2021-04-10T10:22:34Z</time>
      </trkpt>
      <trkpt lat="45.16166" lon="5.89823">
        <ele>1129.2</ele>
        <time>2021-04-10T10:22:35Z</time>
      </trkpt>
      <trkpt lat="45.16166" lon="5.89825">
        <ele>1129.2</ele>
        <time>2021-04-10T10:22:36Z</time>
      </trkpt>
      <trkpt lat="45.16166" lon="5.89828">
        <ele>1129</ele>
        <time>2021-04-10T10:22:37Z</time>
      </trkpt>
      <trkpt lat="45.16165" lon="5.8983">
        <ele>1129.2</ele>
        <time>2021-04-10T10:22:38Z</time>
      </trkpt>
      <trkpt lat="45.16164" lon="5.89834">
        <ele>1129.2</ele>
        <time>2021-04-10T10:22:39Z</time>
      </trkpt>
      <trkpt lat="45.16162" lon="5.89837">
        <ele>1129</ele>
        <time>2021-04-10T10:22:40Z</time>
      </trkpt>
      <trkpt lat="45.16161" lon="5.8984">
        <ele>1129</ele>
        <time>2021-04-10T10:22:41Z</time>
      </trkpt>
      <trkpt lat="45.1616" lon="5.89844">
        <ele>1128.8</ele>
        <time>2021-04-10T10:22:42Z</time>
      </trkpt>
      <trkpt lat="45.16158" lon="5.89847">
        <ele>1128.8</ele>
        <time>2021-04-10T10:22:43Z</time>
      </trkpt>
      <trkpt lat="45.16157" lon="5.8985">
        <ele>1129</ele>
        <time>2021-04-10T10:22:44Z</time>
      </trkpt>
      <trkpt lat="45.16155" lon="5.89854">
        <ele>1129</ele>
        <time>2021-04-10T10:22:45Z</time>
      </trkpt>
      <trkpt lat="45.16152" lon="5.89857">
        <ele>1129</ele>
        <time>2021-04-10T10:22:46Z</time>
      </trkpt>
      <trkpt lat="45.1615" lon="5.89858">
        <ele>1128.6</ele>
        <time>2021-04-10T10:22:47Z</time>
      </trkpt>
      <trkpt lat="45.16148" lon="5.8986">
        <ele>1128</ele>
        <time>2021-04-10T10:22:48Z</time>
      </trkpt>
      <trkpt lat="45.16147" lon="5.89862">
        <ele>1127.8</ele>
        <time>2021-04-10T10:22:49Z</time>
      </trkpt>
      <trkpt lat="45.16145" lon="5.89864">
        <ele>1127.2</ele>
        <time>2021-04-10T10:22:50Z</time>
      </trkpt>
      <trkpt lat="45.16143" lon="5.89866">
        <ele>1127.6</ele>
        <time>2021-04-10T10:22:51Z</time>
      </trkpt>
      <trkpt lat="45.16142" lon="5.89868">
        <ele>1127.2</ele>
        <time>2021-04-10T10:22:52Z</time>
      </trkpt>
      <trkpt lat="45.16136" lon="5.89876">
        <ele>1127.4</ele>
        <time>2021-04-10T10:22:53Z</time>
      </trkpt>
      <trkpt lat="45.16133" lon="5.89881">
        <ele>1127.2</ele>
        <time>2021-04-10T10:22:54Z</time>
      </trkpt>
      <trkpt lat="45.16131" lon="5.89883">
        <ele>1127.6</ele>
        <time>2021-04-10T10:22:55Z</time>
      </trkpt>
      <trkpt lat="45.16129" lon="5.89886">
        <ele>1127.4</ele>
        <time>2021-04-10T10:22:56Z</time>
      </trkpt>
      <trkpt lat="45.16125" lon="5.8989">
        <ele>1127.6</ele>
        <time>2021-04-10T10:22:57Z</time>
      </trkpt>
      <trkpt lat="45.16123" lon="5.89892">
        <ele>1127.2</ele>
        <time>2021-04-10T10:22:58Z</time>
      </trkpt>
      <trkpt lat="45.1612" lon="5.89894">
        <ele>1127.2</ele>
        <time>2021-04-10T10:22:59Z</time>
      </trkpt>
      <trkpt lat="45.16118" lon="5.89895">
        <ele>1127</ele>
        <time>2021-04-10T10:23:00Z</time>
      </trkpt>
      <trkpt lat="45.16116" lon="5.89895">
        <ele>1126.8</ele>
        <time>2021-04-10T10:23:01Z</time>
      </trkpt>
      <trkpt lat="45.16114" lon="5.89895">
        <ele>1126.4</ele>
        <time>2021-04-10T10:23:02Z</time>
      </trkpt>
      <trkpt lat="45.16114" lon="5.89895">
        <ele>1126.2</ele>
        <time>2021-04-10T10:23:03Z</time>
      </trkpt>
      <trkpt lat="45.16114" lon="5.89895">
        <ele>1125.8</ele>
        <time>2021-04-10T10:23:04Z</time>
      </trkpt>
      <trkpt lat="45.16114" lon="5.89895">
        <ele>1125.6</ele>
        <time>2021-04-10T10:23:05Z</time>
      </trkpt>
      <trkpt lat="45.16113" lon="5.89892">
        <ele>1125.2</ele>
        <time>2021-04-10T10:23:06Z</time>
      </trkpt>
      <trkpt lat="45.16113" lon="5.89889">
        <ele>1124.8</ele>
        <time>2021-04-10T10:23:07Z</time>
      </trkpt>
      <trkpt lat="45.16113" lon="5.89886">
        <ele>1125</ele>
        <time>2021-04-10T10:23:08Z</time>
      </trkpt>
      <trkpt lat="45.16113" lon="5.89883">
        <ele>1124.6</ele>
        <time>2021-04-10T10:23:09Z</time>
      </trkpt>
      <trkpt lat="45.16112" lon="5.8988">
        <ele>1124.6</ele>
        <time>2021-04-10T10:23:10Z</time>
      </trkpt>
      <trkpt lat="45.16112" lon="5.89877">
        <ele>1124.4</ele>
        <time>2021-04-10T10:23:11Z</time>
      </trkpt>
      <trkpt lat="45.16112" lon="5.89874">
        <ele>1124</ele>
        <time>2021-04-10T10:23:12Z</time>
      </trkpt>
      <trkpt lat="45.16116" lon="5.89869">
        <ele>1123.4</ele>
        <time>2021-04-10T10:23:13Z</time>
      </trkpt>
      <trkpt lat="45.16116" lon="5.89869">
        <ele>1122.8</ele>
        <time>2021-04-10T10:23:14Z</time>
      </trkpt>
      <trkpt lat="45.16116" lon="5.89869">
        <ele>1122.4</ele>
        <time>2021-04-10T10:23:15Z</time>
      </trkpt>
      <trkpt lat="45.16116" lon="5.89869">
        <ele>1121.8</ele>
        <time>2021-04-10T10:23:16Z</time>
      </trkpt>
      <trkpt lat="45.16117" lon="5.89867">
        <ele>1121.8</ele>
        <time>2021-04-10T10:23:17Z</time>
      </trkpt>
      <trkpt lat="45.16119" lon="5.89865">
        <ele>1121.6</ele>
        <time>2021-04-10T10:23:18Z</time>
      </trkpt>
      <trkpt lat="45.1612" lon="5.89863">
        <ele>1121.6</ele>
        <time>2021-04-10T10:23:19Z</time>
      </trkpt>
      <trkpt lat="45.16121" lon="5.89861">
        <ele>1120.8</ele>
        <time>2021-04-10T10:23:20Z</time>
      </trkpt>
      <trkpt lat="45.16122" lon="5.89859">
        <ele>1120.6</ele>
        <time>2021-04-10T10:23:21Z</time>
      </trkpt>
      <trkpt lat="45.16123" lon="5.89855">
        <ele>1119.8</ele>
        <time>2021-04-10T10:23:22Z</time>
      </trkpt>
      <trkpt lat="45.16123" lon="5.89853">
        <ele>1119.4</ele>
        <time>2021-04-10T10:23:23Z</time>
      </trkpt>
      <trkpt lat="45.16123" lon="5.89851">
        <ele>1118.8</ele>
        <time>2021-04-10T10:23:24Z</time>
      </trkpt>
      <trkpt lat="45.16123" lon="5.89849">
        <ele>1117.6</ele>
        <time>2021-04-10T10:23:25Z</time>
      </trkpt>
      <trkpt lat="45.16123" lon="5.89847">
        <ele>1117.4</ele>
        <time>2021-04-10T10:23:26Z</time>
      </trkpt>
      <trkpt lat="45.16124" lon="5.89845">
        <ele>1116.8</ele>
        <time>2021-04-10T10:23:27Z</time>
      </trkpt>
      <trkpt lat="45.16124" lon="5.89843">
        <ele>1116.8</ele>
        <time>2021-04-10T10:23:28Z</time>
      </trkpt>
      <trkpt lat="45.16124" lon="5.89841">
        <ele>1116.2</ele>
        <time>2021-04-10T10:23:29Z</time>
      </trkpt>
      <trkpt lat="45.16124" lon="5.89839">
        <ele>1116</ele>
        <time>2021-04-10T10:23:30Z</time>
      </trkpt>
      <trkpt lat="45.16124" lon="5.89837">
        <ele>1115.4</ele>
        <time>2021-04-10T10:23:31Z</time>
      </trkpt>
      <trkpt lat="45.16124" lon="5.89835">
        <ele>1114.8</ele>
        <time>2021-04-10T10:23:32Z</time>
      </trkpt>
      <trkpt lat="45.16124" lon="5.89833">
        <ele>1114.2</ele>
        <time>2021-04-10T10:23:33Z</time>
      </trkpt>
      <trkpt lat="45.16124" lon="5.89831">
        <ele>1113.4</ele>
        <time>2021-04-10T10:23:34Z</time>
      </trkpt>
      <trkpt lat="45.16124" lon="5.89829">
        <ele>1113.6</ele>
        <time>2021-04-10T10:23:35Z</time>
      </trkpt>
      <trkpt lat="45.16124" lon="5.89827">
        <ele>1113</ele>
        <time>2021-04-10T10:23:36Z</time>
      </trkpt>
      <trkpt lat="45.16124" lon="5.89825">
        <ele>1112.6</ele>
        <time>2021-04-10T10:23:37Z</time>
      </trkpt>
      <trkpt lat="45.16125" lon="5.89823">
        <ele>1112.2</ele>
        <time>2021-04-10T10:23:38Z</time>
      </trkpt>
      <trkpt lat="45.16123" lon="5.89815">
        <ele>1111.8</ele>
        <time>2021-04-10T10:23:39Z</time>
      </trkpt>
      <trkpt lat="45.16121" lon="5.89806">
        <ele>1111.2</ele>
        <time>2021-04-10T10:23:40Z</time>
      </trkpt>
      <trkpt lat="45.16119" lon="5.89798">
        <ele>1110.4</ele>
        <time>2021-04-10T10:23:41Z</time>
      </trkpt>
      <trkpt lat="45.16117" lon="5.8979">
        <ele>1110.2</ele>
        <time>2021-04-10T10:23:42Z</time>
      </trkpt>
      <trkpt lat="45.16115" lon="5.89782">
        <ele>1109.8</ele>
        <time>2021-04-10T10:23:43Z</time>
      </trkpt>
      <trkpt lat="45.16111" lon="5.89767">
        <ele>1110</ele>
        <time>2021-04-10T10:23:44Z</time>
      </trkpt>
      <trkpt lat="45.16111" lon="5.89764">
        <ele>1109.4</ele>
        <time>2021-04-10T10:23:45Z</time>
      </trkpt>
      <trkpt lat="45.16111" lon="5.8976">
        <ele>1109.2</ele>
        <time>2021-04-10T10:23:46Z</time>
      </trkpt>
      <trkpt lat="45.16111" lon="5.89757">
        <ele>1108.4</ele>
        <time>2021-04-10T10:23:47Z</time>
      </trkpt>
      <trkpt lat="45.16108" lon="5.89741">
        <ele>1107.8</ele>
        <time>2021-04-10T10:23:48Z</time>
      </trkpt>
      <trkpt lat="45.16106" lon="5.89734">
        <ele>1106.8</ele>
        <time>2021-04-10T10:23:49Z</time>
      </trkpt>
      <trkpt lat="45.16105" lon="5.89728">
        <ele>1105.8</ele>
        <time>2021-04-10T10:23:50Z</time>
      </trkpt>
      <trkpt lat="45.16099" lon="5.89715">
        <ele>1106</ele>
        <time>2021-04-10T10:23:51Z</time>
      </trkpt>
      <trkpt lat="45.16097" lon="5.89708">
        <ele>1105.4</ele>
        <time>2021-04-10T10:23:52Z</time>
      </trkpt>
      <trkpt lat="45.16097" lon="5.89707">
        <ele>1105.2</ele>
        <time>2021-04-10T10:23:53Z</time>
      </trkpt>
      <trkpt lat="45.16098" lon="5.89706">
        <ele>1104.6</ele>
        <time>2021-04-10T10:23:54Z</time>
      </trkpt>
      <trkpt lat="45.16098" lon="5.89705">
        <ele>1104</ele>
        <time>2021-04-10T10:23:55Z</time>
      </trkpt>
      <trkpt lat="45.16099" lon="5.89704">
        <ele>1103.4</ele>
        <time>2021-04-10T10:23:56Z</time>
      </trkpt>
      <trkpt lat="45.16099" lon="5.89703">
        <ele>1102.6</ele>
        <time>2021-04-10T10:23:57Z</time>
      </trkpt>
      <trkpt lat="45.16101" lon="5.89698">
        <ele>1102.4</ele>
        <time>2021-04-10T10:23:58Z</time>
      </trkpt>
      <trkpt lat="45.16104" lon="5.89694">
        <ele>1101.8</ele>
        <time>2021-04-10T10:23:59Z</time>
      </trkpt>
      <trkpt lat="45.16106" lon="5.89689">
        <ele>1102</ele>
        <time>2021-04-10T10:24:00Z</time>
      </trkpt>
      <trkpt lat="45.16108" lon="5.89684">
        <ele>1101.6</ele>
        <time>2021-04-10T10:24:01Z</time>
      </trkpt>
      <trkpt lat="45.1611" lon="5.89679">
        <ele>1101.8</ele>
        <time>2021-04-10T10:24:02Z</time>
      </trkpt>
      <trkpt lat="45.16112" lon="5.89674">
        <ele>1101.2</ele>
        <time>2021-04-10T10:24:03Z</time>
      </trkpt>
      <trkpt lat="45.16117" lon="5.89669">
        <ele>1101.2</ele>
        <time>2021-04-10T10:24:04Z</time>
      </trkpt>
      <trkpt lat="45.16117" lon="5.89666">
        <ele>1100.8</ele>
        <time>2021-04-10T10:24:05Z</time>
      </trkpt>
      <trkpt lat="45.16116" lon="5.89664">
        <ele>1100.8</ele>
        <time>2021-04-10T10:24:06Z</time>
      </trkpt>
      <trkpt lat="45.16115" lon="5.89655">
        <ele>1100.4</ele>
        <time>2021-04-10T10:24:07Z</time>
      </trkpt>
      <trkpt lat="45.16115" lon="5.89654">
        <ele>1100.6</ele>
        <time>2021-04-10T10:24:08Z</time>
      </trkpt>
      <trkpt lat="45.16115" lon="5.89653">
        <ele>1100.2</ele>
        <time>2021-04-10T10:24:09Z</time>
      </trkpt>
      <trkpt lat="45.16114" lon="5.89651">
        <ele>1100.2</ele>
        <time>2021-04-10T10:24:10Z</time>
      </trkpt>
      <trkpt lat="45.16114" lon="5.8965">
        <ele>1099.8</ele>
        <time>2021-04-10T10:24:11Z</time>
      </trkpt>
      <trkpt lat="45.16114" lon="5.89644">
        <ele>1100</ele>
        <time>2021-04-10T10:24:12Z</time>
      </trkpt>
      <trkpt lat="45.16114" lon="5.89638">
        <ele>1099.8</ele>
        <time>2021-04-10T10:24:13Z</time>
      </trkpt>
      <trkpt lat="45.16113" lon="5.89632">
        <ele>1100</ele>
        <time>2021-04-10T10:24:14Z</time>
      </trkpt>
      <trkpt lat="45.16113" lon="5.89626">
        <ele>1099.6</ele>
        <time>2021-04-10T10:24:15Z</time>
      </trkpt>
      <trkpt lat="45.16114" lon="5.8962">
        <ele>1099.4</ele>
        <time>2021-04-10T10:24:16Z</time>
      </trkpt>
      <trkpt lat="45.16115" lon="5.89618">
        <ele>1099</ele>
        <time>2021-04-10T10:24:17Z</time>
      </trkpt>
      <trkpt lat="45.16115" lon="5.89616">
        <ele>1098.6</ele>
        <time>2021-04-10T10:24:18Z</time>
      </trkpt>
      <trkpt lat="45.16116" lon="5.89613">
        <ele>1097.6</ele>
        <time>2021-04-10T10:24:19Z</time>
      </trkpt>
      <trkpt lat="45.16117" lon="5.89611">
        <ele>1097</ele>
        <time>2021-04-10T10:24:20Z</time>
      </trkpt>
      <trkpt lat="45.1612" lon="5.89602">
        <ele>1096.2</ele>
        <time>2021-04-10T10:24:21Z</time>
      </trkpt>
      <trkpt lat="45.16121" lon="5.89598">
        <ele>1095.6</ele>
        <time>2021-04-10T10:24:22Z</time>
      </trkpt>
      <trkpt lat="45.16121" lon="5.89595">
        <ele>1095</ele>
        <time>2021-04-10T10:24:23Z</time>
      </trkpt>
      <trkpt lat="45.16122" lon="5.89592">
        <ele>1094.4</ele>
        <time>2021-04-10T10:24:24Z</time>
      </trkpt>
      <trkpt lat="45.16122" lon="5.89592">
        <ele>1093.6</ele>
        <time>2021-04-10T10:24:25Z</time>
      </trkpt>
      <trkpt lat="45.16122" lon="5.89592">
        <ele>1092.6</ele>
        <time>2021-04-10T10:24:26Z</time>
      </trkpt>
      <trkpt lat="45.16122" lon="5.89592">
        <ele>1092.2</ele>
        <time>2021-04-10T10:24:27Z</time>
      </trkpt>
      <trkpt lat="45.16124" lon="5.89591">
        <ele>1091.2</ele>
        <time>2021-04-10T10:24:28Z</time>
      </trkpt>
      <trkpt lat="45.16127" lon="5.8959">
        <ele>1091</ele>
        <time>2021-04-10T10:24:29Z</time>
      </trkpt>
      <trkpt lat="45.16129" lon="5.89588">
        <ele>1090.2</ele>
        <time>2021-04-10T10:24:30Z</time>
      </trkpt>
      <trkpt lat="45.16132" lon="5.89587">
        <ele>1089.6</ele>
        <time>2021-04-10T10:24:31Z</time>
      </trkpt>
      <trkpt lat="45.16135" lon="5.89586">
        <ele>1088.8</ele>
        <time>2021-04-10T10:24:32Z</time>
      </trkpt>
      <trkpt lat="45.16137" lon="5.89584">
        <ele>1088.2</ele>
        <time>2021-04-10T10:24:33Z</time>
      </trkpt>
      <trkpt lat="45.1614" lon="5.89583">
        <ele>1088</ele>
        <time>2021-04-10T10:24:34Z</time>
      </trkpt>
      <trkpt lat="45.16143" lon="5.89582">
        <ele>1087.2</ele>
        <time>2021-04-10T10:24:35Z</time>
      </trkpt>
      <trkpt lat="45.16145" lon="5.89581">
        <ele>1086.4</ele>
        <time>2021-04-10T10:24:36Z</time>
      </trkpt>
      <trkpt lat="45.16148" lon="5.8958">
        <ele>1085.6</ele>
        <time>2021-04-10T10:24:37Z</time>
      </trkpt>
      <trkpt lat="45.1615" lon="5.89579">
        <ele>1084.6</ele>
        <time>2021-04-10T10:24:38Z</time>
      </trkpt>
      <trkpt lat="45.16155" lon="5.89578">
        <ele>1084.2</ele>
        <time>2021-04-10T10:24:39Z</time>
      </trkpt>
      <trkpt lat="45.16158" lon="5.89577">
        <ele>1083.2</ele>
        <time>2021-04-10T10:24:40Z</time>
      </trkpt>
      <trkpt lat="45.16161" lon="5.89575">
        <ele>1082.8</ele>
        <time>2021-04-10T10:24:41Z</time>
      </trkpt>
      <trkpt lat="45.16164" lon="5.89574">
        <ele>1082</ele>
        <time>2021-04-10T10:24:42Z</time>
      </trkpt>
      <trkpt lat="45.16164" lon="5.89574">
        <ele>1080.8</ele>
        <time>2021-04-10T10:24:43Z</time>
      </trkpt>
      <trkpt lat="45.16164" lon="5.89574">
        <ele>1080.2</ele>
        <time>2021-04-10T10:24:44Z</time>
      </trkpt>
      <trkpt lat="45.16164" lon="5.89574">
        <ele>1080</ele>
        <time>2021-04-10T10:24:45Z</time>
      </trkpt>
      <trkpt lat="45.16165" lon="5.89573">
        <ele>1079.6</ele>
        <time>2021-04-10T10:24:46Z</time>
      </trkpt>
      <trkpt lat="45.16166" lon="5.89572">
        <ele>1079.4</ele>
        <time>2021-04-10T10:24:47Z</time>
      </trkpt>
      <trkpt lat="45.16167" lon="5.8957">
        <ele>1078.8</ele>
        <time>2021-04-10T10:24:48Z</time>
      </trkpt>
      <trkpt lat="45.16168" lon="5.89569">
        <ele>1078.6</ele>
        <time>2021-04-10T10:24:49Z</time>
      </trkpt>
      <trkpt lat="45.16169" lon="5.89568">
        <ele>1078</ele>
        <time>2021-04-10T10:24:50Z</time>
      </trkpt>
      <trkpt lat="45.1617" lon="5.89566">
        <ele>1077.2</ele>
        <time>2021-04-10T10:24:51Z</time>
      </trkpt>
      <trkpt lat="45.16171" lon="5.89565">
        <ele>1076.8</ele>
        <time>2021-04-10T10:24:52Z</time>
      </trkpt>
      <trkpt lat="45.16172" lon="5.89564">
        <ele>1076</ele>
        <time>2021-04-10T10:24:53Z</time>
      </trkpt>
      <trkpt lat="45.16173" lon="5.89563">
        <ele>1076</ele>
        <time>2021-04-10T10:24:54Z</time>
      </trkpt>
      <trkpt lat="45.16175" lon="5.89563">
        <ele>1075.4</ele>
        <time>2021-04-10T10:24:55Z</time>
      </trkpt>
      <trkpt lat="45.16177" lon="5.89562">
        <ele>1075.8</ele>
        <time>2021-04-10T10:24:56Z</time>
      </trkpt>
      <trkpt lat="45.16179" lon="5.89562">
        <ele>1075.4</ele>
        <time>2021-04-10T10:24:57Z</time>
      </trkpt>
      <trkpt lat="45.1618" lon="5.89561">
        <ele>1075.6</ele>
        <time>2021-04-10T10:24:58Z</time>
      </trkpt>
      <trkpt lat="45.16182" lon="5.89561">
        <ele>1075</ele>
        <time>2021-04-10T10:24:59Z</time>
      </trkpt>
      <trkpt lat="45.16183" lon="5.89559">
        <ele>1074.6</ele>
        <time>2021-04-10T10:25:00Z</time>
      </trkpt>
      <trkpt lat="45.16184" lon="5.89556">
        <ele>1074</ele>
        <time>2021-04-10T10:25:01Z</time>
      </trkpt>
      <trkpt lat="45.16185" lon="5.89554">
        <ele>1073.6</ele>
        <time>2021-04-10T10:25:02Z</time>
      </trkpt>
      <trkpt lat="45.16185" lon="5.89552">
        <ele>1073</ele>
        <time>2021-04-10T10:25:03Z</time>
      </trkpt>
      <trkpt lat="45.16186" lon="5.8955">
        <ele>1071.8</ele>
        <time>2021-04-10T10:25:04Z</time>
      </trkpt>
      <trkpt lat="45.16187" lon="5.89548">
        <ele>1071.8</ele>
        <time>2021-04-10T10:25:05Z</time>
      </trkpt>
      <trkpt lat="45.16188" lon="5.89545">
        <ele>1071.2</ele>
        <time>2021-04-10T10:25:06Z</time>
      </trkpt>
      <trkpt lat="45.16188" lon="5.89543">
        <ele>1071</ele>
        <time>2021-04-10T10:25:07Z</time>
      </trkpt>
      <trkpt lat="45.16193" lon="5.89542">
        <ele>1070.2</ele>
        <time>2021-04-10T10:25:08Z</time>
      </trkpt>
      <trkpt lat="45.16194" lon="5.89542">
        <ele>1069.8</ele>
        <time>2021-04-10T10:25:09Z</time>
      </trkpt>
      <trkpt lat="45.16195" lon="5.89542">
        <ele>1069</ele>
        <time>2021-04-10T10:25:10Z</time>
      </trkpt>
      <trkpt lat="45.16197" lon="5.89542">
        <ele>1068.4</ele>
        <time>2021-04-10T10:25:11Z</time>
      </trkpt>
      <trkpt lat="45.16198" lon="5.89542">
        <ele>1068</ele>
        <time>2021-04-10T10:25:12Z</time>
      </trkpt>
      <trkpt lat="45.16203" lon="5.89542">
        <ele>1067.4</ele>
        <time>2021-04-10T10:25:13Z</time>
      </trkpt>
      <trkpt lat="45.16203" lon="5.89542">
        <ele>1067</ele>
        <time>2021-04-10T10:25:14Z</time>
      </trkpt>
      <trkpt lat="45.16203" lon="5.89542">
        <ele>1066.6</ele>
        <time>2021-04-10T10:25:15Z</time>
      </trkpt>
      <trkpt lat="45.16205" lon="5.8954">
        <ele>1066</ele>
        <time>2021-04-10T10:25:16Z</time>
      </trkpt>
      <trkpt lat="45.16206" lon="5.89539">
        <ele>1065</ele>
        <time>2021-04-10T10:25:17Z</time>
      </trkpt>
      <trkpt lat="45.16208" lon="5.89537">
        <ele>1064.2</ele>
        <time>2021-04-10T10:25:18Z</time>
      </trkpt>
      <trkpt lat="45.16209" lon="5.89535">
        <ele>1063.8</ele>
        <time>2021-04-10T10:25:19Z</time>
      </trkpt>
      <trkpt lat="45.16211" lon="5.89533">
        <ele>1063.4</ele>
        <time>2021-04-10T10:25:20Z</time>
      </trkpt>
      <trkpt lat="45.16212" lon="5.89532">
        <ele>1063.2</ele>
        <time>2021-04-10T10:25:21Z</time>
      </trkpt>
      <trkpt lat="45.16218" lon="5.89527">
        <ele>1062.6</ele>
        <time>2021-04-10T10:25:22Z</time>
      </trkpt>
      <trkpt lat="45.16223" lon="5.89523">
        <ele>1062.4</ele>
        <time>2021-04-10T10:25:23Z</time>
      </trkpt>
      <trkpt lat="45.16228" lon="5.89518">
        <ele>1061.8</ele>
        <time>2021-04-10T10:25:24Z</time>
      </trkpt>
      <trkpt lat="45.16233" lon="5.89514">
        <ele>1061.4</ele>
        <time>2021-04-10T10:25:25Z</time>
      </trkpt>
      <trkpt lat="45.16239" lon="5.89509">
        <ele>1060.6</ele>
        <time>2021-04-10T10:25:26Z</time>
      </trkpt>
      <trkpt lat="45.16244" lon="5.89504">
        <ele>1060.2</ele>
        <time>2021-04-10T10:25:27Z</time>
      </trkpt>
      <trkpt lat="45.16275" lon="5.89477">
        <ele>1059.4</ele>
        <time>2021-04-10T10:25:28Z</time>
      </trkpt>
      <trkpt lat="45.16277" lon="5.89477">
        <ele>1059</ele>
        <time>2021-04-10T10:25:29Z</time>
      </trkpt>
      <trkpt lat="45.16279" lon="5.89477">
        <ele>1058.6</ele>
        <time>2021-04-10T10:25:30Z</time>
      </trkpt>
      <trkpt lat="45.1628" lon="5.89476">
        <ele>1058</ele>
        <time>2021-04-10T10:25:31Z</time>
      </trkpt>
      <trkpt lat="45.16282" lon="5.89476">
        <ele>1057.8</ele>
        <time>2021-04-10T10:25:32Z</time>
      </trkpt>
      <trkpt lat="45.16289" lon="5.89474">
        <ele>1057.8</ele>
        <time>2021-04-10T10:25:33Z</time>
      </trkpt>
      <trkpt lat="45.16296" lon="5.89473">
        <ele>1058.2</ele>
        <time>2021-04-10T10:25:34Z</time>
      </trkpt>
      <trkpt lat="45.16302" lon="5.89472">
        <ele>1058</ele>
        <time>2021-04-10T10:25:35Z</time>
      </trkpt>
      <trkpt lat="45.16309" lon="5.8947">
        <ele>1057.8</ele>
        <time>2021-04-10T10:25:36Z</time>
      </trkpt>
      <trkpt lat="45.16312" lon="5.89469">
        <ele>1057.2</ele>
        <time>2021-04-10T10:25:37Z</time>
      </trkpt>
      <trkpt lat="45.16315" lon="5.89468">
        <ele>1056.6</ele>
        <time>2021-04-10T10:25:38Z</time>
      </trkpt>
      <trkpt lat="45.16322" lon="5.89466">
        <ele>1056.4</ele>
        <time>2021-04-10T10:25:39Z</time>
      </trkpt>
      <trkpt lat="45.16325" lon="5.89464">
        <ele>1055.8</ele>
        <time>2021-04-10T10:25:40Z</time>
      </trkpt>
      <trkpt lat="45.16328" lon="5.89463">
        <ele>1055.2</ele>
        <time>2021-04-10T10:25:41Z</time>
      </trkpt>
      <trkpt lat="45.1633" lon="5.89462">
        <ele>1054.2</ele>
        <time>2021-04-10T10:25:42Z</time>
      </trkpt>
      <trkpt lat="45.16332" lon="5.8946">
        <ele>1054.2</ele>
        <time>2021-04-10T10:25:43Z</time>
      </trkpt>
      <trkpt lat="45.16335" lon="5.8946">
        <ele>1053.8</ele>
        <time>2021-04-10T10:25:44Z</time>
      </trkpt>
      <trkpt lat="45.16337" lon="5.89459">
        <ele>1053.8</ele>
        <time>2021-04-10T10:25:45Z</time>
      </trkpt>
      <trkpt lat="45.16339" lon="5.89458">
        <ele>1053.6</ele>
        <time>2021-04-10T10:25:46Z</time>
      </trkpt>
      <trkpt lat="45.16341" lon="5.89457">
        <ele>1053</ele>
        <time>2021-04-10T10:25:47Z</time>
      </trkpt>
      <trkpt lat="45.16342" lon="5.89456">
        <ele>1052.4</ele>
        <time>2021-04-10T10:25:48Z</time>
      </trkpt>
      <trkpt lat="45.16344" lon="5.89454">
        <ele>1051.8</ele>
        <time>2021-04-10T10:25:49Z</time>
      </trkpt>
      <trkpt lat="45.16345" lon="5.89453">
        <ele>1051.2</ele>
        <time>2021-04-10T10:25:50Z</time>
      </trkpt>
      <trkpt lat="45.16351" lon="5.89447">
        <ele>1050.2</ele>
        <time>2021-04-10T10:25:51Z</time>
      </trkpt>
      <trkpt lat="45.16355" lon="5.89445">
        <ele>1050.2</ele>
        <time>2021-04-10T10:25:52Z</time>
      </trkpt>
      <trkpt lat="45.16357" lon="5.89443">
        <ele>1049.6</ele>
        <time>2021-04-10T10:25:53Z</time>
      </trkpt>
      <trkpt lat="45.16359" lon="5.89442">
        <ele>1049.6</ele>
        <time>2021-04-10T10:25:54Z</time>
      </trkpt>
      <trkpt lat="45.1636" lon="5.8944">
        <ele>1049.2</ele>
        <time>2021-04-10T10:25:55Z</time>
      </trkpt>
      <trkpt lat="45.1636" lon="5.89439">
        <ele>1049.6</ele>
        <time>2021-04-10T10:25:56Z</time>
      </trkpt>
      <trkpt lat="45.16361" lon="5.89437">
        <ele>1049</ele>
        <time>2021-04-10T10:25:57Z</time>
      </trkpt>
      <trkpt lat="45.16363" lon="5.89433">
        <ele>1049.2</ele>
        <time>2021-04-10T10:25:58Z</time>
      </trkpt>
      <trkpt lat="45.16365" lon="5.89428">
        <ele>1048.8</ele>
        <time>2021-04-10T10:25:59Z</time>
      </trkpt>
      <trkpt lat="45.16367" lon="5.89424">
        <ele>1048.8</ele>
        <time>2021-04-10T10:26:00Z</time>
      </trkpt>
      <trkpt lat="45.16369" lon="5.89419">
        <ele>1048.4</ele>
        <time>2021-04-10T10:26:01Z</time>
      </trkpt>
      <trkpt lat="45.16371" lon="5.89415">
        <ele>1048.2</ele>
        <time>2021-04-10T10:26:02Z</time>
      </trkpt>
      <trkpt lat="45.16373" lon="5.8941">
        <ele>1047.6</ele>
        <time>2021-04-10T10:26:03Z</time>
      </trkpt>
      <trkpt lat="45.16375" lon="5.89406">
        <ele>1047.4</ele>
        <time>2021-04-10T10:26:04Z</time>
      </trkpt>
      <trkpt lat="45.16377" lon="5.89401">
        <ele>1047</ele>
        <time>2021-04-10T10:26:05Z</time>
      </trkpt>
      <trkpt lat="45.16379" lon="5.89395">
        <ele>1047.2</ele>
        <time>2021-04-10T10:26:06Z</time>
      </trkpt>
      <trkpt lat="45.1638" lon="5.89393">
        <ele>1047</ele>
        <time>2021-04-10T10:26:07Z</time>
      </trkpt>
      <trkpt lat="45.16381" lon="5.89392">
        <ele>1047</ele>
        <time>2021-04-10T10:26:08Z</time>
      </trkpt>
      <trkpt lat="45.16383" lon="5.89391">
        <ele>1046.8</ele>
        <time>2021-04-10T10:26:09Z</time>
      </trkpt>
      <trkpt lat="45.16384" lon="5.89389">
        <ele>1047</ele>
        <time>2021-04-10T10:26:10Z</time>
      </trkpt>
      <trkpt lat="45.16389" lon="5.89384">
        <ele>1046.8</ele>
        <time>2021-04-10T10:26:11Z</time>
      </trkpt>
      <trkpt lat="45.1639" lon="5.89383">
        <ele>1046.8</ele>
        <time>2021-04-10T10:26:12Z</time>
      </trkpt>
      <trkpt lat="45.16391" lon="5.89382">
        <ele>1046.4</ele>
        <time>2021-04-10T10:26:13Z</time>
      </trkpt>
      <trkpt lat="45.16395" lon="5.89379">
        <ele>1046.6</ele>
        <time>2021-04-10T10:26:14Z</time>
      </trkpt>
      <trkpt lat="45.16396" lon="5.89378">
        <ele>1046.2</ele>
        <time>2021-04-10T10:26:15Z</time>
      </trkpt>
      <trkpt lat="45.16398" lon="5.89378">
        <ele>1046.4</ele>
        <time>2021-04-10T10:26:16Z</time>
      </trkpt>
      <trkpt lat="45.164" lon="5.89377">
        <ele>1046.4</ele>
        <time>2021-04-10T10:26:17Z</time>
      </trkpt>
      <trkpt lat="45.16401" lon="5.89377">
        <ele>1046.4</ele>
        <time>2021-04-10T10:26:18Z</time>
      </trkpt>
      <trkpt lat="45.16408" lon="5.89375">
        <ele>1046.6</ele>
        <time>2021-04-10T10:26:19Z</time>
      </trkpt>
      <trkpt lat="45.16412" lon="5.89374">
        <ele>1046.8</ele>
        <time>2021-04-10T10:26:20Z</time>
      </trkpt>
      <trkpt lat="45.16415" lon="5.89374">
        <ele>1046.6</ele>
        <time>2021-04-10T10:26:21Z</time>
      </trkpt>
      <trkpt lat="45.16418" lon="5.89373">
        <ele>1046.4</ele>
        <time>2021-04-10T10:26:22Z</time>
      </trkpt>
      <trkpt lat="45.16422" lon="5.89373">
        <ele>1046.4</ele>
        <time>2021-04-10T10:26:23Z</time>
      </trkpt>
      <trkpt lat="45.16425" lon="5.89373">
        <ele>1046.6</ele>
        <time>2021-04-10T10:26:24Z</time>
      </trkpt>
      <trkpt lat="45.16427" lon="5.89372">
        <ele>1046.2</ele>
        <time>2021-04-10T10:26:25Z</time>
      </trkpt>
      <trkpt lat="45.1643" lon="5.89372">
        <ele>1046.2</ele>
        <time>2021-04-10T10:26:26Z</time>
      </trkpt>
      <trkpt lat="45.16434" lon="5.89372">
        <ele>1045.8</ele>
        <time>2021-04-10T10:26:27Z</time>
      </trkpt>
      <trkpt lat="45.16437" lon="5.89371">
        <ele>1045.6</ele>
        <time>2021-04-10T10:26:28Z</time>
      </trkpt>
      <trkpt lat="45.16439" lon="5.89371">
        <ele>1045</ele>
        <time>2021-04-10T10:26:29Z</time>
      </trkpt>
      <trkpt lat="45.16441" lon="5.8937">
        <ele>1044.4</ele>
        <time>2021-04-10T10:26:30Z</time>
      </trkpt>
      <trkpt lat="45.16443" lon="5.8937">
        <ele>1044.4</ele>
        <time>2021-04-10T10:26:31Z</time>
      </trkpt>
      <trkpt lat="45.16449" lon="5.89368">
        <ele>1043.6</ele>
        <time>2021-04-10T10:26:32Z</time>
      </trkpt>
      <trkpt lat="45.16454" lon="5.89368">
        <ele>1043.6</ele>
        <time>2021-04-10T10:26:33Z</time>
      </trkpt>
      <trkpt lat="45.16458" lon="5.89367">
        <ele>1043</ele>
        <time>2021-04-10T10:26:34Z</time>
      </trkpt>
      <trkpt lat="45.16461" lon="5.89366">
        <ele>1042.6</ele>
        <time>2021-04-10T10:26:35Z</time>
      </trkpt>
      <trkpt lat="45.16465" lon="5.89366">
        <ele>1041.8</ele>
        <time>2021-04-10T10:26:36Z</time>
      </trkpt>
      <trkpt lat="45.16469" lon="5.89365">
        <ele>1040.8</ele>
        <time>2021-04-10T10:26:37Z</time>
      </trkpt>
      <trkpt lat="45.16472" lon="5.89365">
        <ele>1040.6</ele>
        <time>2021-04-10T10:26:38Z</time>
      </trkpt>
      <trkpt lat="45.16475" lon="5.89365">
        <ele>1039.8</ele>
        <time>2021-04-10T10:26:39Z</time>
      </trkpt>
      <trkpt lat="45.16478" lon="5.89366">
        <ele>1039.8</ele>
        <time>2021-04-10T10:26:40Z</time>
      </trkpt>
      <trkpt lat="45.16481" lon="5.89364">
        <ele>1039.2</ele>
        <time>2021-04-10T10:26:41Z</time>
      </trkpt>
      <trkpt lat="45.16484" lon="5.89362">
        <ele>1038.8</ele>
        <time>2021-04-10T10:26:42Z</time>
      </trkpt>
      <trkpt lat="45.16487" lon="5.8936">
        <ele>1038</ele>
        <time>2021-04-10T10:26:43Z</time>
      </trkpt>
      <trkpt lat="45.16487" lon="5.8936">
        <ele>1037.2</ele>
        <time>2021-04-10T10:26:44Z</time>
      </trkpt>
      <trkpt lat="45.16487" lon="5.8936">
        <ele>1036.8</ele>
        <time>2021-04-10T10:26:45Z</time>
      </trkpt>
      <trkpt lat="45.16487" lon="5.8936">
        <ele>1035.6</ele>
        <time>2021-04-10T10:26:46Z</time>
      </trkpt>
      <trkpt lat="45.16488" lon="5.89358">
        <ele>1035.6</ele>
        <time>2021-04-10T10:26:47Z</time>
      </trkpt>
      <trkpt lat="45.16489" lon="5.89356">
        <ele>1035.2</ele>
        <time>2021-04-10T10:26:48Z</time>
      </trkpt>
      <trkpt lat="45.1649" lon="5.89354">
        <ele>1034.4</ele>
        <time>2021-04-10T10:26:49Z</time>
      </trkpt>
      <trkpt lat="45.16491" lon="5.89352">
        <ele>1033.8</ele>
        <time>2021-04-10T10:26:50Z</time>
      </trkpt>
      <trkpt lat="45.16492" lon="5.89349">
        <ele>1033.2</ele>
        <time>2021-04-10T10:26:51Z</time>
      </trkpt>
      <trkpt lat="45.16493" lon="5.89347">
        <ele>1032.6</ele>
        <time>2021-04-10T10:26:52Z</time>
      </trkpt>
      <trkpt lat="45.16493" lon="5.89345">
        <ele>1031.6</ele>
        <time>2021-04-10T10:26:53Z</time>
      </trkpt>
      <trkpt lat="45.16494" lon="5.89342">
        <ele>1030.8</ele>
        <time>2021-04-10T10:26:54Z</time>
      </trkpt>
      <trkpt lat="45.16494" lon="5.8934">
        <ele>1030.6</ele>
        <time>2021-04-10T10:26:55Z</time>
      </trkpt>
      <trkpt lat="45.16495" lon="5.89338">
        <ele>1029.6</ele>
        <time>2021-04-10T10:26:56Z</time>
      </trkpt>
      <trkpt lat="45.16495" lon="5.89335">
        <ele>1028.8</ele>
        <time>2021-04-10T10:26:57Z</time>
      </trkpt>
      <trkpt lat="45.16495" lon="5.89333">
        <ele>1027.6</ele>
        <time>2021-04-10T10:26:58Z</time>
      </trkpt>
      <trkpt lat="45.16495" lon="5.8933">
        <ele>1026.4</ele>
        <time>2021-04-10T10:26:59Z</time>
      </trkpt>
      <trkpt lat="45.16494" lon="5.89328">
        <ele>1025.4</ele>
        <time>2021-04-10T10:27:00Z</time>
      </trkpt>
      <trkpt lat="45.16494" lon="5.89325">
        <ele>1025</ele>
        <time>2021-04-10T10:27:01Z</time>
      </trkpt>
      <trkpt lat="45.16493" lon="5.89322">
        <ele>1024</ele>
        <time>2021-04-10T10:27:02Z</time>
      </trkpt>
      <trkpt lat="45.16493" lon="5.89319">
        <ele>1023.4</ele>
        <time>2021-04-10T10:27:03Z</time>
      </trkpt>
      <trkpt lat="45.16492" lon="5.89317">
        <ele>1022.6</ele>
        <time>2021-04-10T10:27:04Z</time>
      </trkpt>
      <trkpt lat="45.16491" lon="5.89314">
        <ele>1022.2</ele>
        <time>2021-04-10T10:27:05Z</time>
      </trkpt>
      <trkpt lat="45.1649" lon="5.89312">
        <ele>1021.8</ele>
        <time>2021-04-10T10:27:06Z</time>
      </trkpt>
      <trkpt lat="45.16489" lon="5.8931">
        <ele>1021.4</ele>
        <time>2021-04-10T10:27:07Z</time>
      </trkpt>
      <trkpt lat="45.16488" lon="5.89307">
        <ele>1020.6</ele>
        <time>2021-04-10T10:27:08Z</time>
      </trkpt>
      <trkpt lat="45.16487" lon="5.89305">
        <ele>1019.6</ele>
        <time>2021-04-10T10:27:09Z</time>
      </trkpt>
      <trkpt lat="45.16486" lon="5.89303">
        <ele>1019</ele>
        <time>2021-04-10T10:27:10Z</time>
      </trkpt>
      <trkpt lat="45.16485" lon="5.89301">
        <ele>1018.2</ele>
        <time>2021-04-10T10:27:11Z</time>
      </trkpt>
      <trkpt lat="45.16484" lon="5.89299">
        <ele>1017.4</ele>
        <time>2021-04-10T10:27:12Z</time>
      </trkpt>
      <trkpt lat="45.16483" lon="5.89296">
        <ele>1016.8</ele>
        <time>2021-04-10T10:27:13Z</time>
      </trkpt>
      <trkpt lat="45.16475" lon="5.89289">
        <ele>1015.6</ele>
        <time>2021-04-10T10:27:14Z</time>
      </trkpt>
      <trkpt lat="45.16475" lon="5.89289">
        <ele>1014.8</ele>
        <time>2021-04-10T10:27:15Z</time>
      </trkpt>
      <trkpt lat="45.16475" lon="5.89289">
        <ele>1013.6</ele>
        <time>2021-04-10T10:27:16Z</time>
      </trkpt>
      <trkpt lat="45.16475" lon="5.89289">
        <ele>1013</ele>
        <time>2021-04-10T10:27:17Z</time>
      </trkpt>
      <trkpt lat="45.16473" lon="5.89287">
        <ele>1012</ele>
        <time>2021-04-10T10:27:18Z</time>
      </trkpt>
      <trkpt lat="45.16472" lon="5.89285">
        <ele>1011.8</ele>
        <time>2021-04-10T10:27:19Z</time>
      </trkpt>
      <trkpt lat="45.1647" lon="5.89283">
        <ele>1011.2</ele>
        <time>2021-04-10T10:27:20Z</time>
      </trkpt>
      <trkpt lat="45.16468" lon="5.89281">
        <ele>1010.8</ele>
        <time>2021-04-10T10:27:21Z</time>
      </trkpt>
      <trkpt lat="45.16466" lon="5.89279">
        <ele>1010</ele>
        <time>2021-04-10T10:27:22Z</time>
      </trkpt>
      <trkpt lat="45.16465" lon="5.89278">
        <ele>1009.4</ele>
        <time>2021-04-10T10:27:23Z</time>
      </trkpt>
      <trkpt lat="45.16463" lon="5.89276">
        <ele>1008.6</ele>
        <time>2021-04-10T10:27:24Z</time>
      </trkpt>
      <trkpt lat="45.16462" lon="5.89274">
        <ele>1008.2</ele>
        <time>2021-04-10T10:27:25Z</time>
      </trkpt>
      <trkpt lat="45.1646" lon="5.89273">
        <ele>1007.8</ele>
        <time>2021-04-10T10:27:26Z</time>
      </trkpt>
      <trkpt lat="45.16459" lon="5.89271">
        <ele>1007</ele>
        <time>2021-04-10T10:27:27Z</time>
      </trkpt>
      <trkpt lat="45.16455" lon="5.89265">
        <ele>1006.6</ele>
        <time>2021-04-10T10:27:28Z</time>
      </trkpt>
      <trkpt lat="45.16451" lon="5.89259">
        <ele>1005.8</ele>
        <time>2021-04-10T10:27:29Z</time>
      </trkpt>
      <trkpt lat="45.16451" lon="5.89259">
        <ele>1005</ele>
        <time>2021-04-10T10:27:30Z</time>
      </trkpt>
      <trkpt lat="45.16451" lon="5.89259">
        <ele>1004.6</ele>
        <time>2021-04-10T10:27:31Z</time>
      </trkpt>
      <trkpt lat="45.16448" lon="5.89257">
        <ele>1003.6</ele>
        <time>2021-04-10T10:27:32Z</time>
      </trkpt>
      <trkpt lat="45.16446" lon="5.89256">
        <ele>1003.2</ele>
        <time>2021-04-10T10:27:33Z</time>
      </trkpt>
      <trkpt lat="45.16444" lon="5.89254">
        <ele>1002.8</ele>
        <time>2021-04-10T10:27:34Z</time>
      </trkpt>
      <trkpt lat="45.16442" lon="5.89253">
        <ele>1002.6</ele>
        <time>2021-04-10T10:27:35Z</time>
      </trkpt>
      <trkpt lat="45.1644" lon="5.89251">
        <ele>1001.8</ele>
        <time>2021-04-10T10:27:36Z</time>
      </trkpt>
      <trkpt lat="45.16437" lon="5.89249">
        <ele>1001.6</ele>
        <time>2021-04-10T10:27:37Z</time>
      </trkpt>
      <trkpt lat="45.16434" lon="5.89247">
        <ele>1000.8</ele>
        <time>2021-04-10T10:27:38Z</time>
      </trkpt>
      <trkpt lat="45.16432" lon="5.89245">
        <ele>1000</ele>
        <time>2021-04-10T10:27:39Z</time>
      </trkpt>
      <trkpt lat="45.16429" lon="5.89244">
        <ele>999.8</ele>
        <time>2021-04-10T10:27:40Z</time>
      </trkpt>
      <trkpt lat="45.16426" lon="5.89242">
        <ele>999.2</ele>
        <time>2021-04-10T10:27:41Z</time>
      </trkpt>
      <trkpt lat="45.16422" lon="5.89237">
        <ele>998.8</ele>
        <time>2021-04-10T10:27:42Z</time>
      </trkpt>
      <trkpt lat="45.16421" lon="5.89237">
        <ele>997.4</ele>
        <time>2021-04-10T10:27:43Z</time>
      </trkpt>
      <trkpt lat="45.1642" lon="5.89236">
        <ele>996.6</ele>
        <time>2021-04-10T10:27:44Z</time>
      </trkpt>
      <trkpt lat="45.16419" lon="5.89236">
        <ele>996.4</ele>
        <time>2021-04-10T10:27:45Z</time>
      </trkpt>
      <trkpt lat="45.16418" lon="5.89235">
        <ele>995.2</ele>
        <time>2021-04-10T10:27:46Z</time>
      </trkpt>
      <trkpt lat="45.16414" lon="5.89234">
        <ele>994.6</ele>
        <time>2021-04-10T10:27:47Z</time>
      </trkpt>
      <trkpt lat="45.1641" lon="5.89232">
        <ele>994</ele>
        <time>2021-04-10T10:27:48Z</time>
      </trkpt>
      <trkpt lat="45.16406" lon="5.89231">
        <ele>993</ele>
        <time>2021-04-10T10:27:49Z</time>
      </trkpt>
      <trkpt lat="45.16402" lon="5.89229">
        <ele>992.6</ele>
        <time>2021-04-10T10:27:50Z</time>
      </trkpt>
      <trkpt lat="45.16402" lon="5.89229">
        <ele>992</ele>
        <time>2021-04-10T10:27:51Z</time>
      </trkpt>
      <trkpt lat="45.16402" lon="5.89229">
        <ele>991.2</ele>
        <time>2021-04-10T10:27:52Z</time>
      </trkpt>
      <trkpt lat="45.16402" lon="5.89229">
        <ele>990.6</ele>
        <time>2021-04-10T10:27:53Z</time>
      </trkpt>
      <trkpt lat="45.16399" lon="5.89227">
        <ele>990.2</ele>
        <time>2021-04-10T10:27:54Z</time>
      </trkpt>
      <trkpt lat="45.16396" lon="5.89225">
        <ele>989.4</ele>
        <time>2021-04-10T10:27:55Z</time>
      </trkpt>
      <trkpt lat="45.16394" lon="5.89223">
        <ele>988.6</ele>
        <time>2021-04-10T10:27:56Z</time>
      </trkpt>
      <trkpt lat="45.16391" lon="5.89221">
        <ele>988</ele>
        <time>2021-04-10T10:27:57Z</time>
      </trkpt>
      <trkpt lat="45.16388" lon="5.89219">
        <ele>986.6</ele>
        <time>2021-04-10T10:27:58Z</time>
      </trkpt>
      <trkpt lat="45.16387" lon="5.89218">
        <ele>985.8</ele>
        <time>2021-04-10T10:27:59Z</time>
      </trkpt>
      <trkpt lat="45.16386" lon="5.89217">
        <ele>985.2</ele>
        <time>2021-04-10T10:28:00Z</time>
      </trkpt>
      <trkpt lat="45.16384" lon="5.89216">
        <ele>984.4</ele>
        <time>2021-04-10T10:28:01Z</time>
      </trkpt>
      <trkpt lat="45.16383" lon="5.89215">
        <ele>983.4</ele>
        <time>2021-04-10T10:28:02Z</time>
      </trkpt>
      <trkpt lat="45.16382" lon="5.89213">
        <ele>982.8</ele>
        <time>2021-04-10T10:28:03Z</time>
      </trkpt>
      <trkpt lat="45.16381" lon="5.89212">
        <ele>982</ele>
        <time>2021-04-10T10:28:04Z</time>
      </trkpt>
      <trkpt lat="45.1638" lon="5.89211">
        <ele>981.2</ele>
        <time>2021-04-10T10:28:05Z</time>
      </trkpt>
      <trkpt lat="45.16377" lon="5.89209">
        <ele>980.6</ele>
        <time>2021-04-10T10:28:06Z</time>
      </trkpt>
      <trkpt lat="45.16375" lon="5.89208">
        <ele>979.8</ele>
        <time>2021-04-10T10:28:07Z</time>
      </trkpt>
      <trkpt lat="45.16372" lon="5.89206">
        <ele>979.2</ele>
        <time>2021-04-10T10:28:08Z</time>
      </trkpt>
      <trkpt lat="45.16369" lon="5.89205">
        <ele>978.4</ele>
        <time>2021-04-10T10:28:09Z</time>
      </trkpt>
      <trkpt lat="45.16367" lon="5.89204">
        <ele>977.4</ele>
        <time>2021-04-10T10:28:10Z</time>
      </trkpt>
      <trkpt lat="45.16364" lon="5.89202">
        <ele>976.6</ele>
        <time>2021-04-10T10:28:11Z</time>
      </trkpt>
      <trkpt lat="45.16362" lon="5.89201">
        <ele>976.4</ele>
        <time>2021-04-10T10:28:12Z</time>
      </trkpt>
      <trkpt lat="45.16357" lon="5.89203">
        <ele>975.6</ele>
        <time>2021-04-10T10:28:13Z</time>
      </trkpt>
      <trkpt lat="45.16357" lon="5.89203">
        <ele>975</ele>
        <time>2021-04-10T10:28:14Z</time>
      </trkpt>
      <trkpt lat="45.16357" lon="5.89203">
        <ele>974.4</ele>
        <time>2021-04-10T10:28:15Z</time>
      </trkpt>
      <trkpt lat="45.16356" lon="5.89203">
        <ele>973.2</ele>
        <time>2021-04-10T10:28:16Z</time>
      </trkpt>
      <trkpt lat="45.16354" lon="5.89204">
        <ele>972.2</ele>
        <time>2021-04-10T10:28:17Z</time>
      </trkpt>
      <trkpt lat="45.16353" lon="5.89205">
        <ele>971.8</ele>
        <time>2021-04-10T10:28:18Z</time>
      </trkpt>
      <trkpt lat="45.16352" lon="5.89206">
        <ele>971</ele>
        <time>2021-04-10T10:28:19Z</time>
      </trkpt>
      <trkpt lat="45.1635" lon="5.89207">
        <ele>970.2</ele>
        <time>2021-04-10T10:28:20Z</time>
      </trkpt>
      <trkpt lat="45.16349" lon="5.89208">
        <ele>969.6</ele>
        <time>2021-04-10T10:28:21Z</time>
      </trkpt>
      <trkpt lat="45.16347" lon="5.89209">
        <ele>969.4</ele>
        <time>2021-04-10T10:28:22Z</time>
      </trkpt>
      <trkpt lat="45.16345" lon="5.8921">
        <ele>969.2</ele>
        <time>2021-04-10T10:28:23Z</time>
      </trkpt>
      <trkpt lat="45.16343" lon="5.89211">
        <ele>968.8</ele>
        <time>2021-04-10T10:28:24Z</time>
      </trkpt>
      <trkpt lat="45.16341" lon="5.89211">
        <ele>968.4</ele>
        <time>2021-04-10T10:28:25Z</time>
      </trkpt>
      <trkpt lat="45.16339" lon="5.89212">
        <ele>968.2</ele>
        <time>2021-04-10T10:28:26Z</time>
      </trkpt>
      <trkpt lat="45.16333" lon="5.89213">
        <ele>967.6</ele>
        <time>2021-04-10T10:28:27Z</time>
      </trkpt>
      <trkpt lat="45.16327" lon="5.89213">
        <ele>967.2</ele>
        <time>2021-04-10T10:28:28Z</time>
      </trkpt>
      <trkpt lat="45.16327" lon="5.89213">
        <ele>966.8</ele>
        <time>2021-04-10T10:28:29Z</time>
      </trkpt>
      <trkpt lat="45.16327" lon="5.89213">
        <ele>966</ele>
        <time>2021-04-10T10:28:30Z</time>
      </trkpt>
      <trkpt lat="45.16324" lon="5.89215">
        <ele>966.2</ele>
        <time>2021-04-10T10:28:31Z</time>
      </trkpt>
      <trkpt lat="45.16321" lon="5.89216">
        <ele>965.6</ele>
        <time>2021-04-10T10:28:32Z</time>
      </trkpt>
      <trkpt lat="45.16318" lon="5.89217">
        <ele>965.6</ele>
        <time>2021-04-10T10:28:33Z</time>
      </trkpt>
      <trkpt lat="45.16314" lon="5.89218">
        <ele>965.2</ele>
        <time>2021-04-10T10:28:34Z</time>
      </trkpt>
      <trkpt lat="45.16311" lon="5.89219">
        <ele>965</ele>
        <time>2021-04-10T10:28:35Z</time>
      </trkpt>
      <trkpt lat="45.16308" lon="5.89221">
        <ele>964.2</ele>
        <time>2021-04-10T10:28:36Z</time>
      </trkpt>
      <trkpt lat="45.16305" lon="5.8922">
        <ele>964</ele>
        <time>2021-04-10T10:28:37Z</time>
      </trkpt>
      <trkpt lat="45.16301" lon="5.8922">
        <ele>963</ele>
        <time>2021-04-10T10:28:38Z</time>
      </trkpt>
      <trkpt lat="45.16298" lon="5.8922">
        <ele>962</ele>
        <time>2021-04-10T10:28:39Z</time>
      </trkpt>
      <trkpt lat="45.16296" lon="5.89221">
        <ele>961.8</ele>
        <time>2021-04-10T10:28:40Z</time>
      </trkpt>
      <trkpt lat="45.16294" lon="5.89222">
        <ele>961.4</ele>
        <time>2021-04-10T10:28:41Z</time>
      </trkpt>
      <trkpt lat="45.16292" lon="5.89223">
        <ele>961</ele>
        <time>2021-04-10T10:28:42Z</time>
      </trkpt>
      <trkpt lat="45.16286" lon="5.89226">
        <ele>960.2</ele>
        <time>2021-04-10T10:28:43Z</time>
      </trkpt>
      <trkpt lat="45.16286" lon="5.89227">
        <ele>959.8</ele>
        <time>2021-04-10T10:28:44Z</time>
      </trkpt>
      <trkpt lat="45.16285" lon="5.89228">
        <ele>958.8</ele>
        <time>2021-04-10T10:28:45Z</time>
      </trkpt>
      <trkpt lat="45.16281" lon="5.89233">
        <ele>958</ele>
        <time>2021-04-10T10:28:46Z</time>
      </trkpt>
      <trkpt lat="45.16281" lon="5.89233">
        <ele>957.6</ele>
        <time>2021-04-10T10:28:47Z</time>
      </trkpt>
      <trkpt lat="45.16281" lon="5.89233">
        <ele>956.4</ele>
        <time>2021-04-10T10:28:48Z</time>
      </trkpt>
      <trkpt lat="45.16281" lon="5.89233">
        <ele>955.8</ele>
        <time>2021-04-10T10:28:49Z</time>
      </trkpt>
      <trkpt lat="45.16279" lon="5.89234">
        <ele>955.2</ele>
        <time>2021-04-10T10:28:50Z</time>
      </trkpt>
      <trkpt lat="45.16278" lon="5.89234">
        <ele>954.8</ele>
        <time>2021-04-10T10:28:51Z</time>
      </trkpt>
      <trkpt lat="45.16276" lon="5.89235">
        <ele>954</ele>
        <time>2021-04-10T10:28:52Z</time>
      </trkpt>
      <trkpt lat="45.16274" lon="5.89236">
        <ele>953.4</ele>
        <time>2021-04-10T10:28:53Z</time>
      </trkpt>
      <trkpt lat="45.16272" lon="5.89237">
        <ele>953</ele>
        <time>2021-04-10T10:28:54Z</time>
      </trkpt>
      <trkpt lat="45.16266" lon="5.89229">
        <ele>952.4</ele>
        <time>2021-04-10T10:28:55Z</time>
      </trkpt>
      <trkpt lat="45.16261" lon="5.89221">
        <ele>952</ele>
        <time>2021-04-10T10:28:56Z</time>
      </trkpt>
      <trkpt lat="45.16259" lon="5.89216">
        <ele>951.6</ele>
        <time>2021-04-10T10:28:57Z</time>
      </trkpt>
      <trkpt lat="45.16258" lon="5.89213">
        <ele>950.8</ele>
        <time>2021-04-10T10:28:58Z</time>
      </trkpt>
      <trkpt lat="45.16256" lon="5.8921">
        <ele>950</ele>
        <time>2021-04-10T10:28:59Z</time>
      </trkpt>
      <trkpt lat="45.16254" lon="5.89206">
        <ele>949.6</ele>
        <time>2021-04-10T10:29:00Z</time>
      </trkpt>
      <trkpt lat="45.16252" lon="5.89204">
        <ele>948.8</ele>
        <time>2021-04-10T10:29:01Z</time>
      </trkpt>
      <trkpt lat="45.1625" lon="5.89202">
        <ele>947.6</ele>
        <time>2021-04-10T10:29:02Z</time>
      </trkpt>
      <trkpt lat="45.16248" lon="5.892">
        <ele>946.8</ele>
        <time>2021-04-10T10:29:03Z</time>
      </trkpt>
      <trkpt lat="45.16246" lon="5.89198">
        <ele>946.2</ele>
        <time>2021-04-10T10:29:04Z</time>
      </trkpt>
      <trkpt lat="45.16245" lon="5.89197">
        <ele>945.6</ele>
        <time>2021-04-10T10:29:05Z</time>
      </trkpt>
      <trkpt lat="45.16243" lon="5.89196">
        <ele>944.6</ele>
        <time>2021-04-10T10:29:06Z</time>
      </trkpt>
      <trkpt lat="45.16242" lon="5.89195">
        <ele>943.8</ele>
        <time>2021-04-10T10:29:07Z</time>
      </trkpt>
      <trkpt lat="45.16241" lon="5.89194">
        <ele>943.2</ele>
        <time>2021-04-10T10:29:08Z</time>
      </trkpt>
      <trkpt lat="45.16241" lon="5.89194">
        <ele>942.2</ele>
        <time>2021-04-10T10:29:09Z</time>
      </trkpt>
      <trkpt lat="45.16241" lon="5.89194">
        <ele>941.6</ele>
        <time>2021-04-10T10:29:10Z</time>
      </trkpt>
      <trkpt lat="45.16239" lon="5.89193">
        <ele>940.6</ele>
        <time>2021-04-10T10:29:11Z</time>
      </trkpt>
      <trkpt lat="45.16237" lon="5.89192">
        <ele>940.2</ele>
        <time>2021-04-10T10:29:12Z</time>
      </trkpt>
      <trkpt lat="45.16235" lon="5.89192">
        <ele>938.8</ele>
        <time>2021-04-10T10:29:13Z</time>
      </trkpt>
      <trkpt lat="45.16233" lon="5.89191">
        <ele>938.2</ele>
        <time>2021-04-10T10:29:14Z</time>
      </trkpt>
      <trkpt lat="45.16231" lon="5.8919">
        <ele>937.4</ele>
        <time>2021-04-10T10:29:15Z</time>
      </trkpt>
      <trkpt lat="45.16221" lon="5.89181">
        <ele>936.8</ele>
        <time>2021-04-10T10:29:16Z</time>
      </trkpt>
      <trkpt lat="45.16218" lon="5.8918">
        <ele>936</ele>
        <time>2021-04-10T10:29:17Z</time>
      </trkpt>
      <trkpt lat="45.16215" lon="5.89179">
        <ele>935.2</ele>
        <time>2021-04-10T10:29:18Z</time>
      </trkpt>
      <trkpt lat="45.16213" lon="5.89178">
        <ele>934.6</ele>
        <time>2021-04-10T10:29:19Z</time>
      </trkpt>
      <trkpt lat="45.16211" lon="5.89177">
        <ele>933.8</ele>
        <time>2021-04-10T10:29:20Z</time>
      </trkpt>
      <trkpt lat="45.16209" lon="5.89176">
        <ele>933.6</ele>
        <time>2021-04-10T10:29:21Z</time>
      </trkpt>
      <trkpt lat="45.16208" lon="5.89175">
        <ele>933.2</ele>
        <time>2021-04-10T10:29:22Z</time>
      </trkpt>
      <trkpt lat="45.162" lon="5.8917">
        <ele>932.6</ele>
        <time>2021-04-10T10:29:23Z</time>
      </trkpt>
      <trkpt lat="45.16197" lon="5.89169">
        <ele>931.8</ele>
        <time>2021-04-10T10:29:24Z</time>
      </trkpt>
      <trkpt lat="45.16194" lon="5.89167">
        <ele>931</ele>
        <time>2021-04-10T10:29:25Z</time>
      </trkpt>
      <trkpt lat="45.1619" lon="5.89165">
        <ele>930.4</ele>
        <time>2021-04-10T10:29:26Z</time>
      </trkpt>
      <trkpt lat="45.16186" lon="5.89163">
        <ele>929.8</ele>
        <time>2021-04-10T10:29:27Z</time>
      </trkpt>
      <trkpt lat="45.16183" lon="5.89161">
        <ele>929.8</ele>
        <time>2021-04-10T10:29:28Z</time>
      </trkpt>
      <trkpt lat="45.16178" lon="5.89159">
        <ele>929</ele>
        <time>2021-04-10T10:29:29Z</time>
      </trkpt>
      <trkpt lat="45.16173" lon="5.89156">
        <ele>928.4</ele>
        <time>2021-04-10T10:29:30Z</time>
      </trkpt>
      <trkpt lat="45.16168" lon="5.89154">
        <ele>927.8</ele>
        <time>2021-04-10T10:29:31Z</time>
      </trkpt>
      <trkpt lat="45.1616" lon="5.89152">
        <ele>927</ele>
        <time>2021-04-10T10:29:32Z</time>
      </trkpt>
      <trkpt lat="45.16157" lon="5.89152">
        <ele>926.6</ele>
        <time>2021-04-10T10:29:33Z</time>
      </trkpt>
      <trkpt lat="45.16152" lon="5.89151">
        <ele>926</ele>
        <time>2021-04-10T10:29:34Z</time>
      </trkpt>
      <trkpt lat="45.16152" lon="5.89151">
        <ele>924.6</ele>
        <time>2021-04-10T10:29:35Z</time>
      </trkpt>
      <trkpt lat="45.1615" lon="5.8915">
        <ele>924.2</ele>
        <time>2021-04-10T10:29:36Z</time>
      </trkpt>
      <trkpt lat="45.16147" lon="5.89149">
        <ele>923.6</ele>
        <time>2021-04-10T10:29:37Z</time>
      </trkpt>
      <trkpt lat="45.16142" lon="5.89147">
        <ele>923</ele>
        <time>2021-04-10T10:29:38Z</time>
      </trkpt>
      <trkpt lat="45.16142" lon="5.89147">
        <ele>922</ele>
        <time>2021-04-10T10:29:39Z</time>
      </trkpt>
      <trkpt lat="45.16142" lon="5.89147">
        <ele>921.2</ele>
        <time>2021-04-10T10:29:40Z</time>
      </trkpt>
      <trkpt lat="45.16142" lon="5.89147">
        <ele>920.2</ele>
        <time>2021-04-10T10:29:41Z</time>
      </trkpt>
      <trkpt lat="45.16139" lon="5.89148">
        <ele>919.8</ele>
        <time>2021-04-10T10:29:42Z</time>
      </trkpt>
      <trkpt lat="45.16136" lon="5.89149">
        <ele>919.2</ele>
        <time>2021-04-10T10:29:43Z</time>
      </trkpt>
      <trkpt lat="45.16133" lon="5.8915">
        <ele>918.4</ele>
        <time>2021-04-10T10:29:44Z</time>
      </trkpt>
      <trkpt lat="45.1613" lon="5.89152">
        <ele>917.8</ele>
        <time>2021-04-10T10:29:45Z</time>
      </trkpt>
      <trkpt lat="45.16126" lon="5.89153">
        <ele>917.4</ele>
        <time>2021-04-10T10:29:46Z</time>
      </trkpt>
      <trkpt lat="45.16123" lon="5.89154">
        <ele>916.6</ele>
        <time>2021-04-10T10:29:47Z</time>
      </trkpt>
      <trkpt lat="45.16121" lon="5.8916">
        <ele>916</ele>
        <time>2021-04-10T10:29:48Z</time>
      </trkpt>
      <trkpt lat="45.1612" lon="5.89161">
        <ele>915.2</ele>
        <time>2021-04-10T10:29:49Z</time>
      </trkpt>
      <trkpt lat="45.1612" lon="5.89163">
        <ele>914.4</ele>
        <time>2021-04-10T10:29:50Z</time>
      </trkpt>
      <trkpt lat="45.16119" lon="5.89165">
        <ele>913.4</ele>
        <time>2021-04-10T10:29:51Z</time>
      </trkpt>
      <trkpt lat="45.16119" lon="5.89166">
        <ele>912.6</ele>
        <time>2021-04-10T10:29:52Z</time>
      </trkpt>
      <trkpt lat="45.16117" lon="5.89173">
        <ele>911.8</ele>
        <time>2021-04-10T10:29:53Z</time>
      </trkpt>
      <trkpt lat="45.16117" lon="5.89173">
        <ele>911.2</ele>
        <time>2021-04-10T10:29:54Z</time>
      </trkpt>
      <trkpt lat="45.16117" lon="5.89173">
        <ele>910.6</ele>
        <time>2021-04-10T10:29:55Z</time>
      </trkpt>
      <trkpt lat="45.16113" lon="5.89174">
        <ele>909.4</ele>
        <time>2021-04-10T10:29:56Z</time>
      </trkpt>
      <trkpt lat="45.1611" lon="5.89175">
        <ele>909</ele>
        <time>2021-04-10T10:29:57Z</time>
      </trkpt>
      <trkpt lat="45.16107" lon="5.89176">
        <ele>908.8</ele>
        <time>2021-04-10T10:29:58Z</time>
      </trkpt>
      <trkpt lat="45.16104" lon="5.89177">
        <ele>908</ele>
        <time>2021-04-10T10:29:59Z</time>
      </trkpt>
      <trkpt lat="45.161" lon="5.89177">
        <ele>908</ele>
        <time>2021-04-10T10:30:00Z</time>
      </trkpt>
      <trkpt lat="45.16097" lon="5.89178">
        <ele>907</ele>
        <time>2021-04-10T10:30:01Z</time>
      </trkpt>
      <trkpt lat="45.16094" lon="5.89177">
        <ele>906.6</ele>
        <time>2021-04-10T10:30:02Z</time>
      </trkpt>
      <trkpt lat="45.16091" lon="5.89176">
        <ele>905.8</ele>
        <time>2021-04-10T10:30:03Z</time>
      </trkpt>
      <trkpt lat="45.16087" lon="5.89175">
        <ele>905.2</ele>
        <time>2021-04-10T10:30:04Z</time>
      </trkpt>
      <trkpt lat="45.16085" lon="5.89174">
        <ele>904.4</ele>
        <time>2021-04-10T10:30:05Z</time>
      </trkpt>
      <trkpt lat="45.16083" lon="5.89173">
        <ele>903.8</ele>
        <time>2021-04-10T10:30:06Z</time>
      </trkpt>
      <trkpt lat="45.16081" lon="5.89172">
        <ele>903.2</ele>
        <time>2021-04-10T10:30:07Z</time>
      </trkpt>
      <trkpt lat="45.16079" lon="5.89171">
        <ele>902.4</ele>
        <time>2021-04-10T10:30:08Z</time>
      </trkpt>
      <trkpt lat="45.16077" lon="5.8917">
        <ele>901.6</ele>
        <time>2021-04-10T10:30:09Z</time>
      </trkpt>
      <trkpt lat="45.16076" lon="5.89168">
        <ele>901</ele>
        <time>2021-04-10T10:30:10Z</time>
      </trkpt>
      <trkpt lat="45.16075" lon="5.89166">
        <ele>900.8</ele>
        <time>2021-04-10T10:30:11Z</time>
      </trkpt>
      <trkpt lat="45.16074" lon="5.89165">
        <ele>899.6</ele>
        <time>2021-04-10T10:30:12Z</time>
      </trkpt>
      <trkpt lat="45.16069" lon="5.89158">
        <ele>899</ele>
        <time>2021-04-10T10:30:13Z</time>
      </trkpt>
      <trkpt lat="45.16068" lon="5.89156">
        <ele>897.8</ele>
        <time>2021-04-10T10:30:14Z</time>
      </trkpt>
      <trkpt lat="45.16068" lon="5.89155">
        <ele>897.4</ele>
        <time>2021-04-10T10:30:15Z</time>
      </trkpt>
      <trkpt lat="45.16066" lon="5.89149">
        <ele>896.8</ele>
        <time>2021-04-10T10:30:16Z</time>
      </trkpt>
      <trkpt lat="45.16066" lon="5.89149">
        <ele>896.2</ele>
        <time>2021-04-10T10:30:17Z</time>
      </trkpt>
      <trkpt lat="45.16066" lon="5.89149">
        <ele>895.6</ele>
        <time>2021-04-10T10:30:18Z</time>
      </trkpt>
      <trkpt lat="45.16066" lon="5.89149">
        <ele>895.2</ele>
        <time>2021-04-10T10:30:19Z</time>
      </trkpt>
      <trkpt lat="45.16067" lon="5.89146">
        <ele>894.8</ele>
        <time>2021-04-10T10:30:20Z</time>
      </trkpt>
      <trkpt lat="45.16067" lon="5.89143">
        <ele>894.8</ele>
        <time>2021-04-10T10:30:21Z</time>
      </trkpt>
      <trkpt lat="45.16068" lon="5.89139">
        <ele>893.6</ele>
        <time>2021-04-10T10:30:22Z</time>
      </trkpt>
      <trkpt lat="45.16069" lon="5.89136">
        <ele>893</ele>
        <time>2021-04-10T10:30:23Z</time>
      </trkpt>
      <trkpt lat="45.1607" lon="5.89132">
        <ele>892.2</ele>
        <time>2021-04-10T10:30:24Z</time>
      </trkpt>
      <trkpt lat="45.16071" lon="5.89129">
        <ele>891.4</ele>
        <time>2021-04-10T10:30:25Z</time>
      </trkpt>
      <trkpt lat="45.16072" lon="5.89125">
        <ele>890.6</ele>
        <time>2021-04-10T10:30:26Z</time>
      </trkpt>
      <trkpt lat="45.16073" lon="5.89122">
        <ele>889.8</ele>
        <time>2021-04-10T10:30:27Z</time>
      </trkpt>
      <trkpt lat="45.16073" lon="5.89119">
        <ele>889.2</ele>
        <time>2021-04-10T10:30:28Z</time>
      </trkpt>
      <trkpt lat="45.16074" lon="5.89109">
        <ele>888.4</ele>
        <time>2021-04-10T10:30:29Z</time>
      </trkpt>
      <trkpt lat="45.16075" lon="5.89103">
        <ele>887.4</ele>
        <time>2021-04-10T10:30:30Z</time>
      </trkpt>
      <trkpt lat="45.16075" lon="5.89099">
        <ele>886.8</ele>
        <time>2021-04-10T10:30:31Z</time>
      </trkpt>
      <trkpt lat="45.16075" lon="5.89095">
        <ele>886</ele>
        <time>2021-04-10T10:30:32Z</time>
      </trkpt>
      <trkpt lat="45.16074" lon="5.89092">
        <ele>885.2</ele>
        <time>2021-04-10T10:30:33Z</time>
      </trkpt>
      <trkpt lat="45.16073" lon="5.89089">
        <ele>884.4</ele>
        <time>2021-04-10T10:30:34Z</time>
      </trkpt>
      <trkpt lat="45.16072" lon="5.89086">
        <ele>883.6</ele>
        <time>2021-04-10T10:30:35Z</time>
      </trkpt>
      <trkpt lat="45.16072" lon="5.89086">
        <ele>883.2</ele>
        <time>2021-04-10T10:30:36Z</time>
      </trkpt>
      <trkpt lat="45.16072" lon="5.89086">
        <ele>883</ele>
        <time>2021-04-10T10:30:37Z</time>
      </trkpt>
      <trkpt lat="45.16072" lon="5.89086">
        <ele>882.8</ele>
        <time>2021-04-10T10:30:38Z</time>
      </trkpt>
      <trkpt lat="45.16072" lon="5.89084">
        <ele>882.2</ele>
        <time>2021-04-10T10:30:39Z</time>
      </trkpt>
      <trkpt lat="45.16071" lon="5.89082">
        <ele>881.6</ele>
        <time>2021-04-10T10:30:40Z</time>
      </trkpt>
      <trkpt lat="45.16071" lon="5.8908">
        <ele>881</ele>
        <time>2021-04-10T10:30:41Z</time>
      </trkpt>
      <trkpt lat="45.1607" lon="5.89078">
        <ele>880.6</ele>
        <time>2021-04-10T10:30:42Z</time>
      </trkpt>
      <trkpt lat="45.16069" lon="5.89076">
        <ele>880.2</ele>
        <time>2021-04-10T10:30:43Z</time>
      </trkpt>
      <trkpt lat="45.16069" lon="5.89074">
        <ele>879.8</ele>
        <time>2021-04-10T10:30:44Z</time>
      </trkpt>
      <trkpt lat="45.16068" lon="5.89073">
        <ele>879.4</ele>
        <time>2021-04-10T10:30:45Z</time>
      </trkpt>
      <trkpt lat="45.16067" lon="5.89071">
        <ele>879</ele>
        <time>2021-04-10T10:30:46Z</time>
      </trkpt>
      <trkpt lat="45.16067" lon="5.8907">
        <ele>879</ele>
        <time>2021-04-10T10:30:47Z</time>
      </trkpt>
      <trkpt lat="45.16066" lon="5.89069">
        <ele>878.8</ele>
        <time>2021-04-10T10:30:48Z</time>
      </trkpt>
      <trkpt lat="45.16065" lon="5.89068">
        <ele>878.2</ele>
        <time>2021-04-10T10:30:49Z</time>
      </trkpt>
      <trkpt lat="45.16065" lon="5.89066">
        <ele>877.6</ele>
        <time>2021-04-10T10:30:50Z</time>
      </trkpt>
      <trkpt lat="45.16064" lon="5.89065">
        <ele>877.4</ele>
        <time>2021-04-10T10:30:51Z</time>
      </trkpt>
      <trkpt lat="45.16063" lon="5.89064">
        <ele>877.2</ele>
        <time>2021-04-10T10:30:52Z</time>
      </trkpt>
      <trkpt lat="45.16063" lon="5.89062">
        <ele>877.4</ele>
        <time>2021-04-10T10:30:53Z</time>
      </trkpt>
      <trkpt lat="45.16063" lon="5.89061">
        <ele>877.4</ele>
        <time>2021-04-10T10:30:54Z</time>
      </trkpt>
      <trkpt lat="45.16063" lon="5.8906">
        <ele>877.4</ele>
        <time>2021-04-10T10:30:55Z</time>
      </trkpt>
      <trkpt lat="45.16063" lon="5.89058">
        <ele>877.2</ele>
        <time>2021-04-10T10:30:56Z</time>
      </trkpt>
      <trkpt lat="45.16063" lon="5.89057">
        <ele>877</ele>
        <time>2021-04-10T10:30:57Z</time>
      </trkpt>
      <trkpt lat="45.16063" lon="5.89055">
        <ele>877.2</ele>
        <time>2021-04-10T10:30:58Z</time>
      </trkpt>
      <trkpt lat="45.16063" lon="5.89054">
        <ele>876.8</ele>
        <time>2021-04-10T10:30:59Z</time>
      </trkpt>
      <trkpt lat="45.16063" lon="5.89052">
        <ele>876.6</ele>
        <time>2021-04-10T10:31:00Z</time>
      </trkpt>
      <trkpt lat="45.16063" lon="5.89051">
        <ele>876.4</ele>
        <time>2021-04-10T10:31:01Z</time>
      </trkpt>
      <trkpt lat="45.16064" lon="5.89049">
        <ele>876.2</ele>
        <time>2021-04-10T10:31:02Z</time>
      </trkpt>
      <trkpt lat="45.16065" lon="5.89048">
        <ele>876</ele>
        <time>2021-04-10T10:31:03Z</time>
      </trkpt>
      <trkpt lat="45.16066" lon="5.89047">
        <ele>876</ele>
        <time>2021-04-10T10:31:04Z</time>
      </trkpt>
      <trkpt lat="45.16066" lon="5.89045">
        <ele>875.8</ele>
        <time>2021-04-10T10:31:05Z</time>
      </trkpt>
      <trkpt lat="45.16067" lon="5.89044">
        <ele>875.8</ele>
        <time>2021-04-10T10:31:06Z</time>
      </trkpt>
      <trkpt lat="45.16068" lon="5.89042">
        <ele>875.6</ele>
        <time>2021-04-10T10:31:07Z</time>
      </trkpt>
      <trkpt lat="45.16068" lon="5.89041">
        <ele>875.2</ele>
        <time>2021-04-10T10:31:08Z</time>
      </trkpt>
      <trkpt lat="45.16069" lon="5.89039">
        <ele>875.4</ele>
        <time>2021-04-10T10:31:09Z</time>
      </trkpt>
      <trkpt lat="45.16071" lon="5.89037">
        <ele>875.4</ele>
        <time>2021-04-10T10:31:10Z</time>
      </trkpt>
      <trkpt lat="45.16073" lon="5.89035">
        <ele>875</ele>
        <time>2021-04-10T10:31:11Z</time>
      </trkpt>
      <trkpt lat="45.16075" lon="5.89032">
        <ele>875.2</ele>
        <time>2021-04-10T10:31:12Z</time>
      </trkpt>
      <trkpt lat="45.16076" lon="5.8903">
        <ele>875</ele>
        <time>2021-04-10T10:31:13Z</time>
      </trkpt>
      <trkpt lat="45.16078" lon="5.89028">
        <ele>875</ele>
        <time>2021-04-10T10:31:14Z</time>
      </trkpt>
      <trkpt lat="45.1608" lon="5.89026">
        <ele>874.8</ele>
        <time>2021-04-10T10:31:15Z</time>
      </trkpt>
      <trkpt lat="45.16085" lon="5.89025">
        <ele>874.4</ele>
        <time>2021-04-10T10:31:16Z</time>
      </trkpt>
      <trkpt lat="45.16085" lon="5.89025">
        <ele>874.4</ele>
        <time>2021-04-10T10:31:17Z</time>
      </trkpt>
      <trkpt lat="45.16085" lon="5.89025">
        <ele>874.4</ele>
        <time>2021-04-10T10:31:18Z</time>
      </trkpt>
      <trkpt lat="45.16085" lon="5.89025">
        <ele>874.2</ele>
        <time>2021-04-10T10:31:19Z</time>
      </trkpt>
      <trkpt lat="45.16086" lon="5.89022">
        <ele>873.8</ele>
        <time>2021-04-10T10:31:20Z</time>
      </trkpt>
      <trkpt lat="45.16086" lon="5.8902">
        <ele>873.2</ele>
        <time>2021-04-10T10:31:21Z</time>
      </trkpt>
      <trkpt lat="45.16087" lon="5.89018">
        <ele>873</ele>
        <time>2021-04-10T10:31:22Z</time>
      </trkpt>
      <trkpt lat="45.16087" lon="5.89016">
        <ele>872.8</ele>
        <time>2021-04-10T10:31:23Z</time>
      </trkpt>
      <trkpt lat="45.16088" lon="5.89014">
        <ele>872.4</ele>
        <time>2021-04-10T10:31:24Z</time>
      </trkpt>
      <trkpt lat="45.16088" lon="5.89011">
        <ele>872.2</ele>
        <time>2021-04-10T10:31:25Z</time>
      </trkpt>
      <trkpt lat="45.16088" lon="5.89009">
        <ele>871.8</ele>
        <time>2021-04-10T10:31:26Z</time>
      </trkpt>
      <trkpt lat="45.16088" lon="5.89007">
        <ele>871.4</ele>
        <time>2021-04-10T10:31:27Z</time>
      </trkpt>
      <trkpt lat="45.16087" lon="5.89005">
        <ele>871.2</ele>
        <time>2021-04-10T10:31:28Z</time>
      </trkpt>
      <trkpt lat="45.16087" lon="5.89002">
        <ele>871</ele>
        <time>2021-04-10T10:31:29Z</time>
      </trkpt>
      <trkpt lat="45.16087" lon="5.89">
        <ele>870.6</ele>
        <time>2021-04-10T10:31:30Z</time>
      </trkpt>
      <trkpt lat="45.16086" lon="5.88998">
        <ele>870.6</ele>
        <time>2021-04-10T10:31:31Z</time>
      </trkpt>
      <trkpt lat="45.16087" lon="5.88995">
        <ele>870.2</ele>
        <time>2021-04-10T10:31:32Z</time>
      </trkpt>
      <trkpt lat="45.16088" lon="5.88993">
        <ele>869.8</ele>
        <time>2021-04-10T10:31:33Z</time>
      </trkpt>
      <trkpt lat="45.16089" lon="5.88991">
        <ele>869.4</ele>
        <time>2021-04-10T10:31:34Z</time>
      </trkpt>
      <trkpt lat="45.1609" lon="5.88989">
        <ele>868.6</ele>
        <time>2021-04-10T10:31:35Z</time>
      </trkpt>
      <trkpt lat="45.1609" lon="5.88986">
        <ele>867.8</ele>
        <time>2021-04-10T10:31:36Z</time>
      </trkpt>
      <trkpt lat="45.16091" lon="5.88984">
        <ele>867</ele>
        <time>2021-04-10T10:31:37Z</time>
      </trkpt>
      <trkpt lat="45.16092" lon="5.88982">
        <ele>867</ele>
        <time>2021-04-10T10:31:38Z</time>
      </trkpt>
      <trkpt lat="45.16093" lon="5.88979">
        <ele>866.6</ele>
        <time>2021-04-10T10:31:39Z</time>
      </trkpt>
      <trkpt lat="45.16094" lon="5.88977">
        <ele>866.6</ele>
        <time>2021-04-10T10:31:40Z</time>
      </trkpt>
      <trkpt lat="45.16095" lon="5.88974">
        <ele>866</ele>
        <time>2021-04-10T10:31:41Z</time>
      </trkpt>
      <trkpt lat="45.16096" lon="5.88972">
        <ele>865.8</ele>
        <time>2021-04-10T10:31:42Z</time>
      </trkpt>
      <trkpt lat="45.16096" lon="5.88965">
        <ele>865.4</ele>
        <time>2021-04-10T10:31:43Z</time>
      </trkpt>
      <trkpt lat="45.16096" lon="5.88958">
        <ele>865</ele>
        <time>2021-04-10T10:31:44Z</time>
      </trkpt>
      <trkpt lat="45.16097" lon="5.88951">
        <ele>864.6</ele>
        <time>2021-04-10T10:31:45Z</time>
      </trkpt>
      <trkpt lat="45.16097" lon="5.88944">
        <ele>864.4</ele>
        <time>2021-04-10T10:31:46Z</time>
      </trkpt>
      <trkpt lat="45.16098" lon="5.88936">
        <ele>863.8</ele>
        <time>2021-04-10T10:31:47Z</time>
      </trkpt>
      <trkpt lat="45.16099" lon="5.8893">
        <ele>863.6</ele>
        <time>2021-04-10T10:31:48Z</time>
      </trkpt>
      <trkpt lat="45.161" lon="5.88923">
        <ele>863</ele>
        <time>2021-04-10T10:31:49Z</time>
      </trkpt>
      <trkpt lat="45.16101" lon="5.8892">
        <ele>862.6</ele>
        <time>2021-04-10T10:31:50Z</time>
      </trkpt>
      <trkpt lat="45.16102" lon="5.88918">
        <ele>862</ele>
        <time>2021-04-10T10:31:51Z</time>
      </trkpt>
      <trkpt lat="45.16102" lon="5.88916">
        <ele>861.6</ele>
        <time>2021-04-10T10:31:52Z</time>
      </trkpt>
      <trkpt lat="45.16103" lon="5.88913">
        <ele>861.2</ele>
        <time>2021-04-10T10:31:53Z</time>
      </trkpt>
      <trkpt lat="45.16106" lon="5.88904">
        <ele>860.8</ele>
        <time>2021-04-10T10:31:54Z</time>
      </trkpt>
      <trkpt lat="45.16107" lon="5.88903">
        <ele>860.2</ele>
        <time>2021-04-10T10:31:55Z</time>
      </trkpt>
      <trkpt lat="45.16107" lon="5.88901">
        <ele>859.6</ele>
        <time>2021-04-10T10:31:56Z</time>
      </trkpt>
      <trkpt lat="45.1611" lon="5.88896">
        <ele>859</ele>
        <time>2021-04-10T10:31:57Z</time>
      </trkpt>
      <trkpt lat="45.16111" lon="5.88892">
        <ele>858.2</ele>
        <time>2021-04-10T10:31:58Z</time>
      </trkpt>
      <trkpt lat="45.16113" lon="5.88888">
        <ele>857.6</ele>
        <time>2021-04-10T10:31:59Z</time>
      </trkpt>
      <trkpt lat="45.16114" lon="5.88885">
        <ele>856.8</ele>
        <time>2021-04-10T10:32:00Z</time>
      </trkpt>
      <trkpt lat="45.16115" lon="5.88883">
        <ele>856.6</ele>
        <time>2021-04-10T10:32:01Z</time>
      </trkpt>
      <trkpt lat="45.16116" lon="5.88881">
        <ele>856.2</ele>
        <time>2021-04-10T10:32:02Z</time>
      </trkpt>
      <trkpt lat="45.16116" lon="5.88879">
        <ele>856.2</ele>
        <time>2021-04-10T10:32:03Z</time>
      </trkpt>
      <trkpt lat="45.16117" lon="5.88878">
        <ele>855.6</ele>
        <time>2021-04-10T10:32:04Z</time>
      </trkpt>
      <trkpt lat="45.16118" lon="5.88876">
        <ele>855</ele>
        <time>2021-04-10T10:32:05Z</time>
      </trkpt>
      <trkpt lat="45.16118" lon="5.88874">
        <ele>854.2</ele>
        <time>2021-04-10T10:32:06Z</time>
      </trkpt>
      <trkpt lat="45.16119" lon="5.88872">
        <ele>853.6</ele>
        <time>2021-04-10T10:32:07Z</time>
      </trkpt>
      <trkpt lat="45.1612" lon="5.8887">
        <ele>852.8</ele>
        <time>2021-04-10T10:32:08Z</time>
      </trkpt>
      <trkpt lat="45.16121" lon="5.88869">
        <ele>852</ele>
        <time>2021-04-10T10:32:09Z</time>
      </trkpt>
      <trkpt lat="45.16121" lon="5.88867">
        <ele>851.2</ele>
        <time>2021-04-10T10:32:10Z</time>
      </trkpt>
      <trkpt lat="45.16122" lon="5.88865">
        <ele>850.6</ele>
        <time>2021-04-10T10:32:11Z</time>
      </trkpt>
      <trkpt lat="45.16123" lon="5.88863">
        <ele>850.4</ele>
        <time>2021-04-10T10:32:12Z</time>
      </trkpt>
      <trkpt lat="45.16123" lon="5.88862">
        <ele>849.8</ele>
        <time>2021-04-10T10:32:13Z</time>
      </trkpt>
      <trkpt lat="45.16124" lon="5.8886">
        <ele>850</ele>
        <time>2021-04-10T10:32:14Z</time>
      </trkpt>
      <trkpt lat="45.16125" lon="5.88858">
        <ele>849.6</ele>
        <time>2021-04-10T10:32:15Z</time>
      </trkpt>
      <trkpt lat="45.16125" lon="5.88856">
        <ele>849.6</ele>
        <time>2021-04-10T10:32:16Z</time>
      </trkpt>
      <trkpt lat="45.16126" lon="5.88854">
        <ele>849</ele>
        <time>2021-04-10T10:32:17Z</time>
      </trkpt>
      <trkpt lat="45.16127" lon="5.88853">
        <ele>849</ele>
        <time>2021-04-10T10:32:18Z</time>
      </trkpt>
      <trkpt lat="45.16127" lon="5.88851">
        <ele>848.4</ele>
        <time>2021-04-10T10:32:19Z</time>
      </trkpt>
      <trkpt lat="45.16128" lon="5.88849">
        <ele>848</ele>
        <time>2021-04-10T10:32:20Z</time>
      </trkpt>
      <trkpt lat="45.16129" lon="5.88847">
        <ele>847.2</ele>
        <time>2021-04-10T10:32:21Z</time>
      </trkpt>
      <trkpt lat="45.16129" lon="5.88845">
        <ele>846.4</ele>
        <time>2021-04-10T10:32:22Z</time>
      </trkpt>
      <trkpt lat="45.1613" lon="5.88844">
        <ele>846</ele>
        <time>2021-04-10T10:32:23Z</time>
      </trkpt>
      <trkpt lat="45.16131" lon="5.88842">
        <ele>845.4</ele>
        <time>2021-04-10T10:32:24Z</time>
      </trkpt>
      <trkpt lat="45.16131" lon="5.8884">
        <ele>844.8</ele>
        <time>2021-04-10T10:32:25Z</time>
      </trkpt>
      <trkpt lat="45.16135" lon="5.88832">
        <ele>844.2</ele>
        <time>2021-04-10T10:32:26Z</time>
      </trkpt>
      <trkpt lat="45.16135" lon="5.88827">
        <ele>843.8</ele>
        <time>2021-04-10T10:32:27Z</time>
      </trkpt>
      <trkpt lat="45.16136" lon="5.88824">
        <ele>843.4</ele>
        <time>2021-04-10T10:32:28Z</time>
      </trkpt>
      <trkpt lat="45.16136" lon="5.88822">
        <ele>843</ele>
        <time>2021-04-10T10:32:29Z</time>
      </trkpt>
      <trkpt lat="45.16136" lon="5.88822">
        <ele>842.8</ele>
        <time>2021-04-10T10:32:30Z</time>
      </trkpt>
      <trkpt lat="45.16136" lon="5.88822">
        <ele>842.6</ele>
        <time>2021-04-10T10:32:31Z</time>
      </trkpt>
      <trkpt lat="45.16137" lon="5.88819">
        <ele>842.2</ele>
        <time>2021-04-10T10:32:32Z</time>
      </trkpt>
      <trkpt lat="45.16137" lon="5.88817">
        <ele>841.8</ele>
        <time>2021-04-10T10:32:33Z</time>
      </trkpt>
      <trkpt lat="45.16138" lon="5.88814">
        <ele>841.4</ele>
        <time>2021-04-10T10:32:34Z</time>
      </trkpt>
      <trkpt lat="45.16138" lon="5.88811">
        <ele>841.2</ele>
        <time>2021-04-10T10:32:35Z</time>
      </trkpt>
      <trkpt lat="45.16139" lon="5.88809">
        <ele>840.8</ele>
        <time>2021-04-10T10:32:36Z</time>
      </trkpt>
      <trkpt lat="45.16147" lon="5.88803">
        <ele>840</ele>
        <time>2021-04-10T10:32:37Z</time>
      </trkpt>
      <trkpt lat="45.16147" lon="5.88803">
        <ele>839.6</ele>
        <time>2021-04-10T10:32:38Z</time>
      </trkpt>
      <trkpt lat="45.16147" lon="5.88803">
        <ele>838.8</ele>
        <time>2021-04-10T10:32:39Z</time>
      </trkpt>
      <trkpt lat="45.16147" lon="5.88803">
        <ele>838.4</ele>
        <time>2021-04-10T10:32:40Z</time>
      </trkpt>
      <trkpt lat="45.16149" lon="5.88802">
        <ele>838.4</ele>
        <time>2021-04-10T10:32:41Z</time>
      </trkpt>
      <trkpt lat="45.16151" lon="5.88801">
        <ele>838</ele>
        <time>2021-04-10T10:32:42Z</time>
      </trkpt>
      <trkpt lat="45.16153" lon="5.88801">
        <ele>837.8</ele>
        <time>2021-04-10T10:32:43Z</time>
      </trkpt>
      <trkpt lat="45.16155" lon="5.888">
        <ele>837</ele>
        <time>2021-04-10T10:32:44Z</time>
      </trkpt>
      <trkpt lat="45.16156" lon="5.888">
        <ele>836.6</ele>
        <time>2021-04-10T10:32:45Z</time>
      </trkpt>
      <trkpt lat="45.16154" lon="5.88802">
        <ele>836</ele>
        <time>2021-04-10T10:32:46Z</time>
      </trkpt>
      <trkpt lat="45.16152" lon="5.88803">
        <ele>835.4</ele>
        <time>2021-04-10T10:32:47Z</time>
      </trkpt>
      <trkpt lat="45.1615" lon="5.88805">
        <ele>835.4</ele>
        <time>2021-04-10T10:32:48Z</time>
      </trkpt>
      <trkpt lat="45.16149" lon="5.88806">
        <ele>835</ele>
        <time>2021-04-10T10:32:49Z</time>
      </trkpt>
      <trkpt lat="45.16147" lon="5.88807">
        <ele>834.8</ele>
        <time>2021-04-10T10:32:50Z</time>
      </trkpt>
      <trkpt lat="45.16145" lon="5.88808">
        <ele>834.2</ele>
        <time>2021-04-10T10:32:51Z</time>
      </trkpt>
      <trkpt lat="45.16144" lon="5.8881">
        <ele>833.8</ele>
        <time>2021-04-10T10:32:52Z</time>
      </trkpt>
      <trkpt lat="45.16142" lon="5.88811">
        <ele>832.8</ele>
        <time>2021-04-10T10:32:53Z</time>
      </trkpt>
      <trkpt lat="45.16141" lon="5.88812">
        <ele>832.2</ele>
        <time>2021-04-10T10:32:54Z</time>
      </trkpt>
      <trkpt lat="45.16139" lon="5.88813">
        <ele>831.6</ele>
        <time>2021-04-10T10:32:55Z</time>
      </trkpt>
      <trkpt lat="45.16137" lon="5.88815">
        <ele>831</ele>
        <time>2021-04-10T10:32:56Z</time>
      </trkpt>
      <trkpt lat="45.16135" lon="5.88816">
        <ele>831</ele>
        <time>2021-04-10T10:32:57Z</time>
      </trkpt>
      <trkpt lat="45.16133" lon="5.88817">
        <ele>830.4</ele>
        <time>2021-04-10T10:32:58Z</time>
      </trkpt>
      <trkpt lat="45.16131" lon="5.88818">
        <ele>830.2</ele>
        <time>2021-04-10T10:32:59Z</time>
      </trkpt>
      <trkpt lat="45.16126" lon="5.88821">
        <ele>829.6</ele>
        <time>2021-04-10T10:33:00Z</time>
      </trkpt>
      <trkpt lat="45.16121" lon="5.88824">
        <ele>829.2</ele>
        <time>2021-04-10T10:33:01Z</time>
      </trkpt>
      <trkpt lat="45.16117" lon="5.88821">
        <ele>828.6</ele>
        <time>2021-04-10T10:33:02Z</time>
      </trkpt>
      <trkpt lat="45.16115" lon="5.8882">
        <ele>828.2</ele>
        <time>2021-04-10T10:33:03Z</time>
      </trkpt>
      <trkpt lat="45.16112" lon="5.88818">
        <ele>827.8</ele>
        <time>2021-04-10T10:33:04Z</time>
      </trkpt>
      <trkpt lat="45.1611" lon="5.88817">
        <ele>826.8</ele>
        <time>2021-04-10T10:33:05Z</time>
      </trkpt>
      <trkpt lat="45.16108" lon="5.88814">
        <ele>827</ele>
        <time>2021-04-10T10:33:06Z</time>
      </trkpt>
      <trkpt lat="45.16106" lon="5.88811">
        <ele>826.6</ele>
        <time>2021-04-10T10:33:07Z</time>
      </trkpt>
      <trkpt lat="45.16104" lon="5.88809">
        <ele>826.6</ele>
        <time>2021-04-10T10:33:08Z</time>
      </trkpt>
      <trkpt lat="45.16101" lon="5.88797">
        <ele>826.2</ele>
        <time>2021-04-10T10:33:09Z</time>
      </trkpt>
      <trkpt lat="45.161" lon="5.88793">
        <ele>825.8</ele>
        <time>2021-04-10T10:33:10Z</time>
      </trkpt>
      <trkpt lat="45.161" lon="5.88789">
        <ele>825.2</ele>
        <time>2021-04-10T10:33:11Z</time>
      </trkpt>
      <trkpt lat="45.16099" lon="5.88782">
        <ele>824.4</ele>
        <time>2021-04-10T10:33:12Z</time>
      </trkpt>
      <trkpt lat="45.16099" lon="5.88782">
        <ele>824.4</ele>
        <time>2021-04-10T10:33:13Z</time>
      </trkpt>
      <trkpt lat="45.16099" lon="5.88782">
        <ele>824.2</ele>
        <time>2021-04-10T10:33:14Z</time>
      </trkpt>
      <trkpt lat="45.16099" lon="5.88782">
        <ele>823.6</ele>
        <time>2021-04-10T10:33:15Z</time>
      </trkpt>
      <trkpt lat="45.16098" lon="5.88779">
        <ele>823.2</ele>
        <time>2021-04-10T10:33:16Z</time>
      </trkpt>
      <trkpt lat="45.16097" lon="5.88777">
        <ele>823</ele>
        <time>2021-04-10T10:33:17Z</time>
      </trkpt>
      <trkpt lat="45.16097" lon="5.88774">
        <ele>823</ele>
        <time>2021-04-10T10:33:18Z</time>
      </trkpt>
      <trkpt lat="45.16096" lon="5.88771">
        <ele>822.8</ele>
        <time>2021-04-10T10:33:19Z</time>
      </trkpt>
      <trkpt lat="45.16096" lon="5.88769">
        <ele>822.6</ele>
        <time>2021-04-10T10:33:20Z</time>
      </trkpt>
      <trkpt lat="45.16098" lon="5.88767">
        <ele>822.6</ele>
        <time>2021-04-10T10:33:21Z</time>
      </trkpt>
      <trkpt lat="45.161" lon="5.88765">
        <ele>822.4</ele>
        <time>2021-04-10T10:33:22Z</time>
      </trkpt>
      <trkpt lat="45.16103" lon="5.88763">
        <ele>822.4</ele>
        <time>2021-04-10T10:33:23Z</time>
      </trkpt>
      <trkpt lat="45.16105" lon="5.88761">
        <ele>822.4</ele>
        <time>2021-04-10T10:33:24Z</time>
      </trkpt>
      <trkpt lat="45.16108" lon="5.88758">
        <ele>822.2</ele>
        <time>2021-04-10T10:33:25Z</time>
      </trkpt>
      <trkpt lat="45.1611" lon="5.88756">
        <ele>822.2</ele>
        <time>2021-04-10T10:33:26Z</time>
      </trkpt>
      <trkpt lat="45.16116" lon="5.88754">
        <ele>822</ele>
        <time>2021-04-10T10:33:27Z</time>
      </trkpt>
      <trkpt lat="45.16116" lon="5.88754">
        <ele>822</ele>
        <time>2021-04-10T10:33:28Z</time>
      </trkpt>
      <trkpt lat="45.16117" lon="5.88754">
        <ele>822</ele>
        <time>2021-04-10T10:33:29Z</time>
      </trkpt>
      <trkpt lat="45.16117" lon="5.88754">
        <ele>821.8</ele>
        <time>2021-04-10T10:33:30Z</time>
      </trkpt>
      <trkpt lat="45.16118" lon="5.88753">
        <ele>821.8</ele>
        <time>2021-04-10T10:33:31Z</time>
      </trkpt>
      <trkpt lat="45.16118" lon="5.88753">
        <ele>821.8</ele>
        <time>2021-04-10T10:33:32Z</time>
      </trkpt>
      <trkpt lat="45.16118" lon="5.88753">
        <ele>821.6</ele>
        <time>2021-04-10T10:33:33Z</time>
      </trkpt>
      <trkpt lat="45.16119" lon="5.88753">
        <ele>821.6</ele>
        <time>2021-04-10T10:33:34Z</time>
      </trkpt>
      <trkpt lat="45.16119" lon="5.88752">
        <ele>821.8</ele>
        <time>2021-04-10T10:33:35Z</time>
      </trkpt>
      <trkpt lat="45.1612" lon="5.88752">
        <ele>821.8</ele>
        <time>2021-04-10T10:33:36Z</time>
      </trkpt>
      <trkpt lat="45.1612" lon="5.88752">
        <ele>821.6</ele>
        <time>2021-04-10T10:33:37Z</time>
      </trkpt>
      <trkpt lat="45.16121" lon="5.88752">
        <ele>821.6</ele>
        <time>2021-04-10T10:33:38Z</time>
      </trkpt>
      <trkpt lat="45.16121" lon="5.88751">
        <ele>821.8</ele>
        <time>2021-04-10T10:33:39Z</time>
      </trkpt>
      <trkpt lat="45.16122" lon="5.88751">
        <ele>821.6</ele>
        <time>2021-04-10T10:33:40Z</time>
      </trkpt>
      <trkpt lat="45.16122" lon="5.88751">
        <ele>821.6</ele>
        <time>2021-04-10T10:33:41Z</time>
      </trkpt>
      <trkpt lat="45.16123" lon="5.88751">
        <ele>821.6</ele>
        <time>2021-04-10T10:33:42Z</time>
      </trkpt>
      <trkpt lat="45.16123" lon="5.8875">
        <ele>821.6</ele>
        <time>2021-04-10T10:33:43Z</time>
      </trkpt>
      <trkpt lat="45.16124" lon="5.8875">
        <ele>821.6</ele>
        <time>2021-04-10T10:33:44Z</time>
      </trkpt>
      <trkpt lat="45.16124" lon="5.8875">
        <ele>821.6</ele>
        <time>2021-04-10T10:33:45Z</time>
      </trkpt>
      <trkpt lat="45.16124" lon="5.8875">
        <ele>821.6</ele>
        <time>2021-04-10T10:33:46Z</time>
      </trkpt>
      <trkpt lat="45.16125" lon="5.88749">
        <ele>821.4</ele>
        <time>2021-04-10T10:33:47Z</time>
      </trkpt>
      <trkpt lat="45.16125" lon="5.88749">
        <ele>821.4</ele>
        <time>2021-04-10T10:33:48Z</time>
      </trkpt>
      <trkpt lat="45.16126" lon="5.88749">
        <ele>821.4</ele>
        <time>2021-04-10T10:33:49Z</time>
      </trkpt>
      <trkpt lat="45.16126" lon="5.88749">
        <ele>821.4</ele>
        <time>2021-04-10T10:33:50Z</time>
      </trkpt>
      <trkpt lat="45.16127" lon="5.88748">
        <ele>821.4</ele>
        <time>2021-04-10T10:33:51Z</time>
      </trkpt>
      <trkpt lat="45.16127" lon="5.88748">
        <ele>821.4</ele>
        <time>2021-04-10T10:33:52Z</time>
      </trkpt>
      <trkpt lat="45.16128" lon="5.88748">
        <ele>821.4</ele>
        <time>2021-04-10T10:33:53Z</time>
      </trkpt>
      <trkpt lat="45.16128" lon="5.88748">
        <ele>821</ele>
        <time>2021-04-10T10:33:54Z</time>
      </trkpt>
      <trkpt lat="45.16129" lon="5.88747">
        <ele>820.8</ele>
        <time>2021-04-10T10:33:55Z</time>
      </trkpt>
      <trkpt lat="45.16129" lon="5.88747">
        <ele>820.8</ele>
        <time>2021-04-10T10:33:56Z</time>
      </trkpt>
      <trkpt lat="45.16129" lon="5.88747">
        <ele>820.6</ele>
        <time>2021-04-10T10:33:57Z</time>
      </trkpt>
      <trkpt lat="45.1613" lon="5.88747">
        <ele>820.6</ele>
        <time>2021-04-10T10:33:58Z</time>
      </trkpt>
      <trkpt lat="45.1613" lon="5.88746">
        <ele>820.6</ele>
        <time>2021-04-10T10:33:59Z</time>
      </trkpt>
      <trkpt lat="45.16131" lon="5.88746">
        <ele>820.6</ele>
        <time>2021-04-10T10:34:00Z</time>
      </trkpt>
      <trkpt lat="45.16131" lon="5.88746">
        <ele>820.6</ele>
        <time>2021-04-10T10:34:01Z</time>
      </trkpt>
      <trkpt lat="45.16132" lon="5.88746">
        <ele>820.4</ele>
        <time>2021-04-10T10:34:02Z</time>
      </trkpt>
      <trkpt lat="45.16132" lon="5.88745">
        <ele>820.4</ele>
        <time>2021-04-10T10:34:03Z</time>
      </trkpt>
      <trkpt lat="45.16133" lon="5.88745">
        <ele>820.4</ele>
        <time>2021-04-10T10:34:04Z</time>
      </trkpt>
      <trkpt lat="45.16133" lon="5.88745">
        <ele>820.4</ele>
        <time>2021-04-10T10:34:05Z</time>
      </trkpt>
      <trkpt lat="45.16134" lon="5.88745">
        <ele>820.2</ele>
        <time>2021-04-10T10:34:06Z</time>
      </trkpt>
      <trkpt lat="45.16134" lon="5.88744">
        <ele>820.2</ele>
        <time>2021-04-10T10:34:07Z</time>
      </trkpt>
      <trkpt lat="45.16135" lon="5.88744">
        <ele>820.2</ele>
        <time>2021-04-10T10:34:08Z</time>
      </trkpt>
      <trkpt lat="45.16135" lon="5.88744">
        <ele>820.2</ele>
        <time>2021-04-10T10:34:09Z</time>
      </trkpt>
      <trkpt lat="45.16135" lon="5.88744">
        <ele>820.2</ele>
        <time>2021-04-10T10:34:10Z</time>
      </trkpt>
      <trkpt lat="45.16136" lon="5.88743">
        <ele>820.4</ele>
        <time>2021-04-10T10:34:11Z</time>
      </trkpt>
      <trkpt lat="45.16136" lon="5.88743">
        <ele>820.2</ele>
        <time>2021-04-10T10:34:12Z</time>
      </trkpt>
      <trkpt lat="45.16137" lon="5.88743">
        <ele>820.4</ele>
        <time>2021-04-10T10:34:13Z</time>
      </trkpt>
      <trkpt lat="45.16137" lon="5.88743">
        <ele>820.4</ele>
        <time>2021-04-10T10:34:14Z</time>
      </trkpt>
      <trkpt lat="45.16137" lon="5.88743">
        <ele>820.4</ele>
        <time>2021-04-10T10:34:15Z</time>
      </trkpt>
      <trkpt lat="45.16137" lon="5.88743">
        <ele>820.6</ele>
        <time>2021-04-10T10:34:16Z</time>
      </trkpt>
      <trkpt lat="45.16137" lon="5.88742">
        <ele>820.6</ele>
        <time>2021-04-10T10:34:17Z</time>
      </trkpt>
      <trkpt lat="45.16136" lon="5.88742">
        <ele>820.4</ele>
        <time>2021-04-10T10:34:18Z</time>
      </trkpt>
      <trkpt lat="45.16135" lon="5.88742">
        <ele>820.4</ele>
        <time>2021-04-10T10:34:19Z</time>
      </trkpt>
      <trkpt lat="45.16134" lon="5.88742">
        <ele>820.4</ele>
        <time>2021-04-10T10:34:20Z</time>
      </trkpt>
      <trkpt lat="45.16134" lon="5.88741">
        <ele>820.4</ele>
        <time>2021-04-10T10:34:21Z</time>
      </trkpt>
      <trkpt lat="45.16133" lon="5.88741">
        <ele>820.4</ele>
        <time>2021-04-10T10:34:22Z</time>
      </trkpt>
      <trkpt lat="45.16132" lon="5.88741">
        <ele>820.4</ele>
        <time>2021-04-10T10:34:23Z</time>
      </trkpt>
      <trkpt lat="45.16131" lon="5.8874">
        <ele>820.2</ele>
        <time>2021-04-10T10:34:24Z</time>
      </trkpt>
      <trkpt lat="45.16131" lon="5.8874">
        <ele>820.4</ele>
        <time>2021-04-10T10:34:25Z</time>
      </trkpt>
      <trkpt lat="45.1613" lon="5.8874">
        <ele>820.4</ele>
        <time>2021-04-10T10:34:26Z</time>
      </trkpt>
      <trkpt lat="45.16129" lon="5.8874">
        <ele>820.4</ele>
        <time>2021-04-10T10:34:27Z</time>
      </trkpt>
      <trkpt lat="45.16129" lon="5.88739">
        <ele>820.4</ele>
        <time>2021-04-10T10:34:28Z</time>
      </trkpt>
      <trkpt lat="45.16128" lon="5.88739">
        <ele>820.4</ele>
        <time>2021-04-10T10:34:29Z</time>
      </trkpt>
      <trkpt lat="45.16128" lon="5.88738">
        <ele>820.4</ele>
        <time>2021-04-10T10:34:30Z</time>
      </trkpt>
      <trkpt lat="45.16128" lon="5.88737">
        <ele>820.4</ele>
        <time>2021-04-10T10:34:31Z</time>
      </trkpt>
      <trkpt lat="45.16128" lon="5.88736">
        <ele>820.6</ele>
        <time>2021-04-10T10:34:32Z</time>
      </trkpt>
      <trkpt lat="45.16129" lon="5.88735">
        <ele>820.6</ele>
        <time>2021-04-10T10:34:33Z</time>
      </trkpt>
      <trkpt lat="45.16129" lon="5.88734">
        <ele>820.6</ele>
        <time>2021-04-10T10:34:34Z</time>
      </trkpt>
      <trkpt lat="45.16129" lon="5.88733">
        <ele>820.4</ele>
        <time>2021-04-10T10:34:35Z</time>
      </trkpt>
      <trkpt lat="45.16129" lon="5.88732">
        <ele>820.4</ele>
        <time>2021-04-10T10:34:36Z</time>
      </trkpt>
      <trkpt lat="45.1613" lon="5.88731">
        <ele>820.2</ele>
        <time>2021-04-10T10:34:37Z</time>
      </trkpt>
      <trkpt lat="45.1613" lon="5.8873">
        <ele>820.2</ele>
        <time>2021-04-10T10:34:38Z</time>
      </trkpt>
      <trkpt lat="45.1613" lon="5.88729">
        <ele>820.2</ele>
        <time>2021-04-10T10:34:39Z</time>
      </trkpt>
      <trkpt lat="45.1613" lon="5.88728">
        <ele>820.2</ele>
        <time>2021-04-10T10:34:40Z</time>
      </trkpt>
      <trkpt lat="45.1613" lon="5.88727">
        <ele>820.2</ele>
        <time>2021-04-10T10:34:41Z</time>
      </trkpt>
      <trkpt lat="45.16131" lon="5.88726">
        <ele>820.2</ele>
        <time>2021-04-10T10:34:42Z</time>
      </trkpt>
      <trkpt lat="45.16131" lon="5.88727">
        <ele>820</ele>
        <time>2021-04-10T10:34:43Z</time>
      </trkpt>
      <trkpt lat="45.16132" lon="5.88727">
        <ele>820.2</ele>
        <time>2021-04-10T10:34:44Z</time>
      </trkpt>
      <trkpt lat="45.16132" lon="5.88728">
        <ele>820</ele>
        <time>2021-04-10T10:34:45Z</time>
      </trkpt>
      <trkpt lat="45.16133" lon="5.88728">
        <ele>820</ele>
        <time>2021-04-10T10:34:46Z</time>
      </trkpt>
      <trkpt lat="45.16133" lon="5.88729">
        <ele>820.2</ele>
        <time>2021-04-10T10:34:47Z</time>
      </trkpt>
      <trkpt lat="45.16133" lon="5.88729">
        <ele>820</ele>
        <time>2021-04-10T10:34:48Z</time>
      </trkpt>
      <trkpt lat="45.16134" lon="5.88729">
        <ele>820.2</ele>
        <time>2021-04-10T10:34:49Z</time>
      </trkpt>
      <trkpt lat="45.16134" lon="5.8873">
        <ele>820.2</ele>
        <time>2021-04-10T10:34:50Z</time>
      </trkpt>
      <trkpt lat="45.16135" lon="5.8873">
        <ele>820.2</ele>
        <time>2021-04-10T10:34:51Z</time>
      </trkpt>
      <trkpt lat="45.16135" lon="5.88731">
        <ele>820.2</ele>
        <time>2021-04-10T10:34:52Z</time>
      </trkpt>
      <trkpt lat="45.16136" lon="5.88731">
        <ele>820.4</ele>
        <time>2021-04-10T10:34:53Z</time>
      </trkpt>
      <trkpt lat="45.16136" lon="5.88732">
        <ele>820.2</ele>
        <time>2021-04-10T10:34:54Z</time>
      </trkpt>
      <trkpt lat="45.16137" lon="5.88732">
        <ele>820.2</ele>
        <time>2021-04-10T10:34:55Z</time>
      </trkpt>
      <trkpt lat="45.16137" lon="5.88732">
        <ele>820.2</ele>
        <time>2021-04-10T10:34:56Z</time>
      </trkpt>
      <trkpt lat="45.16138" lon="5.88733">
        <ele>820.2</ele>
        <time>2021-04-10T10:34:57Z</time>
      </trkpt>
      <trkpt lat="45.16138" lon="5.88733">
        <ele>820.2</ele>
        <time>2021-04-10T10:34:58Z</time>
      </trkpt>
      <trkpt lat="45.16139" lon="5.88734">
        <ele>820</ele>
        <time>2021-04-10T10:34:59Z</time>
      </trkpt>
      <trkpt lat="45.16139" lon="5.88734">
        <ele>820</ele>
        <time>2021-04-10T10:35:00Z</time>
      </trkpt>
      <trkpt lat="45.16139" lon="5.88735">
        <ele>820</ele>
        <time>2021-04-10T10:35:01Z</time>
      </trkpt>
      <trkpt lat="45.1614" lon="5.88737">
        <ele>820.2</ele>
        <time>2021-04-10T10:35:02Z</time>
      </trkpt>
      <trkpt lat="45.1614" lon="5.88738">
        <ele>820.4</ele>
        <time>2021-04-10T10:35:03Z</time>
      </trkpt>
      <trkpt lat="45.16141" lon="5.88739">
        <ele>820.6</ele>
        <time>2021-04-10T10:35:04Z</time>
      </trkpt>
      <trkpt lat="45.16141" lon="5.8874">
        <ele>820.8</ele>
        <time>2021-04-10T10:35:05Z</time>
      </trkpt>
      <trkpt lat="45.16141" lon="5.88741">
        <ele>820.8</ele>
        <time>2021-04-10T10:35:06Z</time>
      </trkpt>
      <trkpt lat="45.16142" lon="5.88743">
        <ele>821</ele>
        <time>2021-04-10T10:35:07Z</time>
      </trkpt>
      <trkpt lat="45.16142" lon="5.88744">
        <ele>821</ele>
        <time>2021-04-10T10:35:08Z</time>
      </trkpt>
      <trkpt lat="45.16142" lon="5.88745">
        <ele>821</ele>
        <time>2021-04-10T10:35:09Z</time>
      </trkpt>
      <trkpt lat="45.16143" lon="5.88746">
        <ele>821</ele>
        <time>2021-04-10T10:35:10Z</time>
      </trkpt>
      <trkpt lat="45.16143" lon="5.88747">
        <ele>821</ele>
        <time>2021-04-10T10:35:11Z</time>
      </trkpt>
      <trkpt lat="45.16143" lon="5.88748">
        <ele>821.2</ele>
        <time>2021-04-10T10:35:12Z</time>
      </trkpt>
      <trkpt lat="45.16144" lon="5.8875">
        <ele>821.2</ele>
        <time>2021-04-10T10:35:13Z</time>
      </trkpt>
      <trkpt lat="45.16144" lon="5.88751">
        <ele>821.2</ele>
        <time>2021-04-10T10:35:14Z</time>
      </trkpt>
      <trkpt lat="45.16144" lon="5.88753">
        <ele>821.4</ele>
        <time>2021-04-10T10:35:15Z</time>
      </trkpt>
      <trkpt lat="45.16144" lon="5.88755">
        <ele>821.4</ele>
        <time>2021-04-10T10:35:16Z</time>
      </trkpt>
      <trkpt lat="45.16144" lon="5.88757">
        <ele>821.6</ele>
        <time>2021-04-10T10:35:17Z</time>
      </trkpt>
      <trkpt lat="45.16144" lon="5.88759">
        <ele>821.8</ele>
        <time>2021-04-10T10:35:18Z</time>
      </trkpt>
      <trkpt lat="45.16144" lon="5.88761">
        <ele>822</ele>
        <time>2021-04-10T10:35:19Z</time>
      </trkpt>
      <trkpt lat="45.16144" lon="5.88762">
        <ele>822</ele>
        <time>2021-04-10T10:35:20Z</time>
      </trkpt>
      <trkpt lat="45.16144" lon="5.88759">
        <ele>822</ele>
        <time>2021-04-10T10:35:21Z</time>
      </trkpt>
      <trkpt lat="45.16144" lon="5.88756">
        <ele>822.2</ele>
        <time>2021-04-10T10:35:22Z</time>
      </trkpt>
      <trkpt lat="45.16143" lon="5.88753">
        <ele>822.2</ele>
        <time>2021-04-10T10:35:23Z</time>
      </trkpt>
      <trkpt lat="45.16143" lon="5.8875">
        <ele>822.2</ele>
        <time>2021-04-10T10:35:24Z</time>
      </trkpt>
      <trkpt lat="45.16143" lon="5.88747">
        <ele>822.2</ele>
        <time>2021-04-10T10:35:25Z</time>
      </trkpt>
      <trkpt lat="45.16143" lon="5.88746">
        <ele>822.2</ele>
        <time>2021-04-10T10:35:26Z</time>
      </trkpt>
      <trkpt lat="45.16144" lon="5.88746">
        <ele>822.2</ele>
        <time>2021-04-10T10:35:27Z</time>
      </trkpt>
      <trkpt lat="45.16144" lon="5.88745">
        <ele>822</ele>
        <time>2021-04-10T10:35:28Z</time>
      </trkpt>
      <trkpt lat="45.16144" lon="5.88745">
        <ele>822</ele>
        <time>2021-04-10T10:35:29Z</time>
      </trkpt>
      <trkpt lat="45.16144" lon="5.88744">
        <ele>822.2</ele>
        <time>2021-04-10T10:35:30Z</time>
      </trkpt>
      <trkpt lat="45.16145" lon="5.88743">
        <ele>822</ele>
        <time>2021-04-10T10:35:31Z</time>
      </trkpt>
      <trkpt lat="45.16145" lon="5.88743">
        <ele>822.2</ele>
        <time>2021-04-10T10:35:32Z</time>
      </trkpt>
      <trkpt lat="45.16145" lon="5.88742">
        <ele>822.2</ele>
        <time>2021-04-10T10:35:33Z</time>
      </trkpt>
      <trkpt lat="45.16145" lon="5.88742">
        <ele>822.2</ele>
        <time>2021-04-10T10:35:34Z</time>
      </trkpt>
      <trkpt lat="45.16146" lon="5.88741">
        <ele>822.2</ele>
        <time>2021-04-10T10:35:35Z</time>
      </trkpt>
      <trkpt lat="45.16146" lon="5.8874">
        <ele>822.2</ele>
        <time>2021-04-10T10:35:36Z</time>
      </trkpt>
      <trkpt lat="45.16146" lon="5.8874">
        <ele>822</ele>
        <time>2021-04-10T10:35:37Z</time>
      </trkpt>
      <trkpt lat="45.16146" lon="5.88739">
        <ele>822</ele>
        <time>2021-04-10T10:35:38Z</time>
      </trkpt>
      <trkpt lat="45.16147" lon="5.88739">
        <ele>821.8</ele>
        <time>2021-04-10T10:35:39Z</time>
      </trkpt>
      <trkpt lat="45.16147" lon="5.88738">
        <ele>821.8</ele>
        <time>2021-04-10T10:35:40Z</time>
      </trkpt>
      <trkpt lat="45.16147" lon="5.88737">
        <ele>821.6</ele>
        <time>2021-04-10T10:35:41Z</time>
      </trkpt>
      <trkpt lat="45.16147" lon="5.88737">
        <ele>821.6</ele>
        <time>2021-04-10T10:35:42Z</time>
      </trkpt>
      <trkpt lat="45.16148" lon="5.88736">
        <ele>821.6</ele>
        <time>2021-04-10T10:35:43Z</time>
      </trkpt>
      <trkpt lat="45.16148" lon="5.88736">
        <ele>821.4</ele>
        <time>2021-04-10T10:35:44Z</time>
      </trkpt>
      <trkpt lat="45.16148" lon="5.88735">
        <ele>821.2</ele>
        <time>2021-04-10T10:35:45Z</time>
      </trkpt>
      <trkpt lat="45.16149" lon="5.88734">
        <ele>821.2</ele>
        <time>2021-04-10T10:35:46Z</time>
      </trkpt>
      <trkpt lat="45.16149" lon="5.88733">
        <ele>821</ele>
        <time>2021-04-10T10:35:47Z</time>
      </trkpt>
      <trkpt lat="45.1615" lon="5.88731">
        <ele>821</ele>
        <time>2021-04-10T10:35:48Z</time>
      </trkpt>
      <trkpt lat="45.1615" lon="5.8873">
        <ele>821</ele>
        <time>2021-04-10T10:35:49Z</time>
      </trkpt>
      <trkpt lat="45.16151" lon="5.88729">
        <ele>820.8</ele>
        <time>2021-04-10T10:35:50Z</time>
      </trkpt>
      <trkpt lat="45.16151" lon="5.88728">
        <ele>820.6</ele>
        <time>2021-04-10T10:35:51Z</time>
      </trkpt>
      <trkpt lat="45.16152" lon="5.88727">
        <ele>820.6</ele>
        <time>2021-04-10T10:35:52Z</time>
      </trkpt>
      <trkpt lat="45.16152" lon="5.88725">
        <ele>820.6</ele>
        <time>2021-04-10T10:35:53Z</time>
      </trkpt>
      <trkpt lat="45.16153" lon="5.88724">
        <ele>820.2</ele>
        <time>2021-04-10T10:35:54Z</time>
      </trkpt>
      <trkpt lat="45.16154" lon="5.88724">
        <ele>820.2</ele>
        <time>2021-04-10T10:35:55Z</time>
      </trkpt>
      <trkpt lat="45.16155" lon="5.88724">
        <ele>820</ele>
        <time>2021-04-10T10:35:56Z</time>
      </trkpt>
      <trkpt lat="45.16156" lon="5.88724">
        <ele>819.8</ele>
        <time>2021-04-10T10:35:57Z</time>
      </trkpt>
      <trkpt lat="45.16157" lon="5.88724">
        <ele>819.8</ele>
        <time>2021-04-10T10:35:58Z</time>
      </trkpt>
      <trkpt lat="45.16158" lon="5.88724">
        <ele>819.6</ele>
        <time>2021-04-10T10:35:59Z</time>
      </trkpt>
      <trkpt lat="45.16159" lon="5.88724">
        <ele>819.4</ele>
        <time>2021-04-10T10:36:00Z</time>
      </trkpt>
      <trkpt lat="45.1616" lon="5.88724">
        <ele>819.4</ele>
        <time>2021-04-10T10:36:01Z</time>
      </trkpt>
      <trkpt lat="45.16162" lon="5.88725">
        <ele>819.4</ele>
        <time>2021-04-10T10:36:02Z</time>
      </trkpt>
      <trkpt lat="45.16163" lon="5.88725">
        <ele>819.2</ele>
        <time>2021-04-10T10:36:03Z</time>
      </trkpt>
      <trkpt lat="45.16163" lon="5.88727">
        <ele>819</ele>
        <time>2021-04-10T10:36:04Z</time>
      </trkpt>
      <trkpt lat="45.16164" lon="5.8873">
        <ele>819</ele>
        <time>2021-04-10T10:36:05Z</time>
      </trkpt>
      <trkpt lat="45.16164" lon="5.88732">
        <ele>819</ele>
        <time>2021-04-10T10:36:06Z</time>
      </trkpt>
      <trkpt lat="45.16165" lon="5.88735">
        <ele>819</ele>
        <time>2021-04-10T10:36:07Z</time>
      </trkpt>
      <trkpt lat="45.16166" lon="5.88738">
        <ele>819.2</ele>
        <time>2021-04-10T10:36:08Z</time>
      </trkpt>
      <trkpt lat="45.16166" lon="5.88736">
        <ele>819</ele>
        <time>2021-04-10T10:36:09Z</time>
      </trkpt>
      <trkpt lat="45.16167" lon="5.88733">
        <ele>819</ele>
        <time>2021-04-10T10:36:10Z</time>
      </trkpt>
      <trkpt lat="45.16168" lon="5.88731">
        <ele>819.2</ele>
        <time>2021-04-10T10:36:11Z</time>
      </trkpt>
      <trkpt lat="45.16169" lon="5.88729">
        <ele>819</ele>
        <time>2021-04-10T10:36:12Z</time>
      </trkpt>
      <trkpt lat="45.1617" lon="5.88727">
        <ele>818.8</ele>
        <time>2021-04-10T10:36:13Z</time>
      </trkpt>
      <trkpt lat="45.16171" lon="5.88725">
        <ele>818.8</ele>
        <time>2021-04-10T10:36:14Z</time>
      </trkpt>
      <trkpt lat="45.16172" lon="5.88724">
        <ele>819</ele>
        <time>2021-04-10T10:36:15Z</time>
      </trkpt>
      <trkpt lat="45.16173" lon="5.88722">
        <ele>819</ele>
        <time>2021-04-10T10:36:16Z</time>
      </trkpt>
      <trkpt lat="45.16173" lon="5.88721">
        <ele>819</ele>
        <time>2021-04-10T10:36:17Z</time>
      </trkpt>
      <trkpt lat="45.16174" lon="5.8872">
        <ele>819</ele>
        <time>2021-04-10T10:36:18Z</time>
      </trkpt>
      <trkpt lat="45.16175" lon="5.88719">
        <ele>819</ele>
        <time>2021-04-10T10:36:19Z</time>
      </trkpt>
      <trkpt lat="45.16176" lon="5.88718">
        <ele>818.8</ele>
        <time>2021-04-10T10:36:20Z</time>
      </trkpt>
      <trkpt lat="45.16177" lon="5.88717">
        <ele>818.8</ele>
        <time>2021-04-10T10:36:21Z</time>
      </trkpt>
      <trkpt lat="45.16178" lon="5.88715">
        <ele>818.8</ele>
        <time>2021-04-10T10:36:22Z</time>
      </trkpt>
      <trkpt lat="45.16178" lon="5.88714">
        <ele>818.6</ele>
        <time>2021-04-10T10:36:23Z</time>
      </trkpt>
      <trkpt lat="45.16179" lon="5.88713">
        <ele>818.6</ele>
        <time>2021-04-10T10:36:24Z</time>
      </trkpt>
      <trkpt lat="45.16179" lon="5.88711">
        <ele>818.6</ele>
        <time>2021-04-10T10:36:25Z</time>
      </trkpt>
      <trkpt lat="45.16179" lon="5.8871">
        <ele>818.4</ele>
        <time>2021-04-10T10:36:26Z</time>
      </trkpt>
      <trkpt lat="45.1618" lon="5.88708">
        <ele>818.2</ele>
        <time>2021-04-10T10:36:27Z</time>
      </trkpt>
      <trkpt lat="45.1618" lon="5.88707">
        <ele>818</ele>
        <time>2021-04-10T10:36:28Z</time>
      </trkpt>
      <trkpt lat="45.16181" lon="5.88706">
        <ele>817.8</ele>
        <time>2021-04-10T10:36:29Z</time>
      </trkpt>
      <trkpt lat="45.16181" lon="5.88704">
        <ele>817.6</ele>
        <time>2021-04-10T10:36:30Z</time>
      </trkpt>
      <trkpt lat="45.16181" lon="5.88703">
        <ele>817.4</ele>
        <time>2021-04-10T10:36:31Z</time>
      </trkpt>
      <trkpt lat="45.16182" lon="5.88702">
        <ele>817.2</ele>
        <time>2021-04-10T10:36:32Z</time>
      </trkpt>
      <trkpt lat="45.16184" lon="5.88701">
        <ele>817</ele>
        <time>2021-04-10T10:36:33Z</time>
      </trkpt>
      <trkpt lat="45.16185" lon="5.887">
        <ele>817</ele>
        <time>2021-04-10T10:36:34Z</time>
      </trkpt>
      <trkpt lat="45.16186" lon="5.88699">
        <ele>816.6</ele>
        <time>2021-04-10T10:36:35Z</time>
      </trkpt>
      <trkpt lat="45.16187" lon="5.88699">
        <ele>816.4</ele>
        <time>2021-04-10T10:36:36Z</time>
      </trkpt>
      <trkpt lat="45.16189" lon="5.88698">
        <ele>816.2</ele>
        <time>2021-04-10T10:36:37Z</time>
      </trkpt>
      <trkpt lat="45.1619" lon="5.88697">
        <ele>816.2</ele>
        <time>2021-04-10T10:36:38Z</time>
      </trkpt>
      <trkpt lat="45.16191" lon="5.88696">
        <ele>815.8</ele>
        <time>2021-04-10T10:36:39Z</time>
      </trkpt>
      <trkpt lat="45.16192" lon="5.88695">
        <ele>815.6</ele>
        <time>2021-04-10T10:36:40Z</time>
      </trkpt>
      <trkpt lat="45.16193" lon="5.88694">
        <ele>815.6</ele>
        <time>2021-04-10T10:36:41Z</time>
      </trkpt>
      <trkpt lat="45.16195" lon="5.88693">
        <ele>815.4</ele>
        <time>2021-04-10T10:36:42Z</time>
      </trkpt>
      <trkpt lat="45.16196" lon="5.88692">
        <ele>815.2</ele>
        <time>2021-04-10T10:36:43Z</time>
      </trkpt>
      <trkpt lat="45.16197" lon="5.88691">
        <ele>815.2</ele>
        <time>2021-04-10T10:36:44Z</time>
      </trkpt>
      <trkpt lat="45.16198" lon="5.8869">
        <ele>815.2</ele>
        <time>2021-04-10T10:36:45Z</time>
      </trkpt>
      <trkpt lat="45.162" lon="5.88689">
        <ele>815</ele>
        <time>2021-04-10T10:36:46Z</time>
      </trkpt>
      <trkpt lat="45.16201" lon="5.88688">
        <ele>814.8</ele>
        <time>2021-04-10T10:36:47Z</time>
      </trkpt>
      <trkpt lat="45.16203" lon="5.88687">
        <ele>814.6</ele>
        <time>2021-04-10T10:36:48Z</time>
      </trkpt>
      <trkpt lat="45.16204" lon="5.88685">
        <ele>814.6</ele>
        <time>2021-04-10T10:36:49Z</time>
      </trkpt>
      <trkpt lat="45.16206" lon="5.88684">
        <ele>814.4</ele>
        <time>2021-04-10T10:36:50Z</time>
      </trkpt>
      <trkpt lat="45.16208" lon="5.88683">
        <ele>814.2</ele>
        <time>2021-04-10T10:36:51Z</time>
      </trkpt>
      <trkpt lat="45.16209" lon="5.88682">
        <ele>814</ele>
        <time>2021-04-10T10:36:52Z</time>
      </trkpt>
      <trkpt lat="45.1621" lon="5.8868">
        <ele>813.6</ele>
        <time>2021-04-10T10:36:53Z</time>
      </trkpt>
      <trkpt lat="45.16211" lon="5.88679">
        <ele>813.8</ele>
        <time>2021-04-10T10:36:54Z</time>
      </trkpt>
      <trkpt lat="45.16213" lon="5.88678">
        <ele>813.8</ele>
        <time>2021-04-10T10:36:55Z</time>
      </trkpt>
      <trkpt lat="45.16214" lon="5.88676">
        <ele>813.6</ele>
        <time>2021-04-10T10:36:56Z</time>
      </trkpt>
      <trkpt lat="45.16215" lon="5.88675">
        <ele>813.4</ele>
        <time>2021-04-10T10:36:57Z</time>
      </trkpt>
      <trkpt lat="45.16218" lon="5.88673">
        <ele>812.6</ele>
        <time>2021-04-10T10:36:58Z</time>
      </trkpt>
      <trkpt lat="45.16222" lon="5.88672">
        <ele>813.2</ele>
        <time>2021-04-10T10:36:59Z</time>
      </trkpt>
      <trkpt lat="45.16225" lon="5.8867">
        <ele>812.8</ele>
        <time>2021-04-10T10:37:00Z</time>
      </trkpt>
      <trkpt lat="45.16228" lon="5.88669">
        <ele>813</ele>
        <time>2021-04-10T10:37:01Z</time>
      </trkpt>
      <trkpt lat="45.16231" lon="5.88668">
        <ele>813</ele>
        <time>2021-04-10T10:37:02Z</time>
      </trkpt>
      <trkpt lat="45.16237" lon="5.88666">
        <ele>813.4</ele>
        <time>2021-04-10T10:37:03Z</time>
      </trkpt>
      <trkpt lat="45.16238" lon="5.88665">
        <ele>813</ele>
        <time>2021-04-10T10:37:04Z</time>
      </trkpt>
      <trkpt lat="45.16239" lon="5.88664">
        <ele>813.4</ele>
        <time>2021-04-10T10:37:05Z</time>
      </trkpt>
      <trkpt lat="45.16241" lon="5.88663">
        <ele>813.2</ele>
        <time>2021-04-10T10:37:06Z</time>
      </trkpt>
      <trkpt lat="45.16244" lon="5.8866">
        <ele>813.4</ele>
        <time>2021-04-10T10:37:07Z</time>
      </trkpt>
      <trkpt lat="45.16248" lon="5.88657">
        <ele>812.8</ele>
        <time>2021-04-10T10:37:08Z</time>
      </trkpt>
      <trkpt lat="45.16252" lon="5.88655">
        <ele>812.8</ele>
        <time>2021-04-10T10:37:09Z</time>
      </trkpt>
      <trkpt lat="45.16256" lon="5.88652">
        <ele>812.6</ele>
        <time>2021-04-10T10:37:10Z</time>
      </trkpt>
      <trkpt lat="45.1626" lon="5.88646">
        <ele>812</ele>
        <time>2021-04-10T10:37:11Z</time>
      </trkpt>
      <trkpt lat="45.1626" lon="5.88646">
        <ele>811.6</ele>
        <time>2021-04-10T10:37:12Z</time>
      </trkpt>
      <trkpt lat="45.1626" lon="5.88646">
        <ele>811.8</ele>
        <time>2021-04-10T10:37:13Z</time>
      </trkpt>
      <trkpt lat="45.16261" lon="5.88645">
        <ele>812</ele>
        <time>2021-04-10T10:37:14Z</time>
      </trkpt>
      <trkpt lat="45.16262" lon="5.88643">
        <ele>812</ele>
        <time>2021-04-10T10:37:15Z</time>
      </trkpt>
      <trkpt lat="45.16263" lon="5.88641">
        <ele>811.6</ele>
        <time>2021-04-10T10:37:16Z</time>
      </trkpt>
      <trkpt lat="45.16264" lon="5.88639">
        <ele>811</ele>
        <time>2021-04-10T10:37:17Z</time>
      </trkpt>
      <trkpt lat="45.16265" lon="5.88637">
        <ele>811.2</ele>
        <time>2021-04-10T10:37:18Z</time>
      </trkpt>
      <trkpt lat="45.16266" lon="5.88635">
        <ele>811</ele>
        <time>2021-04-10T10:37:19Z</time>
      </trkpt>
      <trkpt lat="45.16267" lon="5.88633">
        <ele>811.4</ele>
        <time>2021-04-10T10:37:20Z</time>
      </trkpt>
      <trkpt lat="45.16268" lon="5.88632">
        <ele>811</ele>
        <time>2021-04-10T10:37:21Z</time>
      </trkpt>
      <trkpt lat="45.16269" lon="5.8863">
        <ele>811.2</ele>
        <time>2021-04-10T10:37:22Z</time>
      </trkpt>
      <trkpt lat="45.16271" lon="5.88628">
        <ele>811</ele>
        <time>2021-04-10T10:37:23Z</time>
      </trkpt>
      <trkpt lat="45.16272" lon="5.88626">
        <ele>811.4</ele>
        <time>2021-04-10T10:37:24Z</time>
      </trkpt>
      <trkpt lat="45.16273" lon="5.88623">
        <ele>811</ele>
        <time>2021-04-10T10:37:25Z</time>
      </trkpt>
      <trkpt lat="45.16275" lon="5.88621">
        <ele>811</ele>
        <time>2021-04-10T10:37:26Z</time>
      </trkpt>
      <trkpt lat="45.16276" lon="5.88619">
        <ele>810.8</ele>
        <time>2021-04-10T10:37:27Z</time>
      </trkpt>
      <trkpt lat="45.16277" lon="5.88617">
        <ele>811</ele>
        <time>2021-04-10T10:37:28Z</time>
      </trkpt>
      <trkpt lat="45.16279" lon="5.88615">
        <ele>811</ele>
        <time>2021-04-10T10:37:29Z</time>
      </trkpt>
      <trkpt lat="45.1628" lon="5.88613">
        <ele>811.2</ele>
        <time>2021-04-10T10:37:30Z</time>
      </trkpt>
      <trkpt lat="45.16282" lon="5.88611">
        <ele>811</ele>
        <time>2021-04-10T10:37:31Z</time>
      </trkpt>
      <trkpt lat="45.16283" lon="5.88609">
        <ele>810.8</ele>
        <time>2021-04-10T10:37:32Z</time>
      </trkpt>
      <trkpt lat="45.16283" lon="5.88594">
        <ele>811.4</ele>
        <time>2021-04-10T10:37:33Z</time>
      </trkpt>
      <trkpt lat="45.16284" lon="5.88593">
        <ele>811.4</ele>
        <time>2021-04-10T10:37:34Z</time>
      </trkpt>
      <trkpt lat="45.16285" lon="5.88592">
        <ele>812</ele>
        <time>2021-04-10T10:37:35Z</time>
      </trkpt>
      <trkpt lat="45.16285" lon="5.88591">
        <ele>811.8</ele>
        <time>2021-04-10T10:37:36Z</time>
      </trkpt>
      <trkpt lat="45.16286" lon="5.8859">
        <ele>812.2</ele>
        <time>2021-04-10T10:37:37Z</time>
      </trkpt>
      <trkpt lat="45.16288" lon="5.88585">
        <ele>812.4</ele>
        <time>2021-04-10T10:37:38Z</time>
      </trkpt>
      <trkpt lat="45.1629" lon="5.88581">
        <ele>813</ele>
        <time>2021-04-10T10:37:39Z</time>
      </trkpt>
      <trkpt lat="45.16293" lon="5.88576">
        <ele>813</ele>
        <time>2021-04-10T10:37:40Z</time>
      </trkpt>
      <trkpt lat="45.16295" lon="5.88572">
        <ele>813.4</ele>
        <time>2021-04-10T10:37:41Z</time>
      </trkpt>
      <trkpt lat="45.16298" lon="5.8857">
        <ele>813.6</ele>
        <time>2021-04-10T10:37:42Z</time>
      </trkpt>
      <trkpt lat="45.16301" lon="5.88568">
        <ele>814.2</ele>
        <time>2021-04-10T10:37:43Z</time>
      </trkpt>
      <trkpt lat="45.16304" lon="5.88566">
        <ele>814.2</ele>
        <time>2021-04-10T10:37:44Z</time>
      </trkpt>
      <trkpt lat="45.16305" lon="5.88565">
        <ele>814.6</ele>
        <time>2021-04-10T10:37:45Z</time>
      </trkpt>
      <trkpt lat="45.16307" lon="5.88564">
        <ele>814.6</ele>
        <time>2021-04-10T10:37:46Z</time>
      </trkpt>
      <trkpt lat="45.16308" lon="5.88564">
        <ele>814.8</ele>
        <time>2021-04-10T10:37:47Z</time>
      </trkpt>
      <trkpt lat="45.16309" lon="5.88563">
        <ele>814.6</ele>
        <time>2021-04-10T10:37:48Z</time>
      </trkpt>
      <trkpt lat="45.16314" lon="5.8856">
        <ele>814.8</ele>
        <time>2021-04-10T10:37:49Z</time>
      </trkpt>
      <trkpt lat="45.16314" lon="5.8856">
        <ele>814.4</ele>
        <time>2021-04-10T10:37:50Z</time>
      </trkpt>
      <trkpt lat="45.16314" lon="5.8856">
        <ele>814.2</ele>
        <time>2021-04-10T10:37:51Z</time>
      </trkpt>
      <trkpt lat="45.16316" lon="5.88559">
        <ele>814</ele>
        <time>2021-04-10T10:37:52Z</time>
      </trkpt>
      <trkpt lat="45.16317" lon="5.88558">
        <ele>813.8</ele>
        <time>2021-04-10T10:37:53Z</time>
      </trkpt>
      <trkpt lat="45.16319" lon="5.88557">
        <ele>814</ele>
        <time>2021-04-10T10:37:54Z</time>
      </trkpt>
      <trkpt lat="45.1632" lon="5.88556">
        <ele>814.2</ele>
        <time>2021-04-10T10:37:55Z</time>
      </trkpt>
      <trkpt lat="45.16321" lon="5.88555">
        <ele>814.6</ele>
        <time>2021-04-10T10:37:56Z</time>
      </trkpt>
      <trkpt lat="45.16323" lon="5.88554">
        <ele>814.8</ele>
        <time>2021-04-10T10:37:57Z</time>
      </trkpt>
      <trkpt lat="45.16324" lon="5.88553">
        <ele>815</ele>
        <time>2021-04-10T10:37:58Z</time>
      </trkpt>
      <trkpt lat="45.16326" lon="5.88552">
        <ele>815</ele>
        <time>2021-04-10T10:37:59Z</time>
      </trkpt>
      <trkpt lat="45.16328" lon="5.88551">
        <ele>815</ele>
        <time>2021-04-10T10:38:00Z</time>
      </trkpt>
      <trkpt lat="45.16329" lon="5.8855">
        <ele>815</ele>
        <time>2021-04-10T10:38:01Z</time>
      </trkpt>
      <trkpt lat="45.16331" lon="5.88549">
        <ele>815.2</ele>
        <time>2021-04-10T10:38:02Z</time>
      </trkpt>
      <trkpt lat="45.16332" lon="5.88548">
        <ele>815.2</ele>
        <time>2021-04-10T10:38:03Z</time>
      </trkpt>
      <trkpt lat="45.16333" lon="5.88546">
        <ele>815.4</ele>
        <time>2021-04-10T10:38:04Z</time>
      </trkpt>
      <trkpt lat="45.16335" lon="5.88545">
        <ele>815.2</ele>
        <time>2021-04-10T10:38:05Z</time>
      </trkpt>
      <trkpt lat="45.16336" lon="5.88543">
        <ele>815</ele>
        <time>2021-04-10T10:38:06Z</time>
      </trkpt>
      <trkpt lat="45.16337" lon="5.88542">
        <ele>814.8</ele>
        <time>2021-04-10T10:38:07Z</time>
      </trkpt>
      <trkpt lat="45.16339" lon="5.8854">
        <ele>815</ele>
        <time>2021-04-10T10:38:08Z</time>
      </trkpt>
      <trkpt lat="45.16343" lon="5.88534">
        <ele>815</ele>
        <time>2021-04-10T10:38:09Z</time>
      </trkpt>
      <trkpt lat="45.16346" lon="5.88529">
        <ele>815.4</ele>
        <time>2021-04-10T10:38:10Z</time>
      </trkpt>
      <trkpt lat="45.16346" lon="5.88529">
        <ele>815.2</ele>
        <time>2021-04-10T10:38:11Z</time>
      </trkpt>
      <trkpt lat="45.16346" lon="5.88529">
        <ele>815.6</ele>
        <time>2021-04-10T10:38:12Z</time>
      </trkpt>
      <trkpt lat="45.16346" lon="5.88529">
        <ele>815.6</ele>
        <time>2021-04-10T10:38:13Z</time>
      </trkpt>
      <trkpt lat="45.16348" lon="5.88528">
        <ele>815.8</ele>
        <time>2021-04-10T10:38:14Z</time>
      </trkpt>
      <trkpt lat="45.16349" lon="5.88527">
        <ele>816</ele>
        <time>2021-04-10T10:38:15Z</time>
      </trkpt>
      <trkpt lat="45.1635" lon="5.88526">
        <ele>816.2</ele>
        <time>2021-04-10T10:38:16Z</time>
      </trkpt>
      <trkpt lat="45.16351" lon="5.88525">
        <ele>816.2</ele>
        <time>2021-04-10T10:38:17Z</time>
      </trkpt>
      <trkpt lat="45.16353" lon="5.88524">
        <ele>816.2</ele>
        <time>2021-04-10T10:38:18Z</time>
      </trkpt>
      <trkpt lat="45.16354" lon="5.88523">
        <ele>816.2</ele>
        <time>2021-04-10T10:38:19Z</time>
      </trkpt>
      <trkpt lat="45.16355" lon="5.88522">
        <ele>816.4</ele>
        <time>2021-04-10T10:38:20Z</time>
      </trkpt>
      <trkpt lat="45.16355" lon="5.88521">
        <ele>816.4</ele>
        <time>2021-04-10T10:38:21Z</time>
      </trkpt>
      <trkpt lat="45.16356" lon="5.88521">
        <ele>816.4</ele>
        <time>2021-04-10T10:38:22Z</time>
      </trkpt>
      <trkpt lat="45.16357" lon="5.88521">
        <ele>816.4</ele>
        <time>2021-04-10T10:38:23Z</time>
      </trkpt>
      <trkpt lat="45.16357" lon="5.88521">
        <ele>816.4</ele>
        <time>2021-04-10T10:38:24Z</time>
      </trkpt>
      <trkpt lat="45.16358" lon="5.88521">
        <ele>816.4</ele>
        <time>2021-04-10T10:38:25Z</time>
      </trkpt>
      <trkpt lat="45.16358" lon="5.88521">
        <ele>816.2</ele>
        <time>2021-04-10T10:38:26Z</time>
      </trkpt>
      <trkpt lat="45.16359" lon="5.88521">
        <ele>816.2</ele>
        <time>2021-04-10T10:38:27Z</time>
      </trkpt>
      <trkpt lat="45.16359" lon="5.88521">
        <ele>816.2</ele>
        <time>2021-04-10T10:38:28Z</time>
      </trkpt>
      <trkpt lat="45.1636" lon="5.88521">
        <ele>816.4</ele>
        <time>2021-04-10T10:38:29Z</time>
      </trkpt>
      <trkpt lat="45.1636" lon="5.88521">
        <ele>816.6</ele>
        <time>2021-04-10T10:38:30Z</time>
      </trkpt>
      <trkpt lat="45.16361" lon="5.88521">
        <ele>816.8</ele>
        <time>2021-04-10T10:38:31Z</time>
      </trkpt>
      <trkpt lat="45.16362" lon="5.88521">
        <ele>817</ele>
        <time>2021-04-10T10:38:32Z</time>
      </trkpt>
      <trkpt lat="45.16362" lon="5.88521">
        <ele>817</ele>
        <time>2021-04-10T10:38:33Z</time>
      </trkpt>
      <trkpt lat="45.16363" lon="5.8852">
        <ele>817</ele>
        <time>2021-04-10T10:38:34Z</time>
      </trkpt>
      <trkpt lat="45.16363" lon="5.8852">
        <ele>816.8</ele>
        <time>2021-04-10T10:38:35Z</time>
      </trkpt>
      <trkpt lat="45.16364" lon="5.8852">
        <ele>816.6</ele>
        <time>2021-04-10T10:38:36Z</time>
      </trkpt>
      <trkpt lat="45.16364" lon="5.8852">
        <ele>816.8</ele>
        <time>2021-04-10T10:38:37Z</time>
      </trkpt>
      <trkpt lat="45.16365" lon="5.8852">
        <ele>816.6</ele>
        <time>2021-04-10T10:38:38Z</time>
      </trkpt>
      <trkpt lat="45.16365" lon="5.8852">
        <ele>816.6</ele>
        <time>2021-04-10T10:38:39Z</time>
      </trkpt>
      <trkpt lat="45.16365" lon="5.88519">
        <ele>816.6</ele>
        <time>2021-04-10T10:38:40Z</time>
      </trkpt>
      <trkpt lat="45.16366" lon="5.88519">
        <ele>816.6</ele>
        <time>2021-04-10T10:38:41Z</time>
      </trkpt>
      <trkpt lat="45.16366" lon="5.88519">
        <ele>816.2</ele>
        <time>2021-04-10T10:38:42Z</time>
      </trkpt>
      <trkpt lat="45.16366" lon="5.88518">
        <ele>816.2</ele>
        <time>2021-04-10T10:38:43Z</time>
      </trkpt>
      <trkpt lat="45.16367" lon="5.88518">
        <ele>816.4</ele>
        <time>2021-04-10T10:38:44Z</time>
      </trkpt>
      <trkpt lat="45.16367" lon="5.88518">
        <ele>816.2</ele>
        <time>2021-04-10T10:38:45Z</time>
      </trkpt>
      <trkpt lat="45.16367" lon="5.88517">
        <ele>816.2</ele>
        <time>2021-04-10T10:38:46Z</time>
      </trkpt>
      <trkpt lat="45.16368" lon="5.88517">
        <ele>816.2</ele>
        <time>2021-04-10T10:38:47Z</time>
      </trkpt>
      <trkpt lat="45.16368" lon="5.88517">
        <ele>816.2</ele>
        <time>2021-04-10T10:38:48Z</time>
      </trkpt>
      <trkpt lat="45.16368" lon="5.88516">
        <ele>816.2</ele>
        <time>2021-04-10T10:38:49Z</time>
      </trkpt>
      <trkpt lat="45.16369" lon="5.88516">
        <ele>816.2</ele>
        <time>2021-04-10T10:38:50Z</time>
      </trkpt>
      <trkpt lat="45.16369" lon="5.88516">
        <ele>816.6</ele>
        <time>2021-04-10T10:38:51Z</time>
      </trkpt>
      <trkpt lat="45.1637" lon="5.88516">
        <ele>817</ele>
        <time>2021-04-10T10:38:52Z</time>
      </trkpt>
      <trkpt lat="45.1637" lon="5.88515">
        <ele>817.2</ele>
        <time>2021-04-10T10:38:53Z</time>
      </trkpt>
      <trkpt lat="45.1637" lon="5.88515">
        <ele>817.2</ele>
        <time>2021-04-10T10:38:54Z</time>
      </trkpt>
      <trkpt lat="45.16371" lon="5.88515">
        <ele>817.4</ele>
        <time>2021-04-10T10:38:55Z</time>
      </trkpt>
      <trkpt lat="45.16371" lon="5.88514">
        <ele>817.4</ele>
        <time>2021-04-10T10:38:56Z</time>
      </trkpt>
      <trkpt lat="45.16371" lon="5.88514">
        <ele>817.8</ele>
        <time>2021-04-10T10:38:57Z</time>
      </trkpt>
      <trkpt lat="45.16372" lon="5.88514">
        <ele>817.8</ele>
        <time>2021-04-10T10:38:58Z</time>
      </trkpt>
      <trkpt lat="45.16372" lon="5.88513">
        <ele>817.8</ele>
        <time>2021-04-10T10:38:59Z</time>
      </trkpt>
      <trkpt lat="45.16374" lon="5.88512">
        <ele>818</ele>
        <time>2021-04-10T10:39:00Z</time>
      </trkpt>
      <trkpt lat="45.16377" lon="5.88511">
        <ele>818</ele>
        <time>2021-04-10T10:39:01Z</time>
      </trkpt>
      <trkpt lat="45.16379" lon="5.8851">
        <ele>818.2</ele>
        <time>2021-04-10T10:39:02Z</time>
      </trkpt>
      <trkpt lat="45.16382" lon="5.88509">
        <ele>818.2</ele>
        <time>2021-04-10T10:39:03Z</time>
      </trkpt>
      <trkpt lat="45.16384" lon="5.88508">
        <ele>818</ele>
        <time>2021-04-10T10:39:04Z</time>
      </trkpt>
      <trkpt lat="45.16387" lon="5.88507">
        <ele>818</ele>
        <time>2021-04-10T10:39:05Z</time>
      </trkpt>
      <trkpt lat="45.16391" lon="5.88505">
        <ele>817.8</ele>
        <time>2021-04-10T10:39:06Z</time>
      </trkpt>
      <trkpt lat="45.16391" lon="5.88505">
        <ele>817.6</ele>
        <time>2021-04-10T10:39:07Z</time>
      </trkpt>
      <trkpt lat="45.16391" lon="5.88505">
        <ele>817.4</ele>
        <time>2021-04-10T10:39:08Z</time>
      </trkpt>
      <trkpt lat="45.16391" lon="5.88505">
        <ele>817.6</ele>
        <time>2021-04-10T10:39:09Z</time>
      </trkpt>
      <trkpt lat="45.16393" lon="5.88504">
        <ele>817.6</ele>
        <time>2021-04-10T10:39:10Z</time>
      </trkpt>
      <trkpt lat="45.16394" lon="5.88503">
        <ele>818</ele>
        <time>2021-04-10T10:39:11Z</time>
      </trkpt>
      <trkpt lat="45.16395" lon="5.88502">
        <ele>817.8</ele>
        <time>2021-04-10T10:39:12Z</time>
      </trkpt>
      <trkpt lat="45.16397" lon="5.88501">
        <ele>818</ele>
        <time>2021-04-10T10:39:13Z</time>
      </trkpt>
      <trkpt lat="45.16398" lon="5.885">
        <ele>817.8</ele>
        <time>2021-04-10T10:39:14Z</time>
      </trkpt>
      <trkpt lat="45.164" lon="5.88499">
        <ele>818</ele>
        <time>2021-04-10T10:39:15Z</time>
      </trkpt>
      <trkpt lat="45.16402" lon="5.88497">
        <ele>817.6</ele>
        <time>2021-04-10T10:39:16Z</time>
      </trkpt>
      <trkpt lat="45.16405" lon="5.88494">
        <ele>817.4</ele>
        <time>2021-04-10T10:39:17Z</time>
      </trkpt>
      <trkpt lat="45.16408" lon="5.88492">
        <ele>817</ele>
        <time>2021-04-10T10:39:18Z</time>
      </trkpt>
      <trkpt lat="45.1641" lon="5.88489">
        <ele>816.6</ele>
        <time>2021-04-10T10:39:19Z</time>
      </trkpt>
      <trkpt lat="45.16413" lon="5.88487">
        <ele>816.2</ele>
        <time>2021-04-10T10:39:20Z</time>
      </trkpt>
      <trkpt lat="45.16416" lon="5.88484">
        <ele>816.2</ele>
        <time>2021-04-10T10:39:21Z</time>
      </trkpt>
      <trkpt lat="45.16417" lon="5.88483">
        <ele>816.2</ele>
        <time>2021-04-10T10:39:22Z</time>
      </trkpt>
      <trkpt lat="45.16419" lon="5.88481">
        <ele>816.4</ele>
        <time>2021-04-10T10:39:23Z</time>
      </trkpt>
      <trkpt lat="45.16421" lon="5.88479">
        <ele>816.8</ele>
        <time>2021-04-10T10:39:24Z</time>
      </trkpt>
      <trkpt lat="45.16423" lon="5.88477">
        <ele>816.6</ele>
        <time>2021-04-10T10:39:25Z</time>
      </trkpt>
      <trkpt lat="45.16426" lon="5.88476">
        <ele>816.8</ele>
        <time>2021-04-10T10:39:26Z</time>
      </trkpt>
      <trkpt lat="45.16428" lon="5.88474">
        <ele>816.8</ele>
        <time>2021-04-10T10:39:27Z</time>
      </trkpt>
      <trkpt lat="45.1643" lon="5.88472">
        <ele>816.4</ele>
        <time>2021-04-10T10:39:28Z</time>
      </trkpt>
      <trkpt lat="45.16432" lon="5.88471">
        <ele>816.6</ele>
        <time>2021-04-10T10:39:29Z</time>
      </trkpt>
      <trkpt lat="45.16433" lon="5.8847">
        <ele>816.2</ele>
        <time>2021-04-10T10:39:30Z</time>
      </trkpt>
      <trkpt lat="45.16434" lon="5.88469">
        <ele>816.2</ele>
        <time>2021-04-10T10:39:31Z</time>
      </trkpt>
      <trkpt lat="45.16435" lon="5.88469">
        <ele>816.4</ele>
        <time>2021-04-10T10:39:32Z</time>
      </trkpt>
      <trkpt lat="45.16436" lon="5.88468">
        <ele>816.4</ele>
        <time>2021-04-10T10:39:33Z</time>
      </trkpt>
      <trkpt lat="45.1644" lon="5.88465">
        <ele>816.8</ele>
        <time>2021-04-10T10:39:34Z</time>
      </trkpt>
      <trkpt lat="45.1644" lon="5.88465">
        <ele>816.8</ele>
        <time>2021-04-10T10:39:35Z</time>
      </trkpt>
      <trkpt lat="45.1644" lon="5.88465">
        <ele>817.2</ele>
        <time>2021-04-10T10:39:36Z</time>
      </trkpt>
      <trkpt lat="45.1644" lon="5.88465">
        <ele>817.2</ele>
        <time>2021-04-10T10:39:37Z</time>
      </trkpt>
      <trkpt lat="45.1644" lon="5.88465">
        <ele>817.2</ele>
        <time>2021-04-10T10:39:38Z</time>
      </trkpt>
      <trkpt lat="45.16442" lon="5.88465">
        <ele>816.6</ele>
        <time>2021-04-10T10:39:39Z</time>
      </trkpt>
      <trkpt lat="45.16444" lon="5.88464">
        <ele>816.6</ele>
        <time>2021-04-10T10:39:40Z</time>
      </trkpt>
      <trkpt lat="45.16446" lon="5.88464">
        <ele>817</ele>
        <time>2021-04-10T10:39:41Z</time>
      </trkpt>
      <trkpt lat="45.16448" lon="5.88463">
        <ele>816.8</ele>
        <time>2021-04-10T10:39:42Z</time>
      </trkpt>
      <trkpt lat="45.16449" lon="5.88463">
        <ele>817</ele>
        <time>2021-04-10T10:39:43Z</time>
      </trkpt>
      <trkpt lat="45.16451" lon="5.88462">
        <ele>817</ele>
        <time>2021-04-10T10:39:44Z</time>
      </trkpt>
      <trkpt lat="45.16452" lon="5.88462">
        <ele>817.2</ele>
        <time>2021-04-10T10:39:45Z</time>
      </trkpt>
      <trkpt lat="45.16454" lon="5.88461">
        <ele>817</ele>
        <time>2021-04-10T10:39:46Z</time>
      </trkpt>
      <trkpt lat="45.16455" lon="5.88461">
        <ele>817.2</ele>
        <time>2021-04-10T10:39:47Z</time>
      </trkpt>
      <trkpt lat="45.16457" lon="5.8846">
        <ele>817.2</ele>
        <time>2021-04-10T10:39:48Z</time>
      </trkpt>
      <trkpt lat="45.16458" lon="5.8846">
        <ele>817.4</ele>
        <time>2021-04-10T10:39:49Z</time>
      </trkpt>
      <trkpt lat="45.1646" lon="5.88459">
        <ele>817.4</ele>
        <time>2021-04-10T10:39:50Z</time>
      </trkpt>
      <trkpt lat="45.16461" lon="5.88459">
        <ele>817.4</ele>
        <time>2021-04-10T10:39:51Z</time>
      </trkpt>
      <trkpt lat="45.16462" lon="5.88458">
        <ele>817.2</ele>
        <time>2021-04-10T10:39:52Z</time>
      </trkpt>
      <trkpt lat="45.16463" lon="5.88458">
        <ele>816.8</ele>
        <time>2021-04-10T10:39:53Z</time>
      </trkpt>
      <trkpt lat="45.16465" lon="5.88457">
        <ele>816.8</ele>
        <time>2021-04-10T10:39:54Z</time>
      </trkpt>
      <trkpt lat="45.16466" lon="5.88457">
        <ele>816.6</ele>
        <time>2021-04-10T10:39:55Z</time>
      </trkpt>
      <trkpt lat="45.16467" lon="5.88456">
        <ele>817.2</ele>
        <time>2021-04-10T10:39:56Z</time>
      </trkpt>
      <trkpt lat="45.16469" lon="5.88455">
        <ele>817.4</ele>
        <time>2021-04-10T10:39:57Z</time>
      </trkpt>
      <trkpt lat="45.16472" lon="5.88453">
        <ele>817.8</ele>
        <time>2021-04-10T10:39:58Z</time>
      </trkpt>
      <trkpt lat="45.16474" lon="5.88452">
        <ele>817.6</ele>
        <time>2021-04-10T10:39:59Z</time>
      </trkpt>
      <trkpt lat="45.16476" lon="5.88451">
        <ele>817.6</ele>
        <time>2021-04-10T10:40:01Z</time>
      </trkpt>
      <trkpt lat="45.16478" lon="5.88449">
        <ele>817.4</ele>
        <time>2021-04-10T10:40:02Z</time>
      </trkpt>
      <trkpt lat="45.1648" lon="5.88448">
        <ele>817.2</ele>
        <time>2021-04-10T10:40:03Z</time>
      </trkpt>
      <trkpt lat="45.16483" lon="5.88446">
        <ele>817.2</ele>
        <time>2021-04-10T10:40:04Z</time>
      </trkpt>
      <trkpt lat="45.16485" lon="5.88445">
        <ele>817.6</ele>
        <time>2021-04-10T10:40:05Z</time>
      </trkpt>
      <trkpt lat="45.16486" lon="5.88443">
        <ele>817.6</ele>
        <time>2021-04-10T10:40:06Z</time>
      </trkpt>
      <trkpt lat="45.16486" lon="5.88441">
        <ele>817.8</ele>
        <time>2021-04-10T10:40:07Z</time>
      </trkpt>
      <trkpt lat="45.16487" lon="5.88438">
        <ele>817.8</ele>
        <time>2021-04-10T10:40:08Z</time>
      </trkpt>
      <trkpt lat="45.16489" lon="5.88432">
        <ele>818.2</ele>
        <time>2021-04-10T10:40:09Z</time>
      </trkpt>
      <trkpt lat="45.16489" lon="5.88432">
        <ele>818.2</ele>
        <time>2021-04-10T10:40:10Z</time>
      </trkpt>
      <trkpt lat="45.16489" lon="5.88432">
        <ele>818.6</ele>
        <time>2021-04-10T10:40:11Z</time>
      </trkpt>
      <trkpt lat="45.16491" lon="5.8843">
        <ele>818.4</ele>
        <time>2021-04-10T10:40:12Z</time>
      </trkpt>
      <trkpt lat="45.16492" lon="5.88428">
        <ele>818.8</ele>
        <time>2021-04-10T10:40:13Z</time>
      </trkpt>
      <trkpt lat="45.16493" lon="5.88427">
        <ele>818.6</ele>
        <time>2021-04-10T10:40:14Z</time>
      </trkpt>
      <trkpt lat="45.16495" lon="5.88425">
        <ele>819</ele>
        <time>2021-04-10T10:40:15Z</time>
      </trkpt>
      <trkpt lat="45.16496" lon="5.88423">
        <ele>819</ele>
        <time>2021-04-10T10:40:16Z</time>
      </trkpt>
      <trkpt lat="45.16503" lon="5.8842">
        <ele>819.2</ele>
        <time>2021-04-10T10:40:17Z</time>
      </trkpt>
      <trkpt lat="45.1651" lon="5.88417">
        <ele>819</ele>
        <time>2021-04-10T10:40:18Z</time>
      </trkpt>
      <trkpt lat="45.16514" lon="5.88416">
        <ele>819.2</ele>
        <time>2021-04-10T10:40:19Z</time>
      </trkpt>
      <trkpt lat="45.16516" lon="5.88415">
        <ele>819.2</ele>
        <time>2021-04-10T10:40:20Z</time>
      </trkpt>
      <trkpt lat="45.16518" lon="5.88415">
        <ele>819.8</ele>
        <time>2021-04-10T10:40:21Z</time>
      </trkpt>
      <trkpt lat="45.16518" lon="5.88415">
        <ele>819.8</ele>
        <time>2021-04-10T10:40:22Z</time>
      </trkpt>
      <trkpt lat="45.16518" lon="5.88415">
        <ele>820</ele>
        <time>2021-04-10T10:40:23Z</time>
      </trkpt>
      <trkpt lat="45.16518" lon="5.88415">
        <ele>820</ele>
        <time>2021-04-10T10:40:24Z</time>
      </trkpt>
      <trkpt lat="45.1652" lon="5.88414">
        <ele>820.4</ele>
        <time>2021-04-10T10:40:25Z</time>
      </trkpt>
      <trkpt lat="45.16522" lon="5.88413">
        <ele>820.4</ele>
        <time>2021-04-10T10:40:26Z</time>
      </trkpt>
      <trkpt lat="45.16524" lon="5.88411">
        <ele>820.4</ele>
        <time>2021-04-10T10:40:27Z</time>
      </trkpt>
      <trkpt lat="45.16526" lon="5.8841">
        <ele>820.2</ele>
        <time>2021-04-10T10:40:28Z</time>
      </trkpt>
      <trkpt lat="45.16528" lon="5.88409">
        <ele>820.4</ele>
        <time>2021-04-10T10:40:29Z</time>
      </trkpt>
      <trkpt lat="45.1653" lon="5.88409">
        <ele>820.2</ele>
        <time>2021-04-10T10:40:30Z</time>
      </trkpt>
      <trkpt lat="45.16532" lon="5.88409">
        <ele>820.4</ele>
        <time>2021-04-10T10:40:31Z</time>
      </trkpt>
      <trkpt lat="45.16534" lon="5.88408">
        <ele>820.4</ele>
        <time>2021-04-10T10:40:32Z</time>
      </trkpt>
      <trkpt lat="45.16535" lon="5.88408">
        <ele>820.6</ele>
        <time>2021-04-10T10:40:33Z</time>
      </trkpt>
      <trkpt lat="45.16537" lon="5.88407">
        <ele>820.4</ele>
        <time>2021-04-10T10:40:34Z</time>
      </trkpt>
      <trkpt lat="45.16539" lon="5.88407">
        <ele>821</ele>
        <time>2021-04-10T10:40:35Z</time>
      </trkpt>
      <trkpt lat="45.16542" lon="5.88407">
        <ele>821</ele>
        <time>2021-04-10T10:40:36Z</time>
      </trkpt>
      <trkpt lat="45.16544" lon="5.88407">
        <ele>821.2</ele>
        <time>2021-04-10T10:40:37Z</time>
      </trkpt>
      <trkpt lat="45.16546" lon="5.88407">
        <ele>821.2</ele>
        <time>2021-04-10T10:40:38Z</time>
      </trkpt>
      <trkpt lat="45.16548" lon="5.88406">
        <ele>821.6</ele>
        <time>2021-04-10T10:40:39Z</time>
      </trkpt>
      <trkpt lat="45.1655" lon="5.88407">
        <ele>821.6</ele>
        <time>2021-04-10T10:40:40Z</time>
      </trkpt>
      <trkpt lat="45.16552" lon="5.88407">
        <ele>821.8</ele>
        <time>2021-04-10T10:40:41Z</time>
      </trkpt>
      <trkpt lat="45.16554" lon="5.88408">
        <ele>821.8</ele>
        <time>2021-04-10T10:40:42Z</time>
      </trkpt>
      <trkpt lat="45.16556" lon="5.88408">
        <ele>822</ele>
        <time>2021-04-10T10:40:43Z</time>
      </trkpt>
      <trkpt lat="45.16558" lon="5.88408">
        <ele>822</ele>
        <time>2021-04-10T10:40:44Z</time>
      </trkpt>
      <trkpt lat="45.1656" lon="5.88408">
        <ele>822</ele>
        <time>2021-04-10T10:40:45Z</time>
      </trkpt>
      <trkpt lat="45.16561" lon="5.88408">
        <ele>822</ele>
        <time>2021-04-10T10:40:46Z</time>
      </trkpt>
      <trkpt lat="45.16563" lon="5.88407">
        <ele>822.2</ele>
        <time>2021-04-10T10:40:47Z</time>
      </trkpt>
      <trkpt lat="45.16565" lon="5.88407">
        <ele>822.4</ele>
        <time>2021-04-10T10:40:48Z</time>
      </trkpt>
      <trkpt lat="45.16566" lon="5.88406">
        <ele>822.6</ele>
        <time>2021-04-10T10:40:49Z</time>
      </trkpt>
      <trkpt lat="45.16568" lon="5.88406">
        <ele>823.2</ele>
        <time>2021-04-10T10:40:50Z</time>
      </trkpt>
      <trkpt lat="45.16571" lon="5.88405">
        <ele>823.4</ele>
        <time>2021-04-10T10:40:51Z</time>
      </trkpt>
      <trkpt lat="45.16574" lon="5.88403">
        <ele>823.4</ele>
        <time>2021-04-10T10:40:52Z</time>
      </trkpt>
      <trkpt lat="45.16577" lon="5.88402">
        <ele>823.6</ele>
        <time>2021-04-10T10:40:53Z</time>
      </trkpt>
      <trkpt lat="45.16579" lon="5.88401">
        <ele>823.8</ele>
        <time>2021-04-10T10:40:54Z</time>
      </trkpt>
      <trkpt lat="45.16582" lon="5.884">
        <ele>823.8</ele>
        <time>2021-04-10T10:40:55Z</time>
      </trkpt>
      <trkpt lat="45.16585" lon="5.88398">
        <ele>823.8</ele>
        <time>2021-04-10T10:40:56Z</time>
      </trkpt>
      <trkpt lat="45.16588" lon="5.88397">
        <ele>823.8</ele>
        <time>2021-04-10T10:40:57Z</time>
      </trkpt>
      <trkpt lat="45.16588" lon="5.88397">
        <ele>823.8</ele>
        <time>2021-04-10T10:40:58Z</time>
      </trkpt>
      <trkpt lat="45.16588" lon="5.88397">
        <ele>823.8</ele>
        <time>2021-04-10T10:40:59Z</time>
      </trkpt>
      <trkpt lat="45.1659" lon="5.88396">
        <ele>824</ele>
        <time>2021-04-10T10:41:00Z</time>
      </trkpt>
      <trkpt lat="45.16592" lon="5.88396">
        <ele>824</ele>
        <time>2021-04-10T10:41:01Z</time>
      </trkpt>
      <trkpt lat="45.16594" lon="5.88395">
        <ele>824.2</ele>
        <time>2021-04-10T10:41:02Z</time>
      </trkpt>
      <trkpt lat="45.16596" lon="5.88394">
        <ele>824.2</ele>
        <time>2021-04-10T10:41:03Z</time>
      </trkpt>
      <trkpt lat="45.16598" lon="5.88393">
        <ele>824.4</ele>
        <time>2021-04-10T10:41:04Z</time>
      </trkpt>
      <trkpt lat="45.16599" lon="5.88392">
        <ele>824.6</ele>
        <time>2021-04-10T10:41:05Z</time>
      </trkpt>
      <trkpt lat="45.16599" lon="5.88392">
        <ele>824.6</ele>
        <time>2021-04-10T10:41:06Z</time>
      </trkpt>
      <trkpt lat="45.16599" lon="5.88391">
        <ele>824.4</ele>
        <time>2021-04-10T10:41:07Z</time>
      </trkpt>
      <trkpt lat="45.16599" lon="5.88391">
        <ele>824.4</ele>
        <time>2021-04-10T10:41:08Z</time>
      </trkpt>
      <trkpt lat="45.16598" lon="5.88391">
        <ele>824.6</ele>
        <time>2021-04-10T10:41:09Z</time>
      </trkpt>
      <trkpt lat="45.16598" lon="5.8839">
        <ele>824.6</ele>
        <time>2021-04-10T10:41:10Z</time>
      </trkpt>
      <trkpt lat="45.16598" lon="5.8839">
        <ele>825</ele>
        <time>2021-04-10T10:41:11Z</time>
      </trkpt>
      <trkpt lat="45.16598" lon="5.8839">
        <ele>825</ele>
        <time>2021-04-10T10:41:12Z</time>
      </trkpt>
      <trkpt lat="45.16598" lon="5.88389">
        <ele>825.2</ele>
        <time>2021-04-10T10:41:13Z</time>
      </trkpt>
      <trkpt lat="45.16598" lon="5.88389">
        <ele>825.4</ele>
        <time>2021-04-10T10:41:14Z</time>
      </trkpt>
      <trkpt lat="45.16598" lon="5.88389">
        <ele>825.6</ele>
        <time>2021-04-10T10:41:15Z</time>
      </trkpt>
      <trkpt lat="45.16597" lon="5.88388">
        <ele>825.6</ele>
        <time>2021-04-10T10:41:16Z</time>
      </trkpt>
      <trkpt lat="45.16597" lon="5.88388">
        <ele>825.6</ele>
        <time>2021-04-10T10:41:17Z</time>
      </trkpt>
      <trkpt lat="45.16597" lon="5.88388">
        <ele>825.8</ele>
        <time>2021-04-10T10:41:18Z</time>
      </trkpt>
      <trkpt lat="45.16597" lon="5.88387">
        <ele>825.8</ele>
        <time>2021-04-10T10:41:19Z</time>
      </trkpt>
      <trkpt lat="45.16597" lon="5.88387">
        <ele>825.8</ele>
        <time>2021-04-10T10:41:20Z</time>
      </trkpt>
      <trkpt lat="45.16597" lon="5.88387">
        <ele>825.8</ele>
        <time>2021-04-10T10:41:21Z</time>
      </trkpt>
      <trkpt lat="45.16597" lon="5.88386">
        <ele>825.8</ele>
        <time>2021-04-10T10:41:22Z</time>
      </trkpt>
      <trkpt lat="45.16596" lon="5.88386">
        <ele>826</ele>
        <time>2021-04-10T10:41:23Z</time>
      </trkpt>
      <trkpt lat="45.16596" lon="5.88386">
        <ele>826.2</ele>
        <time>2021-04-10T10:41:24Z</time>
      </trkpt>
      <trkpt lat="45.16596" lon="5.88385">
        <ele>826</ele>
        <time>2021-04-10T10:41:25Z</time>
      </trkpt>
      <trkpt lat="45.16596" lon="5.88385">
        <ele>826</ele>
        <time>2021-04-10T10:41:26Z</time>
      </trkpt>
      <trkpt lat="45.16596" lon="5.88385">
        <ele>826</ele>
        <time>2021-04-10T10:41:27Z</time>
      </trkpt>
      <trkpt lat="45.16596" lon="5.88384">
        <ele>826</ele>
        <time>2021-04-10T10:41:28Z</time>
      </trkpt>
      <trkpt lat="45.16596" lon="5.88384">
        <ele>826</ele>
        <time>2021-04-10T10:41:29Z</time>
      </trkpt>
      <trkpt lat="45.16596" lon="5.88384">
        <ele>826</ele>
        <time>2021-04-10T10:41:30Z</time>
      </trkpt>
      <trkpt lat="45.16595" lon="5.88383">
        <ele>826</ele>
        <time>2021-04-10T10:41:31Z</time>
      </trkpt>
      <trkpt lat="45.16595" lon="5.88383">
        <ele>826.2</ele>
        <time>2021-04-10T10:41:32Z</time>
      </trkpt>
      <trkpt lat="45.16595" lon="5.88383">
        <ele>826.2</ele>
        <time>2021-04-10T10:41:33Z</time>
      </trkpt>
      <trkpt lat="45.16595" lon="5.88382">
        <ele>826.2</ele>
        <time>2021-04-10T10:41:34Z</time>
      </trkpt>
      <trkpt lat="45.16595" lon="5.88382">
        <ele>826.2</ele>
        <time>2021-04-10T10:41:35Z</time>
      </trkpt>
      <trkpt lat="45.16595" lon="5.88382">
        <ele>826</ele>
        <time>2021-04-10T10:41:36Z</time>
      </trkpt>
      <trkpt lat="45.16595" lon="5.88381">
        <ele>826.2</ele>
        <time>2021-04-10T10:41:37Z</time>
      </trkpt>
      <trkpt lat="45.16594" lon="5.88381">
        <ele>826.2</ele>
        <time>2021-04-10T10:41:38Z</time>
      </trkpt>
      <trkpt lat="45.16594" lon="5.88381">
        <ele>826.2</ele>
        <time>2021-04-10T10:41:39Z</time>
      </trkpt>
      <trkpt lat="45.16594" lon="5.8838">
        <ele>826.2</ele>
        <time>2021-04-10T10:41:40Z</time>
      </trkpt>
      <trkpt lat="45.16594" lon="5.8838">
        <ele>826.2</ele>
        <time>2021-04-10T10:41:41Z</time>
      </trkpt>
      <trkpt lat="45.16594" lon="5.8838">
        <ele>826.2</ele>
        <time>2021-04-10T10:41:42Z</time>
      </trkpt>
      <trkpt lat="45.16594" lon="5.88379">
        <ele>826.2</ele>
        <time>2021-04-10T10:41:43Z</time>
      </trkpt>
      <trkpt lat="45.16594" lon="5.88379">
        <ele>826.2</ele>
        <time>2021-04-10T10:41:44Z</time>
      </trkpt>
      <trkpt lat="45.16594" lon="5.88379">
        <ele>826.2</ele>
        <time>2021-04-10T10:41:45Z</time>
      </trkpt>
      <trkpt lat="45.16593" lon="5.88378">
        <ele>826.2</ele>
        <time>2021-04-10T10:41:46Z</time>
      </trkpt>
      <trkpt lat="45.16593" lon="5.88378">
        <ele>826.2</ele>
        <time>2021-04-10T10:41:47Z</time>
      </trkpt>
      <trkpt lat="45.16593" lon="5.88378">
        <ele>826.2</ele>
        <time>2021-04-10T10:41:48Z</time>
      </trkpt>
      <trkpt lat="45.16593" lon="5.88377">
        <ele>826.2</ele>
        <time>2021-04-10T10:41:49Z</time>
      </trkpt>
      <trkpt lat="45.16593" lon="5.88377">
        <ele>826.2</ele>
        <time>2021-04-10T10:41:50Z</time>
      </trkpt>
      <trkpt lat="45.16593" lon="5.88377">
        <ele>826.2</ele>
        <time>2021-04-10T10:41:51Z</time>
      </trkpt>
      <trkpt lat="45.16593" lon="5.88376">
        <ele>826.2</ele>
        <time>2021-04-10T10:41:52Z</time>
      </trkpt>
      <trkpt lat="45.16592" lon="5.88376">
        <ele>826.2</ele>
        <time>2021-04-10T10:41:53Z</time>
      </trkpt>
      <trkpt lat="45.16592" lon="5.88376">
        <ele>826.2</ele>
        <time>2021-04-10T10:41:54Z</time>
      </trkpt>
      <trkpt lat="45.16592" lon="5.88375">
        <ele>826.2</ele>
        <time>2021-04-10T10:41:55Z</time>
      </trkpt>
      <trkpt lat="45.16592" lon="5.88375">
        <ele>826.2</ele>
        <time>2021-04-10T10:41:56Z</time>
      </trkpt>
      <trkpt lat="45.16592" lon="5.88375">
        <ele>826.2</ele>
        <time>2021-04-10T10:41:57Z</time>
      </trkpt>
      <trkpt lat="45.16592" lon="5.88374">
        <ele>826.4</ele>
        <time>2021-04-10T10:41:58Z</time>
      </trkpt>
      <trkpt lat="45.16592" lon="5.88374">
        <ele>826.4</ele>
        <time>2021-04-10T10:41:59Z</time>
      </trkpt>
      <trkpt lat="45.16592" lon="5.88374">
        <ele>826.4</ele>
        <time>2021-04-10T10:42:00Z</time>
      </trkpt>
      <trkpt lat="45.16591" lon="5.88373">
        <ele>826.2</ele>
        <time>2021-04-10T10:42:01Z</time>
      </trkpt>
      <trkpt lat="45.16591" lon="5.88373">
        <ele>826.2</ele>
        <time>2021-04-10T10:42:02Z</time>
      </trkpt>
      <trkpt lat="45.16591" lon="5.88373">
        <ele>826</ele>
        <time>2021-04-10T10:42:03Z</time>
      </trkpt>
      <trkpt lat="45.16591" lon="5.88372">
        <ele>826</ele>
        <time>2021-04-10T10:42:04Z</time>
      </trkpt>
      <trkpt lat="45.16591" lon="5.88372">
        <ele>826</ele>
        <time>2021-04-10T10:42:05Z</time>
      </trkpt>
      <trkpt lat="45.16591" lon="5.88372">
        <ele>826.2</ele>
        <time>2021-04-10T10:42:06Z</time>
      </trkpt>
      <trkpt lat="45.16591" lon="5.88371">
        <ele>826.4</ele>
        <time>2021-04-10T10:42:07Z</time>
      </trkpt>
      <trkpt lat="45.1659" lon="5.88371">
        <ele>826.4</ele>
        <time>2021-04-10T10:42:08Z</time>
      </trkpt>
      <trkpt lat="45.1659" lon="5.88371">
        <ele>826.4</ele>
        <time>2021-04-10T10:42:09Z</time>
      </trkpt>
      <trkpt lat="45.1659" lon="5.8837">
        <ele>826.4</ele>
        <time>2021-04-10T10:42:10Z</time>
      </trkpt>
      <trkpt lat="45.1659" lon="5.8837">
        <ele>826.4</ele>
        <time>2021-04-10T10:42:11Z</time>
      </trkpt>
      <trkpt lat="45.1659" lon="5.8837">
        <ele>826.4</ele>
        <time>2021-04-10T10:42:12Z</time>
      </trkpt>
      <trkpt lat="45.1659" lon="5.88369">
        <ele>826.4</ele>
        <time>2021-04-10T10:42:13Z</time>
      </trkpt>
      <trkpt lat="45.1659" lon="5.88369">
        <ele>826.4</ele>
        <time>2021-04-10T10:42:14Z</time>
      </trkpt>
      <trkpt lat="45.16589" lon="5.88369">
        <ele>826.4</ele>
        <time>2021-04-10T10:42:15Z</time>
      </trkpt>
      <trkpt lat="45.16589" lon="5.88368">
        <ele>826.4</ele>
        <time>2021-04-10T10:42:16Z</time>
      </trkpt>
      <trkpt lat="45.16589" lon="5.88368">
        <ele>826.4</ele>
        <time>2021-04-10T10:42:17Z</time>
      </trkpt>
      <trkpt lat="45.16589" lon="5.88368">
        <ele>826.4</ele>
        <time>2021-04-10T10:42:18Z</time>
      </trkpt>
      <trkpt lat="45.16589" lon="5.88367">
        <ele>826.6</ele>
        <time>2021-04-10T10:42:19Z</time>
      </trkpt>
      <trkpt lat="45.16589" lon="5.88367">
        <ele>826.6</ele>
        <time>2021-04-10T10:42:20Z</time>
      </trkpt>
      <trkpt lat="45.16589" lon="5.88367">
        <ele>826.6</ele>
        <time>2021-04-10T10:42:21Z</time>
      </trkpt>
      <trkpt lat="45.16589" lon="5.88366">
        <ele>826.4</ele>
        <time>2021-04-10T10:42:22Z</time>
      </trkpt>
      <trkpt lat="45.16588" lon="5.88366">
        <ele>826.4</ele>
        <time>2021-04-10T10:42:23Z</time>
      </trkpt>
      <trkpt lat="45.16588" lon="5.88366">
        <ele>826.4</ele>
        <time>2021-04-10T10:42:24Z</time>
      </trkpt>
      <trkpt lat="45.16588" lon="5.88365">
        <ele>826.6</ele>
        <time>2021-04-10T10:42:25Z</time>
      </trkpt>
      <trkpt lat="45.16588" lon="5.88365">
        <ele>826.6</ele>
        <time>2021-04-10T10:42:26Z</time>
      </trkpt>
      <trkpt lat="45.16588" lon="5.88365">
        <ele>826.6</ele>
        <time>2021-04-10T10:42:27Z</time>
      </trkpt>
      <trkpt lat="45.16588" lon="5.88364">
        <ele>826.6</ele>
        <time>2021-04-10T10:42:28Z</time>
      </trkpt>
      <trkpt lat="45.16588" lon="5.88364">
        <ele>827</ele>
        <time>2021-04-10T10:42:29Z</time>
      </trkpt>
      <trkpt lat="45.16587" lon="5.88364">
        <ele>827.2</ele>
        <time>2021-04-10T10:42:30Z</time>
      </trkpt>
      <trkpt lat="45.16587" lon="5.88363">
        <ele>827.8</ele>
        <time>2021-04-10T10:42:31Z</time>
      </trkpt>
      <trkpt lat="45.16587" lon="5.88363">
        <ele>828.2</ele>
        <time>2021-04-10T10:42:32Z</time>
      </trkpt>
      <trkpt lat="45.16587" lon="5.88363">
        <ele>828.6</ele>
        <time>2021-04-10T10:42:33Z</time>
      </trkpt>
      <trkpt lat="45.16587" lon="5.88362">
        <ele>829</ele>
        <time>2021-04-10T10:42:34Z</time>
      </trkpt>
      <trkpt lat="45.16587" lon="5.88362">
        <ele>829.2</ele>
        <time>2021-04-10T10:42:35Z</time>
      </trkpt>
      <trkpt lat="45.16587" lon="5.88362">
        <ele>829.4</ele>
        <time>2021-04-10T10:42:36Z</time>
      </trkpt>
      <trkpt lat="45.16587" lon="5.88361">
        <ele>829.8</ele>
        <time>2021-04-10T10:42:37Z</time>
      </trkpt>
      <trkpt lat="45.16586" lon="5.88361">
        <ele>830</ele>
        <time>2021-04-10T10:42:38Z</time>
      </trkpt>
      <trkpt lat="45.16586" lon="5.88361">
        <ele>830</ele>
        <time>2021-04-10T10:42:39Z</time>
      </trkpt>
      <trkpt lat="45.16586" lon="5.8836">
        <ele>830</ele>
        <time>2021-04-10T10:42:40Z</time>
      </trkpt>
      <trkpt lat="45.16586" lon="5.8836">
        <ele>830.2</ele>
        <time>2021-04-10T10:42:41Z</time>
      </trkpt>
      <trkpt lat="45.16586" lon="5.8836">
        <ele>830.2</ele>
        <time>2021-04-10T10:42:42Z</time>
      </trkpt>
      <trkpt lat="45.16586" lon="5.88359">
        <ele>830.4</ele>
        <time>2021-04-10T10:42:43Z</time>
      </trkpt>
      <trkpt lat="45.16586" lon="5.88359">
        <ele>830.6</ele>
        <time>2021-04-10T10:42:44Z</time>
      </trkpt>
      <trkpt lat="45.16585" lon="5.88359">
        <ele>830.8</ele>
        <time>2021-04-10T10:42:45Z</time>
      </trkpt>
      <trkpt lat="45.16585" lon="5.88358">
        <ele>831</ele>
        <time>2021-04-10T10:42:46Z</time>
      </trkpt>
      <trkpt lat="45.16585" lon="5.88358">
        <ele>831.4</ele>
        <time>2021-04-10T10:42:47Z</time>
      </trkpt>
      <trkpt lat="45.16585" lon="5.88358">
        <ele>831.4</ele>
        <time>2021-04-10T10:42:48Z</time>
      </trkpt>
      <trkpt lat="45.16585" lon="5.88357">
        <ele>831.8</ele>
        <time>2021-04-10T10:42:49Z</time>
      </trkpt>
      <trkpt lat="45.16585" lon="5.88357">
        <ele>832.4</ele>
        <time>2021-04-10T10:42:50Z</time>
      </trkpt>
      <trkpt lat="45.16585" lon="5.88357">
        <ele>832.4</ele>
        <time>2021-04-10T10:42:51Z</time>
      </trkpt>
      <trkpt lat="45.16584" lon="5.88356">
        <ele>832.2</ele>
        <time>2021-04-10T10:42:52Z</time>
      </trkpt>
      <trkpt lat="45.16584" lon="5.88356">
        <ele>832.6</ele>
        <time>2021-04-10T10:42:53Z</time>
      </trkpt>
      <trkpt lat="45.16584" lon="5.88356">
        <ele>832.8</ele>
        <time>2021-04-10T10:42:54Z</time>
      </trkpt>
      <trkpt lat="45.16584" lon="5.88355">
        <ele>833.2</ele>
        <time>2021-04-10T10:42:55Z</time>
      </trkpt>
      <trkpt lat="45.16584" lon="5.88355">
        <ele>833.2</ele>
        <time>2021-04-10T10:42:56Z</time>
      </trkpt>
      <trkpt lat="45.16584" lon="5.88355">
        <ele>833.4</ele>
        <time>2021-04-10T10:42:57Z</time>
      </trkpt>
      <trkpt lat="45.16584" lon="5.88355">
        <ele>833.6</ele>
        <time>2021-04-10T10:42:58Z</time>
      </trkpt>
      <trkpt lat="45.16584" lon="5.88355">
        <ele>834</ele>
        <time>2021-04-10T10:42:59Z</time>
      </trkpt>
      <trkpt lat="45.16583" lon="5.88354">
        <ele>834.2</ele>
        <time>2021-04-10T10:43:00Z</time>
      </trkpt>
      <trkpt lat="45.16583" lon="5.88353">
        <ele>834.4</ele>
        <time>2021-04-10T10:43:01Z</time>
      </trkpt>
      <trkpt lat="45.16582" lon="5.88352">
        <ele>834.6</ele>
        <time>2021-04-10T10:43:02Z</time>
      </trkpt>
      <trkpt lat="45.16581" lon="5.88351">
        <ele>834.6</ele>
        <time>2021-04-10T10:43:03Z</time>
      </trkpt>
      <trkpt lat="45.16581" lon="5.8835">
        <ele>834.8</ele>
        <time>2021-04-10T10:43:04Z</time>
      </trkpt>
      <trkpt lat="45.1658" lon="5.88349">
        <ele>834.8</ele>
        <time>2021-04-10T10:43:05Z</time>
      </trkpt>
      <trkpt lat="45.16579" lon="5.88348">
        <ele>835</ele>
        <time>2021-04-10T10:43:06Z</time>
      </trkpt>
      <trkpt lat="45.16579" lon="5.88347">
        <ele>835</ele>
        <time>2021-04-10T10:43:07Z</time>
      </trkpt>
      <trkpt lat="45.16578" lon="5.88346">
        <ele>835.4</ele>
        <time>2021-04-10T10:43:08Z</time>
      </trkpt>
      <trkpt lat="45.16578" lon="5.88345">
        <ele>835.8</ele>
        <time>2021-04-10T10:43:09Z</time>
      </trkpt>
      <trkpt lat="45.16576" lon="5.88345">
        <ele>836</ele>
        <time>2021-04-10T10:43:10Z</time>
      </trkpt>
      <trkpt lat="45.16575" lon="5.88345">
        <ele>836</ele>
        <time>2021-04-10T10:43:11Z</time>
      </trkpt>
      <trkpt lat="45.16573" lon="5.88345">
        <ele>836.2</ele>
        <time>2021-04-10T10:43:12Z</time>
      </trkpt>
      <trkpt lat="45.16572" lon="5.88345">
        <ele>836.6</ele>
        <time>2021-04-10T10:43:13Z</time>
      </trkpt>
      <trkpt lat="45.16571" lon="5.88345">
        <ele>837</ele>
        <time>2021-04-10T10:43:14Z</time>
      </trkpt>
      <trkpt lat="45.16569" lon="5.88345">
        <ele>837.2</ele>
        <time>2021-04-10T10:43:15Z</time>
      </trkpt>
      <trkpt lat="45.16568" lon="5.88345">
        <ele>837.4</ele>
        <time>2021-04-10T10:43:16Z</time>
      </trkpt>
      <trkpt lat="45.16568" lon="5.88344">
        <ele>837.4</ele>
        <time>2021-04-10T10:43:17Z</time>
      </trkpt>
      <trkpt lat="45.16567" lon="5.88343">
        <ele>837.4</ele>
        <time>2021-04-10T10:43:18Z</time>
      </trkpt>
      <trkpt lat="45.16567" lon="5.88342">
        <ele>837.4</ele>
        <time>2021-04-10T10:43:19Z</time>
      </trkpt>
      <trkpt lat="45.16566" lon="5.88341">
        <ele>837.4</ele>
        <time>2021-04-10T10:43:20Z</time>
      </trkpt>
      <trkpt lat="45.16566" lon="5.88341">
        <ele>837.6</ele>
        <time>2021-04-10T10:43:21Z</time>
      </trkpt>
      <trkpt lat="45.16566" lon="5.8834">
        <ele>838</ele>
        <time>2021-04-10T10:43:22Z</time>
      </trkpt>
      <trkpt lat="45.16565" lon="5.88339">
        <ele>838.2</ele>
        <time>2021-04-10T10:43:23Z</time>
      </trkpt>
      <trkpt lat="45.16565" lon="5.88338">
        <ele>838.4</ele>
        <time>2021-04-10T10:43:24Z</time>
      </trkpt>
      <trkpt lat="45.16565" lon="5.88337">
        <ele>838.6</ele>
        <time>2021-04-10T10:43:25Z</time>
      </trkpt>
      <trkpt lat="45.16564" lon="5.88336">
        <ele>838.8</ele>
        <time>2021-04-10T10:43:26Z</time>
      </trkpt>
      <trkpt lat="45.16564" lon="5.88335">
        <ele>839</ele>
        <time>2021-04-10T10:43:27Z</time>
      </trkpt>
      <trkpt lat="45.16564" lon="5.88335">
        <ele>839.4</ele>
        <time>2021-04-10T10:43:28Z</time>
      </trkpt>
      <trkpt lat="45.16563" lon="5.88334">
        <ele>839.4</ele>
        <time>2021-04-10T10:43:29Z</time>
      </trkpt>
      <trkpt lat="45.16563" lon="5.88333">
        <ele>839.8</ele>
        <time>2021-04-10T10:43:30Z</time>
      </trkpt>
      <trkpt lat="45.16562" lon="5.88332">
        <ele>840</ele>
        <time>2021-04-10T10:43:31Z</time>
      </trkpt>
      <trkpt lat="45.16561" lon="5.88332">
        <ele>840.2</ele>
        <time>2021-04-10T10:43:32Z</time>
      </trkpt>
      <trkpt lat="45.16559" lon="5.88331">
        <ele>840.4</ele>
        <time>2021-04-10T10:43:33Z</time>
      </trkpt>
      <trkpt lat="45.16558" lon="5.88331">
        <ele>840.6</ele>
        <time>2021-04-10T10:43:34Z</time>
      </trkpt>
      <trkpt lat="45.16557" lon="5.8833">
        <ele>840.8</ele>
        <time>2021-04-10T10:43:35Z</time>
      </trkpt>
      <trkpt lat="45.16556" lon="5.88329">
        <ele>841.2</ele>
        <time>2021-04-10T10:43:36Z</time>
      </trkpt>
      <trkpt lat="45.16554" lon="5.88329">
        <ele>841.2</ele>
        <time>2021-04-10T10:43:37Z</time>
      </trkpt>
      <trkpt lat="45.16554" lon="5.88328">
        <ele>841.6</ele>
        <time>2021-04-10T10:43:38Z</time>
      </trkpt>
      <trkpt lat="45.16553" lon="5.88328">
        <ele>841.8</ele>
        <time>2021-04-10T10:43:39Z</time>
      </trkpt>
      <trkpt lat="45.16553" lon="5.88328">
        <ele>841.8</ele>
        <time>2021-04-10T10:43:40Z</time>
      </trkpt>
      <trkpt lat="45.16552" lon="5.88327">
        <ele>842</ele>
        <time>2021-04-10T10:43:41Z</time>
      </trkpt>
      <trkpt lat="45.16552" lon="5.88327">
        <ele>842.2</ele>
        <time>2021-04-10T10:43:42Z</time>
      </trkpt>
      <trkpt lat="45.16552" lon="5.88326">
        <ele>842.4</ele>
        <time>2021-04-10T10:43:43Z</time>
      </trkpt>
      <trkpt lat="45.16551" lon="5.88326">
        <ele>842.6</ele>
        <time>2021-04-10T10:43:44Z</time>
      </trkpt>
      <trkpt lat="45.16551" lon="5.88326">
        <ele>843</ele>
        <time>2021-04-10T10:43:45Z</time>
      </trkpt>
      <trkpt lat="45.1655" lon="5.88325">
        <ele>843.2</ele>
        <time>2021-04-10T10:43:46Z</time>
      </trkpt>
      <trkpt lat="45.1655" lon="5.88325">
        <ele>843.4</ele>
        <time>2021-04-10T10:43:47Z</time>
      </trkpt>
      <trkpt lat="45.16549" lon="5.88324">
        <ele>843.8</ele>
        <time>2021-04-10T10:43:48Z</time>
      </trkpt>
      <trkpt lat="45.16549" lon="5.88324">
        <ele>844.2</ele>
        <time>2021-04-10T10:43:49Z</time>
      </trkpt>
      <trkpt lat="45.16548" lon="5.88324">
        <ele>844.2</ele>
        <time>2021-04-10T10:43:50Z</time>
      </trkpt>
      <trkpt lat="45.16548" lon="5.88323">
        <ele>844.4</ele>
        <time>2021-04-10T10:43:51Z</time>
      </trkpt>
      <trkpt lat="45.16547" lon="5.88323">
        <ele>844.8</ele>
        <time>2021-04-10T10:43:52Z</time>
      </trkpt>
      <trkpt lat="45.16547" lon="5.88322">
        <ele>844.8</ele>
        <time>2021-04-10T10:43:53Z</time>
      </trkpt>
      <trkpt lat="45.16546" lon="5.88322">
        <ele>845</ele>
        <time>2021-04-10T10:43:54Z</time>
      </trkpt>
      <trkpt lat="45.16546" lon="5.88322">
        <ele>845.4</ele>
        <time>2021-04-10T10:43:55Z</time>
      </trkpt>
      <trkpt lat="45.16545" lon="5.88321">
        <ele>845.6</ele>
        <time>2021-04-10T10:43:56Z</time>
      </trkpt>
      <trkpt lat="45.16544" lon="5.88321">
        <ele>845.8</ele>
        <time>2021-04-10T10:43:57Z</time>
      </trkpt>
      <trkpt lat="45.16543" lon="5.8832">
        <ele>845.8</ele>
        <time>2021-04-10T10:43:58Z</time>
      </trkpt>
      <trkpt lat="45.16542" lon="5.8832">
        <ele>846</ele>
        <time>2021-04-10T10:43:59Z</time>
      </trkpt>
      <trkpt lat="45.16541" lon="5.88319">
        <ele>846.2</ele>
        <time>2021-04-10T10:44:00Z</time>
      </trkpt>
      <trkpt lat="45.1654" lon="5.88319">
        <ele>846.4</ele>
        <time>2021-04-10T10:44:01Z</time>
      </trkpt>
      <trkpt lat="45.16539" lon="5.88319">
        <ele>846.6</ele>
        <time>2021-04-10T10:44:02Z</time>
      </trkpt>
      <trkpt lat="45.16538" lon="5.88318">
        <ele>847</ele>
        <time>2021-04-10T10:44:03Z</time>
      </trkpt>
      <trkpt lat="45.16538" lon="5.88318">
        <ele>847</ele>
        <time>2021-04-10T10:44:04Z</time>
      </trkpt>
      <trkpt lat="45.16537" lon="5.88317">
        <ele>847.2</ele>
        <time>2021-04-10T10:44:05Z</time>
      </trkpt>
      <trkpt lat="45.16535" lon="5.88317">
        <ele>847.4</ele>
        <time>2021-04-10T10:44:06Z</time>
      </trkpt>
      <trkpt lat="45.16534" lon="5.88316">
        <ele>847.4</ele>
        <time>2021-04-10T10:44:07Z</time>
      </trkpt>
      <trkpt lat="45.16533" lon="5.88315">
        <ele>847.6</ele>
        <time>2021-04-10T10:44:08Z</time>
      </trkpt>
      <trkpt lat="45.16531" lon="5.88314">
        <ele>848</ele>
        <time>2021-04-10T10:44:09Z</time>
      </trkpt>
      <trkpt lat="45.1653" lon="5.88314">
        <ele>848.4</ele>
        <time>2021-04-10T10:44:10Z</time>
      </trkpt>
      <trkpt lat="45.16529" lon="5.88313">
        <ele>848.4</ele>
        <time>2021-04-10T10:44:11Z</time>
      </trkpt>
      <trkpt lat="45.16527" lon="5.88312">
        <ele>848.6</ele>
        <time>2021-04-10T10:44:12Z</time>
      </trkpt>
      <trkpt lat="45.16527" lon="5.88312">
        <ele>848.6</ele>
        <time>2021-04-10T10:44:13Z</time>
      </trkpt>
      <trkpt lat="45.16526" lon="5.88312">
        <ele>848.8</ele>
        <time>2021-04-10T10:44:14Z</time>
      </trkpt>
      <trkpt lat="45.16525" lon="5.88311">
        <ele>849</ele>
        <time>2021-04-10T10:44:15Z</time>
      </trkpt>
      <trkpt lat="45.16524" lon="5.88311">
        <ele>849</ele>
        <time>2021-04-10T10:44:16Z</time>
      </trkpt>
      <trkpt lat="45.16523" lon="5.88311">
        <ele>849.2</ele>
        <time>2021-04-10T10:44:17Z</time>
      </trkpt>
      <trkpt lat="45.16523" lon="5.8831">
        <ele>849.4</ele>
        <time>2021-04-10T10:44:18Z</time>
      </trkpt>
      <trkpt lat="45.16522" lon="5.8831">
        <ele>849.6</ele>
        <time>2021-04-10T10:44:19Z</time>
      </trkpt>
      <trkpt lat="45.16521" lon="5.8831">
        <ele>850</ele>
        <time>2021-04-10T10:44:20Z</time>
      </trkpt>
      <trkpt lat="45.1652" lon="5.88309">
        <ele>850</ele>
        <time>2021-04-10T10:44:21Z</time>
      </trkpt>
      <trkpt lat="45.1652" lon="5.88309">
        <ele>850.2</ele>
        <time>2021-04-10T10:44:22Z</time>
      </trkpt>
      <trkpt lat="45.16519" lon="5.88308">
        <ele>850.4</ele>
        <time>2021-04-10T10:44:23Z</time>
      </trkpt>
      <trkpt lat="45.16518" lon="5.88308">
        <ele>850.6</ele>
        <time>2021-04-10T10:44:24Z</time>
      </trkpt>
      <trkpt lat="45.16517" lon="5.88309">
        <ele>851</ele>
        <time>2021-04-10T10:44:25Z</time>
      </trkpt>
      <trkpt lat="45.16516" lon="5.88309">
        <ele>851</ele>
        <time>2021-04-10T10:44:26Z</time>
      </trkpt>
      <trkpt lat="45.16515" lon="5.88309">
        <ele>851.2</ele>
        <time>2021-04-10T10:44:27Z</time>
      </trkpt>
      <trkpt lat="45.16514" lon="5.88309">
        <ele>851.6</ele>
        <time>2021-04-10T10:44:28Z</time>
      </trkpt>
      <trkpt lat="45.16513" lon="5.88309">
        <ele>852</ele>
        <time>2021-04-10T10:44:29Z</time>
      </trkpt>
      <trkpt lat="45.16512" lon="5.88309">
        <ele>852</ele>
        <time>2021-04-10T10:44:30Z</time>
      </trkpt>
      <trkpt lat="45.16511" lon="5.88309">
        <ele>852</ele>
        <time>2021-04-10T10:44:31Z</time>
      </trkpt>
      <trkpt lat="45.1651" lon="5.88309">
        <ele>852.2</ele>
        <time>2021-04-10T10:44:32Z</time>
      </trkpt>
      <trkpt lat="45.16509" lon="5.88309">
        <ele>852.4</ele>
        <time>2021-04-10T10:44:33Z</time>
      </trkpt>
      <trkpt lat="45.16508" lon="5.88309">
        <ele>852.4</ele>
        <time>2021-04-10T10:44:34Z</time>
      </trkpt>
      <trkpt lat="45.16507" lon="5.88309">
        <ele>852.6</ele>
        <time>2021-04-10T10:44:35Z</time>
      </trkpt>
      <trkpt lat="45.16506" lon="5.88309">
        <ele>853</ele>
        <time>2021-04-10T10:44:36Z</time>
      </trkpt>
      <trkpt lat="45.16505" lon="5.88309">
        <ele>853.4</ele>
        <time>2021-04-10T10:44:37Z</time>
      </trkpt>
      <trkpt lat="45.16504" lon="5.88309">
        <ele>853.8</ele>
        <time>2021-04-10T10:44:38Z</time>
      </trkpt>
      <trkpt lat="45.16503" lon="5.88309">
        <ele>854</ele>
        <time>2021-04-10T10:44:39Z</time>
      </trkpt>
      <trkpt lat="45.16502" lon="5.88309">
        <ele>854</ele>
        <time>2021-04-10T10:44:40Z</time>
      </trkpt>
      <trkpt lat="45.165" lon="5.88309">
        <ele>854.4</ele>
        <time>2021-04-10T10:44:41Z</time>
      </trkpt>
      <trkpt lat="45.16499" lon="5.88309">
        <ele>854.6</ele>
        <time>2021-04-10T10:44:42Z</time>
      </trkpt>
      <trkpt lat="45.16498" lon="5.88309">
        <ele>854.8</ele>
        <time>2021-04-10T10:44:43Z</time>
      </trkpt>
      <trkpt lat="45.16497" lon="5.88309">
        <ele>855</ele>
        <time>2021-04-10T10:44:44Z</time>
      </trkpt>
      <trkpt lat="45.16496" lon="5.88309">
        <ele>855.2</ele>
        <time>2021-04-10T10:44:45Z</time>
      </trkpt>
      <trkpt lat="45.16495" lon="5.88309">
        <ele>855.4</ele>
        <time>2021-04-10T10:44:46Z</time>
      </trkpt>
      <trkpt lat="45.16493" lon="5.88309">
        <ele>855.4</ele>
        <time>2021-04-10T10:44:47Z</time>
      </trkpt>
      <trkpt lat="45.16492" lon="5.88309">
        <ele>855.6</ele>
        <time>2021-04-10T10:44:48Z</time>
      </trkpt>
      <trkpt lat="45.16491" lon="5.88309">
        <ele>855.8</ele>
        <time>2021-04-10T10:44:49Z</time>
      </trkpt>
      <trkpt lat="45.1649" lon="5.88309">
        <ele>856</ele>
        <time>2021-04-10T10:44:50Z</time>
      </trkpt>
      <trkpt lat="45.16489" lon="5.88309">
        <ele>856.2</ele>
        <time>2021-04-10T10:44:51Z</time>
      </trkpt>
      <trkpt lat="45.16488" lon="5.88309">
        <ele>856.2</ele>
        <time>2021-04-10T10:44:52Z</time>
      </trkpt>
      <trkpt lat="45.16487" lon="5.88309">
        <ele>856.8</ele>
        <time>2021-04-10T10:44:53Z</time>
      </trkpt>
      <trkpt lat="45.16486" lon="5.88309">
        <ele>857</ele>
        <time>2021-04-10T10:44:54Z</time>
      </trkpt>
      <trkpt lat="45.16485" lon="5.88309">
        <ele>857.2</ele>
        <time>2021-04-10T10:44:55Z</time>
      </trkpt>
      <trkpt lat="45.16484" lon="5.88309">
        <ele>857.2</ele>
        <time>2021-04-10T10:44:56Z</time>
      </trkpt>
      <trkpt lat="45.16483" lon="5.88309">
        <ele>857.2</ele>
        <time>2021-04-10T10:44:57Z</time>
      </trkpt>
      <trkpt lat="45.16482" lon="5.88309">
        <ele>857.4</ele>
        <time>2021-04-10T10:44:58Z</time>
      </trkpt>
      <trkpt lat="45.16481" lon="5.88309">
        <ele>857.6</ele>
        <time>2021-04-10T10:44:59Z</time>
      </trkpt>
      <trkpt lat="45.1648" lon="5.88309">
        <ele>858</ele>
        <time>2021-04-10T10:45:00Z</time>
      </trkpt>
      <trkpt lat="45.16479" lon="5.88309">
        <ele>858.2</ele>
        <time>2021-04-10T10:45:01Z</time>
      </trkpt>
      <trkpt lat="45.16478" lon="5.88309">
        <ele>858.4</ele>
        <time>2021-04-10T10:45:02Z</time>
      </trkpt>
      <trkpt lat="45.16477" lon="5.8831">
        <ele>858.8</ele>
        <time>2021-04-10T10:45:03Z</time>
      </trkpt>
      <trkpt lat="45.16476" lon="5.8831">
        <ele>859</ele>
        <time>2021-04-10T10:45:04Z</time>
      </trkpt>
      <trkpt lat="45.16475" lon="5.88311">
        <ele>859.2</ele>
        <time>2021-04-10T10:45:05Z</time>
      </trkpt>
      <trkpt lat="45.16474" lon="5.88312">
        <ele>859.4</ele>
        <time>2021-04-10T10:45:06Z</time>
      </trkpt>
      <trkpt lat="45.16473" lon="5.88312">
        <ele>859.6</ele>
        <time>2021-04-10T10:45:07Z</time>
      </trkpt>
      <trkpt lat="45.16472" lon="5.88313">
        <ele>860</ele>
        <time>2021-04-10T10:45:08Z</time>
      </trkpt>
      <trkpt lat="45.16471" lon="5.88313">
        <ele>860.4</ele>
        <time>2021-04-10T10:45:09Z</time>
      </trkpt>
      <trkpt lat="45.1647" lon="5.88314">
        <ele>860.6</ele>
        <time>2021-04-10T10:45:10Z</time>
      </trkpt>
      <trkpt lat="45.16469" lon="5.88314">
        <ele>860.6</ele>
        <time>2021-04-10T10:45:11Z</time>
      </trkpt>
      <trkpt lat="45.16468" lon="5.88315">
        <ele>861</ele>
        <time>2021-04-10T10:45:12Z</time>
      </trkpt>
      <trkpt lat="45.16467" lon="5.88315">
        <ele>861.2</ele>
        <time>2021-04-10T10:45:13Z</time>
      </trkpt>
      <trkpt lat="45.16466" lon="5.88315">
        <ele>861.6</ele>
        <time>2021-04-10T10:45:14Z</time>
      </trkpt>
      <trkpt lat="45.16465" lon="5.88316">
        <ele>862</ele>
        <time>2021-04-10T10:45:15Z</time>
      </trkpt>
      <trkpt lat="45.16464" lon="5.88316">
        <ele>862.2</ele>
        <time>2021-04-10T10:45:16Z</time>
      </trkpt>
      <trkpt lat="45.16463" lon="5.88317">
        <ele>862.4</ele>
        <time>2021-04-10T10:45:17Z</time>
      </trkpt>
      <trkpt lat="45.16462" lon="5.88317">
        <ele>862.8</ele>
        <time>2021-04-10T10:45:18Z</time>
      </trkpt>
      <trkpt lat="45.16461" lon="5.88318">
        <ele>862.8</ele>
        <time>2021-04-10T10:45:19Z</time>
      </trkpt>
      <trkpt lat="45.1646" lon="5.88318">
        <ele>862.8</ele>
        <time>2021-04-10T10:45:20Z</time>
      </trkpt>
      <trkpt lat="45.16459" lon="5.88318">
        <ele>862.8</ele>
        <time>2021-04-10T10:45:21Z</time>
      </trkpt>
      <trkpt lat="45.16459" lon="5.88318">
        <ele>862.8</ele>
        <time>2021-04-10T10:45:22Z</time>
      </trkpt>
      <trkpt lat="45.16458" lon="5.88318">
        <ele>862.8</ele>
        <time>2021-04-10T10:45:23Z</time>
      </trkpt>
      <trkpt lat="45.16457" lon="5.88318">
        <ele>862.8</ele>
        <time>2021-04-10T10:45:24Z</time>
      </trkpt>
      <trkpt lat="45.16457" lon="5.88318">
        <ele>862.6</ele>
        <time>2021-04-10T10:45:25Z</time>
      </trkpt>
      <trkpt lat="45.16456" lon="5.88319">
        <ele>862.8</ele>
        <time>2021-04-10T10:45:26Z</time>
      </trkpt>
      <trkpt lat="45.16455" lon="5.88319">
        <ele>862.8</ele>
        <time>2021-04-10T10:45:27Z</time>
      </trkpt>
      <trkpt lat="45.16454" lon="5.88319">
        <ele>862.8</ele>
        <time>2021-04-10T10:45:28Z</time>
      </trkpt>
      <trkpt lat="45.16454" lon="5.88319">
        <ele>862.8</ele>
        <time>2021-04-10T10:45:29Z</time>
      </trkpt>
      <trkpt lat="45.16453" lon="5.88319">
        <ele>862.8</ele>
        <time>2021-04-10T10:45:30Z</time>
      </trkpt>
      <trkpt lat="45.16452" lon="5.88319">
        <ele>863.2</ele>
        <time>2021-04-10T10:45:31Z</time>
      </trkpt>
      <trkpt lat="45.16452" lon="5.88319">
        <ele>863.4</ele>
        <time>2021-04-10T10:45:32Z</time>
      </trkpt>
      <trkpt lat="45.16451" lon="5.88319">
        <ele>864</ele>
        <time>2021-04-10T10:45:33Z</time>
      </trkpt>
      <trkpt lat="45.1645" lon="5.88319">
        <ele>864</ele>
        <time>2021-04-10T10:45:34Z</time>
      </trkpt>
      <trkpt lat="45.16449" lon="5.88318">
        <ele>864.2</ele>
        <time>2021-04-10T10:45:35Z</time>
      </trkpt>
      <trkpt lat="45.16448" lon="5.88318">
        <ele>864.4</ele>
        <time>2021-04-10T10:45:36Z</time>
      </trkpt>
      <trkpt lat="45.16446" lon="5.88318">
        <ele>864.6</ele>
        <time>2021-04-10T10:45:37Z</time>
      </trkpt>
      <trkpt lat="45.16445" lon="5.88318">
        <ele>864.6</ele>
        <time>2021-04-10T10:45:38Z</time>
      </trkpt>
      <trkpt lat="45.16444" lon="5.88317">
        <ele>865</ele>
        <time>2021-04-10T10:45:39Z</time>
      </trkpt>
      <trkpt lat="45.16443" lon="5.88317">
        <ele>865.2</ele>
        <time>2021-04-10T10:45:40Z</time>
      </trkpt>
      <trkpt lat="45.16442" lon="5.88317">
        <ele>865.4</ele>
        <time>2021-04-10T10:45:41Z</time>
      </trkpt>
      <trkpt lat="45.16441" lon="5.88317">
        <ele>865.6</ele>
        <time>2021-04-10T10:45:42Z</time>
      </trkpt>
      <trkpt lat="45.16441" lon="5.88317">
        <ele>865.8</ele>
        <time>2021-04-10T10:45:43Z</time>
      </trkpt>
      <trkpt lat="45.1644" lon="5.88317">
        <ele>866.2</ele>
        <time>2021-04-10T10:45:44Z</time>
      </trkpt>
      <trkpt lat="45.16439" lon="5.88317">
        <ele>866.2</ele>
        <time>2021-04-10T10:45:45Z</time>
      </trkpt>
      <trkpt lat="45.16438" lon="5.88317">
        <ele>866.4</ele>
        <time>2021-04-10T10:45:46Z</time>
      </trkpt>
      <trkpt lat="45.16438" lon="5.88317">
        <ele>866.6</ele>
        <time>2021-04-10T10:45:47Z</time>
      </trkpt>
      <trkpt lat="45.16437" lon="5.88317">
        <ele>867</ele>
        <time>2021-04-10T10:45:48Z</time>
      </trkpt>
      <trkpt lat="45.16436" lon="5.88317">
        <ele>867.2</ele>
        <time>2021-04-10T10:45:49Z</time>
      </trkpt>
      <trkpt lat="45.16436" lon="5.88316">
        <ele>867.4</ele>
        <time>2021-04-10T10:45:50Z</time>
      </trkpt>
      <trkpt lat="45.16435" lon="5.88316">
        <ele>867.8</ele>
        <time>2021-04-10T10:45:51Z</time>
      </trkpt>
      <trkpt lat="45.16434" lon="5.88316">
        <ele>868</ele>
        <time>2021-04-10T10:45:52Z</time>
      </trkpt>
      <trkpt lat="45.16433" lon="5.88316">
        <ele>868.4</ele>
        <time>2021-04-10T10:45:53Z</time>
      </trkpt>
      <trkpt lat="45.16433" lon="5.88316">
        <ele>868.6</ele>
        <time>2021-04-10T10:45:54Z</time>
      </trkpt>
      <trkpt lat="45.16432" lon="5.88316">
        <ele>869</ele>
        <time>2021-04-10T10:45:55Z</time>
      </trkpt>
      <trkpt lat="45.16431" lon="5.88317">
        <ele>869</ele>
        <time>2021-04-10T10:45:56Z</time>
      </trkpt>
      <trkpt lat="45.1643" lon="5.88317">
        <ele>869.4</ele>
        <time>2021-04-10T10:45:57Z</time>
      </trkpt>
      <trkpt lat="45.1643" lon="5.88317">
        <ele>869.8</ele>
        <time>2021-04-10T10:45:58Z</time>
      </trkpt>
      <trkpt lat="45.16429" lon="5.88318">
        <ele>869.8</ele>
        <time>2021-04-10T10:45:59Z</time>
      </trkpt>
      <trkpt lat="45.16428" lon="5.88318">
        <ele>869.8</ele>
        <time>2021-04-10T10:46:00Z</time>
      </trkpt>
      <trkpt lat="45.16427" lon="5.88318">
        <ele>870</ele>
        <time>2021-04-10T10:46:01Z</time>
      </trkpt>
      <trkpt lat="45.16426" lon="5.88319">
        <ele>870.4</ele>
        <time>2021-04-10T10:46:02Z</time>
      </trkpt>
      <trkpt lat="45.16425" lon="5.88319">
        <ele>870.6</ele>
        <time>2021-04-10T10:46:03Z</time>
      </trkpt>
      <trkpt lat="45.16425" lon="5.88319">
        <ele>870.8</ele>
        <time>2021-04-10T10:46:04Z</time>
      </trkpt>
      <trkpt lat="45.16424" lon="5.8832">
        <ele>871</ele>
        <time>2021-04-10T10:46:05Z</time>
      </trkpt>
      <trkpt lat="45.16423" lon="5.8832">
        <ele>871.4</ele>
        <time>2021-04-10T10:46:06Z</time>
      </trkpt>
      <trkpt lat="45.16422" lon="5.8832">
        <ele>871.4</ele>
        <time>2021-04-10T10:46:07Z</time>
      </trkpt>
      <trkpt lat="45.16421" lon="5.8832">
        <ele>871.6</ele>
        <time>2021-04-10T10:46:08Z</time>
      </trkpt>
      <trkpt lat="45.1642" lon="5.8832">
        <ele>872</ele>
        <time>2021-04-10T10:46:09Z</time>
      </trkpt>
      <trkpt lat="45.16419" lon="5.88321">
        <ele>872.2</ele>
        <time>2021-04-10T10:46:10Z</time>
      </trkpt>
      <trkpt lat="45.16419" lon="5.88321">
        <ele>872.6</ele>
        <time>2021-04-10T10:46:11Z</time>
      </trkpt>
      <trkpt lat="45.16418" lon="5.88321">
        <ele>872.8</ele>
        <time>2021-04-10T10:46:12Z</time>
      </trkpt>
      <trkpt lat="45.16417" lon="5.88321">
        <ele>873</ele>
        <time>2021-04-10T10:46:13Z</time>
      </trkpt>
      <trkpt lat="45.16416" lon="5.88321">
        <ele>873.2</ele>
        <time>2021-04-10T10:46:14Z</time>
      </trkpt>
      <trkpt lat="45.16415" lon="5.88321">
        <ele>873.4</ele>
        <time>2021-04-10T10:46:15Z</time>
      </trkpt>
      <trkpt lat="45.16414" lon="5.88321">
        <ele>873.4</ele>
        <time>2021-04-10T10:46:16Z</time>
      </trkpt>
      <trkpt lat="45.16413" lon="5.88321">
        <ele>873.6</ele>
        <time>2021-04-10T10:46:17Z</time>
      </trkpt>
      <trkpt lat="45.16412" lon="5.88322">
        <ele>873.8</ele>
        <time>2021-04-10T10:46:18Z</time>
      </trkpt>
      <trkpt lat="45.16411" lon="5.88322">
        <ele>874.2</ele>
        <time>2021-04-10T10:46:19Z</time>
      </trkpt>
      <trkpt lat="45.1641" lon="5.88323">
        <ele>874.2</ele>
        <time>2021-04-10T10:46:20Z</time>
      </trkpt>
      <trkpt lat="45.16409" lon="5.88323">
        <ele>874.4</ele>
        <time>2021-04-10T10:46:21Z</time>
      </trkpt>
      <trkpt lat="45.16407" lon="5.88324">
        <ele>874.8</ele>
        <time>2021-04-10T10:46:22Z</time>
      </trkpt>
      <trkpt lat="45.16406" lon="5.88324">
        <ele>875</ele>
        <time>2021-04-10T10:46:23Z</time>
      </trkpt>
      <trkpt lat="45.16405" lon="5.88325">
        <ele>875</ele>
        <time>2021-04-10T10:46:24Z</time>
      </trkpt>
      <trkpt lat="45.16404" lon="5.88325">
        <ele>875.2</ele>
        <time>2021-04-10T10:46:25Z</time>
      </trkpt>
      <trkpt lat="45.16403" lon="5.88325">
        <ele>875.6</ele>
        <time>2021-04-10T10:46:26Z</time>
      </trkpt>
      <trkpt lat="45.16402" lon="5.88325">
        <ele>875.8</ele>
        <time>2021-04-10T10:46:27Z</time>
      </trkpt>
      <trkpt lat="45.16401" lon="5.88325">
        <ele>875.8</ele>
        <time>2021-04-10T10:46:28Z</time>
      </trkpt>
      <trkpt lat="45.164" lon="5.88324">
        <ele>876</ele>
        <time>2021-04-10T10:46:29Z</time>
      </trkpt>
      <trkpt lat="45.164" lon="5.88324">
        <ele>876.2</ele>
        <time>2021-04-10T10:46:30Z</time>
      </trkpt>
      <trkpt lat="45.16399" lon="5.88324">
        <ele>876.4</ele>
        <time>2021-04-10T10:46:31Z</time>
      </trkpt>
      <trkpt lat="45.16398" lon="5.88324">
        <ele>876.6</ele>
        <time>2021-04-10T10:46:32Z</time>
      </trkpt>
      <trkpt lat="45.16397" lon="5.88324">
        <ele>876.8</ele>
        <time>2021-04-10T10:46:33Z</time>
      </trkpt>
      <trkpt lat="45.16396" lon="5.88324">
        <ele>876.8</ele>
        <time>2021-04-10T10:46:34Z</time>
      </trkpt>
      <trkpt lat="45.16395" lon="5.88324">
        <ele>877</ele>
        <time>2021-04-10T10:46:35Z</time>
      </trkpt>
      <trkpt lat="45.16395" lon="5.88323">
        <ele>877.4</ele>
        <time>2021-04-10T10:46:36Z</time>
      </trkpt>
      <trkpt lat="45.16393" lon="5.88323">
        <ele>877.8</ele>
        <time>2021-04-10T10:46:37Z</time>
      </trkpt>
      <trkpt lat="45.16391" lon="5.88323">
        <ele>877.8</ele>
        <time>2021-04-10T10:46:38Z</time>
      </trkpt>
      <trkpt lat="45.16389" lon="5.88322">
        <ele>878</ele>
        <time>2021-04-10T10:46:39Z</time>
      </trkpt>
      <trkpt lat="45.16387" lon="5.88322">
        <ele>878.4</ele>
        <time>2021-04-10T10:46:40Z</time>
      </trkpt>
      <trkpt lat="45.16385" lon="5.88322">
        <ele>878.4</ele>
        <time>2021-04-10T10:46:41Z</time>
      </trkpt>
      <trkpt lat="45.16383" lon="5.88322">
        <ele>878.6</ele>
        <time>2021-04-10T10:46:42Z</time>
      </trkpt>
      <trkpt lat="45.16382" lon="5.88322">
        <ele>879</ele>
        <time>2021-04-10T10:46:43Z</time>
      </trkpt>
      <trkpt lat="45.16381" lon="5.88322">
        <ele>879.2</ele>
        <time>2021-04-10T10:46:44Z</time>
      </trkpt>
      <trkpt lat="45.1638" lon="5.88322">
        <ele>879.6</ele>
        <time>2021-04-10T10:46:45Z</time>
      </trkpt>
      <trkpt lat="45.16379" lon="5.88322">
        <ele>879.8</ele>
        <time>2021-04-10T10:46:46Z</time>
      </trkpt>
      <trkpt lat="45.16378" lon="5.88322">
        <ele>879.8</ele>
        <time>2021-04-10T10:46:47Z</time>
      </trkpt>
      <trkpt lat="45.16377" lon="5.88322">
        <ele>880</ele>
        <time>2021-04-10T10:46:48Z</time>
      </trkpt>
      <trkpt lat="45.16376" lon="5.88322">
        <ele>880</ele>
        <time>2021-04-10T10:46:49Z</time>
      </trkpt>
      <trkpt lat="45.16375" lon="5.88322">
        <ele>880.2</ele>
        <time>2021-04-10T10:46:50Z</time>
      </trkpt>
      <trkpt lat="45.16374" lon="5.88322">
        <ele>880.4</ele>
        <time>2021-04-10T10:46:51Z</time>
      </trkpt>
      <trkpt lat="45.16374" lon="5.88322">
        <ele>880.6</ele>
        <time>2021-04-10T10:46:52Z</time>
      </trkpt>
      <trkpt lat="45.16373" lon="5.88322">
        <ele>880.8</ele>
        <time>2021-04-10T10:46:53Z</time>
      </trkpt>
      <trkpt lat="45.16372" lon="5.88322">
        <ele>881</ele>
        <time>2021-04-10T10:46:54Z</time>
      </trkpt>
      <trkpt lat="45.16371" lon="5.88322">
        <ele>881.4</ele>
        <time>2021-04-10T10:46:55Z</time>
      </trkpt>
      <trkpt lat="45.16371" lon="5.88322">
        <ele>881.8</ele>
        <time>2021-04-10T10:46:56Z</time>
      </trkpt>
      <trkpt lat="45.1637" lon="5.88322">
        <ele>881.8</ele>
        <time>2021-04-10T10:46:57Z</time>
      </trkpt>
      <trkpt lat="45.16369" lon="5.88322">
        <ele>881.8</ele>
        <time>2021-04-10T10:46:58Z</time>
      </trkpt>
      <trkpt lat="45.16369" lon="5.88322">
        <ele>882.2</ele>
        <time>2021-04-10T10:46:59Z</time>
      </trkpt>
      <trkpt lat="45.16368" lon="5.88322">
        <ele>882.4</ele>
        <time>2021-04-10T10:47:00Z</time>
      </trkpt>
      <trkpt lat="45.16367" lon="5.88321">
        <ele>882.6</ele>
        <time>2021-04-10T10:47:01Z</time>
      </trkpt>
      <trkpt lat="45.16367" lon="5.88321">
        <ele>882.8</ele>
        <time>2021-04-10T10:47:02Z</time>
      </trkpt>
      <trkpt lat="45.16366" lon="5.88321">
        <ele>883.2</ele>
        <time>2021-04-10T10:47:03Z</time>
      </trkpt>
      <trkpt lat="45.16365" lon="5.88321">
        <ele>883.4</ele>
        <time>2021-04-10T10:47:04Z</time>
      </trkpt>
      <trkpt lat="45.16364" lon="5.88321">
        <ele>883.6</ele>
        <time>2021-04-10T10:47:05Z</time>
      </trkpt>
      <trkpt lat="45.16364" lon="5.88321">
        <ele>883.8</ele>
        <time>2021-04-10T10:47:06Z</time>
      </trkpt>
      <trkpt lat="45.16363" lon="5.88321">
        <ele>883.8</ele>
        <time>2021-04-10T10:47:07Z</time>
      </trkpt>
      <trkpt lat="45.16362" lon="5.88321">
        <ele>884.2</ele>
        <time>2021-04-10T10:47:08Z</time>
      </trkpt>
      <trkpt lat="45.16361" lon="5.8832">
        <ele>884.4</ele>
        <time>2021-04-10T10:47:09Z</time>
      </trkpt>
      <trkpt lat="45.1636" lon="5.8832">
        <ele>884.8</ele>
        <time>2021-04-10T10:47:10Z</time>
      </trkpt>
      <trkpt lat="45.16359" lon="5.8832">
        <ele>885.2</ele>
        <time>2021-04-10T10:47:11Z</time>
      </trkpt>
      <trkpt lat="45.16359" lon="5.8832">
        <ele>885.8</ele>
        <time>2021-04-10T10:47:12Z</time>
      </trkpt>
      <trkpt lat="45.16358" lon="5.8832">
        <ele>886</ele>
        <time>2021-04-10T10:47:13Z</time>
      </trkpt>
      <trkpt lat="45.16357" lon="5.88319">
        <ele>886.2</ele>
        <time>2021-04-10T10:47:14Z</time>
      </trkpt>
      <trkpt lat="45.16356" lon="5.88319">
        <ele>886.4</ele>
        <time>2021-04-10T10:47:15Z</time>
      </trkpt>
      <trkpt lat="45.16355" lon="5.88318">
        <ele>886.4</ele>
        <time>2021-04-10T10:47:16Z</time>
      </trkpt>
      <trkpt lat="45.16354" lon="5.88316">
        <ele>886.6</ele>
        <time>2021-04-10T10:47:17Z</time>
      </trkpt>
      <trkpt lat="45.16353" lon="5.88315">
        <ele>887</ele>
        <time>2021-04-10T10:47:18Z</time>
      </trkpt>
      <trkpt lat="45.16352" lon="5.88313">
        <ele>887.2</ele>
        <time>2021-04-10T10:47:19Z</time>
      </trkpt>
      <trkpt lat="45.16351" lon="5.88312">
        <ele>887.2</ele>
        <time>2021-04-10T10:47:20Z</time>
      </trkpt>
      <trkpt lat="45.1635" lon="5.88311">
        <ele>887.6</ele>
        <time>2021-04-10T10:47:21Z</time>
      </trkpt>
      <trkpt lat="45.16349" lon="5.88309">
        <ele>887.6</ele>
        <time>2021-04-10T10:47:22Z</time>
      </trkpt>
      <trkpt lat="45.16348" lon="5.88309">
        <ele>888.2</ele>
        <time>2021-04-10T10:47:23Z</time>
      </trkpt>
      <trkpt lat="45.16347" lon="5.88308">
        <ele>888.6</ele>
        <time>2021-04-10T10:47:24Z</time>
      </trkpt>
      <trkpt lat="45.16346" lon="5.88308">
        <ele>888.6</ele>
        <time>2021-04-10T10:47:25Z</time>
      </trkpt>
      <trkpt lat="45.16345" lon="5.88308">
        <ele>888.6</ele>
        <time>2021-04-10T10:47:26Z</time>
      </trkpt>
      <trkpt lat="45.16345" lon="5.88307">
        <ele>889.2</ele>
        <time>2021-04-10T10:47:27Z</time>
      </trkpt>
      <trkpt lat="45.16344" lon="5.88307">
        <ele>889.6</ele>
        <time>2021-04-10T10:47:28Z</time>
      </trkpt>
      <trkpt lat="45.16343" lon="5.88307">
        <ele>889.6</ele>
        <time>2021-04-10T10:47:29Z</time>
      </trkpt>
      <trkpt lat="45.16342" lon="5.88307">
        <ele>889.6</ele>
        <time>2021-04-10T10:47:30Z</time>
      </trkpt>
      <trkpt lat="45.16341" lon="5.88306">
        <ele>889.6</ele>
        <time>2021-04-10T10:47:31Z</time>
      </trkpt>
      <trkpt lat="45.1634" lon="5.88306">
        <ele>889.8</ele>
        <time>2021-04-10T10:47:32Z</time>
      </trkpt>
      <trkpt lat="45.16339" lon="5.88306">
        <ele>889.8</ele>
        <time>2021-04-10T10:47:33Z</time>
      </trkpt>
      <trkpt lat="45.16337" lon="5.88306">
        <ele>889.8</ele>
        <time>2021-04-10T10:47:34Z</time>
      </trkpt>
      <trkpt lat="45.16336" lon="5.88306">
        <ele>890</ele>
        <time>2021-04-10T10:47:35Z</time>
      </trkpt>
      <trkpt lat="45.16335" lon="5.88307">
        <ele>890.2</ele>
        <time>2021-04-10T10:47:36Z</time>
      </trkpt>
      <trkpt lat="45.16334" lon="5.88307">
        <ele>890.2</ele>
        <time>2021-04-10T10:47:37Z</time>
      </trkpt>
      <trkpt lat="45.16333" lon="5.88307">
        <ele>890.4</ele>
        <time>2021-04-10T10:47:38Z</time>
      </trkpt>
      <trkpt lat="45.16332" lon="5.88307">
        <ele>890.4</ele>
        <time>2021-04-10T10:47:39Z</time>
      </trkpt>
      <trkpt lat="45.16331" lon="5.88307">
        <ele>890.6</ele>
        <time>2021-04-10T10:47:40Z</time>
      </trkpt>
      <trkpt lat="45.1633" lon="5.88307">
        <ele>890.8</ele>
        <time>2021-04-10T10:47:41Z</time>
      </trkpt>
      <trkpt lat="45.16329" lon="5.88307">
        <ele>890.8</ele>
        <time>2021-04-10T10:47:42Z</time>
      </trkpt>
      <trkpt lat="45.16328" lon="5.88308">
        <ele>890.8</ele>
        <time>2021-04-10T10:47:43Z</time>
      </trkpt>
      <trkpt lat="45.16327" lon="5.88308">
        <ele>891</ele>
        <time>2021-04-10T10:47:44Z</time>
      </trkpt>
      <trkpt lat="45.16327" lon="5.88308">
        <ele>891.4</ele>
        <time>2021-04-10T10:47:45Z</time>
      </trkpt>
      <trkpt lat="45.16326" lon="5.88308">
        <ele>891.8</ele>
        <time>2021-04-10T10:47:46Z</time>
      </trkpt>
      <trkpt lat="45.16325" lon="5.88308">
        <ele>892</ele>
        <time>2021-04-10T10:47:47Z</time>
      </trkpt>
      <trkpt lat="45.16324" lon="5.88308">
        <ele>892.2</ele>
        <time>2021-04-10T10:47:48Z</time>
      </trkpt>
      <trkpt lat="45.16323" lon="5.88308">
        <ele>892.2</ele>
        <time>2021-04-10T10:47:49Z</time>
      </trkpt>
      <trkpt lat="45.16323" lon="5.88308">
        <ele>892.6</ele>
        <time>2021-04-10T10:47:50Z</time>
      </trkpt>
      <trkpt lat="45.16322" lon="5.88308">
        <ele>892.8</ele>
        <time>2021-04-10T10:47:51Z</time>
      </trkpt>
      <trkpt lat="45.16321" lon="5.88308">
        <ele>893.2</ele>
        <time>2021-04-10T10:47:52Z</time>
      </trkpt>
      <trkpt lat="45.1632" lon="5.88307">
        <ele>893.2</ele>
        <time>2021-04-10T10:47:53Z</time>
      </trkpt>
      <trkpt lat="45.1632" lon="5.88307">
        <ele>893.6</ele>
        <time>2021-04-10T10:47:54Z</time>
      </trkpt>
      <trkpt lat="45.16319" lon="5.88306">
        <ele>893.6</ele>
        <time>2021-04-10T10:47:55Z</time>
      </trkpt>
      <trkpt lat="45.16319" lon="5.88306">
        <ele>893.6</ele>
        <time>2021-04-10T10:47:56Z</time>
      </trkpt>
      <trkpt lat="45.16318" lon="5.88305">
        <ele>894.2</ele>
        <time>2021-04-10T10:47:57Z</time>
      </trkpt>
      <trkpt lat="45.16318" lon="5.88305">
        <ele>894.4</ele>
        <time>2021-04-10T10:47:58Z</time>
      </trkpt>
      <trkpt lat="45.16317" lon="5.88305">
        <ele>894.6</ele>
        <time>2021-04-10T10:47:59Z</time>
      </trkpt>
      <trkpt lat="45.16317" lon="5.88304">
        <ele>894.8</ele>
        <time>2021-04-10T10:48:00Z</time>
      </trkpt>
      <trkpt lat="45.16316" lon="5.88304">
        <ele>895.2</ele>
        <time>2021-04-10T10:48:01Z</time>
      </trkpt>
      <trkpt lat="45.16315" lon="5.88303">
        <ele>895.4</ele>
        <time>2021-04-10T10:48:02Z</time>
      </trkpt>
      <trkpt lat="45.16315" lon="5.88303">
        <ele>895.6</ele>
        <time>2021-04-10T10:48:03Z</time>
      </trkpt>
      <trkpt lat="45.16314" lon="5.88302">
        <ele>896</ele>
        <time>2021-04-10T10:48:04Z</time>
      </trkpt>
      <trkpt lat="45.16314" lon="5.88302">
        <ele>896.2</ele>
        <time>2021-04-10T10:48:05Z</time>
      </trkpt>
      <trkpt lat="45.16313" lon="5.88302">
        <ele>896.4</ele>
        <time>2021-04-10T10:48:06Z</time>
      </trkpt>
      <trkpt lat="45.16313" lon="5.88301">
        <ele>896.6</ele>
        <time>2021-04-10T10:48:07Z</time>
      </trkpt>
      <trkpt lat="45.16312" lon="5.88301">
        <ele>897</ele>
        <time>2021-04-10T10:48:08Z</time>
      </trkpt>
      <trkpt lat="45.16311" lon="5.88301">
        <ele>897.2</ele>
        <time>2021-04-10T10:48:09Z</time>
      </trkpt>
      <trkpt lat="45.1631" lon="5.88301">
        <ele>897.4</ele>
        <time>2021-04-10T10:48:10Z</time>
      </trkpt>
      <trkpt lat="45.16309" lon="5.88301">
        <ele>897.8</ele>
        <time>2021-04-10T10:48:11Z</time>
      </trkpt>
      <trkpt lat="45.16308" lon="5.88301">
        <ele>898</ele>
        <time>2021-04-10T10:48:12Z</time>
      </trkpt>
      <trkpt lat="45.16307" lon="5.88301">
        <ele>898</ele>
        <time>2021-04-10T10:48:13Z</time>
      </trkpt>
      <trkpt lat="45.16306" lon="5.88301">
        <ele>898.4</ele>
        <time>2021-04-10T10:48:14Z</time>
      </trkpt>
      <trkpt lat="45.16305" lon="5.88301">
        <ele>898.6</ele>
        <time>2021-04-10T10:48:15Z</time>
      </trkpt>
      <trkpt lat="45.16305" lon="5.88301">
        <ele>898.8</ele>
        <time>2021-04-10T10:48:16Z</time>
      </trkpt>
      <trkpt lat="45.16304" lon="5.88301">
        <ele>899</ele>
        <time>2021-04-10T10:48:17Z</time>
      </trkpt>
      <trkpt lat="45.16303" lon="5.88303">
        <ele>899.2</ele>
        <time>2021-04-10T10:48:18Z</time>
      </trkpt>
      <trkpt lat="45.16302" lon="5.88304">
        <ele>899.4</ele>
        <time>2021-04-10T10:48:19Z</time>
      </trkpt>
      <trkpt lat="45.16301" lon="5.88305">
        <ele>899.4</ele>
        <time>2021-04-10T10:48:20Z</time>
      </trkpt>
      <trkpt lat="45.163" lon="5.88306">
        <ele>899.6</ele>
        <time>2021-04-10T10:48:21Z</time>
      </trkpt>
      <trkpt lat="45.16299" lon="5.88308">
        <ele>899.6</ele>
        <time>2021-04-10T10:48:22Z</time>
      </trkpt>
      <trkpt lat="45.16299" lon="5.88309">
        <ele>899.6</ele>
        <time>2021-04-10T10:48:23Z</time>
      </trkpt>
      <trkpt lat="45.16298" lon="5.8831">
        <ele>899.4</ele>
        <time>2021-04-10T10:48:24Z</time>
      </trkpt>
      <trkpt lat="45.16297" lon="5.88311">
        <ele>899.6</ele>
        <time>2021-04-10T10:48:25Z</time>
      </trkpt>
      <trkpt lat="45.16296" lon="5.88312">
        <ele>899.6</ele>
        <time>2021-04-10T10:48:26Z</time>
      </trkpt>
      <trkpt lat="45.16295" lon="5.88313">
        <ele>899.4</ele>
        <time>2021-04-10T10:48:27Z</time>
      </trkpt>
      <trkpt lat="45.16293" lon="5.88314">
        <ele>899.6</ele>
        <time>2021-04-10T10:48:28Z</time>
      </trkpt>
      <trkpt lat="45.16292" lon="5.88315">
        <ele>899.6</ele>
        <time>2021-04-10T10:48:29Z</time>
      </trkpt>
      <trkpt lat="45.16291" lon="5.88316">
        <ele>899.8</ele>
        <time>2021-04-10T10:48:30Z</time>
      </trkpt>
      <trkpt lat="45.1629" lon="5.88317">
        <ele>900</ele>
        <time>2021-04-10T10:48:31Z</time>
      </trkpt>
      <trkpt lat="45.16289" lon="5.88318">
        <ele>900</ele>
        <time>2021-04-10T10:48:32Z</time>
      </trkpt>
      <trkpt lat="45.16288" lon="5.88318">
        <ele>900.2</ele>
        <time>2021-04-10T10:48:33Z</time>
      </trkpt>
      <trkpt lat="45.16287" lon="5.88318">
        <ele>900.2</ele>
        <time>2021-04-10T10:48:34Z</time>
      </trkpt>
      <trkpt lat="45.16287" lon="5.88319">
        <ele>900.2</ele>
        <time>2021-04-10T10:48:35Z</time>
      </trkpt>
      <trkpt lat="45.16286" lon="5.88319">
        <ele>900.2</ele>
        <time>2021-04-10T10:48:36Z</time>
      </trkpt>
      <trkpt lat="45.16285" lon="5.88319">
        <ele>900.2</ele>
        <time>2021-04-10T10:48:37Z</time>
      </trkpt>
      <trkpt lat="45.16284" lon="5.8832">
        <ele>900.2</ele>
        <time>2021-04-10T10:48:38Z</time>
      </trkpt>
      <trkpt lat="45.16284" lon="5.8832">
        <ele>900.2</ele>
        <time>2021-04-10T10:48:39Z</time>
      </trkpt>
      <trkpt lat="45.16283" lon="5.8832">
        <ele>900.2</ele>
        <time>2021-04-10T10:48:40Z</time>
      </trkpt>
      <trkpt lat="45.16282" lon="5.88321">
        <ele>900.4</ele>
        <time>2021-04-10T10:48:41Z</time>
      </trkpt>
      <trkpt lat="45.16281" lon="5.88321">
        <ele>900.6</ele>
        <time>2021-04-10T10:48:42Z</time>
      </trkpt>
      <trkpt lat="45.16281" lon="5.88321">
        <ele>900.6</ele>
        <time>2021-04-10T10:48:43Z</time>
      </trkpt>
      <trkpt lat="45.1628" lon="5.88321">
        <ele>900.6</ele>
        <time>2021-04-10T10:48:44Z</time>
      </trkpt>
      <trkpt lat="45.16279" lon="5.88322">
        <ele>900.6</ele>
        <time>2021-04-10T10:48:45Z</time>
      </trkpt>
      <trkpt lat="45.16278" lon="5.88322">
        <ele>900.8</ele>
        <time>2021-04-10T10:48:46Z</time>
      </trkpt>
      <trkpt lat="45.16277" lon="5.88323">
        <ele>901</ele>
        <time>2021-04-10T10:48:47Z</time>
      </trkpt>
      <trkpt lat="45.16277" lon="5.88323">
        <ele>901.2</ele>
        <time>2021-04-10T10:48:48Z</time>
      </trkpt>
      <trkpt lat="45.16276" lon="5.88323">
        <ele>901.2</ele>
        <time>2021-04-10T10:48:49Z</time>
      </trkpt>
      <trkpt lat="45.16275" lon="5.88324">
        <ele>901.4</ele>
        <time>2021-04-10T10:48:50Z</time>
      </trkpt>
      <trkpt lat="45.16274" lon="5.88324">
        <ele>901.4</ele>
        <time>2021-04-10T10:48:51Z</time>
      </trkpt>
      <trkpt lat="45.16273" lon="5.88325">
        <ele>901.8</ele>
        <time>2021-04-10T10:48:52Z</time>
      </trkpt>
      <trkpt lat="45.16272" lon="5.88325">
        <ele>902</ele>
        <time>2021-04-10T10:48:53Z</time>
      </trkpt>
      <trkpt lat="45.16272" lon="5.88326">
        <ele>902</ele>
        <time>2021-04-10T10:48:54Z</time>
      </trkpt>
      <trkpt lat="45.16271" lon="5.88326">
        <ele>902.2</ele>
        <time>2021-04-10T10:48:55Z</time>
      </trkpt>
      <trkpt lat="45.1627" lon="5.88326">
        <ele>902.2</ele>
        <time>2021-04-10T10:48:56Z</time>
      </trkpt>
      <trkpt lat="45.16269" lon="5.88327">
        <ele>902.2</ele>
        <time>2021-04-10T10:48:57Z</time>
      </trkpt>
      <trkpt lat="45.16268" lon="5.88327">
        <ele>902.4</ele>
        <time>2021-04-10T10:48:58Z</time>
      </trkpt>
      <trkpt lat="45.16267" lon="5.88328">
        <ele>902.6</ele>
        <time>2021-04-10T10:48:59Z</time>
      </trkpt>
      <trkpt lat="45.16265" lon="5.88328">
        <ele>903</ele>
        <time>2021-04-10T10:49:00Z</time>
      </trkpt>
      <trkpt lat="45.16263" lon="5.88329">
        <ele>903.2</ele>
        <time>2021-04-10T10:49:01Z</time>
      </trkpt>
      <trkpt lat="45.16262" lon="5.8833">
        <ele>903.6</ele>
        <time>2021-04-10T10:49:02Z</time>
      </trkpt>
      <trkpt lat="45.1626" lon="5.88331">
        <ele>903.8</ele>
        <time>2021-04-10T10:49:03Z</time>
      </trkpt>
      <trkpt lat="45.16258" lon="5.88332">
        <ele>904</ele>
        <time>2021-04-10T10:49:04Z</time>
      </trkpt>
      <trkpt lat="45.16256" lon="5.88333">
        <ele>904.2</ele>
        <time>2021-04-10T10:49:05Z</time>
      </trkpt>
      <trkpt lat="45.16254" lon="5.88335">
        <ele>904.2</ele>
        <time>2021-04-10T10:49:06Z</time>
      </trkpt>
      <trkpt lat="45.16252" lon="5.88336">
        <ele>904.6</ele>
        <time>2021-04-10T10:49:07Z</time>
      </trkpt>
      <trkpt lat="45.1625" lon="5.88337">
        <ele>904.8</ele>
        <time>2021-04-10T10:49:08Z</time>
      </trkpt>
      <trkpt lat="45.16248" lon="5.88339">
        <ele>905.2</ele>
        <time>2021-04-10T10:49:09Z</time>
      </trkpt>
      <trkpt lat="45.16246" lon="5.88339">
        <ele>905.6</ele>
        <time>2021-04-10T10:49:10Z</time>
      </trkpt>
      <trkpt lat="45.16244" lon="5.8834">
        <ele>905.8</ele>
        <time>2021-04-10T10:49:11Z</time>
      </trkpt>
      <trkpt lat="45.16243" lon="5.8834">
        <ele>905.8</ele>
        <time>2021-04-10T10:49:12Z</time>
      </trkpt>
      <trkpt lat="45.16241" lon="5.88341">
        <ele>906</ele>
        <time>2021-04-10T10:49:13Z</time>
      </trkpt>
      <trkpt lat="45.16239" lon="5.88342">
        <ele>906</ele>
        <time>2021-04-10T10:49:14Z</time>
      </trkpt>
      <trkpt lat="45.16238" lon="5.88343">
        <ele>906</ele>
        <time>2021-04-10T10:49:15Z</time>
      </trkpt>
      <trkpt lat="45.16237" lon="5.88344">
        <ele>906.4</ele>
        <time>2021-04-10T10:49:16Z</time>
      </trkpt>
      <trkpt lat="45.16236" lon="5.88346">
        <ele>906.8</ele>
        <time>2021-04-10T10:49:17Z</time>
      </trkpt>
      <trkpt lat="45.16235" lon="5.88347">
        <ele>907</ele>
        <time>2021-04-10T10:49:18Z</time>
      </trkpt>
      <trkpt lat="45.16234" lon="5.88348">
        <ele>907.2</ele>
        <time>2021-04-10T10:49:19Z</time>
      </trkpt>
      <trkpt lat="45.16233" lon="5.8835">
        <ele>907.2</ele>
        <time>2021-04-10T10:49:20Z</time>
      </trkpt>
      <trkpt lat="45.16232" lon="5.88351">
        <ele>907.4</ele>
        <time>2021-04-10T10:49:21Z</time>
      </trkpt>
      <trkpt lat="45.16231" lon="5.88352">
        <ele>908</ele>
        <time>2021-04-10T10:49:22Z</time>
      </trkpt>
      <trkpt lat="45.1623" lon="5.88353">
        <ele>908.4</ele>
        <time>2021-04-10T10:49:23Z</time>
      </trkpt>
      <trkpt lat="45.16229" lon="5.88355">
        <ele>908.6</ele>
        <time>2021-04-10T10:49:24Z</time>
      </trkpt>
      <trkpt lat="45.16229" lon="5.88356">
        <ele>908.8</ele>
        <time>2021-04-10T10:49:25Z</time>
      </trkpt>
      <trkpt lat="45.16228" lon="5.88357">
        <ele>909</ele>
        <time>2021-04-10T10:49:26Z</time>
      </trkpt>
      <trkpt lat="45.16227" lon="5.88358">
        <ele>909</ele>
        <time>2021-04-10T10:49:27Z</time>
      </trkpt>
      <trkpt lat="45.16226" lon="5.8836">
        <ele>909</ele>
        <time>2021-04-10T10:49:28Z</time>
      </trkpt>
      <trkpt lat="45.16225" lon="5.88361">
        <ele>909</ele>
        <time>2021-04-10T10:49:29Z</time>
      </trkpt>
      <trkpt lat="45.16224" lon="5.88361">
        <ele>909.4</ele>
        <time>2021-04-10T10:49:30Z</time>
      </trkpt>
      <trkpt lat="45.16223" lon="5.88361">
        <ele>909.4</ele>
        <time>2021-04-10T10:49:31Z</time>
      </trkpt>
      <trkpt lat="45.16222" lon="5.88361">
        <ele>909.8</ele>
        <time>2021-04-10T10:49:32Z</time>
      </trkpt>
      <trkpt lat="45.16221" lon="5.8836">
        <ele>909.8</ele>
        <time>2021-04-10T10:49:33Z</time>
      </trkpt>
      <trkpt lat="45.1622" lon="5.8836">
        <ele>910.2</ele>
        <time>2021-04-10T10:49:34Z</time>
      </trkpt>
      <trkpt lat="45.16218" lon="5.8836">
        <ele>910.4</ele>
        <time>2021-04-10T10:49:35Z</time>
      </trkpt>
      <trkpt lat="45.16217" lon="5.8836">
        <ele>910.6</ele>
        <time>2021-04-10T10:49:36Z</time>
      </trkpt>
      <trkpt lat="45.16216" lon="5.8836">
        <ele>910.8</ele>
        <time>2021-04-10T10:49:37Z</time>
      </trkpt>
      <trkpt lat="45.16215" lon="5.88361">
        <ele>910.8</ele>
        <time>2021-04-10T10:49:38Z</time>
      </trkpt>
      <trkpt lat="45.16214" lon="5.88362">
        <ele>911</ele>
        <time>2021-04-10T10:49:39Z</time>
      </trkpt>
      <trkpt lat="45.16213" lon="5.88363">
        <ele>911.2</ele>
        <time>2021-04-10T10:49:40Z</time>
      </trkpt>
      <trkpt lat="45.16212" lon="5.88364">
        <ele>911.6</ele>
        <time>2021-04-10T10:49:41Z</time>
      </trkpt>
      <trkpt lat="45.16211" lon="5.88364">
        <ele>911.8</ele>
        <time>2021-04-10T10:49:42Z</time>
      </trkpt>
      <trkpt lat="45.1621" lon="5.88365">
        <ele>912</ele>
        <time>2021-04-10T10:49:43Z</time>
      </trkpt>
      <trkpt lat="45.16209" lon="5.88366">
        <ele>912.2</ele>
        <time>2021-04-10T10:49:44Z</time>
      </trkpt>
      <trkpt lat="45.16208" lon="5.88367">
        <ele>912.2</ele>
        <time>2021-04-10T10:49:45Z</time>
      </trkpt>
      <trkpt lat="45.16207" lon="5.88367">
        <ele>912.4</ele>
        <time>2021-04-10T10:49:46Z</time>
      </trkpt>
      <trkpt lat="45.16207" lon="5.88368">
        <ele>912.6</ele>
        <time>2021-04-10T10:49:47Z</time>
      </trkpt>
      <trkpt lat="45.16206" lon="5.88368">
        <ele>912.8</ele>
        <time>2021-04-10T10:49:48Z</time>
      </trkpt>
      <trkpt lat="45.16206" lon="5.88369">
        <ele>913</ele>
        <time>2021-04-10T10:49:49Z</time>
      </trkpt>
      <trkpt lat="45.16205" lon="5.88369">
        <ele>913.2</ele>
        <time>2021-04-10T10:49:50Z</time>
      </trkpt>
      <trkpt lat="45.16204" lon="5.88369">
        <ele>913.4</ele>
        <time>2021-04-10T10:49:51Z</time>
      </trkpt>
      <trkpt lat="45.16204" lon="5.8837">
        <ele>913.6</ele>
        <time>2021-04-10T10:49:52Z</time>
      </trkpt>
      <trkpt lat="45.16203" lon="5.8837">
        <ele>913.8</ele>
        <time>2021-04-10T10:49:53Z</time>
      </trkpt>
      <trkpt lat="45.16202" lon="5.8837">
        <ele>914.2</ele>
        <time>2021-04-10T10:49:54Z</time>
      </trkpt>
      <trkpt lat="45.16202" lon="5.88371">
        <ele>914.4</ele>
        <time>2021-04-10T10:49:55Z</time>
      </trkpt>
      <trkpt lat="45.16201" lon="5.88371">
        <ele>914.4</ele>
        <time>2021-04-10T10:49:56Z</time>
      </trkpt>
      <trkpt lat="45.16201" lon="5.88371">
        <ele>914.4</ele>
        <time>2021-04-10T10:49:57Z</time>
      </trkpt>
      <trkpt lat="45.162" lon="5.88372">
        <ele>914.6</ele>
        <time>2021-04-10T10:49:58Z</time>
      </trkpt>
      <trkpt lat="45.16199" lon="5.88372">
        <ele>915</ele>
        <time>2021-04-10T10:49:59Z</time>
      </trkpt>
      <trkpt lat="45.16198" lon="5.88373">
        <ele>915.4</ele>
        <time>2021-04-10T10:50:01Z</time>
      </trkpt>
      <trkpt lat="45.16198" lon="5.88373">
        <ele>915.6</ele>
        <time>2021-04-10T10:50:02Z</time>
      </trkpt>
      <trkpt lat="45.16197" lon="5.88374">
        <ele>915.8</ele>
        <time>2021-04-10T10:50:03Z</time>
      </trkpt>
      <trkpt lat="45.16196" lon="5.88374">
        <ele>915.8</ele>
        <time>2021-04-10T10:50:04Z</time>
      </trkpt>
      <trkpt lat="45.16195" lon="5.88375">
        <ele>916</ele>
        <time>2021-04-10T10:50:05Z</time>
      </trkpt>
      <trkpt lat="45.16194" lon="5.88375">
        <ele>916</ele>
        <time>2021-04-10T10:50:06Z</time>
      </trkpt>
      <trkpt lat="45.16193" lon="5.88376">
        <ele>916.6</ele>
        <time>2021-04-10T10:50:07Z</time>
      </trkpt>
      <trkpt lat="45.16192" lon="5.88376">
        <ele>916.8</ele>
        <time>2021-04-10T10:50:08Z</time>
      </trkpt>
      <trkpt lat="45.16191" lon="5.88377">
        <ele>917</ele>
        <time>2021-04-10T10:50:09Z</time>
      </trkpt>
      <trkpt lat="45.1619" lon="5.88378">
        <ele>917.2</ele>
        <time>2021-04-10T10:50:10Z</time>
      </trkpt>
      <trkpt lat="45.16189" lon="5.88378">
        <ele>917.2</ele>
        <time>2021-04-10T10:50:11Z</time>
      </trkpt>
      <trkpt lat="45.16188" lon="5.88377">
        <ele>917.6</ele>
        <time>2021-04-10T10:50:12Z</time>
      </trkpt>
      <trkpt lat="45.16188" lon="5.88377">
        <ele>918</ele>
        <time>2021-04-10T10:50:13Z</time>
      </trkpt>
      <trkpt lat="45.16187" lon="5.88377">
        <ele>918</ele>
        <time>2021-04-10T10:50:14Z</time>
      </trkpt>
      <trkpt lat="45.16186" lon="5.88377">
        <ele>918.2</ele>
        <time>2021-04-10T10:50:15Z</time>
      </trkpt>
      <trkpt lat="45.16185" lon="5.88377">
        <ele>918.4</ele>
        <time>2021-04-10T10:50:16Z</time>
      </trkpt>
      <trkpt lat="45.16184" lon="5.88377">
        <ele>918.6</ele>
        <time>2021-04-10T10:50:17Z</time>
      </trkpt>
      <trkpt lat="45.16183" lon="5.88377">
        <ele>919</ele>
        <time>2021-04-10T10:50:18Z</time>
      </trkpt>
      <trkpt lat="45.16182" lon="5.88377">
        <ele>919</ele>
        <time>2021-04-10T10:50:19Z</time>
      </trkpt>
      <trkpt lat="45.16181" lon="5.88377">
        <ele>919.2</ele>
        <time>2021-04-10T10:50:20Z</time>
      </trkpt>
      <trkpt lat="45.16181" lon="5.88377">
        <ele>919.4</ele>
        <time>2021-04-10T10:50:21Z</time>
      </trkpt>
      <trkpt lat="45.1618" lon="5.88378">
        <ele>919.8</ele>
        <time>2021-04-10T10:50:22Z</time>
      </trkpt>
      <trkpt lat="45.16179" lon="5.88379">
        <ele>920</ele>
        <time>2021-04-10T10:50:23Z</time>
      </trkpt>
      <trkpt lat="45.16178" lon="5.8838">
        <ele>920.4</ele>
        <time>2021-04-10T10:50:24Z</time>
      </trkpt>
      <trkpt lat="45.16177" lon="5.8838">
        <ele>920.6</ele>
        <time>2021-04-10T10:50:25Z</time>
      </trkpt>
      <trkpt lat="45.16176" lon="5.88381">
        <ele>920.8</ele>
        <time>2021-04-10T10:50:26Z</time>
      </trkpt>
      <trkpt lat="45.16176" lon="5.88382">
        <ele>920.8</ele>
        <time>2021-04-10T10:50:27Z</time>
      </trkpt>
      <trkpt lat="45.16175" lon="5.88383">
        <ele>921.2</ele>
        <time>2021-04-10T10:50:28Z</time>
      </trkpt>
      <trkpt lat="45.16174" lon="5.88384">
        <ele>921.4</ele>
        <time>2021-04-10T10:50:29Z</time>
      </trkpt>
      <trkpt lat="45.16173" lon="5.88385">
        <ele>921.6</ele>
        <time>2021-04-10T10:50:30Z</time>
      </trkpt>
      <trkpt lat="45.16172" lon="5.88385">
        <ele>921.8</ele>
        <time>2021-04-10T10:50:31Z</time>
      </trkpt>
      <trkpt lat="45.16172" lon="5.88386">
        <ele>922</ele>
        <time>2021-04-10T10:50:32Z</time>
      </trkpt>
      <trkpt lat="45.16171" lon="5.88387">
        <ele>922.2</ele>
        <time>2021-04-10T10:50:33Z</time>
      </trkpt>
      <trkpt lat="45.1617" lon="5.88387">
        <ele>922.4</ele>
        <time>2021-04-10T10:50:34Z</time>
      </trkpt>
      <trkpt lat="45.16169" lon="5.88388">
        <ele>922.6</ele>
        <time>2021-04-10T10:50:35Z</time>
      </trkpt>
      <trkpt lat="45.16169" lon="5.88389">
        <ele>922.6</ele>
        <time>2021-04-10T10:50:36Z</time>
      </trkpt>
      <trkpt lat="45.16168" lon="5.88389">
        <ele>922.8</ele>
        <time>2021-04-10T10:50:37Z</time>
      </trkpt>
      <trkpt lat="45.16167" lon="5.8839">
        <ele>923</ele>
        <time>2021-04-10T10:50:38Z</time>
      </trkpt>
      <trkpt lat="45.16166" lon="5.88391">
        <ele>923</ele>
        <time>2021-04-10T10:50:39Z</time>
      </trkpt>
      <trkpt lat="45.16166" lon="5.88391">
        <ele>923.4</ele>
        <time>2021-04-10T10:50:40Z</time>
      </trkpt>
      <trkpt lat="45.16165" lon="5.88392">
        <ele>923.6</ele>
        <time>2021-04-10T10:50:41Z</time>
      </trkpt>
      <trkpt lat="45.16164" lon="5.88391">
        <ele>923.8</ele>
        <time>2021-04-10T10:50:42Z</time>
      </trkpt>
      <trkpt lat="45.16164" lon="5.88389">
        <ele>924.2</ele>
        <time>2021-04-10T10:50:43Z</time>
      </trkpt>
      <trkpt lat="45.16163" lon="5.88388">
        <ele>924.4</ele>
        <time>2021-04-10T10:50:44Z</time>
      </trkpt>
      <trkpt lat="45.16163" lon="5.88386">
        <ele>924.6</ele>
        <time>2021-04-10T10:50:45Z</time>
      </trkpt>
      <trkpt lat="45.16162" lon="5.88385">
        <ele>925</ele>
        <time>2021-04-10T10:50:46Z</time>
      </trkpt>
      <trkpt lat="45.16162" lon="5.88383">
        <ele>925</ele>
        <time>2021-04-10T10:50:47Z</time>
      </trkpt>
      <trkpt lat="45.16161" lon="5.88382">
        <ele>925.2</ele>
        <time>2021-04-10T10:50:48Z</time>
      </trkpt>
      <trkpt lat="45.16161" lon="5.88381">
        <ele>925.6</ele>
        <time>2021-04-10T10:50:49Z</time>
      </trkpt>
      <trkpt lat="45.1616" lon="5.88379">
        <ele>925.8</ele>
        <time>2021-04-10T10:50:50Z</time>
      </trkpt>
      <trkpt lat="45.1616" lon="5.88378">
        <ele>926</ele>
        <time>2021-04-10T10:50:51Z</time>
      </trkpt>
      <trkpt lat="45.16159" lon="5.88376">
        <ele>926.2</ele>
        <time>2021-04-10T10:50:52Z</time>
      </trkpt>
      <trkpt lat="45.16159" lon="5.88374">
        <ele>926.4</ele>
        <time>2021-04-10T10:50:53Z</time>
      </trkpt>
      <trkpt lat="45.16158" lon="5.88373">
        <ele>926.6</ele>
        <time>2021-04-10T10:50:54Z</time>
      </trkpt>
      <trkpt lat="45.16157" lon="5.88371">
        <ele>926.8</ele>
        <time>2021-04-10T10:50:55Z</time>
      </trkpt>
      <trkpt lat="45.16157" lon="5.8837">
        <ele>927</ele>
        <time>2021-04-10T10:50:56Z</time>
      </trkpt>
      <trkpt lat="45.16156" lon="5.88368">
        <ele>927.2</ele>
        <time>2021-04-10T10:50:57Z</time>
      </trkpt>
      <trkpt lat="45.16156" lon="5.88367">
        <ele>927.8</ele>
        <time>2021-04-10T10:50:58Z</time>
      </trkpt>
      <trkpt lat="45.16155" lon="5.88367">
        <ele>928.2</ele>
        <time>2021-04-10T10:50:59Z</time>
      </trkpt>
      <trkpt lat="45.16155" lon="5.88366">
        <ele>928.4</ele>
        <time>2021-04-10T10:51:00Z</time>
      </trkpt>
      <trkpt lat="45.16154" lon="5.88366">
        <ele>928.6</ele>
        <time>2021-04-10T10:51:01Z</time>
      </trkpt>
      <trkpt lat="45.16154" lon="5.88366">
        <ele>928.8</ele>
        <time>2021-04-10T10:51:02Z</time>
      </trkpt>
      <trkpt lat="45.16153" lon="5.88366">
        <ele>929.4</ele>
        <time>2021-04-10T10:51:03Z</time>
      </trkpt>
      <trkpt lat="45.16153" lon="5.88366">
        <ele>929.6</ele>
        <time>2021-04-10T10:51:04Z</time>
      </trkpt>
      <trkpt lat="45.16152" lon="5.88365">
        <ele>929.6</ele>
        <time>2021-04-10T10:51:05Z</time>
      </trkpt>
      <trkpt lat="45.16152" lon="5.88365">
        <ele>930</ele>
        <time>2021-04-10T10:51:06Z</time>
      </trkpt>
      <trkpt lat="45.16151" lon="5.88365">
        <ele>930</ele>
        <time>2021-04-10T10:51:07Z</time>
      </trkpt>
      <trkpt lat="45.1615" lon="5.88365">
        <ele>930.2</ele>
        <time>2021-04-10T10:51:08Z</time>
      </trkpt>
      <trkpt lat="45.1615" lon="5.88365">
        <ele>930.6</ele>
        <time>2021-04-10T10:51:09Z</time>
      </trkpt>
      <trkpt lat="45.16149" lon="5.88364">
        <ele>930.8</ele>
        <time>2021-04-10T10:51:10Z</time>
      </trkpt>
      <trkpt lat="45.16149" lon="5.88364">
        <ele>931</ele>
        <time>2021-04-10T10:51:11Z</time>
      </trkpt>
      <trkpt lat="45.16148" lon="5.88364">
        <ele>931.4</ele>
        <time>2021-04-10T10:51:12Z</time>
      </trkpt>
      <trkpt lat="45.16148" lon="5.88364">
        <ele>931.6</ele>
        <time>2021-04-10T10:51:13Z</time>
      </trkpt>
      <trkpt lat="45.16147" lon="5.88364">
        <ele>931.8</ele>
        <time>2021-04-10T10:51:14Z</time>
      </trkpt>
      <trkpt lat="45.16147" lon="5.88363">
        <ele>932</ele>
        <time>2021-04-10T10:51:15Z</time>
      </trkpt>
      <trkpt lat="45.16146" lon="5.88363">
        <ele>932.6</ele>
        <time>2021-04-10T10:51:16Z</time>
      </trkpt>
      <trkpt lat="45.16146" lon="5.88362">
        <ele>932.6</ele>
        <time>2021-04-10T10:51:17Z</time>
      </trkpt>
      <trkpt lat="45.16145" lon="5.88361">
        <ele>933</ele>
        <time>2021-04-10T10:51:18Z</time>
      </trkpt>
      <trkpt lat="45.16145" lon="5.8836">
        <ele>933.4</ele>
        <time>2021-04-10T10:51:19Z</time>
      </trkpt>
      <trkpt lat="45.16144" lon="5.88359">
        <ele>933.4</ele>
        <time>2021-04-10T10:51:20Z</time>
      </trkpt>
      <trkpt lat="45.16144" lon="5.88358">
        <ele>933.6</ele>
        <time>2021-04-10T10:51:21Z</time>
      </trkpt>
      <trkpt lat="45.16143" lon="5.88357">
        <ele>933.8</ele>
        <time>2021-04-10T10:51:22Z</time>
      </trkpt>
      <trkpt lat="45.16143" lon="5.88356">
        <ele>934.2</ele>
        <time>2021-04-10T10:51:23Z</time>
      </trkpt>
      <trkpt lat="45.16142" lon="5.88355">
        <ele>934.2</ele>
        <time>2021-04-10T10:51:24Z</time>
      </trkpt>
      <trkpt lat="45.16142" lon="5.88354">
        <ele>934.6</ele>
        <time>2021-04-10T10:51:25Z</time>
      </trkpt>
      <trkpt lat="45.16141" lon="5.88353">
        <ele>935</ele>
        <time>2021-04-10T10:51:26Z</time>
      </trkpt>
      <trkpt lat="45.1614" lon="5.88352">
        <ele>935</ele>
        <time>2021-04-10T10:51:27Z</time>
      </trkpt>
      <trkpt lat="45.1614" lon="5.88352">
        <ele>935.2</ele>
        <time>2021-04-10T10:51:28Z</time>
      </trkpt>
      <trkpt lat="45.1614" lon="5.88352">
        <ele>935.4</ele>
        <time>2021-04-10T10:51:29Z</time>
      </trkpt>
      <trkpt lat="45.1614" lon="5.88352">
        <ele>935.6</ele>
        <time>2021-04-10T10:51:30Z</time>
      </trkpt>
      <trkpt lat="45.16139" lon="5.88352">
        <ele>936</ele>
        <time>2021-04-10T10:51:31Z</time>
      </trkpt>
      <trkpt lat="45.16139" lon="5.88352">
        <ele>936.4</ele>
        <time>2021-04-10T10:51:32Z</time>
      </trkpt>
      <trkpt lat="45.16139" lon="5.88352">
        <ele>936.6</ele>
        <time>2021-04-10T10:51:33Z</time>
      </trkpt>
      <trkpt lat="45.16138" lon="5.88352">
        <ele>936.6</ele>
        <time>2021-04-10T10:51:34Z</time>
      </trkpt>
      <trkpt lat="45.16138" lon="5.88352">
        <ele>936.8</ele>
        <time>2021-04-10T10:51:35Z</time>
      </trkpt>
      <trkpt lat="45.16138" lon="5.88352">
        <ele>937.2</ele>
        <time>2021-04-10T10:51:36Z</time>
      </trkpt>
      <trkpt lat="45.16138" lon="5.88352">
        <ele>937.4</ele>
        <time>2021-04-10T10:51:37Z</time>
      </trkpt>
      <trkpt lat="45.16137" lon="5.88351">
        <ele>937.6</ele>
        <time>2021-04-10T10:51:38Z</time>
      </trkpt>
      <trkpt lat="45.16137" lon="5.88351">
        <ele>937.8</ele>
        <time>2021-04-10T10:51:39Z</time>
      </trkpt>
      <trkpt lat="45.16137" lon="5.88351">
        <ele>938</ele>
        <time>2021-04-10T10:51:40Z</time>
      </trkpt>
      <trkpt lat="45.16136" lon="5.88351">
        <ele>938.2</ele>
        <time>2021-04-10T10:51:41Z</time>
      </trkpt>
      <trkpt lat="45.16136" lon="5.88351">
        <ele>938.6</ele>
        <time>2021-04-10T10:51:42Z</time>
      </trkpt>
      <trkpt lat="45.16136" lon="5.88351">
        <ele>939</ele>
        <time>2021-04-10T10:51:43Z</time>
      </trkpt>
      <trkpt lat="45.16136" lon="5.88351">
        <ele>939</ele>
        <time>2021-04-10T10:51:44Z</time>
      </trkpt>
      <trkpt lat="45.16135" lon="5.88351">
        <ele>939.4</ele>
        <time>2021-04-10T10:51:45Z</time>
      </trkpt>
      <trkpt lat="45.16135" lon="5.88351">
        <ele>939.6</ele>
        <time>2021-04-10T10:51:46Z</time>
      </trkpt>
      <trkpt lat="45.16135" lon="5.88351">
        <ele>939.6</ele>
        <time>2021-04-10T10:51:47Z</time>
      </trkpt>
      <trkpt lat="45.16134" lon="5.8835">
        <ele>940</ele>
        <time>2021-04-10T10:51:48Z</time>
      </trkpt>
      <trkpt lat="45.16134" lon="5.8835">
        <ele>940.4</ele>
        <time>2021-04-10T10:51:49Z</time>
      </trkpt>
      <trkpt lat="45.16134" lon="5.8835">
        <ele>940.8</ele>
        <time>2021-04-10T10:51:50Z</time>
      </trkpt>
      <trkpt lat="45.16134" lon="5.8835">
        <ele>941</ele>
        <time>2021-04-10T10:51:51Z</time>
      </trkpt>
      <trkpt lat="45.16133" lon="5.8835">
        <ele>941.2</ele>
        <time>2021-04-10T10:51:52Z</time>
      </trkpt>
      <trkpt lat="45.16133" lon="5.8835">
        <ele>941.4</ele>
        <time>2021-04-10T10:51:53Z</time>
      </trkpt>
      <trkpt lat="45.16133" lon="5.8835">
        <ele>941.6</ele>
        <time>2021-04-10T10:51:54Z</time>
      </trkpt>
      <trkpt lat="45.16132" lon="5.8835">
        <ele>941.8</ele>
        <time>2021-04-10T10:51:55Z</time>
      </trkpt>
      <trkpt lat="45.16132" lon="5.8835">
        <ele>942</ele>
        <time>2021-04-10T10:51:56Z</time>
      </trkpt>
      <trkpt lat="45.16132" lon="5.8835">
        <ele>942.4</ele>
        <time>2021-04-10T10:51:57Z</time>
      </trkpt>
      <trkpt lat="45.16132" lon="5.8835">
        <ele>942.8</ele>
        <time>2021-04-10T10:51:58Z</time>
      </trkpt>
      <trkpt lat="45.16131" lon="5.88349">
        <ele>943.2</ele>
        <time>2021-04-10T10:51:59Z</time>
      </trkpt>
      <trkpt lat="45.16131" lon="5.88349">
        <ele>943.4</ele>
        <time>2021-04-10T10:52:00Z</time>
      </trkpt>
      <trkpt lat="45.1613" lon="5.88349">
        <ele>943.8</ele>
        <time>2021-04-10T10:52:01Z</time>
      </trkpt>
      <trkpt lat="45.1613" lon="5.88348">
        <ele>944</ele>
        <time>2021-04-10T10:52:02Z</time>
      </trkpt>
      <trkpt lat="45.16129" lon="5.88348">
        <ele>944</ele>
        <time>2021-04-10T10:52:03Z</time>
      </trkpt>
      <trkpt lat="45.16129" lon="5.88348">
        <ele>944.4</ele>
        <time>2021-04-10T10:52:04Z</time>
      </trkpt>
      <trkpt lat="45.16129" lon="5.88347">
        <ele>944.6</ele>
        <time>2021-04-10T10:52:05Z</time>
      </trkpt>
      <trkpt lat="45.16128" lon="5.88347">
        <ele>945</ele>
        <time>2021-04-10T10:52:06Z</time>
      </trkpt>
      <trkpt lat="45.16128" lon="5.88347">
        <ele>945</ele>
        <time>2021-04-10T10:52:07Z</time>
      </trkpt>
      <trkpt lat="45.16127" lon="5.88346">
        <ele>945.2</ele>
        <time>2021-04-10T10:52:08Z</time>
      </trkpt>
      <trkpt lat="45.16127" lon="5.88346">
        <ele>945.2</ele>
        <time>2021-04-10T10:52:09Z</time>
      </trkpt>
      <trkpt lat="45.16126" lon="5.88346">
        <ele>945.4</ele>
        <time>2021-04-10T10:52:10Z</time>
      </trkpt>
      <trkpt lat="45.16126" lon="5.88345">
        <ele>945.4</ele>
        <time>2021-04-10T10:52:11Z</time>
      </trkpt>
      <trkpt lat="45.16126" lon="5.88345">
        <ele>945.4</ele>
        <time>2021-04-10T10:52:12Z</time>
      </trkpt>
      <trkpt lat="45.16125" lon="5.88345">
        <ele>945.4</ele>
        <time>2021-04-10T10:52:13Z</time>
      </trkpt>
      <trkpt lat="45.16125" lon="5.88344">
        <ele>945.4</ele>
        <time>2021-04-10T10:52:14Z</time>
      </trkpt>
      <trkpt lat="45.16124" lon="5.88343">
        <ele>945.4</ele>
        <time>2021-04-10T10:52:15Z</time>
      </trkpt>
      <trkpt lat="45.16124" lon="5.88342">
        <ele>945.6</ele>
        <time>2021-04-10T10:52:16Z</time>
      </trkpt>
      <trkpt lat="45.16124" lon="5.88342">
        <ele>945.8</ele>
        <time>2021-04-10T10:52:17Z</time>
      </trkpt>
      <trkpt lat="45.16123" lon="5.88341">
        <ele>945.8</ele>
        <time>2021-04-10T10:52:18Z</time>
      </trkpt>
      <trkpt lat="45.16123" lon="5.8834">
        <ele>946</ele>
        <time>2021-04-10T10:52:19Z</time>
      </trkpt>
      <trkpt lat="45.16122" lon="5.88339">
        <ele>946</ele>
        <time>2021-04-10T10:52:20Z</time>
      </trkpt>
      <trkpt lat="45.16122" lon="5.88339">
        <ele>946.2</ele>
        <time>2021-04-10T10:52:21Z</time>
      </trkpt>
      <trkpt lat="45.16122" lon="5.88338">
        <ele>946.2</ele>
        <time>2021-04-10T10:52:22Z</time>
      </trkpt>
      <trkpt lat="45.16121" lon="5.88337">
        <ele>946.6</ele>
        <time>2021-04-10T10:52:23Z</time>
      </trkpt>
      <trkpt lat="45.16121" lon="5.88336">
        <ele>946.6</ele>
        <time>2021-04-10T10:52:24Z</time>
      </trkpt>
      <trkpt lat="45.16121" lon="5.88336">
        <ele>946.6</ele>
        <time>2021-04-10T10:52:25Z</time>
      </trkpt>
      <trkpt lat="45.1612" lon="5.88335">
        <ele>946.8</ele>
        <time>2021-04-10T10:52:26Z</time>
      </trkpt>
      <trkpt lat="45.1612" lon="5.88334">
        <ele>947</ele>
        <time>2021-04-10T10:52:27Z</time>
      </trkpt>
      <trkpt lat="45.16119" lon="5.88334">
        <ele>947.4</ele>
        <time>2021-04-10T10:52:28Z</time>
      </trkpt>
      <trkpt lat="45.16119" lon="5.88334">
        <ele>947.8</ele>
        <time>2021-04-10T10:52:29Z</time>
      </trkpt>
      <trkpt lat="45.16119" lon="5.88334">
        <ele>948</ele>
        <time>2021-04-10T10:52:30Z</time>
      </trkpt>
      <trkpt lat="45.16119" lon="5.88333">
        <ele>948.2</ele>
        <time>2021-04-10T10:52:31Z</time>
      </trkpt>
      <trkpt lat="45.16118" lon="5.88333">
        <ele>948.4</ele>
        <time>2021-04-10T10:52:32Z</time>
      </trkpt>
      <trkpt lat="45.16118" lon="5.88333">
        <ele>948.6</ele>
        <time>2021-04-10T10:52:33Z</time>
      </trkpt>
      <trkpt lat="45.16118" lon="5.88333">
        <ele>948.8</ele>
        <time>2021-04-10T10:52:34Z</time>
      </trkpt>
      <trkpt lat="45.16117" lon="5.88333">
        <ele>949</ele>
        <time>2021-04-10T10:52:35Z</time>
      </trkpt>
      <trkpt lat="45.16117" lon="5.88333">
        <ele>949.2</ele>
        <time>2021-04-10T10:52:36Z</time>
      </trkpt>
      <trkpt lat="45.16117" lon="5.88333">
        <ele>949.4</ele>
        <time>2021-04-10T10:52:37Z</time>
      </trkpt>
      <trkpt lat="45.16116" lon="5.88332">
        <ele>949.8</ele>
        <time>2021-04-10T10:52:38Z</time>
      </trkpt>
      <trkpt lat="45.16116" lon="5.88332">
        <ele>950.2</ele>
        <time>2021-04-10T10:52:39Z</time>
      </trkpt>
      <trkpt lat="45.16116" lon="5.88332">
        <ele>950.2</ele>
        <time>2021-04-10T10:52:40Z</time>
      </trkpt>
      <trkpt lat="45.16116" lon="5.88332">
        <ele>950.4</ele>
        <time>2021-04-10T10:52:41Z</time>
      </trkpt>
      <trkpt lat="45.16115" lon="5.88332">
        <ele>950.8</ele>
        <time>2021-04-10T10:52:42Z</time>
      </trkpt>
      <trkpt lat="45.16115" lon="5.88332">
        <ele>950.8</ele>
        <time>2021-04-10T10:52:43Z</time>
      </trkpt>
      <trkpt lat="45.16115" lon="5.88332">
        <ele>951.2</ele>
        <time>2021-04-10T10:52:44Z</time>
      </trkpt>
      <trkpt lat="45.16114" lon="5.88331">
        <ele>951.4</ele>
        <time>2021-04-10T10:52:45Z</time>
      </trkpt>
      <trkpt lat="45.16114" lon="5.88331">
        <ele>951.4</ele>
        <time>2021-04-10T10:52:46Z</time>
      </trkpt>
      <trkpt lat="45.16114" lon="5.88331">
        <ele>951.6</ele>
        <time>2021-04-10T10:52:47Z</time>
      </trkpt>
      <trkpt lat="45.16113" lon="5.88331">
        <ele>951.8</ele>
        <time>2021-04-10T10:52:48Z</time>
      </trkpt>
      <trkpt lat="45.16113" lon="5.88331">
        <ele>952.2</ele>
        <time>2021-04-10T10:52:49Z</time>
      </trkpt>
      <trkpt lat="45.16113" lon="5.88331">
        <ele>952.4</ele>
        <time>2021-04-10T10:52:50Z</time>
      </trkpt>
      <trkpt lat="45.16112" lon="5.88331">
        <ele>952.6</ele>
        <time>2021-04-10T10:52:51Z</time>
      </trkpt>
      <trkpt lat="45.16112" lon="5.8833">
        <ele>952.6</ele>
        <time>2021-04-10T10:52:52Z</time>
      </trkpt>
      <trkpt lat="45.16112" lon="5.8833">
        <ele>952.6</ele>
        <time>2021-04-10T10:52:53Z</time>
      </trkpt>
      <trkpt lat="45.16112" lon="5.8833">
        <ele>952.6</ele>
        <time>2021-04-10T10:52:54Z</time>
      </trkpt>
      <trkpt lat="45.16111" lon="5.8833">
        <ele>952.6</ele>
        <time>2021-04-10T10:52:55Z</time>
      </trkpt>
      <trkpt lat="45.16111" lon="5.8833">
        <ele>952.6</ele>
        <time>2021-04-10T10:52:56Z</time>
      </trkpt>
      <trkpt lat="45.16111" lon="5.8833">
        <ele>952.8</ele>
        <time>2021-04-10T10:52:57Z</time>
      </trkpt>
      <trkpt lat="45.16111" lon="5.8833">
        <ele>952.8</ele>
        <time>2021-04-10T10:52:58Z</time>
      </trkpt>
      <trkpt lat="45.16111" lon="5.8833">
        <ele>952.8</ele>
        <time>2021-04-10T10:52:59Z</time>
      </trkpt>
      <trkpt lat="45.16111" lon="5.8833">
        <ele>953</ele>
        <time>2021-04-10T10:53:00Z</time>
      </trkpt>
      <trkpt lat="45.16111" lon="5.8833">
        <ele>953</ele>
        <time>2021-04-10T10:53:01Z</time>
      </trkpt>
      <trkpt lat="45.16111" lon="5.8833">
        <ele>953</ele>
        <time>2021-04-10T10:53:02Z</time>
      </trkpt>
      <trkpt lat="45.16109" lon="5.88331">
        <ele>953</ele>
        <time>2021-04-10T10:53:03Z</time>
      </trkpt>
      <trkpt lat="45.16109" lon="5.88331">
        <ele>953</ele>
        <time>2021-04-10T10:53:04Z</time>
      </trkpt>
      <trkpt lat="45.16109" lon="5.88331">
        <ele>953</ele>
        <time>2021-04-10T10:53:05Z</time>
      </trkpt>
      <trkpt lat="45.16109" lon="5.88331">
        <ele>953</ele>
        <time>2021-04-10T10:53:06Z</time>
      </trkpt>
      <trkpt lat="45.16109" lon="5.88332">
        <ele>953</ele>
        <time>2021-04-10T10:53:07Z</time>
      </trkpt>
      <trkpt lat="45.16109" lon="5.88332">
        <ele>953</ele>
        <time>2021-04-10T10:53:08Z</time>
      </trkpt>
      <trkpt lat="45.16109" lon="5.88333">
        <ele>953</ele>
        <time>2021-04-10T10:53:09Z</time>
      </trkpt>
      <trkpt lat="45.16108" lon="5.88333">
        <ele>953.2</ele>
        <time>2021-04-10T10:53:10Z</time>
      </trkpt>
      <trkpt lat="45.16108" lon="5.88333">
        <ele>953.2</ele>
        <time>2021-04-10T10:53:11Z</time>
      </trkpt>
      <trkpt lat="45.16108" lon="5.88334">
        <ele>953.4</ele>
        <time>2021-04-10T10:53:12Z</time>
      </trkpt>
      <trkpt lat="45.16108" lon="5.88334">
        <ele>953.2</ele>
        <time>2021-04-10T10:53:13Z</time>
      </trkpt>
      <trkpt lat="45.16108" lon="5.88335">
        <ele>953.6</ele>
        <time>2021-04-10T10:53:14Z</time>
      </trkpt>
      <trkpt lat="45.16107" lon="5.88335">
        <ele>953.8</ele>
        <time>2021-04-10T10:53:15Z</time>
      </trkpt>
      <trkpt lat="45.16107" lon="5.88336">
        <ele>954</ele>
        <time>2021-04-10T10:53:16Z</time>
      </trkpt>
      <trkpt lat="45.16107" lon="5.88336">
        <ele>954</ele>
        <time>2021-04-10T10:53:17Z</time>
      </trkpt>
      <trkpt lat="45.16107" lon="5.88337">
        <ele>954</ele>
        <time>2021-04-10T10:53:18Z</time>
      </trkpt>
      <trkpt lat="45.16107" lon="5.88337">
        <ele>954.2</ele>
        <time>2021-04-10T10:53:19Z</time>
      </trkpt>
      <trkpt lat="45.16107" lon="5.88337">
        <ele>954.2</ele>
        <time>2021-04-10T10:53:20Z</time>
      </trkpt>
      <trkpt lat="45.16107" lon="5.88337">
        <ele>954.4</ele>
        <time>2021-04-10T10:53:21Z</time>
      </trkpt>
      <trkpt lat="45.16107" lon="5.88337">
        <ele>954.2</ele>
        <time>2021-04-10T10:53:22Z</time>
      </trkpt>
      <trkpt lat="45.16104" lon="5.88341">
        <ele>954.2</ele>
        <time>2021-04-10T10:53:23Z</time>
      </trkpt>
      <trkpt lat="45.16104" lon="5.88341">
        <ele>954.2</ele>
        <time>2021-04-10T10:53:24Z</time>
      </trkpt>
      <trkpt lat="45.16104" lon="5.88341">
        <ele>954.2</ele>
        <time>2021-04-10T10:53:25Z</time>
      </trkpt>
      <trkpt lat="45.16104" lon="5.88341">
        <ele>954.6</ele>
        <time>2021-04-10T10:53:26Z</time>
      </trkpt>
      <trkpt lat="45.16104" lon="5.88341">
        <ele>954.8</ele>
        <time>2021-04-10T10:53:27Z</time>
      </trkpt>
      <trkpt lat="45.16101" lon="5.88344">
        <ele>954.8</ele>
        <time>2021-04-10T10:53:28Z</time>
      </trkpt>
      <trkpt lat="45.16101" lon="5.88344">
        <ele>954.8</ele>
        <time>2021-04-10T10:53:29Z</time>
      </trkpt>
      <trkpt lat="45.16101" lon="5.88344">
        <ele>955</ele>
        <time>2021-04-10T10:53:30Z</time>
      </trkpt>
      <trkpt lat="45.16101" lon="5.88344">
        <ele>955.4</ele>
        <time>2021-04-10T10:53:31Z</time>
      </trkpt>
      <trkpt lat="45.16101" lon="5.88344">
        <ele>955.6</ele>
        <time>2021-04-10T10:53:32Z</time>
      </trkpt>
      <trkpt lat="45.16101" lon="5.88347">
        <ele>955.6</ele>
        <time>2021-04-10T10:53:33Z</time>
      </trkpt>
      <trkpt lat="45.16101" lon="5.88347">
        <ele>955.6</ele>
        <time>2021-04-10T10:53:34Z</time>
      </trkpt>
      <trkpt lat="45.16101" lon="5.88347">
        <ele>956</ele>
        <time>2021-04-10T10:53:35Z</time>
      </trkpt>
      <trkpt lat="45.16101" lon="5.88347">
        <ele>956</ele>
        <time>2021-04-10T10:53:36Z</time>
      </trkpt>
      <trkpt lat="45.161" lon="5.88348">
        <ele>956.2</ele>
        <time>2021-04-10T10:53:37Z</time>
      </trkpt>
      <trkpt lat="45.161" lon="5.88348">
        <ele>956.4</ele>
        <time>2021-04-10T10:53:38Z</time>
      </trkpt>
      <trkpt lat="45.16099" lon="5.88349">
        <ele>956.6</ele>
        <time>2021-04-10T10:53:39Z</time>
      </trkpt>
      <trkpt lat="45.16099" lon="5.8835">
        <ele>956.8</ele>
        <time>2021-04-10T10:53:40Z</time>
      </trkpt>
      <trkpt lat="45.16098" lon="5.88351">
        <ele>957</ele>
        <time>2021-04-10T10:53:41Z</time>
      </trkpt>
      <trkpt lat="45.16098" lon="5.88352">
        <ele>957.2</ele>
        <time>2021-04-10T10:53:42Z</time>
      </trkpt>
      <trkpt lat="45.16097" lon="5.88352">
        <ele>957.4</ele>
        <time>2021-04-10T10:53:43Z</time>
      </trkpt>
      <trkpt lat="45.16096" lon="5.88353">
        <ele>957.4</ele>
        <time>2021-04-10T10:53:44Z</time>
      </trkpt>
      <trkpt lat="45.16096" lon="5.88354">
        <ele>957.6</ele>
        <time>2021-04-10T10:53:45Z</time>
      </trkpt>
      <trkpt lat="45.16095" lon="5.88355">
        <ele>957.8</ele>
        <time>2021-04-10T10:53:46Z</time>
      </trkpt>
      <trkpt lat="45.16095" lon="5.88355">
        <ele>958</ele>
        <time>2021-04-10T10:53:47Z</time>
      </trkpt>
      <trkpt lat="45.16094" lon="5.88356">
        <ele>958.2</ele>
        <time>2021-04-10T10:53:48Z</time>
      </trkpt>
      <trkpt lat="45.16094" lon="5.88356">
        <ele>958.4</ele>
        <time>2021-04-10T10:53:49Z</time>
      </trkpt>
      <trkpt lat="45.16093" lon="5.88356">
        <ele>958.8</ele>
        <time>2021-04-10T10:53:50Z</time>
      </trkpt>
      <trkpt lat="45.16092" lon="5.88356">
        <ele>959.4</ele>
        <time>2021-04-10T10:53:51Z</time>
      </trkpt>
      <trkpt lat="45.16091" lon="5.88357">
        <ele>959.4</ele>
        <time>2021-04-10T10:53:52Z</time>
      </trkpt>
      <trkpt lat="45.1609" lon="5.88357">
        <ele>959.4</ele>
        <time>2021-04-10T10:53:53Z</time>
      </trkpt>
      <trkpt lat="45.1609" lon="5.88357">
        <ele>959.4</ele>
        <time>2021-04-10T10:53:54Z</time>
      </trkpt>
      <trkpt lat="45.16089" lon="5.88357">
        <ele>959.8</ele>
        <time>2021-04-10T10:53:55Z</time>
      </trkpt>
      <trkpt lat="45.16088" lon="5.88357">
        <ele>959.8</ele>
        <time>2021-04-10T10:53:56Z</time>
      </trkpt>
      <trkpt lat="45.16087" lon="5.88357">
        <ele>959.8</ele>
        <time>2021-04-10T10:53:57Z</time>
      </trkpt>
      <trkpt lat="45.16086" lon="5.88357">
        <ele>960</ele>
        <time>2021-04-10T10:53:58Z</time>
      </trkpt>
      <trkpt lat="45.16086" lon="5.88357">
        <ele>960.2</ele>
        <time>2021-04-10T10:53:59Z</time>
      </trkpt>
      <trkpt lat="45.16085" lon="5.88357">
        <ele>960.2</ele>
        <time>2021-04-10T10:54:00Z</time>
      </trkpt>
      <trkpt lat="45.16085" lon="5.88356">
        <ele>960.4</ele>
        <time>2021-04-10T10:54:01Z</time>
      </trkpt>
      <trkpt lat="45.16084" lon="5.88355">
        <ele>960.6</ele>
        <time>2021-04-10T10:54:02Z</time>
      </trkpt>
      <trkpt lat="45.16084" lon="5.88355">
        <ele>960.8</ele>
        <time>2021-04-10T10:54:03Z</time>
      </trkpt>
      <trkpt lat="45.16084" lon="5.88354">
        <ele>960.6</ele>
        <time>2021-04-10T10:54:04Z</time>
      </trkpt>
      <trkpt lat="45.16084" lon="5.88353">
        <ele>960.8</ele>
        <time>2021-04-10T10:54:05Z</time>
      </trkpt>
      <trkpt lat="45.16084" lon="5.88352">
        <ele>961</ele>
        <time>2021-04-10T10:54:06Z</time>
      </trkpt>
      <trkpt lat="45.16084" lon="5.88351">
        <ele>961.2</ele>
        <time>2021-04-10T10:54:07Z</time>
      </trkpt>
      <trkpt lat="45.16084" lon="5.88351">
        <ele>961.2</ele>
        <time>2021-04-10T10:54:08Z</time>
      </trkpt>
      <trkpt lat="45.16084" lon="5.8835">
        <ele>961.4</ele>
        <time>2021-04-10T10:54:09Z</time>
      </trkpt>
      <trkpt lat="45.16083" lon="5.88349">
        <ele>961.4</ele>
        <time>2021-04-10T10:54:10Z</time>
      </trkpt>
      <trkpt lat="45.16083" lon="5.88348">
        <ele>961.6</ele>
        <time>2021-04-10T10:54:11Z</time>
      </trkpt>
      <trkpt lat="45.16083" lon="5.88347">
        <ele>961.8</ele>
        <time>2021-04-10T10:54:12Z</time>
      </trkpt>
      <trkpt lat="45.16083" lon="5.88346">
        <ele>962</ele>
        <time>2021-04-10T10:54:13Z</time>
      </trkpt>
      <trkpt lat="45.16083" lon="5.88346">
        <ele>962.2</ele>
        <time>2021-04-10T10:54:14Z</time>
      </trkpt>
      <trkpt lat="45.16083" lon="5.88345">
        <ele>962.4</ele>
        <time>2021-04-10T10:54:15Z</time>
      </trkpt>
      <trkpt lat="45.16083" lon="5.88344">
        <ele>962.8</ele>
        <time>2021-04-10T10:54:16Z</time>
      </trkpt>
      <trkpt lat="45.16082" lon="5.88342">
        <ele>963</ele>
        <time>2021-04-10T10:54:17Z</time>
      </trkpt>
      <trkpt lat="45.16082" lon="5.88339">
        <ele>963.2</ele>
        <time>2021-04-10T10:54:18Z</time>
      </trkpt>
      <trkpt lat="45.16082" lon="5.88337">
        <ele>963.4</ele>
        <time>2021-04-10T10:54:19Z</time>
      </trkpt>
      <trkpt lat="45.16081" lon="5.88335">
        <ele>963.4</ele>
        <time>2021-04-10T10:54:20Z</time>
      </trkpt>
      <trkpt lat="45.16081" lon="5.88332">
        <ele>963.6</ele>
        <time>2021-04-10T10:54:21Z</time>
      </trkpt>
      <trkpt lat="45.16081" lon="5.8833">
        <ele>964</ele>
        <time>2021-04-10T10:54:22Z</time>
      </trkpt>
      <trkpt lat="45.1608" lon="5.88328">
        <ele>964.4</ele>
        <time>2021-04-10T10:54:23Z</time>
      </trkpt>
      <trkpt lat="45.16079" lon="5.88326">
        <ele>964.6</ele>
        <time>2021-04-10T10:54:24Z</time>
      </trkpt>
      <trkpt lat="45.16078" lon="5.88324">
        <ele>964.8</ele>
        <time>2021-04-10T10:54:25Z</time>
      </trkpt>
      <trkpt lat="45.16077" lon="5.88322">
        <ele>965</ele>
        <time>2021-04-10T10:54:26Z</time>
      </trkpt>
      <trkpt lat="45.16077" lon="5.88319">
        <ele>965.2</ele>
        <time>2021-04-10T10:54:27Z</time>
      </trkpt>
      <trkpt lat="45.16076" lon="5.88317">
        <ele>965.4</ele>
        <time>2021-04-10T10:54:28Z</time>
      </trkpt>
      <trkpt lat="45.16076" lon="5.88316">
        <ele>965.4</ele>
        <time>2021-04-10T10:54:29Z</time>
      </trkpt>
      <trkpt lat="45.16076" lon="5.88314">
        <ele>965.6</ele>
        <time>2021-04-10T10:54:30Z</time>
      </trkpt>
      <trkpt lat="45.16076" lon="5.88312">
        <ele>965.8</ele>
        <time>2021-04-10T10:54:31Z</time>
      </trkpt>
      <trkpt lat="45.16075" lon="5.8831">
        <ele>966</ele>
        <time>2021-04-10T10:54:32Z</time>
      </trkpt>
      <trkpt lat="45.16075" lon="5.88309">
        <ele>966.2</ele>
        <time>2021-04-10T10:54:33Z</time>
      </trkpt>
      <trkpt lat="45.16075" lon="5.88307">
        <ele>966.2</ele>
        <time>2021-04-10T10:54:34Z</time>
      </trkpt>
      <trkpt lat="45.16075" lon="5.88305">
        <ele>966.2</ele>
        <time>2021-04-10T10:54:35Z</time>
      </trkpt>
      <trkpt lat="45.16075" lon="5.88303">
        <ele>966.2</ele>
        <time>2021-04-10T10:54:36Z</time>
      </trkpt>
      <trkpt lat="45.16075" lon="5.88302">
        <ele>966</ele>
        <time>2021-04-10T10:54:37Z</time>
      </trkpt>
      <trkpt lat="45.16075" lon="5.883">
        <ele>966</ele>
        <time>2021-04-10T10:54:38Z</time>
      </trkpt>
      <trkpt lat="45.16075" lon="5.88299">
        <ele>966.4</ele>
        <time>2021-04-10T10:54:39Z</time>
      </trkpt>
      <trkpt lat="45.16075" lon="5.88297">
        <ele>966.6</ele>
        <time>2021-04-10T10:54:40Z</time>
      </trkpt>
      <trkpt lat="45.16075" lon="5.88296">
        <ele>966.6</ele>
        <time>2021-04-10T10:54:41Z</time>
      </trkpt>
      <trkpt lat="45.16075" lon="5.88295">
        <ele>966.6</ele>
        <time>2021-04-10T10:54:42Z</time>
      </trkpt>
      <trkpt lat="45.16075" lon="5.88293">
        <ele>966.6</ele>
        <time>2021-04-10T10:54:43Z</time>
      </trkpt>
      <trkpt lat="45.16075" lon="5.88292">
        <ele>967</ele>
        <time>2021-04-10T10:54:44Z</time>
      </trkpt>
      <trkpt lat="45.16075" lon="5.8829">
        <ele>967.2</ele>
        <time>2021-04-10T10:54:45Z</time>
      </trkpt>
      <trkpt lat="45.16075" lon="5.88288">
        <ele>967</ele>
        <time>2021-04-10T10:54:46Z</time>
      </trkpt>
      <trkpt lat="45.16075" lon="5.88286">
        <ele>967.4</ele>
        <time>2021-04-10T10:54:47Z</time>
      </trkpt>
      <trkpt lat="45.16075" lon="5.88284">
        <ele>967.4</ele>
        <time>2021-04-10T10:54:48Z</time>
      </trkpt>
      <trkpt lat="45.16076" lon="5.88282">
        <ele>967.6</ele>
        <time>2021-04-10T10:54:49Z</time>
      </trkpt>
      <trkpt lat="45.16076" lon="5.88281">
        <ele>967.8</ele>
        <time>2021-04-10T10:54:50Z</time>
      </trkpt>
      <trkpt lat="45.16076" lon="5.88279">
        <ele>968.2</ele>
        <time>2021-04-10T10:54:51Z</time>
      </trkpt>
      <trkpt lat="45.16076" lon="5.88277">
        <ele>968.4</ele>
        <time>2021-04-10T10:54:52Z</time>
      </trkpt>
      <trkpt lat="45.16076" lon="5.88276">
        <ele>968.8</ele>
        <time>2021-04-10T10:54:53Z</time>
      </trkpt>
      <trkpt lat="45.16076" lon="5.88275">
        <ele>968.8</ele>
        <time>2021-04-10T10:54:54Z</time>
      </trkpt>
      <trkpt lat="45.16076" lon="5.88274">
        <ele>969</ele>
        <time>2021-04-10T10:54:55Z</time>
      </trkpt>
      <trkpt lat="45.16076" lon="5.88273">
        <ele>969.4</ele>
        <time>2021-04-10T10:54:56Z</time>
      </trkpt>
      <trkpt lat="45.16076" lon="5.88272">
        <ele>969.6</ele>
        <time>2021-04-10T10:54:57Z</time>
      </trkpt>
      <trkpt lat="45.16077" lon="5.88271">
        <ele>970</ele>
        <time>2021-04-10T10:54:58Z</time>
      </trkpt>
      <trkpt lat="45.16077" lon="5.8827">
        <ele>970.2</ele>
        <time>2021-04-10T10:54:59Z</time>
      </trkpt>
      <trkpt lat="45.16077" lon="5.88269">
        <ele>970.4</ele>
        <time>2021-04-10T10:55:00Z</time>
      </trkpt>
      <trkpt lat="45.16077" lon="5.88268">
        <ele>970.6</ele>
        <time>2021-04-10T10:55:01Z</time>
      </trkpt>
      <trkpt lat="45.16077" lon="5.88267">
        <ele>970.8</ele>
        <time>2021-04-10T10:55:02Z</time>
      </trkpt>
      <trkpt lat="45.16077" lon="5.88266">
        <ele>971</ele>
        <time>2021-04-10T10:55:03Z</time>
      </trkpt>
      <trkpt lat="45.16077" lon="5.88265">
        <ele>971.4</ele>
        <time>2021-04-10T10:55:04Z</time>
      </trkpt>
      <trkpt lat="45.16077" lon="5.88264">
        <ele>971.6</ele>
        <time>2021-04-10T10:55:05Z</time>
      </trkpt>
      <trkpt lat="45.16077" lon="5.88262">
        <ele>971.8</ele>
        <time>2021-04-10T10:55:06Z</time>
      </trkpt>
      <trkpt lat="45.16077" lon="5.88261">
        <ele>972</ele>
        <time>2021-04-10T10:55:07Z</time>
      </trkpt>
      <trkpt lat="45.16077" lon="5.8826">
        <ele>972.6</ele>
        <time>2021-04-10T10:55:08Z</time>
      </trkpt>
      <trkpt lat="45.16077" lon="5.88258">
        <ele>972.6</ele>
        <time>2021-04-10T10:55:09Z</time>
      </trkpt>
      <trkpt lat="45.16076" lon="5.88257">
        <ele>972.6</ele>
        <time>2021-04-10T10:55:10Z</time>
      </trkpt>
      <trkpt lat="45.16076" lon="5.88255">
        <ele>972.6</ele>
        <time>2021-04-10T10:55:11Z</time>
      </trkpt>
      <trkpt lat="45.16076" lon="5.88254">
        <ele>973.2</ele>
        <time>2021-04-10T10:55:12Z</time>
      </trkpt>
      <trkpt lat="45.16076" lon="5.88253">
        <ele>973.4</ele>
        <time>2021-04-10T10:55:13Z</time>
      </trkpt>
      <trkpt lat="45.16076" lon="5.88251">
        <ele>973.8</ele>
        <time>2021-04-10T10:55:14Z</time>
      </trkpt>
      <trkpt lat="45.16076" lon="5.8825">
        <ele>973.8</ele>
        <time>2021-04-10T10:55:15Z</time>
      </trkpt>
      <trkpt lat="45.16075" lon="5.88249">
        <ele>974</ele>
        <time>2021-04-10T10:55:16Z</time>
      </trkpt>
      <trkpt lat="45.16075" lon="5.88247">
        <ele>974.2</ele>
        <time>2021-04-10T10:55:17Z</time>
      </trkpt>
      <trkpt lat="45.16075" lon="5.88246">
        <ele>974.6</ele>
        <time>2021-04-10T10:55:18Z</time>
      </trkpt>
      <trkpt lat="45.16074" lon="5.88244">
        <ele>974.6</ele>
        <time>2021-04-10T10:55:19Z</time>
      </trkpt>
      <trkpt lat="45.16074" lon="5.88243">
        <ele>974.8</ele>
        <time>2021-04-10T10:55:20Z</time>
      </trkpt>
      <trkpt lat="45.16073" lon="5.88242">
        <ele>975</ele>
        <time>2021-04-10T10:55:21Z</time>
      </trkpt>
      <trkpt lat="45.16073" lon="5.8824">
        <ele>975.2</ele>
        <time>2021-04-10T10:55:22Z</time>
      </trkpt>
      <trkpt lat="45.16072" lon="5.88239">
        <ele>975.6</ele>
        <time>2021-04-10T10:55:23Z</time>
      </trkpt>
      <trkpt lat="45.16072" lon="5.88237">
        <ele>975.8</ele>
        <time>2021-04-10T10:55:24Z</time>
      </trkpt>
      <trkpt lat="45.16072" lon="5.88236">
        <ele>976.2</ele>
        <time>2021-04-10T10:55:25Z</time>
      </trkpt>
      <trkpt lat="45.16071" lon="5.88235">
        <ele>976.6</ele>
        <time>2021-04-10T10:55:26Z</time>
      </trkpt>
      <trkpt lat="45.16071" lon="5.88234">
        <ele>976.6</ele>
        <time>2021-04-10T10:55:27Z</time>
      </trkpt>
      <trkpt lat="45.16071" lon="5.88232">
        <ele>976.6</ele>
        <time>2021-04-10T10:55:28Z</time>
      </trkpt>
      <trkpt lat="45.1607" lon="5.88231">
        <ele>976.8</ele>
        <time>2021-04-10T10:55:29Z</time>
      </trkpt>
      <trkpt lat="45.1607" lon="5.8823">
        <ele>976.8</ele>
        <time>2021-04-10T10:55:30Z</time>
      </trkpt>
      <trkpt lat="45.1607" lon="5.88229">
        <ele>977.2</ele>
        <time>2021-04-10T10:55:31Z</time>
      </trkpt>
      <trkpt lat="45.1607" lon="5.88227">
        <ele>977.4</ele>
        <time>2021-04-10T10:55:32Z</time>
      </trkpt>
      <trkpt lat="45.16069" lon="5.88226">
        <ele>977.6</ele>
        <time>2021-04-10T10:55:33Z</time>
      </trkpt>
      <trkpt lat="45.16069" lon="5.88225">
        <ele>977.8</ele>
        <time>2021-04-10T10:55:34Z</time>
      </trkpt>
      <trkpt lat="45.16069" lon="5.88224">
        <ele>978</ele>
        <time>2021-04-10T10:55:35Z</time>
      </trkpt>
      <trkpt lat="45.16068" lon="5.88223">
        <ele>978</ele>
        <time>2021-04-10T10:55:36Z</time>
      </trkpt>
      <trkpt lat="45.16068" lon="5.88222">
        <ele>978</ele>
        <time>2021-04-10T10:55:37Z</time>
      </trkpt>
      <trkpt lat="45.16068" lon="5.88221">
        <ele>978</ele>
        <time>2021-04-10T10:55:38Z</time>
      </trkpt>
      <trkpt lat="45.16068" lon="5.8822">
        <ele>978.2</ele>
        <time>2021-04-10T10:55:39Z</time>
      </trkpt>
      <trkpt lat="45.16067" lon="5.88219">
        <ele>978.2</ele>
        <time>2021-04-10T10:55:40Z</time>
      </trkpt>
      <trkpt lat="45.16067" lon="5.88219">
        <ele>978.2</ele>
        <time>2021-04-10T10:55:41Z</time>
      </trkpt>
      <trkpt lat="45.16067" lon="5.88218">
        <ele>978.2</ele>
        <time>2021-04-10T10:55:42Z</time>
      </trkpt>
      <trkpt lat="45.16066" lon="5.88217">
        <ele>978.2</ele>
        <time>2021-04-10T10:55:43Z</time>
      </trkpt>
      <trkpt lat="45.16066" lon="5.88216">
        <ele>978.2</ele>
        <time>2021-04-10T10:55:44Z</time>
      </trkpt>
      <trkpt lat="45.16066" lon="5.88215">
        <ele>977.8</ele>
        <time>2021-04-10T10:55:45Z</time>
      </trkpt>
      <trkpt lat="45.16066" lon="5.88214">
        <ele>977.6</ele>
        <time>2021-04-10T10:55:46Z</time>
      </trkpt>
      <trkpt lat="45.16065" lon="5.88213">
        <ele>977.4</ele>
        <time>2021-04-10T10:55:47Z</time>
      </trkpt>
      <trkpt lat="45.16064" lon="5.88212">
        <ele>977</ele>
        <time>2021-04-10T10:55:48Z</time>
      </trkpt>
      <trkpt lat="45.16063" lon="5.88211">
        <ele>976.8</ele>
        <time>2021-04-10T10:55:49Z</time>
      </trkpt>
      <trkpt lat="45.16062" lon="5.8821">
        <ele>976.6</ele>
        <time>2021-04-10T10:55:50Z</time>
      </trkpt>
      <trkpt lat="45.16061" lon="5.88208">
        <ele>976.2</ele>
        <time>2021-04-10T10:55:51Z</time>
      </trkpt>
      <trkpt lat="45.1606" lon="5.88207">
        <ele>976</ele>
        <time>2021-04-10T10:55:52Z</time>
      </trkpt>
      <trkpt lat="45.16059" lon="5.88206">
        <ele>976</ele>
        <time>2021-04-10T10:55:53Z</time>
      </trkpt>
      <trkpt lat="45.16058" lon="5.88205">
        <ele>976</ele>
        <time>2021-04-10T10:55:54Z</time>
      </trkpt>
      <trkpt lat="45.16057" lon="5.88204">
        <ele>976</ele>
        <time>2021-04-10T10:55:55Z</time>
      </trkpt>
      <trkpt lat="45.16056" lon="5.88202">
        <ele>976</ele>
        <time>2021-04-10T10:55:56Z</time>
      </trkpt>
      <trkpt lat="45.16055" lon="5.88201">
        <ele>976</ele>
        <time>2021-04-10T10:55:57Z</time>
      </trkpt>
      <trkpt lat="45.16054" lon="5.882">
        <ele>976</ele>
        <time>2021-04-10T10:55:58Z</time>
      </trkpt>
      <trkpt lat="45.16053" lon="5.88199">
        <ele>976</ele>
        <time>2021-04-10T10:55:59Z</time>
      </trkpt>
      <trkpt lat="45.16052" lon="5.88198">
        <ele>975.8</ele>
        <time>2021-04-10T10:56:00Z</time>
      </trkpt>
      <trkpt lat="45.16047" lon="5.88195">
        <ele>976.2</ele>
        <time>2021-04-10T10:56:01Z</time>
      </trkpt>
      <trkpt lat="45.16047" lon="5.88195">
        <ele>976.2</ele>
        <time>2021-04-10T10:56:02Z</time>
      </trkpt>
      <trkpt lat="45.16047" lon="5.88195">
        <ele>976</ele>
        <time>2021-04-10T10:56:03Z</time>
      </trkpt>
      <trkpt lat="45.16047" lon="5.88195">
        <ele>976</ele>
        <time>2021-04-10T10:56:04Z</time>
      </trkpt>
      <trkpt lat="45.16046" lon="5.88194">
        <ele>976</ele>
        <time>2021-04-10T10:56:05Z</time>
      </trkpt>
      <trkpt lat="45.16044" lon="5.88193">
        <ele>976</ele>
        <time>2021-04-10T10:56:06Z</time>
      </trkpt>
      <trkpt lat="45.16042" lon="5.88192">
        <ele>976</ele>
        <time>2021-04-10T10:56:07Z</time>
      </trkpt>
      <trkpt lat="45.1604" lon="5.8819">
        <ele>976</ele>
        <time>2021-04-10T10:56:08Z</time>
      </trkpt>
      <trkpt lat="45.16038" lon="5.88189">
        <ele>976</ele>
        <time>2021-04-10T10:56:09Z</time>
      </trkpt>
      <trkpt lat="45.16038" lon="5.88188">
        <ele>976</ele>
        <time>2021-04-10T10:56:10Z</time>
      </trkpt>
      <trkpt lat="45.16037" lon="5.88187">
        <ele>976</ele>
        <time>2021-04-10T10:56:11Z</time>
      </trkpt>
      <trkpt lat="45.16036" lon="5.88187">
        <ele>976.2</ele>
        <time>2021-04-10T10:56:12Z</time>
      </trkpt>
      <trkpt lat="45.16035" lon="5.88186">
        <ele>976.4</ele>
        <time>2021-04-10T10:56:13Z</time>
      </trkpt>
      <trkpt lat="45.16034" lon="5.88185">
        <ele>976.4</ele>
        <time>2021-04-10T10:56:14Z</time>
      </trkpt>
      <trkpt lat="45.16034" lon="5.88185">
        <ele>976.6</ele>
        <time>2021-04-10T10:56:15Z</time>
      </trkpt>
      <trkpt lat="45.16033" lon="5.88184">
        <ele>976.6</ele>
        <time>2021-04-10T10:56:16Z</time>
      </trkpt>
      <trkpt lat="45.16032" lon="5.88184">
        <ele>976.6</ele>
        <time>2021-04-10T10:56:17Z</time>
      </trkpt>
      <trkpt lat="45.16031" lon="5.88183">
        <ele>976.8</ele>
        <time>2021-04-10T10:56:18Z</time>
      </trkpt>
      <trkpt lat="45.1603" lon="5.88182">
        <ele>976.8</ele>
        <time>2021-04-10T10:56:19Z</time>
      </trkpt>
      <trkpt lat="45.1603" lon="5.88182">
        <ele>976.8</ele>
        <time>2021-04-10T10:56:20Z</time>
      </trkpt>
      <trkpt lat="45.16029" lon="5.88181">
        <ele>976.6</ele>
        <time>2021-04-10T10:56:21Z</time>
      </trkpt>
      <trkpt lat="45.16028" lon="5.88181">
        <ele>976.6</ele>
        <time>2021-04-10T10:56:22Z</time>
      </trkpt>
      <trkpt lat="45.16027" lon="5.8818">
        <ele>976.6</ele>
        <time>2021-04-10T10:56:23Z</time>
      </trkpt>
      <trkpt lat="45.16027" lon="5.88179">
        <ele>976.6</ele>
        <time>2021-04-10T10:56:24Z</time>
      </trkpt>
      <trkpt lat="45.16026" lon="5.88179">
        <ele>976.6</ele>
        <time>2021-04-10T10:56:25Z</time>
      </trkpt>
      <trkpt lat="45.16025" lon="5.88178">
        <ele>976.6</ele>
        <time>2021-04-10T10:56:26Z</time>
      </trkpt>
      <trkpt lat="45.16024" lon="5.88178">
        <ele>976.8</ele>
        <time>2021-04-10T10:56:27Z</time>
      </trkpt>
      <trkpt lat="45.16023" lon="5.88177">
        <ele>976.8</ele>
        <time>2021-04-10T10:56:28Z</time>
      </trkpt>
      <trkpt lat="45.16023" lon="5.88176">
        <ele>976.6</ele>
        <time>2021-04-10T10:56:29Z</time>
      </trkpt>
      <trkpt lat="45.16022" lon="5.88176">
        <ele>976.6</ele>
        <time>2021-04-10T10:56:30Z</time>
      </trkpt>
      <trkpt lat="45.16021" lon="5.88175">
        <ele>976.8</ele>
        <time>2021-04-10T10:56:31Z</time>
      </trkpt>
      <trkpt lat="45.1602" lon="5.88174">
        <ele>976.6</ele>
        <time>2021-04-10T10:56:32Z</time>
      </trkpt>
      <trkpt lat="45.16019" lon="5.88174">
        <ele>976.8</ele>
        <time>2021-04-10T10:56:33Z</time>
      </trkpt>
      <trkpt lat="45.16019" lon="5.88173">
        <ele>976.8</ele>
        <time>2021-04-10T10:56:34Z</time>
      </trkpt>
      <trkpt lat="45.16018" lon="5.88173">
        <ele>976.8</ele>
        <time>2021-04-10T10:56:35Z</time>
      </trkpt>
      <trkpt lat="45.16017" lon="5.88172">
        <ele>976.8</ele>
        <time>2021-04-10T10:56:36Z</time>
      </trkpt>
      <trkpt lat="45.16016" lon="5.88171">
        <ele>976.8</ele>
        <time>2021-04-10T10:56:37Z</time>
      </trkpt>
      <trkpt lat="45.16015" lon="5.88171">
        <ele>976.8</ele>
        <time>2021-04-10T10:56:38Z</time>
      </trkpt>
      <trkpt lat="45.16015" lon="5.8817">
        <ele>976.8</ele>
        <time>2021-04-10T10:56:39Z</time>
      </trkpt>
      <trkpt lat="45.16014" lon="5.8817">
        <ele>976.8</ele>
        <time>2021-04-10T10:56:40Z</time>
      </trkpt>
      <trkpt lat="45.16013" lon="5.88169">
        <ele>976.8</ele>
        <time>2021-04-10T10:56:41Z</time>
      </trkpt>
      <trkpt lat="45.16012" lon="5.88168">
        <ele>977</ele>
        <time>2021-04-10T10:56:42Z</time>
      </trkpt>
      <trkpt lat="45.16012" lon="5.88168">
        <ele>977</ele>
        <time>2021-04-10T10:56:43Z</time>
      </trkpt>
      <trkpt lat="45.16011" lon="5.88167">
        <ele>977</ele>
        <time>2021-04-10T10:56:44Z</time>
      </trkpt>
      <trkpt lat="45.1601" lon="5.88166">
        <ele>977.2</ele>
        <time>2021-04-10T10:56:45Z</time>
      </trkpt>
      <trkpt lat="45.16009" lon="5.88166">
        <ele>977</ele>
        <time>2021-04-10T10:56:46Z</time>
      </trkpt>
      <trkpt lat="45.16008" lon="5.88165">
        <ele>977.2</ele>
        <time>2021-04-10T10:56:47Z</time>
      </trkpt>
      <trkpt lat="45.16008" lon="5.88165">
        <ele>977.2</ele>
        <time>2021-04-10T10:56:48Z</time>
      </trkpt>
      <trkpt lat="45.16007" lon="5.88164">
        <ele>977.2</ele>
        <time>2021-04-10T10:56:49Z</time>
      </trkpt>
      <trkpt lat="45.16006" lon="5.88163">
        <ele>977.2</ele>
        <time>2021-04-10T10:56:50Z</time>
      </trkpt>
      <trkpt lat="45.16005" lon="5.88163">
        <ele>977.4</ele>
        <time>2021-04-10T10:56:51Z</time>
      </trkpt>
      <trkpt lat="45.16004" lon="5.88162">
        <ele>977.4</ele>
        <time>2021-04-10T10:56:52Z</time>
      </trkpt>
      <trkpt lat="45.16004" lon="5.88162">
        <ele>977.4</ele>
        <time>2021-04-10T10:56:53Z</time>
      </trkpt>
      <trkpt lat="45.16003" lon="5.88161">
        <ele>977.4</ele>
        <time>2021-04-10T10:56:54Z</time>
      </trkpt>
      <trkpt lat="45.16002" lon="5.8816">
        <ele>977.6</ele>
        <time>2021-04-10T10:56:55Z</time>
      </trkpt>
      <trkpt lat="45.16001" lon="5.8816">
        <ele>977.6</ele>
        <time>2021-04-10T10:56:56Z</time>
      </trkpt>
      <trkpt lat="45.16" lon="5.88159">
        <ele>977.8</ele>
        <time>2021-04-10T10:56:57Z</time>
      </trkpt>
      <trkpt lat="45.16" lon="5.88159">
        <ele>977.8</ele>
        <time>2021-04-10T10:56:58Z</time>
      </trkpt>
      <trkpt lat="45.15999" lon="5.88158">
        <ele>977.8</ele>
        <time>2021-04-10T10:56:59Z</time>
      </trkpt>
      <trkpt lat="45.15998" lon="5.88157">
        <ele>977.8</ele>
        <time>2021-04-10T10:57:00Z</time>
      </trkpt>
      <trkpt lat="45.15997" lon="5.88157">
        <ele>978</ele>
        <time>2021-04-10T10:57:01Z</time>
      </trkpt>
      <trkpt lat="45.15997" lon="5.88156">
        <ele>978.2</ele>
        <time>2021-04-10T10:57:02Z</time>
      </trkpt>
      <trkpt lat="45.15996" lon="5.88155">
        <ele>978.4</ele>
        <time>2021-04-10T10:57:03Z</time>
      </trkpt>
      <trkpt lat="45.15995" lon="5.88155">
        <ele>978.6</ele>
        <time>2021-04-10T10:57:04Z</time>
      </trkpt>
      <trkpt lat="45.15994" lon="5.88154">
        <ele>978.8</ele>
        <time>2021-04-10T10:57:05Z</time>
      </trkpt>
      <trkpt lat="45.15993" lon="5.88154">
        <ele>979</ele>
        <time>2021-04-10T10:57:06Z</time>
      </trkpt>
      <trkpt lat="45.15993" lon="5.88153">
        <ele>979.4</ele>
        <time>2021-04-10T10:57:07Z</time>
      </trkpt>
      <trkpt lat="45.15992" lon="5.88152">
        <ele>979.4</ele>
        <time>2021-04-10T10:57:08Z</time>
      </trkpt>
      <trkpt lat="45.15991" lon="5.88152">
        <ele>979.4</ele>
        <time>2021-04-10T10:57:09Z</time>
      </trkpt>
      <trkpt lat="45.1599" lon="5.88151">
        <ele>979.6</ele>
        <time>2021-04-10T10:57:10Z</time>
      </trkpt>
      <trkpt lat="45.15989" lon="5.88151">
        <ele>979.4</ele>
        <time>2021-04-10T10:57:11Z</time>
      </trkpt>
      <trkpt lat="45.15989" lon="5.8815">
        <ele>979.4</ele>
        <time>2021-04-10T10:57:12Z</time>
      </trkpt>
      <trkpt lat="45.15988" lon="5.88149">
        <ele>979.6</ele>
        <time>2021-04-10T10:57:13Z</time>
      </trkpt>
      <trkpt lat="45.15987" lon="5.88149">
        <ele>979.6</ele>
        <time>2021-04-10T10:57:14Z</time>
      </trkpt>
      <trkpt lat="45.15986" lon="5.88148">
        <ele>979</ele>
        <time>2021-04-10T10:57:15Z</time>
      </trkpt>
      <trkpt lat="45.15985" lon="5.88147">
        <ele>979.4</ele>
        <time>2021-04-10T10:57:16Z</time>
      </trkpt>
      <trkpt lat="45.15985" lon="5.88147">
        <ele>979.6</ele>
        <time>2021-04-10T10:57:17Z</time>
      </trkpt>
      <trkpt lat="45.15984" lon="5.88146">
        <ele>979.8</ele>
        <time>2021-04-10T10:57:18Z</time>
      </trkpt>
      <trkpt lat="45.15983" lon="5.88146">
        <ele>980</ele>
        <time>2021-04-10T10:57:19Z</time>
      </trkpt>
      <trkpt lat="45.15982" lon="5.88145">
        <ele>980</ele>
        <time>2021-04-10T10:57:20Z</time>
      </trkpt>
      <trkpt lat="45.15982" lon="5.88144">
        <ele>980.4</ele>
        <time>2021-04-10T10:57:21Z</time>
      </trkpt>
      <trkpt lat="45.15981" lon="5.88144">
        <ele>980.6</ele>
        <time>2021-04-10T10:57:22Z</time>
      </trkpt>
      <trkpt lat="45.1598" lon="5.88143">
        <ele>981</ele>
        <time>2021-04-10T10:57:23Z</time>
      </trkpt>
      <trkpt lat="45.15979" lon="5.88143">
        <ele>981.2</ele>
        <time>2021-04-10T10:57:24Z</time>
      </trkpt>
      <trkpt lat="45.15978" lon="5.88142">
        <ele>981.4</ele>
        <time>2021-04-10T10:57:25Z</time>
      </trkpt>
      <trkpt lat="45.15978" lon="5.88141">
        <ele>981.6</ele>
        <time>2021-04-10T10:57:26Z</time>
      </trkpt>
      <trkpt lat="45.15977" lon="5.88141">
        <ele>981.8</ele>
        <time>2021-04-10T10:57:27Z</time>
      </trkpt>
      <trkpt lat="45.15976" lon="5.8814">
        <ele>981.8</ele>
        <time>2021-04-10T10:57:28Z</time>
      </trkpt>
      <trkpt lat="45.15975" lon="5.88139">
        <ele>982</ele>
        <time>2021-04-10T10:57:29Z</time>
      </trkpt>
      <trkpt lat="45.15974" lon="5.88139">
        <ele>982.2</ele>
        <time>2021-04-10T10:57:30Z</time>
      </trkpt>
      <trkpt lat="45.15974" lon="5.88138">
        <ele>982.4</ele>
        <time>2021-04-10T10:57:31Z</time>
      </trkpt>
      <trkpt lat="45.15973" lon="5.88138">
        <ele>982.4</ele>
        <time>2021-04-10T10:57:32Z</time>
      </trkpt>
      <trkpt lat="45.15972" lon="5.88136">
        <ele>982.6</ele>
        <time>2021-04-10T10:57:33Z</time>
      </trkpt>
      <trkpt lat="45.15972" lon="5.88134">
        <ele>982.8</ele>
        <time>2021-04-10T10:57:34Z</time>
      </trkpt>
      <trkpt lat="45.15971" lon="5.88133">
        <ele>983</ele>
        <time>2021-04-10T10:57:35Z</time>
      </trkpt>
      <trkpt lat="45.15971" lon="5.88131">
        <ele>983.2</ele>
        <time>2021-04-10T10:57:36Z</time>
      </trkpt>
      <trkpt lat="45.15968" lon="5.88124">
        <ele>983.4</ele>
        <time>2021-04-10T10:57:37Z</time>
      </trkpt>
      <trkpt lat="45.15968" lon="5.88123">
        <ele>983.6</ele>
        <time>2021-04-10T10:57:38Z</time>
      </trkpt>
      <trkpt lat="45.15967" lon="5.88123">
        <ele>983.6</ele>
        <time>2021-04-10T10:57:39Z</time>
      </trkpt>
      <trkpt lat="45.15967" lon="5.88122">
        <ele>983.6</ele>
        <time>2021-04-10T10:57:40Z</time>
      </trkpt>
      <trkpt lat="45.15966" lon="5.88121">
        <ele>983.6</ele>
        <time>2021-04-10T10:57:41Z</time>
      </trkpt>
      <trkpt lat="45.15966" lon="5.8812">
        <ele>983.8</ele>
        <time>2021-04-10T10:57:42Z</time>
      </trkpt>
      <trkpt lat="45.15965" lon="5.8812">
        <ele>984</ele>
        <time>2021-04-10T10:57:43Z</time>
      </trkpt>
      <trkpt lat="45.15965" lon="5.88119">
        <ele>984.2</ele>
        <time>2021-04-10T10:57:44Z</time>
      </trkpt>
      <trkpt lat="45.15964" lon="5.88118">
        <ele>984.4</ele>
        <time>2021-04-10T10:57:45Z</time>
      </trkpt>
      <trkpt lat="45.15964" lon="5.88117">
        <ele>984.6</ele>
        <time>2021-04-10T10:57:46Z</time>
      </trkpt>
      <trkpt lat="45.15963" lon="5.88117">
        <ele>984.8</ele>
        <time>2021-04-10T10:57:47Z</time>
      </trkpt>
      <trkpt lat="45.15962" lon="5.88116">
        <ele>985.2</ele>
        <time>2021-04-10T10:57:48Z</time>
      </trkpt>
      <trkpt lat="45.15962" lon="5.88115">
        <ele>985.4</ele>
        <time>2021-04-10T10:57:49Z</time>
      </trkpt>
      <trkpt lat="45.15961" lon="5.88114">
        <ele>985.6</ele>
        <time>2021-04-10T10:57:50Z</time>
      </trkpt>
      <trkpt lat="45.15961" lon="5.88114">
        <ele>985.8</ele>
        <time>2021-04-10T10:57:51Z</time>
      </trkpt>
      <trkpt lat="45.1596" lon="5.88113">
        <ele>986</ele>
        <time>2021-04-10T10:57:52Z</time>
      </trkpt>
      <trkpt lat="45.1596" lon="5.88112">
        <ele>986.2</ele>
        <time>2021-04-10T10:57:53Z</time>
      </trkpt>
      <trkpt lat="45.15959" lon="5.88111">
        <ele>986.4</ele>
        <time>2021-04-10T10:57:54Z</time>
      </trkpt>
      <trkpt lat="45.15959" lon="5.88111">
        <ele>986.8</ele>
        <time>2021-04-10T10:57:55Z</time>
      </trkpt>
      <trkpt lat="45.15958" lon="5.8811">
        <ele>987</ele>
        <time>2021-04-10T10:57:56Z</time>
      </trkpt>
      <trkpt lat="45.15958" lon="5.88109">
        <ele>987</ele>
        <time>2021-04-10T10:57:57Z</time>
      </trkpt>
      <trkpt lat="45.15957" lon="5.88108">
        <ele>987.2</ele>
        <time>2021-04-10T10:57:58Z</time>
      </trkpt>
      <trkpt lat="45.15957" lon="5.88108">
        <ele>987.4</ele>
        <time>2021-04-10T10:57:59Z</time>
      </trkpt>
      <trkpt lat="45.15956" lon="5.88107">
        <ele>987.6</ele>
        <time>2021-04-10T10:58:00Z</time>
      </trkpt>
      <trkpt lat="45.15955" lon="5.88106">
        <ele>987.8</ele>
        <time>2021-04-10T10:58:01Z</time>
      </trkpt>
      <trkpt lat="45.15955" lon="5.88105">
        <ele>988.2</ele>
        <time>2021-04-10T10:58:02Z</time>
      </trkpt>
      <trkpt lat="45.15954" lon="5.88105">
        <ele>988.4</ele>
        <time>2021-04-10T10:58:03Z</time>
      </trkpt>
      <trkpt lat="45.15954" lon="5.88104">
        <ele>988.8</ele>
        <time>2021-04-10T10:58:04Z</time>
      </trkpt>
      <trkpt lat="45.15953" lon="5.88103">
        <ele>988.8</ele>
        <time>2021-04-10T10:58:05Z</time>
      </trkpt>
      <trkpt lat="45.15953" lon="5.88102">
        <ele>989</ele>
        <time>2021-04-10T10:58:06Z</time>
      </trkpt>
      <trkpt lat="45.15952" lon="5.88101">
        <ele>989.2</ele>
        <time>2021-04-10T10:58:07Z</time>
      </trkpt>
      <trkpt lat="45.15952" lon="5.88101">
        <ele>989.4</ele>
        <time>2021-04-10T10:58:08Z</time>
      </trkpt>
      <trkpt lat="45.15951" lon="5.881">
        <ele>989.6</ele>
        <time>2021-04-10T10:58:09Z</time>
      </trkpt>
      <trkpt lat="45.15951" lon="5.88099">
        <ele>989.8</ele>
        <time>2021-04-10T10:58:10Z</time>
      </trkpt>
      <trkpt lat="45.1595" lon="5.88098">
        <ele>989.8</ele>
        <time>2021-04-10T10:58:11Z</time>
      </trkpt>
      <trkpt lat="45.15949" lon="5.88098">
        <ele>990</ele>
        <time>2021-04-10T10:58:12Z</time>
      </trkpt>
      <trkpt lat="45.15949" lon="5.88097">
        <ele>990</ele>
        <time>2021-04-10T10:58:13Z</time>
      </trkpt>
      <trkpt lat="45.15948" lon="5.88096">
        <ele>990.2</ele>
        <time>2021-04-10T10:58:14Z</time>
      </trkpt>
      <trkpt lat="45.15948" lon="5.88095">
        <ele>990.2</ele>
        <time>2021-04-10T10:58:15Z</time>
      </trkpt>
      <trkpt lat="45.15947" lon="5.88095">
        <ele>990.2</ele>
        <time>2021-04-10T10:58:16Z</time>
      </trkpt>
      <trkpt lat="45.15947" lon="5.88094">
        <ele>990.4</ele>
        <time>2021-04-10T10:58:17Z</time>
      </trkpt>
      <trkpt lat="45.15946" lon="5.88093">
        <ele>990.6</ele>
        <time>2021-04-10T10:58:18Z</time>
      </trkpt>
      <trkpt lat="45.15946" lon="5.88092">
        <ele>990.6</ele>
        <time>2021-04-10T10:58:19Z</time>
      </trkpt>
      <trkpt lat="45.15945" lon="5.88092">
        <ele>990.8</ele>
        <time>2021-04-10T10:58:20Z</time>
      </trkpt>
      <trkpt lat="45.15945" lon="5.88091">
        <ele>990.8</ele>
        <time>2021-04-10T10:58:21Z</time>
      </trkpt>
      <trkpt lat="45.15943" lon="5.88091">
        <ele>991</ele>
        <time>2021-04-10T10:58:22Z</time>
      </trkpt>
      <trkpt lat="45.15941" lon="5.88092">
        <ele>991.2</ele>
        <time>2021-04-10T10:58:23Z</time>
      </trkpt>
      <trkpt lat="45.15939" lon="5.88092">
        <ele>991.2</ele>
        <time>2021-04-10T10:58:24Z</time>
      </trkpt>
      <trkpt lat="45.15937" lon="5.88093">
        <ele>991.4</ele>
        <time>2021-04-10T10:58:25Z</time>
      </trkpt>
      <trkpt lat="45.15935" lon="5.88093">
        <ele>991.4</ele>
        <time>2021-04-10T10:58:26Z</time>
      </trkpt>
      <trkpt lat="45.15935" lon="5.88093">
        <ele>991.4</ele>
        <time>2021-04-10T10:58:27Z</time>
      </trkpt>
      <trkpt lat="45.15935" lon="5.88093">
        <ele>991.6</ele>
        <time>2021-04-10T10:58:28Z</time>
      </trkpt>
      <trkpt lat="45.15935" lon="5.88093">
        <ele>991.6</ele>
        <time>2021-04-10T10:58:29Z</time>
      </trkpt>
      <trkpt lat="45.15935" lon="5.88093">
        <ele>991.8</ele>
        <time>2021-04-10T10:58:30Z</time>
      </trkpt>
      <trkpt lat="45.15934" lon="5.88094">
        <ele>991.8</ele>
        <time>2021-04-10T10:58:31Z</time>
      </trkpt>
      <trkpt lat="45.15934" lon="5.88094">
        <ele>992</ele>
        <time>2021-04-10T10:58:32Z</time>
      </trkpt>
      <trkpt lat="45.15933" lon="5.88094">
        <ele>992.2</ele>
        <time>2021-04-10T10:58:33Z</time>
      </trkpt>
      <trkpt lat="45.15932" lon="5.88095">
        <ele>992.4</ele>
        <time>2021-04-10T10:58:34Z</time>
      </trkpt>
      <trkpt lat="45.15932" lon="5.88095">
        <ele>992.8</ele>
        <time>2021-04-10T10:58:35Z</time>
      </trkpt>
      <trkpt lat="45.15931" lon="5.88095">
        <ele>993</ele>
        <time>2021-04-10T10:58:36Z</time>
      </trkpt>
      <trkpt lat="45.15931" lon="5.88096">
        <ele>992.8</ele>
        <time>2021-04-10T10:58:37Z</time>
      </trkpt>
      <trkpt lat="45.1593" lon="5.88096">
        <ele>992.8</ele>
        <time>2021-04-10T10:58:38Z</time>
      </trkpt>
      <trkpt lat="45.15929" lon="5.88096">
        <ele>992.8</ele>
        <time>2021-04-10T10:58:39Z</time>
      </trkpt>
      <trkpt lat="45.15929" lon="5.88097">
        <ele>992.8</ele>
        <time>2021-04-10T10:58:40Z</time>
      </trkpt>
      <trkpt lat="45.15928" lon="5.88097">
        <ele>993</ele>
        <time>2021-04-10T10:58:41Z</time>
      </trkpt>
      <trkpt lat="45.15927" lon="5.88097">
        <ele>993</ele>
        <time>2021-04-10T10:58:42Z</time>
      </trkpt>
      <trkpt lat="45.15927" lon="5.88098">
        <ele>993.2</ele>
        <time>2021-04-10T10:58:43Z</time>
      </trkpt>
      <trkpt lat="45.15926" lon="5.88098">
        <ele>993.4</ele>
        <time>2021-04-10T10:58:44Z</time>
      </trkpt>
      <trkpt lat="45.15925" lon="5.88098">
        <ele>993.4</ele>
        <time>2021-04-10T10:58:45Z</time>
      </trkpt>
      <trkpt lat="45.15924" lon="5.88099">
        <ele>993.6</ele>
        <time>2021-04-10T10:58:46Z</time>
      </trkpt>
      <trkpt lat="45.15923" lon="5.88099">
        <ele>994</ele>
        <time>2021-04-10T10:58:47Z</time>
      </trkpt>
      <trkpt lat="45.15922" lon="5.881">
        <ele>994.2</ele>
        <time>2021-04-10T10:58:48Z</time>
      </trkpt>
      <trkpt lat="45.15921" lon="5.881">
        <ele>994.4</ele>
        <time>2021-04-10T10:58:49Z</time>
      </trkpt>
      <trkpt lat="45.1592" lon="5.881">
        <ele>994.6</ele>
        <time>2021-04-10T10:58:50Z</time>
      </trkpt>
      <trkpt lat="45.15919" lon="5.88101">
        <ele>994.8</ele>
        <time>2021-04-10T10:58:51Z</time>
      </trkpt>
      <trkpt lat="45.15918" lon="5.88101">
        <ele>995</ele>
        <time>2021-04-10T10:58:52Z</time>
      </trkpt>
      <trkpt lat="45.15917" lon="5.88102">
        <ele>995</ele>
        <time>2021-04-10T10:58:53Z</time>
      </trkpt>
      <trkpt lat="45.15915" lon="5.88103">
        <ele>995</ele>
        <time>2021-04-10T10:58:54Z</time>
      </trkpt>
      <trkpt lat="45.15913" lon="5.88104">
        <ele>995.2</ele>
        <time>2021-04-10T10:58:55Z</time>
      </trkpt>
      <trkpt lat="45.15911" lon="5.88105">
        <ele>995</ele>
        <time>2021-04-10T10:58:56Z</time>
      </trkpt>
      <trkpt lat="45.15909" lon="5.88106">
        <ele>995</ele>
        <time>2021-04-10T10:58:57Z</time>
      </trkpt>
      <trkpt lat="45.15907" lon="5.88107">
        <ele>995.2</ele>
        <time>2021-04-10T10:58:58Z</time>
      </trkpt>
      <trkpt lat="45.15905" lon="5.88108">
        <ele>995.4</ele>
        <time>2021-04-10T10:58:59Z</time>
      </trkpt>
      <trkpt lat="45.15903" lon="5.88109">
        <ele>995.6</ele>
        <time>2021-04-10T10:59:00Z</time>
      </trkpt>
      <trkpt lat="45.15901" lon="5.8811">
        <ele>995.6</ele>
        <time>2021-04-10T10:59:01Z</time>
      </trkpt>
      <trkpt lat="45.159" lon="5.88112">
        <ele>995.8</ele>
        <time>2021-04-10T10:59:02Z</time>
      </trkpt>
      <trkpt lat="45.15898" lon="5.88114">
        <ele>995.8</ele>
        <time>2021-04-10T10:59:03Z</time>
      </trkpt>
      <trkpt lat="45.15897" lon="5.88116">
        <ele>996</ele>
        <time>2021-04-10T10:59:04Z</time>
      </trkpt>
      <trkpt lat="45.15895" lon="5.88118">
        <ele>996.2</ele>
        <time>2021-04-10T10:59:05Z</time>
      </trkpt>
      <trkpt lat="45.15894" lon="5.8812">
        <ele>996.4</ele>
        <time>2021-04-10T10:59:06Z</time>
      </trkpt>
      <trkpt lat="45.15892" lon="5.88121">
        <ele>996.4</ele>
        <time>2021-04-10T10:59:07Z</time>
      </trkpt>
      <trkpt lat="45.15891" lon="5.88122">
        <ele>996.6</ele>
        <time>2021-04-10T10:59:08Z</time>
      </trkpt>
      <trkpt lat="45.1589" lon="5.88123">
        <ele>996.8</ele>
        <time>2021-04-10T10:59:09Z</time>
      </trkpt>
      <trkpt lat="45.15889" lon="5.88124">
        <ele>997</ele>
        <time>2021-04-10T10:59:10Z</time>
      </trkpt>
      <trkpt lat="45.15887" lon="5.88125">
        <ele>997.4</ele>
        <time>2021-04-10T10:59:11Z</time>
      </trkpt>
      <trkpt lat="45.15886" lon="5.88126">
        <ele>997.6</ele>
        <time>2021-04-10T10:59:12Z</time>
      </trkpt>
      <trkpt lat="45.15885" lon="5.88127">
        <ele>998</ele>
        <time>2021-04-10T10:59:13Z</time>
      </trkpt>
      <trkpt lat="45.15883" lon="5.88127">
        <ele>998.2</ele>
        <time>2021-04-10T10:59:14Z</time>
      </trkpt>
      <trkpt lat="45.15881" lon="5.88128">
        <ele>998.4</ele>
        <time>2021-04-10T10:59:15Z</time>
      </trkpt>
      <trkpt lat="45.1588" lon="5.88128">
        <ele>998.4</ele>
        <time>2021-04-10T10:59:16Z</time>
      </trkpt>
      <trkpt lat="45.15878" lon="5.88128">
        <ele>998.6</ele>
        <time>2021-04-10T10:59:17Z</time>
      </trkpt>
      <trkpt lat="45.15876" lon="5.88129">
        <ele>998.8</ele>
        <time>2021-04-10T10:59:18Z</time>
      </trkpt>
      <trkpt lat="45.15875" lon="5.88129">
        <ele>999</ele>
        <time>2021-04-10T10:59:19Z</time>
      </trkpt>
      <trkpt lat="45.15873" lon="5.8813">
        <ele>999</ele>
        <time>2021-04-10T10:59:20Z</time>
      </trkpt>
      <trkpt lat="45.15872" lon="5.88131">
        <ele>999.2</ele>
        <time>2021-04-10T10:59:21Z</time>
      </trkpt>
      <trkpt lat="45.1587" lon="5.88132">
        <ele>999.2</ele>
        <time>2021-04-10T10:59:22Z</time>
      </trkpt>
      <trkpt lat="45.15869" lon="5.88133">
        <ele>999.4</ele>
        <time>2021-04-10T10:59:23Z</time>
      </trkpt>
      <trkpt lat="45.15867" lon="5.88134">
        <ele>999.4</ele>
        <time>2021-04-10T10:59:24Z</time>
      </trkpt>
      <trkpt lat="45.15866" lon="5.88135">
        <ele>999.6</ele>
        <time>2021-04-10T10:59:25Z</time>
      </trkpt>
      <trkpt lat="45.15865" lon="5.88135">
        <ele>999.8</ele>
        <time>2021-04-10T10:59:26Z</time>
      </trkpt>
      <trkpt lat="45.15864" lon="5.88136">
        <ele>1000</ele>
        <time>2021-04-10T10:59:27Z</time>
      </trkpt>
      <trkpt lat="45.15863" lon="5.88137">
        <ele>1000</ele>
        <time>2021-04-10T10:59:28Z</time>
      </trkpt>
      <trkpt lat="45.15862" lon="5.88137">
        <ele>1000.2</ele>
        <time>2021-04-10T10:59:29Z</time>
      </trkpt>
      <trkpt lat="45.15861" lon="5.88138">
        <ele>1000.4</ele>
        <time>2021-04-10T10:59:30Z</time>
      </trkpt>
      <trkpt lat="45.1586" lon="5.88139">
        <ele>1000.4</ele>
        <time>2021-04-10T10:59:31Z</time>
      </trkpt>
      <trkpt lat="45.15858" lon="5.88139">
        <ele>1000.6</ele>
        <time>2021-04-10T10:59:32Z</time>
      </trkpt>
      <trkpt lat="45.15857" lon="5.8814">
        <ele>1000.6</ele>
        <time>2021-04-10T10:59:33Z</time>
      </trkpt>
      <trkpt lat="45.15856" lon="5.88141">
        <ele>1000.8</ele>
        <time>2021-04-10T10:59:34Z</time>
      </trkpt>
      <trkpt lat="45.15855" lon="5.88141">
        <ele>1001</ele>
        <time>2021-04-10T10:59:35Z</time>
      </trkpt>
      <trkpt lat="45.15854" lon="5.88142">
        <ele>1001.2</ele>
        <time>2021-04-10T10:59:36Z</time>
      </trkpt>
      <trkpt lat="45.15853" lon="5.88143">
        <ele>1001.4</ele>
        <time>2021-04-10T10:59:37Z</time>
      </trkpt>
      <trkpt lat="45.15852" lon="5.88143">
        <ele>1001.8</ele>
        <time>2021-04-10T10:59:38Z</time>
      </trkpt>
      <trkpt lat="45.15851" lon="5.88144">
        <ele>1002.2</ele>
        <time>2021-04-10T10:59:39Z</time>
      </trkpt>
      <trkpt lat="45.1585" lon="5.88144">
        <ele>1002.4</ele>
        <time>2021-04-10T10:59:40Z</time>
      </trkpt>
      <trkpt lat="45.15849" lon="5.88145">
        <ele>1002.6</ele>
        <time>2021-04-10T10:59:41Z</time>
      </trkpt>
      <trkpt lat="45.15847" lon="5.88146">
        <ele>1002.6</ele>
        <time>2021-04-10T10:59:42Z</time>
      </trkpt>
      <trkpt lat="45.15846" lon="5.88147">
        <ele>1002.8</ele>
        <time>2021-04-10T10:59:43Z</time>
      </trkpt>
      <trkpt lat="45.15845" lon="5.88149">
        <ele>1002.8</ele>
        <time>2021-04-10T10:59:44Z</time>
      </trkpt>
      <trkpt lat="45.15844" lon="5.8815">
        <ele>1003</ele>
        <time>2021-04-10T10:59:45Z</time>
      </trkpt>
      <trkpt lat="45.15842" lon="5.88151">
        <ele>1003.2</ele>
        <time>2021-04-10T10:59:46Z</time>
      </trkpt>
      <trkpt lat="45.15841" lon="5.88152">
        <ele>1003.2</ele>
        <time>2021-04-10T10:59:47Z</time>
      </trkpt>
      <trkpt lat="45.1584" lon="5.88153">
        <ele>1003.6</ele>
        <time>2021-04-10T10:59:48Z</time>
      </trkpt>
      <trkpt lat="45.15839" lon="5.88154">
        <ele>1003.8</ele>
        <time>2021-04-10T10:59:49Z</time>
      </trkpt>
      <trkpt lat="45.15837" lon="5.88156">
        <ele>1003.8</ele>
        <time>2021-04-10T10:59:50Z</time>
      </trkpt>
      <trkpt lat="45.15836" lon="5.88157">
        <ele>1004</ele>
        <time>2021-04-10T10:59:51Z</time>
      </trkpt>
      <trkpt lat="45.15835" lon="5.88159">
        <ele>1004.2</ele>
        <time>2021-04-10T10:59:52Z</time>
      </trkpt>
      <trkpt lat="45.15834" lon="5.8816">
        <ele>1004.2</ele>
        <time>2021-04-10T10:59:53Z</time>
      </trkpt>
      <trkpt lat="45.15833" lon="5.88162">
        <ele>1004.4</ele>
        <time>2021-04-10T10:59:54Z</time>
      </trkpt>
      <trkpt lat="45.15832" lon="5.88164">
        <ele>1004.4</ele>
        <time>2021-04-10T10:59:55Z</time>
      </trkpt>
      <trkpt lat="45.15831" lon="5.88165">
        <ele>1004.6</ele>
        <time>2021-04-10T10:59:56Z</time>
      </trkpt>
      <trkpt lat="45.1583" lon="5.88166">
        <ele>1004.8</ele>
        <time>2021-04-10T10:59:57Z</time>
      </trkpt>
      <trkpt lat="45.15829" lon="5.88167">
        <ele>1005</ele>
        <time>2021-04-10T10:59:58Z</time>
      </trkpt>
      <trkpt lat="45.15828" lon="5.88168">
        <ele>1005.2</ele>
        <time>2021-04-10T10:59:59Z</time>
      </trkpt>
      <trkpt lat="45.15827" lon="5.88169">
        <ele>1005.2</ele>
        <time>2021-04-10T11:00:00Z</time>
      </trkpt>
      <trkpt lat="45.15825" lon="5.8817">
        <ele>1005.8</ele>
        <time>2021-04-10T11:00:01Z</time>
      </trkpt>
      <trkpt lat="45.15824" lon="5.88171">
        <ele>1006</ele>
        <time>2021-04-10T11:00:02Z</time>
      </trkpt>
      <trkpt lat="45.15823" lon="5.88171">
        <ele>1006.2</ele>
        <time>2021-04-10T11:00:03Z</time>
      </trkpt>
      <trkpt lat="45.15822" lon="5.88172">
        <ele>1006.4</ele>
        <time>2021-04-10T11:00:04Z</time>
      </trkpt>
      <trkpt lat="45.15821" lon="5.88173">
        <ele>1006.4</ele>
        <time>2021-04-10T11:00:05Z</time>
      </trkpt>
      <trkpt lat="45.15821" lon="5.88173">
        <ele>1006.4</ele>
        <time>2021-04-10T11:00:06Z</time>
      </trkpt>
      <trkpt lat="45.1582" lon="5.88174">
        <ele>1006.6</ele>
        <time>2021-04-10T11:00:07Z</time>
      </trkpt>
      <trkpt lat="45.15819" lon="5.88174">
        <ele>1007</ele>
        <time>2021-04-10T11:00:08Z</time>
      </trkpt>
      <trkpt lat="45.15818" lon="5.88175">
        <ele>1007</ele>
        <time>2021-04-10T11:00:09Z</time>
      </trkpt>
      <trkpt lat="45.15817" lon="5.88176">
        <ele>1007.2</ele>
        <time>2021-04-10T11:00:10Z</time>
      </trkpt>
      <trkpt lat="45.15816" lon="5.88176">
        <ele>1007.2</ele>
        <time>2021-04-10T11:00:11Z</time>
      </trkpt>
      <trkpt lat="45.15816" lon="5.88177">
        <ele>1007.4</ele>
        <time>2021-04-10T11:00:12Z</time>
      </trkpt>
      <trkpt lat="45.15815" lon="5.88177">
        <ele>1007.4</ele>
        <time>2021-04-10T11:00:13Z</time>
      </trkpt>
      <trkpt lat="45.15814" lon="5.88177">
        <ele>1007.4</ele>
        <time>2021-04-10T11:00:14Z</time>
      </trkpt>
      <trkpt lat="45.15813" lon="5.88178">
        <ele>1007.4</ele>
        <time>2021-04-10T11:00:15Z</time>
      </trkpt>
      <trkpt lat="45.15812" lon="5.88178">
        <ele>1007.4</ele>
        <time>2021-04-10T11:00:16Z</time>
      </trkpt>
      <trkpt lat="45.15811" lon="5.88178">
        <ele>1007.4</ele>
        <time>2021-04-10T11:00:17Z</time>
      </trkpt>
      <trkpt lat="45.15811" lon="5.88178">
        <ele>1007.6</ele>
        <time>2021-04-10T11:00:18Z</time>
      </trkpt>
      <trkpt lat="45.1581" lon="5.88178">
        <ele>1007.8</ele>
        <time>2021-04-10T11:00:19Z</time>
      </trkpt>
      <trkpt lat="45.15809" lon="5.88178">
        <ele>1008</ele>
        <time>2021-04-10T11:00:20Z</time>
      </trkpt>
      <trkpt lat="45.15808" lon="5.88178">
        <ele>1008.4</ele>
        <time>2021-04-10T11:00:21Z</time>
      </trkpt>
      <trkpt lat="45.15807" lon="5.88178">
        <ele>1008.8</ele>
        <time>2021-04-10T11:00:22Z</time>
      </trkpt>
      <trkpt lat="45.15807" lon="5.88179">
        <ele>1008.8</ele>
        <time>2021-04-10T11:00:23Z</time>
      </trkpt>
      <trkpt lat="45.15806" lon="5.88179">
        <ele>1009.2</ele>
        <time>2021-04-10T11:00:24Z</time>
      </trkpt>
      <trkpt lat="45.15805" lon="5.88179">
        <ele>1009.4</ele>
        <time>2021-04-10T11:00:25Z</time>
      </trkpt>
      <trkpt lat="45.15804" lon="5.8818">
        <ele>1009.4</ele>
        <time>2021-04-10T11:00:26Z</time>
      </trkpt>
      <trkpt lat="45.15803" lon="5.8818">
        <ele>1009.8</ele>
        <time>2021-04-10T11:00:27Z</time>
      </trkpt>
      <trkpt lat="45.15802" lon="5.88181">
        <ele>1010</ele>
        <time>2021-04-10T11:00:28Z</time>
      </trkpt>
      <trkpt lat="45.15801" lon="5.88182">
        <ele>1010.2</ele>
        <time>2021-04-10T11:00:29Z</time>
      </trkpt>
      <trkpt lat="45.158" lon="5.88183">
        <ele>1010.6</ele>
        <time>2021-04-10T11:00:30Z</time>
      </trkpt>
      <trkpt lat="45.15799" lon="5.88183">
        <ele>1010.6</ele>
        <time>2021-04-10T11:00:31Z</time>
      </trkpt>
      <trkpt lat="45.15798" lon="5.88184">
        <ele>1010.6</ele>
        <time>2021-04-10T11:00:32Z</time>
      </trkpt>
      <trkpt lat="45.15797" lon="5.88185">
        <ele>1010.8</ele>
        <time>2021-04-10T11:00:33Z</time>
      </trkpt>
      <trkpt lat="45.15795" lon="5.88186">
        <ele>1010.8</ele>
        <time>2021-04-10T11:00:34Z</time>
      </trkpt>
      <trkpt lat="45.15794" lon="5.88187">
        <ele>1011</ele>
        <time>2021-04-10T11:00:35Z</time>
      </trkpt>
      <trkpt lat="45.15792" lon="5.88189">
        <ele>1011</ele>
        <time>2021-04-10T11:00:36Z</time>
      </trkpt>
      <trkpt lat="45.15791" lon="5.8819">
        <ele>1011</ele>
        <time>2021-04-10T11:00:37Z</time>
      </trkpt>
      <trkpt lat="45.15789" lon="5.88191">
        <ele>1011</ele>
        <time>2021-04-10T11:00:38Z</time>
      </trkpt>
      <trkpt lat="45.15787" lon="5.88192">
        <ele>1011</ele>
        <time>2021-04-10T11:00:39Z</time>
      </trkpt>
      <trkpt lat="45.15786" lon="5.88193">
        <ele>1011</ele>
        <time>2021-04-10T11:00:40Z</time>
      </trkpt>
      <trkpt lat="45.15784" lon="5.88194">
        <ele>1011.4</ele>
        <time>2021-04-10T11:00:41Z</time>
      </trkpt>
      <trkpt lat="45.15783" lon="5.88195">
        <ele>1011.4</ele>
        <time>2021-04-10T11:00:42Z</time>
      </trkpt>
      <trkpt lat="45.15781" lon="5.88196">
        <ele>1011.6</ele>
        <time>2021-04-10T11:00:43Z</time>
      </trkpt>
      <trkpt lat="45.1578" lon="5.88197">
        <ele>1011.8</ele>
        <time>2021-04-10T11:00:44Z</time>
      </trkpt>
      <trkpt lat="45.15778" lon="5.88198">
        <ele>1012</ele>
        <time>2021-04-10T11:00:45Z</time>
      </trkpt>
      <trkpt lat="45.15777" lon="5.88199">
        <ele>1012.4</ele>
        <time>2021-04-10T11:00:46Z</time>
      </trkpt>
      <trkpt lat="45.15776" lon="5.88199">
        <ele>1012.6</ele>
        <time>2021-04-10T11:00:47Z</time>
      </trkpt>
      <trkpt lat="45.15774" lon="5.882">
        <ele>1012.6</ele>
        <time>2021-04-10T11:00:48Z</time>
      </trkpt>
      <trkpt lat="45.15773" lon="5.88201">
        <ele>1012.6</ele>
        <time>2021-04-10T11:00:49Z</time>
      </trkpt>
      <trkpt lat="45.15772" lon="5.88202">
        <ele>1012.8</ele>
        <time>2021-04-10T11:00:50Z</time>
      </trkpt>
      <trkpt lat="45.1577" lon="5.88203">
        <ele>1012.8</ele>
        <time>2021-04-10T11:00:51Z</time>
      </trkpt>
      <trkpt lat="45.15769" lon="5.88203">
        <ele>1013</ele>
        <time>2021-04-10T11:00:52Z</time>
      </trkpt>
      <trkpt lat="45.15767" lon="5.88204">
        <ele>1013</ele>
        <time>2021-04-10T11:00:53Z</time>
      </trkpt>
      <trkpt lat="45.15766" lon="5.88205">
        <ele>1013</ele>
        <time>2021-04-10T11:00:54Z</time>
      </trkpt>
      <trkpt lat="45.15764" lon="5.88206">
        <ele>1013.4</ele>
        <time>2021-04-10T11:00:55Z</time>
      </trkpt>
      <trkpt lat="45.15759" lon="5.88207">
        <ele>1013.4</ele>
        <time>2021-04-10T11:00:56Z</time>
      </trkpt>
      <trkpt lat="45.15755" lon="5.88208">
        <ele>1013.6</ele>
        <time>2021-04-10T11:00:57Z</time>
      </trkpt>
      <trkpt lat="45.15752" lon="5.88209">
        <ele>1013.6</ele>
        <time>2021-04-10T11:00:58Z</time>
      </trkpt>
      <trkpt lat="45.15752" lon="5.88209">
        <ele>1013.8</ele>
        <time>2021-04-10T11:00:59Z</time>
      </trkpt>
      <trkpt lat="45.15752" lon="5.88209">
        <ele>1013.8</ele>
        <time>2021-04-10T11:01:00Z</time>
      </trkpt>
      <trkpt lat="45.15752" lon="5.88209">
        <ele>1014</ele>
        <time>2021-04-10T11:01:01Z</time>
      </trkpt>
      <trkpt lat="45.15752" lon="5.88209">
        <ele>1014</ele>
        <time>2021-04-10T11:01:02Z</time>
      </trkpt>
      <trkpt lat="45.15751" lon="5.88209">
        <ele>1014.2</ele>
        <time>2021-04-10T11:01:03Z</time>
      </trkpt>
      <trkpt lat="45.1575" lon="5.8821">
        <ele>1014.2</ele>
        <time>2021-04-10T11:01:04Z</time>
      </trkpt>
      <trkpt lat="45.15749" lon="5.8821">
        <ele>1014.2</ele>
        <time>2021-04-10T11:01:05Z</time>
      </trkpt>
      <trkpt lat="45.15748" lon="5.8821">
        <ele>1014.2</ele>
        <time>2021-04-10T11:01:06Z</time>
      </trkpt>
      <trkpt lat="45.15747" lon="5.88211">
        <ele>1014.2</ele>
        <time>2021-04-10T11:01:07Z</time>
      </trkpt>
      <trkpt lat="45.15745" lon="5.88211">
        <ele>1014.4</ele>
        <time>2021-04-10T11:01:08Z</time>
      </trkpt>
      <trkpt lat="45.15744" lon="5.88212">
        <ele>1014.6</ele>
        <time>2021-04-10T11:01:09Z</time>
      </trkpt>
      <trkpt lat="45.15743" lon="5.88212">
        <ele>1014.8</ele>
        <time>2021-04-10T11:01:10Z</time>
      </trkpt>
      <trkpt lat="45.15742" lon="5.88213">
        <ele>1015</ele>
        <time>2021-04-10T11:01:11Z</time>
      </trkpt>
      <trkpt lat="45.15741" lon="5.88214">
        <ele>1015</ele>
        <time>2021-04-10T11:01:12Z</time>
      </trkpt>
      <trkpt lat="45.1574" lon="5.88216">
        <ele>1015</ele>
        <time>2021-04-10T11:01:13Z</time>
      </trkpt>
      <trkpt lat="45.15739" lon="5.88218">
        <ele>1015.4</ele>
        <time>2021-04-10T11:01:14Z</time>
      </trkpt>
      <trkpt lat="45.15738" lon="5.88219">
        <ele>1015.4</ele>
        <time>2021-04-10T11:01:15Z</time>
      </trkpt>
      <trkpt lat="45.15737" lon="5.88221">
        <ele>1015.8</ele>
        <time>2021-04-10T11:01:16Z</time>
      </trkpt>
      <trkpt lat="45.15736" lon="5.88222">
        <ele>1015.8</ele>
        <time>2021-04-10T11:01:17Z</time>
      </trkpt>
      <trkpt lat="45.15735" lon="5.88224">
        <ele>1015.8</ele>
        <time>2021-04-10T11:01:18Z</time>
      </trkpt>
      <trkpt lat="45.15734" lon="5.88226">
        <ele>1015.8</ele>
        <time>2021-04-10T11:01:19Z</time>
      </trkpt>
      <trkpt lat="45.15733" lon="5.88228">
        <ele>1015.8</ele>
        <time>2021-04-10T11:01:20Z</time>
      </trkpt>
      <trkpt lat="45.15731" lon="5.8823">
        <ele>1016</ele>
        <time>2021-04-10T11:01:21Z</time>
      </trkpt>
      <trkpt lat="45.1573" lon="5.88231">
        <ele>1016</ele>
        <time>2021-04-10T11:01:22Z</time>
      </trkpt>
      <trkpt lat="45.15729" lon="5.88233">
        <ele>1016.2</ele>
        <time>2021-04-10T11:01:23Z</time>
      </trkpt>
      <trkpt lat="45.15728" lon="5.88235">
        <ele>1016.4</ele>
        <time>2021-04-10T11:01:24Z</time>
      </trkpt>
      <trkpt lat="45.15727" lon="5.88237">
        <ele>1016.6</ele>
        <time>2021-04-10T11:01:25Z</time>
      </trkpt>
      <trkpt lat="45.15727" lon="5.88238">
        <ele>1016.8</ele>
        <time>2021-04-10T11:01:26Z</time>
      </trkpt>
      <trkpt lat="45.15726" lon="5.8824">
        <ele>1016.8</ele>
        <time>2021-04-10T11:01:27Z</time>
      </trkpt>
      <trkpt lat="45.15725" lon="5.88242">
        <ele>1016.8</ele>
        <time>2021-04-10T11:01:28Z</time>
      </trkpt>
      <trkpt lat="45.15725" lon="5.88243">
        <ele>1016.8</ele>
        <time>2021-04-10T11:01:29Z</time>
      </trkpt>
      <trkpt lat="45.15724" lon="5.88245">
        <ele>1017.2</ele>
        <time>2021-04-10T11:01:30Z</time>
      </trkpt>
      <trkpt lat="45.15723" lon="5.88247">
        <ele>1017.4</ele>
        <time>2021-04-10T11:01:31Z</time>
      </trkpt>
      <trkpt lat="45.15723" lon="5.88249">
        <ele>1017.4</ele>
        <time>2021-04-10T11:01:32Z</time>
      </trkpt>
      <trkpt lat="45.15722" lon="5.88251">
        <ele>1017.6</ele>
        <time>2021-04-10T11:01:33Z</time>
      </trkpt>
      <trkpt lat="45.15721" lon="5.88253">
        <ele>1017.6</ele>
        <time>2021-04-10T11:01:34Z</time>
      </trkpt>
      <trkpt lat="45.1572" lon="5.88255">
        <ele>1017.8</ele>
        <time>2021-04-10T11:01:35Z</time>
      </trkpt>
      <trkpt lat="45.1572" lon="5.88257">
        <ele>1018.2</ele>
        <time>2021-04-10T11:01:36Z</time>
      </trkpt>
      <trkpt lat="45.15719" lon="5.88259">
        <ele>1018.2</ele>
        <time>2021-04-10T11:01:37Z</time>
      </trkpt>
      <trkpt lat="45.15718" lon="5.88261">
        <ele>1018.4</ele>
        <time>2021-04-10T11:01:38Z</time>
      </trkpt>
      <trkpt lat="45.15717" lon="5.88263">
        <ele>1018.4</ele>
        <time>2021-04-10T11:01:39Z</time>
      </trkpt>
      <trkpt lat="45.15716" lon="5.88265">
        <ele>1018.4</ele>
        <time>2021-04-10T11:01:40Z</time>
      </trkpt>
      <trkpt lat="45.15715" lon="5.88267">
        <ele>1018.4</ele>
        <time>2021-04-10T11:01:41Z</time>
      </trkpt>
      <trkpt lat="45.15714" lon="5.88269">
        <ele>1018.4</ele>
        <time>2021-04-10T11:01:42Z</time>
      </trkpt>
      <trkpt lat="45.15713" lon="5.88271">
        <ele>1018.6</ele>
        <time>2021-04-10T11:01:43Z</time>
      </trkpt>
      <trkpt lat="45.15712" lon="5.88273">
        <ele>1018.8</ele>
        <time>2021-04-10T11:01:44Z</time>
      </trkpt>
      <trkpt lat="45.15712" lon="5.88274">
        <ele>1019</ele>
        <time>2021-04-10T11:01:45Z</time>
      </trkpt>
      <trkpt lat="45.15711" lon="5.88275">
        <ele>1019</ele>
        <time>2021-04-10T11:01:46Z</time>
      </trkpt>
      <trkpt lat="45.15711" lon="5.88277">
        <ele>1019.4</ele>
        <time>2021-04-10T11:01:47Z</time>
      </trkpt>
      <trkpt lat="45.1571" lon="5.88278">
        <ele>1019.6</ele>
        <time>2021-04-10T11:01:48Z</time>
      </trkpt>
      <trkpt lat="45.15709" lon="5.8828">
        <ele>1019.8</ele>
        <time>2021-04-10T11:01:49Z</time>
      </trkpt>
      <trkpt lat="45.15709" lon="5.88281">
        <ele>1020</ele>
        <time>2021-04-10T11:01:50Z</time>
      </trkpt>
      <trkpt lat="45.15708" lon="5.88283">
        <ele>1020.2</ele>
        <time>2021-04-10T11:01:51Z</time>
      </trkpt>
      <trkpt lat="45.15706" lon="5.88285">
        <ele>1020</ele>
        <time>2021-04-10T11:01:52Z</time>
      </trkpt>
      <trkpt lat="45.15704" lon="5.88286">
        <ele>1020.2</ele>
        <time>2021-04-10T11:01:53Z</time>
      </trkpt>
      <trkpt lat="45.15703" lon="5.88288">
        <ele>1020.2</ele>
        <time>2021-04-10T11:01:54Z</time>
      </trkpt>
      <trkpt lat="45.15701" lon="5.8829">
        <ele>1020.4</ele>
        <time>2021-04-10T11:01:55Z</time>
      </trkpt>
      <trkpt lat="45.15699" lon="5.88292">
        <ele>1020.4</ele>
        <time>2021-04-10T11:01:56Z</time>
      </trkpt>
      <trkpt lat="45.15696" lon="5.88295">
        <ele>1020.6</ele>
        <time>2021-04-10T11:01:57Z</time>
      </trkpt>
      <trkpt lat="45.15694" lon="5.88296">
        <ele>1021</ele>
        <time>2021-04-10T11:01:58Z</time>
      </trkpt>
      <trkpt lat="45.15693" lon="5.88298">
        <ele>1021.2</ele>
        <time>2021-04-10T11:01:59Z</time>
      </trkpt>
      <trkpt lat="45.15691" lon="5.88299">
        <ele>1021.4</ele>
        <time>2021-04-10T11:02:00Z</time>
      </trkpt>
      <trkpt lat="45.1569" lon="5.88301">
        <ele>1021.4</ele>
        <time>2021-04-10T11:02:01Z</time>
      </trkpt>
      <trkpt lat="45.15688" lon="5.88303">
        <ele>1021.4</ele>
        <time>2021-04-10T11:02:02Z</time>
      </trkpt>
      <trkpt lat="45.15687" lon="5.88304">
        <ele>1021.4</ele>
        <time>2021-04-10T11:02:03Z</time>
      </trkpt>
      <trkpt lat="45.15685" lon="5.88306">
        <ele>1021.4</ele>
        <time>2021-04-10T11:02:04Z</time>
      </trkpt>
      <trkpt lat="45.15683" lon="5.88307">
        <ele>1021.6</ele>
        <time>2021-04-10T11:02:05Z</time>
      </trkpt>
      <trkpt lat="45.15682" lon="5.88309">
        <ele>1022</ele>
        <time>2021-04-10T11:02:06Z</time>
      </trkpt>
      <trkpt lat="45.1568" lon="5.8831">
        <ele>1022</ele>
        <time>2021-04-10T11:02:07Z</time>
      </trkpt>
      <trkpt lat="45.15679" lon="5.88312">
        <ele>1022.2</ele>
        <time>2021-04-10T11:02:08Z</time>
      </trkpt>
      <trkpt lat="45.15677" lon="5.88313">
        <ele>1022</ele>
        <time>2021-04-10T11:02:09Z</time>
      </trkpt>
      <trkpt lat="45.15676" lon="5.88315">
        <ele>1022.2</ele>
        <time>2021-04-10T11:02:10Z</time>
      </trkpt>
      <trkpt lat="45.15676" lon="5.88315">
        <ele>1022</ele>
        <time>2021-04-10T11:02:11Z</time>
      </trkpt>
      <trkpt lat="45.15676" lon="5.88315">
        <ele>1022.4</ele>
        <time>2021-04-10T11:02:12Z</time>
      </trkpt>
      <trkpt lat="45.15676" lon="5.88315">
        <ele>1022.2</ele>
        <time>2021-04-10T11:02:13Z</time>
      </trkpt>
      <trkpt lat="45.15675" lon="5.88317">
        <ele>1022.4</ele>
        <time>2021-04-10T11:02:14Z</time>
      </trkpt>
      <trkpt lat="45.15674" lon="5.88319">
        <ele>1022.2</ele>
        <time>2021-04-10T11:02:15Z</time>
      </trkpt>
      <trkpt lat="45.15674" lon="5.88321">
        <ele>1022.4</ele>
        <time>2021-04-10T11:02:16Z</time>
      </trkpt>
      <trkpt lat="45.15673" lon="5.88323">
        <ele>1022.4</ele>
        <time>2021-04-10T11:02:17Z</time>
      </trkpt>
      <trkpt lat="45.15672" lon="5.88325">
        <ele>1022.6</ele>
        <time>2021-04-10T11:02:18Z</time>
      </trkpt>
      <trkpt lat="45.15672" lon="5.88327">
        <ele>1022.6</ele>
        <time>2021-04-10T11:02:19Z</time>
      </trkpt>
      <trkpt lat="45.15671" lon="5.88329">
        <ele>1023</ele>
        <time>2021-04-10T11:02:20Z</time>
      </trkpt>
      <trkpt lat="45.15671" lon="5.88333">
        <ele>1022.8</ele>
        <time>2021-04-10T11:02:21Z</time>
      </trkpt>
      <trkpt lat="45.1567" lon="5.88336">
        <ele>1023.2</ele>
        <time>2021-04-10T11:02:22Z</time>
      </trkpt>
      <trkpt lat="45.1567" lon="5.88339">
        <ele>1023.2</ele>
        <time>2021-04-10T11:02:23Z</time>
      </trkpt>
      <trkpt lat="45.15669" lon="5.88342">
        <ele>1023.6</ele>
        <time>2021-04-10T11:02:24Z</time>
      </trkpt>
      <trkpt lat="45.15669" lon="5.88345">
        <ele>1023.4</ele>
        <time>2021-04-10T11:02:25Z</time>
      </trkpt>
      <trkpt lat="45.15668" lon="5.88348">
        <ele>1023.8</ele>
        <time>2021-04-10T11:02:26Z</time>
      </trkpt>
      <trkpt lat="45.15668" lon="5.88351">
        <ele>1023.8</ele>
        <time>2021-04-10T11:02:27Z</time>
      </trkpt>
      <trkpt lat="45.15667" lon="5.88358">
        <ele>1024.2</ele>
        <time>2021-04-10T11:02:28Z</time>
      </trkpt>
      <trkpt lat="45.15666" lon="5.88359">
        <ele>1024.4</ele>
        <time>2021-04-10T11:02:29Z</time>
      </trkpt>
      <trkpt lat="45.15665" lon="5.88361">
        <ele>1024.6</ele>
        <time>2021-04-10T11:02:30Z</time>
      </trkpt>
      <trkpt lat="45.15665" lon="5.88362">
        <ele>1024.4</ele>
        <time>2021-04-10T11:02:31Z</time>
      </trkpt>
      <trkpt lat="45.15662" lon="5.88366">
        <ele>1024.8</ele>
        <time>2021-04-10T11:02:32Z</time>
      </trkpt>
      <trkpt lat="45.1566" lon="5.8837">
        <ele>1024.6</ele>
        <time>2021-04-10T11:02:33Z</time>
      </trkpt>
      <trkpt lat="45.15657" lon="5.88375">
        <ele>1025</ele>
        <time>2021-04-10T11:02:34Z</time>
      </trkpt>
      <trkpt lat="45.15655" lon="5.88379">
        <ele>1025</ele>
        <time>2021-04-10T11:02:35Z</time>
      </trkpt>
      <trkpt lat="45.1565" lon="5.88382">
        <ele>1025.4</ele>
        <time>2021-04-10T11:02:36Z</time>
      </trkpt>
      <trkpt lat="45.15646" lon="5.88386">
        <ele>1025.4</ele>
        <time>2021-04-10T11:02:37Z</time>
      </trkpt>
      <trkpt lat="45.15646" lon="5.88386">
        <ele>1025.6</ele>
        <time>2021-04-10T11:02:38Z</time>
      </trkpt>
      <trkpt lat="45.15646" lon="5.88386">
        <ele>1025.6</ele>
        <time>2021-04-10T11:02:39Z</time>
      </trkpt>
      <trkpt lat="45.15646" lon="5.88386">
        <ele>1026</ele>
        <time>2021-04-10T11:02:40Z</time>
      </trkpt>
      <trkpt lat="45.15645" lon="5.88388">
        <ele>1025.8</ele>
        <time>2021-04-10T11:02:41Z</time>
      </trkpt>
      <trkpt lat="45.15644" lon="5.8839">
        <ele>1026.2</ele>
        <time>2021-04-10T11:02:42Z</time>
      </trkpt>
      <trkpt lat="45.15642" lon="5.88392">
        <ele>1026.2</ele>
        <time>2021-04-10T11:02:43Z</time>
      </trkpt>
      <trkpt lat="45.15641" lon="5.88394">
        <ele>1026.8</ele>
        <time>2021-04-10T11:02:44Z</time>
      </trkpt>
      <trkpt lat="45.1564" lon="5.88397">
        <ele>1026.6</ele>
        <time>2021-04-10T11:02:45Z</time>
      </trkpt>
      <trkpt lat="45.15632" lon="5.88402">
        <ele>1027.2</ele>
        <time>2021-04-10T11:02:46Z</time>
      </trkpt>
      <trkpt lat="45.15632" lon="5.88402">
        <ele>1027.4</ele>
        <time>2021-04-10T11:02:47Z</time>
      </trkpt>
      <trkpt lat="45.15632" lon="5.88402">
        <ele>1028</ele>
        <time>2021-04-10T11:02:48Z</time>
      </trkpt>
      <trkpt lat="45.15632" lon="5.88402">
        <ele>1028</ele>
        <time>2021-04-10T11:02:49Z</time>
      </trkpt>
      <trkpt lat="45.1563" lon="5.88403">
        <ele>1028.2</ele>
        <time>2021-04-10T11:02:50Z</time>
      </trkpt>
      <trkpt lat="45.15629" lon="5.88405">
        <ele>1028</ele>
        <time>2021-04-10T11:02:51Z</time>
      </trkpt>
      <trkpt lat="45.15627" lon="5.88407">
        <ele>1028</ele>
        <time>2021-04-10T11:02:52Z</time>
      </trkpt>
      <trkpt lat="45.15626" lon="5.88408">
        <ele>1028.4</ele>
        <time>2021-04-10T11:02:53Z</time>
      </trkpt>
      <trkpt lat="45.15624" lon="5.8841">
        <ele>1028.6</ele>
        <time>2021-04-10T11:02:54Z</time>
      </trkpt>
      <trkpt lat="45.15622" lon="5.88411">
        <ele>1028.6</ele>
        <time>2021-04-10T11:02:55Z</time>
      </trkpt>
      <trkpt lat="45.15621" lon="5.88412">
        <ele>1028.8</ele>
        <time>2021-04-10T11:02:56Z</time>
      </trkpt>
      <trkpt lat="45.15619" lon="5.88413">
        <ele>1029</ele>
        <time>2021-04-10T11:02:57Z</time>
      </trkpt>
      <trkpt lat="45.15617" lon="5.88413">
        <ele>1029.2</ele>
        <time>2021-04-10T11:02:58Z</time>
      </trkpt>
      <trkpt lat="45.15615" lon="5.88414">
        <ele>1029.4</ele>
        <time>2021-04-10T11:02:59Z</time>
      </trkpt>
      <trkpt lat="45.15614" lon="5.88416">
        <ele>1029.4</ele>
        <time>2021-04-10T11:03:00Z</time>
      </trkpt>
      <trkpt lat="45.15613" lon="5.88417">
        <ele>1029.6</ele>
        <time>2021-04-10T11:03:01Z</time>
      </trkpt>
      <trkpt lat="45.15611" lon="5.88418">
        <ele>1029.8</ele>
        <time>2021-04-10T11:03:02Z</time>
      </trkpt>
      <trkpt lat="45.1561" lon="5.88419">
        <ele>1030</ele>
        <time>2021-04-10T11:03:03Z</time>
      </trkpt>
      <trkpt lat="45.15609" lon="5.88421">
        <ele>1030.2</ele>
        <time>2021-04-10T11:03:04Z</time>
      </trkpt>
      <trkpt lat="45.15608" lon="5.88422">
        <ele>1030.4</ele>
        <time>2021-04-10T11:03:05Z</time>
      </trkpt>
      <trkpt lat="45.15607" lon="5.88423">
        <ele>1030.6</ele>
        <time>2021-04-10T11:03:06Z</time>
      </trkpt>
      <trkpt lat="45.15606" lon="5.88424">
        <ele>1031</ele>
        <time>2021-04-10T11:03:07Z</time>
      </trkpt>
      <trkpt lat="45.15605" lon="5.88426">
        <ele>1031.2</ele>
        <time>2021-04-10T11:03:08Z</time>
      </trkpt>
      <trkpt lat="45.15604" lon="5.88427">
        <ele>1031.4</ele>
        <time>2021-04-10T11:03:09Z</time>
      </trkpt>
      <trkpt lat="45.15603" lon="5.88428">
        <ele>1031.4</ele>
        <time>2021-04-10T11:03:10Z</time>
      </trkpt>
      <trkpt lat="45.15603" lon="5.8843">
        <ele>1031.6</ele>
        <time>2021-04-10T11:03:11Z</time>
      </trkpt>
      <trkpt lat="45.15602" lon="5.88431">
        <ele>1032</ele>
        <time>2021-04-10T11:03:12Z</time>
      </trkpt>
      <trkpt lat="45.15601" lon="5.88433">
        <ele>1032.2</ele>
        <time>2021-04-10T11:03:13Z</time>
      </trkpt>
      <trkpt lat="45.156" lon="5.88434">
        <ele>1032.6</ele>
        <time>2021-04-10T11:03:14Z</time>
      </trkpt>
      <trkpt lat="45.15599" lon="5.88435">
        <ele>1032.8</ele>
        <time>2021-04-10T11:03:15Z</time>
      </trkpt>
      <trkpt lat="45.15599" lon="5.88437">
        <ele>1033</ele>
        <time>2021-04-10T11:03:16Z</time>
      </trkpt>
      <trkpt lat="45.15597" lon="5.88437">
        <ele>1033.4</ele>
        <time>2021-04-10T11:03:17Z</time>
      </trkpt>
      <trkpt lat="45.15596" lon="5.88437">
        <ele>1033.4</ele>
        <time>2021-04-10T11:03:18Z</time>
      </trkpt>
      <trkpt lat="45.15595" lon="5.88437">
        <ele>1033.6</ele>
        <time>2021-04-10T11:03:19Z</time>
      </trkpt>
      <trkpt lat="45.15594" lon="5.88437">
        <ele>1033.8</ele>
        <time>2021-04-10T11:03:20Z</time>
      </trkpt>
      <trkpt lat="45.15592" lon="5.88437">
        <ele>1033.8</ele>
        <time>2021-04-10T11:03:21Z</time>
      </trkpt>
      <trkpt lat="45.15591" lon="5.88437">
        <ele>1034</ele>
        <time>2021-04-10T11:03:22Z</time>
      </trkpt>
      <trkpt lat="45.1559" lon="5.88438">
        <ele>1034.4</ele>
        <time>2021-04-10T11:03:23Z</time>
      </trkpt>
      <trkpt lat="45.15589" lon="5.88435">
        <ele>1034.4</ele>
        <time>2021-04-10T11:03:24Z</time>
      </trkpt>
      <trkpt lat="45.15588" lon="5.88433">
        <ele>1034.6</ele>
        <time>2021-04-10T11:03:25Z</time>
      </trkpt>
      <trkpt lat="45.15587" lon="5.8843">
        <ele>1034.8</ele>
        <time>2021-04-10T11:03:26Z</time>
      </trkpt>
      <trkpt lat="45.15586" lon="5.88428">
        <ele>1035</ele>
        <time>2021-04-10T11:03:27Z</time>
      </trkpt>
      <trkpt lat="45.15585" lon="5.88425">
        <ele>1035.2</ele>
        <time>2021-04-10T11:03:28Z</time>
      </trkpt>
      <trkpt lat="45.15584" lon="5.88423">
        <ele>1035.4</ele>
        <time>2021-04-10T11:03:29Z</time>
      </trkpt>
      <trkpt lat="45.15583" lon="5.8842">
        <ele>1035.4</ele>
        <time>2021-04-10T11:03:30Z</time>
      </trkpt>
      <trkpt lat="45.15583" lon="5.88414">
        <ele>1035.4</ele>
        <time>2021-04-10T11:03:31Z</time>
      </trkpt>
      <trkpt lat="45.15583" lon="5.88414">
        <ele>1035.6</ele>
        <time>2021-04-10T11:03:32Z</time>
      </trkpt>
      <trkpt lat="45.15583" lon="5.88414">
        <ele>1035.8</ele>
        <time>2021-04-10T11:03:33Z</time>
      </trkpt>
      <trkpt lat="45.15583" lon="5.88414">
        <ele>1035.8</ele>
        <time>2021-04-10T11:03:34Z</time>
      </trkpt>
      <trkpt lat="45.15583" lon="5.88411">
        <ele>1036.2</ele>
        <time>2021-04-10T11:03:35Z</time>
      </trkpt>
      <trkpt lat="45.15583" lon="5.88409">
        <ele>1036.2</ele>
        <time>2021-04-10T11:03:36Z</time>
      </trkpt>
      <trkpt lat="45.15583" lon="5.88406">
        <ele>1036.4</ele>
        <time>2021-04-10T11:03:37Z</time>
      </trkpt>
      <trkpt lat="45.15584" lon="5.88404">
        <ele>1036.6</ele>
        <time>2021-04-10T11:03:38Z</time>
      </trkpt>
      <trkpt lat="45.15584" lon="5.88401">
        <ele>1036.8</ele>
        <time>2021-04-10T11:03:39Z</time>
      </trkpt>
      <trkpt lat="45.15584" lon="5.88399">
        <ele>1037</ele>
        <time>2021-04-10T11:03:40Z</time>
      </trkpt>
      <trkpt lat="45.15584" lon="5.88397">
        <ele>1037</ele>
        <time>2021-04-10T11:03:41Z</time>
      </trkpt>
      <trkpt lat="45.15584" lon="5.88395">
        <ele>1037</ele>
        <time>2021-04-10T11:03:42Z</time>
      </trkpt>
      <trkpt lat="45.15585" lon="5.88393">
        <ele>1037.2</ele>
        <time>2021-04-10T11:03:43Z</time>
      </trkpt>
      <trkpt lat="45.15585" lon="5.8839">
        <ele>1037.2</ele>
        <time>2021-04-10T11:03:44Z</time>
      </trkpt>
      <trkpt lat="45.15585" lon="5.88388">
        <ele>1037.2</ele>
        <time>2021-04-10T11:03:45Z</time>
      </trkpt>
      <trkpt lat="45.15585" lon="5.88386">
        <ele>1037.2</ele>
        <time>2021-04-10T11:03:46Z</time>
      </trkpt>
      <trkpt lat="45.15586" lon="5.88384">
        <ele>1037.2</ele>
        <time>2021-04-10T11:03:47Z</time>
      </trkpt>
      <trkpt lat="45.15586" lon="5.88382">
        <ele>1037.2</ele>
        <time>2021-04-10T11:03:48Z</time>
      </trkpt>
      <trkpt lat="45.15587" lon="5.8838">
        <ele>1037.6</ele>
        <time>2021-04-10T11:03:49Z</time>
      </trkpt>
      <trkpt lat="45.15587" lon="5.88377">
        <ele>1038</ele>
        <time>2021-04-10T11:03:50Z</time>
      </trkpt>
      <trkpt lat="45.15588" lon="5.88375">
        <ele>1038.4</ele>
        <time>2021-04-10T11:03:51Z</time>
      </trkpt>
      <trkpt lat="45.15588" lon="5.88373">
        <ele>1038.4</ele>
        <time>2021-04-10T11:03:52Z</time>
      </trkpt>
      <trkpt lat="45.15589" lon="5.88371">
        <ele>1038.2</ele>
        <time>2021-04-10T11:03:53Z</time>
      </trkpt>
      <trkpt lat="45.1559" lon="5.88369">
        <ele>1038</ele>
        <time>2021-04-10T11:03:54Z</time>
      </trkpt>
      <trkpt lat="45.1559" lon="5.88367">
        <ele>1038</ele>
        <time>2021-04-10T11:03:55Z</time>
      </trkpt>
      <trkpt lat="45.15591" lon="5.88364">
        <ele>1038.4</ele>
        <time>2021-04-10T11:03:56Z</time>
      </trkpt>
      <trkpt lat="45.15591" lon="5.88362">
        <ele>1038.6</ele>
        <time>2021-04-10T11:03:57Z</time>
      </trkpt>
      <trkpt lat="45.15592" lon="5.8836">
        <ele>1038.6</ele>
        <time>2021-04-10T11:03:58Z</time>
      </trkpt>
      <trkpt lat="45.15592" lon="5.88359">
        <ele>1039</ele>
        <time>2021-04-10T11:03:59Z</time>
      </trkpt>
      <trkpt lat="45.15592" lon="5.88357">
        <ele>1039</ele>
        <time>2021-04-10T11:04:00Z</time>
      </trkpt>
      <trkpt lat="45.15592" lon="5.88356">
        <ele>1038.8</ele>
        <time>2021-04-10T11:04:01Z</time>
      </trkpt>
      <trkpt lat="45.15593" lon="5.88354">
        <ele>1038.8</ele>
        <time>2021-04-10T11:04:02Z</time>
      </trkpt>
      <trkpt lat="45.15593" lon="5.88353">
        <ele>1038.8</ele>
        <time>2021-04-10T11:04:03Z</time>
      </trkpt>
      <trkpt lat="45.15593" lon="5.88351">
        <ele>1038.8</ele>
        <time>2021-04-10T11:04:04Z</time>
      </trkpt>
      <trkpt lat="45.15593" lon="5.88349">
        <ele>1038.8</ele>
        <time>2021-04-10T11:04:05Z</time>
      </trkpt>
      <trkpt lat="45.15594" lon="5.88348">
        <ele>1038.8</ele>
        <time>2021-04-10T11:04:06Z</time>
      </trkpt>
      <trkpt lat="45.15594" lon="5.88346">
        <ele>1038.8</ele>
        <time>2021-04-10T11:04:07Z</time>
      </trkpt>
      <trkpt lat="45.15594" lon="5.88345">
        <ele>1038.8</ele>
        <time>2021-04-10T11:04:08Z</time>
      </trkpt>
      <trkpt lat="45.15595" lon="5.88343">
        <ele>1038.8</ele>
        <time>2021-04-10T11:04:09Z</time>
      </trkpt>
      <trkpt lat="45.15595" lon="5.88341">
        <ele>1039</ele>
        <time>2021-04-10T11:04:10Z</time>
      </trkpt>
      <trkpt lat="45.15596" lon="5.88339">
        <ele>1038.8</ele>
        <time>2021-04-10T11:04:11Z</time>
      </trkpt>
      <trkpt lat="45.15597" lon="5.88338">
        <ele>1038.8</ele>
        <time>2021-04-10T11:04:12Z</time>
      </trkpt>
      <trkpt lat="45.15597" lon="5.88336">
        <ele>1038.8</ele>
        <time>2021-04-10T11:04:13Z</time>
      </trkpt>
      <trkpt lat="45.15598" lon="5.88334">
        <ele>1038.8</ele>
        <time>2021-04-10T11:04:14Z</time>
      </trkpt>
      <trkpt lat="45.15598" lon="5.88332">
        <ele>1038.8</ele>
        <time>2021-04-10T11:04:15Z</time>
      </trkpt>
      <trkpt lat="45.15599" lon="5.88331">
        <ele>1038.8</ele>
        <time>2021-04-10T11:04:16Z</time>
      </trkpt>
      <trkpt lat="45.156" lon="5.88329">
        <ele>1039.2</ele>
        <time>2021-04-10T11:04:17Z</time>
      </trkpt>
      <trkpt lat="45.156" lon="5.88327">
        <ele>1039.2</ele>
        <time>2021-04-10T11:04:18Z</time>
      </trkpt>
      <trkpt lat="45.15601" lon="5.88325">
        <ele>1039</ele>
        <time>2021-04-10T11:04:19Z</time>
      </trkpt>
      <trkpt lat="45.15602" lon="5.88323">
        <ele>1039</ele>
        <time>2021-04-10T11:04:20Z</time>
      </trkpt>
      <trkpt lat="45.15602" lon="5.88322">
        <ele>1039</ele>
        <time>2021-04-10T11:04:21Z</time>
      </trkpt>
      <trkpt lat="45.15605" lon="5.88319">
        <ele>1039</ele>
        <time>2021-04-10T11:04:22Z</time>
      </trkpt>
      <trkpt lat="45.15608" lon="5.88316">
        <ele>1039.2</ele>
        <time>2021-04-10T11:04:23Z</time>
      </trkpt>
      <trkpt lat="45.1561" lon="5.88313">
        <ele>1039</ele>
        <time>2021-04-10T11:04:24Z</time>
      </trkpt>
      <trkpt lat="45.15613" lon="5.88311">
        <ele>1039.4</ele>
        <time>2021-04-10T11:04:25Z</time>
      </trkpt>
      <trkpt lat="45.15615" lon="5.88308">
        <ele>1039.4</ele>
        <time>2021-04-10T11:04:26Z</time>
      </trkpt>
      <trkpt lat="45.15619" lon="5.88303">
        <ele>1039.8</ele>
        <time>2021-04-10T11:04:27Z</time>
      </trkpt>
      <trkpt lat="45.1562" lon="5.88301">
        <ele>1039.6</ele>
        <time>2021-04-10T11:04:28Z</time>
      </trkpt>
      <trkpt lat="45.15622" lon="5.88298">
        <ele>1040</ele>
        <time>2021-04-10T11:04:29Z</time>
      </trkpt>
      <trkpt lat="45.15623" lon="5.88295">
        <ele>1040</ele>
        <time>2021-04-10T11:04:30Z</time>
      </trkpt>
      <trkpt lat="45.15624" lon="5.88292">
        <ele>1040.2</ele>
        <time>2021-04-10T11:04:31Z</time>
      </trkpt>
      <trkpt lat="45.15624" lon="5.88292">
        <ele>1039.8</ele>
        <time>2021-04-10T11:04:32Z</time>
      </trkpt>
      <trkpt lat="45.15624" lon="5.88292">
        <ele>1040.2</ele>
        <time>2021-04-10T11:04:33Z</time>
      </trkpt>
      <trkpt lat="45.15624" lon="5.88292">
        <ele>1039.8</ele>
        <time>2021-04-10T11:04:34Z</time>
      </trkpt>
      <trkpt lat="45.15625" lon="5.8829">
        <ele>1040</ele>
        <time>2021-04-10T11:04:35Z</time>
      </trkpt>
      <trkpt lat="45.15625" lon="5.88287">
        <ele>1039.8</ele>
        <time>2021-04-10T11:04:36Z</time>
      </trkpt>
      <trkpt lat="45.15626" lon="5.88285">
        <ele>1040.2</ele>
        <time>2021-04-10T11:04:37Z</time>
      </trkpt>
      <trkpt lat="45.15626" lon="5.88282">
        <ele>1040</ele>
        <time>2021-04-10T11:04:38Z</time>
      </trkpt>
      <trkpt lat="45.15627" lon="5.88279">
        <ele>1040.4</ele>
        <time>2021-04-10T11:04:39Z</time>
      </trkpt>
      <trkpt lat="45.15628" lon="5.88275">
        <ele>1040.4</ele>
        <time>2021-04-10T11:04:40Z</time>
      </trkpt>
      <trkpt lat="45.15628" lon="5.8827">
        <ele>1040.6</ele>
        <time>2021-04-10T11:04:41Z</time>
      </trkpt>
      <trkpt lat="45.15629" lon="5.88265">
        <ele>1040.2</ele>
        <time>2021-04-10T11:04:42Z</time>
      </trkpt>
      <trkpt lat="45.15629" lon="5.8826">
        <ele>1040.6</ele>
        <time>2021-04-10T11:04:43Z</time>
      </trkpt>
      <trkpt lat="45.1563" lon="5.88256">
        <ele>1040.2</ele>
        <time>2021-04-10T11:04:44Z</time>
      </trkpt>
      <trkpt lat="45.15631" lon="5.88246">
        <ele>1040.6</ele>
        <time>2021-04-10T11:04:45Z</time>
      </trkpt>
      <trkpt lat="45.15633" lon="5.88242">
        <ele>1040.4</ele>
        <time>2021-04-10T11:04:46Z</time>
      </trkpt>
      <trkpt lat="45.15633" lon="5.8824">
        <ele>1040.4</ele>
        <time>2021-04-10T11:04:47Z</time>
      </trkpt>
      <trkpt lat="45.15634" lon="5.88237">
        <ele>1040</ele>
        <time>2021-04-10T11:04:48Z</time>
      </trkpt>
      <trkpt lat="45.15635" lon="5.88235">
        <ele>1040.2</ele>
        <time>2021-04-10T11:04:49Z</time>
      </trkpt>
      <trkpt lat="45.15635" lon="5.88235">
        <ele>1040</ele>
        <time>2021-04-10T11:04:50Z</time>
      </trkpt>
      <trkpt lat="45.15635" lon="5.88235">
        <ele>1040</ele>
        <time>2021-04-10T11:04:51Z</time>
      </trkpt>
      <trkpt lat="45.15635" lon="5.88235">
        <ele>1039.6</ele>
        <time>2021-04-10T11:04:52Z</time>
      </trkpt>
      <trkpt lat="45.15635" lon="5.88231">
        <ele>1039.8</ele>
        <time>2021-04-10T11:04:53Z</time>
      </trkpt>
      <trkpt lat="45.15636" lon="5.88227">
        <ele>1039.8</ele>
        <time>2021-04-10T11:04:54Z</time>
      </trkpt>
      <trkpt lat="45.15637" lon="5.88223">
        <ele>1039.6</ele>
        <time>2021-04-10T11:04:55Z</time>
      </trkpt>
      <trkpt lat="45.15637" lon="5.88219">
        <ele>1039.4</ele>
        <time>2021-04-10T11:04:56Z</time>
      </trkpt>
      <trkpt lat="45.15638" lon="5.88215">
        <ele>1039.6</ele>
        <time>2021-04-10T11:04:57Z</time>
      </trkpt>
      <trkpt lat="45.1564" lon="5.88209">
        <ele>1039.4</ele>
        <time>2021-04-10T11:04:58Z</time>
      </trkpt>
      <trkpt lat="45.1564" lon="5.88209">
        <ele>1039.6</ele>
        <time>2021-04-10T11:04:59Z</time>
      </trkpt>
      <trkpt lat="45.1564" lon="5.88209">
        <ele>1039.4</ele>
        <time>2021-04-10T11:05:00Z</time>
      </trkpt>
      <trkpt lat="45.1564" lon="5.88206">
        <ele>1039.6</ele>
        <time>2021-04-10T11:05:01Z</time>
      </trkpt>
      <trkpt lat="45.15641" lon="5.88203">
        <ele>1039.6</ele>
        <time>2021-04-10T11:05:02Z</time>
      </trkpt>
      <trkpt lat="45.15642" lon="5.88201">
        <ele>1039.4</ele>
        <time>2021-04-10T11:05:03Z</time>
      </trkpt>
      <trkpt lat="45.15642" lon="5.88198">
        <ele>1039.8</ele>
        <time>2021-04-10T11:05:04Z</time>
      </trkpt>
      <trkpt lat="45.15643" lon="5.88195">
        <ele>1039.8</ele>
        <time>2021-04-10T11:05:05Z</time>
      </trkpt>
      <trkpt lat="45.15643" lon="5.88192">
        <ele>1040.4</ele>
        <time>2021-04-10T11:05:06Z</time>
      </trkpt>
      <trkpt lat="45.15643" lon="5.88188">
        <ele>1040.4</ele>
        <time>2021-04-10T11:05:07Z</time>
      </trkpt>
      <trkpt lat="45.15643" lon="5.88184">
        <ele>1040.8</ele>
        <time>2021-04-10T11:05:08Z</time>
      </trkpt>
      <trkpt lat="45.15644" lon="5.88181">
        <ele>1040.8</ele>
        <time>2021-04-10T11:05:09Z</time>
      </trkpt>
      <trkpt lat="45.15644" lon="5.88177">
        <ele>1041</ele>
        <time>2021-04-10T11:05:10Z</time>
      </trkpt>
      <trkpt lat="45.15644" lon="5.88174">
        <ele>1041</ele>
        <time>2021-04-10T11:05:11Z</time>
      </trkpt>
      <trkpt lat="45.15644" lon="5.88167">
        <ele>1041.4</ele>
        <time>2021-04-10T11:05:12Z</time>
      </trkpt>
      <trkpt lat="45.15644" lon="5.88163">
        <ele>1041.2</ele>
        <time>2021-04-10T11:05:13Z</time>
      </trkpt>
      <trkpt lat="45.15643" lon="5.8816">
        <ele>1041.4</ele>
        <time>2021-04-10T11:05:14Z</time>
      </trkpt>
      <trkpt lat="45.15643" lon="5.88156">
        <ele>1041.2</ele>
        <time>2021-04-10T11:05:15Z</time>
      </trkpt>
      <trkpt lat="45.15643" lon="5.88153">
        <ele>1041.2</ele>
        <time>2021-04-10T11:05:16Z</time>
      </trkpt>
      <trkpt lat="45.15642" lon="5.8815">
        <ele>1041</ele>
        <time>2021-04-10T11:05:17Z</time>
      </trkpt>
      <trkpt lat="45.15641" lon="5.88146">
        <ele>1041.2</ele>
        <time>2021-04-10T11:05:18Z</time>
      </trkpt>
      <trkpt lat="45.1564" lon="5.88143">
        <ele>1040.8</ele>
        <time>2021-04-10T11:05:19Z</time>
      </trkpt>
      <trkpt lat="45.1564" lon="5.8814">
        <ele>1041</ele>
        <time>2021-04-10T11:05:20Z</time>
      </trkpt>
      <trkpt lat="45.1564" lon="5.88138">
        <ele>1040.6</ele>
        <time>2021-04-10T11:05:21Z</time>
      </trkpt>
      <trkpt lat="45.1564" lon="5.88136">
        <ele>1040.8</ele>
        <time>2021-04-10T11:05:22Z</time>
      </trkpt>
      <trkpt lat="45.1564" lon="5.88134">
        <ele>1040.6</ele>
        <time>2021-04-10T11:05:23Z</time>
      </trkpt>
      <trkpt lat="45.1564" lon="5.88132">
        <ele>1040.8</ele>
        <time>2021-04-10T11:05:24Z</time>
      </trkpt>
      <trkpt lat="45.15641" lon="5.88124">
        <ele>1040.6</ele>
        <time>2021-04-10T11:05:25Z</time>
      </trkpt>
      <trkpt lat="45.15641" lon="5.88124">
        <ele>1040.6</ele>
        <time>2021-04-10T11:05:26Z</time>
      </trkpt>
      <trkpt lat="45.15641" lon="5.88124">
        <ele>1040.6</ele>
        <time>2021-04-10T11:05:27Z</time>
      </trkpt>
      <trkpt lat="45.1564" lon="5.88121">
        <ele>1040.8</ele>
        <time>2021-04-10T11:05:28Z</time>
      </trkpt>
      <trkpt lat="45.1564" lon="5.88119">
        <ele>1040.6</ele>
        <time>2021-04-10T11:05:29Z</time>
      </trkpt>
      <trkpt lat="45.1564" lon="5.88116">
        <ele>1040.8</ele>
        <time>2021-04-10T11:05:30Z</time>
      </trkpt>
      <trkpt lat="45.1564" lon="5.88113">
        <ele>1040.6</ele>
        <time>2021-04-10T11:05:31Z</time>
      </trkpt>
      <trkpt lat="45.1564" lon="5.8811">
        <ele>1040.8</ele>
        <time>2021-04-10T11:05:32Z</time>
      </trkpt>
      <trkpt lat="45.1564" lon="5.88108">
        <ele>1040.8</ele>
        <time>2021-04-10T11:05:33Z</time>
      </trkpt>
      <trkpt lat="45.15639" lon="5.88105">
        <ele>1041</ele>
        <time>2021-04-10T11:05:34Z</time>
      </trkpt>
      <trkpt lat="45.15638" lon="5.88103">
        <ele>1040.8</ele>
        <time>2021-04-10T11:05:35Z</time>
      </trkpt>
      <trkpt lat="45.15638" lon="5.881">
        <ele>1041</ele>
        <time>2021-04-10T11:05:36Z</time>
      </trkpt>
      <trkpt lat="45.15637" lon="5.88098">
        <ele>1040.8</ele>
        <time>2021-04-10T11:05:37Z</time>
      </trkpt>
      <trkpt lat="45.15636" lon="5.88095">
        <ele>1041</ele>
        <time>2021-04-10T11:05:38Z</time>
      </trkpt>
      <trkpt lat="45.15635" lon="5.88093">
        <ele>1040.6</ele>
        <time>2021-04-10T11:05:39Z</time>
      </trkpt>
      <trkpt lat="45.15634" lon="5.88091">
        <ele>1040.6</ele>
        <time>2021-04-10T11:05:40Z</time>
      </trkpt>
      <trkpt lat="45.15633" lon="5.88088">
        <ele>1040.4</ele>
        <time>2021-04-10T11:05:41Z</time>
      </trkpt>
      <trkpt lat="45.15632" lon="5.88086">
        <ele>1040.6</ele>
        <time>2021-04-10T11:05:42Z</time>
      </trkpt>
      <trkpt lat="45.15631" lon="5.88082">
        <ele>1040.2</ele>
        <time>2021-04-10T11:05:43Z</time>
      </trkpt>
      <trkpt lat="45.15629" lon="5.88078">
        <ele>1040.2</ele>
        <time>2021-04-10T11:05:44Z</time>
      </trkpt>
      <trkpt lat="45.15627" lon="5.88074">
        <ele>1040</ele>
        <time>2021-04-10T11:05:45Z</time>
      </trkpt>
      <trkpt lat="45.15625" lon="5.8807">
        <ele>1040</ele>
        <time>2021-04-10T11:05:46Z</time>
      </trkpt>
      <trkpt lat="45.15624" lon="5.88067">
        <ele>1039.6</ele>
        <time>2021-04-10T11:05:47Z</time>
      </trkpt>
      <trkpt lat="45.15622" lon="5.88063">
        <ele>1040.2</ele>
        <time>2021-04-10T11:05:48Z</time>
      </trkpt>
      <trkpt lat="45.1562" lon="5.88058">
        <ele>1039.8</ele>
        <time>2021-04-10T11:05:49Z</time>
      </trkpt>
      <trkpt lat="45.15619" lon="5.88053">
        <ele>1039.8</ele>
        <time>2021-04-10T11:05:50Z</time>
      </trkpt>
      <trkpt lat="45.15617" lon="5.88048">
        <ele>1039.6</ele>
        <time>2021-04-10T11:05:51Z</time>
      </trkpt>
      <trkpt lat="45.15615" lon="5.88042">
        <ele>1039.4</ele>
        <time>2021-04-10T11:05:52Z</time>
      </trkpt>
      <trkpt lat="45.15614" lon="5.88039">
        <ele>1039.2</ele>
        <time>2021-04-10T11:05:53Z</time>
      </trkpt>
      <trkpt lat="45.15613" lon="5.88036">
        <ele>1039.2</ele>
        <time>2021-04-10T11:05:54Z</time>
      </trkpt>
      <trkpt lat="45.15612" lon="5.88032">
        <ele>1039.4</ele>
        <time>2021-04-10T11:05:55Z</time>
      </trkpt>
      <trkpt lat="45.15612" lon="5.8803">
        <ele>1039.4</ele>
        <time>2021-04-10T11:05:56Z</time>
      </trkpt>
      <trkpt lat="45.15611" lon="5.88028">
        <ele>1039.8</ele>
        <time>2021-04-10T11:05:57Z</time>
      </trkpt>
      <trkpt lat="45.1561" lon="5.88022">
        <ele>1039.8</ele>
        <time>2021-04-10T11:05:58Z</time>
      </trkpt>
      <trkpt lat="45.1561" lon="5.88022">
        <ele>1040.2</ele>
        <time>2021-04-10T11:05:59Z</time>
      </trkpt>
      <trkpt lat="45.1561" lon="5.88022">
        <ele>1040.2</ele>
        <time>2021-04-10T11:06:00Z</time>
      </trkpt>
      <trkpt lat="45.15609" lon="5.88019">
        <ele>1040.6</ele>
        <time>2021-04-10T11:06:01Z</time>
      </trkpt>
      <trkpt lat="45.15609" lon="5.88016">
        <ele>1040.6</ele>
        <time>2021-04-10T11:06:02Z</time>
      </trkpt>
      <trkpt lat="45.15608" lon="5.88014">
        <ele>1041</ele>
        <time>2021-04-10T11:06:03Z</time>
      </trkpt>
      <trkpt lat="45.15607" lon="5.88011">
        <ele>1041</ele>
        <time>2021-04-10T11:06:04Z</time>
      </trkpt>
      <trkpt lat="45.15607" lon="5.88008">
        <ele>1041.4</ele>
        <time>2021-04-10T11:06:05Z</time>
      </trkpt>
      <trkpt lat="45.15605" lon="5.87994">
        <ele>1041.2</ele>
        <time>2021-04-10T11:06:06Z</time>
      </trkpt>
      <trkpt lat="45.15605" lon="5.87994">
        <ele>1041.6</ele>
        <time>2021-04-10T11:06:07Z</time>
      </trkpt>
      <trkpt lat="45.15605" lon="5.87994">
        <ele>1041.4</ele>
        <time>2021-04-10T11:06:08Z</time>
      </trkpt>
      <trkpt lat="45.15605" lon="5.87994">
        <ele>1041.6</ele>
        <time>2021-04-10T11:06:09Z</time>
      </trkpt>
      <trkpt lat="45.15604" lon="5.8799">
        <ele>1041.4</ele>
        <time>2021-04-10T11:06:10Z</time>
      </trkpt>
      <trkpt lat="45.15604" lon="5.87986">
        <ele>1041.6</ele>
        <time>2021-04-10T11:06:11Z</time>
      </trkpt>
      <trkpt lat="45.15603" lon="5.87982">
        <ele>1041.4</ele>
        <time>2021-04-10T11:06:12Z</time>
      </trkpt>
      <trkpt lat="45.15602" lon="5.87978">
        <ele>1041.6</ele>
        <time>2021-04-10T11:06:13Z</time>
      </trkpt>
      <trkpt lat="45.15601" lon="5.87973">
        <ele>1041.4</ele>
        <time>2021-04-10T11:06:14Z</time>
      </trkpt>
      <trkpt lat="45.15601" lon="5.87966">
        <ele>1041.6</ele>
        <time>2021-04-10T11:06:15Z</time>
      </trkpt>
      <trkpt lat="45.156" lon="5.87964">
        <ele>1041.2</ele>
        <time>2021-04-10T11:06:16Z</time>
      </trkpt>
      <trkpt lat="45.156" lon="5.87961">
        <ele>1041.4</ele>
        <time>2021-04-10T11:06:17Z</time>
      </trkpt>
      <trkpt lat="45.156" lon="5.87959">
        <ele>1041.4</ele>
        <time>2021-04-10T11:06:18Z</time>
      </trkpt>
      <trkpt lat="45.156" lon="5.87957">
        <ele>1041.6</ele>
        <time>2021-04-10T11:06:19Z</time>
      </trkpt>
      <trkpt lat="45.15599" lon="5.87947">
        <ele>1041.4</ele>
        <time>2021-04-10T11:06:20Z</time>
      </trkpt>
      <trkpt lat="45.15598" lon="5.87942">
        <ele>1041.4</ele>
        <time>2021-04-10T11:06:21Z</time>
      </trkpt>
      <trkpt lat="45.15598" lon="5.87938">
        <ele>1041.2</ele>
        <time>2021-04-10T11:06:22Z</time>
      </trkpt>
      <trkpt lat="45.15597" lon="5.87935">
        <ele>1041.4</ele>
        <time>2021-04-10T11:06:23Z</time>
      </trkpt>
      <trkpt lat="45.15597" lon="5.87933">
        <ele>1041</ele>
        <time>2021-04-10T11:06:24Z</time>
      </trkpt>
      <trkpt lat="45.15597" lon="5.87931">
        <ele>1041.2</ele>
        <time>2021-04-10T11:06:25Z</time>
      </trkpt>
      <trkpt lat="45.15597" lon="5.8793">
        <ele>1041</ele>
        <time>2021-04-10T11:06:26Z</time>
      </trkpt>
      <trkpt lat="45.15595" lon="5.87923">
        <ele>1041</ele>
        <time>2021-04-10T11:06:27Z</time>
      </trkpt>
      <trkpt lat="45.15594" lon="5.8792">
        <ele>1041</ele>
        <time>2021-04-10T11:06:28Z</time>
      </trkpt>
      <trkpt lat="45.15593" lon="5.87917">
        <ele>1041.2</ele>
        <time>2021-04-10T11:06:29Z</time>
      </trkpt>
      <trkpt lat="45.15592" lon="5.87914">
        <ele>1041</ele>
        <time>2021-04-10T11:06:30Z</time>
      </trkpt>
      <trkpt lat="45.15591" lon="5.87911">
        <ele>1041.2</ele>
        <time>2021-04-10T11:06:31Z</time>
      </trkpt>
      <trkpt lat="45.15592" lon="5.8791">
        <ele>1041</ele>
        <time>2021-04-10T11:06:32Z</time>
      </trkpt>
      <trkpt lat="45.15592" lon="5.87908">
        <ele>1041.2</ele>
        <time>2021-04-10T11:06:33Z</time>
      </trkpt>
      <trkpt lat="45.15592" lon="5.87906">
        <ele>1041.2</ele>
        <time>2021-04-10T11:06:34Z</time>
      </trkpt>
      <trkpt lat="45.15592" lon="5.87905">
        <ele>1041.4</ele>
        <time>2021-04-10T11:06:35Z</time>
      </trkpt>
      <trkpt lat="45.15593" lon="5.87898">
        <ele>1041.4</ele>
        <time>2021-04-10T11:06:36Z</time>
      </trkpt>
      <trkpt lat="45.15593" lon="5.87893">
        <ele>1041.4</ele>
        <time>2021-04-10T11:06:37Z</time>
      </trkpt>
      <trkpt lat="45.15593" lon="5.87889">
        <ele>1041.2</ele>
        <time>2021-04-10T11:06:38Z</time>
      </trkpt>
      <trkpt lat="45.15593" lon="5.87884">
        <ele>1041.4</ele>
        <time>2021-04-10T11:06:39Z</time>
      </trkpt>
      <trkpt lat="45.15594" lon="5.87883">
        <ele>1041.2</ele>
        <time>2021-04-10T11:06:40Z</time>
      </trkpt>
      <trkpt lat="45.15595" lon="5.87881">
        <ele>1041.2</ele>
        <time>2021-04-10T11:06:41Z</time>
      </trkpt>
      <trkpt lat="45.15595" lon="5.8788">
        <ele>1040.8</ele>
        <time>2021-04-10T11:06:42Z</time>
      </trkpt>
      <trkpt lat="45.15596" lon="5.87878">
        <ele>1040.8</ele>
        <time>2021-04-10T11:06:43Z</time>
      </trkpt>
      <trkpt lat="45.15598" lon="5.87872">
        <ele>1040.6</ele>
        <time>2021-04-10T11:06:44Z</time>
      </trkpt>
      <trkpt lat="45.15598" lon="5.87872">
        <ele>1041</ele>
        <time>2021-04-10T11:06:45Z</time>
      </trkpt>
      <trkpt lat="45.15598" lon="5.87872">
        <ele>1040.8</ele>
        <time>2021-04-10T11:06:46Z</time>
      </trkpt>
      <trkpt lat="45.15599" lon="5.87869">
        <ele>1040.8</ele>
        <time>2021-04-10T11:06:47Z</time>
      </trkpt>
      <trkpt lat="45.15599" lon="5.87866">
        <ele>1040.6</ele>
        <time>2021-04-10T11:06:48Z</time>
      </trkpt>
      <trkpt lat="45.156" lon="5.87864">
        <ele>1040.8</ele>
        <time>2021-04-10T11:06:49Z</time>
      </trkpt>
      <trkpt lat="45.156" lon="5.87861">
        <ele>1040.8</ele>
        <time>2021-04-10T11:06:50Z</time>
      </trkpt>
      <trkpt lat="45.15601" lon="5.87858">
        <ele>1040.8</ele>
        <time>2021-04-10T11:06:51Z</time>
      </trkpt>
      <trkpt lat="45.15603" lon="5.87845">
        <ele>1040.6</ele>
        <time>2021-04-10T11:06:52Z</time>
      </trkpt>
      <trkpt lat="45.15603" lon="5.87842">
        <ele>1040.6</ele>
        <time>2021-04-10T11:06:53Z</time>
      </trkpt>
      <trkpt lat="45.15603" lon="5.8784">
        <ele>1040.6</ele>
        <time>2021-04-10T11:06:54Z</time>
      </trkpt>
      <trkpt lat="45.15603" lon="5.87837">
        <ele>1040.8</ele>
        <time>2021-04-10T11:06:55Z</time>
      </trkpt>
      <trkpt lat="45.15603" lon="5.87834">
        <ele>1040.6</ele>
        <time>2021-04-10T11:06:56Z</time>
      </trkpt>
      <trkpt lat="45.15604" lon="5.87823">
        <ele>1040.8</ele>
        <time>2021-04-10T11:06:57Z</time>
      </trkpt>
      <trkpt lat="45.15604" lon="5.87819">
        <ele>1040.6</ele>
        <time>2021-04-10T11:06:58Z</time>
      </trkpt>
      <trkpt lat="45.15605" lon="5.87816">
        <ele>1040.8</ele>
        <time>2021-04-10T11:06:59Z</time>
      </trkpt>
      <trkpt lat="45.15606" lon="5.87814">
        <ele>1040.6</ele>
        <time>2021-04-10T11:07:00Z</time>
      </trkpt>
      <trkpt lat="45.15606" lon="5.87811">
        <ele>1040.8</ele>
        <time>2021-04-10T11:07:01Z</time>
      </trkpt>
      <trkpt lat="45.15606" lon="5.87809">
        <ele>1041</ele>
        <time>2021-04-10T11:07:02Z</time>
      </trkpt>
      <trkpt lat="45.15607" lon="5.87806">
        <ele>1041.2</ele>
        <time>2021-04-10T11:07:03Z</time>
      </trkpt>
      <trkpt lat="45.15608" lon="5.87796">
        <ele>1041.2</ele>
        <time>2021-04-10T11:07:04Z</time>
      </trkpt>
      <trkpt lat="45.15608" lon="5.87792">
        <ele>1041.4</ele>
        <time>2021-04-10T11:07:05Z</time>
      </trkpt>
      <trkpt lat="45.15609" lon="5.87789">
        <ele>1041</ele>
        <time>2021-04-10T11:07:06Z</time>
      </trkpt>
      <trkpt lat="45.15608" lon="5.87787">
        <ele>1041.4</ele>
        <time>2021-04-10T11:07:07Z</time>
      </trkpt>
      <trkpt lat="45.15607" lon="5.87785">
        <ele>1041</ele>
        <time>2021-04-10T11:07:08Z</time>
      </trkpt>
      <trkpt lat="45.15607" lon="5.87782">
        <ele>1041.2</ele>
        <time>2021-04-10T11:07:09Z</time>
      </trkpt>
      <trkpt lat="45.15606" lon="5.8778">
        <ele>1041</ele>
        <time>2021-04-10T11:07:10Z</time>
      </trkpt>
      <trkpt lat="45.15603" lon="5.87772">
        <ele>1041</ele>
        <time>2021-04-10T11:07:11Z</time>
      </trkpt>
      <trkpt lat="45.156" lon="5.87767">
        <ele>1041</ele>
        <time>2021-04-10T11:07:12Z</time>
      </trkpt>
      <trkpt lat="45.15598" lon="5.87763">
        <ele>1041</ele>
        <time>2021-04-10T11:07:13Z</time>
      </trkpt>
      <trkpt lat="45.15596" lon="5.8776">
        <ele>1040.6</ele>
        <time>2021-04-10T11:07:14Z</time>
      </trkpt>
      <trkpt lat="45.15594" lon="5.87757">
        <ele>1040.6</ele>
        <time>2021-04-10T11:07:15Z</time>
      </trkpt>
      <trkpt lat="45.15592" lon="5.87753">
        <ele>1040.4</ele>
        <time>2021-04-10T11:07:16Z</time>
      </trkpt>
      <trkpt lat="45.15591" lon="5.8775">
        <ele>1040.4</ele>
        <time>2021-04-10T11:07:17Z</time>
      </trkpt>
      <trkpt lat="45.1559" lon="5.87747">
        <ele>1040.2</ele>
        <time>2021-04-10T11:07:18Z</time>
      </trkpt>
      <trkpt lat="45.1559" lon="5.87744">
        <ele>1040.4</ele>
        <time>2021-04-10T11:07:19Z</time>
      </trkpt>
      <trkpt lat="45.15589" lon="5.87741">
        <ele>1040.2</ele>
        <time>2021-04-10T11:07:20Z</time>
      </trkpt>
      <trkpt lat="45.15589" lon="5.87741">
        <ele>1040.4</ele>
        <time>2021-04-10T11:07:21Z</time>
      </trkpt>
      <trkpt lat="45.15589" lon="5.87741">
        <ele>1040.2</ele>
        <time>2021-04-10T11:07:22Z</time>
      </trkpt>
      <trkpt lat="45.15589" lon="5.87741">
        <ele>1040.6</ele>
        <time>2021-04-10T11:07:23Z</time>
      </trkpt>
      <trkpt lat="45.15589" lon="5.87738">
        <ele>1040.2</ele>
        <time>2021-04-10T11:07:24Z</time>
      </trkpt>
      <trkpt lat="45.15589" lon="5.87735">
        <ele>1040.4</ele>
        <time>2021-04-10T11:07:25Z</time>
      </trkpt>
      <trkpt lat="45.15589" lon="5.87732">
        <ele>1040.4</ele>
        <time>2021-04-10T11:07:26Z</time>
      </trkpt>
      <trkpt lat="45.15589" lon="5.87729">
        <ele>1040.4</ele>
        <time>2021-04-10T11:07:27Z</time>
      </trkpt>
      <trkpt lat="45.1559" lon="5.87726">
        <ele>1040.2</ele>
        <time>2021-04-10T11:07:28Z</time>
      </trkpt>
      <trkpt lat="45.15589" lon="5.87723">
        <ele>1040.2</ele>
        <time>2021-04-10T11:07:29Z</time>
      </trkpt>
      <trkpt lat="45.15589" lon="5.87721">
        <ele>1040.2</ele>
        <time>2021-04-10T11:07:30Z</time>
      </trkpt>
      <trkpt lat="45.15588" lon="5.87718">
        <ele>1040.2</ele>
        <time>2021-04-10T11:07:31Z</time>
      </trkpt>
      <trkpt lat="45.15588" lon="5.87716">
        <ele>1039.8</ele>
        <time>2021-04-10T11:07:32Z</time>
      </trkpt>
      <trkpt lat="45.15587" lon="5.87713">
        <ele>1040</ele>
        <time>2021-04-10T11:07:33Z</time>
      </trkpt>
      <trkpt lat="45.15586" lon="5.87701">
        <ele>1039.8</ele>
        <time>2021-04-10T11:07:34Z</time>
      </trkpt>
      <trkpt lat="45.15585" lon="5.87698">
        <ele>1039.8</ele>
        <time>2021-04-10T11:07:35Z</time>
      </trkpt>
      <trkpt lat="45.15585" lon="5.87696">
        <ele>1039.8</ele>
        <time>2021-04-10T11:07:36Z</time>
      </trkpt>
      <trkpt lat="45.15585" lon="5.87693">
        <ele>1040</ele>
        <time>2021-04-10T11:07:37Z</time>
      </trkpt>
      <trkpt lat="45.15585" lon="5.87691">
        <ele>1039.8</ele>
        <time>2021-04-10T11:07:38Z</time>
      </trkpt>
      <trkpt lat="45.15584" lon="5.87682">
        <ele>1040</ele>
        <time>2021-04-10T11:07:39Z</time>
      </trkpt>
      <trkpt lat="45.15584" lon="5.8768">
        <ele>1039.6</ele>
        <time>2021-04-10T11:07:40Z</time>
      </trkpt>
      <trkpt lat="45.15584" lon="5.87678">
        <ele>1039.8</ele>
        <time>2021-04-10T11:07:41Z</time>
      </trkpt>
      <trkpt lat="45.15584" lon="5.87672">
        <ele>1039.6</ele>
        <time>2021-04-10T11:07:42Z</time>
      </trkpt>
      <trkpt lat="45.15584" lon="5.8767">
        <ele>1039.8</ele>
        <time>2021-04-10T11:07:43Z</time>
      </trkpt>
      <trkpt lat="45.15583" lon="5.87667">
        <ele>1039.8</ele>
        <time>2021-04-10T11:07:44Z</time>
      </trkpt>
      <trkpt lat="45.15583" lon="5.87665">
        <ele>1040</ele>
        <time>2021-04-10T11:07:45Z</time>
      </trkpt>
      <trkpt lat="45.15582" lon="5.87658">
        <ele>1039.6</ele>
        <time>2021-04-10T11:07:46Z</time>
      </trkpt>
      <trkpt lat="45.15582" lon="5.87658">
        <ele>1039.8</ele>
        <time>2021-04-10T11:07:47Z</time>
      </trkpt>
      <trkpt lat="45.15582" lon="5.87658">
        <ele>1039.6</ele>
        <time>2021-04-10T11:07:48Z</time>
      </trkpt>
      <trkpt lat="45.15581" lon="5.87654">
        <ele>1039.8</ele>
        <time>2021-04-10T11:07:49Z</time>
      </trkpt>
      <trkpt lat="45.1558" lon="5.87649">
        <ele>1039.6</ele>
        <time>2021-04-10T11:07:50Z</time>
      </trkpt>
      <trkpt lat="45.15579" lon="5.87645">
        <ele>1039.6</ele>
        <time>2021-04-10T11:07:51Z</time>
      </trkpt>
      <trkpt lat="45.15578" lon="5.87641">
        <ele>1039.4</ele>
        <time>2021-04-10T11:07:52Z</time>
      </trkpt>
      <trkpt lat="45.15577" lon="5.87636">
        <ele>1039.6</ele>
        <time>2021-04-10T11:07:53Z</time>
      </trkpt>
      <trkpt lat="45.15575" lon="5.8763">
        <ele>1039.4</ele>
        <time>2021-04-10T11:07:54Z</time>
      </trkpt>
      <trkpt lat="45.15575" lon="5.8763">
        <ele>1039.6</ele>
        <time>2021-04-10T11:07:55Z</time>
      </trkpt>
      <trkpt lat="45.15575" lon="5.8763">
        <ele>1039.6</ele>
        <time>2021-04-10T11:07:56Z</time>
      </trkpt>
      <trkpt lat="45.15575" lon="5.8763">
        <ele>1039.6</ele>
        <time>2021-04-10T11:07:57Z</time>
      </trkpt>
      <trkpt lat="45.15575" lon="5.87627">
        <ele>1039.4</ele>
        <time>2021-04-10T11:07:58Z</time>
      </trkpt>
      <trkpt lat="45.15575" lon="5.87624">
        <ele>1039.6</ele>
        <time>2021-04-10T11:07:59Z</time>
      </trkpt>
      <trkpt lat="45.15576" lon="5.87621">
        <ele>1039.4</ele>
        <time>2021-04-10T11:08:00Z</time>
      </trkpt>
      <trkpt lat="45.15576" lon="5.87618">
        <ele>1039.6</ele>
        <time>2021-04-10T11:08:01Z</time>
      </trkpt>
      <trkpt lat="45.15576" lon="5.87615">
        <ele>1039.4</ele>
        <time>2021-04-10T11:08:02Z</time>
      </trkpt>
      <trkpt lat="45.15576" lon="5.87613">
        <ele>1039.8</ele>
        <time>2021-04-10T11:08:03Z</time>
      </trkpt>
      <trkpt lat="45.15575" lon="5.8761">
        <ele>1039.6</ele>
        <time>2021-04-10T11:08:04Z</time>
      </trkpt>
      <trkpt lat="45.15575" lon="5.87607">
        <ele>1039.6</ele>
        <time>2021-04-10T11:08:05Z</time>
      </trkpt>
      <trkpt lat="45.15574" lon="5.87605">
        <ele>1039.4</ele>
        <time>2021-04-10T11:08:06Z</time>
      </trkpt>
      <trkpt lat="45.15574" lon="5.87602">
        <ele>1039.4</ele>
        <time>2021-04-10T11:08:07Z</time>
      </trkpt>
      <trkpt lat="45.15574" lon="5.87593">
        <ele>1039.6</ele>
        <time>2021-04-10T11:08:08Z</time>
      </trkpt>
      <trkpt lat="45.15574" lon="5.87584">
        <ele>1039.6</ele>
        <time>2021-04-10T11:08:09Z</time>
      </trkpt>
      <trkpt lat="45.15572" lon="5.87578">
        <ele>1039.4</ele>
        <time>2021-04-10T11:08:10Z</time>
      </trkpt>
      <trkpt lat="45.15571" lon="5.87574">
        <ele>1039.6</ele>
        <time>2021-04-10T11:08:11Z</time>
      </trkpt>
      <trkpt lat="45.1557" lon="5.87571">
        <ele>1039.4</ele>
        <time>2021-04-10T11:08:12Z</time>
      </trkpt>
      <trkpt lat="45.15571" lon="5.87566">
        <ele>1039.2</ele>
        <time>2021-04-10T11:08:13Z</time>
      </trkpt>
      <trkpt lat="45.15572" lon="5.87563">
        <ele>1039</ele>
        <time>2021-04-10T11:08:14Z</time>
      </trkpt>
      <trkpt lat="45.15572" lon="5.8756">
        <ele>1039.2</ele>
        <time>2021-04-10T11:08:15Z</time>
      </trkpt>
      <trkpt lat="45.15573" lon="5.87557">
        <ele>1038.8</ele>
        <time>2021-04-10T11:08:16Z</time>
      </trkpt>
      <trkpt lat="45.15574" lon="5.87554">
        <ele>1039</ele>
        <time>2021-04-10T11:08:17Z</time>
      </trkpt>
      <trkpt lat="45.15575" lon="5.8755">
        <ele>1038.6</ele>
        <time>2021-04-10T11:08:18Z</time>
      </trkpt>
      <trkpt lat="45.15576" lon="5.87547">
        <ele>1038.8</ele>
        <time>2021-04-10T11:08:19Z</time>
      </trkpt>
      <trkpt lat="45.15577" lon="5.87545">
        <ele>1038.8</ele>
        <time>2021-04-10T11:08:20Z</time>
      </trkpt>
      <trkpt lat="45.15578" lon="5.87543">
        <ele>1039.2</ele>
        <time>2021-04-10T11:08:21Z</time>
      </trkpt>
      <trkpt lat="45.15579" lon="5.87541">
        <ele>1039.2</ele>
        <time>2021-04-10T11:08:22Z</time>
      </trkpt>
      <trkpt lat="45.15581" lon="5.87534">
        <ele>1039.4</ele>
        <time>2021-04-10T11:08:23Z</time>
      </trkpt>
      <trkpt lat="45.15581" lon="5.87534">
        <ele>1039.6</ele>
        <time>2021-04-10T11:08:24Z</time>
      </trkpt>
      <trkpt lat="45.15581" lon="5.87534">
        <ele>1040</ele>
        <time>2021-04-10T11:08:25Z</time>
      </trkpt>
      <trkpt lat="45.15581" lon="5.87534">
        <ele>1039.8</ele>
        <time>2021-04-10T11:08:26Z</time>
      </trkpt>
      <trkpt lat="45.15581" lon="5.87531">
        <ele>1040.2</ele>
        <time>2021-04-10T11:08:27Z</time>
      </trkpt>
      <trkpt lat="45.15582" lon="5.87528">
        <ele>1040</ele>
        <time>2021-04-10T11:08:28Z</time>
      </trkpt>
      <trkpt lat="45.15582" lon="5.87526">
        <ele>1040.4</ele>
        <time>2021-04-10T11:08:29Z</time>
      </trkpt>
      <trkpt lat="45.15583" lon="5.87523">
        <ele>1040.2</ele>
        <time>2021-04-10T11:08:30Z</time>
      </trkpt>
      <trkpt lat="45.15583" lon="5.8752">
        <ele>1040.2</ele>
        <time>2021-04-10T11:08:31Z</time>
      </trkpt>
      <trkpt lat="45.15582" lon="5.87516">
        <ele>1039.8</ele>
        <time>2021-04-10T11:08:32Z</time>
      </trkpt>
      <trkpt lat="45.15582" lon="5.87512">
        <ele>1039.8</ele>
        <time>2021-04-10T11:08:33Z</time>
      </trkpt>
      <trkpt lat="45.15581" lon="5.87508">
        <ele>1039.4</ele>
        <time>2021-04-10T11:08:34Z</time>
      </trkpt>
      <trkpt lat="45.1558" lon="5.87503">
        <ele>1039.4</ele>
        <time>2021-04-10T11:08:35Z</time>
      </trkpt>
      <trkpt lat="45.1558" lon="5.87499">
        <ele>1039</ele>
        <time>2021-04-10T11:08:36Z</time>
      </trkpt>
      <trkpt lat="45.15578" lon="5.87493">
        <ele>1038.8</ele>
        <time>2021-04-10T11:08:37Z</time>
      </trkpt>
      <trkpt lat="45.15576" lon="5.87489">
        <ele>1038.6</ele>
        <time>2021-04-10T11:08:38Z</time>
      </trkpt>
      <trkpt lat="45.15573" lon="5.87485">
        <ele>1038.6</ele>
        <time>2021-04-10T11:08:39Z</time>
      </trkpt>
      <trkpt lat="45.15571" lon="5.87482">
        <ele>1038.6</ele>
        <time>2021-04-10T11:08:40Z</time>
      </trkpt>
      <trkpt lat="45.15571" lon="5.87482">
        <ele>1038.4</ele>
        <time>2021-04-10T11:08:41Z</time>
      </trkpt>
      <trkpt lat="45.15571" lon="5.87482">
        <ele>1038.6</ele>
        <time>2021-04-10T11:08:42Z</time>
      </trkpt>
      <trkpt lat="45.15571" lon="5.87482">
        <ele>1038.4</ele>
        <time>2021-04-10T11:08:43Z</time>
      </trkpt>
      <trkpt lat="45.1557" lon="5.8748">
        <ele>1038.6</ele>
        <time>2021-04-10T11:08:44Z</time>
      </trkpt>
      <trkpt lat="45.15569" lon="5.87478">
        <ele>1038.6</ele>
        <time>2021-04-10T11:08:45Z</time>
      </trkpt>
      <trkpt lat="45.15568" lon="5.87476">
        <ele>1039</ele>
        <time>2021-04-10T11:08:46Z</time>
      </trkpt>
      <trkpt lat="45.15566" lon="5.87474">
        <ele>1039.2</ele>
        <time>2021-04-10T11:08:47Z</time>
      </trkpt>
      <trkpt lat="45.15565" lon="5.87472">
        <ele>1039.2</ele>
        <time>2021-04-10T11:08:48Z</time>
      </trkpt>
      <trkpt lat="45.15562" lon="5.87459">
        <ele>1039.2</ele>
        <time>2021-04-10T11:08:49Z</time>
      </trkpt>
      <trkpt lat="45.15562" lon="5.87459">
        <ele>1039.4</ele>
        <time>2021-04-10T11:08:50Z</time>
      </trkpt>
      <trkpt lat="45.15562" lon="5.87459">
        <ele>1039.4</ele>
        <time>2021-04-10T11:08:51Z</time>
      </trkpt>
      <trkpt lat="45.15562" lon="5.87459">
        <ele>1039.8</ele>
        <time>2021-04-10T11:08:52Z</time>
      </trkpt>
      <trkpt lat="45.15561" lon="5.87458">
        <ele>1039.8</ele>
        <time>2021-04-10T11:08:53Z</time>
      </trkpt>
      <trkpt lat="45.1556" lon="5.87457">
        <ele>1039.8</ele>
        <time>2021-04-10T11:08:54Z</time>
      </trkpt>
      <trkpt lat="45.1556" lon="5.87456">
        <ele>1040</ele>
        <time>2021-04-10T11:08:55Z</time>
      </trkpt>
      <trkpt lat="45.15559" lon="5.87455">
        <ele>1040.2</ele>
        <time>2021-04-10T11:08:56Z</time>
      </trkpt>
      <trkpt lat="45.15559" lon="5.87454">
        <ele>1040.4</ele>
        <time>2021-04-10T11:08:57Z</time>
      </trkpt>
      <trkpt lat="45.15558" lon="5.87453">
        <ele>1040.6</ele>
        <time>2021-04-10T11:08:58Z</time>
      </trkpt>
      <trkpt lat="45.15558" lon="5.87452">
        <ele>1040.6</ele>
        <time>2021-04-10T11:08:59Z</time>
      </trkpt>
      <trkpt lat="45.15557" lon="5.87451">
        <ele>1040.8</ele>
        <time>2021-04-10T11:09:00Z</time>
      </trkpt>
      <trkpt lat="45.15556" lon="5.8745">
        <ele>1040.8</ele>
        <time>2021-04-10T11:09:01Z</time>
      </trkpt>
      <trkpt lat="45.15556" lon="5.87449">
        <ele>1041</ele>
        <time>2021-04-10T11:09:02Z</time>
      </trkpt>
      <trkpt lat="45.15555" lon="5.87448">
        <ele>1041.2</ele>
        <time>2021-04-10T11:09:03Z</time>
      </trkpt>
      <trkpt lat="45.15554" lon="5.87447">
        <ele>1041.4</ele>
        <time>2021-04-10T11:09:04Z</time>
      </trkpt>
      <trkpt lat="45.15553" lon="5.87447">
        <ele>1041.6</ele>
        <time>2021-04-10T11:09:05Z</time>
      </trkpt>
      <trkpt lat="45.15552" lon="5.87446">
        <ele>1041.8</ele>
        <time>2021-04-10T11:09:06Z</time>
      </trkpt>
      <trkpt lat="45.15551" lon="5.87445">
        <ele>1041.8</ele>
        <time>2021-04-10T11:09:07Z</time>
      </trkpt>
      <trkpt lat="45.15551" lon="5.87444">
        <ele>1042.2</ele>
        <time>2021-04-10T11:09:08Z</time>
      </trkpt>
      <trkpt lat="45.1555" lon="5.87443">
        <ele>1042.4</ele>
        <time>2021-04-10T11:09:09Z</time>
      </trkpt>
      <trkpt lat="45.15549" lon="5.87443">
        <ele>1042.6</ele>
        <time>2021-04-10T11:09:10Z</time>
      </trkpt>
      <trkpt lat="45.15548" lon="5.87442">
        <ele>1042.8</ele>
        <time>2021-04-10T11:09:11Z</time>
      </trkpt>
      <trkpt lat="45.15547" lon="5.87441">
        <ele>1043</ele>
        <time>2021-04-10T11:09:12Z</time>
      </trkpt>
      <trkpt lat="45.15546" lon="5.87441">
        <ele>1043.2</ele>
        <time>2021-04-10T11:09:13Z</time>
      </trkpt>
      <trkpt lat="45.15544" lon="5.8744">
        <ele>1043.4</ele>
        <time>2021-04-10T11:09:14Z</time>
      </trkpt>
      <trkpt lat="45.15543" lon="5.8744">
        <ele>1043.6</ele>
        <time>2021-04-10T11:09:15Z</time>
      </trkpt>
      <trkpt lat="45.15541" lon="5.8744">
        <ele>1043.6</ele>
        <time>2021-04-10T11:09:16Z</time>
      </trkpt>
      <trkpt lat="45.1554" lon="5.87439">
        <ele>1043.8</ele>
        <time>2021-04-10T11:09:17Z</time>
      </trkpt>
      <trkpt lat="45.15539" lon="5.87439">
        <ele>1044</ele>
        <time>2021-04-10T11:09:18Z</time>
      </trkpt>
      <trkpt lat="45.15537" lon="5.87439">
        <ele>1044.2</ele>
        <time>2021-04-10T11:09:19Z</time>
      </trkpt>
      <trkpt lat="45.15536" lon="5.87438">
        <ele>1044.2</ele>
        <time>2021-04-10T11:09:20Z</time>
      </trkpt>
      <trkpt lat="45.15536" lon="5.87437">
        <ele>1044.4</ele>
        <time>2021-04-10T11:09:21Z</time>
      </trkpt>
      <trkpt lat="45.15535" lon="5.87436">
        <ele>1044.8</ele>
        <time>2021-04-10T11:09:22Z</time>
      </trkpt>
      <trkpt lat="45.15534" lon="5.87435">
        <ele>1045</ele>
        <time>2021-04-10T11:09:23Z</time>
      </trkpt>
      <trkpt lat="45.15533" lon="5.87434">
        <ele>1045.4</ele>
        <time>2021-04-10T11:09:24Z</time>
      </trkpt>
      <trkpt lat="45.15532" lon="5.87433">
        <ele>1045.6</ele>
        <time>2021-04-10T11:09:25Z</time>
      </trkpt>
      <trkpt lat="45.15531" lon="5.87433">
        <ele>1046</ele>
        <time>2021-04-10T11:09:26Z</time>
      </trkpt>
      <trkpt lat="45.15531" lon="5.87432">
        <ele>1046.2</ele>
        <time>2021-04-10T11:09:27Z</time>
      </trkpt>
      <trkpt lat="45.1553" lon="5.87431">
        <ele>1046.4</ele>
        <time>2021-04-10T11:09:28Z</time>
      </trkpt>
      <trkpt lat="45.15529" lon="5.8743">
        <ele>1046.6</ele>
        <time>2021-04-10T11:09:29Z</time>
      </trkpt>
      <trkpt lat="45.15528" lon="5.87429">
        <ele>1046.8</ele>
        <time>2021-04-10T11:09:30Z</time>
      </trkpt>
      <trkpt lat="45.15528" lon="5.87427">
        <ele>1047</ele>
        <time>2021-04-10T11:09:31Z</time>
      </trkpt>
      <trkpt lat="45.15527" lon="5.87426">
        <ele>1047.2</ele>
        <time>2021-04-10T11:09:32Z</time>
      </trkpt>
      <trkpt lat="45.15527" lon="5.87425">
        <ele>1047.2</ele>
        <time>2021-04-10T11:09:33Z</time>
      </trkpt>
      <trkpt lat="45.15526" lon="5.87423">
        <ele>1047.4</ele>
        <time>2021-04-10T11:09:34Z</time>
      </trkpt>
      <trkpt lat="45.15526" lon="5.87422">
        <ele>1047.6</ele>
        <time>2021-04-10T11:09:35Z</time>
      </trkpt>
      <trkpt lat="45.15525" lon="5.87421">
        <ele>1047.8</ele>
        <time>2021-04-10T11:09:36Z</time>
      </trkpt>
      <trkpt lat="45.15524" lon="5.8742">
        <ele>1047.8</ele>
        <time>2021-04-10T11:09:37Z</time>
      </trkpt>
      <trkpt lat="45.15524" lon="5.87418">
        <ele>1048</ele>
        <time>2021-04-10T11:09:38Z</time>
      </trkpt>
      <trkpt lat="45.15523" lon="5.87417">
        <ele>1048.2</ele>
        <time>2021-04-10T11:09:39Z</time>
      </trkpt>
      <trkpt lat="45.15522" lon="5.87416">
        <ele>1048.2</ele>
        <time>2021-04-10T11:09:40Z</time>
      </trkpt>
      <trkpt lat="45.15521" lon="5.87415">
        <ele>1048.4</ele>
        <time>2021-04-10T11:09:41Z</time>
      </trkpt>
      <trkpt lat="45.1552" lon="5.87413">
        <ele>1048.8</ele>
        <time>2021-04-10T11:09:42Z</time>
      </trkpt>
      <trkpt lat="45.1552" lon="5.87412">
        <ele>1049.2</ele>
        <time>2021-04-10T11:09:43Z</time>
      </trkpt>
      <trkpt lat="45.15519" lon="5.87411">
        <ele>1049.2</ele>
        <time>2021-04-10T11:09:44Z</time>
      </trkpt>
      <trkpt lat="45.15518" lon="5.8741">
        <ele>1049.6</ele>
        <time>2021-04-10T11:09:45Z</time>
      </trkpt>
      <trkpt lat="45.15517" lon="5.87409">
        <ele>1049.8</ele>
        <time>2021-04-10T11:09:46Z</time>
      </trkpt>
      <trkpt lat="45.15516" lon="5.87407">
        <ele>1050</ele>
        <time>2021-04-10T11:09:47Z</time>
      </trkpt>
      <trkpt lat="45.15515" lon="5.87405">
        <ele>1050.2</ele>
        <time>2021-04-10T11:09:48Z</time>
      </trkpt>
      <trkpt lat="45.15514" lon="5.87403">
        <ele>1050.4</ele>
        <time>2021-04-10T11:09:49Z</time>
      </trkpt>
      <trkpt lat="45.15513" lon="5.87401">
        <ele>1050.4</ele>
        <time>2021-04-10T11:09:50Z</time>
      </trkpt>
      <trkpt lat="45.15512" lon="5.87399">
        <ele>1050.8</ele>
        <time>2021-04-10T11:09:51Z</time>
      </trkpt>
      <trkpt lat="45.15511" lon="5.87397">
        <ele>1051</ele>
        <time>2021-04-10T11:09:52Z</time>
      </trkpt>
      <trkpt lat="45.15511" lon="5.87395">
        <ele>1051</ele>
        <time>2021-04-10T11:09:53Z</time>
      </trkpt>
      <trkpt lat="45.15511" lon="5.87394">
        <ele>1051.4</ele>
        <time>2021-04-10T11:09:54Z</time>
      </trkpt>
      <trkpt lat="45.1551" lon="5.87392">
        <ele>1051.4</ele>
        <time>2021-04-10T11:09:55Z</time>
      </trkpt>
      <trkpt lat="45.1551" lon="5.8739">
        <ele>1051.6</ele>
        <time>2021-04-10T11:09:56Z</time>
      </trkpt>
      <trkpt lat="45.1551" lon="5.87388">
        <ele>1051.8</ele>
        <time>2021-04-10T11:09:57Z</time>
      </trkpt>
      <trkpt lat="45.1551" lon="5.87386">
        <ele>1052</ele>
        <time>2021-04-10T11:09:58Z</time>
      </trkpt>
      <trkpt lat="45.15509" lon="5.87384">
        <ele>1052.4</ele>
        <time>2021-04-10T11:09:59Z</time>
      </trkpt>
      <trkpt lat="45.15509" lon="5.87382">
        <ele>1052.8</ele>
        <time>2021-04-10T11:10:01Z</time>
      </trkpt>
      <trkpt lat="45.15509" lon="5.8738">
        <ele>1053</ele>
        <time>2021-04-10T11:10:02Z</time>
      </trkpt>
      <trkpt lat="45.15508" lon="5.87379">
        <ele>1053.2</ele>
        <time>2021-04-10T11:10:03Z</time>
      </trkpt>
      <trkpt lat="45.15508" lon="5.87377">
        <ele>1053.4</ele>
        <time>2021-04-10T11:10:04Z</time>
      </trkpt>
      <trkpt lat="45.15508" lon="5.87376">
        <ele>1053.6</ele>
        <time>2021-04-10T11:10:05Z</time>
      </trkpt>
      <trkpt lat="45.15508" lon="5.87374">
        <ele>1053.6</ele>
        <time>2021-04-10T11:10:06Z</time>
      </trkpt>
      <trkpt lat="45.15507" lon="5.87372">
        <ele>1054</ele>
        <time>2021-04-10T11:10:07Z</time>
      </trkpt>
      <trkpt lat="45.15507" lon="5.87371">
        <ele>1053.8</ele>
        <time>2021-04-10T11:10:08Z</time>
      </trkpt>
      <trkpt lat="45.15506" lon="5.8737">
        <ele>1054.2</ele>
        <time>2021-04-10T11:10:09Z</time>
      </trkpt>
      <trkpt lat="45.15506" lon="5.87368">
        <ele>1054.6</ele>
        <time>2021-04-10T11:10:10Z</time>
      </trkpt>
      <trkpt lat="45.15505" lon="5.87367">
        <ele>1055</ele>
        <time>2021-04-10T11:10:11Z</time>
      </trkpt>
      <trkpt lat="45.15505" lon="5.87366">
        <ele>1055.2</ele>
        <time>2021-04-10T11:10:12Z</time>
      </trkpt>
      <trkpt lat="45.15504" lon="5.87365">
        <ele>1055.4</ele>
        <time>2021-04-10T11:10:13Z</time>
      </trkpt>
      <trkpt lat="45.15504" lon="5.87364">
        <ele>1055.6</ele>
        <time>2021-04-10T11:10:14Z</time>
      </trkpt>
      <trkpt lat="45.15503" lon="5.87363">
        <ele>1055.8</ele>
        <time>2021-04-10T11:10:15Z</time>
      </trkpt>
      <trkpt lat="45.15503" lon="5.87362">
        <ele>1056</ele>
        <time>2021-04-10T11:10:16Z</time>
      </trkpt>
      <trkpt lat="45.15502" lon="5.8736">
        <ele>1056.2</ele>
        <time>2021-04-10T11:10:17Z</time>
      </trkpt>
      <trkpt lat="45.15502" lon="5.87359">
        <ele>1056.2</ele>
        <time>2021-04-10T11:10:18Z</time>
      </trkpt>
      <trkpt lat="45.15501" lon="5.87358">
        <ele>1056.6</ele>
        <time>2021-04-10T11:10:19Z</time>
      </trkpt>
      <trkpt lat="45.15501" lon="5.87356">
        <ele>1057</ele>
        <time>2021-04-10T11:10:20Z</time>
      </trkpt>
      <trkpt lat="45.15501" lon="5.87355">
        <ele>1057.2</ele>
        <time>2021-04-10T11:10:21Z</time>
      </trkpt>
      <trkpt lat="45.15501" lon="5.87354">
        <ele>1057.4</ele>
        <time>2021-04-10T11:10:22Z</time>
      </trkpt>
      <trkpt lat="45.155" lon="5.87352">
        <ele>1057.4</ele>
        <time>2021-04-10T11:10:23Z</time>
      </trkpt>
      <trkpt lat="45.155" lon="5.87351">
        <ele>1057.6</ele>
        <time>2021-04-10T11:10:24Z</time>
      </trkpt>
      <trkpt lat="45.155" lon="5.87349">
        <ele>1057.6</ele>
        <time>2021-04-10T11:10:25Z</time>
      </trkpt>
      <trkpt lat="45.15499" lon="5.87348">
        <ele>1057.6</ele>
        <time>2021-04-10T11:10:26Z</time>
      </trkpt>
      <trkpt lat="45.15499" lon="5.87346">
        <ele>1057.8</ele>
        <time>2021-04-10T11:10:27Z</time>
      </trkpt>
      <trkpt lat="45.15498" lon="5.87343">
        <ele>1058</ele>
        <time>2021-04-10T11:10:28Z</time>
      </trkpt>
      <trkpt lat="45.15496" lon="5.87339">
        <ele>1058</ele>
        <time>2021-04-10T11:10:29Z</time>
      </trkpt>
      <trkpt lat="45.15495" lon="5.87335">
        <ele>1058.2</ele>
        <time>2021-04-10T11:10:30Z</time>
      </trkpt>
      <trkpt lat="45.15493" lon="5.87331">
        <ele>1058.2</ele>
        <time>2021-04-10T11:10:31Z</time>
      </trkpt>
      <trkpt lat="45.15491" lon="5.87328">
        <ele>1058.4</ele>
        <time>2021-04-10T11:10:32Z</time>
      </trkpt>
      <trkpt lat="45.15488" lon="5.8732">
        <ele>1058.4</ele>
        <time>2021-04-10T11:10:33Z</time>
      </trkpt>
      <trkpt lat="45.15487" lon="5.87318">
        <ele>1058.6</ele>
        <time>2021-04-10T11:10:34Z</time>
      </trkpt>
      <trkpt lat="45.15486" lon="5.87315">
        <ele>1058.4</ele>
        <time>2021-04-10T11:10:35Z</time>
      </trkpt>
      <trkpt lat="45.15486" lon="5.87312">
        <ele>1058.4</ele>
        <time>2021-04-10T11:10:36Z</time>
      </trkpt>
      <trkpt lat="45.15485" lon="5.8731">
        <ele>1058.4</ele>
        <time>2021-04-10T11:10:37Z</time>
      </trkpt>
      <trkpt lat="45.15485" lon="5.8731">
        <ele>1058.6</ele>
        <time>2021-04-10T11:10:38Z</time>
      </trkpt>
      <trkpt lat="45.15485" lon="5.8731">
        <ele>1058.2</ele>
        <time>2021-04-10T11:10:39Z</time>
      </trkpt>
      <trkpt lat="45.15484" lon="5.87307">
        <ele>1058.4</ele>
        <time>2021-04-10T11:10:40Z</time>
      </trkpt>
      <trkpt lat="45.15484" lon="5.87305">
        <ele>1058.2</ele>
        <time>2021-04-10T11:10:41Z</time>
      </trkpt>
      <trkpt lat="45.15484" lon="5.87302">
        <ele>1058.4</ele>
        <time>2021-04-10T11:10:42Z</time>
      </trkpt>
      <trkpt lat="45.15483" lon="5.87299">
        <ele>1058.2</ele>
        <time>2021-04-10T11:10:43Z</time>
      </trkpt>
      <trkpt lat="45.15483" lon="5.87297">
        <ele>1058.2</ele>
        <time>2021-04-10T11:10:44Z</time>
      </trkpt>
      <trkpt lat="45.15483" lon="5.87293">
        <ele>1058</ele>
        <time>2021-04-10T11:10:45Z</time>
      </trkpt>
      <trkpt lat="45.15482" lon="5.87288">
        <ele>1058</ele>
        <time>2021-04-10T11:10:46Z</time>
      </trkpt>
      <trkpt lat="45.15482" lon="5.87284">
        <ele>1058.2</ele>
        <time>2021-04-10T11:10:47Z</time>
      </trkpt>
      <trkpt lat="45.15481" lon="5.87279">
        <ele>1058.4</ele>
        <time>2021-04-10T11:10:48Z</time>
      </trkpt>
      <trkpt lat="45.15481" lon="5.87275">
        <ele>1058.6</ele>
        <time>2021-04-10T11:10:49Z</time>
      </trkpt>
      <trkpt lat="45.15481" lon="5.87268">
        <ele>1059</ele>
        <time>2021-04-10T11:10:50Z</time>
      </trkpt>
      <trkpt lat="45.1548" lon="5.87266">
        <ele>1059.2</ele>
        <time>2021-04-10T11:10:51Z</time>
      </trkpt>
      <trkpt lat="45.1548" lon="5.87264">
        <ele>1059.2</ele>
        <time>2021-04-10T11:10:52Z</time>
      </trkpt>
      <trkpt lat="45.1548" lon="5.87261">
        <ele>1059.4</ele>
        <time>2021-04-10T11:10:53Z</time>
      </trkpt>
      <trkpt lat="45.15479" lon="5.87254">
        <ele>1059.6</ele>
        <time>2021-04-10T11:10:54Z</time>
      </trkpt>
      <trkpt lat="45.15479" lon="5.87254">
        <ele>1059.6</ele>
        <time>2021-04-10T11:10:55Z</time>
      </trkpt>
      <trkpt lat="45.15479" lon="5.87254">
        <ele>1059.8</ele>
        <time>2021-04-10T11:10:56Z</time>
      </trkpt>
      <trkpt lat="45.15477" lon="5.8725">
        <ele>1059.8</ele>
        <time>2021-04-10T11:10:57Z</time>
      </trkpt>
      <trkpt lat="45.15476" lon="5.87246">
        <ele>1060</ele>
        <time>2021-04-10T11:10:58Z</time>
      </trkpt>
      <trkpt lat="45.15475" lon="5.87241">
        <ele>1059.8</ele>
        <time>2021-04-10T11:10:59Z</time>
      </trkpt>
      <trkpt lat="45.15474" lon="5.87237">
        <ele>1059.8</ele>
        <time>2021-04-10T11:11:00Z</time>
      </trkpt>
      <trkpt lat="45.15473" lon="5.87233">
        <ele>1059.6</ele>
        <time>2021-04-10T11:11:01Z</time>
      </trkpt>
      <trkpt lat="45.15472" lon="5.87226">
        <ele>1059.4</ele>
        <time>2021-04-10T11:11:02Z</time>
      </trkpt>
      <trkpt lat="45.15472" lon="5.87226">
        <ele>1059.2</ele>
        <time>2021-04-10T11:11:03Z</time>
      </trkpt>
      <trkpt lat="45.15472" lon="5.87226">
        <ele>1059.2</ele>
        <time>2021-04-10T11:11:04Z</time>
      </trkpt>
      <trkpt lat="45.15472" lon="5.87226">
        <ele>1058.8</ele>
        <time>2021-04-10T11:11:05Z</time>
      </trkpt>
      <trkpt lat="45.15471" lon="5.87223">
        <ele>1058.6</ele>
        <time>2021-04-10T11:11:06Z</time>
      </trkpt>
      <trkpt lat="45.15471" lon="5.87219">
        <ele>1058.6</ele>
        <time>2021-04-10T11:11:07Z</time>
      </trkpt>
      <trkpt lat="45.1547" lon="5.87216">
        <ele>1058.6</ele>
        <time>2021-04-10T11:11:08Z</time>
      </trkpt>
      <trkpt lat="45.1547" lon="5.87213">
        <ele>1058.6</ele>
        <time>2021-04-10T11:11:09Z</time>
      </trkpt>
      <trkpt lat="45.15469" lon="5.8721">
        <ele>1058.6</ele>
        <time>2021-04-10T11:11:10Z</time>
      </trkpt>
      <trkpt lat="45.15469" lon="5.87208">
        <ele>1058.8</ele>
        <time>2021-04-10T11:11:11Z</time>
      </trkpt>
      <trkpt lat="45.15469" lon="5.87205">
        <ele>1058.8</ele>
        <time>2021-04-10T11:11:12Z</time>
      </trkpt>
      <trkpt lat="45.15469" lon="5.87203">
        <ele>1059</ele>
        <time>2021-04-10T11:11:13Z</time>
      </trkpt>
      <trkpt lat="45.15469" lon="5.87201">
        <ele>1059</ele>
        <time>2021-04-10T11:11:14Z</time>
      </trkpt>
      <trkpt lat="45.15469" lon="5.87199">
        <ele>1059.2</ele>
        <time>2021-04-10T11:11:15Z</time>
      </trkpt>
      <trkpt lat="45.15469" lon="5.87197">
        <ele>1059.2</ele>
        <time>2021-04-10T11:11:16Z</time>
      </trkpt>
      <trkpt lat="45.15469" lon="5.87195">
        <ele>1059.6</ele>
        <time>2021-04-10T11:11:17Z</time>
      </trkpt>
      <trkpt lat="45.15468" lon="5.87193">
        <ele>1060</ele>
        <time>2021-04-10T11:11:18Z</time>
      </trkpt>
      <trkpt lat="45.15467" lon="5.87191">
        <ele>1060</ele>
        <time>2021-04-10T11:11:19Z</time>
      </trkpt>
      <trkpt lat="45.15466" lon="5.87189">
        <ele>1060.2</ele>
        <time>2021-04-10T11:11:20Z</time>
      </trkpt>
      <trkpt lat="45.15466" lon="5.87187">
        <ele>1060.2</ele>
        <time>2021-04-10T11:11:21Z</time>
      </trkpt>
      <trkpt lat="45.15465" lon="5.87186">
        <ele>1060.4</ele>
        <time>2021-04-10T11:11:22Z</time>
      </trkpt>
      <trkpt lat="45.15464" lon="5.87184">
        <ele>1060.6</ele>
        <time>2021-04-10T11:11:23Z</time>
      </trkpt>
      <trkpt lat="45.15463" lon="5.87182">
        <ele>1060.8</ele>
        <time>2021-04-10T11:11:24Z</time>
      </trkpt>
      <trkpt lat="45.15463" lon="5.8718">
        <ele>1061</ele>
        <time>2021-04-10T11:11:25Z</time>
      </trkpt>
      <trkpt lat="45.15463" lon="5.87178">
        <ele>1061.2</ele>
        <time>2021-04-10T11:11:26Z</time>
      </trkpt>
      <trkpt lat="45.15463" lon="5.87177">
        <ele>1061.4</ele>
        <time>2021-04-10T11:11:27Z</time>
      </trkpt>
      <trkpt lat="45.15463" lon="5.87175">
        <ele>1061.4</ele>
        <time>2021-04-10T11:11:28Z</time>
      </trkpt>
      <trkpt lat="45.15462" lon="5.87173">
        <ele>1061.8</ele>
        <time>2021-04-10T11:11:29Z</time>
      </trkpt>
      <trkpt lat="45.15462" lon="5.87171">
        <ele>1061.8</ele>
        <time>2021-04-10T11:11:30Z</time>
      </trkpt>
      <trkpt lat="45.15462" lon="5.87169">
        <ele>1062.2</ele>
        <time>2021-04-10T11:11:31Z</time>
      </trkpt>
      <trkpt lat="45.15462" lon="5.87167">
        <ele>1062.4</ele>
        <time>2021-04-10T11:11:32Z</time>
      </trkpt>
      <trkpt lat="45.15462" lon="5.87166">
        <ele>1062.8</ele>
        <time>2021-04-10T11:11:33Z</time>
      </trkpt>
      <trkpt lat="45.15462" lon="5.87165">
        <ele>1063.2</ele>
        <time>2021-04-10T11:11:34Z</time>
      </trkpt>
      <trkpt lat="45.15463" lon="5.87163">
        <ele>1063.4</ele>
        <time>2021-04-10T11:11:35Z</time>
      </trkpt>
      <trkpt lat="45.15463" lon="5.87162">
        <ele>1063.8</ele>
        <time>2021-04-10T11:11:36Z</time>
      </trkpt>
      <trkpt lat="45.15463" lon="5.87161">
        <ele>1064</ele>
        <time>2021-04-10T11:11:37Z</time>
      </trkpt>
      <trkpt lat="45.15463" lon="5.87159">
        <ele>1064.4</ele>
        <time>2021-04-10T11:11:38Z</time>
      </trkpt>
      <trkpt lat="45.15464" lon="5.87158">
        <ele>1064.6</ele>
        <time>2021-04-10T11:11:39Z</time>
      </trkpt>
      <trkpt lat="45.15464" lon="5.87157">
        <ele>1065</ele>
        <time>2021-04-10T11:11:40Z</time>
      </trkpt>
      <trkpt lat="45.15464" lon="5.87155">
        <ele>1065.2</ele>
        <time>2021-04-10T11:11:41Z</time>
      </trkpt>
      <trkpt lat="45.15464" lon="5.87154">
        <ele>1065.2</ele>
        <time>2021-04-10T11:11:42Z</time>
      </trkpt>
      <trkpt lat="45.15464" lon="5.87151">
        <ele>1065.2</ele>
        <time>2021-04-10T11:11:43Z</time>
      </trkpt>
      <trkpt lat="45.15464" lon="5.87148">
        <ele>1065.4</ele>
        <time>2021-04-10T11:11:44Z</time>
      </trkpt>
      <trkpt lat="45.15463" lon="5.87145">
        <ele>1065.6</ele>
        <time>2021-04-10T11:11:45Z</time>
      </trkpt>
      <trkpt lat="45.15463" lon="5.87142">
        <ele>1065.2</ele>
        <time>2021-04-10T11:11:46Z</time>
      </trkpt>
      <trkpt lat="45.15463" lon="5.87139">
        <ele>1065.4</ele>
        <time>2021-04-10T11:11:47Z</time>
      </trkpt>
      <trkpt lat="45.15463" lon="5.87136">
        <ele>1065.4</ele>
        <time>2021-04-10T11:11:48Z</time>
      </trkpt>
      <trkpt lat="45.15463" lon="5.87135">
        <ele>1065.4</ele>
        <time>2021-04-10T11:11:49Z</time>
      </trkpt>
      <trkpt lat="45.15463" lon="5.87133">
        <ele>1065.6</ele>
        <time>2021-04-10T11:11:50Z</time>
      </trkpt>
      <trkpt lat="45.15464" lon="5.87132">
        <ele>1065.8</ele>
        <time>2021-04-10T11:11:51Z</time>
      </trkpt>
      <trkpt lat="45.15464" lon="5.8713">
        <ele>1066.2</ele>
        <time>2021-04-10T11:11:52Z</time>
      </trkpt>
      <trkpt lat="45.15464" lon="5.87129">
        <ele>1066.2</ele>
        <time>2021-04-10T11:11:53Z</time>
      </trkpt>
      <trkpt lat="45.15464" lon="5.87127">
        <ele>1066.2</ele>
        <time>2021-04-10T11:11:54Z</time>
      </trkpt>
      <trkpt lat="45.15464" lon="5.87126">
        <ele>1066.4</ele>
        <time>2021-04-10T11:11:55Z</time>
      </trkpt>
      <trkpt lat="45.15464" lon="5.87125">
        <ele>1066.2</ele>
        <time>2021-04-10T11:11:56Z</time>
      </trkpt>
      <trkpt lat="45.15465" lon="5.87123">
        <ele>1066.2</ele>
        <time>2021-04-10T11:11:57Z</time>
      </trkpt>
      <trkpt lat="45.15465" lon="5.87122">
        <ele>1066.4</ele>
        <time>2021-04-10T11:11:58Z</time>
      </trkpt>
      <trkpt lat="45.15465" lon="5.8712">
        <ele>1066.4</ele>
        <time>2021-04-10T11:11:59Z</time>
      </trkpt>
      <trkpt lat="45.15465" lon="5.87119">
        <ele>1066.6</ele>
        <time>2021-04-10T11:12:00Z</time>
      </trkpt>
      <trkpt lat="45.15465" lon="5.87118">
        <ele>1066.8</ele>
        <time>2021-04-10T11:12:01Z</time>
      </trkpt>
      <trkpt lat="45.15465" lon="5.87116">
        <ele>1067</ele>
        <time>2021-04-10T11:12:02Z</time>
      </trkpt>
      <trkpt lat="45.15466" lon="5.87115">
        <ele>1067.4</ele>
        <time>2021-04-10T11:12:03Z</time>
      </trkpt>
      <trkpt lat="45.15466" lon="5.87113">
        <ele>1067.4</ele>
        <time>2021-04-10T11:12:04Z</time>
      </trkpt>
      <trkpt lat="45.15466" lon="5.87112">
        <ele>1067.4</ele>
        <time>2021-04-10T11:12:05Z</time>
      </trkpt>
      <trkpt lat="45.15466" lon="5.87111">
        <ele>1067.4</ele>
        <time>2021-04-10T11:12:06Z</time>
      </trkpt>
      <trkpt lat="45.15466" lon="5.87109">
        <ele>1067.6</ele>
        <time>2021-04-10T11:12:07Z</time>
      </trkpt>
      <trkpt lat="45.15466" lon="5.87108">
        <ele>1067.6</ele>
        <time>2021-04-10T11:12:08Z</time>
      </trkpt>
      <trkpt lat="45.15467" lon="5.87106">
        <ele>1068</ele>
        <time>2021-04-10T11:12:09Z</time>
      </trkpt>
      <trkpt lat="45.15467" lon="5.87105">
        <ele>1068</ele>
        <time>2021-04-10T11:12:10Z</time>
      </trkpt>
      <trkpt lat="45.15467" lon="5.87103">
        <ele>1068</ele>
        <time>2021-04-10T11:12:11Z</time>
      </trkpt>
      <trkpt lat="45.15467" lon="5.87102">
        <ele>1067.8</ele>
        <time>2021-04-10T11:12:12Z</time>
      </trkpt>
      <trkpt lat="45.15467" lon="5.87101">
        <ele>1067.8</ele>
        <time>2021-04-10T11:12:13Z</time>
      </trkpt>
      <trkpt lat="45.15467" lon="5.87099">
        <ele>1067.8</ele>
        <time>2021-04-10T11:12:14Z</time>
      </trkpt>
      <trkpt lat="45.15468" lon="5.87098">
        <ele>1068</ele>
        <time>2021-04-10T11:12:15Z</time>
      </trkpt>
      <trkpt lat="45.15468" lon="5.87096">
        <ele>1068</ele>
        <time>2021-04-10T11:12:16Z</time>
      </trkpt>
      <trkpt lat="45.15468" lon="5.87095">
        <ele>1067.8</ele>
        <time>2021-04-10T11:12:17Z</time>
      </trkpt>
      <trkpt lat="45.15468" lon="5.87094">
        <ele>1067.8</ele>
        <time>2021-04-10T11:12:18Z</time>
      </trkpt>
      <trkpt lat="45.15468" lon="5.87092">
        <ele>1067.8</ele>
        <time>2021-04-10T11:12:19Z</time>
      </trkpt>
      <trkpt lat="45.15468" lon="5.87091">
        <ele>1067.4</ele>
        <time>2021-04-10T11:12:20Z</time>
      </trkpt>
      <trkpt lat="45.15469" lon="5.87089">
        <ele>1067.2</ele>
        <time>2021-04-10T11:12:21Z</time>
      </trkpt>
      <trkpt lat="45.15469" lon="5.87088">
        <ele>1067.2</ele>
        <time>2021-04-10T11:12:22Z</time>
      </trkpt>
      <trkpt lat="45.15469" lon="5.87088">
        <ele>1067</ele>
        <time>2021-04-10T11:12:23Z</time>
      </trkpt>
      <trkpt lat="45.15469" lon="5.87088">
        <ele>1067</ele>
        <time>2021-04-10T11:12:24Z</time>
      </trkpt>
      <trkpt lat="45.15469" lon="5.87088">
        <ele>1067.2</ele>
        <time>2021-04-10T11:12:25Z</time>
      </trkpt>
      <trkpt lat="45.15469" lon="5.87088">
        <ele>1067</ele>
        <time>2021-04-10T11:12:26Z</time>
      </trkpt>
      <trkpt lat="45.15469" lon="5.87085">
        <ele>1067.4</ele>
        <time>2021-04-10T11:12:27Z</time>
      </trkpt>
      <trkpt lat="45.1547" lon="5.87083">
        <ele>1067.4</ele>
        <time>2021-04-10T11:12:28Z</time>
      </trkpt>
      <trkpt lat="45.15471" lon="5.8708">
        <ele>1067.8</ele>
        <time>2021-04-10T11:12:29Z</time>
      </trkpt>
      <trkpt lat="45.15472" lon="5.87077">
        <ele>1067.6</ele>
        <time>2021-04-10T11:12:30Z</time>
      </trkpt>
      <trkpt lat="45.15472" lon="5.87075">
        <ele>1067.8</ele>
        <time>2021-04-10T11:12:31Z</time>
      </trkpt>
      <trkpt lat="45.15473" lon="5.87072">
        <ele>1067.8</ele>
        <time>2021-04-10T11:12:32Z</time>
      </trkpt>
      <trkpt lat="45.15473" lon="5.8707">
        <ele>1068.2</ele>
        <time>2021-04-10T11:12:33Z</time>
      </trkpt>
      <trkpt lat="45.15474" lon="5.87068">
        <ele>1068.2</ele>
        <time>2021-04-10T11:12:34Z</time>
      </trkpt>
      <trkpt lat="45.15475" lon="5.87066">
        <ele>1067.8</ele>
        <time>2021-04-10T11:12:35Z</time>
      </trkpt>
      <trkpt lat="45.15475" lon="5.87064">
        <ele>1067.8</ele>
        <time>2021-04-10T11:12:36Z</time>
      </trkpt>
      <trkpt lat="45.15476" lon="5.87062">
        <ele>1067.4</ele>
        <time>2021-04-10T11:12:37Z</time>
      </trkpt>
      <trkpt lat="45.15476" lon="5.87057">
        <ele>1067</ele>
        <time>2021-04-10T11:12:38Z</time>
      </trkpt>
      <trkpt lat="45.15477" lon="5.87052">
        <ele>1066.4</ele>
        <time>2021-04-10T11:12:39Z</time>
      </trkpt>
      <trkpt lat="45.15477" lon="5.87047">
        <ele>1066</ele>
        <time>2021-04-10T11:12:40Z</time>
      </trkpt>
      <trkpt lat="45.15478" lon="5.87042">
        <ele>1065.8</ele>
        <time>2021-04-10T11:12:41Z</time>
      </trkpt>
      <trkpt lat="45.15479" lon="5.87037">
        <ele>1065.4</ele>
        <time>2021-04-10T11:12:42Z</time>
      </trkpt>
      <trkpt lat="45.15479" lon="5.87029">
        <ele>1065.8</ele>
        <time>2021-04-10T11:12:43Z</time>
      </trkpt>
      <trkpt lat="45.15479" lon="5.87029">
        <ele>1065.6</ele>
        <time>2021-04-10T11:12:44Z</time>
      </trkpt>
      <trkpt lat="45.15479" lon="5.87029">
        <ele>1065.6</ele>
        <time>2021-04-10T11:12:45Z</time>
      </trkpt>
      <trkpt lat="45.15479" lon="5.87029">
        <ele>1065.4</ele>
        <time>2021-04-10T11:12:46Z</time>
      </trkpt>
      <trkpt lat="45.15479" lon="5.87025">
        <ele>1065.2</ele>
        <time>2021-04-10T11:12:47Z</time>
      </trkpt>
      <trkpt lat="45.15479" lon="5.8702">
        <ele>1065</ele>
        <time>2021-04-10T11:12:48Z</time>
      </trkpt>
      <trkpt lat="45.15479" lon="5.87016">
        <ele>1064.6</ele>
        <time>2021-04-10T11:12:49Z</time>
      </trkpt>
      <trkpt lat="45.15479" lon="5.87012">
        <ele>1064</ele>
        <time>2021-04-10T11:12:50Z</time>
      </trkpt>
      <trkpt lat="45.15478" lon="5.87007">
        <ele>1063.2</ele>
        <time>2021-04-10T11:12:51Z</time>
      </trkpt>
      <trkpt lat="45.15477" lon="5.87001">
        <ele>1062.6</ele>
        <time>2021-04-10T11:12:52Z</time>
      </trkpt>
      <trkpt lat="45.15477" lon="5.87001">
        <ele>1062</ele>
        <time>2021-04-10T11:12:53Z</time>
      </trkpt>
      <trkpt lat="45.15477" lon="5.87001">
        <ele>1062</ele>
        <time>2021-04-10T11:12:54Z</time>
      </trkpt>
      <trkpt lat="45.15477" lon="5.87001">
        <ele>1061.6</ele>
        <time>2021-04-10T11:12:55Z</time>
      </trkpt>
      <trkpt lat="45.15477" lon="5.87001">
        <ele>1061.8</ele>
        <time>2021-04-10T11:12:56Z</time>
      </trkpt>
      <trkpt lat="45.15477" lon="5.86998">
        <ele>1061.4</ele>
        <time>2021-04-10T11:12:57Z</time>
      </trkpt>
      <trkpt lat="45.15477" lon="5.86995">
        <ele>1061</ele>
        <time>2021-04-10T11:12:58Z</time>
      </trkpt>
      <trkpt lat="45.15477" lon="5.86991">
        <ele>1060.6</ele>
        <time>2021-04-10T11:12:59Z</time>
      </trkpt>
      <trkpt lat="45.15477" lon="5.86988">
        <ele>1060.2</ele>
        <time>2021-04-10T11:13:00Z</time>
      </trkpt>
      <trkpt lat="45.15476" lon="5.86985">
        <ele>1059.6</ele>
        <time>2021-04-10T11:13:01Z</time>
      </trkpt>
      <trkpt lat="45.15476" lon="5.86981">
        <ele>1059</ele>
        <time>2021-04-10T11:13:02Z</time>
      </trkpt>
      <trkpt lat="45.15473" lon="5.86977">
        <ele>1059</ele>
        <time>2021-04-10T11:13:03Z</time>
      </trkpt>
      <trkpt lat="45.15473" lon="5.86977">
        <ele>1058.4</ele>
        <time>2021-04-10T11:13:04Z</time>
      </trkpt>
      <trkpt lat="45.15473" lon="5.86977">
        <ele>1058.2</ele>
        <time>2021-04-10T11:13:05Z</time>
      </trkpt>
      <trkpt lat="45.15473" lon="5.86977">
        <ele>1057.8</ele>
        <time>2021-04-10T11:13:06Z</time>
      </trkpt>
      <trkpt lat="45.15471" lon="5.86973">
        <ele>1057.2</ele>
        <time>2021-04-10T11:13:07Z</time>
      </trkpt>
      <trkpt lat="45.1547" lon="5.86968">
        <ele>1057.4</ele>
        <time>2021-04-10T11:13:08Z</time>
      </trkpt>
      <trkpt lat="45.15469" lon="5.86963">
        <ele>1057</ele>
        <time>2021-04-10T11:13:09Z</time>
      </trkpt>
      <trkpt lat="45.15468" lon="5.86958">
        <ele>1056.8</ele>
        <time>2021-04-10T11:13:10Z</time>
      </trkpt>
      <trkpt lat="45.15467" lon="5.86954">
        <ele>1056.6</ele>
        <time>2021-04-10T11:13:11Z</time>
      </trkpt>
      <trkpt lat="45.15468" lon="5.86949">
        <ele>1056.4</ele>
        <time>2021-04-10T11:13:12Z</time>
      </trkpt>
      <trkpt lat="45.15469" lon="5.86945">
        <ele>1055.6</ele>
        <time>2021-04-10T11:13:13Z</time>
      </trkpt>
      <trkpt lat="45.1547" lon="5.8694">
        <ele>1054.8</ele>
        <time>2021-04-10T11:13:14Z</time>
      </trkpt>
      <trkpt lat="45.1547" lon="5.86938">
        <ele>1054.8</ele>
        <time>2021-04-10T11:13:15Z</time>
      </trkpt>
      <trkpt lat="45.1547" lon="5.86936">
        <ele>1054.2</ele>
        <time>2021-04-10T11:13:16Z</time>
      </trkpt>
      <trkpt lat="45.1547" lon="5.86933">
        <ele>1054.2</ele>
        <time>2021-04-10T11:13:17Z</time>
      </trkpt>
      <trkpt lat="45.1547" lon="5.86927">
        <ele>1053.6</ele>
        <time>2021-04-10T11:13:18Z</time>
      </trkpt>
      <trkpt lat="45.1547" lon="5.86925">
        <ele>1053.2</ele>
        <time>2021-04-10T11:13:19Z</time>
      </trkpt>
      <trkpt lat="45.15469" lon="5.86923">
        <ele>1052.6</ele>
        <time>2021-04-10T11:13:20Z</time>
      </trkpt>
      <trkpt lat="45.15468" lon="5.86921">
        <ele>1051.6</ele>
        <time>2021-04-10T11:13:21Z</time>
      </trkpt>
      <trkpt lat="45.15467" lon="5.86919">
        <ele>1051.4</ele>
        <time>2021-04-10T11:13:22Z</time>
      </trkpt>
      <trkpt lat="45.15463" lon="5.86911">
        <ele>1050.8</ele>
        <time>2021-04-10T11:13:23Z</time>
      </trkpt>
      <trkpt lat="45.15462" lon="5.86909">
        <ele>1050.8</ele>
        <time>2021-04-10T11:13:24Z</time>
      </trkpt>
      <trkpt lat="45.15461" lon="5.86907">
        <ele>1050.6</ele>
        <time>2021-04-10T11:13:25Z</time>
      </trkpt>
      <trkpt lat="45.15459" lon="5.86905">
        <ele>1050</ele>
        <time>2021-04-10T11:13:26Z</time>
      </trkpt>
      <trkpt lat="45.15459" lon="5.86904">
        <ele>1049.2</ele>
        <time>2021-04-10T11:13:27Z</time>
      </trkpt>
      <trkpt lat="45.15459" lon="5.86903">
        <ele>1048.2</ele>
        <time>2021-04-10T11:13:28Z</time>
      </trkpt>
      <trkpt lat="45.15458" lon="5.86901">
        <ele>1048.2</ele>
        <time>2021-04-10T11:13:29Z</time>
      </trkpt>
      <trkpt lat="45.15458" lon="5.869">
        <ele>1048</ele>
        <time>2021-04-10T11:13:30Z</time>
      </trkpt>
      <trkpt lat="45.15457" lon="5.86899">
        <ele>1047.8</ele>
        <time>2021-04-10T11:13:31Z</time>
      </trkpt>
      <trkpt lat="45.15456" lon="5.86893">
        <ele>1047.2</ele>
        <time>2021-04-10T11:13:32Z</time>
      </trkpt>
      <trkpt lat="45.15454" lon="5.86887">
        <ele>1047</ele>
        <time>2021-04-10T11:13:33Z</time>
      </trkpt>
      <trkpt lat="45.15452" lon="5.86881">
        <ele>1046.2</ele>
        <time>2021-04-10T11:13:34Z</time>
      </trkpt>
      <trkpt lat="45.1545" lon="5.86874">
        <ele>1045.4</ele>
        <time>2021-04-10T11:13:35Z</time>
      </trkpt>
      <trkpt lat="45.15448" lon="5.86865">
        <ele>1045.2</ele>
        <time>2021-04-10T11:13:36Z</time>
      </trkpt>
      <trkpt lat="45.15447" lon="5.86862">
        <ele>1045</ele>
        <time>2021-04-10T11:13:37Z</time>
      </trkpt>
      <trkpt lat="45.15447" lon="5.8686">
        <ele>1044.8</ele>
        <time>2021-04-10T11:13:38Z</time>
      </trkpt>
      <trkpt lat="45.15445" lon="5.86854">
        <ele>1044.4</ele>
        <time>2021-04-10T11:13:39Z</time>
      </trkpt>
      <trkpt lat="45.15445" lon="5.86852">
        <ele>1044.2</ele>
        <time>2021-04-10T11:13:40Z</time>
      </trkpt>
      <trkpt lat="45.15444" lon="5.8685">
        <ele>1043.4</ele>
        <time>2021-04-10T11:13:41Z</time>
      </trkpt>
      <trkpt lat="45.15444" lon="5.86848">
        <ele>1042.6</ele>
        <time>2021-04-10T11:13:42Z</time>
      </trkpt>
      <trkpt lat="45.15442" lon="5.86841">
        <ele>1042.6</ele>
        <time>2021-04-10T11:13:43Z</time>
      </trkpt>
      <trkpt lat="45.15442" lon="5.86841">
        <ele>1042</ele>
        <time>2021-04-10T11:13:44Z</time>
      </trkpt>
      <trkpt lat="45.15442" lon="5.86841">
        <ele>1041.8</ele>
        <time>2021-04-10T11:13:45Z</time>
      </trkpt>
      <trkpt lat="45.15441" lon="5.86837">
        <ele>1041.2</ele>
        <time>2021-04-10T11:13:46Z</time>
      </trkpt>
      <trkpt lat="45.15439" lon="5.86833">
        <ele>1040.8</ele>
        <time>2021-04-10T11:13:47Z</time>
      </trkpt>
      <trkpt lat="45.15438" lon="5.86829">
        <ele>1040.2</ele>
        <time>2021-04-10T11:13:48Z</time>
      </trkpt>
      <trkpt lat="45.15437" lon="5.86825">
        <ele>1039.4</ele>
        <time>2021-04-10T11:13:49Z</time>
      </trkpt>
      <trkpt lat="45.15435" lon="5.86821">
        <ele>1039.2</ele>
        <time>2021-04-10T11:13:50Z</time>
      </trkpt>
      <trkpt lat="45.15433" lon="5.86815">
        <ele>1038.8</ele>
        <time>2021-04-10T11:13:51Z</time>
      </trkpt>
      <trkpt lat="45.15432" lon="5.86812">
        <ele>1039</ele>
        <time>2021-04-10T11:13:52Z</time>
      </trkpt>
      <trkpt lat="45.15431" lon="5.86809">
        <ele>1038.4</ele>
        <time>2021-04-10T11:13:53Z</time>
      </trkpt>
      <trkpt lat="45.1543" lon="5.86807">
        <ele>1038</ele>
        <time>2021-04-10T11:13:54Z</time>
      </trkpt>
      <trkpt lat="45.15427" lon="5.86798">
        <ele>1037.4</ele>
        <time>2021-04-10T11:13:55Z</time>
      </trkpt>
      <trkpt lat="45.15424" lon="5.86793">
        <ele>1037.2</ele>
        <time>2021-04-10T11:13:56Z</time>
      </trkpt>
      <trkpt lat="45.15422" lon="5.86789">
        <ele>1036.6</ele>
        <time>2021-04-10T11:13:57Z</time>
      </trkpt>
      <trkpt lat="45.1542" lon="5.86786">
        <ele>1036</ele>
        <time>2021-04-10T11:13:58Z</time>
      </trkpt>
      <trkpt lat="45.15418" lon="5.86783">
        <ele>1035.6</ele>
        <time>2021-04-10T11:13:59Z</time>
      </trkpt>
      <trkpt lat="45.15415" lon="5.86779">
        <ele>1035</ele>
        <time>2021-04-10T11:14:00Z</time>
      </trkpt>
      <trkpt lat="45.15415" lon="5.86777">
        <ele>1035</ele>
        <time>2021-04-10T11:14:01Z</time>
      </trkpt>
      <trkpt lat="45.15414" lon="5.86775">
        <ele>1034.4</ele>
        <time>2021-04-10T11:14:02Z</time>
      </trkpt>
      <trkpt lat="45.15413" lon="5.86773">
        <ele>1034</ele>
        <time>2021-04-10T11:14:03Z</time>
      </trkpt>
      <trkpt lat="45.15411" lon="5.86767">
        <ele>1033.6</ele>
        <time>2021-04-10T11:14:04Z</time>
      </trkpt>
      <trkpt lat="45.15411" lon="5.86767">
        <ele>1033</ele>
        <time>2021-04-10T11:14:05Z</time>
      </trkpt>
      <trkpt lat="45.15411" lon="5.86767">
        <ele>1032.2</ele>
        <time>2021-04-10T11:14:06Z</time>
      </trkpt>
      <trkpt lat="45.15411" lon="5.86767">
        <ele>1031.6</ele>
        <time>2021-04-10T11:14:07Z</time>
      </trkpt>
      <trkpt lat="45.1541" lon="5.86763">
        <ele>1031.8</ele>
        <time>2021-04-10T11:14:08Z</time>
      </trkpt>
      <trkpt lat="45.15409" lon="5.86759">
        <ele>1031.2</ele>
        <time>2021-04-10T11:14:09Z</time>
      </trkpt>
      <trkpt lat="45.15408" lon="5.86754">
        <ele>1031.2</ele>
        <time>2021-04-10T11:14:10Z</time>
      </trkpt>
      <trkpt lat="45.15407" lon="5.8675">
        <ele>1030.6</ele>
        <time>2021-04-10T11:14:11Z</time>
      </trkpt>
      <trkpt lat="45.15406" lon="5.86746">
        <ele>1030.4</ele>
        <time>2021-04-10T11:14:12Z</time>
      </trkpt>
      <trkpt lat="45.15404" lon="5.86735">
        <ele>1029.8</ele>
        <time>2021-04-10T11:14:13Z</time>
      </trkpt>
      <trkpt lat="45.15404" lon="5.86733">
        <ele>1029</ele>
        <time>2021-04-10T11:14:14Z</time>
      </trkpt>
      <trkpt lat="45.15404" lon="5.86731">
        <ele>1029</ele>
        <time>2021-04-10T11:14:15Z</time>
      </trkpt>
      <trkpt lat="45.15403" lon="5.86724">
        <ele>1028.4</ele>
        <time>2021-04-10T11:14:16Z</time>
      </trkpt>
      <trkpt lat="45.15403" lon="5.86724">
        <ele>1028.2</ele>
        <time>2021-04-10T11:14:17Z</time>
      </trkpt>
      <trkpt lat="45.15403" lon="5.86724">
        <ele>1027.8</ele>
        <time>2021-04-10T11:14:18Z</time>
      </trkpt>
      <trkpt lat="45.15402" lon="5.86721">
        <ele>1027.4</ele>
        <time>2021-04-10T11:14:19Z</time>
      </trkpt>
      <trkpt lat="45.15402" lon="5.86719">
        <ele>1026.8</ele>
        <time>2021-04-10T11:14:20Z</time>
      </trkpt>
      <trkpt lat="45.15401" lon="5.86716">
        <ele>1025.6</ele>
        <time>2021-04-10T11:14:21Z</time>
      </trkpt>
      <trkpt lat="45.15401" lon="5.86713">
        <ele>1025.6</ele>
        <time>2021-04-10T11:14:22Z</time>
      </trkpt>
      <trkpt lat="45.154" lon="5.86711">
        <ele>1024.8</ele>
        <time>2021-04-10T11:14:23Z</time>
      </trkpt>
      <trkpt lat="45.15399" lon="5.86708">
        <ele>1024.4</ele>
        <time>2021-04-10T11:14:24Z</time>
      </trkpt>
      <trkpt lat="45.15399" lon="5.86705">
        <ele>1023.8</ele>
        <time>2021-04-10T11:14:25Z</time>
      </trkpt>
      <trkpt lat="45.15398" lon="5.86702">
        <ele>1023.4</ele>
        <time>2021-04-10T11:14:26Z</time>
      </trkpt>
      <trkpt lat="45.15398" lon="5.867">
        <ele>1022.6</ele>
        <time>2021-04-10T11:14:27Z</time>
      </trkpt>
      <trkpt lat="45.15397" lon="5.86697">
        <ele>1022</ele>
        <time>2021-04-10T11:14:28Z</time>
      </trkpt>
      <trkpt lat="45.15396" lon="5.86692">
        <ele>1021.2</ele>
        <time>2021-04-10T11:14:29Z</time>
      </trkpt>
      <trkpt lat="45.15395" lon="5.86688">
        <ele>1020.6</ele>
        <time>2021-04-10T11:14:30Z</time>
      </trkpt>
      <trkpt lat="45.15393" lon="5.86684">
        <ele>1020.6</ele>
        <time>2021-04-10T11:14:31Z</time>
      </trkpt>
      <trkpt lat="45.15392" lon="5.86679">
        <ele>1020.2</ele>
        <time>2021-04-10T11:14:32Z</time>
      </trkpt>
      <trkpt lat="45.15391" lon="5.86675">
        <ele>1020.2</ele>
        <time>2021-04-10T11:14:33Z</time>
      </trkpt>
      <trkpt lat="45.15389" lon="5.86665">
        <ele>1019.8</ele>
        <time>2021-04-10T11:14:34Z</time>
      </trkpt>
      <trkpt lat="45.15388" lon="5.86663">
        <ele>1019.2</ele>
        <time>2021-04-10T11:14:35Z</time>
      </trkpt>
      <trkpt lat="45.15388" lon="5.86661">
        <ele>1018.6</ele>
        <time>2021-04-10T11:14:36Z</time>
      </trkpt>
      <trkpt lat="45.15386" lon="5.86654">
        <ele>1017.8</ele>
        <time>2021-04-10T11:14:37Z</time>
      </trkpt>
      <trkpt lat="45.15386" lon="5.86654">
        <ele>1017.4</ele>
        <time>2021-04-10T11:14:38Z</time>
      </trkpt>
      <trkpt lat="45.15386" lon="5.86654">
        <ele>1016.6</ele>
        <time>2021-04-10T11:14:39Z</time>
      </trkpt>
      <trkpt lat="45.15386" lon="5.86649">
        <ele>1016.6</ele>
        <time>2021-04-10T11:14:40Z</time>
      </trkpt>
      <trkpt lat="45.15386" lon="5.86645">
        <ele>1016.2</ele>
        <time>2021-04-10T11:14:41Z</time>
      </trkpt>
      <trkpt lat="45.15385" lon="5.8664">
        <ele>1016.4</ele>
        <time>2021-04-10T11:14:42Z</time>
      </trkpt>
      <trkpt lat="45.15385" lon="5.86635">
        <ele>1015.8</ele>
        <time>2021-04-10T11:14:43Z</time>
      </trkpt>
      <trkpt lat="45.15385" lon="5.8663">
        <ele>1016</ele>
        <time>2021-04-10T11:14:44Z</time>
      </trkpt>
      <trkpt lat="45.15385" lon="5.86625">
        <ele>1015.4</ele>
        <time>2021-04-10T11:14:45Z</time>
      </trkpt>
      <trkpt lat="45.15383" lon="5.8662">
        <ele>1015.2</ele>
        <time>2021-04-10T11:14:46Z</time>
      </trkpt>
      <trkpt lat="45.15383" lon="5.86616">
        <ele>1014.4</ele>
        <time>2021-04-10T11:14:47Z</time>
      </trkpt>
      <trkpt lat="45.15382" lon="5.86613">
        <ele>1014</ele>
        <time>2021-04-10T11:14:48Z</time>
      </trkpt>
      <trkpt lat="45.15381" lon="5.8661">
        <ele>1013.4</ele>
        <time>2021-04-10T11:14:49Z</time>
      </trkpt>
      <trkpt lat="45.15379" lon="5.866">
        <ele>1012.6</ele>
        <time>2021-04-10T11:14:50Z</time>
      </trkpt>
      <trkpt lat="45.15378" lon="5.86595">
        <ele>1012.4</ele>
        <time>2021-04-10T11:14:51Z</time>
      </trkpt>
      <trkpt lat="45.15377" lon="5.86592">
        <ele>1012</ele>
        <time>2021-04-10T11:14:52Z</time>
      </trkpt>
      <trkpt lat="45.15377" lon="5.8659">
        <ele>1012</ele>
        <time>2021-04-10T11:14:53Z</time>
      </trkpt>
      <trkpt lat="45.15375" lon="5.86588">
        <ele>1011.4</ele>
        <time>2021-04-10T11:14:54Z</time>
      </trkpt>
      <trkpt lat="45.15373" lon="5.86586">
        <ele>1011</ele>
        <time>2021-04-10T11:14:55Z</time>
      </trkpt>
      <trkpt lat="45.15371" lon="5.86584">
        <ele>1010.4</ele>
        <time>2021-04-10T11:14:56Z</time>
      </trkpt>
      <trkpt lat="45.15365" lon="5.86578">
        <ele>1009.8</ele>
        <time>2021-04-10T11:14:57Z</time>
      </trkpt>
      <trkpt lat="45.15363" lon="5.86577">
        <ele>1009.2</ele>
        <time>2021-04-10T11:14:58Z</time>
      </trkpt>
      <trkpt lat="45.1536" lon="5.86576">
        <ele>1008.4</ele>
        <time>2021-04-10T11:14:59Z</time>
      </trkpt>
      <trkpt lat="45.15359" lon="5.86576">
        <ele>1008.4</ele>
        <time>2021-04-10T11:15:00Z</time>
      </trkpt>
      <trkpt lat="45.15357" lon="5.86576">
        <ele>1008</ele>
        <time>2021-04-10T11:15:01Z</time>
      </trkpt>
      <trkpt lat="45.15356" lon="5.86576">
        <ele>1007.8</ele>
        <time>2021-04-10T11:15:02Z</time>
      </trkpt>
      <trkpt lat="45.15351" lon="5.86576">
        <ele>1007</ele>
        <time>2021-04-10T11:15:03Z</time>
      </trkpt>
      <trkpt lat="45.15351" lon="5.86576">
        <ele>1006</ele>
        <time>2021-04-10T11:15:04Z</time>
      </trkpt>
      <trkpt lat="45.15351" lon="5.86576">
        <ele>1006</ele>
        <time>2021-04-10T11:15:05Z</time>
      </trkpt>
      <trkpt lat="45.15348" lon="5.86575">
        <ele>1005.6</ele>
        <time>2021-04-10T11:15:06Z</time>
      </trkpt>
      <trkpt lat="45.15345" lon="5.86573">
        <ele>1005.4</ele>
        <time>2021-04-10T11:15:07Z</time>
      </trkpt>
      <trkpt lat="45.15342" lon="5.86572">
        <ele>1004.8</ele>
        <time>2021-04-10T11:15:08Z</time>
      </trkpt>
      <trkpt lat="45.15339" lon="5.8657">
        <ele>1004.6</ele>
        <time>2021-04-10T11:15:09Z</time>
      </trkpt>
      <trkpt lat="45.15336" lon="5.86569">
        <ele>1003.8</ele>
        <time>2021-04-10T11:15:10Z</time>
      </trkpt>
      <trkpt lat="45.15332" lon="5.86565">
        <ele>1003.4</ele>
        <time>2021-04-10T11:15:11Z</time>
      </trkpt>
      <trkpt lat="45.15331" lon="5.86564">
        <ele>1002.8</ele>
        <time>2021-04-10T11:15:12Z</time>
      </trkpt>
      <trkpt lat="45.15329" lon="5.86562">
        <ele>1001.8</ele>
        <time>2021-04-10T11:15:13Z</time>
      </trkpt>
      <trkpt lat="45.15328" lon="5.86561">
        <ele>1002.2</ele>
        <time>2021-04-10T11:15:14Z</time>
      </trkpt>
      <trkpt lat="45.15326" lon="5.8656">
        <ele>1002</ele>
        <time>2021-04-10T11:15:15Z</time>
      </trkpt>
      <trkpt lat="45.1532" lon="5.86554">
        <ele>1002.2</ele>
        <time>2021-04-10T11:15:16Z</time>
      </trkpt>
      <trkpt lat="45.15318" lon="5.86552">
        <ele>1001.8</ele>
        <time>2021-04-10T11:15:17Z</time>
      </trkpt>
      <trkpt lat="45.15316" lon="5.8655">
        <ele>1001.4</ele>
        <time>2021-04-10T11:15:18Z</time>
      </trkpt>
      <trkpt lat="45.15314" lon="5.86549">
        <ele>1001</ele>
        <time>2021-04-10T11:15:19Z</time>
      </trkpt>
      <trkpt lat="45.15312" lon="5.86549">
        <ele>1000.4</ele>
        <time>2021-04-10T11:15:20Z</time>
      </trkpt>
      <trkpt lat="45.1531" lon="5.86549">
        <ele>1000.4</ele>
        <time>2021-04-10T11:15:21Z</time>
      </trkpt>
      <trkpt lat="45.15309" lon="5.86548">
        <ele>999.6</ele>
        <time>2021-04-10T11:15:22Z</time>
      </trkpt>
      <trkpt lat="45.15307" lon="5.86548">
        <ele>999</ele>
        <time>2021-04-10T11:15:23Z</time>
      </trkpt>
      <trkpt lat="45.15299" lon="5.86548">
        <ele>998.6</ele>
        <time>2021-04-10T11:15:24Z</time>
      </trkpt>
      <trkpt lat="45.15294" lon="5.86548">
        <ele>997.6</ele>
        <time>2021-04-10T11:15:25Z</time>
      </trkpt>
      <trkpt lat="45.15291" lon="5.86548">
        <ele>997.4</ele>
        <time>2021-04-10T11:15:26Z</time>
      </trkpt>
      <trkpt lat="45.15288" lon="5.86549">
        <ele>996.8</ele>
        <time>2021-04-10T11:15:27Z</time>
      </trkpt>
      <trkpt lat="45.15284" lon="5.86548">
        <ele>996.4</ele>
        <time>2021-04-10T11:15:28Z</time>
      </trkpt>
      <trkpt lat="45.15281" lon="5.86547">
        <ele>995.6</ele>
        <time>2021-04-10T11:15:29Z</time>
      </trkpt>
      <trkpt lat="45.15278" lon="5.86546">
        <ele>995</ele>
        <time>2021-04-10T11:15:30Z</time>
      </trkpt>
      <trkpt lat="45.15277" lon="5.86545">
        <ele>994.4</ele>
        <time>2021-04-10T11:15:31Z</time>
      </trkpt>
      <trkpt lat="45.15275" lon="5.86544">
        <ele>994</ele>
        <time>2021-04-10T11:15:32Z</time>
      </trkpt>
      <trkpt lat="45.15271" lon="5.8654">
        <ele>994</ele>
        <time>2021-04-10T11:15:33Z</time>
      </trkpt>
      <trkpt lat="45.1527" lon="5.86539">
        <ele>993.4</ele>
        <time>2021-04-10T11:15:34Z</time>
      </trkpt>
      <trkpt lat="45.15268" lon="5.86537">
        <ele>993.2</ele>
        <time>2021-04-10T11:15:35Z</time>
      </trkpt>
      <trkpt lat="45.15267" lon="5.86536">
        <ele>992.6</ele>
        <time>2021-04-10T11:15:36Z</time>
      </trkpt>
      <trkpt lat="45.15266" lon="5.86534">
        <ele>992</ele>
        <time>2021-04-10T11:15:37Z</time>
      </trkpt>
      <trkpt lat="45.15261" lon="5.86528">
        <ele>991.4</ele>
        <time>2021-04-10T11:15:38Z</time>
      </trkpt>
      <trkpt lat="45.15257" lon="5.86525">
        <ele>991</ele>
        <time>2021-04-10T11:15:39Z</time>
      </trkpt>
      <trkpt lat="45.15255" lon="5.86524">
        <ele>991</ele>
        <time>2021-04-10T11:15:40Z</time>
      </trkpt>
      <trkpt lat="45.15253" lon="5.86522">
        <ele>990.6</ele>
        <time>2021-04-10T11:15:41Z</time>
      </trkpt>
      <trkpt lat="45.15252" lon="5.86521">
        <ele>990.4</ele>
        <time>2021-04-10T11:15:42Z</time>
      </trkpt>
      <trkpt lat="45.15251" lon="5.8652">
        <ele>990</ele>
        <time>2021-04-10T11:15:43Z</time>
      </trkpt>
      <trkpt lat="45.1525" lon="5.86519">
        <ele>989.6</ele>
        <time>2021-04-10T11:15:44Z</time>
      </trkpt>
      <trkpt lat="45.15249" lon="5.86518">
        <ele>989</ele>
        <time>2021-04-10T11:15:45Z</time>
      </trkpt>
      <trkpt lat="45.15248" lon="5.86517">
        <ele>988.4</ele>
        <time>2021-04-10T11:15:46Z</time>
      </trkpt>
      <trkpt lat="45.15247" lon="5.86516">
        <ele>988.4</ele>
        <time>2021-04-10T11:15:47Z</time>
      </trkpt>
      <trkpt lat="45.15246" lon="5.86515">
        <ele>987.8</ele>
        <time>2021-04-10T11:15:48Z</time>
      </trkpt>
      <trkpt lat="45.15244" lon="5.86514">
        <ele>987.8</ele>
        <time>2021-04-10T11:15:49Z</time>
      </trkpt>
      <trkpt lat="45.15243" lon="5.86513">
        <ele>987.2</ele>
        <time>2021-04-10T11:15:50Z</time>
      </trkpt>
      <trkpt lat="45.15242" lon="5.86512">
        <ele>987.2</ele>
        <time>2021-04-10T11:15:51Z</time>
      </trkpt>
      <trkpt lat="45.15241" lon="5.86511">
        <ele>986.6</ele>
        <time>2021-04-10T11:15:52Z</time>
      </trkpt>
      <trkpt lat="45.1524" lon="5.8651">
        <ele>986</ele>
        <time>2021-04-10T11:15:53Z</time>
      </trkpt>
      <trkpt lat="45.15239" lon="5.86509">
        <ele>985.8</ele>
        <time>2021-04-10T11:15:54Z</time>
      </trkpt>
      <trkpt lat="45.15238" lon="5.86508">
        <ele>985.2</ele>
        <time>2021-04-10T11:15:55Z</time>
      </trkpt>
      <trkpt lat="45.15237" lon="5.86507">
        <ele>985</ele>
        <time>2021-04-10T11:15:56Z</time>
      </trkpt>
      <trkpt lat="45.15236" lon="5.86506">
        <ele>984.6</ele>
        <time>2021-04-10T11:15:57Z</time>
      </trkpt>
      <trkpt lat="45.15235" lon="5.86505">
        <ele>984</ele>
        <time>2021-04-10T11:15:58Z</time>
      </trkpt>
      <trkpt lat="45.15233" lon="5.86504">
        <ele>983.2</ele>
        <time>2021-04-10T11:15:59Z</time>
      </trkpt>
      <trkpt lat="45.15232" lon="5.86503">
        <ele>982.4</ele>
        <time>2021-04-10T11:16:00Z</time>
      </trkpt>
      <trkpt lat="45.15231" lon="5.86502">
        <ele>981.8</ele>
        <time>2021-04-10T11:16:01Z</time>
      </trkpt>
      <trkpt lat="45.1523" lon="5.86501">
        <ele>981.4</ele>
        <time>2021-04-10T11:16:02Z</time>
      </trkpt>
      <trkpt lat="45.15229" lon="5.865">
        <ele>981</ele>
        <time>2021-04-10T11:16:03Z</time>
      </trkpt>
      <trkpt lat="45.15228" lon="5.86499">
        <ele>980.6</ele>
        <time>2021-04-10T11:16:04Z</time>
      </trkpt>
      <trkpt lat="45.15227" lon="5.86498">
        <ele>979.8</ele>
        <time>2021-04-10T11:16:05Z</time>
      </trkpt>
      <trkpt lat="45.15226" lon="5.86497">
        <ele>979.2</ele>
        <time>2021-04-10T11:16:06Z</time>
      </trkpt>
      <trkpt lat="45.15225" lon="5.86496">
        <ele>978.8</ele>
        <time>2021-04-10T11:16:07Z</time>
      </trkpt>
      <trkpt lat="45.15224" lon="5.86495">
        <ele>978.8</ele>
        <time>2021-04-10T11:16:08Z</time>
      </trkpt>
      <trkpt lat="45.15222" lon="5.86494">
        <ele>978.2</ele>
        <time>2021-04-10T11:16:09Z</time>
      </trkpt>
      <trkpt lat="45.15221" lon="5.86493">
        <ele>977.8</ele>
        <time>2021-04-10T11:16:10Z</time>
      </trkpt>
      <trkpt lat="45.1522" lon="5.86492">
        <ele>977.2</ele>
        <time>2021-04-10T11:16:11Z</time>
      </trkpt>
      <trkpt lat="45.15219" lon="5.86491">
        <ele>976.6</ele>
        <time>2021-04-10T11:16:12Z</time>
      </trkpt>
      <trkpt lat="45.15218" lon="5.8649">
        <ele>976.4</ele>
        <time>2021-04-10T11:16:13Z</time>
      </trkpt>
      <trkpt lat="45.15217" lon="5.86489">
        <ele>975.8</ele>
        <time>2021-04-10T11:16:14Z</time>
      </trkpt>
      <trkpt lat="45.15216" lon="5.86488">
        <ele>975.8</ele>
        <time>2021-04-10T11:16:15Z</time>
      </trkpt>
      <trkpt lat="45.15215" lon="5.86487">
        <ele>975</ele>
        <time>2021-04-10T11:16:16Z</time>
      </trkpt>
      <trkpt lat="45.15214" lon="5.86486">
        <ele>974.4</ele>
        <time>2021-04-10T11:16:17Z</time>
      </trkpt>
      <trkpt lat="45.15213" lon="5.86485">
        <ele>974</ele>
        <time>2021-04-10T11:16:18Z</time>
      </trkpt>
      <trkpt lat="45.15211" lon="5.86484">
        <ele>973</ele>
        <time>2021-04-10T11:16:19Z</time>
      </trkpt>
      <trkpt lat="45.1521" lon="5.86483">
        <ele>973</ele>
        <time>2021-04-10T11:16:20Z</time>
      </trkpt>
      <trkpt lat="45.15209" lon="5.86482">
        <ele>972.6</ele>
        <time>2021-04-10T11:16:21Z</time>
      </trkpt>
      <trkpt lat="45.15208" lon="5.86481">
        <ele>972.2</ele>
        <time>2021-04-10T11:16:22Z</time>
      </trkpt>
      <trkpt lat="45.15207" lon="5.8648">
        <ele>971.8</ele>
        <time>2021-04-10T11:16:23Z</time>
      </trkpt>
      <trkpt lat="45.15206" lon="5.86479">
        <ele>971.4</ele>
        <time>2021-04-10T11:16:24Z</time>
      </trkpt>
      <trkpt lat="45.15205" lon="5.86478">
        <ele>970.6</ele>
        <time>2021-04-10T11:16:25Z</time>
      </trkpt>
      <trkpt lat="45.15204" lon="5.86477">
        <ele>970</ele>
        <time>2021-04-10T11:16:26Z</time>
      </trkpt>
      <trkpt lat="45.15203" lon="5.86476">
        <ele>970</ele>
        <time>2021-04-10T11:16:27Z</time>
      </trkpt>
      <trkpt lat="45.15202" lon="5.86475">
        <ele>969.6</ele>
        <time>2021-04-10T11:16:28Z</time>
      </trkpt>
      <trkpt lat="45.152" lon="5.86474">
        <ele>969.2</ele>
        <time>2021-04-10T11:16:29Z</time>
      </trkpt>
      <trkpt lat="45.15199" lon="5.86473">
        <ele>968.4</ele>
        <time>2021-04-10T11:16:30Z</time>
      </trkpt>
      <trkpt lat="45.15198" lon="5.86472">
        <ele>967.8</ele>
        <time>2021-04-10T11:16:31Z</time>
      </trkpt>
      <trkpt lat="45.15197" lon="5.86471">
        <ele>967.6</ele>
        <time>2021-04-10T11:16:32Z</time>
      </trkpt>
      <trkpt lat="45.15196" lon="5.8647">
        <ele>967.2</ele>
        <time>2021-04-10T11:16:33Z</time>
      </trkpt>
      <trkpt lat="45.15195" lon="5.86469">
        <ele>967</ele>
        <time>2021-04-10T11:16:34Z</time>
      </trkpt>
      <trkpt lat="45.15194" lon="5.86468">
        <ele>966.4</ele>
        <time>2021-04-10T11:16:35Z</time>
      </trkpt>
      <trkpt lat="45.15193" lon="5.86467">
        <ele>966</ele>
        <time>2021-04-10T11:16:36Z</time>
      </trkpt>
      <trkpt lat="45.15192" lon="5.86466">
        <ele>965</ele>
        <time>2021-04-10T11:16:37Z</time>
      </trkpt>
      <trkpt lat="45.15191" lon="5.86465">
        <ele>964.2</ele>
        <time>2021-04-10T11:16:38Z</time>
      </trkpt>
      <trkpt lat="45.15189" lon="5.86464">
        <ele>964.2</ele>
        <time>2021-04-10T11:16:39Z</time>
      </trkpt>
      <trkpt lat="45.15188" lon="5.86463">
        <ele>963.6</ele>
        <time>2021-04-10T11:16:40Z</time>
      </trkpt>
      <trkpt lat="45.15187" lon="5.86462">
        <ele>963.4</ele>
        <time>2021-04-10T11:16:41Z</time>
      </trkpt>
      <trkpt lat="45.15186" lon="5.86461">
        <ele>962.8</ele>
        <time>2021-04-10T11:16:42Z</time>
      </trkpt>
      <trkpt lat="45.15185" lon="5.8646">
        <ele>961.8</ele>
        <time>2021-04-10T11:16:43Z</time>
      </trkpt>
      <trkpt lat="45.15184" lon="5.86459">
        <ele>961.6</ele>
        <time>2021-04-10T11:16:44Z</time>
      </trkpt>
      <trkpt lat="45.15183" lon="5.86458">
        <ele>961</ele>
        <time>2021-04-10T11:16:45Z</time>
      </trkpt>
      <trkpt lat="45.15182" lon="5.86457">
        <ele>960.8</ele>
        <time>2021-04-10T11:16:46Z</time>
      </trkpt>
      <trkpt lat="45.15181" lon="5.86456">
        <ele>960.2</ele>
        <time>2021-04-10T11:16:47Z</time>
      </trkpt>
      <trkpt lat="45.1518" lon="5.86455">
        <ele>960</ele>
        <time>2021-04-10T11:16:48Z</time>
      </trkpt>
      <trkpt lat="45.15178" lon="5.86454">
        <ele>959.2</ele>
        <time>2021-04-10T11:16:49Z</time>
      </trkpt>
      <trkpt lat="45.15177" lon="5.86453">
        <ele>958.4</ele>
        <time>2021-04-10T11:16:50Z</time>
      </trkpt>
      <trkpt lat="45.15176" lon="5.86452">
        <ele>958.2</ele>
        <time>2021-04-10T11:16:51Z</time>
      </trkpt>
      <trkpt lat="45.15175" lon="5.86451">
        <ele>957.6</ele>
        <time>2021-04-10T11:16:52Z</time>
      </trkpt>
      <trkpt lat="45.15174" lon="5.8645">
        <ele>957.2</ele>
        <time>2021-04-10T11:16:53Z</time>
      </trkpt>
      <trkpt lat="45.15173" lon="5.86449">
        <ele>956.6</ele>
        <time>2021-04-10T11:16:54Z</time>
      </trkpt>
      <trkpt lat="45.15172" lon="5.86448">
        <ele>955.4</ele>
        <time>2021-04-10T11:16:55Z</time>
      </trkpt>
      <trkpt lat="45.15171" lon="5.86447">
        <ele>955.4</ele>
        <time>2021-04-10T11:16:56Z</time>
      </trkpt>
      <trkpt lat="45.1517" lon="5.86446">
        <ele>955</ele>
        <time>2021-04-10T11:16:57Z</time>
      </trkpt>
      <trkpt lat="45.15169" lon="5.86445">
        <ele>954.6</ele>
        <time>2021-04-10T11:16:58Z</time>
      </trkpt>
      <trkpt lat="45.15167" lon="5.86444">
        <ele>953.8</ele>
        <time>2021-04-10T11:16:59Z</time>
      </trkpt>
      <trkpt lat="45.15166" lon="5.86443">
        <ele>953</ele>
        <time>2021-04-10T11:17:00Z</time>
      </trkpt>
      <trkpt lat="45.15165" lon="5.86442">
        <ele>953</ele>
        <time>2021-04-10T11:17:01Z</time>
      </trkpt>
      <trkpt lat="45.15164" lon="5.86441">
        <ele>952.4</ele>
        <time>2021-04-10T11:17:02Z</time>
      </trkpt>
      <trkpt lat="45.15163" lon="5.8644">
        <ele>952.2</ele>
        <time>2021-04-10T11:17:03Z</time>
      </trkpt>
      <trkpt lat="45.15162" lon="5.86439">
        <ele>951.6</ele>
        <time>2021-04-10T11:17:04Z</time>
      </trkpt>
      <trkpt lat="45.15161" lon="5.86438">
        <ele>950.8</ele>
        <time>2021-04-10T11:17:05Z</time>
      </trkpt>
      <trkpt lat="45.1516" lon="5.86437">
        <ele>950.8</ele>
        <time>2021-04-10T11:17:06Z</time>
      </trkpt>
      <trkpt lat="45.15159" lon="5.86436">
        <ele>950.6</ele>
        <time>2021-04-10T11:17:07Z</time>
      </trkpt>
      <trkpt lat="45.15158" lon="5.86435">
        <ele>950.4</ele>
        <time>2021-04-10T11:17:08Z</time>
      </trkpt>
      <trkpt lat="45.15156" lon="5.86434">
        <ele>949.8</ele>
        <time>2021-04-10T11:17:09Z</time>
      </trkpt>
      <trkpt lat="45.15155" lon="5.86433">
        <ele>949</ele>
        <time>2021-04-10T11:17:10Z</time>
      </trkpt>
      <trkpt lat="45.15154" lon="5.86432">
        <ele>949</ele>
        <time>2021-04-10T11:17:11Z</time>
      </trkpt>
      <trkpt lat="45.15153" lon="5.86431">
        <ele>948.4</ele>
        <time>2021-04-10T11:17:12Z</time>
      </trkpt>
      <trkpt lat="45.15152" lon="5.8643">
        <ele>948.2</ele>
        <time>2021-04-10T11:17:13Z</time>
      </trkpt>
      <trkpt lat="45.15151" lon="5.86429">
        <ele>947.6</ele>
        <time>2021-04-10T11:17:14Z</time>
      </trkpt>
      <trkpt lat="45.1515" lon="5.86428">
        <ele>946.8</ele>
        <time>2021-04-10T11:17:15Z</time>
      </trkpt>
      <trkpt lat="45.15149" lon="5.86427">
        <ele>946.6</ele>
        <time>2021-04-10T11:17:16Z</time>
      </trkpt>
      <trkpt lat="45.15148" lon="5.86426">
        <ele>946.2</ele>
        <time>2021-04-10T11:17:17Z</time>
      </trkpt>
      <trkpt lat="45.15147" lon="5.86425">
        <ele>946</ele>
        <time>2021-04-10T11:17:18Z</time>
      </trkpt>
      <trkpt lat="45.15145" lon="5.86424">
        <ele>945.4</ele>
        <time>2021-04-10T11:17:19Z</time>
      </trkpt>
      <trkpt lat="45.15038" lon="5.86327">
        <ele>944.8</ele>
        <time>2021-04-10T11:17:20Z</time>
      </trkpt>
      <trkpt lat="45.15036" lon="5.86326">
        <ele>944.6</ele>
        <time>2021-04-10T11:17:21Z</time>
      </trkpt>
      <trkpt lat="45.15034" lon="5.86324">
        <ele>944</ele>
        <time>2021-04-10T11:17:22Z</time>
      </trkpt>
      <trkpt lat="45.15032" lon="5.86323">
        <ele>943.8</ele>
        <time>2021-04-10T11:17:23Z</time>
      </trkpt>
      <trkpt lat="45.15031" lon="5.86321">
        <ele>943.2</ele>
        <time>2021-04-10T11:17:24Z</time>
      </trkpt>
      <trkpt lat="45.15029" lon="5.8632">
        <ele>942.8</ele>
        <time>2021-04-10T11:17:25Z</time>
      </trkpt>
      <trkpt lat="45.15027" lon="5.86319">
        <ele>942.2</ele>
        <time>2021-04-10T11:17:26Z</time>
      </trkpt>
      <trkpt lat="45.15025" lon="5.86317">
        <ele>941.6</ele>
        <time>2021-04-10T11:17:27Z</time>
      </trkpt>
      <trkpt lat="45.15024" lon="5.86316">
        <ele>941.4</ele>
        <time>2021-04-10T11:17:28Z</time>
      </trkpt>
      <trkpt lat="45.15022" lon="5.86315">
        <ele>940.8</ele>
        <time>2021-04-10T11:17:29Z</time>
      </trkpt>
      <trkpt lat="45.1502" lon="5.86313">
        <ele>940.4</ele>
        <time>2021-04-10T11:17:30Z</time>
      </trkpt>
      <trkpt lat="45.15018" lon="5.86312">
        <ele>939.8</ele>
        <time>2021-04-10T11:17:31Z</time>
      </trkpt>
      <trkpt lat="45.15017" lon="5.86311">
        <ele>939.4</ele>
        <time>2021-04-10T11:17:32Z</time>
      </trkpt>
      <trkpt lat="45.15015" lon="5.86309">
        <ele>938.6</ele>
        <time>2021-04-10T11:17:33Z</time>
      </trkpt>
      <trkpt lat="45.15013" lon="5.86308">
        <ele>937.8</ele>
        <time>2021-04-10T11:17:34Z</time>
      </trkpt>
      <trkpt lat="45.15011" lon="5.86307">
        <ele>937.6</ele>
        <time>2021-04-10T11:17:35Z</time>
      </trkpt>
      <trkpt lat="45.1501" lon="5.86305">
        <ele>937</ele>
        <time>2021-04-10T11:17:36Z</time>
      </trkpt>
      <trkpt lat="45.15008" lon="5.86304">
        <ele>936.8</ele>
        <time>2021-04-10T11:17:37Z</time>
      </trkpt>
      <trkpt lat="45.15006" lon="5.86303">
        <ele>936.2</ele>
        <time>2021-04-10T11:17:38Z</time>
      </trkpt>
      <trkpt lat="45.15004" lon="5.86301">
        <ele>935.6</ele>
        <time>2021-04-10T11:17:39Z</time>
      </trkpt>
      <trkpt lat="45.15003" lon="5.863">
        <ele>935</ele>
        <time>2021-04-10T11:17:40Z</time>
      </trkpt>
      <trkpt lat="45.15001" lon="5.86299">
        <ele>934.4</ele>
        <time>2021-04-10T11:17:41Z</time>
      </trkpt>
      <trkpt lat="45.14999" lon="5.86297">
        <ele>934.6</ele>
        <time>2021-04-10T11:17:42Z</time>
      </trkpt>
      <trkpt lat="45.14997" lon="5.86296">
        <ele>934</ele>
        <time>2021-04-10T11:17:43Z</time>
      </trkpt>
      <trkpt lat="45.14996" lon="5.86295">
        <ele>933.8</ele>
        <time>2021-04-10T11:17:44Z</time>
      </trkpt>
      <trkpt lat="45.14994" lon="5.86293">
        <ele>932.8</ele>
        <time>2021-04-10T11:17:45Z</time>
      </trkpt>
      <trkpt lat="45.14992" lon="5.86292">
        <ele>932</ele>
        <time>2021-04-10T11:17:46Z</time>
      </trkpt>
      <trkpt lat="45.14947" lon="5.86257">
        <ele>931.8</ele>
        <time>2021-04-10T11:17:47Z</time>
      </trkpt>
      <trkpt lat="45.14947" lon="5.86254">
        <ele>931.6</ele>
        <time>2021-04-10T11:17:48Z</time>
      </trkpt>
      <trkpt lat="45.14947" lon="5.8625">
        <ele>931.4</ele>
        <time>2021-04-10T11:17:49Z</time>
      </trkpt>
      <trkpt lat="45.14948" lon="5.86239">
        <ele>930.6</ele>
        <time>2021-04-10T11:17:50Z</time>
      </trkpt>
      <trkpt lat="45.14949" lon="5.86236">
        <ele>930.2</ele>
        <time>2021-04-10T11:17:51Z</time>
      </trkpt>
      <trkpt lat="45.1495" lon="5.86232">
        <ele>930.2</ele>
        <time>2021-04-10T11:17:52Z</time>
      </trkpt>
      <trkpt lat="45.14951" lon="5.86229">
        <ele>929.8</ele>
        <time>2021-04-10T11:17:53Z</time>
      </trkpt>
      <trkpt lat="45.14952" lon="5.86226">
        <ele>929.4</ele>
        <time>2021-04-10T11:17:54Z</time>
      </trkpt>
      <trkpt lat="45.14952" lon="5.86224">
        <ele>928.8</ele>
        <time>2021-04-10T11:17:55Z</time>
      </trkpt>
      <trkpt lat="45.14953" lon="5.86222">
        <ele>928.2</ele>
        <time>2021-04-10T11:17:56Z</time>
      </trkpt>
      <trkpt lat="45.14954" lon="5.86215">
        <ele>928</ele>
        <time>2021-04-10T11:17:57Z</time>
      </trkpt>
      <trkpt lat="45.14955" lon="5.86212">
        <ele>927.4</ele>
        <time>2021-04-10T11:17:58Z</time>
      </trkpt>
      <trkpt lat="45.14956" lon="5.86209">
        <ele>927.4</ele>
        <time>2021-04-10T11:17:59Z</time>
      </trkpt>
      <trkpt lat="45.14956" lon="5.86207">
        <ele>926.8</ele>
        <time>2021-04-10T11:18:00Z</time>
      </trkpt>
      <trkpt lat="45.14957" lon="5.86204">
        <ele>926.4</ele>
        <time>2021-04-10T11:18:01Z</time>
      </trkpt>
      <trkpt lat="45.1496" lon="5.86194">
        <ele>925.6</ele>
        <time>2021-04-10T11:18:02Z</time>
      </trkpt>
      <trkpt lat="45.14961" lon="5.8619">
        <ele>925</ele>
        <time>2021-04-10T11:18:03Z</time>
      </trkpt>
      <trkpt lat="45.14963" lon="5.86186">
        <ele>925</ele>
        <time>2021-04-10T11:18:04Z</time>
      </trkpt>
      <trkpt lat="45.14965" lon="5.86183">
        <ele>924.4</ele>
        <time>2021-04-10T11:18:05Z</time>
      </trkpt>
      <trkpt lat="45.14967" lon="5.8618">
        <ele>924</ele>
        <time>2021-04-10T11:18:06Z</time>
      </trkpt>
      <trkpt lat="45.14969" lon="5.86177">
        <ele>923</ele>
        <time>2021-04-10T11:18:07Z</time>
      </trkpt>
      <trkpt lat="45.14969" lon="5.86177">
        <ele>922.2</ele>
        <time>2021-04-10T11:18:08Z</time>
      </trkpt>
      <trkpt lat="45.14969" lon="5.86177">
        <ele>922</ele>
        <time>2021-04-10T11:18:09Z</time>
      </trkpt>
      <trkpt lat="45.1497" lon="5.86172">
        <ele>921.4</ele>
        <time>2021-04-10T11:18:10Z</time>
      </trkpt>
      <trkpt lat="45.1497" lon="5.86168">
        <ele>921.2</ele>
        <time>2021-04-10T11:18:11Z</time>
      </trkpt>
      <trkpt lat="45.1497" lon="5.86163">
        <ele>920.2</ele>
        <time>2021-04-10T11:18:12Z</time>
      </trkpt>
      <trkpt lat="45.1497" lon="5.86159">
        <ele>919.6</ele>
        <time>2021-04-10T11:18:13Z</time>
      </trkpt>
      <trkpt lat="45.14971" lon="5.86154">
        <ele>919</ele>
        <time>2021-04-10T11:18:14Z</time>
      </trkpt>
      <trkpt lat="45.14974" lon="5.86143">
        <ele>918.4</ele>
        <time>2021-04-10T11:18:15Z</time>
      </trkpt>
      <trkpt lat="45.14976" lon="5.86138">
        <ele>918.8</ele>
        <time>2021-04-10T11:18:16Z</time>
      </trkpt>
      <trkpt lat="45.14978" lon="5.86133">
        <ele>918.2</ele>
        <time>2021-04-10T11:18:17Z</time>
      </trkpt>
      <trkpt lat="45.14979" lon="5.8613">
        <ele>917.8</ele>
        <time>2021-04-10T11:18:18Z</time>
      </trkpt>
      <trkpt lat="45.1498" lon="5.86128">
        <ele>917</ele>
        <time>2021-04-10T11:18:19Z</time>
      </trkpt>
      <trkpt lat="45.1498" lon="5.86125">
        <ele>916.2</ele>
        <time>2021-04-10T11:18:20Z</time>
      </trkpt>
      <trkpt lat="45.14983" lon="5.86118">
        <ele>916.4</ele>
        <time>2021-04-10T11:18:21Z</time>
      </trkpt>
      <trkpt lat="45.14983" lon="5.86118">
        <ele>916</ele>
        <time>2021-04-10T11:18:22Z</time>
      </trkpt>
      <trkpt lat="45.14983" lon="5.86118">
        <ele>915.8</ele>
        <time>2021-04-10T11:18:23Z</time>
      </trkpt>
      <trkpt lat="45.14981" lon="5.86115">
        <ele>915.2</ele>
        <time>2021-04-10T11:18:24Z</time>
      </trkpt>
      <trkpt lat="45.14979" lon="5.86111">
        <ele>914.8</ele>
        <time>2021-04-10T11:18:25Z</time>
      </trkpt>
      <trkpt lat="45.14978" lon="5.86108">
        <ele>914</ele>
        <time>2021-04-10T11:18:26Z</time>
      </trkpt>
      <trkpt lat="45.14976" lon="5.86104">
        <ele>913.4</ele>
        <time>2021-04-10T11:18:27Z</time>
      </trkpt>
      <trkpt lat="45.14974" lon="5.861">
        <ele>913.4</ele>
        <time>2021-04-10T11:18:28Z</time>
      </trkpt>
      <trkpt lat="45.1497" lon="5.86096">
        <ele>913</ele>
        <time>2021-04-10T11:18:29Z</time>
      </trkpt>
      <trkpt lat="45.14969" lon="5.86095">
        <ele>913.2</ele>
        <time>2021-04-10T11:18:30Z</time>
      </trkpt>
      <trkpt lat="45.14968" lon="5.86094">
        <ele>912.8</ele>
        <time>2021-04-10T11:18:31Z</time>
      </trkpt>
      <trkpt lat="45.14966" lon="5.86092">
        <ele>912.6</ele>
        <time>2021-04-10T11:18:32Z</time>
      </trkpt>
      <trkpt lat="45.14965" lon="5.86091">
        <ele>912.2</ele>
        <time>2021-04-10T11:18:33Z</time>
      </trkpt>
      <trkpt lat="45.14964" lon="5.8609">
        <ele>912.2</ele>
        <time>2021-04-10T11:18:34Z</time>
      </trkpt>
      <trkpt lat="45.14962" lon="5.86088">
        <ele>911.8</ele>
        <time>2021-04-10T11:18:35Z</time>
      </trkpt>
      <trkpt lat="45.14961" lon="5.86087">
        <ele>911.4</ele>
        <time>2021-04-10T11:18:36Z</time>
      </trkpt>
      <trkpt lat="45.1496" lon="5.86086">
        <ele>910.8</ele>
        <time>2021-04-10T11:18:37Z</time>
      </trkpt>
      <trkpt lat="45.14959" lon="5.86084">
        <ele>910.6</ele>
        <time>2021-04-10T11:18:38Z</time>
      </trkpt>
      <trkpt lat="45.14957" lon="5.86083">
        <ele>910</ele>
        <time>2021-04-10T11:18:39Z</time>
      </trkpt>
      <trkpt lat="45.14956" lon="5.86082">
        <ele>909.4</ele>
        <time>2021-04-10T11:18:40Z</time>
      </trkpt>
      <trkpt lat="45.14955" lon="5.8608">
        <ele>908.6</ele>
        <time>2021-04-10T11:18:41Z</time>
      </trkpt>
      <trkpt lat="45.14953" lon="5.86079">
        <ele>908.2</ele>
        <time>2021-04-10T11:18:42Z</time>
      </trkpt>
      <trkpt lat="45.14952" lon="5.86077">
        <ele>907.4</ele>
        <time>2021-04-10T11:18:43Z</time>
      </trkpt>
      <trkpt lat="45.14951" lon="5.86076">
        <ele>906.6</ele>
        <time>2021-04-10T11:18:44Z</time>
      </trkpt>
      <trkpt lat="45.14946" lon="5.8607">
        <ele>906.8</ele>
        <time>2021-04-10T11:18:45Z</time>
      </trkpt>
      <trkpt lat="45.14943" lon="5.86065">
        <ele>906.2</ele>
        <time>2021-04-10T11:18:46Z</time>
      </trkpt>
      <trkpt lat="45.14941" lon="5.86061">
        <ele>906</ele>
        <time>2021-04-10T11:18:47Z</time>
      </trkpt>
      <trkpt lat="45.14939" lon="5.86057">
        <ele>905.4</ele>
        <time>2021-04-10T11:18:48Z</time>
      </trkpt>
      <trkpt lat="45.14937" lon="5.86053">
        <ele>904.6</ele>
        <time>2021-04-10T11:18:49Z</time>
      </trkpt>
      <trkpt lat="45.14936" lon="5.8605">
        <ele>904</ele>
        <time>2021-04-10T11:18:50Z</time>
      </trkpt>
      <trkpt lat="45.14934" lon="5.86047">
        <ele>903.6</ele>
        <time>2021-04-10T11:18:51Z</time>
      </trkpt>
      <trkpt lat="45.14933" lon="5.86044">
        <ele>903.6</ele>
        <time>2021-04-10T11:18:52Z</time>
      </trkpt>
      <trkpt lat="45.14931" lon="5.86041">
        <ele>903.2</ele>
        <time>2021-04-10T11:18:53Z</time>
      </trkpt>
      <trkpt lat="45.1493" lon="5.86039">
        <ele>903.2</ele>
        <time>2021-04-10T11:18:54Z</time>
      </trkpt>
      <trkpt lat="45.14929" lon="5.86036">
        <ele>902.4</ele>
        <time>2021-04-10T11:18:55Z</time>
      </trkpt>
      <trkpt lat="45.14928" lon="5.86032">
        <ele>901.6</ele>
        <time>2021-04-10T11:18:56Z</time>
      </trkpt>
      <trkpt lat="45.14927" lon="5.86029">
        <ele>901.6</ele>
        <time>2021-04-10T11:18:57Z</time>
      </trkpt>
      <trkpt lat="45.14926" lon="5.86026">
        <ele>901.2</ele>
        <time>2021-04-10T11:18:58Z</time>
      </trkpt>
      <trkpt lat="45.14926" lon="5.86026">
        <ele>900.8</ele>
        <time>2021-04-10T11:18:59Z</time>
      </trkpt>
      <trkpt lat="45.14926" lon="5.86026">
        <ele>900.2</ele>
        <time>2021-04-10T11:19:00Z</time>
      </trkpt>
      <trkpt lat="45.14926" lon="5.86026">
        <ele>899.4</ele>
        <time>2021-04-10T11:19:01Z</time>
      </trkpt>
      <trkpt lat="45.14925" lon="5.86024">
        <ele>898.6</ele>
        <time>2021-04-10T11:19:02Z</time>
      </trkpt>
      <trkpt lat="45.14924" lon="5.86022">
        <ele>898.2</ele>
        <time>2021-04-10T11:19:03Z</time>
      </trkpt>
      <trkpt lat="45.14923" lon="5.8602">
        <ele>898.2</ele>
        <time>2021-04-10T11:19:04Z</time>
      </trkpt>
      <trkpt lat="45.14922" lon="5.86018">
        <ele>897.8</ele>
        <time>2021-04-10T11:19:05Z</time>
      </trkpt>
      <trkpt lat="45.14921" lon="5.86016">
        <ele>897.2</ele>
        <time>2021-04-10T11:19:06Z</time>
      </trkpt>
      <trkpt lat="45.1492" lon="5.86014">
        <ele>896.4</ele>
        <time>2021-04-10T11:19:07Z</time>
      </trkpt>
      <trkpt lat="45.14919" lon="5.86009">
        <ele>895.6</ele>
        <time>2021-04-10T11:19:08Z</time>
      </trkpt>
      <trkpt lat="45.14918" lon="5.86005">
        <ele>895.4</ele>
        <time>2021-04-10T11:19:09Z</time>
      </trkpt>
      <trkpt lat="45.14918" lon="5.86001">
        <ele>895</ele>
        <time>2021-04-10T11:19:10Z</time>
      </trkpt>
      <trkpt lat="45.14917" lon="5.85997">
        <ele>894.8</ele>
        <time>2021-04-10T11:19:11Z</time>
      </trkpt>
      <trkpt lat="45.14916" lon="5.85993">
        <ele>894.6</ele>
        <time>2021-04-10T11:19:12Z</time>
      </trkpt>
      <trkpt lat="45.14915" lon="5.85981">
        <ele>894.2</ele>
        <time>2021-04-10T11:19:13Z</time>
      </trkpt>
      <trkpt lat="45.14915" lon="5.85976">
        <ele>893.4</ele>
        <time>2021-04-10T11:19:14Z</time>
      </trkpt>
      <trkpt lat="45.14915" lon="5.85971">
        <ele>892.8</ele>
        <time>2021-04-10T11:19:15Z</time>
      </trkpt>
      <trkpt lat="45.14913" lon="5.85967">
        <ele>892</ele>
        <time>2021-04-10T11:19:16Z</time>
      </trkpt>
      <trkpt lat="45.14912" lon="5.85963">
        <ele>891.2</ele>
        <time>2021-04-10T11:19:17Z</time>
      </trkpt>
      <trkpt lat="45.1491" lon="5.85959">
        <ele>890.6</ele>
        <time>2021-04-10T11:19:18Z</time>
      </trkpt>
      <trkpt lat="45.14909" lon="5.85957">
        <ele>890</ele>
        <time>2021-04-10T11:19:19Z</time>
      </trkpt>
      <trkpt lat="45.14907" lon="5.85956">
        <ele>890</ele>
        <time>2021-04-10T11:19:20Z</time>
      </trkpt>
      <trkpt lat="45.14906" lon="5.85954">
        <ele>889.8</ele>
        <time>2021-04-10T11:19:21Z</time>
      </trkpt>
      <trkpt lat="45.14902" lon="5.8595">
        <ele>889.4</ele>
        <time>2021-04-10T11:19:22Z</time>
      </trkpt>
      <trkpt lat="45.14902" lon="5.8595">
        <ele>889</ele>
        <time>2021-04-10T11:19:23Z</time>
      </trkpt>
      <trkpt lat="45.14902" lon="5.8595">
        <ele>888.4</ele>
        <time>2021-04-10T11:19:24Z</time>
      </trkpt>
      <trkpt lat="45.14901" lon="5.85948">
        <ele>887.8</ele>
        <time>2021-04-10T11:19:25Z</time>
      </trkpt>
      <trkpt lat="45.14899" lon="5.85945">
        <ele>886.8</ele>
        <time>2021-04-10T11:19:26Z</time>
      </trkpt>
      <trkpt lat="45.14898" lon="5.85943">
        <ele>886.8</ele>
        <time>2021-04-10T11:19:27Z</time>
      </trkpt>
      <trkpt lat="45.14897" lon="5.85941">
        <ele>886.4</ele>
        <time>2021-04-10T11:19:28Z</time>
      </trkpt>
      <trkpt lat="45.14896" lon="5.85939">
        <ele>886.2</ele>
        <time>2021-04-10T11:19:29Z</time>
      </trkpt>
      <trkpt lat="45.14887" lon="5.85933">
        <ele>885.6</ele>
        <time>2021-04-10T11:19:30Z</time>
      </trkpt>
      <trkpt lat="45.14887" lon="5.85933">
        <ele>884.8</ele>
        <time>2021-04-10T11:19:31Z</time>
      </trkpt>
      <trkpt lat="45.14887" lon="5.85933">
        <ele>884.4</ele>
        <time>2021-04-10T11:19:32Z</time>
      </trkpt>
      <trkpt lat="45.14887" lon="5.85933">
        <ele>883.6</ele>
        <time>2021-04-10T11:19:33Z</time>
      </trkpt>
      <trkpt lat="45.14885" lon="5.85931">
        <ele>882.8</ele>
        <time>2021-04-10T11:19:34Z</time>
      </trkpt>
      <trkpt lat="45.14882" lon="5.85928">
        <ele>882.4</ele>
        <time>2021-04-10T11:19:35Z</time>
      </trkpt>
      <trkpt lat="45.1488" lon="5.85926">
        <ele>882</ele>
        <time>2021-04-10T11:19:36Z</time>
      </trkpt>
      <trkpt lat="45.14878" lon="5.85923">
        <ele>881.6</ele>
        <time>2021-04-10T11:19:37Z</time>
      </trkpt>
      <trkpt lat="45.14875" lon="5.85921">
        <ele>880.8</ele>
        <time>2021-04-10T11:19:38Z</time>
      </trkpt>
      <trkpt lat="45.14869" lon="5.85914">
        <ele>880</ele>
        <time>2021-04-10T11:19:39Z</time>
      </trkpt>
      <trkpt lat="45.14866" lon="5.85912">
        <ele>879.2</ele>
        <time>2021-04-10T11:19:40Z</time>
      </trkpt>
      <trkpt lat="45.14864" lon="5.8591">
        <ele>878.8</ele>
        <time>2021-04-10T11:19:41Z</time>
      </trkpt>
      <trkpt lat="45.1486" lon="5.85908">
        <ele>878.4</ele>
        <time>2021-04-10T11:19:42Z</time>
      </trkpt>
      <trkpt lat="45.14856" lon="5.85906">
        <ele>878.4</ele>
        <time>2021-04-10T11:19:43Z</time>
      </trkpt>
      <trkpt lat="45.14852" lon="5.85904">
        <ele>878.2</ele>
        <time>2021-04-10T11:19:44Z</time>
      </trkpt>
      <trkpt lat="45.14849" lon="5.85902">
        <ele>877.8</ele>
        <time>2021-04-10T11:19:45Z</time>
      </trkpt>
      <trkpt lat="45.14846" lon="5.859">
        <ele>877</ele>
        <time>2021-04-10T11:19:46Z</time>
      </trkpt>
      <trkpt lat="45.14842" lon="5.85898">
        <ele>876.2</ele>
        <time>2021-04-10T11:19:47Z</time>
      </trkpt>
      <trkpt lat="45.14842" lon="5.85898">
        <ele>876</ele>
        <time>2021-04-10T11:19:48Z</time>
      </trkpt>
      <trkpt lat="45.14842" lon="5.85898">
        <ele>875.6</ele>
        <time>2021-04-10T11:19:49Z</time>
      </trkpt>
      <trkpt lat="45.14841" lon="5.85897">
        <ele>875.6</ele>
        <time>2021-04-10T11:19:50Z</time>
      </trkpt>
      <trkpt lat="45.14839" lon="5.85895">
        <ele>875</ele>
        <time>2021-04-10T11:19:51Z</time>
      </trkpt>
      <trkpt lat="45.14837" lon="5.85894">
        <ele>874.8</ele>
        <time>2021-04-10T11:19:52Z</time>
      </trkpt>
      <trkpt lat="45.14835" lon="5.85892">
        <ele>874</ele>
        <time>2021-04-10T11:19:53Z</time>
      </trkpt>
      <trkpt lat="45.14833" lon="5.8589">
        <ele>873.2</ele>
        <time>2021-04-10T11:19:54Z</time>
      </trkpt>
      <trkpt lat="45.14832" lon="5.85886">
        <ele>872.6</ele>
        <time>2021-04-10T11:19:55Z</time>
      </trkpt>
      <trkpt lat="45.1483" lon="5.85882">
        <ele>872.2</ele>
        <time>2021-04-10T11:19:56Z</time>
      </trkpt>
      <trkpt lat="45.14829" lon="5.85878">
        <ele>872.4</ele>
        <time>2021-04-10T11:19:57Z</time>
      </trkpt>
      <trkpt lat="45.14829" lon="5.85878">
        <ele>871.8</ele>
        <time>2021-04-10T11:19:58Z</time>
      </trkpt>
      <trkpt lat="45.14829" lon="5.85878">
        <ele>871.6</ele>
        <time>2021-04-10T11:19:59Z</time>
      </trkpt>
      <trkpt lat="45.14829" lon="5.85878">
        <ele>870.4</ele>
        <time>2021-04-10T11:20:01Z</time>
      </trkpt>
      <trkpt lat="45.14828" lon="5.85875">
        <ele>869.6</ele>
        <time>2021-04-10T11:20:02Z</time>
      </trkpt>
      <trkpt lat="45.14827" lon="5.85873">
        <ele>868.6</ele>
        <time>2021-04-10T11:20:03Z</time>
      </trkpt>
      <trkpt lat="45.14826" lon="5.8587">
        <ele>868.8</ele>
        <time>2021-04-10T11:20:04Z</time>
      </trkpt>
      <trkpt lat="45.14826" lon="5.85868">
        <ele>868</ele>
        <time>2021-04-10T11:20:05Z</time>
      </trkpt>
      <trkpt lat="45.14825" lon="5.85865">
        <ele>868.2</ele>
        <time>2021-04-10T11:20:06Z</time>
      </trkpt>
      <trkpt lat="45.14816" lon="5.8586">
        <ele>867.6</ele>
        <time>2021-04-10T11:20:07Z</time>
      </trkpt>
      <trkpt lat="45.14815" lon="5.85859">
        <ele>867.4</ele>
        <time>2021-04-10T11:20:08Z</time>
      </trkpt>
      <trkpt lat="45.14813" lon="5.85858">
        <ele>866.8</ele>
        <time>2021-04-10T11:20:09Z</time>
      </trkpt>
      <trkpt lat="45.14811" lon="5.85857">
        <ele>866.4</ele>
        <time>2021-04-10T11:20:10Z</time>
      </trkpt>
      <trkpt lat="45.14809" lon="5.85856">
        <ele>865.6</ele>
        <time>2021-04-10T11:20:11Z</time>
      </trkpt>
      <trkpt lat="45.14802" lon="5.85853">
        <ele>865</ele>
        <time>2021-04-10T11:20:12Z</time>
      </trkpt>
      <trkpt lat="45.14798" lon="5.85853">
        <ele>864.6</ele>
        <time>2021-04-10T11:20:13Z</time>
      </trkpt>
      <trkpt lat="45.14795" lon="5.85853">
        <ele>863.8</ele>
        <time>2021-04-10T11:20:14Z</time>
      </trkpt>
      <trkpt lat="45.14793" lon="5.85852">
        <ele>863.8</ele>
        <time>2021-04-10T11:20:15Z</time>
      </trkpt>
      <trkpt lat="45.14792" lon="5.85851">
        <ele>863.4</ele>
        <time>2021-04-10T11:20:16Z</time>
      </trkpt>
      <trkpt lat="45.14791" lon="5.8585">
        <ele>863</ele>
        <time>2021-04-10T11:20:17Z</time>
      </trkpt>
      <trkpt lat="45.14789" lon="5.85849">
        <ele>862.2</ele>
        <time>2021-04-10T11:20:18Z</time>
      </trkpt>
      <trkpt lat="45.14788" lon="5.85848">
        <ele>861.8</ele>
        <time>2021-04-10T11:20:19Z</time>
      </trkpt>
      <trkpt lat="45.14786" lon="5.85847">
        <ele>861</ele>
        <time>2021-04-10T11:20:20Z</time>
      </trkpt>
      <trkpt lat="45.14785" lon="5.85846">
        <ele>860.2</ele>
        <time>2021-04-10T11:20:21Z</time>
      </trkpt>
      <trkpt lat="45.14783" lon="5.85845">
        <ele>860</ele>
        <time>2021-04-10T11:20:22Z</time>
      </trkpt>
      <trkpt lat="45.14782" lon="5.85844">
        <ele>859.4</ele>
        <time>2021-04-10T11:20:23Z</time>
      </trkpt>
      <trkpt lat="45.1478" lon="5.85843">
        <ele>859.6</ele>
        <time>2021-04-10T11:20:24Z</time>
      </trkpt>
      <trkpt lat="45.14779" lon="5.85842">
        <ele>859</ele>
        <time>2021-04-10T11:20:25Z</time>
      </trkpt>
      <trkpt lat="45.14778" lon="5.85841">
        <ele>858.4</ele>
        <time>2021-04-10T11:20:26Z</time>
      </trkpt>
      <trkpt lat="45.14776" lon="5.8584">
        <ele>858</ele>
        <time>2021-04-10T11:20:27Z</time>
      </trkpt>
      <trkpt lat="45.14775" lon="5.85839">
        <ele>857.2</ele>
        <time>2021-04-10T11:20:28Z</time>
      </trkpt>
      <trkpt lat="45.14773" lon="5.85838">
        <ele>856.6</ele>
        <time>2021-04-10T11:20:29Z</time>
      </trkpt>
      <trkpt lat="45.14772" lon="5.85837">
        <ele>856.2</ele>
        <time>2021-04-10T11:20:30Z</time>
      </trkpt>
      <trkpt lat="45.1477" lon="5.85836">
        <ele>855.8</ele>
        <time>2021-04-10T11:20:31Z</time>
      </trkpt>
      <trkpt lat="45.14769" lon="5.85835">
        <ele>855.4</ele>
        <time>2021-04-10T11:20:32Z</time>
      </trkpt>
      <trkpt lat="45.14767" lon="5.85834">
        <ele>854.8</ele>
        <time>2021-04-10T11:20:33Z</time>
      </trkpt>
      <trkpt lat="45.14766" lon="5.85833">
        <ele>854</ele>
        <time>2021-04-10T11:20:34Z</time>
      </trkpt>
      <trkpt lat="45.14764" lon="5.85833">
        <ele>853.6</ele>
        <time>2021-04-10T11:20:35Z</time>
      </trkpt>
      <trkpt lat="45.14763" lon="5.85832">
        <ele>853</ele>
        <time>2021-04-10T11:20:36Z</time>
      </trkpt>
      <trkpt lat="45.14762" lon="5.85831">
        <ele>852.2</ele>
        <time>2021-04-10T11:20:37Z</time>
      </trkpt>
      <trkpt lat="45.1476" lon="5.8583">
        <ele>852</ele>
        <time>2021-04-10T11:20:38Z</time>
      </trkpt>
      <trkpt lat="45.14759" lon="5.85829">
        <ele>851.4</ele>
        <time>2021-04-10T11:20:39Z</time>
      </trkpt>
      <trkpt lat="45.14757" lon="5.85828">
        <ele>851.2</ele>
        <time>2021-04-10T11:20:40Z</time>
      </trkpt>
      <trkpt lat="45.14756" lon="5.85827">
        <ele>850.8</ele>
        <time>2021-04-10T11:20:41Z</time>
      </trkpt>
      <trkpt lat="45.14754" lon="5.85826">
        <ele>850.6</ele>
        <time>2021-04-10T11:20:42Z</time>
      </trkpt>
      <trkpt lat="45.14753" lon="5.85825">
        <ele>850.2</ele>
        <time>2021-04-10T11:20:43Z</time>
      </trkpt>
      <trkpt lat="45.14751" lon="5.85824">
        <ele>850</ele>
        <time>2021-04-10T11:20:44Z</time>
      </trkpt>
      <trkpt lat="45.1475" lon="5.85823">
        <ele>849.2</ele>
        <time>2021-04-10T11:20:45Z</time>
      </trkpt>
      <trkpt lat="45.14748" lon="5.85822">
        <ele>848.8</ele>
        <time>2021-04-10T11:20:46Z</time>
      </trkpt>
      <trkpt lat="45.14747" lon="5.85821">
        <ele>848</ele>
        <time>2021-04-10T11:20:47Z</time>
      </trkpt>
      <trkpt lat="45.14746" lon="5.8582">
        <ele>847.6</ele>
        <time>2021-04-10T11:20:48Z</time>
      </trkpt>
      <trkpt lat="45.14744" lon="5.85819">
        <ele>846.8</ele>
        <time>2021-04-10T11:20:49Z</time>
      </trkpt>
      <trkpt lat="45.14743" lon="5.85818">
        <ele>846.4</ele>
        <time>2021-04-10T11:20:50Z</time>
      </trkpt>
      <trkpt lat="45.14741" lon="5.85817">
        <ele>846.2</ele>
        <time>2021-04-10T11:20:51Z</time>
      </trkpt>
      <trkpt lat="45.1474" lon="5.85816">
        <ele>845.4</ele>
        <time>2021-04-10T11:20:52Z</time>
      </trkpt>
      <trkpt lat="45.14738" lon="5.85815">
        <ele>845.6</ele>
        <time>2021-04-10T11:20:53Z</time>
      </trkpt>
      <trkpt lat="45.14737" lon="5.85814">
        <ele>845</ele>
        <time>2021-04-10T11:20:54Z</time>
      </trkpt>
      <trkpt lat="45.14735" lon="5.85813">
        <ele>845</ele>
        <time>2021-04-10T11:20:55Z</time>
      </trkpt>
      <trkpt lat="45.14734" lon="5.85812">
        <ele>844.4</ele>
        <time>2021-04-10T11:20:56Z</time>
      </trkpt>
      <trkpt lat="45.14732" lon="5.85812">
        <ele>844.2</ele>
        <time>2021-04-10T11:20:57Z</time>
      </trkpt>
      <trkpt lat="45.14731" lon="5.85811">
        <ele>843.2</ele>
        <time>2021-04-10T11:20:58Z</time>
      </trkpt>
      <trkpt lat="45.1473" lon="5.8581">
        <ele>843</ele>
        <time>2021-04-10T11:20:59Z</time>
      </trkpt>
      <trkpt lat="45.14728" lon="5.85809">
        <ele>842.2</ele>
        <time>2021-04-10T11:21:00Z</time>
      </trkpt>
      <trkpt lat="45.14727" lon="5.85808">
        <ele>841.4</ele>
        <time>2021-04-10T11:21:01Z</time>
      </trkpt>
      <trkpt lat="45.14725" lon="5.85807">
        <ele>840.4</ele>
        <time>2021-04-10T11:21:02Z</time>
      </trkpt>
      <trkpt lat="45.14724" lon="5.85806">
        <ele>839.8</ele>
        <time>2021-04-10T11:21:03Z</time>
      </trkpt>
      <trkpt lat="45.14722" lon="5.85805">
        <ele>838.8</ele>
        <time>2021-04-10T11:21:04Z</time>
      </trkpt>
      <trkpt lat="45.14721" lon="5.85804">
        <ele>838</ele>
        <time>2021-04-10T11:21:05Z</time>
      </trkpt>
      <trkpt lat="45.14719" lon="5.85803">
        <ele>838.2</ele>
        <time>2021-04-10T11:21:06Z</time>
      </trkpt>
      <trkpt lat="45.14718" lon="5.85802">
        <ele>837.4</ele>
        <time>2021-04-10T11:21:07Z</time>
      </trkpt>
      <trkpt lat="45.14716" lon="5.85801">
        <ele>837.4</ele>
        <time>2021-04-10T11:21:08Z</time>
      </trkpt>
      <trkpt lat="45.14715" lon="5.858">
        <ele>836.6</ele>
        <time>2021-04-10T11:21:09Z</time>
      </trkpt>
      <trkpt lat="45.14714" lon="5.85799">
        <ele>836.6</ele>
        <time>2021-04-10T11:21:10Z</time>
      </trkpt>
      <trkpt lat="45.14712" lon="5.85798">
        <ele>836</ele>
        <time>2021-04-10T11:21:11Z</time>
      </trkpt>
      <trkpt lat="45.14711" lon="5.85797">
        <ele>836.2</ele>
        <time>2021-04-10T11:21:12Z</time>
      </trkpt>
      <trkpt lat="45.14709" lon="5.85796">
        <ele>835.6</ele>
        <time>2021-04-10T11:21:13Z</time>
      </trkpt>
      <trkpt lat="45.14708" lon="5.85795">
        <ele>835.6</ele>
        <time>2021-04-10T11:21:14Z</time>
      </trkpt>
      <trkpt lat="45.14706" lon="5.85794">
        <ele>835</ele>
        <time>2021-04-10T11:21:15Z</time>
      </trkpt>
      <trkpt lat="45.14705" lon="5.85793">
        <ele>835</ele>
        <time>2021-04-10T11:21:16Z</time>
      </trkpt>
      <trkpt lat="45.14703" lon="5.85792">
        <ele>834.6</ele>
        <time>2021-04-10T11:21:17Z</time>
      </trkpt>
      <trkpt lat="45.14702" lon="5.85792">
        <ele>834.4</ele>
        <time>2021-04-10T11:21:18Z</time>
      </trkpt>
      <trkpt lat="45.147" lon="5.85791">
        <ele>833.8</ele>
        <time>2021-04-10T11:21:19Z</time>
      </trkpt>
      <trkpt lat="45.14606" lon="5.85729">
        <ele>833.6</ele>
        <time>2021-04-10T11:21:20Z</time>
      </trkpt>
      <trkpt lat="45.14611" lon="5.85717">
        <ele>833</ele>
        <time>2021-04-10T11:21:21Z</time>
      </trkpt>
      <trkpt lat="45.14614" lon="5.85712">
        <ele>832.8</ele>
        <time>2021-04-10T11:21:22Z</time>
      </trkpt>
      <trkpt lat="45.14618" lon="5.85707">
        <ele>832.2</ele>
        <time>2021-04-10T11:21:23Z</time>
      </trkpt>
      <trkpt lat="45.1462" lon="5.85702">
        <ele>832.2</ele>
        <time>2021-04-10T11:21:24Z</time>
      </trkpt>
      <trkpt lat="45.14622" lon="5.85698">
        <ele>831.6</ele>
        <time>2021-04-10T11:21:25Z</time>
      </trkpt>
      <trkpt lat="45.14627" lon="5.8569">
        <ele>831</ele>
        <time>2021-04-10T11:21:26Z</time>
      </trkpt>
      <trkpt lat="45.14629" lon="5.85686">
        <ele>830.4</ele>
        <time>2021-04-10T11:21:27Z</time>
      </trkpt>
      <trkpt lat="45.14631" lon="5.85682">
        <ele>830</ele>
        <time>2021-04-10T11:21:28Z</time>
      </trkpt>
      <trkpt lat="45.14632" lon="5.85678">
        <ele>829.4</ele>
        <time>2021-04-10T11:21:29Z</time>
      </trkpt>
      <trkpt lat="45.1463" lon="5.85672">
        <ele>828.6</ele>
        <time>2021-04-10T11:21:30Z</time>
      </trkpt>
      <trkpt lat="45.14627" lon="5.85665">
        <ele>828.6</ele>
        <time>2021-04-10T11:21:31Z</time>
      </trkpt>
      <trkpt lat="45.14627" lon="5.85664">
        <ele>828.2</ele>
        <time>2021-04-10T11:21:32Z</time>
      </trkpt>
      <trkpt lat="45.14626" lon="5.85662">
        <ele>828.4</ele>
        <time>2021-04-10T11:21:33Z</time>
      </trkpt>
      <trkpt lat="45.14626" lon="5.8566">
        <ele>828</ele>
        <time>2021-04-10T11:21:34Z</time>
      </trkpt>
      <trkpt lat="45.14625" lon="5.85659">
        <ele>828.2</ele>
        <time>2021-04-10T11:21:35Z</time>
      </trkpt>
      <trkpt lat="45.14625" lon="5.85657">
        <ele>827.6</ele>
        <time>2021-04-10T11:21:36Z</time>
      </trkpt>
      <trkpt lat="45.14622" lon="5.85649">
        <ele>827.8</ele>
        <time>2021-04-10T11:21:37Z</time>
      </trkpt>
      <trkpt lat="45.14622" lon="5.85643">
        <ele>827</ele>
        <time>2021-04-10T11:21:38Z</time>
      </trkpt>
      <trkpt lat="45.14622" lon="5.85639">
        <ele>827.2</ele>
        <time>2021-04-10T11:21:39Z</time>
      </trkpt>
      <trkpt lat="45.14623" lon="5.85635">
        <ele>826.6</ele>
        <time>2021-04-10T11:21:40Z</time>
      </trkpt>
      <trkpt lat="45.14623" lon="5.85631">
        <ele>826.6</ele>
        <time>2021-04-10T11:21:41Z</time>
      </trkpt>
      <trkpt lat="45.14624" lon="5.85626">
        <ele>826.2</ele>
        <time>2021-04-10T11:21:42Z</time>
      </trkpt>
      <trkpt lat="45.14624" lon="5.85622">
        <ele>826</ele>
        <time>2021-04-10T11:21:43Z</time>
      </trkpt>
      <trkpt lat="45.14624" lon="5.85617">
        <ele>825.6</ele>
        <time>2021-04-10T11:21:44Z</time>
      </trkpt>
      <trkpt lat="45.14624" lon="5.85613">
        <ele>825.6</ele>
        <time>2021-04-10T11:21:45Z</time>
      </trkpt>
      <trkpt lat="45.14625" lon="5.85609">
        <ele>825.6</ele>
        <time>2021-04-10T11:21:46Z</time>
      </trkpt>
      <trkpt lat="45.14625" lon="5.85604">
        <ele>825.4</ele>
        <time>2021-04-10T11:21:47Z</time>
      </trkpt>
      <trkpt lat="45.14625" lon="5.856">
        <ele>825.4</ele>
        <time>2021-04-10T11:21:48Z</time>
      </trkpt>
      <trkpt lat="45.14625" lon="5.85595">
        <ele>825</ele>
        <time>2021-04-10T11:21:49Z</time>
      </trkpt>
      <trkpt lat="45.14626" lon="5.85591">
        <ele>825</ele>
        <time>2021-04-10T11:21:50Z</time>
      </trkpt>
      <trkpt lat="45.14627" lon="5.85587">
        <ele>824.6</ele>
        <time>2021-04-10T11:21:51Z</time>
      </trkpt>
      <trkpt lat="45.14627" lon="5.85582">
        <ele>824.6</ele>
        <time>2021-04-10T11:21:52Z</time>
      </trkpt>
      <trkpt lat="45.14627" lon="5.85578">
        <ele>824.4</ele>
        <time>2021-04-10T11:21:53Z</time>
      </trkpt>
      <trkpt lat="45.14627" lon="5.85573">
        <ele>824.4</ele>
        <time>2021-04-10T11:21:54Z</time>
      </trkpt>
      <trkpt lat="45.14628" lon="5.85568">
        <ele>824</ele>
        <time>2021-04-10T11:21:55Z</time>
      </trkpt>
      <trkpt lat="45.14628" lon="5.85562">
        <ele>824.2</ele>
        <time>2021-04-10T11:21:56Z</time>
      </trkpt>
      <trkpt lat="45.14629" lon="5.85557">
        <ele>823.8</ele>
        <time>2021-04-10T11:21:57Z</time>
      </trkpt>
      <trkpt lat="45.14629" lon="5.85552">
        <ele>823.8</ele>
        <time>2021-04-10T11:21:58Z</time>
      </trkpt>
      <trkpt lat="45.14629" lon="5.85549">
        <ele>823.4</ele>
        <time>2021-04-10T11:21:59Z</time>
      </trkpt>
      <trkpt lat="45.14629" lon="5.85546">
        <ele>823.4</ele>
        <time>2021-04-10T11:22:00Z</time>
      </trkpt>
      <trkpt lat="45.14629" lon="5.85543">
        <ele>823</ele>
        <time>2021-04-10T11:22:01Z</time>
      </trkpt>
      <trkpt lat="45.14629" lon="5.8554">
        <ele>823.4</ele>
        <time>2021-04-10T11:22:02Z</time>
      </trkpt>
      <trkpt lat="45.14629" lon="5.85536">
        <ele>823.2</ele>
        <time>2021-04-10T11:22:03Z</time>
      </trkpt>
      <trkpt lat="45.14629" lon="5.85533">
        <ele>823.4</ele>
        <time>2021-04-10T11:22:04Z</time>
      </trkpt>
      <trkpt lat="45.14629" lon="5.85531">
        <ele>823.4</ele>
        <time>2021-04-10T11:22:05Z</time>
      </trkpt>
      <trkpt lat="45.14629" lon="5.85528">
        <ele>823.2</ele>
        <time>2021-04-10T11:22:06Z</time>
      </trkpt>
      <trkpt lat="45.1463" lon="5.85525">
        <ele>822.8</ele>
        <time>2021-04-10T11:22:07Z</time>
      </trkpt>
      <trkpt lat="45.1463" lon="5.85521">
        <ele>822.2</ele>
        <time>2021-04-10T11:22:08Z</time>
      </trkpt>
      <trkpt lat="45.14631" lon="5.85518">
        <ele>822.2</ele>
        <time>2021-04-10T11:22:09Z</time>
      </trkpt>
      <trkpt lat="45.14631" lon="5.85515">
        <ele>822</ele>
        <time>2021-04-10T11:22:10Z</time>
      </trkpt>
      <trkpt lat="45.14631" lon="5.85512">
        <ele>822.2</ele>
        <time>2021-04-10T11:22:11Z</time>
      </trkpt>
      <trkpt lat="45.14632" lon="5.8551">
        <ele>821.8</ele>
        <time>2021-04-10T11:22:12Z</time>
      </trkpt>
      <trkpt lat="45.14632" lon="5.85507">
        <ele>821.8</ele>
        <time>2021-04-10T11:22:13Z</time>
      </trkpt>
      <trkpt lat="45.14633" lon="5.85504">
        <ele>821.4</ele>
        <time>2021-04-10T11:22:14Z</time>
      </trkpt>
      <trkpt lat="45.14635" lon="5.85494">
        <ele>821.4</ele>
        <time>2021-04-10T11:22:15Z</time>
      </trkpt>
      <trkpt lat="45.14635" lon="5.85491">
        <ele>821</ele>
        <time>2021-04-10T11:22:16Z</time>
      </trkpt>
      <trkpt lat="45.14636" lon="5.85487">
        <ele>821</ele>
        <time>2021-04-10T11:22:17Z</time>
      </trkpt>
      <trkpt lat="45.14636" lon="5.85487">
        <ele>820.6</ele>
        <time>2021-04-10T11:22:18Z</time>
      </trkpt>
      <trkpt lat="45.14636" lon="5.85487">
        <ele>820.2</ele>
        <time>2021-04-10T11:22:19Z</time>
      </trkpt>
      <trkpt lat="45.14636" lon="5.85487">
        <ele>819.8</ele>
        <time>2021-04-10T11:22:20Z</time>
      </trkpt>
      <trkpt lat="45.14636" lon="5.85487">
        <ele>819.8</ele>
        <time>2021-04-10T11:22:21Z</time>
      </trkpt>
      <trkpt lat="45.14637" lon="5.85483">
        <ele>819.4</ele>
        <time>2021-04-10T11:22:22Z</time>
      </trkpt>
      <trkpt lat="45.14638" lon="5.85479">
        <ele>819.4</ele>
        <time>2021-04-10T11:22:23Z</time>
      </trkpt>
      <trkpt lat="45.14639" lon="5.85475">
        <ele>819.2</ele>
        <time>2021-04-10T11:22:24Z</time>
      </trkpt>
      <trkpt lat="45.14641" lon="5.85471">
        <ele>819</ele>
        <time>2021-04-10T11:22:25Z</time>
      </trkpt>
      <trkpt lat="45.14642" lon="5.85468">
        <ele>818.6</ele>
        <time>2021-04-10T11:22:26Z</time>
      </trkpt>
      <trkpt lat="45.14644" lon="5.85462">
        <ele>818.6</ele>
        <time>2021-04-10T11:22:27Z</time>
      </trkpt>
      <trkpt lat="45.14644" lon="5.85462">
        <ele>818.4</ele>
        <time>2021-04-10T11:22:28Z</time>
      </trkpt>
      <trkpt lat="45.14644" lon="5.85462">
        <ele>818.4</ele>
        <time>2021-04-10T11:22:29Z</time>
      </trkpt>
      <trkpt lat="45.14644" lon="5.85462">
        <ele>818</ele>
        <time>2021-04-10T11:22:30Z</time>
      </trkpt>
      <trkpt lat="45.14645" lon="5.85457">
        <ele>817.6</ele>
        <time>2021-04-10T11:22:31Z</time>
      </trkpt>
      <trkpt lat="45.14645" lon="5.85453">
        <ele>817.2</ele>
        <time>2021-04-10T11:22:32Z</time>
      </trkpt>
      <trkpt lat="45.14646" lon="5.85448">
        <ele>816.6</ele>
        <time>2021-04-10T11:22:33Z</time>
      </trkpt>
      <trkpt lat="45.14647" lon="5.85444">
        <ele>816.4</ele>
        <time>2021-04-10T11:22:34Z</time>
      </trkpt>
      <trkpt lat="45.14647" lon="5.85439">
        <ele>816</ele>
        <time>2021-04-10T11:22:35Z</time>
      </trkpt>
      <trkpt lat="45.14648" lon="5.85433">
        <ele>816</ele>
        <time>2021-04-10T11:22:36Z</time>
      </trkpt>
      <trkpt lat="45.14648" lon="5.85433">
        <ele>815.8</ele>
        <time>2021-04-10T11:22:37Z</time>
      </trkpt>
      <trkpt lat="45.14648" lon="5.85433">
        <ele>815.8</ele>
        <time>2021-04-10T11:22:38Z</time>
      </trkpt>
      <trkpt lat="45.14648" lon="5.85433">
        <ele>815.2</ele>
        <time>2021-04-10T11:22:39Z</time>
      </trkpt>
      <trkpt lat="45.14648" lon="5.85428">
        <ele>815</ele>
        <time>2021-04-10T11:22:40Z</time>
      </trkpt>
      <trkpt lat="45.14647" lon="5.85424">
        <ele>814.4</ele>
        <time>2021-04-10T11:22:41Z</time>
      </trkpt>
      <trkpt lat="45.14647" lon="5.85419">
        <ele>813.8</ele>
        <time>2021-04-10T11:22:42Z</time>
      </trkpt>
      <trkpt lat="45.14646" lon="5.85415">
        <ele>812.6</ele>
        <time>2021-04-10T11:22:43Z</time>
      </trkpt>
      <trkpt lat="45.14646" lon="5.8541">
        <ele>811.8</ele>
        <time>2021-04-10T11:22:44Z</time>
      </trkpt>
      <trkpt lat="45.14644" lon="5.85403">
        <ele>811.2</ele>
        <time>2021-04-10T11:22:45Z</time>
      </trkpt>
      <trkpt lat="45.14643" lon="5.85401">
        <ele>810.6</ele>
        <time>2021-04-10T11:22:46Z</time>
      </trkpt>
      <trkpt lat="45.14642" lon="5.85398">
        <ele>810.8</ele>
        <time>2021-04-10T11:22:47Z</time>
      </trkpt>
      <trkpt lat="45.14641" lon="5.85396">
        <ele>810.2</ele>
        <time>2021-04-10T11:22:48Z</time>
      </trkpt>
      <trkpt lat="45.1464" lon="5.85394">
        <ele>810</ele>
        <time>2021-04-10T11:22:49Z</time>
      </trkpt>
      <trkpt lat="45.14637" lon="5.85385">
        <ele>809.6</ele>
        <time>2021-04-10T11:22:50Z</time>
      </trkpt>
      <trkpt lat="45.14636" lon="5.85382">
        <ele>809.6</ele>
        <time>2021-04-10T11:22:51Z</time>
      </trkpt>
      <trkpt lat="45.14635" lon="5.85379">
        <ele>808.8</ele>
        <time>2021-04-10T11:22:52Z</time>
      </trkpt>
      <trkpt lat="45.14635" lon="5.85379">
        <ele>808.8</ele>
        <time>2021-04-10T11:22:53Z</time>
      </trkpt>
      <trkpt lat="45.14635" lon="5.85379">
        <ele>808.4</ele>
        <time>2021-04-10T11:22:54Z</time>
      </trkpt>
      <trkpt lat="45.14635" lon="5.85379">
        <ele>808.4</ele>
        <time>2021-04-10T11:22:55Z</time>
      </trkpt>
      <trkpt lat="45.14635" lon="5.85379">
        <ele>807.8</ele>
        <time>2021-04-10T11:22:56Z</time>
      </trkpt>
      <trkpt lat="45.14633" lon="5.85375">
        <ele>807.6</ele>
        <time>2021-04-10T11:22:57Z</time>
      </trkpt>
      <trkpt lat="45.14631" lon="5.85371">
        <ele>807</ele>
        <time>2021-04-10T11:22:58Z</time>
      </trkpt>
      <trkpt lat="45.1463" lon="5.85368">
        <ele>806.6</ele>
        <time>2021-04-10T11:22:59Z</time>
      </trkpt>
      <trkpt lat="45.14628" lon="5.85364">
        <ele>806</ele>
        <time>2021-04-10T11:23:00Z</time>
      </trkpt>
      <trkpt lat="45.14626" lon="5.85361">
        <ele>805.4</ele>
        <time>2021-04-10T11:23:01Z</time>
      </trkpt>
      <trkpt lat="45.14622" lon="5.85352">
        <ele>805</ele>
        <time>2021-04-10T11:23:02Z</time>
      </trkpt>
      <trkpt lat="45.14621" lon="5.8535">
        <ele>804.2</ele>
        <time>2021-04-10T11:23:03Z</time>
      </trkpt>
      <trkpt lat="45.14619" lon="5.85347">
        <ele>804.2</ele>
        <time>2021-04-10T11:23:04Z</time>
      </trkpt>
      <trkpt lat="45.14618" lon="5.85344">
        <ele>803.6</ele>
        <time>2021-04-10T11:23:05Z</time>
      </trkpt>
      <trkpt lat="45.14618" lon="5.85344">
        <ele>803.6</ele>
        <time>2021-04-10T11:23:06Z</time>
      </trkpt>
      <trkpt lat="45.14618" lon="5.85344">
        <ele>802.8</ele>
        <time>2021-04-10T11:23:07Z</time>
      </trkpt>
      <trkpt lat="45.14618" lon="5.85344">
        <ele>802.8</ele>
        <time>2021-04-10T11:23:08Z</time>
      </trkpt>
      <trkpt lat="45.14618" lon="5.85344">
        <ele>802</ele>
        <time>2021-04-10T11:23:09Z</time>
      </trkpt>
      <trkpt lat="45.14617" lon="5.85342">
        <ele>801.8</ele>
        <time>2021-04-10T11:23:10Z</time>
      </trkpt>
      <trkpt lat="45.14616" lon="5.85339">
        <ele>801</ele>
        <time>2021-04-10T11:23:11Z</time>
      </trkpt>
      <trkpt lat="45.14615" lon="5.85337">
        <ele>800.6</ele>
        <time>2021-04-10T11:23:12Z</time>
      </trkpt>
      <trkpt lat="45.14614" lon="5.85335">
        <ele>799.8</ele>
        <time>2021-04-10T11:23:13Z</time>
      </trkpt>
      <trkpt lat="45.14613" lon="5.85332">
        <ele>799.2</ele>
        <time>2021-04-10T11:23:14Z</time>
      </trkpt>
      <trkpt lat="45.1461" lon="5.85323">
        <ele>798.2</ele>
        <time>2021-04-10T11:23:15Z</time>
      </trkpt>
      <trkpt lat="45.14607" lon="5.85314">
        <ele>797.6</ele>
        <time>2021-04-10T11:23:16Z</time>
      </trkpt>
      <trkpt lat="45.14606" lon="5.85311">
        <ele>796.6</ele>
        <time>2021-04-10T11:23:17Z</time>
      </trkpt>
      <trkpt lat="45.14605" lon="5.85308">
        <ele>795.6</ele>
        <time>2021-04-10T11:23:18Z</time>
      </trkpt>
      <trkpt lat="45.14605" lon="5.85305">
        <ele>795.4</ele>
        <time>2021-04-10T11:23:19Z</time>
      </trkpt>
      <trkpt lat="45.14604" lon="5.85301">
        <ele>794.8</ele>
        <time>2021-04-10T11:23:20Z</time>
      </trkpt>
      <trkpt lat="45.14604" lon="5.85298">
        <ele>794.6</ele>
        <time>2021-04-10T11:23:21Z</time>
      </trkpt>
      <trkpt lat="45.14603" lon="5.85295">
        <ele>794</ele>
        <time>2021-04-10T11:23:22Z</time>
      </trkpt>
      <trkpt lat="45.14603" lon="5.85295">
        <ele>793.8</ele>
        <time>2021-04-10T11:23:23Z</time>
      </trkpt>
      <trkpt lat="45.14603" lon="5.85295">
        <ele>793.2</ele>
        <time>2021-04-10T11:23:24Z</time>
      </trkpt>
      <trkpt lat="45.14603" lon="5.85295">
        <ele>793</ele>
        <time>2021-04-10T11:23:25Z</time>
      </trkpt>
      <trkpt lat="45.14603" lon="5.85295">
        <ele>792.4</ele>
        <time>2021-04-10T11:23:26Z</time>
      </trkpt>
      <trkpt lat="45.14601" lon="5.85291">
        <ele>792</ele>
        <time>2021-04-10T11:23:27Z</time>
      </trkpt>
      <trkpt lat="45.146" lon="5.85287">
        <ele>791.4</ele>
        <time>2021-04-10T11:23:28Z</time>
      </trkpt>
      <trkpt lat="45.14598" lon="5.85283">
        <ele>790.6</ele>
        <time>2021-04-10T11:23:29Z</time>
      </trkpt>
      <trkpt lat="45.14596" lon="5.85279">
        <ele>790.4</ele>
        <time>2021-04-10T11:23:30Z</time>
      </trkpt>
      <trkpt lat="45.14594" lon="5.85275">
        <ele>789.8</ele>
        <time>2021-04-10T11:23:31Z</time>
      </trkpt>
      <trkpt lat="45.1459" lon="5.85268">
        <ele>789.8</ele>
        <time>2021-04-10T11:23:32Z</time>
      </trkpt>
      <trkpt lat="45.14588" lon="5.85265">
        <ele>789</ele>
        <time>2021-04-10T11:23:33Z</time>
      </trkpt>
      <trkpt lat="45.14586" lon="5.85263">
        <ele>789.2</ele>
        <time>2021-04-10T11:23:34Z</time>
      </trkpt>
      <trkpt lat="45.14585" lon="5.85261">
        <ele>788.6</ele>
        <time>2021-04-10T11:23:35Z</time>
      </trkpt>
      <trkpt lat="45.14583" lon="5.85259">
        <ele>788.6</ele>
        <time>2021-04-10T11:23:36Z</time>
      </trkpt>
      <trkpt lat="45.14582" lon="5.85257">
        <ele>788.2</ele>
        <time>2021-04-10T11:23:37Z</time>
      </trkpt>
      <trkpt lat="45.1458" lon="5.85254">
        <ele>788.2</ele>
        <time>2021-04-10T11:23:38Z</time>
      </trkpt>
      <trkpt lat="45.14579" lon="5.85252">
        <ele>787.6</ele>
        <time>2021-04-10T11:23:39Z</time>
      </trkpt>
      <trkpt lat="45.14577" lon="5.85249">
        <ele>787.8</ele>
        <time>2021-04-10T11:23:40Z</time>
      </trkpt>
      <trkpt lat="45.14577" lon="5.85247">
        <ele>787</ele>
        <time>2021-04-10T11:23:41Z</time>
      </trkpt>
      <trkpt lat="45.14576" lon="5.85245">
        <ele>787</ele>
        <time>2021-04-10T11:23:42Z</time>
      </trkpt>
      <trkpt lat="45.14576" lon="5.85243">
        <ele>786.4</ele>
        <time>2021-04-10T11:23:43Z</time>
      </trkpt>
      <trkpt lat="45.14575" lon="5.85241">
        <ele>786.2</ele>
        <time>2021-04-10T11:23:44Z</time>
      </trkpt>
      <trkpt lat="45.14575" lon="5.85239">
        <ele>785.8</ele>
        <time>2021-04-10T11:23:45Z</time>
      </trkpt>
      <trkpt lat="45.14573" lon="5.85229">
        <ele>785.6</ele>
        <time>2021-04-10T11:23:46Z</time>
      </trkpt>
      <trkpt lat="45.14572" lon="5.85226">
        <ele>785</ele>
        <time>2021-04-10T11:23:47Z</time>
      </trkpt>
      <trkpt lat="45.14571" lon="5.85222">
        <ele>784.8</ele>
        <time>2021-04-10T11:23:48Z</time>
      </trkpt>
      <trkpt lat="45.1457" lon="5.85218">
        <ele>784.4</ele>
        <time>2021-04-10T11:23:49Z</time>
      </trkpt>
      <trkpt lat="45.14569" lon="5.85216">
        <ele>784</ele>
        <time>2021-04-10T11:23:50Z</time>
      </trkpt>
      <trkpt lat="45.14569" lon="5.85213">
        <ele>783.4</ele>
        <time>2021-04-10T11:23:51Z</time>
      </trkpt>
      <trkpt lat="45.14569" lon="5.85211">
        <ele>782.8</ele>
        <time>2021-04-10T11:23:52Z</time>
      </trkpt>
      <trkpt lat="45.14568" lon="5.85208">
        <ele>782.4</ele>
        <time>2021-04-10T11:23:53Z</time>
      </trkpt>
      <trkpt lat="45.14568" lon="5.85206">
        <ele>782</ele>
        <time>2021-04-10T11:23:54Z</time>
      </trkpt>
      <trkpt lat="45.14568" lon="5.85204">
        <ele>782.6</ele>
        <time>2021-04-10T11:23:55Z</time>
      </trkpt>
      <trkpt lat="45.14568" lon="5.85202">
        <ele>782.6</ele>
        <time>2021-04-10T11:23:56Z</time>
      </trkpt>
      <trkpt lat="45.14568" lon="5.852">
        <ele>782.6</ele>
        <time>2021-04-10T11:23:57Z</time>
      </trkpt>
      <trkpt lat="45.14569" lon="5.85199">
        <ele>782</ele>
        <time>2021-04-10T11:23:58Z</time>
      </trkpt>
      <trkpt lat="45.14569" lon="5.85191">
        <ele>782</ele>
        <time>2021-04-10T11:23:59Z</time>
      </trkpt>
      <trkpt lat="45.1457" lon="5.85188">
        <ele>781.6</ele>
        <time>2021-04-10T11:24:00Z</time>
      </trkpt>
      <trkpt lat="45.1457" lon="5.85185">
        <ele>781.6</ele>
        <time>2021-04-10T11:24:01Z</time>
      </trkpt>
      <trkpt lat="45.1457" lon="5.85182">
        <ele>781.4</ele>
        <time>2021-04-10T11:24:02Z</time>
      </trkpt>
      <trkpt lat="45.14571" lon="5.85172">
        <ele>780.8</ele>
        <time>2021-04-10T11:24:03Z</time>
      </trkpt>
      <trkpt lat="45.14571" lon="5.8517">
        <ele>780.2</ele>
        <time>2021-04-10T11:24:04Z</time>
      </trkpt>
      <trkpt lat="45.14571" lon="5.85168">
        <ele>779.2</ele>
        <time>2021-04-10T11:24:05Z</time>
      </trkpt>
      <trkpt lat="45.14572" lon="5.85162">
        <ele>778.4</ele>
        <time>2021-04-10T11:24:06Z</time>
      </trkpt>
      <trkpt lat="45.14572" lon="5.85159">
        <ele>778</ele>
        <time>2021-04-10T11:24:07Z</time>
      </trkpt>
      <trkpt lat="45.14572" lon="5.85156">
        <ele>778</ele>
        <time>2021-04-10T11:24:08Z</time>
      </trkpt>
      <trkpt lat="45.14572" lon="5.85153">
        <ele>777.4</ele>
        <time>2021-04-10T11:24:09Z</time>
      </trkpt>
      <trkpt lat="45.14572" lon="5.85149">
        <ele>777</ele>
        <time>2021-04-10T11:24:10Z</time>
      </trkpt>
      <trkpt lat="45.14572" lon="5.85149">
        <ele>776</ele>
        <time>2021-04-10T11:24:11Z</time>
      </trkpt>
      <trkpt lat="45.14572" lon="5.85149">
        <ele>775.2</ele>
        <time>2021-04-10T11:24:12Z</time>
      </trkpt>
      <trkpt lat="45.14572" lon="5.85149">
        <ele>774.2</ele>
        <time>2021-04-10T11:24:13Z</time>
      </trkpt>
      <trkpt lat="45.14571" lon="5.85145">
        <ele>773.8</ele>
        <time>2021-04-10T11:24:14Z</time>
      </trkpt>
      <trkpt lat="45.14571" lon="5.8514">
        <ele>773.8</ele>
        <time>2021-04-10T11:24:15Z</time>
      </trkpt>
      <trkpt lat="45.14571" lon="5.85136">
        <ele>773.2</ele>
        <time>2021-04-10T11:24:16Z</time>
      </trkpt>
      <trkpt lat="45.14571" lon="5.85131">
        <ele>772.8</ele>
        <time>2021-04-10T11:24:17Z</time>
      </trkpt>
      <trkpt lat="45.14571" lon="5.85127">
        <ele>772</ele>
        <time>2021-04-10T11:24:18Z</time>
      </trkpt>
      <trkpt lat="45.1457" lon="5.85119">
        <ele>771.2</ele>
        <time>2021-04-10T11:24:19Z</time>
      </trkpt>
      <trkpt lat="45.1457" lon="5.85119">
        <ele>770.4</ele>
        <time>2021-04-10T11:24:20Z</time>
      </trkpt>
      <trkpt lat="45.1457" lon="5.85119">
        <ele>769.8</ele>
        <time>2021-04-10T11:24:21Z</time>
      </trkpt>
      <trkpt lat="45.1457" lon="5.85119">
        <ele>769</ele>
        <time>2021-04-10T11:24:22Z</time>
      </trkpt>
      <trkpt lat="45.1457" lon="5.85119">
        <ele>768.6</ele>
        <time>2021-04-10T11:24:23Z</time>
      </trkpt>
      <trkpt lat="45.1457" lon="5.85118">
        <ele>768.6</ele>
        <time>2021-04-10T11:24:24Z</time>
      </trkpt>
      <trkpt lat="45.1457" lon="5.85117">
        <ele>768.2</ele>
        <time>2021-04-10T11:24:25Z</time>
      </trkpt>
      <trkpt lat="45.1457" lon="5.85116">
        <ele>767.8</ele>
        <time>2021-04-10T11:24:26Z</time>
      </trkpt>
      <trkpt lat="45.1457" lon="5.85115">
        <ele>767.6</ele>
        <time>2021-04-10T11:24:27Z</time>
      </trkpt>
      <trkpt lat="45.1457" lon="5.85115">
        <ele>767.4</ele>
        <time>2021-04-10T11:24:28Z</time>
      </trkpt>
      <trkpt lat="45.1457" lon="5.85114">
        <ele>767.2</ele>
        <time>2021-04-10T11:24:29Z</time>
      </trkpt>
      <trkpt lat="45.1457" lon="5.85113">
        <ele>767</ele>
        <time>2021-04-10T11:24:30Z</time>
      </trkpt>
      <trkpt lat="45.1457" lon="5.85112">
        <ele>766.8</ele>
        <time>2021-04-10T11:24:31Z</time>
      </trkpt>
      <trkpt lat="45.1457" lon="5.85111">
        <ele>766.6</ele>
        <time>2021-04-10T11:24:32Z</time>
      </trkpt>
      <trkpt lat="45.14571" lon="5.8511">
        <ele>766.8</ele>
        <time>2021-04-10T11:24:33Z</time>
      </trkpt>
      <trkpt lat="45.14571" lon="5.85109">
        <ele>766.8</ele>
        <time>2021-04-10T11:24:34Z</time>
      </trkpt>
      <trkpt lat="45.14571" lon="5.85108">
        <ele>767</ele>
        <time>2021-04-10T11:24:35Z</time>
      </trkpt>
      <trkpt lat="45.14571" lon="5.85108">
        <ele>767</ele>
        <time>2021-04-10T11:24:36Z</time>
      </trkpt>
      <trkpt lat="45.14572" lon="5.85106">
        <ele>767.2</ele>
        <time>2021-04-10T11:24:37Z</time>
      </trkpt>
      <trkpt lat="45.14571" lon="5.85104">
        <ele>767.2</ele>
        <time>2021-04-10T11:24:38Z</time>
      </trkpt>
      <trkpt lat="45.14571" lon="5.85103">
        <ele>767.6</ele>
        <time>2021-04-10T11:24:39Z</time>
      </trkpt>
      <trkpt lat="45.14571" lon="5.85102">
        <ele>767.6</ele>
        <time>2021-04-10T11:24:40Z</time>
      </trkpt>
      <trkpt lat="45.1457" lon="5.85101">
        <ele>767.6</ele>
        <time>2021-04-10T11:24:41Z</time>
      </trkpt>
      <trkpt lat="45.1457" lon="5.85101">
        <ele>767.8</ele>
        <time>2021-04-10T11:24:42Z</time>
      </trkpt>
      <trkpt lat="45.1457" lon="5.85101">
        <ele>768</ele>
        <time>2021-04-10T11:24:43Z</time>
      </trkpt>
      <trkpt lat="45.1457" lon="5.85101">
        <ele>768.2</ele>
        <time>2021-04-10T11:24:44Z</time>
      </trkpt>
      <trkpt lat="45.1457" lon="5.85101">
        <ele>767.8</ele>
        <time>2021-04-10T11:24:45Z</time>
      </trkpt>
      <trkpt lat="45.1457" lon="5.85098">
        <ele>767.6</ele>
        <time>2021-04-10T11:24:46Z</time>
      </trkpt>
      <trkpt lat="45.14569" lon="5.85096">
        <ele>767.4</ele>
        <time>2021-04-10T11:24:47Z</time>
      </trkpt>
      <trkpt lat="45.14569" lon="5.85094">
        <ele>767.4</ele>
        <time>2021-04-10T11:24:48Z</time>
      </trkpt>
      <trkpt lat="45.14568" lon="5.85092">
        <ele>766.8</ele>
        <time>2021-04-10T11:24:49Z</time>
      </trkpt>
      <trkpt lat="45.14568" lon="5.85089">
        <ele>766</ele>
        <time>2021-04-10T11:24:50Z</time>
      </trkpt>
      <trkpt lat="45.14567" lon="5.85087">
        <ele>765.4</ele>
        <time>2021-04-10T11:24:51Z</time>
      </trkpt>
      <trkpt lat="45.14567" lon="5.85085">
        <ele>765</ele>
        <time>2021-04-10T11:24:52Z</time>
      </trkpt>
      <trkpt lat="45.14566" lon="5.85082">
        <ele>764.4</ele>
        <time>2021-04-10T11:24:53Z</time>
      </trkpt>
      <trkpt lat="45.14566" lon="5.8508">
        <ele>764</ele>
        <time>2021-04-10T11:24:54Z</time>
      </trkpt>
      <trkpt lat="45.14565" lon="5.85078">
        <ele>763</ele>
        <time>2021-04-10T11:24:55Z</time>
      </trkpt>
      <trkpt lat="45.14565" lon="5.85075">
        <ele>763.2</ele>
        <time>2021-04-10T11:24:56Z</time>
      </trkpt>
      <trkpt lat="45.14565" lon="5.85073">
        <ele>762</ele>
        <time>2021-04-10T11:24:57Z</time>
      </trkpt>
      <trkpt lat="45.14564" lon="5.8507">
        <ele>762</ele>
        <time>2021-04-10T11:24:58Z</time>
      </trkpt>
      <trkpt lat="45.14564" lon="5.85068">
        <ele>761.4</ele>
        <time>2021-04-10T11:24:59Z</time>
      </trkpt>
      <trkpt lat="45.14563" lon="5.85065">
        <ele>760.8</ele>
        <time>2021-04-10T11:25:00Z</time>
      </trkpt>
      <trkpt lat="45.14563" lon="5.85062">
        <ele>760.2</ele>
        <time>2021-04-10T11:25:01Z</time>
      </trkpt>
      <trkpt lat="45.14563" lon="5.8506">
        <ele>759.6</ele>
        <time>2021-04-10T11:25:02Z</time>
      </trkpt>
      <trkpt lat="45.14561" lon="5.85052">
        <ele>758.6</ele>
        <time>2021-04-10T11:25:03Z</time>
      </trkpt>
      <trkpt lat="45.1456" lon="5.85043">
        <ele>758.2</ele>
        <time>2021-04-10T11:25:04Z</time>
      </trkpt>
      <trkpt lat="45.14559" lon="5.85035">
        <ele>758</ele>
        <time>2021-04-10T11:25:05Z</time>
      </trkpt>
      <trkpt lat="45.14558" lon="5.85027">
        <ele>757.6</ele>
        <time>2021-04-10T11:25:06Z</time>
      </trkpt>
      <trkpt lat="45.14556" lon="5.85019">
        <ele>757.2</ele>
        <time>2021-04-10T11:25:07Z</time>
      </trkpt>
      <trkpt lat="45.14555" lon="5.85011">
        <ele>756.6</ele>
        <time>2021-04-10T11:25:08Z</time>
      </trkpt>
      <trkpt lat="45.14554" lon="5.85003">
        <ele>755.8</ele>
        <time>2021-04-10T11:25:09Z</time>
      </trkpt>
      <trkpt lat="45.14545" lon="5.84947">
        <ele>755.2</ele>
        <time>2021-04-10T11:25:10Z</time>
      </trkpt>
      <trkpt lat="45.14544" lon="5.84945">
        <ele>754.2</ele>
        <time>2021-04-10T11:25:11Z</time>
      </trkpt>
      <trkpt lat="45.14543" lon="5.84943">
        <ele>754.2</ele>
        <time>2021-04-10T11:25:12Z</time>
      </trkpt>
      <trkpt lat="45.14541" lon="5.84938">
        <ele>753.4</ele>
        <time>2021-04-10T11:25:13Z</time>
      </trkpt>
      <trkpt lat="45.14541" lon="5.84935">
        <ele>753.6</ele>
        <time>2021-04-10T11:25:14Z</time>
      </trkpt>
      <trkpt lat="45.14541" lon="5.84933">
        <ele>753.2</ele>
        <time>2021-04-10T11:25:15Z</time>
      </trkpt>
      <trkpt lat="45.1454" lon="5.8493">
        <ele>753.2</ele>
        <time>2021-04-10T11:25:16Z</time>
      </trkpt>
      <trkpt lat="45.1454" lon="5.84928">
        <ele>752.4</ele>
        <time>2021-04-10T11:25:17Z</time>
      </trkpt>
      <trkpt lat="45.14539" lon="5.84918">
        <ele>751.8</ele>
        <time>2021-04-10T11:25:18Z</time>
      </trkpt>
      <trkpt lat="45.14538" lon="5.84916">
        <ele>751.2</ele>
        <time>2021-04-10T11:25:19Z</time>
      </trkpt>
      <trkpt lat="45.14538" lon="5.84915">
        <ele>750.6</ele>
        <time>2021-04-10T11:25:20Z</time>
      </trkpt>
      <trkpt lat="45.14537" lon="5.84908">
        <ele>750.2</ele>
        <time>2021-04-10T11:25:21Z</time>
      </trkpt>
      <trkpt lat="45.14537" lon="5.84908">
        <ele>749</ele>
        <time>2021-04-10T11:25:22Z</time>
      </trkpt>
      <trkpt lat="45.14537" lon="5.84908">
        <ele>749</ele>
        <time>2021-04-10T11:25:23Z</time>
      </trkpt>
      <trkpt lat="45.14537" lon="5.84908">
        <ele>748.4</ele>
        <time>2021-04-10T11:25:24Z</time>
      </trkpt>
      <trkpt lat="45.14537" lon="5.84904">
        <ele>748.4</ele>
        <time>2021-04-10T11:25:25Z</time>
      </trkpt>
      <trkpt lat="45.14537" lon="5.849">
        <ele>747.6</ele>
        <time>2021-04-10T11:25:26Z</time>
      </trkpt>
      <trkpt lat="45.14537" lon="5.84897">
        <ele>747.6</ele>
        <time>2021-04-10T11:25:27Z</time>
      </trkpt>
      <trkpt lat="45.14537" lon="5.84893">
        <ele>746.8</ele>
        <time>2021-04-10T11:25:28Z</time>
      </trkpt>
      <trkpt lat="45.14537" lon="5.84889">
        <ele>746.6</ele>
        <time>2021-04-10T11:25:29Z</time>
      </trkpt>
      <trkpt lat="45.14537" lon="5.84885">
        <ele>746</ele>
        <time>2021-04-10T11:25:30Z</time>
      </trkpt>
      <trkpt lat="45.14538" lon="5.84883">
        <ele>745.8</ele>
        <time>2021-04-10T11:25:31Z</time>
      </trkpt>
      <trkpt lat="45.14538" lon="5.8488">
        <ele>745.2</ele>
        <time>2021-04-10T11:25:32Z</time>
      </trkpt>
      <trkpt lat="45.14538" lon="5.84877">
        <ele>744.4</ele>
        <time>2021-04-10T11:25:33Z</time>
      </trkpt>
      <trkpt lat="45.14539" lon="5.84875">
        <ele>743.6</ele>
        <time>2021-04-10T11:25:34Z</time>
      </trkpt>
      <trkpt lat="45.14541" lon="5.84864">
        <ele>742.4</ele>
        <time>2021-04-10T11:25:35Z</time>
      </trkpt>
      <trkpt lat="45.14542" lon="5.84858">
        <ele>742</ele>
        <time>2021-04-10T11:25:36Z</time>
      </trkpt>
      <trkpt lat="45.14542" lon="5.84854">
        <ele>741.2</ele>
        <time>2021-04-10T11:25:37Z</time>
      </trkpt>
      <trkpt lat="45.14543" lon="5.84849">
        <ele>741</ele>
        <time>2021-04-10T11:25:38Z</time>
      </trkpt>
      <trkpt lat="45.14543" lon="5.84845">
        <ele>740.2</ele>
        <time>2021-04-10T11:25:39Z</time>
      </trkpt>
      <trkpt lat="45.14543" lon="5.84842">
        <ele>740.2</ele>
        <time>2021-04-10T11:25:40Z</time>
      </trkpt>
      <trkpt lat="45.14543" lon="5.84839">
        <ele>739.6</ele>
        <time>2021-04-10T11:25:41Z</time>
      </trkpt>
      <trkpt lat="45.14543" lon="5.84836">
        <ele>739.6</ele>
        <time>2021-04-10T11:25:42Z</time>
      </trkpt>
      <trkpt lat="45.14544" lon="5.84833">
        <ele>738.8</ele>
        <time>2021-04-10T11:25:43Z</time>
      </trkpt>
      <trkpt lat="45.14545" lon="5.8483">
        <ele>738.4</ele>
        <time>2021-04-10T11:25:44Z</time>
      </trkpt>
      <trkpt lat="45.14545" lon="5.84827">
        <ele>737.6</ele>
        <time>2021-04-10T11:25:45Z</time>
      </trkpt>
      <trkpt lat="45.14546" lon="5.84824">
        <ele>737.2</ele>
        <time>2021-04-10T11:25:46Z</time>
      </trkpt>
      <trkpt lat="45.14548" lon="5.84811">
        <ele>736.6</ele>
        <time>2021-04-10T11:25:47Z</time>
      </trkpt>
      <trkpt lat="45.14549" lon="5.84808">
        <ele>736</ele>
        <time>2021-04-10T11:25:48Z</time>
      </trkpt>
      <trkpt lat="45.1455" lon="5.84805">
        <ele>735.2</ele>
        <time>2021-04-10T11:25:49Z</time>
      </trkpt>
      <trkpt lat="45.14552" lon="5.84797">
        <ele>734.6</ele>
        <time>2021-04-10T11:25:50Z</time>
      </trkpt>
      <trkpt lat="45.14554" lon="5.84789">
        <ele>734.6</ele>
        <time>2021-04-10T11:25:51Z</time>
      </trkpt>
      <trkpt lat="45.14555" lon="5.84783">
        <ele>734.4</ele>
        <time>2021-04-10T11:25:52Z</time>
      </trkpt>
      <trkpt lat="45.14557" lon="5.8478">
        <ele>734.2</ele>
        <time>2021-04-10T11:25:53Z</time>
      </trkpt>
      <trkpt lat="45.14558" lon="5.84776">
        <ele>733.6</ele>
        <time>2021-04-10T11:25:54Z</time>
      </trkpt>
      <trkpt lat="45.14559" lon="5.84772">
        <ele>733.4</ele>
        <time>2021-04-10T11:25:55Z</time>
      </trkpt>
      <trkpt lat="45.14561" lon="5.84769">
        <ele>732.8</ele>
        <time>2021-04-10T11:25:56Z</time>
      </trkpt>
      <trkpt lat="45.14564" lon="5.84766">
        <ele>731.8</ele>
        <time>2021-04-10T11:25:57Z</time>
      </trkpt>
      <trkpt lat="45.14566" lon="5.84762">
        <ele>731.4</ele>
        <time>2021-04-10T11:25:58Z</time>
      </trkpt>
      <trkpt lat="45.14569" lon="5.84758">
        <ele>731.4</ele>
        <time>2021-04-10T11:25:59Z</time>
      </trkpt>
      <trkpt lat="45.14571" lon="5.84754">
        <ele>731.4</ele>
        <time>2021-04-10T11:26:00Z</time>
      </trkpt>
      <trkpt lat="45.14574" lon="5.84751">
        <ele>731</ele>
        <time>2021-04-10T11:26:01Z</time>
      </trkpt>
      <trkpt lat="45.14576" lon="5.84748">
        <ele>730.8</ele>
        <time>2021-04-10T11:26:02Z</time>
      </trkpt>
      <trkpt lat="45.14578" lon="5.84746">
        <ele>730.4</ele>
        <time>2021-04-10T11:26:03Z</time>
      </trkpt>
      <trkpt lat="45.1458" lon="5.84744">
        <ele>730.2</ele>
        <time>2021-04-10T11:26:04Z</time>
      </trkpt>
      <trkpt lat="45.14582" lon="5.84742">
        <ele>729.8</ele>
        <time>2021-04-10T11:26:05Z</time>
      </trkpt>
      <trkpt lat="45.14582" lon="5.8474">
        <ele>729.8</ele>
        <time>2021-04-10T11:26:06Z</time>
      </trkpt>
      <trkpt lat="45.14583" lon="5.84739">
        <ele>729</ele>
        <time>2021-04-10T11:26:07Z</time>
      </trkpt>
      <trkpt lat="45.14583" lon="5.84737">
        <ele>729</ele>
        <time>2021-04-10T11:26:08Z</time>
      </trkpt>
      <trkpt lat="45.14586" lon="5.84732">
        <ele>728.2</ele>
        <time>2021-04-10T11:26:09Z</time>
      </trkpt>
      <trkpt lat="45.14586" lon="5.84732">
        <ele>728.4</ele>
        <time>2021-04-10T11:26:10Z</time>
      </trkpt>
      <trkpt lat="45.14586" lon="5.84732">
        <ele>727.6</ele>
        <time>2021-04-10T11:26:11Z</time>
      </trkpt>
      <trkpt lat="45.14586" lon="5.84732">
        <ele>727.4</ele>
        <time>2021-04-10T11:26:12Z</time>
      </trkpt>
      <trkpt lat="45.14587" lon="5.84729">
        <ele>726.8</ele>
        <time>2021-04-10T11:26:13Z</time>
      </trkpt>
      <trkpt lat="45.14587" lon="5.84726">
        <ele>726.8</ele>
        <time>2021-04-10T11:26:14Z</time>
      </trkpt>
      <trkpt lat="45.14588" lon="5.84724">
        <ele>726.4</ele>
        <time>2021-04-10T11:26:15Z</time>
      </trkpt>
      <trkpt lat="45.14589" lon="5.84721">
        <ele>726</ele>
        <time>2021-04-10T11:26:16Z</time>
      </trkpt>
      <trkpt lat="45.1459" lon="5.84718">
        <ele>725.2</ele>
        <time>2021-04-10T11:26:17Z</time>
      </trkpt>
      <trkpt lat="45.1459" lon="5.84716">
        <ele>724.4</ele>
        <time>2021-04-10T11:26:18Z</time>
      </trkpt>
      <trkpt lat="45.14591" lon="5.84713">
        <ele>723.6</ele>
        <time>2021-04-10T11:26:19Z</time>
      </trkpt>
      <trkpt lat="45.14592" lon="5.84711">
        <ele>722.6</ele>
        <time>2021-04-10T11:26:20Z</time>
      </trkpt>
      <trkpt lat="45.14593" lon="5.84708">
        <ele>721.8</ele>
        <time>2021-04-10T11:26:21Z</time>
      </trkpt>
      <trkpt lat="45.14593" lon="5.84706">
        <ele>721.2</ele>
        <time>2021-04-10T11:26:22Z</time>
      </trkpt>
      <trkpt lat="45.14593" lon="5.84702">
        <ele>720.8</ele>
        <time>2021-04-10T11:26:23Z</time>
      </trkpt>
      <trkpt lat="45.14594" lon="5.84697">
        <ele>720.4</ele>
        <time>2021-04-10T11:26:24Z</time>
      </trkpt>
      <trkpt lat="45.14594" lon="5.84693">
        <ele>719.8</ele>
        <time>2021-04-10T11:26:25Z</time>
      </trkpt>
      <trkpt lat="45.14594" lon="5.84689">
        <ele>719.2</ele>
        <time>2021-04-10T11:26:26Z</time>
      </trkpt>
      <trkpt lat="45.14594" lon="5.84685">
        <ele>718.2</ele>
        <time>2021-04-10T11:26:27Z</time>
      </trkpt>
      <trkpt lat="45.14598" lon="5.84675">
        <ele>717.6</ele>
        <time>2021-04-10T11:26:28Z</time>
      </trkpt>
      <trkpt lat="45.146" lon="5.84672">
        <ele>717.2</ele>
        <time>2021-04-10T11:26:29Z</time>
      </trkpt>
      <trkpt lat="45.14602" lon="5.8467">
        <ele>717</ele>
        <time>2021-04-10T11:26:30Z</time>
      </trkpt>
      <trkpt lat="45.14604" lon="5.84667">
        <ele>716.6</ele>
        <time>2021-04-10T11:26:31Z</time>
      </trkpt>
      <trkpt lat="45.14604" lon="5.84667">
        <ele>716.4</ele>
        <time>2021-04-10T11:26:32Z</time>
      </trkpt>
      <trkpt lat="45.14604" lon="5.84667">
        <ele>716</ele>
        <time>2021-04-10T11:26:33Z</time>
      </trkpt>
      <trkpt lat="45.14604" lon="5.84667">
        <ele>715.4</ele>
        <time>2021-04-10T11:26:34Z</time>
      </trkpt>
      <trkpt lat="45.14605" lon="5.84664">
        <ele>714.6</ele>
        <time>2021-04-10T11:26:35Z</time>
      </trkpt>
      <trkpt lat="45.14606" lon="5.84661">
        <ele>713.6</ele>
        <time>2021-04-10T11:26:36Z</time>
      </trkpt>
      <trkpt lat="45.14607" lon="5.84659">
        <ele>713.6</ele>
        <time>2021-04-10T11:26:37Z</time>
      </trkpt>
      <trkpt lat="45.14609" lon="5.84656">
        <ele>713.2</ele>
        <time>2021-04-10T11:26:38Z</time>
      </trkpt>
      <trkpt lat="45.1461" lon="5.84653">
        <ele>712.8</ele>
        <time>2021-04-10T11:26:39Z</time>
      </trkpt>
      <trkpt lat="45.14611" lon="5.8465">
        <ele>712.2</ele>
        <time>2021-04-10T11:26:40Z</time>
      </trkpt>
      <trkpt lat="45.14612" lon="5.84648">
        <ele>711.4</ele>
        <time>2021-04-10T11:26:41Z</time>
      </trkpt>
      <trkpt lat="45.14613" lon="5.84645">
        <ele>710.8</ele>
        <time>2021-04-10T11:26:42Z</time>
      </trkpt>
      <trkpt lat="45.14614" lon="5.84642">
        <ele>710.6</ele>
        <time>2021-04-10T11:26:43Z</time>
      </trkpt>
      <trkpt lat="45.14617" lon="5.84638">
        <ele>710.6</ele>
        <time>2021-04-10T11:26:44Z</time>
      </trkpt>
      <trkpt lat="45.14618" lon="5.84635">
        <ele>710.4</ele>
        <time>2021-04-10T11:26:45Z</time>
      </trkpt>
      <trkpt lat="45.1462" lon="5.84633">
        <ele>710.2</ele>
        <time>2021-04-10T11:26:46Z</time>
      </trkpt>
      <trkpt lat="45.14621" lon="5.8463">
        <ele>709.6</ele>
        <time>2021-04-10T11:26:47Z</time>
      </trkpt>
      <trkpt lat="45.14623" lon="5.84628">
        <ele>709.4</ele>
        <time>2021-04-10T11:26:48Z</time>
      </trkpt>
      <trkpt lat="45.14625" lon="5.84623">
        <ele>708.6</ele>
        <time>2021-04-10T11:26:49Z</time>
      </trkpt>
      <trkpt lat="45.14626" lon="5.84621">
        <ele>708</ele>
        <time>2021-04-10T11:26:50Z</time>
      </trkpt>
      <trkpt lat="45.14627" lon="5.84618">
        <ele>708.2</ele>
        <time>2021-04-10T11:26:51Z</time>
      </trkpt>
      <trkpt lat="45.14628" lon="5.84615">
        <ele>707.8</ele>
        <time>2021-04-10T11:26:52Z</time>
      </trkpt>
      <trkpt lat="45.1463" lon="5.8461">
        <ele>708</ele>
        <time>2021-04-10T11:26:53Z</time>
      </trkpt>
      <trkpt lat="45.1463" lon="5.84607">
        <ele>707.6</ele>
        <time>2021-04-10T11:26:54Z</time>
      </trkpt>
      <trkpt lat="45.14631" lon="5.84604">
        <ele>707.4</ele>
        <time>2021-04-10T11:26:55Z</time>
      </trkpt>
      <trkpt lat="45.14632" lon="5.84601">
        <ele>707</ele>
        <time>2021-04-10T11:26:56Z</time>
      </trkpt>
      <trkpt lat="45.14633" lon="5.84597">
        <ele>706.6</ele>
        <time>2021-04-10T11:26:57Z</time>
      </trkpt>
      <trkpt lat="45.14633" lon="5.84594">
        <ele>705.8</ele>
        <time>2021-04-10T11:26:58Z</time>
      </trkpt>
      <trkpt lat="45.14634" lon="5.84591">
        <ele>705.4</ele>
        <time>2021-04-10T11:26:59Z</time>
      </trkpt>
      <trkpt lat="45.14634" lon="5.8459">
        <ele>704.6</ele>
        <time>2021-04-10T11:27:00Z</time>
      </trkpt>
      <trkpt lat="45.14635" lon="5.84588">
        <ele>703.6</ele>
        <time>2021-04-10T11:27:01Z</time>
      </trkpt>
      <trkpt lat="45.14635" lon="5.84587">
        <ele>703</ele>
        <time>2021-04-10T11:27:02Z</time>
      </trkpt>
      <trkpt lat="45.14636" lon="5.84585">
        <ele>702</ele>
        <time>2021-04-10T11:27:03Z</time>
      </trkpt>
      <trkpt lat="45.14636" lon="5.84584">
        <ele>701.8</ele>
        <time>2021-04-10T11:27:04Z</time>
      </trkpt>
      <trkpt lat="45.14638" lon="5.84577">
        <ele>701.2</ele>
        <time>2021-04-10T11:27:05Z</time>
      </trkpt>
      <trkpt lat="45.1464" lon="5.8457">
        <ele>701</ele>
        <time>2021-04-10T11:27:06Z</time>
      </trkpt>
      <trkpt lat="45.14642" lon="5.84563">
        <ele>700.4</ele>
        <time>2021-04-10T11:27:07Z</time>
      </trkpt>
      <trkpt lat="45.14644" lon="5.84555">
        <ele>700</ele>
        <time>2021-04-10T11:27:08Z</time>
      </trkpt>
      <trkpt lat="45.14646" lon="5.84552">
        <ele>700</ele>
        <time>2021-04-10T11:27:09Z</time>
      </trkpt>
      <trkpt lat="45.14647" lon="5.84548">
        <ele>699.8</ele>
        <time>2021-04-10T11:27:10Z</time>
      </trkpt>
      <trkpt lat="45.1465" lon="5.84538">
        <ele>699.6</ele>
        <time>2021-04-10T11:27:11Z</time>
      </trkpt>
      <trkpt lat="45.1465" lon="5.84536">
        <ele>698.8</ele>
        <time>2021-04-10T11:27:12Z</time>
      </trkpt>
      <trkpt lat="45.14651" lon="5.84534">
        <ele>698.6</ele>
        <time>2021-04-10T11:27:13Z</time>
      </trkpt>
      <trkpt lat="45.14653" lon="5.84525">
        <ele>698.2</ele>
        <time>2021-04-10T11:27:14Z</time>
      </trkpt>
      <trkpt lat="45.14656" lon="5.8452">
        <ele>698</ele>
        <time>2021-04-10T11:27:15Z</time>
      </trkpt>
      <trkpt lat="45.14657" lon="5.84517">
        <ele>697.6</ele>
        <time>2021-04-10T11:27:16Z</time>
      </trkpt>
      <trkpt lat="45.14658" lon="5.84515">
        <ele>697.2</ele>
        <time>2021-04-10T11:27:17Z</time>
      </trkpt>
      <trkpt lat="45.1466" lon="5.84512">
        <ele>696.4</ele>
        <time>2021-04-10T11:27:18Z</time>
      </trkpt>
      <trkpt lat="45.14662" lon="5.84508">
        <ele>696</ele>
        <time>2021-04-10T11:27:19Z</time>
      </trkpt>
      <trkpt lat="45.14664" lon="5.84506">
        <ele>696</ele>
        <time>2021-04-10T11:27:20Z</time>
      </trkpt>
      <trkpt lat="45.14666" lon="5.84504">
        <ele>695.6</ele>
        <time>2021-04-10T11:27:21Z</time>
      </trkpt>
      <trkpt lat="45.14668" lon="5.84502">
        <ele>695.4</ele>
        <time>2021-04-10T11:27:22Z</time>
      </trkpt>
      <trkpt lat="45.14668" lon="5.84501">
        <ele>694.4</ele>
        <time>2021-04-10T11:27:23Z</time>
      </trkpt>
      <trkpt lat="45.14669" lon="5.845">
        <ele>693.6</ele>
        <time>2021-04-10T11:27:24Z</time>
      </trkpt>
      <trkpt lat="45.1467" lon="5.84498">
        <ele>693.6</ele>
        <time>2021-04-10T11:27:25Z</time>
      </trkpt>
      <trkpt lat="45.14673" lon="5.84493">
        <ele>693</ele>
        <time>2021-04-10T11:27:26Z</time>
      </trkpt>
      <trkpt lat="45.14674" lon="5.84492">
        <ele>693</ele>
        <time>2021-04-10T11:27:27Z</time>
      </trkpt>
      <trkpt lat="45.14674" lon="5.84491">
        <ele>692.6</ele>
        <time>2021-04-10T11:27:28Z</time>
      </trkpt>
      <trkpt lat="45.14675" lon="5.84489">
        <ele>692.2</ele>
        <time>2021-04-10T11:27:29Z</time>
      </trkpt>
      <trkpt lat="45.14676" lon="5.84488">
        <ele>691.6</ele>
        <time>2021-04-10T11:27:30Z</time>
      </trkpt>
      <trkpt lat="45.14679" lon="5.84482">
        <ele>690.8</ele>
        <time>2021-04-10T11:27:31Z</time>
      </trkpt>
      <trkpt lat="45.14682" lon="5.84477">
        <ele>690.4</ele>
        <time>2021-04-10T11:27:32Z</time>
      </trkpt>
      <trkpt lat="45.14685" lon="5.84472">
        <ele>690</ele>
        <time>2021-04-10T11:27:33Z</time>
      </trkpt>
      <trkpt lat="45.14689" lon="5.84466">
        <ele>690</ele>
        <time>2021-04-10T11:27:34Z</time>
      </trkpt>
      <trkpt lat="45.14692" lon="5.84461">
        <ele>689.8</ele>
        <time>2021-04-10T11:27:35Z</time>
      </trkpt>
      <trkpt lat="45.14693" lon="5.84459">
        <ele>689.6</ele>
        <time>2021-04-10T11:27:36Z</time>
      </trkpt>
      <trkpt lat="45.14693" lon="5.84458">
        <ele>689</ele>
        <time>2021-04-10T11:27:37Z</time>
      </trkpt>
      <trkpt lat="45.14694" lon="5.84457">
        <ele>688.8</ele>
        <time>2021-04-10T11:27:38Z</time>
      </trkpt>
      <trkpt lat="45.14697" lon="5.84452">
        <ele>688</ele>
        <time>2021-04-10T11:27:39Z</time>
      </trkpt>
      <trkpt lat="45.14699" lon="5.84448">
        <ele>687.6</ele>
        <time>2021-04-10T11:27:40Z</time>
      </trkpt>
      <trkpt lat="45.14701" lon="5.84444">
        <ele>687.6</ele>
        <time>2021-04-10T11:27:41Z</time>
      </trkpt>
      <trkpt lat="45.14704" lon="5.8444">
        <ele>687.4</ele>
        <time>2021-04-10T11:27:42Z</time>
      </trkpt>
      <trkpt lat="45.14706" lon="5.84436">
        <ele>687.4</ele>
        <time>2021-04-10T11:27:43Z</time>
      </trkpt>
      <trkpt lat="45.14709" lon="5.84432">
        <ele>687</ele>
        <time>2021-04-10T11:27:44Z</time>
      </trkpt>
      <trkpt lat="45.1471" lon="5.84429">
        <ele>687.2</ele>
        <time>2021-04-10T11:27:45Z</time>
      </trkpt>
      <trkpt lat="45.14712" lon="5.84426">
        <ele>686.6</ele>
        <time>2021-04-10T11:27:46Z</time>
      </trkpt>
      <trkpt lat="45.14717" lon="5.84419">
        <ele>686.6</ele>
        <time>2021-04-10T11:27:47Z</time>
      </trkpt>
      <trkpt lat="45.14719" lon="5.84418">
        <ele>686</ele>
        <time>2021-04-10T11:27:48Z</time>
      </trkpt>
      <trkpt lat="45.1472" lon="5.84417">
        <ele>685.8</ele>
        <time>2021-04-10T11:27:49Z</time>
      </trkpt>
      <trkpt lat="45.14724" lon="5.84413">
        <ele>685</ele>
        <time>2021-04-10T11:27:50Z</time>
      </trkpt>
      <trkpt lat="45.14727" lon="5.84411">
        <ele>684.4</ele>
        <time>2021-04-10T11:27:51Z</time>
      </trkpt>
      <trkpt lat="45.1473" lon="5.8441">
        <ele>684.2</ele>
        <time>2021-04-10T11:27:52Z</time>
      </trkpt>
      <trkpt lat="45.14733" lon="5.84408">
        <ele>683.6</ele>
        <time>2021-04-10T11:27:53Z</time>
      </trkpt>
      <trkpt lat="45.14733" lon="5.84408">
        <ele>683.8</ele>
        <time>2021-04-10T11:27:54Z</time>
      </trkpt>
      <trkpt lat="45.14733" lon="5.84408">
        <ele>683.4</ele>
        <time>2021-04-10T11:27:55Z</time>
      </trkpt>
      <trkpt lat="45.14733" lon="5.84408">
        <ele>683.4</ele>
        <time>2021-04-10T11:27:56Z</time>
      </trkpt>
      <trkpt lat="45.14734" lon="5.84407">
        <ele>682.8</ele>
        <time>2021-04-10T11:27:57Z</time>
      </trkpt>
      <trkpt lat="45.14736" lon="5.84406">
        <ele>682.6</ele>
        <time>2021-04-10T11:27:58Z</time>
      </trkpt>
      <trkpt lat="45.14738" lon="5.84405">
        <ele>682</ele>
        <time>2021-04-10T11:27:59Z</time>
      </trkpt>
      <trkpt lat="45.1474" lon="5.84404">
        <ele>681.4</ele>
        <time>2021-04-10T11:28:00Z</time>
      </trkpt>
      <trkpt lat="45.14741" lon="5.84403">
        <ele>681.6</ele>
        <time>2021-04-10T11:28:01Z</time>
      </trkpt>
      <trkpt lat="45.14751" lon="5.84396">
        <ele>681.2</ele>
        <time>2021-04-10T11:28:02Z</time>
      </trkpt>
      <trkpt lat="45.14752" lon="5.84395">
        <ele>681.2</ele>
        <time>2021-04-10T11:28:03Z</time>
      </trkpt>
      <trkpt lat="45.14752" lon="5.84394">
        <ele>680.8</ele>
        <time>2021-04-10T11:28:04Z</time>
      </trkpt>
      <trkpt lat="45.14753" lon="5.84393">
        <ele>680.6</ele>
        <time>2021-04-10T11:28:05Z</time>
      </trkpt>
      <trkpt lat="45.14754" lon="5.84392">
        <ele>680.2</ele>
        <time>2021-04-10T11:28:06Z</time>
      </trkpt>
      <trkpt lat="45.14756" lon="5.84388">
        <ele>680.2</ele>
        <time>2021-04-10T11:28:07Z</time>
      </trkpt>
      <trkpt lat="45.14758" lon="5.84384">
        <ele>679.6</ele>
        <time>2021-04-10T11:28:08Z</time>
      </trkpt>
      <trkpt lat="45.14761" lon="5.8438">
        <ele>679.4</ele>
        <time>2021-04-10T11:28:09Z</time>
      </trkpt>
      <trkpt lat="45.14763" lon="5.84377">
        <ele>678.8</ele>
        <time>2021-04-10T11:28:10Z</time>
      </trkpt>
      <trkpt lat="45.14767" lon="5.84368">
        <ele>678.4</ele>
        <time>2021-04-10T11:28:11Z</time>
      </trkpt>
      <trkpt lat="45.14769" lon="5.84363">
        <ele>678.4</ele>
        <time>2021-04-10T11:28:12Z</time>
      </trkpt>
      <trkpt lat="45.1477" lon="5.84361">
        <ele>678</ele>
        <time>2021-04-10T11:28:13Z</time>
      </trkpt>
      <trkpt lat="45.14771" lon="5.84358">
        <ele>678</ele>
        <time>2021-04-10T11:28:14Z</time>
      </trkpt>
      <trkpt lat="45.14773" lon="5.84355">
        <ele>677.6</ele>
        <time>2021-04-10T11:28:15Z</time>
      </trkpt>
      <trkpt lat="45.14774" lon="5.84351">
        <ele>677.4</ele>
        <time>2021-04-10T11:28:16Z</time>
      </trkpt>
      <trkpt lat="45.14775" lon="5.84349">
        <ele>677.2</ele>
        <time>2021-04-10T11:28:17Z</time>
      </trkpt>
      <trkpt lat="45.14777" lon="5.84347">
        <ele>676.8</ele>
        <time>2021-04-10T11:28:18Z</time>
      </trkpt>
      <trkpt lat="45.14778" lon="5.84345">
        <ele>676.2</ele>
        <time>2021-04-10T11:28:19Z</time>
      </trkpt>
      <trkpt lat="45.14778" lon="5.84344">
        <ele>675.2</ele>
        <time>2021-04-10T11:28:20Z</time>
      </trkpt>
      <trkpt lat="45.14778" lon="5.84342">
        <ele>675</ele>
        <time>2021-04-10T11:28:21Z</time>
      </trkpt>
      <trkpt lat="45.14778" lon="5.84341">
        <ele>674.6</ele>
        <time>2021-04-10T11:28:22Z</time>
      </trkpt>
      <trkpt lat="45.14779" lon="5.8434">
        <ele>674.4</ele>
        <time>2021-04-10T11:28:23Z</time>
      </trkpt>
      <trkpt lat="45.1478" lon="5.84335">
        <ele>673.8</ele>
        <time>2021-04-10T11:28:24Z</time>
      </trkpt>
      <trkpt lat="45.14781" lon="5.8433">
        <ele>673.4</ele>
        <time>2021-04-10T11:28:25Z</time>
      </trkpt>
      <trkpt lat="45.14782" lon="5.84325">
        <ele>672.6</ele>
        <time>2021-04-10T11:28:26Z</time>
      </trkpt>
      <trkpt lat="45.14783" lon="5.84319">
        <ele>671.8</ele>
        <time>2021-04-10T11:28:27Z</time>
      </trkpt>
      <trkpt lat="45.14785" lon="5.84315">
        <ele>671.2</ele>
        <time>2021-04-10T11:28:28Z</time>
      </trkpt>
      <trkpt lat="45.14787" lon="5.8431">
        <ele>670.8</ele>
        <time>2021-04-10T11:28:29Z</time>
      </trkpt>
      <trkpt lat="45.14789" lon="5.84305">
        <ele>670.8</ele>
        <time>2021-04-10T11:28:30Z</time>
      </trkpt>
      <trkpt lat="45.1479" lon="5.84303">
        <ele>670.4</ele>
        <time>2021-04-10T11:28:31Z</time>
      </trkpt>
      <trkpt lat="45.1479" lon="5.843">
        <ele>670.2</ele>
        <time>2021-04-10T11:28:32Z</time>
      </trkpt>
      <trkpt lat="45.14791" lon="5.84297">
        <ele>669.8</ele>
        <time>2021-04-10T11:28:33Z</time>
      </trkpt>
      <trkpt lat="45.14792" lon="5.84288">
        <ele>669</ele>
        <time>2021-04-10T11:28:34Z</time>
      </trkpt>
      <trkpt lat="45.14792" lon="5.84283">
        <ele>668.6</ele>
        <time>2021-04-10T11:28:35Z</time>
      </trkpt>
      <trkpt lat="45.14793" lon="5.8428">
        <ele>668.2</ele>
        <time>2021-04-10T11:28:36Z</time>
      </trkpt>
      <trkpt lat="45.14793" lon="5.84278">
        <ele>668</ele>
        <time>2021-04-10T11:28:37Z</time>
      </trkpt>
      <trkpt lat="45.14793" lon="5.84275">
        <ele>667.6</ele>
        <time>2021-04-10T11:28:38Z</time>
      </trkpt>
      <trkpt lat="45.14793" lon="5.84275">
        <ele>667.4</ele>
        <time>2021-04-10T11:28:39Z</time>
      </trkpt>
      <trkpt lat="45.14793" lon="5.84275">
        <ele>667</ele>
        <time>2021-04-10T11:28:40Z</time>
      </trkpt>
      <trkpt lat="45.14793" lon="5.84275">
        <ele>666.6</ele>
        <time>2021-04-10T11:28:41Z</time>
      </trkpt>
      <trkpt lat="45.14792" lon="5.8427">
        <ele>666</ele>
        <time>2021-04-10T11:28:42Z</time>
      </trkpt>
      <trkpt lat="45.14791" lon="5.84265">
        <ele>665.2</ele>
        <time>2021-04-10T11:28:43Z</time>
      </trkpt>
      <trkpt lat="45.14791" lon="5.84261">
        <ele>665.2</ele>
        <time>2021-04-10T11:28:44Z</time>
      </trkpt>
      <trkpt lat="45.1479" lon="5.84256">
        <ele>664.6</ele>
        <time>2021-04-10T11:28:45Z</time>
      </trkpt>
      <trkpt lat="45.14789" lon="5.84252">
        <ele>664.4</ele>
        <time>2021-04-10T11:28:46Z</time>
      </trkpt>
      <trkpt lat="45.14787" lon="5.84243">
        <ele>663.8</ele>
        <time>2021-04-10T11:28:47Z</time>
      </trkpt>
      <trkpt lat="45.14787" lon="5.84238">
        <ele>663.6</ele>
        <time>2021-04-10T11:28:48Z</time>
      </trkpt>
      <trkpt lat="45.14787" lon="5.84234">
        <ele>663</ele>
        <time>2021-04-10T11:28:49Z</time>
      </trkpt>
      <trkpt lat="45.14787" lon="5.84231">
        <ele>662.2</ele>
        <time>2021-04-10T11:28:50Z</time>
      </trkpt>
      <trkpt lat="45.14787" lon="5.84228">
        <ele>662</ele>
        <time>2021-04-10T11:28:51Z</time>
      </trkpt>
      <trkpt lat="45.14789" lon="5.84225">
        <ele>661.4</ele>
        <time>2021-04-10T11:28:52Z</time>
      </trkpt>
      <trkpt lat="45.1479" lon="5.84221">
        <ele>661.6</ele>
        <time>2021-04-10T11:28:53Z</time>
      </trkpt>
      <trkpt lat="45.14791" lon="5.84218">
        <ele>661.2</ele>
        <time>2021-04-10T11:28:54Z</time>
      </trkpt>
      <trkpt lat="45.14792" lon="5.84216">
        <ele>661.2</ele>
        <time>2021-04-10T11:28:55Z</time>
      </trkpt>
      <trkpt lat="45.14792" lon="5.84214">
        <ele>660.6</ele>
        <time>2021-04-10T11:28:56Z</time>
      </trkpt>
      <trkpt lat="45.14793" lon="5.84212">
        <ele>660.2</ele>
        <time>2021-04-10T11:28:57Z</time>
      </trkpt>
      <trkpt lat="45.14794" lon="5.84206">
        <ele>659.6</ele>
        <time>2021-04-10T11:28:58Z</time>
      </trkpt>
      <trkpt lat="45.14795" lon="5.84202">
        <ele>658.8</ele>
        <time>2021-04-10T11:28:59Z</time>
      </trkpt>
      <trkpt lat="45.14796" lon="5.84199">
        <ele>658.8</ele>
        <time>2021-04-10T11:29:00Z</time>
      </trkpt>
      <trkpt lat="45.14797" lon="5.84195">
        <ele>658.6</ele>
        <time>2021-04-10T11:29:01Z</time>
      </trkpt>
      <trkpt lat="45.14801" lon="5.84185">
        <ele>658.6</ele>
        <time>2021-04-10T11:29:02Z</time>
      </trkpt>
      <trkpt lat="45.14803" lon="5.84182">
        <ele>658.2</ele>
        <time>2021-04-10T11:29:03Z</time>
      </trkpt>
      <trkpt lat="45.14805" lon="5.8418">
        <ele>658</ele>
        <time>2021-04-10T11:29:04Z</time>
      </trkpt>
      <trkpt lat="45.14806" lon="5.84177">
        <ele>657.6</ele>
        <time>2021-04-10T11:29:05Z</time>
      </trkpt>
      <trkpt lat="45.14808" lon="5.84175">
        <ele>657</ele>
        <time>2021-04-10T11:29:06Z</time>
      </trkpt>
      <trkpt lat="45.14811" lon="5.8417">
        <ele>656.6</ele>
        <time>2021-04-10T11:29:07Z</time>
      </trkpt>
      <trkpt lat="45.14811" lon="5.8417">
        <ele>656.2</ele>
        <time>2021-04-10T11:29:08Z</time>
      </trkpt>
      <trkpt lat="45.14811" lon="5.8417">
        <ele>656.2</ele>
        <time>2021-04-10T11:29:09Z</time>
      </trkpt>
      <trkpt lat="45.14812" lon="5.84168">
        <ele>655.8</ele>
        <time>2021-04-10T11:29:10Z</time>
      </trkpt>
      <trkpt lat="45.14813" lon="5.84166">
        <ele>655.6</ele>
        <time>2021-04-10T11:29:11Z</time>
      </trkpt>
      <trkpt lat="45.14814" lon="5.84165">
        <ele>655</ele>
        <time>2021-04-10T11:29:12Z</time>
      </trkpt>
      <trkpt lat="45.14814" lon="5.84163">
        <ele>654.4</ele>
        <time>2021-04-10T11:29:13Z</time>
      </trkpt>
      <trkpt lat="45.14815" lon="5.84162">
        <ele>654.2</ele>
        <time>2021-04-10T11:29:14Z</time>
      </trkpt>
      <trkpt lat="45.14816" lon="5.8416">
        <ele>653.6</ele>
        <time>2021-04-10T11:29:15Z</time>
      </trkpt>
      <trkpt lat="45.14817" lon="5.84158">
        <ele>653.6</ele>
        <time>2021-04-10T11:29:16Z</time>
      </trkpt>
      <trkpt lat="45.14818" lon="5.84157">
        <ele>653.2</ele>
        <time>2021-04-10T11:29:17Z</time>
      </trkpt>
      <trkpt lat="45.1482" lon="5.84155">
        <ele>652.8</ele>
        <time>2021-04-10T11:29:18Z</time>
      </trkpt>
      <trkpt lat="45.14821" lon="5.84153">
        <ele>652.2</ele>
        <time>2021-04-10T11:29:19Z</time>
      </trkpt>
      <trkpt lat="45.14823" lon="5.84151">
        <ele>651.6</ele>
        <time>2021-04-10T11:29:20Z</time>
      </trkpt>
      <trkpt lat="45.14824" lon="5.8415">
        <ele>651</ele>
        <time>2021-04-10T11:29:21Z</time>
      </trkpt>
      <trkpt lat="45.14826" lon="5.84148">
        <ele>650.6</ele>
        <time>2021-04-10T11:29:22Z</time>
      </trkpt>
      <trkpt lat="45.14828" lon="5.84146">
        <ele>650.8</ele>
        <time>2021-04-10T11:29:23Z</time>
      </trkpt>
      <trkpt lat="45.14829" lon="5.84144">
        <ele>650.4</ele>
        <time>2021-04-10T11:29:24Z</time>
      </trkpt>
      <trkpt lat="45.14831" lon="5.84142">
        <ele>650.4</ele>
        <time>2021-04-10T11:29:25Z</time>
      </trkpt>
      <trkpt lat="45.14832" lon="5.8414">
        <ele>650</ele>
        <time>2021-04-10T11:29:26Z</time>
      </trkpt>
      <trkpt lat="45.14834" lon="5.84136">
        <ele>649.8</ele>
        <time>2021-04-10T11:29:27Z</time>
      </trkpt>
      <trkpt lat="45.14836" lon="5.84133">
        <ele>649.2</ele>
        <time>2021-04-10T11:29:28Z</time>
      </trkpt>
      <trkpt lat="45.14838" lon="5.8413">
        <ele>648.6</ele>
        <time>2021-04-10T11:29:29Z</time>
      </trkpt>
      <trkpt lat="45.1484" lon="5.84127">
        <ele>648.2</ele>
        <time>2021-04-10T11:29:30Z</time>
      </trkpt>
      <trkpt lat="45.14842" lon="5.84123">
        <ele>647.6</ele>
        <time>2021-04-10T11:29:31Z</time>
      </trkpt>
      <trkpt lat="45.14845" lon="5.84119">
        <ele>647.8</ele>
        <time>2021-04-10T11:29:32Z</time>
      </trkpt>
      <trkpt lat="45.14846" lon="5.84117">
        <ele>647.6</ele>
        <time>2021-04-10T11:29:33Z</time>
      </trkpt>
      <trkpt lat="45.14846" lon="5.84116">
        <ele>647.6</ele>
        <time>2021-04-10T11:29:34Z</time>
      </trkpt>
      <trkpt lat="45.14847" lon="5.84114">
        <ele>646.8</ele>
        <time>2021-04-10T11:29:35Z</time>
      </trkpt>
      <trkpt lat="45.14847" lon="5.84112">
        <ele>646.6</ele>
        <time>2021-04-10T11:29:36Z</time>
      </trkpt>
      <trkpt lat="45.14849" lon="5.84106">
        <ele>646.2</ele>
        <time>2021-04-10T11:29:37Z</time>
      </trkpt>
      <trkpt lat="45.14849" lon="5.84106">
        <ele>645.8</ele>
        <time>2021-04-10T11:29:38Z</time>
      </trkpt>
      <trkpt lat="45.14849" lon="5.84106">
        <ele>646</ele>
        <time>2021-04-10T11:29:39Z</time>
      </trkpt>
      <trkpt lat="45.1485" lon="5.84104">
        <ele>645.6</ele>
        <time>2021-04-10T11:29:40Z</time>
      </trkpt>
      <trkpt lat="45.14851" lon="5.84102">
        <ele>645.2</ele>
        <time>2021-04-10T11:29:41Z</time>
      </trkpt>
      <trkpt lat="45.14852" lon="5.841">
        <ele>644.8</ele>
        <time>2021-04-10T11:29:42Z</time>
      </trkpt>
      <trkpt lat="45.14853" lon="5.84098">
        <ele>644.6</ele>
        <time>2021-04-10T11:29:43Z</time>
      </trkpt>
      <trkpt lat="45.14854" lon="5.84096">
        <ele>644</ele>
        <time>2021-04-10T11:29:44Z</time>
      </trkpt>
      <trkpt lat="45.14854" lon="5.84094">
        <ele>643.4</ele>
        <time>2021-04-10T11:29:45Z</time>
      </trkpt>
      <trkpt lat="45.14856" lon="5.84092">
        <ele>643.6</ele>
        <time>2021-04-10T11:29:46Z</time>
      </trkpt>
      <trkpt lat="45.14857" lon="5.8409">
        <ele>643.2</ele>
        <time>2021-04-10T11:29:47Z</time>
      </trkpt>
      <trkpt lat="45.14858" lon="5.84088">
        <ele>642.8</ele>
        <time>2021-04-10T11:29:48Z</time>
      </trkpt>
      <trkpt lat="45.14859" lon="5.84086">
        <ele>642.4</ele>
        <time>2021-04-10T11:29:49Z</time>
      </trkpt>
      <trkpt lat="45.14861" lon="5.84084">
        <ele>641.6</ele>
        <time>2021-04-10T11:29:50Z</time>
      </trkpt>
      <trkpt lat="45.14862" lon="5.8408">
        <ele>641.2</ele>
        <time>2021-04-10T11:29:51Z</time>
      </trkpt>
      <trkpt lat="45.14862" lon="5.84077">
        <ele>640.6</ele>
        <time>2021-04-10T11:29:52Z</time>
      </trkpt>
      <trkpt lat="45.14863" lon="5.84075">
        <ele>640.4</ele>
        <time>2021-04-10T11:29:53Z</time>
      </trkpt>
      <trkpt lat="45.14864" lon="5.84073">
        <ele>640</ele>
        <time>2021-04-10T11:29:54Z</time>
      </trkpt>
      <trkpt lat="45.14864" lon="5.84071">
        <ele>639.4</ele>
        <time>2021-04-10T11:29:55Z</time>
      </trkpt>
      <trkpt lat="45.14865" lon="5.84069">
        <ele>638.6</ele>
        <time>2021-04-10T11:29:56Z</time>
      </trkpt>
      <trkpt lat="45.14865" lon="5.84067">
        <ele>638</ele>
        <time>2021-04-10T11:29:57Z</time>
      </trkpt>
      <trkpt lat="45.14866" lon="5.84064">
        <ele>637.8</ele>
        <time>2021-04-10T11:29:58Z</time>
      </trkpt>
      <trkpt lat="45.14866" lon="5.84057">
        <ele>637.2</ele>
        <time>2021-04-10T11:29:59Z</time>
      </trkpt>
      <trkpt lat="45.14867" lon="5.84055">
        <ele>635.8</ele>
        <time>2021-04-10T11:30:01Z</time>
      </trkpt>
      <trkpt lat="45.14869" lon="5.84052">
        <ele>634.8</ele>
        <time>2021-04-10T11:30:02Z</time>
      </trkpt>
      <trkpt lat="45.14871" lon="5.84048">
        <ele>635</ele>
        <time>2021-04-10T11:30:03Z</time>
      </trkpt>
      <trkpt lat="45.14873" lon="5.84043">
        <ele>634.4</ele>
        <time>2021-04-10T11:30:04Z</time>
      </trkpt>
      <trkpt lat="45.14875" lon="5.84038">
        <ele>634.2</ele>
        <time>2021-04-10T11:30:05Z</time>
      </trkpt>
      <trkpt lat="45.14878" lon="5.84033">
        <ele>633.6</ele>
        <time>2021-04-10T11:30:06Z</time>
      </trkpt>
      <trkpt lat="45.14879" lon="5.84031">
        <ele>632.8</ele>
        <time>2021-04-10T11:30:07Z</time>
      </trkpt>
      <trkpt lat="45.1488" lon="5.84029">
        <ele>631.8</ele>
        <time>2021-04-10T11:30:08Z</time>
      </trkpt>
      <trkpt lat="45.14881" lon="5.84027">
        <ele>631.4</ele>
        <time>2021-04-10T11:30:09Z</time>
      </trkpt>
      <trkpt lat="45.14884" lon="5.84018">
        <ele>631.2</ele>
        <time>2021-04-10T11:30:10Z</time>
      </trkpt>
      <trkpt lat="45.14885" lon="5.84014">
        <ele>630.6</ele>
        <time>2021-04-10T11:30:11Z</time>
      </trkpt>
      <trkpt lat="45.14885" lon="5.84011">
        <ele>630.4</ele>
        <time>2021-04-10T11:30:12Z</time>
      </trkpt>
      <trkpt lat="45.14886" lon="5.84009">
        <ele>629.6</ele>
        <time>2021-04-10T11:30:13Z</time>
      </trkpt>
      <trkpt lat="45.14886" lon="5.84006">
        <ele>628.6</ele>
        <time>2021-04-10T11:30:14Z</time>
      </trkpt>
      <trkpt lat="45.14885" lon="5.84004">
        <ele>627.8</ele>
        <time>2021-04-10T11:30:15Z</time>
      </trkpt>
      <trkpt lat="45.14884" lon="5.84002">
        <ele>627.2</ele>
        <time>2021-04-10T11:30:16Z</time>
      </trkpt>
      <trkpt lat="45.14883" lon="5.84">
        <ele>627</ele>
        <time>2021-04-10T11:30:17Z</time>
      </trkpt>
      <trkpt lat="45.14882" lon="5.83998">
        <ele>626.2</ele>
        <time>2021-04-10T11:30:18Z</time>
      </trkpt>
      <trkpt lat="45.14878" lon="5.83991">
        <ele>625.4</ele>
        <time>2021-04-10T11:30:19Z</time>
      </trkpt>
      <trkpt lat="45.14876" lon="5.83985">
        <ele>624.8</ele>
        <time>2021-04-10T11:30:20Z</time>
      </trkpt>
      <trkpt lat="45.14875" lon="5.83981">
        <ele>624</ele>
        <time>2021-04-10T11:30:21Z</time>
      </trkpt>
      <trkpt lat="45.14874" lon="5.83977">
        <ele>624</ele>
        <time>2021-04-10T11:30:22Z</time>
      </trkpt>
      <trkpt lat="45.14873" lon="5.83973">
        <ele>623.4</ele>
        <time>2021-04-10T11:30:23Z</time>
      </trkpt>
      <trkpt lat="45.14872" lon="5.83969">
        <ele>623</ele>
        <time>2021-04-10T11:30:24Z</time>
      </trkpt>
      <trkpt lat="45.14871" lon="5.83965">
        <ele>622.4</ele>
        <time>2021-04-10T11:30:25Z</time>
      </trkpt>
      <trkpt lat="45.1487" lon="5.83963">
        <ele>621.8</ele>
        <time>2021-04-10T11:30:26Z</time>
      </trkpt>
      <trkpt lat="45.1487" lon="5.83961">
        <ele>621.2</ele>
        <time>2021-04-10T11:30:27Z</time>
      </trkpt>
      <trkpt lat="45.14869" lon="5.83959">
        <ele>620.2</ele>
        <time>2021-04-10T11:30:28Z</time>
      </trkpt>
      <trkpt lat="45.14867" lon="5.83952">
        <ele>619.8</ele>
        <time>2021-04-10T11:30:29Z</time>
      </trkpt>
      <trkpt lat="45.14867" lon="5.83952">
        <ele>619.2</ele>
        <time>2021-04-10T11:30:30Z</time>
      </trkpt>
      <trkpt lat="45.14867" lon="5.83952">
        <ele>619.2</ele>
        <time>2021-04-10T11:30:31Z</time>
      </trkpt>
      <trkpt lat="45.14865" lon="5.83949">
        <ele>618.8</ele>
        <time>2021-04-10T11:30:32Z</time>
      </trkpt>
      <trkpt lat="45.14863" lon="5.83946">
        <ele>618.4</ele>
        <time>2021-04-10T11:30:33Z</time>
      </trkpt>
      <trkpt lat="45.14861" lon="5.83943">
        <ele>617.4</ele>
        <time>2021-04-10T11:30:34Z</time>
      </trkpt>
      <trkpt lat="45.1486" lon="5.8394">
        <ele>617</ele>
        <time>2021-04-10T11:30:35Z</time>
      </trkpt>
      <trkpt lat="45.14858" lon="5.83937">
        <ele>616.2</ele>
        <time>2021-04-10T11:30:36Z</time>
      </trkpt>
      <trkpt lat="45.14856" lon="5.83934">
        <ele>616</ele>
        <time>2021-04-10T11:30:37Z</time>
      </trkpt>
      <trkpt lat="45.14854" lon="5.83931">
        <ele>615</ele>
        <time>2021-04-10T11:30:38Z</time>
      </trkpt>
      <trkpt lat="45.1485" lon="5.83926">
        <ele>614.6</ele>
        <time>2021-04-10T11:30:39Z</time>
      </trkpt>
      <trkpt lat="45.14848" lon="5.83925">
        <ele>613.6</ele>
        <time>2021-04-10T11:30:40Z</time>
      </trkpt>
      <trkpt lat="45.14847" lon="5.83923">
        <ele>612.6</ele>
        <time>2021-04-10T11:30:41Z</time>
      </trkpt>
      <trkpt lat="45.14846" lon="5.83922">
        <ele>611.8</ele>
        <time>2021-04-10T11:30:42Z</time>
      </trkpt>
      <trkpt lat="45.14844" lon="5.8392">
        <ele>611.2</ele>
        <time>2021-04-10T11:30:43Z</time>
      </trkpt>
      <trkpt lat="45.14839" lon="5.83914">
        <ele>610.6</ele>
        <time>2021-04-10T11:30:44Z</time>
      </trkpt>
      <trkpt lat="45.14836" lon="5.83909">
        <ele>610.2</ele>
        <time>2021-04-10T11:30:45Z</time>
      </trkpt>
      <trkpt lat="45.14834" lon="5.83906">
        <ele>610.2</ele>
        <time>2021-04-10T11:30:46Z</time>
      </trkpt>
      <trkpt lat="45.14832" lon="5.83904">
        <ele>610</ele>
        <time>2021-04-10T11:30:47Z</time>
      </trkpt>
      <trkpt lat="45.14829" lon="5.83902">
        <ele>610.2</ele>
        <time>2021-04-10T11:30:48Z</time>
      </trkpt>
      <trkpt lat="45.14827" lon="5.83901">
        <ele>610.2</ele>
        <time>2021-04-10T11:30:49Z</time>
      </trkpt>
      <trkpt lat="45.14824" lon="5.839">
        <ele>610.2</ele>
        <time>2021-04-10T11:30:50Z</time>
      </trkpt>
      <trkpt lat="45.14822" lon="5.83899">
        <ele>609.6</ele>
        <time>2021-04-10T11:30:51Z</time>
      </trkpt>
      <trkpt lat="45.1482" lon="5.83895">
        <ele>609.2</ele>
        <time>2021-04-10T11:30:52Z</time>
      </trkpt>
      <trkpt lat="45.14818" lon="5.83893">
        <ele>608.6</ele>
        <time>2021-04-10T11:30:53Z</time>
      </trkpt>
      <trkpt lat="45.14816" lon="5.8389">
        <ele>608.2</ele>
        <time>2021-04-10T11:30:54Z</time>
      </trkpt>
      <trkpt lat="45.14815" lon="5.83888">
        <ele>608.2</ele>
        <time>2021-04-10T11:30:55Z</time>
      </trkpt>
      <trkpt lat="45.14815" lon="5.83888">
        <ele>607.8</ele>
        <time>2021-04-10T11:30:56Z</time>
      </trkpt>
      <trkpt lat="45.14815" lon="5.83888">
        <ele>607.8</ele>
        <time>2021-04-10T11:30:57Z</time>
      </trkpt>
      <trkpt lat="45.14815" lon="5.83888">
        <ele>607.4</ele>
        <time>2021-04-10T11:30:58Z</time>
      </trkpt>
      <trkpt lat="45.14813" lon="5.83884">
        <ele>607.2</ele>
        <time>2021-04-10T11:30:59Z</time>
      </trkpt>
      <trkpt lat="45.14812" lon="5.83881">
        <ele>606.8</ele>
        <time>2021-04-10T11:31:00Z</time>
      </trkpt>
      <trkpt lat="45.1481" lon="5.83877">
        <ele>606.8</ele>
        <time>2021-04-10T11:31:01Z</time>
      </trkpt>
      <trkpt lat="45.14808" lon="5.83873">
        <ele>606.4</ele>
        <time>2021-04-10T11:31:02Z</time>
      </trkpt>
      <trkpt lat="45.14807" lon="5.83869">
        <ele>606</ele>
        <time>2021-04-10T11:31:03Z</time>
      </trkpt>
      <trkpt lat="45.14805" lon="5.83863">
        <ele>605.2</ele>
        <time>2021-04-10T11:31:04Z</time>
      </trkpt>
      <trkpt lat="45.14805" lon="5.83863">
        <ele>604.4</ele>
        <time>2021-04-10T11:31:05Z</time>
      </trkpt>
      <trkpt lat="45.14805" lon="5.83863">
        <ele>603.8</ele>
        <time>2021-04-10T11:31:06Z</time>
      </trkpt>
      <trkpt lat="45.14805" lon="5.83863">
        <ele>602.8</ele>
        <time>2021-04-10T11:31:07Z</time>
      </trkpt>
      <trkpt lat="45.14803" lon="5.83858">
        <ele>602.8</ele>
        <time>2021-04-10T11:31:08Z</time>
      </trkpt>
      <trkpt lat="45.14802" lon="5.83854">
        <ele>602.2</ele>
        <time>2021-04-10T11:31:09Z</time>
      </trkpt>
      <trkpt lat="45.148" lon="5.8385">
        <ele>601.8</ele>
        <time>2021-04-10T11:31:10Z</time>
      </trkpt>
      <trkpt lat="45.14799" lon="5.83846">
        <ele>601</ele>
        <time>2021-04-10T11:31:11Z</time>
      </trkpt>
      <trkpt lat="45.14798" lon="5.83842">
        <ele>600.6</ele>
        <time>2021-04-10T11:31:12Z</time>
      </trkpt>
      <trkpt lat="45.14792" lon="5.83835">
        <ele>599.6</ele>
        <time>2021-04-10T11:31:13Z</time>
      </trkpt>
      <trkpt lat="45.14791" lon="5.83832">
        <ele>598.4</ele>
        <time>2021-04-10T11:31:14Z</time>
      </trkpt>
      <trkpt lat="45.14789" lon="5.8383">
        <ele>598.2</ele>
        <time>2021-04-10T11:31:15Z</time>
      </trkpt>
      <trkpt lat="45.14787" lon="5.83827">
        <ele>597.4</ele>
        <time>2021-04-10T11:31:16Z</time>
      </trkpt>
      <trkpt lat="45.14786" lon="5.83825">
        <ele>597.2</ele>
        <time>2021-04-10T11:31:17Z</time>
      </trkpt>
      <trkpt lat="45.14784" lon="5.83822">
        <ele>596.6</ele>
        <time>2021-04-10T11:31:18Z</time>
      </trkpt>
      <trkpt lat="45.14783" lon="5.8382">
        <ele>596</ele>
        <time>2021-04-10T11:31:19Z</time>
      </trkpt>
      <trkpt lat="45.14782" lon="5.83817">
        <ele>595.2</ele>
        <time>2021-04-10T11:31:20Z</time>
      </trkpt>
      <trkpt lat="45.14781" lon="5.83816">
        <ele>594.6</ele>
        <time>2021-04-10T11:31:21Z</time>
      </trkpt>
      <trkpt lat="45.1478" lon="5.83814">
        <ele>594.6</ele>
        <time>2021-04-10T11:31:22Z</time>
      </trkpt>
      <trkpt lat="45.14779" lon="5.83813">
        <ele>594</ele>
        <time>2021-04-10T11:31:23Z</time>
      </trkpt>
      <trkpt lat="45.14778" lon="5.83812">
        <ele>593.8</ele>
        <time>2021-04-10T11:31:24Z</time>
      </trkpt>
      <trkpt lat="45.14777" lon="5.83811">
        <ele>593.2</ele>
        <time>2021-04-10T11:31:25Z</time>
      </trkpt>
      <trkpt lat="45.14772" lon="5.83805">
        <ele>592.2</ele>
        <time>2021-04-10T11:31:26Z</time>
      </trkpt>
      <trkpt lat="45.14772" lon="5.83804">
        <ele>592.2</ele>
        <time>2021-04-10T11:31:27Z</time>
      </trkpt>
      <trkpt lat="45.14771" lon="5.83802">
        <ele>591.8</ele>
        <time>2021-04-10T11:31:28Z</time>
      </trkpt>
      <trkpt lat="45.14767" lon="5.83798">
        <ele>592</ele>
        <time>2021-04-10T11:31:29Z</time>
      </trkpt>
      <trkpt lat="45.14767" lon="5.83798">
        <ele>591.2</ele>
        <time>2021-04-10T11:31:30Z</time>
      </trkpt>
      <trkpt lat="45.14767" lon="5.83798">
        <ele>590.8</ele>
        <time>2021-04-10T11:31:31Z</time>
      </trkpt>
      <trkpt lat="45.14767" lon="5.83798">
        <ele>590.8</ele>
        <time>2021-04-10T11:31:32Z</time>
      </trkpt>
      <trkpt lat="45.14767" lon="5.83798">
        <ele>590.4</ele>
        <time>2021-04-10T11:31:33Z</time>
      </trkpt>
      <trkpt lat="45.14768" lon="5.83794">
        <ele>589.8</ele>
        <time>2021-04-10T11:31:34Z</time>
      </trkpt>
      <trkpt lat="45.14768" lon="5.8379">
        <ele>589.6</ele>
        <time>2021-04-10T11:31:35Z</time>
      </trkpt>
      <trkpt lat="45.14768" lon="5.83786">
        <ele>589.2</ele>
        <time>2021-04-10T11:31:36Z</time>
      </trkpt>
      <trkpt lat="45.14768" lon="5.83782">
        <ele>589</ele>
        <time>2021-04-10T11:31:37Z</time>
      </trkpt>
      <trkpt lat="45.14768" lon="5.83778">
        <ele>588.6</ele>
        <time>2021-04-10T11:31:38Z</time>
      </trkpt>
      <trkpt lat="45.14769" lon="5.83774">
        <ele>588.6</ele>
        <time>2021-04-10T11:31:39Z</time>
      </trkpt>
      <trkpt lat="45.1478" lon="5.83767">
        <ele>588.4</ele>
        <time>2021-04-10T11:31:40Z</time>
      </trkpt>
      <trkpt lat="45.14786" lon="5.83765">
        <ele>588.4</ele>
        <time>2021-04-10T11:31:41Z</time>
      </trkpt>
      <trkpt lat="45.14791" lon="5.83763">
        <ele>588.6</ele>
        <time>2021-04-10T11:31:42Z</time>
      </trkpt>
      <trkpt lat="45.14798" lon="5.8376">
        <ele>588.8</ele>
        <time>2021-04-10T11:31:43Z</time>
      </trkpt>
      <trkpt lat="45.14798" lon="5.8376">
        <ele>589</ele>
        <time>2021-04-10T11:31:44Z</time>
      </trkpt>
      <trkpt lat="45.148" lon="5.83759">
        <ele>589</ele>
        <time>2021-04-10T11:31:45Z</time>
      </trkpt>
      <trkpt lat="45.14802" lon="5.83757">
        <ele>589</ele>
        <time>2021-04-10T11:31:46Z</time>
      </trkpt>
      <trkpt lat="45.14809" lon="5.83753">
        <ele>589.2</ele>
        <time>2021-04-10T11:31:47Z</time>
      </trkpt>
      <trkpt lat="45.1481" lon="5.83751">
        <ele>589.2</ele>
        <time>2021-04-10T11:31:48Z</time>
      </trkpt>
      <trkpt lat="45.14814" lon="5.83747">
        <ele>589.8</ele>
        <time>2021-04-10T11:31:49Z</time>
      </trkpt>
      <trkpt lat="45.14817" lon="5.83743">
        <ele>589.8</ele>
        <time>2021-04-10T11:31:50Z</time>
      </trkpt>
      <trkpt lat="45.14818" lon="5.83742">
        <ele>590.6</ele>
        <time>2021-04-10T11:31:51Z</time>
      </trkpt>
      <trkpt lat="45.14819" lon="5.8374">
        <ele>590.6</ele>
        <time>2021-04-10T11:31:52Z</time>
      </trkpt>
      <trkpt lat="45.14825" lon="5.83731">
        <ele>591</ele>
        <time>2021-04-10T11:31:53Z</time>
      </trkpt>
      <trkpt lat="45.14827" lon="5.83728">
        <ele>591</ele>
        <time>2021-04-10T11:31:54Z</time>
      </trkpt>
      <trkpt lat="45.14829" lon="5.83724">
        <ele>591</ele>
        <time>2021-04-10T11:31:55Z</time>
      </trkpt>
      <trkpt lat="45.14832" lon="5.8372">
        <ele>590.6</ele>
        <time>2021-04-10T11:31:56Z</time>
      </trkpt>
      <trkpt lat="45.14834" lon="5.83716">
        <ele>590.4</ele>
        <time>2021-04-10T11:31:57Z</time>
      </trkpt>
      <trkpt lat="45.14837" lon="5.83712">
        <ele>590</ele>
        <time>2021-04-10T11:31:58Z</time>
      </trkpt>
      <trkpt lat="45.14844" lon="5.83703">
        <ele>589.6</ele>
        <time>2021-04-10T11:31:59Z</time>
      </trkpt>
      <trkpt lat="45.14844" lon="5.83701">
        <ele>589</ele>
        <time>2021-04-10T11:32:00Z</time>
      </trkpt>
      <trkpt lat="45.14845" lon="5.83699">
        <ele>588.6</ele>
        <time>2021-04-10T11:32:01Z</time>
      </trkpt>
      <trkpt lat="45.14845" lon="5.83696">
        <ele>588.6</ele>
        <time>2021-04-10T11:32:02Z</time>
      </trkpt>
      <trkpt lat="45.14847" lon="5.8369">
        <ele>588.8</ele>
        <time>2021-04-10T11:32:03Z</time>
      </trkpt>
      <trkpt lat="45.14847" lon="5.8369">
        <ele>589.2</ele>
        <time>2021-04-10T11:32:04Z</time>
      </trkpt>
      <trkpt lat="45.14847" lon="5.8369">
        <ele>589.6</ele>
        <time>2021-04-10T11:32:05Z</time>
      </trkpt>
      <trkpt lat="45.14847" lon="5.8369">
        <ele>589.8</ele>
        <time>2021-04-10T11:32:06Z</time>
      </trkpt>
      <trkpt lat="45.14847" lon="5.83685">
        <ele>589.8</ele>
        <time>2021-04-10T11:32:07Z</time>
      </trkpt>
      <trkpt lat="45.14847" lon="5.83681">
        <ele>589.8</ele>
        <time>2021-04-10T11:32:08Z</time>
      </trkpt>
      <trkpt lat="45.14848" lon="5.83676">
        <ele>589.8</ele>
        <time>2021-04-10T11:32:09Z</time>
      </trkpt>
      <trkpt lat="45.14848" lon="5.83671">
        <ele>590</ele>
        <time>2021-04-10T11:32:10Z</time>
      </trkpt>
      <trkpt lat="45.14848" lon="5.83667">
        <ele>589.8</ele>
        <time>2021-04-10T11:32:11Z</time>
      </trkpt>
      <trkpt lat="45.14851" lon="5.83659">
        <ele>590</ele>
        <time>2021-04-10T11:32:12Z</time>
      </trkpt>
      <trkpt lat="45.14851" lon="5.83659">
        <ele>590</ele>
        <time>2021-04-10T11:32:13Z</time>
      </trkpt>
      <trkpt lat="45.14851" lon="5.83659">
        <ele>590.4</ele>
        <time>2021-04-10T11:32:14Z</time>
      </trkpt>
      <trkpt lat="45.14851" lon="5.83659">
        <ele>589.8</ele>
        <time>2021-04-10T11:32:15Z</time>
      </trkpt>
      <trkpt lat="45.14852" lon="5.83657">
        <ele>590</ele>
        <time>2021-04-10T11:32:16Z</time>
      </trkpt>
      <trkpt lat="45.14853" lon="5.83654">
        <ele>589.8</ele>
        <time>2021-04-10T11:32:17Z</time>
      </trkpt>
      <trkpt lat="45.14854" lon="5.83652">
        <ele>589.6</ele>
        <time>2021-04-10T11:32:18Z</time>
      </trkpt>
      <trkpt lat="45.14855" lon="5.83649">
        <ele>589</ele>
        <time>2021-04-10T11:32:19Z</time>
      </trkpt>
      <trkpt lat="45.14856" lon="5.83647">
        <ele>588.6</ele>
        <time>2021-04-10T11:32:20Z</time>
      </trkpt>
      <trkpt lat="45.14858" lon="5.83631">
        <ele>588</ele>
        <time>2021-04-10T11:32:21Z</time>
      </trkpt>
      <trkpt lat="45.14858" lon="5.83631">
        <ele>587.4</ele>
        <time>2021-04-10T11:32:22Z</time>
      </trkpt>
      <trkpt lat="45.14858" lon="5.83631">
        <ele>587.2</ele>
        <time>2021-04-10T11:32:23Z</time>
      </trkpt>
      <trkpt lat="45.14858" lon="5.83631">
        <ele>586.8</ele>
        <time>2021-04-10T11:32:24Z</time>
      </trkpt>
      <trkpt lat="45.14859" lon="5.83628">
        <ele>587</ele>
        <time>2021-04-10T11:32:25Z</time>
      </trkpt>
      <trkpt lat="45.14859" lon="5.83626">
        <ele>586.8</ele>
        <time>2021-04-10T11:32:26Z</time>
      </trkpt>
      <trkpt lat="45.14859" lon="5.83623">
        <ele>586.8</ele>
        <time>2021-04-10T11:32:27Z</time>
      </trkpt>
      <trkpt lat="45.1486" lon="5.83621">
        <ele>586.6</ele>
        <time>2021-04-10T11:32:28Z</time>
      </trkpt>
      <trkpt lat="45.1486" lon="5.83618">
        <ele>586.6</ele>
        <time>2021-04-10T11:32:29Z</time>
      </trkpt>
      <trkpt lat="45.14859" lon="5.83618">
        <ele>586.2</ele>
        <time>2021-04-10T11:32:30Z</time>
      </trkpt>
      <trkpt lat="45.14858" lon="5.83618">
        <ele>586.2</ele>
        <time>2021-04-10T11:32:31Z</time>
      </trkpt>
      <trkpt lat="45.14856" lon="5.83617">
        <ele>586.4</ele>
        <time>2021-04-10T11:32:32Z</time>
      </trkpt>
      <trkpt lat="45.14855" lon="5.83617">
        <ele>585.8</ele>
        <time>2021-04-10T11:32:33Z</time>
      </trkpt>
      <trkpt lat="45.14854" lon="5.83617">
        <ele>585.4</ele>
        <time>2021-04-10T11:32:34Z</time>
      </trkpt>
      <trkpt lat="45.14853" lon="5.83616">
        <ele>585.6</ele>
        <time>2021-04-10T11:32:35Z</time>
      </trkpt>
      <trkpt lat="45.14851" lon="5.83616">
        <ele>585.4</ele>
        <time>2021-04-10T11:32:36Z</time>
      </trkpt>
      <trkpt lat="45.1485" lon="5.83616">
        <ele>585</ele>
        <time>2021-04-10T11:32:37Z</time>
      </trkpt>
      <trkpt lat="45.14849" lon="5.83615">
        <ele>584.4</ele>
        <time>2021-04-10T11:32:38Z</time>
      </trkpt>
      <trkpt lat="45.14848" lon="5.83615">
        <ele>584.4</ele>
        <time>2021-04-10T11:32:39Z</time>
      </trkpt>
      <trkpt lat="45.14846" lon="5.83615">
        <ele>583.8</ele>
        <time>2021-04-10T11:32:40Z</time>
      </trkpt>
      <trkpt lat="45.14845" lon="5.83615">
        <ele>583.8</ele>
        <time>2021-04-10T11:32:41Z</time>
      </trkpt>
      <trkpt lat="45.14841" lon="5.83615">
        <ele>583</ele>
        <time>2021-04-10T11:32:42Z</time>
      </trkpt>
      <trkpt lat="45.14841" lon="5.83615">
        <ele>582.6</ele>
        <time>2021-04-10T11:32:43Z</time>
      </trkpt>
      <trkpt lat="45.14841" lon="5.83615">
        <ele>582.2</ele>
        <time>2021-04-10T11:32:44Z</time>
      </trkpt>
      <trkpt lat="45.14839" lon="5.83616">
        <ele>581.2</ele>
        <time>2021-04-10T11:32:45Z</time>
      </trkpt>
      <trkpt lat="45.14837" lon="5.83616">
        <ele>581</ele>
        <time>2021-04-10T11:32:46Z</time>
      </trkpt>
      <trkpt lat="45.14835" lon="5.83616">
        <ele>580.4</ele>
        <time>2021-04-10T11:32:47Z</time>
      </trkpt>
      <trkpt lat="45.14832" lon="5.83617">
        <ele>580.2</ele>
        <time>2021-04-10T11:32:48Z</time>
      </trkpt>
      <trkpt lat="45.1483" lon="5.83617">
        <ele>579.6</ele>
        <time>2021-04-10T11:32:49Z</time>
      </trkpt>
      <trkpt lat="45.14828" lon="5.83617">
        <ele>579</ele>
        <time>2021-04-10T11:32:50Z</time>
      </trkpt>
      <trkpt lat="45.14827" lon="5.83618">
        <ele>578.4</ele>
        <time>2021-04-10T11:32:51Z</time>
      </trkpt>
      <trkpt lat="45.14825" lon="5.83619">
        <ele>577.4</ele>
        <time>2021-04-10T11:32:52Z</time>
      </trkpt>
      <trkpt lat="45.14824" lon="5.8362">
        <ele>577</ele>
        <time>2021-04-10T11:32:53Z</time>
      </trkpt>
      <trkpt lat="45.14822" lon="5.83621">
        <ele>576.6</ele>
        <time>2021-04-10T11:32:54Z</time>
      </trkpt>
      <trkpt lat="45.14821" lon="5.83622">
        <ele>576.4</ele>
        <time>2021-04-10T11:32:55Z</time>
      </trkpt>
      <trkpt lat="45.14819" lon="5.83624">
        <ele>576</ele>
        <time>2021-04-10T11:32:56Z</time>
      </trkpt>
      <trkpt lat="45.14815" lon="5.83624">
        <ele>575.6</ele>
        <time>2021-04-10T11:32:57Z</time>
      </trkpt>
      <trkpt lat="45.14813" lon="5.83624">
        <ele>575</ele>
        <time>2021-04-10T11:32:58Z</time>
      </trkpt>
      <trkpt lat="45.14811" lon="5.83624">
        <ele>574.2</ele>
        <time>2021-04-10T11:32:59Z</time>
      </trkpt>
      <trkpt lat="45.14809" lon="5.83625">
        <ele>573.6</ele>
        <time>2021-04-10T11:33:00Z</time>
      </trkpt>
      <trkpt lat="45.14807" lon="5.83625">
        <ele>572.8</ele>
        <time>2021-04-10T11:33:01Z</time>
      </trkpt>
      <trkpt lat="45.14805" lon="5.83625">
        <ele>572.8</ele>
        <time>2021-04-10T11:33:02Z</time>
      </trkpt>
      <trkpt lat="45.14803" lon="5.83625">
        <ele>572.4</ele>
        <time>2021-04-10T11:33:03Z</time>
      </trkpt>
      <trkpt lat="45.14796" lon="5.83626">
        <ele>572.4</ele>
        <time>2021-04-10T11:33:04Z</time>
      </trkpt>
      <trkpt lat="45.14792" lon="5.83626">
        <ele>572</ele>
        <time>2021-04-10T11:33:05Z</time>
      </trkpt>
      <trkpt lat="45.1479" lon="5.83627">
        <ele>571.6</ele>
        <time>2021-04-10T11:33:06Z</time>
      </trkpt>
      <trkpt lat="45.14787" lon="5.83627">
        <ele>571.2</ele>
        <time>2021-04-10T11:33:07Z</time>
      </trkpt>
      <trkpt lat="45.14782" lon="5.83628">
        <ele>571</ele>
        <time>2021-04-10T11:33:08Z</time>
      </trkpt>
      <trkpt lat="45.14779" lon="5.83629">
        <ele>570.2</ele>
        <time>2021-04-10T11:33:09Z</time>
      </trkpt>
      <trkpt lat="45.14776" lon="5.83629">
        <ele>570</ele>
        <time>2021-04-10T11:33:10Z</time>
      </trkpt>
      <trkpt lat="45.14772" lon="5.8363">
        <ele>569.4</ele>
        <time>2021-04-10T11:33:11Z</time>
      </trkpt>
      <trkpt lat="45.14769" lon="5.8363">
        <ele>569</ele>
        <time>2021-04-10T11:33:12Z</time>
      </trkpt>
      <trkpt lat="45.14766" lon="5.83631">
        <ele>568.6</ele>
        <time>2021-04-10T11:33:13Z</time>
      </trkpt>
      <trkpt lat="45.14762" lon="5.83631">
        <ele>568.4</ele>
        <time>2021-04-10T11:33:14Z</time>
      </trkpt>
      <trkpt lat="45.14754" lon="5.83632">
        <ele>568.2</ele>
        <time>2021-04-10T11:33:15Z</time>
      </trkpt>
      <trkpt lat="45.14752" lon="5.83632">
        <ele>568.2</ele>
        <time>2021-04-10T11:33:16Z</time>
      </trkpt>
      <trkpt lat="45.1475" lon="5.83632">
        <ele>567.8</ele>
        <time>2021-04-10T11:33:17Z</time>
      </trkpt>
      <trkpt lat="45.14743" lon="5.83632">
        <ele>568</ele>
        <time>2021-04-10T11:33:18Z</time>
      </trkpt>
      <trkpt lat="45.14741" lon="5.83633">
        <ele>567.6</ele>
        <time>2021-04-10T11:33:19Z</time>
      </trkpt>
      <trkpt lat="45.14739" lon="5.83633">
        <ele>568</ele>
        <time>2021-04-10T11:33:20Z</time>
      </trkpt>
      <trkpt lat="45.14732" lon="5.83635">
        <ele>567.6</ele>
        <time>2021-04-10T11:33:21Z</time>
      </trkpt>
      <trkpt lat="45.14728" lon="5.83634">
        <ele>567.8</ele>
        <time>2021-04-10T11:33:22Z</time>
      </trkpt>
      <trkpt lat="45.14725" lon="5.83634">
        <ele>567.6</ele>
        <time>2021-04-10T11:33:23Z</time>
      </trkpt>
      <trkpt lat="45.14723" lon="5.83634">
        <ele>567.6</ele>
        <time>2021-04-10T11:33:24Z</time>
      </trkpt>
      <trkpt lat="45.1472" lon="5.83634">
        <ele>567.4</ele>
        <time>2021-04-10T11:33:25Z</time>
      </trkpt>
      <trkpt lat="45.14717" lon="5.83633">
        <ele>567.2</ele>
        <time>2021-04-10T11:33:26Z</time>
      </trkpt>
      <trkpt lat="45.14715" lon="5.83633">
        <ele>567.2</ele>
        <time>2021-04-10T11:33:27Z</time>
      </trkpt>
      <trkpt lat="45.14713" lon="5.83633">
        <ele>567</ele>
        <time>2021-04-10T11:33:28Z</time>
      </trkpt>
      <trkpt lat="45.14712" lon="5.83632">
        <ele>567</ele>
        <time>2021-04-10T11:33:29Z</time>
      </trkpt>
      <trkpt lat="45.14709" lon="5.83632">
        <ele>566.8</ele>
        <time>2021-04-10T11:33:30Z</time>
      </trkpt>
      <trkpt lat="45.14707" lon="5.83632">
        <ele>566.8</ele>
        <time>2021-04-10T11:33:31Z</time>
      </trkpt>
      <trkpt lat="45.14705" lon="5.83631">
        <ele>566.8</ele>
        <time>2021-04-10T11:33:32Z</time>
      </trkpt>
      <trkpt lat="45.14698" lon="5.8363">
        <ele>566.8</ele>
        <time>2021-04-10T11:33:33Z</time>
      </trkpt>
      <trkpt lat="45.14693" lon="5.83629">
        <ele>566.6</ele>
        <time>2021-04-10T11:33:34Z</time>
      </trkpt>
      <trkpt lat="45.14691" lon="5.83629">
        <ele>566.8</ele>
        <time>2021-04-10T11:33:35Z</time>
      </trkpt>
      <trkpt lat="45.14688" lon="5.83628">
        <ele>566.6</ele>
        <time>2021-04-10T11:33:36Z</time>
      </trkpt>
      <trkpt lat="45.14685" lon="5.83627">
        <ele>567</ele>
        <time>2021-04-10T11:33:37Z</time>
      </trkpt>
      <trkpt lat="45.14683" lon="5.83627">
        <ele>567</ele>
        <time>2021-04-10T11:33:38Z</time>
      </trkpt>
      <trkpt lat="45.1468" lon="5.83626">
        <ele>567.2</ele>
        <time>2021-04-10T11:33:39Z</time>
      </trkpt>
      <trkpt lat="45.14678" lon="5.83626">
        <ele>566.8</ele>
        <time>2021-04-10T11:33:40Z</time>
      </trkpt>
      <trkpt lat="45.14678" lon="5.83626">
        <ele>567</ele>
        <time>2021-04-10T11:33:41Z</time>
      </trkpt>
      <trkpt lat="45.14678" lon="5.83626">
        <ele>566.8</ele>
        <time>2021-04-10T11:33:42Z</time>
      </trkpt>
      <trkpt lat="45.14678" lon="5.83626">
        <ele>567</ele>
        <time>2021-04-10T11:33:43Z</time>
      </trkpt>
      <trkpt lat="45.14677" lon="5.83625">
        <ele>566.6</ele>
        <time>2021-04-10T11:33:44Z</time>
      </trkpt>
      <trkpt lat="45.14675" lon="5.83624">
        <ele>567</ele>
        <time>2021-04-10T11:33:45Z</time>
      </trkpt>
      <trkpt lat="45.14673" lon="5.83623">
        <ele>566.4</ele>
        <time>2021-04-10T11:33:46Z</time>
      </trkpt>
      <trkpt lat="45.14671" lon="5.83623">
        <ele>566.8</ele>
        <time>2021-04-10T11:33:47Z</time>
      </trkpt>
      <trkpt lat="45.14669" lon="5.83622">
        <ele>566.2</ele>
        <time>2021-04-10T11:33:48Z</time>
      </trkpt>
      <trkpt lat="45.14667" lon="5.83621">
        <ele>566.4</ele>
        <time>2021-04-10T11:33:49Z</time>
      </trkpt>
      <trkpt lat="45.14665" lon="5.83619">
        <ele>566</ele>
        <time>2021-04-10T11:33:50Z</time>
      </trkpt>
      <trkpt lat="45.14662" lon="5.83616">
        <ele>566</ele>
        <time>2021-04-10T11:33:51Z</time>
      </trkpt>
      <trkpt lat="45.14659" lon="5.83614">
        <ele>565.2</ele>
        <time>2021-04-10T11:33:52Z</time>
      </trkpt>
      <trkpt lat="45.14657" lon="5.83611">
        <ele>565.4</ele>
        <time>2021-04-10T11:33:53Z</time>
      </trkpt>
      <trkpt lat="45.14654" lon="5.83609">
        <ele>565</ele>
        <time>2021-04-10T11:33:54Z</time>
      </trkpt>
      <trkpt lat="45.14647" lon="5.83606">
        <ele>565</ele>
        <time>2021-04-10T11:33:55Z</time>
      </trkpt>
      <trkpt lat="45.14644" lon="5.83606">
        <ele>564.6</ele>
        <time>2021-04-10T11:33:56Z</time>
      </trkpt>
      <trkpt lat="45.14642" lon="5.83606">
        <ele>564.6</ele>
        <time>2021-04-10T11:33:57Z</time>
      </trkpt>
      <trkpt lat="45.1464" lon="5.83606">
        <ele>564.2</ele>
        <time>2021-04-10T11:33:58Z</time>
      </trkpt>
      <trkpt lat="45.14637" lon="5.83606">
        <ele>564.4</ele>
        <time>2021-04-10T11:33:59Z</time>
      </trkpt>
      <trkpt lat="45.14637" lon="5.83606">
        <ele>564</ele>
        <time>2021-04-10T11:34:00Z</time>
      </trkpt>
      <trkpt lat="45.14637" lon="5.83606">
        <ele>563.8</ele>
        <time>2021-04-10T11:34:01Z</time>
      </trkpt>
      <trkpt lat="45.14637" lon="5.83606">
        <ele>563.2</ele>
        <time>2021-04-10T11:34:02Z</time>
      </trkpt>
      <trkpt lat="45.14635" lon="5.83606">
        <ele>563.4</ele>
        <time>2021-04-10T11:34:03Z</time>
      </trkpt>
      <trkpt lat="45.14633" lon="5.83605">
        <ele>563</ele>
        <time>2021-04-10T11:34:04Z</time>
      </trkpt>
      <trkpt lat="45.14632" lon="5.83604">
        <ele>563</ele>
        <time>2021-04-10T11:34:05Z</time>
      </trkpt>
      <trkpt lat="45.1463" lon="5.83603">
        <ele>562.6</ele>
        <time>2021-04-10T11:34:06Z</time>
      </trkpt>
      <trkpt lat="45.14628" lon="5.83602">
        <ele>562.6</ele>
        <time>2021-04-10T11:34:07Z</time>
      </trkpt>
      <trkpt lat="45.14626" lon="5.83602">
        <ele>562</ele>
        <time>2021-04-10T11:34:08Z</time>
      </trkpt>
      <trkpt lat="45.14624" lon="5.83601">
        <ele>562</ele>
        <time>2021-04-10T11:34:09Z</time>
      </trkpt>
      <trkpt lat="45.14622" lon="5.836">
        <ele>561.6</ele>
        <time>2021-04-10T11:34:10Z</time>
      </trkpt>
      <trkpt lat="45.14614" lon="5.83598">
        <ele>561.4</ele>
        <time>2021-04-10T11:34:11Z</time>
      </trkpt>
      <trkpt lat="45.14611" lon="5.83597">
        <ele>561</ele>
        <time>2021-04-10T11:34:12Z</time>
      </trkpt>
      <trkpt lat="45.14608" lon="5.83596">
        <ele>560.6</ele>
        <time>2021-04-10T11:34:13Z</time>
      </trkpt>
      <trkpt lat="45.14602" lon="5.83594">
        <ele>560.2</ele>
        <time>2021-04-10T11:34:14Z</time>
      </trkpt>
      <trkpt lat="45.14596" lon="5.83592">
        <ele>560</ele>
        <time>2021-04-10T11:34:15Z</time>
      </trkpt>
      <trkpt lat="45.14594" lon="5.83591">
        <ele>559.4</ele>
        <time>2021-04-10T11:34:16Z</time>
      </trkpt>
      <trkpt lat="45.14593" lon="5.83589">
        <ele>559</ele>
        <time>2021-04-10T11:34:17Z</time>
      </trkpt>
      <trkpt lat="45.14591" lon="5.83588">
        <ele>558.4</ele>
        <time>2021-04-10T11:34:18Z</time>
      </trkpt>
      <trkpt lat="45.14585" lon="5.83584">
        <ele>557.8</ele>
        <time>2021-04-10T11:34:19Z</time>
      </trkpt>
      <trkpt lat="45.14584" lon="5.83583">
        <ele>557</ele>
        <time>2021-04-10T11:34:20Z</time>
      </trkpt>
      <trkpt lat="45.14583" lon="5.83582">
        <ele>556.4</ele>
        <time>2021-04-10T11:34:21Z</time>
      </trkpt>
      <trkpt lat="45.14582" lon="5.83581">
        <ele>556.6</ele>
        <time>2021-04-10T11:34:22Z</time>
      </trkpt>
      <trkpt lat="45.14577" lon="5.83578">
        <ele>556.2</ele>
        <time>2021-04-10T11:34:23Z</time>
      </trkpt>
      <trkpt lat="45.14576" lon="5.83578">
        <ele>556.2</ele>
        <time>2021-04-10T11:34:24Z</time>
      </trkpt>
      <trkpt lat="45.14574" lon="5.83578">
        <ele>555.8</ele>
        <time>2021-04-10T11:34:25Z</time>
      </trkpt>
      <trkpt lat="45.14573" lon="5.83577">
        <ele>556</ele>
        <time>2021-04-10T11:34:26Z</time>
      </trkpt>
      <trkpt lat="45.14571" lon="5.83577">
        <ele>555.8</ele>
        <time>2021-04-10T11:34:27Z</time>
      </trkpt>
      <trkpt lat="45.14566" lon="5.83575">
        <ele>555.8</ele>
        <time>2021-04-10T11:34:28Z</time>
      </trkpt>
      <trkpt lat="45.14566" lon="5.83575">
        <ele>555.4</ele>
        <time>2021-04-10T11:34:29Z</time>
      </trkpt>
      <trkpt lat="45.14566" lon="5.83575">
        <ele>555.4</ele>
        <time>2021-04-10T11:34:30Z</time>
      </trkpt>
      <trkpt lat="45.14563" lon="5.83575">
        <ele>555.2</ele>
        <time>2021-04-10T11:34:31Z</time>
      </trkpt>
      <trkpt lat="45.1456" lon="5.83574">
        <ele>555.4</ele>
        <time>2021-04-10T11:34:32Z</time>
      </trkpt>
      <trkpt lat="45.14557" lon="5.83574">
        <ele>555.2</ele>
        <time>2021-04-10T11:34:33Z</time>
      </trkpt>
      <trkpt lat="45.14554" lon="5.83573">
        <ele>555.4</ele>
        <time>2021-04-10T11:34:34Z</time>
      </trkpt>
      <trkpt lat="45.14551" lon="5.83573">
        <ele>555.2</ele>
        <time>2021-04-10T11:34:35Z</time>
      </trkpt>
      <trkpt lat="45.14548" lon="5.83573">
        <ele>555.6</ele>
        <time>2021-04-10T11:34:36Z</time>
      </trkpt>
      <trkpt lat="45.14545" lon="5.83572">
        <ele>555.6</ele>
        <time>2021-04-10T11:34:37Z</time>
      </trkpt>
      <trkpt lat="45.14542" lon="5.83572">
        <ele>555.8</ele>
        <time>2021-04-10T11:34:38Z</time>
      </trkpt>
      <trkpt lat="45.14533" lon="5.83567">
        <ele>555.8</ele>
        <time>2021-04-10T11:34:39Z</time>
      </trkpt>
      <trkpt lat="45.14531" lon="5.83564">
        <ele>555.8</ele>
        <time>2021-04-10T11:34:40Z</time>
      </trkpt>
      <trkpt lat="45.1453" lon="5.8356">
        <ele>555.2</ele>
        <time>2021-04-10T11:34:41Z</time>
      </trkpt>
      <trkpt lat="45.14526" lon="5.83554">
        <ele>554.4</ele>
        <time>2021-04-10T11:34:42Z</time>
      </trkpt>
      <trkpt lat="45.14523" lon="5.83547">
        <ele>553.4</ele>
        <time>2021-04-10T11:34:43Z</time>
      </trkpt>
      <trkpt lat="45.14523" lon="5.83544">
        <ele>553.2</ele>
        <time>2021-04-10T11:34:44Z</time>
      </trkpt>
      <trkpt lat="45.14522" lon="5.83542">
        <ele>552.8</ele>
        <time>2021-04-10T11:34:45Z</time>
      </trkpt>
      <trkpt lat="45.14522" lon="5.8354">
        <ele>553</ele>
        <time>2021-04-10T11:34:46Z</time>
      </trkpt>
      <trkpt lat="45.1452" lon="5.83533">
        <ele>552.4</ele>
        <time>2021-04-10T11:34:47Z</time>
      </trkpt>
      <trkpt lat="45.1452" lon="5.83531">
        <ele>552.4</ele>
        <time>2021-04-10T11:34:48Z</time>
      </trkpt>
      <trkpt lat="45.1452" lon="5.83528">
        <ele>551.6</ele>
        <time>2021-04-10T11:34:49Z</time>
      </trkpt>
      <trkpt lat="45.14519" lon="5.83525">
        <ele>551.8</ele>
        <time>2021-04-10T11:34:50Z</time>
      </trkpt>
      <trkpt lat="45.14519" lon="5.83523">
        <ele>551.2</ele>
        <time>2021-04-10T11:34:51Z</time>
      </trkpt>
      <trkpt lat="45.14519" lon="5.83513">
        <ele>550.6</ele>
        <time>2021-04-10T11:34:52Z</time>
      </trkpt>
      <trkpt lat="45.14521" lon="5.83509">
        <ele>550.2</ele>
        <time>2021-04-10T11:34:53Z</time>
      </trkpt>
      <trkpt lat="45.14523" lon="5.83505">
        <ele>549.4</ele>
        <time>2021-04-10T11:34:54Z</time>
      </trkpt>
      <trkpt lat="45.14526" lon="5.835">
        <ele>549.6</ele>
        <time>2021-04-10T11:34:55Z</time>
      </trkpt>
      <trkpt lat="45.14529" lon="5.83494">
        <ele>549.2</ele>
        <time>2021-04-10T11:34:56Z</time>
      </trkpt>
      <trkpt lat="45.14531" lon="5.83488">
        <ele>549.4</ele>
        <time>2021-04-10T11:34:57Z</time>
      </trkpt>
      <trkpt lat="45.14532" lon="5.83484">
        <ele>549</ele>
        <time>2021-04-10T11:34:58Z</time>
      </trkpt>
      <trkpt lat="45.14533" lon="5.8348">
        <ele>549</ele>
        <time>2021-04-10T11:34:59Z</time>
      </trkpt>
      <trkpt lat="45.14535" lon="5.83472">
        <ele>548.6</ele>
        <time>2021-04-10T11:35:00Z</time>
      </trkpt>
      <trkpt lat="45.14535" lon="5.83469">
        <ele>548.4</ele>
        <time>2021-04-10T11:35:01Z</time>
      </trkpt>
      <trkpt lat="45.14536" lon="5.83466">
        <ele>547.8</ele>
        <time>2021-04-10T11:35:02Z</time>
      </trkpt>
      <trkpt lat="45.14536" lon="5.83464">
        <ele>547.6</ele>
        <time>2021-04-10T11:35:03Z</time>
      </trkpt>
      <trkpt lat="45.14538" lon="5.83453">
        <ele>547</ele>
        <time>2021-04-10T11:35:04Z</time>
      </trkpt>
      <trkpt lat="45.14538" lon="5.83451">
        <ele>546.4</ele>
        <time>2021-04-10T11:35:05Z</time>
      </trkpt>
      <trkpt lat="45.14539" lon="5.83448">
        <ele>545.8</ele>
        <time>2021-04-10T11:35:06Z</time>
      </trkpt>
      <trkpt lat="45.14541" lon="5.83441">
        <ele>545</ele>
        <time>2021-04-10T11:35:07Z</time>
      </trkpt>
      <trkpt lat="45.14541" lon="5.83441">
        <ele>544.4</ele>
        <time>2021-04-10T11:35:08Z</time>
      </trkpt>
      <trkpt lat="45.14541" lon="5.83441">
        <ele>543.8</ele>
        <time>2021-04-10T11:35:09Z</time>
      </trkpt>
      <trkpt lat="45.14541" lon="5.83438">
        <ele>543.6</ele>
        <time>2021-04-10T11:35:10Z</time>
      </trkpt>
      <trkpt lat="45.14541" lon="5.83435">
        <ele>543</ele>
        <time>2021-04-10T11:35:11Z</time>
      </trkpt>
      <trkpt lat="45.14541" lon="5.83433">
        <ele>543.4</ele>
        <time>2021-04-10T11:35:12Z</time>
      </trkpt>
      <trkpt lat="45.14542" lon="5.8343">
        <ele>543.2</ele>
        <time>2021-04-10T11:35:13Z</time>
      </trkpt>
      <trkpt lat="45.14542" lon="5.83427">
        <ele>543.2</ele>
        <time>2021-04-10T11:35:14Z</time>
      </trkpt>
      <trkpt lat="45.14542" lon="5.83424">
        <ele>543</ele>
        <time>2021-04-10T11:35:15Z</time>
      </trkpt>
      <trkpt lat="45.14543" lon="5.83422">
        <ele>543</ele>
        <time>2021-04-10T11:35:16Z</time>
      </trkpt>
      <trkpt lat="45.14543" lon="5.83418">
        <ele>542.8</ele>
        <time>2021-04-10T11:35:17Z</time>
      </trkpt>
      <trkpt lat="45.14543" lon="5.83415">
        <ele>542.4</ele>
        <time>2021-04-10T11:35:18Z</time>
      </trkpt>
      <trkpt lat="45.14543" lon="5.83412">
        <ele>542</ele>
        <time>2021-04-10T11:35:19Z</time>
      </trkpt>
      <trkpt lat="45.14542" lon="5.83409">
        <ele>541.2</ele>
        <time>2021-04-10T11:35:20Z</time>
      </trkpt>
      <trkpt lat="45.14542" lon="5.83405">
        <ele>541.4</ele>
        <time>2021-04-10T11:35:21Z</time>
      </trkpt>
      <trkpt lat="45.14542" lon="5.83402">
        <ele>541</ele>
        <time>2021-04-10T11:35:22Z</time>
      </trkpt>
      <trkpt lat="45.14541" lon="5.83401">
        <ele>541</ele>
        <time>2021-04-10T11:35:23Z</time>
      </trkpt>
      <trkpt lat="45.1454" lon="5.83399">
        <ele>540.8</ele>
        <time>2021-04-10T11:35:24Z</time>
      </trkpt>
      <trkpt lat="45.14539" lon="5.83397">
        <ele>540.8</ele>
        <time>2021-04-10T11:35:25Z</time>
      </trkpt>
      <trkpt lat="45.14538" lon="5.83396">
        <ele>540.2</ele>
        <time>2021-04-10T11:35:26Z</time>
      </trkpt>
      <trkpt lat="45.14537" lon="5.83394">
        <ele>540.2</ele>
        <time>2021-04-10T11:35:27Z</time>
      </trkpt>
      <trkpt lat="45.14536" lon="5.83393">
        <ele>539.6</ele>
        <time>2021-04-10T11:35:28Z</time>
      </trkpt>
      <trkpt lat="45.14533" lon="5.83393">
        <ele>539.4</ele>
        <time>2021-04-10T11:35:29Z</time>
      </trkpt>
      <trkpt lat="45.1453" lon="5.83394">
        <ele>539</ele>
        <time>2021-04-10T11:35:30Z</time>
      </trkpt>
      <trkpt lat="45.14528" lon="5.83395">
        <ele>538.8</ele>
        <time>2021-04-10T11:35:31Z</time>
      </trkpt>
      <trkpt lat="45.14525" lon="5.83395">
        <ele>538.2</ele>
        <time>2021-04-10T11:35:32Z</time>
      </trkpt>
      <trkpt lat="45.14523" lon="5.83396">
        <ele>538</ele>
        <time>2021-04-10T11:35:33Z</time>
      </trkpt>
      <trkpt lat="45.1452" lon="5.83397">
        <ele>537.4</ele>
        <time>2021-04-10T11:35:34Z</time>
      </trkpt>
      <trkpt lat="45.14517" lon="5.83397">
        <ele>536.4</ele>
        <time>2021-04-10T11:35:35Z</time>
      </trkpt>
      <trkpt lat="45.14515" lon="5.83397">
        <ele>536.4</ele>
        <time>2021-04-10T11:35:36Z</time>
      </trkpt>
      <trkpt lat="45.14513" lon="5.83397">
        <ele>536</ele>
        <time>2021-04-10T11:35:37Z</time>
      </trkpt>
      <trkpt lat="45.14511" lon="5.83396">
        <ele>535.8</ele>
        <time>2021-04-10T11:35:38Z</time>
      </trkpt>
      <trkpt lat="45.14509" lon="5.83396">
        <ele>535.2</ele>
        <time>2021-04-10T11:35:39Z</time>
      </trkpt>
      <trkpt lat="45.14507" lon="5.83396">
        <ele>534.8</ele>
        <time>2021-04-10T11:35:40Z</time>
      </trkpt>
      <trkpt lat="45.14505" lon="5.83396">
        <ele>534</ele>
        <time>2021-04-10T11:35:41Z</time>
      </trkpt>
      <trkpt lat="45.14503" lon="5.83395">
        <ele>533.2</ele>
        <time>2021-04-10T11:35:42Z</time>
      </trkpt>
      <trkpt lat="45.14501" lon="5.83395">
        <ele>532.8</ele>
        <time>2021-04-10T11:35:43Z</time>
      </trkpt>
      <trkpt lat="45.14501" lon="5.83395">
        <ele>532.2</ele>
        <time>2021-04-10T11:35:44Z</time>
      </trkpt>
      <trkpt lat="45.14501" lon="5.83395">
        <ele>532.4</ele>
        <time>2021-04-10T11:35:45Z</time>
      </trkpt>
      <trkpt lat="45.14499" lon="5.83397">
        <ele>532</ele>
        <time>2021-04-10T11:35:46Z</time>
      </trkpt>
      <trkpt lat="45.14497" lon="5.83398">
        <ele>531.8</ele>
        <time>2021-04-10T11:35:47Z</time>
      </trkpt>
      <trkpt lat="45.14495" lon="5.834">
        <ele>531.2</ele>
        <time>2021-04-10T11:35:48Z</time>
      </trkpt>
      <trkpt lat="45.14493" lon="5.83401">
        <ele>530.6</ele>
        <time>2021-04-10T11:35:49Z</time>
      </trkpt>
      <trkpt lat="45.14492" lon="5.83403">
        <ele>530.2</ele>
        <time>2021-04-10T11:35:50Z</time>
      </trkpt>
      <trkpt lat="45.1449" lon="5.83401">
        <ele>530.2</ele>
        <time>2021-04-10T11:35:51Z</time>
      </trkpt>
      <trkpt lat="45.14489" lon="5.834">
        <ele>530</ele>
        <time>2021-04-10T11:35:52Z</time>
      </trkpt>
      <trkpt lat="45.14487" lon="5.83398">
        <ele>529.6</ele>
        <time>2021-04-10T11:35:53Z</time>
      </trkpt>
      <trkpt lat="45.14486" lon="5.83396">
        <ele>529.4</ele>
        <time>2021-04-10T11:35:54Z</time>
      </trkpt>
      <trkpt lat="45.14484" lon="5.83394">
        <ele>529</ele>
        <time>2021-04-10T11:35:55Z</time>
      </trkpt>
      <trkpt lat="45.14486" lon="5.83382">
        <ele>528.4</ele>
        <time>2021-04-10T11:35:56Z</time>
      </trkpt>
      <trkpt lat="45.14486" lon="5.8338">
        <ele>527.8</ele>
        <time>2021-04-10T11:35:57Z</time>
      </trkpt>
      <trkpt lat="45.14485" lon="5.83377">
        <ele>527</ele>
        <time>2021-04-10T11:35:58Z</time>
      </trkpt>
      <trkpt lat="45.14485" lon="5.83375">
        <ele>526.8</ele>
        <time>2021-04-10T11:35:59Z</time>
      </trkpt>
      <trkpt lat="45.14485" lon="5.83373">
        <ele>526.4</ele>
        <time>2021-04-10T11:36:00Z</time>
      </trkpt>
      <trkpt lat="45.14483" lon="5.83365">
        <ele>526</ele>
        <time>2021-04-10T11:36:01Z</time>
      </trkpt>
      <trkpt lat="45.14481" lon="5.83364">
        <ele>525.8</ele>
        <time>2021-04-10T11:36:02Z</time>
      </trkpt>
      <trkpt lat="45.14478" lon="5.83362">
        <ele>525.4</ele>
        <time>2021-04-10T11:36:03Z</time>
      </trkpt>
      <trkpt lat="45.14478" lon="5.83361">
        <ele>524.8</ele>
        <time>2021-04-10T11:36:04Z</time>
      </trkpt>
      <trkpt lat="45.14478" lon="5.8336">
        <ele>524.2</ele>
        <time>2021-04-10T11:36:05Z</time>
      </trkpt>
      <trkpt lat="45.14477" lon="5.83358">
        <ele>523.8</ele>
        <time>2021-04-10T11:36:06Z</time>
      </trkpt>
      <trkpt lat="45.14477" lon="5.83357">
        <ele>523</ele>
        <time>2021-04-10T11:36:07Z</time>
      </trkpt>
      <trkpt lat="45.14477" lon="5.83356">
        <ele>522.8</ele>
        <time>2021-04-10T11:36:08Z</time>
      </trkpt>
      <trkpt lat="45.14476" lon="5.83354">
        <ele>522</ele>
        <time>2021-04-10T11:36:09Z</time>
      </trkpt>
      <trkpt lat="45.14476" lon="5.83353">
        <ele>522</ele>
        <time>2021-04-10T11:36:10Z</time>
      </trkpt>
      <trkpt lat="45.14476" lon="5.83351">
        <ele>521.4</ele>
        <time>2021-04-10T11:36:11Z</time>
      </trkpt>
      <trkpt lat="45.14475" lon="5.8335">
        <ele>521.2</ele>
        <time>2021-04-10T11:36:12Z</time>
      </trkpt>
      <trkpt lat="45.14475" lon="5.83349">
        <ele>520.6</ele>
        <time>2021-04-10T11:36:13Z</time>
      </trkpt>
      <trkpt lat="45.14475" lon="5.83347">
        <ele>520</ele>
        <time>2021-04-10T11:36:14Z</time>
      </trkpt>
      <trkpt lat="45.14474" lon="5.83346">
        <ele>519.6</ele>
        <time>2021-04-10T11:36:15Z</time>
      </trkpt>
      <trkpt lat="45.14474" lon="5.83345">
        <ele>518.8</ele>
        <time>2021-04-10T11:36:16Z</time>
      </trkpt>
      <trkpt lat="45.14474" lon="5.83343">
        <ele>519</ele>
        <time>2021-04-10T11:36:17Z</time>
      </trkpt>
      <trkpt lat="45.14473" lon="5.83342">
        <ele>518.8</ele>
        <time>2021-04-10T11:36:18Z</time>
      </trkpt>
      <trkpt lat="45.14473" lon="5.8334">
        <ele>518</ele>
        <time>2021-04-10T11:36:19Z</time>
      </trkpt>
      <trkpt lat="45.14473" lon="5.83339">
        <ele>517.2</ele>
        <time>2021-04-10T11:36:20Z</time>
      </trkpt>
      <trkpt lat="45.14472" lon="5.83338">
        <ele>515.6</ele>
        <time>2021-04-10T11:36:21Z</time>
      </trkpt>
      <trkpt lat="45.14472" lon="5.83336">
        <ele>514.6</ele>
        <time>2021-04-10T11:36:22Z</time>
      </trkpt>
      <trkpt lat="45.14472" lon="5.83335">
        <ele>513.6</ele>
        <time>2021-04-10T11:36:23Z</time>
      </trkpt>
      <trkpt lat="45.14471" lon="5.83334">
        <ele>513.2</ele>
        <time>2021-04-10T11:36:24Z</time>
      </trkpt>
      <trkpt lat="45.14471" lon="5.83332">
        <ele>512.2</ele>
        <time>2021-04-10T11:36:25Z</time>
      </trkpt>
      <trkpt lat="45.14471" lon="5.83331">
        <ele>510.6</ele>
        <time>2021-04-10T11:36:26Z</time>
      </trkpt>
      <trkpt lat="45.1447" lon="5.8333">
        <ele>509.4</ele>
        <time>2021-04-10T11:36:27Z</time>
      </trkpt>
      <trkpt lat="45.1447" lon="5.83328">
        <ele>508.4</ele>
        <time>2021-04-10T11:36:28Z</time>
      </trkpt>
      <trkpt lat="45.1447" lon="5.83327">
        <ele>508</ele>
        <time>2021-04-10T11:36:29Z</time>
      </trkpt>
      <trkpt lat="45.14469" lon="5.83325">
        <ele>507.2</ele>
        <time>2021-04-10T11:36:30Z</time>
      </trkpt>
      <trkpt lat="45.14469" lon="5.83324">
        <ele>506.2</ele>
        <time>2021-04-10T11:36:31Z</time>
      </trkpt>
      <trkpt lat="45.14469" lon="5.83323">
        <ele>505.6</ele>
        <time>2021-04-10T11:36:32Z</time>
      </trkpt>
      <trkpt lat="45.14468" lon="5.83321">
        <ele>505</ele>
        <time>2021-04-10T11:36:33Z</time>
      </trkpt>
      <trkpt lat="45.14468" lon="5.8332">
        <ele>504.2</ele>
        <time>2021-04-10T11:36:34Z</time>
      </trkpt>
      <trkpt lat="45.14468" lon="5.83319">
        <ele>504</ele>
        <time>2021-04-10T11:36:35Z</time>
      </trkpt>
      <trkpt lat="45.14467" lon="5.83317">
        <ele>503.2</ele>
        <time>2021-04-10T11:36:36Z</time>
      </trkpt>
      <trkpt lat="45.14467" lon="5.83316">
        <ele>502.6</ele>
        <time>2021-04-10T11:36:37Z</time>
      </trkpt>
      <trkpt lat="45.14467" lon="5.83314">
        <ele>502</ele>
        <time>2021-04-10T11:36:38Z</time>
      </trkpt>
      <trkpt lat="45.14466" lon="5.83313">
        <ele>501.4</ele>
        <time>2021-04-10T11:36:39Z</time>
      </trkpt>
      <trkpt lat="45.14466" lon="5.83312">
        <ele>501</ele>
        <time>2021-04-10T11:36:40Z</time>
      </trkpt>
      <trkpt lat="45.14466" lon="5.8331">
        <ele>499.6</ele>
        <time>2021-04-10T11:36:41Z</time>
      </trkpt>
      <trkpt lat="45.14465" lon="5.83309">
        <ele>498.6</ele>
        <time>2021-04-10T11:36:42Z</time>
      </trkpt>
      <trkpt lat="45.14465" lon="5.83308">
        <ele>498.4</ele>
        <time>2021-04-10T11:36:43Z</time>
      </trkpt>
      <trkpt lat="45.14465" lon="5.83306">
        <ele>497.6</ele>
        <time>2021-04-10T11:36:44Z</time>
      </trkpt>
      <trkpt lat="45.14464" lon="5.83305">
        <ele>497</ele>
        <time>2021-04-10T11:36:45Z</time>
      </trkpt>
      <trkpt lat="45.14464" lon="5.83304">
        <ele>496.2</ele>
        <time>2021-04-10T11:36:46Z</time>
      </trkpt>
      <trkpt lat="45.14464" lon="5.83302">
        <ele>495.8</ele>
        <time>2021-04-10T11:36:47Z</time>
      </trkpt>
      <trkpt lat="45.14463" lon="5.83301">
        <ele>494.6</ele>
        <time>2021-04-10T11:36:48Z</time>
      </trkpt>
      <trkpt lat="45.14463" lon="5.83299">
        <ele>493.8</ele>
        <time>2021-04-10T11:36:49Z</time>
      </trkpt>
      <trkpt lat="45.14463" lon="5.83298">
        <ele>493.2</ele>
        <time>2021-04-10T11:36:50Z</time>
      </trkpt>
      <trkpt lat="45.14462" lon="5.83297">
        <ele>492.6</ele>
        <time>2021-04-10T11:36:51Z</time>
      </trkpt>
      <trkpt lat="45.14462" lon="5.83295">
        <ele>492</ele>
        <time>2021-04-10T11:36:52Z</time>
      </trkpt>
      <trkpt lat="45.14462" lon="5.83294">
        <ele>491.6</ele>
        <time>2021-04-10T11:36:53Z</time>
      </trkpt>
      <trkpt lat="45.14461" lon="5.83293">
        <ele>491</ele>
        <time>2021-04-10T11:36:54Z</time>
      </trkpt>
      <trkpt lat="45.14461" lon="5.83291">
        <ele>489.8</ele>
        <time>2021-04-10T11:36:55Z</time>
      </trkpt>
      <trkpt lat="45.14461" lon="5.8329">
        <ele>489.2</ele>
        <time>2021-04-10T11:36:56Z</time>
      </trkpt>
      <trkpt lat="45.1446" lon="5.83289">
        <ele>488.4</ele>
        <time>2021-04-10T11:36:57Z</time>
      </trkpt>
      <trkpt lat="45.1446" lon="5.83287">
        <ele>487.4</ele>
        <time>2021-04-10T11:36:58Z</time>
      </trkpt>
      <trkpt lat="45.1446" lon="5.83286">
        <ele>487</ele>
        <time>2021-04-10T11:36:59Z</time>
      </trkpt>
      <trkpt lat="45.14459" lon="5.83284">
        <ele>486.2</ele>
        <time>2021-04-10T11:37:00Z</time>
      </trkpt>
      <trkpt lat="45.14459" lon="5.83283">
        <ele>485.4</ele>
        <time>2021-04-10T11:37:01Z</time>
      </trkpt>
      <trkpt lat="45.14459" lon="5.83282">
        <ele>484.4</ele>
        <time>2021-04-10T11:37:02Z</time>
      </trkpt>
      <trkpt lat="45.14458" lon="5.8328">
        <ele>483.8</ele>
        <time>2021-04-10T11:37:03Z</time>
      </trkpt>
      <trkpt lat="45.14458" lon="5.83279">
        <ele>483</ele>
        <time>2021-04-10T11:37:04Z</time>
      </trkpt>
      <trkpt lat="45.14458" lon="5.83278">
        <ele>482</ele>
        <time>2021-04-10T11:37:05Z</time>
      </trkpt>
      <trkpt lat="45.14457" lon="5.83276">
        <ele>481.6</ele>
        <time>2021-04-10T11:37:06Z</time>
      </trkpt>
      <trkpt lat="45.14457" lon="5.83275">
        <ele>480.6</ele>
        <time>2021-04-10T11:37:07Z</time>
      </trkpt>
      <trkpt lat="45.14457" lon="5.83273">
        <ele>480.2</ele>
        <time>2021-04-10T11:37:08Z</time>
      </trkpt>
      <trkpt lat="45.14456" lon="5.83272">
        <ele>479.4</ele>
        <time>2021-04-10T11:37:09Z</time>
      </trkpt>
      <trkpt lat="45.14456" lon="5.83271">
        <ele>479</ele>
        <time>2021-04-10T11:37:10Z</time>
      </trkpt>
      <trkpt lat="45.14456" lon="5.83269">
        <ele>478.4</ele>
        <time>2021-04-10T11:37:11Z</time>
      </trkpt>
      <trkpt lat="45.14455" lon="5.83268">
        <ele>478.6</ele>
        <time>2021-04-10T11:37:12Z</time>
      </trkpt>
      <trkpt lat="45.14455" lon="5.83267">
        <ele>478</ele>
        <time>2021-04-10T11:37:13Z</time>
      </trkpt>
      <trkpt lat="45.14455" lon="5.83265">
        <ele>477.8</ele>
        <time>2021-04-10T11:37:14Z</time>
      </trkpt>
      <trkpt lat="45.14454" lon="5.83264">
        <ele>477.4</ele>
        <time>2021-04-10T11:37:15Z</time>
      </trkpt>
      <trkpt lat="45.14454" lon="5.83263">
        <ele>477.2</ele>
        <time>2021-04-10T11:37:16Z</time>
      </trkpt>
      <trkpt lat="45.14454" lon="5.83261">
        <ele>477</ele>
        <time>2021-04-10T11:37:17Z</time>
      </trkpt>
      <trkpt lat="45.14453" lon="5.8326">
        <ele>477</ele>
        <time>2021-04-10T11:37:18Z</time>
      </trkpt>
      <trkpt lat="45.14453" lon="5.83258">
        <ele>477</ele>
        <time>2021-04-10T11:37:19Z</time>
      </trkpt>
      <trkpt lat="45.14453" lon="5.83257">
        <ele>476.8</ele>
        <time>2021-04-10T11:37:20Z</time>
      </trkpt>
      <trkpt lat="45.14452" lon="5.83256">
        <ele>476.8</ele>
        <time>2021-04-10T11:37:21Z</time>
      </trkpt>
      <trkpt lat="45.14452" lon="5.83254">
        <ele>476.6</ele>
        <time>2021-04-10T11:37:22Z</time>
      </trkpt>
      <trkpt lat="45.14452" lon="5.83253">
        <ele>476</ele>
        <time>2021-04-10T11:37:23Z</time>
      </trkpt>
      <trkpt lat="45.14451" lon="5.83252">
        <ele>475.8</ele>
        <time>2021-04-10T11:37:24Z</time>
      </trkpt>
      <trkpt lat="45.14451" lon="5.8325">
        <ele>475.6</ele>
        <time>2021-04-10T11:37:25Z</time>
      </trkpt>
      <trkpt lat="45.14451" lon="5.83249">
        <ele>475.2</ele>
        <time>2021-04-10T11:37:26Z</time>
      </trkpt>
      <trkpt lat="45.1445" lon="5.83247">
        <ele>475.2</ele>
        <time>2021-04-10T11:37:27Z</time>
      </trkpt>
      <trkpt lat="45.1445" lon="5.83246">
        <ele>475</ele>
        <time>2021-04-10T11:37:28Z</time>
      </trkpt>
      <trkpt lat="45.1445" lon="5.83245">
        <ele>475</ele>
        <time>2021-04-10T11:37:29Z</time>
      </trkpt>
      <trkpt lat="45.14449" lon="5.83243">
        <ele>474.6</ele>
        <time>2021-04-10T11:37:30Z</time>
      </trkpt>
      <trkpt lat="45.14449" lon="5.83242">
        <ele>474.2</ele>
        <time>2021-04-10T11:37:31Z</time>
      </trkpt>
      <trkpt lat="45.14448" lon="5.83241">
        <ele>473.8</ele>
        <time>2021-04-10T11:37:32Z</time>
      </trkpt>
      <trkpt lat="45.14448" lon="5.83239">
        <ele>473.8</ele>
        <time>2021-04-10T11:37:33Z</time>
      </trkpt>
      <trkpt lat="45.14448" lon="5.83238">
        <ele>473.8</ele>
        <time>2021-04-10T11:37:34Z</time>
      </trkpt>
      <trkpt lat="45.14447" lon="5.83237">
        <ele>474</ele>
        <time>2021-04-10T11:37:35Z</time>
      </trkpt>
      <trkpt lat="45.14447" lon="5.83235">
        <ele>474</ele>
        <time>2021-04-10T11:37:36Z</time>
      </trkpt>
      <trkpt lat="45.14447" lon="5.83234">
        <ele>474.2</ele>
        <time>2021-04-10T11:37:37Z</time>
      </trkpt>
      <trkpt lat="45.14446" lon="5.83232">
        <ele>474.2</ele>
        <time>2021-04-10T11:37:38Z</time>
      </trkpt>
      <trkpt lat="45.14446" lon="5.83231">
        <ele>474.8</ele>
        <time>2021-04-10T11:37:39Z</time>
      </trkpt>
      <trkpt lat="45.14446" lon="5.8323">
        <ele>474.8</ele>
        <time>2021-04-10T11:37:40Z</time>
      </trkpt>
      <trkpt lat="45.14445" lon="5.83228">
        <ele>475</ele>
        <time>2021-04-10T11:37:41Z</time>
      </trkpt>
      <trkpt lat="45.14445" lon="5.83227">
        <ele>474.6</ele>
        <time>2021-04-10T11:37:42Z</time>
      </trkpt>
      <trkpt lat="45.14445" lon="5.83226">
        <ele>474.2</ele>
        <time>2021-04-10T11:37:43Z</time>
      </trkpt>
      <trkpt lat="45.14444" lon="5.83224">
        <ele>473.8</ele>
        <time>2021-04-10T11:37:44Z</time>
      </trkpt>
      <trkpt lat="45.14444" lon="5.83223">
        <ele>473.2</ele>
        <time>2021-04-10T11:37:45Z</time>
      </trkpt>
      <trkpt lat="45.14444" lon="5.83222">
        <ele>472.6</ele>
        <time>2021-04-10T11:37:46Z</time>
      </trkpt>
      <trkpt lat="45.14443" lon="5.8322">
        <ele>471.6</ele>
        <time>2021-04-10T11:37:47Z</time>
      </trkpt>
      <trkpt lat="45.14443" lon="5.83219">
        <ele>470.6</ele>
        <time>2021-04-10T11:37:48Z</time>
      </trkpt>
      <trkpt lat="45.14443" lon="5.83217">
        <ele>469.6</ele>
        <time>2021-04-10T11:37:49Z</time>
      </trkpt>
      <trkpt lat="45.14442" lon="5.83216">
        <ele>469</ele>
        <time>2021-04-10T11:37:50Z</time>
      </trkpt>
      <trkpt lat="45.14442" lon="5.83215">
        <ele>468.6</ele>
        <time>2021-04-10T11:37:51Z</time>
      </trkpt>
      <trkpt lat="45.14442" lon="5.83213">
        <ele>468.6</ele>
        <time>2021-04-10T11:37:52Z</time>
      </trkpt>
      <trkpt lat="45.14441" lon="5.83212">
        <ele>468.2</ele>
        <time>2021-04-10T11:37:53Z</time>
      </trkpt>
      <trkpt lat="45.14405" lon="5.83062">
        <ele>468.2</ele>
        <time>2021-04-10T11:37:54Z</time>
      </trkpt>
      <trkpt lat="45.14407" lon="5.83059">
        <ele>467.8</ele>
        <time>2021-04-10T11:37:55Z</time>
      </trkpt>
      <trkpt lat="45.1441" lon="5.83056">
        <ele>467.2</ele>
        <time>2021-04-10T11:37:56Z</time>
      </trkpt>
      <trkpt lat="45.14414" lon="5.83051">
        <ele>466.6</ele>
        <time>2021-04-10T11:37:57Z</time>
      </trkpt>
      <trkpt lat="45.14419" lon="5.83046">
        <ele>466.2</ele>
        <time>2021-04-10T11:37:58Z</time>
      </trkpt>
      <trkpt lat="45.14421" lon="5.83044">
        <ele>465.6</ele>
        <time>2021-04-10T11:37:59Z</time>
      </trkpt>
      <trkpt lat="45.14422" lon="5.83042">
        <ele>465</ele>
        <time>2021-04-10T11:38:00Z</time>
      </trkpt>
      <trkpt lat="45.14424" lon="5.8304">
        <ele>464.2</ele>
        <time>2021-04-10T11:38:01Z</time>
      </trkpt>
      <trkpt lat="45.14429" lon="5.83034">
        <ele>463.2</ele>
        <time>2021-04-10T11:38:02Z</time>
      </trkpt>
      <trkpt lat="45.14429" lon="5.83034">
        <ele>462.6</ele>
        <time>2021-04-10T11:38:03Z</time>
      </trkpt>
      <trkpt lat="45.14429" lon="5.83034">
        <ele>461.8</ele>
        <time>2021-04-10T11:38:04Z</time>
      </trkpt>
      <trkpt lat="45.14428" lon="5.83035">
        <ele>461.6</ele>
        <time>2021-04-10T11:38:05Z</time>
      </trkpt>
      <trkpt lat="45.14426" lon="5.83037">
        <ele>461.2</ele>
        <time>2021-04-10T11:38:06Z</time>
      </trkpt>
      <trkpt lat="45.14424" lon="5.83038">
        <ele>460.8</ele>
        <time>2021-04-10T11:38:07Z</time>
      </trkpt>
      <trkpt lat="45.14423" lon="5.8304">
        <ele>459.8</ele>
        <time>2021-04-10T11:38:08Z</time>
      </trkpt>
      <trkpt lat="45.14421" lon="5.83042">
        <ele>459</ele>
        <time>2021-04-10T11:38:09Z</time>
      </trkpt>
      <trkpt lat="45.14419" lon="5.83043">
        <ele>458.8</ele>
        <time>2021-04-10T11:38:10Z</time>
      </trkpt>
      <trkpt lat="45.14418" lon="5.83045">
        <ele>458.4</ele>
        <time>2021-04-10T11:38:11Z</time>
      </trkpt>
      <trkpt lat="45.14416" lon="5.83046">
        <ele>458</ele>
        <time>2021-04-10T11:38:12Z</time>
      </trkpt>
      <trkpt lat="45.14408" lon="5.83052">
        <ele>457.8</ele>
        <time>2021-04-10T11:38:13Z</time>
      </trkpt>
      <trkpt lat="45.14404" lon="5.83055">
        <ele>457.4</ele>
        <time>2021-04-10T11:38:14Z</time>
      </trkpt>
      <trkpt lat="45.144" lon="5.83058">
        <ele>457.4</ele>
        <time>2021-04-10T11:38:15Z</time>
      </trkpt>
      <trkpt lat="45.14398" lon="5.83058">
        <ele>456.8</ele>
        <time>2021-04-10T11:38:16Z</time>
      </trkpt>
      <trkpt lat="45.14396" lon="5.83058">
        <ele>456.2</ele>
        <time>2021-04-10T11:38:17Z</time>
      </trkpt>
      <trkpt lat="45.14394" lon="5.83058">
        <ele>456</ele>
        <time>2021-04-10T11:38:18Z</time>
      </trkpt>
      <trkpt lat="45.14389" lon="5.83059">
        <ele>455.6</ele>
        <time>2021-04-10T11:38:19Z</time>
      </trkpt>
      <trkpt lat="45.14389" lon="5.83059">
        <ele>455.4</ele>
        <time>2021-04-10T11:38:20Z</time>
      </trkpt>
      <trkpt lat="45.14389" lon="5.83059">
        <ele>455</ele>
        <time>2021-04-10T11:38:21Z</time>
      </trkpt>
      <trkpt lat="45.14391" lon="5.83055">
        <ele>454.6</ele>
        <time>2021-04-10T11:38:22Z</time>
      </trkpt>
      <trkpt lat="45.14393" lon="5.83051">
        <ele>453.8</ele>
        <time>2021-04-10T11:38:23Z</time>
      </trkpt>
      <trkpt lat="45.14395" lon="5.83048">
        <ele>453.2</ele>
        <time>2021-04-10T11:38:24Z</time>
      </trkpt>
      <trkpt lat="45.14398" lon="5.83044">
        <ele>452.8</ele>
        <time>2021-04-10T11:38:25Z</time>
      </trkpt>
      <trkpt lat="45.144" lon="5.8304">
        <ele>452.4</ele>
        <time>2021-04-10T11:38:26Z</time>
      </trkpt>
      <trkpt lat="45.144" lon="5.8304">
        <ele>452.2</ele>
        <time>2021-04-10T11:38:27Z</time>
      </trkpt>
      <trkpt lat="45.144" lon="5.8304">
        <ele>451.6</ele>
        <time>2021-04-10T11:38:28Z</time>
      </trkpt>
      <trkpt lat="45.14401" lon="5.8304">
        <ele>451.2</ele>
        <time>2021-04-10T11:38:29Z</time>
      </trkpt>
      <trkpt lat="45.14403" lon="5.83039">
        <ele>450.2</ele>
        <time>2021-04-10T11:38:30Z</time>
      </trkpt>
      <trkpt lat="45.14404" lon="5.83039">
        <ele>449.6</ele>
        <time>2021-04-10T11:38:31Z</time>
      </trkpt>
      <trkpt lat="45.14406" lon="5.83039">
        <ele>449</ele>
        <time>2021-04-10T11:38:32Z</time>
      </trkpt>
      <trkpt lat="45.14407" lon="5.83039">
        <ele>448.2</ele>
        <time>2021-04-10T11:38:33Z</time>
      </trkpt>
      <trkpt lat="45.14409" lon="5.83038">
        <ele>448</ele>
        <time>2021-04-10T11:38:34Z</time>
      </trkpt>
      <trkpt lat="45.1441" lon="5.83038">
        <ele>447.6</ele>
        <time>2021-04-10T11:38:35Z</time>
      </trkpt>
      <trkpt lat="45.14408" lon="5.83039">
        <ele>447.2</ele>
        <time>2021-04-10T11:38:36Z</time>
      </trkpt>
      <trkpt lat="45.14406" lon="5.83039">
        <ele>446.6</ele>
        <time>2021-04-10T11:38:37Z</time>
      </trkpt>
      <trkpt lat="45.14404" lon="5.83039">
        <ele>446.2</ele>
        <time>2021-04-10T11:38:38Z</time>
      </trkpt>
      <trkpt lat="45.14402" lon="5.8304">
        <ele>445.4</ele>
        <time>2021-04-10T11:38:39Z</time>
      </trkpt>
      <trkpt lat="45.144" lon="5.8304">
        <ele>445</ele>
        <time>2021-04-10T11:38:40Z</time>
      </trkpt>
      <trkpt lat="45.14398" lon="5.8304">
        <ele>445</ele>
        <time>2021-04-10T11:38:41Z</time>
      </trkpt>
      <trkpt lat="45.14396" lon="5.83041">
        <ele>444.4</ele>
        <time>2021-04-10T11:38:42Z</time>
      </trkpt>
      <trkpt lat="45.14394" lon="5.83041">
        <ele>444</ele>
        <time>2021-04-10T11:38:43Z</time>
      </trkpt>
      <trkpt lat="45.14392" lon="5.83041">
        <ele>443.4</ele>
        <time>2021-04-10T11:38:44Z</time>
      </trkpt>
      <trkpt lat="45.14389" lon="5.83042">
        <ele>443</ele>
        <time>2021-04-10T11:38:45Z</time>
      </trkpt>
      <trkpt lat="45.14388" lon="5.83038">
        <ele>442.2</ele>
        <time>2021-04-10T11:38:46Z</time>
      </trkpt>
      <trkpt lat="45.14387" lon="5.83035">
        <ele>442</ele>
        <time>2021-04-10T11:38:47Z</time>
      </trkpt>
      <trkpt lat="45.14385" lon="5.83029">
        <ele>440.8</ele>
        <time>2021-04-10T11:38:48Z</time>
      </trkpt>
      <trkpt lat="45.14386" lon="5.83025">
        <ele>440.2</ele>
        <time>2021-04-10T11:38:49Z</time>
      </trkpt>
      <trkpt lat="45.14388" lon="5.83021">
        <ele>440.2</ele>
        <time>2021-04-10T11:38:50Z</time>
      </trkpt>
      <trkpt lat="45.14389" lon="5.83017">
        <ele>439.8</ele>
        <time>2021-04-10T11:38:51Z</time>
      </trkpt>
      <trkpt lat="45.14389" lon="5.83017">
        <ele>439.4</ele>
        <time>2021-04-10T11:38:52Z</time>
      </trkpt>
      <trkpt lat="45.14389" lon="5.83017">
        <ele>439</ele>
        <time>2021-04-10T11:38:53Z</time>
      </trkpt>
      <trkpt lat="45.14389" lon="5.83017">
        <ele>438.2</ele>
        <time>2021-04-10T11:38:54Z</time>
      </trkpt>
      <trkpt lat="45.1439" lon="5.83016">
        <ele>438.2</ele>
        <time>2021-04-10T11:38:55Z</time>
      </trkpt>
      <trkpt lat="45.14392" lon="5.83014">
        <ele>437.8</ele>
        <time>2021-04-10T11:38:56Z</time>
      </trkpt>
      <trkpt lat="45.14393" lon="5.83013">
        <ele>437.6</ele>
        <time>2021-04-10T11:38:57Z</time>
      </trkpt>
      <trkpt lat="45.14395" lon="5.83011">
        <ele>437.2</ele>
        <time>2021-04-10T11:38:58Z</time>
      </trkpt>
      <trkpt lat="45.14396" lon="5.8301">
        <ele>436.2</ele>
        <time>2021-04-10T11:38:59Z</time>
      </trkpt>
      <trkpt lat="45.14397" lon="5.83009">
        <ele>436</ele>
        <time>2021-04-10T11:39:00Z</time>
      </trkpt>
      <trkpt lat="45.14399" lon="5.83007">
        <ele>435.8</ele>
        <time>2021-04-10T11:39:01Z</time>
      </trkpt>
      <trkpt lat="45.144" lon="5.83005">
        <ele>435.8</ele>
        <time>2021-04-10T11:39:02Z</time>
      </trkpt>
      <trkpt lat="45.14402" lon="5.83003">
        <ele>435.6</ele>
        <time>2021-04-10T11:39:03Z</time>
      </trkpt>
      <trkpt lat="45.14403" lon="5.83001">
        <ele>435</ele>
        <time>2021-04-10T11:39:04Z</time>
      </trkpt>
      <trkpt lat="45.14405" lon="5.82999">
        <ele>434.4</ele>
        <time>2021-04-10T11:39:05Z</time>
      </trkpt>
      <trkpt lat="45.14402" lon="5.83001">
        <ele>434</ele>
        <time>2021-04-10T11:39:06Z</time>
      </trkpt>
      <trkpt lat="45.14399" lon="5.83003">
        <ele>433.6</ele>
        <time>2021-04-10T11:39:07Z</time>
      </trkpt>
      <trkpt lat="45.14396" lon="5.83005">
        <ele>433.6</ele>
        <time>2021-04-10T11:39:08Z</time>
      </trkpt>
      <trkpt lat="45.14393" lon="5.83007">
        <ele>433</ele>
        <time>2021-04-10T11:39:09Z</time>
      </trkpt>
      <trkpt lat="45.1439" lon="5.83009">
        <ele>432.8</ele>
        <time>2021-04-10T11:39:10Z</time>
      </trkpt>
      <trkpt lat="45.14384" lon="5.83011">
        <ele>432</ele>
        <time>2021-04-10T11:39:11Z</time>
      </trkpt>
      <trkpt lat="45.14384" lon="5.83011">
        <ele>431.6</ele>
        <time>2021-04-10T11:39:12Z</time>
      </trkpt>
      <trkpt lat="45.14384" lon="5.83011">
        <ele>430.8</ele>
        <time>2021-04-10T11:39:13Z</time>
      </trkpt>
      <trkpt lat="45.14382" lon="5.8301">
        <ele>430.2</ele>
        <time>2021-04-10T11:39:14Z</time>
      </trkpt>
      <trkpt lat="45.14381" lon="5.83009">
        <ele>430.2</ele>
        <time>2021-04-10T11:39:15Z</time>
      </trkpt>
      <trkpt lat="45.14379" lon="5.83008">
        <ele>430</ele>
        <time>2021-04-10T11:39:16Z</time>
      </trkpt>
      <trkpt lat="45.14377" lon="5.83007">
        <ele>430</ele>
        <time>2021-04-10T11:39:17Z</time>
      </trkpt>
      <trkpt lat="45.14375" lon="5.83006">
        <ele>429.2</ele>
        <time>2021-04-10T11:39:18Z</time>
      </trkpt>
      <trkpt lat="45.14364" lon="5.82999">
        <ele>428.6</ele>
        <time>2021-04-10T11:39:19Z</time>
      </trkpt>
      <trkpt lat="45.14363" lon="5.82999">
        <ele>428.2</ele>
        <time>2021-04-10T11:39:20Z</time>
      </trkpt>
      <trkpt lat="45.14362" lon="5.82999">
        <ele>427.8</ele>
        <time>2021-04-10T11:39:21Z</time>
      </trkpt>
      <trkpt lat="45.14361" lon="5.82998">
        <ele>427</ele>
        <time>2021-04-10T11:39:22Z</time>
      </trkpt>
      <trkpt lat="45.14356" lon="5.82996">
        <ele>426.6</ele>
        <time>2021-04-10T11:39:23Z</time>
      </trkpt>
      <trkpt lat="45.14356" lon="5.82996">
        <ele>426.2</ele>
        <time>2021-04-10T11:39:24Z</time>
      </trkpt>
      <trkpt lat="45.14356" lon="5.82996">
        <ele>425.6</ele>
        <time>2021-04-10T11:39:25Z</time>
      </trkpt>
      <trkpt lat="45.14355" lon="5.82994">
        <ele>425.2</ele>
        <time>2021-04-10T11:39:26Z</time>
      </trkpt>
      <trkpt lat="45.14353" lon="5.82991">
        <ele>425.2</ele>
        <time>2021-04-10T11:39:27Z</time>
      </trkpt>
      <trkpt lat="45.14351" lon="5.82989">
        <ele>424.8</ele>
        <time>2021-04-10T11:39:28Z</time>
      </trkpt>
      <trkpt lat="45.1435" lon="5.82986">
        <ele>425.2</ele>
        <time>2021-04-10T11:39:29Z</time>
      </trkpt>
      <trkpt lat="45.14348" lon="5.82984">
        <ele>425</ele>
        <time>2021-04-10T11:39:30Z</time>
      </trkpt>
      <trkpt lat="45.14347" lon="5.82981">
        <ele>425.6</ele>
        <time>2021-04-10T11:39:31Z</time>
      </trkpt>
      <trkpt lat="45.14345" lon="5.82979">
        <ele>425</ele>
        <time>2021-04-10T11:39:32Z</time>
      </trkpt>
      <trkpt lat="45.14341" lon="5.82973">
        <ele>425.2</ele>
        <time>2021-04-10T11:39:33Z</time>
      </trkpt>
      <trkpt lat="45.14341" lon="5.82973">
        <ele>425</ele>
        <time>2021-04-10T11:39:34Z</time>
      </trkpt>
      <trkpt lat="45.14341" lon="5.82973">
        <ele>425</ele>
        <time>2021-04-10T11:39:35Z</time>
      </trkpt>
      <trkpt lat="45.14341" lon="5.82973">
        <ele>424.8</ele>
        <time>2021-04-10T11:39:36Z</time>
      </trkpt>
      <trkpt lat="45.14341" lon="5.82973">
        <ele>424.8</ele>
        <time>2021-04-10T11:39:37Z</time>
      </trkpt>
      <trkpt lat="45.14338" lon="5.82971">
        <ele>424.6</ele>
        <time>2021-04-10T11:39:38Z</time>
      </trkpt>
      <trkpt lat="45.14335" lon="5.8297">
        <ele>424.4</ele>
        <time>2021-04-10T11:39:39Z</time>
      </trkpt>
      <trkpt lat="45.14332" lon="5.82968">
        <ele>424.4</ele>
        <time>2021-04-10T11:39:40Z</time>
      </trkpt>
      <trkpt lat="45.14329" lon="5.82966">
        <ele>424.4</ele>
        <time>2021-04-10T11:39:41Z</time>
      </trkpt>
      <trkpt lat="45.14327" lon="5.82964">
        <ele>424.2</ele>
        <time>2021-04-10T11:39:42Z</time>
      </trkpt>
      <trkpt lat="45.14324" lon="5.82962">
        <ele>424.4</ele>
        <time>2021-04-10T11:39:43Z</time>
      </trkpt>
      <trkpt lat="45.14321" lon="5.8296">
        <ele>424.2</ele>
        <time>2021-04-10T11:39:44Z</time>
      </trkpt>
      <trkpt lat="45.14318" lon="5.82959">
        <ele>424.2</ele>
        <time>2021-04-10T11:39:45Z</time>
      </trkpt>
      <trkpt lat="45.14315" lon="5.82957">
        <ele>424.2</ele>
        <time>2021-04-10T11:39:46Z</time>
      </trkpt>
      <trkpt lat="45.14314" lon="5.82954">
        <ele>424</ele>
        <time>2021-04-10T11:39:47Z</time>
      </trkpt>
      <trkpt lat="45.14313" lon="5.82952">
        <ele>424.2</ele>
        <time>2021-04-10T11:39:48Z</time>
      </trkpt>
      <trkpt lat="45.14312" lon="5.82949">
        <ele>424</ele>
        <time>2021-04-10T11:39:49Z</time>
      </trkpt>
      <trkpt lat="45.14311" lon="5.82947">
        <ele>424.4</ele>
        <time>2021-04-10T11:39:50Z</time>
      </trkpt>
      <trkpt lat="45.1431" lon="5.82945">
        <ele>424.4</ele>
        <time>2021-04-10T11:39:51Z</time>
      </trkpt>
      <trkpt lat="45.1431" lon="5.82943">
        <ele>424.8</ele>
        <time>2021-04-10T11:39:52Z</time>
      </trkpt>
      <trkpt lat="45.1431" lon="5.82942">
        <ele>425</ele>
        <time>2021-04-10T11:39:53Z</time>
      </trkpt>
      <trkpt lat="45.14311" lon="5.82941">
        <ele>425.2</ele>
        <time>2021-04-10T11:39:54Z</time>
      </trkpt>
      <trkpt lat="45.14311" lon="5.8294">
        <ele>425.2</ele>
        <time>2021-04-10T11:39:55Z</time>
      </trkpt>
      <trkpt lat="45.14311" lon="5.82938">
        <ele>425.2</ele>
        <time>2021-04-10T11:39:56Z</time>
      </trkpt>
      <trkpt lat="45.14311" lon="5.82937">
        <ele>425.6</ele>
        <time>2021-04-10T11:39:57Z</time>
      </trkpt>
      <trkpt lat="45.14311" lon="5.82936">
        <ele>425.6</ele>
        <time>2021-04-10T11:39:58Z</time>
      </trkpt>
      <trkpt lat="45.14311" lon="5.82935">
        <ele>425.8</ele>
        <time>2021-04-10T11:39:59Z</time>
      </trkpt>
      <trkpt lat="45.14311" lon="5.82934">
        <ele>426.6</ele>
        <time>2021-04-10T11:40:01Z</time>
      </trkpt>
      <trkpt lat="45.14311" lon="5.82932">
        <ele>426.8</ele>
        <time>2021-04-10T11:40:02Z</time>
      </trkpt>
      <trkpt lat="45.14311" lon="5.82931">
        <ele>427</ele>
        <time>2021-04-10T11:40:03Z</time>
      </trkpt>
      <trkpt lat="45.14311" lon="5.8293">
        <ele>427.2</ele>
        <time>2021-04-10T11:40:04Z</time>
      </trkpt>
      <trkpt lat="45.14311" lon="5.82929">
        <ele>427.6</ele>
        <time>2021-04-10T11:40:05Z</time>
      </trkpt>
      <trkpt lat="45.14313" lon="5.82927">
        <ele>428</ele>
        <time>2021-04-10T11:40:06Z</time>
      </trkpt>
      <trkpt lat="45.14314" lon="5.82925">
        <ele>428.2</ele>
        <time>2021-04-10T11:40:07Z</time>
      </trkpt>
      <trkpt lat="45.14316" lon="5.82923">
        <ele>428.6</ele>
        <time>2021-04-10T11:40:08Z</time>
      </trkpt>
      <trkpt lat="45.14317" lon="5.82921">
        <ele>428.6</ele>
        <time>2021-04-10T11:40:09Z</time>
      </trkpt>
      <trkpt lat="45.14318" lon="5.8292">
        <ele>428.6</ele>
        <time>2021-04-10T11:40:10Z</time>
      </trkpt>
      <trkpt lat="45.14319" lon="5.82919">
        <ele>428.8</ele>
        <time>2021-04-10T11:40:11Z</time>
      </trkpt>
      <trkpt lat="45.14319" lon="5.82918">
        <ele>429</ele>
        <time>2021-04-10T11:40:12Z</time>
      </trkpt>
      <trkpt lat="45.14319" lon="5.82918">
        <ele>429</ele>
        <time>2021-04-10T11:40:13Z</time>
      </trkpt>
      <trkpt lat="45.14319" lon="5.82917">
        <ele>429.2</ele>
        <time>2021-04-10T11:40:14Z</time>
      </trkpt>
      <trkpt lat="45.14319" lon="5.82916">
        <ele>429.2</ele>
        <time>2021-04-10T11:40:15Z</time>
      </trkpt>
      <trkpt lat="45.14319" lon="5.82916">
        <ele>429.6</ele>
        <time>2021-04-10T11:40:16Z</time>
      </trkpt>
      <trkpt lat="45.14319" lon="5.82915">
        <ele>429.6</ele>
        <time>2021-04-10T11:40:17Z</time>
      </trkpt>
      <trkpt lat="45.14319" lon="5.82914">
        <ele>429.8</ele>
        <time>2021-04-10T11:40:18Z</time>
      </trkpt>
      <trkpt lat="45.1432" lon="5.82914">
        <ele>430</ele>
        <time>2021-04-10T11:40:19Z</time>
      </trkpt>
      <trkpt lat="45.1432" lon="5.82913">
        <ele>430.2</ele>
        <time>2021-04-10T11:40:20Z</time>
      </trkpt>
      <trkpt lat="45.1432" lon="5.82913">
        <ele>430.4</ele>
        <time>2021-04-10T11:40:21Z</time>
      </trkpt>
      <trkpt lat="45.1432" lon="5.82912">
        <ele>430.8</ele>
        <time>2021-04-10T11:40:22Z</time>
      </trkpt>
      <trkpt lat="45.1432" lon="5.82911">
        <ele>431</ele>
        <time>2021-04-10T11:40:23Z</time>
      </trkpt>
      <trkpt lat="45.1432" lon="5.82911">
        <ele>431.4</ele>
        <time>2021-04-10T11:40:24Z</time>
      </trkpt>
      <trkpt lat="45.1432" lon="5.8291">
        <ele>431.6</ele>
        <time>2021-04-10T11:40:25Z</time>
      </trkpt>
      <trkpt lat="45.14321" lon="5.82909">
        <ele>431.8</ele>
        <time>2021-04-10T11:40:26Z</time>
      </trkpt>
      <trkpt lat="45.14321" lon="5.82909">
        <ele>432</ele>
        <time>2021-04-10T11:40:27Z</time>
      </trkpt>
      <trkpt lat="45.14321" lon="5.82908">
        <ele>432.2</ele>
        <time>2021-04-10T11:40:28Z</time>
      </trkpt>
      <trkpt lat="45.14321" lon="5.82907">
        <ele>432.2</ele>
        <time>2021-04-10T11:40:29Z</time>
      </trkpt>
      <trkpt lat="45.14321" lon="5.82907">
        <ele>432.4</ele>
        <time>2021-04-10T11:40:30Z</time>
      </trkpt>
      <trkpt lat="45.1432" lon="5.82906">
        <ele>432.8</ele>
        <time>2021-04-10T11:40:31Z</time>
      </trkpt>
      <trkpt lat="45.1432" lon="5.82905">
        <ele>433.2</ele>
        <time>2021-04-10T11:40:32Z</time>
      </trkpt>
      <trkpt lat="45.14319" lon="5.82904">
        <ele>433.6</ele>
        <time>2021-04-10T11:40:33Z</time>
      </trkpt>
      <trkpt lat="45.14318" lon="5.82903">
        <ele>433.8</ele>
        <time>2021-04-10T11:40:34Z</time>
      </trkpt>
      <trkpt lat="45.14317" lon="5.82901">
        <ele>434.2</ele>
        <time>2021-04-10T11:40:35Z</time>
      </trkpt>
      <trkpt lat="45.14317" lon="5.829">
        <ele>434.4</ele>
        <time>2021-04-10T11:40:36Z</time>
      </trkpt>
      <trkpt lat="45.14316" lon="5.82899">
        <ele>434.6</ele>
        <time>2021-04-10T11:40:37Z</time>
      </trkpt>
      <trkpt lat="45.14315" lon="5.82898">
        <ele>434.6</ele>
        <time>2021-04-10T11:40:38Z</time>
      </trkpt>
      <trkpt lat="45.14314" lon="5.82897">
        <ele>434.8</ele>
        <time>2021-04-10T11:40:39Z</time>
      </trkpt>
      <trkpt lat="45.14314" lon="5.82896">
        <ele>434.8</ele>
        <time>2021-04-10T11:40:40Z</time>
      </trkpt>
      <trkpt lat="45.14313" lon="5.82895">
        <ele>435.2</ele>
        <time>2021-04-10T11:40:41Z</time>
      </trkpt>
      <trkpt lat="45.14312" lon="5.82894">
        <ele>435.4</ele>
        <time>2021-04-10T11:40:42Z</time>
      </trkpt>
      <trkpt lat="45.14312" lon="5.82894">
        <ele>435.8</ele>
        <time>2021-04-10T11:40:43Z</time>
      </trkpt>
      <trkpt lat="45.14313" lon="5.82894">
        <ele>436</ele>
        <time>2021-04-10T11:40:44Z</time>
      </trkpt>
      <trkpt lat="45.14313" lon="5.82894">
        <ele>436.6</ele>
        <time>2021-04-10T11:40:45Z</time>
      </trkpt>
      <trkpt lat="45.14313" lon="5.82893">
        <ele>436.6</ele>
        <time>2021-04-10T11:40:46Z</time>
      </trkpt>
      <trkpt lat="45.14314" lon="5.82893">
        <ele>437</ele>
        <time>2021-04-10T11:40:47Z</time>
      </trkpt>
      <trkpt lat="45.14314" lon="5.82893">
        <ele>437.2</ele>
        <time>2021-04-10T11:40:48Z</time>
      </trkpt>
      <trkpt lat="45.14314" lon="5.82893">
        <ele>437.4</ele>
        <time>2021-04-10T11:40:49Z</time>
      </trkpt>
      <trkpt lat="45.14314" lon="5.82893">
        <ele>437.4</ele>
        <time>2021-04-10T11:40:50Z</time>
      </trkpt>
      <trkpt lat="45.14315" lon="5.82893">
        <ele>437.6</ele>
        <time>2021-04-10T11:40:51Z</time>
      </trkpt>
      <trkpt lat="45.14315" lon="5.82892">
        <ele>437.8</ele>
        <time>2021-04-10T11:40:52Z</time>
      </trkpt>
      <trkpt lat="45.14315" lon="5.82892">
        <ele>438</ele>
        <time>2021-04-10T11:40:53Z</time>
      </trkpt>
      <trkpt lat="45.14315" lon="5.82892">
        <ele>438</ele>
        <time>2021-04-10T11:40:54Z</time>
      </trkpt>
      <trkpt lat="45.14316" lon="5.82892">
        <ele>438.2</ele>
        <time>2021-04-10T11:40:55Z</time>
      </trkpt>
      <trkpt lat="45.14316" lon="5.82892">
        <ele>438.6</ele>
        <time>2021-04-10T11:40:56Z</time>
      </trkpt>
      <trkpt lat="45.14316" lon="5.82892">
        <ele>438.6</ele>
        <time>2021-04-10T11:40:57Z</time>
      </trkpt>
      <trkpt lat="45.14317" lon="5.82892">
        <ele>438.8</ele>
        <time>2021-04-10T11:40:58Z</time>
      </trkpt>
      <trkpt lat="45.14317" lon="5.82891">
        <ele>439.2</ele>
        <time>2021-04-10T11:40:59Z</time>
      </trkpt>
      <trkpt lat="45.14317" lon="5.82891">
        <ele>439.2</ele>
        <time>2021-04-10T11:41:00Z</time>
      </trkpt>
      <trkpt lat="45.14317" lon="5.82891">
        <ele>439.4</ele>
        <time>2021-04-10T11:41:01Z</time>
      </trkpt>
      <trkpt lat="45.14318" lon="5.82891">
        <ele>439.4</ele>
        <time>2021-04-10T11:41:02Z</time>
      </trkpt>
      <trkpt lat="45.14318" lon="5.82891">
        <ele>439.6</ele>
        <time>2021-04-10T11:41:03Z</time>
      </trkpt>
      <trkpt lat="45.14318" lon="5.82891">
        <ele>439.6</ele>
        <time>2021-04-10T11:41:04Z</time>
      </trkpt>
      <trkpt lat="45.14318" lon="5.8289">
        <ele>439.6</ele>
        <time>2021-04-10T11:41:05Z</time>
      </trkpt>
      <trkpt lat="45.14319" lon="5.8289">
        <ele>440</ele>
        <time>2021-04-10T11:41:06Z</time>
      </trkpt>
      <trkpt lat="45.14319" lon="5.8289">
        <ele>440.2</ele>
        <time>2021-04-10T11:41:07Z</time>
      </trkpt>
      <trkpt lat="45.14319" lon="5.8289">
        <ele>440.6</ele>
        <time>2021-04-10T11:41:08Z</time>
      </trkpt>
      <trkpt lat="45.1432" lon="5.8289">
        <ele>440.6</ele>
        <time>2021-04-10T11:41:09Z</time>
      </trkpt>
      <trkpt lat="45.1432" lon="5.8289">
        <ele>440.6</ele>
        <time>2021-04-10T11:41:10Z</time>
      </trkpt>
      <trkpt lat="45.1432" lon="5.82889">
        <ele>440.6</ele>
        <time>2021-04-10T11:41:11Z</time>
      </trkpt>
      <trkpt lat="45.1432" lon="5.82889">
        <ele>440.6</ele>
        <time>2021-04-10T11:41:12Z</time>
      </trkpt>
      <trkpt lat="45.14321" lon="5.82889">
        <ele>440.8</ele>
        <time>2021-04-10T11:41:13Z</time>
      </trkpt>
      <trkpt lat="45.14321" lon="5.82889">
        <ele>441</ele>
        <time>2021-04-10T11:41:14Z</time>
      </trkpt>
      <trkpt lat="45.14321" lon="5.82889">
        <ele>441.2</ele>
        <time>2021-04-10T11:41:15Z</time>
      </trkpt>
      <trkpt lat="45.14322" lon="5.82889">
        <ele>441.4</ele>
        <time>2021-04-10T11:41:16Z</time>
      </trkpt>
      <trkpt lat="45.14322" lon="5.82889">
        <ele>442</ele>
        <time>2021-04-10T11:41:17Z</time>
      </trkpt>
      <trkpt lat="45.14322" lon="5.82888">
        <ele>442.4</ele>
        <time>2021-04-10T11:41:18Z</time>
      </trkpt>
      <trkpt lat="45.14323" lon="5.82888">
        <ele>443</ele>
        <time>2021-04-10T11:41:19Z</time>
      </trkpt>
      <trkpt lat="45.14324" lon="5.82887">
        <ele>443</ele>
        <time>2021-04-10T11:41:20Z</time>
      </trkpt>
      <trkpt lat="45.14325" lon="5.82886">
        <ele>443</ele>
        <time>2021-04-10T11:41:21Z</time>
      </trkpt>
      <trkpt lat="45.14326" lon="5.82885">
        <ele>443.2</ele>
        <time>2021-04-10T11:41:22Z</time>
      </trkpt>
      <trkpt lat="45.14327" lon="5.82884">
        <ele>443.2</ele>
        <time>2021-04-10T11:41:23Z</time>
      </trkpt>
      <trkpt lat="45.14329" lon="5.82883">
        <ele>443.6</ele>
        <time>2021-04-10T11:41:24Z</time>
      </trkpt>
      <trkpt lat="45.1433" lon="5.82883">
        <ele>444</ele>
        <time>2021-04-10T11:41:25Z</time>
      </trkpt>
      <trkpt lat="45.14331" lon="5.82882">
        <ele>444.4</ele>
        <time>2021-04-10T11:41:26Z</time>
      </trkpt>
      <trkpt lat="45.14331" lon="5.82881">
        <ele>444.6</ele>
        <time>2021-04-10T11:41:27Z</time>
      </trkpt>
      <trkpt lat="45.14331" lon="5.82879">
        <ele>444.8</ele>
        <time>2021-04-10T11:41:28Z</time>
      </trkpt>
      <trkpt lat="45.14332" lon="5.82878">
        <ele>445.2</ele>
        <time>2021-04-10T11:41:29Z</time>
      </trkpt>
      <trkpt lat="45.14332" lon="5.82877">
        <ele>445.2</ele>
        <time>2021-04-10T11:41:30Z</time>
      </trkpt>
      <trkpt lat="45.14332" lon="5.82876">
        <ele>445.4</ele>
        <time>2021-04-10T11:41:31Z</time>
      </trkpt>
      <trkpt lat="45.14333" lon="5.82874">
        <ele>445.6</ele>
        <time>2021-04-10T11:41:32Z</time>
      </trkpt>
      <trkpt lat="45.14333" lon="5.82873">
        <ele>446</ele>
        <time>2021-04-10T11:41:33Z</time>
      </trkpt>
      <trkpt lat="45.14334" lon="5.82872">
        <ele>446.4</ele>
        <time>2021-04-10T11:41:34Z</time>
      </trkpt>
      <trkpt lat="45.14334" lon="5.82871">
        <ele>446.6</ele>
        <time>2021-04-10T11:41:35Z</time>
      </trkpt>
      <trkpt lat="45.14334" lon="5.8287">
        <ele>446.8</ele>
        <time>2021-04-10T11:41:36Z</time>
      </trkpt>
      <trkpt lat="45.14333" lon="5.82871">
        <ele>447</ele>
        <time>2021-04-10T11:41:37Z</time>
      </trkpt>
      <trkpt lat="45.14332" lon="5.82871">
        <ele>447.4</ele>
        <time>2021-04-10T11:41:38Z</time>
      </trkpt>
      <trkpt lat="45.14331" lon="5.82872">
        <ele>447.8</ele>
        <time>2021-04-10T11:41:39Z</time>
      </trkpt>
      <trkpt lat="45.14329" lon="5.82873">
        <ele>448.2</ele>
        <time>2021-04-10T11:41:40Z</time>
      </trkpt>
      <trkpt lat="45.14328" lon="5.82874">
        <ele>448.2</ele>
        <time>2021-04-10T11:41:41Z</time>
      </trkpt>
      <trkpt lat="45.14327" lon="5.82875">
        <ele>448.6</ele>
        <time>2021-04-10T11:41:42Z</time>
      </trkpt>
      <trkpt lat="45.14326" lon="5.82876">
        <ele>448.8</ele>
        <time>2021-04-10T11:41:43Z</time>
      </trkpt>
      <trkpt lat="45.14325" lon="5.82877">
        <ele>449</ele>
        <time>2021-04-10T11:41:44Z</time>
      </trkpt>
      <trkpt lat="45.14324" lon="5.82877">
        <ele>449.4</ele>
        <time>2021-04-10T11:41:45Z</time>
      </trkpt>
      <trkpt lat="45.14323" lon="5.82878">
        <ele>449.4</ele>
        <time>2021-04-10T11:41:46Z</time>
      </trkpt>
      <trkpt lat="45.14322" lon="5.82878">
        <ele>449.8</ele>
        <time>2021-04-10T11:41:47Z</time>
      </trkpt>
      <trkpt lat="45.14322" lon="5.82879">
        <ele>450.2</ele>
        <time>2021-04-10T11:41:48Z</time>
      </trkpt>
      <trkpt lat="45.14321" lon="5.82879">
        <ele>450.4</ele>
        <time>2021-04-10T11:41:49Z</time>
      </trkpt>
      <trkpt lat="45.1432" lon="5.8288">
        <ele>450.6</ele>
        <time>2021-04-10T11:41:50Z</time>
      </trkpt>
      <trkpt lat="45.14319" lon="5.8288">
        <ele>450.8</ele>
        <time>2021-04-10T11:41:51Z</time>
      </trkpt>
      <trkpt lat="45.14318" lon="5.82881">
        <ele>451</ele>
        <time>2021-04-10T11:41:52Z</time>
      </trkpt>
      <trkpt lat="45.14318" lon="5.82881">
        <ele>451.4</ele>
        <time>2021-04-10T11:41:53Z</time>
      </trkpt>
      <trkpt lat="45.14317" lon="5.82882">
        <ele>451.6</ele>
        <time>2021-04-10T11:41:54Z</time>
      </trkpt>
      <trkpt lat="45.14316" lon="5.82882">
        <ele>451.8</ele>
        <time>2021-04-10T11:41:55Z</time>
      </trkpt>
      <trkpt lat="45.14315" lon="5.82883">
        <ele>452</ele>
        <time>2021-04-10T11:41:56Z</time>
      </trkpt>
      <trkpt lat="45.14314" lon="5.82884">
        <ele>452.4</ele>
        <time>2021-04-10T11:41:57Z</time>
      </trkpt>
      <trkpt lat="45.14313" lon="5.82884">
        <ele>452.4</ele>
        <time>2021-04-10T11:41:58Z</time>
      </trkpt>
      <trkpt lat="45.14313" lon="5.82885">
        <ele>452.6</ele>
        <time>2021-04-10T11:41:59Z</time>
      </trkpt>
      <trkpt lat="45.14312" lon="5.82885">
        <ele>452.8</ele>
        <time>2021-04-10T11:42:00Z</time>
      </trkpt>
      <trkpt lat="45.14311" lon="5.82886">
        <ele>453</ele>
        <time>2021-04-10T11:42:01Z</time>
      </trkpt>
      <trkpt lat="45.1431" lon="5.82886">
        <ele>453</ele>
        <time>2021-04-10T11:42:02Z</time>
      </trkpt>
      <trkpt lat="45.14309" lon="5.82887">
        <ele>453</ele>
        <time>2021-04-10T11:42:03Z</time>
      </trkpt>
      <trkpt lat="45.14309" lon="5.82887">
        <ele>452.8</ele>
        <time>2021-04-10T11:42:04Z</time>
      </trkpt>
      <trkpt lat="45.14308" lon="5.82888">
        <ele>453</ele>
        <time>2021-04-10T11:42:05Z</time>
      </trkpt>
      <trkpt lat="45.14307" lon="5.82888">
        <ele>453</ele>
        <time>2021-04-10T11:42:06Z</time>
      </trkpt>
      <trkpt lat="45.14306" lon="5.82889">
        <ele>453</ele>
        <time>2021-04-10T11:42:07Z</time>
      </trkpt>
      <trkpt lat="45.14305" lon="5.82889">
        <ele>453</ele>
        <time>2021-04-10T11:42:08Z</time>
      </trkpt>
      <trkpt lat="45.14304" lon="5.8289">
        <ele>453.2</ele>
        <time>2021-04-10T11:42:09Z</time>
      </trkpt>
      <trkpt lat="45.14303" lon="5.82891">
        <ele>453.4</ele>
        <time>2021-04-10T11:42:10Z</time>
      </trkpt>
      <trkpt lat="45.14302" lon="5.82892">
        <ele>453.8</ele>
        <time>2021-04-10T11:42:11Z</time>
      </trkpt>
      <trkpt lat="45.143" lon="5.82893">
        <ele>454</ele>
        <time>2021-04-10T11:42:12Z</time>
      </trkpt>
      <trkpt lat="45.14296" lon="5.82897">
        <ele>454.2</ele>
        <time>2021-04-10T11:42:13Z</time>
      </trkpt>
      <trkpt lat="45.14296" lon="5.82897">
        <ele>454.4</ele>
        <time>2021-04-10T11:42:14Z</time>
      </trkpt>
      <trkpt lat="45.14296" lon="5.82897">
        <ele>454.6</ele>
        <time>2021-04-10T11:42:15Z</time>
      </trkpt>
      <trkpt lat="45.14296" lon="5.82897">
        <ele>454.8</ele>
        <time>2021-04-10T11:42:16Z</time>
      </trkpt>
      <trkpt lat="45.14295" lon="5.82895">
        <ele>454.8</ele>
        <time>2021-04-10T11:42:17Z</time>
      </trkpt>
      <trkpt lat="45.14294" lon="5.82894">
        <ele>455.2</ele>
        <time>2021-04-10T11:42:18Z</time>
      </trkpt>
      <trkpt lat="45.14293" lon="5.82892">
        <ele>455.6</ele>
        <time>2021-04-10T11:42:19Z</time>
      </trkpt>
      <trkpt lat="45.14292" lon="5.82891">
        <ele>455.6</ele>
        <time>2021-04-10T11:42:20Z</time>
      </trkpt>
      <trkpt lat="45.1429" lon="5.8289">
        <ele>455.6</ele>
        <time>2021-04-10T11:42:21Z</time>
      </trkpt>
      <trkpt lat="45.14289" lon="5.82888">
        <ele>455.8</ele>
        <time>2021-04-10T11:42:22Z</time>
      </trkpt>
      <trkpt lat="45.14288" lon="5.82887">
        <ele>456</ele>
        <time>2021-04-10T11:42:23Z</time>
      </trkpt>
      <trkpt lat="45.14287" lon="5.82885">
        <ele>456.2</ele>
        <time>2021-04-10T11:42:24Z</time>
      </trkpt>
      <trkpt lat="45.14288" lon="5.82883">
        <ele>456.4</ele>
        <time>2021-04-10T11:42:25Z</time>
      </trkpt>
      <trkpt lat="45.14289" lon="5.8288">
        <ele>456.6</ele>
        <time>2021-04-10T11:42:26Z</time>
      </trkpt>
      <trkpt lat="45.1429" lon="5.82877">
        <ele>456.8</ele>
        <time>2021-04-10T11:42:27Z</time>
      </trkpt>
      <trkpt lat="45.14291" lon="5.82874">
        <ele>457</ele>
        <time>2021-04-10T11:42:28Z</time>
      </trkpt>
      <trkpt lat="45.14291" lon="5.82872">
        <ele>457.4</ele>
        <time>2021-04-10T11:42:29Z</time>
      </trkpt>
      <trkpt lat="45.14293" lon="5.8287">
        <ele>457.6</ele>
        <time>2021-04-10T11:42:30Z</time>
      </trkpt>
      <trkpt lat="45.14294" lon="5.82868">
        <ele>457.8</ele>
        <time>2021-04-10T11:42:31Z</time>
      </trkpt>
      <trkpt lat="45.14296" lon="5.82866">
        <ele>458.2</ele>
        <time>2021-04-10T11:42:32Z</time>
      </trkpt>
      <trkpt lat="45.14297" lon="5.82864">
        <ele>458.4</ele>
        <time>2021-04-10T11:42:33Z</time>
      </trkpt>
      <trkpt lat="45.14299" lon="5.82863">
        <ele>458.6</ele>
        <time>2021-04-10T11:42:34Z</time>
      </trkpt>
      <trkpt lat="45.14301" lon="5.82861">
        <ele>458.6</ele>
        <time>2021-04-10T11:42:35Z</time>
      </trkpt>
      <trkpt lat="45.14302" lon="5.8286">
        <ele>458.8</ele>
        <time>2021-04-10T11:42:36Z</time>
      </trkpt>
      <trkpt lat="45.14303" lon="5.82859">
        <ele>459.2</ele>
        <time>2021-04-10T11:42:37Z</time>
      </trkpt>
      <trkpt lat="45.14305" lon="5.82858">
        <ele>459.6</ele>
        <time>2021-04-10T11:42:38Z</time>
      </trkpt>
      <trkpt lat="45.14306" lon="5.82857">
        <ele>460</ele>
        <time>2021-04-10T11:42:39Z</time>
      </trkpt>
      <trkpt lat="45.14307" lon="5.82856">
        <ele>460.2</ele>
        <time>2021-04-10T11:42:40Z</time>
      </trkpt>
      <trkpt lat="45.14308" lon="5.82855">
        <ele>460.4</ele>
        <time>2021-04-10T11:42:41Z</time>
      </trkpt>
      <trkpt lat="45.14309" lon="5.82854">
        <ele>460.6</ele>
        <time>2021-04-10T11:42:42Z</time>
      </trkpt>
      <trkpt lat="45.1431" lon="5.82853">
        <ele>460.8</ele>
        <time>2021-04-10T11:42:43Z</time>
      </trkpt>
      <trkpt lat="45.14311" lon="5.82853">
        <ele>461</ele>
        <time>2021-04-10T11:42:44Z</time>
      </trkpt>
      <trkpt lat="45.14312" lon="5.82852">
        <ele>461.4</ele>
        <time>2021-04-10T11:42:45Z</time>
      </trkpt>
      <trkpt lat="45.14314" lon="5.82851">
        <ele>461.6</ele>
        <time>2021-04-10T11:42:46Z</time>
      </trkpt>
      <trkpt lat="45.14315" lon="5.8285">
        <ele>461.6</ele>
        <time>2021-04-10T11:42:47Z</time>
      </trkpt>
      <trkpt lat="45.14316" lon="5.82849">
        <ele>462</ele>
        <time>2021-04-10T11:42:48Z</time>
      </trkpt>
      <trkpt lat="45.14317" lon="5.82848">
        <ele>462.2</ele>
        <time>2021-04-10T11:42:49Z</time>
      </trkpt>
      <trkpt lat="45.14318" lon="5.82847">
        <ele>462.6</ele>
        <time>2021-04-10T11:42:50Z</time>
      </trkpt>
      <trkpt lat="45.14319" lon="5.82846">
        <ele>462.8</ele>
        <time>2021-04-10T11:42:51Z</time>
      </trkpt>
      <trkpt lat="45.1432" lon="5.82845">
        <ele>463.2</ele>
        <time>2021-04-10T11:42:52Z</time>
      </trkpt>
      <trkpt lat="45.14322" lon="5.82844">
        <ele>463.6</ele>
        <time>2021-04-10T11:42:53Z</time>
      </trkpt>
      <trkpt lat="45.14323" lon="5.82843">
        <ele>463.8</ele>
        <time>2021-04-10T11:42:54Z</time>
      </trkpt>
      <trkpt lat="45.14324" lon="5.82842">
        <ele>464</ele>
        <time>2021-04-10T11:42:55Z</time>
      </trkpt>
      <trkpt lat="45.14325" lon="5.82841">
        <ele>464.4</ele>
        <time>2021-04-10T11:42:56Z</time>
      </trkpt>
      <trkpt lat="45.14326" lon="5.8284">
        <ele>464.8</ele>
        <time>2021-04-10T11:42:57Z</time>
      </trkpt>
      <trkpt lat="45.14327" lon="5.82839">
        <ele>465.4</ele>
        <time>2021-04-10T11:42:58Z</time>
      </trkpt>
      <trkpt lat="45.14328" lon="5.82839">
        <ele>465.6</ele>
        <time>2021-04-10T11:42:59Z</time>
      </trkpt>
      <trkpt lat="45.14329" lon="5.82838">
        <ele>465.6</ele>
        <time>2021-04-10T11:43:00Z</time>
      </trkpt>
      <trkpt lat="45.14331" lon="5.82837">
        <ele>465.6</ele>
        <time>2021-04-10T11:43:01Z</time>
      </trkpt>
      <trkpt lat="45.14332" lon="5.82836">
        <ele>465.8</ele>
        <time>2021-04-10T11:43:02Z</time>
      </trkpt>
      <trkpt lat="45.14333" lon="5.82835">
        <ele>465.8</ele>
        <time>2021-04-10T11:43:03Z</time>
      </trkpt>
      <trkpt lat="45.14334" lon="5.82834">
        <ele>465.8</ele>
        <time>2021-04-10T11:43:04Z</time>
      </trkpt>
      <trkpt lat="45.14334" lon="5.82833">
        <ele>466</ele>
        <time>2021-04-10T11:43:05Z</time>
      </trkpt>
      <trkpt lat="45.14334" lon="5.82833">
        <ele>466.2</ele>
        <time>2021-04-10T11:43:06Z</time>
      </trkpt>
      <trkpt lat="45.14334" lon="5.82832">
        <ele>466.2</ele>
        <time>2021-04-10T11:43:07Z</time>
      </trkpt>
      <trkpt lat="45.14334" lon="5.82832">
        <ele>466.4</ele>
        <time>2021-04-10T11:43:08Z</time>
      </trkpt>
      <trkpt lat="45.14334" lon="5.82832">
        <ele>466.8</ele>
        <time>2021-04-10T11:43:09Z</time>
      </trkpt>
      <trkpt lat="45.14334" lon="5.82831">
        <ele>466.8</ele>
        <time>2021-04-10T11:43:10Z</time>
      </trkpt>
      <trkpt lat="45.14334" lon="5.82831">
        <ele>466.8</ele>
        <time>2021-04-10T11:43:11Z</time>
      </trkpt>
      <trkpt lat="45.14334" lon="5.8283">
        <ele>466.8</ele>
        <time>2021-04-10T11:43:12Z</time>
      </trkpt>
      <trkpt lat="45.14334" lon="5.8283">
        <ele>466.8</ele>
        <time>2021-04-10T11:43:13Z</time>
      </trkpt>
      <trkpt lat="45.14334" lon="5.82829">
        <ele>467</ele>
        <time>2021-04-10T11:43:14Z</time>
      </trkpt>
      <trkpt lat="45.14334" lon="5.82829">
        <ele>467.2</ele>
        <time>2021-04-10T11:43:15Z</time>
      </trkpt>
      <trkpt lat="45.14334" lon="5.82828">
        <ele>467.6</ele>
        <time>2021-04-10T11:43:16Z</time>
      </trkpt>
      <trkpt lat="45.14334" lon="5.82828">
        <ele>467.8</ele>
        <time>2021-04-10T11:43:17Z</time>
      </trkpt>
      <trkpt lat="45.14334" lon="5.82827">
        <ele>467.8</ele>
        <time>2021-04-10T11:43:18Z</time>
      </trkpt>
      <trkpt lat="45.14334" lon="5.82827">
        <ele>468</ele>
        <time>2021-04-10T11:43:19Z</time>
      </trkpt>
      <trkpt lat="45.14334" lon="5.82827">
        <ele>468.2</ele>
        <time>2021-04-10T11:43:20Z</time>
      </trkpt>
      <trkpt lat="45.14334" lon="5.82826">
        <ele>468.6</ele>
        <time>2021-04-10T11:43:21Z</time>
      </trkpt>
      <trkpt lat="45.14334" lon="5.82826">
        <ele>469</ele>
        <time>2021-04-10T11:43:22Z</time>
      </trkpt>
      <trkpt lat="45.14334" lon="5.82825">
        <ele>469.2</ele>
        <time>2021-04-10T11:43:23Z</time>
      </trkpt>
      <trkpt lat="45.14334" lon="5.82825">
        <ele>469.6</ele>
        <time>2021-04-10T11:43:24Z</time>
      </trkpt>
      <trkpt lat="45.14335" lon="5.82824">
        <ele>469.8</ele>
        <time>2021-04-10T11:43:25Z</time>
      </trkpt>
      <trkpt lat="45.14335" lon="5.82824">
        <ele>470</ele>
        <time>2021-04-10T11:43:26Z</time>
      </trkpt>
      <trkpt lat="45.14335" lon="5.82823">
        <ele>470.4</ele>
        <time>2021-04-10T11:43:27Z</time>
      </trkpt>
      <trkpt lat="45.14335" lon="5.82823">
        <ele>470.6</ele>
        <time>2021-04-10T11:43:28Z</time>
      </trkpt>
      <trkpt lat="45.14335" lon="5.82822">
        <ele>470.8</ele>
        <time>2021-04-10T11:43:29Z</time>
      </trkpt>
      <trkpt lat="45.14335" lon="5.82822">
        <ele>471</ele>
        <time>2021-04-10T11:43:30Z</time>
      </trkpt>
      <trkpt lat="45.14335" lon="5.82822">
        <ele>471.4</ele>
        <time>2021-04-10T11:43:31Z</time>
      </trkpt>
      <trkpt lat="45.14335" lon="5.82821">
        <ele>471.4</ele>
        <time>2021-04-10T11:43:32Z</time>
      </trkpt>
      <trkpt lat="45.14335" lon="5.82821">
        <ele>471.6</ele>
        <time>2021-04-10T11:43:33Z</time>
      </trkpt>
      <trkpt lat="45.14335" lon="5.8282">
        <ele>472</ele>
        <time>2021-04-10T11:43:34Z</time>
      </trkpt>
      <trkpt lat="45.14335" lon="5.8282">
        <ele>472.2</ele>
        <time>2021-04-10T11:43:35Z</time>
      </trkpt>
      <trkpt lat="45.14335" lon="5.82819">
        <ele>472.4</ele>
        <time>2021-04-10T11:43:36Z</time>
      </trkpt>
      <trkpt lat="45.14335" lon="5.82819">
        <ele>472.8</ele>
        <time>2021-04-10T11:43:37Z</time>
      </trkpt>
      <trkpt lat="45.14335" lon="5.82818">
        <ele>473</ele>
        <time>2021-04-10T11:43:38Z</time>
      </trkpt>
      <trkpt lat="45.14335" lon="5.82818">
        <ele>473.2</ele>
        <time>2021-04-10T11:43:39Z</time>
      </trkpt>
      <trkpt lat="45.14335" lon="5.82817">
        <ele>473.4</ele>
        <time>2021-04-10T11:43:40Z</time>
      </trkpt>
      <trkpt lat="45.14335" lon="5.82817">
        <ele>473.8</ele>
        <time>2021-04-10T11:43:41Z</time>
      </trkpt>
      <trkpt lat="45.14335" lon="5.82817">
        <ele>474.2</ele>
        <time>2021-04-10T11:43:42Z</time>
      </trkpt>
      <trkpt lat="45.14335" lon="5.82816">
        <ele>474.4</ele>
        <time>2021-04-10T11:43:43Z</time>
      </trkpt>
      <trkpt lat="45.14335" lon="5.82816">
        <ele>474.6</ele>
        <time>2021-04-10T11:43:44Z</time>
      </trkpt>
      <trkpt lat="45.14335" lon="5.82815">
        <ele>474.6</ele>
        <time>2021-04-10T11:43:45Z</time>
      </trkpt>
      <trkpt lat="45.14335" lon="5.82815">
        <ele>474.8</ele>
        <time>2021-04-10T11:43:46Z</time>
      </trkpt>
      <trkpt lat="45.14335" lon="5.82814">
        <ele>475.2</ele>
        <time>2021-04-10T11:43:47Z</time>
      </trkpt>
      <trkpt lat="45.14335" lon="5.82814">
        <ele>475.6</ele>
        <time>2021-04-10T11:43:48Z</time>
      </trkpt>
      <trkpt lat="45.14335" lon="5.82813">
        <ele>475.6</ele>
        <time>2021-04-10T11:43:49Z</time>
      </trkpt>
      <trkpt lat="45.14335" lon="5.82813">
        <ele>475.8</ele>
        <time>2021-04-10T11:43:50Z</time>
      </trkpt>
      <trkpt lat="45.14335" lon="5.82812">
        <ele>476</ele>
        <time>2021-04-10T11:43:51Z</time>
      </trkpt>
      <trkpt lat="45.14335" lon="5.82812">
        <ele>476.4</ele>
        <time>2021-04-10T11:43:52Z</time>
      </trkpt>
      <trkpt lat="45.14335" lon="5.82812">
        <ele>476.6</ele>
        <time>2021-04-10T11:43:53Z</time>
      </trkpt>
      <trkpt lat="45.14335" lon="5.82811">
        <ele>476.8</ele>
        <time>2021-04-10T11:43:54Z</time>
      </trkpt>
      <trkpt lat="45.14335" lon="5.82811">
        <ele>477</ele>
        <time>2021-04-10T11:43:55Z</time>
      </trkpt>
      <trkpt lat="45.14335" lon="5.8281">
        <ele>477.4</ele>
        <time>2021-04-10T11:43:56Z</time>
      </trkpt>
      <trkpt lat="45.14335" lon="5.8281">
        <ele>477.6</ele>
        <time>2021-04-10T11:43:57Z</time>
      </trkpt>
      <trkpt lat="45.14335" lon="5.82809">
        <ele>478</ele>
        <time>2021-04-10T11:43:58Z</time>
      </trkpt>
      <trkpt lat="45.14335" lon="5.82809">
        <ele>478.2</ele>
        <time>2021-04-10T11:43:59Z</time>
      </trkpt>
      <trkpt lat="45.14335" lon="5.82808">
        <ele>478.6</ele>
        <time>2021-04-10T11:44:00Z</time>
      </trkpt>
      <trkpt lat="45.14336" lon="5.82808">
        <ele>478.8</ele>
        <time>2021-04-10T11:44:01Z</time>
      </trkpt>
      <trkpt lat="45.14336" lon="5.82807">
        <ele>479</ele>
        <time>2021-04-10T11:44:02Z</time>
      </trkpt>
      <trkpt lat="45.14336" lon="5.82807">
        <ele>479.4</ele>
        <time>2021-04-10T11:44:03Z</time>
      </trkpt>
      <trkpt lat="45.14336" lon="5.82807">
        <ele>479.8</ele>
        <time>2021-04-10T11:44:04Z</time>
      </trkpt>
      <trkpt lat="45.14336" lon="5.82806">
        <ele>479.8</ele>
        <time>2021-04-10T11:44:05Z</time>
      </trkpt>
      <trkpt lat="45.14336" lon="5.82806">
        <ele>480</ele>
        <time>2021-04-10T11:44:06Z</time>
      </trkpt>
      <trkpt lat="45.14336" lon="5.82805">
        <ele>480.4</ele>
        <time>2021-04-10T11:44:07Z</time>
      </trkpt>
      <trkpt lat="45.14336" lon="5.82805">
        <ele>480.6</ele>
        <time>2021-04-10T11:44:08Z</time>
      </trkpt>
      <trkpt lat="45.14336" lon="5.82804">
        <ele>480.8</ele>
        <time>2021-04-10T11:44:09Z</time>
      </trkpt>
      <trkpt lat="45.14336" lon="5.82804">
        <ele>481</ele>
        <time>2021-04-10T11:44:10Z</time>
      </trkpt>
      <trkpt lat="45.14336" lon="5.82803">
        <ele>481.4</ele>
        <time>2021-04-10T11:44:11Z</time>
      </trkpt>
      <trkpt lat="45.14336" lon="5.82803">
        <ele>481.4</ele>
        <time>2021-04-10T11:44:12Z</time>
      </trkpt>
      <trkpt lat="45.14336" lon="5.82802">
        <ele>481.8</ele>
        <time>2021-04-10T11:44:13Z</time>
      </trkpt>
      <trkpt lat="45.14336" lon="5.82802">
        <ele>482.2</ele>
        <time>2021-04-10T11:44:14Z</time>
      </trkpt>
      <trkpt lat="45.14336" lon="5.82802">
        <ele>482.4</ele>
        <time>2021-04-10T11:44:15Z</time>
      </trkpt>
      <trkpt lat="45.14336" lon="5.82801">
        <ele>483</ele>
        <time>2021-04-10T11:44:16Z</time>
      </trkpt>
      <trkpt lat="45.14336" lon="5.82801">
        <ele>483.2</ele>
        <time>2021-04-10T11:44:17Z</time>
      </trkpt>
      <trkpt lat="45.14336" lon="5.828">
        <ele>483.6</ele>
        <time>2021-04-10T11:44:18Z</time>
      </trkpt>
      <trkpt lat="45.14336" lon="5.828">
        <ele>483.8</ele>
        <time>2021-04-10T11:44:19Z</time>
      </trkpt>
      <trkpt lat="45.14336" lon="5.82799">
        <ele>484.2</ele>
        <time>2021-04-10T11:44:20Z</time>
      </trkpt>
      <trkpt lat="45.14336" lon="5.82799">
        <ele>484.4</ele>
        <time>2021-04-10T11:44:21Z</time>
      </trkpt>
      <trkpt lat="45.14336" lon="5.82798">
        <ele>484.6</ele>
        <time>2021-04-10T11:44:22Z</time>
      </trkpt>
      <trkpt lat="45.14336" lon="5.82798">
        <ele>485</ele>
        <time>2021-04-10T11:44:23Z</time>
      </trkpt>
      <trkpt lat="45.14336" lon="5.82797">
        <ele>485.2</ele>
        <time>2021-04-10T11:44:24Z</time>
      </trkpt>
      <trkpt lat="45.14336" lon="5.82797">
        <ele>485.2</ele>
        <time>2021-04-10T11:44:25Z</time>
      </trkpt>
      <trkpt lat="45.14336" lon="5.82797">
        <ele>485.4</ele>
        <time>2021-04-10T11:44:26Z</time>
      </trkpt>
      <trkpt lat="45.14336" lon="5.82796">
        <ele>485.6</ele>
        <time>2021-04-10T11:44:27Z</time>
      </trkpt>
      <trkpt lat="45.14336" lon="5.82796">
        <ele>485.8</ele>
        <time>2021-04-10T11:44:28Z</time>
      </trkpt>
      <trkpt lat="45.14336" lon="5.82795">
        <ele>486</ele>
        <time>2021-04-10T11:44:29Z</time>
      </trkpt>
      <trkpt lat="45.14336" lon="5.82795">
        <ele>486</ele>
        <time>2021-04-10T11:44:30Z</time>
      </trkpt>
      <trkpt lat="45.14336" lon="5.82794">
        <ele>486.2</ele>
        <time>2021-04-10T11:44:31Z</time>
      </trkpt>
      <trkpt lat="45.14336" lon="5.82794">
        <ele>486.6</ele>
        <time>2021-04-10T11:44:32Z</time>
      </trkpt>
      <trkpt lat="45.14336" lon="5.82793">
        <ele>486.8</ele>
        <time>2021-04-10T11:44:33Z</time>
      </trkpt>
      <trkpt lat="45.14336" lon="5.82793">
        <ele>487</ele>
        <time>2021-04-10T11:44:34Z</time>
      </trkpt>
      <trkpt lat="45.14336" lon="5.82792">
        <ele>487.4</ele>
        <time>2021-04-10T11:44:35Z</time>
      </trkpt>
      <trkpt lat="45.14336" lon="5.82792">
        <ele>487.6</ele>
        <time>2021-04-10T11:44:36Z</time>
      </trkpt>
      <trkpt lat="45.14337" lon="5.82792">
        <ele>488</ele>
        <time>2021-04-10T11:44:37Z</time>
      </trkpt>
      <trkpt lat="45.14337" lon="5.82791">
        <ele>488.2</ele>
        <time>2021-04-10T11:44:38Z</time>
      </trkpt>
      <trkpt lat="45.14337" lon="5.82791">
        <ele>488.4</ele>
        <time>2021-04-10T11:44:39Z</time>
      </trkpt>
      <trkpt lat="45.14337" lon="5.8279">
        <ele>488.6</ele>
        <time>2021-04-10T11:44:40Z</time>
      </trkpt>
      <trkpt lat="45.14337" lon="5.8279">
        <ele>488.8</ele>
        <time>2021-04-10T11:44:41Z</time>
      </trkpt>
      <trkpt lat="45.14337" lon="5.82789">
        <ele>489.2</ele>
        <time>2021-04-10T11:44:42Z</time>
      </trkpt>
      <trkpt lat="45.14337" lon="5.82789">
        <ele>489.6</ele>
        <time>2021-04-10T11:44:43Z</time>
      </trkpt>
      <trkpt lat="45.14337" lon="5.82788">
        <ele>490</ele>
        <time>2021-04-10T11:44:44Z</time>
      </trkpt>
      <trkpt lat="45.14337" lon="5.82788">
        <ele>490</ele>
        <time>2021-04-10T11:44:45Z</time>
      </trkpt>
      <trkpt lat="45.14337" lon="5.82787">
        <ele>489.8</ele>
        <time>2021-04-10T11:44:46Z</time>
      </trkpt>
      <trkpt lat="45.14337" lon="5.82787">
        <ele>489.8</ele>
        <time>2021-04-10T11:44:47Z</time>
      </trkpt>
      <trkpt lat="45.14337" lon="5.82787">
        <ele>490</ele>
        <time>2021-04-10T11:44:48Z</time>
      </trkpt>
      <trkpt lat="45.14337" lon="5.82786">
        <ele>490.2</ele>
        <time>2021-04-10T11:44:49Z</time>
      </trkpt>
      <trkpt lat="45.14337" lon="5.82786">
        <ele>490.4</ele>
        <time>2021-04-10T11:44:50Z</time>
      </trkpt>
      <trkpt lat="45.14337" lon="5.82785">
        <ele>490.6</ele>
        <time>2021-04-10T11:44:51Z</time>
      </trkpt>
      <trkpt lat="45.14337" lon="5.82785">
        <ele>491</ele>
        <time>2021-04-10T11:44:52Z</time>
      </trkpt>
      <trkpt lat="45.14337" lon="5.82784">
        <ele>491.2</ele>
        <time>2021-04-10T11:44:53Z</time>
      </trkpt>
      <trkpt lat="45.14337" lon="5.82784">
        <ele>491.4</ele>
        <time>2021-04-10T11:44:54Z</time>
      </trkpt>
      <trkpt lat="45.14337" lon="5.82783">
        <ele>491.2</ele>
        <time>2021-04-10T11:44:55Z</time>
      </trkpt>
      <trkpt lat="45.14337" lon="5.82783">
        <ele>491.2</ele>
        <time>2021-04-10T11:44:56Z</time>
      </trkpt>
      <trkpt lat="45.14337" lon="5.82782">
        <ele>491.2</ele>
        <time>2021-04-10T11:44:57Z</time>
      </trkpt>
      <trkpt lat="45.14337" lon="5.82782">
        <ele>491.2</ele>
        <time>2021-04-10T11:44:58Z</time>
      </trkpt>
      <trkpt lat="45.14337" lon="5.82782">
        <ele>491.8</ele>
        <time>2021-04-10T11:44:59Z</time>
      </trkpt>
      <trkpt lat="45.14337" lon="5.82782">
        <ele>492</ele>
        <time>2021-04-10T11:45:00Z</time>
      </trkpt>
      <trkpt lat="45.14339" lon="5.82782">
        <ele>492.2</ele>
        <time>2021-04-10T11:45:01Z</time>
      </trkpt>
      <trkpt lat="45.14341" lon="5.82781">
        <ele>492.2</ele>
        <time>2021-04-10T11:45:02Z</time>
      </trkpt>
      <trkpt lat="45.14342" lon="5.8278">
        <ele>492.4</ele>
        <time>2021-04-10T11:45:03Z</time>
      </trkpt>
      <trkpt lat="45.14344" lon="5.82779">
        <ele>492.8</ele>
        <time>2021-04-10T11:45:04Z</time>
      </trkpt>
      <trkpt lat="45.14346" lon="5.82778">
        <ele>492.8</ele>
        <time>2021-04-10T11:45:05Z</time>
      </trkpt>
      <trkpt lat="45.14348" lon="5.82777">
        <ele>493</ele>
        <time>2021-04-10T11:45:06Z</time>
      </trkpt>
      <trkpt lat="45.1435" lon="5.82776">
        <ele>493.2</ele>
        <time>2021-04-10T11:45:07Z</time>
      </trkpt>
      <trkpt lat="45.14351" lon="5.82775">
        <ele>493.4</ele>
        <time>2021-04-10T11:45:08Z</time>
      </trkpt>
      <trkpt lat="45.14351" lon="5.82775">
        <ele>493.4</ele>
        <time>2021-04-10T11:45:09Z</time>
      </trkpt>
      <trkpt lat="45.14352" lon="5.82774">
        <ele>493.4</ele>
        <time>2021-04-10T11:45:10Z</time>
      </trkpt>
      <trkpt lat="45.14353" lon="5.82774">
        <ele>493.6</ele>
        <time>2021-04-10T11:45:11Z</time>
      </trkpt>
      <trkpt lat="45.14354" lon="5.82773">
        <ele>493.6</ele>
        <time>2021-04-10T11:45:12Z</time>
      </trkpt>
      <trkpt lat="45.14355" lon="5.82772">
        <ele>493.8</ele>
        <time>2021-04-10T11:45:13Z</time>
      </trkpt>
      <trkpt lat="45.14356" lon="5.82772">
        <ele>494</ele>
        <time>2021-04-10T11:45:14Z</time>
      </trkpt>
      <trkpt lat="45.14357" lon="5.82771">
        <ele>494.2</ele>
        <time>2021-04-10T11:45:15Z</time>
      </trkpt>
      <trkpt lat="45.14358" lon="5.8277">
        <ele>494.4</ele>
        <time>2021-04-10T11:45:16Z</time>
      </trkpt>
      <trkpt lat="45.14358" lon="5.8277">
        <ele>494.6</ele>
        <time>2021-04-10T11:45:17Z</time>
      </trkpt>
      <trkpt lat="45.14359" lon="5.82769">
        <ele>494.8</ele>
        <time>2021-04-10T11:45:18Z</time>
      </trkpt>
      <trkpt lat="45.1436" lon="5.82768">
        <ele>495.2</ele>
        <time>2021-04-10T11:45:19Z</time>
      </trkpt>
      <trkpt lat="45.14361" lon="5.82768">
        <ele>495</ele>
        <time>2021-04-10T11:45:20Z</time>
      </trkpt>
      <trkpt lat="45.14362" lon="5.82767">
        <ele>495.2</ele>
        <time>2021-04-10T11:45:21Z</time>
      </trkpt>
      <trkpt lat="45.14363" lon="5.82767">
        <ele>495.4</ele>
        <time>2021-04-10T11:45:22Z</time>
      </trkpt>
      <trkpt lat="45.14364" lon="5.82766">
        <ele>495.6</ele>
        <time>2021-04-10T11:45:23Z</time>
      </trkpt>
      <trkpt lat="45.14365" lon="5.82765">
        <ele>495.6</ele>
        <time>2021-04-10T11:45:24Z</time>
      </trkpt>
      <trkpt lat="45.14365" lon="5.82765">
        <ele>495.6</ele>
        <time>2021-04-10T11:45:25Z</time>
      </trkpt>
      <trkpt lat="45.14366" lon="5.82764">
        <ele>495.8</ele>
        <time>2021-04-10T11:45:26Z</time>
      </trkpt>
      <trkpt lat="45.14367" lon="5.82763">
        <ele>495.8</ele>
        <time>2021-04-10T11:45:27Z</time>
      </trkpt>
      <trkpt lat="45.14368" lon="5.82763">
        <ele>495.8</ele>
        <time>2021-04-10T11:45:28Z</time>
      </trkpt>
      <trkpt lat="45.14369" lon="5.82762">
        <ele>496.2</ele>
        <time>2021-04-10T11:45:29Z</time>
      </trkpt>
      <trkpt lat="45.1437" lon="5.82762">
        <ele>496.6</ele>
        <time>2021-04-10T11:45:30Z</time>
      </trkpt>
      <trkpt lat="45.14375" lon="5.82758">
        <ele>496.6</ele>
        <time>2021-04-10T11:45:31Z</time>
      </trkpt>
      <trkpt lat="45.14375" lon="5.82758">
        <ele>496.8</ele>
        <time>2021-04-10T11:45:32Z</time>
      </trkpt>
      <trkpt lat="45.14375" lon="5.82758">
        <ele>497</ele>
        <time>2021-04-10T11:45:33Z</time>
      </trkpt>
      <trkpt lat="45.14376" lon="5.82757">
        <ele>497.2</ele>
        <time>2021-04-10T11:45:34Z</time>
      </trkpt>
      <trkpt lat="45.14377" lon="5.82757">
        <ele>497.8</ele>
        <time>2021-04-10T11:45:35Z</time>
      </trkpt>
      <trkpt lat="45.14378" lon="5.82756">
        <ele>498</ele>
        <time>2021-04-10T11:45:36Z</time>
      </trkpt>
      <trkpt lat="45.1438" lon="5.82755">
        <ele>498.2</ele>
        <time>2021-04-10T11:45:37Z</time>
      </trkpt>
      <trkpt lat="45.14381" lon="5.82755">
        <ele>498.2</ele>
        <time>2021-04-10T11:45:38Z</time>
      </trkpt>
      <trkpt lat="45.14382" lon="5.82754">
        <ele>498.2</ele>
        <time>2021-04-10T11:45:39Z</time>
      </trkpt>
      <trkpt lat="45.14384" lon="5.82754">
        <ele>498.2</ele>
        <time>2021-04-10T11:45:40Z</time>
      </trkpt>
      <trkpt lat="45.14385" lon="5.82753">
        <ele>498.2</ele>
        <time>2021-04-10T11:45:41Z</time>
      </trkpt>
      <trkpt lat="45.14386" lon="5.82753">
        <ele>498.6</ele>
        <time>2021-04-10T11:45:42Z</time>
      </trkpt>
      <trkpt lat="45.14388" lon="5.82752">
        <ele>498.6</ele>
        <time>2021-04-10T11:45:43Z</time>
      </trkpt>
      <trkpt lat="45.14389" lon="5.82752">
        <ele>498.6</ele>
        <time>2021-04-10T11:45:44Z</time>
      </trkpt>
      <trkpt lat="45.14391" lon="5.82751">
        <ele>498.6</ele>
        <time>2021-04-10T11:45:45Z</time>
      </trkpt>
      <trkpt lat="45.14392" lon="5.82751">
        <ele>498.8</ele>
        <time>2021-04-10T11:45:46Z</time>
      </trkpt>
      <trkpt lat="45.14394" lon="5.82751">
        <ele>499.2</ele>
        <time>2021-04-10T11:45:47Z</time>
      </trkpt>
      <trkpt lat="45.14394" lon="5.8275">
        <ele>499.2</ele>
        <time>2021-04-10T11:45:48Z</time>
      </trkpt>
      <trkpt lat="45.14395" lon="5.8275">
        <ele>499.4</ele>
        <time>2021-04-10T11:45:49Z</time>
      </trkpt>
      <trkpt lat="45.14396" lon="5.8275">
        <ele>499.4</ele>
        <time>2021-04-10T11:45:50Z</time>
      </trkpt>
      <trkpt lat="45.14397" lon="5.8275">
        <ele>499.4</ele>
        <time>2021-04-10T11:45:51Z</time>
      </trkpt>
      <trkpt lat="45.14397" lon="5.82749">
        <ele>499.4</ele>
        <time>2021-04-10T11:45:52Z</time>
      </trkpt>
      <trkpt lat="45.14398" lon="5.82749">
        <ele>499.6</ele>
        <time>2021-04-10T11:45:53Z</time>
      </trkpt>
      <trkpt lat="45.14399" lon="5.82749">
        <ele>499.6</ele>
        <time>2021-04-10T11:45:54Z</time>
      </trkpt>
      <trkpt lat="45.144" lon="5.82749">
        <ele>499.8</ele>
        <time>2021-04-10T11:45:55Z</time>
      </trkpt>
      <trkpt lat="45.144" lon="5.82749">
        <ele>500</ele>
        <time>2021-04-10T11:45:56Z</time>
      </trkpt>
      <trkpt lat="45.14401" lon="5.82748">
        <ele>500.2</ele>
        <time>2021-04-10T11:45:57Z</time>
      </trkpt>
      <trkpt lat="45.14402" lon="5.82748">
        <ele>500.2</ele>
        <time>2021-04-10T11:45:58Z</time>
      </trkpt>
      <trkpt lat="45.14403" lon="5.82748">
        <ele>500.2</ele>
        <time>2021-04-10T11:45:59Z</time>
      </trkpt>
      <trkpt lat="45.14404" lon="5.82747">
        <ele>500.4</ele>
        <time>2021-04-10T11:46:00Z</time>
      </trkpt>
      <trkpt lat="45.14405" lon="5.82747">
        <ele>500.6</ele>
        <time>2021-04-10T11:46:01Z</time>
      </trkpt>
      <trkpt lat="45.14407" lon="5.82746">
        <ele>500.8</ele>
        <time>2021-04-10T11:46:02Z</time>
      </trkpt>
      <trkpt lat="45.14408" lon="5.82746">
        <ele>501</ele>
        <time>2021-04-10T11:46:03Z</time>
      </trkpt>
      <trkpt lat="45.1441" lon="5.82745">
        <ele>501</ele>
        <time>2021-04-10T11:46:04Z</time>
      </trkpt>
      <trkpt lat="45.14411" lon="5.82745">
        <ele>501.2</ele>
        <time>2021-04-10T11:46:05Z</time>
      </trkpt>
      <trkpt lat="45.14412" lon="5.82744">
        <ele>501.2</ele>
        <time>2021-04-10T11:46:06Z</time>
      </trkpt>
      <trkpt lat="45.14413" lon="5.82743">
        <ele>501.2</ele>
        <time>2021-04-10T11:46:07Z</time>
      </trkpt>
      <trkpt lat="45.14414" lon="5.82743">
        <ele>501.2</ele>
        <time>2021-04-10T11:46:08Z</time>
      </trkpt>
      <trkpt lat="45.14415" lon="5.82742">
        <ele>501.2</ele>
        <time>2021-04-10T11:46:09Z</time>
      </trkpt>
      <trkpt lat="45.14416" lon="5.82741">
        <ele>501</ele>
        <time>2021-04-10T11:46:10Z</time>
      </trkpt>
      <trkpt lat="45.14417" lon="5.82741">
        <ele>501</ele>
        <time>2021-04-10T11:46:11Z</time>
      </trkpt>
      <trkpt lat="45.14418" lon="5.8274">
        <ele>501</ele>
        <time>2021-04-10T11:46:12Z</time>
      </trkpt>
      <trkpt lat="45.14419" lon="5.82739">
        <ele>501.2</ele>
        <time>2021-04-10T11:46:13Z</time>
      </trkpt>
      <trkpt lat="45.1442" lon="5.82738">
        <ele>501.2</ele>
        <time>2021-04-10T11:46:14Z</time>
      </trkpt>
      <trkpt lat="45.14421" lon="5.82738">
        <ele>501.2</ele>
        <time>2021-04-10T11:46:15Z</time>
      </trkpt>
      <trkpt lat="45.14422" lon="5.82737">
        <ele>501.4</ele>
        <time>2021-04-10T11:46:16Z</time>
      </trkpt>
      <trkpt lat="45.14423" lon="5.82736">
        <ele>501.6</ele>
        <time>2021-04-10T11:46:17Z</time>
      </trkpt>
      <trkpt lat="45.14424" lon="5.82735">
        <ele>501.4</ele>
        <time>2021-04-10T11:46:18Z</time>
      </trkpt>
      <trkpt lat="45.14425" lon="5.82734">
        <ele>501.2</ele>
        <time>2021-04-10T11:46:19Z</time>
      </trkpt>
      <trkpt lat="45.14426" lon="5.82734">
        <ele>501.2</ele>
        <time>2021-04-10T11:46:20Z</time>
      </trkpt>
      <trkpt lat="45.14427" lon="5.82733">
        <ele>501.2</ele>
        <time>2021-04-10T11:46:21Z</time>
      </trkpt>
      <trkpt lat="45.14428" lon="5.82732">
        <ele>501.2</ele>
        <time>2021-04-10T11:46:22Z</time>
      </trkpt>
      <trkpt lat="45.14429" lon="5.82732">
        <ele>501.2</ele>
        <time>2021-04-10T11:46:23Z</time>
      </trkpt>
      <trkpt lat="45.1443" lon="5.82732">
        <ele>501.4</ele>
        <time>2021-04-10T11:46:24Z</time>
      </trkpt>
      <trkpt lat="45.14431" lon="5.82732">
        <ele>501.4</ele>
        <time>2021-04-10T11:46:25Z</time>
      </trkpt>
      <trkpt lat="45.14432" lon="5.82731">
        <ele>501.6</ele>
        <time>2021-04-10T11:46:26Z</time>
      </trkpt>
      <trkpt lat="45.14433" lon="5.82731">
        <ele>501.8</ele>
        <time>2021-04-10T11:46:27Z</time>
      </trkpt>
      <trkpt lat="45.14434" lon="5.82731">
        <ele>502</ele>
        <time>2021-04-10T11:46:28Z</time>
      </trkpt>
      <trkpt lat="45.14434" lon="5.8273">
        <ele>502.2</ele>
        <time>2021-04-10T11:46:29Z</time>
      </trkpt>
      <trkpt lat="45.14435" lon="5.8273">
        <ele>502.2</ele>
        <time>2021-04-10T11:46:30Z</time>
      </trkpt>
      <trkpt lat="45.14436" lon="5.8273">
        <ele>502.4</ele>
        <time>2021-04-10T11:46:31Z</time>
      </trkpt>
      <trkpt lat="45.14437" lon="5.8273">
        <ele>502.6</ele>
        <time>2021-04-10T11:46:32Z</time>
      </trkpt>
      <trkpt lat="45.14438" lon="5.82729">
        <ele>502.6</ele>
        <time>2021-04-10T11:46:33Z</time>
      </trkpt>
      <trkpt lat="45.14438" lon="5.82729">
        <ele>502.6</ele>
        <time>2021-04-10T11:46:34Z</time>
      </trkpt>
      <trkpt lat="45.14439" lon="5.82728">
        <ele>502.8</ele>
        <time>2021-04-10T11:46:35Z</time>
      </trkpt>
      <trkpt lat="45.1444" lon="5.82728">
        <ele>502.8</ele>
        <time>2021-04-10T11:46:36Z</time>
      </trkpt>
      <trkpt lat="45.1444" lon="5.82727">
        <ele>503</ele>
        <time>2021-04-10T11:46:37Z</time>
      </trkpt>
      <trkpt lat="45.14441" lon="5.82727">
        <ele>503.2</ele>
        <time>2021-04-10T11:46:38Z</time>
      </trkpt>
      <trkpt lat="45.14441" lon="5.82726">
        <ele>503.2</ele>
        <time>2021-04-10T11:46:39Z</time>
      </trkpt>
      <trkpt lat="45.14442" lon="5.82726">
        <ele>503.4</ele>
        <time>2021-04-10T11:46:40Z</time>
      </trkpt>
      <trkpt lat="45.14443" lon="5.82725">
        <ele>503.4</ele>
        <time>2021-04-10T11:46:41Z</time>
      </trkpt>
      <trkpt lat="45.14443" lon="5.82725">
        <ele>503.6</ele>
        <time>2021-04-10T11:46:42Z</time>
      </trkpt>
      <trkpt lat="45.14444" lon="5.82725">
        <ele>503.8</ele>
        <time>2021-04-10T11:46:43Z</time>
      </trkpt>
      <trkpt lat="45.14444" lon="5.82724">
        <ele>504</ele>
        <time>2021-04-10T11:46:44Z</time>
      </trkpt>
      <trkpt lat="45.14445" lon="5.82724">
        <ele>504.4</ele>
        <time>2021-04-10T11:46:45Z</time>
      </trkpt>
      <trkpt lat="45.14446" lon="5.82723">
        <ele>504.4</ele>
        <time>2021-04-10T11:46:46Z</time>
      </trkpt>
      <trkpt lat="45.14446" lon="5.82723">
        <ele>504.6</ele>
        <time>2021-04-10T11:46:47Z</time>
      </trkpt>
      <trkpt lat="45.14447" lon="5.82722">
        <ele>504.8</ele>
        <time>2021-04-10T11:46:48Z</time>
      </trkpt>
      <trkpt lat="45.14448" lon="5.82721">
        <ele>504.8</ele>
        <time>2021-04-10T11:46:49Z</time>
      </trkpt>
      <trkpt lat="45.14449" lon="5.8272">
        <ele>505.2</ele>
        <time>2021-04-10T11:46:50Z</time>
      </trkpt>
      <trkpt lat="45.14451" lon="5.82719">
        <ele>505.4</ele>
        <time>2021-04-10T11:46:51Z</time>
      </trkpt>
      <trkpt lat="45.14452" lon="5.82718">
        <ele>505.4</ele>
        <time>2021-04-10T11:46:52Z</time>
      </trkpt>
      <trkpt lat="45.14453" lon="5.82717">
        <ele>505.4</ele>
        <time>2021-04-10T11:46:53Z</time>
      </trkpt>
      <trkpt lat="45.14455" lon="5.82716">
        <ele>505.8</ele>
        <time>2021-04-10T11:46:54Z</time>
      </trkpt>
      <trkpt lat="45.14455" lon="5.82714">
        <ele>506</ele>
        <time>2021-04-10T11:46:55Z</time>
      </trkpt>
      <trkpt lat="45.14456" lon="5.82713">
        <ele>506.2</ele>
        <time>2021-04-10T11:46:56Z</time>
      </trkpt>
      <trkpt lat="45.14457" lon="5.82712">
        <ele>506.2</ele>
        <time>2021-04-10T11:46:57Z</time>
      </trkpt>
      <trkpt lat="45.14458" lon="5.82711">
        <ele>506.4</ele>
        <time>2021-04-10T11:46:58Z</time>
      </trkpt>
      <trkpt lat="45.14458" lon="5.82709">
        <ele>506.8</ele>
        <time>2021-04-10T11:46:59Z</time>
      </trkpt>
      <trkpt lat="45.14459" lon="5.82708">
        <ele>507</ele>
        <time>2021-04-10T11:47:00Z</time>
      </trkpt>
      <trkpt lat="45.1446" lon="5.82707">
        <ele>507</ele>
        <time>2021-04-10T11:47:01Z</time>
      </trkpt>
      <trkpt lat="45.1446" lon="5.82706">
        <ele>507.2</ele>
        <time>2021-04-10T11:47:02Z</time>
      </trkpt>
      <trkpt lat="45.14461" lon="5.82704">
        <ele>507.4</ele>
        <time>2021-04-10T11:47:03Z</time>
      </trkpt>
      <trkpt lat="45.14463" lon="5.82702">
        <ele>507.6</ele>
        <time>2021-04-10T11:47:04Z</time>
      </trkpt>
      <trkpt lat="45.14464" lon="5.827">
        <ele>507.8</ele>
        <time>2021-04-10T11:47:05Z</time>
      </trkpt>
      <trkpt lat="45.14465" lon="5.82698">
        <ele>507.8</ele>
        <time>2021-04-10T11:47:06Z</time>
      </trkpt>
      <trkpt lat="45.14467" lon="5.82696">
        <ele>508</ele>
        <time>2021-04-10T11:47:07Z</time>
      </trkpt>
      <trkpt lat="45.14468" lon="5.82694">
        <ele>508</ele>
        <time>2021-04-10T11:47:08Z</time>
      </trkpt>
      <trkpt lat="45.14469" lon="5.82693">
        <ele>508</ele>
        <time>2021-04-10T11:47:09Z</time>
      </trkpt>
      <trkpt lat="45.1447" lon="5.82692">
        <ele>508.2</ele>
        <time>2021-04-10T11:47:10Z</time>
      </trkpt>
      <trkpt lat="45.1447" lon="5.82691">
        <ele>508.2</ele>
        <time>2021-04-10T11:47:11Z</time>
      </trkpt>
      <trkpt lat="45.14471" lon="5.8269">
        <ele>508.4</ele>
        <time>2021-04-10T11:47:12Z</time>
      </trkpt>
      <trkpt lat="45.14472" lon="5.82689">
        <ele>508.6</ele>
        <time>2021-04-10T11:47:13Z</time>
      </trkpt>
      <trkpt lat="45.14472" lon="5.82688">
        <ele>508.8</ele>
        <time>2021-04-10T11:47:14Z</time>
      </trkpt>
      <trkpt lat="45.14473" lon="5.82687">
        <ele>508.8</ele>
        <time>2021-04-10T11:47:15Z</time>
      </trkpt>
      <trkpt lat="45.14474" lon="5.82687">
        <ele>509</ele>
        <time>2021-04-10T11:47:16Z</time>
      </trkpt>
      <trkpt lat="45.14474" lon="5.82686">
        <ele>509</ele>
        <time>2021-04-10T11:47:17Z</time>
      </trkpt>
      <trkpt lat="45.14475" lon="5.82685">
        <ele>509.2</ele>
        <time>2021-04-10T11:47:18Z</time>
      </trkpt>
      <trkpt lat="45.14475" lon="5.82683">
        <ele>509.6</ele>
        <time>2021-04-10T11:47:19Z</time>
      </trkpt>
      <trkpt lat="45.14476" lon="5.82682">
        <ele>509.8</ele>
        <time>2021-04-10T11:47:20Z</time>
      </trkpt>
      <trkpt lat="45.14476" lon="5.82681">
        <ele>510</ele>
        <time>2021-04-10T11:47:21Z</time>
      </trkpt>
      <trkpt lat="45.14477" lon="5.82679">
        <ele>510</ele>
        <time>2021-04-10T11:47:22Z</time>
      </trkpt>
      <trkpt lat="45.14477" lon="5.82678">
        <ele>510.2</ele>
        <time>2021-04-10T11:47:23Z</time>
      </trkpt>
      <trkpt lat="45.14478" lon="5.82677">
        <ele>510.4</ele>
        <time>2021-04-10T11:47:24Z</time>
      </trkpt>
      <trkpt lat="45.14478" lon="5.82675">
        <ele>510.6</ele>
        <time>2021-04-10T11:47:25Z</time>
      </trkpt>
      <trkpt lat="45.14479" lon="5.82674">
        <ele>510.8</ele>
        <time>2021-04-10T11:47:26Z</time>
      </trkpt>
      <trkpt lat="45.14479" lon="5.82673">
        <ele>511</ele>
        <time>2021-04-10T11:47:27Z</time>
      </trkpt>
      <trkpt lat="45.14481" lon="5.82671">
        <ele>511.4</ele>
        <time>2021-04-10T11:47:28Z</time>
      </trkpt>
      <trkpt lat="45.14482" lon="5.8267">
        <ele>511.4</ele>
        <time>2021-04-10T11:47:29Z</time>
      </trkpt>
      <trkpt lat="45.14483" lon="5.82668">
        <ele>511.8</ele>
        <time>2021-04-10T11:47:30Z</time>
      </trkpt>
      <trkpt lat="45.14484" lon="5.82667">
        <ele>512</ele>
        <time>2021-04-10T11:47:31Z</time>
      </trkpt>
      <trkpt lat="45.14485" lon="5.82665">
        <ele>512.2</ele>
        <time>2021-04-10T11:47:32Z</time>
      </trkpt>
      <trkpt lat="45.14486" lon="5.82664">
        <ele>512.4</ele>
        <time>2021-04-10T11:47:33Z</time>
      </trkpt>
      <trkpt lat="45.14487" lon="5.82662">
        <ele>512.4</ele>
        <time>2021-04-10T11:47:34Z</time>
      </trkpt>
      <trkpt lat="45.14489" lon="5.82661">
        <ele>512.4</ele>
        <time>2021-04-10T11:47:35Z</time>
      </trkpt>
      <trkpt lat="45.1449" lon="5.82659">
        <ele>512.4</ele>
        <time>2021-04-10T11:47:36Z</time>
      </trkpt>
      <trkpt lat="45.14492" lon="5.82657">
        <ele>512.4</ele>
        <time>2021-04-10T11:47:37Z</time>
      </trkpt>
      <trkpt lat="45.14493" lon="5.82656">
        <ele>512.6</ele>
        <time>2021-04-10T11:47:38Z</time>
      </trkpt>
      <trkpt lat="45.14494" lon="5.82655">
        <ele>512.8</ele>
        <time>2021-04-10T11:47:39Z</time>
      </trkpt>
      <trkpt lat="45.14495" lon="5.82654">
        <ele>512.8</ele>
        <time>2021-04-10T11:47:40Z</time>
      </trkpt>
      <trkpt lat="45.14496" lon="5.82653">
        <ele>513</ele>
        <time>2021-04-10T11:47:41Z</time>
      </trkpt>
      <trkpt lat="45.14496" lon="5.82653">
        <ele>513.2</ele>
        <time>2021-04-10T11:47:42Z</time>
      </trkpt>
      <trkpt lat="45.14497" lon="5.82652">
        <ele>513.4</ele>
        <time>2021-04-10T11:47:43Z</time>
      </trkpt>
      <trkpt lat="45.14498" lon="5.82651">
        <ele>513.6</ele>
        <time>2021-04-10T11:47:44Z</time>
      </trkpt>
      <trkpt lat="45.14499" lon="5.8265">
        <ele>513.8</ele>
        <time>2021-04-10T11:47:45Z</time>
      </trkpt>
      <trkpt lat="45.145" lon="5.8265">
        <ele>514</ele>
        <time>2021-04-10T11:47:46Z</time>
      </trkpt>
      <trkpt lat="45.145" lon="5.82649">
        <ele>514.2</ele>
        <time>2021-04-10T11:47:47Z</time>
      </trkpt>
      <trkpt lat="45.14501" lon="5.82648">
        <ele>514.2</ele>
        <time>2021-04-10T11:47:48Z</time>
      </trkpt>
      <trkpt lat="45.14503" lon="5.82647">
        <ele>514.4</ele>
        <time>2021-04-10T11:47:49Z</time>
      </trkpt>
      <trkpt lat="45.14505" lon="5.82646">
        <ele>514.8</ele>
        <time>2021-04-10T11:47:50Z</time>
      </trkpt>
      <trkpt lat="45.14506" lon="5.82645">
        <ele>515</ele>
        <time>2021-04-10T11:47:51Z</time>
      </trkpt>
      <trkpt lat="45.14508" lon="5.82644">
        <ele>515.2</ele>
        <time>2021-04-10T11:47:52Z</time>
      </trkpt>
      <trkpt lat="45.1451" lon="5.82642">
        <ele>515.6</ele>
        <time>2021-04-10T11:47:53Z</time>
      </trkpt>
      <trkpt lat="45.14511" lon="5.82642">
        <ele>515.8</ele>
        <time>2021-04-10T11:47:54Z</time>
      </trkpt>
      <trkpt lat="45.14512" lon="5.82641">
        <ele>516</ele>
        <time>2021-04-10T11:47:55Z</time>
      </trkpt>
      <trkpt lat="45.14513" lon="5.82641">
        <ele>516</ele>
        <time>2021-04-10T11:47:56Z</time>
      </trkpt>
      <trkpt lat="45.14514" lon="5.8264">
        <ele>516</ele>
        <time>2021-04-10T11:47:57Z</time>
      </trkpt>
      <trkpt lat="45.14515" lon="5.8264">
        <ele>516</ele>
        <time>2021-04-10T11:47:58Z</time>
      </trkpt>
      <trkpt lat="45.14516" lon="5.82639">
        <ele>515.8</ele>
        <time>2021-04-10T11:47:59Z</time>
      </trkpt>
      <trkpt lat="45.14517" lon="5.82639">
        <ele>516</ele>
        <time>2021-04-10T11:48:00Z</time>
      </trkpt>
      <trkpt lat="45.14519" lon="5.82638">
        <ele>516</ele>
        <time>2021-04-10T11:48:01Z</time>
      </trkpt>
      <trkpt lat="45.1452" lon="5.82637">
        <ele>516.2</ele>
        <time>2021-04-10T11:48:02Z</time>
      </trkpt>
      <trkpt lat="45.14522" lon="5.82636">
        <ele>516.6</ele>
        <time>2021-04-10T11:48:03Z</time>
      </trkpt>
      <trkpt lat="45.14523" lon="5.82634">
        <ele>516.8</ele>
        <time>2021-04-10T11:48:04Z</time>
      </trkpt>
      <trkpt lat="45.14525" lon="5.82633">
        <ele>517.2</ele>
        <time>2021-04-10T11:48:05Z</time>
      </trkpt>
      <trkpt lat="45.14526" lon="5.82632">
        <ele>517.4</ele>
        <time>2021-04-10T11:48:06Z</time>
      </trkpt>
      <trkpt lat="45.14528" lon="5.82631">
        <ele>517.6</ele>
        <time>2021-04-10T11:48:07Z</time>
      </trkpt>
      <trkpt lat="45.14529" lon="5.82629">
        <ele>517.6</ele>
        <time>2021-04-10T11:48:08Z</time>
      </trkpt>
      <trkpt lat="45.14531" lon="5.82628">
        <ele>517.8</ele>
        <time>2021-04-10T11:48:09Z</time>
      </trkpt>
      <trkpt lat="45.14532" lon="5.82627">
        <ele>517.8</ele>
        <time>2021-04-10T11:48:10Z</time>
      </trkpt>
      <trkpt lat="45.14533" lon="5.82625">
        <ele>518</ele>
        <time>2021-04-10T11:48:11Z</time>
      </trkpt>
      <trkpt lat="45.14535" lon="5.82624">
        <ele>518</ele>
        <time>2021-04-10T11:48:12Z</time>
      </trkpt>
      <trkpt lat="45.14536" lon="5.82622">
        <ele>518</ele>
        <time>2021-04-10T11:48:13Z</time>
      </trkpt>
      <trkpt lat="45.14537" lon="5.82621">
        <ele>518</ele>
        <time>2021-04-10T11:48:14Z</time>
      </trkpt>
      <trkpt lat="45.14539" lon="5.8262">
        <ele>518.2</ele>
        <time>2021-04-10T11:48:15Z</time>
      </trkpt>
      <trkpt lat="45.1454" lon="5.82618">
        <ele>518.4</ele>
        <time>2021-04-10T11:48:16Z</time>
      </trkpt>
      <trkpt lat="45.14542" lon="5.82617">
        <ele>519</ele>
        <time>2021-04-10T11:48:17Z</time>
      </trkpt>
      <trkpt lat="45.14543" lon="5.82616">
        <ele>519.2</ele>
        <time>2021-04-10T11:48:18Z</time>
      </trkpt>
      <trkpt lat="45.14544" lon="5.82614">
        <ele>519.4</ele>
        <time>2021-04-10T11:48:19Z</time>
      </trkpt>
      <trkpt lat="45.14545" lon="5.82613">
        <ele>519.4</ele>
        <time>2021-04-10T11:48:20Z</time>
      </trkpt>
      <trkpt lat="45.14546" lon="5.82612">
        <ele>519.8</ele>
        <time>2021-04-10T11:48:21Z</time>
      </trkpt>
      <trkpt lat="45.14547" lon="5.82611">
        <ele>520</ele>
        <time>2021-04-10T11:48:22Z</time>
      </trkpt>
      <trkpt lat="45.14548" lon="5.82609">
        <ele>520</ele>
        <time>2021-04-10T11:48:23Z</time>
      </trkpt>
      <trkpt lat="45.14549" lon="5.82608">
        <ele>520.2</ele>
        <time>2021-04-10T11:48:24Z</time>
      </trkpt>
      <trkpt lat="45.1455" lon="5.82607">
        <ele>520.2</ele>
        <time>2021-04-10T11:48:25Z</time>
      </trkpt>
      <trkpt lat="45.14551" lon="5.82606">
        <ele>520.4</ele>
        <time>2021-04-10T11:48:26Z</time>
      </trkpt>
      <trkpt lat="45.14552" lon="5.82604">
        <ele>520.4</ele>
        <time>2021-04-10T11:48:27Z</time>
      </trkpt>
      <trkpt lat="45.14553" lon="5.82603">
        <ele>520.6</ele>
        <time>2021-04-10T11:48:28Z</time>
      </trkpt>
      <trkpt lat="45.14554" lon="5.82602">
        <ele>520.8</ele>
        <time>2021-04-10T11:48:29Z</time>
      </trkpt>
      <trkpt lat="45.14555" lon="5.82601">
        <ele>520.8</ele>
        <time>2021-04-10T11:48:30Z</time>
      </trkpt>
      <trkpt lat="45.14556" lon="5.826">
        <ele>521</ele>
        <time>2021-04-10T11:48:31Z</time>
      </trkpt>
      <trkpt lat="45.14557" lon="5.82599">
        <ele>521</ele>
        <time>2021-04-10T11:48:32Z</time>
      </trkpt>
      <trkpt lat="45.14558" lon="5.82598">
        <ele>521.4</ele>
        <time>2021-04-10T11:48:33Z</time>
      </trkpt>
      <trkpt lat="45.14559" lon="5.82596">
        <ele>521.4</ele>
        <time>2021-04-10T11:48:34Z</time>
      </trkpt>
      <trkpt lat="45.1456" lon="5.82594">
        <ele>521.8</ele>
        <time>2021-04-10T11:48:35Z</time>
      </trkpt>
      <trkpt lat="45.14561" lon="5.82593">
        <ele>522</ele>
        <time>2021-04-10T11:48:36Z</time>
      </trkpt>
      <trkpt lat="45.14562" lon="5.82591">
        <ele>522.2</ele>
        <time>2021-04-10T11:48:37Z</time>
      </trkpt>
      <trkpt lat="45.14563" lon="5.82589">
        <ele>522.4</ele>
        <time>2021-04-10T11:48:38Z</time>
      </trkpt>
      <trkpt lat="45.14564" lon="5.82588">
        <ele>522.4</ele>
        <time>2021-04-10T11:48:39Z</time>
      </trkpt>
      <trkpt lat="45.14565" lon="5.82587">
        <ele>522.4</ele>
        <time>2021-04-10T11:48:40Z</time>
      </trkpt>
      <trkpt lat="45.14566" lon="5.82586">
        <ele>522.4</ele>
        <time>2021-04-10T11:48:41Z</time>
      </trkpt>
      <trkpt lat="45.14566" lon="5.82585">
        <ele>522.6</ele>
        <time>2021-04-10T11:48:42Z</time>
      </trkpt>
      <trkpt lat="45.14567" lon="5.82584">
        <ele>522.8</ele>
        <time>2021-04-10T11:48:43Z</time>
      </trkpt>
      <trkpt lat="45.14568" lon="5.82583">
        <ele>522.8</ele>
        <time>2021-04-10T11:48:44Z</time>
      </trkpt>
      <trkpt lat="45.14569" lon="5.82582">
        <ele>523.2</ele>
        <time>2021-04-10T11:48:45Z</time>
      </trkpt>
      <trkpt lat="45.1457" lon="5.82581">
        <ele>523.4</ele>
        <time>2021-04-10T11:48:46Z</time>
      </trkpt>
      <trkpt lat="45.14571" lon="5.8258">
        <ele>523.6</ele>
        <time>2021-04-10T11:48:47Z</time>
      </trkpt>
      <trkpt lat="45.14571" lon="5.82579">
        <ele>523.8</ele>
        <time>2021-04-10T11:48:48Z</time>
      </trkpt>
      <trkpt lat="45.14572" lon="5.82577">
        <ele>524</ele>
        <time>2021-04-10T11:48:49Z</time>
      </trkpt>
      <trkpt lat="45.14572" lon="5.82575">
        <ele>524.6</ele>
        <time>2021-04-10T11:48:50Z</time>
      </trkpt>
      <trkpt lat="45.14573" lon="5.82573">
        <ele>524.8</ele>
        <time>2021-04-10T11:48:51Z</time>
      </trkpt>
      <trkpt lat="45.14573" lon="5.82571">
        <ele>525</ele>
        <time>2021-04-10T11:48:52Z</time>
      </trkpt>
      <trkpt lat="45.14573" lon="5.8257">
        <ele>525.2</ele>
        <time>2021-04-10T11:48:53Z</time>
      </trkpt>
      <trkpt lat="45.14574" lon="5.82568">
        <ele>525.4</ele>
        <time>2021-04-10T11:48:54Z</time>
      </trkpt>
      <trkpt lat="45.14574" lon="5.82566">
        <ele>525.6</ele>
        <time>2021-04-10T11:48:55Z</time>
      </trkpt>
      <trkpt lat="45.14575" lon="5.82564">
        <ele>525.6</ele>
        <time>2021-04-10T11:48:56Z</time>
      </trkpt>
      <trkpt lat="45.14575" lon="5.82562">
        <ele>526</ele>
        <time>2021-04-10T11:48:57Z</time>
      </trkpt>
      <trkpt lat="45.14576" lon="5.8256">
        <ele>526</ele>
        <time>2021-04-10T11:48:58Z</time>
      </trkpt>
      <trkpt lat="45.14576" lon="5.82557">
        <ele>526.2</ele>
        <time>2021-04-10T11:48:59Z</time>
      </trkpt>
      <trkpt lat="45.14577" lon="5.82555">
        <ele>526.4</ele>
        <time>2021-04-10T11:49:00Z</time>
      </trkpt>
      <trkpt lat="45.14578" lon="5.82553">
        <ele>526.4</ele>
        <time>2021-04-10T11:49:01Z</time>
      </trkpt>
      <trkpt lat="45.14578" lon="5.82552">
        <ele>526.6</ele>
        <time>2021-04-10T11:49:02Z</time>
      </trkpt>
      <trkpt lat="45.14579" lon="5.8255">
        <ele>526.8</ele>
        <time>2021-04-10T11:49:03Z</time>
      </trkpt>
      <trkpt lat="45.14579" lon="5.82549">
        <ele>527.2</ele>
        <time>2021-04-10T11:49:04Z</time>
      </trkpt>
      <trkpt lat="45.1458" lon="5.82547">
        <ele>527.4</ele>
        <time>2021-04-10T11:49:05Z</time>
      </trkpt>
      <trkpt lat="45.1458" lon="5.82546">
        <ele>527.4</ele>
        <time>2021-04-10T11:49:06Z</time>
      </trkpt>
      <trkpt lat="45.14581" lon="5.82544">
        <ele>527.6</ele>
        <time>2021-04-10T11:49:07Z</time>
      </trkpt>
      <trkpt lat="45.14581" lon="5.82543">
        <ele>528</ele>
        <time>2021-04-10T11:49:08Z</time>
      </trkpt>
      <trkpt lat="45.14582" lon="5.82541">
        <ele>528</ele>
        <time>2021-04-10T11:49:09Z</time>
      </trkpt>
      <trkpt lat="45.14582" lon="5.8254">
        <ele>527.8</ele>
        <time>2021-04-10T11:49:10Z</time>
      </trkpt>
      <trkpt lat="45.14583" lon="5.82538">
        <ele>528</ele>
        <time>2021-04-10T11:49:11Z</time>
      </trkpt>
      <trkpt lat="45.14584" lon="5.82537">
        <ele>528.2</ele>
        <time>2021-04-10T11:49:12Z</time>
      </trkpt>
      <trkpt lat="45.14584" lon="5.82535">
        <ele>528.2</ele>
        <time>2021-04-10T11:49:13Z</time>
      </trkpt>
      <trkpt lat="45.14585" lon="5.82533">
        <ele>528.4</ele>
        <time>2021-04-10T11:49:14Z</time>
      </trkpt>
      <trkpt lat="45.14586" lon="5.82532">
        <ele>528.6</ele>
        <time>2021-04-10T11:49:15Z</time>
      </trkpt>
      <trkpt lat="45.14586" lon="5.8253">
        <ele>528.8</ele>
        <time>2021-04-10T11:49:16Z</time>
      </trkpt>
      <trkpt lat="45.14587" lon="5.82529">
        <ele>529</ele>
        <time>2021-04-10T11:49:17Z</time>
      </trkpt>
      <trkpt lat="45.14588" lon="5.82527">
        <ele>529</ele>
        <time>2021-04-10T11:49:18Z</time>
      </trkpt>
      <trkpt lat="45.14588" lon="5.82525">
        <ele>529.2</ele>
        <time>2021-04-10T11:49:19Z</time>
      </trkpt>
      <trkpt lat="45.14589" lon="5.82524">
        <ele>529.2</ele>
        <time>2021-04-10T11:49:20Z</time>
      </trkpt>
      <trkpt lat="45.14589" lon="5.82522">
        <ele>529.2</ele>
        <time>2021-04-10T11:49:21Z</time>
      </trkpt>
      <trkpt lat="45.1459" lon="5.8252">
        <ele>529.2</ele>
        <time>2021-04-10T11:49:22Z</time>
      </trkpt>
      <trkpt lat="45.1459" lon="5.82519">
        <ele>529.4</ele>
        <time>2021-04-10T11:49:23Z</time>
      </trkpt>
      <trkpt lat="45.14591" lon="5.82517">
        <ele>529.6</ele>
        <time>2021-04-10T11:49:24Z</time>
      </trkpt>
      <trkpt lat="45.14591" lon="5.82515">
        <ele>529.6</ele>
        <time>2021-04-10T11:49:25Z</time>
      </trkpt>
      <trkpt lat="45.14592" lon="5.82514">
        <ele>529.8</ele>
        <time>2021-04-10T11:49:26Z</time>
      </trkpt>
      <trkpt lat="45.14592" lon="5.82511">
        <ele>529.8</ele>
        <time>2021-04-10T11:49:27Z</time>
      </trkpt>
      <trkpt lat="45.14593" lon="5.82509">
        <ele>529.8</ele>
        <time>2021-04-10T11:49:28Z</time>
      </trkpt>
      <trkpt lat="45.14593" lon="5.82507">
        <ele>529.8</ele>
        <time>2021-04-10T11:49:29Z</time>
      </trkpt>
      <trkpt lat="45.14594" lon="5.82505">
        <ele>529.8</ele>
        <time>2021-04-10T11:49:30Z</time>
      </trkpt>
      <trkpt lat="45.14595" lon="5.82503">
        <ele>529.8</ele>
        <time>2021-04-10T11:49:31Z</time>
      </trkpt>
      <trkpt lat="45.14595" lon="5.82501">
        <ele>529.8</ele>
        <time>2021-04-10T11:49:32Z</time>
      </trkpt>
      <trkpt lat="45.14596" lon="5.82498">
        <ele>530</ele>
        <time>2021-04-10T11:49:33Z</time>
      </trkpt>
      <trkpt lat="45.14597" lon="5.82496">
        <ele>530.2</ele>
        <time>2021-04-10T11:49:34Z</time>
      </trkpt>
      <trkpt lat="45.14598" lon="5.82494">
        <ele>530.2</ele>
        <time>2021-04-10T11:49:35Z</time>
      </trkpt>
      <trkpt lat="45.14599" lon="5.82492">
        <ele>530.4</ele>
        <time>2021-04-10T11:49:36Z</time>
      </trkpt>
      <trkpt lat="45.146" lon="5.8249">
        <ele>530.2</ele>
        <time>2021-04-10T11:49:37Z</time>
      </trkpt>
      <trkpt lat="45.14602" lon="5.82488">
        <ele>530.2</ele>
        <time>2021-04-10T11:49:38Z</time>
      </trkpt>
      <trkpt lat="45.14603" lon="5.82486">
        <ele>530.4</ele>
        <time>2021-04-10T11:49:39Z</time>
      </trkpt>
      <trkpt lat="45.14603" lon="5.82482">
        <ele>530.2</ele>
        <time>2021-04-10T11:49:40Z</time>
      </trkpt>
      <trkpt lat="45.14603" lon="5.8248">
        <ele>530.8</ele>
        <time>2021-04-10T11:49:41Z</time>
      </trkpt>
      <trkpt lat="45.14603" lon="5.82478">
        <ele>530.8</ele>
        <time>2021-04-10T11:49:42Z</time>
      </trkpt>
      <trkpt lat="45.14603" lon="5.82476">
        <ele>531.2</ele>
        <time>2021-04-10T11:49:43Z</time>
      </trkpt>
      <trkpt lat="45.14603" lon="5.82473">
        <ele>531</ele>
        <time>2021-04-10T11:49:44Z</time>
      </trkpt>
      <trkpt lat="45.14603" lon="5.82471">
        <ele>531.2</ele>
        <time>2021-04-10T11:49:45Z</time>
      </trkpt>
      <trkpt lat="45.14603" lon="5.82469">
        <ele>531.2</ele>
        <time>2021-04-10T11:49:46Z</time>
      </trkpt>
      <trkpt lat="45.14603" lon="5.82467">
        <ele>531.4</ele>
        <time>2021-04-10T11:49:47Z</time>
      </trkpt>
      <trkpt lat="45.14603" lon="5.82465">
        <ele>531.2</ele>
        <time>2021-04-10T11:49:48Z</time>
      </trkpt>
      <trkpt lat="45.14603" lon="5.82463">
        <ele>531.2</ele>
        <time>2021-04-10T11:49:49Z</time>
      </trkpt>
      <trkpt lat="45.14603" lon="5.82461">
        <ele>531.2</ele>
        <time>2021-04-10T11:49:50Z</time>
      </trkpt>
      <trkpt lat="45.14603" lon="5.82459">
        <ele>531</ele>
        <time>2021-04-10T11:49:51Z</time>
      </trkpt>
      <trkpt lat="45.14603" lon="5.82457">
        <ele>531.2</ele>
        <time>2021-04-10T11:49:52Z</time>
      </trkpt>
      <trkpt lat="45.14603" lon="5.82455">
        <ele>531.2</ele>
        <time>2021-04-10T11:49:53Z</time>
      </trkpt>
      <trkpt lat="45.14603" lon="5.82452">
        <ele>531.2</ele>
        <time>2021-04-10T11:49:54Z</time>
      </trkpt>
      <trkpt lat="45.14603" lon="5.8245">
        <ele>531.4</ele>
        <time>2021-04-10T11:49:55Z</time>
      </trkpt>
      <trkpt lat="45.14603" lon="5.82448">
        <ele>531.2</ele>
        <time>2021-04-10T11:49:56Z</time>
      </trkpt>
      <trkpt lat="45.14603" lon="5.82446">
        <ele>531.4</ele>
        <time>2021-04-10T11:49:57Z</time>
      </trkpt>
      <trkpt lat="45.14603" lon="5.82446">
        <ele>531.2</ele>
        <time>2021-04-10T11:49:58Z</time>
      </trkpt>
      <trkpt lat="45.14603" lon="5.82446">
        <ele>531</ele>
        <time>2021-04-10T11:49:59Z</time>
      </trkpt>
      <trkpt lat="45.14603" lon="5.82446">
        <ele>531.2</ele>
        <time>2021-04-10T11:50:01Z</time>
      </trkpt>
      <trkpt lat="45.14603" lon="5.82444">
        <ele>531.2</ele>
        <time>2021-04-10T11:50:02Z</time>
      </trkpt>
      <trkpt lat="45.14603" lon="5.82441">
        <ele>531.2</ele>
        <time>2021-04-10T11:50:03Z</time>
      </trkpt>
      <trkpt lat="45.14602" lon="5.82439">
        <ele>531.2</ele>
        <time>2021-04-10T11:50:04Z</time>
      </trkpt>
      <trkpt lat="45.14602" lon="5.82437">
        <ele>531.6</ele>
        <time>2021-04-10T11:50:05Z</time>
      </trkpt>
      <trkpt lat="45.14602" lon="5.82434">
        <ele>531.6</ele>
        <time>2021-04-10T11:50:06Z</time>
      </trkpt>
      <trkpt lat="45.14602" lon="5.82432">
        <ele>531.6</ele>
        <time>2021-04-10T11:50:07Z</time>
      </trkpt>
      <trkpt lat="45.14602" lon="5.8243">
        <ele>531.6</ele>
        <time>2021-04-10T11:50:08Z</time>
      </trkpt>
      <trkpt lat="45.14602" lon="5.82427">
        <ele>531.6</ele>
        <time>2021-04-10T11:50:09Z</time>
      </trkpt>
      <trkpt lat="45.14602" lon="5.82425">
        <ele>531.6</ele>
        <time>2021-04-10T11:50:10Z</time>
      </trkpt>
      <trkpt lat="45.14602" lon="5.82423">
        <ele>531.6</ele>
        <time>2021-04-10T11:50:11Z</time>
      </trkpt>
      <trkpt lat="45.14602" lon="5.8242">
        <ele>531.6</ele>
        <time>2021-04-10T11:50:12Z</time>
      </trkpt>
      <trkpt lat="45.14603" lon="5.82418">
        <ele>531.6</ele>
        <time>2021-04-10T11:50:13Z</time>
      </trkpt>
      <trkpt lat="45.14602" lon="5.82417">
        <ele>531.8</ele>
        <time>2021-04-10T11:50:14Z</time>
      </trkpt>
      <trkpt lat="45.14601" lon="5.82415">
        <ele>531.6</ele>
        <time>2021-04-10T11:50:15Z</time>
      </trkpt>
      <trkpt lat="45.146" lon="5.82414">
        <ele>531.6</ele>
        <time>2021-04-10T11:50:16Z</time>
      </trkpt>
      <trkpt lat="45.14599" lon="5.82413">
        <ele>532</ele>
        <time>2021-04-10T11:50:17Z</time>
      </trkpt>
      <trkpt lat="45.14598" lon="5.82411">
        <ele>532.2</ele>
        <time>2021-04-10T11:50:18Z</time>
      </trkpt>
      <trkpt lat="45.14597" lon="5.8241">
        <ele>532.2</ele>
        <time>2021-04-10T11:50:19Z</time>
      </trkpt>
      <trkpt lat="45.14597" lon="5.82409">
        <ele>532</ele>
        <time>2021-04-10T11:50:20Z</time>
      </trkpt>
      <trkpt lat="45.14596" lon="5.82407">
        <ele>531.8</ele>
        <time>2021-04-10T11:50:21Z</time>
      </trkpt>
      <trkpt lat="45.14595" lon="5.82405">
        <ele>532</ele>
        <time>2021-04-10T11:50:22Z</time>
      </trkpt>
      <trkpt lat="45.14595" lon="5.82403">
        <ele>532</ele>
        <time>2021-04-10T11:50:23Z</time>
      </trkpt>
      <trkpt lat="45.14594" lon="5.82401">
        <ele>532</ele>
        <time>2021-04-10T11:50:24Z</time>
      </trkpt>
      <trkpt lat="45.14594" lon="5.824">
        <ele>532</ele>
        <time>2021-04-10T11:50:25Z</time>
      </trkpt>
      <trkpt lat="45.14593" lon="5.82398">
        <ele>532.2</ele>
        <time>2021-04-10T11:50:26Z</time>
      </trkpt>
      <trkpt lat="45.14593" lon="5.82396">
        <ele>532.4</ele>
        <time>2021-04-10T11:50:27Z</time>
      </trkpt>
      <trkpt lat="45.14593" lon="5.82394">
        <ele>532.4</ele>
        <time>2021-04-10T11:50:28Z</time>
      </trkpt>
      <trkpt lat="45.14592" lon="5.82392">
        <ele>532.4</ele>
        <time>2021-04-10T11:50:29Z</time>
      </trkpt>
      <trkpt lat="45.14591" lon="5.82391">
        <ele>532.4</ele>
        <time>2021-04-10T11:50:30Z</time>
      </trkpt>
      <trkpt lat="45.1459" lon="5.82389">
        <ele>532.2</ele>
        <time>2021-04-10T11:50:31Z</time>
      </trkpt>
      <trkpt lat="45.14589" lon="5.82388">
        <ele>532</ele>
        <time>2021-04-10T11:50:32Z</time>
      </trkpt>
      <trkpt lat="45.14589" lon="5.82386">
        <ele>532.4</ele>
        <time>2021-04-10T11:50:33Z</time>
      </trkpt>
      <trkpt lat="45.14588" lon="5.82384">
        <ele>532.4</ele>
        <time>2021-04-10T11:50:34Z</time>
      </trkpt>
      <trkpt lat="45.14587" lon="5.82383">
        <ele>532.4</ele>
        <time>2021-04-10T11:50:35Z</time>
      </trkpt>
      <trkpt lat="45.14586" lon="5.82382">
        <ele>532.2</ele>
        <time>2021-04-10T11:50:36Z</time>
      </trkpt>
      <trkpt lat="45.14585" lon="5.82381">
        <ele>532.2</ele>
        <time>2021-04-10T11:50:37Z</time>
      </trkpt>
      <trkpt lat="45.14584" lon="5.82379">
        <ele>532.2</ele>
        <time>2021-04-10T11:50:38Z</time>
      </trkpt>
      <trkpt lat="45.14582" lon="5.82378">
        <ele>532.4</ele>
        <time>2021-04-10T11:50:39Z</time>
      </trkpt>
      <trkpt lat="45.14581" lon="5.82377">
        <ele>532.4</ele>
        <time>2021-04-10T11:50:40Z</time>
      </trkpt>
      <trkpt lat="45.1458" lon="5.82376">
        <ele>532.4</ele>
        <time>2021-04-10T11:50:41Z</time>
      </trkpt>
      <trkpt lat="45.14579" lon="5.82375">
        <ele>532.6</ele>
        <time>2021-04-10T11:50:42Z</time>
      </trkpt>
      <trkpt lat="45.14578" lon="5.82373">
        <ele>532.4</ele>
        <time>2021-04-10T11:50:43Z</time>
      </trkpt>
      <trkpt lat="45.14578" lon="5.82371">
        <ele>532.4</ele>
        <time>2021-04-10T11:50:44Z</time>
      </trkpt>
      <trkpt lat="45.14578" lon="5.82369">
        <ele>532.4</ele>
        <time>2021-04-10T11:50:45Z</time>
      </trkpt>
      <trkpt lat="45.14577" lon="5.82367">
        <ele>532.6</ele>
        <time>2021-04-10T11:50:46Z</time>
      </trkpt>
      <trkpt lat="45.14577" lon="5.82365">
        <ele>532.6</ele>
        <time>2021-04-10T11:50:47Z</time>
      </trkpt>
      <trkpt lat="45.14576" lon="5.82363">
        <ele>532.8</ele>
        <time>2021-04-10T11:50:48Z</time>
      </trkpt>
      <trkpt lat="45.14576" lon="5.82361">
        <ele>532.8</ele>
        <time>2021-04-10T11:50:49Z</time>
      </trkpt>
      <trkpt lat="45.14577" lon="5.82359">
        <ele>533</ele>
        <time>2021-04-10T11:50:50Z</time>
      </trkpt>
      <trkpt lat="45.14577" lon="5.82357">
        <ele>533</ele>
        <time>2021-04-10T11:50:51Z</time>
      </trkpt>
      <trkpt lat="45.14578" lon="5.82354">
        <ele>533.2</ele>
        <time>2021-04-10T11:50:52Z</time>
      </trkpt>
      <trkpt lat="45.14579" lon="5.82352">
        <ele>533.4</ele>
        <time>2021-04-10T11:50:53Z</time>
      </trkpt>
      <trkpt lat="45.1458" lon="5.8235">
        <ele>533.4</ele>
        <time>2021-04-10T11:50:54Z</time>
      </trkpt>
      <trkpt lat="45.14581" lon="5.82347">
        <ele>533.4</ele>
        <time>2021-04-10T11:50:55Z</time>
      </trkpt>
      <trkpt lat="45.14582" lon="5.82345">
        <ele>533.4</ele>
        <time>2021-04-10T11:50:56Z</time>
      </trkpt>
      <trkpt lat="45.14583" lon="5.82343">
        <ele>533.6</ele>
        <time>2021-04-10T11:50:57Z</time>
      </trkpt>
      <trkpt lat="45.14583" lon="5.8234">
        <ele>533.4</ele>
        <time>2021-04-10T11:50:58Z</time>
      </trkpt>
      <trkpt lat="45.14584" lon="5.82338">
        <ele>533.4</ele>
        <time>2021-04-10T11:50:59Z</time>
      </trkpt>
      <trkpt lat="45.14588" lon="5.82331">
        <ele>533.4</ele>
        <time>2021-04-10T11:51:00Z</time>
      </trkpt>
      <trkpt lat="45.14588" lon="5.82331">
        <ele>533.6</ele>
        <time>2021-04-10T11:51:01Z</time>
      </trkpt>
      <trkpt lat="45.14588" lon="5.82331">
        <ele>533.6</ele>
        <time>2021-04-10T11:51:02Z</time>
      </trkpt>
      <trkpt lat="45.14589" lon="5.8233">
        <ele>533.6</ele>
        <time>2021-04-10T11:51:03Z</time>
      </trkpt>
      <trkpt lat="45.1459" lon="5.8233">
        <ele>533.6</ele>
        <time>2021-04-10T11:51:04Z</time>
      </trkpt>
      <trkpt lat="45.14591" lon="5.82329">
        <ele>533.8</ele>
        <time>2021-04-10T11:51:05Z</time>
      </trkpt>
      <trkpt lat="45.14592" lon="5.82328">
        <ele>534</ele>
        <time>2021-04-10T11:51:06Z</time>
      </trkpt>
      <trkpt lat="45.14593" lon="5.82328">
        <ele>534</ele>
        <time>2021-04-10T11:51:07Z</time>
      </trkpt>
      <trkpt lat="45.14594" lon="5.82327">
        <ele>534</ele>
        <time>2021-04-10T11:51:08Z</time>
      </trkpt>
      <trkpt lat="45.14595" lon="5.82326">
        <ele>534.2</ele>
        <time>2021-04-10T11:51:09Z</time>
      </trkpt>
      <trkpt lat="45.14596" lon="5.82326">
        <ele>534.4</ele>
        <time>2021-04-10T11:51:10Z</time>
      </trkpt>
      <trkpt lat="45.14598" lon="5.82325">
        <ele>534.4</ele>
        <time>2021-04-10T11:51:11Z</time>
      </trkpt>
      <trkpt lat="45.14599" lon="5.82323">
        <ele>534.6</ele>
        <time>2021-04-10T11:51:12Z</time>
      </trkpt>
      <trkpt lat="45.14601" lon="5.82322">
        <ele>534.6</ele>
        <time>2021-04-10T11:51:13Z</time>
      </trkpt>
      <trkpt lat="45.14602" lon="5.82321">
        <ele>534.6</ele>
        <time>2021-04-10T11:51:14Z</time>
      </trkpt>
      <trkpt lat="45.14604" lon="5.8232">
        <ele>534.6</ele>
        <time>2021-04-10T11:51:15Z</time>
      </trkpt>
      <trkpt lat="45.14605" lon="5.82319">
        <ele>534.8</ele>
        <time>2021-04-10T11:51:16Z</time>
      </trkpt>
      <trkpt lat="45.14607" lon="5.82318">
        <ele>535</ele>
        <time>2021-04-10T11:51:17Z</time>
      </trkpt>
      <trkpt lat="45.14608" lon="5.82317">
        <ele>535.2</ele>
        <time>2021-04-10T11:51:18Z</time>
      </trkpt>
      <trkpt lat="45.14609" lon="5.82315">
        <ele>535.4</ele>
        <time>2021-04-10T11:51:19Z</time>
      </trkpt>
      <trkpt lat="45.14611" lon="5.82314">
        <ele>535.6</ele>
        <time>2021-04-10T11:51:20Z</time>
      </trkpt>
      <trkpt lat="45.14612" lon="5.82313">
        <ele>535.6</ele>
        <time>2021-04-10T11:51:21Z</time>
      </trkpt>
      <trkpt lat="45.14613" lon="5.82312">
        <ele>535.8</ele>
        <time>2021-04-10T11:51:22Z</time>
      </trkpt>
      <trkpt lat="45.14614" lon="5.82311">
        <ele>535.8</ele>
        <time>2021-04-10T11:51:23Z</time>
      </trkpt>
      <trkpt lat="45.14614" lon="5.82311">
        <ele>535.8</ele>
        <time>2021-04-10T11:51:24Z</time>
      </trkpt>
      <trkpt lat="45.14614" lon="5.8231">
        <ele>536</ele>
        <time>2021-04-10T11:51:25Z</time>
      </trkpt>
      <trkpt lat="45.14615" lon="5.82309">
        <ele>536.2</ele>
        <time>2021-04-10T11:51:26Z</time>
      </trkpt>
      <trkpt lat="45.14615" lon="5.82308">
        <ele>536.2</ele>
        <time>2021-04-10T11:51:27Z</time>
      </trkpt>
      <trkpt lat="45.14616" lon="5.82308">
        <ele>536.4</ele>
        <time>2021-04-10T11:51:28Z</time>
      </trkpt>
      <trkpt lat="45.14616" lon="5.82307">
        <ele>536.4</ele>
        <time>2021-04-10T11:51:29Z</time>
      </trkpt>
      <trkpt lat="45.14616" lon="5.82306">
        <ele>536.4</ele>
        <time>2021-04-10T11:51:30Z</time>
      </trkpt>
      <trkpt lat="45.14617" lon="5.82306">
        <ele>536.4</ele>
        <time>2021-04-10T11:51:31Z</time>
      </trkpt>
      <trkpt lat="45.14617" lon="5.82305">
        <ele>536.6</ele>
        <time>2021-04-10T11:51:32Z</time>
      </trkpt>
      <trkpt lat="45.14617" lon="5.82304">
        <ele>536.6</ele>
        <time>2021-04-10T11:51:33Z</time>
      </trkpt>
      <trkpt lat="45.14618" lon="5.82303">
        <ele>536.4</ele>
        <time>2021-04-10T11:51:34Z</time>
      </trkpt>
      <trkpt lat="45.14618" lon="5.82303">
        <ele>536.2</ele>
        <time>2021-04-10T11:51:35Z</time>
      </trkpt>
      <trkpt lat="45.14619" lon="5.82302">
        <ele>536</ele>
        <time>2021-04-10T11:51:36Z</time>
      </trkpt>
      <trkpt lat="45.14619" lon="5.82301">
        <ele>536</ele>
        <time>2021-04-10T11:51:37Z</time>
      </trkpt>
      <trkpt lat="45.1462" lon="5.823">
        <ele>536</ele>
        <time>2021-04-10T11:51:38Z</time>
      </trkpt>
      <trkpt lat="45.14621" lon="5.82298">
        <ele>536</ele>
        <time>2021-04-10T11:51:39Z</time>
      </trkpt>
      <trkpt lat="45.14621" lon="5.82296">
        <ele>536.2</ele>
        <time>2021-04-10T11:51:40Z</time>
      </trkpt>
      <trkpt lat="45.14622" lon="5.82295">
        <ele>536.2</ele>
        <time>2021-04-10T11:51:41Z</time>
      </trkpt>
      <trkpt lat="45.14623" lon="5.82293">
        <ele>536.4</ele>
        <time>2021-04-10T11:51:42Z</time>
      </trkpt>
      <trkpt lat="45.14624" lon="5.82291">
        <ele>536.6</ele>
        <time>2021-04-10T11:51:43Z</time>
      </trkpt>
      <trkpt lat="45.14625" lon="5.8229">
        <ele>536.4</ele>
        <time>2021-04-10T11:51:44Z</time>
      </trkpt>
      <trkpt lat="45.14625" lon="5.82288">
        <ele>536.4</ele>
        <time>2021-04-10T11:51:45Z</time>
      </trkpt>
      <trkpt lat="45.14626" lon="5.82286">
        <ele>536.6</ele>
        <time>2021-04-10T11:51:46Z</time>
      </trkpt>
      <trkpt lat="45.14627" lon="5.82284">
        <ele>536.6</ele>
        <time>2021-04-10T11:51:47Z</time>
      </trkpt>
      <trkpt lat="45.14628" lon="5.82282">
        <ele>536.8</ele>
        <time>2021-04-10T11:51:48Z</time>
      </trkpt>
      <trkpt lat="45.14628" lon="5.8228">
        <ele>537</ele>
        <time>2021-04-10T11:51:49Z</time>
      </trkpt>
      <trkpt lat="45.14629" lon="5.82278">
        <ele>537.2</ele>
        <time>2021-04-10T11:51:50Z</time>
      </trkpt>
      <trkpt lat="45.14629" lon="5.82276">
        <ele>537.2</ele>
        <time>2021-04-10T11:51:51Z</time>
      </trkpt>
      <trkpt lat="45.1463" lon="5.82274">
        <ele>537.4</ele>
        <time>2021-04-10T11:51:52Z</time>
      </trkpt>
      <trkpt lat="45.1463" lon="5.82273">
        <ele>537.4</ele>
        <time>2021-04-10T11:51:53Z</time>
      </trkpt>
      <trkpt lat="45.14631" lon="5.82271">
        <ele>537.2</ele>
        <time>2021-04-10T11:51:54Z</time>
      </trkpt>
      <trkpt lat="45.14631" lon="5.82269">
        <ele>537.2</ele>
        <time>2021-04-10T11:51:55Z</time>
      </trkpt>
      <trkpt lat="45.14631" lon="5.82267">
        <ele>537.2</ele>
        <time>2021-04-10T11:51:56Z</time>
      </trkpt>
      <trkpt lat="45.14632" lon="5.82266">
        <ele>537.2</ele>
        <time>2021-04-10T11:51:57Z</time>
      </trkpt>
      <trkpt lat="45.14632" lon="5.82264">
        <ele>537.4</ele>
        <time>2021-04-10T11:51:58Z</time>
      </trkpt>
      <trkpt lat="45.14632" lon="5.82262">
        <ele>537.4</ele>
        <time>2021-04-10T11:51:59Z</time>
      </trkpt>
      <trkpt lat="45.14632" lon="5.82261">
        <ele>537.4</ele>
        <time>2021-04-10T11:52:00Z</time>
      </trkpt>
      <trkpt lat="45.14632" lon="5.8226">
        <ele>537.4</ele>
        <time>2021-04-10T11:52:01Z</time>
      </trkpt>
      <trkpt lat="45.14632" lon="5.82258">
        <ele>537.6</ele>
        <time>2021-04-10T11:52:02Z</time>
      </trkpt>
      <trkpt lat="45.14631" lon="5.82257">
        <ele>538</ele>
        <time>2021-04-10T11:52:03Z</time>
      </trkpt>
      <trkpt lat="45.14631" lon="5.82256">
        <ele>538.2</ele>
        <time>2021-04-10T11:52:04Z</time>
      </trkpt>
      <trkpt lat="45.14631" lon="5.82254">
        <ele>538.4</ele>
        <time>2021-04-10T11:52:05Z</time>
      </trkpt>
      <trkpt lat="45.14631" lon="5.82253">
        <ele>538.4</ele>
        <time>2021-04-10T11:52:06Z</time>
      </trkpt>
      <trkpt lat="45.14631" lon="5.82252">
        <ele>538.4</ele>
        <time>2021-04-10T11:52:07Z</time>
      </trkpt>
      <trkpt lat="45.14631" lon="5.8225">
        <ele>538.4</ele>
        <time>2021-04-10T11:52:08Z</time>
      </trkpt>
      <trkpt lat="45.14631" lon="5.82248">
        <ele>538.6</ele>
        <time>2021-04-10T11:52:09Z</time>
      </trkpt>
      <trkpt lat="45.14632" lon="5.82246">
        <ele>538.6</ele>
        <time>2021-04-10T11:52:10Z</time>
      </trkpt>
      <trkpt lat="45.14633" lon="5.82244">
        <ele>538.8</ele>
        <time>2021-04-10T11:52:11Z</time>
      </trkpt>
      <trkpt lat="45.14634" lon="5.82241">
        <ele>539</ele>
        <time>2021-04-10T11:52:12Z</time>
      </trkpt>
      <trkpt lat="45.14635" lon="5.82239">
        <ele>539</ele>
        <time>2021-04-10T11:52:13Z</time>
      </trkpt>
      <trkpt lat="45.14635" lon="5.82237">
        <ele>539</ele>
        <time>2021-04-10T11:52:14Z</time>
      </trkpt>
      <trkpt lat="45.14636" lon="5.82234">
        <ele>539.2</ele>
        <time>2021-04-10T11:52:15Z</time>
      </trkpt>
      <trkpt lat="45.14637" lon="5.82232">
        <ele>539.4</ele>
        <time>2021-04-10T11:52:16Z</time>
      </trkpt>
      <trkpt lat="45.14637" lon="5.82229">
        <ele>539.6</ele>
        <time>2021-04-10T11:52:17Z</time>
      </trkpt>
      <trkpt lat="45.14638" lon="5.82227">
        <ele>539.4</ele>
        <time>2021-04-10T11:52:18Z</time>
      </trkpt>
      <trkpt lat="45.14638" lon="5.82224">
        <ele>539.6</ele>
        <time>2021-04-10T11:52:19Z</time>
      </trkpt>
      <trkpt lat="45.14639" lon="5.82222">
        <ele>539.8</ele>
        <time>2021-04-10T11:52:20Z</time>
      </trkpt>
      <trkpt lat="45.1464" lon="5.82219">
        <ele>539.8</ele>
        <time>2021-04-10T11:52:21Z</time>
      </trkpt>
      <trkpt lat="45.1464" lon="5.82219">
        <ele>539.6</ele>
        <time>2021-04-10T11:52:22Z</time>
      </trkpt>
      <trkpt lat="45.1464" lon="5.82219">
        <ele>539.8</ele>
        <time>2021-04-10T11:52:23Z</time>
      </trkpt>
      <trkpt lat="45.1464" lon="5.82219">
        <ele>540</ele>
        <time>2021-04-10T11:52:24Z</time>
      </trkpt>
      <trkpt lat="45.1464" lon="5.82217">
        <ele>539.8</ele>
        <time>2021-04-10T11:52:25Z</time>
      </trkpt>
      <trkpt lat="45.1464" lon="5.82215">
        <ele>539.8</ele>
        <time>2021-04-10T11:52:26Z</time>
      </trkpt>
      <trkpt lat="45.1464" lon="5.82213">
        <ele>540</ele>
        <time>2021-04-10T11:52:27Z</time>
      </trkpt>
      <trkpt lat="45.14641" lon="5.82211">
        <ele>540</ele>
        <time>2021-04-10T11:52:28Z</time>
      </trkpt>
      <trkpt lat="45.14641" lon="5.82209">
        <ele>540.2</ele>
        <time>2021-04-10T11:52:29Z</time>
      </trkpt>
      <trkpt lat="45.14641" lon="5.82207">
        <ele>540.2</ele>
        <time>2021-04-10T11:52:30Z</time>
      </trkpt>
      <trkpt lat="45.14642" lon="5.82205">
        <ele>540.6</ele>
        <time>2021-04-10T11:52:31Z</time>
      </trkpt>
      <trkpt lat="45.14642" lon="5.82203">
        <ele>540.8</ele>
        <time>2021-04-10T11:52:32Z</time>
      </trkpt>
      <trkpt lat="45.14643" lon="5.82201">
        <ele>540.6</ele>
        <time>2021-04-10T11:52:33Z</time>
      </trkpt>
      <trkpt lat="45.14643" lon="5.822">
        <ele>540.8</ele>
        <time>2021-04-10T11:52:34Z</time>
      </trkpt>
      <trkpt lat="45.14644" lon="5.82198">
        <ele>540.8</ele>
        <time>2021-04-10T11:52:35Z</time>
      </trkpt>
      <trkpt lat="45.14644" lon="5.82196">
        <ele>541</ele>
        <time>2021-04-10T11:52:36Z</time>
      </trkpt>
      <trkpt lat="45.14645" lon="5.82195">
        <ele>541.2</ele>
        <time>2021-04-10T11:52:37Z</time>
      </trkpt>
      <trkpt lat="45.14645" lon="5.82193">
        <ele>541.2</ele>
        <time>2021-04-10T11:52:38Z</time>
      </trkpt>
      <trkpt lat="45.14646" lon="5.82191">
        <ele>541.4</ele>
        <time>2021-04-10T11:52:39Z</time>
      </trkpt>
      <trkpt lat="45.14647" lon="5.82189">
        <ele>541.8</ele>
        <time>2021-04-10T11:52:40Z</time>
      </trkpt>
      <trkpt lat="45.14648" lon="5.82187">
        <ele>541.8</ele>
        <time>2021-04-10T11:52:41Z</time>
      </trkpt>
      <trkpt lat="45.14649" lon="5.82185">
        <ele>541.6</ele>
        <time>2021-04-10T11:52:42Z</time>
      </trkpt>
      <trkpt lat="45.1465" lon="5.82183">
        <ele>542</ele>
        <time>2021-04-10T11:52:43Z</time>
      </trkpt>
      <trkpt lat="45.14651" lon="5.82181">
        <ele>542.2</ele>
        <time>2021-04-10T11:52:44Z</time>
      </trkpt>
      <trkpt lat="45.14652" lon="5.82179">
        <ele>542.4</ele>
        <time>2021-04-10T11:52:45Z</time>
      </trkpt>
      <trkpt lat="45.14652" lon="5.82177">
        <ele>542.8</ele>
        <time>2021-04-10T11:52:46Z</time>
      </trkpt>
      <trkpt lat="45.14652" lon="5.82176">
        <ele>543</ele>
        <time>2021-04-10T11:52:47Z</time>
      </trkpt>
      <trkpt lat="45.14653" lon="5.82174">
        <ele>543.2</ele>
        <time>2021-04-10T11:52:48Z</time>
      </trkpt>
      <trkpt lat="45.14653" lon="5.82173">
        <ele>543</ele>
        <time>2021-04-10T11:52:49Z</time>
      </trkpt>
      <trkpt lat="45.14653" lon="5.82171">
        <ele>543.4</ele>
        <time>2021-04-10T11:52:50Z</time>
      </trkpt>
      <trkpt lat="45.14654" lon="5.82169">
        <ele>543.4</ele>
        <time>2021-04-10T11:52:51Z</time>
      </trkpt>
      <trkpt lat="45.14654" lon="5.82168">
        <ele>543.6</ele>
        <time>2021-04-10T11:52:52Z</time>
      </trkpt>
      <trkpt lat="45.14654" lon="5.82166">
        <ele>543.6</ele>
        <time>2021-04-10T11:52:53Z</time>
      </trkpt>
      <trkpt lat="45.14654" lon="5.82165">
        <ele>544</ele>
        <time>2021-04-10T11:52:54Z</time>
      </trkpt>
      <trkpt lat="45.14654" lon="5.82163">
        <ele>544</ele>
        <time>2021-04-10T11:52:55Z</time>
      </trkpt>
      <trkpt lat="45.14655" lon="5.82162">
        <ele>544.2</ele>
        <time>2021-04-10T11:52:56Z</time>
      </trkpt>
      <trkpt lat="45.14655" lon="5.8216">
        <ele>544.2</ele>
        <time>2021-04-10T11:52:57Z</time>
      </trkpt>
      <trkpt lat="45.14655" lon="5.82159">
        <ele>544.2</ele>
        <time>2021-04-10T11:52:58Z</time>
      </trkpt>
      <trkpt lat="45.14655" lon="5.82157">
        <ele>544.2</ele>
        <time>2021-04-10T11:52:59Z</time>
      </trkpt>
      <trkpt lat="45.14655" lon="5.82156">
        <ele>544.2</ele>
        <time>2021-04-10T11:53:00Z</time>
      </trkpt>
      <trkpt lat="45.14655" lon="5.82154">
        <ele>544.2</ele>
        <time>2021-04-10T11:53:01Z</time>
      </trkpt>
      <trkpt lat="45.14656" lon="5.82153">
        <ele>544.4</ele>
        <time>2021-04-10T11:53:02Z</time>
      </trkpt>
      <trkpt lat="45.14656" lon="5.82151">
        <ele>544.6</ele>
        <time>2021-04-10T11:53:03Z</time>
      </trkpt>
      <trkpt lat="45.14656" lon="5.82149">
        <ele>544.8</ele>
        <time>2021-04-10T11:53:04Z</time>
      </trkpt>
      <trkpt lat="45.14657" lon="5.82148">
        <ele>545</ele>
        <time>2021-04-10T11:53:05Z</time>
      </trkpt>
      <trkpt lat="45.14657" lon="5.82146">
        <ele>545.2</ele>
        <time>2021-04-10T11:53:06Z</time>
      </trkpt>
      <trkpt lat="45.14657" lon="5.82144">
        <ele>545.2</ele>
        <time>2021-04-10T11:53:07Z</time>
      </trkpt>
      <trkpt lat="45.14658" lon="5.82142">
        <ele>545</ele>
        <time>2021-04-10T11:53:08Z</time>
      </trkpt>
      <trkpt lat="45.14658" lon="5.8214">
        <ele>545</ele>
        <time>2021-04-10T11:53:09Z</time>
      </trkpt>
      <trkpt lat="45.14658" lon="5.82138">
        <ele>545</ele>
        <time>2021-04-10T11:53:10Z</time>
      </trkpt>
      <trkpt lat="45.14659" lon="5.82136">
        <ele>545.2</ele>
        <time>2021-04-10T11:53:11Z</time>
      </trkpt>
      <trkpt lat="45.14659" lon="5.82134">
        <ele>545.4</ele>
        <time>2021-04-10T11:53:12Z</time>
      </trkpt>
      <trkpt lat="45.14659" lon="5.82132">
        <ele>545.4</ele>
        <time>2021-04-10T11:53:13Z</time>
      </trkpt>
      <trkpt lat="45.1466" lon="5.82129">
        <ele>545.6</ele>
        <time>2021-04-10T11:53:14Z</time>
      </trkpt>
      <trkpt lat="45.1466" lon="5.82127">
        <ele>545.6</ele>
        <time>2021-04-10T11:53:15Z</time>
      </trkpt>
      <trkpt lat="45.1466" lon="5.82125">
        <ele>545.6</ele>
        <time>2021-04-10T11:53:16Z</time>
      </trkpt>
      <trkpt lat="45.14661" lon="5.82124">
        <ele>545.8</ele>
        <time>2021-04-10T11:53:17Z</time>
      </trkpt>
      <trkpt lat="45.14662" lon="5.82122">
        <ele>546</ele>
        <time>2021-04-10T11:53:18Z</time>
      </trkpt>
      <trkpt lat="45.14662" lon="5.82121">
        <ele>546.2</ele>
        <time>2021-04-10T11:53:19Z</time>
      </trkpt>
      <trkpt lat="45.14663" lon="5.82119">
        <ele>546.6</ele>
        <time>2021-04-10T11:53:20Z</time>
      </trkpt>
      <trkpt lat="45.14663" lon="5.82118">
        <ele>546.6</ele>
        <time>2021-04-10T11:53:21Z</time>
      </trkpt>
      <trkpt lat="45.14664" lon="5.82116">
        <ele>546.6</ele>
        <time>2021-04-10T11:53:22Z</time>
      </trkpt>
      <trkpt lat="45.14664" lon="5.82115">
        <ele>546.6</ele>
        <time>2021-04-10T11:53:23Z</time>
      </trkpt>
      <trkpt lat="45.14665" lon="5.82113">
        <ele>546.6</ele>
        <time>2021-04-10T11:53:24Z</time>
      </trkpt>
      <trkpt lat="45.14665" lon="5.82112">
        <ele>546.6</ele>
        <time>2021-04-10T11:53:25Z</time>
      </trkpt>
      <trkpt lat="45.14665" lon="5.82111">
        <ele>546.8</ele>
        <time>2021-04-10T11:53:26Z</time>
      </trkpt>
      <trkpt lat="45.14665" lon="5.82109">
        <ele>546.8</ele>
        <time>2021-04-10T11:53:27Z</time>
      </trkpt>
      <trkpt lat="45.14665" lon="5.82108">
        <ele>547</ele>
        <time>2021-04-10T11:53:28Z</time>
      </trkpt>
      <trkpt lat="45.14666" lon="5.82107">
        <ele>547.2</ele>
        <time>2021-04-10T11:53:29Z</time>
      </trkpt>
      <trkpt lat="45.14666" lon="5.82105">
        <ele>547.6</ele>
        <time>2021-04-10T11:53:30Z</time>
      </trkpt>
      <trkpt lat="45.14666" lon="5.82104">
        <ele>547.8</ele>
        <time>2021-04-10T11:53:31Z</time>
      </trkpt>
      <trkpt lat="45.14666" lon="5.82103">
        <ele>548</ele>
        <time>2021-04-10T11:53:32Z</time>
      </trkpt>
      <trkpt lat="45.14666" lon="5.82101">
        <ele>548</ele>
        <time>2021-04-10T11:53:33Z</time>
      </trkpt>
      <trkpt lat="45.14667" lon="5.821">
        <ele>548.2</ele>
        <time>2021-04-10T11:53:34Z</time>
      </trkpt>
      <trkpt lat="45.14667" lon="5.82098">
        <ele>548.2</ele>
        <time>2021-04-10T11:53:35Z</time>
      </trkpt>
      <trkpt lat="45.14668" lon="5.82096">
        <ele>548.2</ele>
        <time>2021-04-10T11:53:36Z</time>
      </trkpt>
      <trkpt lat="45.14669" lon="5.82093">
        <ele>548.2</ele>
        <time>2021-04-10T11:53:37Z</time>
      </trkpt>
      <trkpt lat="45.1467" lon="5.82091">
        <ele>548</ele>
        <time>2021-04-10T11:53:38Z</time>
      </trkpt>
      <trkpt lat="45.1467" lon="5.82089">
        <ele>548</ele>
        <time>2021-04-10T11:53:39Z</time>
      </trkpt>
      <trkpt lat="45.14671" lon="5.82087">
        <ele>548.2</ele>
        <time>2021-04-10T11:53:40Z</time>
      </trkpt>
      <trkpt lat="45.14672" lon="5.82084">
        <ele>548.4</ele>
        <time>2021-04-10T11:53:41Z</time>
      </trkpt>
      <trkpt lat="45.14672" lon="5.82084">
        <ele>548.6</ele>
        <time>2021-04-10T11:53:42Z</time>
      </trkpt>
      <trkpt lat="45.14672" lon="5.82084">
        <ele>548.6</ele>
        <time>2021-04-10T11:53:43Z</time>
      </trkpt>
      <trkpt lat="45.14672" lon="5.82084">
        <ele>548.6</ele>
        <time>2021-04-10T11:53:44Z</time>
      </trkpt>
      <trkpt lat="45.14672" lon="5.82084">
        <ele>548.8</ele>
        <time>2021-04-10T11:53:45Z</time>
      </trkpt>
      <trkpt lat="45.14672" lon="5.82083">
        <ele>548.6</ele>
        <time>2021-04-10T11:53:46Z</time>
      </trkpt>
      <trkpt lat="45.14671" lon="5.82081">
        <ele>548.8</ele>
        <time>2021-04-10T11:53:47Z</time>
      </trkpt>
      <trkpt lat="45.14671" lon="5.82079">
        <ele>548.8</ele>
        <time>2021-04-10T11:53:48Z</time>
      </trkpt>
      <trkpt lat="45.14671" lon="5.82077">
        <ele>549</ele>
        <time>2021-04-10T11:53:49Z</time>
      </trkpt>
      <trkpt lat="45.1467" lon="5.82075">
        <ele>549.2</ele>
        <time>2021-04-10T11:53:50Z</time>
      </trkpt>
      <trkpt lat="45.1467" lon="5.82073">
        <ele>549.4</ele>
        <time>2021-04-10T11:53:51Z</time>
      </trkpt>
      <trkpt lat="45.1467" lon="5.82072">
        <ele>549.6</ele>
        <time>2021-04-10T11:53:52Z</time>
      </trkpt>
      <trkpt lat="45.14671" lon="5.82069">
        <ele>549.8</ele>
        <time>2021-04-10T11:53:53Z</time>
      </trkpt>
      <trkpt lat="45.14672" lon="5.82066">
        <ele>549.8</ele>
        <time>2021-04-10T11:53:54Z</time>
      </trkpt>
      <trkpt lat="45.14673" lon="5.82064">
        <ele>550</ele>
        <time>2021-04-10T11:53:55Z</time>
      </trkpt>
      <trkpt lat="45.14675" lon="5.82061">
        <ele>550</ele>
        <time>2021-04-10T11:53:56Z</time>
      </trkpt>
      <trkpt lat="45.14676" lon="5.82058">
        <ele>550.2</ele>
        <time>2021-04-10T11:53:57Z</time>
      </trkpt>
      <trkpt lat="45.14677" lon="5.82056">
        <ele>550.2</ele>
        <time>2021-04-10T11:53:58Z</time>
      </trkpt>
      <trkpt lat="45.14678" lon="5.82053">
        <ele>550.2</ele>
        <time>2021-04-10T11:53:59Z</time>
      </trkpt>
      <trkpt lat="45.14681" lon="5.82048">
        <ele>550.2</ele>
        <time>2021-04-10T11:54:00Z</time>
      </trkpt>
      <trkpt lat="45.14681" lon="5.82048">
        <ele>550.4</ele>
        <time>2021-04-10T11:54:01Z</time>
      </trkpt>
      <trkpt lat="45.14681" lon="5.82048">
        <ele>550.4</ele>
        <time>2021-04-10T11:54:02Z</time>
      </trkpt>
      <trkpt lat="45.14683" lon="5.82044">
        <ele>550.6</ele>
        <time>2021-04-10T11:54:03Z</time>
      </trkpt>
      <trkpt lat="45.14685" lon="5.8204">
        <ele>550.8</ele>
        <time>2021-04-10T11:54:04Z</time>
      </trkpt>
      <trkpt lat="45.14687" lon="5.82036">
        <ele>550.8</ele>
        <time>2021-04-10T11:54:05Z</time>
      </trkpt>
      <trkpt lat="45.14689" lon="5.82032">
        <ele>551</ele>
        <time>2021-04-10T11:54:06Z</time>
      </trkpt>
      <trkpt lat="45.14691" lon="5.82029">
        <ele>551.4</ele>
        <time>2021-04-10T11:54:07Z</time>
      </trkpt>
      <trkpt lat="45.14694" lon="5.82023">
        <ele>551.6</ele>
        <time>2021-04-10T11:54:08Z</time>
      </trkpt>
      <trkpt lat="45.14694" lon="5.82023">
        <ele>551.8</ele>
        <time>2021-04-10T11:54:09Z</time>
      </trkpt>
      <trkpt lat="45.14694" lon="5.82023">
        <ele>551.8</ele>
        <time>2021-04-10T11:54:10Z</time>
      </trkpt>
      <trkpt lat="45.14694" lon="5.82023">
        <ele>552</ele>
        <time>2021-04-10T11:54:11Z</time>
      </trkpt>
      <trkpt lat="45.14694" lon="5.82021">
        <ele>552</ele>
        <time>2021-04-10T11:54:12Z</time>
      </trkpt>
      <trkpt lat="45.14695" lon="5.8202">
        <ele>552.2</ele>
        <time>2021-04-10T11:54:13Z</time>
      </trkpt>
      <trkpt lat="45.14696" lon="5.82018">
        <ele>552.4</ele>
        <time>2021-04-10T11:54:14Z</time>
      </trkpt>
      <trkpt lat="45.14696" lon="5.82017">
        <ele>552.6</ele>
        <time>2021-04-10T11:54:15Z</time>
      </trkpt>
      <trkpt lat="45.14697" lon="5.82015">
        <ele>552.8</ele>
        <time>2021-04-10T11:54:16Z</time>
      </trkpt>
      <trkpt lat="45.14698" lon="5.82014">
        <ele>553</ele>
        <time>2021-04-10T11:54:17Z</time>
      </trkpt>
      <trkpt lat="45.14699" lon="5.82012">
        <ele>553.4</ele>
        <time>2021-04-10T11:54:18Z</time>
      </trkpt>
      <trkpt lat="45.14699" lon="5.8201">
        <ele>553.4</ele>
        <time>2021-04-10T11:54:19Z</time>
      </trkpt>
      <trkpt lat="45.147" lon="5.82009">
        <ele>553.6</ele>
        <time>2021-04-10T11:54:20Z</time>
      </trkpt>
      <trkpt lat="45.14701" lon="5.82007">
        <ele>553.6</ele>
        <time>2021-04-10T11:54:21Z</time>
      </trkpt>
      <trkpt lat="45.14702" lon="5.82006">
        <ele>553.6</ele>
        <time>2021-04-10T11:54:22Z</time>
      </trkpt>
      <trkpt lat="45.14702" lon="5.82004">
        <ele>553.6</ele>
        <time>2021-04-10T11:54:23Z</time>
      </trkpt>
      <trkpt lat="45.14703" lon="5.82002">
        <ele>554</ele>
        <time>2021-04-10T11:54:24Z</time>
      </trkpt>
      <trkpt lat="45.14704" lon="5.82001">
        <ele>554</ele>
        <time>2021-04-10T11:54:25Z</time>
      </trkpt>
      <trkpt lat="45.14705" lon="5.81999">
        <ele>554.2</ele>
        <time>2021-04-10T11:54:26Z</time>
      </trkpt>
      <trkpt lat="45.14705" lon="5.81997">
        <ele>554.4</ele>
        <time>2021-04-10T11:54:27Z</time>
      </trkpt>
      <trkpt lat="45.14706" lon="5.81996">
        <ele>554.6</ele>
        <time>2021-04-10T11:54:28Z</time>
      </trkpt>
      <trkpt lat="45.14706" lon="5.81994">
        <ele>554.8</ele>
        <time>2021-04-10T11:54:29Z</time>
      </trkpt>
      <trkpt lat="45.14707" lon="5.81992">
        <ele>555</ele>
        <time>2021-04-10T11:54:30Z</time>
      </trkpt>
      <trkpt lat="45.14707" lon="5.81991">
        <ele>555.2</ele>
        <time>2021-04-10T11:54:31Z</time>
      </trkpt>
      <trkpt lat="45.14708" lon="5.81989">
        <ele>555.8</ele>
        <time>2021-04-10T11:54:32Z</time>
      </trkpt>
      <trkpt lat="45.14708" lon="5.81987">
        <ele>556.2</ele>
        <time>2021-04-10T11:54:33Z</time>
      </trkpt>
      <trkpt lat="45.14709" lon="5.81986">
        <ele>556.8</ele>
        <time>2021-04-10T11:54:34Z</time>
      </trkpt>
      <trkpt lat="45.1471" lon="5.81985">
        <ele>557.2</ele>
        <time>2021-04-10T11:54:35Z</time>
      </trkpt>
      <trkpt lat="45.14711" lon="5.81984">
        <ele>557.4</ele>
        <time>2021-04-10T11:54:36Z</time>
      </trkpt>
      <trkpt lat="45.14712" lon="5.81983">
        <ele>557.6</ele>
        <time>2021-04-10T11:54:37Z</time>
      </trkpt>
      <trkpt lat="45.14713" lon="5.81982">
        <ele>558</ele>
        <time>2021-04-10T11:54:38Z</time>
      </trkpt>
      <trkpt lat="45.14714" lon="5.81981">
        <ele>558.2</ele>
        <time>2021-04-10T11:54:39Z</time>
      </trkpt>
      <trkpt lat="45.14715" lon="5.8198">
        <ele>558.6</ele>
        <time>2021-04-10T11:54:40Z</time>
      </trkpt>
      <trkpt lat="45.14716" lon="5.81979">
        <ele>559</ele>
        <time>2021-04-10T11:54:41Z</time>
      </trkpt>
      <trkpt lat="45.14717" lon="5.81978">
        <ele>559.2</ele>
        <time>2021-04-10T11:54:42Z</time>
      </trkpt>
      <trkpt lat="45.14716" lon="5.81976">
        <ele>559.6</ele>
        <time>2021-04-10T11:54:43Z</time>
      </trkpt>
      <trkpt lat="45.14715" lon="5.81975">
        <ele>560</ele>
        <time>2021-04-10T11:54:44Z</time>
      </trkpt>
      <trkpt lat="45.14714" lon="5.81973">
        <ele>560.2</ele>
        <time>2021-04-10T11:54:45Z</time>
      </trkpt>
      <trkpt lat="45.14713" lon="5.81971">
        <ele>560.6</ele>
        <time>2021-04-10T11:54:46Z</time>
      </trkpt>
      <trkpt lat="45.14712" lon="5.81969">
        <ele>560.8</ele>
        <time>2021-04-10T11:54:47Z</time>
      </trkpt>
      <trkpt lat="45.14712" lon="5.81967">
        <ele>561</ele>
        <time>2021-04-10T11:54:48Z</time>
      </trkpt>
      <trkpt lat="45.14711" lon="5.81966">
        <ele>561.2</ele>
        <time>2021-04-10T11:54:49Z</time>
      </trkpt>
      <trkpt lat="45.1471" lon="5.81965">
        <ele>561.4</ele>
        <time>2021-04-10T11:54:50Z</time>
      </trkpt>
      <trkpt lat="45.1471" lon="5.81963">
        <ele>561.6</ele>
        <time>2021-04-10T11:54:51Z</time>
      </trkpt>
      <trkpt lat="45.14709" lon="5.81962">
        <ele>561.6</ele>
        <time>2021-04-10T11:54:52Z</time>
      </trkpt>
      <trkpt lat="45.14708" lon="5.81961">
        <ele>561.6</ele>
        <time>2021-04-10T11:54:53Z</time>
      </trkpt>
      <trkpt lat="45.14708" lon="5.81959">
        <ele>561.6</ele>
        <time>2021-04-10T11:54:54Z</time>
      </trkpt>
      <trkpt lat="45.14707" lon="5.81958">
        <ele>561.8</ele>
        <time>2021-04-10T11:54:55Z</time>
      </trkpt>
      <trkpt lat="45.14707" lon="5.81956">
        <ele>561.8</ele>
        <time>2021-04-10T11:54:56Z</time>
      </trkpt>
      <trkpt lat="45.14707" lon="5.81954">
        <ele>562</ele>
        <time>2021-04-10T11:54:57Z</time>
      </trkpt>
      <trkpt lat="45.14707" lon="5.81952">
        <ele>562.2</ele>
        <time>2021-04-10T11:54:58Z</time>
      </trkpt>
      <trkpt lat="45.14708" lon="5.81949">
        <ele>562.2</ele>
        <time>2021-04-10T11:54:59Z</time>
      </trkpt>
      <trkpt lat="45.14708" lon="5.81947">
        <ele>562.4</ele>
        <time>2021-04-10T11:55:00Z</time>
      </trkpt>
      <trkpt lat="45.14708" lon="5.81945">
        <ele>562.4</ele>
        <time>2021-04-10T11:55:01Z</time>
      </trkpt>
      <trkpt lat="45.14709" lon="5.81942">
        <ele>562.8</ele>
        <time>2021-04-10T11:55:02Z</time>
      </trkpt>
      <trkpt lat="45.14709" lon="5.8194">
        <ele>563</ele>
        <time>2021-04-10T11:55:03Z</time>
      </trkpt>
      <trkpt lat="45.14709" lon="5.81938">
        <ele>563</ele>
        <time>2021-04-10T11:55:04Z</time>
      </trkpt>
      <trkpt lat="45.1471" lon="5.81936">
        <ele>563.2</ele>
        <time>2021-04-10T11:55:05Z</time>
      </trkpt>
      <trkpt lat="45.1471" lon="5.81934">
        <ele>563.4</ele>
        <time>2021-04-10T11:55:06Z</time>
      </trkpt>
      <trkpt lat="45.1471" lon="5.81932">
        <ele>563.4</ele>
        <time>2021-04-10T11:55:07Z</time>
      </trkpt>
      <trkpt lat="45.1471" lon="5.8193">
        <ele>563.6</ele>
        <time>2021-04-10T11:55:08Z</time>
      </trkpt>
      <trkpt lat="45.14711" lon="5.81928">
        <ele>563.8</ele>
        <time>2021-04-10T11:55:09Z</time>
      </trkpt>
      <trkpt lat="45.14711" lon="5.81927">
        <ele>564.2</ele>
        <time>2021-04-10T11:55:10Z</time>
      </trkpt>
      <trkpt lat="45.14711" lon="5.81925">
        <ele>564.8</ele>
        <time>2021-04-10T11:55:11Z</time>
      </trkpt>
      <trkpt lat="45.14711" lon="5.81923">
        <ele>565</ele>
        <time>2021-04-10T11:55:12Z</time>
      </trkpt>
      <trkpt lat="45.14711" lon="5.81922">
        <ele>565.2</ele>
        <time>2021-04-10T11:55:13Z</time>
      </trkpt>
      <trkpt lat="45.14711" lon="5.8192">
        <ele>565</ele>
        <time>2021-04-10T11:55:14Z</time>
      </trkpt>
      <trkpt lat="45.14711" lon="5.81918">
        <ele>565.2</ele>
        <time>2021-04-10T11:55:15Z</time>
      </trkpt>
      <trkpt lat="45.14711" lon="5.81916">
        <ele>565.8</ele>
        <time>2021-04-10T11:55:16Z</time>
      </trkpt>
      <trkpt lat="45.14711" lon="5.81915">
        <ele>566.2</ele>
        <time>2021-04-10T11:55:17Z</time>
      </trkpt>
      <trkpt lat="45.14711" lon="5.81913">
        <ele>566.6</ele>
        <time>2021-04-10T11:55:18Z</time>
      </trkpt>
      <trkpt lat="45.14711" lon="5.81912">
        <ele>566.8</ele>
        <time>2021-04-10T11:55:19Z</time>
      </trkpt>
      <trkpt lat="45.1471" lon="5.81911">
        <ele>567</ele>
        <time>2021-04-10T11:55:20Z</time>
      </trkpt>
      <trkpt lat="45.1471" lon="5.81909">
        <ele>567.2</ele>
        <time>2021-04-10T11:55:21Z</time>
      </trkpt>
      <trkpt lat="45.1471" lon="5.81908">
        <ele>567.4</ele>
        <time>2021-04-10T11:55:22Z</time>
      </trkpt>
      <trkpt lat="45.1471" lon="5.81907">
        <ele>567.6</ele>
        <time>2021-04-10T11:55:23Z</time>
      </trkpt>
      <trkpt lat="45.1471" lon="5.81905">
        <ele>567.8</ele>
        <time>2021-04-10T11:55:24Z</time>
      </trkpt>
      <trkpt lat="45.14709" lon="5.81904">
        <ele>568.2</ele>
        <time>2021-04-10T11:55:25Z</time>
      </trkpt>
      <trkpt lat="45.14709" lon="5.81903">
        <ele>568.6</ele>
        <time>2021-04-10T11:55:26Z</time>
      </trkpt>
      <trkpt lat="45.14709" lon="5.81901">
        <ele>568.8</ele>
        <time>2021-04-10T11:55:27Z</time>
      </trkpt>
      <trkpt lat="45.1471" lon="5.819">
        <ele>569</ele>
        <time>2021-04-10T11:55:28Z</time>
      </trkpt>
      <trkpt lat="45.1471" lon="5.81898">
        <ele>569.2</ele>
        <time>2021-04-10T11:55:29Z</time>
      </trkpt>
      <trkpt lat="45.14711" lon="5.81896">
        <ele>569.6</ele>
        <time>2021-04-10T11:55:30Z</time>
      </trkpt>
      <trkpt lat="45.14711" lon="5.81895">
        <ele>569.8</ele>
        <time>2021-04-10T11:55:31Z</time>
      </trkpt>
      <trkpt lat="45.14712" lon="5.81893">
        <ele>570.2</ele>
        <time>2021-04-10T11:55:32Z</time>
      </trkpt>
      <trkpt lat="45.14712" lon="5.81891">
        <ele>570.4</ele>
        <time>2021-04-10T11:55:33Z</time>
      </trkpt>
      <trkpt lat="45.14713" lon="5.8189">
        <ele>570.6</ele>
        <time>2021-04-10T11:55:34Z</time>
      </trkpt>
      <trkpt lat="45.14713" lon="5.81888">
        <ele>570.6</ele>
        <time>2021-04-10T11:55:35Z</time>
      </trkpt>
      <trkpt lat="45.14714" lon="5.81886">
        <ele>571</ele>
        <time>2021-04-10T11:55:36Z</time>
      </trkpt>
      <trkpt lat="45.14714" lon="5.81884">
        <ele>571.6</ele>
        <time>2021-04-10T11:55:37Z</time>
      </trkpt>
      <trkpt lat="45.14714" lon="5.81882">
        <ele>571.8</ele>
        <time>2021-04-10T11:55:38Z</time>
      </trkpt>
      <trkpt lat="45.14715" lon="5.8188">
        <ele>572</ele>
        <time>2021-04-10T11:55:39Z</time>
      </trkpt>
      <trkpt lat="45.14715" lon="5.81879">
        <ele>572</ele>
        <time>2021-04-10T11:55:40Z</time>
      </trkpt>
      <trkpt lat="45.14716" lon="5.81877">
        <ele>572.2</ele>
        <time>2021-04-10T11:55:41Z</time>
      </trkpt>
      <trkpt lat="45.14716" lon="5.81875">
        <ele>572.4</ele>
        <time>2021-04-10T11:55:42Z</time>
      </trkpt>
      <trkpt lat="45.14717" lon="5.81874">
        <ele>572.6</ele>
        <time>2021-04-10T11:55:43Z</time>
      </trkpt>
      <trkpt lat="45.14717" lon="5.81872">
        <ele>572.6</ele>
        <time>2021-04-10T11:55:44Z</time>
      </trkpt>
      <trkpt lat="45.14718" lon="5.81871">
        <ele>572.8</ele>
        <time>2021-04-10T11:55:45Z</time>
      </trkpt>
      <trkpt lat="45.14718" lon="5.81869">
        <ele>573</ele>
        <time>2021-04-10T11:55:46Z</time>
      </trkpt>
      <trkpt lat="45.14719" lon="5.81868">
        <ele>573</ele>
        <time>2021-04-10T11:55:47Z</time>
      </trkpt>
      <trkpt lat="45.14719" lon="5.81866">
        <ele>573.2</ele>
        <time>2021-04-10T11:55:48Z</time>
      </trkpt>
      <trkpt lat="45.1472" lon="5.81864">
        <ele>573.4</ele>
        <time>2021-04-10T11:55:49Z</time>
      </trkpt>
      <trkpt lat="45.1472" lon="5.81863">
        <ele>573.4</ele>
        <time>2021-04-10T11:55:50Z</time>
      </trkpt>
      <trkpt lat="45.14721" lon="5.81861">
        <ele>573.8</ele>
        <time>2021-04-10T11:55:51Z</time>
      </trkpt>
      <trkpt lat="45.14722" lon="5.8186">
        <ele>574</ele>
        <time>2021-04-10T11:55:52Z</time>
      </trkpt>
      <trkpt lat="45.14722" lon="5.81858">
        <ele>573.8</ele>
        <time>2021-04-10T11:55:53Z</time>
      </trkpt>
      <trkpt lat="45.14723" lon="5.81857">
        <ele>574</ele>
        <time>2021-04-10T11:55:54Z</time>
      </trkpt>
      <trkpt lat="45.14724" lon="5.81855">
        <ele>574.2</ele>
        <time>2021-04-10T11:55:55Z</time>
      </trkpt>
      <trkpt lat="45.14725" lon="5.81853">
        <ele>574</ele>
        <time>2021-04-10T11:55:56Z</time>
      </trkpt>
      <trkpt lat="45.14726" lon="5.81852">
        <ele>574.4</ele>
        <time>2021-04-10T11:55:57Z</time>
      </trkpt>
      <trkpt lat="45.14727" lon="5.8185">
        <ele>574.6</ele>
        <time>2021-04-10T11:55:58Z</time>
      </trkpt>
      <trkpt lat="45.14727" lon="5.81848">
        <ele>575</ele>
        <time>2021-04-10T11:55:59Z</time>
      </trkpt>
      <trkpt lat="45.14728" lon="5.81847">
        <ele>575</ele>
        <time>2021-04-10T11:56:00Z</time>
      </trkpt>
      <trkpt lat="45.14729" lon="5.81845">
        <ele>575</ele>
        <time>2021-04-10T11:56:01Z</time>
      </trkpt>
      <trkpt lat="45.1473" lon="5.81843">
        <ele>575</ele>
        <time>2021-04-10T11:56:02Z</time>
      </trkpt>
      <trkpt lat="45.14731" lon="5.81841">
        <ele>574.8</ele>
        <time>2021-04-10T11:56:03Z</time>
      </trkpt>
      <trkpt lat="45.14733" lon="5.81838">
        <ele>575</ele>
        <time>2021-04-10T11:56:04Z</time>
      </trkpt>
      <trkpt lat="45.14735" lon="5.81836">
        <ele>575.2</ele>
        <time>2021-04-10T11:56:05Z</time>
      </trkpt>
      <trkpt lat="45.14736" lon="5.81833">
        <ele>575.4</ele>
        <time>2021-04-10T11:56:06Z</time>
      </trkpt>
      <trkpt lat="45.14738" lon="5.81831">
        <ele>575.4</ele>
        <time>2021-04-10T11:56:07Z</time>
      </trkpt>
      <trkpt lat="45.14738" lon="5.81829">
        <ele>575.4</ele>
        <time>2021-04-10T11:56:08Z</time>
      </trkpt>
      <trkpt lat="45.14739" lon="5.81827">
        <ele>575.6</ele>
        <time>2021-04-10T11:56:09Z</time>
      </trkpt>
      <trkpt lat="45.1474" lon="5.81825">
        <ele>575.6</ele>
        <time>2021-04-10T11:56:10Z</time>
      </trkpt>
      <trkpt lat="45.14741" lon="5.81823">
        <ele>575.8</ele>
        <time>2021-04-10T11:56:11Z</time>
      </trkpt>
      <trkpt lat="45.14742" lon="5.81821">
        <ele>576</ele>
        <time>2021-04-10T11:56:12Z</time>
      </trkpt>
      <trkpt lat="45.14743" lon="5.8182">
        <ele>576</ele>
        <time>2021-04-10T11:56:13Z</time>
      </trkpt>
      <trkpt lat="45.14744" lon="5.81818">
        <ele>576</ele>
        <time>2021-04-10T11:56:14Z</time>
      </trkpt>
      <trkpt lat="45.14744" lon="5.81816">
        <ele>576.2</ele>
        <time>2021-04-10T11:56:15Z</time>
      </trkpt>
      <trkpt lat="45.14747" lon="5.81812">
        <ele>576.2</ele>
        <time>2021-04-10T11:56:16Z</time>
      </trkpt>
      <trkpt lat="45.14749" lon="5.81809">
        <ele>576.2</ele>
        <time>2021-04-10T11:56:17Z</time>
      </trkpt>
      <trkpt lat="45.14751" lon="5.81805">
        <ele>576</ele>
        <time>2021-04-10T11:56:18Z</time>
      </trkpt>
      <trkpt lat="45.14754" lon="5.81802">
        <ele>576.2</ele>
        <time>2021-04-10T11:56:19Z</time>
      </trkpt>
      <trkpt lat="45.14756" lon="5.81798">
        <ele>576.2</ele>
        <time>2021-04-10T11:56:20Z</time>
      </trkpt>
      <trkpt lat="45.14759" lon="5.81793">
        <ele>576</ele>
        <time>2021-04-10T11:56:21Z</time>
      </trkpt>
      <trkpt lat="45.14759" lon="5.81793">
        <ele>576</ele>
        <time>2021-04-10T11:56:22Z</time>
      </trkpt>
      <trkpt lat="45.14759" lon="5.81793">
        <ele>575.8</ele>
        <time>2021-04-10T11:56:23Z</time>
      </trkpt>
      <trkpt lat="45.14759" lon="5.81793">
        <ele>576</ele>
        <time>2021-04-10T11:56:24Z</time>
      </trkpt>
      <trkpt lat="45.1476" lon="5.81792">
        <ele>576</ele>
        <time>2021-04-10T11:56:25Z</time>
      </trkpt>
      <trkpt lat="45.14761" lon="5.8179">
        <ele>576.2</ele>
        <time>2021-04-10T11:56:26Z</time>
      </trkpt>
      <trkpt lat="45.14762" lon="5.81788">
        <ele>576.2</ele>
        <time>2021-04-10T11:56:27Z</time>
      </trkpt>
      <trkpt lat="45.14763" lon="5.81787">
        <ele>576.2</ele>
        <time>2021-04-10T11:56:28Z</time>
      </trkpt>
      <trkpt lat="45.14764" lon="5.81785">
        <ele>576</ele>
        <time>2021-04-10T11:56:29Z</time>
      </trkpt>
      <trkpt lat="45.14765" lon="5.81783">
        <ele>576.2</ele>
        <time>2021-04-10T11:56:30Z</time>
      </trkpt>
      <trkpt lat="45.14766" lon="5.81781">
        <ele>576.4</ele>
        <time>2021-04-10T11:56:31Z</time>
      </trkpt>
      <trkpt lat="45.14767" lon="5.81779">
        <ele>576.4</ele>
        <time>2021-04-10T11:56:32Z</time>
      </trkpt>
      <trkpt lat="45.14768" lon="5.81776">
        <ele>576.2</ele>
        <time>2021-04-10T11:56:33Z</time>
      </trkpt>
      <trkpt lat="45.14769" lon="5.81774">
        <ele>576.4</ele>
        <time>2021-04-10T11:56:34Z</time>
      </trkpt>
      <trkpt lat="45.1477" lon="5.81772">
        <ele>576.4</ele>
        <time>2021-04-10T11:56:35Z</time>
      </trkpt>
      <trkpt lat="45.14772" lon="5.8177">
        <ele>576.6</ele>
        <time>2021-04-10T11:56:36Z</time>
      </trkpt>
      <trkpt lat="45.14773" lon="5.81768">
        <ele>576.6</ele>
        <time>2021-04-10T11:56:37Z</time>
      </trkpt>
      <trkpt lat="45.14774" lon="5.81766">
        <ele>576.6</ele>
        <time>2021-04-10T11:56:38Z</time>
      </trkpt>
      <trkpt lat="45.14775" lon="5.81764">
        <ele>576.8</ele>
        <time>2021-04-10T11:56:39Z</time>
      </trkpt>
      <trkpt lat="45.14776" lon="5.81762">
        <ele>577</ele>
        <time>2021-04-10T11:56:40Z</time>
      </trkpt>
      <trkpt lat="45.14777" lon="5.8176">
        <ele>577</ele>
        <time>2021-04-10T11:56:41Z</time>
      </trkpt>
      <trkpt lat="45.14778" lon="5.81758">
        <ele>577.2</ele>
        <time>2021-04-10T11:56:42Z</time>
      </trkpt>
      <trkpt lat="45.14779" lon="5.81756">
        <ele>577.2</ele>
        <time>2021-04-10T11:56:43Z</time>
      </trkpt>
      <trkpt lat="45.1478" lon="5.81755">
        <ele>577.2</ele>
        <time>2021-04-10T11:56:44Z</time>
      </trkpt>
      <trkpt lat="45.14781" lon="5.81755">
        <ele>577.4</ele>
        <time>2021-04-10T11:56:45Z</time>
      </trkpt>
      <trkpt lat="45.14781" lon="5.81754">
        <ele>577.6</ele>
        <time>2021-04-10T11:56:46Z</time>
      </trkpt>
      <trkpt lat="45.14782" lon="5.81754">
        <ele>577.6</ele>
        <time>2021-04-10T11:56:47Z</time>
      </trkpt>
      <trkpt lat="45.14783" lon="5.81753">
        <ele>577.4</ele>
        <time>2021-04-10T11:56:48Z</time>
      </trkpt>
      <trkpt lat="45.14783" lon="5.81753">
        <ele>577.2</ele>
        <time>2021-04-10T11:56:49Z</time>
      </trkpt>
      <trkpt lat="45.14784" lon="5.81752">
        <ele>577.2</ele>
        <time>2021-04-10T11:56:50Z</time>
      </trkpt>
      <trkpt lat="45.14785" lon="5.81752">
        <ele>577</ele>
        <time>2021-04-10T11:56:51Z</time>
      </trkpt>
      <trkpt lat="45.14785" lon="5.81751">
        <ele>577.2</ele>
        <time>2021-04-10T11:56:52Z</time>
      </trkpt>
      <trkpt lat="45.14786" lon="5.81751">
        <ele>577.2</ele>
        <time>2021-04-10T11:56:53Z</time>
      </trkpt>
      <trkpt lat="45.14787" lon="5.8175">
        <ele>577.4</ele>
        <time>2021-04-10T11:56:54Z</time>
      </trkpt>
      <trkpt lat="45.14787" lon="5.81749">
        <ele>577.6</ele>
        <time>2021-04-10T11:56:55Z</time>
      </trkpt>
      <trkpt lat="45.14788" lon="5.81749">
        <ele>577.6</ele>
        <time>2021-04-10T11:56:56Z</time>
      </trkpt>
      <trkpt lat="45.14789" lon="5.81748">
        <ele>578</ele>
        <time>2021-04-10T11:56:57Z</time>
      </trkpt>
      <trkpt lat="45.1479" lon="5.81748">
        <ele>578</ele>
        <time>2021-04-10T11:56:58Z</time>
      </trkpt>
      <trkpt lat="45.1479" lon="5.81747">
        <ele>578</ele>
        <time>2021-04-10T11:56:59Z</time>
      </trkpt>
      <trkpt lat="45.14791" lon="5.81747">
        <ele>578</ele>
        <time>2021-04-10T11:57:00Z</time>
      </trkpt>
      <trkpt lat="45.14792" lon="5.81747">
        <ele>578</ele>
        <time>2021-04-10T11:57:01Z</time>
      </trkpt>
      <trkpt lat="45.14793" lon="5.81747">
        <ele>578</ele>
        <time>2021-04-10T11:57:02Z</time>
      </trkpt>
      <trkpt lat="45.14793" lon="5.81747">
        <ele>578</ele>
        <time>2021-04-10T11:57:03Z</time>
      </trkpt>
      <trkpt lat="45.14794" lon="5.81747">
        <ele>578</ele>
        <time>2021-04-10T11:57:04Z</time>
      </trkpt>
      <trkpt lat="45.14795" lon="5.81747">
        <ele>578.2</ele>
        <time>2021-04-10T11:57:05Z</time>
      </trkpt>
      <trkpt lat="45.14796" lon="5.81747">
        <ele>578.4</ele>
        <time>2021-04-10T11:57:06Z</time>
      </trkpt>
      <trkpt lat="45.14797" lon="5.81747">
        <ele>578.4</ele>
        <time>2021-04-10T11:57:07Z</time>
      </trkpt>
      <trkpt lat="45.14798" lon="5.81747">
        <ele>578.4</ele>
        <time>2021-04-10T11:57:08Z</time>
      </trkpt>
      <trkpt lat="45.14798" lon="5.81748">
        <ele>578.4</ele>
        <time>2021-04-10T11:57:09Z</time>
      </trkpt>
      <trkpt lat="45.14799" lon="5.81748">
        <ele>578.6</ele>
        <time>2021-04-10T11:57:10Z</time>
      </trkpt>
      <trkpt lat="45.148" lon="5.81748">
        <ele>578.6</ele>
        <time>2021-04-10T11:57:11Z</time>
      </trkpt>
      <trkpt lat="45.14801" lon="5.81748">
        <ele>578.6</ele>
        <time>2021-04-10T11:57:12Z</time>
      </trkpt>
      <trkpt lat="45.14803" lon="5.81747">
        <ele>578.6</ele>
        <time>2021-04-10T11:57:13Z</time>
      </trkpt>
      <trkpt lat="45.14806" lon="5.81746">
        <ele>578.8</ele>
        <time>2021-04-10T11:57:14Z</time>
      </trkpt>
      <trkpt lat="45.14808" lon="5.81745">
        <ele>579</ele>
        <time>2021-04-10T11:57:15Z</time>
      </trkpt>
      <trkpt lat="45.1481" lon="5.81744">
        <ele>579</ele>
        <time>2021-04-10T11:57:16Z</time>
      </trkpt>
      <trkpt lat="45.14812" lon="5.81743">
        <ele>579</ele>
        <time>2021-04-10T11:57:17Z</time>
      </trkpt>
      <trkpt lat="45.14814" lon="5.81742">
        <ele>579</ele>
        <time>2021-04-10T11:57:18Z</time>
      </trkpt>
      <trkpt lat="45.14816" lon="5.81741">
        <ele>579.2</ele>
        <time>2021-04-10T11:57:19Z</time>
      </trkpt>
      <trkpt lat="45.14817" lon="5.8174">
        <ele>579.2</ele>
        <time>2021-04-10T11:57:20Z</time>
      </trkpt>
      <trkpt lat="45.14819" lon="5.81739">
        <ele>579.4</ele>
        <time>2021-04-10T11:57:21Z</time>
      </trkpt>
      <trkpt lat="45.14821" lon="5.81738">
        <ele>579.4</ele>
        <time>2021-04-10T11:57:22Z</time>
      </trkpt>
      <trkpt lat="45.14822" lon="5.81737">
        <ele>579.4</ele>
        <time>2021-04-10T11:57:23Z</time>
      </trkpt>
      <trkpt lat="45.14824" lon="5.81737">
        <ele>579.6</ele>
        <time>2021-04-10T11:57:24Z</time>
      </trkpt>
      <trkpt lat="45.14825" lon="5.81736">
        <ele>579.8</ele>
        <time>2021-04-10T11:57:25Z</time>
      </trkpt>
      <trkpt lat="45.14827" lon="5.81735">
        <ele>579.8</ele>
        <time>2021-04-10T11:57:26Z</time>
      </trkpt>
      <trkpt lat="45.14829" lon="5.81734">
        <ele>580</ele>
        <time>2021-04-10T11:57:27Z</time>
      </trkpt>
      <trkpt lat="45.1483" lon="5.81734">
        <ele>580.2</ele>
        <time>2021-04-10T11:57:28Z</time>
      </trkpt>
      <trkpt lat="45.14832" lon="5.81733">
        <ele>580.4</ele>
        <time>2021-04-10T11:57:29Z</time>
      </trkpt>
      <trkpt lat="45.14833" lon="5.81732">
        <ele>580.8</ele>
        <time>2021-04-10T11:57:30Z</time>
      </trkpt>
      <trkpt lat="45.14834" lon="5.81732">
        <ele>581.2</ele>
        <time>2021-04-10T11:57:31Z</time>
      </trkpt>
      <trkpt lat="45.14835" lon="5.81731">
        <ele>581.2</ele>
        <time>2021-04-10T11:57:32Z</time>
      </trkpt>
      <trkpt lat="45.14836" lon="5.81731">
        <ele>581.6</ele>
        <time>2021-04-10T11:57:33Z</time>
      </trkpt>
      <trkpt lat="45.14837" lon="5.8173">
        <ele>581.8</ele>
        <time>2021-04-10T11:57:34Z</time>
      </trkpt>
      <trkpt lat="45.14838" lon="5.8173">
        <ele>582</ele>
        <time>2021-04-10T11:57:35Z</time>
      </trkpt>
      <trkpt lat="45.14839" lon="5.81729">
        <ele>582.2</ele>
        <time>2021-04-10T11:57:36Z</time>
      </trkpt>
      <trkpt lat="45.14841" lon="5.81729">
        <ele>582.2</ele>
        <time>2021-04-10T11:57:37Z</time>
      </trkpt>
      <trkpt lat="45.14842" lon="5.81728">
        <ele>582.2</ele>
        <time>2021-04-10T11:57:38Z</time>
      </trkpt>
      <trkpt lat="45.14843" lon="5.81727">
        <ele>582.2</ele>
        <time>2021-04-10T11:57:39Z</time>
      </trkpt>
      <trkpt lat="45.14845" lon="5.81726">
        <ele>582.2</ele>
        <time>2021-04-10T11:57:40Z</time>
      </trkpt>
      <trkpt lat="45.14846" lon="5.81724">
        <ele>582.2</ele>
        <time>2021-04-10T11:57:41Z</time>
      </trkpt>
      <trkpt lat="45.14848" lon="5.81723">
        <ele>582.6</ele>
        <time>2021-04-10T11:57:42Z</time>
      </trkpt>
      <trkpt lat="45.14849" lon="5.81722">
        <ele>582.8</ele>
        <time>2021-04-10T11:57:43Z</time>
      </trkpt>
      <trkpt lat="45.1485" lon="5.8172">
        <ele>583</ele>
        <time>2021-04-10T11:57:44Z</time>
      </trkpt>
      <trkpt lat="45.14851" lon="5.81721">
        <ele>583.4</ele>
        <time>2021-04-10T11:57:45Z</time>
      </trkpt>
      <trkpt lat="45.14852" lon="5.81721">
        <ele>583.6</ele>
        <time>2021-04-10T11:57:46Z</time>
      </trkpt>
      <trkpt lat="45.14853" lon="5.81721">
        <ele>583.8</ele>
        <time>2021-04-10T11:57:47Z</time>
      </trkpt>
      <trkpt lat="45.14854" lon="5.81721">
        <ele>584</ele>
        <time>2021-04-10T11:57:48Z</time>
      </trkpt>
      <trkpt lat="45.14854" lon="5.81721">
        <ele>584.2</ele>
        <time>2021-04-10T11:57:49Z</time>
      </trkpt>
      <trkpt lat="45.14855" lon="5.81721">
        <ele>584.4</ele>
        <time>2021-04-10T11:57:50Z</time>
      </trkpt>
      <trkpt lat="45.14856" lon="5.81722">
        <ele>584.6</ele>
        <time>2021-04-10T11:57:51Z</time>
      </trkpt>
      <trkpt lat="45.14857" lon="5.81722">
        <ele>584.6</ele>
        <time>2021-04-10T11:57:52Z</time>
      </trkpt>
      <trkpt lat="45.14857" lon="5.81722">
        <ele>585</ele>
        <time>2021-04-10T11:57:53Z</time>
      </trkpt>
      <trkpt lat="45.14858" lon="5.81722">
        <ele>585.2</ele>
        <time>2021-04-10T11:57:54Z</time>
      </trkpt>
      <trkpt lat="45.14859" lon="5.81722">
        <ele>585.2</ele>
        <time>2021-04-10T11:57:55Z</time>
      </trkpt>
      <trkpt lat="45.1486" lon="5.81723">
        <ele>585.6</ele>
        <time>2021-04-10T11:57:56Z</time>
      </trkpt>
      <trkpt lat="45.14861" lon="5.81722">
        <ele>585.8</ele>
        <time>2021-04-10T11:57:57Z</time>
      </trkpt>
      <trkpt lat="45.14862" lon="5.81722">
        <ele>586.2</ele>
        <time>2021-04-10T11:57:58Z</time>
      </trkpt>
      <trkpt lat="45.14862" lon="5.81722">
        <ele>586.4</ele>
        <time>2021-04-10T11:57:59Z</time>
      </trkpt>
      <trkpt lat="45.14863" lon="5.81722">
        <ele>586.6</ele>
        <time>2021-04-10T11:58:00Z</time>
      </trkpt>
      <trkpt lat="45.14864" lon="5.81722">
        <ele>586.8</ele>
        <time>2021-04-10T11:58:01Z</time>
      </trkpt>
      <trkpt lat="45.14865" lon="5.81722">
        <ele>587</ele>
        <time>2021-04-10T11:58:02Z</time>
      </trkpt>
      <trkpt lat="45.14866" lon="5.81721">
        <ele>587.2</ele>
        <time>2021-04-10T11:58:03Z</time>
      </trkpt>
      <trkpt lat="45.14867" lon="5.81721">
        <ele>587.4</ele>
        <time>2021-04-10T11:58:04Z</time>
      </trkpt>
      <trkpt lat="45.14868" lon="5.81721">
        <ele>587.4</ele>
        <time>2021-04-10T11:58:05Z</time>
      </trkpt>
      <trkpt lat="45.14869" lon="5.81721">
        <ele>587.6</ele>
        <time>2021-04-10T11:58:06Z</time>
      </trkpt>
      <trkpt lat="45.1487" lon="5.81721">
        <ele>588</ele>
        <time>2021-04-10T11:58:07Z</time>
      </trkpt>
      <trkpt lat="45.1487" lon="5.81721">
        <ele>588.2</ele>
        <time>2021-04-10T11:58:08Z</time>
      </trkpt>
      <trkpt lat="45.14871" lon="5.8172">
        <ele>588.4</ele>
        <time>2021-04-10T11:58:09Z</time>
      </trkpt>
      <trkpt lat="45.14872" lon="5.8172">
        <ele>588.6</ele>
        <time>2021-04-10T11:58:10Z</time>
      </trkpt>
      <trkpt lat="45.14873" lon="5.8172">
        <ele>588.6</ele>
        <time>2021-04-10T11:58:11Z</time>
      </trkpt>
      <trkpt lat="45.14874" lon="5.8172">
        <ele>589</ele>
        <time>2021-04-10T11:58:12Z</time>
      </trkpt>
      <trkpt lat="45.14875" lon="5.8172">
        <ele>589</ele>
        <time>2021-04-10T11:58:13Z</time>
      </trkpt>
      <trkpt lat="45.14876" lon="5.8172">
        <ele>589.2</ele>
        <time>2021-04-10T11:58:14Z</time>
      </trkpt>
      <trkpt lat="45.14877" lon="5.81719">
        <ele>589.4</ele>
        <time>2021-04-10T11:58:15Z</time>
      </trkpt>
      <trkpt lat="45.14877" lon="5.81719">
        <ele>589.6</ele>
        <time>2021-04-10T11:58:16Z</time>
      </trkpt>
      <trkpt lat="45.14878" lon="5.81719">
        <ele>589.8</ele>
        <time>2021-04-10T11:58:17Z</time>
      </trkpt>
      <trkpt lat="45.14879" lon="5.81719">
        <ele>590</ele>
        <time>2021-04-10T11:58:18Z</time>
      </trkpt>
      <trkpt lat="45.14879" lon="5.81719">
        <ele>590.4</ele>
        <time>2021-04-10T11:58:19Z</time>
      </trkpt>
      <trkpt lat="45.14879" lon="5.81719">
        <ele>590.4</ele>
        <time>2021-04-10T11:58:20Z</time>
      </trkpt>
      <trkpt lat="45.14879" lon="5.81719">
        <ele>590.8</ele>
        <time>2021-04-10T11:58:21Z</time>
      </trkpt>
      <trkpt lat="45.14881" lon="5.81718">
        <ele>590.8</ele>
        <time>2021-04-10T11:58:22Z</time>
      </trkpt>
      <trkpt lat="45.14883" lon="5.81717">
        <ele>591</ele>
        <time>2021-04-10T11:58:23Z</time>
      </trkpt>
      <trkpt lat="45.14886" lon="5.81717">
        <ele>591</ele>
        <time>2021-04-10T11:58:24Z</time>
      </trkpt>
      <trkpt lat="45.14888" lon="5.81716">
        <ele>591</ele>
        <time>2021-04-10T11:58:25Z</time>
      </trkpt>
      <trkpt lat="45.1489" lon="5.81715">
        <ele>591.2</ele>
        <time>2021-04-10T11:58:26Z</time>
      </trkpt>
      <trkpt lat="45.14891" lon="5.81715">
        <ele>591.6</ele>
        <time>2021-04-10T11:58:27Z</time>
      </trkpt>
      <trkpt lat="45.14893" lon="5.81715">
        <ele>591.6</ele>
        <time>2021-04-10T11:58:28Z</time>
      </trkpt>
      <trkpt lat="45.14894" lon="5.81714">
        <ele>592</ele>
        <time>2021-04-10T11:58:29Z</time>
      </trkpt>
      <trkpt lat="45.14896" lon="5.81714">
        <ele>592.2</ele>
        <time>2021-04-10T11:58:30Z</time>
      </trkpt>
      <trkpt lat="45.14897" lon="5.81714">
        <ele>592.4</ele>
        <time>2021-04-10T11:58:31Z</time>
      </trkpt>
      <trkpt lat="45.14899" lon="5.81713">
        <ele>592.8</ele>
        <time>2021-04-10T11:58:32Z</time>
      </trkpt>
      <trkpt lat="45.149" lon="5.81712">
        <ele>593</ele>
        <time>2021-04-10T11:58:33Z</time>
      </trkpt>
      <trkpt lat="45.14901" lon="5.81711">
        <ele>593.2</ele>
        <time>2021-04-10T11:58:34Z</time>
      </trkpt>
      <trkpt lat="45.14902" lon="5.8171">
        <ele>593.4</ele>
        <time>2021-04-10T11:58:35Z</time>
      </trkpt>
      <trkpt lat="45.14903" lon="5.81709">
        <ele>593.6</ele>
        <time>2021-04-10T11:58:36Z</time>
      </trkpt>
      <trkpt lat="45.14904" lon="5.81707">
        <ele>594</ele>
        <time>2021-04-10T11:58:37Z</time>
      </trkpt>
      <trkpt lat="45.14905" lon="5.81706">
        <ele>594.2</ele>
        <time>2021-04-10T11:58:38Z</time>
      </trkpt>
      <trkpt lat="45.14906" lon="5.81705">
        <ele>594.2</ele>
        <time>2021-04-10T11:58:39Z</time>
      </trkpt>
      <trkpt lat="45.14908" lon="5.81705">
        <ele>594.6</ele>
        <time>2021-04-10T11:58:40Z</time>
      </trkpt>
      <trkpt lat="45.1491" lon="5.81705">
        <ele>594.6</ele>
        <time>2021-04-10T11:58:41Z</time>
      </trkpt>
      <trkpt lat="45.14912" lon="5.81704">
        <ele>595</ele>
        <time>2021-04-10T11:58:42Z</time>
      </trkpt>
      <trkpt lat="45.14914" lon="5.81704">
        <ele>595.2</ele>
        <time>2021-04-10T11:58:43Z</time>
      </trkpt>
      <trkpt lat="45.14916" lon="5.81704">
        <ele>595.6</ele>
        <time>2021-04-10T11:58:44Z</time>
      </trkpt>
      <trkpt lat="45.14918" lon="5.81704">
        <ele>595.6</ele>
        <time>2021-04-10T11:58:45Z</time>
      </trkpt>
      <trkpt lat="45.1492" lon="5.81703">
        <ele>595.8</ele>
        <time>2021-04-10T11:58:46Z</time>
      </trkpt>
      <trkpt lat="45.14922" lon="5.81703">
        <ele>596</ele>
        <time>2021-04-10T11:58:47Z</time>
      </trkpt>
      <trkpt lat="45.14924" lon="5.81702">
        <ele>596</ele>
        <time>2021-04-10T11:58:48Z</time>
      </trkpt>
      <trkpt lat="45.14926" lon="5.81702">
        <ele>596</ele>
        <time>2021-04-10T11:58:49Z</time>
      </trkpt>
      <trkpt lat="45.14928" lon="5.81701">
        <ele>596</ele>
        <time>2021-04-10T11:58:50Z</time>
      </trkpt>
      <trkpt lat="45.1493" lon="5.817">
        <ele>596</ele>
        <time>2021-04-10T11:58:51Z</time>
      </trkpt>
      <trkpt lat="45.14931" lon="5.81699">
        <ele>596.2</ele>
        <time>2021-04-10T11:58:52Z</time>
      </trkpt>
      <trkpt lat="45.14933" lon="5.81698">
        <ele>596.4</ele>
        <time>2021-04-10T11:58:53Z</time>
      </trkpt>
      <trkpt lat="45.14935" lon="5.81697">
        <ele>596.6</ele>
        <time>2021-04-10T11:58:54Z</time>
      </trkpt>
      <trkpt lat="45.14937" lon="5.81696">
        <ele>596.8</ele>
        <time>2021-04-10T11:58:55Z</time>
      </trkpt>
      <trkpt lat="45.14939" lon="5.81695">
        <ele>597</ele>
        <time>2021-04-10T11:58:56Z</time>
      </trkpt>
      <trkpt lat="45.14941" lon="5.81694">
        <ele>597</ele>
        <time>2021-04-10T11:58:57Z</time>
      </trkpt>
      <trkpt lat="45.14942" lon="5.81694">
        <ele>597.2</ele>
        <time>2021-04-10T11:58:58Z</time>
      </trkpt>
      <trkpt lat="45.14942" lon="5.81694">
        <ele>597.2</ele>
        <time>2021-04-10T11:58:59Z</time>
      </trkpt>
      <trkpt lat="45.14942" lon="5.81694">
        <ele>597.4</ele>
        <time>2021-04-10T11:59:00Z</time>
      </trkpt>
      <trkpt lat="45.14942" lon="5.81694">
        <ele>597.6</ele>
        <time>2021-04-10T11:59:01Z</time>
      </trkpt>
      <trkpt lat="45.14943" lon="5.81694">
        <ele>597.8</ele>
        <time>2021-04-10T11:59:02Z</time>
      </trkpt>
      <trkpt lat="45.14943" lon="5.81694">
        <ele>597.8</ele>
        <time>2021-04-10T11:59:03Z</time>
      </trkpt>
      <trkpt lat="45.14943" lon="5.81693">
        <ele>597.8</ele>
        <time>2021-04-10T11:59:04Z</time>
      </trkpt>
      <trkpt lat="45.14944" lon="5.81693">
        <ele>597.8</ele>
        <time>2021-04-10T11:59:05Z</time>
      </trkpt>
      <trkpt lat="45.14944" lon="5.81693">
        <ele>597.6</ele>
        <time>2021-04-10T11:59:06Z</time>
      </trkpt>
      <trkpt lat="45.14944" lon="5.81693">
        <ele>597.6</ele>
        <time>2021-04-10T11:59:07Z</time>
      </trkpt>
      <trkpt lat="45.14944" lon="5.81693">
        <ele>597.4</ele>
        <time>2021-04-10T11:59:08Z</time>
      </trkpt>
      <trkpt lat="45.14945" lon="5.81693">
        <ele>597.4</ele>
        <time>2021-04-10T11:59:09Z</time>
      </trkpt>
      <trkpt lat="45.14945" lon="5.81693">
        <ele>597.4</ele>
        <time>2021-04-10T11:59:10Z</time>
      </trkpt>
      <trkpt lat="45.14945" lon="5.81693">
        <ele>597.6</ele>
        <time>2021-04-10T11:59:11Z</time>
      </trkpt>
      <trkpt lat="45.14946" lon="5.81693">
        <ele>597.8</ele>
        <time>2021-04-10T11:59:12Z</time>
      </trkpt>
      <trkpt lat="45.14946" lon="5.81693">
        <ele>598</ele>
        <time>2021-04-10T11:59:13Z</time>
      </trkpt>
      <trkpt lat="45.14946" lon="5.81693">
        <ele>598</ele>
        <time>2021-04-10T11:59:14Z</time>
      </trkpt>
      <trkpt lat="45.14946" lon="5.81693">
        <ele>598</ele>
        <time>2021-04-10T11:59:15Z</time>
      </trkpt>
      <trkpt lat="45.14947" lon="5.81693">
        <ele>597.8</ele>
        <time>2021-04-10T11:59:16Z</time>
      </trkpt>
      <trkpt lat="45.14947" lon="5.81692">
        <ele>597.6</ele>
        <time>2021-04-10T11:59:17Z</time>
      </trkpt>
      <trkpt lat="45.14947" lon="5.81692">
        <ele>597.6</ele>
        <time>2021-04-10T11:59:18Z</time>
      </trkpt>
      <trkpt lat="45.14947" lon="5.81692">
        <ele>597.4</ele>
        <time>2021-04-10T11:59:19Z</time>
      </trkpt>
      <trkpt lat="45.14948" lon="5.81692">
        <ele>597.2</ele>
        <time>2021-04-10T11:59:20Z</time>
      </trkpt>
      <trkpt lat="45.14948" lon="5.81692">
        <ele>597.4</ele>
        <time>2021-04-10T11:59:21Z</time>
      </trkpt>
      <trkpt lat="45.14948" lon="5.81692">
        <ele>597.4</ele>
        <time>2021-04-10T11:59:22Z</time>
      </trkpt>
      <trkpt lat="45.14949" lon="5.81692">
        <ele>597.6</ele>
        <time>2021-04-10T11:59:23Z</time>
      </trkpt>
      <trkpt lat="45.14949" lon="5.81692">
        <ele>597.6</ele>
        <time>2021-04-10T11:59:24Z</time>
      </trkpt>
      <trkpt lat="45.14949" lon="5.81692">
        <ele>597.6</ele>
        <time>2021-04-10T11:59:25Z</time>
      </trkpt>
      <trkpt lat="45.14949" lon="5.81692">
        <ele>597.8</ele>
        <time>2021-04-10T11:59:26Z</time>
      </trkpt>
      <trkpt lat="45.1495" lon="5.81692">
        <ele>597.8</ele>
        <time>2021-04-10T11:59:27Z</time>
      </trkpt>
      <trkpt lat="45.1495" lon="5.81692">
        <ele>597.6</ele>
        <time>2021-04-10T11:59:28Z</time>
      </trkpt>
      <trkpt lat="45.1495" lon="5.81692">
        <ele>597.6</ele>
        <time>2021-04-10T11:59:29Z</time>
      </trkpt>
      <trkpt lat="45.1495" lon="5.81691">
        <ele>597.6</ele>
        <time>2021-04-10T11:59:30Z</time>
      </trkpt>
      <trkpt lat="45.14951" lon="5.81691">
        <ele>597.6</ele>
        <time>2021-04-10T11:59:31Z</time>
      </trkpt>
      <trkpt lat="45.14951" lon="5.81691">
        <ele>597.6</ele>
        <time>2021-04-10T11:59:32Z</time>
      </trkpt>
      <trkpt lat="45.14953" lon="5.8169">
        <ele>597.2</ele>
        <time>2021-04-10T11:59:33Z</time>
      </trkpt>
      <trkpt lat="45.14954" lon="5.81689">
        <ele>597.4</ele>
        <time>2021-04-10T11:59:34Z</time>
      </trkpt>
      <trkpt lat="45.14956" lon="5.81687">
        <ele>597.4</ele>
        <time>2021-04-10T11:59:35Z</time>
      </trkpt>
      <trkpt lat="45.14958" lon="5.81686">
        <ele>597.2</ele>
        <time>2021-04-10T11:59:36Z</time>
      </trkpt>
      <trkpt lat="45.14959" lon="5.81685">
        <ele>596.8</ele>
        <time>2021-04-10T11:59:37Z</time>
      </trkpt>
      <trkpt lat="45.14961" lon="5.81683">
        <ele>597</ele>
        <time>2021-04-10T11:59:38Z</time>
      </trkpt>
      <trkpt lat="45.14963" lon="5.81682">
        <ele>596.8</ele>
        <time>2021-04-10T11:59:39Z</time>
      </trkpt>
      <trkpt lat="45.14964" lon="5.81681">
        <ele>596.8</ele>
        <time>2021-04-10T11:59:40Z</time>
      </trkpt>
      <trkpt lat="45.14966" lon="5.81679">
        <ele>596.4</ele>
        <time>2021-04-10T11:59:41Z</time>
      </trkpt>
      <trkpt lat="45.14968" lon="5.81678">
        <ele>596.4</ele>
        <time>2021-04-10T11:59:42Z</time>
      </trkpt>
      <trkpt lat="45.14969" lon="5.81677">
        <ele>595.8</ele>
        <time>2021-04-10T11:59:43Z</time>
      </trkpt>
      <trkpt lat="45.14971" lon="5.81677">
        <ele>595.4</ele>
        <time>2021-04-10T11:59:44Z</time>
      </trkpt>
      <trkpt lat="45.14972" lon="5.81677">
        <ele>595</ele>
        <time>2021-04-10T11:59:45Z</time>
      </trkpt>
      <trkpt lat="45.14974" lon="5.81678">
        <ele>594.4</ele>
        <time>2021-04-10T11:59:46Z</time>
      </trkpt>
      <trkpt lat="45.14979" lon="5.81679">
        <ele>594</ele>
        <time>2021-04-10T11:59:47Z</time>
      </trkpt>
      <trkpt lat="45.1498" lon="5.81679">
        <ele>593.4</ele>
        <time>2021-04-10T11:59:48Z</time>
      </trkpt>
      <trkpt lat="45.14982" lon="5.81679">
        <ele>593.6</ele>
        <time>2021-04-10T11:59:49Z</time>
      </trkpt>
      <trkpt lat="45.14984" lon="5.81679">
        <ele>593.4</ele>
        <time>2021-04-10T11:59:50Z</time>
      </trkpt>
      <trkpt lat="45.14985" lon="5.81679">
        <ele>593.4</ele>
        <time>2021-04-10T11:59:51Z</time>
      </trkpt>
      <trkpt lat="45.14992" lon="5.81679">
        <ele>593</ele>
        <time>2021-04-10T11:59:52Z</time>
      </trkpt>
      <trkpt lat="45.14996" lon="5.8168">
        <ele>593</ele>
        <time>2021-04-10T11:59:53Z</time>
      </trkpt>
      <trkpt lat="45.14999" lon="5.81681">
        <ele>592.6</ele>
        <time>2021-04-10T11:59:54Z</time>
      </trkpt>
      <trkpt lat="45.15002" lon="5.81681">
        <ele>592.4</ele>
        <time>2021-04-10T11:59:55Z</time>
      </trkpt>
      <trkpt lat="45.15005" lon="5.81682">
        <ele>592</ele>
        <time>2021-04-10T11:59:56Z</time>
      </trkpt>
      <trkpt lat="45.15007" lon="5.81682">
        <ele>592.2</ele>
        <time>2021-04-10T11:59:57Z</time>
      </trkpt>
      <trkpt lat="45.1501" lon="5.81682">
        <ele>591.8</ele>
        <time>2021-04-10T11:59:58Z</time>
      </trkpt>
      <trkpt lat="45.15011" lon="5.81681">
        <ele>591.6</ele>
        <time>2021-04-10T11:59:59Z</time>
      </trkpt>
      <trkpt lat="45.15013" lon="5.81679">
        <ele>591.2</ele>
        <time>2021-04-10T12:00:01Z</time>
      </trkpt>
      <trkpt lat="45.15014" lon="5.81677">
        <ele>591</ele>
        <time>2021-04-10T12:00:02Z</time>
      </trkpt>
      <trkpt lat="45.15019" lon="5.81671">
        <ele>590.8</ele>
        <time>2021-04-10T12:00:03Z</time>
      </trkpt>
      <trkpt lat="45.1502" lon="5.81668">
        <ele>590.4</ele>
        <time>2021-04-10T12:00:04Z</time>
      </trkpt>
      <trkpt lat="45.15021" lon="5.81667">
        <ele>590.2</ele>
        <time>2021-04-10T12:00:05Z</time>
      </trkpt>
      <trkpt lat="45.15022" lon="5.81665">
        <ele>589.8</ele>
        <time>2021-04-10T12:00:06Z</time>
      </trkpt>
      <trkpt lat="45.15023" lon="5.81663">
        <ele>589.6</ele>
        <time>2021-04-10T12:00:07Z</time>
      </trkpt>
      <trkpt lat="45.15024" lon="5.81661">
        <ele>590</ele>
        <time>2021-04-10T12:00:08Z</time>
      </trkpt>
      <trkpt lat="45.15025" lon="5.81659">
        <ele>590</ele>
        <time>2021-04-10T12:00:09Z</time>
      </trkpt>
      <trkpt lat="45.15025" lon="5.81658">
        <ele>590.2</ele>
        <time>2021-04-10T12:00:10Z</time>
      </trkpt>
      <trkpt lat="45.15026" lon="5.81656">
        <ele>590</ele>
        <time>2021-04-10T12:00:11Z</time>
      </trkpt>
      <trkpt lat="45.15027" lon="5.81654">
        <ele>590</ele>
        <time>2021-04-10T12:00:12Z</time>
      </trkpt>
      <trkpt lat="45.1503" lon="5.81647">
        <ele>589.6</ele>
        <time>2021-04-10T12:00:13Z</time>
      </trkpt>
      <trkpt lat="45.1503" lon="5.81647">
        <ele>589.6</ele>
        <time>2021-04-10T12:00:14Z</time>
      </trkpt>
      <trkpt lat="45.1503" lon="5.81647">
        <ele>589.4</ele>
        <time>2021-04-10T12:00:15Z</time>
      </trkpt>
      <trkpt lat="45.15032" lon="5.81644">
        <ele>589.4</ele>
        <time>2021-04-10T12:00:16Z</time>
      </trkpt>
      <trkpt lat="45.15033" lon="5.81641">
        <ele>589</ele>
        <time>2021-04-10T12:00:17Z</time>
      </trkpt>
      <trkpt lat="45.15035" lon="5.81639">
        <ele>589.2</ele>
        <time>2021-04-10T12:00:18Z</time>
      </trkpt>
      <trkpt lat="45.15036" lon="5.81636">
        <ele>588.6</ele>
        <time>2021-04-10T12:00:19Z</time>
      </trkpt>
      <trkpt lat="45.15038" lon="5.81634">
        <ele>588.6</ele>
        <time>2021-04-10T12:00:20Z</time>
      </trkpt>
      <trkpt lat="45.15037" lon="5.81632">
        <ele>588.2</ele>
        <time>2021-04-10T12:00:21Z</time>
      </trkpt>
      <trkpt lat="45.15036" lon="5.8163">
        <ele>588</ele>
        <time>2021-04-10T12:00:22Z</time>
      </trkpt>
      <trkpt lat="45.15035" lon="5.81628">
        <ele>588</ele>
        <time>2021-04-10T12:00:23Z</time>
      </trkpt>
      <trkpt lat="45.15034" lon="5.81626">
        <ele>587.4</ele>
        <time>2021-04-10T12:00:24Z</time>
      </trkpt>
      <trkpt lat="45.15033" lon="5.81624">
        <ele>587.4</ele>
        <time>2021-04-10T12:00:25Z</time>
      </trkpt>
      <trkpt lat="45.15032" lon="5.81622">
        <ele>586.8</ele>
        <time>2021-04-10T12:00:26Z</time>
      </trkpt>
      <trkpt lat="45.15032" lon="5.81619">
        <ele>586.8</ele>
        <time>2021-04-10T12:00:27Z</time>
      </trkpt>
      <trkpt lat="45.15031" lon="5.81615">
        <ele>586</ele>
        <time>2021-04-10T12:00:28Z</time>
      </trkpt>
      <trkpt lat="45.15031" lon="5.81612">
        <ele>586</ele>
        <time>2021-04-10T12:00:29Z</time>
      </trkpt>
      <trkpt lat="45.1503" lon="5.81608">
        <ele>585.4</ele>
        <time>2021-04-10T12:00:30Z</time>
      </trkpt>
      <trkpt lat="45.15029" lon="5.81605">
        <ele>585.4</ele>
        <time>2021-04-10T12:00:31Z</time>
      </trkpt>
      <trkpt lat="45.15031" lon="5.81604">
        <ele>584.8</ele>
        <time>2021-04-10T12:00:32Z</time>
      </trkpt>
      <trkpt lat="45.15033" lon="5.81603">
        <ele>584.4</ele>
        <time>2021-04-10T12:00:33Z</time>
      </trkpt>
      <trkpt lat="45.15034" lon="5.81602">
        <ele>584.2</ele>
        <time>2021-04-10T12:00:34Z</time>
      </trkpt>
      <trkpt lat="45.15036" lon="5.81601">
        <ele>584.2</ele>
        <time>2021-04-10T12:00:35Z</time>
      </trkpt>
      <trkpt lat="45.15038" lon="5.816">
        <ele>584.4</ele>
        <time>2021-04-10T12:00:36Z</time>
      </trkpt>
      <trkpt lat="45.15039" lon="5.81599">
        <ele>584.4</ele>
        <time>2021-04-10T12:00:37Z</time>
      </trkpt>
      <trkpt lat="45.15041" lon="5.81599">
        <ele>584.2</ele>
        <time>2021-04-10T12:00:38Z</time>
      </trkpt>
      <trkpt lat="45.15043" lon="5.81598">
        <ele>584.2</ele>
        <time>2021-04-10T12:00:39Z</time>
      </trkpt>
      <trkpt lat="45.15044" lon="5.81597">
        <ele>583.8</ele>
        <time>2021-04-10T12:00:40Z</time>
      </trkpt>
      <trkpt lat="45.15046" lon="5.81596">
        <ele>583.4</ele>
        <time>2021-04-10T12:00:41Z</time>
      </trkpt>
      <trkpt lat="45.15048" lon="5.81595">
        <ele>583.2</ele>
        <time>2021-04-10T12:00:42Z</time>
      </trkpt>
      <trkpt lat="45.15049" lon="5.81594">
        <ele>583.2</ele>
        <time>2021-04-10T12:00:43Z</time>
      </trkpt>
      <trkpt lat="45.15051" lon="5.81593">
        <ele>583.4</ele>
        <time>2021-04-10T12:00:44Z</time>
      </trkpt>
      <trkpt lat="45.15052" lon="5.81592">
        <ele>583.2</ele>
        <time>2021-04-10T12:00:45Z</time>
      </trkpt>
      <trkpt lat="45.15054" lon="5.81591">
        <ele>583.4</ele>
        <time>2021-04-10T12:00:46Z</time>
      </trkpt>
      <trkpt lat="45.15056" lon="5.8159">
        <ele>583.4</ele>
        <time>2021-04-10T12:00:47Z</time>
      </trkpt>
      <trkpt lat="45.15082" lon="5.81575">
        <ele>583.8</ele>
        <time>2021-04-10T12:00:48Z</time>
      </trkpt>
      <trkpt lat="45.15085" lon="5.81576">
        <ele>583.8</ele>
        <time>2021-04-10T12:00:49Z</time>
      </trkpt>
      <trkpt lat="45.15087" lon="5.81576">
        <ele>584.2</ele>
        <time>2021-04-10T12:00:50Z</time>
      </trkpt>
      <trkpt lat="45.15092" lon="5.81577">
        <ele>584.4</ele>
        <time>2021-04-10T12:00:51Z</time>
      </trkpt>
      <trkpt lat="45.15093" lon="5.81578">
        <ele>584.6</ele>
        <time>2021-04-10T12:00:52Z</time>
      </trkpt>
      <trkpt lat="45.15095" lon="5.81578">
        <ele>584.8</ele>
        <time>2021-04-10T12:00:53Z</time>
      </trkpt>
      <trkpt lat="45.15096" lon="5.81578">
        <ele>585.2</ele>
        <time>2021-04-10T12:00:54Z</time>
      </trkpt>
      <trkpt lat="45.15097" lon="5.81578">
        <ele>585.2</ele>
        <time>2021-04-10T12:00:55Z</time>
      </trkpt>
      <trkpt lat="45.15102" lon="5.8158">
        <ele>585.6</ele>
        <time>2021-04-10T12:00:56Z</time>
      </trkpt>
      <trkpt lat="45.15104" lon="5.8158">
        <ele>586</ele>
        <time>2021-04-10T12:00:57Z</time>
      </trkpt>
      <trkpt lat="45.15106" lon="5.81581">
        <ele>586.2</ele>
        <time>2021-04-10T12:00:58Z</time>
      </trkpt>
      <trkpt lat="45.15108" lon="5.81582">
        <ele>586.6</ele>
        <time>2021-04-10T12:00:59Z</time>
      </trkpt>
      <trkpt lat="45.15115" lon="5.81584">
        <ele>587</ele>
        <time>2021-04-10T12:01:00Z</time>
      </trkpt>
      <trkpt lat="45.15119" lon="5.81585">
        <ele>587.2</ele>
        <time>2021-04-10T12:01:01Z</time>
      </trkpt>
      <trkpt lat="45.15122" lon="5.81585">
        <ele>587.4</ele>
        <time>2021-04-10T12:01:02Z</time>
      </trkpt>
      <trkpt lat="45.15124" lon="5.81585">
        <ele>587.6</ele>
        <time>2021-04-10T12:01:03Z</time>
      </trkpt>
      <trkpt lat="45.15127" lon="5.81584">
        <ele>588</ele>
        <time>2021-04-10T12:01:04Z</time>
      </trkpt>
      <trkpt lat="45.1513" lon="5.81583">
        <ele>588</ele>
        <time>2021-04-10T12:01:05Z</time>
      </trkpt>
      <trkpt lat="45.15132" lon="5.81582">
        <ele>588.2</ele>
        <time>2021-04-10T12:01:06Z</time>
      </trkpt>
      <trkpt lat="45.15132" lon="5.81582">
        <ele>588.4</ele>
        <time>2021-04-10T12:01:07Z</time>
      </trkpt>
      <trkpt lat="45.15132" lon="5.81582">
        <ele>588.6</ele>
        <time>2021-04-10T12:01:08Z</time>
      </trkpt>
      <trkpt lat="45.15132" lon="5.81582">
        <ele>588.8</ele>
        <time>2021-04-10T12:01:09Z</time>
      </trkpt>
      <trkpt lat="45.15133" lon="5.81584">
        <ele>589.2</ele>
        <time>2021-04-10T12:01:10Z</time>
      </trkpt>
      <trkpt lat="45.15134" lon="5.81585">
        <ele>589.2</ele>
        <time>2021-04-10T12:01:11Z</time>
      </trkpt>
      <trkpt lat="45.15135" lon="5.81586">
        <ele>589.6</ele>
        <time>2021-04-10T12:01:12Z</time>
      </trkpt>
      <trkpt lat="45.15135" lon="5.81587">
        <ele>589.6</ele>
        <time>2021-04-10T12:01:13Z</time>
      </trkpt>
      <trkpt lat="45.15136" lon="5.81588">
        <ele>590</ele>
        <time>2021-04-10T12:01:14Z</time>
      </trkpt>
      <trkpt lat="45.15137" lon="5.81589">
        <ele>590</ele>
        <time>2021-04-10T12:01:15Z</time>
      </trkpt>
      <trkpt lat="45.15138" lon="5.81591">
        <ele>590.4</ele>
        <time>2021-04-10T12:01:16Z</time>
      </trkpt>
      <trkpt lat="45.15138" lon="5.81592">
        <ele>590.6</ele>
        <time>2021-04-10T12:01:17Z</time>
      </trkpt>
      <trkpt lat="45.1514" lon="5.81592">
        <ele>590.8</ele>
        <time>2021-04-10T12:01:18Z</time>
      </trkpt>
      <trkpt lat="45.15142" lon="5.81592">
        <ele>590.8</ele>
        <time>2021-04-10T12:01:19Z</time>
      </trkpt>
      <trkpt lat="45.15144" lon="5.81592">
        <ele>591</ele>
        <time>2021-04-10T12:01:20Z</time>
      </trkpt>
      <trkpt lat="45.15146" lon="5.81592">
        <ele>591</ele>
        <time>2021-04-10T12:01:21Z</time>
      </trkpt>
      <trkpt lat="45.15148" lon="5.81593">
        <ele>591</ele>
        <time>2021-04-10T12:01:22Z</time>
      </trkpt>
      <trkpt lat="45.1515" lon="5.81593">
        <ele>591</ele>
        <time>2021-04-10T12:01:23Z</time>
      </trkpt>
      <trkpt lat="45.15152" lon="5.81593">
        <ele>591.2</ele>
        <time>2021-04-10T12:01:24Z</time>
      </trkpt>
      <trkpt lat="45.15153" lon="5.81593">
        <ele>591.2</ele>
        <time>2021-04-10T12:01:25Z</time>
      </trkpt>
      <trkpt lat="45.15155" lon="5.81594">
        <ele>591.2</ele>
        <time>2021-04-10T12:01:26Z</time>
      </trkpt>
      <trkpt lat="45.15156" lon="5.81594">
        <ele>591.2</ele>
        <time>2021-04-10T12:01:27Z</time>
      </trkpt>
      <trkpt lat="45.15158" lon="5.81594">
        <ele>591</ele>
        <time>2021-04-10T12:01:28Z</time>
      </trkpt>
      <trkpt lat="45.15161" lon="5.81595">
        <ele>591</ele>
        <time>2021-04-10T12:01:29Z</time>
      </trkpt>
      <trkpt lat="45.15164" lon="5.81595">
        <ele>591.2</ele>
        <time>2021-04-10T12:01:30Z</time>
      </trkpt>
      <trkpt lat="45.15168" lon="5.81595">
        <ele>591.4</ele>
        <time>2021-04-10T12:01:31Z</time>
      </trkpt>
      <trkpt lat="45.15171" lon="5.81596">
        <ele>591.6</ele>
        <time>2021-04-10T12:01:32Z</time>
      </trkpt>
      <trkpt lat="45.15174" lon="5.81596">
        <ele>591.8</ele>
        <time>2021-04-10T12:01:33Z</time>
      </trkpt>
      <trkpt lat="45.15179" lon="5.81596">
        <ele>591.8</ele>
        <time>2021-04-10T12:01:34Z</time>
      </trkpt>
      <trkpt lat="45.15179" lon="5.81596">
        <ele>592.2</ele>
        <time>2021-04-10T12:01:35Z</time>
      </trkpt>
      <trkpt lat="45.15179" lon="5.81596">
        <ele>592.2</ele>
        <time>2021-04-10T12:01:36Z</time>
      </trkpt>
      <trkpt lat="45.15179" lon="5.81596">
        <ele>592.4</ele>
        <time>2021-04-10T12:01:37Z</time>
      </trkpt>
      <trkpt lat="45.1518" lon="5.81597">
        <ele>592.4</ele>
        <time>2021-04-10T12:01:38Z</time>
      </trkpt>
      <trkpt lat="45.15182" lon="5.81598">
        <ele>593</ele>
        <time>2021-04-10T12:01:39Z</time>
      </trkpt>
      <trkpt lat="45.15183" lon="5.81599">
        <ele>592.8</ele>
        <time>2021-04-10T12:01:40Z</time>
      </trkpt>
      <trkpt lat="45.15185" lon="5.816">
        <ele>593.2</ele>
        <time>2021-04-10T12:01:41Z</time>
      </trkpt>
      <trkpt lat="45.15186" lon="5.816">
        <ele>593.2</ele>
        <time>2021-04-10T12:01:42Z</time>
      </trkpt>
      <trkpt lat="45.15188" lon="5.81601">
        <ele>593.4</ele>
        <time>2021-04-10T12:01:43Z</time>
      </trkpt>
      <trkpt lat="45.15192" lon="5.81601">
        <ele>593.2</ele>
        <time>2021-04-10T12:01:44Z</time>
      </trkpt>
      <trkpt lat="45.15196" lon="5.816">
        <ele>593.4</ele>
        <time>2021-04-10T12:01:45Z</time>
      </trkpt>
      <trkpt lat="45.152" lon="5.81599">
        <ele>593.4</ele>
        <time>2021-04-10T12:01:46Z</time>
      </trkpt>
      <trkpt lat="45.15204" lon="5.81599">
        <ele>593.6</ele>
        <time>2021-04-10T12:01:47Z</time>
      </trkpt>
      <trkpt lat="45.15208" lon="5.81598">
        <ele>593.4</ele>
        <time>2021-04-10T12:01:48Z</time>
      </trkpt>
      <trkpt lat="45.15208" lon="5.81598">
        <ele>593.4</ele>
        <time>2021-04-10T12:01:49Z</time>
      </trkpt>
      <trkpt lat="45.15208" lon="5.81598">
        <ele>593.4</ele>
        <time>2021-04-10T12:01:50Z</time>
      </trkpt>
      <trkpt lat="45.15208" lon="5.81598">
        <ele>593.8</ele>
        <time>2021-04-10T12:01:51Z</time>
      </trkpt>
      <trkpt lat="45.15209" lon="5.81598">
        <ele>593.8</ele>
        <time>2021-04-10T12:01:52Z</time>
      </trkpt>
      <trkpt lat="45.15211" lon="5.81598">
        <ele>593.8</ele>
        <time>2021-04-10T12:01:53Z</time>
      </trkpt>
      <trkpt lat="45.15213" lon="5.81597">
        <ele>593.8</ele>
        <time>2021-04-10T12:01:54Z</time>
      </trkpt>
      <trkpt lat="45.15215" lon="5.81597">
        <ele>594</ele>
        <time>2021-04-10T12:01:55Z</time>
      </trkpt>
      <trkpt lat="45.15216" lon="5.81596">
        <ele>594.2</ele>
        <time>2021-04-10T12:01:56Z</time>
      </trkpt>
      <trkpt lat="45.15218" lon="5.81596">
        <ele>594.2</ele>
        <time>2021-04-10T12:01:57Z</time>
      </trkpt>
      <trkpt lat="45.1522" lon="5.81595">
        <ele>594.6</ele>
        <time>2021-04-10T12:01:58Z</time>
      </trkpt>
      <trkpt lat="45.15222" lon="5.81594">
        <ele>594.8</ele>
        <time>2021-04-10T12:01:59Z</time>
      </trkpt>
      <trkpt lat="45.15224" lon="5.81593">
        <ele>595.2</ele>
        <time>2021-04-10T12:02:00Z</time>
      </trkpt>
      <trkpt lat="45.15226" lon="5.81592">
        <ele>595.4</ele>
        <time>2021-04-10T12:02:01Z</time>
      </trkpt>
      <trkpt lat="45.15228" lon="5.81591">
        <ele>595.6</ele>
        <time>2021-04-10T12:02:02Z</time>
      </trkpt>
      <trkpt lat="45.15229" lon="5.81591">
        <ele>595.8</ele>
        <time>2021-04-10T12:02:03Z</time>
      </trkpt>
      <trkpt lat="45.1523" lon="5.8159">
        <ele>595.8</ele>
        <time>2021-04-10T12:02:04Z</time>
      </trkpt>
      <trkpt lat="45.15231" lon="5.81589">
        <ele>595.6</ele>
        <time>2021-04-10T12:02:05Z</time>
      </trkpt>
      <trkpt lat="45.15233" lon="5.81589">
        <ele>595.6</ele>
        <time>2021-04-10T12:02:06Z</time>
      </trkpt>
      <trkpt lat="45.15234" lon="5.81588">
        <ele>595.6</ele>
        <time>2021-04-10T12:02:07Z</time>
      </trkpt>
      <trkpt lat="45.15235" lon="5.81587">
        <ele>595.4</ele>
        <time>2021-04-10T12:02:08Z</time>
      </trkpt>
      <trkpt lat="45.15236" lon="5.81586">
        <ele>595.6</ele>
        <time>2021-04-10T12:02:09Z</time>
      </trkpt>
      <trkpt lat="45.15237" lon="5.81586">
        <ele>595.6</ele>
        <time>2021-04-10T12:02:10Z</time>
      </trkpt>
      <trkpt lat="45.15237" lon="5.81586">
        <ele>595.6</ele>
        <time>2021-04-10T12:02:11Z</time>
      </trkpt>
      <trkpt lat="45.15238" lon="5.81586">
        <ele>595.6</ele>
        <time>2021-04-10T12:02:12Z</time>
      </trkpt>
      <trkpt lat="45.15238" lon="5.81586">
        <ele>595.6</ele>
        <time>2021-04-10T12:02:13Z</time>
      </trkpt>
      <trkpt lat="45.15239" lon="5.81586">
        <ele>595.8</ele>
        <time>2021-04-10T12:02:14Z</time>
      </trkpt>
      <trkpt lat="45.15239" lon="5.81586">
        <ele>595.6</ele>
        <time>2021-04-10T12:02:15Z</time>
      </trkpt>
      <trkpt lat="45.1524" lon="5.81585">
        <ele>595.4</ele>
        <time>2021-04-10T12:02:16Z</time>
      </trkpt>
      <trkpt lat="45.1524" lon="5.81585">
        <ele>595.4</ele>
        <time>2021-04-10T12:02:17Z</time>
      </trkpt>
      <trkpt lat="45.1524" lon="5.81585">
        <ele>595.2</ele>
        <time>2021-04-10T12:02:18Z</time>
      </trkpt>
      <trkpt lat="45.15241" lon="5.81585">
        <ele>595.2</ele>
        <time>2021-04-10T12:02:19Z</time>
      </trkpt>
      <trkpt lat="45.15241" lon="5.81585">
        <ele>595</ele>
        <time>2021-04-10T12:02:20Z</time>
      </trkpt>
      <trkpt lat="45.15242" lon="5.81585">
        <ele>595.2</ele>
        <time>2021-04-10T12:02:21Z</time>
      </trkpt>
      <trkpt lat="45.15242" lon="5.81585">
        <ele>595.4</ele>
        <time>2021-04-10T12:02:22Z</time>
      </trkpt>
      <trkpt lat="45.15243" lon="5.81584">
        <ele>595.6</ele>
        <time>2021-04-10T12:02:23Z</time>
      </trkpt>
      <trkpt lat="45.15243" lon="5.81584">
        <ele>595.8</ele>
        <time>2021-04-10T12:02:24Z</time>
      </trkpt>
      <trkpt lat="45.15244" lon="5.81584">
        <ele>595.8</ele>
        <time>2021-04-10T12:02:25Z</time>
      </trkpt>
      <trkpt lat="45.15244" lon="5.81584">
        <ele>596</ele>
        <time>2021-04-10T12:02:26Z</time>
      </trkpt>
      <trkpt lat="45.15245" lon="5.81584">
        <ele>596</ele>
        <time>2021-04-10T12:02:27Z</time>
      </trkpt>
      <trkpt lat="45.15245" lon="5.81584">
        <ele>596.2</ele>
        <time>2021-04-10T12:02:28Z</time>
      </trkpt>
      <trkpt lat="45.15246" lon="5.81584">
        <ele>596.4</ele>
        <time>2021-04-10T12:02:29Z</time>
      </trkpt>
      <trkpt lat="45.15246" lon="5.81583">
        <ele>596.6</ele>
        <time>2021-04-10T12:02:30Z</time>
      </trkpt>
      <trkpt lat="45.15247" lon="5.81583">
        <ele>596.8</ele>
        <time>2021-04-10T12:02:31Z</time>
      </trkpt>
      <trkpt lat="45.15248" lon="5.81583">
        <ele>597.2</ele>
        <time>2021-04-10T12:02:32Z</time>
      </trkpt>
      <trkpt lat="45.15249" lon="5.81583">
        <ele>597.4</ele>
        <time>2021-04-10T12:02:33Z</time>
      </trkpt>
      <trkpt lat="45.1525" lon="5.81583">
        <ele>597.6</ele>
        <time>2021-04-10T12:02:34Z</time>
      </trkpt>
      <trkpt lat="45.1525" lon="5.81582">
        <ele>597.6</ele>
        <time>2021-04-10T12:02:35Z</time>
      </trkpt>
      <trkpt lat="45.15251" lon="5.81582">
        <ele>597.6</ele>
        <time>2021-04-10T12:02:36Z</time>
      </trkpt>
      <trkpt lat="45.15252" lon="5.81582">
        <ele>598</ele>
        <time>2021-04-10T12:02:37Z</time>
      </trkpt>
      <trkpt lat="45.15253" lon="5.81582">
        <ele>598</ele>
        <time>2021-04-10T12:02:38Z</time>
      </trkpt>
      <trkpt lat="45.15254" lon="5.81581">
        <ele>598.2</ele>
        <time>2021-04-10T12:02:39Z</time>
      </trkpt>
      <trkpt lat="45.15254" lon="5.81581">
        <ele>598.4</ele>
        <time>2021-04-10T12:02:40Z</time>
      </trkpt>
      <trkpt lat="45.15256" lon="5.8158">
        <ele>598.6</ele>
        <time>2021-04-10T12:02:41Z</time>
      </trkpt>
      <trkpt lat="45.15257" lon="5.81579">
        <ele>598.8</ele>
        <time>2021-04-10T12:02:42Z</time>
      </trkpt>
      <trkpt lat="45.15258" lon="5.81578">
        <ele>599</ele>
        <time>2021-04-10T12:02:43Z</time>
      </trkpt>
      <trkpt lat="45.1526" lon="5.81576">
        <ele>599.4</ele>
        <time>2021-04-10T12:02:44Z</time>
      </trkpt>
      <trkpt lat="45.15261" lon="5.81575">
        <ele>599.8</ele>
        <time>2021-04-10T12:02:45Z</time>
      </trkpt>
      <trkpt lat="45.15262" lon="5.81574">
        <ele>600</ele>
        <time>2021-04-10T12:02:46Z</time>
      </trkpt>
      <trkpt lat="45.15264" lon="5.81573">
        <ele>600</ele>
        <time>2021-04-10T12:02:47Z</time>
      </trkpt>
      <trkpt lat="45.15265" lon="5.81572">
        <ele>600</ele>
        <time>2021-04-10T12:02:48Z</time>
      </trkpt>
      <trkpt lat="45.15266" lon="5.81571">
        <ele>600</ele>
        <time>2021-04-10T12:02:49Z</time>
      </trkpt>
      <trkpt lat="45.15267" lon="5.81569">
        <ele>600.2</ele>
        <time>2021-04-10T12:02:50Z</time>
      </trkpt>
      <trkpt lat="45.15269" lon="5.81568">
        <ele>600.2</ele>
        <time>2021-04-10T12:02:51Z</time>
      </trkpt>
      <trkpt lat="45.1527" lon="5.81567">
        <ele>600.4</ele>
        <time>2021-04-10T12:02:52Z</time>
      </trkpt>
      <trkpt lat="45.15271" lon="5.81566">
        <ele>600.4</ele>
        <time>2021-04-10T12:02:53Z</time>
      </trkpt>
      <trkpt lat="45.15275" lon="5.81561">
        <ele>600.2</ele>
        <time>2021-04-10T12:02:54Z</time>
      </trkpt>
      <trkpt lat="45.15275" lon="5.81561">
        <ele>600.2</ele>
        <time>2021-04-10T12:02:55Z</time>
      </trkpt>
      <trkpt lat="45.15275" lon="5.81561">
        <ele>600.2</ele>
        <time>2021-04-10T12:02:56Z</time>
      </trkpt>
      <trkpt lat="45.15275" lon="5.81561">
        <ele>600</ele>
        <time>2021-04-10T12:02:57Z</time>
      </trkpt>
      <trkpt lat="45.15276" lon="5.8156">
        <ele>600.2</ele>
        <time>2021-04-10T12:02:58Z</time>
      </trkpt>
      <trkpt lat="45.15277" lon="5.8156">
        <ele>600.4</ele>
        <time>2021-04-10T12:02:59Z</time>
      </trkpt>
      <trkpt lat="45.15279" lon="5.81559">
        <ele>600.2</ele>
        <time>2021-04-10T12:03:00Z</time>
      </trkpt>
      <trkpt lat="45.1528" lon="5.81558">
        <ele>600.4</ele>
        <time>2021-04-10T12:03:01Z</time>
      </trkpt>
      <trkpt lat="45.15281" lon="5.81558">
        <ele>600.6</ele>
        <time>2021-04-10T12:03:02Z</time>
      </trkpt>
      <trkpt lat="45.15283" lon="5.81557">
        <ele>600.8</ele>
        <time>2021-04-10T12:03:03Z</time>
      </trkpt>
      <trkpt lat="45.15284" lon="5.81556">
        <ele>600.8</ele>
        <time>2021-04-10T12:03:04Z</time>
      </trkpt>
      <trkpt lat="45.15285" lon="5.81556">
        <ele>601</ele>
        <time>2021-04-10T12:03:05Z</time>
      </trkpt>
      <trkpt lat="45.15286" lon="5.81555">
        <ele>601</ele>
        <time>2021-04-10T12:03:06Z</time>
      </trkpt>
      <trkpt lat="45.15286" lon="5.81554">
        <ele>601.2</ele>
        <time>2021-04-10T12:03:07Z</time>
      </trkpt>
      <trkpt lat="45.15287" lon="5.81554">
        <ele>601.4</ele>
        <time>2021-04-10T12:03:08Z</time>
      </trkpt>
      <trkpt lat="45.15288" lon="5.81553">
        <ele>601.8</ele>
        <time>2021-04-10T12:03:09Z</time>
      </trkpt>
      <trkpt lat="45.15289" lon="5.81553">
        <ele>602</ele>
        <time>2021-04-10T12:03:10Z</time>
      </trkpt>
      <trkpt lat="45.1529" lon="5.81552">
        <ele>602.2</ele>
        <time>2021-04-10T12:03:11Z</time>
      </trkpt>
      <trkpt lat="45.15291" lon="5.81551">
        <ele>602.6</ele>
        <time>2021-04-10T12:03:12Z</time>
      </trkpt>
      <trkpt lat="45.15292" lon="5.81551">
        <ele>602.6</ele>
        <time>2021-04-10T12:03:13Z</time>
      </trkpt>
      <trkpt lat="45.15292" lon="5.8155">
        <ele>603</ele>
        <time>2021-04-10T12:03:14Z</time>
      </trkpt>
      <trkpt lat="45.15293" lon="5.8155">
        <ele>603.2</ele>
        <time>2021-04-10T12:03:15Z</time>
      </trkpt>
      <trkpt lat="45.15294" lon="5.81549">
        <ele>603.6</ele>
        <time>2021-04-10T12:03:16Z</time>
      </trkpt>
      <trkpt lat="45.15295" lon="5.81548">
        <ele>603.8</ele>
        <time>2021-04-10T12:03:17Z</time>
      </trkpt>
      <trkpt lat="45.15296" lon="5.81547">
        <ele>604.2</ele>
        <time>2021-04-10T12:03:18Z</time>
      </trkpt>
      <trkpt lat="45.15298" lon="5.81546">
        <ele>604.4</ele>
        <time>2021-04-10T12:03:19Z</time>
      </trkpt>
      <trkpt lat="45.15299" lon="5.81545">
        <ele>604.8</ele>
        <time>2021-04-10T12:03:20Z</time>
      </trkpt>
      <trkpt lat="45.153" lon="5.81543">
        <ele>605</ele>
        <time>2021-04-10T12:03:21Z</time>
      </trkpt>
      <trkpt lat="45.15302" lon="5.81542">
        <ele>605</ele>
        <time>2021-04-10T12:03:22Z</time>
      </trkpt>
      <trkpt lat="45.15303" lon="5.81541">
        <ele>605</ele>
        <time>2021-04-10T12:03:23Z</time>
      </trkpt>
      <trkpt lat="45.15304" lon="5.8154">
        <ele>605.2</ele>
        <time>2021-04-10T12:03:24Z</time>
      </trkpt>
      <trkpt lat="45.15305" lon="5.81539">
        <ele>605.2</ele>
        <time>2021-04-10T12:03:25Z</time>
      </trkpt>
      <trkpt lat="45.15306" lon="5.81538">
        <ele>605.4</ele>
        <time>2021-04-10T12:03:26Z</time>
      </trkpt>
      <trkpt lat="45.15307" lon="5.81537">
        <ele>605.4</ele>
        <time>2021-04-10T12:03:27Z</time>
      </trkpt>
      <trkpt lat="45.15308" lon="5.81537">
        <ele>605.6</ele>
        <time>2021-04-10T12:03:28Z</time>
      </trkpt>
      <trkpt lat="45.15309" lon="5.81536">
        <ele>605.6</ele>
        <time>2021-04-10T12:03:29Z</time>
      </trkpt>
      <trkpt lat="45.1531" lon="5.81535">
        <ele>605.8</ele>
        <time>2021-04-10T12:03:30Z</time>
      </trkpt>
      <trkpt lat="45.15311" lon="5.81534">
        <ele>606</ele>
        <time>2021-04-10T12:03:31Z</time>
      </trkpt>
      <trkpt lat="45.15313" lon="5.81533">
        <ele>606.2</ele>
        <time>2021-04-10T12:03:32Z</time>
      </trkpt>
      <trkpt lat="45.15314" lon="5.81531">
        <ele>606.4</ele>
        <time>2021-04-10T12:03:33Z</time>
      </trkpt>
      <trkpt lat="45.15316" lon="5.8153">
        <ele>606.8</ele>
        <time>2021-04-10T12:03:34Z</time>
      </trkpt>
      <trkpt lat="45.15318" lon="5.81529">
        <ele>606.8</ele>
        <time>2021-04-10T12:03:35Z</time>
      </trkpt>
      <trkpt lat="45.15319" lon="5.81527">
        <ele>607</ele>
        <time>2021-04-10T12:03:36Z</time>
      </trkpt>
      <trkpt lat="45.1532" lon="5.81526">
        <ele>607.2</ele>
        <time>2021-04-10T12:03:37Z</time>
      </trkpt>
      <trkpt lat="45.15322" lon="5.81525">
        <ele>607.2</ele>
        <time>2021-04-10T12:03:38Z</time>
      </trkpt>
      <trkpt lat="45.15323" lon="5.81523">
        <ele>607.4</ele>
        <time>2021-04-10T12:03:39Z</time>
      </trkpt>
      <trkpt lat="45.15324" lon="5.81522">
        <ele>607.4</ele>
        <time>2021-04-10T12:03:40Z</time>
      </trkpt>
      <trkpt lat="45.15325" lon="5.8152">
        <ele>607.4</ele>
        <time>2021-04-10T12:03:41Z</time>
      </trkpt>
      <trkpt lat="45.15326" lon="5.81519">
        <ele>607.6</ele>
        <time>2021-04-10T12:03:42Z</time>
      </trkpt>
      <trkpt lat="45.15327" lon="5.81518">
        <ele>607.8</ele>
        <time>2021-04-10T12:03:43Z</time>
      </trkpt>
      <trkpt lat="45.15328" lon="5.81518">
        <ele>607.8</ele>
        <time>2021-04-10T12:03:44Z</time>
      </trkpt>
      <trkpt lat="45.1533" lon="5.81518">
        <ele>607.8</ele>
        <time>2021-04-10T12:03:45Z</time>
      </trkpt>
      <trkpt lat="45.15331" lon="5.81517">
        <ele>608</ele>
        <time>2021-04-10T12:03:46Z</time>
      </trkpt>
      <trkpt lat="45.15332" lon="5.81517">
        <ele>608</ele>
        <time>2021-04-10T12:03:47Z</time>
      </trkpt>
      <trkpt lat="45.15333" lon="5.81517">
        <ele>608.2</ele>
        <time>2021-04-10T12:03:48Z</time>
      </trkpt>
      <trkpt lat="45.15335" lon="5.81517">
        <ele>608.2</ele>
        <time>2021-04-10T12:03:49Z</time>
      </trkpt>
      <trkpt lat="45.15336" lon="5.81517">
        <ele>608.4</ele>
        <time>2021-04-10T12:03:50Z</time>
      </trkpt>
      <trkpt lat="45.15337" lon="5.81516">
        <ele>608.2</ele>
        <time>2021-04-10T12:03:51Z</time>
      </trkpt>
      <trkpt lat="45.15338" lon="5.81515">
        <ele>608.4</ele>
        <time>2021-04-10T12:03:52Z</time>
      </trkpt>
      <trkpt lat="45.15339" lon="5.81514">
        <ele>608.4</ele>
        <time>2021-04-10T12:03:53Z</time>
      </trkpt>
      <trkpt lat="45.15339" lon="5.81513">
        <ele>608.6</ele>
        <time>2021-04-10T12:03:54Z</time>
      </trkpt>
      <trkpt lat="45.1534" lon="5.81512">
        <ele>608.8</ele>
        <time>2021-04-10T12:03:55Z</time>
      </trkpt>
      <trkpt lat="45.15341" lon="5.81511">
        <ele>608.8</ele>
        <time>2021-04-10T12:03:56Z</time>
      </trkpt>
      <trkpt lat="45.15342" lon="5.8151">
        <ele>609</ele>
        <time>2021-04-10T12:03:57Z</time>
      </trkpt>
      <trkpt lat="45.15343" lon="5.81509">
        <ele>608.8</ele>
        <time>2021-04-10T12:03:58Z</time>
      </trkpt>
      <trkpt lat="45.15344" lon="5.81508">
        <ele>608.8</ele>
        <time>2021-04-10T12:03:59Z</time>
      </trkpt>
      <trkpt lat="45.15345" lon="5.81506">
        <ele>608.6</ele>
        <time>2021-04-10T12:04:00Z</time>
      </trkpt>
      <trkpt lat="45.15346" lon="5.81505">
        <ele>609</ele>
        <time>2021-04-10T12:04:01Z</time>
      </trkpt>
      <trkpt lat="45.15347" lon="5.81503">
        <ele>609</ele>
        <time>2021-04-10T12:04:02Z</time>
      </trkpt>
      <trkpt lat="45.15348" lon="5.81502">
        <ele>609</ele>
        <time>2021-04-10T12:04:03Z</time>
      </trkpt>
      <trkpt lat="45.15349" lon="5.815">
        <ele>609</ele>
        <time>2021-04-10T12:04:04Z</time>
      </trkpt>
      <trkpt lat="45.1535" lon="5.81499">
        <ele>608.6</ele>
        <time>2021-04-10T12:04:05Z</time>
      </trkpt>
      <trkpt lat="45.15351" lon="5.81497">
        <ele>608.6</ele>
        <time>2021-04-10T12:04:06Z</time>
      </trkpt>
      <trkpt lat="45.15353" lon="5.81495">
        <ele>608.4</ele>
        <time>2021-04-10T12:04:07Z</time>
      </trkpt>
      <trkpt lat="45.15354" lon="5.81494">
        <ele>608.2</ele>
        <time>2021-04-10T12:04:08Z</time>
      </trkpt>
      <trkpt lat="45.15355" lon="5.81492">
        <ele>608.2</ele>
        <time>2021-04-10T12:04:09Z</time>
      </trkpt>
      <trkpt lat="45.15356" lon="5.8149">
        <ele>608</ele>
        <time>2021-04-10T12:04:10Z</time>
      </trkpt>
      <trkpt lat="45.15358" lon="5.81488">
        <ele>608</ele>
        <time>2021-04-10T12:04:11Z</time>
      </trkpt>
      <trkpt lat="45.15359" lon="5.81487">
        <ele>608</ele>
        <time>2021-04-10T12:04:12Z</time>
      </trkpt>
      <trkpt lat="45.1536" lon="5.81485">
        <ele>608.2</ele>
        <time>2021-04-10T12:04:13Z</time>
      </trkpt>
      <trkpt lat="45.15362" lon="5.81484">
        <ele>608.2</ele>
        <time>2021-04-10T12:04:14Z</time>
      </trkpt>
      <trkpt lat="45.15363" lon="5.81482">
        <ele>608.2</ele>
        <time>2021-04-10T12:04:15Z</time>
      </trkpt>
      <trkpt lat="45.15365" lon="5.81481">
        <ele>608.2</ele>
        <time>2021-04-10T12:04:16Z</time>
      </trkpt>
      <trkpt lat="45.15366" lon="5.81481">
        <ele>608.2</ele>
        <time>2021-04-10T12:04:17Z</time>
      </trkpt>
      <trkpt lat="45.15367" lon="5.8148">
        <ele>608</ele>
        <time>2021-04-10T12:04:18Z</time>
      </trkpt>
      <trkpt lat="45.15368" lon="5.8148">
        <ele>608</ele>
        <time>2021-04-10T12:04:19Z</time>
      </trkpt>
      <trkpt lat="45.1537" lon="5.81479">
        <ele>608</ele>
        <time>2021-04-10T12:04:20Z</time>
      </trkpt>
      <trkpt lat="45.15371" lon="5.81479">
        <ele>608</ele>
        <time>2021-04-10T12:04:21Z</time>
      </trkpt>
      <trkpt lat="45.15372" lon="5.81478">
        <ele>607.8</ele>
        <time>2021-04-10T12:04:22Z</time>
      </trkpt>
      <trkpt lat="45.15373" lon="5.81478">
        <ele>607.8</ele>
        <time>2021-04-10T12:04:23Z</time>
      </trkpt>
      <trkpt lat="45.15374" lon="5.81478">
        <ele>607.8</ele>
        <time>2021-04-10T12:04:24Z</time>
      </trkpt>
      <trkpt lat="45.15376" lon="5.81476">
        <ele>608</ele>
        <time>2021-04-10T12:04:25Z</time>
      </trkpt>
      <trkpt lat="45.15378" lon="5.81475">
        <ele>608</ele>
        <time>2021-04-10T12:04:26Z</time>
      </trkpt>
      <trkpt lat="45.15379" lon="5.81474">
        <ele>608.2</ele>
        <time>2021-04-10T12:04:27Z</time>
      </trkpt>
      <trkpt lat="45.15381" lon="5.81472">
        <ele>608.4</ele>
        <time>2021-04-10T12:04:28Z</time>
      </trkpt>
      <trkpt lat="45.15383" lon="5.81471">
        <ele>608.6</ele>
        <time>2021-04-10T12:04:29Z</time>
      </trkpt>
      <trkpt lat="45.15384" lon="5.8147">
        <ele>608.8</ele>
        <time>2021-04-10T12:04:30Z</time>
      </trkpt>
      <trkpt lat="45.15385" lon="5.81469">
        <ele>608.8</ele>
        <time>2021-04-10T12:04:31Z</time>
      </trkpt>
      <trkpt lat="45.15387" lon="5.81468">
        <ele>608.8</ele>
        <time>2021-04-10T12:04:32Z</time>
      </trkpt>
      <trkpt lat="45.15388" lon="5.81467">
        <ele>608.8</ele>
        <time>2021-04-10T12:04:33Z</time>
      </trkpt>
      <trkpt lat="45.15389" lon="5.81466">
        <ele>609</ele>
        <time>2021-04-10T12:04:34Z</time>
      </trkpt>
      <trkpt lat="45.15391" lon="5.81465">
        <ele>609.2</ele>
        <time>2021-04-10T12:04:35Z</time>
      </trkpt>
      <trkpt lat="45.15392" lon="5.81464">
        <ele>609.4</ele>
        <time>2021-04-10T12:04:36Z</time>
      </trkpt>
      <trkpt lat="45.15394" lon="5.81463">
        <ele>609.4</ele>
        <time>2021-04-10T12:04:37Z</time>
      </trkpt>
      <trkpt lat="45.15395" lon="5.81463">
        <ele>609.4</ele>
        <time>2021-04-10T12:04:38Z</time>
      </trkpt>
      <trkpt lat="45.15397" lon="5.81462">
        <ele>609.6</ele>
        <time>2021-04-10T12:04:39Z</time>
      </trkpt>
      <trkpt lat="45.15398" lon="5.81461">
        <ele>609.6</ele>
        <time>2021-04-10T12:04:40Z</time>
      </trkpt>
      <trkpt lat="45.154" lon="5.8146">
        <ele>609.6</ele>
        <time>2021-04-10T12:04:41Z</time>
      </trkpt>
      <trkpt lat="45.15401" lon="5.8146">
        <ele>609.8</ele>
        <time>2021-04-10T12:04:42Z</time>
      </trkpt>
      <trkpt lat="45.15403" lon="5.81459">
        <ele>609.8</ele>
        <time>2021-04-10T12:04:43Z</time>
      </trkpt>
      <trkpt lat="45.15404" lon="5.81458">
        <ele>610</ele>
        <time>2021-04-10T12:04:44Z</time>
      </trkpt>
      <trkpt lat="45.15405" lon="5.81457">
        <ele>610</ele>
        <time>2021-04-10T12:04:45Z</time>
      </trkpt>
      <trkpt lat="45.15407" lon="5.81457">
        <ele>610.4</ele>
        <time>2021-04-10T12:04:46Z</time>
      </trkpt>
      <trkpt lat="45.15408" lon="5.81456">
        <ele>610.6</ele>
        <time>2021-04-10T12:04:47Z</time>
      </trkpt>
      <trkpt lat="45.15409" lon="5.81456">
        <ele>610.8</ele>
        <time>2021-04-10T12:04:48Z</time>
      </trkpt>
      <trkpt lat="45.1541" lon="5.81456">
        <ele>611.2</ele>
        <time>2021-04-10T12:04:49Z</time>
      </trkpt>
      <trkpt lat="45.15411" lon="5.81457">
        <ele>611.4</ele>
        <time>2021-04-10T12:04:50Z</time>
      </trkpt>
      <trkpt lat="45.15412" lon="5.81457">
        <ele>611.4</ele>
        <time>2021-04-10T12:04:51Z</time>
      </trkpt>
      <trkpt lat="45.15413" lon="5.81457">
        <ele>611.2</ele>
        <time>2021-04-10T12:04:52Z</time>
      </trkpt>
      <trkpt lat="45.15414" lon="5.81457">
        <ele>611.2</ele>
        <time>2021-04-10T12:04:53Z</time>
      </trkpt>
      <trkpt lat="45.15415" lon="5.81457">
        <ele>611.2</ele>
        <time>2021-04-10T12:04:54Z</time>
      </trkpt>
      <trkpt lat="45.15416" lon="5.81457">
        <ele>611.4</ele>
        <time>2021-04-10T12:04:55Z</time>
      </trkpt>
      <trkpt lat="45.15417" lon="5.81458">
        <ele>611.6</ele>
        <time>2021-04-10T12:04:56Z</time>
      </trkpt>
      <trkpt lat="45.15418" lon="5.81457">
        <ele>611.8</ele>
        <time>2021-04-10T12:04:57Z</time>
      </trkpt>
      <trkpt lat="45.15419" lon="5.81457">
        <ele>612</ele>
        <time>2021-04-10T12:04:58Z</time>
      </trkpt>
      <trkpt lat="45.1542" lon="5.81456">
        <ele>612.2</ele>
        <time>2021-04-10T12:04:59Z</time>
      </trkpt>
      <trkpt lat="45.1542" lon="5.81456">
        <ele>612.2</ele>
        <time>2021-04-10T12:05:00Z</time>
      </trkpt>
      <trkpt lat="45.15421" lon="5.81456">
        <ele>612.6</ele>
        <time>2021-04-10T12:05:01Z</time>
      </trkpt>
      <trkpt lat="45.15422" lon="5.81455">
        <ele>612.8</ele>
        <time>2021-04-10T12:05:02Z</time>
      </trkpt>
      <trkpt lat="45.15422" lon="5.81455">
        <ele>612.8</ele>
        <time>2021-04-10T12:05:03Z</time>
      </trkpt>
      <trkpt lat="45.15423" lon="5.81454">
        <ele>613</ele>
        <time>2021-04-10T12:05:04Z</time>
      </trkpt>
      <trkpt lat="45.15424" lon="5.81454">
        <ele>613</ele>
        <time>2021-04-10T12:05:05Z</time>
      </trkpt>
      <trkpt lat="45.15424" lon="5.81454">
        <ele>613.2</ele>
        <time>2021-04-10T12:05:06Z</time>
      </trkpt>
      <trkpt lat="45.15425" lon="5.81453">
        <ele>613.6</ele>
        <time>2021-04-10T12:05:07Z</time>
      </trkpt>
      <trkpt lat="45.15426" lon="5.81453">
        <ele>613.6</ele>
        <time>2021-04-10T12:05:08Z</time>
      </trkpt>
      <trkpt lat="45.15426" lon="5.81452">
        <ele>614</ele>
        <time>2021-04-10T12:05:09Z</time>
      </trkpt>
      <trkpt lat="45.15427" lon="5.81451">
        <ele>614</ele>
        <time>2021-04-10T12:05:10Z</time>
      </trkpt>
      <trkpt lat="45.15428" lon="5.81451">
        <ele>614.2</ele>
        <time>2021-04-10T12:05:11Z</time>
      </trkpt>
      <trkpt lat="45.15429" lon="5.8145">
        <ele>614.4</ele>
        <time>2021-04-10T12:05:12Z</time>
      </trkpt>
      <trkpt lat="45.1543" lon="5.81449">
        <ele>614.6</ele>
        <time>2021-04-10T12:05:13Z</time>
      </trkpt>
      <trkpt lat="45.15431" lon="5.81448">
        <ele>614.8</ele>
        <time>2021-04-10T12:05:14Z</time>
      </trkpt>
      <trkpt lat="45.15432" lon="5.81447">
        <ele>614.8</ele>
        <time>2021-04-10T12:05:15Z</time>
      </trkpt>
      <trkpt lat="45.15433" lon="5.81446">
        <ele>615.2</ele>
        <time>2021-04-10T12:05:16Z</time>
      </trkpt>
      <trkpt lat="45.15434" lon="5.81445">
        <ele>615.4</ele>
        <time>2021-04-10T12:05:17Z</time>
      </trkpt>
      <trkpt lat="45.15435" lon="5.81444">
        <ele>615.8</ele>
        <time>2021-04-10T12:05:18Z</time>
      </trkpt>
      <trkpt lat="45.15436" lon="5.81444">
        <ele>616.2</ele>
        <time>2021-04-10T12:05:19Z</time>
      </trkpt>
      <trkpt lat="45.15437" lon="5.81443">
        <ele>616.6</ele>
        <time>2021-04-10T12:05:20Z</time>
      </trkpt>
      <trkpt lat="45.15438" lon="5.81442">
        <ele>617</ele>
        <time>2021-04-10T12:05:21Z</time>
      </trkpt>
      <trkpt lat="45.15439" lon="5.81441">
        <ele>617</ele>
        <time>2021-04-10T12:05:22Z</time>
      </trkpt>
      <trkpt lat="45.1544" lon="5.81441">
        <ele>617</ele>
        <time>2021-04-10T12:05:23Z</time>
      </trkpt>
      <trkpt lat="45.15441" lon="5.8144">
        <ele>617.2</ele>
        <time>2021-04-10T12:05:24Z</time>
      </trkpt>
      <trkpt lat="45.15442" lon="5.81439">
        <ele>617.4</ele>
        <time>2021-04-10T12:05:25Z</time>
      </trkpt>
      <trkpt lat="45.15443" lon="5.81438">
        <ele>617.2</ele>
        <time>2021-04-10T12:05:26Z</time>
      </trkpt>
      <trkpt lat="45.15444" lon="5.81438">
        <ele>617.4</ele>
        <time>2021-04-10T12:05:27Z</time>
      </trkpt>
      <trkpt lat="45.15445" lon="5.81437">
        <ele>617.6</ele>
        <time>2021-04-10T12:05:28Z</time>
      </trkpt>
      <trkpt lat="45.15446" lon="5.81437">
        <ele>617.6</ele>
        <time>2021-04-10T12:05:29Z</time>
      </trkpt>
      <trkpt lat="45.15447" lon="5.81436">
        <ele>617.8</ele>
        <time>2021-04-10T12:05:30Z</time>
      </trkpt>
      <trkpt lat="45.15448" lon="5.81436">
        <ele>618</ele>
        <time>2021-04-10T12:05:31Z</time>
      </trkpt>
      <trkpt lat="45.15449" lon="5.81435">
        <ele>618.4</ele>
        <time>2021-04-10T12:05:32Z</time>
      </trkpt>
      <trkpt lat="45.1545" lon="5.81435">
        <ele>618.4</ele>
        <time>2021-04-10T12:05:33Z</time>
      </trkpt>
      <trkpt lat="45.15451" lon="5.81434">
        <ele>618.6</ele>
        <time>2021-04-10T12:05:34Z</time>
      </trkpt>
      <trkpt lat="45.15452" lon="5.81434">
        <ele>618.8</ele>
        <time>2021-04-10T12:05:35Z</time>
      </trkpt>
      <trkpt lat="45.15452" lon="5.81433">
        <ele>618.8</ele>
        <time>2021-04-10T12:05:36Z</time>
      </trkpt>
      <trkpt lat="45.15453" lon="5.81432">
        <ele>619</ele>
        <time>2021-04-10T12:05:37Z</time>
      </trkpt>
      <trkpt lat="45.15454" lon="5.81431">
        <ele>619.4</ele>
        <time>2021-04-10T12:05:38Z</time>
      </trkpt>
      <trkpt lat="45.15454" lon="5.8143">
        <ele>619.8</ele>
        <time>2021-04-10T12:05:39Z</time>
      </trkpt>
      <trkpt lat="45.15455" lon="5.81429">
        <ele>620.2</ele>
        <time>2021-04-10T12:05:40Z</time>
      </trkpt>
      <trkpt lat="45.15455" lon="5.81429">
        <ele>620.4</ele>
        <time>2021-04-10T12:05:41Z</time>
      </trkpt>
      <trkpt lat="45.15456" lon="5.81428">
        <ele>620.6</ele>
        <time>2021-04-10T12:05:42Z</time>
      </trkpt>
      <trkpt lat="45.15457" lon="5.81427">
        <ele>620.6</ele>
        <time>2021-04-10T12:05:43Z</time>
      </trkpt>
      <trkpt lat="45.15457" lon="5.81426">
        <ele>620.8</ele>
        <time>2021-04-10T12:05:44Z</time>
      </trkpt>
      <trkpt lat="45.15458" lon="5.81425">
        <ele>621</ele>
        <time>2021-04-10T12:05:45Z</time>
      </trkpt>
      <trkpt lat="45.15458" lon="5.81424">
        <ele>621.2</ele>
        <time>2021-04-10T12:05:46Z</time>
      </trkpt>
      <trkpt lat="45.15459" lon="5.81423">
        <ele>621.6</ele>
        <time>2021-04-10T12:05:47Z</time>
      </trkpt>
      <trkpt lat="45.1546" lon="5.81422">
        <ele>621.8</ele>
        <time>2021-04-10T12:05:48Z</time>
      </trkpt>
      <trkpt lat="45.15461" lon="5.8142">
        <ele>622</ele>
        <time>2021-04-10T12:05:49Z</time>
      </trkpt>
      <trkpt lat="45.15463" lon="5.81419">
        <ele>622</ele>
        <time>2021-04-10T12:05:50Z</time>
      </trkpt>
      <trkpt lat="45.15464" lon="5.81417">
        <ele>622.4</ele>
        <time>2021-04-10T12:05:51Z</time>
      </trkpt>
      <trkpt lat="45.15465" lon="5.81416">
        <ele>622.8</ele>
        <time>2021-04-10T12:05:52Z</time>
      </trkpt>
      <trkpt lat="45.15466" lon="5.81414">
        <ele>623</ele>
        <time>2021-04-10T12:05:53Z</time>
      </trkpt>
      <trkpt lat="45.15467" lon="5.81413">
        <ele>623.4</ele>
        <time>2021-04-10T12:05:54Z</time>
      </trkpt>
      <trkpt lat="45.15467" lon="5.81412">
        <ele>623.8</ele>
        <time>2021-04-10T12:05:55Z</time>
      </trkpt>
      <trkpt lat="45.15467" lon="5.81412">
        <ele>624</ele>
        <time>2021-04-10T12:05:56Z</time>
      </trkpt>
      <trkpt lat="45.15468" lon="5.81411">
        <ele>624.2</ele>
        <time>2021-04-10T12:05:57Z</time>
      </trkpt>
      <trkpt lat="45.15468" lon="5.8141">
        <ele>624.6</ele>
        <time>2021-04-10T12:05:58Z</time>
      </trkpt>
      <trkpt lat="45.15469" lon="5.81409">
        <ele>624.6</ele>
        <time>2021-04-10T12:05:59Z</time>
      </trkpt>
      <trkpt lat="45.15469" lon="5.81409">
        <ele>624.8</ele>
        <time>2021-04-10T12:06:00Z</time>
      </trkpt>
      <trkpt lat="45.1547" lon="5.81408">
        <ele>625.2</ele>
        <time>2021-04-10T12:06:01Z</time>
      </trkpt>
      <trkpt lat="45.1547" lon="5.81407">
        <ele>625.4</ele>
        <time>2021-04-10T12:06:02Z</time>
      </trkpt>
      <trkpt lat="45.15471" lon="5.81406">
        <ele>625.6</ele>
        <time>2021-04-10T12:06:03Z</time>
      </trkpt>
      <trkpt lat="45.15471" lon="5.81405">
        <ele>626</ele>
        <time>2021-04-10T12:06:04Z</time>
      </trkpt>
      <trkpt lat="45.15472" lon="5.81405">
        <ele>626.2</ele>
        <time>2021-04-10T12:06:05Z</time>
      </trkpt>
      <trkpt lat="45.15472" lon="5.81404">
        <ele>626.4</ele>
        <time>2021-04-10T12:06:06Z</time>
      </trkpt>
      <trkpt lat="45.15473" lon="5.81403">
        <ele>626.8</ele>
        <time>2021-04-10T12:06:07Z</time>
      </trkpt>
      <trkpt lat="45.15473" lon="5.81402">
        <ele>627</ele>
        <time>2021-04-10T12:06:08Z</time>
      </trkpt>
      <trkpt lat="45.15474" lon="5.814">
        <ele>627.4</ele>
        <time>2021-04-10T12:06:09Z</time>
      </trkpt>
      <trkpt lat="45.15474" lon="5.81399">
        <ele>627.6</ele>
        <time>2021-04-10T12:06:10Z</time>
      </trkpt>
      <trkpt lat="45.15475" lon="5.81398">
        <ele>627.8</ele>
        <time>2021-04-10T12:06:11Z</time>
      </trkpt>
      <trkpt lat="45.15475" lon="5.81397">
        <ele>628</ele>
        <time>2021-04-10T12:06:12Z</time>
      </trkpt>
      <trkpt lat="45.15476" lon="5.81395">
        <ele>628.4</ele>
        <time>2021-04-10T12:06:13Z</time>
      </trkpt>
      <trkpt lat="45.15476" lon="5.81394">
        <ele>628.6</ele>
        <time>2021-04-10T12:06:14Z</time>
      </trkpt>
      <trkpt lat="45.15477" lon="5.81393">
        <ele>628.4</ele>
        <time>2021-04-10T12:06:15Z</time>
      </trkpt>
      <trkpt lat="45.15477" lon="5.81393">
        <ele>628.6</ele>
        <time>2021-04-10T12:06:16Z</time>
      </trkpt>
      <trkpt lat="45.15478" lon="5.81392">
        <ele>628.6</ele>
        <time>2021-04-10T12:06:17Z</time>
      </trkpt>
      <trkpt lat="45.15478" lon="5.81392">
        <ele>629</ele>
        <time>2021-04-10T12:06:18Z</time>
      </trkpt>
      <trkpt lat="45.15479" lon="5.81391">
        <ele>629.6</ele>
        <time>2021-04-10T12:06:19Z</time>
      </trkpt>
      <trkpt lat="45.15479" lon="5.8139">
        <ele>629.6</ele>
        <time>2021-04-10T12:06:20Z</time>
      </trkpt>
      <trkpt lat="45.15479" lon="5.8139">
        <ele>629.6</ele>
        <time>2021-04-10T12:06:21Z</time>
      </trkpt>
      <trkpt lat="45.1548" lon="5.81389">
        <ele>629.6</ele>
        <time>2021-04-10T12:06:22Z</time>
      </trkpt>
      <trkpt lat="45.1548" lon="5.81389">
        <ele>629.6</ele>
        <time>2021-04-10T12:06:23Z</time>
      </trkpt>
      <trkpt lat="45.15481" lon="5.81388">
        <ele>629.8</ele>
        <time>2021-04-10T12:06:24Z</time>
      </trkpt>
      <trkpt lat="45.15481" lon="5.81388">
        <ele>630</ele>
        <time>2021-04-10T12:06:25Z</time>
      </trkpt>
      <trkpt lat="45.15481" lon="5.81387">
        <ele>630.2</ele>
        <time>2021-04-10T12:06:26Z</time>
      </trkpt>
      <trkpt lat="45.15482" lon="5.81387">
        <ele>630.4</ele>
        <time>2021-04-10T12:06:27Z</time>
      </trkpt>
      <trkpt lat="45.15482" lon="5.81386">
        <ele>630.8</ele>
        <time>2021-04-10T12:06:28Z</time>
      </trkpt>
      <trkpt lat="45.15483" lon="5.81386">
        <ele>631</ele>
        <time>2021-04-10T12:06:29Z</time>
      </trkpt>
      <trkpt lat="45.15483" lon="5.81385">
        <ele>631.2</ele>
        <time>2021-04-10T12:06:30Z</time>
      </trkpt>
      <trkpt lat="45.15483" lon="5.81385">
        <ele>631.6</ele>
        <time>2021-04-10T12:06:31Z</time>
      </trkpt>
      <trkpt lat="45.15484" lon="5.81384">
        <ele>632</ele>
        <time>2021-04-10T12:06:32Z</time>
      </trkpt>
      <trkpt lat="45.15484" lon="5.81383">
        <ele>632</ele>
        <time>2021-04-10T12:06:33Z</time>
      </trkpt>
      <trkpt lat="45.15485" lon="5.81383">
        <ele>632.2</ele>
        <time>2021-04-10T12:06:34Z</time>
      </trkpt>
      <trkpt lat="45.15486" lon="5.81382">
        <ele>632.6</ele>
        <time>2021-04-10T12:06:35Z</time>
      </trkpt>
      <trkpt lat="45.15486" lon="5.81381">
        <ele>632.8</ele>
        <time>2021-04-10T12:06:36Z</time>
      </trkpt>
      <trkpt lat="45.15487" lon="5.8138">
        <ele>633</ele>
        <time>2021-04-10T12:06:37Z</time>
      </trkpt>
      <trkpt lat="45.15488" lon="5.81379">
        <ele>633.4</ele>
        <time>2021-04-10T12:06:38Z</time>
      </trkpt>
      <trkpt lat="45.15488" lon="5.81378">
        <ele>633.8</ele>
        <time>2021-04-10T12:06:39Z</time>
      </trkpt>
      <trkpt lat="45.15489" lon="5.81377">
        <ele>634</ele>
        <time>2021-04-10T12:06:40Z</time>
      </trkpt>
      <trkpt lat="45.1549" lon="5.81376">
        <ele>634.2</ele>
        <time>2021-04-10T12:06:41Z</time>
      </trkpt>
      <trkpt lat="45.1549" lon="5.81375">
        <ele>634.6</ele>
        <time>2021-04-10T12:06:42Z</time>
      </trkpt>
      <trkpt lat="45.15491" lon="5.81374">
        <ele>634.4</ele>
        <time>2021-04-10T12:06:43Z</time>
      </trkpt>
      <trkpt lat="45.15493" lon="5.81373">
        <ele>634.6</ele>
        <time>2021-04-10T12:06:44Z</time>
      </trkpt>
      <trkpt lat="45.15494" lon="5.81371">
        <ele>634.4</ele>
        <time>2021-04-10T12:06:45Z</time>
      </trkpt>
      <trkpt lat="45.15496" lon="5.8137">
        <ele>634.6</ele>
        <time>2021-04-10T12:06:46Z</time>
      </trkpt>
      <trkpt lat="45.15498" lon="5.81368">
        <ele>634.8</ele>
        <time>2021-04-10T12:06:47Z</time>
      </trkpt>
      <trkpt lat="45.15499" lon="5.81367">
        <ele>635.4</ele>
        <time>2021-04-10T12:06:48Z</time>
      </trkpt>
      <trkpt lat="45.15501" lon="5.81365">
        <ele>635.8</ele>
        <time>2021-04-10T12:06:49Z</time>
      </trkpt>
      <trkpt lat="45.15503" lon="5.81364">
        <ele>636</ele>
        <time>2021-04-10T12:06:50Z</time>
      </trkpt>
      <trkpt lat="45.15504" lon="5.81362">
        <ele>636.6</ele>
        <time>2021-04-10T12:06:51Z</time>
      </trkpt>
      <trkpt lat="45.15506" lon="5.8136">
        <ele>637</ele>
        <time>2021-04-10T12:06:52Z</time>
      </trkpt>
      <trkpt lat="45.15508" lon="5.81358">
        <ele>637</ele>
        <time>2021-04-10T12:06:53Z</time>
      </trkpt>
      <trkpt lat="45.15509" lon="5.81357">
        <ele>637.2</ele>
        <time>2021-04-10T12:06:54Z</time>
      </trkpt>
      <trkpt lat="45.15511" lon="5.81355">
        <ele>637.4</ele>
        <time>2021-04-10T12:06:55Z</time>
      </trkpt>
      <trkpt lat="45.15513" lon="5.81353">
        <ele>637.4</ele>
        <time>2021-04-10T12:06:56Z</time>
      </trkpt>
      <trkpt lat="45.15514" lon="5.81352">
        <ele>637.4</ele>
        <time>2021-04-10T12:06:57Z</time>
      </trkpt>
      <trkpt lat="45.15516" lon="5.8135">
        <ele>638</ele>
        <time>2021-04-10T12:06:58Z</time>
      </trkpt>
      <trkpt lat="45.15518" lon="5.81348">
        <ele>638.4</ele>
        <time>2021-04-10T12:06:59Z</time>
      </trkpt>
      <trkpt lat="45.15519" lon="5.81346">
        <ele>638.6</ele>
        <time>2021-04-10T12:07:00Z</time>
      </trkpt>
      <trkpt lat="45.15521" lon="5.81345">
        <ele>638.8</ele>
        <time>2021-04-10T12:07:01Z</time>
      </trkpt>
      <trkpt lat="45.15523" lon="5.81343">
        <ele>639.2</ele>
        <time>2021-04-10T12:07:02Z</time>
      </trkpt>
      <trkpt lat="45.15524" lon="5.81341">
        <ele>639.2</ele>
        <time>2021-04-10T12:07:03Z</time>
      </trkpt>
      <trkpt lat="45.15526" lon="5.8134">
        <ele>639.6</ele>
        <time>2021-04-10T12:07:04Z</time>
      </trkpt>
      <trkpt lat="45.15526" lon="5.81339">
        <ele>640</ele>
        <time>2021-04-10T12:07:05Z</time>
      </trkpt>
      <trkpt lat="45.15527" lon="5.81339">
        <ele>640</ele>
        <time>2021-04-10T12:07:06Z</time>
      </trkpt>
      <trkpt lat="45.15527" lon="5.81339">
        <ele>640.2</ele>
        <time>2021-04-10T12:07:07Z</time>
      </trkpt>
      <trkpt lat="45.15527" lon="5.81339">
        <ele>640.2</ele>
        <time>2021-04-10T12:07:08Z</time>
      </trkpt>
      <trkpt lat="45.15528" lon="5.81339">
        <ele>640.4</ele>
        <time>2021-04-10T12:07:09Z</time>
      </trkpt>
      <trkpt lat="45.15528" lon="5.81339">
        <ele>640.4</ele>
        <time>2021-04-10T12:07:10Z</time>
      </trkpt>
      <trkpt lat="45.15528" lon="5.81338">
        <ele>640.6</ele>
        <time>2021-04-10T12:07:11Z</time>
      </trkpt>
      <trkpt lat="45.15529" lon="5.81338">
        <ele>640.8</ele>
        <time>2021-04-10T12:07:12Z</time>
      </trkpt>
      <trkpt lat="45.15529" lon="5.81338">
        <ele>640.8</ele>
        <time>2021-04-10T12:07:13Z</time>
      </trkpt>
      <trkpt lat="45.15529" lon="5.81338">
        <ele>641.2</ele>
        <time>2021-04-10T12:07:14Z</time>
      </trkpt>
      <trkpt lat="45.1553" lon="5.81338">
        <ele>641.6</ele>
        <time>2021-04-10T12:07:15Z</time>
      </trkpt>
      <trkpt lat="45.1553" lon="5.81338">
        <ele>641.8</ele>
        <time>2021-04-10T12:07:16Z</time>
      </trkpt>
      <trkpt lat="45.15531" lon="5.81338">
        <ele>642.2</ele>
        <time>2021-04-10T12:07:17Z</time>
      </trkpt>
      <trkpt lat="45.15531" lon="5.81337">
        <ele>642.4</ele>
        <time>2021-04-10T12:07:18Z</time>
      </trkpt>
      <trkpt lat="45.15531" lon="5.81337">
        <ele>642.6</ele>
        <time>2021-04-10T12:07:19Z</time>
      </trkpt>
      <trkpt lat="45.15532" lon="5.81337">
        <ele>642.8</ele>
        <time>2021-04-10T12:07:20Z</time>
      </trkpt>
      <trkpt lat="45.15532" lon="5.81337">
        <ele>643</ele>
        <time>2021-04-10T12:07:21Z</time>
      </trkpt>
      <trkpt lat="45.15532" lon="5.81337">
        <ele>642.8</ele>
        <time>2021-04-10T12:07:22Z</time>
      </trkpt>
      <trkpt lat="45.15533" lon="5.81337">
        <ele>642.8</ele>
        <time>2021-04-10T12:07:23Z</time>
      </trkpt>
      <trkpt lat="45.15533" lon="5.81336">
        <ele>643</ele>
        <time>2021-04-10T12:07:24Z</time>
      </trkpt>
      <trkpt lat="45.15533" lon="5.81336">
        <ele>643</ele>
        <time>2021-04-10T12:07:25Z</time>
      </trkpt>
      <trkpt lat="45.15534" lon="5.81336">
        <ele>643.4</ele>
        <time>2021-04-10T12:07:26Z</time>
      </trkpt>
      <trkpt lat="45.15534" lon="5.81336">
        <ele>643.6</ele>
        <time>2021-04-10T12:07:27Z</time>
      </trkpt>
      <trkpt lat="45.15535" lon="5.81336">
        <ele>643.6</ele>
        <time>2021-04-10T12:07:28Z</time>
      </trkpt>
      <trkpt lat="45.15535" lon="5.81336">
        <ele>643.8</ele>
        <time>2021-04-10T12:07:29Z</time>
      </trkpt>
      <trkpt lat="45.15535" lon="5.81335">
        <ele>644</ele>
        <time>2021-04-10T12:07:30Z</time>
      </trkpt>
      <trkpt lat="45.15536" lon="5.81335">
        <ele>644.2</ele>
        <time>2021-04-10T12:07:31Z</time>
      </trkpt>
      <trkpt lat="45.15536" lon="5.81335">
        <ele>645</ele>
        <time>2021-04-10T12:07:32Z</time>
      </trkpt>
      <trkpt lat="45.15537" lon="5.81334">
        <ele>645.2</ele>
        <time>2021-04-10T12:07:33Z</time>
      </trkpt>
      <trkpt lat="45.15537" lon="5.81334">
        <ele>645.2</ele>
        <time>2021-04-10T12:07:34Z</time>
      </trkpt>
      <trkpt lat="45.15538" lon="5.81334">
        <ele>645.4</ele>
        <time>2021-04-10T12:07:35Z</time>
      </trkpt>
      <trkpt lat="45.15538" lon="5.81333">
        <ele>645.6</ele>
        <time>2021-04-10T12:07:36Z</time>
      </trkpt>
      <trkpt lat="45.15539" lon="5.81333">
        <ele>645.8</ele>
        <time>2021-04-10T12:07:37Z</time>
      </trkpt>
      <trkpt lat="45.15539" lon="5.81332">
        <ele>646</ele>
        <time>2021-04-10T12:07:38Z</time>
      </trkpt>
      <trkpt lat="45.1554" lon="5.81332">
        <ele>646</ele>
        <time>2021-04-10T12:07:39Z</time>
      </trkpt>
      <trkpt lat="45.1554" lon="5.81332">
        <ele>646.2</ele>
        <time>2021-04-10T12:07:40Z</time>
      </trkpt>
      <trkpt lat="45.15541" lon="5.81331">
        <ele>646.6</ele>
        <time>2021-04-10T12:07:41Z</time>
      </trkpt>
      <trkpt lat="45.15541" lon="5.81331">
        <ele>646.6</ele>
        <time>2021-04-10T12:07:42Z</time>
      </trkpt>
      <trkpt lat="45.15542" lon="5.81331">
        <ele>647</ele>
        <time>2021-04-10T12:07:43Z</time>
      </trkpt>
      <trkpt lat="45.15542" lon="5.8133">
        <ele>647.4</ele>
        <time>2021-04-10T12:07:44Z</time>
      </trkpt>
      <trkpt lat="45.15543" lon="5.8133">
        <ele>647.6</ele>
        <time>2021-04-10T12:07:45Z</time>
      </trkpt>
      <trkpt lat="45.15543" lon="5.8133">
        <ele>647.6</ele>
        <time>2021-04-10T12:07:46Z</time>
      </trkpt>
      <trkpt lat="45.15544" lon="5.81329">
        <ele>648.2</ele>
        <time>2021-04-10T12:07:47Z</time>
      </trkpt>
      <trkpt lat="45.15544" lon="5.81329">
        <ele>648.4</ele>
        <time>2021-04-10T12:07:48Z</time>
      </trkpt>
      <trkpt lat="45.15546" lon="5.81328">
        <ele>648.6</ele>
        <time>2021-04-10T12:07:49Z</time>
      </trkpt>
      <trkpt lat="45.15547" lon="5.81328">
        <ele>648.6</ele>
        <time>2021-04-10T12:07:50Z</time>
      </trkpt>
      <trkpt lat="45.15549" lon="5.81327">
        <ele>649</ele>
        <time>2021-04-10T12:07:51Z</time>
      </trkpt>
      <trkpt lat="45.1555" lon="5.81327">
        <ele>649</ele>
        <time>2021-04-10T12:07:52Z</time>
      </trkpt>
      <trkpt lat="45.15552" lon="5.81326">
        <ele>649.2</ele>
        <time>2021-04-10T12:07:53Z</time>
      </trkpt>
      <trkpt lat="45.15553" lon="5.81326">
        <ele>649.4</ele>
        <time>2021-04-10T12:07:54Z</time>
      </trkpt>
      <trkpt lat="45.15554" lon="5.81326">
        <ele>649.6</ele>
        <time>2021-04-10T12:07:55Z</time>
      </trkpt>
      <trkpt lat="45.15555" lon="5.81326">
        <ele>649.8</ele>
        <time>2021-04-10T12:07:56Z</time>
      </trkpt>
      <trkpt lat="45.15556" lon="5.81326">
        <ele>649.8</ele>
        <time>2021-04-10T12:07:57Z</time>
      </trkpt>
      <trkpt lat="45.15557" lon="5.81326">
        <ele>650</ele>
        <time>2021-04-10T12:07:58Z</time>
      </trkpt>
      <trkpt lat="45.15559" lon="5.81325">
        <ele>650.4</ele>
        <time>2021-04-10T12:07:59Z</time>
      </trkpt>
      <trkpt lat="45.1556" lon="5.81325">
        <ele>650.8</ele>
        <time>2021-04-10T12:08:00Z</time>
      </trkpt>
      <trkpt lat="45.15561" lon="5.81325">
        <ele>650.6</ele>
        <time>2021-04-10T12:08:01Z</time>
      </trkpt>
      <trkpt lat="45.15562" lon="5.81325">
        <ele>650.8</ele>
        <time>2021-04-10T12:08:02Z</time>
      </trkpt>
      <trkpt lat="45.15563" lon="5.81325">
        <ele>651.2</ele>
        <time>2021-04-10T12:08:03Z</time>
      </trkpt>
      <trkpt lat="45.15564" lon="5.81325">
        <ele>651.4</ele>
        <time>2021-04-10T12:08:04Z</time>
      </trkpt>
      <trkpt lat="45.15565" lon="5.81324">
        <ele>651.8</ele>
        <time>2021-04-10T12:08:05Z</time>
      </trkpt>
      <trkpt lat="45.15566" lon="5.81324">
        <ele>651.8</ele>
        <time>2021-04-10T12:08:06Z</time>
      </trkpt>
      <trkpt lat="45.15567" lon="5.81323">
        <ele>652.2</ele>
        <time>2021-04-10T12:08:07Z</time>
      </trkpt>
      <trkpt lat="45.15567" lon="5.81323">
        <ele>652.8</ele>
        <time>2021-04-10T12:08:08Z</time>
      </trkpt>
      <trkpt lat="45.15568" lon="5.81322">
        <ele>652.8</ele>
        <time>2021-04-10T12:08:09Z</time>
      </trkpt>
      <trkpt lat="45.15569" lon="5.81322">
        <ele>652.8</ele>
        <time>2021-04-10T12:08:10Z</time>
      </trkpt>
      <trkpt lat="45.1557" lon="5.81321">
        <ele>652.8</ele>
        <time>2021-04-10T12:08:11Z</time>
      </trkpt>
      <trkpt lat="45.15571" lon="5.81321">
        <ele>653.2</ele>
        <time>2021-04-10T12:08:12Z</time>
      </trkpt>
      <trkpt lat="45.15572" lon="5.8132">
        <ele>653.2</ele>
        <time>2021-04-10T12:08:13Z</time>
      </trkpt>
      <trkpt lat="45.15573" lon="5.8132">
        <ele>653.4</ele>
        <time>2021-04-10T12:08:14Z</time>
      </trkpt>
      <trkpt lat="45.15573" lon="5.81319">
        <ele>653.6</ele>
        <time>2021-04-10T12:08:15Z</time>
      </trkpt>
      <trkpt lat="45.15574" lon="5.81319">
        <ele>653.6</ele>
        <time>2021-04-10T12:08:16Z</time>
      </trkpt>
      <trkpt lat="45.15574" lon="5.81318">
        <ele>653.8</ele>
        <time>2021-04-10T12:08:17Z</time>
      </trkpt>
      <trkpt lat="45.15575" lon="5.81318">
        <ele>654</ele>
        <time>2021-04-10T12:08:18Z</time>
      </trkpt>
      <trkpt lat="45.15576" lon="5.81317">
        <ele>654.4</ele>
        <time>2021-04-10T12:08:19Z</time>
      </trkpt>
      <trkpt lat="45.15576" lon="5.81316">
        <ele>654.8</ele>
        <time>2021-04-10T12:08:20Z</time>
      </trkpt>
      <trkpt lat="45.15577" lon="5.81316">
        <ele>654.8</ele>
        <time>2021-04-10T12:08:21Z</time>
      </trkpt>
      <trkpt lat="45.15578" lon="5.81315">
        <ele>655</ele>
        <time>2021-04-10T12:08:22Z</time>
      </trkpt>
      <trkpt lat="45.15578" lon="5.81315">
        <ele>655.2</ele>
        <time>2021-04-10T12:08:23Z</time>
      </trkpt>
      <trkpt lat="45.15579" lon="5.81314">
        <ele>655.4</ele>
        <time>2021-04-10T12:08:24Z</time>
      </trkpt>
      <trkpt lat="45.15579" lon="5.81314">
        <ele>655.8</ele>
        <time>2021-04-10T12:08:25Z</time>
      </trkpt>
      <trkpt lat="45.1558" lon="5.81313">
        <ele>656</ele>
        <time>2021-04-10T12:08:26Z</time>
      </trkpt>
      <trkpt lat="45.15581" lon="5.81312">
        <ele>656.4</ele>
        <time>2021-04-10T12:08:27Z</time>
      </trkpt>
      <trkpt lat="45.15581" lon="5.81312">
        <ele>656.8</ele>
        <time>2021-04-10T12:08:28Z</time>
      </trkpt>
      <trkpt lat="45.15582" lon="5.81311">
        <ele>657</ele>
        <time>2021-04-10T12:08:29Z</time>
      </trkpt>
      <trkpt lat="45.15582" lon="5.81311">
        <ele>657.4</ele>
        <time>2021-04-10T12:08:30Z</time>
      </trkpt>
      <trkpt lat="45.15583" lon="5.81311">
        <ele>657.8</ele>
        <time>2021-04-10T12:08:31Z</time>
      </trkpt>
      <trkpt lat="45.15583" lon="5.8131">
        <ele>657.8</ele>
        <time>2021-04-10T12:08:32Z</time>
      </trkpt>
      <trkpt lat="45.15583" lon="5.8131">
        <ele>658</ele>
        <time>2021-04-10T12:08:33Z</time>
      </trkpt>
      <trkpt lat="45.15584" lon="5.81309">
        <ele>658</ele>
        <time>2021-04-10T12:08:34Z</time>
      </trkpt>
      <trkpt lat="45.15584" lon="5.81309">
        <ele>658</ele>
        <time>2021-04-10T12:08:35Z</time>
      </trkpt>
      <trkpt lat="45.15585" lon="5.81308">
        <ele>658.4</ele>
        <time>2021-04-10T12:08:36Z</time>
      </trkpt>
      <trkpt lat="45.15585" lon="5.81308">
        <ele>658.6</ele>
        <time>2021-04-10T12:08:37Z</time>
      </trkpt>
      <trkpt lat="45.15586" lon="5.81307">
        <ele>658.8</ele>
        <time>2021-04-10T12:08:38Z</time>
      </trkpt>
      <trkpt lat="45.15586" lon="5.81307">
        <ele>659.2</ele>
        <time>2021-04-10T12:08:39Z</time>
      </trkpt>
      <trkpt lat="45.15587" lon="5.81307">
        <ele>659.4</ele>
        <time>2021-04-10T12:08:40Z</time>
      </trkpt>
      <trkpt lat="45.15587" lon="5.81306">
        <ele>659.6</ele>
        <time>2021-04-10T12:08:41Z</time>
      </trkpt>
      <trkpt lat="45.15588" lon="5.81306">
        <ele>659.4</ele>
        <time>2021-04-10T12:08:42Z</time>
      </trkpt>
      <trkpt lat="45.15588" lon="5.81305">
        <ele>659.8</ele>
        <time>2021-04-10T12:08:43Z</time>
      </trkpt>
      <trkpt lat="45.15588" lon="5.81305">
        <ele>660.2</ele>
        <time>2021-04-10T12:08:44Z</time>
      </trkpt>
      <trkpt lat="45.15589" lon="5.81304">
        <ele>660.4</ele>
        <time>2021-04-10T12:08:45Z</time>
      </trkpt>
      <trkpt lat="45.15589" lon="5.81304">
        <ele>660.8</ele>
        <time>2021-04-10T12:08:46Z</time>
      </trkpt>
      <trkpt lat="45.1559" lon="5.81303">
        <ele>661</ele>
        <time>2021-04-10T12:08:47Z</time>
      </trkpt>
      <trkpt lat="45.1559" lon="5.81302">
        <ele>661</ele>
        <time>2021-04-10T12:08:48Z</time>
      </trkpt>
      <trkpt lat="45.1559" lon="5.81301">
        <ele>661.2</ele>
        <time>2021-04-10T12:08:49Z</time>
      </trkpt>
      <trkpt lat="45.1559" lon="5.813">
        <ele>661.4</ele>
        <time>2021-04-10T12:08:50Z</time>
      </trkpt>
      <trkpt lat="45.15591" lon="5.81299">
        <ele>661.8</ele>
        <time>2021-04-10T12:08:51Z</time>
      </trkpt>
      <trkpt lat="45.15591" lon="5.81298">
        <ele>662</ele>
        <time>2021-04-10T12:08:52Z</time>
      </trkpt>
      <trkpt lat="45.15591" lon="5.81297">
        <ele>662.2</ele>
        <time>2021-04-10T12:08:53Z</time>
      </trkpt>
      <trkpt lat="45.15592" lon="5.81296">
        <ele>662.6</ele>
        <time>2021-04-10T12:08:54Z</time>
      </trkpt>
      <trkpt lat="45.15592" lon="5.81296">
        <ele>662.8</ele>
        <time>2021-04-10T12:08:55Z</time>
      </trkpt>
      <trkpt lat="45.15592" lon="5.81295">
        <ele>663</ele>
        <time>2021-04-10T12:08:56Z</time>
      </trkpt>
      <trkpt lat="45.15592" lon="5.81294">
        <ele>663.4</ele>
        <time>2021-04-10T12:08:57Z</time>
      </trkpt>
      <trkpt lat="45.15593" lon="5.81293">
        <ele>663.6</ele>
        <time>2021-04-10T12:08:58Z</time>
      </trkpt>
      <trkpt lat="45.15593" lon="5.81292">
        <ele>664</ele>
        <time>2021-04-10T12:08:59Z</time>
      </trkpt>
      <trkpt lat="45.15593" lon="5.81291">
        <ele>664</ele>
        <time>2021-04-10T12:09:00Z</time>
      </trkpt>
      <trkpt lat="45.15593" lon="5.8129">
        <ele>664.4</ele>
        <time>2021-04-10T12:09:01Z</time>
      </trkpt>
      <trkpt lat="45.15593" lon="5.81288">
        <ele>664.6</ele>
        <time>2021-04-10T12:09:02Z</time>
      </trkpt>
      <trkpt lat="45.15593" lon="5.81286">
        <ele>664.8</ele>
        <time>2021-04-10T12:09:03Z</time>
      </trkpt>
      <trkpt lat="45.15593" lon="5.81284">
        <ele>665</ele>
        <time>2021-04-10T12:09:04Z</time>
      </trkpt>
      <trkpt lat="45.15593" lon="5.81283">
        <ele>665.2</ele>
        <time>2021-04-10T12:09:05Z</time>
      </trkpt>
      <trkpt lat="45.15593" lon="5.81281">
        <ele>665.4</ele>
        <time>2021-04-10T12:09:06Z</time>
      </trkpt>
      <trkpt lat="45.15593" lon="5.81279">
        <ele>665.6</ele>
        <time>2021-04-10T12:09:07Z</time>
      </trkpt>
      <trkpt lat="45.15593" lon="5.81277">
        <ele>666</ele>
        <time>2021-04-10T12:09:08Z</time>
      </trkpt>
      <trkpt lat="45.15593" lon="5.81276">
        <ele>666.2</ele>
        <time>2021-04-10T12:09:09Z</time>
      </trkpt>
      <trkpt lat="45.15593" lon="5.81275">
        <ele>666.4</ele>
        <time>2021-04-10T12:09:10Z</time>
      </trkpt>
      <trkpt lat="45.15594" lon="5.81274">
        <ele>666.8</ele>
        <time>2021-04-10T12:09:11Z</time>
      </trkpt>
      <trkpt lat="45.15594" lon="5.81273">
        <ele>667</ele>
        <time>2021-04-10T12:09:12Z</time>
      </trkpt>
      <trkpt lat="45.15595" lon="5.81272">
        <ele>667.4</ele>
        <time>2021-04-10T12:09:13Z</time>
      </trkpt>
      <trkpt lat="45.15595" lon="5.81271">
        <ele>667.6</ele>
        <time>2021-04-10T12:09:14Z</time>
      </trkpt>
      <trkpt lat="45.15595" lon="5.8127">
        <ele>667.8</ele>
        <time>2021-04-10T12:09:15Z</time>
      </trkpt>
      <trkpt lat="45.15596" lon="5.81269">
        <ele>667.6</ele>
        <time>2021-04-10T12:09:16Z</time>
      </trkpt>
      <trkpt lat="45.15596" lon="5.81268">
        <ele>667.8</ele>
        <time>2021-04-10T12:09:17Z</time>
      </trkpt>
      <trkpt lat="45.15596" lon="5.81267">
        <ele>668.2</ele>
        <time>2021-04-10T12:09:18Z</time>
      </trkpt>
      <trkpt lat="45.15597" lon="5.81267">
        <ele>668.4</ele>
        <time>2021-04-10T12:09:19Z</time>
      </trkpt>
      <trkpt lat="45.15597" lon="5.81266">
        <ele>668.8</ele>
        <time>2021-04-10T12:09:20Z</time>
      </trkpt>
      <trkpt lat="45.15597" lon="5.81265">
        <ele>669</ele>
        <time>2021-04-10T12:09:21Z</time>
      </trkpt>
      <trkpt lat="45.15598" lon="5.81264">
        <ele>669.2</ele>
        <time>2021-04-10T12:09:22Z</time>
      </trkpt>
      <trkpt lat="45.15598" lon="5.81263">
        <ele>669.4</ele>
        <time>2021-04-10T12:09:23Z</time>
      </trkpt>
      <trkpt lat="45.156" lon="5.8126">
        <ele>669.6</ele>
        <time>2021-04-10T12:09:24Z</time>
      </trkpt>
      <trkpt lat="45.15601" lon="5.81257">
        <ele>669.6</ele>
        <time>2021-04-10T12:09:25Z</time>
      </trkpt>
      <trkpt lat="45.15603" lon="5.81255">
        <ele>669.8</ele>
        <time>2021-04-10T12:09:26Z</time>
      </trkpt>
      <trkpt lat="45.15605" lon="5.81252">
        <ele>670</ele>
        <time>2021-04-10T12:09:27Z</time>
      </trkpt>
      <trkpt lat="45.15607" lon="5.81249">
        <ele>670.2</ele>
        <time>2021-04-10T12:09:28Z</time>
      </trkpt>
      <trkpt lat="45.15608" lon="5.81247">
        <ele>670.4</ele>
        <time>2021-04-10T12:09:29Z</time>
      </trkpt>
      <trkpt lat="45.1561" lon="5.81244">
        <ele>670.6</ele>
        <time>2021-04-10T12:09:30Z</time>
      </trkpt>
      <trkpt lat="45.15614" lon="5.81239">
        <ele>670.8</ele>
        <time>2021-04-10T12:09:31Z</time>
      </trkpt>
      <trkpt lat="45.15614" lon="5.81239">
        <ele>671</ele>
        <time>2021-04-10T12:09:32Z</time>
      </trkpt>
      <trkpt lat="45.15614" lon="5.81239">
        <ele>671</ele>
        <time>2021-04-10T12:09:33Z</time>
      </trkpt>
      <trkpt lat="45.15614" lon="5.81239">
        <ele>671.4</ele>
        <time>2021-04-10T12:09:34Z</time>
      </trkpt>
      <trkpt lat="45.15615" lon="5.81236">
        <ele>671.6</ele>
        <time>2021-04-10T12:09:35Z</time>
      </trkpt>
      <trkpt lat="45.15617" lon="5.81234">
        <ele>671.6</ele>
        <time>2021-04-10T12:09:36Z</time>
      </trkpt>
      <trkpt lat="45.15619" lon="5.81232">
        <ele>672</ele>
        <time>2021-04-10T12:09:37Z</time>
      </trkpt>
      <trkpt lat="45.1562" lon="5.8123">
        <ele>672.2</ele>
        <time>2021-04-10T12:09:38Z</time>
      </trkpt>
      <trkpt lat="45.15622" lon="5.81228">
        <ele>672.2</ele>
        <time>2021-04-10T12:09:39Z</time>
      </trkpt>
      <trkpt lat="45.15623" lon="5.81227">
        <ele>672.2</ele>
        <time>2021-04-10T12:09:40Z</time>
      </trkpt>
      <trkpt lat="45.15624" lon="5.81225">
        <ele>672.4</ele>
        <time>2021-04-10T12:09:41Z</time>
      </trkpt>
      <trkpt lat="45.15625" lon="5.81223">
        <ele>672.6</ele>
        <time>2021-04-10T12:09:42Z</time>
      </trkpt>
      <trkpt lat="45.15626" lon="5.81222">
        <ele>672.8</ele>
        <time>2021-04-10T12:09:43Z</time>
      </trkpt>
      <trkpt lat="45.15627" lon="5.8122">
        <ele>673</ele>
        <time>2021-04-10T12:09:44Z</time>
      </trkpt>
      <trkpt lat="45.15628" lon="5.81219">
        <ele>673.2</ele>
        <time>2021-04-10T12:09:45Z</time>
      </trkpt>
      <trkpt lat="45.15629" lon="5.81217">
        <ele>673.6</ele>
        <time>2021-04-10T12:09:46Z</time>
      </trkpt>
      <trkpt lat="45.15625" lon="5.81219">
        <ele>673.8</ele>
        <time>2021-04-10T12:09:47Z</time>
      </trkpt>
      <trkpt lat="45.15621" lon="5.81221">
        <ele>673.8</ele>
        <time>2021-04-10T12:09:48Z</time>
      </trkpt>
      <trkpt lat="45.15618" lon="5.81223">
        <ele>673.8</ele>
        <time>2021-04-10T12:09:49Z</time>
      </trkpt>
      <trkpt lat="45.15614" lon="5.81225">
        <ele>674</ele>
        <time>2021-04-10T12:09:50Z</time>
      </trkpt>
      <trkpt lat="45.15611" lon="5.81227">
        <ele>674.4</ele>
        <time>2021-04-10T12:09:51Z</time>
      </trkpt>
      <trkpt lat="45.15607" lon="5.8123">
        <ele>674.8</ele>
        <time>2021-04-10T12:09:52Z</time>
      </trkpt>
      <trkpt lat="45.15604" lon="5.81229">
        <ele>675</ele>
        <time>2021-04-10T12:09:53Z</time>
      </trkpt>
      <trkpt lat="45.15601" lon="5.81229">
        <ele>675</ele>
        <time>2021-04-10T12:09:54Z</time>
      </trkpt>
      <trkpt lat="45.15598" lon="5.81229">
        <ele>675.2</ele>
        <time>2021-04-10T12:09:55Z</time>
      </trkpt>
      <trkpt lat="45.15597" lon="5.81227">
        <ele>675.6</ele>
        <time>2021-04-10T12:09:56Z</time>
      </trkpt>
      <trkpt lat="45.15595" lon="5.81225">
        <ele>675.8</ele>
        <time>2021-04-10T12:09:57Z</time>
      </trkpt>
      <trkpt lat="45.15593" lon="5.81222">
        <ele>676</ele>
        <time>2021-04-10T12:09:58Z</time>
      </trkpt>
      <trkpt lat="45.15591" lon="5.8122">
        <ele>676.2</ele>
        <time>2021-04-10T12:09:59Z</time>
      </trkpt>
      <trkpt lat="45.15591" lon="5.8122">
        <ele>676.8</ele>
        <time>2021-04-10T12:10:01Z</time>
      </trkpt>
      <trkpt lat="45.15591" lon="5.8122">
        <ele>676.8</ele>
        <time>2021-04-10T12:10:02Z</time>
      </trkpt>
      <trkpt lat="45.15592" lon="5.81218">
        <ele>676.8</ele>
        <time>2021-04-10T12:10:03Z</time>
      </trkpt>
      <trkpt lat="45.15592" lon="5.81216">
        <ele>677.2</ele>
        <time>2021-04-10T12:10:04Z</time>
      </trkpt>
      <trkpt lat="45.15592" lon="5.81214">
        <ele>677.2</ele>
        <time>2021-04-10T12:10:05Z</time>
      </trkpt>
      <trkpt lat="45.15593" lon="5.81212">
        <ele>677.6</ele>
        <time>2021-04-10T12:10:06Z</time>
      </trkpt>
      <trkpt lat="45.15593" lon="5.81209">
        <ele>678</ele>
        <time>2021-04-10T12:10:07Z</time>
      </trkpt>
      <trkpt lat="45.15593" lon="5.81207">
        <ele>678</ele>
        <time>2021-04-10T12:10:08Z</time>
      </trkpt>
      <trkpt lat="45.15593" lon="5.81205">
        <ele>678.2</ele>
        <time>2021-04-10T12:10:09Z</time>
      </trkpt>
      <trkpt lat="45.15593" lon="5.81204">
        <ele>678.2</ele>
        <time>2021-04-10T12:10:10Z</time>
      </trkpt>
      <trkpt lat="45.15593" lon="5.81202">
        <ele>678.6</ele>
        <time>2021-04-10T12:10:11Z</time>
      </trkpt>
      <trkpt lat="45.15593" lon="5.81201">
        <ele>679</ele>
        <time>2021-04-10T12:10:12Z</time>
      </trkpt>
      <trkpt lat="45.15593" lon="5.81199">
        <ele>679.2</ele>
        <time>2021-04-10T12:10:13Z</time>
      </trkpt>
      <trkpt lat="45.15593" lon="5.81197">
        <ele>679.4</ele>
        <time>2021-04-10T12:10:14Z</time>
      </trkpt>
      <trkpt lat="45.15593" lon="5.81196">
        <ele>679.4</ele>
        <time>2021-04-10T12:10:15Z</time>
      </trkpt>
      <trkpt lat="45.15593" lon="5.81194">
        <ele>679.8</ele>
        <time>2021-04-10T12:10:16Z</time>
      </trkpt>
      <trkpt lat="45.15594" lon="5.81192">
        <ele>680</ele>
        <time>2021-04-10T12:10:17Z</time>
      </trkpt>
      <trkpt lat="45.15594" lon="5.81191">
        <ele>680.2</ele>
        <time>2021-04-10T12:10:18Z</time>
      </trkpt>
      <trkpt lat="45.15594" lon="5.81189">
        <ele>680.4</ele>
        <time>2021-04-10T12:10:19Z</time>
      </trkpt>
      <trkpt lat="45.15595" lon="5.81188">
        <ele>680.6</ele>
        <time>2021-04-10T12:10:20Z</time>
      </trkpt>
      <trkpt lat="45.15595" lon="5.81186">
        <ele>680.8</ele>
        <time>2021-04-10T12:10:21Z</time>
      </trkpt>
      <trkpt lat="45.15595" lon="5.81184">
        <ele>680.8</ele>
        <time>2021-04-10T12:10:22Z</time>
      </trkpt>
      <trkpt lat="45.15596" lon="5.81183">
        <ele>680.8</ele>
        <time>2021-04-10T12:10:23Z</time>
      </trkpt>
      <trkpt lat="45.15596" lon="5.81181">
        <ele>680.8</ele>
        <time>2021-04-10T12:10:24Z</time>
      </trkpt>
      <trkpt lat="45.15596" lon="5.8118">
        <ele>681.2</ele>
        <time>2021-04-10T12:10:25Z</time>
      </trkpt>
      <trkpt lat="45.15597" lon="5.81179">
        <ele>681.4</ele>
        <time>2021-04-10T12:10:26Z</time>
      </trkpt>
      <trkpt lat="45.15597" lon="5.81178">
        <ele>681.4</ele>
        <time>2021-04-10T12:10:27Z</time>
      </trkpt>
      <trkpt lat="45.15598" lon="5.81177">
        <ele>681.6</ele>
        <time>2021-04-10T12:10:28Z</time>
      </trkpt>
      <trkpt lat="45.15598" lon="5.81176">
        <ele>681.8</ele>
        <time>2021-04-10T12:10:29Z</time>
      </trkpt>
      <trkpt lat="45.15599" lon="5.81175">
        <ele>682</ele>
        <time>2021-04-10T12:10:30Z</time>
      </trkpt>
      <trkpt lat="45.15599" lon="5.81174">
        <ele>682.2</ele>
        <time>2021-04-10T12:10:31Z</time>
      </trkpt>
      <trkpt lat="45.156" lon="5.81173">
        <ele>682.4</ele>
        <time>2021-04-10T12:10:32Z</time>
      </trkpt>
      <trkpt lat="45.156" lon="5.81172">
        <ele>682.8</ele>
        <time>2021-04-10T12:10:33Z</time>
      </trkpt>
      <trkpt lat="45.15601" lon="5.81172">
        <ele>683</ele>
        <time>2021-04-10T12:10:34Z</time>
      </trkpt>
      <trkpt lat="45.15601" lon="5.81171">
        <ele>683</ele>
        <time>2021-04-10T12:10:35Z</time>
      </trkpt>
      <trkpt lat="45.15602" lon="5.81169">
        <ele>683.2</ele>
        <time>2021-04-10T12:10:36Z</time>
      </trkpt>
      <trkpt lat="45.15602" lon="5.81168">
        <ele>683.4</ele>
        <time>2021-04-10T12:10:37Z</time>
      </trkpt>
      <trkpt lat="45.15602" lon="5.81167">
        <ele>683.4</ele>
        <time>2021-04-10T12:10:38Z</time>
      </trkpt>
      <trkpt lat="45.15603" lon="5.81166">
        <ele>683.6</ele>
        <time>2021-04-10T12:10:39Z</time>
      </trkpt>
      <trkpt lat="45.15603" lon="5.81164">
        <ele>683.8</ele>
        <time>2021-04-10T12:10:40Z</time>
      </trkpt>
      <trkpt lat="45.15603" lon="5.81163">
        <ele>684.2</ele>
        <time>2021-04-10T12:10:41Z</time>
      </trkpt>
      <trkpt lat="45.15604" lon="5.81162">
        <ele>684.6</ele>
        <time>2021-04-10T12:10:42Z</time>
      </trkpt>
      <trkpt lat="45.15604" lon="5.81161">
        <ele>684.8</ele>
        <time>2021-04-10T12:10:43Z</time>
      </trkpt>
      <trkpt lat="45.15604" lon="5.8116">
        <ele>684.8</ele>
        <time>2021-04-10T12:10:44Z</time>
      </trkpt>
      <trkpt lat="45.15605" lon="5.81158">
        <ele>685</ele>
        <time>2021-04-10T12:10:45Z</time>
      </trkpt>
      <trkpt lat="45.15605" lon="5.81157">
        <ele>685.2</ele>
        <time>2021-04-10T12:10:46Z</time>
      </trkpt>
      <trkpt lat="45.15606" lon="5.81156">
        <ele>685.4</ele>
        <time>2021-04-10T12:10:47Z</time>
      </trkpt>
      <trkpt lat="45.15607" lon="5.81155">
        <ele>685.4</ele>
        <time>2021-04-10T12:10:48Z</time>
      </trkpt>
      <trkpt lat="45.15608" lon="5.81154">
        <ele>685.6</ele>
        <time>2021-04-10T12:10:49Z</time>
      </trkpt>
      <trkpt lat="45.15609" lon="5.81153">
        <ele>686</ele>
        <time>2021-04-10T12:10:50Z</time>
      </trkpt>
      <trkpt lat="45.1561" lon="5.81152">
        <ele>686.2</ele>
        <time>2021-04-10T12:10:51Z</time>
      </trkpt>
      <trkpt lat="45.15611" lon="5.81151">
        <ele>686.4</ele>
        <time>2021-04-10T12:10:52Z</time>
      </trkpt>
      <trkpt lat="45.15612" lon="5.8115">
        <ele>686.8</ele>
        <time>2021-04-10T12:10:53Z</time>
      </trkpt>
      <trkpt lat="45.15613" lon="5.81149">
        <ele>686.8</ele>
        <time>2021-04-10T12:10:54Z</time>
      </trkpt>
      <trkpt lat="45.15613" lon="5.81148">
        <ele>687.2</ele>
        <time>2021-04-10T12:10:55Z</time>
      </trkpt>
      <trkpt lat="45.15614" lon="5.81146">
        <ele>687.4</ele>
        <time>2021-04-10T12:10:56Z</time>
      </trkpt>
      <trkpt lat="45.15615" lon="5.81145">
        <ele>687.6</ele>
        <time>2021-04-10T12:10:57Z</time>
      </trkpt>
      <trkpt lat="45.15616" lon="5.81143">
        <ele>687.8</ele>
        <time>2021-04-10T12:10:58Z</time>
      </trkpt>
      <trkpt lat="45.15616" lon="5.81142">
        <ele>688</ele>
        <time>2021-04-10T12:10:59Z</time>
      </trkpt>
      <trkpt lat="45.15617" lon="5.8114">
        <ele>688.4</ele>
        <time>2021-04-10T12:11:00Z</time>
      </trkpt>
      <trkpt lat="45.15618" lon="5.81139">
        <ele>688.6</ele>
        <time>2021-04-10T12:11:01Z</time>
      </trkpt>
      <trkpt lat="45.15618" lon="5.81137">
        <ele>689</ele>
        <time>2021-04-10T12:11:02Z</time>
      </trkpt>
      <trkpt lat="45.15619" lon="5.81137">
        <ele>689</ele>
        <time>2021-04-10T12:11:03Z</time>
      </trkpt>
      <trkpt lat="45.1562" lon="5.81136">
        <ele>689.2</ele>
        <time>2021-04-10T12:11:04Z</time>
      </trkpt>
      <trkpt lat="45.15621" lon="5.81136">
        <ele>689.6</ele>
        <time>2021-04-10T12:11:05Z</time>
      </trkpt>
      <trkpt lat="45.15622" lon="5.81135">
        <ele>689.6</ele>
        <time>2021-04-10T12:11:06Z</time>
      </trkpt>
      <trkpt lat="45.15623" lon="5.81135">
        <ele>689.8</ele>
        <time>2021-04-10T12:11:07Z</time>
      </trkpt>
      <trkpt lat="45.15623" lon="5.81134">
        <ele>690.2</ele>
        <time>2021-04-10T12:11:08Z</time>
      </trkpt>
      <trkpt lat="45.15624" lon="5.81134">
        <ele>690.2</ele>
        <time>2021-04-10T12:11:09Z</time>
      </trkpt>
      <trkpt lat="45.15625" lon="5.81133">
        <ele>690.4</ele>
        <time>2021-04-10T12:11:10Z</time>
      </trkpt>
      <trkpt lat="45.15626" lon="5.81133">
        <ele>690.4</ele>
        <time>2021-04-10T12:11:11Z</time>
      </trkpt>
      <trkpt lat="45.15627" lon="5.81132">
        <ele>690.6</ele>
        <time>2021-04-10T12:11:12Z</time>
      </trkpt>
      <trkpt lat="45.15627" lon="5.81131">
        <ele>691</ele>
        <time>2021-04-10T12:11:13Z</time>
      </trkpt>
      <trkpt lat="45.15626" lon="5.8113">
        <ele>691.4</ele>
        <time>2021-04-10T12:11:14Z</time>
      </trkpt>
      <trkpt lat="45.15626" lon="5.81129">
        <ele>691.6</ele>
        <time>2021-04-10T12:11:15Z</time>
      </trkpt>
      <trkpt lat="45.15626" lon="5.81128">
        <ele>691.8</ele>
        <time>2021-04-10T12:11:16Z</time>
      </trkpt>
      <trkpt lat="45.15626" lon="5.81127">
        <ele>691.8</ele>
        <time>2021-04-10T12:11:17Z</time>
      </trkpt>
      <trkpt lat="45.15626" lon="5.81126">
        <ele>692</ele>
        <time>2021-04-10T12:11:18Z</time>
      </trkpt>
      <trkpt lat="45.15625" lon="5.81125">
        <ele>692</ele>
        <time>2021-04-10T12:11:19Z</time>
      </trkpt>
      <trkpt lat="45.15625" lon="5.81124">
        <ele>692.2</ele>
        <time>2021-04-10T12:11:20Z</time>
      </trkpt>
      <trkpt lat="45.15625" lon="5.81123">
        <ele>692.4</ele>
        <time>2021-04-10T12:11:21Z</time>
      </trkpt>
      <trkpt lat="45.15625" lon="5.81122">
        <ele>692.8</ele>
        <time>2021-04-10T12:11:22Z</time>
      </trkpt>
      <trkpt lat="45.15625" lon="5.81121">
        <ele>693.2</ele>
        <time>2021-04-10T12:11:23Z</time>
      </trkpt>
      <trkpt lat="45.15624" lon="5.8112">
        <ele>693.2</ele>
        <time>2021-04-10T12:11:24Z</time>
      </trkpt>
      <trkpt lat="45.15624" lon="5.81119">
        <ele>693.6</ele>
        <time>2021-04-10T12:11:25Z</time>
      </trkpt>
      <trkpt lat="45.15624" lon="5.81118">
        <ele>693.6</ele>
        <time>2021-04-10T12:11:26Z</time>
      </trkpt>
      <trkpt lat="45.15624" lon="5.81117">
        <ele>693.8</ele>
        <time>2021-04-10T12:11:27Z</time>
      </trkpt>
      <trkpt lat="45.15623" lon="5.81116">
        <ele>694</ele>
        <time>2021-04-10T12:11:28Z</time>
      </trkpt>
      <trkpt lat="45.15623" lon="5.81114">
        <ele>694.2</ele>
        <time>2021-04-10T12:11:29Z</time>
      </trkpt>
      <trkpt lat="45.15622" lon="5.81113">
        <ele>694.4</ele>
        <time>2021-04-10T12:11:30Z</time>
      </trkpt>
      <trkpt lat="45.15622" lon="5.81112">
        <ele>694.4</ele>
        <time>2021-04-10T12:11:31Z</time>
      </trkpt>
      <trkpt lat="45.15621" lon="5.81111">
        <ele>694.8</ele>
        <time>2021-04-10T12:11:32Z</time>
      </trkpt>
      <trkpt lat="45.15621" lon="5.81109">
        <ele>695</ele>
        <time>2021-04-10T12:11:33Z</time>
      </trkpt>
      <trkpt lat="45.15621" lon="5.81108">
        <ele>695.4</ele>
        <time>2021-04-10T12:11:34Z</time>
      </trkpt>
      <trkpt lat="45.1562" lon="5.81107">
        <ele>695.6</ele>
        <time>2021-04-10T12:11:35Z</time>
      </trkpt>
      <trkpt lat="45.1562" lon="5.81105">
        <ele>695.6</ele>
        <time>2021-04-10T12:11:36Z</time>
      </trkpt>
      <trkpt lat="45.1562" lon="5.81103">
        <ele>695.8</ele>
        <time>2021-04-10T12:11:37Z</time>
      </trkpt>
      <trkpt lat="45.1562" lon="5.81101">
        <ele>696</ele>
        <time>2021-04-10T12:11:38Z</time>
      </trkpt>
      <trkpt lat="45.1562" lon="5.81099">
        <ele>696.2</ele>
        <time>2021-04-10T12:11:39Z</time>
      </trkpt>
      <trkpt lat="45.15619" lon="5.81097">
        <ele>696.4</ele>
        <time>2021-04-10T12:11:40Z</time>
      </trkpt>
      <trkpt lat="45.15619" lon="5.81095">
        <ele>696.6</ele>
        <time>2021-04-10T12:11:41Z</time>
      </trkpt>
      <trkpt lat="45.15619" lon="5.81093">
        <ele>696.8</ele>
        <time>2021-04-10T12:11:42Z</time>
      </trkpt>
      <trkpt lat="45.15619" lon="5.81092">
        <ele>697.2</ele>
        <time>2021-04-10T12:11:43Z</time>
      </trkpt>
      <trkpt lat="45.15619" lon="5.81091">
        <ele>697.4</ele>
        <time>2021-04-10T12:11:44Z</time>
      </trkpt>
      <trkpt lat="45.1562" lon="5.81089">
        <ele>697.8</ele>
        <time>2021-04-10T12:11:45Z</time>
      </trkpt>
      <trkpt lat="45.1562" lon="5.81088">
        <ele>697.8</ele>
        <time>2021-04-10T12:11:46Z</time>
      </trkpt>
      <trkpt lat="45.1562" lon="5.81087">
        <ele>698</ele>
        <time>2021-04-10T12:11:47Z</time>
      </trkpt>
      <trkpt lat="45.1562" lon="5.81085">
        <ele>698.2</ele>
        <time>2021-04-10T12:11:48Z</time>
      </trkpt>
      <trkpt lat="45.15621" lon="5.81084">
        <ele>698.4</ele>
        <time>2021-04-10T12:11:49Z</time>
      </trkpt>
      <trkpt lat="45.15621" lon="5.81083">
        <ele>698.8</ele>
        <time>2021-04-10T12:11:50Z</time>
      </trkpt>
      <trkpt lat="45.15621" lon="5.81082">
        <ele>699</ele>
        <time>2021-04-10T12:11:51Z</time>
      </trkpt>
      <trkpt lat="45.15621" lon="5.8108">
        <ele>699.4</ele>
        <time>2021-04-10T12:11:52Z</time>
      </trkpt>
      <trkpt lat="45.15622" lon="5.81079">
        <ele>699.6</ele>
        <time>2021-04-10T12:11:53Z</time>
      </trkpt>
      <trkpt lat="45.15622" lon="5.81078">
        <ele>699.8</ele>
        <time>2021-04-10T12:11:54Z</time>
      </trkpt>
      <trkpt lat="45.15622" lon="5.81077">
        <ele>699.8</ele>
        <time>2021-04-10T12:11:55Z</time>
      </trkpt>
      <trkpt lat="45.15623" lon="5.81076">
        <ele>699.8</ele>
        <time>2021-04-10T12:11:56Z</time>
      </trkpt>
      <trkpt lat="45.15623" lon="5.81076">
        <ele>700.2</ele>
        <time>2021-04-10T12:11:57Z</time>
      </trkpt>
      <trkpt lat="45.15623" lon="5.81075">
        <ele>700.4</ele>
        <time>2021-04-10T12:11:58Z</time>
      </trkpt>
      <trkpt lat="45.15624" lon="5.81074">
        <ele>700.6</ele>
        <time>2021-04-10T12:11:59Z</time>
      </trkpt>
      <trkpt lat="45.15624" lon="5.81073">
        <ele>701</ele>
        <time>2021-04-10T12:12:00Z</time>
      </trkpt>
      <trkpt lat="45.15624" lon="5.81072">
        <ele>701.2</ele>
        <time>2021-04-10T12:12:01Z</time>
      </trkpt>
      <trkpt lat="45.15624" lon="5.81071">
        <ele>701.2</ele>
        <time>2021-04-10T12:12:02Z</time>
      </trkpt>
      <trkpt lat="45.15625" lon="5.8107">
        <ele>701.4</ele>
        <time>2021-04-10T12:12:03Z</time>
      </trkpt>
      <trkpt lat="45.15625" lon="5.81069">
        <ele>701.6</ele>
        <time>2021-04-10T12:12:04Z</time>
      </trkpt>
      <trkpt lat="45.15625" lon="5.81068">
        <ele>702</ele>
        <time>2021-04-10T12:12:05Z</time>
      </trkpt>
      <trkpt lat="45.15625" lon="5.81066">
        <ele>702.4</ele>
        <time>2021-04-10T12:12:06Z</time>
      </trkpt>
      <trkpt lat="45.15625" lon="5.81065">
        <ele>702.4</ele>
        <time>2021-04-10T12:12:07Z</time>
      </trkpt>
      <trkpt lat="45.15625" lon="5.81063">
        <ele>702.6</ele>
        <time>2021-04-10T12:12:08Z</time>
      </trkpt>
      <trkpt lat="45.15625" lon="5.81061">
        <ele>703</ele>
        <time>2021-04-10T12:12:09Z</time>
      </trkpt>
      <trkpt lat="45.15624" lon="5.81059">
        <ele>703</ele>
        <time>2021-04-10T12:12:10Z</time>
      </trkpt>
      <trkpt lat="45.15624" lon="5.81057">
        <ele>703.2</ele>
        <time>2021-04-10T12:12:11Z</time>
      </trkpt>
      <trkpt lat="45.15624" lon="5.81056">
        <ele>703.4</ele>
        <time>2021-04-10T12:12:12Z</time>
      </trkpt>
      <trkpt lat="45.15624" lon="5.81054">
        <ele>703.6</ele>
        <time>2021-04-10T12:12:13Z</time>
      </trkpt>
      <trkpt lat="45.15624" lon="5.81052">
        <ele>703.8</ele>
        <time>2021-04-10T12:12:14Z</time>
      </trkpt>
      <trkpt lat="45.15624" lon="5.81051">
        <ele>704.2</ele>
        <time>2021-04-10T12:12:15Z</time>
      </trkpt>
      <trkpt lat="45.15623" lon="5.8105">
        <ele>704.2</ele>
        <time>2021-04-10T12:12:16Z</time>
      </trkpt>
      <trkpt lat="45.15623" lon="5.81048">
        <ele>704.6</ele>
        <time>2021-04-10T12:12:17Z</time>
      </trkpt>
      <trkpt lat="45.15623" lon="5.81047">
        <ele>704.6</ele>
        <time>2021-04-10T12:12:18Z</time>
      </trkpt>
      <trkpt lat="45.15623" lon="5.81045">
        <ele>704.8</ele>
        <time>2021-04-10T12:12:19Z</time>
      </trkpt>
      <trkpt lat="45.15623" lon="5.81044">
        <ele>705</ele>
        <time>2021-04-10T12:12:20Z</time>
      </trkpt>
      <trkpt lat="45.15623" lon="5.81042">
        <ele>705.2</ele>
        <time>2021-04-10T12:12:21Z</time>
      </trkpt>
      <trkpt lat="45.15623" lon="5.81041">
        <ele>705.4</ele>
        <time>2021-04-10T12:12:22Z</time>
      </trkpt>
      <trkpt lat="45.15623" lon="5.8104">
        <ele>705.8</ele>
        <time>2021-04-10T12:12:23Z</time>
      </trkpt>
      <trkpt lat="45.15622" lon="5.81038">
        <ele>706</ele>
        <time>2021-04-10T12:12:24Z</time>
      </trkpt>
      <trkpt lat="45.15622" lon="5.81037">
        <ele>706.2</ele>
        <time>2021-04-10T12:12:25Z</time>
      </trkpt>
      <trkpt lat="45.15622" lon="5.81036">
        <ele>706.2</ele>
        <time>2021-04-10T12:12:26Z</time>
      </trkpt>
      <trkpt lat="45.15621" lon="5.81035">
        <ele>706.4</ele>
        <time>2021-04-10T12:12:27Z</time>
      </trkpt>
      <trkpt lat="45.15621" lon="5.81033">
        <ele>706.4</ele>
        <time>2021-04-10T12:12:28Z</time>
      </trkpt>
      <trkpt lat="45.15621" lon="5.81032">
        <ele>706.8</ele>
        <time>2021-04-10T12:12:29Z</time>
      </trkpt>
      <trkpt lat="45.1562" lon="5.81031">
        <ele>706.8</ele>
        <time>2021-04-10T12:12:30Z</time>
      </trkpt>
      <trkpt lat="45.1562" lon="5.8103">
        <ele>707.2</ele>
        <time>2021-04-10T12:12:31Z</time>
      </trkpt>
      <trkpt lat="45.1562" lon="5.81028">
        <ele>707.8</ele>
        <time>2021-04-10T12:12:32Z</time>
      </trkpt>
      <trkpt lat="45.1562" lon="5.81027">
        <ele>708</ele>
        <time>2021-04-10T12:12:33Z</time>
      </trkpt>
      <trkpt lat="45.15621" lon="5.81027">
        <ele>708</ele>
        <time>2021-04-10T12:12:34Z</time>
      </trkpt>
      <trkpt lat="45.15621" lon="5.81026">
        <ele>708.4</ele>
        <time>2021-04-10T12:12:35Z</time>
      </trkpt>
      <trkpt lat="45.15622" lon="5.81025">
        <ele>708.8</ele>
        <time>2021-04-10T12:12:36Z</time>
      </trkpt>
      <trkpt lat="45.15622" lon="5.81024">
        <ele>709</ele>
        <time>2021-04-10T12:12:37Z</time>
      </trkpt>
      <trkpt lat="45.15623" lon="5.81023">
        <ele>709</ele>
        <time>2021-04-10T12:12:38Z</time>
      </trkpt>
      <trkpt lat="45.15623" lon="5.81022">
        <ele>709.4</ele>
        <time>2021-04-10T12:12:39Z</time>
      </trkpt>
      <trkpt lat="45.15623" lon="5.81021">
        <ele>709.6</ele>
        <time>2021-04-10T12:12:40Z</time>
      </trkpt>
      <trkpt lat="45.15624" lon="5.8102">
        <ele>709.8</ele>
        <time>2021-04-10T12:12:41Z</time>
      </trkpt>
      <trkpt lat="45.15624" lon="5.81019">
        <ele>710</ele>
        <time>2021-04-10T12:12:42Z</time>
      </trkpt>
      <trkpt lat="45.15625" lon="5.81018">
        <ele>710</ele>
        <time>2021-04-10T12:12:43Z</time>
      </trkpt>
      <trkpt lat="45.15625" lon="5.81016">
        <ele>710.4</ele>
        <time>2021-04-10T12:12:44Z</time>
      </trkpt>
      <trkpt lat="45.15625" lon="5.81015">
        <ele>710.6</ele>
        <time>2021-04-10T12:12:45Z</time>
      </trkpt>
      <trkpt lat="45.15625" lon="5.81014">
        <ele>711</ele>
        <time>2021-04-10T12:12:46Z</time>
      </trkpt>
      <trkpt lat="45.15625" lon="5.81012">
        <ele>711.4</ele>
        <time>2021-04-10T12:12:47Z</time>
      </trkpt>
      <trkpt lat="45.15625" lon="5.81011">
        <ele>711.6</ele>
        <time>2021-04-10T12:12:48Z</time>
      </trkpt>
      <trkpt lat="45.15625" lon="5.81009">
        <ele>711.8</ele>
        <time>2021-04-10T12:12:49Z</time>
      </trkpt>
      <trkpt lat="45.15625" lon="5.81008">
        <ele>711.6</ele>
        <time>2021-04-10T12:12:50Z</time>
      </trkpt>
      <trkpt lat="45.15625" lon="5.81006">
        <ele>711.8</ele>
        <time>2021-04-10T12:12:51Z</time>
      </trkpt>
      <trkpt lat="45.15625" lon="5.81005">
        <ele>712</ele>
        <time>2021-04-10T12:12:52Z</time>
      </trkpt>
      <trkpt lat="45.15625" lon="5.81003">
        <ele>712.2</ele>
        <time>2021-04-10T12:12:53Z</time>
      </trkpt>
      <trkpt lat="45.15624" lon="5.81002">
        <ele>712.4</ele>
        <time>2021-04-10T12:12:54Z</time>
      </trkpt>
      <trkpt lat="45.15624" lon="5.81">
        <ele>712.8</ele>
        <time>2021-04-10T12:12:55Z</time>
      </trkpt>
      <trkpt lat="45.15624" lon="5.80999">
        <ele>713.2</ele>
        <time>2021-04-10T12:12:56Z</time>
      </trkpt>
      <trkpt lat="45.15624" lon="5.80997">
        <ele>713.4</ele>
        <time>2021-04-10T12:12:57Z</time>
      </trkpt>
      <trkpt lat="45.15624" lon="5.80996">
        <ele>713.6</ele>
        <time>2021-04-10T12:12:58Z</time>
      </trkpt>
      <trkpt lat="45.15623" lon="5.80994">
        <ele>713.8</ele>
        <time>2021-04-10T12:12:59Z</time>
      </trkpt>
      <trkpt lat="45.15623" lon="5.80993">
        <ele>713.8</ele>
        <time>2021-04-10T12:13:00Z</time>
      </trkpt>
      <trkpt lat="45.15623" lon="5.80991">
        <ele>714.2</ele>
        <time>2021-04-10T12:13:01Z</time>
      </trkpt>
      <trkpt lat="45.15623" lon="5.8099">
        <ele>714.2</ele>
        <time>2021-04-10T12:13:02Z</time>
      </trkpt>
      <trkpt lat="45.15622" lon="5.80989">
        <ele>714.4</ele>
        <time>2021-04-10T12:13:03Z</time>
      </trkpt>
      <trkpt lat="45.15622" lon="5.80988">
        <ele>714.6</ele>
        <time>2021-04-10T12:13:04Z</time>
      </trkpt>
      <trkpt lat="45.15622" lon="5.80987">
        <ele>715</ele>
        <time>2021-04-10T12:13:05Z</time>
      </trkpt>
      <trkpt lat="45.15621" lon="5.80985">
        <ele>715</ele>
        <time>2021-04-10T12:13:06Z</time>
      </trkpt>
      <trkpt lat="45.15621" lon="5.80984">
        <ele>715.2</ele>
        <time>2021-04-10T12:13:07Z</time>
      </trkpt>
      <trkpt lat="45.15621" lon="5.80983">
        <ele>715.4</ele>
        <time>2021-04-10T12:13:08Z</time>
      </trkpt>
      <trkpt lat="45.1562" lon="5.80982">
        <ele>715.6</ele>
        <time>2021-04-10T12:13:09Z</time>
      </trkpt>
      <trkpt lat="45.1562" lon="5.80981">
        <ele>715.8</ele>
        <time>2021-04-10T12:13:10Z</time>
      </trkpt>
      <trkpt lat="45.1562" lon="5.8098">
        <ele>716</ele>
        <time>2021-04-10T12:13:11Z</time>
      </trkpt>
      <trkpt lat="45.15619" lon="5.80979">
        <ele>716.2</ele>
        <time>2021-04-10T12:13:12Z</time>
      </trkpt>
      <trkpt lat="45.15619" lon="5.80977">
        <ele>716.6</ele>
        <time>2021-04-10T12:13:13Z</time>
      </trkpt>
      <trkpt lat="45.15618" lon="5.80975">
        <ele>716.8</ele>
        <time>2021-04-10T12:13:14Z</time>
      </trkpt>
      <trkpt lat="45.15617" lon="5.80973">
        <ele>717</ele>
        <time>2021-04-10T12:13:15Z</time>
      </trkpt>
      <trkpt lat="45.15616" lon="5.80971">
        <ele>717.2</ele>
        <time>2021-04-10T12:13:16Z</time>
      </trkpt>
      <trkpt lat="45.15616" lon="5.80969">
        <ele>717.4</ele>
        <time>2021-04-10T12:13:17Z</time>
      </trkpt>
      <trkpt lat="45.15615" lon="5.80967">
        <ele>717.8</ele>
        <time>2021-04-10T12:13:18Z</time>
      </trkpt>
      <trkpt lat="45.15615" lon="5.80966">
        <ele>718</ele>
        <time>2021-04-10T12:13:19Z</time>
      </trkpt>
      <trkpt lat="45.15616" lon="5.80964">
        <ele>718.2</ele>
        <time>2021-04-10T12:13:20Z</time>
      </trkpt>
      <trkpt lat="45.15616" lon="5.80963">
        <ele>718.6</ele>
        <time>2021-04-10T12:13:21Z</time>
      </trkpt>
      <trkpt lat="45.15617" lon="5.80961">
        <ele>718.6</ele>
        <time>2021-04-10T12:13:22Z</time>
      </trkpt>
      <trkpt lat="45.15617" lon="5.8096">
        <ele>718.8</ele>
        <time>2021-04-10T12:13:23Z</time>
      </trkpt>
      <trkpt lat="45.15618" lon="5.80959">
        <ele>719.2</ele>
        <time>2021-04-10T12:13:24Z</time>
      </trkpt>
      <trkpt lat="45.15618" lon="5.80957">
        <ele>719.2</ele>
        <time>2021-04-10T12:13:25Z</time>
      </trkpt>
      <trkpt lat="45.15619" lon="5.80956">
        <ele>719.6</ele>
        <time>2021-04-10T12:13:26Z</time>
      </trkpt>
      <trkpt lat="45.15619" lon="5.80954">
        <ele>719.8</ele>
        <time>2021-04-10T12:13:27Z</time>
      </trkpt>
      <trkpt lat="45.15618" lon="5.80953">
        <ele>719.6</ele>
        <time>2021-04-10T12:13:28Z</time>
      </trkpt>
      <trkpt lat="45.15617" lon="5.80951">
        <ele>720</ele>
        <time>2021-04-10T12:13:29Z</time>
      </trkpt>
      <trkpt lat="45.15616" lon="5.8095">
        <ele>720.2</ele>
        <time>2021-04-10T12:13:30Z</time>
      </trkpt>
      <trkpt lat="45.15614" lon="5.80948">
        <ele>720.6</ele>
        <time>2021-04-10T12:13:31Z</time>
      </trkpt>
      <trkpt lat="45.15613" lon="5.80946">
        <ele>721</ele>
        <time>2021-04-10T12:13:32Z</time>
      </trkpt>
      <trkpt lat="45.15612" lon="5.80945">
        <ele>721.2</ele>
        <time>2021-04-10T12:13:33Z</time>
      </trkpt>
      <trkpt lat="45.15611" lon="5.80944">
        <ele>721.6</ele>
        <time>2021-04-10T12:13:34Z</time>
      </trkpt>
      <trkpt lat="45.15611" lon="5.80943">
        <ele>721.6</ele>
        <time>2021-04-10T12:13:35Z</time>
      </trkpt>
      <trkpt lat="45.1561" lon="5.80942">
        <ele>721.6</ele>
        <time>2021-04-10T12:13:36Z</time>
      </trkpt>
      <trkpt lat="45.15609" lon="5.80941">
        <ele>722</ele>
        <time>2021-04-10T12:13:37Z</time>
      </trkpt>
      <trkpt lat="45.15609" lon="5.8094">
        <ele>722.2</ele>
        <time>2021-04-10T12:13:38Z</time>
      </trkpt>
      <trkpt lat="45.15608" lon="5.80939">
        <ele>722.4</ele>
        <time>2021-04-10T12:13:39Z</time>
      </trkpt>
      <trkpt lat="45.15608" lon="5.80938">
        <ele>722.6</ele>
        <time>2021-04-10T12:13:40Z</time>
      </trkpt>
      <trkpt lat="45.15607" lon="5.80937">
        <ele>723</ele>
        <time>2021-04-10T12:13:41Z</time>
      </trkpt>
      <trkpt lat="45.15606" lon="5.80936">
        <ele>723.2</ele>
        <time>2021-04-10T12:13:42Z</time>
      </trkpt>
      <trkpt lat="45.15606" lon="5.80935">
        <ele>723.2</ele>
        <time>2021-04-10T12:13:43Z</time>
      </trkpt>
      <trkpt lat="45.15606" lon="5.80934">
        <ele>723.4</ele>
        <time>2021-04-10T12:13:44Z</time>
      </trkpt>
      <trkpt lat="45.15606" lon="5.80932">
        <ele>723.8</ele>
        <time>2021-04-10T12:13:45Z</time>
      </trkpt>
      <trkpt lat="45.15605" lon="5.80931">
        <ele>724</ele>
        <time>2021-04-10T12:13:46Z</time>
      </trkpt>
      <trkpt lat="45.15605" lon="5.80929">
        <ele>724.2</ele>
        <time>2021-04-10T12:13:47Z</time>
      </trkpt>
      <trkpt lat="45.15605" lon="5.80928">
        <ele>724.4</ele>
        <time>2021-04-10T12:13:48Z</time>
      </trkpt>
      <trkpt lat="45.15605" lon="5.80926">
        <ele>724.4</ele>
        <time>2021-04-10T12:13:49Z</time>
      </trkpt>
      <trkpt lat="45.15605" lon="5.80925">
        <ele>724.6</ele>
        <time>2021-04-10T12:13:50Z</time>
      </trkpt>
      <trkpt lat="45.15605" lon="5.80923">
        <ele>724.6</ele>
        <time>2021-04-10T12:13:51Z</time>
      </trkpt>
      <trkpt lat="45.15605" lon="5.80922">
        <ele>725</ele>
        <time>2021-04-10T12:13:52Z</time>
      </trkpt>
      <trkpt lat="45.15605" lon="5.80921">
        <ele>725</ele>
        <time>2021-04-10T12:13:53Z</time>
      </trkpt>
      <trkpt lat="45.15606" lon="5.8092">
        <ele>725.2</ele>
        <time>2021-04-10T12:13:54Z</time>
      </trkpt>
      <trkpt lat="45.15606" lon="5.80919">
        <ele>725.2</ele>
        <time>2021-04-10T12:13:55Z</time>
      </trkpt>
      <trkpt lat="45.15607" lon="5.80918">
        <ele>725.6</ele>
        <time>2021-04-10T12:13:56Z</time>
      </trkpt>
      <trkpt lat="45.15607" lon="5.80918">
        <ele>726</ele>
        <time>2021-04-10T12:13:57Z</time>
      </trkpt>
      <trkpt lat="45.15608" lon="5.80917">
        <ele>726</ele>
        <time>2021-04-10T12:13:58Z</time>
      </trkpt>
      <trkpt lat="45.15608" lon="5.80916">
        <ele>726.4</ele>
        <time>2021-04-10T12:13:59Z</time>
      </trkpt>
      <trkpt lat="45.15609" lon="5.80915">
        <ele>726.6</ele>
        <time>2021-04-10T12:14:00Z</time>
      </trkpt>
      <trkpt lat="45.15609" lon="5.80914">
        <ele>726.8</ele>
        <time>2021-04-10T12:14:01Z</time>
      </trkpt>
      <trkpt lat="45.15609" lon="5.80913">
        <ele>727</ele>
        <time>2021-04-10T12:14:02Z</time>
      </trkpt>
      <trkpt lat="45.1561" lon="5.80913">
        <ele>727.4</ele>
        <time>2021-04-10T12:14:03Z</time>
      </trkpt>
      <trkpt lat="45.1561" lon="5.80912">
        <ele>727.4</ele>
        <time>2021-04-10T12:14:04Z</time>
      </trkpt>
      <trkpt lat="45.15611" lon="5.80911">
        <ele>727.6</ele>
        <time>2021-04-10T12:14:05Z</time>
      </trkpt>
      <trkpt lat="45.15611" lon="5.8091">
        <ele>727.8</ele>
        <time>2021-04-10T12:14:06Z</time>
      </trkpt>
      <trkpt lat="45.15611" lon="5.80909">
        <ele>728</ele>
        <time>2021-04-10T12:14:07Z</time>
      </trkpt>
      <trkpt lat="45.1561" lon="5.80908">
        <ele>728.2</ele>
        <time>2021-04-10T12:14:08Z</time>
      </trkpt>
      <trkpt lat="45.15609" lon="5.80907">
        <ele>728.4</ele>
        <time>2021-04-10T12:14:09Z</time>
      </trkpt>
      <trkpt lat="45.15608" lon="5.80906">
        <ele>728.6</ele>
        <time>2021-04-10T12:14:10Z</time>
      </trkpt>
      <trkpt lat="45.15608" lon="5.80905">
        <ele>728.8</ele>
        <time>2021-04-10T12:14:11Z</time>
      </trkpt>
      <trkpt lat="45.15607" lon="5.80904">
        <ele>729</ele>
        <time>2021-04-10T12:14:12Z</time>
      </trkpt>
      <trkpt lat="45.15606" lon="5.80903">
        <ele>729.2</ele>
        <time>2021-04-10T12:14:13Z</time>
      </trkpt>
      <trkpt lat="45.15606" lon="5.80902">
        <ele>729.6</ele>
        <time>2021-04-10T12:14:14Z</time>
      </trkpt>
      <trkpt lat="45.15605" lon="5.80901">
        <ele>729.8</ele>
        <time>2021-04-10T12:14:15Z</time>
      </trkpt>
      <trkpt lat="45.15604" lon="5.809">
        <ele>729.8</ele>
        <time>2021-04-10T12:14:16Z</time>
      </trkpt>
      <trkpt lat="45.15604" lon="5.80899">
        <ele>730</ele>
        <time>2021-04-10T12:14:17Z</time>
      </trkpt>
      <trkpt lat="45.15603" lon="5.80898">
        <ele>730.4</ele>
        <time>2021-04-10T12:14:18Z</time>
      </trkpt>
      <trkpt lat="45.15603" lon="5.80897">
        <ele>730.6</ele>
        <time>2021-04-10T12:14:19Z</time>
      </trkpt>
      <trkpt lat="45.15602" lon="5.80896">
        <ele>730.6</ele>
        <time>2021-04-10T12:14:20Z</time>
      </trkpt>
      <trkpt lat="45.15602" lon="5.80895">
        <ele>731</ele>
        <time>2021-04-10T12:14:21Z</time>
      </trkpt>
      <trkpt lat="45.15601" lon="5.80893">
        <ele>731</ele>
        <time>2021-04-10T12:14:22Z</time>
      </trkpt>
      <trkpt lat="45.15601" lon="5.80892">
        <ele>731.2</ele>
        <time>2021-04-10T12:14:23Z</time>
      </trkpt>
      <trkpt lat="45.156" lon="5.80891">
        <ele>731.2</ele>
        <time>2021-04-10T12:14:24Z</time>
      </trkpt>
      <trkpt lat="45.156" lon="5.8089">
        <ele>731.6</ele>
        <time>2021-04-10T12:14:25Z</time>
      </trkpt>
      <trkpt lat="45.15599" lon="5.80889">
        <ele>731.8</ele>
        <time>2021-04-10T12:14:26Z</time>
      </trkpt>
      <trkpt lat="45.15599" lon="5.80888">
        <ele>732</ele>
        <time>2021-04-10T12:14:27Z</time>
      </trkpt>
      <trkpt lat="45.15599" lon="5.80886">
        <ele>732.2</ele>
        <time>2021-04-10T12:14:28Z</time>
      </trkpt>
      <trkpt lat="45.15598" lon="5.80884">
        <ele>732.4</ele>
        <time>2021-04-10T12:14:29Z</time>
      </trkpt>
      <trkpt lat="45.15598" lon="5.80882">
        <ele>732.6</ele>
        <time>2021-04-10T12:14:30Z</time>
      </trkpt>
      <trkpt lat="45.15598" lon="5.8088">
        <ele>732.8</ele>
        <time>2021-04-10T12:14:31Z</time>
      </trkpt>
      <trkpt lat="45.15598" lon="5.80879">
        <ele>733.2</ele>
        <time>2021-04-10T12:14:32Z</time>
      </trkpt>
      <trkpt lat="45.15598" lon="5.80877">
        <ele>733.6</ele>
        <time>2021-04-10T12:14:33Z</time>
      </trkpt>
      <trkpt lat="45.15598" lon="5.80875">
        <ele>734</ele>
        <time>2021-04-10T12:14:34Z</time>
      </trkpt>
      <trkpt lat="45.15597" lon="5.80873">
        <ele>734.2</ele>
        <time>2021-04-10T12:14:35Z</time>
      </trkpt>
      <trkpt lat="45.15597" lon="5.80871">
        <ele>734.6</ele>
        <time>2021-04-10T12:14:36Z</time>
      </trkpt>
      <trkpt lat="45.15596" lon="5.8087">
        <ele>735</ele>
        <time>2021-04-10T12:14:37Z</time>
      </trkpt>
      <trkpt lat="45.15595" lon="5.80868">
        <ele>735.2</ele>
        <time>2021-04-10T12:14:38Z</time>
      </trkpt>
      <trkpt lat="45.15594" lon="5.80867">
        <ele>735.2</ele>
        <time>2021-04-10T12:14:39Z</time>
      </trkpt>
      <trkpt lat="45.15594" lon="5.80865">
        <ele>735.4</ele>
        <time>2021-04-10T12:14:40Z</time>
      </trkpt>
      <trkpt lat="45.15593" lon="5.80864">
        <ele>735.6</ele>
        <time>2021-04-10T12:14:41Z</time>
      </trkpt>
      <trkpt lat="45.15592" lon="5.80862">
        <ele>735.8</ele>
        <time>2021-04-10T12:14:42Z</time>
      </trkpt>
      <trkpt lat="45.15592" lon="5.80861">
        <ele>736.2</ele>
        <time>2021-04-10T12:14:43Z</time>
      </trkpt>
      <trkpt lat="45.15592" lon="5.80859">
        <ele>736.2</ele>
        <time>2021-04-10T12:14:44Z</time>
      </trkpt>
      <trkpt lat="45.15592" lon="5.80858">
        <ele>736.4</ele>
        <time>2021-04-10T12:14:45Z</time>
      </trkpt>
      <trkpt lat="45.15592" lon="5.80856">
        <ele>736.4</ele>
        <time>2021-04-10T12:14:46Z</time>
      </trkpt>
      <trkpt lat="45.15592" lon="5.80855">
        <ele>736.6</ele>
        <time>2021-04-10T12:14:47Z</time>
      </trkpt>
      <trkpt lat="45.15592" lon="5.80853">
        <ele>737</ele>
        <time>2021-04-10T12:14:48Z</time>
      </trkpt>
      <trkpt lat="45.15592" lon="5.80852">
        <ele>737.2</ele>
        <time>2021-04-10T12:14:49Z</time>
      </trkpt>
      <trkpt lat="45.15592" lon="5.80851">
        <ele>737.2</ele>
        <time>2021-04-10T12:14:50Z</time>
      </trkpt>
      <trkpt lat="45.15592" lon="5.80849">
        <ele>737.4</ele>
        <time>2021-04-10T12:14:51Z</time>
      </trkpt>
      <trkpt lat="45.15592" lon="5.80848">
        <ele>737.4</ele>
        <time>2021-04-10T12:14:52Z</time>
      </trkpt>
      <trkpt lat="45.15592" lon="5.80847">
        <ele>737.8</ele>
        <time>2021-04-10T12:14:53Z</time>
      </trkpt>
      <trkpt lat="45.15592" lon="5.80846">
        <ele>737.8</ele>
        <time>2021-04-10T12:14:54Z</time>
      </trkpt>
      <trkpt lat="45.15592" lon="5.80845">
        <ele>738</ele>
        <time>2021-04-10T12:14:55Z</time>
      </trkpt>
      <trkpt lat="45.15592" lon="5.80844">
        <ele>738.4</ele>
        <time>2021-04-10T12:14:56Z</time>
      </trkpt>
      <trkpt lat="45.15592" lon="5.80843">
        <ele>738.4</ele>
        <time>2021-04-10T12:14:57Z</time>
      </trkpt>
      <trkpt lat="45.15592" lon="5.80842">
        <ele>738.2</ele>
        <time>2021-04-10T12:14:58Z</time>
      </trkpt>
      <trkpt lat="45.15592" lon="5.80841">
        <ele>738.4</ele>
        <time>2021-04-10T12:14:59Z</time>
      </trkpt>
      <trkpt lat="45.15592" lon="5.8084">
        <ele>738.6</ele>
        <time>2021-04-10T12:15:00Z</time>
      </trkpt>
      <trkpt lat="45.15592" lon="5.80839">
        <ele>738.8</ele>
        <time>2021-04-10T12:15:01Z</time>
      </trkpt>
      <trkpt lat="45.15592" lon="5.80838">
        <ele>739</ele>
        <time>2021-04-10T12:15:02Z</time>
      </trkpt>
      <trkpt lat="45.15592" lon="5.80837">
        <ele>739.2</ele>
        <time>2021-04-10T12:15:03Z</time>
      </trkpt>
      <trkpt lat="45.15592" lon="5.80836">
        <ele>739.4</ele>
        <time>2021-04-10T12:15:04Z</time>
      </trkpt>
      <trkpt lat="45.15592" lon="5.80833">
        <ele>739.4</ele>
        <time>2021-04-10T12:15:05Z</time>
      </trkpt>
      <trkpt lat="45.15593" lon="5.80831">
        <ele>739.6</ele>
        <time>2021-04-10T12:15:06Z</time>
      </trkpt>
      <trkpt lat="45.15593" lon="5.80829">
        <ele>739.6</ele>
        <time>2021-04-10T12:15:07Z</time>
      </trkpt>
      <trkpt lat="45.15593" lon="5.80827">
        <ele>739.8</ele>
        <time>2021-04-10T12:15:08Z</time>
      </trkpt>
      <trkpt lat="45.15594" lon="5.80825">
        <ele>740.2</ele>
        <time>2021-04-10T12:15:09Z</time>
      </trkpt>
      <trkpt lat="45.15594" lon="5.80822">
        <ele>740.6</ele>
        <time>2021-04-10T12:15:10Z</time>
      </trkpt>
      <trkpt lat="45.15594" lon="5.80821">
        <ele>740.6</ele>
        <time>2021-04-10T12:15:11Z</time>
      </trkpt>
      <trkpt lat="45.15595" lon="5.80819">
        <ele>740.6</ele>
        <time>2021-04-10T12:15:12Z</time>
      </trkpt>
      <trkpt lat="45.15595" lon="5.80818">
        <ele>740.8</ele>
        <time>2021-04-10T12:15:13Z</time>
      </trkpt>
      <trkpt lat="45.15595" lon="5.80816">
        <ele>740.8</ele>
        <time>2021-04-10T12:15:14Z</time>
      </trkpt>
      <trkpt lat="45.15595" lon="5.80814">
        <ele>741</ele>
        <time>2021-04-10T12:15:15Z</time>
      </trkpt>
      <trkpt lat="45.15595" lon="5.80813">
        <ele>741.2</ele>
        <time>2021-04-10T12:15:16Z</time>
      </trkpt>
      <trkpt lat="45.15595" lon="5.80811">
        <ele>741.4</ele>
        <time>2021-04-10T12:15:17Z</time>
      </trkpt>
      <trkpt lat="45.15595" lon="5.80809">
        <ele>741.6</ele>
        <time>2021-04-10T12:15:18Z</time>
      </trkpt>
      <trkpt lat="45.15595" lon="5.80808">
        <ele>742</ele>
        <time>2021-04-10T12:15:19Z</time>
      </trkpt>
      <trkpt lat="45.15594" lon="5.80806">
        <ele>742.2</ele>
        <time>2021-04-10T12:15:20Z</time>
      </trkpt>
      <trkpt lat="45.15593" lon="5.80805">
        <ele>742.2</ele>
        <time>2021-04-10T12:15:21Z</time>
      </trkpt>
      <trkpt lat="45.15592" lon="5.80803">
        <ele>742.4</ele>
        <time>2021-04-10T12:15:22Z</time>
      </trkpt>
      <trkpt lat="45.15591" lon="5.80801">
        <ele>742.4</ele>
        <time>2021-04-10T12:15:23Z</time>
      </trkpt>
      <trkpt lat="45.15591" lon="5.808">
        <ele>742.6</ele>
        <time>2021-04-10T12:15:24Z</time>
      </trkpt>
      <trkpt lat="45.1559" lon="5.80798">
        <ele>742.6</ele>
        <time>2021-04-10T12:15:25Z</time>
      </trkpt>
      <trkpt lat="45.1559" lon="5.80797">
        <ele>742.8</ele>
        <time>2021-04-10T12:15:26Z</time>
      </trkpt>
      <trkpt lat="45.15589" lon="5.80795">
        <ele>742.6</ele>
        <time>2021-04-10T12:15:27Z</time>
      </trkpt>
      <trkpt lat="45.15589" lon="5.80794">
        <ele>742.8</ele>
        <time>2021-04-10T12:15:28Z</time>
      </trkpt>
      <trkpt lat="45.15589" lon="5.80793">
        <ele>743</ele>
        <time>2021-04-10T12:15:29Z</time>
      </trkpt>
      <trkpt lat="45.15588" lon="5.80791">
        <ele>743.2</ele>
        <time>2021-04-10T12:15:30Z</time>
      </trkpt>
      <trkpt lat="45.15588" lon="5.8079">
        <ele>743.2</ele>
        <time>2021-04-10T12:15:31Z</time>
      </trkpt>
      <trkpt lat="45.15588" lon="5.80788">
        <ele>743.6</ele>
        <time>2021-04-10T12:15:32Z</time>
      </trkpt>
      <trkpt lat="45.15588" lon="5.80787">
        <ele>743.8</ele>
        <time>2021-04-10T12:15:33Z</time>
      </trkpt>
      <trkpt lat="45.15587" lon="5.80785">
        <ele>744</ele>
        <time>2021-04-10T12:15:34Z</time>
      </trkpt>
      <trkpt lat="45.15587" lon="5.80784">
        <ele>744.2</ele>
        <time>2021-04-10T12:15:35Z</time>
      </trkpt>
      <trkpt lat="45.15587" lon="5.80783">
        <ele>744.4</ele>
        <time>2021-04-10T12:15:36Z</time>
      </trkpt>
      <trkpt lat="45.15586" lon="5.80782">
        <ele>744.4</ele>
        <time>2021-04-10T12:15:37Z</time>
      </trkpt>
      <trkpt lat="45.15586" lon="5.80781">
        <ele>744.6</ele>
        <time>2021-04-10T12:15:38Z</time>
      </trkpt>
      <trkpt lat="45.15586" lon="5.80779">
        <ele>744.6</ele>
        <time>2021-04-10T12:15:39Z</time>
      </trkpt>
      <trkpt lat="45.15586" lon="5.80778">
        <ele>744.6</ele>
        <time>2021-04-10T12:15:40Z</time>
      </trkpt>
      <trkpt lat="45.15585" lon="5.80777">
        <ele>744.8</ele>
        <time>2021-04-10T12:15:41Z</time>
      </trkpt>
      <trkpt lat="45.15585" lon="5.80776">
        <ele>745</ele>
        <time>2021-04-10T12:15:42Z</time>
      </trkpt>
      <trkpt lat="45.15585" lon="5.80774">
        <ele>745</ele>
        <time>2021-04-10T12:15:43Z</time>
      </trkpt>
      <trkpt lat="45.15585" lon="5.80773">
        <ele>744.8</ele>
        <time>2021-04-10T12:15:44Z</time>
      </trkpt>
      <trkpt lat="45.15584" lon="5.80772">
        <ele>745</ele>
        <time>2021-04-10T12:15:45Z</time>
      </trkpt>
      <trkpt lat="45.15584" lon="5.80771">
        <ele>745.2</ele>
        <time>2021-04-10T12:15:46Z</time>
      </trkpt>
      <trkpt lat="45.15583" lon="5.8077">
        <ele>745.6</ele>
        <time>2021-04-10T12:15:47Z</time>
      </trkpt>
      <trkpt lat="45.15583" lon="5.80769">
        <ele>745.6</ele>
        <time>2021-04-10T12:15:48Z</time>
      </trkpt>
      <trkpt lat="45.15583" lon="5.80769">
        <ele>745.8</ele>
        <time>2021-04-10T12:15:49Z</time>
      </trkpt>
      <trkpt lat="45.15582" lon="5.80768">
        <ele>745.8</ele>
        <time>2021-04-10T12:15:50Z</time>
      </trkpt>
      <trkpt lat="45.15582" lon="5.80767">
        <ele>746</ele>
        <time>2021-04-10T12:15:51Z</time>
      </trkpt>
      <trkpt lat="45.15582" lon="5.80766">
        <ele>746</ele>
        <time>2021-04-10T12:15:52Z</time>
      </trkpt>
      <trkpt lat="45.15581" lon="5.80765">
        <ele>746.2</ele>
        <time>2021-04-10T12:15:53Z</time>
      </trkpt>
      <trkpt lat="45.15581" lon="5.80764">
        <ele>746.2</ele>
        <time>2021-04-10T12:15:54Z</time>
      </trkpt>
      <trkpt lat="45.15581" lon="5.80763">
        <ele>746.6</ele>
        <time>2021-04-10T12:15:55Z</time>
      </trkpt>
      <trkpt lat="45.1558" lon="5.80762">
        <ele>746.8</ele>
        <time>2021-04-10T12:15:56Z</time>
      </trkpt>
      <trkpt lat="45.1558" lon="5.80761">
        <ele>746.8</ele>
        <time>2021-04-10T12:15:57Z</time>
      </trkpt>
      <trkpt lat="45.15579" lon="5.8076">
        <ele>746.8</ele>
        <time>2021-04-10T12:15:58Z</time>
      </trkpt>
      <trkpt lat="45.15579" lon="5.80758">
        <ele>747</ele>
        <time>2021-04-10T12:15:59Z</time>
      </trkpt>
      <trkpt lat="45.15579" lon="5.80757">
        <ele>747</ele>
        <time>2021-04-10T12:16:00Z</time>
      </trkpt>
      <trkpt lat="45.15578" lon="5.80756">
        <ele>747.2</ele>
        <time>2021-04-10T12:16:01Z</time>
      </trkpt>
      <trkpt lat="45.15578" lon="5.80754">
        <ele>747.4</ele>
        <time>2021-04-10T12:16:02Z</time>
      </trkpt>
      <trkpt lat="45.15578" lon="5.80753">
        <ele>747.4</ele>
        <time>2021-04-10T12:16:03Z</time>
      </trkpt>
      <trkpt lat="45.15577" lon="5.80751">
        <ele>747.6</ele>
        <time>2021-04-10T12:16:04Z</time>
      </trkpt>
      <trkpt lat="45.15577" lon="5.8075">
        <ele>747.8</ele>
        <time>2021-04-10T12:16:05Z</time>
      </trkpt>
      <trkpt lat="45.15576" lon="5.80749">
        <ele>748</ele>
        <time>2021-04-10T12:16:06Z</time>
      </trkpt>
      <trkpt lat="45.15576" lon="5.80747">
        <ele>748.2</ele>
        <time>2021-04-10T12:16:07Z</time>
      </trkpt>
      <trkpt lat="45.15575" lon="5.80745">
        <ele>748.4</ele>
        <time>2021-04-10T12:16:08Z</time>
      </trkpt>
      <trkpt lat="45.15575" lon="5.80743">
        <ele>748.4</ele>
        <time>2021-04-10T12:16:09Z</time>
      </trkpt>
      <trkpt lat="45.15574" lon="5.80741">
        <ele>748.6</ele>
        <time>2021-04-10T12:16:10Z</time>
      </trkpt>
      <trkpt lat="45.15574" lon="5.80739">
        <ele>748.6</ele>
        <time>2021-04-10T12:16:11Z</time>
      </trkpt>
      <trkpt lat="45.15573" lon="5.80737">
        <ele>748.8</ele>
        <time>2021-04-10T12:16:12Z</time>
      </trkpt>
      <trkpt lat="45.15573" lon="5.80735">
        <ele>748.8</ele>
        <time>2021-04-10T12:16:13Z</time>
      </trkpt>
      <trkpt lat="45.15573" lon="5.80733">
        <ele>749</ele>
        <time>2021-04-10T12:16:14Z</time>
      </trkpt>
      <trkpt lat="45.15573" lon="5.80731">
        <ele>749</ele>
        <time>2021-04-10T12:16:15Z</time>
      </trkpt>
      <trkpt lat="45.15572" lon="5.80729">
        <ele>749</ele>
        <time>2021-04-10T12:16:16Z</time>
      </trkpt>
      <trkpt lat="45.15572" lon="5.80726">
        <ele>749.2</ele>
        <time>2021-04-10T12:16:17Z</time>
      </trkpt>
      <trkpt lat="45.15572" lon="5.80724">
        <ele>749.4</ele>
        <time>2021-04-10T12:16:18Z</time>
      </trkpt>
      <trkpt lat="45.15572" lon="5.80722">
        <ele>749.6</ele>
        <time>2021-04-10T12:16:19Z</time>
      </trkpt>
      <trkpt lat="45.15571" lon="5.8072">
        <ele>749.6</ele>
        <time>2021-04-10T12:16:20Z</time>
      </trkpt>
      <trkpt lat="45.15571" lon="5.80718">
        <ele>749.8</ele>
        <time>2021-04-10T12:16:21Z</time>
      </trkpt>
      <trkpt lat="45.15571" lon="5.80717">
        <ele>750</ele>
        <time>2021-04-10T12:16:22Z</time>
      </trkpt>
      <trkpt lat="45.1557" lon="5.80715">
        <ele>750</ele>
        <time>2021-04-10T12:16:23Z</time>
      </trkpt>
      <trkpt lat="45.1557" lon="5.80713">
        <ele>750.2</ele>
        <time>2021-04-10T12:16:24Z</time>
      </trkpt>
      <trkpt lat="45.15569" lon="5.80711">
        <ele>750.2</ele>
        <time>2021-04-10T12:16:25Z</time>
      </trkpt>
      <trkpt lat="45.15569" lon="5.8071">
        <ele>750.4</ele>
        <time>2021-04-10T12:16:26Z</time>
      </trkpt>
      <trkpt lat="45.15569" lon="5.80708">
        <ele>750.6</ele>
        <time>2021-04-10T12:16:27Z</time>
      </trkpt>
      <trkpt lat="45.15567" lon="5.80705">
        <ele>750.6</ele>
        <time>2021-04-10T12:16:28Z</time>
      </trkpt>
      <trkpt lat="45.15566" lon="5.80703">
        <ele>750.8</ele>
        <time>2021-04-10T12:16:29Z</time>
      </trkpt>
      <trkpt lat="45.15564" lon="5.807">
        <ele>750.8</ele>
        <time>2021-04-10T12:16:30Z</time>
      </trkpt>
      <trkpt lat="45.15563" lon="5.80697">
        <ele>751</ele>
        <time>2021-04-10T12:16:31Z</time>
      </trkpt>
      <trkpt lat="45.15561" lon="5.80695">
        <ele>751.2</ele>
        <time>2021-04-10T12:16:32Z</time>
      </trkpt>
      <trkpt lat="45.1556" lon="5.80692">
        <ele>751.2</ele>
        <time>2021-04-10T12:16:33Z</time>
      </trkpt>
      <trkpt lat="45.15558" lon="5.80689">
        <ele>751.4</ele>
        <time>2021-04-10T12:16:34Z</time>
      </trkpt>
      <trkpt lat="45.15557" lon="5.80683">
        <ele>751.8</ele>
        <time>2021-04-10T12:16:35Z</time>
      </trkpt>
      <trkpt lat="45.15557" lon="5.80683">
        <ele>751.8</ele>
        <time>2021-04-10T12:16:36Z</time>
      </trkpt>
      <trkpt lat="45.15557" lon="5.80683">
        <ele>752.2</ele>
        <time>2021-04-10T12:16:37Z</time>
      </trkpt>
      <trkpt lat="45.15557" lon="5.80683">
        <ele>752.2</ele>
        <time>2021-04-10T12:16:38Z</time>
      </trkpt>
      <trkpt lat="45.15556" lon="5.80681">
        <ele>752.4</ele>
        <time>2021-04-10T12:16:39Z</time>
      </trkpt>
      <trkpt lat="45.15556" lon="5.80679">
        <ele>752.4</ele>
        <time>2021-04-10T12:16:40Z</time>
      </trkpt>
      <trkpt lat="45.15555" lon="5.80678">
        <ele>752.6</ele>
        <time>2021-04-10T12:16:41Z</time>
      </trkpt>
      <trkpt lat="45.15554" lon="5.80676">
        <ele>753</ele>
        <time>2021-04-10T12:16:42Z</time>
      </trkpt>
      <trkpt lat="45.15554" lon="5.80674">
        <ele>753</ele>
        <time>2021-04-10T12:16:43Z</time>
      </trkpt>
      <trkpt lat="45.15553" lon="5.80673">
        <ele>753.2</ele>
        <time>2021-04-10T12:16:44Z</time>
      </trkpt>
      <trkpt lat="45.15552" lon="5.80671">
        <ele>753.4</ele>
        <time>2021-04-10T12:16:45Z</time>
      </trkpt>
      <trkpt lat="45.15552" lon="5.80669">
        <ele>753.4</ele>
        <time>2021-04-10T12:16:46Z</time>
      </trkpt>
      <trkpt lat="45.15552" lon="5.80667">
        <ele>753.4</ele>
        <time>2021-04-10T12:16:47Z</time>
      </trkpt>
      <trkpt lat="45.15552" lon="5.80666">
        <ele>753.6</ele>
        <time>2021-04-10T12:16:48Z</time>
      </trkpt>
      <trkpt lat="45.15552" lon="5.80664">
        <ele>754</ele>
        <time>2021-04-10T12:16:49Z</time>
      </trkpt>
      <trkpt lat="45.15552" lon="5.80662">
        <ele>754</ele>
        <time>2021-04-10T12:16:50Z</time>
      </trkpt>
      <trkpt lat="45.15552" lon="5.8066">
        <ele>754</ele>
        <time>2021-04-10T12:16:51Z</time>
      </trkpt>
      <trkpt lat="45.15552" lon="5.80658">
        <ele>754.2</ele>
        <time>2021-04-10T12:16:52Z</time>
      </trkpt>
      <trkpt lat="45.15552" lon="5.80656">
        <ele>754.4</ele>
        <time>2021-04-10T12:16:53Z</time>
      </trkpt>
      <trkpt lat="45.15552" lon="5.80655">
        <ele>754.4</ele>
        <time>2021-04-10T12:16:54Z</time>
      </trkpt>
      <trkpt lat="45.15552" lon="5.80653">
        <ele>754.6</ele>
        <time>2021-04-10T12:16:55Z</time>
      </trkpt>
      <trkpt lat="45.15552" lon="5.80651">
        <ele>754.8</ele>
        <time>2021-04-10T12:16:56Z</time>
      </trkpt>
      <trkpt lat="45.15552" lon="5.80649">
        <ele>754.8</ele>
        <time>2021-04-10T12:16:57Z</time>
      </trkpt>
      <trkpt lat="45.15552" lon="5.80647">
        <ele>754.8</ele>
        <time>2021-04-10T12:16:58Z</time>
      </trkpt>
      <trkpt lat="45.15552" lon="5.80646">
        <ele>754.6</ele>
        <time>2021-04-10T12:16:59Z</time>
      </trkpt>
      <trkpt lat="45.15552" lon="5.80644">
        <ele>754.4</ele>
        <time>2021-04-10T12:17:00Z</time>
      </trkpt>
      <trkpt lat="45.15552" lon="5.80643">
        <ele>754.4</ele>
        <time>2021-04-10T12:17:01Z</time>
      </trkpt>
      <trkpt lat="45.15551" lon="5.80641">
        <ele>754.4</ele>
        <time>2021-04-10T12:17:02Z</time>
      </trkpt>
      <trkpt lat="45.1555" lon="5.8064">
        <ele>754.4</ele>
        <time>2021-04-10T12:17:03Z</time>
      </trkpt>
      <trkpt lat="45.1555" lon="5.80639">
        <ele>754.6</ele>
        <time>2021-04-10T12:17:04Z</time>
      </trkpt>
      <trkpt lat="45.15549" lon="5.80638">
        <ele>754.6</ele>
        <time>2021-04-10T12:17:05Z</time>
      </trkpt>
      <trkpt lat="45.15549" lon="5.80637">
        <ele>754.8</ele>
        <time>2021-04-10T12:17:06Z</time>
      </trkpt>
      <trkpt lat="45.15548" lon="5.80635">
        <ele>755</ele>
        <time>2021-04-10T12:17:07Z</time>
      </trkpt>
      <trkpt lat="45.15548" lon="5.80634">
        <ele>755.2</ele>
        <time>2021-04-10T12:17:08Z</time>
      </trkpt>
      <trkpt lat="45.15547" lon="5.80633">
        <ele>755.4</ele>
        <time>2021-04-10T12:17:09Z</time>
      </trkpt>
      <trkpt lat="45.15547" lon="5.80632">
        <ele>755.6</ele>
        <time>2021-04-10T12:17:10Z</time>
      </trkpt>
      <trkpt lat="45.15546" lon="5.8063">
        <ele>755.6</ele>
        <time>2021-04-10T12:17:11Z</time>
      </trkpt>
      <trkpt lat="45.15546" lon="5.80629">
        <ele>755.8</ele>
        <time>2021-04-10T12:17:12Z</time>
      </trkpt>
      <trkpt lat="45.15546" lon="5.80627">
        <ele>756</ele>
        <time>2021-04-10T12:17:13Z</time>
      </trkpt>
      <trkpt lat="45.15545" lon="5.80625">
        <ele>756.2</ele>
        <time>2021-04-10T12:17:14Z</time>
      </trkpt>
      <trkpt lat="45.15545" lon="5.80624">
        <ele>756.4</ele>
        <time>2021-04-10T12:17:15Z</time>
      </trkpt>
      <trkpt lat="45.15545" lon="5.80622">
        <ele>756.6</ele>
        <time>2021-04-10T12:17:16Z</time>
      </trkpt>
      <trkpt lat="45.15544" lon="5.8062">
        <ele>756.6</ele>
        <time>2021-04-10T12:17:17Z</time>
      </trkpt>
      <trkpt lat="45.15544" lon="5.80619">
        <ele>756.8</ele>
        <time>2021-04-10T12:17:18Z</time>
      </trkpt>
      <trkpt lat="45.15544" lon="5.80617">
        <ele>757</ele>
        <time>2021-04-10T12:17:19Z</time>
      </trkpt>
      <trkpt lat="45.15544" lon="5.80616">
        <ele>757.2</ele>
        <time>2021-04-10T12:17:20Z</time>
      </trkpt>
      <trkpt lat="45.15543" lon="5.80614">
        <ele>757.4</ele>
        <time>2021-04-10T12:17:21Z</time>
      </trkpt>
      <trkpt lat="45.15543" lon="5.80613">
        <ele>757.6</ele>
        <time>2021-04-10T12:17:22Z</time>
      </trkpt>
      <trkpt lat="45.15543" lon="5.80611">
        <ele>757.6</ele>
        <time>2021-04-10T12:17:23Z</time>
      </trkpt>
      <trkpt lat="45.15543" lon="5.8061">
        <ele>757.8</ele>
        <time>2021-04-10T12:17:24Z</time>
      </trkpt>
      <trkpt lat="45.15543" lon="5.80609">
        <ele>758.2</ele>
        <time>2021-04-10T12:17:25Z</time>
      </trkpt>
      <trkpt lat="45.15543" lon="5.80607">
        <ele>758.2</ele>
        <time>2021-04-10T12:17:26Z</time>
      </trkpt>
      <trkpt lat="45.15542" lon="5.80606">
        <ele>758.2</ele>
        <time>2021-04-10T12:17:27Z</time>
      </trkpt>
      <trkpt lat="45.15542" lon="5.80604">
        <ele>758.2</ele>
        <time>2021-04-10T12:17:28Z</time>
      </trkpt>
      <trkpt lat="45.15541" lon="5.80602">
        <ele>758.4</ele>
        <time>2021-04-10T12:17:29Z</time>
      </trkpt>
      <trkpt lat="45.1554" lon="5.806">
        <ele>758.6</ele>
        <time>2021-04-10T12:17:30Z</time>
      </trkpt>
      <trkpt lat="45.15539" lon="5.80598">
        <ele>758.6</ele>
        <time>2021-04-10T12:17:31Z</time>
      </trkpt>
      <trkpt lat="45.15538" lon="5.80595">
        <ele>758.6</ele>
        <time>2021-04-10T12:17:32Z</time>
      </trkpt>
      <trkpt lat="45.15537" lon="5.80593">
        <ele>758.8</ele>
        <time>2021-04-10T12:17:33Z</time>
      </trkpt>
      <trkpt lat="45.15538" lon="5.80592">
        <ele>758.8</ele>
        <time>2021-04-10T12:17:34Z</time>
      </trkpt>
      <trkpt lat="45.15538" lon="5.8059">
        <ele>759</ele>
        <time>2021-04-10T12:17:35Z</time>
      </trkpt>
      <trkpt lat="45.15538" lon="5.80589">
        <ele>759.2</ele>
        <time>2021-04-10T12:17:36Z</time>
      </trkpt>
      <trkpt lat="45.15538" lon="5.80587">
        <ele>759.2</ele>
        <time>2021-04-10T12:17:37Z</time>
      </trkpt>
      <trkpt lat="45.15539" lon="5.80586">
        <ele>759.4</ele>
        <time>2021-04-10T12:17:38Z</time>
      </trkpt>
      <trkpt lat="45.15539" lon="5.80584">
        <ele>759.4</ele>
        <time>2021-04-10T12:17:39Z</time>
      </trkpt>
      <trkpt lat="45.15539" lon="5.80582">
        <ele>759.6</ele>
        <time>2021-04-10T12:17:40Z</time>
      </trkpt>
      <trkpt lat="45.15539" lon="5.80581">
        <ele>759.8</ele>
        <time>2021-04-10T12:17:41Z</time>
      </trkpt>
      <trkpt lat="45.1554" lon="5.80579">
        <ele>760.2</ele>
        <time>2021-04-10T12:17:42Z</time>
      </trkpt>
      <trkpt lat="45.1554" lon="5.80578">
        <ele>760.2</ele>
        <time>2021-04-10T12:17:43Z</time>
      </trkpt>
      <trkpt lat="45.15541" lon="5.80577">
        <ele>760.2</ele>
        <time>2021-04-10T12:17:44Z</time>
      </trkpt>
      <trkpt lat="45.15541" lon="5.80576">
        <ele>760.6</ele>
        <time>2021-04-10T12:17:45Z</time>
      </trkpt>
      <trkpt lat="45.15542" lon="5.80575">
        <ele>760.8</ele>
        <time>2021-04-10T12:17:46Z</time>
      </trkpt>
      <trkpt lat="45.15542" lon="5.80573">
        <ele>760.8</ele>
        <time>2021-04-10T12:17:47Z</time>
      </trkpt>
      <trkpt lat="45.15543" lon="5.80572">
        <ele>761.2</ele>
        <time>2021-04-10T12:17:48Z</time>
      </trkpt>
      <trkpt lat="45.15543" lon="5.80571">
        <ele>761.4</ele>
        <time>2021-04-10T12:17:49Z</time>
      </trkpt>
      <trkpt lat="45.15544" lon="5.8057">
        <ele>761.8</ele>
        <time>2021-04-10T12:17:50Z</time>
      </trkpt>
      <trkpt lat="45.15544" lon="5.80569">
        <ele>761.8</ele>
        <time>2021-04-10T12:17:51Z</time>
      </trkpt>
      <trkpt lat="45.15545" lon="5.80568">
        <ele>761.8</ele>
        <time>2021-04-10T12:17:52Z</time>
      </trkpt>
      <trkpt lat="45.15546" lon="5.80566">
        <ele>761.8</ele>
        <time>2021-04-10T12:17:53Z</time>
      </trkpt>
      <trkpt lat="45.15547" lon="5.80565">
        <ele>762</ele>
        <time>2021-04-10T12:17:54Z</time>
      </trkpt>
      <trkpt lat="45.15547" lon="5.80564">
        <ele>761.8</ele>
        <time>2021-04-10T12:17:55Z</time>
      </trkpt>
      <trkpt lat="45.15548" lon="5.80562">
        <ele>761.8</ele>
        <time>2021-04-10T12:17:56Z</time>
      </trkpt>
      <trkpt lat="45.15549" lon="5.80561">
        <ele>761.8</ele>
        <time>2021-04-10T12:17:57Z</time>
      </trkpt>
      <trkpt lat="45.1555" lon="5.8056">
        <ele>761.8</ele>
        <time>2021-04-10T12:17:58Z</time>
      </trkpt>
      <trkpt lat="45.15551" lon="5.80558">
        <ele>761.8</ele>
        <time>2021-04-10T12:17:59Z</time>
      </trkpt>
      <trkpt lat="45.15552" lon="5.80557">
        <ele>762</ele>
        <time>2021-04-10T12:18:00Z</time>
      </trkpt>
      <trkpt lat="45.15553" lon="5.80556">
        <ele>762</ele>
        <time>2021-04-10T12:18:01Z</time>
      </trkpt>
      <trkpt lat="45.15555" lon="5.80554">
        <ele>762</ele>
        <time>2021-04-10T12:18:02Z</time>
      </trkpt>
      <trkpt lat="45.15556" lon="5.80553">
        <ele>762</ele>
        <time>2021-04-10T12:18:03Z</time>
      </trkpt>
      <trkpt lat="45.15558" lon="5.80551">
        <ele>762</ele>
        <time>2021-04-10T12:18:04Z</time>
      </trkpt>
      <trkpt lat="45.15559" lon="5.8055">
        <ele>762.2</ele>
        <time>2021-04-10T12:18:05Z</time>
      </trkpt>
      <trkpt lat="45.15561" lon="5.80549">
        <ele>762.2</ele>
        <time>2021-04-10T12:18:06Z</time>
      </trkpt>
      <trkpt lat="45.15562" lon="5.80547">
        <ele>762.4</ele>
        <time>2021-04-10T12:18:07Z</time>
      </trkpt>
      <trkpt lat="45.15563" lon="5.80546">
        <ele>762.4</ele>
        <time>2021-04-10T12:18:08Z</time>
      </trkpt>
      <trkpt lat="45.15564" lon="5.80544">
        <ele>762.2</ele>
        <time>2021-04-10T12:18:09Z</time>
      </trkpt>
      <trkpt lat="45.15565" lon="5.80543">
        <ele>762.2</ele>
        <time>2021-04-10T12:18:10Z</time>
      </trkpt>
      <trkpt lat="45.15565" lon="5.80541">
        <ele>762.2</ele>
        <time>2021-04-10T12:18:11Z</time>
      </trkpt>
      <trkpt lat="45.15566" lon="5.8054">
        <ele>762.2</ele>
        <time>2021-04-10T12:18:12Z</time>
      </trkpt>
      <trkpt lat="45.15567" lon="5.80538">
        <ele>762.2</ele>
        <time>2021-04-10T12:18:13Z</time>
      </trkpt>
      <trkpt lat="45.15568" lon="5.80537">
        <ele>762.2</ele>
        <time>2021-04-10T12:18:14Z</time>
      </trkpt>
      <trkpt lat="45.15568" lon="5.80536">
        <ele>762.4</ele>
        <time>2021-04-10T12:18:15Z</time>
      </trkpt>
      <trkpt lat="45.15569" lon="5.80535">
        <ele>762.4</ele>
        <time>2021-04-10T12:18:16Z</time>
      </trkpt>
      <trkpt lat="45.15569" lon="5.80534">
        <ele>762.4</ele>
        <time>2021-04-10T12:18:17Z</time>
      </trkpt>
      <trkpt lat="45.1557" lon="5.80533">
        <ele>762.4</ele>
        <time>2021-04-10T12:18:18Z</time>
      </trkpt>
      <trkpt lat="45.1557" lon="5.80532">
        <ele>762.6</ele>
        <time>2021-04-10T12:18:19Z</time>
      </trkpt>
      <trkpt lat="45.15571" lon="5.80531">
        <ele>762.8</ele>
        <time>2021-04-10T12:18:20Z</time>
      </trkpt>
      <trkpt lat="45.15571" lon="5.8053">
        <ele>763</ele>
        <time>2021-04-10T12:18:21Z</time>
      </trkpt>
      <trkpt lat="45.15572" lon="5.80529">
        <ele>762.8</ele>
        <time>2021-04-10T12:18:22Z</time>
      </trkpt>
      <trkpt lat="45.15572" lon="5.80528">
        <ele>763</ele>
        <time>2021-04-10T12:18:23Z</time>
      </trkpt>
      <trkpt lat="45.15573" lon="5.80527">
        <ele>763.2</ele>
        <time>2021-04-10T12:18:24Z</time>
      </trkpt>
      <trkpt lat="45.15573" lon="5.80525">
        <ele>763.2</ele>
        <time>2021-04-10T12:18:25Z</time>
      </trkpt>
      <trkpt lat="45.15574" lon="5.80523">
        <ele>763.6</ele>
        <time>2021-04-10T12:18:26Z</time>
      </trkpt>
      <trkpt lat="45.15574" lon="5.80522">
        <ele>763.8</ele>
        <time>2021-04-10T12:18:27Z</time>
      </trkpt>
      <trkpt lat="45.15574" lon="5.8052">
        <ele>764</ele>
        <time>2021-04-10T12:18:28Z</time>
      </trkpt>
      <trkpt lat="45.15575" lon="5.80518">
        <ele>764</ele>
        <time>2021-04-10T12:18:29Z</time>
      </trkpt>
      <trkpt lat="45.15575" lon="5.80516">
        <ele>764.4</ele>
        <time>2021-04-10T12:18:30Z</time>
      </trkpt>
      <trkpt lat="45.15575" lon="5.80514">
        <ele>764.6</ele>
        <time>2021-04-10T12:18:31Z</time>
      </trkpt>
      <trkpt lat="45.15576" lon="5.80512">
        <ele>764.8</ele>
        <time>2021-04-10T12:18:32Z</time>
      </trkpt>
      <trkpt lat="45.15576" lon="5.8051">
        <ele>765.2</ele>
        <time>2021-04-10T12:18:33Z</time>
      </trkpt>
      <trkpt lat="45.15576" lon="5.80508">
        <ele>765.6</ele>
        <time>2021-04-10T12:18:34Z</time>
      </trkpt>
      <trkpt lat="45.15576" lon="5.80506">
        <ele>765.8</ele>
        <time>2021-04-10T12:18:35Z</time>
      </trkpt>
      <trkpt lat="45.15576" lon="5.80504">
        <ele>766</ele>
        <time>2021-04-10T12:18:36Z</time>
      </trkpt>
      <trkpt lat="45.15576" lon="5.80503">
        <ele>766.2</ele>
        <time>2021-04-10T12:18:37Z</time>
      </trkpt>
      <trkpt lat="45.15576" lon="5.80501">
        <ele>766.4</ele>
        <time>2021-04-10T12:18:38Z</time>
      </trkpt>
      <trkpt lat="45.15577" lon="5.80498">
        <ele>766.8</ele>
        <time>2021-04-10T12:18:39Z</time>
      </trkpt>
      <trkpt lat="45.15578" lon="5.80496">
        <ele>767</ele>
        <time>2021-04-10T12:18:40Z</time>
      </trkpt>
      <trkpt lat="45.15579" lon="5.80494">
        <ele>767</ele>
        <time>2021-04-10T12:18:41Z</time>
      </trkpt>
      <trkpt lat="45.1558" lon="5.80491">
        <ele>767.2</ele>
        <time>2021-04-10T12:18:42Z</time>
      </trkpt>
      <trkpt lat="45.15581" lon="5.80489">
        <ele>767.4</ele>
        <time>2021-04-10T12:18:43Z</time>
      </trkpt>
      <trkpt lat="45.15581" lon="5.80487">
        <ele>767.8</ele>
        <time>2021-04-10T12:18:44Z</time>
      </trkpt>
      <trkpt lat="45.15582" lon="5.80486">
        <ele>767.6</ele>
        <time>2021-04-10T12:18:45Z</time>
      </trkpt>
      <trkpt lat="45.15583" lon="5.80484">
        <ele>767.6</ele>
        <time>2021-04-10T12:18:46Z</time>
      </trkpt>
      <trkpt lat="45.15583" lon="5.80482">
        <ele>767.8</ele>
        <time>2021-04-10T12:18:47Z</time>
      </trkpt>
      <trkpt lat="45.15584" lon="5.80481">
        <ele>768</ele>
        <time>2021-04-10T12:18:48Z</time>
      </trkpt>
      <trkpt lat="45.15585" lon="5.80479">
        <ele>768.2</ele>
        <time>2021-04-10T12:18:49Z</time>
      </trkpt>
      <trkpt lat="45.15585" lon="5.80477">
        <ele>768.2</ele>
        <time>2021-04-10T12:18:50Z</time>
      </trkpt>
      <trkpt lat="45.15586" lon="5.80475">
        <ele>768.2</ele>
        <time>2021-04-10T12:18:51Z</time>
      </trkpt>
      <trkpt lat="45.15586" lon="5.80474">
        <ele>768.2</ele>
        <time>2021-04-10T12:18:52Z</time>
      </trkpt>
      <trkpt lat="45.15588" lon="5.80473">
        <ele>768.4</ele>
        <time>2021-04-10T12:18:53Z</time>
      </trkpt>
      <trkpt lat="45.1559" lon="5.80472">
        <ele>768.2</ele>
        <time>2021-04-10T12:18:54Z</time>
      </trkpt>
      <trkpt lat="45.15591" lon="5.80472">
        <ele>768.4</ele>
        <time>2021-04-10T12:18:55Z</time>
      </trkpt>
      <trkpt lat="45.15593" lon="5.80471">
        <ele>768.6</ele>
        <time>2021-04-10T12:18:56Z</time>
      </trkpt>
      <trkpt lat="45.15594" lon="5.8047">
        <ele>768.8</ele>
        <time>2021-04-10T12:18:57Z</time>
      </trkpt>
      <trkpt lat="45.15596" lon="5.8047">
        <ele>769</ele>
        <time>2021-04-10T12:18:58Z</time>
      </trkpt>
      <trkpt lat="45.15597" lon="5.80467">
        <ele>769.4</ele>
        <time>2021-04-10T12:18:59Z</time>
      </trkpt>
      <trkpt lat="45.15598" lon="5.80464">
        <ele>769.6</ele>
        <time>2021-04-10T12:19:00Z</time>
      </trkpt>
      <trkpt lat="45.15599" lon="5.80462">
        <ele>769.6</ele>
        <time>2021-04-10T12:19:01Z</time>
      </trkpt>
      <trkpt lat="45.15601" lon="5.80459">
        <ele>769.4</ele>
        <time>2021-04-10T12:19:02Z</time>
      </trkpt>
      <trkpt lat="45.15602" lon="5.80456">
        <ele>769.8</ele>
        <time>2021-04-10T12:19:03Z</time>
      </trkpt>
      <trkpt lat="45.15603" lon="5.80453">
        <ele>770</ele>
        <time>2021-04-10T12:19:04Z</time>
      </trkpt>
      <trkpt lat="45.15604" lon="5.8045">
        <ele>770.2</ele>
        <time>2021-04-10T12:19:05Z</time>
      </trkpt>
      <trkpt lat="45.15605" lon="5.80447">
        <ele>770.4</ele>
        <time>2021-04-10T12:19:06Z</time>
      </trkpt>
      <trkpt lat="45.15606" lon="5.80444">
        <ele>770.6</ele>
        <time>2021-04-10T12:19:07Z</time>
      </trkpt>
      <trkpt lat="45.15608" lon="5.80441">
        <ele>770.6</ele>
        <time>2021-04-10T12:19:08Z</time>
      </trkpt>
      <trkpt lat="45.15609" lon="5.80437">
        <ele>770.8</ele>
        <time>2021-04-10T12:19:09Z</time>
      </trkpt>
      <trkpt lat="45.1561" lon="5.80434">
        <ele>770.6</ele>
        <time>2021-04-10T12:19:10Z</time>
      </trkpt>
      <trkpt lat="45.15612" lon="5.80432">
        <ele>770.8</ele>
        <time>2021-04-10T12:19:11Z</time>
      </trkpt>
      <trkpt lat="45.15612" lon="5.80431">
        <ele>771</ele>
        <time>2021-04-10T12:19:12Z</time>
      </trkpt>
      <trkpt lat="45.15613" lon="5.8043">
        <ele>771.4</ele>
        <time>2021-04-10T12:19:13Z</time>
      </trkpt>
      <trkpt lat="45.15614" lon="5.80428">
        <ele>771.6</ele>
        <time>2021-04-10T12:19:14Z</time>
      </trkpt>
      <trkpt lat="45.15614" lon="5.80427">
        <ele>771.8</ele>
        <time>2021-04-10T12:19:15Z</time>
      </trkpt>
      <trkpt lat="45.15615" lon="5.80426">
        <ele>772</ele>
        <time>2021-04-10T12:19:16Z</time>
      </trkpt>
      <trkpt lat="45.15615" lon="5.80425">
        <ele>772</ele>
        <time>2021-04-10T12:19:17Z</time>
      </trkpt>
      <trkpt lat="45.15616" lon="5.80424">
        <ele>772.4</ele>
        <time>2021-04-10T12:19:18Z</time>
      </trkpt>
      <trkpt lat="45.15616" lon="5.80423">
        <ele>772.8</ele>
        <time>2021-04-10T12:19:19Z</time>
      </trkpt>
      <trkpt lat="45.15617" lon="5.80421">
        <ele>773</ele>
        <time>2021-04-10T12:19:20Z</time>
      </trkpt>
      <trkpt lat="45.15618" lon="5.8042">
        <ele>773.6</ele>
        <time>2021-04-10T12:19:21Z</time>
      </trkpt>
      <trkpt lat="45.15618" lon="5.80419">
        <ele>774</ele>
        <time>2021-04-10T12:19:22Z</time>
      </trkpt>
      <trkpt lat="45.15619" lon="5.80418">
        <ele>774.2</ele>
        <time>2021-04-10T12:19:23Z</time>
      </trkpt>
      <trkpt lat="45.15619" lon="5.80417">
        <ele>774.2</ele>
        <time>2021-04-10T12:19:24Z</time>
      </trkpt>
      <trkpt lat="45.1562" lon="5.80416">
        <ele>774.6</ele>
        <time>2021-04-10T12:19:25Z</time>
      </trkpt>
      <trkpt lat="45.1562" lon="5.80414">
        <ele>775</ele>
        <time>2021-04-10T12:19:26Z</time>
      </trkpt>
      <trkpt lat="45.15621" lon="5.80413">
        <ele>775.2</ele>
        <time>2021-04-10T12:19:27Z</time>
      </trkpt>
      <trkpt lat="45.15622" lon="5.80412">
        <ele>775.6</ele>
        <time>2021-04-10T12:19:28Z</time>
      </trkpt>
      <trkpt lat="45.15622" lon="5.80411">
        <ele>775.8</ele>
        <time>2021-04-10T12:19:29Z</time>
      </trkpt>
      <trkpt lat="45.15623" lon="5.8041">
        <ele>776</ele>
        <time>2021-04-10T12:19:30Z</time>
      </trkpt>
      <trkpt lat="45.15623" lon="5.80409">
        <ele>776.2</ele>
        <time>2021-04-10T12:19:31Z</time>
      </trkpt>
      <trkpt lat="45.15624" lon="5.80407">
        <ele>776.4</ele>
        <time>2021-04-10T12:19:32Z</time>
      </trkpt>
      <trkpt lat="45.15624" lon="5.80406">
        <ele>776.6</ele>
        <time>2021-04-10T12:19:33Z</time>
      </trkpt>
      <trkpt lat="45.15625" lon="5.80405">
        <ele>777</ele>
        <time>2021-04-10T12:19:34Z</time>
      </trkpt>
      <trkpt lat="45.15625" lon="5.80404">
        <ele>777.2</ele>
        <time>2021-04-10T12:19:35Z</time>
      </trkpt>
      <trkpt lat="45.15626" lon="5.80403">
        <ele>777.6</ele>
        <time>2021-04-10T12:19:36Z</time>
      </trkpt>
      <trkpt lat="45.15627" lon="5.80402">
        <ele>777.6</ele>
        <time>2021-04-10T12:19:37Z</time>
      </trkpt>
      <trkpt lat="45.15627" lon="5.804">
        <ele>778</ele>
        <time>2021-04-10T12:19:38Z</time>
      </trkpt>
      <trkpt lat="45.15628" lon="5.80399">
        <ele>778.2</ele>
        <time>2021-04-10T12:19:39Z</time>
      </trkpt>
      <trkpt lat="45.15628" lon="5.80398">
        <ele>778.6</ele>
        <time>2021-04-10T12:19:40Z</time>
      </trkpt>
      <trkpt lat="45.15629" lon="5.80397">
        <ele>778.8</ele>
        <time>2021-04-10T12:19:41Z</time>
      </trkpt>
      <trkpt lat="45.15629" lon="5.80396">
        <ele>779.2</ele>
        <time>2021-04-10T12:19:42Z</time>
      </trkpt>
      <trkpt lat="45.1563" lon="5.80395">
        <ele>779.4</ele>
        <time>2021-04-10T12:19:43Z</time>
      </trkpt>
      <trkpt lat="45.15631" lon="5.80393">
        <ele>779.6</ele>
        <time>2021-04-10T12:19:44Z</time>
      </trkpt>
      <trkpt lat="45.15631" lon="5.80392">
        <ele>779.6</ele>
        <time>2021-04-10T12:19:45Z</time>
      </trkpt>
      <trkpt lat="45.15632" lon="5.80391">
        <ele>779.8</ele>
        <time>2021-04-10T12:19:46Z</time>
      </trkpt>
      <trkpt lat="45.15632" lon="5.8039">
        <ele>780</ele>
        <time>2021-04-10T12:19:47Z</time>
      </trkpt>
      <trkpt lat="45.15633" lon="5.80389">
        <ele>780.2</ele>
        <time>2021-04-10T12:19:48Z</time>
      </trkpt>
      <trkpt lat="45.15633" lon="5.80387">
        <ele>780.6</ele>
        <time>2021-04-10T12:19:49Z</time>
      </trkpt>
      <trkpt lat="45.15634" lon="5.80386">
        <ele>780.8</ele>
        <time>2021-04-10T12:19:50Z</time>
      </trkpt>
      <trkpt lat="45.15635" lon="5.80385">
        <ele>781</ele>
        <time>2021-04-10T12:19:51Z</time>
      </trkpt>
      <trkpt lat="45.15639" lon="5.80378">
        <ele>781.4</ele>
        <time>2021-04-10T12:19:52Z</time>
      </trkpt>
      <trkpt lat="45.15639" lon="5.80378">
        <ele>781.6</ele>
        <time>2021-04-10T12:19:53Z</time>
      </trkpt>
      <trkpt lat="45.15639" lon="5.80378">
        <ele>781.6</ele>
        <time>2021-04-10T12:19:54Z</time>
      </trkpt>
      <trkpt lat="45.1564" lon="5.80375">
        <ele>781.8</ele>
        <time>2021-04-10T12:19:55Z</time>
      </trkpt>
      <trkpt lat="45.15641" lon="5.80373">
        <ele>781.8</ele>
        <time>2021-04-10T12:19:56Z</time>
      </trkpt>
      <trkpt lat="45.15643" lon="5.80371">
        <ele>782.2</ele>
        <time>2021-04-10T12:19:57Z</time>
      </trkpt>
      <trkpt lat="45.15644" lon="5.80369">
        <ele>782.4</ele>
        <time>2021-04-10T12:19:58Z</time>
      </trkpt>
      <trkpt lat="45.15645" lon="5.80367">
        <ele>782.6</ele>
        <time>2021-04-10T12:19:59Z</time>
      </trkpt>
      <trkpt lat="45.15646" lon="5.80364">
        <ele>783</ele>
        <time>2021-04-10T12:20:01Z</time>
      </trkpt>
      <trkpt lat="45.15646" lon="5.80362">
        <ele>783.4</ele>
        <time>2021-04-10T12:20:02Z</time>
      </trkpt>
      <trkpt lat="45.15646" lon="5.80361">
        <ele>783.6</ele>
        <time>2021-04-10T12:20:03Z</time>
      </trkpt>
      <trkpt lat="45.15647" lon="5.80359">
        <ele>783.8</ele>
        <time>2021-04-10T12:20:04Z</time>
      </trkpt>
      <trkpt lat="45.15647" lon="5.80357">
        <ele>784</ele>
        <time>2021-04-10T12:20:05Z</time>
      </trkpt>
      <trkpt lat="45.15647" lon="5.80355">
        <ele>784.2</ele>
        <time>2021-04-10T12:20:06Z</time>
      </trkpt>
      <trkpt lat="45.15648" lon="5.80354">
        <ele>784.4</ele>
        <time>2021-04-10T12:20:07Z</time>
      </trkpt>
      <trkpt lat="45.15648" lon="5.80352">
        <ele>784.6</ele>
        <time>2021-04-10T12:20:08Z</time>
      </trkpt>
      <trkpt lat="45.15649" lon="5.8035">
        <ele>784.8</ele>
        <time>2021-04-10T12:20:09Z</time>
      </trkpt>
      <trkpt lat="45.15649" lon="5.80349">
        <ele>785.2</ele>
        <time>2021-04-10T12:20:10Z</time>
      </trkpt>
      <trkpt lat="45.15649" lon="5.80347">
        <ele>785.6</ele>
        <time>2021-04-10T12:20:11Z</time>
      </trkpt>
      <trkpt lat="45.1565" lon="5.80345">
        <ele>785.8</ele>
        <time>2021-04-10T12:20:12Z</time>
      </trkpt>
      <trkpt lat="45.1565" lon="5.80343">
        <ele>786</ele>
        <time>2021-04-10T12:20:13Z</time>
      </trkpt>
      <trkpt lat="45.1565" lon="5.80342">
        <ele>786.2</ele>
        <time>2021-04-10T12:20:14Z</time>
      </trkpt>
      <trkpt lat="45.1565" lon="5.80342">
        <ele>786.4</ele>
        <time>2021-04-10T12:20:15Z</time>
      </trkpt>
      <trkpt lat="45.1565" lon="5.80342">
        <ele>786.4</ele>
        <time>2021-04-10T12:20:16Z</time>
      </trkpt>
      <trkpt lat="45.1565" lon="5.80342">
        <ele>786.4</ele>
        <time>2021-04-10T12:20:17Z</time>
      </trkpt>
      <trkpt lat="45.15651" lon="5.80341">
        <ele>786.6</ele>
        <time>2021-04-10T12:20:18Z</time>
      </trkpt>
      <trkpt lat="45.15651" lon="5.8034">
        <ele>786.8</ele>
        <time>2021-04-10T12:20:19Z</time>
      </trkpt>
      <trkpt lat="45.15652" lon="5.80339">
        <ele>787</ele>
        <time>2021-04-10T12:20:20Z</time>
      </trkpt>
      <trkpt lat="45.15652" lon="5.80338">
        <ele>787.2</ele>
        <time>2021-04-10T12:20:21Z</time>
      </trkpt>
      <trkpt lat="45.15653" lon="5.80337">
        <ele>787.4</ele>
        <time>2021-04-10T12:20:22Z</time>
      </trkpt>
      <trkpt lat="45.15653" lon="5.80336">
        <ele>787.6</ele>
        <time>2021-04-10T12:20:23Z</time>
      </trkpt>
      <trkpt lat="45.15654" lon="5.80335">
        <ele>787.8</ele>
        <time>2021-04-10T12:20:24Z</time>
      </trkpt>
      <trkpt lat="45.15654" lon="5.80334">
        <ele>788</ele>
        <time>2021-04-10T12:20:25Z</time>
      </trkpt>
      <trkpt lat="45.15655" lon="5.80333">
        <ele>788.2</ele>
        <time>2021-04-10T12:20:26Z</time>
      </trkpt>
      <trkpt lat="45.15655" lon="5.80332">
        <ele>788.4</ele>
        <time>2021-04-10T12:20:27Z</time>
      </trkpt>
      <trkpt lat="45.15656" lon="5.80331">
        <ele>788.6</ele>
        <time>2021-04-10T12:20:28Z</time>
      </trkpt>
      <trkpt lat="45.15657" lon="5.8033">
        <ele>788.8</ele>
        <time>2021-04-10T12:20:29Z</time>
      </trkpt>
      <trkpt lat="45.15658" lon="5.80329">
        <ele>789</ele>
        <time>2021-04-10T12:20:30Z</time>
      </trkpt>
      <trkpt lat="45.15658" lon="5.80327">
        <ele>789</ele>
        <time>2021-04-10T12:20:31Z</time>
      </trkpt>
      <trkpt lat="45.15659" lon="5.80326">
        <ele>789.6</ele>
        <time>2021-04-10T12:20:32Z</time>
      </trkpt>
      <trkpt lat="45.1566" lon="5.80325">
        <ele>790</ele>
        <time>2021-04-10T12:20:33Z</time>
      </trkpt>
      <trkpt lat="45.15661" lon="5.80323">
        <ele>790.2</ele>
        <time>2021-04-10T12:20:34Z</time>
      </trkpt>
      <trkpt lat="45.15662" lon="5.80322">
        <ele>790.4</ele>
        <time>2021-04-10T12:20:35Z</time>
      </trkpt>
      <trkpt lat="45.15663" lon="5.80321">
        <ele>790.4</ele>
        <time>2021-04-10T12:20:36Z</time>
      </trkpt>
      <trkpt lat="45.15664" lon="5.8032">
        <ele>790.8</ele>
        <time>2021-04-10T12:20:37Z</time>
      </trkpt>
      <trkpt lat="45.15665" lon="5.80319">
        <ele>791.2</ele>
        <time>2021-04-10T12:20:38Z</time>
      </trkpt>
      <trkpt lat="45.15665" lon="5.80319">
        <ele>791.4</ele>
        <time>2021-04-10T12:20:39Z</time>
      </trkpt>
      <trkpt lat="45.15666" lon="5.80318">
        <ele>791.6</ele>
        <time>2021-04-10T12:20:40Z</time>
      </trkpt>
      <trkpt lat="45.15667" lon="5.80317">
        <ele>791.8</ele>
        <time>2021-04-10T12:20:41Z</time>
      </trkpt>
      <trkpt lat="45.15668" lon="5.80316">
        <ele>792</ele>
        <time>2021-04-10T12:20:42Z</time>
      </trkpt>
      <trkpt lat="45.15669" lon="5.80315">
        <ele>792.2</ele>
        <time>2021-04-10T12:20:43Z</time>
      </trkpt>
      <trkpt lat="45.15669" lon="5.80314">
        <ele>792.2</ele>
        <time>2021-04-10T12:20:44Z</time>
      </trkpt>
      <trkpt lat="45.1567" lon="5.80313">
        <ele>792.4</ele>
        <time>2021-04-10T12:20:45Z</time>
      </trkpt>
      <trkpt lat="45.1567" lon="5.80313">
        <ele>792.6</ele>
        <time>2021-04-10T12:20:46Z</time>
      </trkpt>
      <trkpt lat="45.15671" lon="5.80312">
        <ele>792.8</ele>
        <time>2021-04-10T12:20:47Z</time>
      </trkpt>
      <trkpt lat="45.15671" lon="5.80311">
        <ele>792.8</ele>
        <time>2021-04-10T12:20:48Z</time>
      </trkpt>
      <trkpt lat="45.15671" lon="5.8031">
        <ele>792.8</ele>
        <time>2021-04-10T12:20:49Z</time>
      </trkpt>
      <trkpt lat="45.15671" lon="5.80309">
        <ele>793.2</ele>
        <time>2021-04-10T12:20:50Z</time>
      </trkpt>
      <trkpt lat="45.15672" lon="5.80308">
        <ele>793.4</ele>
        <time>2021-04-10T12:20:51Z</time>
      </trkpt>
      <trkpt lat="45.15672" lon="5.80308">
        <ele>793.6</ele>
        <time>2021-04-10T12:20:52Z</time>
      </trkpt>
      <trkpt lat="45.15672" lon="5.80307">
        <ele>793.6</ele>
        <time>2021-04-10T12:20:53Z</time>
      </trkpt>
      <trkpt lat="45.15672" lon="5.80306">
        <ele>794</ele>
        <time>2021-04-10T12:20:54Z</time>
      </trkpt>
      <trkpt lat="45.15673" lon="5.80305">
        <ele>794.2</ele>
        <time>2021-04-10T12:20:55Z</time>
      </trkpt>
      <trkpt lat="45.15673" lon="5.80304">
        <ele>794.4</ele>
        <time>2021-04-10T12:20:56Z</time>
      </trkpt>
      <trkpt lat="45.15673" lon="5.80303">
        <ele>794.4</ele>
        <time>2021-04-10T12:20:57Z</time>
      </trkpt>
      <trkpt lat="45.15674" lon="5.80303">
        <ele>794.6</ele>
        <time>2021-04-10T12:20:58Z</time>
      </trkpt>
      <trkpt lat="45.15674" lon="5.80302">
        <ele>795</ele>
        <time>2021-04-10T12:20:59Z</time>
      </trkpt>
      <trkpt lat="45.15674" lon="5.80301">
        <ele>795.4</ele>
        <time>2021-04-10T12:21:00Z</time>
      </trkpt>
      <trkpt lat="45.15675" lon="5.803">
        <ele>795.6</ele>
        <time>2021-04-10T12:21:01Z</time>
      </trkpt>
      <trkpt lat="45.15676" lon="5.80299">
        <ele>795.8</ele>
        <time>2021-04-10T12:21:02Z</time>
      </trkpt>
      <trkpt lat="45.15676" lon="5.80297">
        <ele>796</ele>
        <time>2021-04-10T12:21:03Z</time>
      </trkpt>
      <trkpt lat="45.15677" lon="5.80296">
        <ele>796.2</ele>
        <time>2021-04-10T12:21:04Z</time>
      </trkpt>
      <trkpt lat="45.15678" lon="5.80295">
        <ele>796.6</ele>
        <time>2021-04-10T12:21:05Z</time>
      </trkpt>
      <trkpt lat="45.15679" lon="5.80294">
        <ele>796.8</ele>
        <time>2021-04-10T12:21:06Z</time>
      </trkpt>
      <trkpt lat="45.1568" lon="5.80292">
        <ele>797</ele>
        <time>2021-04-10T12:21:07Z</time>
      </trkpt>
      <trkpt lat="45.1568" lon="5.80291">
        <ele>797.4</ele>
        <time>2021-04-10T12:21:08Z</time>
      </trkpt>
      <trkpt lat="45.15681" lon="5.8029">
        <ele>797.6</ele>
        <time>2021-04-10T12:21:09Z</time>
      </trkpt>
      <trkpt lat="45.15681" lon="5.80289">
        <ele>797.8</ele>
        <time>2021-04-10T12:21:10Z</time>
      </trkpt>
      <trkpt lat="45.15681" lon="5.80288">
        <ele>798</ele>
        <time>2021-04-10T12:21:11Z</time>
      </trkpt>
      <trkpt lat="45.15681" lon="5.80287">
        <ele>798.2</ele>
        <time>2021-04-10T12:21:12Z</time>
      </trkpt>
      <trkpt lat="45.15681" lon="5.80286">
        <ele>798.4</ele>
        <time>2021-04-10T12:21:13Z</time>
      </trkpt>
      <trkpt lat="45.15682" lon="5.80286">
        <ele>798.8</ele>
        <time>2021-04-10T12:21:14Z</time>
      </trkpt>
      <trkpt lat="45.15682" lon="5.80285">
        <ele>799</ele>
        <time>2021-04-10T12:21:15Z</time>
      </trkpt>
      <trkpt lat="45.15682" lon="5.80284">
        <ele>799.2</ele>
        <time>2021-04-10T12:21:16Z</time>
      </trkpt>
      <trkpt lat="45.15682" lon="5.80283">
        <ele>799.4</ele>
        <time>2021-04-10T12:21:17Z</time>
      </trkpt>
      <trkpt lat="45.15682" lon="5.80282">
        <ele>799.8</ele>
        <time>2021-04-10T12:21:18Z</time>
      </trkpt>
      <trkpt lat="45.15683" lon="5.80281">
        <ele>800</ele>
        <time>2021-04-10T12:21:19Z</time>
      </trkpt>
      <trkpt lat="45.15683" lon="5.8028">
        <ele>800.2</ele>
        <time>2021-04-10T12:21:20Z</time>
      </trkpt>
      <trkpt lat="45.15683" lon="5.80279">
        <ele>800.6</ele>
        <time>2021-04-10T12:21:21Z</time>
      </trkpt>
      <trkpt lat="45.15684" lon="5.80277">
        <ele>800.8</ele>
        <time>2021-04-10T12:21:22Z</time>
      </trkpt>
      <trkpt lat="45.15685" lon="5.80276">
        <ele>801.2</ele>
        <time>2021-04-10T12:21:23Z</time>
      </trkpt>
      <trkpt lat="45.15685" lon="5.80275">
        <ele>801.2</ele>
        <time>2021-04-10T12:21:24Z</time>
      </trkpt>
      <trkpt lat="45.15686" lon="5.80273">
        <ele>801.4</ele>
        <time>2021-04-10T12:21:25Z</time>
      </trkpt>
      <trkpt lat="45.15687" lon="5.80272">
        <ele>801.8</ele>
        <time>2021-04-10T12:21:26Z</time>
      </trkpt>
      <trkpt lat="45.15688" lon="5.80271">
        <ele>801.8</ele>
        <time>2021-04-10T12:21:27Z</time>
      </trkpt>
      <trkpt lat="45.15689" lon="5.80269">
        <ele>802</ele>
        <time>2021-04-10T12:21:28Z</time>
      </trkpt>
      <trkpt lat="45.15689" lon="5.80268">
        <ele>802</ele>
        <time>2021-04-10T12:21:29Z</time>
      </trkpt>
      <trkpt lat="45.1569" lon="5.80267">
        <ele>802.2</ele>
        <time>2021-04-10T12:21:30Z</time>
      </trkpt>
      <trkpt lat="45.1569" lon="5.80266">
        <ele>802.4</ele>
        <time>2021-04-10T12:21:31Z</time>
      </trkpt>
      <trkpt lat="45.1569" lon="5.80265">
        <ele>802.6</ele>
        <time>2021-04-10T12:21:32Z</time>
      </trkpt>
      <trkpt lat="45.1569" lon="5.80264">
        <ele>802.8</ele>
        <time>2021-04-10T12:21:33Z</time>
      </trkpt>
      <trkpt lat="45.15691" lon="5.80263">
        <ele>803.2</ele>
        <time>2021-04-10T12:21:34Z</time>
      </trkpt>
      <trkpt lat="45.15691" lon="5.80262">
        <ele>803.4</ele>
        <time>2021-04-10T12:21:35Z</time>
      </trkpt>
      <trkpt lat="45.15691" lon="5.80261">
        <ele>803.8</ele>
        <time>2021-04-10T12:21:36Z</time>
      </trkpt>
      <trkpt lat="45.15692" lon="5.8026">
        <ele>804.2</ele>
        <time>2021-04-10T12:21:37Z</time>
      </trkpt>
      <trkpt lat="45.15692" lon="5.80259">
        <ele>804.6</ele>
        <time>2021-04-10T12:21:38Z</time>
      </trkpt>
      <trkpt lat="45.15692" lon="5.80258">
        <ele>804.6</ele>
        <time>2021-04-10T12:21:39Z</time>
      </trkpt>
      <trkpt lat="45.15692" lon="5.80257">
        <ele>804.6</ele>
        <time>2021-04-10T12:21:40Z</time>
      </trkpt>
      <trkpt lat="45.15693" lon="5.80256">
        <ele>804.8</ele>
        <time>2021-04-10T12:21:41Z</time>
      </trkpt>
      <trkpt lat="45.15693" lon="5.80255">
        <ele>805</ele>
        <time>2021-04-10T12:21:42Z</time>
      </trkpt>
      <trkpt lat="45.15694" lon="5.80254">
        <ele>805.2</ele>
        <time>2021-04-10T12:21:43Z</time>
      </trkpt>
      <trkpt lat="45.15694" lon="5.80253">
        <ele>805.4</ele>
        <time>2021-04-10T12:21:44Z</time>
      </trkpt>
      <trkpt lat="45.15695" lon="5.80252">
        <ele>805.4</ele>
        <time>2021-04-10T12:21:45Z</time>
      </trkpt>
      <trkpt lat="45.15695" lon="5.80251">
        <ele>805.4</ele>
        <time>2021-04-10T12:21:46Z</time>
      </trkpt>
      <trkpt lat="45.15696" lon="5.80251">
        <ele>805.8</ele>
        <time>2021-04-10T12:21:47Z</time>
      </trkpt>
      <trkpt lat="45.15696" lon="5.8025">
        <ele>805.8</ele>
        <time>2021-04-10T12:21:48Z</time>
      </trkpt>
      <trkpt lat="45.15697" lon="5.80249">
        <ele>806</ele>
        <time>2021-04-10T12:21:49Z</time>
      </trkpt>
      <trkpt lat="45.15698" lon="5.80248">
        <ele>805.8</ele>
        <time>2021-04-10T12:21:50Z</time>
      </trkpt>
      <trkpt lat="45.15698" lon="5.80247">
        <ele>806</ele>
        <time>2021-04-10T12:21:51Z</time>
      </trkpt>
      <trkpt lat="45.15699" lon="5.80246">
        <ele>806.2</ele>
        <time>2021-04-10T12:21:52Z</time>
      </trkpt>
      <trkpt lat="45.15699" lon="5.80246">
        <ele>806.4</ele>
        <time>2021-04-10T12:21:53Z</time>
      </trkpt>
      <trkpt lat="45.15699" lon="5.80246">
        <ele>806.4</ele>
        <time>2021-04-10T12:21:54Z</time>
      </trkpt>
      <trkpt lat="45.15699" lon="5.80246">
        <ele>806.4</ele>
        <time>2021-04-10T12:21:55Z</time>
      </trkpt>
      <trkpt lat="45.15699" lon="5.80246">
        <ele>806.6</ele>
        <time>2021-04-10T12:21:56Z</time>
      </trkpt>
      <trkpt lat="45.15699" lon="5.80246">
        <ele>806.8</ele>
        <time>2021-04-10T12:21:57Z</time>
      </trkpt>
      <trkpt lat="45.15699" lon="5.80247">
        <ele>807</ele>
        <time>2021-04-10T12:21:58Z</time>
      </trkpt>
      <trkpt lat="45.15699" lon="5.80247">
        <ele>807.2</ele>
        <time>2021-04-10T12:21:59Z</time>
      </trkpt>
      <trkpt lat="45.15698" lon="5.80247">
        <ele>807.2</ele>
        <time>2021-04-10T12:22:00Z</time>
      </trkpt>
      <trkpt lat="45.15698" lon="5.80247">
        <ele>807.4</ele>
        <time>2021-04-10T12:22:01Z</time>
      </trkpt>
      <trkpt lat="45.15698" lon="5.80248">
        <ele>807.6</ele>
        <time>2021-04-10T12:22:02Z</time>
      </trkpt>
      <trkpt lat="45.15698" lon="5.80248">
        <ele>807.8</ele>
        <time>2021-04-10T12:22:03Z</time>
      </trkpt>
      <trkpt lat="45.15698" lon="5.80248">
        <ele>807.8</ele>
        <time>2021-04-10T12:22:04Z</time>
      </trkpt>
      <trkpt lat="45.15698" lon="5.80248">
        <ele>808</ele>
        <time>2021-04-10T12:22:05Z</time>
      </trkpt>
      <trkpt lat="45.15698" lon="5.80248">
        <ele>808.4</ele>
        <time>2021-04-10T12:22:06Z</time>
      </trkpt>
      <trkpt lat="45.15698" lon="5.80249">
        <ele>808.4</ele>
        <time>2021-04-10T12:22:07Z</time>
      </trkpt>
      <trkpt lat="45.15697" lon="5.80249">
        <ele>808.8</ele>
        <time>2021-04-10T12:22:08Z</time>
      </trkpt>
      <trkpt lat="45.15697" lon="5.80249">
        <ele>808.8</ele>
        <time>2021-04-10T12:22:09Z</time>
      </trkpt>
      <trkpt lat="45.15697" lon="5.80249">
        <ele>809</ele>
        <time>2021-04-10T12:22:10Z</time>
      </trkpt>
      <trkpt lat="45.15697" lon="5.80249">
        <ele>809</ele>
        <time>2021-04-10T12:22:11Z</time>
      </trkpt>
      <trkpt lat="45.15697" lon="5.8025">
        <ele>809.4</ele>
        <time>2021-04-10T12:22:12Z</time>
      </trkpt>
      <trkpt lat="45.15697" lon="5.8025">
        <ele>809.6</ele>
        <time>2021-04-10T12:22:13Z</time>
      </trkpt>
      <trkpt lat="45.15697" lon="5.8025">
        <ele>810</ele>
        <time>2021-04-10T12:22:14Z</time>
      </trkpt>
      <trkpt lat="45.15697" lon="5.8025">
        <ele>810.2</ele>
        <time>2021-04-10T12:22:15Z</time>
      </trkpt>
      <trkpt lat="45.15696" lon="5.8025">
        <ele>810.4</ele>
        <time>2021-04-10T12:22:16Z</time>
      </trkpt>
      <trkpt lat="45.15696" lon="5.80251">
        <ele>810.6</ele>
        <time>2021-04-10T12:22:17Z</time>
      </trkpt>
      <trkpt lat="45.15696" lon="5.80251">
        <ele>810.6</ele>
        <time>2021-04-10T12:22:18Z</time>
      </trkpt>
      <trkpt lat="45.15696" lon="5.80251">
        <ele>811</ele>
        <time>2021-04-10T12:22:19Z</time>
      </trkpt>
      <trkpt lat="45.15696" lon="5.80251">
        <ele>811.2</ele>
        <time>2021-04-10T12:22:20Z</time>
      </trkpt>
      <trkpt lat="45.15696" lon="5.80251">
        <ele>811.4</ele>
        <time>2021-04-10T12:22:21Z</time>
      </trkpt>
      <trkpt lat="45.15696" lon="5.80252">
        <ele>811.8</ele>
        <time>2021-04-10T12:22:22Z</time>
      </trkpt>
      <trkpt lat="45.15696" lon="5.80252">
        <ele>812</ele>
        <time>2021-04-10T12:22:23Z</time>
      </trkpt>
      <trkpt lat="45.15695" lon="5.80252">
        <ele>812.2</ele>
        <time>2021-04-10T12:22:24Z</time>
      </trkpt>
      <trkpt lat="45.15695" lon="5.80252">
        <ele>812.2</ele>
        <time>2021-04-10T12:22:25Z</time>
      </trkpt>
      <trkpt lat="45.15695" lon="5.80252">
        <ele>812.6</ele>
        <time>2021-04-10T12:22:26Z</time>
      </trkpt>
      <trkpt lat="45.15695" lon="5.80253">
        <ele>813</ele>
        <time>2021-04-10T12:22:27Z</time>
      </trkpt>
      <trkpt lat="45.15695" lon="5.80253">
        <ele>813.2</ele>
        <time>2021-04-10T12:22:28Z</time>
      </trkpt>
      <trkpt lat="45.15695" lon="5.80253">
        <ele>813.6</ele>
        <time>2021-04-10T12:22:29Z</time>
      </trkpt>
      <trkpt lat="45.15695" lon="5.80253">
        <ele>813.8</ele>
        <time>2021-04-10T12:22:30Z</time>
      </trkpt>
      <trkpt lat="45.15695" lon="5.80253">
        <ele>814.2</ele>
        <time>2021-04-10T12:22:31Z</time>
      </trkpt>
      <trkpt lat="45.15694" lon="5.80254">
        <ele>814.2</ele>
        <time>2021-04-10T12:22:32Z</time>
      </trkpt>
      <trkpt lat="45.15694" lon="5.80254">
        <ele>814.4</ele>
        <time>2021-04-10T12:22:33Z</time>
      </trkpt>
      <trkpt lat="45.15694" lon="5.80254">
        <ele>814.6</ele>
        <time>2021-04-10T12:22:34Z</time>
      </trkpt>
      <trkpt lat="45.15694" lon="5.80254">
        <ele>815</ele>
        <time>2021-04-10T12:22:35Z</time>
      </trkpt>
      <trkpt lat="45.15694" lon="5.80255">
        <ele>815.4</ele>
        <time>2021-04-10T12:22:36Z</time>
      </trkpt>
      <trkpt lat="45.15694" lon="5.80255">
        <ele>815.6</ele>
        <time>2021-04-10T12:22:37Z</time>
      </trkpt>
      <trkpt lat="45.15694" lon="5.80255">
        <ele>815.8</ele>
        <time>2021-04-10T12:22:38Z</time>
      </trkpt>
      <trkpt lat="45.15694" lon="5.80255">
        <ele>816</ele>
        <time>2021-04-10T12:22:39Z</time>
      </trkpt>
      <trkpt lat="45.15694" lon="5.80255">
        <ele>816.4</ele>
        <time>2021-04-10T12:22:40Z</time>
      </trkpt>
      <trkpt lat="45.15693" lon="5.80256">
        <ele>816.6</ele>
        <time>2021-04-10T12:22:41Z</time>
      </trkpt>
      <trkpt lat="45.15693" lon="5.80256">
        <ele>817</ele>
        <time>2021-04-10T12:22:42Z</time>
      </trkpt>
      <trkpt lat="45.15693" lon="5.80256">
        <ele>817.2</ele>
        <time>2021-04-10T12:22:43Z</time>
      </trkpt>
      <trkpt lat="45.15692" lon="5.80257">
        <ele>817.2</ele>
        <time>2021-04-10T12:22:44Z</time>
      </trkpt>
      <trkpt lat="45.15692" lon="5.80258">
        <ele>817.6</ele>
        <time>2021-04-10T12:22:45Z</time>
      </trkpt>
      <trkpt lat="45.15691" lon="5.80259">
        <ele>817.8</ele>
        <time>2021-04-10T12:22:46Z</time>
      </trkpt>
      <trkpt lat="45.1569" lon="5.8026">
        <ele>818</ele>
        <time>2021-04-10T12:22:47Z</time>
      </trkpt>
      <trkpt lat="45.1569" lon="5.80261">
        <ele>818.4</ele>
        <time>2021-04-10T12:22:48Z</time>
      </trkpt>
      <trkpt lat="45.15689" lon="5.80262">
        <ele>818.6</ele>
        <time>2021-04-10T12:22:49Z</time>
      </trkpt>
      <trkpt lat="45.15688" lon="5.80263">
        <ele>818.8</ele>
        <time>2021-04-10T12:22:50Z</time>
      </trkpt>
      <trkpt lat="45.15687" lon="5.80264">
        <ele>818.8</ele>
        <time>2021-04-10T12:22:51Z</time>
      </trkpt>
      <trkpt lat="45.15687" lon="5.80265">
        <ele>819</ele>
        <time>2021-04-10T12:22:52Z</time>
      </trkpt>
      <trkpt lat="45.15686" lon="5.80266">
        <ele>819.4</ele>
        <time>2021-04-10T12:22:53Z</time>
      </trkpt>
      <trkpt lat="45.15686" lon="5.80266">
        <ele>819.4</ele>
        <time>2021-04-10T12:22:54Z</time>
      </trkpt>
      <trkpt lat="45.15685" lon="5.80266">
        <ele>820</ele>
        <time>2021-04-10T12:22:55Z</time>
      </trkpt>
      <trkpt lat="45.15685" lon="5.80266">
        <ele>820.2</ele>
        <time>2021-04-10T12:22:56Z</time>
      </trkpt>
      <trkpt lat="45.15685" lon="5.80266">
        <ele>820.4</ele>
        <time>2021-04-10T12:22:57Z</time>
      </trkpt>
      <trkpt lat="45.15685" lon="5.80266">
        <ele>820.6</ele>
        <time>2021-04-10T12:22:58Z</time>
      </trkpt>
      <trkpt lat="45.15684" lon="5.80266">
        <ele>820.8</ele>
        <time>2021-04-10T12:22:59Z</time>
      </trkpt>
      <trkpt lat="45.15684" lon="5.80266">
        <ele>821</ele>
        <time>2021-04-10T12:23:00Z</time>
      </trkpt>
      <trkpt lat="45.15684" lon="5.80265">
        <ele>821.2</ele>
        <time>2021-04-10T12:23:01Z</time>
      </trkpt>
      <trkpt lat="45.15684" lon="5.80265">
        <ele>821.4</ele>
        <time>2021-04-10T12:23:02Z</time>
      </trkpt>
      <trkpt lat="45.15683" lon="5.80265">
        <ele>821.6</ele>
        <time>2021-04-10T12:23:03Z</time>
      </trkpt>
      <trkpt lat="45.15683" lon="5.80265">
        <ele>822</ele>
        <time>2021-04-10T12:23:04Z</time>
      </trkpt>
      <trkpt lat="45.15683" lon="5.80265">
        <ele>822.2</ele>
        <time>2021-04-10T12:23:05Z</time>
      </trkpt>
      <trkpt lat="45.15683" lon="5.80265">
        <ele>822.6</ele>
        <time>2021-04-10T12:23:06Z</time>
      </trkpt>
      <trkpt lat="45.15682" lon="5.80265">
        <ele>822.8</ele>
        <time>2021-04-10T12:23:07Z</time>
      </trkpt>
      <trkpt lat="45.15682" lon="5.80265">
        <ele>823</ele>
        <time>2021-04-10T12:23:08Z</time>
      </trkpt>
      <trkpt lat="45.15682" lon="5.80265">
        <ele>823.4</ele>
        <time>2021-04-10T12:23:09Z</time>
      </trkpt>
      <trkpt lat="45.15682" lon="5.80265">
        <ele>823.6</ele>
        <time>2021-04-10T12:23:10Z</time>
      </trkpt>
      <trkpt lat="45.15681" lon="5.80265">
        <ele>823.6</ele>
        <time>2021-04-10T12:23:11Z</time>
      </trkpt>
      <trkpt lat="45.15681" lon="5.80265">
        <ele>823.8</ele>
        <time>2021-04-10T12:23:12Z</time>
      </trkpt>
      <trkpt lat="45.15681" lon="5.80265">
        <ele>824</ele>
        <time>2021-04-10T12:23:13Z</time>
      </trkpt>
      <trkpt lat="45.15681" lon="5.80264">
        <ele>824.6</ele>
        <time>2021-04-10T12:23:14Z</time>
      </trkpt>
      <trkpt lat="45.1568" lon="5.80264">
        <ele>825</ele>
        <time>2021-04-10T12:23:15Z</time>
      </trkpt>
      <trkpt lat="45.1568" lon="5.80264">
        <ele>825</ele>
        <time>2021-04-10T12:23:16Z</time>
      </trkpt>
      <trkpt lat="45.1568" lon="5.80264">
        <ele>825.2</ele>
        <time>2021-04-10T12:23:17Z</time>
      </trkpt>
      <trkpt lat="45.1568" lon="5.80264">
        <ele>825.6</ele>
        <time>2021-04-10T12:23:18Z</time>
      </trkpt>
      <trkpt lat="45.15679" lon="5.80264">
        <ele>825.8</ele>
        <time>2021-04-10T12:23:19Z</time>
      </trkpt>
      <trkpt lat="45.15679" lon="5.80264">
        <ele>826.2</ele>
        <time>2021-04-10T12:23:20Z</time>
      </trkpt>
      <trkpt lat="45.15679" lon="5.80264">
        <ele>826.6</ele>
        <time>2021-04-10T12:23:21Z</time>
      </trkpt>
      <trkpt lat="45.15679" lon="5.80264">
        <ele>826.6</ele>
        <time>2021-04-10T12:23:22Z</time>
      </trkpt>
      <trkpt lat="45.15678" lon="5.80264">
        <ele>827</ele>
        <time>2021-04-10T12:23:23Z</time>
      </trkpt>
      <trkpt lat="45.15678" lon="5.80264">
        <ele>827</ele>
        <time>2021-04-10T12:23:24Z</time>
      </trkpt>
      <trkpt lat="45.15678" lon="5.80264">
        <ele>827.4</ele>
        <time>2021-04-10T12:23:25Z</time>
      </trkpt>
      <trkpt lat="45.15678" lon="5.80264">
        <ele>827.6</ele>
        <time>2021-04-10T12:23:26Z</time>
      </trkpt>
      <trkpt lat="45.15677" lon="5.80263">
        <ele>827.8</ele>
        <time>2021-04-10T12:23:27Z</time>
      </trkpt>
      <trkpt lat="45.15677" lon="5.80263">
        <ele>828</ele>
        <time>2021-04-10T12:23:28Z</time>
      </trkpt>
      <trkpt lat="45.15677" lon="5.80263">
        <ele>828.2</ele>
        <time>2021-04-10T12:23:29Z</time>
      </trkpt>
      <trkpt lat="45.15677" lon="5.80263">
        <ele>828.4</ele>
        <time>2021-04-10T12:23:30Z</time>
      </trkpt>
      <trkpt lat="45.15676" lon="5.80263">
        <ele>828.6</ele>
        <time>2021-04-10T12:23:31Z</time>
      </trkpt>
      <trkpt lat="45.15675" lon="5.80263">
        <ele>828.6</ele>
        <time>2021-04-10T12:23:32Z</time>
      </trkpt>
      <trkpt lat="45.15675" lon="5.80263">
        <ele>828.8</ele>
        <time>2021-04-10T12:23:33Z</time>
      </trkpt>
      <trkpt lat="45.15674" lon="5.80262">
        <ele>829</ele>
        <time>2021-04-10T12:23:34Z</time>
      </trkpt>
      <trkpt lat="45.15673" lon="5.80262">
        <ele>829.4</ele>
        <time>2021-04-10T12:23:35Z</time>
      </trkpt>
      <trkpt lat="45.15673" lon="5.80262">
        <ele>829.8</ele>
        <time>2021-04-10T12:23:36Z</time>
      </trkpt>
      <trkpt lat="45.15672" lon="5.80262">
        <ele>830.2</ele>
        <time>2021-04-10T12:23:37Z</time>
      </trkpt>
      <trkpt lat="45.15671" lon="5.80261">
        <ele>830.4</ele>
        <time>2021-04-10T12:23:38Z</time>
      </trkpt>
      <trkpt lat="45.15671" lon="5.80261">
        <ele>830.6</ele>
        <time>2021-04-10T12:23:39Z</time>
      </trkpt>
      <trkpt lat="45.1567" lon="5.80261">
        <ele>830.6</ele>
        <time>2021-04-10T12:23:40Z</time>
      </trkpt>
      <trkpt lat="45.15669" lon="5.80261">
        <ele>830.8</ele>
        <time>2021-04-10T12:23:41Z</time>
      </trkpt>
      <trkpt lat="45.15669" lon="5.80261">
        <ele>831.2</ele>
        <time>2021-04-10T12:23:42Z</time>
      </trkpt>
      <trkpt lat="45.15668" lon="5.8026">
        <ele>831.4</ele>
        <time>2021-04-10T12:23:43Z</time>
      </trkpt>
      <trkpt lat="45.15667" lon="5.8026">
        <ele>831.6</ele>
        <time>2021-04-10T12:23:44Z</time>
      </trkpt>
      <trkpt lat="45.15666" lon="5.80261">
        <ele>831.8</ele>
        <time>2021-04-10T12:23:45Z</time>
      </trkpt>
      <trkpt lat="45.15664" lon="5.80262">
        <ele>832</ele>
        <time>2021-04-10T12:23:46Z</time>
      </trkpt>
      <trkpt lat="45.15663" lon="5.80263">
        <ele>832.2</ele>
        <time>2021-04-10T12:23:47Z</time>
      </trkpt>
      <trkpt lat="45.15662" lon="5.80265">
        <ele>832.4</ele>
        <time>2021-04-10T12:23:48Z</time>
      </trkpt>
      <trkpt lat="45.1566" lon="5.80266">
        <ele>832.6</ele>
        <time>2021-04-10T12:23:49Z</time>
      </trkpt>
      <trkpt lat="45.15659" lon="5.80267">
        <ele>832.4</ele>
        <time>2021-04-10T12:23:50Z</time>
      </trkpt>
      <trkpt lat="45.15657" lon="5.80267">
        <ele>832.6</ele>
        <time>2021-04-10T12:23:51Z</time>
      </trkpt>
      <trkpt lat="45.15656" lon="5.80266">
        <ele>832.8</ele>
        <time>2021-04-10T12:23:52Z</time>
      </trkpt>
      <trkpt lat="45.15655" lon="5.80266">
        <ele>833</ele>
        <time>2021-04-10T12:23:53Z</time>
      </trkpt>
      <trkpt lat="45.15653" lon="5.80266">
        <ele>833.2</ele>
        <time>2021-04-10T12:23:54Z</time>
      </trkpt>
      <trkpt lat="45.15652" lon="5.80266">
        <ele>833.4</ele>
        <time>2021-04-10T12:23:55Z</time>
      </trkpt>
      <trkpt lat="45.15651" lon="5.80266">
        <ele>833.4</ele>
        <time>2021-04-10T12:23:56Z</time>
      </trkpt>
      <trkpt lat="45.15649" lon="5.80266">
        <ele>833.6</ele>
        <time>2021-04-10T12:23:57Z</time>
      </trkpt>
      <trkpt lat="45.15648" lon="5.80266">
        <ele>834</ele>
        <time>2021-04-10T12:23:58Z</time>
      </trkpt>
      <trkpt lat="45.15647" lon="5.80265">
        <ele>834</ele>
        <time>2021-04-10T12:23:59Z</time>
      </trkpt>
      <trkpt lat="45.15646" lon="5.80265">
        <ele>834.2</ele>
        <time>2021-04-10T12:24:00Z</time>
      </trkpt>
      <trkpt lat="45.15646" lon="5.80265">
        <ele>834.4</ele>
        <time>2021-04-10T12:24:01Z</time>
      </trkpt>
      <trkpt lat="45.15645" lon="5.80265">
        <ele>834.8</ele>
        <time>2021-04-10T12:24:02Z</time>
      </trkpt>
      <trkpt lat="45.15644" lon="5.80265">
        <ele>835</ele>
        <time>2021-04-10T12:24:03Z</time>
      </trkpt>
      <trkpt lat="45.15644" lon="5.80265">
        <ele>835.6</ele>
        <time>2021-04-10T12:24:04Z</time>
      </trkpt>
      <trkpt lat="45.15643" lon="5.80265">
        <ele>835.8</ele>
        <time>2021-04-10T12:24:05Z</time>
      </trkpt>
      <trkpt lat="45.15642" lon="5.80265">
        <ele>835.8</ele>
        <time>2021-04-10T12:24:06Z</time>
      </trkpt>
      <trkpt lat="45.15641" lon="5.80265">
        <ele>836</ele>
        <time>2021-04-10T12:24:07Z</time>
      </trkpt>
      <trkpt lat="45.15641" lon="5.80264">
        <ele>836.4</ele>
        <time>2021-04-10T12:24:08Z</time>
      </trkpt>
      <trkpt lat="45.1564" lon="5.80264">
        <ele>836.4</ele>
        <time>2021-04-10T12:24:09Z</time>
      </trkpt>
      <trkpt lat="45.15639" lon="5.80264">
        <ele>836.8</ele>
        <time>2021-04-10T12:24:10Z</time>
      </trkpt>
      <trkpt lat="45.15639" lon="5.80264">
        <ele>837</ele>
        <time>2021-04-10T12:24:11Z</time>
      </trkpt>
      <trkpt lat="45.15638" lon="5.80265">
        <ele>837.4</ele>
        <time>2021-04-10T12:24:12Z</time>
      </trkpt>
      <trkpt lat="45.15638" lon="5.80266">
        <ele>837.6</ele>
        <time>2021-04-10T12:24:13Z</time>
      </trkpt>
      <trkpt lat="45.15637" lon="5.80267">
        <ele>837.8</ele>
        <time>2021-04-10T12:24:14Z</time>
      </trkpt>
      <trkpt lat="45.15637" lon="5.80268">
        <ele>838.4</ele>
        <time>2021-04-10T12:24:15Z</time>
      </trkpt>
      <trkpt lat="45.15637" lon="5.80269">
        <ele>838.6</ele>
        <time>2021-04-10T12:24:16Z</time>
      </trkpt>
      <trkpt lat="45.15636" lon="5.8027">
        <ele>839</ele>
        <time>2021-04-10T12:24:17Z</time>
      </trkpt>
      <trkpt lat="45.15636" lon="5.80271">
        <ele>839</ele>
        <time>2021-04-10T12:24:18Z</time>
      </trkpt>
      <trkpt lat="45.15635" lon="5.80272">
        <ele>839.2</ele>
        <time>2021-04-10T12:24:19Z</time>
      </trkpt>
      <trkpt lat="45.15635" lon="5.80273">
        <ele>839.2</ele>
        <time>2021-04-10T12:24:20Z</time>
      </trkpt>
      <trkpt lat="45.15635" lon="5.80273">
        <ele>839.6</ele>
        <time>2021-04-10T12:24:21Z</time>
      </trkpt>
      <trkpt lat="45.15634" lon="5.80274">
        <ele>840</ele>
        <time>2021-04-10T12:24:22Z</time>
      </trkpt>
      <trkpt lat="45.15634" lon="5.80275">
        <ele>839.8</ele>
        <time>2021-04-10T12:24:23Z</time>
      </trkpt>
      <trkpt lat="45.15633" lon="5.80276">
        <ele>840</ele>
        <time>2021-04-10T12:24:24Z</time>
      </trkpt>
      <trkpt lat="45.15632" lon="5.80276">
        <ele>840.2</ele>
        <time>2021-04-10T12:24:25Z</time>
      </trkpt>
      <trkpt lat="45.15632" lon="5.80276">
        <ele>840.6</ele>
        <time>2021-04-10T12:24:26Z</time>
      </trkpt>
      <trkpt lat="45.15631" lon="5.80276">
        <ele>840.8</ele>
        <time>2021-04-10T12:24:27Z</time>
      </trkpt>
      <trkpt lat="45.1563" lon="5.80276">
        <ele>841</ele>
        <time>2021-04-10T12:24:28Z</time>
      </trkpt>
      <trkpt lat="45.15629" lon="5.80277">
        <ele>841.2</ele>
        <time>2021-04-10T12:24:29Z</time>
      </trkpt>
      <trkpt lat="45.15629" lon="5.80277">
        <ele>841.6</ele>
        <time>2021-04-10T12:24:30Z</time>
      </trkpt>
      <trkpt lat="45.15628" lon="5.80277">
        <ele>841.8</ele>
        <time>2021-04-10T12:24:31Z</time>
      </trkpt>
      <trkpt lat="45.15627" lon="5.80277">
        <ele>842</ele>
        <time>2021-04-10T12:24:32Z</time>
      </trkpt>
      <trkpt lat="45.15627" lon="5.80277">
        <ele>842</ele>
        <time>2021-04-10T12:24:33Z</time>
      </trkpt>
      <trkpt lat="45.15626" lon="5.80277">
        <ele>842.4</ele>
        <time>2021-04-10T12:24:34Z</time>
      </trkpt>
      <trkpt lat="45.15625" lon="5.80278">
        <ele>842.6</ele>
        <time>2021-04-10T12:24:35Z</time>
      </trkpt>
      <trkpt lat="45.15624" lon="5.80278">
        <ele>843</ele>
        <time>2021-04-10T12:24:36Z</time>
      </trkpt>
      <trkpt lat="45.15624" lon="5.80278">
        <ele>843.2</ele>
        <time>2021-04-10T12:24:37Z</time>
      </trkpt>
      <trkpt lat="45.15623" lon="5.80278">
        <ele>843.6</ele>
        <time>2021-04-10T12:24:38Z</time>
      </trkpt>
      <trkpt lat="45.15623" lon="5.80279">
        <ele>843.8</ele>
        <time>2021-04-10T12:24:39Z</time>
      </trkpt>
      <trkpt lat="45.15622" lon="5.80279">
        <ele>844.2</ele>
        <time>2021-04-10T12:24:40Z</time>
      </trkpt>
      <trkpt lat="45.15621" lon="5.80279">
        <ele>844.4</ele>
        <time>2021-04-10T12:24:41Z</time>
      </trkpt>
      <trkpt lat="45.1562" lon="5.8028">
        <ele>844.6</ele>
        <time>2021-04-10T12:24:42Z</time>
      </trkpt>
      <trkpt lat="45.15619" lon="5.8028">
        <ele>845</ele>
        <time>2021-04-10T12:24:43Z</time>
      </trkpt>
      <trkpt lat="45.15618" lon="5.8028">
        <ele>845.2</ele>
        <time>2021-04-10T12:24:44Z</time>
      </trkpt>
      <trkpt lat="45.15618" lon="5.8028">
        <ele>845.6</ele>
        <time>2021-04-10T12:24:45Z</time>
      </trkpt>
      <trkpt lat="45.15617" lon="5.8028">
        <ele>846.2</ele>
        <time>2021-04-10T12:24:46Z</time>
      </trkpt>
      <trkpt lat="45.15616" lon="5.8028">
        <ele>846.4</ele>
        <time>2021-04-10T12:24:47Z</time>
      </trkpt>
      <trkpt lat="45.15615" lon="5.8028">
        <ele>846.8</ele>
        <time>2021-04-10T12:24:48Z</time>
      </trkpt>
      <trkpt lat="45.15615" lon="5.8028">
        <ele>847</ele>
        <time>2021-04-10T12:24:49Z</time>
      </trkpt>
      <trkpt lat="45.15614" lon="5.8028">
        <ele>847.2</ele>
        <time>2021-04-10T12:24:50Z</time>
      </trkpt>
      <trkpt lat="45.15613" lon="5.8028">
        <ele>847.4</ele>
        <time>2021-04-10T12:24:51Z</time>
      </trkpt>
      <trkpt lat="45.15612" lon="5.8028">
        <ele>847.6</ele>
        <time>2021-04-10T12:24:52Z</time>
      </trkpt>
      <trkpt lat="45.15612" lon="5.8028">
        <ele>847.8</ele>
        <time>2021-04-10T12:24:53Z</time>
      </trkpt>
      <trkpt lat="45.15611" lon="5.80281">
        <ele>848</ele>
        <time>2021-04-10T12:24:54Z</time>
      </trkpt>
      <trkpt lat="45.1561" lon="5.80281">
        <ele>848</ele>
        <time>2021-04-10T12:24:55Z</time>
      </trkpt>
      <trkpt lat="45.15609" lon="5.80281">
        <ele>848.4</ele>
        <time>2021-04-10T12:24:56Z</time>
      </trkpt>
      <trkpt lat="45.15609" lon="5.80281">
        <ele>848.6</ele>
        <time>2021-04-10T12:24:57Z</time>
      </trkpt>
      <trkpt lat="45.15608" lon="5.80281">
        <ele>848.6</ele>
        <time>2021-04-10T12:24:58Z</time>
      </trkpt>
      <trkpt lat="45.15607" lon="5.80281">
        <ele>848.8</ele>
        <time>2021-04-10T12:24:59Z</time>
      </trkpt>
      <trkpt lat="45.15607" lon="5.80281">
        <ele>849.2</ele>
        <time>2021-04-10T12:25:00Z</time>
      </trkpt>
      <trkpt lat="45.15606" lon="5.80281">
        <ele>849.4</ele>
        <time>2021-04-10T12:25:01Z</time>
      </trkpt>
      <trkpt lat="45.15605" lon="5.80281">
        <ele>849.8</ele>
        <time>2021-04-10T12:25:02Z</time>
      </trkpt>
      <trkpt lat="45.15604" lon="5.80281">
        <ele>849.8</ele>
        <time>2021-04-10T12:25:03Z</time>
      </trkpt>
      <trkpt lat="45.15604" lon="5.80281">
        <ele>850.2</ele>
        <time>2021-04-10T12:25:04Z</time>
      </trkpt>
      <trkpt lat="45.15603" lon="5.80282">
        <ele>850.4</ele>
        <time>2021-04-10T12:25:05Z</time>
      </trkpt>
      <trkpt lat="45.15602" lon="5.80282">
        <ele>850.6</ele>
        <time>2021-04-10T12:25:06Z</time>
      </trkpt>
      <trkpt lat="45.15601" lon="5.80282">
        <ele>850.8</ele>
        <time>2021-04-10T12:25:07Z</time>
      </trkpt>
      <trkpt lat="45.15601" lon="5.80282">
        <ele>851</ele>
        <time>2021-04-10T12:25:08Z</time>
      </trkpt>
      <trkpt lat="45.156" lon="5.80282">
        <ele>851.4</ele>
        <time>2021-04-10T12:25:09Z</time>
      </trkpt>
      <trkpt lat="45.15599" lon="5.80282">
        <ele>851.8</ele>
        <time>2021-04-10T12:25:10Z</time>
      </trkpt>
      <trkpt lat="45.15598" lon="5.80282">
        <ele>852.2</ele>
        <time>2021-04-10T12:25:11Z</time>
      </trkpt>
      <trkpt lat="45.15598" lon="5.80282">
        <ele>852.4</ele>
        <time>2021-04-10T12:25:12Z</time>
      </trkpt>
      <trkpt lat="45.15597" lon="5.80282">
        <ele>852.6</ele>
        <time>2021-04-10T12:25:13Z</time>
      </trkpt>
      <trkpt lat="45.15596" lon="5.80282">
        <ele>852.8</ele>
        <time>2021-04-10T12:25:14Z</time>
      </trkpt>
      <trkpt lat="45.15596" lon="5.80282">
        <ele>852.8</ele>
        <time>2021-04-10T12:25:15Z</time>
      </trkpt>
      <trkpt lat="45.15595" lon="5.80282">
        <ele>853.2</ele>
        <time>2021-04-10T12:25:16Z</time>
      </trkpt>
      <trkpt lat="45.15594" lon="5.80283">
        <ele>853.4</ele>
        <time>2021-04-10T12:25:17Z</time>
      </trkpt>
      <trkpt lat="45.15593" lon="5.80283">
        <ele>853.6</ele>
        <time>2021-04-10T12:25:18Z</time>
      </trkpt>
      <trkpt lat="45.15593" lon="5.80283">
        <ele>854</ele>
        <time>2021-04-10T12:25:19Z</time>
      </trkpt>
      <trkpt lat="45.15592" lon="5.80283">
        <ele>854.2</ele>
        <time>2021-04-10T12:25:20Z</time>
      </trkpt>
      <trkpt lat="45.15591" lon="5.80283">
        <ele>854.6</ele>
        <time>2021-04-10T12:25:21Z</time>
      </trkpt>
      <trkpt lat="45.1559" lon="5.80283">
        <ele>854.6</ele>
        <time>2021-04-10T12:25:22Z</time>
      </trkpt>
      <trkpt lat="45.1559" lon="5.80283">
        <ele>854.8</ele>
        <time>2021-04-10T12:25:23Z</time>
      </trkpt>
      <trkpt lat="45.15589" lon="5.80283">
        <ele>855.2</ele>
        <time>2021-04-10T12:25:24Z</time>
      </trkpt>
      <trkpt lat="45.15588" lon="5.80283">
        <ele>855.4</ele>
        <time>2021-04-10T12:25:25Z</time>
      </trkpt>
      <trkpt lat="45.15587" lon="5.80283">
        <ele>855.6</ele>
        <time>2021-04-10T12:25:26Z</time>
      </trkpt>
      <trkpt lat="45.15587" lon="5.80283">
        <ele>855.8</ele>
        <time>2021-04-10T12:25:27Z</time>
      </trkpt>
      <trkpt lat="45.15586" lon="5.80283">
        <ele>856</ele>
        <time>2021-04-10T12:25:28Z</time>
      </trkpt>
      <trkpt lat="45.15585" lon="5.80284">
        <ele>856.2</ele>
        <time>2021-04-10T12:25:29Z</time>
      </trkpt>
      <trkpt lat="45.15585" lon="5.80284">
        <ele>856.4</ele>
        <time>2021-04-10T12:25:30Z</time>
      </trkpt>
      <trkpt lat="45.15584" lon="5.80284">
        <ele>856.6</ele>
        <time>2021-04-10T12:25:31Z</time>
      </trkpt>
      <trkpt lat="45.15583" lon="5.80284">
        <ele>856.8</ele>
        <time>2021-04-10T12:25:32Z</time>
      </trkpt>
      <trkpt lat="45.15582" lon="5.80284">
        <ele>857</ele>
        <time>2021-04-10T12:25:33Z</time>
      </trkpt>
      <trkpt lat="45.15582" lon="5.80284">
        <ele>857.2</ele>
        <time>2021-04-10T12:25:34Z</time>
      </trkpt>
      <trkpt lat="45.15581" lon="5.80284">
        <ele>857.2</ele>
        <time>2021-04-10T12:25:35Z</time>
      </trkpt>
      <trkpt lat="45.1558" lon="5.80284">
        <ele>857.6</ele>
        <time>2021-04-10T12:25:36Z</time>
      </trkpt>
      <trkpt lat="45.15579" lon="5.80284">
        <ele>857.6</ele>
        <time>2021-04-10T12:25:37Z</time>
      </trkpt>
      <trkpt lat="45.15579" lon="5.80284">
        <ele>858</ele>
        <time>2021-04-10T12:25:38Z</time>
      </trkpt>
      <trkpt lat="45.15579" lon="5.80284">
        <ele>858.4</ele>
        <time>2021-04-10T12:25:39Z</time>
      </trkpt>
      <trkpt lat="45.15579" lon="5.80284">
        <ele>859</ele>
        <time>2021-04-10T12:25:40Z</time>
      </trkpt>
      <trkpt lat="45.15579" lon="5.80284">
        <ele>859.2</ele>
        <time>2021-04-10T12:25:41Z</time>
      </trkpt>
      <trkpt lat="45.15578" lon="5.80285">
        <ele>859.4</ele>
        <time>2021-04-10T12:25:42Z</time>
      </trkpt>
      <trkpt lat="45.15578" lon="5.80285">
        <ele>859.4</ele>
        <time>2021-04-10T12:25:43Z</time>
      </trkpt>
      <trkpt lat="45.15577" lon="5.80286">
        <ele>859.8</ele>
        <time>2021-04-10T12:25:44Z</time>
      </trkpt>
      <trkpt lat="45.15577" lon="5.80286">
        <ele>859.8</ele>
        <time>2021-04-10T12:25:45Z</time>
      </trkpt>
      <trkpt lat="45.15577" lon="5.80286">
        <ele>860.2</ele>
        <time>2021-04-10T12:25:46Z</time>
      </trkpt>
      <trkpt lat="45.15576" lon="5.80287">
        <ele>860.6</ele>
        <time>2021-04-10T12:25:47Z</time>
      </trkpt>
      <trkpt lat="45.15576" lon="5.80287">
        <ele>860.6</ele>
        <time>2021-04-10T12:25:48Z</time>
      </trkpt>
      <trkpt lat="45.15575" lon="5.80288">
        <ele>860.8</ele>
        <time>2021-04-10T12:25:49Z</time>
      </trkpt>
      <trkpt lat="45.15575" lon="5.80288">
        <ele>860.8</ele>
        <time>2021-04-10T12:25:50Z</time>
      </trkpt>
      <trkpt lat="45.15575" lon="5.80288">
        <ele>861</ele>
        <time>2021-04-10T12:25:51Z</time>
      </trkpt>
      <trkpt lat="45.15574" lon="5.80289">
        <ele>861</ele>
        <time>2021-04-10T12:25:52Z</time>
      </trkpt>
      <trkpt lat="45.15574" lon="5.80289">
        <ele>861.4</ele>
        <time>2021-04-10T12:25:53Z</time>
      </trkpt>
      <trkpt lat="45.15574" lon="5.8029">
        <ele>861.6</ele>
        <time>2021-04-10T12:25:54Z</time>
      </trkpt>
      <trkpt lat="45.15573" lon="5.8029">
        <ele>861.6</ele>
        <time>2021-04-10T12:25:55Z</time>
      </trkpt>
      <trkpt lat="45.15573" lon="5.8029">
        <ele>862</ele>
        <time>2021-04-10T12:25:56Z</time>
      </trkpt>
      <trkpt lat="45.15572" lon="5.80291">
        <ele>862.4</ele>
        <time>2021-04-10T12:25:57Z</time>
      </trkpt>
      <trkpt lat="45.15572" lon="5.80291">
        <ele>862.6</ele>
        <time>2021-04-10T12:25:58Z</time>
      </trkpt>
      <trkpt lat="45.15572" lon="5.80292">
        <ele>862.8</ele>
        <time>2021-04-10T12:25:59Z</time>
      </trkpt>
      <trkpt lat="45.15571" lon="5.80292">
        <ele>863</ele>
        <time>2021-04-10T12:26:00Z</time>
      </trkpt>
      <trkpt lat="45.1557" lon="5.80292">
        <ele>863.4</ele>
        <time>2021-04-10T12:26:01Z</time>
      </trkpt>
      <trkpt lat="45.15569" lon="5.80292">
        <ele>863.6</ele>
        <time>2021-04-10T12:26:02Z</time>
      </trkpt>
      <trkpt lat="45.15568" lon="5.80292">
        <ele>864.2</ele>
        <time>2021-04-10T12:26:03Z</time>
      </trkpt>
      <trkpt lat="45.15567" lon="5.80292">
        <ele>864.2</ele>
        <time>2021-04-10T12:26:04Z</time>
      </trkpt>
      <trkpt lat="45.15566" lon="5.80292">
        <ele>864.2</ele>
        <time>2021-04-10T12:26:05Z</time>
      </trkpt>
      <trkpt lat="45.15565" lon="5.80292">
        <ele>864.4</ele>
        <time>2021-04-10T12:26:06Z</time>
      </trkpt>
      <trkpt lat="45.15564" lon="5.80292">
        <ele>864.6</ele>
        <time>2021-04-10T12:26:07Z</time>
      </trkpt>
      <trkpt lat="45.15563" lon="5.80292">
        <ele>865</ele>
        <time>2021-04-10T12:26:08Z</time>
      </trkpt>
      <trkpt lat="45.15562" lon="5.80293">
        <ele>865.2</ele>
        <time>2021-04-10T12:26:09Z</time>
      </trkpt>
      <trkpt lat="45.15561" lon="5.80293">
        <ele>865.2</ele>
        <time>2021-04-10T12:26:10Z</time>
      </trkpt>
      <trkpt lat="45.1556" lon="5.80294">
        <ele>865.4</ele>
        <time>2021-04-10T12:26:11Z</time>
      </trkpt>
      <trkpt lat="45.15559" lon="5.80295">
        <ele>865.8</ele>
        <time>2021-04-10T12:26:12Z</time>
      </trkpt>
      <trkpt lat="45.15558" lon="5.80295">
        <ele>866</ele>
        <time>2021-04-10T12:26:13Z</time>
      </trkpt>
      <trkpt lat="45.15557" lon="5.80296">
        <ele>866.2</ele>
        <time>2021-04-10T12:26:14Z</time>
      </trkpt>
      <trkpt lat="45.15557" lon="5.80297">
        <ele>866.4</ele>
        <time>2021-04-10T12:26:15Z</time>
      </trkpt>
      <trkpt lat="45.15556" lon="5.80297">
        <ele>866.8</ele>
        <time>2021-04-10T12:26:16Z</time>
      </trkpt>
      <trkpt lat="45.15555" lon="5.80298">
        <ele>866.8</ele>
        <time>2021-04-10T12:26:17Z</time>
      </trkpt>
      <trkpt lat="45.15554" lon="5.80299">
        <ele>867</ele>
        <time>2021-04-10T12:26:18Z</time>
      </trkpt>
      <trkpt lat="45.15553" lon="5.80299">
        <ele>867.2</ele>
        <time>2021-04-10T12:26:19Z</time>
      </trkpt>
      <trkpt lat="45.15552" lon="5.803">
        <ele>867.6</ele>
        <time>2021-04-10T12:26:20Z</time>
      </trkpt>
      <trkpt lat="45.15551" lon="5.803">
        <ele>867.6</ele>
        <time>2021-04-10T12:26:21Z</time>
      </trkpt>
      <trkpt lat="45.1555" lon="5.80301">
        <ele>867.8</ele>
        <time>2021-04-10T12:26:22Z</time>
      </trkpt>
      <trkpt lat="45.1555" lon="5.80301">
        <ele>868</ele>
        <time>2021-04-10T12:26:23Z</time>
      </trkpt>
      <trkpt lat="45.15549" lon="5.80302">
        <ele>868</ele>
        <time>2021-04-10T12:26:24Z</time>
      </trkpt>
      <trkpt lat="45.15548" lon="5.80302">
        <ele>868.4</ele>
        <time>2021-04-10T12:26:25Z</time>
      </trkpt>
      <trkpt lat="45.15547" lon="5.80303">
        <ele>868.6</ele>
        <time>2021-04-10T12:26:26Z</time>
      </trkpt>
      <trkpt lat="45.15546" lon="5.80303">
        <ele>868.6</ele>
        <time>2021-04-10T12:26:27Z</time>
      </trkpt>
      <trkpt lat="45.15545" lon="5.80304">
        <ele>868.8</ele>
        <time>2021-04-10T12:26:28Z</time>
      </trkpt>
      <trkpt lat="45.15545" lon="5.80304">
        <ele>869</ele>
        <time>2021-04-10T12:26:29Z</time>
      </trkpt>
      <trkpt lat="45.15544" lon="5.80305">
        <ele>869</ele>
        <time>2021-04-10T12:26:30Z</time>
      </trkpt>
      <trkpt lat="45.15543" lon="5.80306">
        <ele>869.4</ele>
        <time>2021-04-10T12:26:31Z</time>
      </trkpt>
      <trkpt lat="45.15543" lon="5.80306">
        <ele>869.6</ele>
        <time>2021-04-10T12:26:32Z</time>
      </trkpt>
      <trkpt lat="45.15542" lon="5.80307">
        <ele>869.8</ele>
        <time>2021-04-10T12:26:33Z</time>
      </trkpt>
      <trkpt lat="45.15542" lon="5.80308">
        <ele>870</ele>
        <time>2021-04-10T12:26:34Z</time>
      </trkpt>
      <trkpt lat="45.15541" lon="5.80308">
        <ele>870</ele>
        <time>2021-04-10T12:26:35Z</time>
      </trkpt>
      <trkpt lat="45.1554" lon="5.80309">
        <ele>870.2</ele>
        <time>2021-04-10T12:26:36Z</time>
      </trkpt>
      <trkpt lat="45.1554" lon="5.8031">
        <ele>870.4</ele>
        <time>2021-04-10T12:26:37Z</time>
      </trkpt>
      <trkpt lat="45.15539" lon="5.8031">
        <ele>870.8</ele>
        <time>2021-04-10T12:26:38Z</time>
      </trkpt>
      <trkpt lat="45.15538" lon="5.80311">
        <ele>871</ele>
        <time>2021-04-10T12:26:39Z</time>
      </trkpt>
      <trkpt lat="45.15538" lon="5.80312">
        <ele>871.4</ele>
        <time>2021-04-10T12:26:40Z</time>
      </trkpt>
      <trkpt lat="45.15537" lon="5.80312">
        <ele>871.8</ele>
        <time>2021-04-10T12:26:41Z</time>
      </trkpt>
      <trkpt lat="45.15537" lon="5.80312">
        <ele>872.2</ele>
        <time>2021-04-10T12:26:42Z</time>
      </trkpt>
      <trkpt lat="45.15537" lon="5.80312">
        <ele>872.4</ele>
        <time>2021-04-10T12:26:43Z</time>
      </trkpt>
      <trkpt lat="45.15536" lon="5.80313">
        <ele>872.6</ele>
        <time>2021-04-10T12:26:44Z</time>
      </trkpt>
      <trkpt lat="45.15536" lon="5.80313">
        <ele>873</ele>
        <time>2021-04-10T12:26:45Z</time>
      </trkpt>
      <trkpt lat="45.15535" lon="5.80313">
        <ele>873.2</ele>
        <time>2021-04-10T12:26:46Z</time>
      </trkpt>
      <trkpt lat="45.15535" lon="5.80313">
        <ele>873.4</ele>
        <time>2021-04-10T12:26:47Z</time>
      </trkpt>
      <trkpt lat="45.15535" lon="5.80313">
        <ele>873.6</ele>
        <time>2021-04-10T12:26:48Z</time>
      </trkpt>
      <trkpt lat="45.15534" lon="5.80314">
        <ele>873.8</ele>
        <time>2021-04-10T12:26:49Z</time>
      </trkpt>
      <trkpt lat="45.15534" lon="5.80314">
        <ele>874</ele>
        <time>2021-04-10T12:26:50Z</time>
      </trkpt>
      <trkpt lat="45.15533" lon="5.80314">
        <ele>874.4</ele>
        <time>2021-04-10T12:26:51Z</time>
      </trkpt>
      <trkpt lat="45.15533" lon="5.80314">
        <ele>874.4</ele>
        <time>2021-04-10T12:26:52Z</time>
      </trkpt>
      <trkpt lat="45.15533" lon="5.80315">
        <ele>874.6</ele>
        <time>2021-04-10T12:26:53Z</time>
      </trkpt>
      <trkpt lat="45.15532" lon="5.80315">
        <ele>875</ele>
        <time>2021-04-10T12:26:54Z</time>
      </trkpt>
      <trkpt lat="45.15532" lon="5.80315">
        <ele>875.4</ele>
        <time>2021-04-10T12:26:55Z</time>
      </trkpt>
      <trkpt lat="45.15531" lon="5.80315">
        <ele>875.8</ele>
        <time>2021-04-10T12:26:56Z</time>
      </trkpt>
      <trkpt lat="45.15531" lon="5.80316">
        <ele>875.8</ele>
        <time>2021-04-10T12:26:57Z</time>
      </trkpt>
      <trkpt lat="45.15531" lon="5.80316">
        <ele>876.2</ele>
        <time>2021-04-10T12:26:58Z</time>
      </trkpt>
      <trkpt lat="45.1553" lon="5.80316">
        <ele>876.4</ele>
        <time>2021-04-10T12:26:59Z</time>
      </trkpt>
      <trkpt lat="45.1553" lon="5.80316">
        <ele>876.6</ele>
        <time>2021-04-10T12:27:00Z</time>
      </trkpt>
      <trkpt lat="45.15529" lon="5.80317">
        <ele>877</ele>
        <time>2021-04-10T12:27:01Z</time>
      </trkpt>
      <trkpt lat="45.15529" lon="5.80317">
        <ele>877.2</ele>
        <time>2021-04-10T12:27:02Z</time>
      </trkpt>
      <trkpt lat="45.15528" lon="5.80318">
        <ele>877.4</ele>
        <time>2021-04-10T12:27:03Z</time>
      </trkpt>
      <trkpt lat="45.15528" lon="5.80318">
        <ele>877.4</ele>
        <time>2021-04-10T12:27:04Z</time>
      </trkpt>
      <trkpt lat="45.15527" lon="5.80319">
        <ele>877.6</ele>
        <time>2021-04-10T12:27:05Z</time>
      </trkpt>
      <trkpt lat="45.15526" lon="5.80319">
        <ele>877.6</ele>
        <time>2021-04-10T12:27:06Z</time>
      </trkpt>
      <trkpt lat="45.15526" lon="5.8032">
        <ele>878</ele>
        <time>2021-04-10T12:27:07Z</time>
      </trkpt>
      <trkpt lat="45.15525" lon="5.8032">
        <ele>878.2</ele>
        <time>2021-04-10T12:27:08Z</time>
      </trkpt>
      <trkpt lat="45.15525" lon="5.80321">
        <ele>878.6</ele>
        <time>2021-04-10T12:27:09Z</time>
      </trkpt>
      <trkpt lat="45.15524" lon="5.80321">
        <ele>878.8</ele>
        <time>2021-04-10T12:27:10Z</time>
      </trkpt>
      <trkpt lat="45.15524" lon="5.80322">
        <ele>879</ele>
        <time>2021-04-10T12:27:11Z</time>
      </trkpt>
      <trkpt lat="45.15523" lon="5.80322">
        <ele>879.4</ele>
        <time>2021-04-10T12:27:12Z</time>
      </trkpt>
      <trkpt lat="45.15522" lon="5.80323">
        <ele>879.4</ele>
        <time>2021-04-10T12:27:13Z</time>
      </trkpt>
      <trkpt lat="45.15522" lon="5.80323">
        <ele>879.8</ele>
        <time>2021-04-10T12:27:14Z</time>
      </trkpt>
      <trkpt lat="45.15521" lon="5.80324">
        <ele>880</ele>
        <time>2021-04-10T12:27:15Z</time>
      </trkpt>
      <trkpt lat="45.1552" lon="5.80324">
        <ele>880.2</ele>
        <time>2021-04-10T12:27:16Z</time>
      </trkpt>
      <trkpt lat="45.15519" lon="5.80324">
        <ele>880.6</ele>
        <time>2021-04-10T12:27:17Z</time>
      </trkpt>
      <trkpt lat="45.15519" lon="5.80325">
        <ele>881</ele>
        <time>2021-04-10T12:27:18Z</time>
      </trkpt>
      <trkpt lat="45.15518" lon="5.80325">
        <ele>881.2</ele>
        <time>2021-04-10T12:27:19Z</time>
      </trkpt>
      <trkpt lat="45.15517" lon="5.80325">
        <ele>881.4</ele>
        <time>2021-04-10T12:27:20Z</time>
      </trkpt>
      <trkpt lat="45.15516" lon="5.80325">
        <ele>881.6</ele>
        <time>2021-04-10T12:27:21Z</time>
      </trkpt>
      <trkpt lat="45.15515" lon="5.80326">
        <ele>881.8</ele>
        <time>2021-04-10T12:27:22Z</time>
      </trkpt>
      <trkpt lat="45.15514" lon="5.80326">
        <ele>882.2</ele>
        <time>2021-04-10T12:27:23Z</time>
      </trkpt>
      <trkpt lat="45.15513" lon="5.80326">
        <ele>882.6</ele>
        <time>2021-04-10T12:27:24Z</time>
      </trkpt>
      <trkpt lat="45.15512" lon="5.80326">
        <ele>882.8</ele>
        <time>2021-04-10T12:27:25Z</time>
      </trkpt>
      <trkpt lat="45.15512" lon="5.80327">
        <ele>883.2</ele>
        <time>2021-04-10T12:27:26Z</time>
      </trkpt>
      <trkpt lat="45.15511" lon="5.80327">
        <ele>883.6</ele>
        <time>2021-04-10T12:27:27Z</time>
      </trkpt>
      <trkpt lat="45.1551" lon="5.80327">
        <ele>883.8</ele>
        <time>2021-04-10T12:27:28Z</time>
      </trkpt>
      <trkpt lat="45.1551" lon="5.80327">
        <ele>884</ele>
        <time>2021-04-10T12:27:29Z</time>
      </trkpt>
      <trkpt lat="45.15509" lon="5.80328">
        <ele>884.2</ele>
        <time>2021-04-10T12:27:30Z</time>
      </trkpt>
      <trkpt lat="45.15508" lon="5.80328">
        <ele>884.8</ele>
        <time>2021-04-10T12:27:31Z</time>
      </trkpt>
      <trkpt lat="45.15508" lon="5.80328">
        <ele>885.2</ele>
        <time>2021-04-10T12:27:32Z</time>
      </trkpt>
      <trkpt lat="45.15507" lon="5.80328">
        <ele>885.2</ele>
        <time>2021-04-10T12:27:33Z</time>
      </trkpt>
      <trkpt lat="45.15506" lon="5.80328">
        <ele>885.4</ele>
        <time>2021-04-10T12:27:34Z</time>
      </trkpt>
      <trkpt lat="45.15506" lon="5.80329">
        <ele>885.4</ele>
        <time>2021-04-10T12:27:35Z</time>
      </trkpt>
      <trkpt lat="45.15505" lon="5.80329">
        <ele>885.6</ele>
        <time>2021-04-10T12:27:36Z</time>
      </trkpt>
      <trkpt lat="45.15504" lon="5.80329">
        <ele>885.8</ele>
        <time>2021-04-10T12:27:37Z</time>
      </trkpt>
      <trkpt lat="45.15504" lon="5.80329">
        <ele>886</ele>
        <time>2021-04-10T12:27:38Z</time>
      </trkpt>
      <trkpt lat="45.15503" lon="5.8033">
        <ele>886</ele>
        <time>2021-04-10T12:27:39Z</time>
      </trkpt>
      <trkpt lat="45.15502" lon="5.8033">
        <ele>886</ele>
        <time>2021-04-10T12:27:40Z</time>
      </trkpt>
      <trkpt lat="45.15502" lon="5.80331">
        <ele>886.2</ele>
        <time>2021-04-10T12:27:41Z</time>
      </trkpt>
      <trkpt lat="45.15501" lon="5.80331">
        <ele>886.4</ele>
        <time>2021-04-10T12:27:42Z</time>
      </trkpt>
      <trkpt lat="45.15501" lon="5.80332">
        <ele>886.6</ele>
        <time>2021-04-10T12:27:43Z</time>
      </trkpt>
      <trkpt lat="45.155" lon="5.80333">
        <ele>886.8</ele>
        <time>2021-04-10T12:27:44Z</time>
      </trkpt>
      <trkpt lat="45.155" lon="5.80333">
        <ele>887</ele>
        <time>2021-04-10T12:27:45Z</time>
      </trkpt>
      <trkpt lat="45.15499" lon="5.80334">
        <ele>887.4</ele>
        <time>2021-04-10T12:27:46Z</time>
      </trkpt>
      <trkpt lat="45.15498" lon="5.80334">
        <ele>887.6</ele>
        <time>2021-04-10T12:27:47Z</time>
      </trkpt>
      <trkpt lat="45.15498" lon="5.80335">
        <ele>888</ele>
        <time>2021-04-10T12:27:48Z</time>
      </trkpt>
      <trkpt lat="45.15497" lon="5.80335">
        <ele>888</ele>
        <time>2021-04-10T12:27:49Z</time>
      </trkpt>
      <trkpt lat="45.15497" lon="5.80336">
        <ele>888.4</ele>
        <time>2021-04-10T12:27:50Z</time>
      </trkpt>
      <trkpt lat="45.15496" lon="5.80337">
        <ele>888.6</ele>
        <time>2021-04-10T12:27:51Z</time>
      </trkpt>
      <trkpt lat="45.15496" lon="5.80337">
        <ele>889</ele>
        <time>2021-04-10T12:27:52Z</time>
      </trkpt>
      <trkpt lat="45.15495" lon="5.80338">
        <ele>889.2</ele>
        <time>2021-04-10T12:27:53Z</time>
      </trkpt>
      <trkpt lat="45.15495" lon="5.80338">
        <ele>890</ele>
        <time>2021-04-10T12:27:54Z</time>
      </trkpt>
      <trkpt lat="45.15494" lon="5.80339">
        <ele>890</ele>
        <time>2021-04-10T12:27:55Z</time>
      </trkpt>
      <trkpt lat="45.15494" lon="5.80339">
        <ele>890</ele>
        <time>2021-04-10T12:27:56Z</time>
      </trkpt>
      <trkpt lat="45.15494" lon="5.8034">
        <ele>890.4</ele>
        <time>2021-04-10T12:27:57Z</time>
      </trkpt>
      <trkpt lat="45.15493" lon="5.8034">
        <ele>890.4</ele>
        <time>2021-04-10T12:27:58Z</time>
      </trkpt>
      <trkpt lat="45.15493" lon="5.80341">
        <ele>890.6</ele>
        <time>2021-04-10T12:27:59Z</time>
      </trkpt>
      <trkpt lat="45.15492" lon="5.80341">
        <ele>891</ele>
        <time>2021-04-10T12:28:00Z</time>
      </trkpt>
      <trkpt lat="45.15492" lon="5.80342">
        <ele>891.4</ele>
        <time>2021-04-10T12:28:01Z</time>
      </trkpt>
      <trkpt lat="45.15491" lon="5.80342">
        <ele>891.6</ele>
        <time>2021-04-10T12:28:02Z</time>
      </trkpt>
      <trkpt lat="45.15491" lon="5.80342">
        <ele>891.6</ele>
        <time>2021-04-10T12:28:03Z</time>
      </trkpt>
      <trkpt lat="45.1549" lon="5.80343">
        <ele>892</ele>
        <time>2021-04-10T12:28:04Z</time>
      </trkpt>
      <trkpt lat="45.1549" lon="5.80343">
        <ele>892.2</ele>
        <time>2021-04-10T12:28:05Z</time>
      </trkpt>
      <trkpt lat="45.1549" lon="5.80344">
        <ele>892.4</ele>
        <time>2021-04-10T12:28:06Z</time>
      </trkpt>
      <trkpt lat="45.15489" lon="5.80344">
        <ele>892.6</ele>
        <time>2021-04-10T12:28:07Z</time>
      </trkpt>
      <trkpt lat="45.15489" lon="5.80345">
        <ele>893</ele>
        <time>2021-04-10T12:28:08Z</time>
      </trkpt>
      <trkpt lat="45.15488" lon="5.80345">
        <ele>893</ele>
        <time>2021-04-10T12:28:09Z</time>
      </trkpt>
      <trkpt lat="45.15488" lon="5.80346">
        <ele>893.2</ele>
        <time>2021-04-10T12:28:10Z</time>
      </trkpt>
      <trkpt lat="45.15487" lon="5.80347">
        <ele>893.4</ele>
        <time>2021-04-10T12:28:11Z</time>
      </trkpt>
      <trkpt lat="45.15486" lon="5.80347">
        <ele>893.8</ele>
        <time>2021-04-10T12:28:12Z</time>
      </trkpt>
      <trkpt lat="45.15485" lon="5.80348">
        <ele>894.2</ele>
        <time>2021-04-10T12:28:13Z</time>
      </trkpt>
      <trkpt lat="45.15485" lon="5.80349">
        <ele>894.2</ele>
        <time>2021-04-10T12:28:14Z</time>
      </trkpt>
      <trkpt lat="45.15484" lon="5.80349">
        <ele>894.6</ele>
        <time>2021-04-10T12:28:15Z</time>
      </trkpt>
      <trkpt lat="45.15483" lon="5.8035">
        <ele>894.6</ele>
        <time>2021-04-10T12:28:16Z</time>
      </trkpt>
      <trkpt lat="45.15483" lon="5.80351">
        <ele>895.2</ele>
        <time>2021-04-10T12:28:17Z</time>
      </trkpt>
      <trkpt lat="45.15482" lon="5.80351">
        <ele>895.4</ele>
        <time>2021-04-10T12:28:18Z</time>
      </trkpt>
      <trkpt lat="45.15481" lon="5.80352">
        <ele>895.6</ele>
        <time>2021-04-10T12:28:19Z</time>
      </trkpt>
      <trkpt lat="45.1548" lon="5.80353">
        <ele>895.8</ele>
        <time>2021-04-10T12:28:20Z</time>
      </trkpt>
      <trkpt lat="45.1548" lon="5.80353">
        <ele>896</ele>
        <time>2021-04-10T12:28:21Z</time>
      </trkpt>
      <trkpt lat="45.15479" lon="5.80353">
        <ele>896.2</ele>
        <time>2021-04-10T12:28:22Z</time>
      </trkpt>
      <trkpt lat="45.15478" lon="5.80354">
        <ele>896.6</ele>
        <time>2021-04-10T12:28:23Z</time>
      </trkpt>
      <trkpt lat="45.15478" lon="5.80354">
        <ele>896.8</ele>
        <time>2021-04-10T12:28:24Z</time>
      </trkpt>
      <trkpt lat="45.15477" lon="5.80354">
        <ele>897.2</ele>
        <time>2021-04-10T12:28:25Z</time>
      </trkpt>
      <trkpt lat="45.15476" lon="5.80354">
        <ele>897.6</ele>
        <time>2021-04-10T12:28:26Z</time>
      </trkpt>
      <trkpt lat="45.15476" lon="5.80354">
        <ele>898</ele>
        <time>2021-04-10T12:28:27Z</time>
      </trkpt>
      <trkpt lat="45.15475" lon="5.80355">
        <ele>898.2</ele>
        <time>2021-04-10T12:28:28Z</time>
      </trkpt>
      <trkpt lat="45.15474" lon="5.80355">
        <ele>898.4</ele>
        <time>2021-04-10T12:28:29Z</time>
      </trkpt>
      <trkpt lat="45.15474" lon="5.80355">
        <ele>898.6</ele>
        <time>2021-04-10T12:28:30Z</time>
      </trkpt>
      <trkpt lat="45.15473" lon="5.80355">
        <ele>898.8</ele>
        <time>2021-04-10T12:28:31Z</time>
      </trkpt>
      <trkpt lat="45.15472" lon="5.80356">
        <ele>899.2</ele>
        <time>2021-04-10T12:28:32Z</time>
      </trkpt>
      <trkpt lat="45.15471" lon="5.80356">
        <ele>899.4</ele>
        <time>2021-04-10T12:28:33Z</time>
      </trkpt>
      <trkpt lat="45.15471" lon="5.80356">
        <ele>899.4</ele>
        <time>2021-04-10T12:28:34Z</time>
      </trkpt>
      <trkpt lat="45.15471" lon="5.80356">
        <ele>899.8</ele>
        <time>2021-04-10T12:28:35Z</time>
      </trkpt>
      <trkpt lat="45.1547" lon="5.80356">
        <ele>899.8</ele>
        <time>2021-04-10T12:28:36Z</time>
      </trkpt>
      <trkpt lat="45.1547" lon="5.80356">
        <ele>900.4</ele>
        <time>2021-04-10T12:28:37Z</time>
      </trkpt>
      <trkpt lat="45.15469" lon="5.80356">
        <ele>900.6</ele>
        <time>2021-04-10T12:28:38Z</time>
      </trkpt>
      <trkpt lat="45.15469" lon="5.80356">
        <ele>901</ele>
        <time>2021-04-10T12:28:39Z</time>
      </trkpt>
      <trkpt lat="45.15468" lon="5.80357">
        <ele>901</ele>
        <time>2021-04-10T12:28:40Z</time>
      </trkpt>
      <trkpt lat="45.15468" lon="5.80357">
        <ele>901.2</ele>
        <time>2021-04-10T12:28:41Z</time>
      </trkpt>
      <trkpt lat="45.15467" lon="5.80357">
        <ele>901.6</ele>
        <time>2021-04-10T12:28:42Z</time>
      </trkpt>
      <trkpt lat="45.15467" lon="5.80357">
        <ele>901.8</ele>
        <time>2021-04-10T12:28:43Z</time>
      </trkpt>
      <trkpt lat="45.15467" lon="5.80357">
        <ele>902</ele>
        <time>2021-04-10T12:28:44Z</time>
      </trkpt>
      <trkpt lat="45.15466" lon="5.80357">
        <ele>902.2</ele>
        <time>2021-04-10T12:28:45Z</time>
      </trkpt>
      <trkpt lat="45.15466" lon="5.80357">
        <ele>902.4</ele>
        <time>2021-04-10T12:28:46Z</time>
      </trkpt>
      <trkpt lat="45.15465" lon="5.80357">
        <ele>902.8</ele>
        <time>2021-04-10T12:28:47Z</time>
      </trkpt>
      <trkpt lat="45.15465" lon="5.80357">
        <ele>903</ele>
        <time>2021-04-10T12:28:48Z</time>
      </trkpt>
      <trkpt lat="45.15464" lon="5.80357">
        <ele>903.4</ele>
        <time>2021-04-10T12:28:49Z</time>
      </trkpt>
      <trkpt lat="45.15464" lon="5.80357">
        <ele>903.6</ele>
        <time>2021-04-10T12:28:50Z</time>
      </trkpt>
      <trkpt lat="45.15463" lon="5.80358">
        <ele>903.6</ele>
        <time>2021-04-10T12:28:51Z</time>
      </trkpt>
      <trkpt lat="45.15463" lon="5.80358">
        <ele>903.6</ele>
        <time>2021-04-10T12:28:52Z</time>
      </trkpt>
      <trkpt lat="45.15462" lon="5.80358">
        <ele>903.8</ele>
        <time>2021-04-10T12:28:53Z</time>
      </trkpt>
      <trkpt lat="45.15462" lon="5.80358">
        <ele>904</ele>
        <time>2021-04-10T12:28:54Z</time>
      </trkpt>
      <trkpt lat="45.15462" lon="5.80359">
        <ele>904.2</ele>
        <time>2021-04-10T12:28:55Z</time>
      </trkpt>
      <trkpt lat="45.15461" lon="5.80359">
        <ele>904.6</ele>
        <time>2021-04-10T12:28:56Z</time>
      </trkpt>
      <trkpt lat="45.1546" lon="5.8036">
        <ele>904.8</ele>
        <time>2021-04-10T12:28:57Z</time>
      </trkpt>
      <trkpt lat="45.1546" lon="5.80361">
        <ele>905.2</ele>
        <time>2021-04-10T12:28:58Z</time>
      </trkpt>
      <trkpt lat="45.15459" lon="5.80362">
        <ele>905.6</ele>
        <time>2021-04-10T12:28:59Z</time>
      </trkpt>
      <trkpt lat="45.15459" lon="5.80363">
        <ele>906</ele>
        <time>2021-04-10T12:29:00Z</time>
      </trkpt>
      <trkpt lat="45.15458" lon="5.80363">
        <ele>906</ele>
        <time>2021-04-10T12:29:01Z</time>
      </trkpt>
      <trkpt lat="45.15458" lon="5.80364">
        <ele>906.2</ele>
        <time>2021-04-10T12:29:02Z</time>
      </trkpt>
      <trkpt lat="45.15457" lon="5.80365">
        <ele>906.6</ele>
        <time>2021-04-10T12:29:03Z</time>
      </trkpt>
      <trkpt lat="45.15457" lon="5.80366">
        <ele>907</ele>
        <time>2021-04-10T12:29:04Z</time>
      </trkpt>
      <trkpt lat="45.15456" lon="5.80367">
        <ele>907.4</ele>
        <time>2021-04-10T12:29:05Z</time>
      </trkpt>
      <trkpt lat="45.15456" lon="5.80367">
        <ele>907.4</ele>
        <time>2021-04-10T12:29:06Z</time>
      </trkpt>
      <trkpt lat="45.15455" lon="5.80368">
        <ele>907.8</ele>
        <time>2021-04-10T12:29:07Z</time>
      </trkpt>
      <trkpt lat="45.15455" lon="5.80369">
        <ele>907.8</ele>
        <time>2021-04-10T12:29:08Z</time>
      </trkpt>
      <trkpt lat="45.15454" lon="5.80369">
        <ele>908</ele>
        <time>2021-04-10T12:29:09Z</time>
      </trkpt>
      <trkpt lat="45.15454" lon="5.8037">
        <ele>908.4</ele>
        <time>2021-04-10T12:29:10Z</time>
      </trkpt>
      <trkpt lat="45.15453" lon="5.8037">
        <ele>908.4</ele>
        <time>2021-04-10T12:29:11Z</time>
      </trkpt>
      <trkpt lat="45.15453" lon="5.80371">
        <ele>908.8</ele>
        <time>2021-04-10T12:29:12Z</time>
      </trkpt>
      <trkpt lat="45.15452" lon="5.80371">
        <ele>909</ele>
        <time>2021-04-10T12:29:13Z</time>
      </trkpt>
      <trkpt lat="45.15452" lon="5.80372">
        <ele>909.4</ele>
        <time>2021-04-10T12:29:14Z</time>
      </trkpt>
      <trkpt lat="45.15452" lon="5.80373">
        <ele>909.6</ele>
        <time>2021-04-10T12:29:15Z</time>
      </trkpt>
      <trkpt lat="45.15451" lon="5.80373">
        <ele>909.8</ele>
        <time>2021-04-10T12:29:16Z</time>
      </trkpt>
      <trkpt lat="45.15451" lon="5.80374">
        <ele>910.2</ele>
        <time>2021-04-10T12:29:17Z</time>
      </trkpt>
      <trkpt lat="45.1545" lon="5.80374">
        <ele>910.2</ele>
        <time>2021-04-10T12:29:18Z</time>
      </trkpt>
      <trkpt lat="45.1545" lon="5.80375">
        <ele>910.4</ele>
        <time>2021-04-10T12:29:19Z</time>
      </trkpt>
      <trkpt lat="45.15449" lon="5.80375">
        <ele>910.6</ele>
        <time>2021-04-10T12:29:20Z</time>
      </trkpt>
      <trkpt lat="45.15449" lon="5.80376">
        <ele>911</ele>
        <time>2021-04-10T12:29:21Z</time>
      </trkpt>
      <trkpt lat="45.15449" lon="5.80376">
        <ele>911.4</ele>
        <time>2021-04-10T12:29:22Z</time>
      </trkpt>
      <trkpt lat="45.15449" lon="5.80376">
        <ele>911.4</ele>
        <time>2021-04-10T12:29:23Z</time>
      </trkpt>
      <trkpt lat="45.15449" lon="5.80376">
        <ele>911.6</ele>
        <time>2021-04-10T12:29:24Z</time>
      </trkpt>
      <trkpt lat="45.15449" lon="5.80376">
        <ele>911.8</ele>
        <time>2021-04-10T12:29:25Z</time>
      </trkpt>
      <trkpt lat="45.15449" lon="5.80376">
        <ele>912</ele>
        <time>2021-04-10T12:29:26Z</time>
      </trkpt>
      <trkpt lat="45.15449" lon="5.80376">
        <ele>912</ele>
        <time>2021-04-10T12:29:27Z</time>
      </trkpt>
      <trkpt lat="45.15449" lon="5.80376">
        <ele>912</ele>
        <time>2021-04-10T12:29:28Z</time>
      </trkpt>
      <trkpt lat="45.15449" lon="5.80376">
        <ele>912.2</ele>
        <time>2021-04-10T12:29:29Z</time>
      </trkpt>
      <trkpt lat="45.15449" lon="5.80376">
        <ele>912</ele>
        <time>2021-04-10T12:29:30Z</time>
      </trkpt>
      <trkpt lat="45.15449" lon="5.80376">
        <ele>912</ele>
        <time>2021-04-10T12:29:31Z</time>
      </trkpt>
      <trkpt lat="45.15449" lon="5.80376">
        <ele>912.2</ele>
        <time>2021-04-10T12:29:32Z</time>
      </trkpt>
      <trkpt lat="45.15449" lon="5.80376">
        <ele>912.2</ele>
        <time>2021-04-10T12:29:33Z</time>
      </trkpt>
      <trkpt lat="45.15449" lon="5.80376">
        <ele>912.2</ele>
        <time>2021-04-10T12:29:34Z</time>
      </trkpt>
      <trkpt lat="45.15449" lon="5.80376">
        <ele>912.4</ele>
        <time>2021-04-10T12:29:35Z</time>
      </trkpt>
      <trkpt lat="45.15449" lon="5.80376">
        <ele>912.4</ele>
        <time>2021-04-10T12:29:36Z</time>
      </trkpt>
      <trkpt lat="45.15449" lon="5.80376">
        <ele>912.4</ele>
        <time>2021-04-10T12:29:37Z</time>
      </trkpt>
      <trkpt lat="45.15449" lon="5.80376">
        <ele>912.2</ele>
        <time>2021-04-10T12:29:38Z</time>
      </trkpt>
      <trkpt lat="45.15449" lon="5.80376">
        <ele>912.6</ele>
        <time>2021-04-10T12:29:39Z</time>
      </trkpt>
      <trkpt lat="45.15449" lon="5.80376">
        <ele>912.8</ele>
        <time>2021-04-10T12:29:40Z</time>
      </trkpt>
      <trkpt lat="45.15449" lon="5.80376">
        <ele>913</ele>
        <time>2021-04-10T12:29:41Z</time>
      </trkpt>
      <trkpt lat="45.15448" lon="5.80374">
        <ele>913</ele>
        <time>2021-04-10T12:29:42Z</time>
      </trkpt>
      <trkpt lat="45.15448" lon="5.80374">
        <ele>913</ele>
        <time>2021-04-10T12:29:43Z</time>
      </trkpt>
      <trkpt lat="45.15448" lon="5.80374">
        <ele>913.2</ele>
        <time>2021-04-10T12:29:44Z</time>
      </trkpt>
      <trkpt lat="45.15448" lon="5.80374">
        <ele>913.2</ele>
        <time>2021-04-10T12:29:45Z</time>
      </trkpt>
      <trkpt lat="45.15448" lon="5.80374">
        <ele>912.8</ele>
        <time>2021-04-10T12:29:46Z</time>
      </trkpt>
      <trkpt lat="45.15448" lon="5.80374">
        <ele>912.8</ele>
        <time>2021-04-10T12:29:47Z</time>
      </trkpt>
      <trkpt lat="45.15448" lon="5.80374">
        <ele>912.6</ele>
        <time>2021-04-10T12:29:48Z</time>
      </trkpt>
      <trkpt lat="45.15448" lon="5.80374">
        <ele>912.6</ele>
        <time>2021-04-10T12:29:49Z</time>
      </trkpt>
      <trkpt lat="45.15445" lon="5.80374">
        <ele>912.6</ele>
        <time>2021-04-10T12:29:50Z</time>
      </trkpt>
      <trkpt lat="45.15444" lon="5.80374">
        <ele>912.6</ele>
        <time>2021-04-10T12:29:51Z</time>
      </trkpt>
      <trkpt lat="45.15444" lon="5.80374">
        <ele>912.4</ele>
        <time>2021-04-10T12:29:52Z</time>
      </trkpt>
      <trkpt lat="45.15443" lon="5.80374">
        <ele>912.2</ele>
        <time>2021-04-10T12:29:53Z</time>
      </trkpt>
      <trkpt lat="45.15443" lon="5.80374">
        <ele>912</ele>
        <time>2021-04-10T12:29:54Z</time>
      </trkpt>
      <trkpt lat="45.15442" lon="5.80374">
        <ele>912.2</ele>
        <time>2021-04-10T12:29:55Z</time>
      </trkpt>
      <trkpt lat="45.15442" lon="5.80374">
        <ele>912.2</ele>
        <time>2021-04-10T12:29:56Z</time>
      </trkpt>
      <trkpt lat="45.15441" lon="5.80374">
        <ele>912.2</ele>
        <time>2021-04-10T12:29:57Z</time>
      </trkpt>
      <trkpt lat="45.1544" lon="5.80374">
        <ele>912</ele>
        <time>2021-04-10T12:29:58Z</time>
      </trkpt>
      <trkpt lat="45.1544" lon="5.80374">
        <ele>912.2</ele>
        <time>2021-04-10T12:29:59Z</time>
      </trkpt>
      <trkpt lat="45.15439" lon="5.80374">
        <ele>912.4</ele>
        <time>2021-04-10T12:30:01Z</time>
      </trkpt>
      <trkpt lat="45.15439" lon="5.80374">
        <ele>912.4</ele>
        <time>2021-04-10T12:30:02Z</time>
      </trkpt>
      <trkpt lat="45.15438" lon="5.80374">
        <ele>912.4</ele>
        <time>2021-04-10T12:30:03Z</time>
      </trkpt>
      <trkpt lat="45.15438" lon="5.80374">
        <ele>912.4</ele>
        <time>2021-04-10T12:30:04Z</time>
      </trkpt>
      <trkpt lat="45.15437" lon="5.80374">
        <ele>912.4</ele>
        <time>2021-04-10T12:30:05Z</time>
      </trkpt>
      <trkpt lat="45.15437" lon="5.80374">
        <ele>912.4</ele>
        <time>2021-04-10T12:30:06Z</time>
      </trkpt>
      <trkpt lat="45.15436" lon="5.80374">
        <ele>912.4</ele>
        <time>2021-04-10T12:30:07Z</time>
      </trkpt>
      <trkpt lat="45.15435" lon="5.80374">
        <ele>912.2</ele>
        <time>2021-04-10T12:30:08Z</time>
      </trkpt>
      <trkpt lat="45.15435" lon="5.80374">
        <ele>912.4</ele>
        <time>2021-04-10T12:30:09Z</time>
      </trkpt>
      <trkpt lat="45.15434" lon="5.80373">
        <ele>912.4</ele>
        <time>2021-04-10T12:30:10Z</time>
      </trkpt>
      <trkpt lat="45.15434" lon="5.80373">
        <ele>912.2</ele>
        <time>2021-04-10T12:30:11Z</time>
      </trkpt>
      <trkpt lat="45.15433" lon="5.80373">
        <ele>912.2</ele>
        <time>2021-04-10T12:30:12Z</time>
      </trkpt>
      <trkpt lat="45.15433" lon="5.80373">
        <ele>912.2</ele>
        <time>2021-04-10T12:30:13Z</time>
      </trkpt>
      <trkpt lat="45.15432" lon="5.80373">
        <ele>912</ele>
        <time>2021-04-10T12:30:14Z</time>
      </trkpt>
      <trkpt lat="45.15432" lon="5.80373">
        <ele>912</ele>
        <time>2021-04-10T12:30:15Z</time>
      </trkpt>
      <trkpt lat="45.15431" lon="5.80373">
        <ele>912</ele>
        <time>2021-04-10T12:30:16Z</time>
      </trkpt>
      <trkpt lat="45.1543" lon="5.80373">
        <ele>912.2</ele>
        <time>2021-04-10T12:30:17Z</time>
      </trkpt>
      <trkpt lat="45.1543" lon="5.80373">
        <ele>912</ele>
        <time>2021-04-10T12:30:18Z</time>
      </trkpt>
      <trkpt lat="45.15429" lon="5.80373">
        <ele>912.2</ele>
        <time>2021-04-10T12:30:19Z</time>
      </trkpt>
      <trkpt lat="45.15429" lon="5.80373">
        <ele>912.2</ele>
        <time>2021-04-10T12:30:20Z</time>
      </trkpt>
      <trkpt lat="45.15428" lon="5.80373">
        <ele>912.2</ele>
        <time>2021-04-10T12:30:21Z</time>
      </trkpt>
      <trkpt lat="45.15428" lon="5.80373">
        <ele>912.2</ele>
        <time>2021-04-10T12:30:22Z</time>
      </trkpt>
      <trkpt lat="45.15427" lon="5.80373">
        <ele>912.2</ele>
        <time>2021-04-10T12:30:23Z</time>
      </trkpt>
      <trkpt lat="45.15427" lon="5.80373">
        <ele>912.2</ele>
        <time>2021-04-10T12:30:24Z</time>
      </trkpt>
      <trkpt lat="45.15426" lon="5.80373">
        <ele>912.2</ele>
        <time>2021-04-10T12:30:25Z</time>
      </trkpt>
      <trkpt lat="45.15426" lon="5.80373">
        <ele>912.2</ele>
        <time>2021-04-10T12:30:26Z</time>
      </trkpt>
      <trkpt lat="45.15425" lon="5.80373">
        <ele>912</ele>
        <time>2021-04-10T12:30:27Z</time>
      </trkpt>
      <trkpt lat="45.15424" lon="5.80373">
        <ele>912</ele>
        <time>2021-04-10T12:30:28Z</time>
      </trkpt>
      <trkpt lat="45.15424" lon="5.80372">
        <ele>912</ele>
        <time>2021-04-10T12:30:29Z</time>
      </trkpt>
      <trkpt lat="45.15423" lon="5.80372">
        <ele>912.2</ele>
        <time>2021-04-10T12:30:30Z</time>
      </trkpt>
      <trkpt lat="45.15423" lon="5.80372">
        <ele>912.4</ele>
        <time>2021-04-10T12:30:31Z</time>
      </trkpt>
      <trkpt lat="45.15422" lon="5.80372">
        <ele>912.4</ele>
        <time>2021-04-10T12:30:32Z</time>
      </trkpt>
      <trkpt lat="45.15422" lon="5.80372">
        <ele>912.6</ele>
        <time>2021-04-10T12:30:33Z</time>
      </trkpt>
      <trkpt lat="45.15421" lon="5.80372">
        <ele>912.8</ele>
        <time>2021-04-10T12:30:34Z</time>
      </trkpt>
      <trkpt lat="45.15421" lon="5.80372">
        <ele>913.2</ele>
        <time>2021-04-10T12:30:35Z</time>
      </trkpt>
      <trkpt lat="45.1542" lon="5.80372">
        <ele>913.4</ele>
        <time>2021-04-10T12:30:36Z</time>
      </trkpt>
      <trkpt lat="45.15419" lon="5.80372">
        <ele>913.6</ele>
        <time>2021-04-10T12:30:38Z</time>
      </trkpt>
      <trkpt lat="45.15419" lon="5.80372">
        <ele>913.8</ele>
        <time>2021-04-10T12:30:39Z</time>
      </trkpt>
      <trkpt lat="45.15418" lon="5.80372">
        <ele>914.2</ele>
        <time>2021-04-10T12:30:40Z</time>
      </trkpt>
      <trkpt lat="45.15418" lon="5.80372">
        <ele>914.2</ele>
        <time>2021-04-10T12:30:41Z</time>
      </trkpt>
      <trkpt lat="45.15417" lon="5.80372">
        <ele>914.4</ele>
        <time>2021-04-10T12:30:42Z</time>
      </trkpt>
      <trkpt lat="45.15417" lon="5.80372">
        <ele>914.6</ele>
        <time>2021-04-10T12:30:43Z</time>
      </trkpt>
      <trkpt lat="45.15416" lon="5.80372">
        <ele>914.6</ele>
        <time>2021-04-10T12:30:44Z</time>
      </trkpt>
      <trkpt lat="45.15416" lon="5.80372">
        <ele>914.6</ele>
        <time>2021-04-10T12:30:45Z</time>
      </trkpt>
      <trkpt lat="45.15415" lon="5.80372">
        <ele>914.6</ele>
        <time>2021-04-10T12:30:46Z</time>
      </trkpt>
      <trkpt lat="45.15414" lon="5.80372">
        <ele>914.6</ele>
        <time>2021-04-10T12:30:47Z</time>
      </trkpt>
      <trkpt lat="45.15414" lon="5.80372">
        <ele>914.8</ele>
        <time>2021-04-10T12:30:48Z</time>
      </trkpt>
      <trkpt lat="45.15413" lon="5.80372">
        <ele>914.8</ele>
        <time>2021-04-10T12:30:49Z</time>
      </trkpt>
      <trkpt lat="45.15413" lon="5.80371">
        <ele>915</ele>
        <time>2021-04-10T12:30:50Z</time>
      </trkpt>
      <trkpt lat="45.15412" lon="5.80371">
        <ele>915</ele>
        <time>2021-04-10T12:30:51Z</time>
      </trkpt>
      <trkpt lat="45.15412" lon="5.80371">
        <ele>915.2</ele>
        <time>2021-04-10T12:30:52Z</time>
      </trkpt>
      <trkpt lat="45.15411" lon="5.80371">
        <ele>915.6</ele>
        <time>2021-04-10T12:30:53Z</time>
      </trkpt>
      <trkpt lat="45.15411" lon="5.80371">
        <ele>915.8</ele>
        <time>2021-04-10T12:30:54Z</time>
      </trkpt>
      <trkpt lat="45.1541" lon="5.80371">
        <ele>916</ele>
        <time>2021-04-10T12:30:55Z</time>
      </trkpt>
      <trkpt lat="45.15409" lon="5.80371">
        <ele>916.2</ele>
        <time>2021-04-10T12:30:56Z</time>
      </trkpt>
      <trkpt lat="45.15409" lon="5.80371">
        <ele>916.6</ele>
        <time>2021-04-10T12:30:57Z</time>
      </trkpt>
      <trkpt lat="45.15408" lon="5.80371">
        <ele>917.2</ele>
        <time>2021-04-10T12:30:58Z</time>
      </trkpt>
      <trkpt lat="45.15408" lon="5.80371">
        <ele>917.4</ele>
        <time>2021-04-10T12:30:59Z</time>
      </trkpt>
      <trkpt lat="45.15407" lon="5.80371">
        <ele>917.6</ele>
        <time>2021-04-10T12:31:00Z</time>
      </trkpt>
      <trkpt lat="45.15407" lon="5.80371">
        <ele>917.8</ele>
        <time>2021-04-10T12:31:01Z</time>
      </trkpt>
      <trkpt lat="45.15406" lon="5.80371">
        <ele>918</ele>
        <time>2021-04-10T12:31:02Z</time>
      </trkpt>
      <trkpt lat="45.15406" lon="5.80371">
        <ele>918.2</ele>
        <time>2021-04-10T12:31:03Z</time>
      </trkpt>
      <trkpt lat="45.15405" lon="5.80371">
        <ele>918.4</ele>
        <time>2021-04-10T12:31:04Z</time>
      </trkpt>
      <trkpt lat="45.15405" lon="5.80371">
        <ele>918.8</ele>
        <time>2021-04-10T12:31:05Z</time>
      </trkpt>
      <trkpt lat="45.15404" lon="5.80371">
        <ele>918.6</ele>
        <time>2021-04-10T12:31:06Z</time>
      </trkpt>
      <trkpt lat="45.15403" lon="5.80371">
        <ele>918.8</ele>
        <time>2021-04-10T12:31:07Z</time>
      </trkpt>
      <trkpt lat="45.15403" lon="5.80371">
        <ele>919.2</ele>
        <time>2021-04-10T12:31:08Z</time>
      </trkpt>
      <trkpt lat="45.15402" lon="5.8037">
        <ele>919.2</ele>
        <time>2021-04-10T12:31:09Z</time>
      </trkpt>
      <trkpt lat="45.15402" lon="5.8037">
        <ele>919.4</ele>
        <time>2021-04-10T12:31:10Z</time>
      </trkpt>
      <trkpt lat="45.15401" lon="5.8037">
        <ele>919.4</ele>
        <time>2021-04-10T12:31:11Z</time>
      </trkpt>
      <trkpt lat="45.15401" lon="5.8037">
        <ele>919.6</ele>
        <time>2021-04-10T12:31:12Z</time>
      </trkpt>
      <trkpt lat="45.154" lon="5.8037">
        <ele>919.6</ele>
        <time>2021-04-10T12:31:13Z</time>
      </trkpt>
      <trkpt lat="45.154" lon="5.8037">
        <ele>919.8</ele>
        <time>2021-04-10T12:31:14Z</time>
      </trkpt>
      <trkpt lat="45.15399" lon="5.8037">
        <ele>920</ele>
        <time>2021-04-10T12:31:15Z</time>
      </trkpt>
      <trkpt lat="45.15398" lon="5.8037">
        <ele>920.2</ele>
        <time>2021-04-10T12:31:16Z</time>
      </trkpt>
      <trkpt lat="45.15398" lon="5.8037">
        <ele>920.4</ele>
        <time>2021-04-10T12:31:17Z</time>
      </trkpt>
      <trkpt lat="45.15397" lon="5.8037">
        <ele>920.6</ele>
        <time>2021-04-10T12:31:18Z</time>
      </trkpt>
      <trkpt lat="45.15397" lon="5.8037">
        <ele>921</ele>
        <time>2021-04-10T12:31:19Z</time>
      </trkpt>
      <trkpt lat="45.15396" lon="5.8037">
        <ele>921.2</ele>
        <time>2021-04-10T12:31:20Z</time>
      </trkpt>
      <trkpt lat="45.15396" lon="5.8037">
        <ele>921.2</ele>
        <time>2021-04-10T12:31:21Z</time>
      </trkpt>
      <trkpt lat="45.15395" lon="5.8037">
        <ele>921.2</ele>
        <time>2021-04-10T12:31:22Z</time>
      </trkpt>
      <trkpt lat="45.15395" lon="5.8037">
        <ele>921.4</ele>
        <time>2021-04-10T12:31:23Z</time>
      </trkpt>
      <trkpt lat="45.15394" lon="5.8037">
        <ele>922.2</ele>
        <time>2021-04-10T12:31:24Z</time>
      </trkpt>
      <trkpt lat="45.15393" lon="5.8037">
        <ele>922.2</ele>
        <time>2021-04-10T12:31:25Z</time>
      </trkpt>
      <trkpt lat="45.15393" lon="5.8037">
        <ele>922</ele>
        <time>2021-04-10T12:31:26Z</time>
      </trkpt>
      <trkpt lat="45.15392" lon="5.8037">
        <ele>922.2</ele>
        <time>2021-04-10T12:31:27Z</time>
      </trkpt>
      <trkpt lat="45.15392" lon="5.8037">
        <ele>922</ele>
        <time>2021-04-10T12:31:28Z</time>
      </trkpt>
      <trkpt lat="45.15391" lon="5.80369">
        <ele>922.4</ele>
        <time>2021-04-10T12:31:29Z</time>
      </trkpt>
      <trkpt lat="45.15391" lon="5.80369">
        <ele>922.6</ele>
        <time>2021-04-10T12:31:30Z</time>
      </trkpt>
      <trkpt lat="45.1539" lon="5.80369">
        <ele>922.6</ele>
        <time>2021-04-10T12:31:31Z</time>
      </trkpt>
      <trkpt lat="45.1539" lon="5.80369">
        <ele>922.6</ele>
        <time>2021-04-10T12:31:32Z</time>
      </trkpt>
      <trkpt lat="45.15389" lon="5.80369">
        <ele>922.6</ele>
        <time>2021-04-10T12:31:33Z</time>
      </trkpt>
      <trkpt lat="45.15389" lon="5.80369">
        <ele>922.6</ele>
        <time>2021-04-10T12:31:34Z</time>
      </trkpt>
      <trkpt lat="45.15388" lon="5.80369">
        <ele>922.6</ele>
        <time>2021-04-10T12:31:35Z</time>
      </trkpt>
      <trkpt lat="45.15388" lon="5.80369">
        <ele>922.6</ele>
        <time>2021-04-10T12:31:36Z</time>
      </trkpt>
      <trkpt lat="45.15389" lon="5.80369">
        <ele>922.6</ele>
        <time>2021-04-10T12:31:37Z</time>
      </trkpt>
      <trkpt lat="45.15389" lon="5.80369">
        <ele>922.8</ele>
        <time>2021-04-10T12:31:38Z</time>
      </trkpt>
      <trkpt lat="45.15389" lon="5.8037">
        <ele>922.8</ele>
        <time>2021-04-10T12:31:39Z</time>
      </trkpt>
      <trkpt lat="45.15389" lon="5.8037">
        <ele>923</ele>
        <time>2021-04-10T12:31:40Z</time>
      </trkpt>
      <trkpt lat="45.1539" lon="5.8037">
        <ele>923</ele>
        <time>2021-04-10T12:31:41Z</time>
      </trkpt>
      <trkpt lat="45.1539" lon="5.8037">
        <ele>923</ele>
        <time>2021-04-10T12:31:42Z</time>
      </trkpt>
      <trkpt lat="45.1539" lon="5.8037">
        <ele>923</ele>
        <time>2021-04-10T12:31:43Z</time>
      </trkpt>
      <trkpt lat="45.15391" lon="5.8037">
        <ele>923.2</ele>
        <time>2021-04-10T12:31:44Z</time>
      </trkpt>
      <trkpt lat="45.15391" lon="5.8037">
        <ele>923</ele>
        <time>2021-04-10T12:31:45Z</time>
      </trkpt>
      <trkpt lat="45.15391" lon="5.8037">
        <ele>923</ele>
        <time>2021-04-10T12:31:46Z</time>
      </trkpt>
      <trkpt lat="45.15391" lon="5.8037">
        <ele>922.8</ele>
        <time>2021-04-10T12:31:47Z</time>
      </trkpt>
      <trkpt lat="45.15392" lon="5.80371">
        <ele>922.8</ele>
        <time>2021-04-10T12:31:48Z</time>
      </trkpt>
      <trkpt lat="45.15392" lon="5.80371">
        <ele>922.8</ele>
        <time>2021-04-10T12:31:49Z</time>
      </trkpt>
      <trkpt lat="45.15392" lon="5.80371">
        <ele>922.8</ele>
        <time>2021-04-10T12:31:50Z</time>
      </trkpt>
      <trkpt lat="45.15392" lon="5.80371">
        <ele>922.6</ele>
        <time>2021-04-10T12:31:51Z</time>
      </trkpt>
      <trkpt lat="45.15393" lon="5.80371">
        <ele>922.6</ele>
        <time>2021-04-10T12:31:52Z</time>
      </trkpt>
      <trkpt lat="45.15393" lon="5.80371">
        <ele>922.4</ele>
        <time>2021-04-10T12:31:53Z</time>
      </trkpt>
      <trkpt lat="45.15393" lon="5.80371">
        <ele>922.6</ele>
        <time>2021-04-10T12:31:54Z</time>
      </trkpt>
      <trkpt lat="45.15394" lon="5.80371">
        <ele>922.6</ele>
        <time>2021-04-10T12:31:55Z</time>
      </trkpt>
      <trkpt lat="45.15394" lon="5.80371">
        <ele>922.6</ele>
        <time>2021-04-10T12:31:56Z</time>
      </trkpt>
      <trkpt lat="45.15394" lon="5.80371">
        <ele>922.8</ele>
        <time>2021-04-10T12:31:57Z</time>
      </trkpt>
      <trkpt lat="45.15394" lon="5.80372">
        <ele>923</ele>
        <time>2021-04-10T12:31:58Z</time>
      </trkpt>
      <trkpt lat="45.15395" lon="5.80372">
        <ele>923</ele>
        <time>2021-04-10T12:31:59Z</time>
      </trkpt>
      <trkpt lat="45.15395" lon="5.80372">
        <ele>922.8</ele>
        <time>2021-04-10T12:32:00Z</time>
      </trkpt>
      <trkpt lat="45.15395" lon="5.80372">
        <ele>922.6</ele>
        <time>2021-04-10T12:32:01Z</time>
      </trkpt>
      <trkpt lat="45.15396" lon="5.80372">
        <ele>922.4</ele>
        <time>2021-04-10T12:32:02Z</time>
      </trkpt>
      <trkpt lat="45.15396" lon="5.80372">
        <ele>922.4</ele>
        <time>2021-04-10T12:32:03Z</time>
      </trkpt>
      <trkpt lat="45.15396" lon="5.80372">
        <ele>922.6</ele>
        <time>2021-04-10T12:32:04Z</time>
      </trkpt>
      <trkpt lat="45.15396" lon="5.80372">
        <ele>922.4</ele>
        <time>2021-04-10T12:32:05Z</time>
      </trkpt>
      <trkpt lat="45.15397" lon="5.80372">
        <ele>922.2</ele>
        <time>2021-04-10T12:32:06Z</time>
      </trkpt>
      <trkpt lat="45.15397" lon="5.80372">
        <ele>922.2</ele>
        <time>2021-04-10T12:32:07Z</time>
      </trkpt>
      <trkpt lat="45.15397" lon="5.80373">
        <ele>922</ele>
        <time>2021-04-10T12:32:08Z</time>
      </trkpt>
      <trkpt lat="45.15398" lon="5.80373">
        <ele>922.2</ele>
        <time>2021-04-10T12:32:09Z</time>
      </trkpt>
      <trkpt lat="45.15398" lon="5.80373">
        <ele>922</ele>
        <time>2021-04-10T12:32:10Z</time>
      </trkpt>
      <trkpt lat="45.15398" lon="5.80373">
        <ele>922</ele>
        <time>2021-04-10T12:32:11Z</time>
      </trkpt>
      <trkpt lat="45.15398" lon="5.80373">
        <ele>922</ele>
        <time>2021-04-10T12:32:12Z</time>
      </trkpt>
      <trkpt lat="45.15399" lon="5.80373">
        <ele>922.2</ele>
        <time>2021-04-10T12:32:13Z</time>
      </trkpt>
      <trkpt lat="45.15399" lon="5.80373">
        <ele>922.2</ele>
        <time>2021-04-10T12:32:14Z</time>
      </trkpt>
      <trkpt lat="45.15399" lon="5.80373">
        <ele>922.4</ele>
        <time>2021-04-10T12:32:15Z</time>
      </trkpt>
      <trkpt lat="45.154" lon="5.80373">
        <ele>922.6</ele>
        <time>2021-04-10T12:32:16Z</time>
      </trkpt>
      <trkpt lat="45.154" lon="5.80374">
        <ele>922.4</ele>
        <time>2021-04-10T12:32:17Z</time>
      </trkpt>
      <trkpt lat="45.154" lon="5.80374">
        <ele>922.4</ele>
        <time>2021-04-10T12:32:18Z</time>
      </trkpt>
      <trkpt lat="45.154" lon="5.80374">
        <ele>922.4</ele>
        <time>2021-04-10T12:32:19Z</time>
      </trkpt>
      <trkpt lat="45.15401" lon="5.80374">
        <ele>922.4</ele>
        <time>2021-04-10T12:32:20Z</time>
      </trkpt>
      <trkpt lat="45.15401" lon="5.80374">
        <ele>922.4</ele>
        <time>2021-04-10T12:32:21Z</time>
      </trkpt>
      <trkpt lat="45.15401" lon="5.80374">
        <ele>922.6</ele>
        <time>2021-04-10T12:32:22Z</time>
      </trkpt>
      <trkpt lat="45.15402" lon="5.80374">
        <ele>922.8</ele>
        <time>2021-04-10T12:32:23Z</time>
      </trkpt>
      <trkpt lat="45.15402" lon="5.80374">
        <ele>922.6</ele>
        <time>2021-04-10T12:32:24Z</time>
      </trkpt>
      <trkpt lat="45.15402" lon="5.80374">
        <ele>922.8</ele>
        <time>2021-04-10T12:32:25Z</time>
      </trkpt>
      <trkpt lat="45.15402" lon="5.80374">
        <ele>922.8</ele>
        <time>2021-04-10T12:32:26Z</time>
      </trkpt>
      <trkpt lat="45.15403" lon="5.80375">
        <ele>922.8</ele>
        <time>2021-04-10T12:32:27Z</time>
      </trkpt>
      <trkpt lat="45.15403" lon="5.80375">
        <ele>922.6</ele>
        <time>2021-04-10T12:32:28Z</time>
      </trkpt>
      <trkpt lat="45.15403" lon="5.80375">
        <ele>922.6</ele>
        <time>2021-04-10T12:32:29Z</time>
      </trkpt>
      <trkpt lat="45.15404" lon="5.80375">
        <ele>922.4</ele>
        <time>2021-04-10T12:32:30Z</time>
      </trkpt>
      <trkpt lat="45.15404" lon="5.80375">
        <ele>922.4</ele>
        <time>2021-04-10T12:32:31Z</time>
      </trkpt>
      <trkpt lat="45.15404" lon="5.80375">
        <ele>922.6</ele>
        <time>2021-04-10T12:32:32Z</time>
      </trkpt>
      <trkpt lat="45.15404" lon="5.80375">
        <ele>922.6</ele>
        <time>2021-04-10T12:32:33Z</time>
      </trkpt>
      <trkpt lat="45.15405" lon="5.80375">
        <ele>922.6</ele>
        <time>2021-04-10T12:32:34Z</time>
      </trkpt>
      <trkpt lat="45.15405" lon="5.80375">
        <ele>922.4</ele>
        <time>2021-04-10T12:32:35Z</time>
      </trkpt>
      <trkpt lat="45.15405" lon="5.80375">
        <ele>922.2</ele>
        <time>2021-04-10T12:32:36Z</time>
      </trkpt>
      <trkpt lat="45.15406" lon="5.80376">
        <ele>921.8</ele>
        <time>2021-04-10T12:32:37Z</time>
      </trkpt>
      <trkpt lat="45.15406" lon="5.80376">
        <ele>921.6</ele>
        <time>2021-04-10T12:32:38Z</time>
      </trkpt>
      <trkpt lat="45.15406" lon="5.80376">
        <ele>921.4</ele>
        <time>2021-04-10T12:32:39Z</time>
      </trkpt>
      <trkpt lat="45.15406" lon="5.80376">
        <ele>921.2</ele>
        <time>2021-04-10T12:32:40Z</time>
      </trkpt>
      <trkpt lat="45.15407" lon="5.80376">
        <ele>921</ele>
        <time>2021-04-10T12:32:41Z</time>
      </trkpt>
      <trkpt lat="45.15407" lon="5.80376">
        <ele>921</ele>
        <time>2021-04-10T12:32:42Z</time>
      </trkpt>
      <trkpt lat="45.15407" lon="5.80376">
        <ele>920.8</ele>
        <time>2021-04-10T12:32:43Z</time>
      </trkpt>
      <trkpt lat="45.15408" lon="5.80376">
        <ele>920.8</ele>
        <time>2021-04-10T12:32:44Z</time>
      </trkpt>
      <trkpt lat="45.15408" lon="5.80376">
        <ele>920.6</ele>
        <time>2021-04-10T12:32:45Z</time>
      </trkpt>
      <trkpt lat="45.15408" lon="5.80377">
        <ele>920.4</ele>
        <time>2021-04-10T12:32:46Z</time>
      </trkpt>
      <trkpt lat="45.15408" lon="5.80377">
        <ele>920</ele>
        <time>2021-04-10T12:32:47Z</time>
      </trkpt>
      <trkpt lat="45.15409" lon="5.80377">
        <ele>919.6</ele>
        <time>2021-04-10T12:32:48Z</time>
      </trkpt>
      <trkpt lat="45.15409" lon="5.80377">
        <ele>919.4</ele>
        <time>2021-04-10T12:32:49Z</time>
      </trkpt>
      <trkpt lat="45.15409" lon="5.80377">
        <ele>919.2</ele>
        <time>2021-04-10T12:32:50Z</time>
      </trkpt>
      <trkpt lat="45.1541" lon="5.80377">
        <ele>919</ele>
        <time>2021-04-10T12:32:51Z</time>
      </trkpt>
      <trkpt lat="45.1541" lon="5.80377">
        <ele>918.8</ele>
        <time>2021-04-10T12:32:52Z</time>
      </trkpt>
      <trkpt lat="45.1541" lon="5.80377">
        <ele>918.8</ele>
        <time>2021-04-10T12:32:53Z</time>
      </trkpt>
      <trkpt lat="45.1541" lon="5.80377">
        <ele>919</ele>
        <time>2021-04-10T12:32:54Z</time>
      </trkpt>
      <trkpt lat="45.15411" lon="5.80377">
        <ele>918.6</ele>
        <time>2021-04-10T12:32:55Z</time>
      </trkpt>
      <trkpt lat="45.15411" lon="5.80378">
        <ele>918.6</ele>
        <time>2021-04-10T12:32:56Z</time>
      </trkpt>
      <trkpt lat="45.15411" lon="5.80378">
        <ele>918.4</ele>
        <time>2021-04-10T12:32:57Z</time>
      </trkpt>
      <trkpt lat="45.15412" lon="5.80378">
        <ele>918.4</ele>
        <time>2021-04-10T12:32:58Z</time>
      </trkpt>
      <trkpt lat="45.15412" lon="5.80378">
        <ele>918.4</ele>
        <time>2021-04-10T12:32:59Z</time>
      </trkpt>
      <trkpt lat="45.15412" lon="5.80378">
        <ele>918.2</ele>
        <time>2021-04-10T12:33:00Z</time>
      </trkpt>
      <trkpt lat="45.15412" lon="5.80378">
        <ele>918</ele>
        <time>2021-04-10T12:33:01Z</time>
      </trkpt>
      <trkpt lat="45.15413" lon="5.80378">
        <ele>917.8</ele>
        <time>2021-04-10T12:33:02Z</time>
      </trkpt>
      <trkpt lat="45.15413" lon="5.80378">
        <ele>917.6</ele>
        <time>2021-04-10T12:33:03Z</time>
      </trkpt>
      <trkpt lat="45.15413" lon="5.80378">
        <ele>917.4</ele>
        <time>2021-04-10T12:33:04Z</time>
      </trkpt>
      <trkpt lat="45.15413" lon="5.80379">
        <ele>917.2</ele>
        <time>2021-04-10T12:33:05Z</time>
      </trkpt>
      <trkpt lat="45.15414" lon="5.80379">
        <ele>917</ele>
        <time>2021-04-10T12:33:06Z</time>
      </trkpt>
      <trkpt lat="45.15414" lon="5.80379">
        <ele>916.8</ele>
        <time>2021-04-10T12:33:07Z</time>
      </trkpt>
      <trkpt lat="45.15414" lon="5.80379">
        <ele>916.4</ele>
        <time>2021-04-10T12:33:08Z</time>
      </trkpt>
      <trkpt lat="45.15415" lon="5.80379">
        <ele>916.4</ele>
        <time>2021-04-10T12:33:09Z</time>
      </trkpt>
      <trkpt lat="45.15415" lon="5.80379">
        <ele>916.2</ele>
        <time>2021-04-10T12:33:10Z</time>
      </trkpt>
      <trkpt lat="45.15415" lon="5.80379">
        <ele>916</ele>
        <time>2021-04-10T12:33:11Z</time>
      </trkpt>
      <trkpt lat="45.15415" lon="5.80379">
        <ele>916</ele>
        <time>2021-04-10T12:33:12Z</time>
      </trkpt>
      <trkpt lat="45.15416" lon="5.80379">
        <ele>915.6</ele>
        <time>2021-04-10T12:33:13Z</time>
      </trkpt>
      <trkpt lat="45.15416" lon="5.80379">
        <ele>915.6</ele>
        <time>2021-04-10T12:33:14Z</time>
      </trkpt>
      <trkpt lat="45.15419" lon="5.80379">
        <ele>915.4</ele>
        <time>2021-04-10T12:33:15Z</time>
      </trkpt>
      <trkpt lat="45.15422" lon="5.80379">
        <ele>915.2</ele>
        <time>2021-04-10T12:33:16Z</time>
      </trkpt>
      <trkpt lat="45.15426" lon="5.80379">
        <ele>915</ele>
        <time>2021-04-10T12:33:17Z</time>
      </trkpt>
      <trkpt lat="45.15425" lon="5.80377">
        <ele>915</ele>
        <time>2021-04-10T12:33:18Z</time>
      </trkpt>
      <trkpt lat="45.15424" lon="5.80376">
        <ele>914.6</ele>
        <time>2021-04-10T12:33:19Z</time>
      </trkpt>
      <trkpt lat="45.15424" lon="5.80375">
        <ele>914.4</ele>
        <time>2021-04-10T12:33:20Z</time>
      </trkpt>
      <trkpt lat="45.15423" lon="5.80374">
        <ele>913.8</ele>
        <time>2021-04-10T12:33:21Z</time>
      </trkpt>
      <trkpt lat="45.15423" lon="5.80373">
        <ele>913.4</ele>
        <time>2021-04-10T12:33:22Z</time>
      </trkpt>
      <trkpt lat="45.15422" lon="5.80372">
        <ele>913.2</ele>
        <time>2021-04-10T12:33:23Z</time>
      </trkpt>
      <trkpt lat="45.15421" lon="5.8037">
        <ele>912.8</ele>
        <time>2021-04-10T12:33:24Z</time>
      </trkpt>
      <trkpt lat="45.15421" lon="5.80369">
        <ele>912.6</ele>
        <time>2021-04-10T12:33:25Z</time>
      </trkpt>
      <trkpt lat="45.1542" lon="5.80368">
        <ele>912.2</ele>
        <time>2021-04-10T12:33:26Z</time>
      </trkpt>
      <trkpt lat="45.1542" lon="5.80367">
        <ele>912</ele>
        <time>2021-04-10T12:33:27Z</time>
      </trkpt>
      <trkpt lat="45.15419" lon="5.80366">
        <ele>911.8</ele>
        <time>2021-04-10T12:33:28Z</time>
      </trkpt>
      <trkpt lat="45.15418" lon="5.80365">
        <ele>911.6</ele>
        <time>2021-04-10T12:33:29Z</time>
      </trkpt>
      <trkpt lat="45.15418" lon="5.80364">
        <ele>911.6</ele>
        <time>2021-04-10T12:33:30Z</time>
      </trkpt>
      <trkpt lat="45.15417" lon="5.80362">
        <ele>911.4</ele>
        <time>2021-04-10T12:33:31Z</time>
      </trkpt>
      <trkpt lat="45.15417" lon="5.80361">
        <ele>911.2</ele>
        <time>2021-04-10T12:33:32Z</time>
      </trkpt>
      <trkpt lat="45.15416" lon="5.8036">
        <ele>911.2</ele>
        <time>2021-04-10T12:33:33Z</time>
      </trkpt>
      <trkpt lat="45.15415" lon="5.80359">
        <ele>911.2</ele>
        <time>2021-04-10T12:33:34Z</time>
      </trkpt>
      <trkpt lat="45.15415" lon="5.80358">
        <ele>911.2</ele>
        <time>2021-04-10T12:33:35Z</time>
      </trkpt>
      <trkpt lat="45.15414" lon="5.80357">
        <ele>911</ele>
        <time>2021-04-10T12:33:36Z</time>
      </trkpt>
      <trkpt lat="45.15414" lon="5.80356">
        <ele>910.8</ele>
        <time>2021-04-10T12:33:37Z</time>
      </trkpt>
      <trkpt lat="45.15413" lon="5.80354">
        <ele>910.8</ele>
        <time>2021-04-10T12:33:38Z</time>
      </trkpt>
      <trkpt lat="45.15412" lon="5.80353">
        <ele>910.6</ele>
        <time>2021-04-10T12:33:39Z</time>
      </trkpt>
      <trkpt lat="45.15412" lon="5.80352">
        <ele>910.4</ele>
        <time>2021-04-10T12:33:40Z</time>
      </trkpt>
      <trkpt lat="45.15411" lon="5.80351">
        <ele>910.2</ele>
        <time>2021-04-10T12:33:41Z</time>
      </trkpt>
      <trkpt lat="45.15411" lon="5.8035">
        <ele>910</ele>
        <time>2021-04-10T12:33:42Z</time>
      </trkpt>
      <trkpt lat="45.1541" lon="5.80349">
        <ele>909.8</ele>
        <time>2021-04-10T12:33:43Z</time>
      </trkpt>
      <trkpt lat="45.15409" lon="5.80347">
        <ele>909.6</ele>
        <time>2021-04-10T12:33:44Z</time>
      </trkpt>
      <trkpt lat="45.15409" lon="5.80346">
        <ele>909.4</ele>
        <time>2021-04-10T12:33:45Z</time>
      </trkpt>
      <trkpt lat="45.15408" lon="5.80345">
        <ele>909.2</ele>
        <time>2021-04-10T12:33:46Z</time>
      </trkpt>
      <trkpt lat="45.15408" lon="5.80344">
        <ele>909.2</ele>
        <time>2021-04-10T12:33:47Z</time>
      </trkpt>
      <trkpt lat="45.15407" lon="5.80343">
        <ele>909.2</ele>
        <time>2021-04-10T12:33:48Z</time>
      </trkpt>
      <trkpt lat="45.15406" lon="5.80342">
        <ele>909</ele>
        <time>2021-04-10T12:33:49Z</time>
      </trkpt>
      <trkpt lat="45.15406" lon="5.80341">
        <ele>908.8</ele>
        <time>2021-04-10T12:33:50Z</time>
      </trkpt>
      <trkpt lat="45.15405" lon="5.80339">
        <ele>908.6</ele>
        <time>2021-04-10T12:33:51Z</time>
      </trkpt>
      <trkpt lat="45.15405" lon="5.80338">
        <ele>908.8</ele>
        <time>2021-04-10T12:33:52Z</time>
      </trkpt>
      <trkpt lat="45.15404" lon="5.80337">
        <ele>908.6</ele>
        <time>2021-04-10T12:33:53Z</time>
      </trkpt>
      <trkpt lat="45.15403" lon="5.80336">
        <ele>908.4</ele>
        <time>2021-04-10T12:33:54Z</time>
      </trkpt>
      <trkpt lat="45.15403" lon="5.80335">
        <ele>908.2</ele>
        <time>2021-04-10T12:33:55Z</time>
      </trkpt>
      <trkpt lat="45.15402" lon="5.80334">
        <ele>908</ele>
        <time>2021-04-10T12:33:56Z</time>
      </trkpt>
      <trkpt lat="45.15401" lon="5.80333">
        <ele>908</ele>
        <time>2021-04-10T12:33:57Z</time>
      </trkpt>
      <trkpt lat="45.15401" lon="5.80331">
        <ele>907.8</ele>
        <time>2021-04-10T12:33:58Z</time>
      </trkpt>
      <trkpt lat="45.154" lon="5.8033">
        <ele>907.6</ele>
        <time>2021-04-10T12:33:59Z</time>
      </trkpt>
      <trkpt lat="45.154" lon="5.80329">
        <ele>907.6</ele>
        <time>2021-04-10T12:34:00Z</time>
      </trkpt>
      <trkpt lat="45.15399" lon="5.80328">
        <ele>907.4</ele>
        <time>2021-04-10T12:34:01Z</time>
      </trkpt>
      <trkpt lat="45.15398" lon="5.80327">
        <ele>907.4</ele>
        <time>2021-04-10T12:34:02Z</time>
      </trkpt>
      <trkpt lat="45.15398" lon="5.80326">
        <ele>907.4</ele>
        <time>2021-04-10T12:34:03Z</time>
      </trkpt>
      <trkpt lat="45.15397" lon="5.80324">
        <ele>907.2</ele>
        <time>2021-04-10T12:34:04Z</time>
      </trkpt>
      <trkpt lat="45.15397" lon="5.80323">
        <ele>906.8</ele>
        <time>2021-04-10T12:34:05Z</time>
      </trkpt>
      <trkpt lat="45.15396" lon="5.80322">
        <ele>906.8</ele>
        <time>2021-04-10T12:34:06Z</time>
      </trkpt>
      <trkpt lat="45.15395" lon="5.80321">
        <ele>906.6</ele>
        <time>2021-04-10T12:34:07Z</time>
      </trkpt>
      <trkpt lat="45.15395" lon="5.8032">
        <ele>906.4</ele>
        <time>2021-04-10T12:34:08Z</time>
      </trkpt>
      <trkpt lat="45.15394" lon="5.80319">
        <ele>906.4</ele>
        <time>2021-04-10T12:34:09Z</time>
      </trkpt>
      <trkpt lat="45.15394" lon="5.80318">
        <ele>906.4</ele>
        <time>2021-04-10T12:34:10Z</time>
      </trkpt>
      <trkpt lat="45.15393" lon="5.80316">
        <ele>906.4</ele>
        <time>2021-04-10T12:34:11Z</time>
      </trkpt>
      <trkpt lat="45.15392" lon="5.80315">
        <ele>906.6</ele>
        <time>2021-04-10T12:34:12Z</time>
      </trkpt>
      <trkpt lat="45.15392" lon="5.80314">
        <ele>906.4</ele>
        <time>2021-04-10T12:34:13Z</time>
      </trkpt>
      <trkpt lat="45.15391" lon="5.80313">
        <ele>906.4</ele>
        <time>2021-04-10T12:34:14Z</time>
      </trkpt>
      <trkpt lat="45.15391" lon="5.80312">
        <ele>906.2</ele>
        <time>2021-04-10T12:34:15Z</time>
      </trkpt>
      <trkpt lat="45.1539" lon="5.80311">
        <ele>906.2</ele>
        <time>2021-04-10T12:34:16Z</time>
      </trkpt>
      <trkpt lat="45.15389" lon="5.8031">
        <ele>906</ele>
        <time>2021-04-10T12:34:17Z</time>
      </trkpt>
      <trkpt lat="45.15389" lon="5.80308">
        <ele>905.4</ele>
        <time>2021-04-10T12:34:18Z</time>
      </trkpt>
      <trkpt lat="45.15388" lon="5.80307">
        <ele>904.8</ele>
        <time>2021-04-10T12:34:19Z</time>
      </trkpt>
      <trkpt lat="45.15388" lon="5.80306">
        <ele>904.4</ele>
        <time>2021-04-10T12:34:20Z</time>
      </trkpt>
      <trkpt lat="45.15387" lon="5.80305">
        <ele>904</ele>
        <time>2021-04-10T12:34:21Z</time>
      </trkpt>
      <trkpt lat="45.15386" lon="5.80304">
        <ele>903.8</ele>
        <time>2021-04-10T12:34:22Z</time>
      </trkpt>
      <trkpt lat="45.15386" lon="5.80303">
        <ele>903.4</ele>
        <time>2021-04-10T12:34:23Z</time>
      </trkpt>
      <trkpt lat="45.15385" lon="5.80301">
        <ele>902.6</ele>
        <time>2021-04-10T12:34:24Z</time>
      </trkpt>
      <trkpt lat="45.15385" lon="5.803">
        <ele>902.2</ele>
        <time>2021-04-10T12:34:25Z</time>
      </trkpt>
      <trkpt lat="45.15384" lon="5.80299">
        <ele>901.8</ele>
        <time>2021-04-10T12:34:26Z</time>
      </trkpt>
      <trkpt lat="45.15383" lon="5.80298">
        <ele>901.2</ele>
        <time>2021-04-10T12:34:27Z</time>
      </trkpt>
      <trkpt lat="45.15383" lon="5.80297">
        <ele>900.6</ele>
        <time>2021-04-10T12:34:28Z</time>
      </trkpt>
      <trkpt lat="45.15383" lon="5.80287">
        <ele>900</ele>
        <time>2021-04-10T12:34:29Z</time>
      </trkpt>
      <trkpt lat="45.15383" lon="5.80283">
        <ele>899.6</ele>
        <time>2021-04-10T12:34:30Z</time>
      </trkpt>
      <trkpt lat="45.15383" lon="5.8028">
        <ele>899.2</ele>
        <time>2021-04-10T12:34:31Z</time>
      </trkpt>
      <trkpt lat="45.15383" lon="5.80277">
        <ele>899</ele>
        <time>2021-04-10T12:34:32Z</time>
      </trkpt>
      <trkpt lat="45.15383" lon="5.80277">
        <ele>898.6</ele>
        <time>2021-04-10T12:34:33Z</time>
      </trkpt>
      <trkpt lat="45.15383" lon="5.80277">
        <ele>898.4</ele>
        <time>2021-04-10T12:34:34Z</time>
      </trkpt>
      <trkpt lat="45.15383" lon="5.80277">
        <ele>898.2</ele>
        <time>2021-04-10T12:34:35Z</time>
      </trkpt>
      <trkpt lat="45.15384" lon="5.80274">
        <ele>897.8</ele>
        <time>2021-04-10T12:34:36Z</time>
      </trkpt>
      <trkpt lat="45.15384" lon="5.80272">
        <ele>897.8</ele>
        <time>2021-04-10T12:34:37Z</time>
      </trkpt>
      <trkpt lat="45.15385" lon="5.80269">
        <ele>897.4</ele>
        <time>2021-04-10T12:34:38Z</time>
      </trkpt>
      <trkpt lat="45.15386" lon="5.80267">
        <ele>897</ele>
        <time>2021-04-10T12:34:39Z</time>
      </trkpt>
      <trkpt lat="45.15386" lon="5.80264">
        <ele>896.8</ele>
        <time>2021-04-10T12:34:40Z</time>
      </trkpt>
      <trkpt lat="45.15387" lon="5.80262">
        <ele>896.2</ele>
        <time>2021-04-10T12:34:41Z</time>
      </trkpt>
      <trkpt lat="45.15387" lon="5.80259">
        <ele>895.8</ele>
        <time>2021-04-10T12:34:42Z</time>
      </trkpt>
      <trkpt lat="45.15388" lon="5.80256">
        <ele>895.4</ele>
        <time>2021-04-10T12:34:43Z</time>
      </trkpt>
      <trkpt lat="45.15389" lon="5.80254">
        <ele>895.2</ele>
        <time>2021-04-10T12:34:44Z</time>
      </trkpt>
      <trkpt lat="45.15389" lon="5.80251">
        <ele>895</ele>
        <time>2021-04-10T12:34:45Z</time>
      </trkpt>
      <trkpt lat="45.15389" lon="5.80248">
        <ele>894.6</ele>
        <time>2021-04-10T12:34:46Z</time>
      </trkpt>
      <trkpt lat="45.15389" lon="5.80246">
        <ele>894.2</ele>
        <time>2021-04-10T12:34:47Z</time>
      </trkpt>
      <trkpt lat="45.15389" lon="5.80245">
        <ele>894</ele>
        <time>2021-04-10T12:34:48Z</time>
      </trkpt>
      <trkpt lat="45.1539" lon="5.80243">
        <ele>893.8</ele>
        <time>2021-04-10T12:34:49Z</time>
      </trkpt>
      <trkpt lat="45.1539" lon="5.80241">
        <ele>893.6</ele>
        <time>2021-04-10T12:34:50Z</time>
      </trkpt>
      <trkpt lat="45.1539" lon="5.80239">
        <ele>893.4</ele>
        <time>2021-04-10T12:34:51Z</time>
      </trkpt>
      <trkpt lat="45.1539" lon="5.80238">
        <ele>893</ele>
        <time>2021-04-10T12:34:52Z</time>
      </trkpt>
      <trkpt lat="45.1539" lon="5.80236">
        <ele>892.8</ele>
        <time>2021-04-10T12:34:53Z</time>
      </trkpt>
      <trkpt lat="45.1539" lon="5.80234">
        <ele>892.4</ele>
        <time>2021-04-10T12:34:54Z</time>
      </trkpt>
      <trkpt lat="45.15391" lon="5.80232">
        <ele>892.4</ele>
        <time>2021-04-10T12:34:55Z</time>
      </trkpt>
      <trkpt lat="45.15391" lon="5.80231">
        <ele>892.2</ele>
        <time>2021-04-10T12:34:56Z</time>
      </trkpt>
      <trkpt lat="45.15391" lon="5.80229">
        <ele>892</ele>
        <time>2021-04-10T12:34:57Z</time>
      </trkpt>
      <trkpt lat="45.15391" lon="5.80227">
        <ele>891.6</ele>
        <time>2021-04-10T12:34:58Z</time>
      </trkpt>
      <trkpt lat="45.15391" lon="5.80225">
        <ele>891.4</ele>
        <time>2021-04-10T12:34:59Z</time>
      </trkpt>
      <trkpt lat="45.15391" lon="5.80223">
        <ele>891.4</ele>
        <time>2021-04-10T12:35:00Z</time>
      </trkpt>
      <trkpt lat="45.15392" lon="5.80222">
        <ele>891.2</ele>
        <time>2021-04-10T12:35:01Z</time>
      </trkpt>
      <trkpt lat="45.15392" lon="5.8022">
        <ele>891.4</ele>
        <time>2021-04-10T12:35:02Z</time>
      </trkpt>
      <trkpt lat="45.15392" lon="5.80218">
        <ele>891.2</ele>
        <time>2021-04-10T12:35:03Z</time>
      </trkpt>
      <trkpt lat="45.15392" lon="5.80216">
        <ele>891.2</ele>
        <time>2021-04-10T12:35:04Z</time>
      </trkpt>
      <trkpt lat="45.15392" lon="5.80215">
        <ele>891</ele>
        <time>2021-04-10T12:35:05Z</time>
      </trkpt>
      <trkpt lat="45.15393" lon="5.80213">
        <ele>890.6</ele>
        <time>2021-04-10T12:35:06Z</time>
      </trkpt>
      <trkpt lat="45.15393" lon="5.80211">
        <ele>890.6</ele>
        <time>2021-04-10T12:35:07Z</time>
      </trkpt>
      <trkpt lat="45.15393" lon="5.80209">
        <ele>890.4</ele>
        <time>2021-04-10T12:35:08Z</time>
      </trkpt>
      <trkpt lat="45.15393" lon="5.80208">
        <ele>890.2</ele>
        <time>2021-04-10T12:35:09Z</time>
      </trkpt>
      <trkpt lat="45.15393" lon="5.80206">
        <ele>890</ele>
        <time>2021-04-10T12:35:10Z</time>
      </trkpt>
      <trkpt lat="45.15393" lon="5.80204">
        <ele>889.8</ele>
        <time>2021-04-10T12:35:11Z</time>
      </trkpt>
      <trkpt lat="45.15394" lon="5.80202">
        <ele>889.6</ele>
        <time>2021-04-10T12:35:12Z</time>
      </trkpt>
      <trkpt lat="45.15394" lon="5.80201">
        <ele>889.2</ele>
        <time>2021-04-10T12:35:13Z</time>
      </trkpt>
      <trkpt lat="45.15394" lon="5.80199">
        <ele>888.8</ele>
        <time>2021-04-10T12:35:14Z</time>
      </trkpt>
      <trkpt lat="45.15394" lon="5.80197">
        <ele>888.6</ele>
        <time>2021-04-10T12:35:15Z</time>
      </trkpt>
      <trkpt lat="45.15394" lon="5.80195">
        <ele>888</ele>
        <time>2021-04-10T12:35:16Z</time>
      </trkpt>
      <trkpt lat="45.15394" lon="5.80194">
        <ele>888</ele>
        <time>2021-04-10T12:35:17Z</time>
      </trkpt>
      <trkpt lat="45.15395" lon="5.80192">
        <ele>888</ele>
        <time>2021-04-10T12:35:18Z</time>
      </trkpt>
      <trkpt lat="45.15395" lon="5.8019">
        <ele>888</ele>
        <time>2021-04-10T12:35:19Z</time>
      </trkpt>
      <trkpt lat="45.15395" lon="5.80188">
        <ele>887.4</ele>
        <time>2021-04-10T12:35:20Z</time>
      </trkpt>
      <trkpt lat="45.15395" lon="5.80187">
        <ele>887.2</ele>
        <time>2021-04-10T12:35:21Z</time>
      </trkpt>
      <trkpt lat="45.15395" lon="5.80185">
        <ele>887.4</ele>
        <time>2021-04-10T12:35:22Z</time>
      </trkpt>
      <trkpt lat="45.15397" lon="5.80182">
        <ele>887.4</ele>
        <time>2021-04-10T12:35:23Z</time>
      </trkpt>
      <trkpt lat="45.15398" lon="5.80179">
        <ele>886.8</ele>
        <time>2021-04-10T12:35:24Z</time>
      </trkpt>
      <trkpt lat="45.15399" lon="5.80176">
        <ele>886.2</ele>
        <time>2021-04-10T12:35:25Z</time>
      </trkpt>
      <trkpt lat="45.15401" lon="5.80174">
        <ele>885.8</ele>
        <time>2021-04-10T12:35:26Z</time>
      </trkpt>
      <trkpt lat="45.15401" lon="5.80174">
        <ele>885.4</ele>
        <time>2021-04-10T12:35:27Z</time>
      </trkpt>
      <trkpt lat="45.15401" lon="5.80174">
        <ele>884.8</ele>
        <time>2021-04-10T12:35:28Z</time>
      </trkpt>
      <trkpt lat="45.15401" lon="5.80174">
        <ele>884.4</ele>
        <time>2021-04-10T12:35:29Z</time>
      </trkpt>
      <trkpt lat="45.15401" lon="5.80172">
        <ele>884</ele>
        <time>2021-04-10T12:35:30Z</time>
      </trkpt>
      <trkpt lat="45.15402" lon="5.8017">
        <ele>883</ele>
        <time>2021-04-10T12:35:31Z</time>
      </trkpt>
      <trkpt lat="45.15403" lon="5.80168">
        <ele>882.8</ele>
        <time>2021-04-10T12:35:32Z</time>
      </trkpt>
      <trkpt lat="45.15403" lon="5.80167">
        <ele>882.2</ele>
        <time>2021-04-10T12:35:33Z</time>
      </trkpt>
      <trkpt lat="45.15404" lon="5.80165">
        <ele>882</ele>
        <time>2021-04-10T12:35:34Z</time>
      </trkpt>
      <trkpt lat="45.15405" lon="5.80163">
        <ele>881.8</ele>
        <time>2021-04-10T12:35:35Z</time>
      </trkpt>
      <trkpt lat="45.15405" lon="5.80161">
        <ele>881.2</ele>
        <time>2021-04-10T12:35:36Z</time>
      </trkpt>
      <trkpt lat="45.15405" lon="5.8016">
        <ele>880.8</ele>
        <time>2021-04-10T12:35:37Z</time>
      </trkpt>
      <trkpt lat="45.15406" lon="5.80159">
        <ele>880.8</ele>
        <time>2021-04-10T12:35:38Z</time>
      </trkpt>
      <trkpt lat="45.15406" lon="5.80157">
        <ele>880.2</ele>
        <time>2021-04-10T12:35:39Z</time>
      </trkpt>
      <trkpt lat="45.15406" lon="5.80156">
        <ele>879.4</ele>
        <time>2021-04-10T12:35:40Z</time>
      </trkpt>
      <trkpt lat="45.15406" lon="5.80155">
        <ele>879.4</ele>
        <time>2021-04-10T12:35:41Z</time>
      </trkpt>
      <trkpt lat="45.15407" lon="5.80154">
        <ele>879.2</ele>
        <time>2021-04-10T12:35:42Z</time>
      </trkpt>
      <trkpt lat="45.15407" lon="5.80153">
        <ele>878.2</ele>
        <time>2021-04-10T12:35:43Z</time>
      </trkpt>
      <trkpt lat="45.15407" lon="5.80151">
        <ele>878.4</ele>
        <time>2021-04-10T12:35:44Z</time>
      </trkpt>
      <trkpt lat="45.15407" lon="5.8015">
        <ele>878</ele>
        <time>2021-04-10T12:35:45Z</time>
      </trkpt>
      <trkpt lat="45.15407" lon="5.80149">
        <ele>877.2</ele>
        <time>2021-04-10T12:35:46Z</time>
      </trkpt>
      <trkpt lat="45.15408" lon="5.80148">
        <ele>877.2</ele>
        <time>2021-04-10T12:35:47Z</time>
      </trkpt>
      <trkpt lat="45.15409" lon="5.80145">
        <ele>876.8</ele>
        <time>2021-04-10T12:35:48Z</time>
      </trkpt>
      <trkpt lat="45.1541" lon="5.80143">
        <ele>876.4</ele>
        <time>2021-04-10T12:35:49Z</time>
      </trkpt>
      <trkpt lat="45.15411" lon="5.80141">
        <ele>876.2</ele>
        <time>2021-04-10T12:35:50Z</time>
      </trkpt>
      <trkpt lat="45.15412" lon="5.80139">
        <ele>875.8</ele>
        <time>2021-04-10T12:35:51Z</time>
      </trkpt>
      <trkpt lat="45.15413" lon="5.80136">
        <ele>875.4</ele>
        <time>2021-04-10T12:35:52Z</time>
      </trkpt>
      <trkpt lat="45.15418" lon="5.80125">
        <ele>875.2</ele>
        <time>2021-04-10T12:35:53Z</time>
      </trkpt>
      <trkpt lat="45.15418" lon="5.80125">
        <ele>874.6</ele>
        <time>2021-04-10T12:35:54Z</time>
      </trkpt>
      <trkpt lat="45.15418" lon="5.80125">
        <ele>874.6</ele>
        <time>2021-04-10T12:35:55Z</time>
      </trkpt>
      <trkpt lat="45.15418" lon="5.80125">
        <ele>874.2</ele>
        <time>2021-04-10T12:35:56Z</time>
      </trkpt>
      <trkpt lat="45.15419" lon="5.80122">
        <ele>873.8</ele>
        <time>2021-04-10T12:35:57Z</time>
      </trkpt>
      <trkpt lat="45.1542" lon="5.80119">
        <ele>874</ele>
        <time>2021-04-10T12:35:58Z</time>
      </trkpt>
      <trkpt lat="45.15421" lon="5.80117">
        <ele>874</ele>
        <time>2021-04-10T12:35:59Z</time>
      </trkpt>
      <trkpt lat="45.15422" lon="5.80114">
        <ele>874</ele>
        <time>2021-04-10T12:36:00Z</time>
      </trkpt>
      <trkpt lat="45.15423" lon="5.80111">
        <ele>874</ele>
        <time>2021-04-10T12:36:01Z</time>
      </trkpt>
      <trkpt lat="45.15424" lon="5.80109">
        <ele>874</ele>
        <time>2021-04-10T12:36:02Z</time>
      </trkpt>
      <trkpt lat="45.15425" lon="5.80106">
        <ele>873.6</ele>
        <time>2021-04-10T12:36:03Z</time>
      </trkpt>
      <trkpt lat="45.15425" lon="5.80101">
        <ele>873.6</ele>
        <time>2021-04-10T12:36:04Z</time>
      </trkpt>
      <trkpt lat="45.15425" lon="5.80099">
        <ele>873.6</ele>
        <time>2021-04-10T12:36:05Z</time>
      </trkpt>
      <trkpt lat="45.15424" lon="5.80096">
        <ele>873.6</ele>
        <time>2021-04-10T12:36:06Z</time>
      </trkpt>
      <trkpt lat="45.15424" lon="5.80093">
        <ele>873.2</ele>
        <time>2021-04-10T12:36:07Z</time>
      </trkpt>
      <trkpt lat="45.15423" lon="5.8009">
        <ele>873</ele>
        <time>2021-04-10T12:36:08Z</time>
      </trkpt>
      <trkpt lat="45.15423" lon="5.80088">
        <ele>872.8</ele>
        <time>2021-04-10T12:36:09Z</time>
      </trkpt>
      <trkpt lat="45.15423" lon="5.80085">
        <ele>872.6</ele>
        <time>2021-04-10T12:36:10Z</time>
      </trkpt>
      <trkpt lat="45.15423" lon="5.80085">
        <ele>872.2</ele>
        <time>2021-04-10T12:36:11Z</time>
      </trkpt>
      <trkpt lat="45.15423" lon="5.80085">
        <ele>871.8</ele>
        <time>2021-04-10T12:36:12Z</time>
      </trkpt>
      <trkpt lat="45.15423" lon="5.80085">
        <ele>871.6</ele>
        <time>2021-04-10T12:36:13Z</time>
      </trkpt>
      <trkpt lat="45.15423" lon="5.80085">
        <ele>871.4</ele>
        <time>2021-04-10T12:36:14Z</time>
      </trkpt>
      <trkpt lat="45.15424" lon="5.80082">
        <ele>871.4</ele>
        <time>2021-04-10T12:36:15Z</time>
      </trkpt>
      <trkpt lat="45.15425" lon="5.80078">
        <ele>871.2</ele>
        <time>2021-04-10T12:36:16Z</time>
      </trkpt>
      <trkpt lat="45.15427" lon="5.80075">
        <ele>870.6</ele>
        <time>2021-04-10T12:36:17Z</time>
      </trkpt>
      <trkpt lat="45.15428" lon="5.80071">
        <ele>870.6</ele>
        <time>2021-04-10T12:36:18Z</time>
      </trkpt>
      <trkpt lat="45.15429" lon="5.80068">
        <ele>870</ele>
        <time>2021-04-10T12:36:19Z</time>
      </trkpt>
      <trkpt lat="45.1543" lon="5.80065">
        <ele>870.2</ele>
        <time>2021-04-10T12:36:20Z</time>
      </trkpt>
      <trkpt lat="45.15432" lon="5.80061">
        <ele>869.8</ele>
        <time>2021-04-10T12:36:21Z</time>
      </trkpt>
      <trkpt lat="45.15433" lon="5.80058">
        <ele>869.6</ele>
        <time>2021-04-10T12:36:22Z</time>
      </trkpt>
      <trkpt lat="45.15434" lon="5.80055">
        <ele>869.4</ele>
        <time>2021-04-10T12:36:23Z</time>
      </trkpt>
      <trkpt lat="45.15437" lon="5.80053">
        <ele>869.6</ele>
        <time>2021-04-10T12:36:24Z</time>
      </trkpt>
      <trkpt lat="45.15439" lon="5.80051">
        <ele>869.4</ele>
        <time>2021-04-10T12:36:25Z</time>
      </trkpt>
      <trkpt lat="45.15444" lon="5.80046">
        <ele>869.2</ele>
        <time>2021-04-10T12:36:26Z</time>
      </trkpt>
      <trkpt lat="45.15444" lon="5.80046">
        <ele>869</ele>
        <time>2021-04-10T12:36:27Z</time>
      </trkpt>
      <trkpt lat="45.15444" lon="5.80046">
        <ele>869.6</ele>
        <time>2021-04-10T12:36:28Z</time>
      </trkpt>
      <trkpt lat="45.15444" lon="5.80046">
        <ele>869.8</ele>
        <time>2021-04-10T12:36:29Z</time>
      </trkpt>
      <trkpt lat="45.15446" lon="5.80046">
        <ele>869.6</ele>
        <time>2021-04-10T12:36:30Z</time>
      </trkpt>
      <trkpt lat="45.15448" lon="5.80045">
        <ele>870</ele>
        <time>2021-04-10T12:36:31Z</time>
      </trkpt>
      <trkpt lat="45.1545" lon="5.80044">
        <ele>870.2</ele>
        <time>2021-04-10T12:36:32Z</time>
      </trkpt>
      <trkpt lat="45.15452" lon="5.80043">
        <ele>870.6</ele>
        <time>2021-04-10T12:36:33Z</time>
      </trkpt>
      <trkpt lat="45.15454" lon="5.80042">
        <ele>870.8</ele>
        <time>2021-04-10T12:36:34Z</time>
      </trkpt>
      <trkpt lat="45.15457" lon="5.80042">
        <ele>871.4</ele>
        <time>2021-04-10T12:36:35Z</time>
      </trkpt>
      <trkpt lat="45.15459" lon="5.80041">
        <ele>871.6</ele>
        <time>2021-04-10T12:36:36Z</time>
      </trkpt>
      <trkpt lat="45.15462" lon="5.80041">
        <ele>872.2</ele>
        <time>2021-04-10T12:36:37Z</time>
      </trkpt>
      <trkpt lat="45.15465" lon="5.8004">
        <ele>872.2</ele>
        <time>2021-04-10T12:36:38Z</time>
      </trkpt>
      <trkpt lat="45.15467" lon="5.8004">
        <ele>872.6</ele>
        <time>2021-04-10T12:36:39Z</time>
      </trkpt>
      <trkpt lat="45.1547" lon="5.80039">
        <ele>872.4</ele>
        <time>2021-04-10T12:36:40Z</time>
      </trkpt>
      <trkpt lat="45.15475" lon="5.80037">
        <ele>872.2</ele>
        <time>2021-04-10T12:36:41Z</time>
      </trkpt>
      <trkpt lat="45.15475" lon="5.80037">
        <ele>872.2</ele>
        <time>2021-04-10T12:36:42Z</time>
      </trkpt>
      <trkpt lat="45.15475" lon="5.80037">
        <ele>872.2</ele>
        <time>2021-04-10T12:36:43Z</time>
      </trkpt>
      <trkpt lat="45.15475" lon="5.80037">
        <ele>872.2</ele>
        <time>2021-04-10T12:36:44Z</time>
      </trkpt>
      <trkpt lat="45.15476" lon="5.80035">
        <ele>872.2</ele>
        <time>2021-04-10T12:36:45Z</time>
      </trkpt>
      <trkpt lat="45.15478" lon="5.80034">
        <ele>872.4</ele>
        <time>2021-04-10T12:36:46Z</time>
      </trkpt>
      <trkpt lat="45.1548" lon="5.80032">
        <ele>872.6</ele>
        <time>2021-04-10T12:36:47Z</time>
      </trkpt>
      <trkpt lat="45.15482" lon="5.8003">
        <ele>873</ele>
        <time>2021-04-10T12:36:48Z</time>
      </trkpt>
      <trkpt lat="45.15483" lon="5.80029">
        <ele>873.2</ele>
        <time>2021-04-10T12:36:49Z</time>
      </trkpt>
      <trkpt lat="45.15484" lon="5.80026">
        <ele>873.8</ele>
        <time>2021-04-10T12:36:50Z</time>
      </trkpt>
      <trkpt lat="45.15486" lon="5.80024">
        <ele>873.8</ele>
        <time>2021-04-10T12:36:51Z</time>
      </trkpt>
      <trkpt lat="45.15487" lon="5.80022">
        <ele>874.4</ele>
        <time>2021-04-10T12:36:52Z</time>
      </trkpt>
      <trkpt lat="45.15488" lon="5.8002">
        <ele>874.6</ele>
        <time>2021-04-10T12:36:53Z</time>
      </trkpt>
      <trkpt lat="45.15489" lon="5.80018">
        <ele>874.8</ele>
        <time>2021-04-10T12:36:54Z</time>
      </trkpt>
      <trkpt lat="45.15491" lon="5.80015">
        <ele>874.8</ele>
        <time>2021-04-10T12:36:55Z</time>
      </trkpt>
      <trkpt lat="45.15492" lon="5.80011">
        <ele>874.8</ele>
        <time>2021-04-10T12:36:56Z</time>
      </trkpt>
      <trkpt lat="45.15494" lon="5.80007">
        <ele>874.6</ele>
        <time>2021-04-10T12:36:57Z</time>
      </trkpt>
      <trkpt lat="45.15496" lon="5.80004">
        <ele>874.6</ele>
        <time>2021-04-10T12:36:58Z</time>
      </trkpt>
      <trkpt lat="45.15498" lon="5.8">
        <ele>874.4</ele>
        <time>2021-04-10T12:36:59Z</time>
      </trkpt>
      <trkpt lat="45.155" lon="5.79994">
        <ele>874.4</ele>
        <time>2021-04-10T12:37:00Z</time>
      </trkpt>
      <trkpt lat="45.155" lon="5.79994">
        <ele>874.2</ele>
        <time>2021-04-10T12:37:01Z</time>
      </trkpt>
      <trkpt lat="45.155" lon="5.79994">
        <ele>874</ele>
        <time>2021-04-10T12:37:02Z</time>
      </trkpt>
      <trkpt lat="45.155" lon="5.79994">
        <ele>873.8</ele>
        <time>2021-04-10T12:37:03Z</time>
      </trkpt>
      <trkpt lat="45.15501" lon="5.7999">
        <ele>873.6</ele>
        <time>2021-04-10T12:37:04Z</time>
      </trkpt>
      <trkpt lat="45.15502" lon="5.79986">
        <ele>873.6</ele>
        <time>2021-04-10T12:37:05Z</time>
      </trkpt>
      <trkpt lat="45.15503" lon="5.79982">
        <ele>873</ele>
        <time>2021-04-10T12:37:06Z</time>
      </trkpt>
      <trkpt lat="45.15504" lon="5.79977">
        <ele>873</ele>
        <time>2021-04-10T12:37:07Z</time>
      </trkpt>
      <trkpt lat="45.15505" lon="5.79973">
        <ele>872.8</ele>
        <time>2021-04-10T12:37:08Z</time>
      </trkpt>
      <trkpt lat="45.15507" lon="5.79967">
        <ele>872.6</ele>
        <time>2021-04-10T12:37:09Z</time>
      </trkpt>
      <trkpt lat="45.15507" lon="5.79967">
        <ele>872.6</ele>
        <time>2021-04-10T12:37:10Z</time>
      </trkpt>
      <trkpt lat="45.15507" lon="5.79967">
        <ele>872.6</ele>
        <time>2021-04-10T12:37:11Z</time>
      </trkpt>
      <trkpt lat="45.15507" lon="5.79967">
        <ele>872.8</ele>
        <time>2021-04-10T12:37:12Z</time>
      </trkpt>
      <trkpt lat="45.15508" lon="5.79965">
        <ele>873</ele>
        <time>2021-04-10T12:37:13Z</time>
      </trkpt>
      <trkpt lat="45.15509" lon="5.79963">
        <ele>873.4</ele>
        <time>2021-04-10T12:37:14Z</time>
      </trkpt>
      <trkpt lat="45.1551" lon="5.79961">
        <ele>873.4</ele>
        <time>2021-04-10T12:37:15Z</time>
      </trkpt>
      <trkpt lat="45.15511" lon="5.79959">
        <ele>873.6</ele>
        <time>2021-04-10T12:37:16Z</time>
      </trkpt>
      <trkpt lat="45.15512" lon="5.79957">
        <ele>873.4</ele>
        <time>2021-04-10T12:37:17Z</time>
      </trkpt>
      <trkpt lat="45.15514" lon="5.79955">
        <ele>873.6</ele>
        <time>2021-04-10T12:37:18Z</time>
      </trkpt>
      <trkpt lat="45.15515" lon="5.79953">
        <ele>873.8</ele>
        <time>2021-04-10T12:37:19Z</time>
      </trkpt>
      <trkpt lat="45.15516" lon="5.7995">
        <ele>874</ele>
        <time>2021-04-10T12:37:20Z</time>
      </trkpt>
      <trkpt lat="45.15517" lon="5.79948">
        <ele>873.8</ele>
        <time>2021-04-10T12:37:21Z</time>
      </trkpt>
      <trkpt lat="45.15518" lon="5.79946">
        <ele>874</ele>
        <time>2021-04-10T12:37:22Z</time>
      </trkpt>
      <trkpt lat="45.15519" lon="5.79943">
        <ele>873.8</ele>
        <time>2021-04-10T12:37:23Z</time>
      </trkpt>
      <trkpt lat="45.1552" lon="5.7994">
        <ele>873.8</ele>
        <time>2021-04-10T12:37:24Z</time>
      </trkpt>
      <trkpt lat="45.1552" lon="5.79937">
        <ele>873.6</ele>
        <time>2021-04-10T12:37:25Z</time>
      </trkpt>
      <trkpt lat="45.15521" lon="5.79934">
        <ele>873.4</ele>
        <time>2021-04-10T12:37:26Z</time>
      </trkpt>
      <trkpt lat="45.15521" lon="5.79931">
        <ele>873.4</ele>
        <time>2021-04-10T12:37:27Z</time>
      </trkpt>
      <trkpt lat="45.15522" lon="5.79928">
        <ele>873.2</ele>
        <time>2021-04-10T12:37:28Z</time>
      </trkpt>
      <trkpt lat="45.15523" lon="5.79924">
        <ele>873.2</ele>
        <time>2021-04-10T12:37:29Z</time>
      </trkpt>
      <trkpt lat="45.15525" lon="5.7992">
        <ele>873.2</ele>
        <time>2021-04-10T12:37:30Z</time>
      </trkpt>
      <trkpt lat="45.15527" lon="5.79915">
        <ele>873.6</ele>
        <time>2021-04-10T12:37:31Z</time>
      </trkpt>
      <trkpt lat="45.15529" lon="5.79911">
        <ele>873.2</ele>
        <time>2021-04-10T12:37:32Z</time>
      </trkpt>
      <trkpt lat="45.15531" lon="5.79906">
        <ele>873.4</ele>
        <time>2021-04-10T12:37:33Z</time>
      </trkpt>
      <trkpt lat="45.15536" lon="5.79898">
        <ele>873.4</ele>
        <time>2021-04-10T12:37:34Z</time>
      </trkpt>
      <trkpt lat="45.15537" lon="5.79896">
        <ele>874</ele>
        <time>2021-04-10T12:37:35Z</time>
      </trkpt>
      <trkpt lat="45.1554" lon="5.79892">
        <ele>873.8</ele>
        <time>2021-04-10T12:37:36Z</time>
      </trkpt>
      <trkpt lat="45.15543" lon="5.79888">
        <ele>874</ele>
        <time>2021-04-10T12:37:37Z</time>
      </trkpt>
      <trkpt lat="45.15545" lon="5.79883">
        <ele>873.8</ele>
        <time>2021-04-10T12:37:38Z</time>
      </trkpt>
      <trkpt lat="45.15546" lon="5.79879">
        <ele>874</ele>
        <time>2021-04-10T12:37:39Z</time>
      </trkpt>
      <trkpt lat="45.15548" lon="5.79875">
        <ele>873.8</ele>
        <time>2021-04-10T12:37:40Z</time>
      </trkpt>
      <trkpt lat="45.15548" lon="5.79871">
        <ele>873.6</ele>
        <time>2021-04-10T12:37:41Z</time>
      </trkpt>
      <trkpt lat="45.15548" lon="5.79866">
        <ele>873.4</ele>
        <time>2021-04-10T12:37:42Z</time>
      </trkpt>
      <trkpt lat="45.15548" lon="5.79866">
        <ele>873.2</ele>
        <time>2021-04-10T12:37:43Z</time>
      </trkpt>
      <trkpt lat="45.15548" lon="5.79866">
        <ele>872.6</ele>
        <time>2021-04-10T12:37:44Z</time>
      </trkpt>
      <trkpt lat="45.15548" lon="5.79866">
        <ele>872.2</ele>
        <time>2021-04-10T12:37:45Z</time>
      </trkpt>
      <trkpt lat="45.15548" lon="5.79864">
        <ele>871.8</ele>
        <time>2021-04-10T12:37:46Z</time>
      </trkpt>
      <trkpt lat="45.15548" lon="5.79861">
        <ele>871.6</ele>
        <time>2021-04-10T12:37:47Z</time>
      </trkpt>
      <trkpt lat="45.15548" lon="5.79858">
        <ele>871.8</ele>
        <time>2021-04-10T12:37:48Z</time>
      </trkpt>
      <trkpt lat="45.15548" lon="5.79856">
        <ele>871.8</ele>
        <time>2021-04-10T12:37:49Z</time>
      </trkpt>
      <trkpt lat="45.15548" lon="5.79853">
        <ele>872.2</ele>
        <time>2021-04-10T12:37:50Z</time>
      </trkpt>
      <trkpt lat="45.15548" lon="5.79851">
        <ele>872</ele>
        <time>2021-04-10T12:37:51Z</time>
      </trkpt>
      <trkpt lat="45.15549" lon="5.79849">
        <ele>872.2</ele>
        <time>2021-04-10T12:37:52Z</time>
      </trkpt>
      <trkpt lat="45.15549" lon="5.79846">
        <ele>872</ele>
        <time>2021-04-10T12:37:53Z</time>
      </trkpt>
      <trkpt lat="45.1555" lon="5.79844">
        <ele>872.2</ele>
        <time>2021-04-10T12:37:54Z</time>
      </trkpt>
      <trkpt lat="45.1555" lon="5.79842">
        <ele>872</ele>
        <time>2021-04-10T12:37:55Z</time>
      </trkpt>
      <trkpt lat="45.1555" lon="5.7984">
        <ele>872.2</ele>
        <time>2021-04-10T12:37:56Z</time>
      </trkpt>
      <trkpt lat="45.15551" lon="5.79838">
        <ele>872.2</ele>
        <time>2021-04-10T12:37:57Z</time>
      </trkpt>
      <trkpt lat="45.15552" lon="5.79837">
        <ele>872.4</ele>
        <time>2021-04-10T12:37:58Z</time>
      </trkpt>
      <trkpt lat="45.15553" lon="5.79835">
        <ele>872.2</ele>
        <time>2021-04-10T12:37:59Z</time>
      </trkpt>
      <trkpt lat="45.15553" lon="5.79833">
        <ele>871.8</ele>
        <time>2021-04-10T12:38:00Z</time>
      </trkpt>
      <trkpt lat="45.15554" lon="5.79832">
        <ele>871.4</ele>
        <time>2021-04-10T12:38:01Z</time>
      </trkpt>
      <trkpt lat="45.15555" lon="5.7983">
        <ele>871.4</ele>
        <time>2021-04-10T12:38:02Z</time>
      </trkpt>
      <trkpt lat="45.15555" lon="5.79828">
        <ele>871.2</ele>
        <time>2021-04-10T12:38:03Z</time>
      </trkpt>
      <trkpt lat="45.15557" lon="5.79828">
        <ele>871</ele>
        <time>2021-04-10T12:38:04Z</time>
      </trkpt>
      <trkpt lat="45.15559" lon="5.79827">
        <ele>870.8</ele>
        <time>2021-04-10T12:38:05Z</time>
      </trkpt>
      <trkpt lat="45.15561" lon="5.79827">
        <ele>870.6</ele>
        <time>2021-04-10T12:38:06Z</time>
      </trkpt>
      <trkpt lat="45.15563" lon="5.79826">
        <ele>870.6</ele>
        <time>2021-04-10T12:38:07Z</time>
      </trkpt>
      <trkpt lat="45.15564" lon="5.79826">
        <ele>870.4</ele>
        <time>2021-04-10T12:38:08Z</time>
      </trkpt>
      <trkpt lat="45.15565" lon="5.79826">
        <ele>870.4</ele>
        <time>2021-04-10T12:38:09Z</time>
      </trkpt>
      <trkpt lat="45.15565" lon="5.79826">
        <ele>870.4</ele>
        <time>2021-04-10T12:38:10Z</time>
      </trkpt>
      <trkpt lat="45.15565" lon="5.79826">
        <ele>870.4</ele>
        <time>2021-04-10T12:38:11Z</time>
      </trkpt>
      <trkpt lat="45.15566" lon="5.79826">
        <ele>870.2</ele>
        <time>2021-04-10T12:38:12Z</time>
      </trkpt>
      <trkpt lat="45.15566" lon="5.79826">
        <ele>870.2</ele>
        <time>2021-04-10T12:38:13Z</time>
      </trkpt>
      <trkpt lat="45.15567" lon="5.79826">
        <ele>870.2</ele>
        <time>2021-04-10T12:38:14Z</time>
      </trkpt>
      <trkpt lat="45.15567" lon="5.79826">
        <ele>870</ele>
        <time>2021-04-10T12:38:15Z</time>
      </trkpt>
      <trkpt lat="45.15567" lon="5.79826">
        <ele>870.2</ele>
        <time>2021-04-10T12:38:16Z</time>
      </trkpt>
      <trkpt lat="45.15568" lon="5.79826">
        <ele>870.2</ele>
        <time>2021-04-10T12:38:17Z</time>
      </trkpt>
      <trkpt lat="45.15568" lon="5.79826">
        <ele>870</ele>
        <time>2021-04-10T12:38:18Z</time>
      </trkpt>
      <trkpt lat="45.15568" lon="5.79826">
        <ele>869.8</ele>
        <time>2021-04-10T12:38:19Z</time>
      </trkpt>
      <trkpt lat="45.15569" lon="5.79827">
        <ele>869.8</ele>
        <time>2021-04-10T12:38:20Z</time>
      </trkpt>
      <trkpt lat="45.15569" lon="5.79827">
        <ele>870</ele>
        <time>2021-04-10T12:38:21Z</time>
      </trkpt>
      <trkpt lat="45.15569" lon="5.79827">
        <ele>869.8</ele>
        <time>2021-04-10T12:38:22Z</time>
      </trkpt>
      <trkpt lat="45.1557" lon="5.79827">
        <ele>869.8</ele>
        <time>2021-04-10T12:38:23Z</time>
      </trkpt>
      <trkpt lat="45.1557" lon="5.79827">
        <ele>869.8</ele>
        <time>2021-04-10T12:38:24Z</time>
      </trkpt>
      <trkpt lat="45.1557" lon="5.79827">
        <ele>870</ele>
        <time>2021-04-10T12:38:25Z</time>
      </trkpt>
      <trkpt lat="45.15571" lon="5.79827">
        <ele>870</ele>
        <time>2021-04-10T12:38:26Z</time>
      </trkpt>
      <trkpt lat="45.15571" lon="5.79827">
        <ele>870</ele>
        <time>2021-04-10T12:38:27Z</time>
      </trkpt>
      <trkpt lat="45.15571" lon="5.79827">
        <ele>870</ele>
        <time>2021-04-10T12:38:28Z</time>
      </trkpt>
      <trkpt lat="45.15572" lon="5.79827">
        <ele>870</ele>
        <time>2021-04-10T12:38:29Z</time>
      </trkpt>
      <trkpt lat="45.15572" lon="5.79827">
        <ele>870</ele>
        <time>2021-04-10T12:38:30Z</time>
      </trkpt>
      <trkpt lat="45.15572" lon="5.79827">
        <ele>870</ele>
        <time>2021-04-10T12:38:31Z</time>
      </trkpt>
      <trkpt lat="45.15573" lon="5.79827">
        <ele>870</ele>
        <time>2021-04-10T12:38:32Z</time>
      </trkpt>
      <trkpt lat="45.15573" lon="5.79827">
        <ele>870</ele>
        <time>2021-04-10T12:38:33Z</time>
      </trkpt>
      <trkpt lat="45.15574" lon="5.79827">
        <ele>870</ele>
        <time>2021-04-10T12:38:34Z</time>
      </trkpt>
      <trkpt lat="45.15574" lon="5.79827">
        <ele>870</ele>
        <time>2021-04-10T12:38:35Z</time>
      </trkpt>
      <trkpt lat="45.15574" lon="5.79827">
        <ele>870</ele>
        <time>2021-04-10T12:38:36Z</time>
      </trkpt>
      <trkpt lat="45.15575" lon="5.79828">
        <ele>870</ele>
        <time>2021-04-10T12:38:37Z</time>
      </trkpt>
      <trkpt lat="45.15575" lon="5.79828">
        <ele>870</ele>
        <time>2021-04-10T12:38:38Z</time>
      </trkpt>
      <trkpt lat="45.15575" lon="5.79828">
        <ele>870</ele>
        <time>2021-04-10T12:38:39Z</time>
      </trkpt>
      <trkpt lat="45.15575" lon="5.79827">
        <ele>869.8</ele>
        <time>2021-04-10T12:38:40Z</time>
      </trkpt>
      <trkpt lat="45.15575" lon="5.79826">
        <ele>870</ele>
        <time>2021-04-10T12:38:41Z</time>
      </trkpt>
      <trkpt lat="45.15575" lon="5.79824">
        <ele>870</ele>
        <time>2021-04-10T12:38:42Z</time>
      </trkpt>
      <trkpt lat="45.15574" lon="5.79823">
        <ele>870.2</ele>
        <time>2021-04-10T12:38:43Z</time>
      </trkpt>
      <trkpt lat="45.15574" lon="5.79822">
        <ele>870.4</ele>
        <time>2021-04-10T12:38:44Z</time>
      </trkpt>
      <trkpt lat="45.15574" lon="5.79821">
        <ele>870.6</ele>
        <time>2021-04-10T12:38:45Z</time>
      </trkpt>
      <trkpt lat="45.15574" lon="5.7982">
        <ele>870.6</ele>
        <time>2021-04-10T12:38:46Z</time>
      </trkpt>
      <trkpt lat="45.15574" lon="5.79819">
        <ele>870.6</ele>
        <time>2021-04-10T12:38:47Z</time>
      </trkpt>
      <trkpt lat="45.15573" lon="5.79818">
        <ele>870.8</ele>
        <time>2021-04-10T12:38:48Z</time>
      </trkpt>
      <trkpt lat="45.15573" lon="5.79817">
        <ele>871</ele>
        <time>2021-04-10T12:38:49Z</time>
      </trkpt>
      <trkpt lat="45.15573" lon="5.79816">
        <ele>871.2</ele>
        <time>2021-04-10T12:38:50Z</time>
      </trkpt>
      <trkpt lat="45.15573" lon="5.79815">
        <ele>871.2</ele>
        <time>2021-04-10T12:38:51Z</time>
      </trkpt>
      <trkpt lat="45.15572" lon="5.79814">
        <ele>871.4</ele>
        <time>2021-04-10T12:38:52Z</time>
      </trkpt>
      <trkpt lat="45.15572" lon="5.79812">
        <ele>871.6</ele>
        <time>2021-04-10T12:38:53Z</time>
      </trkpt>
      <trkpt lat="45.15572" lon="5.79811">
        <ele>871.6</ele>
        <time>2021-04-10T12:38:54Z</time>
      </trkpt>
      <trkpt lat="45.15571" lon="5.79809">
        <ele>871.4</ele>
        <time>2021-04-10T12:38:55Z</time>
      </trkpt>
      <trkpt lat="45.15571" lon="5.79808">
        <ele>871.4</ele>
        <time>2021-04-10T12:38:56Z</time>
      </trkpt>
      <trkpt lat="45.1557" lon="5.79807">
        <ele>871.4</ele>
        <time>2021-04-10T12:38:57Z</time>
      </trkpt>
      <trkpt lat="45.1557" lon="5.79805">
        <ele>871.4</ele>
        <time>2021-04-10T12:38:58Z</time>
      </trkpt>
      <trkpt lat="45.1557" lon="5.79804">
        <ele>871.2</ele>
        <time>2021-04-10T12:38:59Z</time>
      </trkpt>
      <trkpt lat="45.15569" lon="5.79802">
        <ele>871.2</ele>
        <time>2021-04-10T12:39:00Z</time>
      </trkpt>
      <trkpt lat="45.15569" lon="5.79801">
        <ele>871.4</ele>
        <time>2021-04-10T12:39:01Z</time>
      </trkpt>
      <trkpt lat="45.1557" lon="5.79799">
        <ele>871</ele>
        <time>2021-04-10T12:39:02Z</time>
      </trkpt>
      <trkpt lat="45.1557" lon="5.79797">
        <ele>870.6</ele>
        <time>2021-04-10T12:39:03Z</time>
      </trkpt>
      <trkpt lat="45.15571" lon="5.79796">
        <ele>870.6</ele>
        <time>2021-04-10T12:39:04Z</time>
      </trkpt>
      <trkpt lat="45.15571" lon="5.79794">
        <ele>870.8</ele>
        <time>2021-04-10T12:39:05Z</time>
      </trkpt>
      <trkpt lat="45.15572" lon="5.79792">
        <ele>870.8</ele>
        <time>2021-04-10T12:39:06Z</time>
      </trkpt>
      <trkpt lat="45.15573" lon="5.7979">
        <ele>870.8</ele>
        <time>2021-04-10T12:39:07Z</time>
      </trkpt>
      <trkpt lat="45.15573" lon="5.79788">
        <ele>870.6</ele>
        <time>2021-04-10T12:39:08Z</time>
      </trkpt>
      <trkpt lat="45.15574" lon="5.79786">
        <ele>871</ele>
        <time>2021-04-10T12:39:09Z</time>
      </trkpt>
      <trkpt lat="45.15575" lon="5.79784">
        <ele>871</ele>
        <time>2021-04-10T12:39:10Z</time>
      </trkpt>
      <trkpt lat="45.15576" lon="5.79782">
        <ele>871</ele>
        <time>2021-04-10T12:39:11Z</time>
      </trkpt>
      <trkpt lat="45.15577" lon="5.7978">
        <ele>870.8</ele>
        <time>2021-04-10T12:39:12Z</time>
      </trkpt>
      <trkpt lat="45.15577" lon="5.79778">
        <ele>870.8</ele>
        <time>2021-04-10T12:39:13Z</time>
      </trkpt>
      <trkpt lat="45.15578" lon="5.79775">
        <ele>870.8</ele>
        <time>2021-04-10T12:39:14Z</time>
      </trkpt>
      <trkpt lat="45.15579" lon="5.79773">
        <ele>871</ele>
        <time>2021-04-10T12:39:15Z</time>
      </trkpt>
      <trkpt lat="45.15579" lon="5.7977">
        <ele>871</ele>
        <time>2021-04-10T12:39:16Z</time>
      </trkpt>
      <trkpt lat="45.1558" lon="5.79768">
        <ele>870.8</ele>
        <time>2021-04-10T12:39:17Z</time>
      </trkpt>
      <trkpt lat="45.15581" lon="5.79765">
        <ele>870.8</ele>
        <time>2021-04-10T12:39:18Z</time>
      </trkpt>
      <trkpt lat="45.15582" lon="5.79763">
        <ele>871</ele>
        <time>2021-04-10T12:39:19Z</time>
      </trkpt>
      <trkpt lat="45.15583" lon="5.79761">
        <ele>870.6</ele>
        <time>2021-04-10T12:39:20Z</time>
      </trkpt>
      <trkpt lat="45.15584" lon="5.79759">
        <ele>870.8</ele>
        <time>2021-04-10T12:39:21Z</time>
      </trkpt>
      <trkpt lat="45.15585" lon="5.79757">
        <ele>870.6</ele>
        <time>2021-04-10T12:39:22Z</time>
      </trkpt>
      <trkpt lat="45.15586" lon="5.79755">
        <ele>870.8</ele>
        <time>2021-04-10T12:39:23Z</time>
      </trkpt>
      <trkpt lat="45.15587" lon="5.79753">
        <ele>870.4</ele>
        <time>2021-04-10T12:39:24Z</time>
      </trkpt>
      <trkpt lat="45.15588" lon="5.79751">
        <ele>870.6</ele>
        <time>2021-04-10T12:39:25Z</time>
      </trkpt>
      <trkpt lat="45.15589" lon="5.79748">
        <ele>870.2</ele>
        <time>2021-04-10T12:39:26Z</time>
      </trkpt>
      <trkpt lat="45.15589" lon="5.79746">
        <ele>870.4</ele>
        <time>2021-04-10T12:39:27Z</time>
      </trkpt>
      <trkpt lat="45.1559" lon="5.79743">
        <ele>869.8</ele>
        <time>2021-04-10T12:39:28Z</time>
      </trkpt>
      <trkpt lat="45.15591" lon="5.7974">
        <ele>869.4</ele>
        <time>2021-04-10T12:39:29Z</time>
      </trkpt>
      <trkpt lat="45.15591" lon="5.79737">
        <ele>869.4</ele>
        <time>2021-04-10T12:39:30Z</time>
      </trkpt>
      <trkpt lat="45.15591" lon="5.79732">
        <ele>869.2</ele>
        <time>2021-04-10T12:39:31Z</time>
      </trkpt>
      <trkpt lat="45.15591" lon="5.79728">
        <ele>869.2</ele>
        <time>2021-04-10T12:39:32Z</time>
      </trkpt>
      <trkpt lat="45.15591" lon="5.79725">
        <ele>869.2</ele>
        <time>2021-04-10T12:39:33Z</time>
      </trkpt>
      <trkpt lat="45.15591" lon="5.79722">
        <ele>869.4</ele>
        <time>2021-04-10T12:39:34Z</time>
      </trkpt>
      <trkpt lat="45.15591" lon="5.79718">
        <ele>869.4</ele>
        <time>2021-04-10T12:39:35Z</time>
      </trkpt>
      <trkpt lat="45.15591" lon="5.79715">
        <ele>869.6</ele>
        <time>2021-04-10T12:39:36Z</time>
      </trkpt>
      <trkpt lat="45.15592" lon="5.79711">
        <ele>869.8</ele>
        <time>2021-04-10T12:39:37Z</time>
      </trkpt>
      <trkpt lat="45.15592" lon="5.79709">
        <ele>870</ele>
        <time>2021-04-10T12:39:38Z</time>
      </trkpt>
      <trkpt lat="45.15592" lon="5.79707">
        <ele>869.8</ele>
        <time>2021-04-10T12:39:39Z</time>
      </trkpt>
      <trkpt lat="45.15592" lon="5.79704">
        <ele>870.2</ele>
        <time>2021-04-10T12:39:40Z</time>
      </trkpt>
      <trkpt lat="45.15592" lon="5.79702">
        <ele>870</ele>
        <time>2021-04-10T12:39:41Z</time>
      </trkpt>
      <trkpt lat="45.15593" lon="5.79692">
        <ele>870.2</ele>
        <time>2021-04-10T12:39:42Z</time>
      </trkpt>
      <trkpt lat="45.15594" lon="5.79687">
        <ele>870</ele>
        <time>2021-04-10T12:39:43Z</time>
      </trkpt>
      <trkpt lat="45.15595" lon="5.79683">
        <ele>870.4</ele>
        <time>2021-04-10T12:39:44Z</time>
      </trkpt>
      <trkpt lat="45.15596" lon="5.7968">
        <ele>870</ele>
        <time>2021-04-10T12:39:45Z</time>
      </trkpt>
      <trkpt lat="45.15598" lon="5.79678">
        <ele>870.4</ele>
        <time>2021-04-10T12:39:46Z</time>
      </trkpt>
      <trkpt lat="45.156" lon="5.79675">
        <ele>870</ele>
        <time>2021-04-10T12:39:47Z</time>
      </trkpt>
      <trkpt lat="45.15602" lon="5.79673">
        <ele>870.2</ele>
        <time>2021-04-10T12:39:48Z</time>
      </trkpt>
      <trkpt lat="45.15603" lon="5.79671">
        <ele>869.6</ele>
        <time>2021-04-10T12:39:49Z</time>
      </trkpt>
      <trkpt lat="45.15604" lon="5.79669">
        <ele>869.4</ele>
        <time>2021-04-10T12:39:50Z</time>
      </trkpt>
      <trkpt lat="45.15605" lon="5.79667">
        <ele>869.4</ele>
        <time>2021-04-10T12:39:51Z</time>
      </trkpt>
      <trkpt lat="45.15606" lon="5.79665">
        <ele>869.4</ele>
        <time>2021-04-10T12:39:52Z</time>
      </trkpt>
      <trkpt lat="45.15609" lon="5.79657">
        <ele>869.2</ele>
        <time>2021-04-10T12:39:53Z</time>
      </trkpt>
      <trkpt lat="45.15611" lon="5.79653">
        <ele>869.2</ele>
        <time>2021-04-10T12:39:54Z</time>
      </trkpt>
      <trkpt lat="45.15612" lon="5.7965">
        <ele>869.2</ele>
        <time>2021-04-10T12:39:55Z</time>
      </trkpt>
      <trkpt lat="45.15613" lon="5.79647">
        <ele>869</ele>
        <time>2021-04-10T12:39:56Z</time>
      </trkpt>
      <trkpt lat="45.15613" lon="5.79647">
        <ele>869</ele>
        <time>2021-04-10T12:39:57Z</time>
      </trkpt>
      <trkpt lat="45.15613" lon="5.79647">
        <ele>868.8</ele>
        <time>2021-04-10T12:39:58Z</time>
      </trkpt>
      <trkpt lat="45.15613" lon="5.79647">
        <ele>869</ele>
        <time>2021-04-10T12:39:59Z</time>
      </trkpt>
      <trkpt lat="45.1562" lon="5.79637">
        <ele>869</ele>
        <time>2021-04-10T12:40:01Z</time>
      </trkpt>
      <trkpt lat="45.1562" lon="5.79637">
        <ele>868.8</ele>
        <time>2021-04-10T12:40:02Z</time>
      </trkpt>
      <trkpt lat="45.1562" lon="5.79637">
        <ele>869</ele>
        <time>2021-04-10T12:40:03Z</time>
      </trkpt>
      <trkpt lat="45.1562" lon="5.79637">
        <ele>869.4</ele>
        <time>2021-04-10T12:40:04Z</time>
      </trkpt>
      <trkpt lat="45.15621" lon="5.79635">
        <ele>869.4</ele>
        <time>2021-04-10T12:40:05Z</time>
      </trkpt>
      <trkpt lat="45.15623" lon="5.79633">
        <ele>869.8</ele>
        <time>2021-04-10T12:40:06Z</time>
      </trkpt>
      <trkpt lat="45.15624" lon="5.79631">
        <ele>869.6</ele>
        <time>2021-04-10T12:40:07Z</time>
      </trkpt>
      <trkpt lat="45.15626" lon="5.79629">
        <ele>869.6</ele>
        <time>2021-04-10T12:40:08Z</time>
      </trkpt>
      <trkpt lat="45.15627" lon="5.79626">
        <ele>869.2</ele>
        <time>2021-04-10T12:40:09Z</time>
      </trkpt>
      <trkpt lat="45.15628" lon="5.79624">
        <ele>869.6</ele>
        <time>2021-04-10T12:40:10Z</time>
      </trkpt>
      <trkpt lat="45.1563" lon="5.79622">
        <ele>869.2</ele>
        <time>2021-04-10T12:40:11Z</time>
      </trkpt>
      <trkpt lat="45.15631" lon="5.7962">
        <ele>869</ele>
        <time>2021-04-10T12:40:12Z</time>
      </trkpt>
      <trkpt lat="45.15632" lon="5.79618">
        <ele>868.6</ele>
        <time>2021-04-10T12:40:13Z</time>
      </trkpt>
      <trkpt lat="45.15633" lon="5.79616">
        <ele>868.6</ele>
        <time>2021-04-10T12:40:14Z</time>
      </trkpt>
      <trkpt lat="45.15637" lon="5.79608">
        <ele>868.2</ele>
        <time>2021-04-10T12:40:15Z</time>
      </trkpt>
      <trkpt lat="45.1564" lon="5.79599">
        <ele>868.2</ele>
        <time>2021-04-10T12:40:16Z</time>
      </trkpt>
      <trkpt lat="45.15641" lon="5.79594">
        <ele>867.8</ele>
        <time>2021-04-10T12:40:17Z</time>
      </trkpt>
      <trkpt lat="45.15642" lon="5.79591">
        <ele>867.8</ele>
        <time>2021-04-10T12:40:18Z</time>
      </trkpt>
      <trkpt lat="45.15643" lon="5.79588">
        <ele>867.6</ele>
        <time>2021-04-10T12:40:19Z</time>
      </trkpt>
      <trkpt lat="45.15644" lon="5.79587">
        <ele>867.6</ele>
        <time>2021-04-10T12:40:21Z</time>
      </trkpt>
      <trkpt lat="45.15645" lon="5.79585">
        <ele>867.6</ele>
        <time>2021-04-10T12:40:22Z</time>
      </trkpt>
      <trkpt lat="45.15646" lon="5.79583">
        <ele>867.8</ele>
        <time>2021-04-10T12:40:23Z</time>
      </trkpt>
      <trkpt lat="45.15649" lon="5.79579">
        <ele>868.2</ele>
        <time>2021-04-10T12:40:24Z</time>
      </trkpt>
      <trkpt lat="45.15652" lon="5.79574">
        <ele>868.6</ele>
        <time>2021-04-10T12:40:25Z</time>
      </trkpt>
      <trkpt lat="45.15655" lon="5.79569">
        <ele>868.4</ele>
        <time>2021-04-10T12:40:26Z</time>
      </trkpt>
      <trkpt lat="45.15658" lon="5.79564">
        <ele>868.8</ele>
        <time>2021-04-10T12:40:27Z</time>
      </trkpt>
      <trkpt lat="45.15661" lon="5.79559">
        <ele>868.8</ele>
        <time>2021-04-10T12:40:28Z</time>
      </trkpt>
      <trkpt lat="45.15664" lon="5.79555">
        <ele>868.8</ele>
        <time>2021-04-10T12:40:29Z</time>
      </trkpt>
      <trkpt lat="45.15669" lon="5.79549">
        <ele>868.4</ele>
        <time>2021-04-10T12:40:30Z</time>
      </trkpt>
      <trkpt lat="45.1567" lon="5.79546">
        <ele>868.4</ele>
        <time>2021-04-10T12:40:31Z</time>
      </trkpt>
      <trkpt lat="45.15672" lon="5.79544">
        <ele>867.8</ele>
        <time>2021-04-10T12:40:32Z</time>
      </trkpt>
      <trkpt lat="45.15675" lon="5.79539">
        <ele>868</ele>
        <time>2021-04-10T12:40:33Z</time>
      </trkpt>
      <trkpt lat="45.15677" lon="5.79537">
        <ele>867.6</ele>
        <time>2021-04-10T12:40:34Z</time>
      </trkpt>
      <trkpt lat="45.1568" lon="5.79534">
        <ele>867.8</ele>
        <time>2021-04-10T12:40:35Z</time>
      </trkpt>
      <trkpt lat="45.15682" lon="5.79531">
        <ele>867.6</ele>
        <time>2021-04-10T12:40:36Z</time>
      </trkpt>
      <trkpt lat="45.15684" lon="5.79529">
        <ele>867.6</ele>
        <time>2021-04-10T12:40:37Z</time>
      </trkpt>
      <trkpt lat="45.15685" lon="5.79526">
        <ele>867.2</ele>
        <time>2021-04-10T12:40:38Z</time>
      </trkpt>
      <trkpt lat="45.15686" lon="5.79523">
        <ele>867.4</ele>
        <time>2021-04-10T12:40:39Z</time>
      </trkpt>
      <trkpt lat="45.15688" lon="5.7952">
        <ele>867.2</ele>
        <time>2021-04-10T12:40:40Z</time>
      </trkpt>
      <trkpt lat="45.15688" lon="5.7952">
        <ele>867.4</ele>
        <time>2021-04-10T12:40:41Z</time>
      </trkpt>
      <trkpt lat="45.15688" lon="5.7952">
        <ele>867.2</ele>
        <time>2021-04-10T12:40:42Z</time>
      </trkpt>
      <trkpt lat="45.15688" lon="5.7952">
        <ele>867.2</ele>
        <time>2021-04-10T12:40:43Z</time>
      </trkpt>
      <trkpt lat="45.15689" lon="5.79517">
        <ele>867.2</ele>
        <time>2021-04-10T12:40:44Z</time>
      </trkpt>
      <trkpt lat="45.15689" lon="5.79515">
        <ele>867.4</ele>
        <time>2021-04-10T12:40:45Z</time>
      </trkpt>
      <trkpt lat="45.1569" lon="5.79512">
        <ele>867</ele>
        <time>2021-04-10T12:40:46Z</time>
      </trkpt>
      <trkpt lat="45.15691" lon="5.79509">
        <ele>867.2</ele>
        <time>2021-04-10T12:40:47Z</time>
      </trkpt>
      <trkpt lat="45.15692" lon="5.79506">
        <ele>867</ele>
        <time>2021-04-10T12:40:48Z</time>
      </trkpt>
      <trkpt lat="45.15693" lon="5.79504">
        <ele>866.8</ele>
        <time>2021-04-10T12:40:49Z</time>
      </trkpt>
      <trkpt lat="45.15693" lon="5.79501">
        <ele>866.4</ele>
        <time>2021-04-10T12:40:50Z</time>
      </trkpt>
      <trkpt lat="45.15694" lon="5.79498">
        <ele>866</ele>
        <time>2021-04-10T12:40:51Z</time>
      </trkpt>
      <trkpt lat="45.15694" lon="5.79496">
        <ele>865.4</ele>
        <time>2021-04-10T12:40:52Z</time>
      </trkpt>
      <trkpt lat="45.15695" lon="5.79493">
        <ele>864.8</ele>
        <time>2021-04-10T12:40:53Z</time>
      </trkpt>
      <trkpt lat="45.15696" lon="5.7949">
        <ele>864.4</ele>
        <time>2021-04-10T12:40:54Z</time>
      </trkpt>
      <trkpt lat="45.15697" lon="5.79488">
        <ele>863.8</ele>
        <time>2021-04-10T12:40:55Z</time>
      </trkpt>
      <trkpt lat="45.15698" lon="5.79485">
        <ele>863</ele>
        <time>2021-04-10T12:40:56Z</time>
      </trkpt>
      <trkpt lat="45.15699" lon="5.79483">
        <ele>862.2</ele>
        <time>2021-04-10T12:40:57Z</time>
      </trkpt>
      <trkpt lat="45.157" lon="5.7948">
        <ele>862.2</ele>
        <time>2021-04-10T12:40:58Z</time>
      </trkpt>
      <trkpt lat="45.15701" lon="5.79476">
        <ele>861.8</ele>
        <time>2021-04-10T12:40:59Z</time>
      </trkpt>
      <trkpt lat="45.15702" lon="5.79472">
        <ele>861.6</ele>
        <time>2021-04-10T12:41:00Z</time>
      </trkpt>
      <trkpt lat="45.15703" lon="5.79468">
        <ele>861.2</ele>
        <time>2021-04-10T12:41:01Z</time>
      </trkpt>
      <trkpt lat="45.15704" lon="5.79464">
        <ele>860.8</ele>
        <time>2021-04-10T12:41:02Z</time>
      </trkpt>
      <trkpt lat="45.15706" lon="5.7946">
        <ele>860.2</ele>
        <time>2021-04-10T12:41:03Z</time>
      </trkpt>
      <trkpt lat="45.15707" lon="5.79454">
        <ele>859.6</ele>
        <time>2021-04-10T12:41:04Z</time>
      </trkpt>
      <trkpt lat="45.15707" lon="5.79454">
        <ele>858.6</ele>
        <time>2021-04-10T12:41:05Z</time>
      </trkpt>
      <trkpt lat="45.15707" lon="5.79454">
        <ele>858.2</ele>
        <time>2021-04-10T12:41:06Z</time>
      </trkpt>
      <trkpt lat="45.15707" lon="5.79454">
        <ele>858.2</ele>
        <time>2021-04-10T12:41:07Z</time>
      </trkpt>
      <trkpt lat="45.15707" lon="5.79451">
        <ele>857.8</ele>
        <time>2021-04-10T12:41:08Z</time>
      </trkpt>
      <trkpt lat="45.15708" lon="5.79448">
        <ele>857.6</ele>
        <time>2021-04-10T12:41:09Z</time>
      </trkpt>
      <trkpt lat="45.15708" lon="5.79445">
        <ele>857.2</ele>
        <time>2021-04-10T12:41:10Z</time>
      </trkpt>
      <trkpt lat="45.15708" lon="5.79442">
        <ele>857</ele>
        <time>2021-04-10T12:41:11Z</time>
      </trkpt>
      <trkpt lat="45.15708" lon="5.79439">
        <ele>856.4</ele>
        <time>2021-04-10T12:41:12Z</time>
      </trkpt>
      <trkpt lat="45.15712" lon="5.79423">
        <ele>856</ele>
        <time>2021-04-10T12:41:13Z</time>
      </trkpt>
      <trkpt lat="45.15713" lon="5.79419">
        <ele>855.4</ele>
        <time>2021-04-10T12:41:14Z</time>
      </trkpt>
      <trkpt lat="45.15714" lon="5.79417">
        <ele>855</ele>
        <time>2021-04-10T12:41:15Z</time>
      </trkpt>
      <trkpt lat="45.15715" lon="5.79415">
        <ele>855.2</ele>
        <time>2021-04-10T12:41:16Z</time>
      </trkpt>
      <trkpt lat="45.15716" lon="5.79413">
        <ele>855</ele>
        <time>2021-04-10T12:41:17Z</time>
      </trkpt>
      <trkpt lat="45.15717" lon="5.79408">
        <ele>854.8</ele>
        <time>2021-04-10T12:41:18Z</time>
      </trkpt>
      <trkpt lat="45.15718" lon="5.79404">
        <ele>854.2</ele>
        <time>2021-04-10T12:41:19Z</time>
      </trkpt>
      <trkpt lat="45.15719" lon="5.794">
        <ele>853.8</ele>
        <time>2021-04-10T12:41:20Z</time>
      </trkpt>
      <trkpt lat="45.15719" lon="5.79397">
        <ele>853.2</ele>
        <time>2021-04-10T12:41:21Z</time>
      </trkpt>
      <trkpt lat="45.1572" lon="5.79395">
        <ele>852.2</ele>
        <time>2021-04-10T12:41:22Z</time>
      </trkpt>
      <trkpt lat="45.15721" lon="5.79393">
        <ele>851.8</ele>
        <time>2021-04-10T12:41:23Z</time>
      </trkpt>
      <trkpt lat="45.15721" lon="5.79391">
        <ele>851.6</ele>
        <time>2021-04-10T12:41:24Z</time>
      </trkpt>
      <trkpt lat="45.15724" lon="5.79382">
        <ele>851.4</ele>
        <time>2021-04-10T12:41:25Z</time>
      </trkpt>
      <trkpt lat="45.15725" lon="5.79376">
        <ele>851</ele>
        <time>2021-04-10T12:41:26Z</time>
      </trkpt>
      <trkpt lat="45.15726" lon="5.79372">
        <ele>850.4</ele>
        <time>2021-04-10T12:41:27Z</time>
      </trkpt>
      <trkpt lat="45.15727" lon="5.79369">
        <ele>849.8</ele>
        <time>2021-04-10T12:41:28Z</time>
      </trkpt>
      <trkpt lat="45.15728" lon="5.79364">
        <ele>849.2</ele>
        <time>2021-04-10T12:41:29Z</time>
      </trkpt>
      <trkpt lat="45.15729" lon="5.7936">
        <ele>848.8</ele>
        <time>2021-04-10T12:41:30Z</time>
      </trkpt>
      <trkpt lat="45.1573" lon="5.79357">
        <ele>848.4</ele>
        <time>2021-04-10T12:41:31Z</time>
      </trkpt>
      <trkpt lat="45.15731" lon="5.79354">
        <ele>848</ele>
        <time>2021-04-10T12:41:32Z</time>
      </trkpt>
      <trkpt lat="45.15731" lon="5.79352">
        <ele>847.6</ele>
        <time>2021-04-10T12:41:33Z</time>
      </trkpt>
      <trkpt lat="45.15732" lon="5.79351">
        <ele>847.2</ele>
        <time>2021-04-10T12:41:34Z</time>
      </trkpt>
      <trkpt lat="45.15732" lon="5.79349">
        <ele>846.6</ele>
        <time>2021-04-10T12:41:35Z</time>
      </trkpt>
      <trkpt lat="45.15733" lon="5.79342">
        <ele>845.8</ele>
        <time>2021-04-10T12:41:36Z</time>
      </trkpt>
      <trkpt lat="45.15733" lon="5.79342">
        <ele>845</ele>
        <time>2021-04-10T12:41:37Z</time>
      </trkpt>
      <trkpt lat="45.15733" lon="5.79342">
        <ele>844.2</ele>
        <time>2021-04-10T12:41:38Z</time>
      </trkpt>
      <trkpt lat="45.15733" lon="5.7934">
        <ele>844.4</ele>
        <time>2021-04-10T12:41:39Z</time>
      </trkpt>
      <trkpt lat="45.15734" lon="5.79337">
        <ele>844</ele>
        <time>2021-04-10T12:41:40Z</time>
      </trkpt>
      <trkpt lat="45.15735" lon="5.79334">
        <ele>843.4</ele>
        <time>2021-04-10T12:41:41Z</time>
      </trkpt>
      <trkpt lat="45.15735" lon="5.79331">
        <ele>843</ele>
        <time>2021-04-10T12:41:42Z</time>
      </trkpt>
      <trkpt lat="45.15736" lon="5.79328">
        <ele>842.8</ele>
        <time>2021-04-10T12:41:43Z</time>
      </trkpt>
      <trkpt lat="45.15737" lon="5.79325">
        <ele>842</ele>
        <time>2021-04-10T12:41:44Z</time>
      </trkpt>
      <trkpt lat="45.15738" lon="5.79323">
        <ele>841.6</ele>
        <time>2021-04-10T12:41:45Z</time>
      </trkpt>
      <trkpt lat="45.15738" lon="5.7932">
        <ele>841</ele>
        <time>2021-04-10T12:41:46Z</time>
      </trkpt>
      <trkpt lat="45.15739" lon="5.79318">
        <ele>840.6</ele>
        <time>2021-04-10T12:41:47Z</time>
      </trkpt>
      <trkpt lat="45.1574" lon="5.79315">
        <ele>840.4</ele>
        <time>2021-04-10T12:41:48Z</time>
      </trkpt>
      <trkpt lat="45.1574" lon="5.79311">
        <ele>840</ele>
        <time>2021-04-10T12:41:49Z</time>
      </trkpt>
      <trkpt lat="45.1574" lon="5.79306">
        <ele>840.2</ele>
        <time>2021-04-10T12:41:50Z</time>
      </trkpt>
      <trkpt lat="45.1574" lon="5.79302">
        <ele>840</ele>
        <time>2021-04-10T12:41:51Z</time>
      </trkpt>
      <trkpt lat="45.1574" lon="5.79297">
        <ele>840.4</ele>
        <time>2021-04-10T12:41:52Z</time>
      </trkpt>
      <trkpt lat="45.1574" lon="5.79293">
        <ele>840.2</ele>
        <time>2021-04-10T12:41:53Z</time>
      </trkpt>
      <trkpt lat="45.1574" lon="5.79285">
        <ele>840.2</ele>
        <time>2021-04-10T12:41:54Z</time>
      </trkpt>
      <trkpt lat="45.1574" lon="5.79283">
        <ele>839.8</ele>
        <time>2021-04-10T12:41:55Z</time>
      </trkpt>
      <trkpt lat="45.15741" lon="5.7928">
        <ele>839.2</ele>
        <time>2021-04-10T12:41:56Z</time>
      </trkpt>
      <trkpt lat="45.15741" lon="5.79278">
        <ele>838.6</ele>
        <time>2021-04-10T12:41:57Z</time>
      </trkpt>
      <trkpt lat="45.15741" lon="5.79276">
        <ele>838.2</ele>
        <time>2021-04-10T12:41:58Z</time>
      </trkpt>
      <trkpt lat="45.15743" lon="5.79266">
        <ele>838.2</ele>
        <time>2021-04-10T12:41:59Z</time>
      </trkpt>
      <trkpt lat="45.15745" lon="5.79261">
        <ele>837.8</ele>
        <time>2021-04-10T12:42:00Z</time>
      </trkpt>
      <trkpt lat="45.15746" lon="5.79258">
        <ele>837.6</ele>
        <time>2021-04-10T12:42:01Z</time>
      </trkpt>
      <trkpt lat="45.15747" lon="5.79254">
        <ele>837</ele>
        <time>2021-04-10T12:42:02Z</time>
      </trkpt>
      <trkpt lat="45.15748" lon="5.79253">
        <ele>836.6</ele>
        <time>2021-04-10T12:42:03Z</time>
      </trkpt>
      <trkpt lat="45.15748" lon="5.79251">
        <ele>836.2</ele>
        <time>2021-04-10T12:42:04Z</time>
      </trkpt>
      <trkpt lat="45.15749" lon="5.79249">
        <ele>835.6</ele>
        <time>2021-04-10T12:42:05Z</time>
      </trkpt>
      <trkpt lat="45.1575" lon="5.79243">
        <ele>834.8</ele>
        <time>2021-04-10T12:42:06Z</time>
      </trkpt>
      <trkpt lat="45.1575" lon="5.79243">
        <ele>834</ele>
        <time>2021-04-10T12:42:07Z</time>
      </trkpt>
      <trkpt lat="45.1575" lon="5.79243">
        <ele>833.2</ele>
        <time>2021-04-10T12:42:08Z</time>
      </trkpt>
      <trkpt lat="45.1575" lon="5.79243">
        <ele>832.2</ele>
        <time>2021-04-10T12:42:09Z</time>
      </trkpt>
      <trkpt lat="45.15751" lon="5.79238">
        <ele>831.6</ele>
        <time>2021-04-10T12:42:10Z</time>
      </trkpt>
      <trkpt lat="45.15752" lon="5.79233">
        <ele>831</ele>
        <time>2021-04-10T12:42:11Z</time>
      </trkpt>
      <trkpt lat="45.15753" lon="5.79228">
        <ele>830.4</ele>
        <time>2021-04-10T12:42:12Z</time>
      </trkpt>
      <trkpt lat="45.15754" lon="5.79223">
        <ele>830.4</ele>
        <time>2021-04-10T12:42:13Z</time>
      </trkpt>
      <trkpt lat="45.15755" lon="5.79218">
        <ele>829.6</ele>
        <time>2021-04-10T12:42:14Z</time>
      </trkpt>
      <trkpt lat="45.15757" lon="5.79209">
        <ele>828.4</ele>
        <time>2021-04-10T12:42:15Z</time>
      </trkpt>
      <trkpt lat="45.15756" lon="5.79204">
        <ele>828</ele>
        <time>2021-04-10T12:42:16Z</time>
      </trkpt>
      <trkpt lat="45.15756" lon="5.79201">
        <ele>827</ele>
        <time>2021-04-10T12:42:17Z</time>
      </trkpt>
      <trkpt lat="45.15756" lon="5.79197">
        <ele>826.2</ele>
        <time>2021-04-10T12:42:18Z</time>
      </trkpt>
      <trkpt lat="45.15756" lon="5.79194">
        <ele>825.8</ele>
        <time>2021-04-10T12:42:19Z</time>
      </trkpt>
      <trkpt lat="45.15755" lon="5.79191">
        <ele>825.2</ele>
        <time>2021-04-10T12:42:20Z</time>
      </trkpt>
      <trkpt lat="45.15754" lon="5.79188">
        <ele>824.8</ele>
        <time>2021-04-10T12:42:21Z</time>
      </trkpt>
      <trkpt lat="45.15753" lon="5.79185">
        <ele>824.2</ele>
        <time>2021-04-10T12:42:22Z</time>
      </trkpt>
      <trkpt lat="45.15751" lon="5.79183">
        <ele>823.8</ele>
        <time>2021-04-10T12:42:23Z</time>
      </trkpt>
      <trkpt lat="45.1575" lon="5.79182">
        <ele>822.6</ele>
        <time>2021-04-10T12:42:24Z</time>
      </trkpt>
      <trkpt lat="45.15748" lon="5.7918">
        <ele>822.2</ele>
        <time>2021-04-10T12:42:25Z</time>
      </trkpt>
      <trkpt lat="45.15747" lon="5.79179">
        <ele>821.2</ele>
        <time>2021-04-10T12:42:26Z</time>
      </trkpt>
      <trkpt lat="45.15741" lon="5.79173">
        <ele>820.8</ele>
        <time>2021-04-10T12:42:27Z</time>
      </trkpt>
      <trkpt lat="45.15739" lon="5.79171">
        <ele>820</ele>
        <time>2021-04-10T12:42:28Z</time>
      </trkpt>
      <trkpt lat="45.15738" lon="5.79169">
        <ele>820</ele>
        <time>2021-04-10T12:42:29Z</time>
      </trkpt>
      <trkpt lat="45.15737" lon="5.79167">
        <ele>819.4</ele>
        <time>2021-04-10T12:42:30Z</time>
      </trkpt>
      <trkpt lat="45.15736" lon="5.79164">
        <ele>819.6</ele>
        <time>2021-04-10T12:42:31Z</time>
      </trkpt>
      <trkpt lat="45.15735" lon="5.79162">
        <ele>819</ele>
        <time>2021-04-10T12:42:32Z</time>
      </trkpt>
      <trkpt lat="45.15733" lon="5.7916">
        <ele>819</ele>
        <time>2021-04-10T12:42:33Z</time>
      </trkpt>
      <trkpt lat="45.15729" lon="5.79152">
        <ele>818.4</ele>
        <time>2021-04-10T12:42:34Z</time>
      </trkpt>
      <trkpt lat="45.15728" lon="5.79149">
        <ele>818.6</ele>
        <time>2021-04-10T12:42:35Z</time>
      </trkpt>
      <trkpt lat="45.15726" lon="5.79146">
        <ele>818.2</ele>
        <time>2021-04-10T12:42:36Z</time>
      </trkpt>
      <trkpt lat="45.15726" lon="5.79146">
        <ele>818</ele>
        <time>2021-04-10T12:42:37Z</time>
      </trkpt>
      <trkpt lat="45.15726" lon="5.79146">
        <ele>817.8</ele>
        <time>2021-04-10T12:42:38Z</time>
      </trkpt>
      <trkpt lat="45.15726" lon="5.79146">
        <ele>818</ele>
        <time>2021-04-10T12:42:39Z</time>
      </trkpt>
      <trkpt lat="45.15726" lon="5.79146">
        <ele>817.8</ele>
        <time>2021-04-10T12:42:40Z</time>
      </trkpt>
      <trkpt lat="45.15724" lon="5.79144">
        <ele>817.4</ele>
        <time>2021-04-10T12:42:41Z</time>
      </trkpt>
      <trkpt lat="45.15723" lon="5.79141">
        <ele>817.2</ele>
        <time>2021-04-10T12:42:42Z</time>
      </trkpt>
      <trkpt lat="45.15721" lon="5.79139">
        <ele>816.4</ele>
        <time>2021-04-10T12:42:43Z</time>
      </trkpt>
      <trkpt lat="45.15719" lon="5.79136">
        <ele>816.6</ele>
        <time>2021-04-10T12:42:44Z</time>
      </trkpt>
      <trkpt lat="45.15717" lon="5.79134">
        <ele>816</ele>
        <time>2021-04-10T12:42:45Z</time>
      </trkpt>
      <trkpt lat="45.15715" lon="5.79131">
        <ele>816.2</ele>
        <time>2021-04-10T12:42:46Z</time>
      </trkpt>
      <trkpt lat="45.15711" lon="5.79128">
        <ele>815.8</ele>
        <time>2021-04-10T12:42:47Z</time>
      </trkpt>
      <trkpt lat="45.15709" lon="5.79128">
        <ele>816</ele>
        <time>2021-04-10T12:42:48Z</time>
      </trkpt>
      <trkpt lat="45.15707" lon="5.79127">
        <ele>816</ele>
        <time>2021-04-10T12:42:49Z</time>
      </trkpt>
      <trkpt lat="45.15704" lon="5.79127">
        <ele>816</ele>
        <time>2021-04-10T12:42:50Z</time>
      </trkpt>
      <trkpt lat="45.15702" lon="5.79127">
        <ele>815.8</ele>
        <time>2021-04-10T12:42:51Z</time>
      </trkpt>
      <trkpt lat="45.15702" lon="5.79127">
        <ele>816</ele>
        <time>2021-04-10T12:42:52Z</time>
      </trkpt>
      <trkpt lat="45.15702" lon="5.79127">
        <ele>816</ele>
        <time>2021-04-10T12:42:53Z</time>
      </trkpt>
      <trkpt lat="45.15702" lon="5.79127">
        <ele>816</ele>
        <time>2021-04-10T12:42:54Z</time>
      </trkpt>
      <trkpt lat="45.15699" lon="5.79127">
        <ele>815.8</ele>
        <time>2021-04-10T12:42:55Z</time>
      </trkpt>
      <trkpt lat="45.15696" lon="5.79126">
        <ele>815.8</ele>
        <time>2021-04-10T12:42:56Z</time>
      </trkpt>
      <trkpt lat="45.15692" lon="5.79126">
        <ele>815.4</ele>
        <time>2021-04-10T12:42:57Z</time>
      </trkpt>
      <trkpt lat="45.15689" lon="5.79125">
        <ele>815.4</ele>
        <time>2021-04-10T12:42:58Z</time>
      </trkpt>
      <trkpt lat="45.15686" lon="5.79125">
        <ele>815</ele>
        <time>2021-04-10T12:42:59Z</time>
      </trkpt>
      <trkpt lat="45.15681" lon="5.79124">
        <ele>814.8</ele>
        <time>2021-04-10T12:43:00Z</time>
      </trkpt>
      <trkpt lat="45.15679" lon="5.79123">
        <ele>814.4</ele>
        <time>2021-04-10T12:43:01Z</time>
      </trkpt>
      <trkpt lat="45.15677" lon="5.79123">
        <ele>814.4</ele>
        <time>2021-04-10T12:43:02Z</time>
      </trkpt>
      <trkpt lat="45.15675" lon="5.79123">
        <ele>814.2</ele>
        <time>2021-04-10T12:43:03Z</time>
      </trkpt>
      <trkpt lat="45.15673" lon="5.79123">
        <ele>814</ele>
        <time>2021-04-10T12:43:04Z</time>
      </trkpt>
      <trkpt lat="45.15671" lon="5.79122">
        <ele>813.6</ele>
        <time>2021-04-10T12:43:05Z</time>
      </trkpt>
      <trkpt lat="45.15669" lon="5.79122">
        <ele>813.6</ele>
        <time>2021-04-10T12:43:06Z</time>
      </trkpt>
      <trkpt lat="45.15667" lon="5.79122">
        <ele>813.4</ele>
        <time>2021-04-10T12:43:07Z</time>
      </trkpt>
      <trkpt lat="45.15665" lon="5.79121">
        <ele>813.6</ele>
        <time>2021-04-10T12:43:08Z</time>
      </trkpt>
      <trkpt lat="45.15663" lon="5.79121">
        <ele>813.4</ele>
        <time>2021-04-10T12:43:09Z</time>
      </trkpt>
      <trkpt lat="45.15661" lon="5.79121">
        <ele>813.6</ele>
        <time>2021-04-10T12:43:10Z</time>
      </trkpt>
      <trkpt lat="45.1566" lon="5.7912">
        <ele>813.4</ele>
        <time>2021-04-10T12:43:11Z</time>
      </trkpt>
      <trkpt lat="45.15658" lon="5.7912">
        <ele>813.4</ele>
        <time>2021-04-10T12:43:12Z</time>
      </trkpt>
      <trkpt lat="45.15656" lon="5.79119">
        <ele>813</ele>
        <time>2021-04-10T12:43:13Z</time>
      </trkpt>
      <trkpt lat="45.15654" lon="5.79119">
        <ele>813.2</ele>
        <time>2021-04-10T12:43:14Z</time>
      </trkpt>
      <trkpt lat="45.15647" lon="5.79117">
        <ele>812.8</ele>
        <time>2021-04-10T12:43:15Z</time>
      </trkpt>
      <trkpt lat="45.15643" lon="5.79116">
        <ele>812.8</ele>
        <time>2021-04-10T12:43:16Z</time>
      </trkpt>
      <trkpt lat="45.1564" lon="5.79115">
        <ele>812.4</ele>
        <time>2021-04-10T12:43:17Z</time>
      </trkpt>
      <trkpt lat="45.15637" lon="5.79115">
        <ele>812.6</ele>
        <time>2021-04-10T12:43:18Z</time>
      </trkpt>
      <trkpt lat="45.15634" lon="5.79114">
        <ele>812.4</ele>
        <time>2021-04-10T12:43:19Z</time>
      </trkpt>
      <trkpt lat="45.15631" lon="5.79114">
        <ele>812.6</ele>
        <time>2021-04-10T12:43:20Z</time>
      </trkpt>
      <trkpt lat="45.15629" lon="5.79113">
        <ele>812.2</ele>
        <time>2021-04-10T12:43:21Z</time>
      </trkpt>
      <trkpt lat="45.15627" lon="5.79113">
        <ele>812.4</ele>
        <time>2021-04-10T12:43:22Z</time>
      </trkpt>
      <trkpt lat="45.15623" lon="5.79113">
        <ele>812.2</ele>
        <time>2021-04-10T12:43:23Z</time>
      </trkpt>
      <trkpt lat="45.15621" lon="5.79112">
        <ele>812.4</ele>
        <time>2021-04-10T12:43:24Z</time>
      </trkpt>
      <trkpt lat="45.15619" lon="5.79112">
        <ele>812.2</ele>
        <time>2021-04-10T12:43:25Z</time>
      </trkpt>
      <trkpt lat="45.15617" lon="5.79112">
        <ele>812.2</ele>
        <time>2021-04-10T12:43:26Z</time>
      </trkpt>
      <trkpt lat="45.15615" lon="5.79111">
        <ele>811.8</ele>
        <time>2021-04-10T12:43:27Z</time>
      </trkpt>
      <trkpt lat="45.15614" lon="5.7911">
        <ele>812</ele>
        <time>2021-04-10T12:43:28Z</time>
      </trkpt>
      <trkpt lat="45.15612" lon="5.7911">
        <ele>811.6</ele>
        <time>2021-04-10T12:43:29Z</time>
      </trkpt>
      <trkpt lat="45.1561" lon="5.79109">
        <ele>811.4</ele>
        <time>2021-04-10T12:43:30Z</time>
      </trkpt>
      <trkpt lat="45.15604" lon="5.79106">
        <ele>810.8</ele>
        <time>2021-04-10T12:43:31Z</time>
      </trkpt>
      <trkpt lat="45.156" lon="5.79104">
        <ele>810.6</ele>
        <time>2021-04-10T12:43:32Z</time>
      </trkpt>
      <trkpt lat="45.15597" lon="5.79102">
        <ele>810.2</ele>
        <time>2021-04-10T12:43:33Z</time>
      </trkpt>
      <trkpt lat="45.15594" lon="5.79101">
        <ele>809.6</ele>
        <time>2021-04-10T12:43:34Z</time>
      </trkpt>
      <trkpt lat="45.15591" lon="5.79099">
        <ele>809.8</ele>
        <time>2021-04-10T12:43:35Z</time>
      </trkpt>
      <trkpt lat="45.15588" lon="5.79099">
        <ele>809.4</ele>
        <time>2021-04-10T12:43:36Z</time>
      </trkpt>
      <trkpt lat="45.15586" lon="5.79098">
        <ele>809.2</ele>
        <time>2021-04-10T12:43:37Z</time>
      </trkpt>
      <trkpt lat="45.15584" lon="5.79097">
        <ele>808.8</ele>
        <time>2021-04-10T12:43:38Z</time>
      </trkpt>
      <trkpt lat="45.1558" lon="5.79097">
        <ele>808.6</ele>
        <time>2021-04-10T12:43:39Z</time>
      </trkpt>
      <trkpt lat="45.15578" lon="5.79096">
        <ele>808</ele>
        <time>2021-04-10T12:43:40Z</time>
      </trkpt>
      <trkpt lat="45.15575" lon="5.79096">
        <ele>807.6</ele>
        <time>2021-04-10T12:43:41Z</time>
      </trkpt>
      <trkpt lat="45.15572" lon="5.79095">
        <ele>807.4</ele>
        <time>2021-04-10T12:43:42Z</time>
      </trkpt>
      <trkpt lat="45.15569" lon="5.79094">
        <ele>806.8</ele>
        <time>2021-04-10T12:43:43Z</time>
      </trkpt>
      <trkpt lat="45.15566" lon="5.79094">
        <ele>806.8</ele>
        <time>2021-04-10T12:43:44Z</time>
      </trkpt>
      <trkpt lat="45.15564" lon="5.79094">
        <ele>806.2</ele>
        <time>2021-04-10T12:43:45Z</time>
      </trkpt>
      <trkpt lat="45.15561" lon="5.79093">
        <ele>805.8</ele>
        <time>2021-04-10T12:43:46Z</time>
      </trkpt>
      <trkpt lat="45.15559" lon="5.79093">
        <ele>805.2</ele>
        <time>2021-04-10T12:43:47Z</time>
      </trkpt>
      <trkpt lat="45.15557" lon="5.79093">
        <ele>804.4</ele>
        <time>2021-04-10T12:43:48Z</time>
      </trkpt>
      <trkpt lat="45.15555" lon="5.79093">
        <ele>803.8</ele>
        <time>2021-04-10T12:43:49Z</time>
      </trkpt>
      <trkpt lat="45.15553" lon="5.79093">
        <ele>803.2</ele>
        <time>2021-04-10T12:43:50Z</time>
      </trkpt>
      <trkpt lat="45.15551" lon="5.79093">
        <ele>803.8</ele>
        <time>2021-04-10T12:43:51Z</time>
      </trkpt>
      <trkpt lat="45.15549" lon="5.79093">
        <ele>803.2</ele>
        <time>2021-04-10T12:43:52Z</time>
      </trkpt>
      <trkpt lat="45.15541" lon="5.79094">
        <ele>803.4</ele>
        <time>2021-04-10T12:43:53Z</time>
      </trkpt>
      <trkpt lat="45.1554" lon="5.79094">
        <ele>803.2</ele>
        <time>2021-04-10T12:43:54Z</time>
      </trkpt>
      <trkpt lat="45.15539" lon="5.79094">
        <ele>803</ele>
        <time>2021-04-10T12:43:55Z</time>
      </trkpt>
      <trkpt lat="45.15534" lon="5.79095">
        <ele>802.4</ele>
        <time>2021-04-10T12:43:56Z</time>
      </trkpt>
      <trkpt lat="45.15534" lon="5.79095">
        <ele>801.8</ele>
        <time>2021-04-10T12:43:57Z</time>
      </trkpt>
      <trkpt lat="45.15534" lon="5.79095">
        <ele>801.4</ele>
        <time>2021-04-10T12:43:58Z</time>
      </trkpt>
      <trkpt lat="45.15535" lon="5.79092">
        <ele>800.8</ele>
        <time>2021-04-10T12:43:59Z</time>
      </trkpt>
      <trkpt lat="45.15535" lon="5.7909">
        <ele>800.8</ele>
        <time>2021-04-10T12:44:00Z</time>
      </trkpt>
      <trkpt lat="45.15535" lon="5.79088">
        <ele>800.4</ele>
        <time>2021-04-10T12:44:01Z</time>
      </trkpt>
      <trkpt lat="45.15535" lon="5.79085">
        <ele>800.2</ele>
        <time>2021-04-10T12:44:02Z</time>
      </trkpt>
      <trkpt lat="45.15536" lon="5.79083">
        <ele>799.8</ele>
        <time>2021-04-10T12:44:03Z</time>
      </trkpt>
      <trkpt lat="45.15536" lon="5.7908">
        <ele>799.6</ele>
        <time>2021-04-10T12:44:04Z</time>
      </trkpt>
      <trkpt lat="45.15536" lon="5.79078">
        <ele>799</ele>
        <time>2021-04-10T12:44:05Z</time>
      </trkpt>
      <trkpt lat="45.15536" lon="5.79076">
        <ele>798.4</ele>
        <time>2021-04-10T12:44:06Z</time>
      </trkpt>
      <trkpt lat="45.15537" lon="5.79073">
        <ele>797.6</ele>
        <time>2021-04-10T12:44:07Z</time>
      </trkpt>
      <trkpt lat="45.15539" lon="5.79067">
        <ele>797.4</ele>
        <time>2021-04-10T12:44:08Z</time>
      </trkpt>
      <trkpt lat="45.1554" lon="5.79065">
        <ele>797.6</ele>
        <time>2021-04-10T12:44:09Z</time>
      </trkpt>
      <trkpt lat="45.15541" lon="5.79063">
        <ele>797.2</ele>
        <time>2021-04-10T12:44:10Z</time>
      </trkpt>
      <trkpt lat="45.15542" lon="5.79061">
        <ele>797</ele>
        <time>2021-04-10T12:44:11Z</time>
      </trkpt>
      <trkpt lat="45.15543" lon="5.79058">
        <ele>796.6</ele>
        <time>2021-04-10T12:44:12Z</time>
      </trkpt>
      <trkpt lat="45.15547" lon="5.7905">
        <ele>796.4</ele>
        <time>2021-04-10T12:44:13Z</time>
      </trkpt>
      <trkpt lat="45.1555" lon="5.79046">
        <ele>795.8</ele>
        <time>2021-04-10T12:44:14Z</time>
      </trkpt>
      <trkpt lat="45.15552" lon="5.79043">
        <ele>795.2</ele>
        <time>2021-04-10T12:44:15Z</time>
      </trkpt>
      <trkpt lat="45.15554" lon="5.7904">
        <ele>795.4</ele>
        <time>2021-04-10T12:44:16Z</time>
      </trkpt>
      <trkpt lat="45.15557" lon="5.79037">
        <ele>795</ele>
        <time>2021-04-10T12:44:17Z</time>
      </trkpt>
      <trkpt lat="45.15559" lon="5.79034">
        <ele>795</ele>
        <time>2021-04-10T12:44:18Z</time>
      </trkpt>
      <trkpt lat="45.1556" lon="5.79032">
        <ele>795</ele>
        <time>2021-04-10T12:44:19Z</time>
      </trkpt>
      <trkpt lat="45.15562" lon="5.7903">
        <ele>795</ele>
        <time>2021-04-10T12:44:20Z</time>
      </trkpt>
      <trkpt lat="45.15565" lon="5.79027">
        <ele>794.6</ele>
        <time>2021-04-10T12:44:21Z</time>
      </trkpt>
      <trkpt lat="45.15566" lon="5.79025">
        <ele>794.6</ele>
        <time>2021-04-10T12:44:22Z</time>
      </trkpt>
      <trkpt lat="45.15568" lon="5.79023">
        <ele>794.2</ele>
        <time>2021-04-10T12:44:23Z</time>
      </trkpt>
      <trkpt lat="45.15569" lon="5.79021">
        <ele>794.2</ele>
        <time>2021-04-10T12:44:24Z</time>
      </trkpt>
      <trkpt lat="45.15571" lon="5.7902">
        <ele>793.8</ele>
        <time>2021-04-10T12:44:25Z</time>
      </trkpt>
      <trkpt lat="45.15573" lon="5.79019">
        <ele>793.6</ele>
        <time>2021-04-10T12:44:26Z</time>
      </trkpt>
      <trkpt lat="45.15575" lon="5.79017">
        <ele>793.2</ele>
        <time>2021-04-10T12:44:27Z</time>
      </trkpt>
      <trkpt lat="45.15578" lon="5.79016">
        <ele>793</ele>
        <time>2021-04-10T12:44:28Z</time>
      </trkpt>
      <trkpt lat="45.15578" lon="5.79016">
        <ele>792.6</ele>
        <time>2021-04-10T12:44:29Z</time>
      </trkpt>
      <trkpt lat="45.15578" lon="5.79016">
        <ele>792.2</ele>
        <time>2021-04-10T12:44:30Z</time>
      </trkpt>
      <trkpt lat="45.15578" lon="5.79016">
        <ele>791.6</ele>
        <time>2021-04-10T12:44:31Z</time>
      </trkpt>
      <trkpt lat="45.15581" lon="5.79014">
        <ele>791.4</ele>
        <time>2021-04-10T12:44:32Z</time>
      </trkpt>
      <trkpt lat="45.15584" lon="5.79013">
        <ele>792</ele>
        <time>2021-04-10T12:44:33Z</time>
      </trkpt>
      <trkpt lat="45.15587" lon="5.79011">
        <ele>791.8</ele>
        <time>2021-04-10T12:44:34Z</time>
      </trkpt>
      <trkpt lat="45.1559" lon="5.79009">
        <ele>791.8</ele>
        <time>2021-04-10T12:44:35Z</time>
      </trkpt>
      <trkpt lat="45.15593" lon="5.79007">
        <ele>791.6</ele>
        <time>2021-04-10T12:44:36Z</time>
      </trkpt>
      <trkpt lat="45.15599" lon="5.79004">
        <ele>791.6</ele>
        <time>2021-04-10T12:44:37Z</time>
      </trkpt>
      <trkpt lat="45.15599" lon="5.79004">
        <ele>791</ele>
        <time>2021-04-10T12:44:38Z</time>
      </trkpt>
      <trkpt lat="45.15599" lon="5.79004">
        <ele>790.6</ele>
        <time>2021-04-10T12:44:39Z</time>
      </trkpt>
      <trkpt lat="45.15599" lon="5.79004">
        <ele>790.2</ele>
        <time>2021-04-10T12:44:40Z</time>
      </trkpt>
      <trkpt lat="45.15599" lon="5.79004">
        <ele>789.6</ele>
        <time>2021-04-10T12:44:41Z</time>
      </trkpt>
      <trkpt lat="45.15599" lon="5.79003">
        <ele>789.6</ele>
        <time>2021-04-10T12:44:42Z</time>
      </trkpt>
      <trkpt lat="45.15599" lon="5.79003">
        <ele>789.4</ele>
        <time>2021-04-10T12:44:43Z</time>
      </trkpt>
      <trkpt lat="45.15599" lon="5.79002">
        <ele>789.4</ele>
        <time>2021-04-10T12:44:44Z</time>
      </trkpt>
      <trkpt lat="45.156" lon="5.79002">
        <ele>789.6</ele>
        <time>2021-04-10T12:44:45Z</time>
      </trkpt>
      <trkpt lat="45.156" lon="5.79001">
        <ele>789</ele>
        <time>2021-04-10T12:44:46Z</time>
      </trkpt>
      <trkpt lat="45.156" lon="5.79001">
        <ele>788.6</ele>
        <time>2021-04-10T12:44:47Z</time>
      </trkpt>
      <trkpt lat="45.156" lon="5.79">
        <ele>788.2</ele>
        <time>2021-04-10T12:44:48Z</time>
      </trkpt>
      <trkpt lat="45.15601" lon="5.79">
        <ele>788.2</ele>
        <time>2021-04-10T12:44:49Z</time>
      </trkpt>
      <trkpt lat="45.15601" lon="5.79">
        <ele>787.8</ele>
        <time>2021-04-10T12:44:50Z</time>
      </trkpt>
      <trkpt lat="45.15601" lon="5.78999">
        <ele>787</ele>
        <time>2021-04-10T12:44:51Z</time>
      </trkpt>
      <trkpt lat="45.15601" lon="5.78999">
        <ele>786.4</ele>
        <time>2021-04-10T12:44:52Z</time>
      </trkpt>
      <trkpt lat="45.15601" lon="5.78998">
        <ele>785.6</ele>
        <time>2021-04-10T12:44:53Z</time>
      </trkpt>
      <trkpt lat="45.15602" lon="5.78998">
        <ele>785</ele>
        <time>2021-04-10T12:44:54Z</time>
      </trkpt>
      <trkpt lat="45.15602" lon="5.78997">
        <ele>784.2</ele>
        <time>2021-04-10T12:44:55Z</time>
      </trkpt>
      <trkpt lat="45.15602" lon="5.78997">
        <ele>783.4</ele>
        <time>2021-04-10T12:44:56Z</time>
      </trkpt>
      <trkpt lat="45.15602" lon="5.78996">
        <ele>783</ele>
        <time>2021-04-10T12:44:57Z</time>
      </trkpt>
      <trkpt lat="45.15603" lon="5.78996">
        <ele>782.2</ele>
        <time>2021-04-10T12:44:58Z</time>
      </trkpt>
      <trkpt lat="45.15603" lon="5.78995">
        <ele>781.8</ele>
        <time>2021-04-10T12:44:59Z</time>
      </trkpt>
      <trkpt lat="45.15603" lon="5.78995">
        <ele>781</ele>
        <time>2021-04-10T12:45:00Z</time>
      </trkpt>
      <trkpt lat="45.15603" lon="5.78995">
        <ele>780.4</ele>
        <time>2021-04-10T12:45:01Z</time>
      </trkpt>
      <trkpt lat="45.15603" lon="5.78994">
        <ele>780</ele>
        <time>2021-04-10T12:45:02Z</time>
      </trkpt>
      <trkpt lat="45.15604" lon="5.78994">
        <ele>779.6</ele>
        <time>2021-04-10T12:45:03Z</time>
      </trkpt>
      <trkpt lat="45.15604" lon="5.78993">
        <ele>779</ele>
        <time>2021-04-10T12:45:04Z</time>
      </trkpt>
      <trkpt lat="45.15604" lon="5.78992">
        <ele>778.6</ele>
        <time>2021-04-10T12:45:05Z</time>
      </trkpt>
      <trkpt lat="45.15605" lon="5.78991">
        <ele>777.8</ele>
        <time>2021-04-10T12:45:06Z</time>
      </trkpt>
      <trkpt lat="45.15605" lon="5.7899">
        <ele>777.2</ele>
        <time>2021-04-10T12:45:07Z</time>
      </trkpt>
      <trkpt lat="45.15605" lon="5.78989">
        <ele>776.8</ele>
        <time>2021-04-10T12:45:08Z</time>
      </trkpt>
      <trkpt lat="45.15606" lon="5.78988">
        <ele>776</ele>
        <time>2021-04-10T12:45:09Z</time>
      </trkpt>
      <trkpt lat="45.15606" lon="5.78986">
        <ele>775.4</ele>
        <time>2021-04-10T12:45:10Z</time>
      </trkpt>
      <trkpt lat="45.15606" lon="5.78985">
        <ele>775</ele>
        <time>2021-04-10T12:45:11Z</time>
      </trkpt>
      <trkpt lat="45.15607" lon="5.78984">
        <ele>774.4</ele>
        <time>2021-04-10T12:45:12Z</time>
      </trkpt>
      <trkpt lat="45.15607" lon="5.78983">
        <ele>773.8</ele>
        <time>2021-04-10T12:45:13Z</time>
      </trkpt>
      <trkpt lat="45.15608" lon="5.78982">
        <ele>773.2</ele>
        <time>2021-04-10T12:45:14Z</time>
      </trkpt>
      <trkpt lat="45.15608" lon="5.78981">
        <ele>772.6</ele>
        <time>2021-04-10T12:45:15Z</time>
      </trkpt>
      <trkpt lat="45.15607" lon="5.7898">
        <ele>771.8</ele>
        <time>2021-04-10T12:45:16Z</time>
      </trkpt>
      <trkpt lat="45.15607" lon="5.78979">
        <ele>771</ele>
        <time>2021-04-10T12:45:17Z</time>
      </trkpt>
      <trkpt lat="45.15606" lon="5.78978">
        <ele>770.2</ele>
        <time>2021-04-10T12:45:18Z</time>
      </trkpt>
      <trkpt lat="45.15605" lon="5.78977">
        <ele>770</ele>
        <time>2021-04-10T12:45:19Z</time>
      </trkpt>
      <trkpt lat="45.15605" lon="5.78975">
        <ele>769.4</ele>
        <time>2021-04-10T12:45:20Z</time>
      </trkpt>
      <trkpt lat="45.15604" lon="5.78974">
        <ele>768.8</ele>
        <time>2021-04-10T12:45:21Z</time>
      </trkpt>
      <trkpt lat="45.15604" lon="5.78973">
        <ele>768.2</ele>
        <time>2021-04-10T12:45:22Z</time>
      </trkpt>
      <trkpt lat="45.15603" lon="5.78972">
        <ele>767.8</ele>
        <time>2021-04-10T12:45:23Z</time>
      </trkpt>
      <trkpt lat="45.15602" lon="5.78971">
        <ele>767</ele>
        <time>2021-04-10T12:45:24Z</time>
      </trkpt>
      <trkpt lat="45.15602" lon="5.78969">
        <ele>766.2</ele>
        <time>2021-04-10T12:45:25Z</time>
      </trkpt>
      <trkpt lat="45.15602" lon="5.78967">
        <ele>765.4</ele>
        <time>2021-04-10T12:45:26Z</time>
      </trkpt>
      <trkpt lat="45.15601" lon="5.78965">
        <ele>765</ele>
        <time>2021-04-10T12:45:27Z</time>
      </trkpt>
      <trkpt lat="45.15601" lon="5.78963">
        <ele>764.6</ele>
        <time>2021-04-10T12:45:28Z</time>
      </trkpt>
      <trkpt lat="45.15601" lon="5.78961">
        <ele>764.2</ele>
        <time>2021-04-10T12:45:29Z</time>
      </trkpt>
      <trkpt lat="45.15601" lon="5.78958">
        <ele>763.4</ele>
        <time>2021-04-10T12:45:30Z</time>
      </trkpt>
      <trkpt lat="45.156" lon="5.78956">
        <ele>762.6</ele>
        <time>2021-04-10T12:45:31Z</time>
      </trkpt>
      <trkpt lat="45.156" lon="5.78955">
        <ele>762</ele>
        <time>2021-04-10T12:45:32Z</time>
      </trkpt>
      <trkpt lat="45.156" lon="5.78954">
        <ele>761.8</ele>
        <time>2021-04-10T12:45:33Z</time>
      </trkpt>
      <trkpt lat="45.15601" lon="5.78952">
        <ele>761.2</ele>
        <time>2021-04-10T12:45:34Z</time>
      </trkpt>
      <trkpt lat="45.15601" lon="5.78951">
        <ele>760.8</ele>
        <time>2021-04-10T12:45:35Z</time>
      </trkpt>
      <trkpt lat="45.15601" lon="5.7895">
        <ele>759.8</ele>
        <time>2021-04-10T12:45:36Z</time>
      </trkpt>
      <trkpt lat="45.15601" lon="5.78949">
        <ele>759.2</ele>
        <time>2021-04-10T12:45:37Z</time>
      </trkpt>
      <trkpt lat="45.15601" lon="5.78947">
        <ele>758.2</ele>
        <time>2021-04-10T12:45:38Z</time>
      </trkpt>
      <trkpt lat="45.15601" lon="5.78946">
        <ele>758</ele>
        <time>2021-04-10T12:45:39Z</time>
      </trkpt>
      <trkpt lat="45.15601" lon="5.78945">
        <ele>757.8</ele>
        <time>2021-04-10T12:45:40Z</time>
      </trkpt>
      <trkpt lat="45.15601" lon="5.78944">
        <ele>757.8</ele>
        <time>2021-04-10T12:45:41Z</time>
      </trkpt>
      <trkpt lat="45.15601" lon="5.78943">
        <ele>757.6</ele>
        <time>2021-04-10T12:45:42Z</time>
      </trkpt>
      <trkpt lat="45.156" lon="5.7894">
        <ele>757.4</ele>
        <time>2021-04-10T12:45:43Z</time>
      </trkpt>
      <trkpt lat="45.15599" lon="5.78937">
        <ele>757</ele>
        <time>2021-04-10T12:45:44Z</time>
      </trkpt>
      <trkpt lat="45.15598" lon="5.78935">
        <ele>756.8</ele>
        <time>2021-04-10T12:45:45Z</time>
      </trkpt>
      <trkpt lat="45.15597" lon="5.78932">
        <ele>756.6</ele>
        <time>2021-04-10T12:45:46Z</time>
      </trkpt>
      <trkpt lat="45.15596" lon="5.7893">
        <ele>756.6</ele>
        <time>2021-04-10T12:45:47Z</time>
      </trkpt>
      <trkpt lat="45.15594" lon="5.78929">
        <ele>756.2</ele>
        <time>2021-04-10T12:45:48Z</time>
      </trkpt>
      <trkpt lat="45.15594" lon="5.78929">
        <ele>756</ele>
        <time>2021-04-10T12:45:49Z</time>
      </trkpt>
      <trkpt lat="45.15594" lon="5.78929">
        <ele>755.8</ele>
        <time>2021-04-10T12:45:50Z</time>
      </trkpt>
      <trkpt lat="45.15594" lon="5.78929">
        <ele>755.6</ele>
        <time>2021-04-10T12:45:51Z</time>
      </trkpt>
      <trkpt lat="45.15594" lon="5.78929">
        <ele>755.4</ele>
        <time>2021-04-10T12:45:52Z</time>
      </trkpt>
      <trkpt lat="45.15593" lon="5.78928">
        <ele>755.4</ele>
        <time>2021-04-10T12:45:53Z</time>
      </trkpt>
      <trkpt lat="45.15593" lon="5.78928">
        <ele>755.2</ele>
        <time>2021-04-10T12:45:54Z</time>
      </trkpt>
      <trkpt lat="45.15593" lon="5.78928">
        <ele>755</ele>
        <time>2021-04-10T12:45:55Z</time>
      </trkpt>
      <trkpt lat="45.15593" lon="5.78928">
        <ele>755</ele>
        <time>2021-04-10T12:45:56Z</time>
      </trkpt>
      <trkpt lat="45.15593" lon="5.78928">
        <ele>754.8</ele>
        <time>2021-04-10T12:45:57Z</time>
      </trkpt>
      <trkpt lat="45.15593" lon="5.78928">
        <ele>754.6</ele>
        <time>2021-04-10T12:45:58Z</time>
      </trkpt>
      <trkpt lat="45.15593" lon="5.78927">
        <ele>754.6</ele>
        <time>2021-04-10T12:45:59Z</time>
      </trkpt>
      <trkpt lat="45.15593" lon="5.78927">
        <ele>754.4</ele>
        <time>2021-04-10T12:46:00Z</time>
      </trkpt>
      <trkpt lat="45.15593" lon="5.78927">
        <ele>754.2</ele>
        <time>2021-04-10T12:46:01Z</time>
      </trkpt>
      <trkpt lat="45.15593" lon="5.78927">
        <ele>754.4</ele>
        <time>2021-04-10T12:46:02Z</time>
      </trkpt>
      <trkpt lat="45.15593" lon="5.78927">
        <ele>754.2</ele>
        <time>2021-04-10T12:46:03Z</time>
      </trkpt>
      <trkpt lat="45.15593" lon="5.78927">
        <ele>754.2</ele>
        <time>2021-04-10T12:46:04Z</time>
      </trkpt>
      <trkpt lat="45.15593" lon="5.78926">
        <ele>754.6</ele>
        <time>2021-04-10T12:46:05Z</time>
      </trkpt>
      <trkpt lat="45.15592" lon="5.78926">
        <ele>754.8</ele>
        <time>2021-04-10T12:46:06Z</time>
      </trkpt>
      <trkpt lat="45.15592" lon="5.78926">
        <ele>754.6</ele>
        <time>2021-04-10T12:46:07Z</time>
      </trkpt>
      <trkpt lat="45.15592" lon="5.78926">
        <ele>754.4</ele>
        <time>2021-04-10T12:46:08Z</time>
      </trkpt>
      <trkpt lat="45.15592" lon="5.78926">
        <ele>754.2</ele>
        <time>2021-04-10T12:46:09Z</time>
      </trkpt>
      <trkpt lat="45.15592" lon="5.78926">
        <ele>754.2</ele>
        <time>2021-04-10T12:46:10Z</time>
      </trkpt>
      <trkpt lat="45.15592" lon="5.78925">
        <ele>753.8</ele>
        <time>2021-04-10T12:46:11Z</time>
      </trkpt>
      <trkpt lat="45.15592" lon="5.78925">
        <ele>753.8</ele>
        <time>2021-04-10T12:46:12Z</time>
      </trkpt>
      <trkpt lat="45.15592" lon="5.78925">
        <ele>753.8</ele>
        <time>2021-04-10T12:46:13Z</time>
      </trkpt>
      <trkpt lat="45.15592" lon="5.78925">
        <ele>754</ele>
        <time>2021-04-10T12:46:14Z</time>
      </trkpt>
      <trkpt lat="45.15592" lon="5.78925">
        <ele>754</ele>
        <time>2021-04-10T12:46:15Z</time>
      </trkpt>
      <trkpt lat="45.15592" lon="5.78925">
        <ele>754</ele>
        <time>2021-04-10T12:46:16Z</time>
      </trkpt>
      <trkpt lat="45.15592" lon="5.78924">
        <ele>754</ele>
        <time>2021-04-10T12:46:17Z</time>
      </trkpt>
      <trkpt lat="45.15592" lon="5.78924">
        <ele>754.2</ele>
        <time>2021-04-10T12:46:18Z</time>
      </trkpt>
      <trkpt lat="45.15591" lon="5.78924">
        <ele>754</ele>
        <time>2021-04-10T12:46:19Z</time>
      </trkpt>
      <trkpt lat="45.15591" lon="5.78924">
        <ele>754</ele>
        <time>2021-04-10T12:46:20Z</time>
      </trkpt>
      <trkpt lat="45.15591" lon="5.78924">
        <ele>754.2</ele>
        <time>2021-04-10T12:46:21Z</time>
      </trkpt>
      <trkpt lat="45.15591" lon="5.78924">
        <ele>754.2</ele>
        <time>2021-04-10T12:46:22Z</time>
      </trkpt>
      <trkpt lat="45.15587" lon="5.78923">
        <ele>754.4</ele>
        <time>2021-04-10T12:46:23Z</time>
      </trkpt>
      <trkpt lat="45.15582" lon="5.78922">
        <ele>754.2</ele>
        <time>2021-04-10T12:46:24Z</time>
      </trkpt>
      <trkpt lat="45.15577" lon="5.7892">
        <ele>753.8</ele>
        <time>2021-04-10T12:46:25Z</time>
      </trkpt>
      <trkpt lat="45.15572" lon="5.78919">
        <ele>753.8</ele>
        <time>2021-04-10T12:46:26Z</time>
      </trkpt>
      <trkpt lat="45.15572" lon="5.78919">
        <ele>753.2</ele>
        <time>2021-04-10T12:46:27Z</time>
      </trkpt>
      <trkpt lat="45.15572" lon="5.78919">
        <ele>753.2</ele>
        <time>2021-04-10T12:46:28Z</time>
      </trkpt>
      <trkpt lat="45.15572" lon="5.78916">
        <ele>752.6</ele>
        <time>2021-04-10T12:46:29Z</time>
      </trkpt>
      <trkpt lat="45.15572" lon="5.78913">
        <ele>752.2</ele>
        <time>2021-04-10T12:46:30Z</time>
      </trkpt>
      <trkpt lat="45.15572" lon="5.7891">
        <ele>752</ele>
        <time>2021-04-10T12:46:31Z</time>
      </trkpt>
      <trkpt lat="45.15571" lon="5.78907">
        <ele>751.6</ele>
        <time>2021-04-10T12:46:32Z</time>
      </trkpt>
      <trkpt lat="45.15571" lon="5.78904">
        <ele>751.4</ele>
        <time>2021-04-10T12:46:33Z</time>
      </trkpt>
      <trkpt lat="45.1557" lon="5.78903">
        <ele>751.2</ele>
        <time>2021-04-10T12:46:34Z</time>
      </trkpt>
      <trkpt lat="45.1557" lon="5.78903">
        <ele>751</ele>
        <time>2021-04-10T12:46:35Z</time>
      </trkpt>
      <trkpt lat="45.1557" lon="5.78903">
        <ele>750.6</ele>
        <time>2021-04-10T12:46:36Z</time>
      </trkpt>
      <trkpt lat="45.1557" lon="5.78903">
        <ele>750.4</ele>
        <time>2021-04-10T12:46:37Z</time>
      </trkpt>
      <trkpt lat="45.1557" lon="5.78903">
        <ele>750.2</ele>
        <time>2021-04-10T12:46:38Z</time>
      </trkpt>
      <trkpt lat="45.1557" lon="5.78902">
        <ele>749.8</ele>
        <time>2021-04-10T12:46:39Z</time>
      </trkpt>
      <trkpt lat="45.1557" lon="5.78902">
        <ele>749.6</ele>
        <time>2021-04-10T12:46:40Z</time>
      </trkpt>
      <trkpt lat="45.1557" lon="5.78902">
        <ele>749.4</ele>
        <time>2021-04-10T12:46:41Z</time>
      </trkpt>
      <trkpt lat="45.1557" lon="5.78902">
        <ele>749</ele>
        <time>2021-04-10T12:46:42Z</time>
      </trkpt>
      <trkpt lat="45.1557" lon="5.78902">
        <ele>748.6</ele>
        <time>2021-04-10T12:46:43Z</time>
      </trkpt>
      <trkpt lat="45.15571" lon="5.78902">
        <ele>748.6</ele>
        <time>2021-04-10T12:46:44Z</time>
      </trkpt>
      <trkpt lat="45.15571" lon="5.78902">
        <ele>748.2</ele>
        <time>2021-04-10T12:46:45Z</time>
      </trkpt>
      <trkpt lat="45.15571" lon="5.78901">
        <ele>747.6</ele>
        <time>2021-04-10T12:46:46Z</time>
      </trkpt>
      <trkpt lat="45.15571" lon="5.78901">
        <ele>747.2</ele>
        <time>2021-04-10T12:46:47Z</time>
      </trkpt>
      <trkpt lat="45.15571" lon="5.78901">
        <ele>746.8</ele>
        <time>2021-04-10T12:46:48Z</time>
      </trkpt>
      <trkpt lat="45.15571" lon="5.78901">
        <ele>746.4</ele>
        <time>2021-04-10T12:46:49Z</time>
      </trkpt>
      <trkpt lat="45.15571" lon="5.78901">
        <ele>746.2</ele>
        <time>2021-04-10T12:46:50Z</time>
      </trkpt>
      <trkpt lat="45.15571" lon="5.78901">
        <ele>746</ele>
        <time>2021-04-10T12:46:51Z</time>
      </trkpt>
      <trkpt lat="45.15571" lon="5.78901">
        <ele>746</ele>
        <time>2021-04-10T12:46:52Z</time>
      </trkpt>
      <trkpt lat="45.15571" lon="5.78901">
        <ele>746</ele>
        <time>2021-04-10T12:46:53Z</time>
      </trkpt>
      <trkpt lat="45.15571" lon="5.789">
        <ele>745.8</ele>
        <time>2021-04-10T12:46:54Z</time>
      </trkpt>
      <trkpt lat="45.15571" lon="5.789">
        <ele>745.8</ele>
        <time>2021-04-10T12:46:55Z</time>
      </trkpt>
      <trkpt lat="45.15571" lon="5.789">
        <ele>745.8</ele>
        <time>2021-04-10T12:46:56Z</time>
      </trkpt>
      <trkpt lat="45.15571" lon="5.789">
        <ele>745.8</ele>
        <time>2021-04-10T12:46:57Z</time>
      </trkpt>
      <trkpt lat="45.15571" lon="5.789">
        <ele>745.6</ele>
        <time>2021-04-10T12:46:58Z</time>
      </trkpt>
      <trkpt lat="45.15571" lon="5.789">
        <ele>745.4</ele>
        <time>2021-04-10T12:46:59Z</time>
      </trkpt>
      <trkpt lat="45.15571" lon="5.789">
        <ele>745.6</ele>
        <time>2021-04-10T12:47:00Z</time>
      </trkpt>
      <trkpt lat="45.15571" lon="5.78899">
        <ele>745.6</ele>
        <time>2021-04-10T12:47:01Z</time>
      </trkpt>
      <trkpt lat="45.15571" lon="5.78899">
        <ele>745.6</ele>
        <time>2021-04-10T12:47:02Z</time>
      </trkpt>
      <trkpt lat="45.15571" lon="5.78899">
        <ele>745.6</ele>
        <time>2021-04-10T12:47:03Z</time>
      </trkpt>
      <trkpt lat="45.15571" lon="5.78899">
        <ele>745.4</ele>
        <time>2021-04-10T12:47:04Z</time>
      </trkpt>
      <trkpt lat="45.15571" lon="5.78899">
        <ele>745.4</ele>
        <time>2021-04-10T12:47:05Z</time>
      </trkpt>
      <trkpt lat="45.15571" lon="5.78899">
        <ele>745.4</ele>
        <time>2021-04-10T12:47:06Z</time>
      </trkpt>
      <trkpt lat="45.15571" lon="5.78899">
        <ele>745.6</ele>
        <time>2021-04-10T12:47:07Z</time>
      </trkpt>
      <trkpt lat="45.15571" lon="5.78897">
        <ele>745.6</ele>
        <time>2021-04-10T12:47:08Z</time>
      </trkpt>
      <trkpt lat="45.15572" lon="5.78895">
        <ele>745.4</ele>
        <time>2021-04-10T12:47:09Z</time>
      </trkpt>
      <trkpt lat="45.15572" lon="5.78893">
        <ele>745.2</ele>
        <time>2021-04-10T12:47:10Z</time>
      </trkpt>
      <trkpt lat="45.15572" lon="5.78891">
        <ele>745.4</ele>
        <time>2021-04-10T12:47:11Z</time>
      </trkpt>
      <trkpt lat="45.15573" lon="5.78889">
        <ele>745.4</ele>
        <time>2021-04-10T12:47:12Z</time>
      </trkpt>
      <trkpt lat="45.15573" lon="5.78887">
        <ele>745.2</ele>
        <time>2021-04-10T12:47:13Z</time>
      </trkpt>
      <trkpt lat="45.15574" lon="5.78885">
        <ele>745</ele>
        <time>2021-04-10T12:47:14Z</time>
      </trkpt>
      <trkpt lat="45.15574" lon="5.78883">
        <ele>744.8</ele>
        <time>2021-04-10T12:47:15Z</time>
      </trkpt>
      <trkpt lat="45.15574" lon="5.78881">
        <ele>744.8</ele>
        <time>2021-04-10T12:47:16Z</time>
      </trkpt>
      <trkpt lat="45.15575" lon="5.78879">
        <ele>744.6</ele>
        <time>2021-04-10T12:47:17Z</time>
      </trkpt>
      <trkpt lat="45.15575" lon="5.78876">
        <ele>744.2</ele>
        <time>2021-04-10T12:47:18Z</time>
      </trkpt>
      <trkpt lat="45.15576" lon="5.78874">
        <ele>743.8</ele>
        <time>2021-04-10T12:47:19Z</time>
      </trkpt>
      <trkpt lat="45.15576" lon="5.78872">
        <ele>743.4</ele>
        <time>2021-04-10T12:47:20Z</time>
      </trkpt>
      <trkpt lat="45.15577" lon="5.7887">
        <ele>743.8</ele>
        <time>2021-04-10T12:47:21Z</time>
      </trkpt>
      <trkpt lat="45.15577" lon="5.78868">
        <ele>744</ele>
        <time>2021-04-10T12:47:22Z</time>
      </trkpt>
      <trkpt lat="45.15577" lon="5.78866">
        <ele>744</ele>
        <time>2021-04-10T12:47:23Z</time>
      </trkpt>
      <trkpt lat="45.15578" lon="5.78864">
        <ele>744</ele>
        <time>2021-04-10T12:47:24Z</time>
      </trkpt>
      <trkpt lat="45.15578" lon="5.78862">
        <ele>744</ele>
        <time>2021-04-10T12:47:25Z</time>
      </trkpt>
      <trkpt lat="45.15579" lon="5.7886">
        <ele>743.4</ele>
        <time>2021-04-10T12:47:26Z</time>
      </trkpt>
      <trkpt lat="45.15579" lon="5.78858">
        <ele>743</ele>
        <time>2021-04-10T12:47:27Z</time>
      </trkpt>
      <trkpt lat="45.15579" lon="5.78856">
        <ele>742.8</ele>
        <time>2021-04-10T12:47:28Z</time>
      </trkpt>
      <trkpt lat="45.15578" lon="5.78853">
        <ele>742.6</ele>
        <time>2021-04-10T12:47:29Z</time>
      </trkpt>
      <trkpt lat="45.15578" lon="5.7885">
        <ele>742.4</ele>
        <time>2021-04-10T12:47:30Z</time>
      </trkpt>
      <trkpt lat="45.15577" lon="5.78847">
        <ele>742.2</ele>
        <time>2021-04-10T12:47:31Z</time>
      </trkpt>
      <trkpt lat="45.15574" lon="5.78838">
        <ele>741.8</ele>
        <time>2021-04-10T12:47:32Z</time>
      </trkpt>
      <trkpt lat="45.15574" lon="5.78834">
        <ele>741.4</ele>
        <time>2021-04-10T12:47:33Z</time>
      </trkpt>
      <trkpt lat="45.15574" lon="5.78831">
        <ele>741</ele>
        <time>2021-04-10T12:47:34Z</time>
      </trkpt>
      <trkpt lat="45.15575" lon="5.78831">
        <ele>740.8</ele>
        <time>2021-04-10T12:47:35Z</time>
      </trkpt>
      <trkpt lat="45.15576" lon="5.78831">
        <ele>740.6</ele>
        <time>2021-04-10T12:47:36Z</time>
      </trkpt>
      <trkpt lat="45.15577" lon="5.78831">
        <ele>740.6</ele>
        <time>2021-04-10T12:47:37Z</time>
      </trkpt>
      <trkpt lat="45.15578" lon="5.78831">
        <ele>740.6</ele>
        <time>2021-04-10T12:47:38Z</time>
      </trkpt>
      <trkpt lat="45.1558" lon="5.78832">
        <ele>740.4</ele>
        <time>2021-04-10T12:47:39Z</time>
      </trkpt>
      <trkpt lat="45.15581" lon="5.78832">
        <ele>740.4</ele>
        <time>2021-04-10T12:47:40Z</time>
      </trkpt>
      <trkpt lat="45.15582" lon="5.78832">
        <ele>740</ele>
        <time>2021-04-10T12:47:41Z</time>
      </trkpt>
      <trkpt lat="45.15583" lon="5.78832">
        <ele>740.4</ele>
        <time>2021-04-10T12:47:42Z</time>
      </trkpt>
      <trkpt lat="45.15584" lon="5.78832">
        <ele>739.8</ele>
        <time>2021-04-10T12:47:43Z</time>
      </trkpt>
      <trkpt lat="45.15585" lon="5.78832">
        <ele>740.2</ele>
        <time>2021-04-10T12:47:44Z</time>
      </trkpt>
      <trkpt lat="45.15587" lon="5.78832">
        <ele>740</ele>
        <time>2021-04-10T12:47:45Z</time>
      </trkpt>
      <trkpt lat="45.15588" lon="5.78832">
        <ele>740</ele>
        <time>2021-04-10T12:47:46Z</time>
      </trkpt>
      <trkpt lat="45.15589" lon="5.78833">
        <ele>739.8</ele>
        <time>2021-04-10T12:47:47Z</time>
      </trkpt>
      <trkpt lat="45.1559" lon="5.78833">
        <ele>739.8</ele>
        <time>2021-04-10T12:47:48Z</time>
      </trkpt>
      <trkpt lat="45.15591" lon="5.78833">
        <ele>739.2</ele>
        <time>2021-04-10T12:47:49Z</time>
      </trkpt>
      <trkpt lat="45.15592" lon="5.78833">
        <ele>739.4</ele>
        <time>2021-04-10T12:47:50Z</time>
      </trkpt>
      <trkpt lat="45.15595" lon="5.78834">
        <ele>739</ele>
        <time>2021-04-10T12:47:51Z</time>
      </trkpt>
      <trkpt lat="45.15597" lon="5.78835">
        <ele>739</ele>
        <time>2021-04-10T12:47:52Z</time>
      </trkpt>
      <trkpt lat="45.15599" lon="5.78836">
        <ele>738.6</ele>
        <time>2021-04-10T12:47:53Z</time>
      </trkpt>
      <trkpt lat="45.15601" lon="5.78837">
        <ele>738.6</ele>
        <time>2021-04-10T12:47:54Z</time>
      </trkpt>
      <trkpt lat="45.15601" lon="5.78837">
        <ele>738.2</ele>
        <time>2021-04-10T12:47:55Z</time>
      </trkpt>
      <trkpt lat="45.15601" lon="5.78837">
        <ele>738.4</ele>
        <time>2021-04-10T12:47:56Z</time>
      </trkpt>
      <trkpt lat="45.15601" lon="5.78837">
        <ele>737.8</ele>
        <time>2021-04-10T12:47:57Z</time>
      </trkpt>
      <trkpt lat="45.15602" lon="5.78837">
        <ele>738</ele>
        <time>2021-04-10T12:47:58Z</time>
      </trkpt>
      <trkpt lat="45.15603" lon="5.78837">
        <ele>737.2</ele>
        <time>2021-04-10T12:47:59Z</time>
      </trkpt>
      <trkpt lat="45.15604" lon="5.78837">
        <ele>737</ele>
        <time>2021-04-10T12:48:00Z</time>
      </trkpt>
      <trkpt lat="45.15605" lon="5.78837">
        <ele>736.6</ele>
        <time>2021-04-10T12:48:01Z</time>
      </trkpt>
      <trkpt lat="45.15606" lon="5.78837">
        <ele>736.4</ele>
        <time>2021-04-10T12:48:02Z</time>
      </trkpt>
      <trkpt lat="45.15607" lon="5.78837">
        <ele>736</ele>
        <time>2021-04-10T12:48:03Z</time>
      </trkpt>
      <trkpt lat="45.15608" lon="5.78837">
        <ele>736.2</ele>
        <time>2021-04-10T12:48:04Z</time>
      </trkpt>
      <trkpt lat="45.15609" lon="5.78837">
        <ele>736</ele>
        <time>2021-04-10T12:48:05Z</time>
      </trkpt>
      <trkpt lat="45.15611" lon="5.78837">
        <ele>735.8</ele>
        <time>2021-04-10T12:48:06Z</time>
      </trkpt>
      <trkpt lat="45.15612" lon="5.78837">
        <ele>735.4</ele>
        <time>2021-04-10T12:48:07Z</time>
      </trkpt>
      <trkpt lat="45.15614" lon="5.78837">
        <ele>735.4</ele>
        <time>2021-04-10T12:48:08Z</time>
      </trkpt>
      <trkpt lat="45.15616" lon="5.78837">
        <ele>735</ele>
        <time>2021-04-10T12:48:09Z</time>
      </trkpt>
      <trkpt lat="45.15618" lon="5.78837">
        <ele>734.8</ele>
        <time>2021-04-10T12:48:10Z</time>
      </trkpt>
      <trkpt lat="45.1562" lon="5.78837">
        <ele>734.4</ele>
        <time>2021-04-10T12:48:11Z</time>
      </trkpt>
      <trkpt lat="45.15622" lon="5.78838">
        <ele>734.4</ele>
        <time>2021-04-10T12:48:12Z</time>
      </trkpt>
      <trkpt lat="45.15625" lon="5.78838">
        <ele>734</ele>
        <time>2021-04-10T12:48:13Z</time>
      </trkpt>
      <trkpt lat="45.15627" lon="5.78838">
        <ele>733.8</ele>
        <time>2021-04-10T12:48:14Z</time>
      </trkpt>
      <trkpt lat="45.15631" lon="5.7884">
        <ele>733.4</ele>
        <time>2021-04-10T12:48:15Z</time>
      </trkpt>
      <trkpt lat="45.15633" lon="5.7884">
        <ele>733.4</ele>
        <time>2021-04-10T12:48:16Z</time>
      </trkpt>
      <trkpt lat="45.15635" lon="5.7884">
        <ele>733.2</ele>
        <time>2021-04-10T12:48:17Z</time>
      </trkpt>
      <trkpt lat="45.15636" lon="5.78841">
        <ele>733.4</ele>
        <time>2021-04-10T12:48:18Z</time>
      </trkpt>
      <trkpt lat="45.15638" lon="5.78841">
        <ele>733</ele>
        <time>2021-04-10T12:48:19Z</time>
      </trkpt>
      <trkpt lat="45.15644" lon="5.78843">
        <ele>733.2</ele>
        <time>2021-04-10T12:48:20Z</time>
      </trkpt>
      <trkpt lat="45.15648" lon="5.78844">
        <ele>733</ele>
        <time>2021-04-10T12:48:21Z</time>
      </trkpt>
      <trkpt lat="45.15651" lon="5.78844">
        <ele>732.8</ele>
        <time>2021-04-10T12:48:22Z</time>
      </trkpt>
      <trkpt lat="45.15654" lon="5.78845">
        <ele>732.2</ele>
        <time>2021-04-10T12:48:23Z</time>
      </trkpt>
      <trkpt lat="45.15656" lon="5.78845">
        <ele>732.2</ele>
        <time>2021-04-10T12:48:24Z</time>
      </trkpt>
      <trkpt lat="45.15659" lon="5.78846">
        <ele>732</ele>
        <time>2021-04-10T12:48:25Z</time>
      </trkpt>
      <trkpt lat="45.15661" lon="5.78847">
        <ele>732</ele>
        <time>2021-04-10T12:48:26Z</time>
      </trkpt>
      <trkpt lat="45.15666" lon="5.7885">
        <ele>731.8</ele>
        <time>2021-04-10T12:48:27Z</time>
      </trkpt>
      <trkpt lat="45.1567" lon="5.78853">
        <ele>731.8</ele>
        <time>2021-04-10T12:48:28Z</time>
      </trkpt>
      <trkpt lat="45.15675" lon="5.78856">
        <ele>731.8</ele>
        <time>2021-04-10T12:48:29Z</time>
      </trkpt>
      <trkpt lat="45.15679" lon="5.78858">
        <ele>731.8</ele>
        <time>2021-04-10T12:48:30Z</time>
      </trkpt>
      <trkpt lat="45.15684" lon="5.7886">
        <ele>731.4</ele>
        <time>2021-04-10T12:48:31Z</time>
      </trkpt>
      <trkpt lat="45.15688" lon="5.78862">
        <ele>731.8</ele>
        <time>2021-04-10T12:48:32Z</time>
      </trkpt>
      <trkpt lat="45.15693" lon="5.78864">
        <ele>731.4</ele>
        <time>2021-04-10T12:48:33Z</time>
      </trkpt>
      <trkpt lat="45.15696" lon="5.78866">
        <ele>731.4</ele>
        <time>2021-04-10T12:48:34Z</time>
      </trkpt>
      <trkpt lat="45.15699" lon="5.78867">
        <ele>731.2</ele>
        <time>2021-04-10T12:48:35Z</time>
      </trkpt>
      <trkpt lat="45.15705" lon="5.78871">
        <ele>731.2</ele>
        <time>2021-04-10T12:48:36Z</time>
      </trkpt>
      <trkpt lat="45.15708" lon="5.78872">
        <ele>730.6</ele>
        <time>2021-04-10T12:48:37Z</time>
      </trkpt>
      <trkpt lat="45.15711" lon="5.78873">
        <ele>730.2</ele>
        <time>2021-04-10T12:48:38Z</time>
      </trkpt>
      <trkpt lat="45.15714" lon="5.78875">
        <ele>729.8</ele>
        <time>2021-04-10T12:48:39Z</time>
      </trkpt>
      <trkpt lat="45.1572" lon="5.78877">
        <ele>729.6</ele>
        <time>2021-04-10T12:48:40Z</time>
      </trkpt>
      <trkpt lat="45.15726" lon="5.7888">
        <ele>729.4</ele>
        <time>2021-04-10T12:48:41Z</time>
      </trkpt>
      <trkpt lat="45.1573" lon="5.78882">
        <ele>729.2</ele>
        <time>2021-04-10T12:48:42Z</time>
      </trkpt>
      <trkpt lat="45.15733" lon="5.78883">
        <ele>729.2</ele>
        <time>2021-04-10T12:48:43Z</time>
      </trkpt>
      <trkpt lat="45.15735" lon="5.78884">
        <ele>729</ele>
        <time>2021-04-10T12:48:44Z</time>
      </trkpt>
      <trkpt lat="45.15738" lon="5.78885">
        <ele>728.8</ele>
        <time>2021-04-10T12:48:45Z</time>
      </trkpt>
      <trkpt lat="45.15741" lon="5.78888">
        <ele>728.8</ele>
        <time>2021-04-10T12:48:46Z</time>
      </trkpt>
      <trkpt lat="45.15745" lon="5.7889">
        <ele>728.2</ele>
        <time>2021-04-10T12:48:47Z</time>
      </trkpt>
      <trkpt lat="45.15746" lon="5.78891">
        <ele>728.2</ele>
        <time>2021-04-10T12:48:48Z</time>
      </trkpt>
      <trkpt lat="45.15748" lon="5.78892">
        <ele>728</ele>
        <time>2021-04-10T12:48:49Z</time>
      </trkpt>
      <trkpt lat="45.1575" lon="5.78893">
        <ele>728.4</ele>
        <time>2021-04-10T12:48:50Z</time>
      </trkpt>
      <trkpt lat="45.15756" lon="5.78896">
        <ele>728.2</ele>
        <time>2021-04-10T12:48:51Z</time>
      </trkpt>
      <trkpt lat="45.15759" lon="5.78898">
        <ele>728.4</ele>
        <time>2021-04-10T12:48:52Z</time>
      </trkpt>
      <trkpt lat="45.1576" lon="5.78899">
        <ele>728.2</ele>
        <time>2021-04-10T12:48:53Z</time>
      </trkpt>
      <trkpt lat="45.15762" lon="5.78901">
        <ele>728.4</ele>
        <time>2021-04-10T12:48:54Z</time>
      </trkpt>
      <trkpt lat="45.15763" lon="5.78902">
        <ele>728.2</ele>
        <time>2021-04-10T12:48:55Z</time>
      </trkpt>
      <trkpt lat="45.15765" lon="5.78903">
        <ele>728.2</ele>
        <time>2021-04-10T12:48:56Z</time>
      </trkpt>
      <trkpt lat="45.15767" lon="5.78904">
        <ele>728</ele>
        <time>2021-04-10T12:48:57Z</time>
      </trkpt>
      <trkpt lat="45.15768" lon="5.78905">
        <ele>728</ele>
        <time>2021-04-10T12:48:58Z</time>
      </trkpt>
      <trkpt lat="45.1577" lon="5.78906">
        <ele>727.6</ele>
        <time>2021-04-10T12:48:59Z</time>
      </trkpt>
      <trkpt lat="45.15776" lon="5.78911">
        <ele>727.6</ele>
        <time>2021-04-10T12:49:00Z</time>
      </trkpt>
      <trkpt lat="45.1578" lon="5.78914">
        <ele>727.2</ele>
        <time>2021-04-10T12:49:01Z</time>
      </trkpt>
      <trkpt lat="45.15782" lon="5.78916">
        <ele>727.4</ele>
        <time>2021-04-10T12:49:02Z</time>
      </trkpt>
      <trkpt lat="45.15785" lon="5.78918">
        <ele>727.2</ele>
        <time>2021-04-10T12:49:03Z</time>
      </trkpt>
      <trkpt lat="45.15788" lon="5.78922">
        <ele>727.4</ele>
        <time>2021-04-10T12:49:04Z</time>
      </trkpt>
      <trkpt lat="45.15791" lon="5.78925">
        <ele>727</ele>
        <time>2021-04-10T12:49:05Z</time>
      </trkpt>
      <trkpt lat="45.15793" lon="5.78927">
        <ele>727</ele>
        <time>2021-04-10T12:49:06Z</time>
      </trkpt>
      <trkpt lat="45.15796" lon="5.7893">
        <ele>726.8</ele>
        <time>2021-04-10T12:49:07Z</time>
      </trkpt>
      <trkpt lat="45.15804" lon="5.78938">
        <ele>726.8</ele>
        <time>2021-04-10T12:49:08Z</time>
      </trkpt>
      <trkpt lat="45.15809" lon="5.78943">
        <ele>726.8</ele>
        <time>2021-04-10T12:49:09Z</time>
      </trkpt>
      <trkpt lat="45.15815" lon="5.78949">
        <ele>727</ele>
        <time>2021-04-10T12:49:10Z</time>
      </trkpt>
      <trkpt lat="45.15815" lon="5.78949">
        <ele>726.8</ele>
        <time>2021-04-10T12:49:11Z</time>
      </trkpt>
      <trkpt lat="45.15818" lon="5.78951">
        <ele>727.2</ele>
        <time>2021-04-10T12:49:12Z</time>
      </trkpt>
      <trkpt lat="45.1582" lon="5.78952">
        <ele>727</ele>
        <time>2021-04-10T12:49:13Z</time>
      </trkpt>
      <trkpt lat="45.15827" lon="5.78957">
        <ele>727.4</ele>
        <time>2021-04-10T12:49:14Z</time>
      </trkpt>
      <trkpt lat="45.15829" lon="5.78959">
        <ele>727</ele>
        <time>2021-04-10T12:49:15Z</time>
      </trkpt>
      <trkpt lat="45.15831" lon="5.7896">
        <ele>727</ele>
        <time>2021-04-10T12:49:16Z</time>
      </trkpt>
      <trkpt lat="45.15837" lon="5.78964">
        <ele>726.6</ele>
        <time>2021-04-10T12:49:17Z</time>
      </trkpt>
      <trkpt lat="45.1584" lon="5.78967">
        <ele>726.4</ele>
        <time>2021-04-10T12:49:18Z</time>
      </trkpt>
      <trkpt lat="45.15842" lon="5.78969">
        <ele>726</ele>
        <time>2021-04-10T12:49:19Z</time>
      </trkpt>
      <trkpt lat="45.15844" lon="5.78971">
        <ele>725.8</ele>
        <time>2021-04-10T12:49:20Z</time>
      </trkpt>
      <trkpt lat="45.15845" lon="5.78973">
        <ele>725.6</ele>
        <time>2021-04-10T12:49:21Z</time>
      </trkpt>
      <trkpt lat="45.15846" lon="5.78974">
        <ele>725.6</ele>
        <time>2021-04-10T12:49:22Z</time>
      </trkpt>
      <trkpt lat="45.15847" lon="5.78975">
        <ele>725.6</ele>
        <time>2021-04-10T12:49:23Z</time>
      </trkpt>
      <trkpt lat="45.15848" lon="5.78977">
        <ele>725.8</ele>
        <time>2021-04-10T12:49:24Z</time>
      </trkpt>
      <trkpt lat="45.15851" lon="5.78981">
        <ele>726.2</ele>
        <time>2021-04-10T12:49:25Z</time>
      </trkpt>
      <trkpt lat="45.15853" lon="5.78982">
        <ele>726.2</ele>
        <time>2021-04-10T12:49:26Z</time>
      </trkpt>
      <trkpt lat="45.15854" lon="5.78983">
        <ele>726.4</ele>
        <time>2021-04-10T12:49:27Z</time>
      </trkpt>
      <trkpt lat="45.15856" lon="5.78985">
        <ele>726.6</ele>
        <time>2021-04-10T12:49:28Z</time>
      </trkpt>
      <trkpt lat="45.15857" lon="5.78986">
        <ele>727</ele>
        <time>2021-04-10T12:49:29Z</time>
      </trkpt>
      <trkpt lat="45.15863" lon="5.78991">
        <ele>727.2</ele>
        <time>2021-04-10T12:49:30Z</time>
      </trkpt>
      <trkpt lat="45.15864" lon="5.78992">
        <ele>727.6</ele>
        <time>2021-04-10T12:49:31Z</time>
      </trkpt>
      <trkpt lat="45.15865" lon="5.78993">
        <ele>727.6</ele>
        <time>2021-04-10T12:49:32Z</time>
      </trkpt>
      <trkpt lat="45.15869" lon="5.78995">
        <ele>727.8</ele>
        <time>2021-04-10T12:49:33Z</time>
      </trkpt>
      <trkpt lat="45.15869" lon="5.78995">
        <ele>728</ele>
        <time>2021-04-10T12:49:34Z</time>
      </trkpt>
      <trkpt lat="45.15869" lon="5.78995">
        <ele>728</ele>
        <time>2021-04-10T12:49:35Z</time>
      </trkpt>
      <trkpt lat="45.15869" lon="5.78995">
        <ele>728</ele>
        <time>2021-04-10T12:49:36Z</time>
      </trkpt>
      <trkpt lat="45.1587" lon="5.78997">
        <ele>728.4</ele>
        <time>2021-04-10T12:49:37Z</time>
      </trkpt>
      <trkpt lat="45.15871" lon="5.78998">
        <ele>728.2</ele>
        <time>2021-04-10T12:49:38Z</time>
      </trkpt>
      <trkpt lat="45.15872" lon="5.79">
        <ele>728.4</ele>
        <time>2021-04-10T12:49:39Z</time>
      </trkpt>
      <trkpt lat="45.15872" lon="5.79001">
        <ele>728.2</ele>
        <time>2021-04-10T12:49:40Z</time>
      </trkpt>
      <trkpt lat="45.15873" lon="5.79002">
        <ele>728.6</ele>
        <time>2021-04-10T12:49:41Z</time>
      </trkpt>
      <trkpt lat="45.15874" lon="5.79004">
        <ele>728.4</ele>
        <time>2021-04-10T12:49:42Z</time>
      </trkpt>
      <trkpt lat="45.15875" lon="5.79005">
        <ele>728.6</ele>
        <time>2021-04-10T12:49:43Z</time>
      </trkpt>
      <trkpt lat="45.15878" lon="5.79008">
        <ele>728</ele>
        <time>2021-04-10T12:49:44Z</time>
      </trkpt>
      <trkpt lat="45.1588" lon="5.79011">
        <ele>727.8</ele>
        <time>2021-04-10T12:49:45Z</time>
      </trkpt>
      <trkpt lat="45.15883" lon="5.79014">
        <ele>727.6</ele>
        <time>2021-04-10T12:49:46Z</time>
      </trkpt>
      <trkpt lat="45.15885" lon="5.79017">
        <ele>727.6</ele>
        <time>2021-04-10T12:49:47Z</time>
      </trkpt>
      <trkpt lat="45.15888" lon="5.7902">
        <ele>727.8</ele>
        <time>2021-04-10T12:49:48Z</time>
      </trkpt>
      <trkpt lat="45.15892" lon="5.79024">
        <ele>727.8</ele>
        <time>2021-04-10T12:49:49Z</time>
      </trkpt>
      <trkpt lat="45.15892" lon="5.79024">
        <ele>728.4</ele>
        <time>2021-04-10T12:49:50Z</time>
      </trkpt>
      <trkpt lat="45.15892" lon="5.79024">
        <ele>728.4</ele>
        <time>2021-04-10T12:49:51Z</time>
      </trkpt>
      <trkpt lat="45.15892" lon="5.79024">
        <ele>728.8</ele>
        <time>2021-04-10T12:49:52Z</time>
      </trkpt>
      <trkpt lat="45.15894" lon="5.79025">
        <ele>728.8</ele>
        <time>2021-04-10T12:49:53Z</time>
      </trkpt>
      <trkpt lat="45.15895" lon="5.79027">
        <ele>729</ele>
        <time>2021-04-10T12:49:54Z</time>
      </trkpt>
      <trkpt lat="45.15896" lon="5.79028">
        <ele>729</ele>
        <time>2021-04-10T12:49:55Z</time>
      </trkpt>
      <trkpt lat="45.15898" lon="5.7903">
        <ele>728.8</ele>
        <time>2021-04-10T12:49:56Z</time>
      </trkpt>
      <trkpt lat="45.15899" lon="5.79031">
        <ele>728.6</ele>
        <time>2021-04-10T12:49:57Z</time>
      </trkpt>
      <trkpt lat="45.159" lon="5.79032">
        <ele>728.4</ele>
        <time>2021-04-10T12:49:58Z</time>
      </trkpt>
      <trkpt lat="45.15904" lon="5.79036">
        <ele>728</ele>
        <time>2021-04-10T12:49:59Z</time>
      </trkpt>
      <trkpt lat="45.15912" lon="5.79043">
        <ele>727.4</ele>
        <time>2021-04-10T12:50:01Z</time>
      </trkpt>
      <trkpt lat="45.15914" lon="5.79045">
        <ele>727.2</ele>
        <time>2021-04-10T12:50:02Z</time>
      </trkpt>
      <trkpt lat="45.1592" lon="5.79051">
        <ele>727.2</ele>
        <time>2021-04-10T12:50:03Z</time>
      </trkpt>
      <trkpt lat="45.15924" lon="5.79055">
        <ele>726.8</ele>
        <time>2021-04-10T12:50:04Z</time>
      </trkpt>
      <trkpt lat="45.15927" lon="5.79059">
        <ele>726.8</ele>
        <time>2021-04-10T12:50:05Z</time>
      </trkpt>
      <trkpt lat="45.15929" lon="5.79062">
        <ele>726.4</ele>
        <time>2021-04-10T12:50:06Z</time>
      </trkpt>
      <trkpt lat="45.15932" lon="5.79065">
        <ele>726.2</ele>
        <time>2021-04-10T12:50:07Z</time>
      </trkpt>
      <trkpt lat="45.15935" lon="5.79068">
        <ele>725.8</ele>
        <time>2021-04-10T12:50:08Z</time>
      </trkpt>
      <trkpt lat="45.15935" lon="5.79069">
        <ele>725.4</ele>
        <time>2021-04-10T12:50:09Z</time>
      </trkpt>
      <trkpt lat="45.15936" lon="5.79069">
        <ele>725.4</ele>
        <time>2021-04-10T12:50:10Z</time>
      </trkpt>
      <trkpt lat="45.15936" lon="5.7907">
        <ele>724.8</ele>
        <time>2021-04-10T12:50:11Z</time>
      </trkpt>
      <trkpt lat="45.15936" lon="5.79071">
        <ele>725</ele>
        <time>2021-04-10T12:50:12Z</time>
      </trkpt>
      <trkpt lat="45.15937" lon="5.79071">
        <ele>724.4</ele>
        <time>2021-04-10T12:50:13Z</time>
      </trkpt>
      <trkpt lat="45.15937" lon="5.79072">
        <ele>724.2</ele>
        <time>2021-04-10T12:50:14Z</time>
      </trkpt>
      <trkpt lat="45.15938" lon="5.79072">
        <ele>723.8</ele>
        <time>2021-04-10T12:50:15Z</time>
      </trkpt>
      <trkpt lat="45.15938" lon="5.79073">
        <ele>723.6</ele>
        <time>2021-04-10T12:50:16Z</time>
      </trkpt>
      <trkpt lat="45.15939" lon="5.79074">
        <ele>723.2</ele>
        <time>2021-04-10T12:50:17Z</time>
      </trkpt>
      <trkpt lat="45.15942" lon="5.79079">
        <ele>723</ele>
        <time>2021-04-10T12:50:18Z</time>
      </trkpt>
      <trkpt lat="45.15944" lon="5.7908">
        <ele>722.4</ele>
        <time>2021-04-10T12:50:19Z</time>
      </trkpt>
      <trkpt lat="45.15945" lon="5.79082">
        <ele>721.2</ele>
        <time>2021-04-10T12:50:21Z</time>
      </trkpt>
      <trkpt lat="45.15947" lon="5.79084">
        <ele>720.6</ele>
        <time>2021-04-10T12:50:22Z</time>
      </trkpt>
      <trkpt lat="45.15951" lon="5.79088">
        <ele>720</ele>
        <time>2021-04-10T12:50:23Z</time>
      </trkpt>
      <trkpt lat="45.15951" lon="5.79088">
        <ele>719.2</ele>
        <time>2021-04-10T12:50:24Z</time>
      </trkpt>
      <trkpt lat="45.15951" lon="5.79088">
        <ele>719.2</ele>
        <time>2021-04-10T12:50:25Z</time>
      </trkpt>
      <trkpt lat="45.15953" lon="5.79088">
        <ele>718.8</ele>
        <time>2021-04-10T12:50:26Z</time>
      </trkpt>
      <trkpt lat="45.15955" lon="5.79088">
        <ele>718.6</ele>
        <time>2021-04-10T12:50:27Z</time>
      </trkpt>
      <trkpt lat="45.15957" lon="5.79088">
        <ele>717.6</ele>
        <time>2021-04-10T12:50:28Z</time>
      </trkpt>
      <trkpt lat="45.15958" lon="5.79088">
        <ele>717</ele>
        <time>2021-04-10T12:50:29Z</time>
      </trkpt>
      <trkpt lat="45.1596" lon="5.79088">
        <ele>715.8</ele>
        <time>2021-04-10T12:50:30Z</time>
      </trkpt>
      <trkpt lat="45.15962" lon="5.79088">
        <ele>715.8</ele>
        <time>2021-04-10T12:50:31Z</time>
      </trkpt>
      <trkpt lat="45.15964" lon="5.79088">
        <ele>715.2</ele>
        <time>2021-04-10T12:50:32Z</time>
      </trkpt>
      <trkpt lat="45.15966" lon="5.79088">
        <ele>714.8</ele>
        <time>2021-04-10T12:50:33Z</time>
      </trkpt>
      <trkpt lat="45.15968" lon="5.79088">
        <ele>714</ele>
        <time>2021-04-10T12:50:34Z</time>
      </trkpt>
      <trkpt lat="45.1597" lon="5.79088">
        <ele>713.2</ele>
        <time>2021-04-10T12:50:35Z</time>
      </trkpt>
      <trkpt lat="45.15972" lon="5.79088">
        <ele>712.4</ele>
        <time>2021-04-10T12:50:36Z</time>
      </trkpt>
      <trkpt lat="45.15974" lon="5.79089">
        <ele>712.4</ele>
        <time>2021-04-10T12:50:37Z</time>
      </trkpt>
      <trkpt lat="45.15976" lon="5.7909">
        <ele>712</ele>
        <time>2021-04-10T12:50:38Z</time>
      </trkpt>
      <trkpt lat="45.15977" lon="5.79091">
        <ele>712</ele>
        <time>2021-04-10T12:50:39Z</time>
      </trkpt>
      <trkpt lat="45.15979" lon="5.79092">
        <ele>711.4</ele>
        <time>2021-04-10T12:50:40Z</time>
      </trkpt>
      <trkpt lat="45.1598" lon="5.79092">
        <ele>710.8</ele>
        <time>2021-04-10T12:50:41Z</time>
      </trkpt>
      <trkpt lat="45.15981" lon="5.79093">
        <ele>710.6</ele>
        <time>2021-04-10T12:50:42Z</time>
      </trkpt>
      <trkpt lat="45.15983" lon="5.79094">
        <ele>709.4</ele>
        <time>2021-04-10T12:50:43Z</time>
      </trkpt>
      <trkpt lat="45.15984" lon="5.79094">
        <ele>709.2</ele>
        <time>2021-04-10T12:50:44Z</time>
      </trkpt>
      <trkpt lat="45.15986" lon="5.79095">
        <ele>708.8</ele>
        <time>2021-04-10T12:50:45Z</time>
      </trkpt>
      <trkpt lat="45.15987" lon="5.79096">
        <ele>708.6</ele>
        <time>2021-04-10T12:50:46Z</time>
      </trkpt>
      <trkpt lat="45.15988" lon="5.79097">
        <ele>708</ele>
        <time>2021-04-10T12:50:47Z</time>
      </trkpt>
      <trkpt lat="45.1599" lon="5.79097">
        <ele>707.8</ele>
        <time>2021-04-10T12:50:48Z</time>
      </trkpt>
      <trkpt lat="45.15991" lon="5.79096">
        <ele>706.8</ele>
        <time>2021-04-10T12:50:49Z</time>
      </trkpt>
      <trkpt lat="45.15992" lon="5.79095">
        <ele>706.4</ele>
        <time>2021-04-10T12:50:50Z</time>
      </trkpt>
      <trkpt lat="45.15994" lon="5.79094">
        <ele>706</ele>
        <time>2021-04-10T12:50:51Z</time>
      </trkpt>
      <trkpt lat="45.15995" lon="5.79092">
        <ele>705.6</ele>
        <time>2021-04-10T12:50:52Z</time>
      </trkpt>
      <trkpt lat="45.15996" lon="5.79091">
        <ele>705</ele>
        <time>2021-04-10T12:50:53Z</time>
      </trkpt>
      <trkpt lat="45.15998" lon="5.7909">
        <ele>704.4</ele>
        <time>2021-04-10T12:50:54Z</time>
      </trkpt>
      <trkpt lat="45.15999" lon="5.79088">
        <ele>703.8</ele>
        <time>2021-04-10T12:50:55Z</time>
      </trkpt>
      <trkpt lat="45.16" lon="5.79087">
        <ele>703</ele>
        <time>2021-04-10T12:50:56Z</time>
      </trkpt>
      <trkpt lat="45.16002" lon="5.79086">
        <ele>702.4</ele>
        <time>2021-04-10T12:50:57Z</time>
      </trkpt>
      <trkpt lat="45.16003" lon="5.79085">
        <ele>702</ele>
        <time>2021-04-10T12:50:58Z</time>
      </trkpt>
      <trkpt lat="45.16004" lon="5.79083">
        <ele>701.2</ele>
        <time>2021-04-10T12:50:59Z</time>
      </trkpt>
      <trkpt lat="45.16006" lon="5.79082">
        <ele>700</ele>
        <time>2021-04-10T12:51:00Z</time>
      </trkpt>
      <trkpt lat="45.16007" lon="5.79081">
        <ele>699.8</ele>
        <time>2021-04-10T12:51:01Z</time>
      </trkpt>
      <trkpt lat="45.16008" lon="5.79079">
        <ele>699</ele>
        <time>2021-04-10T12:51:02Z</time>
      </trkpt>
      <trkpt lat="45.1601" lon="5.79078">
        <ele>698.2</ele>
        <time>2021-04-10T12:51:03Z</time>
      </trkpt>
      <trkpt lat="45.16011" lon="5.79077">
        <ele>697.6</ele>
        <time>2021-04-10T12:51:04Z</time>
      </trkpt>
      <trkpt lat="45.16012" lon="5.79076">
        <ele>697.2</ele>
        <time>2021-04-10T12:51:05Z</time>
      </trkpt>
      <trkpt lat="45.16013" lon="5.79075">
        <ele>696.4</ele>
        <time>2021-04-10T12:51:06Z</time>
      </trkpt>
      <trkpt lat="45.16013" lon="5.79074">
        <ele>695.2</ele>
        <time>2021-04-10T12:51:07Z</time>
      </trkpt>
      <trkpt lat="45.16014" lon="5.79073">
        <ele>695</ele>
        <time>2021-04-10T12:51:08Z</time>
      </trkpt>
      <trkpt lat="45.16015" lon="5.79073">
        <ele>694.2</ele>
        <time>2021-04-10T12:51:09Z</time>
      </trkpt>
      <trkpt lat="45.16015" lon="5.79072">
        <ele>693.8</ele>
        <time>2021-04-10T12:51:10Z</time>
      </trkpt>
      <trkpt lat="45.16016" lon="5.79071">
        <ele>693.6</ele>
        <time>2021-04-10T12:51:11Z</time>
      </trkpt>
      <trkpt lat="45.16016" lon="5.7907">
        <ele>692.8</ele>
        <time>2021-04-10T12:51:12Z</time>
      </trkpt>
      <trkpt lat="45.16017" lon="5.7907">
        <ele>692.6</ele>
        <time>2021-04-10T12:51:13Z</time>
      </trkpt>
      <trkpt lat="45.16018" lon="5.79069">
        <ele>692</ele>
        <time>2021-04-10T12:51:14Z</time>
      </trkpt>
      <trkpt lat="45.16018" lon="5.79068">
        <ele>691.2</ele>
        <time>2021-04-10T12:51:15Z</time>
      </trkpt>
      <trkpt lat="45.16019" lon="5.79067">
        <ele>690.8</ele>
        <time>2021-04-10T12:51:16Z</time>
      </trkpt>
      <trkpt lat="45.16019" lon="5.79067">
        <ele>689.8</ele>
        <time>2021-04-10T12:51:17Z</time>
      </trkpt>
      <trkpt lat="45.1602" lon="5.79066">
        <ele>688.8</ele>
        <time>2021-04-10T12:51:18Z</time>
      </trkpt>
      <trkpt lat="45.1602" lon="5.79065">
        <ele>688.2</ele>
        <time>2021-04-10T12:51:19Z</time>
      </trkpt>
      <trkpt lat="45.16021" lon="5.79064">
        <ele>687.4</ele>
        <time>2021-04-10T12:51:20Z</time>
      </trkpt>
      <trkpt lat="45.16022" lon="5.79064">
        <ele>687.4</ele>
        <time>2021-04-10T12:51:21Z</time>
      </trkpt>
      <trkpt lat="45.16022" lon="5.79063">
        <ele>687.2</ele>
        <time>2021-04-10T12:51:22Z</time>
      </trkpt>
      <trkpt lat="45.16023" lon="5.79062">
        <ele>686.6</ele>
        <time>2021-04-10T12:51:23Z</time>
      </trkpt>
      <trkpt lat="45.16023" lon="5.79061">
        <ele>686.6</ele>
        <time>2021-04-10T12:51:24Z</time>
      </trkpt>
      <trkpt lat="45.16024" lon="5.7906">
        <ele>685.8</ele>
        <time>2021-04-10T12:51:25Z</time>
      </trkpt>
      <trkpt lat="45.16025" lon="5.7906">
        <ele>685.4</ele>
        <time>2021-04-10T12:51:26Z</time>
      </trkpt>
      <trkpt lat="45.16025" lon="5.79059">
        <ele>685</ele>
        <time>2021-04-10T12:51:27Z</time>
      </trkpt>
      <trkpt lat="45.16026" lon="5.79058">
        <ele>684</ele>
        <time>2021-04-10T12:51:28Z</time>
      </trkpt>
      <trkpt lat="45.16026" lon="5.79057">
        <ele>683.4</ele>
        <time>2021-04-10T12:51:29Z</time>
      </trkpt>
      <trkpt lat="45.16027" lon="5.79057">
        <ele>682.8</ele>
        <time>2021-04-10T12:51:30Z</time>
      </trkpt>
      <trkpt lat="45.16028" lon="5.79056">
        <ele>682.2</ele>
        <time>2021-04-10T12:51:31Z</time>
      </trkpt>
      <trkpt lat="45.16028" lon="5.79056">
        <ele>681.2</ele>
        <time>2021-04-10T12:51:32Z</time>
      </trkpt>
      <trkpt lat="45.16028" lon="5.79056">
        <ele>680.8</ele>
        <time>2021-04-10T12:51:33Z</time>
      </trkpt>
      <trkpt lat="45.16028" lon="5.79056">
        <ele>680.4</ele>
        <time>2021-04-10T12:51:34Z</time>
      </trkpt>
      <trkpt lat="45.16029" lon="5.79054">
        <ele>680</ele>
        <time>2021-04-10T12:51:35Z</time>
      </trkpt>
      <trkpt lat="45.1603" lon="5.79052">
        <ele>678.8</ele>
        <time>2021-04-10T12:51:36Z</time>
      </trkpt>
      <trkpt lat="45.16031" lon="5.7905">
        <ele>678</ele>
        <time>2021-04-10T12:51:37Z</time>
      </trkpt>
      <trkpt lat="45.16032" lon="5.79049">
        <ele>677.4</ele>
        <time>2021-04-10T12:51:38Z</time>
      </trkpt>
      <trkpt lat="45.16033" lon="5.79047">
        <ele>676.8</ele>
        <time>2021-04-10T12:51:39Z</time>
      </trkpt>
      <trkpt lat="45.16035" lon="5.79045">
        <ele>676.4</ele>
        <time>2021-04-10T12:51:40Z</time>
      </trkpt>
      <trkpt lat="45.16042" lon="5.79047">
        <ele>675.8</ele>
        <time>2021-04-10T12:51:41Z</time>
      </trkpt>
      <trkpt lat="45.16049" lon="5.79049">
        <ele>675.6</ele>
        <time>2021-04-10T12:51:42Z</time>
      </trkpt>
      <trkpt lat="45.16053" lon="5.79051">
        <ele>675</ele>
        <time>2021-04-10T12:51:43Z</time>
      </trkpt>
      <trkpt lat="45.16055" lon="5.79052">
        <ele>674.8</ele>
        <time>2021-04-10T12:51:44Z</time>
      </trkpt>
      <trkpt lat="45.16058" lon="5.79054">
        <ele>674</ele>
        <time>2021-04-10T12:51:45Z</time>
      </trkpt>
      <trkpt lat="45.1606" lon="5.79056">
        <ele>673.4</ele>
        <time>2021-04-10T12:51:46Z</time>
      </trkpt>
      <trkpt lat="45.16062" lon="5.79057">
        <ele>673</ele>
        <time>2021-04-10T12:51:47Z</time>
      </trkpt>
      <trkpt lat="45.16063" lon="5.79059">
        <ele>673</ele>
        <time>2021-04-10T12:51:48Z</time>
      </trkpt>
      <trkpt lat="45.16063" lon="5.79059">
        <ele>672.8</ele>
        <time>2021-04-10T12:51:49Z</time>
      </trkpt>
      <trkpt lat="45.16063" lon="5.79059">
        <ele>672.6</ele>
        <time>2021-04-10T12:51:50Z</time>
      </trkpt>
      <trkpt lat="45.16063" lon="5.79059">
        <ele>672.4</ele>
        <time>2021-04-10T12:51:51Z</time>
      </trkpt>
      <trkpt lat="45.16063" lon="5.79059">
        <ele>672.4</ele>
        <time>2021-04-10T12:51:52Z</time>
      </trkpt>
      <trkpt lat="45.16066" lon="5.79061">
        <ele>672.2</ele>
        <time>2021-04-10T12:51:53Z</time>
      </trkpt>
      <trkpt lat="45.16069" lon="5.79063">
        <ele>672</ele>
        <time>2021-04-10T12:51:54Z</time>
      </trkpt>
      <trkpt lat="45.16072" lon="5.79065">
        <ele>671.8</ele>
        <time>2021-04-10T12:51:55Z</time>
      </trkpt>
      <trkpt lat="45.16074" lon="5.79067">
        <ele>671.8</ele>
        <time>2021-04-10T12:51:56Z</time>
      </trkpt>
      <trkpt lat="45.16077" lon="5.79069">
        <ele>671.8</ele>
        <time>2021-04-10T12:51:57Z</time>
      </trkpt>
      <trkpt lat="45.1608" lon="5.7907">
        <ele>671.8</ele>
        <time>2021-04-10T12:51:58Z</time>
      </trkpt>
      <trkpt lat="45.16085" lon="5.79074">
        <ele>671.6</ele>
        <time>2021-04-10T12:51:59Z</time>
      </trkpt>
      <trkpt lat="45.16085" lon="5.79074">
        <ele>671.4</ele>
        <time>2021-04-10T12:52:00Z</time>
      </trkpt>
      <trkpt lat="45.16085" lon="5.79074">
        <ele>671.4</ele>
        <time>2021-04-10T12:52:01Z</time>
      </trkpt>
      <trkpt lat="45.16084" lon="5.79078">
        <ele>671.2</ele>
        <time>2021-04-10T12:52:02Z</time>
      </trkpt>
      <trkpt lat="45.16084" lon="5.79081">
        <ele>671.2</ele>
        <time>2021-04-10T12:52:03Z</time>
      </trkpt>
      <trkpt lat="45.16083" lon="5.79085">
        <ele>671.2</ele>
        <time>2021-04-10T12:52:04Z</time>
      </trkpt>
      <trkpt lat="45.16082" lon="5.79088">
        <ele>671.2</ele>
        <time>2021-04-10T12:52:05Z</time>
      </trkpt>
      <trkpt lat="45.16081" lon="5.79092">
        <ele>671.2</ele>
        <time>2021-04-10T12:52:06Z</time>
      </trkpt>
      <trkpt lat="45.1608" lon="5.79095">
        <ele>671.2</ele>
        <time>2021-04-10T12:52:07Z</time>
      </trkpt>
      <trkpt lat="45.16079" lon="5.79101">
        <ele>671.2</ele>
        <time>2021-04-10T12:52:08Z</time>
      </trkpt>
      <trkpt lat="45.16079" lon="5.79103">
        <ele>671</ele>
        <time>2021-04-10T12:52:09Z</time>
      </trkpt>
      <trkpt lat="45.1608" lon="5.79105">
        <ele>671</ele>
        <time>2021-04-10T12:52:10Z</time>
      </trkpt>
      <trkpt lat="45.16081" lon="5.79107">
        <ele>671</ele>
        <time>2021-04-10T12:52:11Z</time>
      </trkpt>
      <trkpt lat="45.16081" lon="5.79109">
        <ele>671</ele>
        <time>2021-04-10T12:52:12Z</time>
      </trkpt>
      <trkpt lat="45.16082" lon="5.79111">
        <ele>671.4</ele>
        <time>2021-04-10T12:52:13Z</time>
      </trkpt>
      <trkpt lat="45.16083" lon="5.79113">
        <ele>671.4</ele>
        <time>2021-04-10T12:52:14Z</time>
      </trkpt>
      <trkpt lat="45.16083" lon="5.79115">
        <ele>671.6</ele>
        <time>2021-04-10T12:52:15Z</time>
      </trkpt>
      <trkpt lat="45.16084" lon="5.79117">
        <ele>671.6</ele>
        <time>2021-04-10T12:52:16Z</time>
      </trkpt>
      <trkpt lat="45.16085" lon="5.79119">
        <ele>671.8</ele>
        <time>2021-04-10T12:52:17Z</time>
      </trkpt>
      <trkpt lat="45.16086" lon="5.79121">
        <ele>671.6</ele>
        <time>2021-04-10T12:52:18Z</time>
      </trkpt>
      <trkpt lat="45.16086" lon="5.79122">
        <ele>671.6</ele>
        <time>2021-04-10T12:52:19Z</time>
      </trkpt>
      <trkpt lat="45.16087" lon="5.79124">
        <ele>671.4</ele>
        <time>2021-04-10T12:52:20Z</time>
      </trkpt>
      <trkpt lat="45.16088" lon="5.79126">
        <ele>671.6</ele>
        <time>2021-04-10T12:52:21Z</time>
      </trkpt>
      <trkpt lat="45.16088" lon="5.79126">
        <ele>671.2</ele>
        <time>2021-04-10T12:52:22Z</time>
      </trkpt>
      <trkpt lat="45.16088" lon="5.79126">
        <ele>671.2</ele>
        <time>2021-04-10T12:52:23Z</time>
      </trkpt>
      <trkpt lat="45.16088" lon="5.79126">
        <ele>670.8</ele>
        <time>2021-04-10T12:52:24Z</time>
      </trkpt>
      <trkpt lat="45.16089" lon="5.79127">
        <ele>670.6</ele>
        <time>2021-04-10T12:52:25Z</time>
      </trkpt>
      <trkpt lat="45.1609" lon="5.79128">
        <ele>670.4</ele>
        <time>2021-04-10T12:52:26Z</time>
      </trkpt>
      <trkpt lat="45.16091" lon="5.79129">
        <ele>670.4</ele>
        <time>2021-04-10T12:52:27Z</time>
      </trkpt>
      <trkpt lat="45.16092" lon="5.7913">
        <ele>669.6</ele>
        <time>2021-04-10T12:52:28Z</time>
      </trkpt>
      <trkpt lat="45.16093" lon="5.79131">
        <ele>668.8</ele>
        <time>2021-04-10T12:52:29Z</time>
      </trkpt>
      <trkpt lat="45.16094" lon="5.79132">
        <ele>668.2</ele>
        <time>2021-04-10T12:52:30Z</time>
      </trkpt>
      <trkpt lat="45.16095" lon="5.79133">
        <ele>667.6</ele>
        <time>2021-04-10T12:52:31Z</time>
      </trkpt>
      <trkpt lat="45.16097" lon="5.79134">
        <ele>667</ele>
        <time>2021-04-10T12:52:32Z</time>
      </trkpt>
      <trkpt lat="45.16099" lon="5.79137">
        <ele>666.4</ele>
        <time>2021-04-10T12:52:33Z</time>
      </trkpt>
      <trkpt lat="45.16102" lon="5.7914">
        <ele>665.8</ele>
        <time>2021-04-10T12:52:34Z</time>
      </trkpt>
      <trkpt lat="45.16104" lon="5.79142">
        <ele>664.2</ele>
        <time>2021-04-10T12:52:35Z</time>
      </trkpt>
      <trkpt lat="45.16107" lon="5.79145">
        <ele>663.6</ele>
        <time>2021-04-10T12:52:36Z</time>
      </trkpt>
      <trkpt lat="45.16109" lon="5.79148">
        <ele>662.4</ele>
        <time>2021-04-10T12:52:37Z</time>
      </trkpt>
      <trkpt lat="45.16112" lon="5.7915">
        <ele>661.8</ele>
        <time>2021-04-10T12:52:38Z</time>
      </trkpt>
      <trkpt lat="45.16112" lon="5.7915">
        <ele>661.2</ele>
        <time>2021-04-10T12:52:39Z</time>
      </trkpt>
      <trkpt lat="45.16112" lon="5.7915">
        <ele>660.8</ele>
        <time>2021-04-10T12:52:40Z</time>
      </trkpt>
      <trkpt lat="45.16112" lon="5.7915">
        <ele>660.2</ele>
        <time>2021-04-10T12:52:41Z</time>
      </trkpt>
      <trkpt lat="45.16112" lon="5.79153">
        <ele>660</ele>
        <time>2021-04-10T12:52:42Z</time>
      </trkpt>
      <trkpt lat="45.16112" lon="5.79156">
        <ele>659.2</ele>
        <time>2021-04-10T12:52:43Z</time>
      </trkpt>
      <trkpt lat="45.16111" lon="5.7916">
        <ele>658.8</ele>
        <time>2021-04-10T12:52:44Z</time>
      </trkpt>
      <trkpt lat="45.16111" lon="5.79163">
        <ele>658</ele>
        <time>2021-04-10T12:52:45Z</time>
      </trkpt>
      <trkpt lat="45.16111" lon="5.79166">
        <ele>657.4</ele>
        <time>2021-04-10T12:52:46Z</time>
      </trkpt>
      <trkpt lat="45.16112" lon="5.79165">
        <ele>656.8</ele>
        <time>2021-04-10T12:52:47Z</time>
      </trkpt>
      <trkpt lat="45.16113" lon="5.79164">
        <ele>656.6</ele>
        <time>2021-04-10T12:52:48Z</time>
      </trkpt>
      <trkpt lat="45.16113" lon="5.79164">
        <ele>656</ele>
        <time>2021-04-10T12:52:49Z</time>
      </trkpt>
      <trkpt lat="45.16114" lon="5.79164">
        <ele>655.4</ele>
        <time>2021-04-10T12:52:50Z</time>
      </trkpt>
      <trkpt lat="45.16115" lon="5.79163">
        <ele>654.6</ele>
        <time>2021-04-10T12:52:51Z</time>
      </trkpt>
      <trkpt lat="45.16115" lon="5.79163">
        <ele>654</ele>
        <time>2021-04-10T12:52:52Z</time>
      </trkpt>
      <trkpt lat="45.16116" lon="5.79163">
        <ele>653.4</ele>
        <time>2021-04-10T12:52:53Z</time>
      </trkpt>
      <trkpt lat="45.16117" lon="5.79162">
        <ele>652.8</ele>
        <time>2021-04-10T12:52:54Z</time>
      </trkpt>
      <trkpt lat="45.16117" lon="5.79162">
        <ele>651.8</ele>
        <time>2021-04-10T12:52:55Z</time>
      </trkpt>
      <trkpt lat="45.16118" lon="5.79162">
        <ele>651.2</ele>
        <time>2021-04-10T12:52:56Z</time>
      </trkpt>
      <trkpt lat="45.16118" lon="5.79161">
        <ele>650.8</ele>
        <time>2021-04-10T12:52:57Z</time>
      </trkpt>
      <trkpt lat="45.16119" lon="5.79161">
        <ele>649.6</ele>
        <time>2021-04-10T12:52:58Z</time>
      </trkpt>
      <trkpt lat="45.1612" lon="5.79161">
        <ele>649</ele>
        <time>2021-04-10T12:52:59Z</time>
      </trkpt>
      <trkpt lat="45.1612" lon="5.7916">
        <ele>648.6</ele>
        <time>2021-04-10T12:53:00Z</time>
      </trkpt>
      <trkpt lat="45.16121" lon="5.7916">
        <ele>647.8</ele>
        <time>2021-04-10T12:53:01Z</time>
      </trkpt>
      <trkpt lat="45.16122" lon="5.7916">
        <ele>647.6</ele>
        <time>2021-04-10T12:53:02Z</time>
      </trkpt>
      <trkpt lat="45.16122" lon="5.79159">
        <ele>646.6</ele>
        <time>2021-04-10T12:53:03Z</time>
      </trkpt>
      <trkpt lat="45.16123" lon="5.79159">
        <ele>646.2</ele>
        <time>2021-04-10T12:53:04Z</time>
      </trkpt>
      <trkpt lat="45.16123" lon="5.79159">
        <ele>645.2</ele>
        <time>2021-04-10T12:53:05Z</time>
      </trkpt>
      <trkpt lat="45.16124" lon="5.79158">
        <ele>644.8</ele>
        <time>2021-04-10T12:53:06Z</time>
      </trkpt>
      <trkpt lat="45.16124" lon="5.79158">
        <ele>644.4</ele>
        <time>2021-04-10T12:53:07Z</time>
      </trkpt>
      <trkpt lat="45.16124" lon="5.79158">
        <ele>643.6</ele>
        <time>2021-04-10T12:53:08Z</time>
      </trkpt>
      <trkpt lat="45.16124" lon="5.79158">
        <ele>643</ele>
        <time>2021-04-10T12:53:09Z</time>
      </trkpt>
      <trkpt lat="45.16125" lon="5.79158">
        <ele>642.6</ele>
        <time>2021-04-10T12:53:10Z</time>
      </trkpt>
      <trkpt lat="45.16126" lon="5.79157">
        <ele>641.8</ele>
        <time>2021-04-10T12:53:11Z</time>
      </trkpt>
      <trkpt lat="45.16126" lon="5.79156">
        <ele>641.6</ele>
        <time>2021-04-10T12:53:12Z</time>
      </trkpt>
      <trkpt lat="45.16127" lon="5.79155">
        <ele>640.8</ele>
        <time>2021-04-10T12:53:13Z</time>
      </trkpt>
      <trkpt lat="45.16128" lon="5.79155">
        <ele>640.4</ele>
        <time>2021-04-10T12:53:14Z</time>
      </trkpt>
      <trkpt lat="45.16129" lon="5.79154">
        <ele>640</ele>
        <time>2021-04-10T12:53:15Z</time>
      </trkpt>
      <trkpt lat="45.1613" lon="5.79153">
        <ele>639.6</ele>
        <time>2021-04-10T12:53:16Z</time>
      </trkpt>
      <trkpt lat="45.1613" lon="5.79152">
        <ele>638.4</ele>
        <time>2021-04-10T12:53:17Z</time>
      </trkpt>
      <trkpt lat="45.16131" lon="5.79152">
        <ele>638</ele>
        <time>2021-04-10T12:53:18Z</time>
      </trkpt>
      <trkpt lat="45.16132" lon="5.79151">
        <ele>636.8</ele>
        <time>2021-04-10T12:53:19Z</time>
      </trkpt>
      <trkpt lat="45.16133" lon="5.7915">
        <ele>636.4</ele>
        <time>2021-04-10T12:53:20Z</time>
      </trkpt>
      <trkpt lat="45.16134" lon="5.79149">
        <ele>636</ele>
        <time>2021-04-10T12:53:21Z</time>
      </trkpt>
      <trkpt lat="45.16135" lon="5.79148">
        <ele>635.6</ele>
        <time>2021-04-10T12:53:22Z</time>
      </trkpt>
      <trkpt lat="45.16137" lon="5.79148">
        <ele>634.6</ele>
        <time>2021-04-10T12:53:23Z</time>
      </trkpt>
      <trkpt lat="45.16138" lon="5.79147">
        <ele>634</ele>
        <time>2021-04-10T12:53:24Z</time>
      </trkpt>
      <trkpt lat="45.16139" lon="5.79146">
        <ele>633.6</ele>
        <time>2021-04-10T12:53:25Z</time>
      </trkpt>
      <trkpt lat="45.1614" lon="5.79145">
        <ele>633</ele>
        <time>2021-04-10T12:53:26Z</time>
      </trkpt>
      <trkpt lat="45.16141" lon="5.79144">
        <ele>632.4</ele>
        <time>2021-04-10T12:53:27Z</time>
      </trkpt>
      <trkpt lat="45.16142" lon="5.79145">
        <ele>631.4</ele>
        <time>2021-04-10T12:53:28Z</time>
      </trkpt>
      <trkpt lat="45.16144" lon="5.79146">
        <ele>630.8</ele>
        <time>2021-04-10T12:53:29Z</time>
      </trkpt>
      <trkpt lat="45.16145" lon="5.79147">
        <ele>630.2</ele>
        <time>2021-04-10T12:53:30Z</time>
      </trkpt>
      <trkpt lat="45.16147" lon="5.79148">
        <ele>628.8</ele>
        <time>2021-04-10T12:53:31Z</time>
      </trkpt>
      <trkpt lat="45.16148" lon="5.79149">
        <ele>628.4</ele>
        <time>2021-04-10T12:53:32Z</time>
      </trkpt>
      <trkpt lat="45.16149" lon="5.7915">
        <ele>627.8</ele>
        <time>2021-04-10T12:53:33Z</time>
      </trkpt>
      <trkpt lat="45.16151" lon="5.79151">
        <ele>627.4</ele>
        <time>2021-04-10T12:53:34Z</time>
      </trkpt>
      <trkpt lat="45.16152" lon="5.79152">
        <ele>626.2</ele>
        <time>2021-04-10T12:53:35Z</time>
      </trkpt>
      <trkpt lat="45.16154" lon="5.79153">
        <ele>625.4</ele>
        <time>2021-04-10T12:53:36Z</time>
      </trkpt>
      <trkpt lat="45.16156" lon="5.79154">
        <ele>625</ele>
        <time>2021-04-10T12:53:37Z</time>
      </trkpt>
      <trkpt lat="45.16158" lon="5.79154">
        <ele>624.6</ele>
        <time>2021-04-10T12:53:38Z</time>
      </trkpt>
      <trkpt lat="45.1616" lon="5.79155">
        <ele>624.2</ele>
        <time>2021-04-10T12:53:39Z</time>
      </trkpt>
      <trkpt lat="45.16163" lon="5.79155">
        <ele>623.6</ele>
        <time>2021-04-10T12:53:40Z</time>
      </trkpt>
      <trkpt lat="45.16165" lon="5.79156">
        <ele>622.4</ele>
        <time>2021-04-10T12:53:41Z</time>
      </trkpt>
      <trkpt lat="45.16168" lon="5.79156">
        <ele>621.8</ele>
        <time>2021-04-10T12:53:42Z</time>
      </trkpt>
      <trkpt lat="45.16171" lon="5.79156">
        <ele>621.4</ele>
        <time>2021-04-10T12:53:43Z</time>
      </trkpt>
      <trkpt lat="45.16173" lon="5.79156">
        <ele>621</ele>
        <time>2021-04-10T12:53:44Z</time>
      </trkpt>
      <trkpt lat="45.16176" lon="5.79157">
        <ele>620.6</ele>
        <time>2021-04-10T12:53:45Z</time>
      </trkpt>
      <trkpt lat="45.16179" lon="5.79157">
        <ele>620.6</ele>
        <time>2021-04-10T12:53:46Z</time>
      </trkpt>
      <trkpt lat="45.16179" lon="5.79157">
        <ele>620</ele>
        <time>2021-04-10T12:53:47Z</time>
      </trkpt>
      <trkpt lat="45.16179" lon="5.79157">
        <ele>619.8</ele>
        <time>2021-04-10T12:53:48Z</time>
      </trkpt>
      <trkpt lat="45.16181" lon="5.79158">
        <ele>619.2</ele>
        <time>2021-04-10T12:53:49Z</time>
      </trkpt>
      <trkpt lat="45.16183" lon="5.79159">
        <ele>618.8</ele>
        <time>2021-04-10T12:53:50Z</time>
      </trkpt>
      <trkpt lat="45.16185" lon="5.79161">
        <ele>618.4</ele>
        <time>2021-04-10T12:53:51Z</time>
      </trkpt>
      <trkpt lat="45.16188" lon="5.79162">
        <ele>618</ele>
        <time>2021-04-10T12:53:52Z</time>
      </trkpt>
      <trkpt lat="45.1619" lon="5.79163">
        <ele>617.6</ele>
        <time>2021-04-10T12:53:53Z</time>
      </trkpt>
      <trkpt lat="45.16192" lon="5.79165">
        <ele>617</ele>
        <time>2021-04-10T12:53:54Z</time>
      </trkpt>
      <trkpt lat="45.16194" lon="5.79166">
        <ele>616.6</ele>
        <time>2021-04-10T12:53:55Z</time>
      </trkpt>
      <trkpt lat="45.16196" lon="5.79167">
        <ele>616</ele>
        <time>2021-04-10T12:53:56Z</time>
      </trkpt>
      <trkpt lat="45.16196" lon="5.79167">
        <ele>615.4</ele>
        <time>2021-04-10T12:53:57Z</time>
      </trkpt>
      <trkpt lat="45.16196" lon="5.79167">
        <ele>614.6</ele>
        <time>2021-04-10T12:53:58Z</time>
      </trkpt>
      <trkpt lat="45.16196" lon="5.79167">
        <ele>613.8</ele>
        <time>2021-04-10T12:53:59Z</time>
      </trkpt>
      <trkpt lat="45.16198" lon="5.79167">
        <ele>613.6</ele>
        <time>2021-04-10T12:54:00Z</time>
      </trkpt>
      <trkpt lat="45.16199" lon="5.79167">
        <ele>613.4</ele>
        <time>2021-04-10T12:54:01Z</time>
      </trkpt>
      <trkpt lat="45.16201" lon="5.79167">
        <ele>613</ele>
        <time>2021-04-10T12:54:02Z</time>
      </trkpt>
      <trkpt lat="45.16202" lon="5.79167">
        <ele>612.4</ele>
        <time>2021-04-10T12:54:03Z</time>
      </trkpt>
      <trkpt lat="45.16204" lon="5.79166">
        <ele>612.2</ele>
        <time>2021-04-10T12:54:04Z</time>
      </trkpt>
      <trkpt lat="45.16205" lon="5.79166">
        <ele>611.8</ele>
        <time>2021-04-10T12:54:05Z</time>
      </trkpt>
      <trkpt lat="45.16207" lon="5.79166">
        <ele>610.4</ele>
        <time>2021-04-10T12:54:06Z</time>
      </trkpt>
      <trkpt lat="45.16209" lon="5.79166">
        <ele>610</ele>
        <time>2021-04-10T12:54:07Z</time>
      </trkpt>
      <trkpt lat="45.1621" lon="5.79166">
        <ele>609.6</ele>
        <time>2021-04-10T12:54:08Z</time>
      </trkpt>
      <trkpt lat="45.16212" lon="5.79165">
        <ele>609.2</ele>
        <time>2021-04-10T12:54:09Z</time>
      </trkpt>
      <trkpt lat="45.16213" lon="5.79165">
        <ele>608.8</ele>
        <time>2021-04-10T12:54:10Z</time>
      </trkpt>
      <trkpt lat="45.16215" lon="5.79165">
        <ele>608</ele>
        <time>2021-04-10T12:54:11Z</time>
      </trkpt>
      <trkpt lat="45.16216" lon="5.79165">
        <ele>607.2</ele>
        <time>2021-04-10T12:54:12Z</time>
      </trkpt>
      <trkpt lat="45.16216" lon="5.79165">
        <ele>606.4</ele>
        <time>2021-04-10T12:54:13Z</time>
      </trkpt>
      <trkpt lat="45.16216" lon="5.79165">
        <ele>605.8</ele>
        <time>2021-04-10T12:54:14Z</time>
      </trkpt>
      <trkpt lat="45.16216" lon="5.79165">
        <ele>605.4</ele>
        <time>2021-04-10T12:54:15Z</time>
      </trkpt>
      <trkpt lat="45.16217" lon="5.79165">
        <ele>604.8</ele>
        <time>2021-04-10T12:54:16Z</time>
      </trkpt>
      <trkpt lat="45.16218" lon="5.79165">
        <ele>604.2</ele>
        <time>2021-04-10T12:54:17Z</time>
      </trkpt>
      <trkpt lat="45.16219" lon="5.79166">
        <ele>603.6</ele>
        <time>2021-04-10T12:54:18Z</time>
      </trkpt>
      <trkpt lat="45.16221" lon="5.79166">
        <ele>603.4</ele>
        <time>2021-04-10T12:54:19Z</time>
      </trkpt>
      <trkpt lat="45.16222" lon="5.79166">
        <ele>602.6</ele>
        <time>2021-04-10T12:54:20Z</time>
      </trkpt>
      <trkpt lat="45.16223" lon="5.79167">
        <ele>602</ele>
        <time>2021-04-10T12:54:21Z</time>
      </trkpt>
      <trkpt lat="45.16224" lon="5.79167">
        <ele>601.6</ele>
        <time>2021-04-10T12:54:22Z</time>
      </trkpt>
      <trkpt lat="45.16225" lon="5.79167">
        <ele>601</ele>
        <time>2021-04-10T12:54:23Z</time>
      </trkpt>
      <trkpt lat="45.16226" lon="5.79167">
        <ele>600.6</ele>
        <time>2021-04-10T12:54:24Z</time>
      </trkpt>
      <trkpt lat="45.16226" lon="5.79167">
        <ele>600.2</ele>
        <time>2021-04-10T12:54:25Z</time>
      </trkpt>
      <trkpt lat="45.16227" lon="5.79166">
        <ele>599.4</ele>
        <time>2021-04-10T12:54:26Z</time>
      </trkpt>
      <trkpt lat="45.16228" lon="5.79165">
        <ele>599</ele>
        <time>2021-04-10T12:54:27Z</time>
      </trkpt>
      <trkpt lat="45.16228" lon="5.79165">
        <ele>598.6</ele>
        <time>2021-04-10T12:54:28Z</time>
      </trkpt>
      <trkpt lat="45.16229" lon="5.79164">
        <ele>598.4</ele>
        <time>2021-04-10T12:54:29Z</time>
      </trkpt>
      <trkpt lat="45.1623" lon="5.79163">
        <ele>598.2</ele>
        <time>2021-04-10T12:54:30Z</time>
      </trkpt>
      <trkpt lat="45.1623" lon="5.79163">
        <ele>597.8</ele>
        <time>2021-04-10T12:54:31Z</time>
      </trkpt>
      <trkpt lat="45.16231" lon="5.79162">
        <ele>597.4</ele>
        <time>2021-04-10T12:54:32Z</time>
      </trkpt>
      <trkpt lat="45.16232" lon="5.79161">
        <ele>597</ele>
        <time>2021-04-10T12:54:33Z</time>
      </trkpt>
      <trkpt lat="45.16232" lon="5.79161">
        <ele>596.6</ele>
        <time>2021-04-10T12:54:34Z</time>
      </trkpt>
      <trkpt lat="45.16233" lon="5.7916">
        <ele>596.4</ele>
        <time>2021-04-10T12:54:35Z</time>
      </trkpt>
      <trkpt lat="45.16233" lon="5.79159">
        <ele>596.8</ele>
        <time>2021-04-10T12:54:36Z</time>
      </trkpt>
      <trkpt lat="45.16234" lon="5.7916">
        <ele>597.2</ele>
        <time>2021-04-10T12:54:37Z</time>
      </trkpt>
      <trkpt lat="45.16235" lon="5.7916">
        <ele>597.2</ele>
        <time>2021-04-10T12:54:38Z</time>
      </trkpt>
      <trkpt lat="45.16236" lon="5.79161">
        <ele>597.2</ele>
        <time>2021-04-10T12:54:39Z</time>
      </trkpt>
      <trkpt lat="45.16236" lon="5.79162">
        <ele>596.8</ele>
        <time>2021-04-10T12:54:40Z</time>
      </trkpt>
      <trkpt lat="45.16237" lon="5.79162">
        <ele>596.2</ele>
        <time>2021-04-10T12:54:41Z</time>
      </trkpt>
      <trkpt lat="45.16238" lon="5.79163">
        <ele>595.8</ele>
        <time>2021-04-10T12:54:42Z</time>
      </trkpt>
      <trkpt lat="45.16238" lon="5.79163">
        <ele>595.6</ele>
        <time>2021-04-10T12:54:43Z</time>
      </trkpt>
      <trkpt lat="45.16239" lon="5.79164">
        <ele>595.6</ele>
        <time>2021-04-10T12:54:44Z</time>
      </trkpt>
      <trkpt lat="45.1624" lon="5.79165">
        <ele>595.6</ele>
        <time>2021-04-10T12:54:45Z</time>
      </trkpt>
      <trkpt lat="45.16241" lon="5.79165">
        <ele>595.4</ele>
        <time>2021-04-10T12:54:46Z</time>
      </trkpt>
      <trkpt lat="45.16241" lon="5.79166">
        <ele>595.2</ele>
        <time>2021-04-10T12:54:47Z</time>
      </trkpt>
      <trkpt lat="45.16242" lon="5.79166">
        <ele>594.8</ele>
        <time>2021-04-10T12:54:48Z</time>
      </trkpt>
      <trkpt lat="45.16243" lon="5.79165">
        <ele>594.6</ele>
        <time>2021-04-10T12:54:49Z</time>
      </trkpt>
      <trkpt lat="45.16244" lon="5.79165">
        <ele>594.4</ele>
        <time>2021-04-10T12:54:50Z</time>
      </trkpt>
      <trkpt lat="45.16245" lon="5.79165">
        <ele>594.4</ele>
        <time>2021-04-10T12:54:51Z</time>
      </trkpt>
      <trkpt lat="45.16245" lon="5.79164">
        <ele>594.6</ele>
        <time>2021-04-10T12:54:52Z</time>
      </trkpt>
      <trkpt lat="45.16246" lon="5.79164">
        <ele>594.6</ele>
        <time>2021-04-10T12:54:53Z</time>
      </trkpt>
      <trkpt lat="45.16247" lon="5.79163">
        <ele>594.8</ele>
        <time>2021-04-10T12:54:54Z</time>
      </trkpt>
      <trkpt lat="45.16248" lon="5.79163">
        <ele>594.8</ele>
        <time>2021-04-10T12:54:55Z</time>
      </trkpt>
      <trkpt lat="45.16249" lon="5.79163">
        <ele>595.2</ele>
        <time>2021-04-10T12:54:56Z</time>
      </trkpt>
      <trkpt lat="45.16249" lon="5.79162">
        <ele>595.4</ele>
        <time>2021-04-10T12:54:57Z</time>
      </trkpt>
      <trkpt lat="45.1625" lon="5.79162">
        <ele>595.8</ele>
        <time>2021-04-10T12:54:58Z</time>
      </trkpt>
      <trkpt lat="45.16251" lon="5.79162">
        <ele>595.8</ele>
        <time>2021-04-10T12:54:59Z</time>
      </trkpt>
      <trkpt lat="45.16253" lon="5.79162">
        <ele>596</ele>
        <time>2021-04-10T12:55:00Z</time>
      </trkpt>
      <trkpt lat="45.16254" lon="5.79162">
        <ele>596.2</ele>
        <time>2021-04-10T12:55:01Z</time>
      </trkpt>
      <trkpt lat="45.16255" lon="5.79162">
        <ele>596.2</ele>
        <time>2021-04-10T12:55:02Z</time>
      </trkpt>
      <trkpt lat="45.16256" lon="5.79161">
        <ele>596.4</ele>
        <time>2021-04-10T12:55:03Z</time>
      </trkpt>
      <trkpt lat="45.16257" lon="5.79161">
        <ele>596.6</ele>
        <time>2021-04-10T12:55:04Z</time>
      </trkpt>
      <trkpt lat="45.16258" lon="5.79161">
        <ele>596.8</ele>
        <time>2021-04-10T12:55:05Z</time>
      </trkpt>
      <trkpt lat="45.1626" lon="5.79161">
        <ele>597</ele>
        <time>2021-04-10T12:55:06Z</time>
      </trkpt>
      <trkpt lat="45.16261" lon="5.79161">
        <ele>597.2</ele>
        <time>2021-04-10T12:55:07Z</time>
      </trkpt>
      <trkpt lat="45.16262" lon="5.79159">
        <ele>597.4</ele>
        <time>2021-04-10T12:55:08Z</time>
      </trkpt>
      <trkpt lat="45.16263" lon="5.79158">
        <ele>597.4</ele>
        <time>2021-04-10T12:55:09Z</time>
      </trkpt>
      <trkpt lat="45.16264" lon="5.79156">
        <ele>597.8</ele>
        <time>2021-04-10T12:55:10Z</time>
      </trkpt>
      <trkpt lat="45.16265" lon="5.79155">
        <ele>598</ele>
        <time>2021-04-10T12:55:11Z</time>
      </trkpt>
      <trkpt lat="45.16266" lon="5.79153">
        <ele>598.2</ele>
        <time>2021-04-10T12:55:12Z</time>
      </trkpt>
      <trkpt lat="45.16267" lon="5.79152">
        <ele>598.4</ele>
        <time>2021-04-10T12:55:13Z</time>
      </trkpt>
      <trkpt lat="45.16268" lon="5.79151">
        <ele>598.8</ele>
        <time>2021-04-10T12:55:14Z</time>
      </trkpt>
      <trkpt lat="45.16268" lon="5.7915">
        <ele>599.2</ele>
        <time>2021-04-10T12:55:15Z</time>
      </trkpt>
      <trkpt lat="45.16268" lon="5.79148">
        <ele>599.4</ele>
        <time>2021-04-10T12:55:16Z</time>
      </trkpt>
      <trkpt lat="45.16268" lon="5.79147">
        <ele>599.6</ele>
        <time>2021-04-10T12:55:17Z</time>
      </trkpt>
      <trkpt lat="45.16268" lon="5.79146">
        <ele>599.8</ele>
        <time>2021-04-10T12:55:18Z</time>
      </trkpt>
      <trkpt lat="45.16268" lon="5.79145">
        <ele>600.2</ele>
        <time>2021-04-10T12:55:19Z</time>
      </trkpt>
      <trkpt lat="45.16268" lon="5.79144">
        <ele>600.6</ele>
        <time>2021-04-10T12:55:20Z</time>
      </trkpt>
      <trkpt lat="45.16268" lon="5.79143">
        <ele>601</ele>
        <time>2021-04-10T12:55:21Z</time>
      </trkpt>
      <trkpt lat="45.16268" lon="5.79142">
        <ele>601.2</ele>
        <time>2021-04-10T12:55:22Z</time>
      </trkpt>
      <trkpt lat="45.16268" lon="5.79141">
        <ele>601.4</ele>
        <time>2021-04-10T12:55:23Z</time>
      </trkpt>
      <trkpt lat="45.16268" lon="5.79139">
        <ele>601.6</ele>
        <time>2021-04-10T12:55:24Z</time>
      </trkpt>
      <trkpt lat="45.16268" lon="5.79138">
        <ele>601.6</ele>
        <time>2021-04-10T12:55:25Z</time>
      </trkpt>
      <trkpt lat="45.16267" lon="5.79138">
        <ele>601.6</ele>
        <time>2021-04-10T12:55:26Z</time>
      </trkpt>
      <trkpt lat="45.16266" lon="5.79137">
        <ele>601.6</ele>
        <time>2021-04-10T12:55:27Z</time>
      </trkpt>
      <trkpt lat="45.16265" lon="5.79137">
        <ele>601.8</ele>
        <time>2021-04-10T12:55:28Z</time>
      </trkpt>
      <trkpt lat="45.16264" lon="5.79136">
        <ele>602</ele>
        <time>2021-04-10T12:55:29Z</time>
      </trkpt>
      <trkpt lat="45.16263" lon="5.79135">
        <ele>602</ele>
        <time>2021-04-10T12:55:30Z</time>
      </trkpt>
      <trkpt lat="45.16262" lon="5.79135">
        <ele>602.2</ele>
        <time>2021-04-10T12:55:31Z</time>
      </trkpt>
      <trkpt lat="45.16261" lon="5.79134">
        <ele>602.4</ele>
        <time>2021-04-10T12:55:32Z</time>
      </trkpt>
      <trkpt lat="45.1626" lon="5.79134">
        <ele>602.4</ele>
        <time>2021-04-10T12:55:33Z</time>
      </trkpt>
      <trkpt lat="45.16259" lon="5.79133">
        <ele>603</ele>
        <time>2021-04-10T12:55:34Z</time>
      </trkpt>
      <trkpt lat="45.16258" lon="5.79133">
        <ele>603</ele>
        <time>2021-04-10T12:55:35Z</time>
      </trkpt>
      <trkpt lat="45.16258" lon="5.7913">
        <ele>603.4</ele>
        <time>2021-04-10T12:55:36Z</time>
      </trkpt>
      <trkpt lat="45.16257" lon="5.79128">
        <ele>603.2</ele>
        <time>2021-04-10T12:55:37Z</time>
      </trkpt>
      <trkpt lat="45.16257" lon="5.79126">
        <ele>603.6</ele>
        <time>2021-04-10T12:55:38Z</time>
      </trkpt>
      <trkpt lat="45.16256" lon="5.79124">
        <ele>603.4</ele>
        <time>2021-04-10T12:55:39Z</time>
      </trkpt>
      <trkpt lat="45.16256" lon="5.79121">
        <ele>603.8</ele>
        <time>2021-04-10T12:55:40Z</time>
      </trkpt>
      <trkpt lat="45.16256" lon="5.79112">
        <ele>603.6</ele>
        <time>2021-04-10T12:55:41Z</time>
      </trkpt>
      <trkpt lat="45.16256" lon="5.79105">
        <ele>603.8</ele>
        <time>2021-04-10T12:55:42Z</time>
      </trkpt>
      <trkpt lat="45.16257" lon="5.79103">
        <ele>603.4</ele>
        <time>2021-04-10T12:55:43Z</time>
      </trkpt>
      <trkpt lat="45.16257" lon="5.79101">
        <ele>603.6</ele>
        <time>2021-04-10T12:55:44Z</time>
      </trkpt>
      <trkpt lat="45.16258" lon="5.79099">
        <ele>603.6</ele>
        <time>2021-04-10T12:55:45Z</time>
      </trkpt>
      <trkpt lat="45.16258" lon="5.79097">
        <ele>603.6</ele>
        <time>2021-04-10T12:55:46Z</time>
      </trkpt>
      <trkpt lat="45.1626" lon="5.79088">
        <ele>603.4</ele>
        <time>2021-04-10T12:55:47Z</time>
      </trkpt>
      <trkpt lat="45.16262" lon="5.79084">
        <ele>603.4</ele>
        <time>2021-04-10T12:55:48Z</time>
      </trkpt>
      <trkpt lat="45.16263" lon="5.79082">
        <ele>603</ele>
        <time>2021-04-10T12:55:49Z</time>
      </trkpt>
      <trkpt lat="45.16264" lon="5.79079">
        <ele>603.4</ele>
        <time>2021-04-10T12:55:50Z</time>
      </trkpt>
      <trkpt lat="45.16264" lon="5.79076">
        <ele>603</ele>
        <time>2021-04-10T12:55:51Z</time>
      </trkpt>
      <trkpt lat="45.16263" lon="5.79073">
        <ele>603.4</ele>
        <time>2021-04-10T12:55:52Z</time>
      </trkpt>
      <trkpt lat="45.16262" lon="5.79069">
        <ele>603.2</ele>
        <time>2021-04-10T12:55:53Z</time>
      </trkpt>
      <trkpt lat="45.16262" lon="5.79066">
        <ele>603</ele>
        <time>2021-04-10T12:55:54Z</time>
      </trkpt>
      <trkpt lat="45.16262" lon="5.79066">
        <ele>603.2</ele>
        <time>2021-04-10T12:55:55Z</time>
      </trkpt>
      <trkpt lat="45.16262" lon="5.79066">
        <ele>603.2</ele>
        <time>2021-04-10T12:55:56Z</time>
      </trkpt>
      <trkpt lat="45.16262" lon="5.79066">
        <ele>603.2</ele>
        <time>2021-04-10T12:55:57Z</time>
      </trkpt>
      <trkpt lat="45.16261" lon="5.79062">
        <ele>603.2</ele>
        <time>2021-04-10T12:55:58Z</time>
      </trkpt>
      <trkpt lat="45.1626" lon="5.79057">
        <ele>603.4</ele>
        <time>2021-04-10T12:55:59Z</time>
      </trkpt>
      <trkpt lat="45.16259" lon="5.79053">
        <ele>603.2</ele>
        <time>2021-04-10T12:56:00Z</time>
      </trkpt>
      <trkpt lat="45.16259" lon="5.79049">
        <ele>603.2</ele>
        <time>2021-04-10T12:56:01Z</time>
      </trkpt>
      <trkpt lat="45.16258" lon="5.79044">
        <ele>602.8</ele>
        <time>2021-04-10T12:56:02Z</time>
      </trkpt>
      <trkpt lat="45.16257" lon="5.79038">
        <ele>602.6</ele>
        <time>2021-04-10T12:56:03Z</time>
      </trkpt>
      <trkpt lat="45.16257" lon="5.79038">
        <ele>602.2</ele>
        <time>2021-04-10T12:56:04Z</time>
      </trkpt>
      <trkpt lat="45.16257" lon="5.79038">
        <ele>601.6</ele>
        <time>2021-04-10T12:56:05Z</time>
      </trkpt>
      <trkpt lat="45.16257" lon="5.79038">
        <ele>601</ele>
        <time>2021-04-10T12:56:06Z</time>
      </trkpt>
      <trkpt lat="45.16257" lon="5.79035">
        <ele>600.6</ele>
        <time>2021-04-10T12:56:07Z</time>
      </trkpt>
      <trkpt lat="45.16258" lon="5.79033">
        <ele>600.2</ele>
        <time>2021-04-10T12:56:08Z</time>
      </trkpt>
      <trkpt lat="45.16258" lon="5.79031">
        <ele>599.6</ele>
        <time>2021-04-10T12:56:09Z</time>
      </trkpt>
      <trkpt lat="45.16258" lon="5.79029">
        <ele>599.2</ele>
        <time>2021-04-10T12:56:10Z</time>
      </trkpt>
      <trkpt lat="45.16258" lon="5.79026">
        <ele>599.2</ele>
        <time>2021-04-10T12:56:11Z</time>
      </trkpt>
      <trkpt lat="45.16259" lon="5.79024">
        <ele>599.2</ele>
        <time>2021-04-10T12:56:12Z</time>
      </trkpt>
      <trkpt lat="45.16259" lon="5.79021">
        <ele>599</ele>
        <time>2021-04-10T12:56:13Z</time>
      </trkpt>
      <trkpt lat="45.1626" lon="5.79018">
        <ele>598.4</ele>
        <time>2021-04-10T12:56:14Z</time>
      </trkpt>
      <trkpt lat="45.16261" lon="5.79015">
        <ele>597.8</ele>
        <time>2021-04-10T12:56:15Z</time>
      </trkpt>
      <trkpt lat="45.16261" lon="5.79012">
        <ele>597.4</ele>
        <time>2021-04-10T12:56:16Z</time>
      </trkpt>
      <trkpt lat="45.16262" lon="5.79009">
        <ele>597.2</ele>
        <time>2021-04-10T12:56:17Z</time>
      </trkpt>
      <trkpt lat="45.16263" lon="5.79006">
        <ele>596.2</ele>
        <time>2021-04-10T12:56:18Z</time>
      </trkpt>
      <trkpt lat="45.16263" lon="5.79003">
        <ele>595.8</ele>
        <time>2021-04-10T12:56:19Z</time>
      </trkpt>
      <trkpt lat="45.16264" lon="5.79">
        <ele>595.6</ele>
        <time>2021-04-10T12:56:20Z</time>
      </trkpt>
      <trkpt lat="45.16266" lon="5.78994">
        <ele>594.4</ele>
        <time>2021-04-10T12:56:21Z</time>
      </trkpt>
      <trkpt lat="45.16266" lon="5.78994">
        <ele>593.8</ele>
        <time>2021-04-10T12:56:22Z</time>
      </trkpt>
      <trkpt lat="45.16266" lon="5.78994">
        <ele>593.4</ele>
        <time>2021-04-10T12:56:23Z</time>
      </trkpt>
      <trkpt lat="45.16267" lon="5.78992">
        <ele>593.4</ele>
        <time>2021-04-10T12:56:24Z</time>
      </trkpt>
      <trkpt lat="45.16267" lon="5.7899">
        <ele>593.4</ele>
        <time>2021-04-10T12:56:25Z</time>
      </trkpt>
      <trkpt lat="45.16268" lon="5.78988">
        <ele>593.4</ele>
        <time>2021-04-10T12:56:26Z</time>
      </trkpt>
      <trkpt lat="45.16269" lon="5.78986">
        <ele>593.4</ele>
        <time>2021-04-10T12:56:27Z</time>
      </trkpt>
      <trkpt lat="45.16269" lon="5.78984">
        <ele>593.6</ele>
        <time>2021-04-10T12:56:28Z</time>
      </trkpt>
      <trkpt lat="45.1627" lon="5.78982">
        <ele>593.6</ele>
        <time>2021-04-10T12:56:29Z</time>
      </trkpt>
      <trkpt lat="45.16271" lon="5.78981">
        <ele>593.6</ele>
        <time>2021-04-10T12:56:30Z</time>
      </trkpt>
      <trkpt lat="45.16271" lon="5.7898">
        <ele>594</ele>
        <time>2021-04-10T12:56:31Z</time>
      </trkpt>
      <trkpt lat="45.16272" lon="5.78979">
        <ele>594.2</ele>
        <time>2021-04-10T12:56:32Z</time>
      </trkpt>
      <trkpt lat="45.16273" lon="5.78978">
        <ele>594.4</ele>
        <time>2021-04-10T12:56:33Z</time>
      </trkpt>
      <trkpt lat="45.16274" lon="5.78977">
        <ele>594.4</ele>
        <time>2021-04-10T12:56:34Z</time>
      </trkpt>
      <trkpt lat="45.16274" lon="5.78976">
        <ele>594.8</ele>
        <time>2021-04-10T12:56:35Z</time>
      </trkpt>
      <trkpt lat="45.16275" lon="5.78975">
        <ele>594.4</ele>
        <time>2021-04-10T12:56:36Z</time>
      </trkpt>
      <trkpt lat="45.16276" lon="5.78974">
        <ele>594.6</ele>
        <time>2021-04-10T12:56:37Z</time>
      </trkpt>
      <trkpt lat="45.16276" lon="5.78973">
        <ele>594.6</ele>
        <time>2021-04-10T12:56:38Z</time>
      </trkpt>
      <trkpt lat="45.16277" lon="5.78972">
        <ele>594.8</ele>
        <time>2021-04-10T12:56:39Z</time>
      </trkpt>
      <trkpt lat="45.16278" lon="5.7897">
        <ele>595</ele>
        <time>2021-04-10T12:56:40Z</time>
      </trkpt>
      <trkpt lat="45.16278" lon="5.78968">
        <ele>595</ele>
        <time>2021-04-10T12:56:41Z</time>
      </trkpt>
      <trkpt lat="45.16279" lon="5.78967">
        <ele>595.4</ele>
        <time>2021-04-10T12:56:42Z</time>
      </trkpt>
      <trkpt lat="45.1628" lon="5.78965">
        <ele>595</ele>
        <time>2021-04-10T12:56:43Z</time>
      </trkpt>
      <trkpt lat="45.1628" lon="5.78964">
        <ele>595.4</ele>
        <time>2021-04-10T12:56:44Z</time>
      </trkpt>
      <trkpt lat="45.16281" lon="5.78962">
        <ele>595.2</ele>
        <time>2021-04-10T12:56:45Z</time>
      </trkpt>
      <trkpt lat="45.16282" lon="5.7896">
        <ele>595.6</ele>
        <time>2021-04-10T12:56:46Z</time>
      </trkpt>
      <trkpt lat="45.16282" lon="5.78958">
        <ele>595.4</ele>
        <time>2021-04-10T12:56:47Z</time>
      </trkpt>
      <trkpt lat="45.16283" lon="5.78956">
        <ele>595.6</ele>
        <time>2021-04-10T12:56:48Z</time>
      </trkpt>
      <trkpt lat="45.16284" lon="5.78954">
        <ele>595.4</ele>
        <time>2021-04-10T12:56:49Z</time>
      </trkpt>
      <trkpt lat="45.16285" lon="5.78952">
        <ele>595.4</ele>
        <time>2021-04-10T12:56:50Z</time>
      </trkpt>
      <trkpt lat="45.16286" lon="5.78949">
        <ele>595.2</ele>
        <time>2021-04-10T12:56:51Z</time>
      </trkpt>
      <trkpt lat="45.16287" lon="5.78947">
        <ele>595.4</ele>
        <time>2021-04-10T12:56:52Z</time>
      </trkpt>
      <trkpt lat="45.16287" lon="5.78945">
        <ele>595</ele>
        <time>2021-04-10T12:56:53Z</time>
      </trkpt>
      <trkpt lat="45.16288" lon="5.78943">
        <ele>595</ele>
        <time>2021-04-10T12:56:54Z</time>
      </trkpt>
      <trkpt lat="45.16291" lon="5.78937">
        <ele>594.4</ele>
        <time>2021-04-10T12:56:55Z</time>
      </trkpt>
      <trkpt lat="45.16293" lon="5.78933">
        <ele>594</ele>
        <time>2021-04-10T12:56:56Z</time>
      </trkpt>
      <trkpt lat="45.16295" lon="5.78928">
        <ele>594</ele>
        <time>2021-04-10T12:56:57Z</time>
      </trkpt>
      <trkpt lat="45.16296" lon="5.78926">
        <ele>593.4</ele>
        <time>2021-04-10T12:56:58Z</time>
      </trkpt>
      <trkpt lat="45.16298" lon="5.78923">
        <ele>593.2</ele>
        <time>2021-04-10T12:56:59Z</time>
      </trkpt>
      <trkpt lat="45.16299" lon="5.78921">
        <ele>592.2</ele>
        <time>2021-04-10T12:57:00Z</time>
      </trkpt>
      <trkpt lat="45.16301" lon="5.78917">
        <ele>591.4</ele>
        <time>2021-04-10T12:57:01Z</time>
      </trkpt>
      <trkpt lat="45.16303" lon="5.78914">
        <ele>590.8</ele>
        <time>2021-04-10T12:57:02Z</time>
      </trkpt>
      <trkpt lat="45.16305" lon="5.78911">
        <ele>590.4</ele>
        <time>2021-04-10T12:57:03Z</time>
      </trkpt>
      <trkpt lat="45.16307" lon="5.78908">
        <ele>590</ele>
        <time>2021-04-10T12:57:04Z</time>
      </trkpt>
      <trkpt lat="45.16309" lon="5.78904">
        <ele>589.4</ele>
        <time>2021-04-10T12:57:05Z</time>
      </trkpt>
      <trkpt lat="45.16311" lon="5.789">
        <ele>589</ele>
        <time>2021-04-10T12:57:06Z</time>
      </trkpt>
      <trkpt lat="45.16312" lon="5.78898">
        <ele>588.4</ele>
        <time>2021-04-10T12:57:07Z</time>
      </trkpt>
      <trkpt lat="45.16313" lon="5.78896">
        <ele>588.2</ele>
        <time>2021-04-10T12:57:08Z</time>
      </trkpt>
      <trkpt lat="45.16314" lon="5.78894">
        <ele>587.4</ele>
        <time>2021-04-10T12:57:09Z</time>
      </trkpt>
      <trkpt lat="45.16317" lon="5.78888">
        <ele>586.8</ele>
        <time>2021-04-10T12:57:10Z</time>
      </trkpt>
      <trkpt lat="45.16318" lon="5.78887">
        <ele>586</ele>
        <time>2021-04-10T12:57:11Z</time>
      </trkpt>
      <trkpt lat="45.1632" lon="5.78887">
        <ele>585.4</ele>
        <time>2021-04-10T12:57:12Z</time>
      </trkpt>
      <trkpt lat="45.16322" lon="5.78886">
        <ele>584.8</ele>
        <time>2021-04-10T12:57:13Z</time>
      </trkpt>
      <trkpt lat="45.16323" lon="5.78885">
        <ele>584.2</ele>
        <time>2021-04-10T12:57:14Z</time>
      </trkpt>
      <trkpt lat="45.16329" lon="5.78882">
        <ele>583.4</ele>
        <time>2021-04-10T12:57:15Z</time>
      </trkpt>
      <trkpt lat="45.16333" lon="5.7888">
        <ele>583</ele>
        <time>2021-04-10T12:57:16Z</time>
      </trkpt>
      <trkpt lat="45.16336" lon="5.78879">
        <ele>582.2</ele>
        <time>2021-04-10T12:57:17Z</time>
      </trkpt>
      <trkpt lat="45.16338" lon="5.78877">
        <ele>581.6</ele>
        <time>2021-04-10T12:57:18Z</time>
      </trkpt>
      <trkpt lat="45.16341" lon="5.78876">
        <ele>580.8</ele>
        <time>2021-04-10T12:57:19Z</time>
      </trkpt>
      <trkpt lat="45.16343" lon="5.78875">
        <ele>580.4</ele>
        <time>2021-04-10T12:57:20Z</time>
      </trkpt>
      <trkpt lat="45.16344" lon="5.78874">
        <ele>579.4</ele>
        <time>2021-04-10T12:57:21Z</time>
      </trkpt>
      <trkpt lat="45.16346" lon="5.78872">
        <ele>578.8</ele>
        <time>2021-04-10T12:57:22Z</time>
      </trkpt>
      <trkpt lat="45.16346" lon="5.78872">
        <ele>578</ele>
        <time>2021-04-10T12:57:23Z</time>
      </trkpt>
      <trkpt lat="45.16346" lon="5.78872">
        <ele>576.8</ele>
        <time>2021-04-10T12:57:24Z</time>
      </trkpt>
      <trkpt lat="45.16346" lon="5.78872">
        <ele>576</ele>
        <time>2021-04-10T12:57:25Z</time>
      </trkpt>
      <trkpt lat="45.16347" lon="5.7887">
        <ele>575</ele>
        <time>2021-04-10T12:57:26Z</time>
      </trkpt>
      <trkpt lat="45.16348" lon="5.78868">
        <ele>574.6</ele>
        <time>2021-04-10T12:57:27Z</time>
      </trkpt>
      <trkpt lat="45.16349" lon="5.78866">
        <ele>574</ele>
        <time>2021-04-10T12:57:28Z</time>
      </trkpt>
      <trkpt lat="45.1635" lon="5.78864">
        <ele>573.8</ele>
        <time>2021-04-10T12:57:29Z</time>
      </trkpt>
      <trkpt lat="45.16351" lon="5.78861">
        <ele>573.2</ele>
        <time>2021-04-10T12:57:30Z</time>
      </trkpt>
      <trkpt lat="45.16351" lon="5.78859">
        <ele>572.8</ele>
        <time>2021-04-10T12:57:31Z</time>
      </trkpt>
      <trkpt lat="45.16351" lon="5.78857">
        <ele>572.2</ele>
        <time>2021-04-10T12:57:32Z</time>
      </trkpt>
      <trkpt lat="45.16351" lon="5.78854">
        <ele>572</ele>
        <time>2021-04-10T12:57:33Z</time>
      </trkpt>
      <trkpt lat="45.16351" lon="5.78852">
        <ele>571.4</ele>
        <time>2021-04-10T12:57:34Z</time>
      </trkpt>
      <trkpt lat="45.16351" lon="5.78849">
        <ele>570.8</ele>
        <time>2021-04-10T12:57:35Z</time>
      </trkpt>
      <trkpt lat="45.16351" lon="5.78847">
        <ele>570.2</ele>
        <time>2021-04-10T12:57:36Z</time>
      </trkpt>
      <trkpt lat="45.16351" lon="5.78845">
        <ele>569.6</ele>
        <time>2021-04-10T12:57:37Z</time>
      </trkpt>
      <trkpt lat="45.1635" lon="5.78843">
        <ele>569.4</ele>
        <time>2021-04-10T12:57:38Z</time>
      </trkpt>
      <trkpt lat="45.16349" lon="5.7884">
        <ele>569.8</ele>
        <time>2021-04-10T12:57:39Z</time>
      </trkpt>
      <trkpt lat="45.16349" lon="5.78838">
        <ele>569.6</ele>
        <time>2021-04-10T12:57:40Z</time>
      </trkpt>
      <trkpt lat="45.16348" lon="5.78836">
        <ele>569.2</ele>
        <time>2021-04-10T12:57:41Z</time>
      </trkpt>
      <trkpt lat="45.16347" lon="5.78834">
        <ele>569.4</ele>
        <time>2021-04-10T12:57:42Z</time>
      </trkpt>
      <trkpt lat="45.16346" lon="5.78828">
        <ele>568.6</ele>
        <time>2021-04-10T12:57:43Z</time>
      </trkpt>
      <trkpt lat="45.16346" lon="5.78823">
        <ele>568.8</ele>
        <time>2021-04-10T12:57:44Z</time>
      </trkpt>
      <trkpt lat="45.16345" lon="5.78817">
        <ele>568.4</ele>
        <time>2021-04-10T12:57:45Z</time>
      </trkpt>
      <trkpt lat="45.16344" lon="5.78812">
        <ele>568.6</ele>
        <time>2021-04-10T12:57:46Z</time>
      </trkpt>
      <trkpt lat="45.16343" lon="5.78806">
        <ele>568</ele>
        <time>2021-04-10T12:57:47Z</time>
      </trkpt>
      <trkpt lat="45.16345" lon="5.78805">
        <ele>568.2</ele>
        <time>2021-04-10T12:57:48Z</time>
      </trkpt>
      <trkpt lat="45.16347" lon="5.78804">
        <ele>567.8</ele>
        <time>2021-04-10T12:57:49Z</time>
      </trkpt>
      <trkpt lat="45.16351" lon="5.78801">
        <ele>567</ele>
        <time>2021-04-10T12:57:50Z</time>
      </trkpt>
      <trkpt lat="45.16354" lon="5.788">
        <ele>566.2</ele>
        <time>2021-04-10T12:57:51Z</time>
      </trkpt>
      <trkpt lat="45.16358" lon="5.78801">
        <ele>565.4</ele>
        <time>2021-04-10T12:57:52Z</time>
      </trkpt>
      <trkpt lat="45.1636" lon="5.78802">
        <ele>565</ele>
        <time>2021-04-10T12:57:53Z</time>
      </trkpt>
      <trkpt lat="45.16363" lon="5.78803">
        <ele>564.6</ele>
        <time>2021-04-10T12:57:54Z</time>
      </trkpt>
      <trkpt lat="45.16365" lon="5.78804">
        <ele>564.6</ele>
        <time>2021-04-10T12:57:55Z</time>
      </trkpt>
      <trkpt lat="45.16368" lon="5.78807">
        <ele>564.4</ele>
        <time>2021-04-10T12:57:56Z</time>
      </trkpt>
      <trkpt lat="45.16369" lon="5.78808">
        <ele>564</ele>
        <time>2021-04-10T12:57:57Z</time>
      </trkpt>
      <trkpt lat="45.16371" lon="5.78809">
        <ele>563.4</ele>
        <time>2021-04-10T12:57:58Z</time>
      </trkpt>
      <trkpt lat="45.16372" lon="5.7881">
        <ele>562.8</ele>
        <time>2021-04-10T12:57:59Z</time>
      </trkpt>
      <trkpt lat="45.16374" lon="5.78811">
        <ele>562.6</ele>
        <time>2021-04-10T12:58:00Z</time>
      </trkpt>
      <trkpt lat="45.16376" lon="5.78811">
        <ele>562.2</ele>
        <time>2021-04-10T12:58:01Z</time>
      </trkpt>
      <trkpt lat="45.16378" lon="5.78811">
        <ele>562.2</ele>
        <time>2021-04-10T12:58:02Z</time>
      </trkpt>
      <trkpt lat="45.16383" lon="5.78812">
        <ele>561.8</ele>
        <time>2021-04-10T12:58:03Z</time>
      </trkpt>
      <trkpt lat="45.16383" lon="5.78812">
        <ele>561.2</ele>
        <time>2021-04-10T12:58:04Z</time>
      </trkpt>
      <trkpt lat="45.16383" lon="5.78812">
        <ele>560.8</ele>
        <time>2021-04-10T12:58:05Z</time>
      </trkpt>
      <trkpt lat="45.16385" lon="5.78811">
        <ele>560.2</ele>
        <time>2021-04-10T12:58:06Z</time>
      </trkpt>
      <trkpt lat="45.16387" lon="5.78811">
        <ele>560.2</ele>
        <time>2021-04-10T12:58:07Z</time>
      </trkpt>
      <trkpt lat="45.16389" lon="5.7881">
        <ele>559.6</ele>
        <time>2021-04-10T12:58:08Z</time>
      </trkpt>
      <trkpt lat="45.16391" lon="5.7881">
        <ele>559.2</ele>
        <time>2021-04-10T12:58:09Z</time>
      </trkpt>
      <trkpt lat="45.16393" lon="5.78809">
        <ele>558.4</ele>
        <time>2021-04-10T12:58:10Z</time>
      </trkpt>
      <trkpt lat="45.16395" lon="5.78809">
        <ele>557.8</ele>
        <time>2021-04-10T12:58:11Z</time>
      </trkpt>
      <trkpt lat="45.16398" lon="5.78808">
        <ele>557</ele>
        <time>2021-04-10T12:58:12Z</time>
      </trkpt>
      <trkpt lat="45.164" lon="5.78808">
        <ele>556</ele>
        <time>2021-04-10T12:58:13Z</time>
      </trkpt>
      <trkpt lat="45.16402" lon="5.78808">
        <ele>555.4</ele>
        <time>2021-04-10T12:58:14Z</time>
      </trkpt>
      <trkpt lat="45.16404" lon="5.78807">
        <ele>554.4</ele>
        <time>2021-04-10T12:58:15Z</time>
      </trkpt>
      <trkpt lat="45.16414" lon="5.78804">
        <ele>553.8</ele>
        <time>2021-04-10T12:58:16Z</time>
      </trkpt>
      <trkpt lat="45.16414" lon="5.78804">
        <ele>553.2</ele>
        <time>2021-04-10T12:58:17Z</time>
      </trkpt>
      <trkpt lat="45.16414" lon="5.78804">
        <ele>553</ele>
        <time>2021-04-10T12:58:18Z</time>
      </trkpt>
      <trkpt lat="45.16414" lon="5.78804">
        <ele>552.6</ele>
        <time>2021-04-10T12:58:19Z</time>
      </trkpt>
      <trkpt lat="45.16416" lon="5.78802">
        <ele>552.2</ele>
        <time>2021-04-10T12:58:20Z</time>
      </trkpt>
      <trkpt lat="45.16418" lon="5.78801">
        <ele>551.4</ele>
        <time>2021-04-10T12:58:21Z</time>
      </trkpt>
      <trkpt lat="45.1642" lon="5.788">
        <ele>550.6</ele>
        <time>2021-04-10T12:58:22Z</time>
      </trkpt>
      <trkpt lat="45.16421" lon="5.78798">
        <ele>550</ele>
        <time>2021-04-10T12:58:23Z</time>
      </trkpt>
      <trkpt lat="45.16423" lon="5.78797">
        <ele>549.2</ele>
        <time>2021-04-10T12:58:24Z</time>
      </trkpt>
      <trkpt lat="45.16425" lon="5.78795">
        <ele>549.4</ele>
        <time>2021-04-10T12:58:25Z</time>
      </trkpt>
      <trkpt lat="45.16426" lon="5.78793">
        <ele>549.2</ele>
        <time>2021-04-10T12:58:26Z</time>
      </trkpt>
      <trkpt lat="45.16428" lon="5.78791">
        <ele>549.2</ele>
        <time>2021-04-10T12:58:27Z</time>
      </trkpt>
      <trkpt lat="45.16429" lon="5.78789">
        <ele>548.4</ele>
        <time>2021-04-10T12:58:28Z</time>
      </trkpt>
      <trkpt lat="45.16431" lon="5.78787">
        <ele>548.2</ele>
        <time>2021-04-10T12:58:29Z</time>
      </trkpt>
      <trkpt lat="45.16433" lon="5.78784">
        <ele>547.8</ele>
        <time>2021-04-10T12:58:30Z</time>
      </trkpt>
      <trkpt lat="45.16436" lon="5.78782">
        <ele>547.4</ele>
        <time>2021-04-10T12:58:31Z</time>
      </trkpt>
      <trkpt lat="45.16438" lon="5.78779">
        <ele>546.8</ele>
        <time>2021-04-10T12:58:32Z</time>
      </trkpt>
      <trkpt lat="45.1644" lon="5.78777">
        <ele>546</ele>
        <time>2021-04-10T12:58:33Z</time>
      </trkpt>
      <trkpt lat="45.16443" lon="5.78774">
        <ele>545</ele>
        <time>2021-04-10T12:58:34Z</time>
      </trkpt>
      <trkpt lat="45.16446" lon="5.7877">
        <ele>544.6</ele>
        <time>2021-04-10T12:58:35Z</time>
      </trkpt>
      <trkpt lat="45.16446" lon="5.7877">
        <ele>544.8</ele>
        <time>2021-04-10T12:58:36Z</time>
      </trkpt>
      <trkpt lat="45.16446" lon="5.7877">
        <ele>544.4</ele>
        <time>2021-04-10T12:58:37Z</time>
      </trkpt>
      <trkpt lat="45.16446" lon="5.7877">
        <ele>544.2</ele>
        <time>2021-04-10T12:58:38Z</time>
      </trkpt>
      <trkpt lat="45.16448" lon="5.78769">
        <ele>543.6</ele>
        <time>2021-04-10T12:58:39Z</time>
      </trkpt>
      <trkpt lat="45.1645" lon="5.78767">
        <ele>543.2</ele>
        <time>2021-04-10T12:58:40Z</time>
      </trkpt>
      <trkpt lat="45.16451" lon="5.78765">
        <ele>542.4</ele>
        <time>2021-04-10T12:58:41Z</time>
      </trkpt>
      <trkpt lat="45.16453" lon="5.78764">
        <ele>542.2</ele>
        <time>2021-04-10T12:58:42Z</time>
      </trkpt>
      <trkpt lat="45.16454" lon="5.78762">
        <ele>542.2</ele>
        <time>2021-04-10T12:58:43Z</time>
      </trkpt>
      <trkpt lat="45.16463" lon="5.78761">
        <ele>541.6</ele>
        <time>2021-04-10T12:58:44Z</time>
      </trkpt>
      <trkpt lat="45.16466" lon="5.78761">
        <ele>541.2</ele>
        <time>2021-04-10T12:58:45Z</time>
      </trkpt>
      <trkpt lat="45.16468" lon="5.78761">
        <ele>541.4</ele>
        <time>2021-04-10T12:58:46Z</time>
      </trkpt>
      <trkpt lat="45.1647" lon="5.7876">
        <ele>540.2</ele>
        <time>2021-04-10T12:58:47Z</time>
      </trkpt>
      <trkpt lat="45.16472" lon="5.7876">
        <ele>540.2</ele>
        <time>2021-04-10T12:58:48Z</time>
      </trkpt>
      <trkpt lat="45.16474" lon="5.7876">
        <ele>539.6</ele>
        <time>2021-04-10T12:58:49Z</time>
      </trkpt>
      <trkpt lat="45.16476" lon="5.78759">
        <ele>539</ele>
        <time>2021-04-10T12:58:50Z</time>
      </trkpt>
      <trkpt lat="45.16477" lon="5.78759">
        <ele>538.4</ele>
        <time>2021-04-10T12:58:51Z</time>
      </trkpt>
      <trkpt lat="45.16479" lon="5.78758">
        <ele>538</ele>
        <time>2021-04-10T12:58:52Z</time>
      </trkpt>
      <trkpt lat="45.16486" lon="5.78757">
        <ele>537.2</ele>
        <time>2021-04-10T12:58:53Z</time>
      </trkpt>
      <trkpt lat="45.16489" lon="5.78755">
        <ele>536.4</ele>
        <time>2021-04-10T12:58:54Z</time>
      </trkpt>
      <trkpt lat="45.16491" lon="5.78755">
        <ele>536.4</ele>
        <time>2021-04-10T12:58:55Z</time>
      </trkpt>
      <trkpt lat="45.16494" lon="5.78754">
        <ele>535.8</ele>
        <time>2021-04-10T12:58:56Z</time>
      </trkpt>
      <trkpt lat="45.16494" lon="5.78754">
        <ele>535.4</ele>
        <time>2021-04-10T12:58:57Z</time>
      </trkpt>
      <trkpt lat="45.16494" lon="5.78754">
        <ele>534.8</ele>
        <time>2021-04-10T12:58:58Z</time>
      </trkpt>
      <trkpt lat="45.16494" lon="5.78754">
        <ele>534.4</ele>
        <time>2021-04-10T12:58:59Z</time>
      </trkpt>
      <trkpt lat="45.16496" lon="5.78753">
        <ele>533.6</ele>
        <time>2021-04-10T12:59:00Z</time>
      </trkpt>
      <trkpt lat="45.16498" lon="5.78752">
        <ele>533</ele>
        <time>2021-04-10T12:59:01Z</time>
      </trkpt>
      <trkpt lat="45.165" lon="5.7875">
        <ele>532.2</ele>
        <time>2021-04-10T12:59:02Z</time>
      </trkpt>
      <trkpt lat="45.16503" lon="5.78749">
        <ele>531.2</ele>
        <time>2021-04-10T12:59:03Z</time>
      </trkpt>
      <trkpt lat="45.16505" lon="5.78748">
        <ele>530.2</ele>
        <time>2021-04-10T12:59:04Z</time>
      </trkpt>
      <trkpt lat="45.16507" lon="5.78748">
        <ele>530</ele>
        <time>2021-04-10T12:59:05Z</time>
      </trkpt>
      <trkpt lat="45.16509" lon="5.78748">
        <ele>530</ele>
        <time>2021-04-10T12:59:06Z</time>
      </trkpt>
      <trkpt lat="45.16511" lon="5.78747">
        <ele>529.4</ele>
        <time>2021-04-10T12:59:07Z</time>
      </trkpt>
      <trkpt lat="45.16512" lon="5.78747">
        <ele>529.2</ele>
        <time>2021-04-10T12:59:08Z</time>
      </trkpt>
      <trkpt lat="45.16514" lon="5.78747">
        <ele>528.6</ele>
        <time>2021-04-10T12:59:09Z</time>
      </trkpt>
      <trkpt lat="45.16523" lon="5.78746">
        <ele>528</ele>
        <time>2021-04-10T12:59:10Z</time>
      </trkpt>
      <trkpt lat="45.16525" lon="5.78746">
        <ele>527.2</ele>
        <time>2021-04-10T12:59:11Z</time>
      </trkpt>
      <trkpt lat="45.16527" lon="5.78745">
        <ele>526.4</ele>
        <time>2021-04-10T12:59:12Z</time>
      </trkpt>
      <trkpt lat="45.16529" lon="5.78745">
        <ele>526.4</ele>
        <time>2021-04-10T12:59:13Z</time>
      </trkpt>
      <trkpt lat="45.1653" lon="5.78744">
        <ele>525.8</ele>
        <time>2021-04-10T12:59:14Z</time>
      </trkpt>
      <trkpt lat="45.16537" lon="5.78742">
        <ele>525.4</ele>
        <time>2021-04-10T12:59:15Z</time>
      </trkpt>
      <trkpt lat="45.16541" lon="5.78739">
        <ele>524.6</ele>
        <time>2021-04-10T12:59:16Z</time>
      </trkpt>
      <trkpt lat="45.16544" lon="5.78738">
        <ele>524.2</ele>
        <time>2021-04-10T12:59:17Z</time>
      </trkpt>
      <trkpt lat="45.16546" lon="5.78736">
        <ele>523.6</ele>
        <time>2021-04-10T12:59:18Z</time>
      </trkpt>
      <trkpt lat="45.16549" lon="5.78733">
        <ele>523</ele>
        <time>2021-04-10T12:59:19Z</time>
      </trkpt>
      <trkpt lat="45.1655" lon="5.78731">
        <ele>522.2</ele>
        <time>2021-04-10T12:59:20Z</time>
      </trkpt>
      <trkpt lat="45.16552" lon="5.78729">
        <ele>521.2</ele>
        <time>2021-04-10T12:59:21Z</time>
      </trkpt>
      <trkpt lat="45.16554" lon="5.78727">
        <ele>521.4</ele>
        <time>2021-04-10T12:59:22Z</time>
      </trkpt>
      <trkpt lat="45.16556" lon="5.78724">
        <ele>521</ele>
        <time>2021-04-10T12:59:23Z</time>
      </trkpt>
      <trkpt lat="45.16558" lon="5.78722">
        <ele>520.8</ele>
        <time>2021-04-10T12:59:24Z</time>
      </trkpt>
      <trkpt lat="45.1656" lon="5.78721">
        <ele>519.6</ele>
        <time>2021-04-10T12:59:25Z</time>
      </trkpt>
      <trkpt lat="45.16561" lon="5.78719">
        <ele>519.2</ele>
        <time>2021-04-10T12:59:26Z</time>
      </trkpt>
      <trkpt lat="45.16561" lon="5.78719">
        <ele>518.6</ele>
        <time>2021-04-10T12:59:27Z</time>
      </trkpt>
      <trkpt lat="45.16561" lon="5.78719">
        <ele>518.4</ele>
        <time>2021-04-10T12:59:28Z</time>
      </trkpt>
      <trkpt lat="45.16561" lon="5.78719">
        <ele>517.8</ele>
        <time>2021-04-10T12:59:29Z</time>
      </trkpt>
      <trkpt lat="45.16563" lon="5.78716">
        <ele>517.4</ele>
        <time>2021-04-10T12:59:30Z</time>
      </trkpt>
      <trkpt lat="45.16566" lon="5.78713">
        <ele>516.8</ele>
        <time>2021-04-10T12:59:31Z</time>
      </trkpt>
      <trkpt lat="45.16568" lon="5.7871">
        <ele>516</ele>
        <time>2021-04-10T12:59:32Z</time>
      </trkpt>
      <trkpt lat="45.1657" lon="5.78707">
        <ele>515.8</ele>
        <time>2021-04-10T12:59:33Z</time>
      </trkpt>
      <trkpt lat="45.16573" lon="5.78704">
        <ele>515.4</ele>
        <time>2021-04-10T12:59:34Z</time>
      </trkpt>
      <trkpt lat="45.16577" lon="5.787">
        <ele>515.2</ele>
        <time>2021-04-10T12:59:35Z</time>
      </trkpt>
      <trkpt lat="45.16579" lon="5.78699">
        <ele>515</ele>
        <time>2021-04-10T12:59:36Z</time>
      </trkpt>
      <trkpt lat="45.16581" lon="5.78698">
        <ele>514.4</ele>
        <time>2021-04-10T12:59:37Z</time>
      </trkpt>
      <trkpt lat="45.16583" lon="5.78696">
        <ele>514</ele>
        <time>2021-04-10T12:59:38Z</time>
      </trkpt>
      <trkpt lat="45.16585" lon="5.78695">
        <ele>513.2</ele>
        <time>2021-04-10T12:59:39Z</time>
      </trkpt>
      <trkpt lat="45.16585" lon="5.78695">
        <ele>512.6</ele>
        <time>2021-04-10T12:59:40Z</time>
      </trkpt>
      <trkpt lat="45.16585" lon="5.78695">
        <ele>511.8</ele>
        <time>2021-04-10T12:59:41Z</time>
      </trkpt>
      <trkpt lat="45.16585" lon="5.78695">
        <ele>511.6</ele>
        <time>2021-04-10T12:59:42Z</time>
      </trkpt>
      <trkpt lat="45.16588" lon="5.78694">
        <ele>511.2</ele>
        <time>2021-04-10T12:59:43Z</time>
      </trkpt>
      <trkpt lat="45.16592" lon="5.78692">
        <ele>511</ele>
        <time>2021-04-10T12:59:44Z</time>
      </trkpt>
      <trkpt lat="45.16595" lon="5.78691">
        <ele>510.4</ele>
        <time>2021-04-10T12:59:45Z</time>
      </trkpt>
      <trkpt lat="45.16598" lon="5.7869">
        <ele>510</ele>
        <time>2021-04-10T12:59:46Z</time>
      </trkpt>
      <trkpt lat="45.16601" lon="5.78688">
        <ele>509.4</ele>
        <time>2021-04-10T12:59:47Z</time>
      </trkpt>
      <trkpt lat="45.16606" lon="5.78687">
        <ele>508.8</ele>
        <time>2021-04-10T12:59:48Z</time>
      </trkpt>
      <trkpt lat="45.16606" lon="5.78687">
        <ele>508</ele>
        <time>2021-04-10T12:59:49Z</time>
      </trkpt>
      <trkpt lat="45.16606" lon="5.78687">
        <ele>507</ele>
        <time>2021-04-10T12:59:50Z</time>
      </trkpt>
      <trkpt lat="45.16606" lon="5.78687">
        <ele>506.2</ele>
        <time>2021-04-10T12:59:51Z</time>
      </trkpt>
      <trkpt lat="45.16608" lon="5.78686">
        <ele>505.8</ele>
        <time>2021-04-10T12:59:52Z</time>
      </trkpt>
      <trkpt lat="45.16611" lon="5.78686">
        <ele>505.4</ele>
        <time>2021-04-10T12:59:53Z</time>
      </trkpt>
      <trkpt lat="45.16613" lon="5.78685">
        <ele>505.2</ele>
        <time>2021-04-10T12:59:54Z</time>
      </trkpt>
      <trkpt lat="45.16615" lon="5.78685">
        <ele>504.6</ele>
        <time>2021-04-10T12:59:55Z</time>
      </trkpt>
      <trkpt lat="45.16617" lon="5.78684">
        <ele>504</ele>
        <time>2021-04-10T12:59:56Z</time>
      </trkpt>
      <trkpt lat="45.16622" lon="5.78683">
        <ele>503.2</ele>
        <time>2021-04-10T12:59:57Z</time>
      </trkpt>
      <trkpt lat="45.16626" lon="5.78681">
        <ele>503.2</ele>
        <time>2021-04-10T12:59:58Z</time>
      </trkpt>
      <trkpt lat="45.16626" lon="5.78681">
        <ele>502.4</ele>
        <time>2021-04-10T12:59:59Z</time>
      </trkpt>
      <trkpt lat="45.16634" lon="5.78677">
        <ele>501.4</ele>
        <time>2021-04-10T13:00:01Z</time>
      </trkpt>
      <trkpt lat="45.16634" lon="5.78677">
        <ele>500.6</ele>
        <time>2021-04-10T13:00:02Z</time>
      </trkpt>
      <trkpt lat="45.16634" lon="5.78677">
        <ele>500</ele>
        <time>2021-04-10T13:00:03Z</time>
      </trkpt>
      <trkpt lat="45.16634" lon="5.78677">
        <ele>499.6</ele>
        <time>2021-04-10T13:00:04Z</time>
      </trkpt>
      <trkpt lat="45.16636" lon="5.78676">
        <ele>499</ele>
        <time>2021-04-10T13:00:05Z</time>
      </trkpt>
      <trkpt lat="45.16638" lon="5.78674">
        <ele>498.4</ele>
        <time>2021-04-10T13:00:06Z</time>
      </trkpt>
      <trkpt lat="45.1664" lon="5.78673">
        <ele>497.8</ele>
        <time>2021-04-10T13:00:07Z</time>
      </trkpt>
      <trkpt lat="45.16642" lon="5.78672">
        <ele>497.2</ele>
        <time>2021-04-10T13:00:08Z</time>
      </trkpt>
      <trkpt lat="45.16643" lon="5.78671">
        <ele>496.4</ele>
        <time>2021-04-10T13:00:09Z</time>
      </trkpt>
      <trkpt lat="45.16646" lon="5.78671">
        <ele>495.8</ele>
        <time>2021-04-10T13:00:10Z</time>
      </trkpt>
      <trkpt lat="45.16648" lon="5.78671">
        <ele>495.2</ele>
        <time>2021-04-10T13:00:11Z</time>
      </trkpt>
      <trkpt lat="45.1665" lon="5.78671">
        <ele>494.6</ele>
        <time>2021-04-10T13:00:12Z</time>
      </trkpt>
      <trkpt lat="45.16652" lon="5.78671">
        <ele>493.8</ele>
        <time>2021-04-10T13:00:13Z</time>
      </trkpt>
      <trkpt lat="45.16655" lon="5.78671">
        <ele>492.8</ele>
        <time>2021-04-10T13:00:14Z</time>
      </trkpt>
      <trkpt lat="45.16657" lon="5.78671">
        <ele>492.2</ele>
        <time>2021-04-10T13:00:15Z</time>
      </trkpt>
      <trkpt lat="45.16659" lon="5.78671">
        <ele>491.8</ele>
        <time>2021-04-10T13:00:16Z</time>
      </trkpt>
      <trkpt lat="45.16661" lon="5.78671">
        <ele>491.6</ele>
        <time>2021-04-10T13:00:17Z</time>
      </trkpt>
      <trkpt lat="45.16663" lon="5.78671">
        <ele>491.2</ele>
        <time>2021-04-10T13:00:18Z</time>
      </trkpt>
      <trkpt lat="45.16665" lon="5.78671">
        <ele>490.8</ele>
        <time>2021-04-10T13:00:19Z</time>
      </trkpt>
      <trkpt lat="45.16673" lon="5.78665">
        <ele>490.2</ele>
        <time>2021-04-10T13:00:20Z</time>
      </trkpt>
      <trkpt lat="45.16673" lon="5.78665">
        <ele>489.4</ele>
        <time>2021-04-10T13:00:21Z</time>
      </trkpt>
      <trkpt lat="45.16673" lon="5.78665">
        <ele>488.6</ele>
        <time>2021-04-10T13:00:22Z</time>
      </trkpt>
      <trkpt lat="45.16673" lon="5.78665">
        <ele>488</ele>
        <time>2021-04-10T13:00:23Z</time>
      </trkpt>
      <trkpt lat="45.16674" lon="5.78663">
        <ele>488</ele>
        <time>2021-04-10T13:00:24Z</time>
      </trkpt>
      <trkpt lat="45.16676" lon="5.78662">
        <ele>487.6</ele>
        <time>2021-04-10T13:00:25Z</time>
      </trkpt>
      <trkpt lat="45.16677" lon="5.78661">
        <ele>487.6</ele>
        <time>2021-04-10T13:00:26Z</time>
      </trkpt>
      <trkpt lat="45.16679" lon="5.78659">
        <ele>487.2</ele>
        <time>2021-04-10T13:00:27Z</time>
      </trkpt>
      <trkpt lat="45.1668" lon="5.78658">
        <ele>486.8</ele>
        <time>2021-04-10T13:00:28Z</time>
      </trkpt>
      <trkpt lat="45.1669" lon="5.78657">
        <ele>486.2</ele>
        <time>2021-04-10T13:00:29Z</time>
      </trkpt>
      <trkpt lat="45.1669" lon="5.78657">
        <ele>485.8</ele>
        <time>2021-04-10T13:00:30Z</time>
      </trkpt>
      <trkpt lat="45.1669" lon="5.78657">
        <ele>485.2</ele>
        <time>2021-04-10T13:00:31Z</time>
      </trkpt>
      <trkpt lat="45.1669" lon="5.78657">
        <ele>484.6</ele>
        <time>2021-04-10T13:00:32Z</time>
      </trkpt>
      <trkpt lat="45.16693" lon="5.78657">
        <ele>484.4</ele>
        <time>2021-04-10T13:00:33Z</time>
      </trkpt>
      <trkpt lat="45.16696" lon="5.78656">
        <ele>484</ele>
        <time>2021-04-10T13:00:34Z</time>
      </trkpt>
      <trkpt lat="45.16699" lon="5.78656">
        <ele>484</ele>
        <time>2021-04-10T13:00:35Z</time>
      </trkpt>
      <trkpt lat="45.16702" lon="5.78655">
        <ele>483.4</ele>
        <time>2021-04-10T13:00:36Z</time>
      </trkpt>
      <trkpt lat="45.16706" lon="5.78655">
        <ele>483.2</ele>
        <time>2021-04-10T13:00:37Z</time>
      </trkpt>
      <trkpt lat="45.1671" lon="5.78655">
        <ele>482.6</ele>
        <time>2021-04-10T13:00:38Z</time>
      </trkpt>
      <trkpt lat="45.16713" lon="5.78654">
        <ele>482.2</ele>
        <time>2021-04-10T13:00:39Z</time>
      </trkpt>
      <trkpt lat="45.16716" lon="5.78654">
        <ele>482.2</ele>
        <time>2021-04-10T13:00:40Z</time>
      </trkpt>
      <trkpt lat="45.16719" lon="5.78653">
        <ele>481.8</ele>
        <time>2021-04-10T13:00:41Z</time>
      </trkpt>
      <trkpt lat="45.16719" lon="5.78653">
        <ele>482</ele>
        <time>2021-04-10T13:00:42Z</time>
      </trkpt>
      <trkpt lat="45.16719" lon="5.78653">
        <ele>481.6</ele>
        <time>2021-04-10T13:00:43Z</time>
      </trkpt>
      <trkpt lat="45.16719" lon="5.78653">
        <ele>481.2</ele>
        <time>2021-04-10T13:00:44Z</time>
      </trkpt>
      <trkpt lat="45.16721" lon="5.78653">
        <ele>480.8</ele>
        <time>2021-04-10T13:00:45Z</time>
      </trkpt>
      <trkpt lat="45.16723" lon="5.78653">
        <ele>480.2</ele>
        <time>2021-04-10T13:00:46Z</time>
      </trkpt>
      <trkpt lat="45.16725" lon="5.78652">
        <ele>480</ele>
        <time>2021-04-10T13:00:47Z</time>
      </trkpt>
      <trkpt lat="45.16727" lon="5.78652">
        <ele>479.8</ele>
        <time>2021-04-10T13:00:48Z</time>
      </trkpt>
      <trkpt lat="45.16729" lon="5.78652">
        <ele>479.6</ele>
        <time>2021-04-10T13:00:49Z</time>
      </trkpt>
      <trkpt lat="45.16739" lon="5.78653">
        <ele>479.2</ele>
        <time>2021-04-10T13:00:50Z</time>
      </trkpt>
      <trkpt lat="45.16741" lon="5.78653">
        <ele>479</ele>
        <time>2021-04-10T13:00:51Z</time>
      </trkpt>
      <trkpt lat="45.16744" lon="5.78652">
        <ele>478.4</ele>
        <time>2021-04-10T13:00:52Z</time>
      </trkpt>
      <trkpt lat="45.16746" lon="5.78652">
        <ele>477.6</ele>
        <time>2021-04-10T13:00:53Z</time>
      </trkpt>
      <trkpt lat="45.16748" lon="5.78652">
        <ele>477.6</ele>
        <time>2021-04-10T13:00:54Z</time>
      </trkpt>
      <trkpt lat="45.16751" lon="5.78652">
        <ele>477.2</ele>
        <time>2021-04-10T13:00:55Z</time>
      </trkpt>
      <trkpt lat="45.16753" lon="5.78651">
        <ele>477</ele>
        <time>2021-04-10T13:00:56Z</time>
      </trkpt>
      <trkpt lat="45.16756" lon="5.78651">
        <ele>476.4</ele>
        <time>2021-04-10T13:00:57Z</time>
      </trkpt>
      <trkpt lat="45.16758" lon="5.7865">
        <ele>475.8</ele>
        <time>2021-04-10T13:00:58Z</time>
      </trkpt>
      <trkpt lat="45.1676" lon="5.7865">
        <ele>475.4</ele>
        <time>2021-04-10T13:00:59Z</time>
      </trkpt>
      <trkpt lat="45.16761" lon="5.7865">
        <ele>475</ele>
        <time>2021-04-10T13:01:00Z</time>
      </trkpt>
      <trkpt lat="45.16762" lon="5.7865">
        <ele>474.2</ele>
        <time>2021-04-10T13:01:01Z</time>
      </trkpt>
      <trkpt lat="45.16763" lon="5.7865">
        <ele>474</ele>
        <time>2021-04-10T13:01:02Z</time>
      </trkpt>
      <trkpt lat="45.16768" lon="5.78649">
        <ele>474.2</ele>
        <time>2021-04-10T13:01:03Z</time>
      </trkpt>
      <trkpt lat="45.16771" lon="5.78649">
        <ele>473.6</ele>
        <time>2021-04-10T13:01:04Z</time>
      </trkpt>
      <trkpt lat="45.16775" lon="5.78649">
        <ele>473.4</ele>
        <time>2021-04-10T13:01:05Z</time>
      </trkpt>
      <trkpt lat="45.16778" lon="5.78649">
        <ele>472.6</ele>
        <time>2021-04-10T13:01:06Z</time>
      </trkpt>
      <trkpt lat="45.16778" lon="5.78649">
        <ele>472</ele>
        <time>2021-04-10T13:01:07Z</time>
      </trkpt>
      <trkpt lat="45.16778" lon="5.78649">
        <ele>472.2</ele>
        <time>2021-04-10T13:01:08Z</time>
      </trkpt>
      <trkpt lat="45.16778" lon="5.78649">
        <ele>471.8</ele>
        <time>2021-04-10T13:01:09Z</time>
      </trkpt>
      <trkpt lat="45.16781" lon="5.78648">
        <ele>471.8</ele>
        <time>2021-04-10T13:01:10Z</time>
      </trkpt>
      <trkpt lat="45.16784" lon="5.78647">
        <ele>471.2</ele>
        <time>2021-04-10T13:01:11Z</time>
      </trkpt>
      <trkpt lat="45.16787" lon="5.78645">
        <ele>470.6</ele>
        <time>2021-04-10T13:01:12Z</time>
      </trkpt>
      <trkpt lat="45.1679" lon="5.78644">
        <ele>470.4</ele>
        <time>2021-04-10T13:01:13Z</time>
      </trkpt>
      <trkpt lat="45.16793" lon="5.78643">
        <ele>470</ele>
        <time>2021-04-10T13:01:14Z</time>
      </trkpt>
      <trkpt lat="45.16797" lon="5.7864">
        <ele>470</ele>
        <time>2021-04-10T13:01:15Z</time>
      </trkpt>
      <trkpt lat="45.16798" lon="5.78639">
        <ele>469.4</ele>
        <time>2021-04-10T13:01:16Z</time>
      </trkpt>
      <trkpt lat="45.168" lon="5.78637">
        <ele>468.8</ele>
        <time>2021-04-10T13:01:17Z</time>
      </trkpt>
      <trkpt lat="45.16801" lon="5.78636">
        <ele>468.2</ele>
        <time>2021-04-10T13:01:18Z</time>
      </trkpt>
      <trkpt lat="45.16803" lon="5.78634">
        <ele>467.4</ele>
        <time>2021-04-10T13:01:19Z</time>
      </trkpt>
      <trkpt lat="45.16809" lon="5.78628">
        <ele>467.6</ele>
        <time>2021-04-10T13:01:20Z</time>
      </trkpt>
      <trkpt lat="45.16811" lon="5.78626">
        <ele>467.2</ele>
        <time>2021-04-10T13:01:21Z</time>
      </trkpt>
      <trkpt lat="45.16814" lon="5.78625">
        <ele>467.2</ele>
        <time>2021-04-10T13:01:22Z</time>
      </trkpt>
      <trkpt lat="45.16815" lon="5.78624">
        <ele>466.6</ele>
        <time>2021-04-10T13:01:23Z</time>
      </trkpt>
      <trkpt lat="45.16817" lon="5.78622">
        <ele>466.4</ele>
        <time>2021-04-10T13:01:24Z</time>
      </trkpt>
      <trkpt lat="45.16822" lon="5.78619">
        <ele>465.8</ele>
        <time>2021-04-10T13:01:25Z</time>
      </trkpt>
      <trkpt lat="45.16825" lon="5.78616">
        <ele>465.2</ele>
        <time>2021-04-10T13:01:26Z</time>
      </trkpt>
      <trkpt lat="45.16828" lon="5.78615">
        <ele>464.8</ele>
        <time>2021-04-10T13:01:27Z</time>
      </trkpt>
      <trkpt lat="45.16831" lon="5.78613">
        <ele>464.4</ele>
        <time>2021-04-10T13:01:28Z</time>
      </trkpt>
      <trkpt lat="45.16834" lon="5.78612">
        <ele>464.6</ele>
        <time>2021-04-10T13:01:29Z</time>
      </trkpt>
      <trkpt lat="45.16837" lon="5.78612">
        <ele>464.2</ele>
        <time>2021-04-10T13:01:30Z</time>
      </trkpt>
      <trkpt lat="45.1684" lon="5.78612">
        <ele>464</ele>
        <time>2021-04-10T13:01:31Z</time>
      </trkpt>
      <trkpt lat="45.16843" lon="5.78612">
        <ele>463.4</ele>
        <time>2021-04-10T13:01:32Z</time>
      </trkpt>
      <trkpt lat="45.16846" lon="5.78612">
        <ele>463</ele>
        <time>2021-04-10T13:01:33Z</time>
      </trkpt>
      <trkpt lat="45.1685" lon="5.78611">
        <ele>462.4</ele>
        <time>2021-04-10T13:01:34Z</time>
      </trkpt>
      <trkpt lat="45.16853" lon="5.78611">
        <ele>461.4</ele>
        <time>2021-04-10T13:01:35Z</time>
      </trkpt>
      <trkpt lat="45.16855" lon="5.78611">
        <ele>461.4</ele>
        <time>2021-04-10T13:01:36Z</time>
      </trkpt>
      <trkpt lat="45.16857" lon="5.78611">
        <ele>461</ele>
        <time>2021-04-10T13:01:37Z</time>
      </trkpt>
      <trkpt lat="45.1686" lon="5.78611">
        <ele>461</ele>
        <time>2021-04-10T13:01:38Z</time>
      </trkpt>
      <trkpt lat="45.16862" lon="5.78611">
        <ele>460.6</ele>
        <time>2021-04-10T13:01:39Z</time>
      </trkpt>
      <trkpt lat="45.16862" lon="5.78611">
        <ele>460.4</ele>
        <time>2021-04-10T13:01:40Z</time>
      </trkpt>
      <trkpt lat="45.16862" lon="5.78611">
        <ele>460</ele>
        <time>2021-04-10T13:01:41Z</time>
      </trkpt>
      <trkpt lat="45.16862" lon="5.78611">
        <ele>459.8</ele>
        <time>2021-04-10T13:01:42Z</time>
      </trkpt>
      <trkpt lat="45.16864" lon="5.78611">
        <ele>459.4</ele>
        <time>2021-04-10T13:01:43Z</time>
      </trkpt>
      <trkpt lat="45.16865" lon="5.78612">
        <ele>459</ele>
        <time>2021-04-10T13:01:44Z</time>
      </trkpt>
      <trkpt lat="45.16867" lon="5.78612">
        <ele>458.4</ele>
        <time>2021-04-10T13:01:45Z</time>
      </trkpt>
      <trkpt lat="45.16869" lon="5.78612">
        <ele>458.2</ele>
        <time>2021-04-10T13:01:46Z</time>
      </trkpt>
      <trkpt lat="45.1687" lon="5.78612">
        <ele>457.6</ele>
        <time>2021-04-10T13:01:47Z</time>
      </trkpt>
      <trkpt lat="45.16872" lon="5.78613">
        <ele>457.2</ele>
        <time>2021-04-10T13:01:48Z</time>
      </trkpt>
      <trkpt lat="45.16875" lon="5.78613">
        <ele>456.8</ele>
        <time>2021-04-10T13:01:49Z</time>
      </trkpt>
      <trkpt lat="45.16877" lon="5.78613">
        <ele>456.6</ele>
        <time>2021-04-10T13:01:50Z</time>
      </trkpt>
      <trkpt lat="45.1688" lon="5.78613">
        <ele>456.4</ele>
        <time>2021-04-10T13:01:51Z</time>
      </trkpt>
      <trkpt lat="45.16882" lon="5.78613">
        <ele>456</ele>
        <time>2021-04-10T13:01:52Z</time>
      </trkpt>
      <trkpt lat="45.16885" lon="5.78613">
        <ele>456.2</ele>
        <time>2021-04-10T13:01:53Z</time>
      </trkpt>
      <trkpt lat="45.16887" lon="5.78613">
        <ele>456</ele>
        <time>2021-04-10T13:01:54Z</time>
      </trkpt>
      <trkpt lat="45.16894" lon="5.78611">
        <ele>456.4</ele>
        <time>2021-04-10T13:01:55Z</time>
      </trkpt>
      <trkpt lat="45.16898" lon="5.7861">
        <ele>456.2</ele>
        <time>2021-04-10T13:01:56Z</time>
      </trkpt>
      <trkpt lat="45.169" lon="5.7861">
        <ele>456.4</ele>
        <time>2021-04-10T13:01:57Z</time>
      </trkpt>
      <trkpt lat="45.16903" lon="5.78609">
        <ele>456</ele>
        <time>2021-04-10T13:01:58Z</time>
      </trkpt>
      <trkpt lat="45.16905" lon="5.78609">
        <ele>456.4</ele>
        <time>2021-04-10T13:01:59Z</time>
      </trkpt>
      <trkpt lat="45.16909" lon="5.78608">
        <ele>456.2</ele>
        <time>2021-04-10T13:02:00Z</time>
      </trkpt>
      <trkpt lat="45.16912" lon="5.78608">
        <ele>456.2</ele>
        <time>2021-04-10T13:02:01Z</time>
      </trkpt>
      <trkpt lat="45.16914" lon="5.78608">
        <ele>456</ele>
        <time>2021-04-10T13:02:02Z</time>
      </trkpt>
      <trkpt lat="45.16917" lon="5.78607">
        <ele>456</ele>
        <time>2021-04-10T13:02:03Z</time>
      </trkpt>
      <trkpt lat="45.1692" lon="5.78608">
        <ele>455.8</ele>
        <time>2021-04-10T13:02:04Z</time>
      </trkpt>
      <trkpt lat="45.16922" lon="5.78608">
        <ele>456</ele>
        <time>2021-04-10T13:02:05Z</time>
      </trkpt>
      <trkpt lat="45.16925" lon="5.78608">
        <ele>455.6</ele>
        <time>2021-04-10T13:02:06Z</time>
      </trkpt>
      <trkpt lat="45.16927" lon="5.78608">
        <ele>455.6</ele>
        <time>2021-04-10T13:02:07Z</time>
      </trkpt>
      <trkpt lat="45.1693" lon="5.78607">
        <ele>455.2</ele>
        <time>2021-04-10T13:02:08Z</time>
      </trkpt>
      <trkpt lat="45.16933" lon="5.78606">
        <ele>455.2</ele>
        <time>2021-04-10T13:02:09Z</time>
      </trkpt>
      <trkpt lat="45.16935" lon="5.78606">
        <ele>454.8</ele>
        <time>2021-04-10T13:02:10Z</time>
      </trkpt>
      <trkpt lat="45.16937" lon="5.78605">
        <ele>454.6</ele>
        <time>2021-04-10T13:02:11Z</time>
      </trkpt>
      <trkpt lat="45.16941" lon="5.78604">
        <ele>454.2</ele>
        <time>2021-04-10T13:02:12Z</time>
      </trkpt>
      <trkpt lat="45.16943" lon="5.78603">
        <ele>454</ele>
        <time>2021-04-10T13:02:13Z</time>
      </trkpt>
      <trkpt lat="45.16946" lon="5.78602">
        <ele>453.6</ele>
        <time>2021-04-10T13:02:14Z</time>
      </trkpt>
      <trkpt lat="45.16948" lon="5.78601">
        <ele>453.6</ele>
        <time>2021-04-10T13:02:15Z</time>
      </trkpt>
      <trkpt lat="45.16951" lon="5.78599">
        <ele>453</ele>
        <time>2021-04-10T13:02:16Z</time>
      </trkpt>
      <trkpt lat="45.16954" lon="5.78599">
        <ele>452.8</ele>
        <time>2021-04-10T13:02:17Z</time>
      </trkpt>
      <trkpt lat="45.16956" lon="5.78598">
        <ele>452.2</ele>
        <time>2021-04-10T13:02:18Z</time>
      </trkpt>
      <trkpt lat="45.16958" lon="5.78597">
        <ele>452.2</ele>
        <time>2021-04-10T13:02:19Z</time>
      </trkpt>
      <trkpt lat="45.16962" lon="5.78594">
        <ele>451.8</ele>
        <time>2021-04-10T13:02:20Z</time>
      </trkpt>
      <trkpt lat="45.16964" lon="5.78592">
        <ele>451.6</ele>
        <time>2021-04-10T13:02:21Z</time>
      </trkpt>
      <trkpt lat="45.16967" lon="5.78591">
        <ele>451.2</ele>
        <time>2021-04-10T13:02:22Z</time>
      </trkpt>
      <trkpt lat="45.1697" lon="5.78589">
        <ele>451.2</ele>
        <time>2021-04-10T13:02:23Z</time>
      </trkpt>
      <trkpt lat="45.16973" lon="5.78587">
        <ele>451</ele>
        <time>2021-04-10T13:02:24Z</time>
      </trkpt>
      <trkpt lat="45.16976" lon="5.78585">
        <ele>451.2</ele>
        <time>2021-04-10T13:02:25Z</time>
      </trkpt>
      <trkpt lat="45.16978" lon="5.78583">
        <ele>450.8</ele>
        <time>2021-04-10T13:02:26Z</time>
      </trkpt>
      <trkpt lat="45.16979" lon="5.78582">
        <ele>451</ele>
        <time>2021-04-10T13:02:27Z</time>
      </trkpt>
      <trkpt lat="45.16981" lon="5.78581">
        <ele>451</ele>
        <time>2021-04-10T13:02:28Z</time>
      </trkpt>
      <trkpt lat="45.16985" lon="5.78578">
        <ele>451</ele>
        <time>2021-04-10T13:02:29Z</time>
      </trkpt>
      <trkpt lat="45.16985" lon="5.78578">
        <ele>450.8</ele>
        <time>2021-04-10T13:02:30Z</time>
      </trkpt>
      <trkpt lat="45.16985" lon="5.78578">
        <ele>451</ele>
        <time>2021-04-10T13:02:31Z</time>
      </trkpt>
      <trkpt lat="45.16985" lon="5.78578">
        <ele>450.8</ele>
        <time>2021-04-10T13:02:32Z</time>
      </trkpt>
      <trkpt lat="45.16987" lon="5.78576">
        <ele>451</ele>
        <time>2021-04-10T13:02:33Z</time>
      </trkpt>
      <trkpt lat="45.16988" lon="5.78574">
        <ele>450.8</ele>
        <time>2021-04-10T13:02:34Z</time>
      </trkpt>
      <trkpt lat="45.1699" lon="5.78573">
        <ele>451</ele>
        <time>2021-04-10T13:02:35Z</time>
      </trkpt>
      <trkpt lat="45.16992" lon="5.78571">
        <ele>450.8</ele>
        <time>2021-04-10T13:02:36Z</time>
      </trkpt>
      <trkpt lat="45.16993" lon="5.7857">
        <ele>450.8</ele>
        <time>2021-04-10T13:02:37Z</time>
      </trkpt>
      <trkpt lat="45.17002" lon="5.78561">
        <ele>450.6</ele>
        <time>2021-04-10T13:02:38Z</time>
      </trkpt>
      <trkpt lat="45.17002" lon="5.78561">
        <ele>450.6</ele>
        <time>2021-04-10T13:02:39Z</time>
      </trkpt>
      <trkpt lat="45.17002" lon="5.78561">
        <ele>450.6</ele>
        <time>2021-04-10T13:02:40Z</time>
      </trkpt>
      <trkpt lat="45.17002" lon="5.78561">
        <ele>450.6</ele>
        <time>2021-04-10T13:02:41Z</time>
      </trkpt>
      <trkpt lat="45.17003" lon="5.78559">
        <ele>450.2</ele>
        <time>2021-04-10T13:02:42Z</time>
      </trkpt>
      <trkpt lat="45.17005" lon="5.78557">
        <ele>450.4</ele>
        <time>2021-04-10T13:02:43Z</time>
      </trkpt>
      <trkpt lat="45.17006" lon="5.78555">
        <ele>450.2</ele>
        <time>2021-04-10T13:02:44Z</time>
      </trkpt>
      <trkpt lat="45.17008" lon="5.78553">
        <ele>450.4</ele>
        <time>2021-04-10T13:02:45Z</time>
      </trkpt>
      <trkpt lat="45.17009" lon="5.78551">
        <ele>450.4</ele>
        <time>2021-04-10T13:02:46Z</time>
      </trkpt>
      <trkpt lat="45.17012" lon="5.78548">
        <ele>450.6</ele>
        <time>2021-04-10T13:02:47Z</time>
      </trkpt>
      <trkpt lat="45.17014" lon="5.78544">
        <ele>450.4</ele>
        <time>2021-04-10T13:02:48Z</time>
      </trkpt>
      <trkpt lat="45.17016" lon="5.78541">
        <ele>450.6</ele>
        <time>2021-04-10T13:02:49Z</time>
      </trkpt>
      <trkpt lat="45.17018" lon="5.78538">
        <ele>450.4</ele>
        <time>2021-04-10T13:02:50Z</time>
      </trkpt>
      <trkpt lat="45.1702" lon="5.78534">
        <ele>450.6</ele>
        <time>2021-04-10T13:02:51Z</time>
      </trkpt>
      <trkpt lat="45.17025" lon="5.78527">
        <ele>450.2</ele>
        <time>2021-04-10T13:02:52Z</time>
      </trkpt>
      <trkpt lat="45.17028" lon="5.78523">
        <ele>450.2</ele>
        <time>2021-04-10T13:02:53Z</time>
      </trkpt>
      <trkpt lat="45.17029" lon="5.78521">
        <ele>450.2</ele>
        <time>2021-04-10T13:02:54Z</time>
      </trkpt>
      <trkpt lat="45.1703" lon="5.78519">
        <ele>450.4</ele>
        <time>2021-04-10T13:02:55Z</time>
      </trkpt>
      <trkpt lat="45.17032" lon="5.78516">
        <ele>450</ele>
        <time>2021-04-10T13:02:56Z</time>
      </trkpt>
      <trkpt lat="45.17032" lon="5.78516">
        <ele>450.4</ele>
        <time>2021-04-10T13:02:57Z</time>
      </trkpt>
      <trkpt lat="45.17032" lon="5.78516">
        <ele>450</ele>
        <time>2021-04-10T13:02:58Z</time>
      </trkpt>
      <trkpt lat="45.17032" lon="5.78516">
        <ele>450</ele>
        <time>2021-04-10T13:02:59Z</time>
      </trkpt>
      <trkpt lat="45.17034" lon="5.78513">
        <ele>449.8</ele>
        <time>2021-04-10T13:03:00Z</time>
      </trkpt>
      <trkpt lat="45.17036" lon="5.78509">
        <ele>450.2</ele>
        <time>2021-04-10T13:03:01Z</time>
      </trkpt>
      <trkpt lat="45.17037" lon="5.78505">
        <ele>449.8</ele>
        <time>2021-04-10T13:03:02Z</time>
      </trkpt>
      <trkpt lat="45.17039" lon="5.78501">
        <ele>449.8</ele>
        <time>2021-04-10T13:03:03Z</time>
      </trkpt>
      <trkpt lat="45.17041" lon="5.78498">
        <ele>449.6</ele>
        <time>2021-04-10T13:03:04Z</time>
      </trkpt>
      <trkpt lat="45.17046" lon="5.7849">
        <ele>449.8</ele>
        <time>2021-04-10T13:03:05Z</time>
      </trkpt>
      <trkpt lat="45.17047" lon="5.78489">
        <ele>449.4</ele>
        <time>2021-04-10T13:03:06Z</time>
      </trkpt>
      <trkpt lat="45.17047" lon="5.78488">
        <ele>449.2</ele>
        <time>2021-04-10T13:03:07Z</time>
      </trkpt>
      <trkpt lat="45.17048" lon="5.78487">
        <ele>449</ele>
        <time>2021-04-10T13:03:08Z</time>
      </trkpt>
      <trkpt lat="45.17051" lon="5.78482">
        <ele>449</ele>
        <time>2021-04-10T13:03:09Z</time>
      </trkpt>
      <trkpt lat="45.17053" lon="5.78481">
        <ele>449</ele>
        <time>2021-04-10T13:03:10Z</time>
      </trkpt>
      <trkpt lat="45.17054" lon="5.78479">
        <ele>449</ele>
        <time>2021-04-10T13:03:11Z</time>
      </trkpt>
      <trkpt lat="45.17056" lon="5.78478">
        <ele>449.2</ele>
        <time>2021-04-10T13:03:12Z</time>
      </trkpt>
      <trkpt lat="45.1706" lon="5.78474">
        <ele>449</ele>
        <time>2021-04-10T13:03:13Z</time>
      </trkpt>
      <trkpt lat="45.17062" lon="5.78472">
        <ele>449.2</ele>
        <time>2021-04-10T13:03:14Z</time>
      </trkpt>
      <trkpt lat="45.17064" lon="5.78471">
        <ele>449.2</ele>
        <time>2021-04-10T13:03:15Z</time>
      </trkpt>
      <trkpt lat="45.17067" lon="5.78469">
        <ele>449.6</ele>
        <time>2021-04-10T13:03:16Z</time>
      </trkpt>
      <trkpt lat="45.17074" lon="5.78465">
        <ele>449.6</ele>
        <time>2021-04-10T13:03:17Z</time>
      </trkpt>
      <trkpt lat="45.17077" lon="5.78462">
        <ele>450</ele>
        <time>2021-04-10T13:03:18Z</time>
      </trkpt>
      <trkpt lat="45.1708" lon="5.7846">
        <ele>449.8</ele>
        <time>2021-04-10T13:03:19Z</time>
      </trkpt>
      <trkpt lat="45.17082" lon="5.78458">
        <ele>450</ele>
        <time>2021-04-10T13:03:20Z</time>
      </trkpt>
      <trkpt lat="45.17086" lon="5.78455">
        <ele>450</ele>
        <time>2021-04-10T13:03:21Z</time>
      </trkpt>
      <trkpt lat="45.17088" lon="5.78453">
        <ele>450.2</ele>
        <time>2021-04-10T13:03:22Z</time>
      </trkpt>
      <trkpt lat="45.1709" lon="5.78451">
        <ele>450.2</ele>
        <time>2021-04-10T13:03:23Z</time>
      </trkpt>
      <trkpt lat="45.17091" lon="5.78449">
        <ele>450.4</ele>
        <time>2021-04-10T13:03:24Z</time>
      </trkpt>
      <trkpt lat="45.17095" lon="5.78446">
        <ele>450.2</ele>
        <time>2021-04-10T13:03:25Z</time>
      </trkpt>
      <trkpt lat="45.17097" lon="5.78445">
        <ele>450.2</ele>
        <time>2021-04-10T13:03:26Z</time>
      </trkpt>
      <trkpt lat="45.17099" lon="5.78443">
        <ele>450.2</ele>
        <time>2021-04-10T13:03:27Z</time>
      </trkpt>
      <trkpt lat="45.17101" lon="5.78441">
        <ele>450.2</ele>
        <time>2021-04-10T13:03:28Z</time>
      </trkpt>
      <trkpt lat="45.17103" lon="5.7844">
        <ele>450.2</ele>
        <time>2021-04-10T13:03:29Z</time>
      </trkpt>
      <trkpt lat="45.17105" lon="5.78438">
        <ele>450.2</ele>
        <time>2021-04-10T13:03:30Z</time>
      </trkpt>
      <trkpt lat="45.17107" lon="5.78437">
        <ele>450</ele>
        <time>2021-04-10T13:03:31Z</time>
      </trkpt>
      <trkpt lat="45.17109" lon="5.78435">
        <ele>450.2</ele>
        <time>2021-04-10T13:03:32Z</time>
      </trkpt>
      <trkpt lat="45.1711" lon="5.78434">
        <ele>449.8</ele>
        <time>2021-04-10T13:03:33Z</time>
      </trkpt>
      <trkpt lat="45.17111" lon="5.78432">
        <ele>450</ele>
        <time>2021-04-10T13:03:34Z</time>
      </trkpt>
      <trkpt lat="45.17113" lon="5.78431">
        <ele>449.6</ele>
        <time>2021-04-10T13:03:35Z</time>
      </trkpt>
      <trkpt lat="45.17115" lon="5.78428">
        <ele>449.8</ele>
        <time>2021-04-10T13:03:36Z</time>
      </trkpt>
      <trkpt lat="45.17116" lon="5.78426">
        <ele>449.4</ele>
        <time>2021-04-10T13:03:37Z</time>
      </trkpt>
      <trkpt lat="45.17118" lon="5.78424">
        <ele>449.4</ele>
        <time>2021-04-10T13:03:38Z</time>
      </trkpt>
      <trkpt lat="45.17119" lon="5.78422">
        <ele>449.2</ele>
        <time>2021-04-10T13:03:39Z</time>
      </trkpt>
      <trkpt lat="45.1712" lon="5.7842">
        <ele>449.2</ele>
        <time>2021-04-10T13:03:40Z</time>
      </trkpt>
      <trkpt lat="45.1712" lon="5.78418">
        <ele>449</ele>
        <time>2021-04-10T13:03:41Z</time>
      </trkpt>
      <trkpt lat="45.17121" lon="5.78416">
        <ele>449.2</ele>
        <time>2021-04-10T13:03:42Z</time>
      </trkpt>
      <trkpt lat="45.17124" lon="5.78409">
        <ele>449</ele>
        <time>2021-04-10T13:03:43Z</time>
      </trkpt>
      <trkpt lat="45.17125" lon="5.78407">
        <ele>449.2</ele>
        <time>2021-04-10T13:03:44Z</time>
      </trkpt>
      <trkpt lat="45.17125" lon="5.78405">
        <ele>449</ele>
        <time>2021-04-10T13:03:45Z</time>
      </trkpt>
      <trkpt lat="45.17126" lon="5.78404">
        <ele>449</ele>
        <time>2021-04-10T13:03:46Z</time>
      </trkpt>
      <trkpt lat="45.17127" lon="5.78401">
        <ele>449</ele>
        <time>2021-04-10T13:03:47Z</time>
      </trkpt>
      <trkpt lat="45.17128" lon="5.78399">
        <ele>449</ele>
        <time>2021-04-10T13:03:48Z</time>
      </trkpt>
      <trkpt lat="45.17129" lon="5.78397">
        <ele>448.8</ele>
        <time>2021-04-10T13:03:49Z</time>
      </trkpt>
      <trkpt lat="45.17131" lon="5.78394">
        <ele>448.6</ele>
        <time>2021-04-10T13:03:50Z</time>
      </trkpt>
      <trkpt lat="45.17132" lon="5.78391">
        <ele>448.2</ele>
        <time>2021-04-10T13:03:51Z</time>
      </trkpt>
      <trkpt lat="45.17133" lon="5.78388">
        <ele>448</ele>
        <time>2021-04-10T13:03:52Z</time>
      </trkpt>
      <trkpt lat="45.17135" lon="5.78384">
        <ele>447.6</ele>
        <time>2021-04-10T13:03:53Z</time>
      </trkpt>
      <trkpt lat="45.17136" lon="5.7838">
        <ele>447.2</ele>
        <time>2021-04-10T13:03:54Z</time>
      </trkpt>
      <trkpt lat="45.17137" lon="5.78376">
        <ele>447.2</ele>
        <time>2021-04-10T13:03:55Z</time>
      </trkpt>
      <trkpt lat="45.17138" lon="5.78375">
        <ele>446.8</ele>
        <time>2021-04-10T13:03:56Z</time>
      </trkpt>
      <trkpt lat="45.1714" lon="5.78374">
        <ele>446.8</ele>
        <time>2021-04-10T13:03:57Z</time>
      </trkpt>
      <trkpt lat="45.17141" lon="5.78373">
        <ele>446.4</ele>
        <time>2021-04-10T13:03:58Z</time>
      </trkpt>
      <trkpt lat="45.17142" lon="5.78372">
        <ele>446.2</ele>
        <time>2021-04-10T13:03:59Z</time>
      </trkpt>
      <trkpt lat="45.17143" lon="5.78371">
        <ele>445.6</ele>
        <time>2021-04-10T13:04:00Z</time>
      </trkpt>
      <trkpt lat="45.17149" lon="5.78366">
        <ele>445.4</ele>
        <time>2021-04-10T13:04:01Z</time>
      </trkpt>
      <trkpt lat="45.17151" lon="5.78363">
        <ele>445</ele>
        <time>2021-04-10T13:04:02Z</time>
      </trkpt>
      <trkpt lat="45.17153" lon="5.78361">
        <ele>444.4</ele>
        <time>2021-04-10T13:04:03Z</time>
      </trkpt>
      <trkpt lat="45.17155" lon="5.78361">
        <ele>443.8</ele>
        <time>2021-04-10T13:04:04Z</time>
      </trkpt>
      <trkpt lat="45.17156" lon="5.7836">
        <ele>443</ele>
        <time>2021-04-10T13:04:05Z</time>
      </trkpt>
      <trkpt lat="45.17157" lon="5.78359">
        <ele>443</ele>
        <time>2021-04-10T13:04:06Z</time>
      </trkpt>
      <trkpt lat="45.17159" lon="5.78358">
        <ele>442.4</ele>
        <time>2021-04-10T13:04:07Z</time>
      </trkpt>
      <trkpt lat="45.1716" lon="5.78358">
        <ele>442.4</ele>
        <time>2021-04-10T13:04:08Z</time>
      </trkpt>
      <trkpt lat="45.17166" lon="5.78354">
        <ele>441.8</ele>
        <time>2021-04-10T13:04:09Z</time>
      </trkpt>
      <trkpt lat="45.17168" lon="5.78353">
        <ele>441.6</ele>
        <time>2021-04-10T13:04:10Z</time>
      </trkpt>
      <trkpt lat="45.1717" lon="5.78351">
        <ele>441</ele>
        <time>2021-04-10T13:04:11Z</time>
      </trkpt>
      <trkpt lat="45.17172" lon="5.7835">
        <ele>440.4</ele>
        <time>2021-04-10T13:04:12Z</time>
      </trkpt>
      <trkpt lat="45.17175" lon="5.78347">
        <ele>440</ele>
        <time>2021-04-10T13:04:13Z</time>
      </trkpt>
      <trkpt lat="45.17177" lon="5.78344">
        <ele>439.4</ele>
        <time>2021-04-10T13:04:14Z</time>
      </trkpt>
      <trkpt lat="45.1718" lon="5.78341">
        <ele>438.8</ele>
        <time>2021-04-10T13:04:15Z</time>
      </trkpt>
      <trkpt lat="45.17181" lon="5.78339">
        <ele>438.4</ele>
        <time>2021-04-10T13:04:16Z</time>
      </trkpt>
      <trkpt lat="45.17182" lon="5.78337">
        <ele>437.8</ele>
        <time>2021-04-10T13:04:17Z</time>
      </trkpt>
      <trkpt lat="45.17182" lon="5.78336">
        <ele>436.8</ele>
        <time>2021-04-10T13:04:18Z</time>
      </trkpt>
      <trkpt lat="45.17185" lon="5.7833">
        <ele>436.4</ele>
        <time>2021-04-10T13:04:19Z</time>
      </trkpt>
      <trkpt lat="45.17185" lon="5.78326">
        <ele>435.8</ele>
        <time>2021-04-10T13:04:20Z</time>
      </trkpt>
      <trkpt lat="45.17186" lon="5.78323">
        <ele>435.8</ele>
        <time>2021-04-10T13:04:21Z</time>
      </trkpt>
      <trkpt lat="45.17187" lon="5.7832">
        <ele>435.2</ele>
        <time>2021-04-10T13:04:22Z</time>
      </trkpt>
      <trkpt lat="45.17189" lon="5.78311">
        <ele>435.2</ele>
        <time>2021-04-10T13:04:23Z</time>
      </trkpt>
      <trkpt lat="45.1719" lon="5.78309">
        <ele>434.6</ele>
        <time>2021-04-10T13:04:24Z</time>
      </trkpt>
      <trkpt lat="45.1719" lon="5.78308">
        <ele>434.4</ele>
        <time>2021-04-10T13:04:25Z</time>
      </trkpt>
      <trkpt lat="45.17191" lon="5.78301">
        <ele>434</ele>
        <time>2021-04-10T13:04:26Z</time>
      </trkpt>
      <trkpt lat="45.17191" lon="5.78298">
        <ele>434</ele>
        <time>2021-04-10T13:04:27Z</time>
      </trkpt>
      <trkpt lat="45.17192" lon="5.78295">
        <ele>433.6</ele>
        <time>2021-04-10T13:04:28Z</time>
      </trkpt>
      <trkpt lat="45.17192" lon="5.78291">
        <ele>433.6</ele>
        <time>2021-04-10T13:04:29Z</time>
      </trkpt>
      <trkpt lat="45.17193" lon="5.78281">
        <ele>433.2</ele>
        <time>2021-04-10T13:04:30Z</time>
      </trkpt>
      <trkpt lat="45.17193" lon="5.78276">
        <ele>433.2</ele>
        <time>2021-04-10T13:04:31Z</time>
      </trkpt>
      <trkpt lat="45.17193" lon="5.78272">
        <ele>432.8</ele>
        <time>2021-04-10T13:04:32Z</time>
      </trkpt>
      <trkpt lat="45.17193" lon="5.78268">
        <ele>432.6</ele>
        <time>2021-04-10T13:04:33Z</time>
      </trkpt>
      <trkpt lat="45.17194" lon="5.78263">
        <ele>432</ele>
        <time>2021-04-10T13:04:34Z</time>
      </trkpt>
      <trkpt lat="45.17195" lon="5.78259">
        <ele>432.2</ele>
        <time>2021-04-10T13:04:35Z</time>
      </trkpt>
      <trkpt lat="45.17195" lon="5.78255">
        <ele>432</ele>
        <time>2021-04-10T13:04:36Z</time>
      </trkpt>
      <trkpt lat="45.17195" lon="5.78252">
        <ele>432</ele>
        <time>2021-04-10T13:04:37Z</time>
      </trkpt>
      <trkpt lat="45.17195" lon="5.78248">
        <ele>432.2</ele>
        <time>2021-04-10T13:04:38Z</time>
      </trkpt>
      <trkpt lat="45.17195" lon="5.78245">
        <ele>432</ele>
        <time>2021-04-10T13:04:39Z</time>
      </trkpt>
      <trkpt lat="45.17195" lon="5.78242">
        <ele>431.8</ele>
        <time>2021-04-10T13:04:40Z</time>
      </trkpt>
      <trkpt lat="45.17195" lon="5.78242">
        <ele>432</ele>
        <time>2021-04-10T13:04:41Z</time>
      </trkpt>
      <trkpt lat="45.17195" lon="5.78242">
        <ele>431.6</ele>
        <time>2021-04-10T13:04:42Z</time>
      </trkpt>
      <trkpt lat="45.17195" lon="5.78242">
        <ele>431.8</ele>
        <time>2021-04-10T13:04:43Z</time>
      </trkpt>
      <trkpt lat="45.17197" lon="5.78239">
        <ele>431.6</ele>
        <time>2021-04-10T13:04:44Z</time>
      </trkpt>
      <trkpt lat="45.172" lon="5.78237">
        <ele>431.8</ele>
        <time>2021-04-10T13:04:45Z</time>
      </trkpt>
      <trkpt lat="45.17203" lon="5.78235">
        <ele>431.6</ele>
        <time>2021-04-10T13:04:46Z</time>
      </trkpt>
      <trkpt lat="45.17205" lon="5.78233">
        <ele>432</ele>
        <time>2021-04-10T13:04:47Z</time>
      </trkpt>
      <trkpt lat="45.17208" lon="5.7823">
        <ele>431.8</ele>
        <time>2021-04-10T13:04:48Z</time>
      </trkpt>
      <trkpt lat="45.17213" lon="5.78228">
        <ele>432.2</ele>
        <time>2021-04-10T13:04:49Z</time>
      </trkpt>
      <trkpt lat="45.17215" lon="5.78226">
        <ele>431.8</ele>
        <time>2021-04-10T13:04:50Z</time>
      </trkpt>
      <trkpt lat="45.17217" lon="5.78224">
        <ele>432</ele>
        <time>2021-04-10T13:04:51Z</time>
      </trkpt>
      <trkpt lat="45.17219" lon="5.78223">
        <ele>431.6</ele>
        <time>2021-04-10T13:04:52Z</time>
      </trkpt>
      <trkpt lat="45.1722" lon="5.78221">
        <ele>431.4</ele>
        <time>2021-04-10T13:04:53Z</time>
      </trkpt>
      <trkpt lat="45.1722" lon="5.78221">
        <ele>431.4</ele>
        <time>2021-04-10T13:04:54Z</time>
      </trkpt>
      <trkpt lat="45.1722" lon="5.78221">
        <ele>431.4</ele>
        <time>2021-04-10T13:04:55Z</time>
      </trkpt>
      <trkpt lat="45.1722" lon="5.78221">
        <ele>431.6</ele>
        <time>2021-04-10T13:04:56Z</time>
      </trkpt>
      <trkpt lat="45.17222" lon="5.78219">
        <ele>431.6</ele>
        <time>2021-04-10T13:04:57Z</time>
      </trkpt>
      <trkpt lat="45.17223" lon="5.78218">
        <ele>432</ele>
        <time>2021-04-10T13:04:58Z</time>
      </trkpt>
      <trkpt lat="45.17225" lon="5.78216">
        <ele>432.2</ele>
        <time>2021-04-10T13:04:59Z</time>
      </trkpt>
      <trkpt lat="45.17226" lon="5.78215">
        <ele>432.4</ele>
        <time>2021-04-10T13:05:00Z</time>
      </trkpt>
      <trkpt lat="45.17228" lon="5.78213">
        <ele>432.6</ele>
        <time>2021-04-10T13:05:01Z</time>
      </trkpt>
      <trkpt lat="45.17229" lon="5.78213">
        <ele>432.8</ele>
        <time>2021-04-10T13:05:02Z</time>
      </trkpt>
      <trkpt lat="45.17231" lon="5.78212">
        <ele>433</ele>
        <time>2021-04-10T13:05:03Z</time>
      </trkpt>
      <trkpt lat="45.17232" lon="5.78212">
        <ele>433.2</ele>
        <time>2021-04-10T13:05:04Z</time>
      </trkpt>
      <trkpt lat="45.17233" lon="5.78212">
        <ele>433</ele>
        <time>2021-04-10T13:05:05Z</time>
      </trkpt>
      <trkpt lat="45.17235" lon="5.78212">
        <ele>433.4</ele>
        <time>2021-04-10T13:05:06Z</time>
      </trkpt>
      <trkpt lat="45.17236" lon="5.78211">
        <ele>433.6</ele>
        <time>2021-04-10T13:05:07Z</time>
      </trkpt>
      <trkpt lat="45.17237" lon="5.78211">
        <ele>433.8</ele>
        <time>2021-04-10T13:05:08Z</time>
      </trkpt>
      <trkpt lat="45.17238" lon="5.7821">
        <ele>433.8</ele>
        <time>2021-04-10T13:05:09Z</time>
      </trkpt>
      <trkpt lat="45.17239" lon="5.78209">
        <ele>433.8</ele>
        <time>2021-04-10T13:05:10Z</time>
      </trkpt>
      <trkpt lat="45.1724" lon="5.78208">
        <ele>433.8</ele>
        <time>2021-04-10T13:05:11Z</time>
      </trkpt>
      <trkpt lat="45.17242" lon="5.78207">
        <ele>434</ele>
        <time>2021-04-10T13:05:12Z</time>
      </trkpt>
      <trkpt lat="45.17243" lon="5.78205">
        <ele>434</ele>
        <time>2021-04-10T13:05:13Z</time>
      </trkpt>
      <trkpt lat="45.17244" lon="5.78204">
        <ele>434</ele>
        <time>2021-04-10T13:05:14Z</time>
      </trkpt>
      <trkpt lat="45.17245" lon="5.78203">
        <ele>434.2</ele>
        <time>2021-04-10T13:05:15Z</time>
      </trkpt>
      <trkpt lat="45.17246" lon="5.78203">
        <ele>434.4</ele>
        <time>2021-04-10T13:05:16Z</time>
      </trkpt>
      <trkpt lat="45.17248" lon="5.78203">
        <ele>434.6</ele>
        <time>2021-04-10T13:05:17Z</time>
      </trkpt>
      <trkpt lat="45.17249" lon="5.78203">
        <ele>435</ele>
        <time>2021-04-10T13:05:18Z</time>
      </trkpt>
      <trkpt lat="45.17251" lon="5.78203">
        <ele>435</ele>
        <time>2021-04-10T13:05:19Z</time>
      </trkpt>
      <trkpt lat="45.17252" lon="5.78204">
        <ele>435.2</ele>
        <time>2021-04-10T13:05:20Z</time>
      </trkpt>
      <trkpt lat="45.17253" lon="5.78204">
        <ele>435.4</ele>
        <time>2021-04-10T13:05:21Z</time>
      </trkpt>
      <trkpt lat="45.17255" lon="5.78204">
        <ele>435.4</ele>
        <time>2021-04-10T13:05:22Z</time>
      </trkpt>
      <trkpt lat="45.17256" lon="5.78203">
        <ele>435.2</ele>
        <time>2021-04-10T13:05:23Z</time>
      </trkpt>
      <trkpt lat="45.17257" lon="5.78203">
        <ele>435.2</ele>
        <time>2021-04-10T13:05:24Z</time>
      </trkpt>
      <trkpt lat="45.17259" lon="5.78202">
        <ele>435.4</ele>
        <time>2021-04-10T13:05:25Z</time>
      </trkpt>
      <trkpt lat="45.1726" lon="5.78201">
        <ele>435.6</ele>
        <time>2021-04-10T13:05:26Z</time>
      </trkpt>
      <trkpt lat="45.17261" lon="5.78201">
        <ele>435.8</ele>
        <time>2021-04-10T13:05:27Z</time>
      </trkpt>
      <trkpt lat="45.17262" lon="5.782">
        <ele>436</ele>
        <time>2021-04-10T13:05:28Z</time>
      </trkpt>
      <trkpt lat="45.17264" lon="5.782">
        <ele>436.4</ele>
        <time>2021-04-10T13:05:29Z</time>
      </trkpt>
      <trkpt lat="45.17265" lon="5.78199">
        <ele>436.8</ele>
        <time>2021-04-10T13:05:30Z</time>
      </trkpt>
      <trkpt lat="45.17266" lon="5.78199">
        <ele>437</ele>
        <time>2021-04-10T13:05:31Z</time>
      </trkpt>
      <trkpt lat="45.17267" lon="5.78198">
        <ele>437</ele>
        <time>2021-04-10T13:05:32Z</time>
      </trkpt>
      <trkpt lat="45.17268" lon="5.78198">
        <ele>437</ele>
        <time>2021-04-10T13:05:33Z</time>
      </trkpt>
      <trkpt lat="45.17269" lon="5.78198">
        <ele>437</ele>
        <time>2021-04-10T13:05:34Z</time>
      </trkpt>
      <trkpt lat="45.1727" lon="5.78197">
        <ele>436.8</ele>
        <time>2021-04-10T13:05:35Z</time>
      </trkpt>
      <trkpt lat="45.17271" lon="5.78197">
        <ele>437</ele>
        <time>2021-04-10T13:05:36Z</time>
      </trkpt>
      <trkpt lat="45.17272" lon="5.78196">
        <ele>437.2</ele>
        <time>2021-04-10T13:05:37Z</time>
      </trkpt>
      <trkpt lat="45.17273" lon="5.78196">
        <ele>437.2</ele>
        <time>2021-04-10T13:05:38Z</time>
      </trkpt>
      <trkpt lat="45.17275" lon="5.78196">
        <ele>437.4</ele>
        <time>2021-04-10T13:05:39Z</time>
      </trkpt>
      <trkpt lat="45.17277" lon="5.78195">
        <ele>437.6</ele>
        <time>2021-04-10T13:05:40Z</time>
      </trkpt>
      <trkpt lat="45.17279" lon="5.78195">
        <ele>437.8</ele>
        <time>2021-04-10T13:05:41Z</time>
      </trkpt>
      <trkpt lat="45.17281" lon="5.78195">
        <ele>437.8</ele>
        <time>2021-04-10T13:05:42Z</time>
      </trkpt>
      <trkpt lat="45.17283" lon="5.78194">
        <ele>438</ele>
        <time>2021-04-10T13:05:43Z</time>
      </trkpt>
      <trkpt lat="45.17285" lon="5.78194">
        <ele>438</ele>
        <time>2021-04-10T13:05:44Z</time>
      </trkpt>
      <trkpt lat="45.17286" lon="5.78194">
        <ele>438</ele>
        <time>2021-04-10T13:05:45Z</time>
      </trkpt>
      <trkpt lat="45.17287" lon="5.78194">
        <ele>438</ele>
        <time>2021-04-10T13:05:46Z</time>
      </trkpt>
      <trkpt lat="45.17289" lon="5.78194">
        <ele>438</ele>
        <time>2021-04-10T13:05:47Z</time>
      </trkpt>
      <trkpt lat="45.1729" lon="5.78193">
        <ele>438.2</ele>
        <time>2021-04-10T13:05:48Z</time>
      </trkpt>
      <trkpt lat="45.17291" lon="5.78193">
        <ele>438.4</ele>
        <time>2021-04-10T13:05:49Z</time>
      </trkpt>
      <trkpt lat="45.17293" lon="5.78193">
        <ele>438.8</ele>
        <time>2021-04-10T13:05:50Z</time>
      </trkpt>
      <trkpt lat="45.17294" lon="5.78192">
        <ele>439</ele>
        <time>2021-04-10T13:05:51Z</time>
      </trkpt>
      <trkpt lat="45.17295" lon="5.78191">
        <ele>439.2</ele>
        <time>2021-04-10T13:05:52Z</time>
      </trkpt>
      <trkpt lat="45.17296" lon="5.7819">
        <ele>439.2</ele>
        <time>2021-04-10T13:05:53Z</time>
      </trkpt>
      <trkpt lat="45.17298" lon="5.7819">
        <ele>439.4</ele>
        <time>2021-04-10T13:05:54Z</time>
      </trkpt>
      <trkpt lat="45.17299" lon="5.78189">
        <ele>439.6</ele>
        <time>2021-04-10T13:05:55Z</time>
      </trkpt>
      <trkpt lat="45.173" lon="5.78188">
        <ele>439.8</ele>
        <time>2021-04-10T13:05:56Z</time>
      </trkpt>
      <trkpt lat="45.17301" lon="5.78187">
        <ele>440</ele>
        <time>2021-04-10T13:05:57Z</time>
      </trkpt>
      <trkpt lat="45.17303" lon="5.78186">
        <ele>440.2</ele>
        <time>2021-04-10T13:05:58Z</time>
      </trkpt>
      <trkpt lat="45.17304" lon="5.78185">
        <ele>440.2</ele>
        <time>2021-04-10T13:05:59Z</time>
      </trkpt>
      <trkpt lat="45.17305" lon="5.78184">
        <ele>440.4</ele>
        <time>2021-04-10T13:06:00Z</time>
      </trkpt>
      <trkpt lat="45.17307" lon="5.78184">
        <ele>440.4</ele>
        <time>2021-04-10T13:06:01Z</time>
      </trkpt>
      <trkpt lat="45.17308" lon="5.78183">
        <ele>440.6</ele>
        <time>2021-04-10T13:06:02Z</time>
      </trkpt>
      <trkpt lat="45.17309" lon="5.78182">
        <ele>440.8</ele>
        <time>2021-04-10T13:06:03Z</time>
      </trkpt>
      <trkpt lat="45.17311" lon="5.78181">
        <ele>441</ele>
        <time>2021-04-10T13:06:04Z</time>
      </trkpt>
      <trkpt lat="45.17312" lon="5.7818">
        <ele>441.2</ele>
        <time>2021-04-10T13:06:05Z</time>
      </trkpt>
      <trkpt lat="45.17313" lon="5.78179">
        <ele>441.4</ele>
        <time>2021-04-10T13:06:06Z</time>
      </trkpt>
      <trkpt lat="45.17314" lon="5.78177">
        <ele>441.6</ele>
        <time>2021-04-10T13:06:07Z</time>
      </trkpt>
      <trkpt lat="45.17316" lon="5.78176">
        <ele>441.6</ele>
        <time>2021-04-10T13:06:08Z</time>
      </trkpt>
      <trkpt lat="45.17317" lon="5.78175">
        <ele>442</ele>
        <time>2021-04-10T13:06:09Z</time>
      </trkpt>
      <trkpt lat="45.17318" lon="5.78174">
        <ele>442.2</ele>
        <time>2021-04-10T13:06:10Z</time>
      </trkpt>
      <trkpt lat="45.17319" lon="5.78172">
        <ele>442.6</ele>
        <time>2021-04-10T13:06:11Z</time>
      </trkpt>
      <trkpt lat="45.17321" lon="5.78171">
        <ele>442.8</ele>
        <time>2021-04-10T13:06:12Z</time>
      </trkpt>
      <trkpt lat="45.17322" lon="5.7817">
        <ele>443</ele>
        <time>2021-04-10T13:06:13Z</time>
      </trkpt>
      <trkpt lat="45.17324" lon="5.78169">
        <ele>443</ele>
        <time>2021-04-10T13:06:14Z</time>
      </trkpt>
      <trkpt lat="45.17325" lon="5.78167">
        <ele>443</ele>
        <time>2021-04-10T13:06:15Z</time>
      </trkpt>
      <trkpt lat="45.17326" lon="5.78166">
        <ele>443.2</ele>
        <time>2021-04-10T13:06:16Z</time>
      </trkpt>
      <trkpt lat="45.17327" lon="5.78165">
        <ele>443.2</ele>
        <time>2021-04-10T13:06:17Z</time>
      </trkpt>
      <trkpt lat="45.17328" lon="5.78163">
        <ele>443.2</ele>
        <time>2021-04-10T13:06:18Z</time>
      </trkpt>
      <trkpt lat="45.17329" lon="5.78162">
        <ele>443.2</ele>
        <time>2021-04-10T13:06:19Z</time>
      </trkpt>
      <trkpt lat="45.1733" lon="5.78161">
        <ele>443</ele>
        <time>2021-04-10T13:06:20Z</time>
      </trkpt>
      <trkpt lat="45.17331" lon="5.78159">
        <ele>443.2</ele>
        <time>2021-04-10T13:06:21Z</time>
      </trkpt>
      <trkpt lat="45.17332" lon="5.78158">
        <ele>443.2</ele>
        <time>2021-04-10T13:06:22Z</time>
      </trkpt>
      <trkpt lat="45.17333" lon="5.78156">
        <ele>443.4</ele>
        <time>2021-04-10T13:06:23Z</time>
      </trkpt>
      <trkpt lat="45.17334" lon="5.78155">
        <ele>443.6</ele>
        <time>2021-04-10T13:06:24Z</time>
      </trkpt>
      <trkpt lat="45.17335" lon="5.78154">
        <ele>443.8</ele>
        <time>2021-04-10T13:06:25Z</time>
      </trkpt>
      <trkpt lat="45.17336" lon="5.78154">
        <ele>444.2</ele>
        <time>2021-04-10T13:06:26Z</time>
      </trkpt>
      <trkpt lat="45.17337" lon="5.78153">
        <ele>444.6</ele>
        <time>2021-04-10T13:06:27Z</time>
      </trkpt>
      <trkpt lat="45.17338" lon="5.78152">
        <ele>444.6</ele>
        <time>2021-04-10T13:06:28Z</time>
      </trkpt>
      <trkpt lat="45.17339" lon="5.78151">
        <ele>444.6</ele>
        <time>2021-04-10T13:06:29Z</time>
      </trkpt>
      <trkpt lat="45.1734" lon="5.7815">
        <ele>444.8</ele>
        <time>2021-04-10T13:06:30Z</time>
      </trkpt>
      <trkpt lat="45.17341" lon="5.78149">
        <ele>444.8</ele>
        <time>2021-04-10T13:06:31Z</time>
      </trkpt>
      <trkpt lat="45.17342" lon="5.78148">
        <ele>444.8</ele>
        <time>2021-04-10T13:06:32Z</time>
      </trkpt>
      <trkpt lat="45.17343" lon="5.78147">
        <ele>444.8</ele>
        <time>2021-04-10T13:06:33Z</time>
      </trkpt>
      <trkpt lat="45.17344" lon="5.78147">
        <ele>444.8</ele>
        <time>2021-04-10T13:06:34Z</time>
      </trkpt>
      <trkpt lat="45.17344" lon="5.78146">
        <ele>444.8</ele>
        <time>2021-04-10T13:06:35Z</time>
      </trkpt>
      <trkpt lat="45.17345" lon="5.78145">
        <ele>444.8</ele>
        <time>2021-04-10T13:06:36Z</time>
      </trkpt>
      <trkpt lat="45.17346" lon="5.78144">
        <ele>445.2</ele>
        <time>2021-04-10T13:06:37Z</time>
      </trkpt>
      <trkpt lat="45.17347" lon="5.78144">
        <ele>445</ele>
        <time>2021-04-10T13:06:38Z</time>
      </trkpt>
      <trkpt lat="45.17348" lon="5.78143">
        <ele>445.2</ele>
        <time>2021-04-10T13:06:39Z</time>
      </trkpt>
      <trkpt lat="45.17349" lon="5.78142">
        <ele>445.4</ele>
        <time>2021-04-10T13:06:40Z</time>
      </trkpt>
      <trkpt lat="45.17349" lon="5.78141">
        <ele>445.6</ele>
        <time>2021-04-10T13:06:41Z</time>
      </trkpt>
      <trkpt lat="45.1735" lon="5.78141">
        <ele>445.4</ele>
        <time>2021-04-10T13:06:42Z</time>
      </trkpt>
      <trkpt lat="45.17352" lon="5.78139">
        <ele>445.4</ele>
        <time>2021-04-10T13:06:43Z</time>
      </trkpt>
      <trkpt lat="45.17354" lon="5.78137">
        <ele>445.2</ele>
        <time>2021-04-10T13:06:44Z</time>
      </trkpt>
      <trkpt lat="45.17356" lon="5.78135">
        <ele>445.4</ele>
        <time>2021-04-10T13:06:45Z</time>
      </trkpt>
      <trkpt lat="45.17358" lon="5.78133">
        <ele>445.4</ele>
        <time>2021-04-10T13:06:46Z</time>
      </trkpt>
      <trkpt lat="45.1736" lon="5.78131">
        <ele>445.2</ele>
        <time>2021-04-10T13:06:47Z</time>
      </trkpt>
      <trkpt lat="45.17362" lon="5.78129">
        <ele>445</ele>
        <time>2021-04-10T13:06:48Z</time>
      </trkpt>
      <trkpt lat="45.17364" lon="5.78127">
        <ele>445.2</ele>
        <time>2021-04-10T13:06:49Z</time>
      </trkpt>
      <trkpt lat="45.17367" lon="5.78122">
        <ele>445.2</ele>
        <time>2021-04-10T13:06:50Z</time>
      </trkpt>
      <trkpt lat="45.17368" lon="5.78121">
        <ele>445.2</ele>
        <time>2021-04-10T13:06:51Z</time>
      </trkpt>
      <trkpt lat="45.17368" lon="5.78119">
        <ele>445</ele>
        <time>2021-04-10T13:06:52Z</time>
      </trkpt>
      <trkpt lat="45.17369" lon="5.78117">
        <ele>445</ele>
        <time>2021-04-10T13:06:53Z</time>
      </trkpt>
      <trkpt lat="45.1737" lon="5.78113">
        <ele>444.8</ele>
        <time>2021-04-10T13:06:54Z</time>
      </trkpt>
      <trkpt lat="45.17372" lon="5.78108">
        <ele>444.8</ele>
        <time>2021-04-10T13:06:55Z</time>
      </trkpt>
      <trkpt lat="45.17374" lon="5.78103">
        <ele>444.4</ele>
        <time>2021-04-10T13:06:56Z</time>
      </trkpt>
      <trkpt lat="45.17375" lon="5.78098">
        <ele>444.4</ele>
        <time>2021-04-10T13:06:57Z</time>
      </trkpt>
      <trkpt lat="45.17377" lon="5.78093">
        <ele>444</ele>
        <time>2021-04-10T13:06:58Z</time>
      </trkpt>
      <trkpt lat="45.17379" lon="5.78093">
        <ele>444.2</ele>
        <time>2021-04-10T13:06:59Z</time>
      </trkpt>
      <trkpt lat="45.1738" lon="5.78093">
        <ele>444.2</ele>
        <time>2021-04-10T13:07:00Z</time>
      </trkpt>
      <trkpt lat="45.17382" lon="5.78093">
        <ele>444.4</ele>
        <time>2021-04-10T13:07:01Z</time>
      </trkpt>
      <trkpt lat="45.17384" lon="5.78092">
        <ele>444</ele>
        <time>2021-04-10T13:07:02Z</time>
      </trkpt>
      <trkpt lat="45.17391" lon="5.78091">
        <ele>444</ele>
        <time>2021-04-10T13:07:03Z</time>
      </trkpt>
      <trkpt lat="45.17393" lon="5.78093">
        <ele>443.8</ele>
        <time>2021-04-10T13:07:04Z</time>
      </trkpt>
      <trkpt lat="45.17395" lon="5.78095">
        <ele>443.6</ele>
        <time>2021-04-10T13:07:05Z</time>
      </trkpt>
      <trkpt lat="45.17398" lon="5.78098">
        <ele>443</ele>
        <time>2021-04-10T13:07:06Z</time>
      </trkpt>
      <trkpt lat="45.174" lon="5.781">
        <ele>443</ele>
        <time>2021-04-10T13:07:07Z</time>
      </trkpt>
      <trkpt lat="45.17403" lon="5.78103">
        <ele>442.4</ele>
        <time>2021-04-10T13:07:08Z</time>
      </trkpt>
      <trkpt lat="45.17405" lon="5.78106">
        <ele>442.2</ele>
        <time>2021-04-10T13:07:09Z</time>
      </trkpt>
      <trkpt lat="45.17406" lon="5.78109">
        <ele>441.8</ele>
        <time>2021-04-10T13:07:10Z</time>
      </trkpt>
      <trkpt lat="45.17408" lon="5.78111">
        <ele>441.4</ele>
        <time>2021-04-10T13:07:11Z</time>
      </trkpt>
      <trkpt lat="45.17409" lon="5.78114">
        <ele>440.8</ele>
        <time>2021-04-10T13:07:12Z</time>
      </trkpt>
      <trkpt lat="45.1741" lon="5.78116">
        <ele>440.4</ele>
        <time>2021-04-10T13:07:13Z</time>
      </trkpt>
      <trkpt lat="45.17411" lon="5.78118">
        <ele>439.8</ele>
        <time>2021-04-10T13:07:14Z</time>
      </trkpt>
      <trkpt lat="45.17411" lon="5.78121">
        <ele>439.2</ele>
        <time>2021-04-10T13:07:15Z</time>
      </trkpt>
      <trkpt lat="45.17412" lon="5.78123">
        <ele>438.8</ele>
        <time>2021-04-10T13:07:16Z</time>
      </trkpt>
      <trkpt lat="45.17415" lon="5.78131">
        <ele>438.2</ele>
        <time>2021-04-10T13:07:17Z</time>
      </trkpt>
      <trkpt lat="45.17416" lon="5.78137">
        <ele>438.2</ele>
        <time>2021-04-10T13:07:18Z</time>
      </trkpt>
      <trkpt lat="45.17418" lon="5.7814">
        <ele>437.8</ele>
        <time>2021-04-10T13:07:19Z</time>
      </trkpt>
      <trkpt lat="45.17419" lon="5.78144">
        <ele>438</ele>
        <time>2021-04-10T13:07:20Z</time>
      </trkpt>
      <trkpt lat="45.1742" lon="5.78149">
        <ele>437.6</ele>
        <time>2021-04-10T13:07:21Z</time>
      </trkpt>
      <trkpt lat="45.17421" lon="5.78152">
        <ele>437.6</ele>
        <time>2021-04-10T13:07:22Z</time>
      </trkpt>
      <trkpt lat="45.17422" lon="5.78155">
        <ele>437.2</ele>
        <time>2021-04-10T13:07:23Z</time>
      </trkpt>
      <trkpt lat="45.17423" lon="5.78158">
        <ele>437.2</ele>
        <time>2021-04-10T13:07:24Z</time>
      </trkpt>
      <trkpt lat="45.17424" lon="5.78161">
        <ele>436.6</ele>
        <time>2021-04-10T13:07:25Z</time>
      </trkpt>
      <trkpt lat="45.17425" lon="5.78163">
        <ele>436.2</ele>
        <time>2021-04-10T13:07:26Z</time>
      </trkpt>
      <trkpt lat="45.17426" lon="5.78165">
        <ele>435.6</ele>
        <time>2021-04-10T13:07:27Z</time>
      </trkpt>
      <trkpt lat="45.17427" lon="5.78167">
        <ele>435.2</ele>
        <time>2021-04-10T13:07:28Z</time>
      </trkpt>
      <trkpt lat="45.17428" lon="5.78169">
        <ele>435</ele>
        <time>2021-04-10T13:07:29Z</time>
      </trkpt>
      <trkpt lat="45.17432" lon="5.78177">
        <ele>434.4</ele>
        <time>2021-04-10T13:07:30Z</time>
      </trkpt>
      <trkpt lat="45.17435" lon="5.78182">
        <ele>434.4</ele>
        <time>2021-04-10T13:07:31Z</time>
      </trkpt>
      <trkpt lat="45.17436" lon="5.78185">
        <ele>434</ele>
        <time>2021-04-10T13:07:32Z</time>
      </trkpt>
      <trkpt lat="45.17438" lon="5.78188">
        <ele>434</ele>
        <time>2021-04-10T13:07:33Z</time>
      </trkpt>
      <trkpt lat="45.1744" lon="5.78192">
        <ele>433.8</ele>
        <time>2021-04-10T13:07:34Z</time>
      </trkpt>
      <trkpt lat="45.17442" lon="5.78195">
        <ele>433.8</ele>
        <time>2021-04-10T13:07:35Z</time>
      </trkpt>
      <trkpt lat="45.17443" lon="5.78198">
        <ele>433.2</ele>
        <time>2021-04-10T13:07:36Z</time>
      </trkpt>
      <trkpt lat="45.17445" lon="5.782">
        <ele>432.8</ele>
        <time>2021-04-10T13:07:37Z</time>
      </trkpt>
      <trkpt lat="45.17447" lon="5.78203">
        <ele>432.4</ele>
        <time>2021-04-10T13:07:38Z</time>
      </trkpt>
      <trkpt lat="45.17448" lon="5.78205">
        <ele>432</ele>
        <time>2021-04-10T13:07:39Z</time>
      </trkpt>
      <trkpt lat="45.1745" lon="5.78207">
        <ele>431.4</ele>
        <time>2021-04-10T13:07:40Z</time>
      </trkpt>
      <trkpt lat="45.17451" lon="5.78209">
        <ele>430.8</ele>
        <time>2021-04-10T13:07:41Z</time>
      </trkpt>
      <trkpt lat="45.17452" lon="5.78211">
        <ele>430.4</ele>
        <time>2021-04-10T13:07:42Z</time>
      </trkpt>
      <trkpt lat="45.17452" lon="5.78212">
        <ele>429.8</ele>
        <time>2021-04-10T13:07:43Z</time>
      </trkpt>
      <trkpt lat="45.17453" lon="5.78213">
        <ele>429.8</ele>
        <time>2021-04-10T13:07:44Z</time>
      </trkpt>
      <trkpt lat="45.17454" lon="5.78215">
        <ele>429.6</ele>
        <time>2021-04-10T13:07:45Z</time>
      </trkpt>
      <trkpt lat="45.17457" lon="5.78221">
        <ele>429.8</ele>
        <time>2021-04-10T13:07:46Z</time>
      </trkpt>
      <trkpt lat="45.17457" lon="5.78221">
        <ele>429.4</ele>
        <time>2021-04-10T13:07:47Z</time>
      </trkpt>
      <trkpt lat="45.17457" lon="5.78221">
        <ele>429.6</ele>
        <time>2021-04-10T13:07:48Z</time>
      </trkpt>
      <trkpt lat="45.17458" lon="5.78221">
        <ele>429</ele>
        <time>2021-04-10T13:07:49Z</time>
      </trkpt>
      <trkpt lat="45.1746" lon="5.78222">
        <ele>429</ele>
        <time>2021-04-10T13:07:50Z</time>
      </trkpt>
      <trkpt lat="45.17461" lon="5.78223">
        <ele>428.4</ele>
        <time>2021-04-10T13:07:51Z</time>
      </trkpt>
      <trkpt lat="45.17462" lon="5.78223">
        <ele>428.2</ele>
        <time>2021-04-10T13:07:52Z</time>
      </trkpt>
      <trkpt lat="45.17463" lon="5.78224">
        <ele>427.6</ele>
        <time>2021-04-10T13:07:53Z</time>
      </trkpt>
      <trkpt lat="45.17465" lon="5.78225">
        <ele>427.4</ele>
        <time>2021-04-10T13:07:54Z</time>
      </trkpt>
      <trkpt lat="45.17466" lon="5.78225">
        <ele>427</ele>
        <time>2021-04-10T13:07:55Z</time>
      </trkpt>
      <trkpt lat="45.17464" lon="5.78223">
        <ele>426.8</ele>
        <time>2021-04-10T13:07:56Z</time>
      </trkpt>
      <trkpt lat="45.17463" lon="5.78221">
        <ele>426.2</ele>
        <time>2021-04-10T13:07:57Z</time>
      </trkpt>
      <trkpt lat="45.17462" lon="5.78219">
        <ele>425.6</ele>
        <time>2021-04-10T13:07:58Z</time>
      </trkpt>
      <trkpt lat="45.1746" lon="5.78217">
        <ele>425.8</ele>
        <time>2021-04-10T13:07:59Z</time>
      </trkpt>
      <trkpt lat="45.17459" lon="5.78215">
        <ele>425.4</ele>
        <time>2021-04-10T13:08:00Z</time>
      </trkpt>
      <trkpt lat="45.17458" lon="5.78213">
        <ele>425.4</ele>
        <time>2021-04-10T13:08:01Z</time>
      </trkpt>
      <trkpt lat="45.17458" lon="5.78211">
        <ele>425</ele>
        <time>2021-04-10T13:08:02Z</time>
      </trkpt>
      <trkpt lat="45.17457" lon="5.78209">
        <ele>424.8</ele>
        <time>2021-04-10T13:08:03Z</time>
      </trkpt>
      <trkpt lat="45.17456" lon="5.78206">
        <ele>424.6</ele>
        <time>2021-04-10T13:08:04Z</time>
      </trkpt>
      <trkpt lat="45.17456" lon="5.78204">
        <ele>424.4</ele>
        <time>2021-04-10T13:08:05Z</time>
      </trkpt>
      <trkpt lat="45.17455" lon="5.78202">
        <ele>423.8</ele>
        <time>2021-04-10T13:08:06Z</time>
      </trkpt>
      <trkpt lat="45.17455" lon="5.782">
        <ele>423.6</ele>
        <time>2021-04-10T13:08:07Z</time>
      </trkpt>
      <trkpt lat="45.17454" lon="5.78197">
        <ele>423.2</ele>
        <time>2021-04-10T13:08:08Z</time>
      </trkpt>
      <trkpt lat="45.17454" lon="5.78195">
        <ele>422.4</ele>
        <time>2021-04-10T13:08:09Z</time>
      </trkpt>
      <trkpt lat="45.17454" lon="5.78192">
        <ele>422.6</ele>
        <time>2021-04-10T13:08:10Z</time>
      </trkpt>
      <trkpt lat="45.17453" lon="5.78189">
        <ele>422.6</ele>
        <time>2021-04-10T13:08:11Z</time>
      </trkpt>
      <trkpt lat="45.17454" lon="5.7819">
        <ele>422.8</ele>
        <time>2021-04-10T13:08:12Z</time>
      </trkpt>
      <trkpt lat="45.17455" lon="5.7819">
        <ele>422.2</ele>
        <time>2021-04-10T13:08:13Z</time>
      </trkpt>
      <trkpt lat="45.17456" lon="5.78191">
        <ele>422</ele>
        <time>2021-04-10T13:08:14Z</time>
      </trkpt>
      <trkpt lat="45.17457" lon="5.78192">
        <ele>421.6</ele>
        <time>2021-04-10T13:08:15Z</time>
      </trkpt>
      <trkpt lat="45.17457" lon="5.78192">
        <ele>421.4</ele>
        <time>2021-04-10T13:08:16Z</time>
      </trkpt>
      <trkpt lat="45.17458" lon="5.78193">
        <ele>420.8</ele>
        <time>2021-04-10T13:08:17Z</time>
      </trkpt>
      <trkpt lat="45.17459" lon="5.78193">
        <ele>420.2</ele>
        <time>2021-04-10T13:08:18Z</time>
      </trkpt>
      <trkpt lat="45.1746" lon="5.78194">
        <ele>420</ele>
        <time>2021-04-10T13:08:19Z</time>
      </trkpt>
      <trkpt lat="45.17461" lon="5.78194">
        <ele>419.6</ele>
        <time>2021-04-10T13:08:20Z</time>
      </trkpt>
      <trkpt lat="45.17462" lon="5.78195">
        <ele>420</ele>
        <time>2021-04-10T13:08:21Z</time>
      </trkpt>
      <trkpt lat="45.17462" lon="5.78198">
        <ele>419.8</ele>
        <time>2021-04-10T13:08:22Z</time>
      </trkpt>
      <trkpt lat="45.17463" lon="5.78201">
        <ele>419.6</ele>
        <time>2021-04-10T13:08:23Z</time>
      </trkpt>
      <trkpt lat="45.17464" lon="5.78204">
        <ele>419.2</ele>
        <time>2021-04-10T13:08:24Z</time>
      </trkpt>
      <trkpt lat="45.17464" lon="5.78207">
        <ele>419.2</ele>
        <time>2021-04-10T13:08:25Z</time>
      </trkpt>
      <trkpt lat="45.17465" lon="5.78209">
        <ele>418.8</ele>
        <time>2021-04-10T13:08:26Z</time>
      </trkpt>
      <trkpt lat="45.17465" lon="5.78211">
        <ele>418.6</ele>
        <time>2021-04-10T13:08:27Z</time>
      </trkpt>
      <trkpt lat="45.17466" lon="5.78213">
        <ele>418.2</ele>
        <time>2021-04-10T13:08:28Z</time>
      </trkpt>
      <trkpt lat="45.17467" lon="5.78215">
        <ele>417.4</ele>
        <time>2021-04-10T13:08:29Z</time>
      </trkpt>
      <trkpt lat="45.17467" lon="5.78217">
        <ele>417.4</ele>
        <time>2021-04-10T13:08:30Z</time>
      </trkpt>
      <trkpt lat="45.17468" lon="5.78219">
        <ele>417</ele>
        <time>2021-04-10T13:08:31Z</time>
      </trkpt>
      <trkpt lat="45.17469" lon="5.78221">
        <ele>417.2</ele>
        <time>2021-04-10T13:08:32Z</time>
      </trkpt>
      <trkpt lat="45.1747" lon="5.78223">
        <ele>416.8</ele>
        <time>2021-04-10T13:08:33Z</time>
      </trkpt>
      <trkpt lat="45.17472" lon="5.78225">
        <ele>416.8</ele>
        <time>2021-04-10T13:08:34Z</time>
      </trkpt>
      <trkpt lat="45.17473" lon="5.78227">
        <ele>416.4</ele>
        <time>2021-04-10T13:08:35Z</time>
      </trkpt>
      <trkpt lat="45.17475" lon="5.78229">
        <ele>416.2</ele>
        <time>2021-04-10T13:08:36Z</time>
      </trkpt>
      <trkpt lat="45.17476" lon="5.78231">
        <ele>415.6</ele>
        <time>2021-04-10T13:08:37Z</time>
      </trkpt>
      <trkpt lat="45.17482" lon="5.78242">
        <ele>415.4</ele>
        <time>2021-04-10T13:08:38Z</time>
      </trkpt>
      <trkpt lat="45.17483" lon="5.78243">
        <ele>415</ele>
        <time>2021-04-10T13:08:39Z</time>
      </trkpt>
      <trkpt lat="45.17484" lon="5.78245">
        <ele>414.4</ele>
        <time>2021-04-10T13:08:40Z</time>
      </trkpt>
      <trkpt lat="45.17485" lon="5.78246">
        <ele>414</ele>
        <time>2021-04-10T13:08:41Z</time>
      </trkpt>
      <trkpt lat="45.17486" lon="5.78247">
        <ele>413.6</ele>
        <time>2021-04-10T13:08:42Z</time>
      </trkpt>
      <trkpt lat="45.17487" lon="5.78248">
        <ele>413.8</ele>
        <time>2021-04-10T13:08:43Z</time>
      </trkpt>
      <trkpt lat="45.17492" lon="5.78255">
        <ele>413.4</ele>
        <time>2021-04-10T13:08:44Z</time>
      </trkpt>
      <trkpt lat="45.17495" lon="5.78257">
        <ele>413.6</ele>
        <time>2021-04-10T13:08:45Z</time>
      </trkpt>
      <trkpt lat="45.17497" lon="5.78259">
        <ele>413.2</ele>
        <time>2021-04-10T13:08:46Z</time>
      </trkpt>
      <trkpt lat="45.17499" lon="5.78261">
        <ele>413.2</ele>
        <time>2021-04-10T13:08:47Z</time>
      </trkpt>
      <trkpt lat="45.17501" lon="5.78262">
        <ele>413</ele>
        <time>2021-04-10T13:08:48Z</time>
      </trkpt>
      <trkpt lat="45.17505" lon="5.78265">
        <ele>413</ele>
        <time>2021-04-10T13:08:49Z</time>
      </trkpt>
      <trkpt lat="45.17507" lon="5.78266">
        <ele>412.4</ele>
        <time>2021-04-10T13:08:50Z</time>
      </trkpt>
      <trkpt lat="45.17509" lon="5.78268">
        <ele>412.2</ele>
        <time>2021-04-10T13:08:51Z</time>
      </trkpt>
      <trkpt lat="45.17511" lon="5.78269">
        <ele>411.8</ele>
        <time>2021-04-10T13:08:52Z</time>
      </trkpt>
      <trkpt lat="45.17514" lon="5.78272">
        <ele>411.6</ele>
        <time>2021-04-10T13:08:53Z</time>
      </trkpt>
      <trkpt lat="45.17515" lon="5.78273">
        <ele>411</ele>
        <time>2021-04-10T13:08:54Z</time>
      </trkpt>
      <trkpt lat="45.17517" lon="5.78274">
        <ele>410.4</ele>
        <time>2021-04-10T13:08:55Z</time>
      </trkpt>
      <trkpt lat="45.17518" lon="5.78276">
        <ele>410.2</ele>
        <time>2021-04-10T13:08:56Z</time>
      </trkpt>
      <trkpt lat="45.1752" lon="5.78277">
        <ele>409.8</ele>
        <time>2021-04-10T13:08:57Z</time>
      </trkpt>
      <trkpt lat="45.17522" lon="5.78279">
        <ele>410</ele>
        <time>2021-04-10T13:08:58Z</time>
      </trkpt>
      <trkpt lat="45.17524" lon="5.78281">
        <ele>409.6</ele>
        <time>2021-04-10T13:08:59Z</time>
      </trkpt>
      <trkpt lat="45.1753" lon="5.78285">
        <ele>409.6</ele>
        <time>2021-04-10T13:09:00Z</time>
      </trkpt>
      <trkpt lat="45.17531" lon="5.78286">
        <ele>409</ele>
        <time>2021-04-10T13:09:01Z</time>
      </trkpt>
      <trkpt lat="45.17531" lon="5.78287">
        <ele>408.8</ele>
        <time>2021-04-10T13:09:02Z</time>
      </trkpt>
      <trkpt lat="45.17535" lon="5.78291">
        <ele>408</ele>
        <time>2021-04-10T13:09:03Z</time>
      </trkpt>
      <trkpt lat="45.17536" lon="5.78293">
        <ele>407.4</ele>
        <time>2021-04-10T13:09:04Z</time>
      </trkpt>
      <trkpt lat="45.17538" lon="5.78295">
        <ele>407.4</ele>
        <time>2021-04-10T13:09:05Z</time>
      </trkpt>
      <trkpt lat="45.17539" lon="5.78297">
        <ele>407</ele>
        <time>2021-04-10T13:09:06Z</time>
      </trkpt>
      <trkpt lat="45.1754" lon="5.78298">
        <ele>407</ele>
        <time>2021-04-10T13:09:07Z</time>
      </trkpt>
      <trkpt lat="45.17544" lon="5.78306">
        <ele>406.6</ele>
        <time>2021-04-10T13:09:08Z</time>
      </trkpt>
      <trkpt lat="45.17547" lon="5.78309">
        <ele>406.4</ele>
        <time>2021-04-10T13:09:09Z</time>
      </trkpt>
      <trkpt lat="45.17549" lon="5.78311">
        <ele>406</ele>
        <time>2021-04-10T13:09:10Z</time>
      </trkpt>
      <trkpt lat="45.17551" lon="5.78313">
        <ele>405.6</ele>
        <time>2021-04-10T13:09:11Z</time>
      </trkpt>
      <trkpt lat="45.17552" lon="5.78314">
        <ele>404.8</ele>
        <time>2021-04-10T13:09:12Z</time>
      </trkpt>
      <trkpt lat="45.17553" lon="5.78315">
        <ele>404.2</ele>
        <time>2021-04-10T13:09:13Z</time>
      </trkpt>
      <trkpt lat="45.17554" lon="5.78316">
        <ele>403.8</ele>
        <time>2021-04-10T13:09:14Z</time>
      </trkpt>
      <trkpt lat="45.17558" lon="5.7832">
        <ele>403.4</ele>
        <time>2021-04-10T13:09:15Z</time>
      </trkpt>
      <trkpt lat="45.17559" lon="5.78322">
        <ele>403.4</ele>
        <time>2021-04-10T13:09:16Z</time>
      </trkpt>
      <trkpt lat="45.17561" lon="5.78323">
        <ele>403</ele>
        <time>2021-04-10T13:09:17Z</time>
      </trkpt>
      <trkpt lat="45.17562" lon="5.78324">
        <ele>403</ele>
        <time>2021-04-10T13:09:18Z</time>
      </trkpt>
      <trkpt lat="45.17563" lon="5.78326">
        <ele>402.6</ele>
        <time>2021-04-10T13:09:19Z</time>
      </trkpt>
      <trkpt lat="45.17565" lon="5.78327">
        <ele>402</ele>
        <time>2021-04-10T13:09:20Z</time>
      </trkpt>
      <trkpt lat="45.17566" lon="5.78328">
        <ele>401.4</ele>
        <time>2021-04-10T13:09:21Z</time>
      </trkpt>
      <trkpt lat="45.17568" lon="5.7833">
        <ele>401</ele>
        <time>2021-04-10T13:09:22Z</time>
      </trkpt>
      <trkpt lat="45.17569" lon="5.78331">
        <ele>401</ele>
        <time>2021-04-10T13:09:23Z</time>
      </trkpt>
      <trkpt lat="45.1757" lon="5.78332">
        <ele>400.4</ele>
        <time>2021-04-10T13:09:24Z</time>
      </trkpt>
      <trkpt lat="45.17572" lon="5.78334">
        <ele>400.2</ele>
        <time>2021-04-10T13:09:25Z</time>
      </trkpt>
      <trkpt lat="45.17573" lon="5.78335">
        <ele>399.6</ele>
        <time>2021-04-10T13:09:26Z</time>
      </trkpt>
      <trkpt lat="45.17573" lon="5.78335">
        <ele>399.2</ele>
        <time>2021-04-10T13:09:27Z</time>
      </trkpt>
      <trkpt lat="45.17573" lon="5.78335">
        <ele>398.6</ele>
        <time>2021-04-10T13:09:28Z</time>
      </trkpt>
      <trkpt lat="45.17573" lon="5.78335">
        <ele>398</ele>
        <time>2021-04-10T13:09:29Z</time>
      </trkpt>
      <trkpt lat="45.17574" lon="5.78337">
        <ele>397.4</ele>
        <time>2021-04-10T13:09:30Z</time>
      </trkpt>
      <trkpt lat="45.17575" lon="5.78339">
        <ele>396.6</ele>
        <time>2021-04-10T13:09:31Z</time>
      </trkpt>
      <trkpt lat="45.17576" lon="5.78341">
        <ele>396.8</ele>
        <time>2021-04-10T13:09:32Z</time>
      </trkpt>
      <trkpt lat="45.17576" lon="5.78343">
        <ele>396</ele>
        <time>2021-04-10T13:09:33Z</time>
      </trkpt>
      <trkpt lat="45.17577" lon="5.78345">
        <ele>396</ele>
        <time>2021-04-10T13:09:34Z</time>
      </trkpt>
      <trkpt lat="45.17578" lon="5.78348">
        <ele>395.6</ele>
        <time>2021-04-10T13:09:35Z</time>
      </trkpt>
      <trkpt lat="45.17579" lon="5.78349">
        <ele>395.6</ele>
        <time>2021-04-10T13:09:36Z</time>
      </trkpt>
      <trkpt lat="45.1758" lon="5.78351">
        <ele>395</ele>
        <time>2021-04-10T13:09:37Z</time>
      </trkpt>
      <trkpt lat="45.17581" lon="5.78352">
        <ele>394.6</ele>
        <time>2021-04-10T13:09:38Z</time>
      </trkpt>
      <trkpt lat="45.17582" lon="5.78354">
        <ele>394</ele>
        <time>2021-04-10T13:09:39Z</time>
      </trkpt>
      <trkpt lat="45.17583" lon="5.78355">
        <ele>393.2</ele>
        <time>2021-04-10T13:09:40Z</time>
      </trkpt>
      <trkpt lat="45.17585" lon="5.78357">
        <ele>393.4</ele>
        <time>2021-04-10T13:09:41Z</time>
      </trkpt>
      <trkpt lat="45.17586" lon="5.78358">
        <ele>393</ele>
        <time>2021-04-10T13:09:42Z</time>
      </trkpt>
      <trkpt lat="45.17587" lon="5.7836">
        <ele>393</ele>
        <time>2021-04-10T13:09:43Z</time>
      </trkpt>
      <trkpt lat="45.17589" lon="5.78362">
        <ele>392.6</ele>
        <time>2021-04-10T13:09:44Z</time>
      </trkpt>
      <trkpt lat="45.17591" lon="5.78363">
        <ele>392</ele>
        <time>2021-04-10T13:09:45Z</time>
      </trkpt>
      <trkpt lat="45.17592" lon="5.78365">
        <ele>391</ele>
        <time>2021-04-10T13:09:46Z</time>
      </trkpt>
      <trkpt lat="45.17594" lon="5.78367">
        <ele>390.6</ele>
        <time>2021-04-10T13:09:47Z</time>
      </trkpt>
      <trkpt lat="45.176" lon="5.78377">
        <ele>390.6</ele>
        <time>2021-04-10T13:09:48Z</time>
      </trkpt>
      <trkpt lat="45.17601" lon="5.78379">
        <ele>390.2</ele>
        <time>2021-04-10T13:09:49Z</time>
      </trkpt>
      <trkpt lat="45.17602" lon="5.78381">
        <ele>389.6</ele>
        <time>2021-04-10T13:09:50Z</time>
      </trkpt>
      <trkpt lat="45.17603" lon="5.78383">
        <ele>388.8</ele>
        <time>2021-04-10T13:09:51Z</time>
      </trkpt>
      <trkpt lat="45.17604" lon="5.78386">
        <ele>388.2</ele>
        <time>2021-04-10T13:09:52Z</time>
      </trkpt>
      <trkpt lat="45.17605" lon="5.78388">
        <ele>388</ele>
        <time>2021-04-10T13:09:53Z</time>
      </trkpt>
      <trkpt lat="45.17606" lon="5.78391">
        <ele>387.4</ele>
        <time>2021-04-10T13:09:54Z</time>
      </trkpt>
      <trkpt lat="45.17607" lon="5.78395">
        <ele>386.6</ele>
        <time>2021-04-10T13:09:55Z</time>
      </trkpt>
      <trkpt lat="45.17608" lon="5.78398">
        <ele>385.4</ele>
        <time>2021-04-10T13:09:56Z</time>
      </trkpt>
      <trkpt lat="45.17609" lon="5.78402">
        <ele>385.2</ele>
        <time>2021-04-10T13:09:57Z</time>
      </trkpt>
      <trkpt lat="45.17613" lon="5.78416">
        <ele>384.8</ele>
        <time>2021-04-10T13:09:58Z</time>
      </trkpt>
      <trkpt lat="45.17617" lon="5.78429">
        <ele>385</ele>
        <time>2021-04-10T13:09:59Z</time>
      </trkpt>
      <trkpt lat="45.17621" lon="5.78443">
        <ele>385</ele>
        <time>2021-04-10T13:10:00Z</time>
      </trkpt>
      <trkpt lat="45.17625" lon="5.78457">
        <ele>384.6</ele>
        <time>2021-04-10T13:10:01Z</time>
      </trkpt>
      <trkpt lat="45.17629" lon="5.78471">
        <ele>384</ele>
        <time>2021-04-10T13:10:02Z</time>
      </trkpt>
      <trkpt lat="45.1763" lon="5.78476">
        <ele>384.2</ele>
        <time>2021-04-10T13:10:03Z</time>
      </trkpt>
      <trkpt lat="45.17631" lon="5.78481">
        <ele>383.8</ele>
        <time>2021-04-10T13:10:04Z</time>
      </trkpt>
      <trkpt lat="45.17632" lon="5.78483">
        <ele>383.8</ele>
        <time>2021-04-10T13:10:05Z</time>
      </trkpt>
      <trkpt lat="45.17632" lon="5.78486">
        <ele>383.6</ele>
        <time>2021-04-10T13:10:06Z</time>
      </trkpt>
      <trkpt lat="45.17633" lon="5.78488">
        <ele>383.8</ele>
        <time>2021-04-10T13:10:07Z</time>
      </trkpt>
      <trkpt lat="45.17636" lon="5.78496">
        <ele>383.6</ele>
        <time>2021-04-10T13:10:08Z</time>
      </trkpt>
      <trkpt lat="45.17638" lon="5.785">
        <ele>383.8</ele>
        <time>2021-04-10T13:10:09Z</time>
      </trkpt>
      <trkpt lat="45.17639" lon="5.78502">
        <ele>383.6</ele>
        <time>2021-04-10T13:10:10Z</time>
      </trkpt>
      <trkpt lat="45.1764" lon="5.78504">
        <ele>383.6</ele>
        <time>2021-04-10T13:10:11Z</time>
      </trkpt>
      <trkpt lat="45.17641" lon="5.78507">
        <ele>383.4</ele>
        <time>2021-04-10T13:10:12Z</time>
      </trkpt>
      <trkpt lat="45.17642" lon="5.78509">
        <ele>382.8</ele>
        <time>2021-04-10T13:10:13Z</time>
      </trkpt>
      <trkpt lat="45.17643" lon="5.78511">
        <ele>382.4</ele>
        <time>2021-04-10T13:10:14Z</time>
      </trkpt>
      <trkpt lat="45.17644" lon="5.78513">
        <ele>381.8</ele>
        <time>2021-04-10T13:10:15Z</time>
      </trkpt>
      <trkpt lat="45.17647" lon="5.78518">
        <ele>380.8</ele>
        <time>2021-04-10T13:10:16Z</time>
      </trkpt>
      <trkpt lat="45.17647" lon="5.78518">
        <ele>380.8</ele>
        <time>2021-04-10T13:10:17Z</time>
      </trkpt>
      <trkpt lat="45.17647" lon="5.78518">
        <ele>380.4</ele>
        <time>2021-04-10T13:10:18Z</time>
      </trkpt>
      <trkpt lat="45.17647" lon="5.78518">
        <ele>380.2</ele>
        <time>2021-04-10T13:10:19Z</time>
      </trkpt>
      <trkpt lat="45.17649" lon="5.7852">
        <ele>379.8</ele>
        <time>2021-04-10T13:10:20Z</time>
      </trkpt>
      <trkpt lat="45.1765" lon="5.78522">
        <ele>379.4</ele>
        <time>2021-04-10T13:10:21Z</time>
      </trkpt>
      <trkpt lat="45.17652" lon="5.78524">
        <ele>378.8</ele>
        <time>2021-04-10T13:10:22Z</time>
      </trkpt>
      <trkpt lat="45.17653" lon="5.78527">
        <ele>378.4</ele>
        <time>2021-04-10T13:10:23Z</time>
      </trkpt>
      <trkpt lat="45.17654" lon="5.78529">
        <ele>377.4</ele>
        <time>2021-04-10T13:10:24Z</time>
      </trkpt>
      <trkpt lat="45.17656" lon="5.78527">
        <ele>376.4</ele>
        <time>2021-04-10T13:10:25Z</time>
      </trkpt>
      <trkpt lat="45.17657" lon="5.78526">
        <ele>375.6</ele>
        <time>2021-04-10T13:10:26Z</time>
      </trkpt>
      <trkpt lat="45.17658" lon="5.78525">
        <ele>374.4</ele>
        <time>2021-04-10T13:10:27Z</time>
      </trkpt>
      <trkpt lat="45.17659" lon="5.78524">
        <ele>373.8</ele>
        <time>2021-04-10T13:10:28Z</time>
      </trkpt>
      <trkpt lat="45.1766" lon="5.78523">
        <ele>373.4</ele>
        <time>2021-04-10T13:10:29Z</time>
      </trkpt>
      <trkpt lat="45.17661" lon="5.78522">
        <ele>372.8</ele>
        <time>2021-04-10T13:10:30Z</time>
      </trkpt>
      <trkpt lat="45.17663" lon="5.78521">
        <ele>372.4</ele>
        <time>2021-04-10T13:10:31Z</time>
      </trkpt>
      <trkpt lat="45.17664" lon="5.78518">
        <ele>371.8</ele>
        <time>2021-04-10T13:10:32Z</time>
      </trkpt>
      <trkpt lat="45.17665" lon="5.78516">
        <ele>371.6</ele>
        <time>2021-04-10T13:10:33Z</time>
      </trkpt>
      <trkpt lat="45.17667" lon="5.78514">
        <ele>371</ele>
        <time>2021-04-10T13:10:34Z</time>
      </trkpt>
      <trkpt lat="45.17668" lon="5.78512">
        <ele>370.6</ele>
        <time>2021-04-10T13:10:35Z</time>
      </trkpt>
      <trkpt lat="45.17669" lon="5.78509">
        <ele>369.8</ele>
        <time>2021-04-10T13:10:36Z</time>
      </trkpt>
      <trkpt lat="45.17672" lon="5.78513">
        <ele>369.4</ele>
        <time>2021-04-10T13:10:37Z</time>
      </trkpt>
      <trkpt lat="45.17674" lon="5.78514">
        <ele>369</ele>
        <time>2021-04-10T13:10:38Z</time>
      </trkpt>
      <trkpt lat="45.17676" lon="5.78516">
        <ele>368.4</ele>
        <time>2021-04-10T13:10:39Z</time>
      </trkpt>
      <trkpt lat="45.17678" lon="5.78518">
        <ele>368</ele>
        <time>2021-04-10T13:10:40Z</time>
      </trkpt>
      <trkpt lat="45.17679" lon="5.7852">
        <ele>367.6</ele>
        <time>2021-04-10T13:10:41Z</time>
      </trkpt>
      <trkpt lat="45.17681" lon="5.78522">
        <ele>367</ele>
        <time>2021-04-10T13:10:42Z</time>
      </trkpt>
      <trkpt lat="45.17683" lon="5.78524">
        <ele>366.2</ele>
        <time>2021-04-10T13:10:43Z</time>
      </trkpt>
      <trkpt lat="45.17688" lon="5.7853">
        <ele>365.6</ele>
        <time>2021-04-10T13:10:44Z</time>
      </trkpt>
      <trkpt lat="45.17689" lon="5.78531">
        <ele>365</ele>
        <time>2021-04-10T13:10:45Z</time>
      </trkpt>
      <trkpt lat="45.1769" lon="5.78532">
        <ele>364</ele>
        <time>2021-04-10T13:10:46Z</time>
      </trkpt>
      <trkpt lat="45.17694" lon="5.78537">
        <ele>363.2</ele>
        <time>2021-04-10T13:10:47Z</time>
      </trkpt>
      <trkpt lat="45.17695" lon="5.78538">
        <ele>362.6</ele>
        <time>2021-04-10T13:10:48Z</time>
      </trkpt>
      <trkpt lat="45.17696" lon="5.78539">
        <ele>362</ele>
        <time>2021-04-10T13:10:49Z</time>
      </trkpt>
      <trkpt lat="45.17696" lon="5.7854">
        <ele>361</ele>
        <time>2021-04-10T13:10:50Z</time>
      </trkpt>
      <trkpt lat="45.17697" lon="5.78541">
        <ele>360.8</ele>
        <time>2021-04-10T13:10:51Z</time>
      </trkpt>
      <trkpt lat="45.17701" lon="5.78546">
        <ele>360.4</ele>
        <time>2021-04-10T13:10:52Z</time>
      </trkpt>
      <trkpt lat="45.17703" lon="5.78547">
        <ele>360.2</ele>
        <time>2021-04-10T13:10:53Z</time>
      </trkpt>
      <trkpt lat="45.17704" lon="5.78549">
        <ele>359.6</ele>
        <time>2021-04-10T13:10:54Z</time>
      </trkpt>
      <trkpt lat="45.17705" lon="5.78551">
        <ele>359.2</ele>
        <time>2021-04-10T13:10:55Z</time>
      </trkpt>
      <trkpt lat="45.17709" lon="5.78556">
        <ele>358.4</ele>
        <time>2021-04-10T13:10:56Z</time>
      </trkpt>
      <trkpt lat="45.1771" lon="5.78558">
        <ele>357.6</ele>
        <time>2021-04-10T13:10:57Z</time>
      </trkpt>
      <trkpt lat="45.17712" lon="5.7856">
        <ele>357.4</ele>
        <time>2021-04-10T13:10:58Z</time>
      </trkpt>
      <trkpt lat="45.17713" lon="5.78563">
        <ele>356.8</ele>
        <time>2021-04-10T13:10:59Z</time>
      </trkpt>
      <trkpt lat="45.17715" lon="5.78565">
        <ele>356.2</ele>
        <time>2021-04-10T13:11:00Z</time>
      </trkpt>
      <trkpt lat="45.17715" lon="5.78566">
        <ele>355.6</ele>
        <time>2021-04-10T13:11:01Z</time>
      </trkpt>
      <trkpt lat="45.17716" lon="5.78567">
        <ele>355.4</ele>
        <time>2021-04-10T13:11:02Z</time>
      </trkpt>
      <trkpt lat="45.17716" lon="5.78568">
        <ele>354.8</ele>
        <time>2021-04-10T13:11:03Z</time>
      </trkpt>
      <trkpt lat="45.17716" lon="5.78569">
        <ele>354.6</ele>
        <time>2021-04-10T13:11:04Z</time>
      </trkpt>
      <trkpt lat="45.17717" lon="5.78569">
        <ele>353.8</ele>
        <time>2021-04-10T13:11:05Z</time>
      </trkpt>
      <trkpt lat="45.17717" lon="5.7857">
        <ele>353.6</ele>
        <time>2021-04-10T13:11:06Z</time>
      </trkpt>
      <trkpt lat="45.17717" lon="5.78571">
        <ele>353</ele>
        <time>2021-04-10T13:11:07Z</time>
      </trkpt>
      <trkpt lat="45.17718" lon="5.78572">
        <ele>352.8</ele>
        <time>2021-04-10T13:11:08Z</time>
      </trkpt>
      <trkpt lat="45.17718" lon="5.78572">
        <ele>352</ele>
        <time>2021-04-10T13:11:09Z</time>
      </trkpt>
      <trkpt lat="45.17718" lon="5.78573">
        <ele>351</ele>
        <time>2021-04-10T13:11:10Z</time>
      </trkpt>
      <trkpt lat="45.17719" lon="5.78574">
        <ele>350.4</ele>
        <time>2021-04-10T13:11:11Z</time>
      </trkpt>
      <trkpt lat="45.17719" lon="5.78575">
        <ele>349.8</ele>
        <time>2021-04-10T13:11:12Z</time>
      </trkpt>
      <trkpt lat="45.17719" lon="5.78576">
        <ele>349.4</ele>
        <time>2021-04-10T13:11:13Z</time>
      </trkpt>
      <trkpt lat="45.1772" lon="5.78576">
        <ele>349</ele>
        <time>2021-04-10T13:11:14Z</time>
      </trkpt>
      <trkpt lat="45.1772" lon="5.78577">
        <ele>348.6</ele>
        <time>2021-04-10T13:11:15Z</time>
      </trkpt>
      <trkpt lat="45.17721" lon="5.78578">
        <ele>348.2</ele>
        <time>2021-04-10T13:11:16Z</time>
      </trkpt>
      <trkpt lat="45.17721" lon="5.78579">
        <ele>347.4</ele>
        <time>2021-04-10T13:11:17Z</time>
      </trkpt>
      <trkpt lat="45.17721" lon="5.7858">
        <ele>346.8</ele>
        <time>2021-04-10T13:11:18Z</time>
      </trkpt>
      <trkpt lat="45.17722" lon="5.7858">
        <ele>346.4</ele>
        <time>2021-04-10T13:11:19Z</time>
      </trkpt>
      <trkpt lat="45.17722" lon="5.78581">
        <ele>345.4</ele>
        <time>2021-04-10T13:11:20Z</time>
      </trkpt>
      <trkpt lat="45.17722" lon="5.78582">
        <ele>345.2</ele>
        <time>2021-04-10T13:11:21Z</time>
      </trkpt>
      <trkpt lat="45.17723" lon="5.78583">
        <ele>344.4</ele>
        <time>2021-04-10T13:11:22Z</time>
      </trkpt>
      <trkpt lat="45.17723" lon="5.78583">
        <ele>343.2</ele>
        <time>2021-04-10T13:11:23Z</time>
      </trkpt>
      <trkpt lat="45.17723" lon="5.78584">
        <ele>342.6</ele>
        <time>2021-04-10T13:11:24Z</time>
      </trkpt>
      <trkpt lat="45.17724" lon="5.78585">
        <ele>342.4</ele>
        <time>2021-04-10T13:11:25Z</time>
      </trkpt>
      <trkpt lat="45.17724" lon="5.78586">
        <ele>342.4</ele>
        <time>2021-04-10T13:11:26Z</time>
      </trkpt>
      <trkpt lat="45.17724" lon="5.78587">
        <ele>341.2</ele>
        <time>2021-04-10T13:11:27Z</time>
      </trkpt>
      <trkpt lat="45.17725" lon="5.78587">
        <ele>340.6</ele>
        <time>2021-04-10T13:11:28Z</time>
      </trkpt>
      <trkpt lat="45.17725" lon="5.78588">
        <ele>339.8</ele>
        <time>2021-04-10T13:11:29Z</time>
      </trkpt>
      <trkpt lat="45.17725" lon="5.78589">
        <ele>339.8</ele>
        <time>2021-04-10T13:11:30Z</time>
      </trkpt>
      <trkpt lat="45.17726" lon="5.7859">
        <ele>339.4</ele>
        <time>2021-04-10T13:11:31Z</time>
      </trkpt>
      <trkpt lat="45.17726" lon="5.7859">
        <ele>339.4</ele>
        <time>2021-04-10T13:11:32Z</time>
      </trkpt>
      <trkpt lat="45.17726" lon="5.7859">
        <ele>339</ele>
        <time>2021-04-10T13:11:33Z</time>
      </trkpt>
      <trkpt lat="45.17726" lon="5.7859">
        <ele>339</ele>
        <time>2021-04-10T13:11:34Z</time>
      </trkpt>
      <trkpt lat="45.17727" lon="5.78593">
        <ele>338.8</ele>
        <time>2021-04-10T13:11:35Z</time>
      </trkpt>
      <trkpt lat="45.17727" lon="5.78597">
        <ele>338.6</ele>
        <time>2021-04-10T13:11:36Z</time>
      </trkpt>
      <trkpt lat="45.17728" lon="5.78601">
        <ele>338</ele>
        <time>2021-04-10T13:11:37Z</time>
      </trkpt>
      <trkpt lat="45.17729" lon="5.78605">
        <ele>337.8</ele>
        <time>2021-04-10T13:11:38Z</time>
      </trkpt>
      <trkpt lat="45.1773" lon="5.78609">
        <ele>337</ele>
        <time>2021-04-10T13:11:39Z</time>
      </trkpt>
      <trkpt lat="45.17734" lon="5.78612">
        <ele>336.6</ele>
        <time>2021-04-10T13:11:40Z</time>
      </trkpt>
      <trkpt lat="45.17735" lon="5.78614">
        <ele>336.6</ele>
        <time>2021-04-10T13:11:41Z</time>
      </trkpt>
      <trkpt lat="45.17737" lon="5.78616">
        <ele>336.2</ele>
        <time>2021-04-10T13:11:42Z</time>
      </trkpt>
      <trkpt lat="45.17738" lon="5.78618">
        <ele>336.6</ele>
        <time>2021-04-10T13:11:43Z</time>
      </trkpt>
      <trkpt lat="45.17741" lon="5.78623">
        <ele>336.4</ele>
        <time>2021-04-10T13:11:44Z</time>
      </trkpt>
      <trkpt lat="45.17741" lon="5.78623">
        <ele>336.4</ele>
        <time>2021-04-10T13:11:45Z</time>
      </trkpt>
      <trkpt lat="45.17741" lon="5.78623">
        <ele>335.8</ele>
        <time>2021-04-10T13:11:46Z</time>
      </trkpt>
      <trkpt lat="45.17741" lon="5.78623">
        <ele>335</ele>
        <time>2021-04-10T13:11:47Z</time>
      </trkpt>
      <trkpt lat="45.17743" lon="5.78627">
        <ele>335.2</ele>
        <time>2021-04-10T13:11:48Z</time>
      </trkpt>
      <trkpt lat="45.17745" lon="5.7863">
        <ele>334.8</ele>
        <time>2021-04-10T13:11:49Z</time>
      </trkpt>
      <trkpt lat="45.17747" lon="5.78634">
        <ele>334.8</ele>
        <time>2021-04-10T13:11:50Z</time>
      </trkpt>
      <trkpt lat="45.17749" lon="5.78637">
        <ele>334.4</ele>
        <time>2021-04-10T13:11:51Z</time>
      </trkpt>
      <trkpt lat="45.17751" lon="5.78641">
        <ele>334.2</ele>
        <time>2021-04-10T13:11:52Z</time>
      </trkpt>
      <trkpt lat="45.17756" lon="5.78648">
        <ele>333.8</ele>
        <time>2021-04-10T13:11:53Z</time>
      </trkpt>
      <trkpt lat="45.17757" lon="5.78653">
        <ele>333.6</ele>
        <time>2021-04-10T13:11:54Z</time>
      </trkpt>
      <trkpt lat="45.17758" lon="5.78656">
        <ele>333.2</ele>
        <time>2021-04-10T13:11:55Z</time>
      </trkpt>
      <trkpt lat="45.1776" lon="5.78659">
        <ele>332.8</ele>
        <time>2021-04-10T13:11:56Z</time>
      </trkpt>
      <trkpt lat="45.17761" lon="5.78662">
        <ele>332.2</ele>
        <time>2021-04-10T13:11:57Z</time>
      </trkpt>
      <trkpt lat="45.17762" lon="5.78666">
        <ele>331.6</ele>
        <time>2021-04-10T13:11:58Z</time>
      </trkpt>
      <trkpt lat="45.17763" lon="5.78669">
        <ele>331.6</ele>
        <time>2021-04-10T13:11:59Z</time>
      </trkpt>
      <trkpt lat="45.17765" lon="5.78673">
        <ele>332</ele>
        <time>2021-04-10T13:12:00Z</time>
      </trkpt>
      <trkpt lat="45.17766" lon="5.78677">
        <ele>331.8</ele>
        <time>2021-04-10T13:12:01Z</time>
      </trkpt>
      <trkpt lat="45.17766" lon="5.7868">
        <ele>331.4</ele>
        <time>2021-04-10T13:12:02Z</time>
      </trkpt>
      <trkpt lat="45.17767" lon="5.78683">
        <ele>331.2</ele>
        <time>2021-04-10T13:12:03Z</time>
      </trkpt>
      <trkpt lat="45.17768" lon="5.78685">
        <ele>330.8</ele>
        <time>2021-04-10T13:12:04Z</time>
      </trkpt>
      <trkpt lat="45.17769" lon="5.78688">
        <ele>331.2</ele>
        <time>2021-04-10T13:12:05Z</time>
      </trkpt>
      <trkpt lat="45.17769" lon="5.78688">
        <ele>331</ele>
        <time>2021-04-10T13:12:06Z</time>
      </trkpt>
      <trkpt lat="45.17769" lon="5.78688">
        <ele>331</ele>
        <time>2021-04-10T13:12:07Z</time>
      </trkpt>
      <trkpt lat="45.17769" lon="5.78688">
        <ele>330.4</ele>
        <time>2021-04-10T13:12:08Z</time>
      </trkpt>
      <trkpt lat="45.17769" lon="5.78688">
        <ele>330.4</ele>
        <time>2021-04-10T13:12:09Z</time>
      </trkpt>
      <trkpt lat="45.17768" lon="5.78688">
        <ele>330.2</ele>
        <time>2021-04-10T13:12:10Z</time>
      </trkpt>
      <trkpt lat="45.17768" lon="5.78687">
        <ele>330.2</ele>
        <time>2021-04-10T13:12:11Z</time>
      </trkpt>
      <trkpt lat="45.17768" lon="5.78687">
        <ele>330</ele>
        <time>2021-04-10T13:12:12Z</time>
      </trkpt>
      <trkpt lat="45.17768" lon="5.78686">
        <ele>329.8</ele>
        <time>2021-04-10T13:12:13Z</time>
      </trkpt>
      <trkpt lat="45.17768" lon="5.78686">
        <ele>329.8</ele>
        <time>2021-04-10T13:12:14Z</time>
      </trkpt>
      <trkpt lat="45.17767" lon="5.78685">
        <ele>329.6</ele>
        <time>2021-04-10T13:12:15Z</time>
      </trkpt>
      <trkpt lat="45.17767" lon="5.78685">
        <ele>329.2</ele>
        <time>2021-04-10T13:12:16Z</time>
      </trkpt>
      <trkpt lat="45.17767" lon="5.78684">
        <ele>328.8</ele>
        <time>2021-04-10T13:12:17Z</time>
      </trkpt>
      <trkpt lat="45.17767" lon="5.78684">
        <ele>328</ele>
        <time>2021-04-10T13:12:18Z</time>
      </trkpt>
      <trkpt lat="45.17767" lon="5.78683">
        <ele>327.2</ele>
        <time>2021-04-10T13:12:19Z</time>
      </trkpt>
      <trkpt lat="45.17766" lon="5.78683">
        <ele>327.2</ele>
        <time>2021-04-10T13:12:20Z</time>
      </trkpt>
      <trkpt lat="45.17766" lon="5.78682">
        <ele>326.6</ele>
        <time>2021-04-10T13:12:21Z</time>
      </trkpt>
      <trkpt lat="45.17766" lon="5.78682">
        <ele>326.6</ele>
        <time>2021-04-10T13:12:22Z</time>
      </trkpt>
      <trkpt lat="45.17766" lon="5.78681">
        <ele>325.8</ele>
        <time>2021-04-10T13:12:23Z</time>
      </trkpt>
      <trkpt lat="45.17766" lon="5.78681">
        <ele>325</ele>
        <time>2021-04-10T13:12:24Z</time>
      </trkpt>
      <trkpt lat="45.17765" lon="5.7868">
        <ele>324.8</ele>
        <time>2021-04-10T13:12:25Z</time>
      </trkpt>
      <trkpt lat="45.17765" lon="5.7868">
        <ele>324</ele>
        <time>2021-04-10T13:12:26Z</time>
      </trkpt>
      <trkpt lat="45.17765" lon="5.78679">
        <ele>324</ele>
        <time>2021-04-10T13:12:27Z</time>
      </trkpt>
      <trkpt lat="45.17765" lon="5.78678">
        <ele>323.4</ele>
        <time>2021-04-10T13:12:28Z</time>
      </trkpt>
      <trkpt lat="45.17765" lon="5.78678">
        <ele>323.2</ele>
        <time>2021-04-10T13:12:29Z</time>
      </trkpt>
      <trkpt lat="45.17764" lon="5.78677">
        <ele>322.4</ele>
        <time>2021-04-10T13:12:30Z</time>
      </trkpt>
      <trkpt lat="45.17764" lon="5.78677">
        <ele>321.8</ele>
        <time>2021-04-10T13:12:31Z</time>
      </trkpt>
      <trkpt lat="45.17764" lon="5.78676">
        <ele>321</ele>
        <time>2021-04-10T13:12:32Z</time>
      </trkpt>
      <trkpt lat="45.17764" lon="5.78676">
        <ele>320.4</ele>
        <time>2021-04-10T13:12:33Z</time>
      </trkpt>
      <trkpt lat="45.17764" lon="5.78674">
        <ele>320</ele>
        <time>2021-04-10T13:12:34Z</time>
      </trkpt>
      <trkpt lat="45.17765" lon="5.78673">
        <ele>319.4</ele>
        <time>2021-04-10T13:12:35Z</time>
      </trkpt>
      <trkpt lat="45.17765" lon="5.78671">
        <ele>319.2</ele>
        <time>2021-04-10T13:12:36Z</time>
      </trkpt>
      <trkpt lat="45.17765" lon="5.78669">
        <ele>318.6</ele>
        <time>2021-04-10T13:12:37Z</time>
      </trkpt>
      <trkpt lat="45.17766" lon="5.78668">
        <ele>318.2</ele>
        <time>2021-04-10T13:12:38Z</time>
      </trkpt>
      <trkpt lat="45.17766" lon="5.78666">
        <ele>317.2</ele>
        <time>2021-04-10T13:12:39Z</time>
      </trkpt>
      <trkpt lat="45.17766" lon="5.78665">
        <ele>316.2</ele>
        <time>2021-04-10T13:12:40Z</time>
      </trkpt>
      <trkpt lat="45.17767" lon="5.78663">
        <ele>315.6</ele>
        <time>2021-04-10T13:12:41Z</time>
      </trkpt>
      <trkpt lat="45.17767" lon="5.78661">
        <ele>315.4</ele>
        <time>2021-04-10T13:12:42Z</time>
      </trkpt>
      <trkpt lat="45.17767" lon="5.78657">
        <ele>315</ele>
        <time>2021-04-10T13:12:43Z</time>
      </trkpt>
      <trkpt lat="45.17768" lon="5.78653">
        <ele>314.6</ele>
        <time>2021-04-10T13:12:44Z</time>
      </trkpt>
      <trkpt lat="45.17768" lon="5.78648">
        <ele>314.2</ele>
        <time>2021-04-10T13:12:45Z</time>
      </trkpt>
      <trkpt lat="45.17768" lon="5.78644">
        <ele>313.6</ele>
        <time>2021-04-10T13:12:46Z</time>
      </trkpt>
      <trkpt lat="45.17768" lon="5.78639">
        <ele>313</ele>
        <time>2021-04-10T13:12:47Z</time>
      </trkpt>
      <trkpt lat="45.17769" lon="5.78629">
        <ele>312.6</ele>
        <time>2021-04-10T13:12:48Z</time>
      </trkpt>
      <trkpt lat="45.17769" lon="5.78624">
        <ele>312.6</ele>
        <time>2021-04-10T13:12:49Z</time>
      </trkpt>
      <trkpt lat="45.17769" lon="5.7862">
        <ele>312.2</ele>
        <time>2021-04-10T13:12:50Z</time>
      </trkpt>
      <trkpt lat="45.17769" lon="5.78616">
        <ele>312</ele>
        <time>2021-04-10T13:12:51Z</time>
      </trkpt>
      <trkpt lat="45.17771" lon="5.78616">
        <ele>311.2</ele>
        <time>2021-04-10T13:12:52Z</time>
      </trkpt>
      <trkpt lat="45.17772" lon="5.78615">
        <ele>310.6</ele>
        <time>2021-04-10T13:12:53Z</time>
      </trkpt>
      <trkpt lat="45.17774" lon="5.78615">
        <ele>310.6</ele>
        <time>2021-04-10T13:12:54Z</time>
      </trkpt>
      <trkpt lat="45.1778" lon="5.78615">
        <ele>310.2</ele>
        <time>2021-04-10T13:12:55Z</time>
      </trkpt>
      <trkpt lat="45.17783" lon="5.78617">
        <ele>310.2</ele>
        <time>2021-04-10T13:12:56Z</time>
      </trkpt>
      <trkpt lat="45.17784" lon="5.78619">
        <ele>309.4</ele>
        <time>2021-04-10T13:12:57Z</time>
      </trkpt>
      <trkpt lat="45.17785" lon="5.7862">
        <ele>309.2</ele>
        <time>2021-04-10T13:12:58Z</time>
      </trkpt>
      <trkpt lat="45.17787" lon="5.78622">
        <ele>308.4</ele>
        <time>2021-04-10T13:12:59Z</time>
      </trkpt>
      <trkpt lat="45.17788" lon="5.78623">
        <ele>307.8</ele>
        <time>2021-04-10T13:13:00Z</time>
      </trkpt>
      <trkpt lat="45.17789" lon="5.78624">
        <ele>307</ele>
        <time>2021-04-10T13:13:01Z</time>
      </trkpt>
      <trkpt lat="45.1779" lon="5.78626">
        <ele>305.8</ele>
        <time>2021-04-10T13:13:02Z</time>
      </trkpt>
      <trkpt lat="45.17791" lon="5.78627">
        <ele>305.6</ele>
        <time>2021-04-10T13:13:03Z</time>
      </trkpt>
      <trkpt lat="45.17792" lon="5.78629">
        <ele>305.2</ele>
        <time>2021-04-10T13:13:04Z</time>
      </trkpt>
      <trkpt lat="45.17795" lon="5.78634">
        <ele>305</ele>
        <time>2021-04-10T13:13:05Z</time>
      </trkpt>
      <trkpt lat="45.17795" lon="5.78634">
        <ele>304.4</ele>
        <time>2021-04-10T13:13:06Z</time>
      </trkpt>
      <trkpt lat="45.17795" lon="5.78634">
        <ele>303.8</ele>
        <time>2021-04-10T13:13:07Z</time>
      </trkpt>
      <trkpt lat="45.17797" lon="5.78636">
        <ele>303.2</ele>
        <time>2021-04-10T13:13:08Z</time>
      </trkpt>
      <trkpt lat="45.17798" lon="5.78638">
        <ele>302.8</ele>
        <time>2021-04-10T13:13:09Z</time>
      </trkpt>
      <trkpt lat="45.17799" lon="5.7864">
        <ele>302</ele>
        <time>2021-04-10T13:13:10Z</time>
      </trkpt>
      <trkpt lat="45.17801" lon="5.78642">
        <ele>301.2</ele>
        <time>2021-04-10T13:13:11Z</time>
      </trkpt>
      <trkpt lat="45.17802" lon="5.78644">
        <ele>300.2</ele>
        <time>2021-04-10T13:13:12Z</time>
      </trkpt>
      <trkpt lat="45.17804" lon="5.78646">
        <ele>299.6</ele>
        <time>2021-04-10T13:13:13Z</time>
      </trkpt>
      <trkpt lat="45.17805" lon="5.78648">
        <ele>299.6</ele>
        <time>2021-04-10T13:13:14Z</time>
      </trkpt>
      <trkpt lat="45.17806" lon="5.7865">
        <ele>299</ele>
        <time>2021-04-10T13:13:15Z</time>
      </trkpt>
      <trkpt lat="45.17807" lon="5.78653">
        <ele>298.6</ele>
        <time>2021-04-10T13:13:16Z</time>
      </trkpt>
      <trkpt lat="45.17809" lon="5.78655">
        <ele>298</ele>
        <time>2021-04-10T13:13:17Z</time>
      </trkpt>
      <trkpt lat="45.1781" lon="5.78657">
        <ele>297</ele>
        <time>2021-04-10T13:13:18Z</time>
      </trkpt>
      <trkpt lat="45.17811" lon="5.7866">
        <ele>296.8</ele>
        <time>2021-04-10T13:13:19Z</time>
      </trkpt>
      <trkpt lat="45.17812" lon="5.78662">
        <ele>296</ele>
        <time>2021-04-10T13:13:20Z</time>
      </trkpt>
      <trkpt lat="45.17813" lon="5.78665">
        <ele>295.8</ele>
        <time>2021-04-10T13:13:21Z</time>
      </trkpt>
      <trkpt lat="45.17814" lon="5.78667">
        <ele>295.2</ele>
        <time>2021-04-10T13:13:22Z</time>
      </trkpt>
      <trkpt lat="45.17816" lon="5.78671">
        <ele>294.8</ele>
        <time>2021-04-10T13:13:23Z</time>
      </trkpt>
      <trkpt lat="45.17818" lon="5.78675">
        <ele>294.2</ele>
        <time>2021-04-10T13:13:24Z</time>
      </trkpt>
      <trkpt lat="45.17819" lon="5.78679">
        <ele>293.8</ele>
        <time>2021-04-10T13:13:25Z</time>
      </trkpt>
      <trkpt lat="45.17821" lon="5.78683">
        <ele>293</ele>
        <time>2021-04-10T13:13:26Z</time>
      </trkpt>
      <trkpt lat="45.17823" lon="5.78687">
        <ele>292.8</ele>
        <time>2021-04-10T13:13:27Z</time>
      </trkpt>
      <trkpt lat="45.17825" lon="5.78691">
        <ele>292.2</ele>
        <time>2021-04-10T13:13:28Z</time>
      </trkpt>
      <trkpt lat="45.17826" lon="5.78694">
        <ele>291.8</ele>
        <time>2021-04-10T13:13:29Z</time>
      </trkpt>
      <trkpt lat="45.17827" lon="5.78696">
        <ele>290.8</ele>
        <time>2021-04-10T13:13:30Z</time>
      </trkpt>
      <trkpt lat="45.17828" lon="5.78698">
        <ele>290</ele>
        <time>2021-04-10T13:13:31Z</time>
      </trkpt>
      <trkpt lat="45.17829" lon="5.787">
        <ele>289.4</ele>
        <time>2021-04-10T13:13:32Z</time>
      </trkpt>
      <trkpt lat="45.1783" lon="5.78702">
        <ele>288.8</ele>
        <time>2021-04-10T13:13:33Z</time>
      </trkpt>
      <trkpt lat="45.17831" lon="5.78703">
        <ele>288.8</ele>
        <time>2021-04-10T13:13:34Z</time>
      </trkpt>
      <trkpt lat="45.17832" lon="5.78705">
        <ele>288.2</ele>
        <time>2021-04-10T13:13:35Z</time>
      </trkpt>
      <trkpt lat="45.17832" lon="5.78706">
        <ele>288</ele>
        <time>2021-04-10T13:13:36Z</time>
      </trkpt>
      <trkpt lat="45.17833" lon="5.78707">
        <ele>287.4</ele>
        <time>2021-04-10T13:13:37Z</time>
      </trkpt>
      <trkpt lat="45.17835" lon="5.78711">
        <ele>287</ele>
        <time>2021-04-10T13:13:38Z</time>
      </trkpt>
      <trkpt lat="45.17837" lon="5.78716">
        <ele>286.4</ele>
        <time>2021-04-10T13:13:39Z</time>
      </trkpt>
      <trkpt lat="45.1784" lon="5.78721">
        <ele>285.8</ele>
        <time>2021-04-10T13:13:40Z</time>
      </trkpt>
      <trkpt lat="45.17842" lon="5.78725">
        <ele>285</ele>
        <time>2021-04-10T13:13:41Z</time>
      </trkpt>
      <trkpt lat="45.17842" lon="5.78725">
        <ele>284</ele>
        <time>2021-04-10T13:13:42Z</time>
      </trkpt>
      <trkpt lat="45.17842" lon="5.78725">
        <ele>284</ele>
        <time>2021-04-10T13:13:43Z</time>
      </trkpt>
      <trkpt lat="45.17842" lon="5.78725">
        <ele>283.4</ele>
        <time>2021-04-10T13:13:44Z</time>
      </trkpt>
      <trkpt lat="45.17842" lon="5.78725">
        <ele>283.2</ele>
        <time>2021-04-10T13:13:45Z</time>
      </trkpt>
      <trkpt lat="45.17843" lon="5.78728">
        <ele>282.4</ele>
        <time>2021-04-10T13:13:46Z</time>
      </trkpt>
      <trkpt lat="45.17844" lon="5.7873">
        <ele>282</ele>
        <time>2021-04-10T13:13:47Z</time>
      </trkpt>
      <trkpt lat="45.17845" lon="5.78733">
        <ele>281.2</ele>
        <time>2021-04-10T13:13:48Z</time>
      </trkpt>
      <trkpt lat="45.17846" lon="5.78735">
        <ele>280.6</ele>
        <time>2021-04-10T13:13:49Z</time>
      </trkpt>
      <trkpt lat="45.17846" lon="5.78738">
        <ele>280</ele>
        <time>2021-04-10T13:13:50Z</time>
      </trkpt>
      <trkpt lat="45.17853" lon="5.78752">
        <ele>279.6</ele>
        <time>2021-04-10T13:13:51Z</time>
      </trkpt>
      <trkpt lat="45.17854" lon="5.78755">
        <ele>279</ele>
        <time>2021-04-10T13:13:52Z</time>
      </trkpt>
      <trkpt lat="45.17855" lon="5.78758">
        <ele>278.2</ele>
        <time>2021-04-10T13:13:53Z</time>
      </trkpt>
      <trkpt lat="45.17856" lon="5.78761">
        <ele>277.4</ele>
        <time>2021-04-10T13:13:54Z</time>
      </trkpt>
      <trkpt lat="45.17856" lon="5.78761">
        <ele>276.6</ele>
        <time>2021-04-10T13:13:55Z</time>
      </trkpt>
      <trkpt lat="45.17856" lon="5.78761">
        <ele>276.4</ele>
        <time>2021-04-10T13:13:56Z</time>
      </trkpt>
      <trkpt lat="45.17856" lon="5.78761">
        <ele>275.8</ele>
        <time>2021-04-10T13:13:57Z</time>
      </trkpt>
      <trkpt lat="45.17856" lon="5.78761">
        <ele>275.8</ele>
        <time>2021-04-10T13:13:58Z</time>
      </trkpt>
      <trkpt lat="45.17858" lon="5.78765">
        <ele>275.4</ele>
        <time>2021-04-10T13:13:59Z</time>
      </trkpt>
      <trkpt lat="45.17859" lon="5.78769">
        <ele>275.2</ele>
        <time>2021-04-10T13:14:00Z</time>
      </trkpt>
      <trkpt lat="45.17861" lon="5.78772">
        <ele>274.4</ele>
        <time>2021-04-10T13:14:01Z</time>
      </trkpt>
      <trkpt lat="45.17863" lon="5.78776">
        <ele>273.6</ele>
        <time>2021-04-10T13:14:02Z</time>
      </trkpt>
      <trkpt lat="45.17864" lon="5.7878">
        <ele>273</ele>
        <time>2021-04-10T13:14:03Z</time>
      </trkpt>
      <trkpt lat="45.17867" lon="5.78785">
        <ele>272.6</ele>
        <time>2021-04-10T13:14:04Z</time>
      </trkpt>
      <trkpt lat="45.17867" lon="5.78785">
        <ele>271.8</ele>
        <time>2021-04-10T13:14:05Z</time>
      </trkpt>
      <trkpt lat="45.17867" lon="5.78785">
        <ele>271.2</ele>
        <time>2021-04-10T13:14:06Z</time>
      </trkpt>
      <trkpt lat="45.17867" lon="5.78785">
        <ele>270.4</ele>
        <time>2021-04-10T13:14:07Z</time>
      </trkpt>
      <trkpt lat="45.17868" lon="5.78788">
        <ele>269.6</ele>
        <time>2021-04-10T13:14:08Z</time>
      </trkpt>
      <trkpt lat="45.17869" lon="5.7879">
        <ele>269.4</ele>
        <time>2021-04-10T13:14:09Z</time>
      </trkpt>
      <trkpt lat="45.1787" lon="5.78793">
        <ele>268.8</ele>
        <time>2021-04-10T13:14:10Z</time>
      </trkpt>
      <trkpt lat="45.17871" lon="5.78796">
        <ele>268.6</ele>
        <time>2021-04-10T13:14:11Z</time>
      </trkpt>
      <trkpt lat="45.17872" lon="5.78799">
        <ele>268</ele>
        <time>2021-04-10T13:14:12Z</time>
      </trkpt>
      <trkpt lat="45.17872" lon="5.78801">
        <ele>267.6</ele>
        <time>2021-04-10T13:14:13Z</time>
      </trkpt>
      <trkpt lat="45.17873" lon="5.78803">
        <ele>267</ele>
        <time>2021-04-10T13:14:14Z</time>
      </trkpt>
      <trkpt lat="45.17873" lon="5.78806">
        <ele>266</ele>
        <time>2021-04-10T13:14:15Z</time>
      </trkpt>
      <trkpt lat="45.17873" lon="5.78808">
        <ele>265.2</ele>
        <time>2021-04-10T13:14:16Z</time>
      </trkpt>
      <trkpt lat="45.17874" lon="5.7881">
        <ele>264.6</ele>
        <time>2021-04-10T13:14:17Z</time>
      </trkpt>
      <trkpt lat="45.17874" lon="5.78812">
        <ele>264.6</ele>
        <time>2021-04-10T13:14:18Z</time>
      </trkpt>
      <trkpt lat="45.17875" lon="5.78814">
        <ele>264.2</ele>
        <time>2021-04-10T13:14:19Z</time>
      </trkpt>
      <trkpt lat="45.17876" lon="5.78816">
        <ele>264.2</ele>
        <time>2021-04-10T13:14:20Z</time>
      </trkpt>
      <trkpt lat="45.17877" lon="5.78818">
        <ele>263.6</ele>
        <time>2021-04-10T13:14:21Z</time>
      </trkpt>
      <trkpt lat="45.17878" lon="5.7882">
        <ele>263.4</ele>
        <time>2021-04-10T13:14:22Z</time>
      </trkpt>
      <trkpt lat="45.17879" lon="5.78822">
        <ele>262.8</ele>
        <time>2021-04-10T13:14:23Z</time>
      </trkpt>
      <trkpt lat="45.17879" lon="5.78824">
        <ele>261.8</ele>
        <time>2021-04-10T13:14:24Z</time>
      </trkpt>
      <trkpt lat="45.1788" lon="5.78826">
        <ele>262</ele>
        <time>2021-04-10T13:14:25Z</time>
      </trkpt>
      <trkpt lat="45.17881" lon="5.78828">
        <ele>261.4</ele>
        <time>2021-04-10T13:14:26Z</time>
      </trkpt>
      <trkpt lat="45.17881" lon="5.7883">
        <ele>261.2</ele>
        <time>2021-04-10T13:14:27Z</time>
      </trkpt>
      <trkpt lat="45.17882" lon="5.78832">
        <ele>260.6</ele>
        <time>2021-04-10T13:14:28Z</time>
      </trkpt>
      <trkpt lat="45.17883" lon="5.78834">
        <ele>260.2</ele>
        <time>2021-04-10T13:14:29Z</time>
      </trkpt>
      <trkpt lat="45.17884" lon="5.78836">
        <ele>259.4</ele>
        <time>2021-04-10T13:14:30Z</time>
      </trkpt>
      <trkpt lat="45.17882" lon="5.78842">
        <ele>259.2</ele>
        <time>2021-04-10T13:14:31Z</time>
      </trkpt>
      <trkpt lat="45.17881" lon="5.78849">
        <ele>258.6</ele>
        <time>2021-04-10T13:14:32Z</time>
      </trkpt>
      <trkpt lat="45.17879" lon="5.78855">
        <ele>258</ele>
        <time>2021-04-10T13:14:33Z</time>
      </trkpt>
      <trkpt lat="45.17877" lon="5.78862">
        <ele>257.6</ele>
        <time>2021-04-10T13:14:34Z</time>
      </trkpt>
      <trkpt lat="45.17876" lon="5.78869">
        <ele>257</ele>
        <time>2021-04-10T13:14:35Z</time>
      </trkpt>
      <trkpt lat="45.17874" lon="5.78875">
        <ele>256.4</ele>
        <time>2021-04-10T13:14:36Z</time>
      </trkpt>
      <trkpt lat="45.17876" lon="5.78874">
        <ele>256.2</ele>
        <time>2021-04-10T13:14:37Z</time>
      </trkpt>
      <trkpt lat="45.17877" lon="5.78874">
        <ele>256.4</ele>
        <time>2021-04-10T13:14:38Z</time>
      </trkpt>
      <trkpt lat="45.17878" lon="5.78875">
        <ele>256.4</ele>
        <time>2021-04-10T13:14:39Z</time>
      </trkpt>
      <trkpt lat="45.17879" lon="5.78875">
        <ele>255.6</ele>
        <time>2021-04-10T13:14:40Z</time>
      </trkpt>
      <trkpt lat="45.1788" lon="5.78875">
        <ele>255.2</ele>
        <time>2021-04-10T13:14:41Z</time>
      </trkpt>
      <trkpt lat="45.17881" lon="5.78875">
        <ele>254.6</ele>
        <time>2021-04-10T13:14:42Z</time>
      </trkpt>
      <trkpt lat="45.17882" lon="5.78876">
        <ele>254.4</ele>
        <time>2021-04-10T13:14:43Z</time>
      </trkpt>
      <trkpt lat="45.17883" lon="5.78876">
        <ele>253.4</ele>
        <time>2021-04-10T13:14:44Z</time>
      </trkpt>
      <trkpt lat="45.17884" lon="5.78876">
        <ele>252.8</ele>
        <time>2021-04-10T13:14:45Z</time>
      </trkpt>
      <trkpt lat="45.17885" lon="5.78876">
        <ele>252.4</ele>
        <time>2021-04-10T13:14:46Z</time>
      </trkpt>
      <trkpt lat="45.17886" lon="5.78876">
        <ele>252.2</ele>
        <time>2021-04-10T13:14:47Z</time>
      </trkpt>
      <trkpt lat="45.17887" lon="5.78877">
        <ele>251.8</ele>
        <time>2021-04-10T13:14:48Z</time>
      </trkpt>
      <trkpt lat="45.17888" lon="5.78877">
        <ele>251.6</ele>
        <time>2021-04-10T13:14:49Z</time>
      </trkpt>
      <trkpt lat="45.17889" lon="5.78877">
        <ele>251.4</ele>
        <time>2021-04-10T13:14:50Z</time>
      </trkpt>
      <trkpt lat="45.1789" lon="5.78877">
        <ele>251.2</ele>
        <time>2021-04-10T13:14:51Z</time>
      </trkpt>
      <trkpt lat="45.17891" lon="5.78877">
        <ele>251</ele>
        <time>2021-04-10T13:14:52Z</time>
      </trkpt>
      <trkpt lat="45.17892" lon="5.78878">
        <ele>250.8</ele>
        <time>2021-04-10T13:14:53Z</time>
      </trkpt>
      <trkpt lat="45.17893" lon="5.78878">
        <ele>250.8</ele>
        <time>2021-04-10T13:14:54Z</time>
      </trkpt>
      <trkpt lat="45.17894" lon="5.78878">
        <ele>250.2</ele>
        <time>2021-04-10T13:14:55Z</time>
      </trkpt>
      <trkpt lat="45.17895" lon="5.78878">
        <ele>250.4</ele>
        <time>2021-04-10T13:14:56Z</time>
      </trkpt>
      <trkpt lat="45.17897" lon="5.78879">
        <ele>250.4</ele>
        <time>2021-04-10T13:14:57Z</time>
      </trkpt>
      <trkpt lat="45.17898" lon="5.78879">
        <ele>250.4</ele>
        <time>2021-04-10T13:14:58Z</time>
      </trkpt>
      <trkpt lat="45.17899" lon="5.78881">
        <ele>250.6</ele>
        <time>2021-04-10T13:14:59Z</time>
      </trkpt>
      <trkpt lat="45.179" lon="5.78884">
        <ele>250.4</ele>
        <time>2021-04-10T13:15:00Z</time>
      </trkpt>
      <trkpt lat="45.17902" lon="5.78887">
        <ele>250.6</ele>
        <time>2021-04-10T13:15:01Z</time>
      </trkpt>
      <trkpt lat="45.17902" lon="5.78887">
        <ele>250.6</ele>
        <time>2021-04-10T13:15:02Z</time>
      </trkpt>
      <trkpt lat="45.17902" lon="5.78887">
        <ele>250.6</ele>
        <time>2021-04-10T13:15:03Z</time>
      </trkpt>
      <trkpt lat="45.17902" lon="5.78887">
        <ele>250.6</ele>
        <time>2021-04-10T13:15:04Z</time>
      </trkpt>
      <trkpt lat="45.17902" lon="5.78887">
        <ele>250.4</ele>
        <time>2021-04-10T13:15:05Z</time>
      </trkpt>
      <trkpt lat="45.17903" lon="5.78889">
        <ele>250.4</ele>
        <time>2021-04-10T13:15:06Z</time>
      </trkpt>
      <trkpt lat="45.17903" lon="5.78892">
        <ele>250.2</ele>
        <time>2021-04-10T13:15:07Z</time>
      </trkpt>
      <trkpt lat="45.17904" lon="5.78894">
        <ele>250.2</ele>
        <time>2021-04-10T13:15:08Z</time>
      </trkpt>
      <trkpt lat="45.17905" lon="5.78897">
        <ele>249.8</ele>
        <time>2021-04-10T13:15:09Z</time>
      </trkpt>
      <trkpt lat="45.17906" lon="5.78899">
        <ele>249.6</ele>
        <time>2021-04-10T13:15:10Z</time>
      </trkpt>
      <trkpt lat="45.17906" lon="5.78901">
        <ele>249.4</ele>
        <time>2021-04-10T13:15:11Z</time>
      </trkpt>
      <trkpt lat="45.17907" lon="5.78904">
        <ele>249.4</ele>
        <time>2021-04-10T13:15:12Z</time>
      </trkpt>
      <trkpt lat="45.17908" lon="5.78906">
        <ele>249</ele>
        <time>2021-04-10T13:15:13Z</time>
      </trkpt>
      <trkpt lat="45.17909" lon="5.78908">
        <ele>248.8</ele>
        <time>2021-04-10T13:15:14Z</time>
      </trkpt>
      <trkpt lat="45.1791" lon="5.7891">
        <ele>248.4</ele>
        <time>2021-04-10T13:15:15Z</time>
      </trkpt>
      <trkpt lat="45.17912" lon="5.78915">
        <ele>248</ele>
        <time>2021-04-10T13:15:16Z</time>
      </trkpt>
      <trkpt lat="45.17914" lon="5.78917">
        <ele>247.4</ele>
        <time>2021-04-10T13:15:17Z</time>
      </trkpt>
      <trkpt lat="45.17915" lon="5.7892">
        <ele>247</ele>
        <time>2021-04-10T13:15:18Z</time>
      </trkpt>
      <trkpt lat="45.17917" lon="5.78922">
        <ele>247</ele>
        <time>2021-04-10T13:15:19Z</time>
      </trkpt>
      <trkpt lat="45.17918" lon="5.78925">
        <ele>246.8</ele>
        <time>2021-04-10T13:15:20Z</time>
      </trkpt>
      <trkpt lat="45.1792" lon="5.78928">
        <ele>246.8</ele>
        <time>2021-04-10T13:15:21Z</time>
      </trkpt>
      <trkpt lat="45.17921" lon="5.7893">
        <ele>246.4</ele>
        <time>2021-04-10T13:15:22Z</time>
      </trkpt>
      <trkpt lat="45.17923" lon="5.78933">
        <ele>246.4</ele>
        <time>2021-04-10T13:15:23Z</time>
      </trkpt>
      <trkpt lat="45.17923" lon="5.78933">
        <ele>246.2</ele>
        <time>2021-04-10T13:15:24Z</time>
      </trkpt>
      <trkpt lat="45.17923" lon="5.78933">
        <ele>246.4</ele>
        <time>2021-04-10T13:15:25Z</time>
      </trkpt>
      <trkpt lat="45.17923" lon="5.78933">
        <ele>246.2</ele>
        <time>2021-04-10T13:15:26Z</time>
      </trkpt>
      <trkpt lat="45.17923" lon="5.78933">
        <ele>246.2</ele>
        <time>2021-04-10T13:15:27Z</time>
      </trkpt>
      <trkpt lat="45.17924" lon="5.78935">
        <ele>246</ele>
        <time>2021-04-10T13:15:28Z</time>
      </trkpt>
      <trkpt lat="45.17925" lon="5.78937">
        <ele>246.2</ele>
        <time>2021-04-10T13:15:29Z</time>
      </trkpt>
      <trkpt lat="45.17926" lon="5.78939">
        <ele>246</ele>
        <time>2021-04-10T13:15:30Z</time>
      </trkpt>
      <trkpt lat="45.17927" lon="5.78941">
        <ele>246</ele>
        <time>2021-04-10T13:15:31Z</time>
      </trkpt>
      <trkpt lat="45.17928" lon="5.78943">
        <ele>246.2</ele>
        <time>2021-04-10T13:15:32Z</time>
      </trkpt>
      <trkpt lat="45.17929" lon="5.78945">
        <ele>246.2</ele>
        <time>2021-04-10T13:15:33Z</time>
      </trkpt>
      <trkpt lat="45.17929" lon="5.7895">
        <ele>246</ele>
        <time>2021-04-10T13:15:34Z</time>
      </trkpt>
      <trkpt lat="45.17928" lon="5.78954">
        <ele>245.8</ele>
        <time>2021-04-10T13:15:35Z</time>
      </trkpt>
      <trkpt lat="45.17928" lon="5.78959">
        <ele>245.8</ele>
        <time>2021-04-10T13:15:36Z</time>
      </trkpt>
      <trkpt lat="45.17928" lon="5.78963">
        <ele>245.6</ele>
        <time>2021-04-10T13:15:37Z</time>
      </trkpt>
      <trkpt lat="45.17927" lon="5.78968">
        <ele>245.4</ele>
        <time>2021-04-10T13:15:38Z</time>
      </trkpt>
      <trkpt lat="45.17928" lon="5.78976">
        <ele>245.6</ele>
        <time>2021-04-10T13:15:39Z</time>
      </trkpt>
      <trkpt lat="45.17928" lon="5.78976">
        <ele>245.6</ele>
        <time>2021-04-10T13:15:40Z</time>
      </trkpt>
      <trkpt lat="45.17929" lon="5.78977">
        <ele>245.6</ele>
        <time>2021-04-10T13:15:41Z</time>
      </trkpt>
      <trkpt lat="45.1793" lon="5.78977">
        <ele>245.4</ele>
        <time>2021-04-10T13:15:42Z</time>
      </trkpt>
      <trkpt lat="45.1793" lon="5.78978">
        <ele>245.6</ele>
        <time>2021-04-10T13:15:43Z</time>
      </trkpt>
      <trkpt lat="45.17931" lon="5.78978">
        <ele>245.6</ele>
        <time>2021-04-10T13:15:44Z</time>
      </trkpt>
      <trkpt lat="45.17932" lon="5.78979">
        <ele>245.6</ele>
        <time>2021-04-10T13:15:45Z</time>
      </trkpt>
      <trkpt lat="45.17932" lon="5.7898">
        <ele>245.4</ele>
        <time>2021-04-10T13:15:46Z</time>
      </trkpt>
      <trkpt lat="45.17933" lon="5.7898">
        <ele>245.6</ele>
        <time>2021-04-10T13:15:47Z</time>
      </trkpt>
      <trkpt lat="45.17934" lon="5.78981">
        <ele>245.2</ele>
        <time>2021-04-10T13:15:48Z</time>
      </trkpt>
      <trkpt lat="45.17935" lon="5.78981">
        <ele>245.4</ele>
        <time>2021-04-10T13:15:49Z</time>
      </trkpt>
      <trkpt lat="45.17935" lon="5.78982">
        <ele>245</ele>
        <time>2021-04-10T13:15:50Z</time>
      </trkpt>
      <trkpt lat="45.17936" lon="5.78982">
        <ele>245.4</ele>
        <time>2021-04-10T13:15:51Z</time>
      </trkpt>
      <trkpt lat="45.17937" lon="5.78983">
        <ele>245</ele>
        <time>2021-04-10T13:15:52Z</time>
      </trkpt>
      <trkpt lat="45.17937" lon="5.78984">
        <ele>245.2</ele>
        <time>2021-04-10T13:15:53Z</time>
      </trkpt>
      <trkpt lat="45.17938" lon="5.78984">
        <ele>244.8</ele>
        <time>2021-04-10T13:15:54Z</time>
      </trkpt>
      <trkpt lat="45.17939" lon="5.78985">
        <ele>245</ele>
        <time>2021-04-10T13:15:55Z</time>
      </trkpt>
      <trkpt lat="45.1794" lon="5.78985">
        <ele>244.6</ele>
        <time>2021-04-10T13:15:56Z</time>
      </trkpt>
      <trkpt lat="45.17946" lon="5.78982">
        <ele>244.6</ele>
        <time>2021-04-10T13:15:57Z</time>
      </trkpt>
      <trkpt lat="45.1795" lon="5.7898">
        <ele>244.2</ele>
        <time>2021-04-10T13:15:58Z</time>
      </trkpt>
      <trkpt lat="45.17953" lon="5.78978">
        <ele>244.4</ele>
        <time>2021-04-10T13:15:59Z</time>
      </trkpt>
      <trkpt lat="45.17956" lon="5.78976">
        <ele>244</ele>
        <time>2021-04-10T13:16:00Z</time>
      </trkpt>
      <trkpt lat="45.17958" lon="5.78975">
        <ele>243.8</ele>
        <time>2021-04-10T13:16:01Z</time>
      </trkpt>
      <trkpt lat="45.17961" lon="5.78974">
        <ele>243.6</ele>
        <time>2021-04-10T13:16:02Z</time>
      </trkpt>
      <trkpt lat="45.17963" lon="5.78973">
        <ele>243.4</ele>
        <time>2021-04-10T13:16:03Z</time>
      </trkpt>
      <trkpt lat="45.17965" lon="5.78967">
        <ele>243</ele>
        <time>2021-04-10T13:16:04Z</time>
      </trkpt>
      <trkpt lat="45.17966" lon="5.78963">
        <ele>243</ele>
        <time>2021-04-10T13:16:05Z</time>
      </trkpt>
      <trkpt lat="45.17968" lon="5.7896">
        <ele>242.8</ele>
        <time>2021-04-10T13:16:06Z</time>
      </trkpt>
      <trkpt lat="45.17969" lon="5.78956">
        <ele>242.8</ele>
        <time>2021-04-10T13:16:07Z</time>
      </trkpt>
      <trkpt lat="45.17972" lon="5.78953">
        <ele>242.8</ele>
        <time>2021-04-10T13:16:08Z</time>
      </trkpt>
      <trkpt lat="45.17974" lon="5.78951">
        <ele>242.6</ele>
        <time>2021-04-10T13:16:09Z</time>
      </trkpt>
      <trkpt lat="45.17976" lon="5.78949">
        <ele>242.6</ele>
        <time>2021-04-10T13:16:10Z</time>
      </trkpt>
      <trkpt lat="45.17977" lon="5.78948">
        <ele>242.6</ele>
        <time>2021-04-10T13:16:11Z</time>
      </trkpt>
      <trkpt lat="45.17979" lon="5.78947">
        <ele>242.8</ele>
        <time>2021-04-10T13:16:12Z</time>
      </trkpt>
      <trkpt lat="45.1798" lon="5.78946">
        <ele>242.6</ele>
        <time>2021-04-10T13:16:13Z</time>
      </trkpt>
      <trkpt lat="45.17987" lon="5.7894">
        <ele>242.6</ele>
        <time>2021-04-10T13:16:14Z</time>
      </trkpt>
      <trkpt lat="45.1799" lon="5.78937">
        <ele>242.4</ele>
        <time>2021-04-10T13:16:15Z</time>
      </trkpt>
      <trkpt lat="45.17993" lon="5.78935">
        <ele>242.6</ele>
        <time>2021-04-10T13:16:16Z</time>
      </trkpt>
      <trkpt lat="45.17996" lon="5.78933">
        <ele>242.6</ele>
        <time>2021-04-10T13:16:17Z</time>
      </trkpt>
      <trkpt lat="45.17998" lon="5.7893">
        <ele>242.4</ele>
        <time>2021-04-10T13:16:18Z</time>
      </trkpt>
      <trkpt lat="45.18001" lon="5.78927">
        <ele>242.4</ele>
        <time>2021-04-10T13:16:19Z</time>
      </trkpt>
      <trkpt lat="45.18002" lon="5.78925">
        <ele>242.8</ele>
        <time>2021-04-10T13:16:20Z</time>
      </trkpt>
      <trkpt lat="45.18003" lon="5.78924">
        <ele>242.6</ele>
        <time>2021-04-10T13:16:21Z</time>
      </trkpt>
      <trkpt lat="45.18005" lon="5.78922">
        <ele>242.8</ele>
        <time>2021-04-10T13:16:22Z</time>
      </trkpt>
      <trkpt lat="45.18006" lon="5.78921">
        <ele>242.6</ele>
        <time>2021-04-10T13:16:23Z</time>
      </trkpt>
      <trkpt lat="45.18011" lon="5.78914">
        <ele>242.8</ele>
        <time>2021-04-10T13:16:24Z</time>
      </trkpt>
      <trkpt lat="45.18015" lon="5.78912">
        <ele>242.4</ele>
        <time>2021-04-10T13:16:25Z</time>
      </trkpt>
      <trkpt lat="45.18018" lon="5.7891">
        <ele>242.4</ele>
        <time>2021-04-10T13:16:26Z</time>
      </trkpt>
      <trkpt lat="45.18021" lon="5.78908">
        <ele>242</ele>
        <time>2021-04-10T13:16:27Z</time>
      </trkpt>
      <trkpt lat="45.18022" lon="5.78907">
        <ele>242.2</ele>
        <time>2021-04-10T13:16:28Z</time>
      </trkpt>
      <trkpt lat="45.18024" lon="5.78905">
        <ele>241.8</ele>
        <time>2021-04-10T13:16:29Z</time>
      </trkpt>
      <trkpt lat="45.18029" lon="5.78899">
        <ele>241.8</ele>
        <time>2021-04-10T13:16:30Z</time>
      </trkpt>
      <trkpt lat="45.18032" lon="5.78896">
        <ele>241.2</ele>
        <time>2021-04-10T13:16:31Z</time>
      </trkpt>
      <trkpt lat="45.18034" lon="5.78893">
        <ele>241</ele>
        <time>2021-04-10T13:16:32Z</time>
      </trkpt>
      <trkpt lat="45.18036" lon="5.78891">
        <ele>240.8</ele>
        <time>2021-04-10T13:16:33Z</time>
      </trkpt>
      <trkpt lat="45.18038" lon="5.78889">
        <ele>240.6</ele>
        <time>2021-04-10T13:16:34Z</time>
      </trkpt>
      <trkpt lat="45.18042" lon="5.78887">
        <ele>240.4</ele>
        <time>2021-04-10T13:16:35Z</time>
      </trkpt>
      <trkpt lat="45.18044" lon="5.78886">
        <ele>240.4</ele>
        <time>2021-04-10T13:16:36Z</time>
      </trkpt>
      <trkpt lat="45.18046" lon="5.78884">
        <ele>240.4</ele>
        <time>2021-04-10T13:16:37Z</time>
      </trkpt>
      <trkpt lat="45.18048" lon="5.78883">
        <ele>240.4</ele>
        <time>2021-04-10T13:16:38Z</time>
      </trkpt>
      <trkpt lat="45.18049" lon="5.78882">
        <ele>240.4</ele>
        <time>2021-04-10T13:16:39Z</time>
      </trkpt>
      <trkpt lat="45.18051" lon="5.78882">
        <ele>240.4</ele>
        <time>2021-04-10T13:16:40Z</time>
      </trkpt>
      <trkpt lat="45.18052" lon="5.78882">
        <ele>240.6</ele>
        <time>2021-04-10T13:16:41Z</time>
      </trkpt>
      <trkpt lat="45.18056" lon="5.7888">
        <ele>240.4</ele>
        <time>2021-04-10T13:16:42Z</time>
      </trkpt>
      <trkpt lat="45.18058" lon="5.78878">
        <ele>240.6</ele>
        <time>2021-04-10T13:16:43Z</time>
      </trkpt>
      <trkpt lat="45.1806" lon="5.78876">
        <ele>240.4</ele>
        <time>2021-04-10T13:16:44Z</time>
      </trkpt>
      <trkpt lat="45.18062" lon="5.78874">
        <ele>240.6</ele>
        <time>2021-04-10T13:16:45Z</time>
      </trkpt>
      <trkpt lat="45.18067" lon="5.78869">
        <ele>240.2</ele>
        <time>2021-04-10T13:16:46Z</time>
      </trkpt>
      <trkpt lat="45.1807" lon="5.78864">
        <ele>240.4</ele>
        <time>2021-04-10T13:16:47Z</time>
      </trkpt>
      <trkpt lat="45.18073" lon="5.78861">
        <ele>240.2</ele>
        <time>2021-04-10T13:16:48Z</time>
      </trkpt>
      <trkpt lat="45.18075" lon="5.78858">
        <ele>240.6</ele>
        <time>2021-04-10T13:16:49Z</time>
      </trkpt>
      <trkpt lat="45.18078" lon="5.78855">
        <ele>240.2</ele>
        <time>2021-04-10T13:16:50Z</time>
      </trkpt>
      <trkpt lat="45.18079" lon="5.78853">
        <ele>240</ele>
        <time>2021-04-10T13:16:51Z</time>
      </trkpt>
      <trkpt lat="45.18081" lon="5.7885">
        <ele>239.6</ele>
        <time>2021-04-10T13:16:52Z</time>
      </trkpt>
      <trkpt lat="45.18083" lon="5.78848">
        <ele>239.6</ele>
        <time>2021-04-10T13:16:53Z</time>
      </trkpt>
      <trkpt lat="45.18085" lon="5.78846">
        <ele>239.2</ele>
        <time>2021-04-10T13:16:54Z</time>
      </trkpt>
      <trkpt lat="45.18087" lon="5.78844">
        <ele>239.2</ele>
        <time>2021-04-10T13:16:55Z</time>
      </trkpt>
      <trkpt lat="45.18088" lon="5.78842">
        <ele>238.6</ele>
        <time>2021-04-10T13:16:56Z</time>
      </trkpt>
      <trkpt lat="45.1809" lon="5.78841">
        <ele>238.6</ele>
        <time>2021-04-10T13:16:57Z</time>
      </trkpt>
      <trkpt lat="45.18091" lon="5.78839">
        <ele>238.4</ele>
        <time>2021-04-10T13:16:58Z</time>
      </trkpt>
      <trkpt lat="45.18093" lon="5.78838">
        <ele>238.2</ele>
        <time>2021-04-10T13:16:59Z</time>
      </trkpt>
      <trkpt lat="45.18094" lon="5.78837">
        <ele>237.8</ele>
        <time>2021-04-10T13:17:00Z</time>
      </trkpt>
      <trkpt lat="45.18096" lon="5.78836">
        <ele>237.8</ele>
        <time>2021-04-10T13:17:01Z</time>
      </trkpt>
      <trkpt lat="45.18101" lon="5.78831">
        <ele>237.8</ele>
        <time>2021-04-10T13:17:02Z</time>
      </trkpt>
      <trkpt lat="45.18104" lon="5.78828">
        <ele>237.8</ele>
        <time>2021-04-10T13:17:03Z</time>
      </trkpt>
      <trkpt lat="45.18105" lon="5.78826">
        <ele>237.8</ele>
        <time>2021-04-10T13:17:04Z</time>
      </trkpt>
      <trkpt lat="45.18107" lon="5.78824">
        <ele>237.8</ele>
        <time>2021-04-10T13:17:05Z</time>
      </trkpt>
      <trkpt lat="45.18108" lon="5.78823">
        <ele>238</ele>
        <time>2021-04-10T13:17:06Z</time>
      </trkpt>
      <trkpt lat="45.18109" lon="5.78822">
        <ele>237.8</ele>
        <time>2021-04-10T13:17:07Z</time>
      </trkpt>
      <trkpt lat="45.18109" lon="5.7882">
        <ele>237.6</ele>
        <time>2021-04-10T13:17:08Z</time>
      </trkpt>
      <trkpt lat="45.1811" lon="5.78819">
        <ele>237.4</ele>
        <time>2021-04-10T13:17:09Z</time>
      </trkpt>
      <trkpt lat="45.18113" lon="5.78813">
        <ele>237.4</ele>
        <time>2021-04-10T13:17:10Z</time>
      </trkpt>
      <trkpt lat="45.18114" lon="5.78811">
        <ele>237.4</ele>
        <time>2021-04-10T13:17:11Z</time>
      </trkpt>
      <trkpt lat="45.18115" lon="5.78809">
        <ele>237.6</ele>
        <time>2021-04-10T13:17:12Z</time>
      </trkpt>
      <trkpt lat="45.18116" lon="5.78807">
        <ele>237.4</ele>
        <time>2021-04-10T13:17:13Z</time>
      </trkpt>
      <trkpt lat="45.18118" lon="5.78801">
        <ele>237.6</ele>
        <time>2021-04-10T13:17:14Z</time>
      </trkpt>
      <trkpt lat="45.18119" lon="5.78797">
        <ele>237.4</ele>
        <time>2021-04-10T13:17:15Z</time>
      </trkpt>
      <trkpt lat="45.18119" lon="5.78794">
        <ele>237.8</ele>
        <time>2021-04-10T13:17:16Z</time>
      </trkpt>
      <trkpt lat="45.1812" lon="5.78791">
        <ele>237.4</ele>
        <time>2021-04-10T13:17:17Z</time>
      </trkpt>
      <trkpt lat="45.18122" lon="5.78781">
        <ele>237.6</ele>
        <time>2021-04-10T13:17:18Z</time>
      </trkpt>
      <trkpt lat="45.18123" lon="5.78776">
        <ele>237</ele>
        <time>2021-04-10T13:17:19Z</time>
      </trkpt>
      <trkpt lat="45.18124" lon="5.78773">
        <ele>236.8</ele>
        <time>2021-04-10T13:17:20Z</time>
      </trkpt>
      <trkpt lat="45.18125" lon="5.7877">
        <ele>236.6</ele>
        <time>2021-04-10T13:17:21Z</time>
      </trkpt>
      <trkpt lat="45.18128" lon="5.78766">
        <ele>236.6</ele>
        <time>2021-04-10T13:17:22Z</time>
      </trkpt>
      <trkpt lat="45.1813" lon="5.78763">
        <ele>236.2</ele>
        <time>2021-04-10T13:17:23Z</time>
      </trkpt>
      <trkpt lat="45.18132" lon="5.7876">
        <ele>236.4</ele>
        <time>2021-04-10T13:17:24Z</time>
      </trkpt>
      <trkpt lat="45.18133" lon="5.78758">
        <ele>236.2</ele>
        <time>2021-04-10T13:17:25Z</time>
      </trkpt>
      <trkpt lat="45.18134" lon="5.78752">
        <ele>236.2</ele>
        <time>2021-04-10T13:17:26Z</time>
      </trkpt>
      <trkpt lat="45.18134" lon="5.78749">
        <ele>236.2</ele>
        <time>2021-04-10T13:17:27Z</time>
      </trkpt>
      <trkpt lat="45.18134" lon="5.78746">
        <ele>236.2</ele>
        <time>2021-04-10T13:17:28Z</time>
      </trkpt>
      <trkpt lat="45.18134" lon="5.78743">
        <ele>236.2</ele>
        <time>2021-04-10T13:17:29Z</time>
      </trkpt>
      <trkpt lat="45.18134" lon="5.78743">
        <ele>236</ele>
        <time>2021-04-10T13:17:30Z</time>
      </trkpt>
      <trkpt lat="45.18134" lon="5.78743">
        <ele>236</ele>
        <time>2021-04-10T13:17:31Z</time>
      </trkpt>
      <trkpt lat="45.18134" lon="5.78743">
        <ele>236</ele>
        <time>2021-04-10T13:17:32Z</time>
      </trkpt>
      <trkpt lat="45.18136" lon="5.78739">
        <ele>236.2</ele>
        <time>2021-04-10T13:17:33Z</time>
      </trkpt>
      <trkpt lat="45.18138" lon="5.78735">
        <ele>236.2</ele>
        <time>2021-04-10T13:17:34Z</time>
      </trkpt>
      <trkpt lat="45.1814" lon="5.78731">
        <ele>236.6</ele>
        <time>2021-04-10T13:17:35Z</time>
      </trkpt>
      <trkpt lat="45.18142" lon="5.78727">
        <ele>236.6</ele>
        <time>2021-04-10T13:17:36Z</time>
      </trkpt>
      <trkpt lat="45.18143" lon="5.78723">
        <ele>237</ele>
        <time>2021-04-10T13:17:37Z</time>
      </trkpt>
      <trkpt lat="45.18146" lon="5.78716">
        <ele>236.6</ele>
        <time>2021-04-10T13:17:38Z</time>
      </trkpt>
      <trkpt lat="45.18145" lon="5.78711">
        <ele>237</ele>
        <time>2021-04-10T13:17:39Z</time>
      </trkpt>
      <trkpt lat="45.18144" lon="5.78706">
        <ele>236.6</ele>
        <time>2021-04-10T13:17:40Z</time>
      </trkpt>
      <trkpt lat="45.18145" lon="5.78702">
        <ele>237</ele>
        <time>2021-04-10T13:17:41Z</time>
      </trkpt>
      <trkpt lat="45.18145" lon="5.78698">
        <ele>236.6</ele>
        <time>2021-04-10T13:17:42Z</time>
      </trkpt>
      <trkpt lat="45.18145" lon="5.78693">
        <ele>236.6</ele>
        <time>2021-04-10T13:17:43Z</time>
      </trkpt>
      <trkpt lat="45.18145" lon="5.78691">
        <ele>236.4</ele>
        <time>2021-04-10T13:17:44Z</time>
      </trkpt>
      <trkpt lat="45.18144" lon="5.78689">
        <ele>236.4</ele>
        <time>2021-04-10T13:17:45Z</time>
      </trkpt>
      <trkpt lat="45.18144" lon="5.78687">
        <ele>236</ele>
        <time>2021-04-10T13:17:46Z</time>
      </trkpt>
      <trkpt lat="45.18144" lon="5.78685">
        <ele>235.8</ele>
        <time>2021-04-10T13:17:47Z</time>
      </trkpt>
      <trkpt lat="45.18144" lon="5.78683">
        <ele>235.4</ele>
        <time>2021-04-10T13:17:48Z</time>
      </trkpt>
      <trkpt lat="45.18143" lon="5.78672">
        <ele>235.4</ele>
        <time>2021-04-10T13:17:49Z</time>
      </trkpt>
      <trkpt lat="45.18143" lon="5.78668">
        <ele>235.4</ele>
        <time>2021-04-10T13:17:50Z</time>
      </trkpt>
      <trkpt lat="45.18142" lon="5.78665">
        <ele>235.2</ele>
        <time>2021-04-10T13:17:51Z</time>
      </trkpt>
      <trkpt lat="45.18141" lon="5.78659">
        <ele>235</ele>
        <time>2021-04-10T13:17:52Z</time>
      </trkpt>
      <trkpt lat="45.18141" lon="5.78656">
        <ele>235</ele>
        <time>2021-04-10T13:17:53Z</time>
      </trkpt>
      <trkpt lat="45.18141" lon="5.78652">
        <ele>235.2</ele>
        <time>2021-04-10T13:17:54Z</time>
      </trkpt>
      <trkpt lat="45.1814" lon="5.78649">
        <ele>235</ele>
        <time>2021-04-10T13:17:55Z</time>
      </trkpt>
      <trkpt lat="45.1814" lon="5.78645">
        <ele>234.8</ele>
        <time>2021-04-10T13:17:56Z</time>
      </trkpt>
      <trkpt lat="45.18141" lon="5.7864">
        <ele>234.6</ele>
        <time>2021-04-10T13:17:57Z</time>
      </trkpt>
      <trkpt lat="45.18141" lon="5.78637">
        <ele>234.8</ele>
        <time>2021-04-10T13:17:58Z</time>
      </trkpt>
      <trkpt lat="45.18141" lon="5.78633">
        <ele>234.8</ele>
        <time>2021-04-10T13:17:59Z</time>
      </trkpt>
      <trkpt lat="45.18141" lon="5.78629">
        <ele>235</ele>
        <time>2021-04-10T13:18:00Z</time>
      </trkpt>
      <trkpt lat="45.18142" lon="5.78625">
        <ele>234.6</ele>
        <time>2021-04-10T13:18:01Z</time>
      </trkpt>
      <trkpt lat="45.18143" lon="5.7862">
        <ele>234.6</ele>
        <time>2021-04-10T13:18:02Z</time>
      </trkpt>
      <trkpt lat="45.18143" lon="5.78618">
        <ele>234.4</ele>
        <time>2021-04-10T13:18:03Z</time>
      </trkpt>
      <trkpt lat="45.18143" lon="5.78616">
        <ele>235</ele>
        <time>2021-04-10T13:18:04Z</time>
      </trkpt>
      <trkpt lat="45.18144" lon="5.78615">
        <ele>234.6</ele>
        <time>2021-04-10T13:18:05Z</time>
      </trkpt>
      <trkpt lat="45.18144" lon="5.78613">
        <ele>235</ele>
        <time>2021-04-10T13:18:06Z</time>
      </trkpt>
      <trkpt lat="45.18144" lon="5.78611">
        <ele>235</ele>
        <time>2021-04-10T13:18:07Z</time>
      </trkpt>
      <trkpt lat="45.18146" lon="5.78601">
        <ele>235.4</ele>
        <time>2021-04-10T13:18:08Z</time>
      </trkpt>
      <trkpt lat="45.18148" lon="5.78595">
        <ele>235</ele>
        <time>2021-04-10T13:18:09Z</time>
      </trkpt>
      <trkpt lat="45.18149" lon="5.78592">
        <ele>235.2</ele>
        <time>2021-04-10T13:18:10Z</time>
      </trkpt>
      <trkpt lat="45.1815" lon="5.78588">
        <ele>235</ele>
        <time>2021-04-10T13:18:11Z</time>
      </trkpt>
      <trkpt lat="45.18152" lon="5.78583">
        <ele>235.2</ele>
        <time>2021-04-10T13:18:12Z</time>
      </trkpt>
      <trkpt lat="45.18153" lon="5.78579">
        <ele>234.8</ele>
        <time>2021-04-10T13:18:13Z</time>
      </trkpt>
      <trkpt lat="45.18154" lon="5.78576">
        <ele>234.8</ele>
        <time>2021-04-10T13:18:14Z</time>
      </trkpt>
      <trkpt lat="45.18155" lon="5.78572">
        <ele>234.6</ele>
        <time>2021-04-10T13:18:15Z</time>
      </trkpt>
      <trkpt lat="45.18155" lon="5.78567">
        <ele>234.8</ele>
        <time>2021-04-10T13:18:16Z</time>
      </trkpt>
      <trkpt lat="45.18156" lon="5.78564">
        <ele>234.4</ele>
        <time>2021-04-10T13:18:17Z</time>
      </trkpt>
      <trkpt lat="45.18157" lon="5.7856">
        <ele>234.2</ele>
        <time>2021-04-10T13:18:18Z</time>
      </trkpt>
      <trkpt lat="45.18157" lon="5.78557">
        <ele>233.8</ele>
        <time>2021-04-10T13:18:19Z</time>
      </trkpt>
      <trkpt lat="45.18158" lon="5.78552">
        <ele>233.6</ele>
        <time>2021-04-10T13:18:20Z</time>
      </trkpt>
      <trkpt lat="45.18158" lon="5.7855">
        <ele>233.4</ele>
        <time>2021-04-10T13:18:21Z</time>
      </trkpt>
      <trkpt lat="45.18159" lon="5.78547">
        <ele>233.2</ele>
        <time>2021-04-10T13:18:22Z</time>
      </trkpt>
      <trkpt lat="45.18159" lon="5.78544">
        <ele>233.4</ele>
        <time>2021-04-10T13:18:23Z</time>
      </trkpt>
      <trkpt lat="45.1816" lon="5.78542">
        <ele>233.4</ele>
        <time>2021-04-10T13:18:24Z</time>
      </trkpt>
      <trkpt lat="45.1816" lon="5.78541">
        <ele>233.4</ele>
        <time>2021-04-10T13:18:25Z</time>
      </trkpt>
      <trkpt lat="45.18161" lon="5.78539">
        <ele>233.4</ele>
        <time>2021-04-10T13:18:26Z</time>
      </trkpt>
      <trkpt lat="45.18161" lon="5.78537">
        <ele>233.4</ele>
        <time>2021-04-10T13:18:27Z</time>
      </trkpt>
      <trkpt lat="45.18163" lon="5.7853">
        <ele>233.4</ele>
        <time>2021-04-10T13:18:28Z</time>
      </trkpt>
      <trkpt lat="45.18163" lon="5.7853">
        <ele>233.4</ele>
        <time>2021-04-10T13:18:29Z</time>
      </trkpt>
      <trkpt lat="45.18163" lon="5.7853">
        <ele>233.2</ele>
        <time>2021-04-10T13:18:30Z</time>
      </trkpt>
      <trkpt lat="45.18165" lon="5.78526">
        <ele>233.4</ele>
        <time>2021-04-10T13:18:31Z</time>
      </trkpt>
      <trkpt lat="45.18167" lon="5.78523">
        <ele>233.2</ele>
        <time>2021-04-10T13:18:32Z</time>
      </trkpt>
      <trkpt lat="45.18169" lon="5.78519">
        <ele>233.4</ele>
        <time>2021-04-10T13:18:33Z</time>
      </trkpt>
      <trkpt lat="45.18171" lon="5.78516">
        <ele>233</ele>
        <time>2021-04-10T13:18:34Z</time>
      </trkpt>
      <trkpt lat="45.18173" lon="5.78513">
        <ele>232.4</ele>
        <time>2021-04-10T13:18:35Z</time>
      </trkpt>
      <trkpt lat="45.18177" lon="5.78508">
        <ele>232.6</ele>
        <time>2021-04-10T13:18:36Z</time>
      </trkpt>
      <trkpt lat="45.18178" lon="5.78506">
        <ele>232.2</ele>
        <time>2021-04-10T13:18:37Z</time>
      </trkpt>
      <trkpt lat="45.18179" lon="5.78504">
        <ele>232.2</ele>
        <time>2021-04-10T13:18:38Z</time>
      </trkpt>
      <trkpt lat="45.1818" lon="5.78502">
        <ele>231.8</ele>
        <time>2021-04-10T13:18:39Z</time>
      </trkpt>
      <trkpt lat="45.1818" lon="5.785">
        <ele>232</ele>
        <time>2021-04-10T13:18:40Z</time>
      </trkpt>
      <trkpt lat="45.18184" lon="5.78492">
        <ele>231.6</ele>
        <time>2021-04-10T13:18:41Z</time>
      </trkpt>
      <trkpt lat="45.18184" lon="5.78489">
        <ele>231.8</ele>
        <time>2021-04-10T13:18:42Z</time>
      </trkpt>
      <trkpt lat="45.18185" lon="5.78486">
        <ele>231.6</ele>
        <time>2021-04-10T13:18:43Z</time>
      </trkpt>
      <trkpt lat="45.18186" lon="5.78484">
        <ele>231.8</ele>
        <time>2021-04-10T13:18:44Z</time>
      </trkpt>
      <trkpt lat="45.18187" lon="5.78482">
        <ele>231.4</ele>
        <time>2021-04-10T13:18:45Z</time>
      </trkpt>
      <trkpt lat="45.18187" lon="5.7848">
        <ele>231.6</ele>
        <time>2021-04-10T13:18:46Z</time>
      </trkpt>
      <trkpt lat="45.18188" lon="5.78479">
        <ele>231.2</ele>
        <time>2021-04-10T13:18:47Z</time>
      </trkpt>
      <trkpt lat="45.18189" lon="5.78477">
        <ele>231.2</ele>
        <time>2021-04-10T13:18:48Z</time>
      </trkpt>
      <trkpt lat="45.18193" lon="5.78468">
        <ele>230.8</ele>
        <time>2021-04-10T13:18:49Z</time>
      </trkpt>
      <trkpt lat="45.18195" lon="5.78463">
        <ele>230.8</ele>
        <time>2021-04-10T13:18:50Z</time>
      </trkpt>
      <trkpt lat="45.18196" lon="5.78459">
        <ele>230.4</ele>
        <time>2021-04-10T13:18:51Z</time>
      </trkpt>
      <trkpt lat="45.18197" lon="5.78456">
        <ele>230.6</ele>
        <time>2021-04-10T13:18:52Z</time>
      </trkpt>
      <trkpt lat="45.18197" lon="5.78454">
        <ele>230.2</ele>
        <time>2021-04-10T13:18:53Z</time>
      </trkpt>
      <trkpt lat="45.18198" lon="5.78453">
        <ele>230.4</ele>
        <time>2021-04-10T13:18:54Z</time>
      </trkpt>
      <trkpt lat="45.18198" lon="5.78451">
        <ele>230</ele>
        <time>2021-04-10T13:18:55Z</time>
      </trkpt>
      <trkpt lat="45.182" lon="5.78445">
        <ele>229.8</ele>
        <time>2021-04-10T13:18:56Z</time>
      </trkpt>
      <trkpt lat="45.18201" lon="5.78442">
        <ele>229.8</ele>
        <time>2021-04-10T13:18:57Z</time>
      </trkpt>
      <trkpt lat="45.18202" lon="5.78439">
        <ele>229.6</ele>
        <time>2021-04-10T13:18:58Z</time>
      </trkpt>
      <trkpt lat="45.18203" lon="5.78436">
        <ele>229.4</ele>
        <time>2021-04-10T13:18:59Z</time>
      </trkpt>
      <trkpt lat="45.18204" lon="5.78433">
        <ele>229.2</ele>
        <time>2021-04-10T13:19:00Z</time>
      </trkpt>
      <trkpt lat="45.18204" lon="5.78433">
        <ele>229.4</ele>
        <time>2021-04-10T13:19:01Z</time>
      </trkpt>
      <trkpt lat="45.18204" lon="5.78433">
        <ele>229</ele>
        <time>2021-04-10T13:19:02Z</time>
      </trkpt>
      <trkpt lat="45.18204" lon="5.78433">
        <ele>229.2</ele>
        <time>2021-04-10T13:19:03Z</time>
      </trkpt>
      <trkpt lat="45.18205" lon="5.7843">
        <ele>229</ele>
        <time>2021-04-10T13:19:04Z</time>
      </trkpt>
      <trkpt lat="45.18206" lon="5.78428">
        <ele>229</ele>
        <time>2021-04-10T13:19:05Z</time>
      </trkpt>
      <trkpt lat="45.18207" lon="5.78426">
        <ele>228.8</ele>
        <time>2021-04-10T13:19:06Z</time>
      </trkpt>
      <trkpt lat="45.18208" lon="5.78424">
        <ele>228.8</ele>
        <time>2021-04-10T13:19:07Z</time>
      </trkpt>
      <trkpt lat="45.18209" lon="5.78422">
        <ele>228.6</ele>
        <time>2021-04-10T13:19:08Z</time>
      </trkpt>
      <trkpt lat="45.18211" lon="5.78419">
        <ele>229</ele>
        <time>2021-04-10T13:19:09Z</time>
      </trkpt>
      <trkpt lat="45.18213" lon="5.78417">
        <ele>228.6</ele>
        <time>2021-04-10T13:19:10Z</time>
      </trkpt>
      <trkpt lat="45.18215" lon="5.78414">
        <ele>228.6</ele>
        <time>2021-04-10T13:19:11Z</time>
      </trkpt>
      <trkpt lat="45.18216" lon="5.78411">
        <ele>228.6</ele>
        <time>2021-04-10T13:19:12Z</time>
      </trkpt>
      <trkpt lat="45.18218" lon="5.78409">
        <ele>228.8</ele>
        <time>2021-04-10T13:19:13Z</time>
      </trkpt>
      <trkpt lat="45.1822" lon="5.78406">
        <ele>228.8</ele>
        <time>2021-04-10T13:19:14Z</time>
      </trkpt>
      <trkpt lat="45.18222" lon="5.78403">
        <ele>229</ele>
        <time>2021-04-10T13:19:15Z</time>
      </trkpt>
      <trkpt lat="45.18224" lon="5.784">
        <ele>228.8</ele>
        <time>2021-04-10T13:19:16Z</time>
      </trkpt>
      <trkpt lat="45.18228" lon="5.78394">
        <ele>228.8</ele>
        <time>2021-04-10T13:19:17Z</time>
      </trkpt>
      <trkpt lat="45.18228" lon="5.78394">
        <ele>229</ele>
        <time>2021-04-10T13:19:18Z</time>
      </trkpt>
      <trkpt lat="45.18228" lon="5.78394">
        <ele>229.2</ele>
        <time>2021-04-10T13:19:19Z</time>
      </trkpt>
      <trkpt lat="45.18228" lon="5.78392">
        <ele>229.4</ele>
        <time>2021-04-10T13:19:20Z</time>
      </trkpt>
      <trkpt lat="45.18229" lon="5.78391">
        <ele>229.4</ele>
        <time>2021-04-10T13:19:21Z</time>
      </trkpt>
      <trkpt lat="45.1823" lon="5.78389">
        <ele>229.6</ele>
        <time>2021-04-10T13:19:22Z</time>
      </trkpt>
      <trkpt lat="45.18231" lon="5.78387">
        <ele>229.2</ele>
        <time>2021-04-10T13:19:23Z</time>
      </trkpt>
      <trkpt lat="45.18232" lon="5.78385">
        <ele>228.8</ele>
        <time>2021-04-10T13:19:24Z</time>
      </trkpt>
      <trkpt lat="45.18232" lon="5.78384">
        <ele>228.8</ele>
        <time>2021-04-10T13:19:25Z</time>
      </trkpt>
      <trkpt lat="45.18233" lon="5.78382">
        <ele>228.4</ele>
        <time>2021-04-10T13:19:26Z</time>
      </trkpt>
      <trkpt lat="45.18233" lon="5.78382">
        <ele>228.6</ele>
        <time>2021-04-10T13:19:27Z</time>
      </trkpt>
      <trkpt lat="45.18233" lon="5.78382">
        <ele>228.6</ele>
        <time>2021-04-10T13:19:28Z</time>
      </trkpt>
      <trkpt lat="45.18233" lon="5.78382">
        <ele>228.8</ele>
        <time>2021-04-10T13:19:29Z</time>
      </trkpt>
      <trkpt lat="45.18233" lon="5.78382">
        <ele>228.6</ele>
        <time>2021-04-10T13:19:30Z</time>
      </trkpt>
      <trkpt lat="45.18233" lon="5.78382">
        <ele>228.8</ele>
        <time>2021-04-10T13:19:31Z</time>
      </trkpt>
      <trkpt lat="45.18233" lon="5.78382">
        <ele>228.8</ele>
        <time>2021-04-10T13:19:32Z</time>
      </trkpt>
      <trkpt lat="45.18233" lon="5.78382">
        <ele>229</ele>
        <time>2021-04-10T13:19:33Z</time>
      </trkpt>
    </trkseg>
  </trk>
</gpx>